<?xml version="1.0" encoding="UTF-8" standalone="no" ?>
<gpx xmlns="http://www.topografix.com/GPX/1/1" xmlns:xsi="http://www.w3.org/2001/XMLSchema-instance" xsi:schemaLocation="http://www.topografix.com/GPX/1/1 http://www.topografix.com/GPX/1/1/gpx.xsd" version="1.1" creator="VisuGPX - https://www.visugpx.com">
  <metadata>
    <name>Vénissieux Alsace</name>
  </metadata>
  <trk>
    <name><![CDATA[Vénissieux Cyclisme]]></name>
    <trkseg>
      <trkpt lat="45.71311" lon="4.8865">
        <ele>155.39999389648</ele>
        <time>2017-07-16T06:38:02Z</time>
      </trkpt>
      <trkpt lat="45.71314" lon="4.88639">
        <ele>155.39999389648</ele>
        <time>2017-07-16T06:38:05Z</time>
      </trkpt>
      <trkpt lat="45.71318" lon="4.88632">
        <ele>155.39999389648</ele>
        <time>2017-07-16T06:38:07Z</time>
      </trkpt>
      <trkpt lat="45.71322" lon="4.88624">
        <ele>155.39999389648</ele>
        <time>2017-07-16T06:38:09Z</time>
      </trkpt>
      <trkpt lat="45.71322" lon="4.88614">
        <ele>155.60000610352</ele>
        <time>2017-07-16T06:38:11Z</time>
      </trkpt>
      <trkpt lat="45.71315" lon="4.88601">
        <ele>155.60000610352</ele>
        <time>2017-07-16T06:38:14Z</time>
      </trkpt>
      <trkpt lat="45.71312" lon="4.88579">
        <ele>155.60000610352</ele>
        <time>2017-07-16T06:38:18Z</time>
      </trkpt>
      <trkpt lat="45.71311" lon="4.88567">
        <ele>155.60000610352</ele>
        <time>2017-07-16T06:38:20Z</time>
      </trkpt>
      <trkpt lat="45.71311" lon="4.88561">
        <ele>155.60000610352</ele>
        <time>2017-07-16T06:38:21Z</time>
      </trkpt>
      <trkpt lat="45.71307" lon="4.8855">
        <ele>155.80000305176</ele>
        <time>2017-07-16T06:38:23Z</time>
      </trkpt>
      <trkpt lat="45.71302" lon="4.88539">
        <ele>155.80000305176</ele>
        <time>2017-07-16T06:38:25Z</time>
      </trkpt>
      <trkpt lat="45.71296" lon="4.88529">
        <ele>155.80000305176</ele>
        <time>2017-07-16T06:38:27Z</time>
      </trkpt>
      <trkpt lat="45.71292" lon="4.88524">
        <ele>155.80000305176</ele>
        <time>2017-07-16T06:38:28Z</time>
      </trkpt>
      <trkpt lat="45.71274" lon="4.88513">
        <ele>155.80000305176</ele>
        <time>2017-07-16T06:38:32Z</time>
      </trkpt>
      <trkpt lat="45.71269" lon="4.88512">
        <ele>155.80000305176</ele>
        <time>2017-07-16T06:38:33Z</time>
      </trkpt>
      <trkpt lat="45.71253" lon="4.88513">
        <ele>155.80000305176</ele>
        <time>2017-07-16T06:38:36Z</time>
      </trkpt>
      <trkpt lat="45.71237" lon="4.88514">
        <ele>155.60000610352</ele>
        <time>2017-07-16T06:38:39Z</time>
      </trkpt>
      <trkpt lat="45.712" lon="4.8852">
        <ele>155.19999694824</ele>
        <time>2017-07-16T06:38:46Z</time>
      </trkpt>
      <trkpt lat="45.71165" lon="4.88524">
        <ele>155.19999694824</ele>
        <time>2017-07-16T06:38:53Z</time>
      </trkpt>
      <trkpt lat="45.71129" lon="4.88528">
        <ele>155.60000610352</ele>
        <time>2017-07-16T06:39:00Z</time>
      </trkpt>
      <trkpt lat="45.71088" lon="4.88532">
        <ele>156</ele>
        <time>2017-07-16T06:39:08Z</time>
      </trkpt>
      <trkpt lat="45.71078" lon="4.88531">
        <ele>156.19999694824</ele>
        <time>2017-07-16T06:39:12Z</time>
      </trkpt>
      <trkpt lat="45.71077" lon="4.88534">
        <ele>156</ele>
        <time>2017-07-16T06:39:51Z</time>
      </trkpt>
      <trkpt lat="45.71075" lon="4.88535">
        <ele>156</ele>
        <time>2017-07-16T06:39:52Z</time>
      </trkpt>
      <trkpt lat="45.71062" lon="4.88536">
        <ele>156</ele>
        <time>2017-07-16T06:39:57Z</time>
      </trkpt>
      <trkpt lat="45.71031" lon="4.88541">
        <ele>156</ele>
        <time>2017-07-16T06:40:04Z</time>
      </trkpt>
      <trkpt lat="45.70998" lon="4.88541">
        <ele>156.39999389648</ele>
        <time>2017-07-16T06:40:11Z</time>
      </trkpt>
      <trkpt lat="45.70993" lon="4.8854">
        <ele>156.39999389648</ele>
        <time>2017-07-16T06:40:12Z</time>
      </trkpt>
      <trkpt lat="45.70973" lon="4.88531">
        <ele>156.60000610352</ele>
        <time>2017-07-16T06:40:16Z</time>
      </trkpt>
      <trkpt lat="45.70965" lon="4.88524">
        <ele>156.60000610352</ele>
        <time>2017-07-16T06:40:18Z</time>
      </trkpt>
      <trkpt lat="45.70952" lon="4.88506">
        <ele>156.60000610352</ele>
        <time>2017-07-16T06:40:22Z</time>
      </trkpt>
      <trkpt lat="45.70951" lon="4.88501">
        <ele>156.60000610352</ele>
        <time>2017-07-16T06:40:23Z</time>
      </trkpt>
      <trkpt lat="45.70959" lon="4.88486">
        <ele>156.39999389648</ele>
        <time>2017-07-16T06:40:26Z</time>
      </trkpt>
      <trkpt lat="45.70962" lon="4.88481">
        <ele>156.60000610352</ele>
        <time>2017-07-16T06:40:27Z</time>
      </trkpt>
      <trkpt lat="45.7098" lon="4.88452">
        <ele>156.60000610352</ele>
        <time>2017-07-16T06:40:32Z</time>
      </trkpt>
      <trkpt lat="45.71013" lon="4.88397">
        <ele>156.60000610352</ele>
        <time>2017-07-16T06:40:41Z</time>
      </trkpt>
      <trkpt lat="45.71041" lon="4.88354">
        <ele>156</ele>
        <time>2017-07-16T06:40:48Z</time>
      </trkpt>
      <trkpt lat="45.71075" lon="4.88299">
        <ele>155.80000305176</ele>
        <time>2017-07-16T06:40:57Z</time>
      </trkpt>
      <trkpt lat="45.71104" lon="4.88251">
        <ele>155.80000305176</ele>
        <time>2017-07-16T06:41:05Z</time>
      </trkpt>
      <trkpt lat="45.71132" lon="4.88204">
        <ele>155.39999389648</ele>
        <time>2017-07-16T06:41:13Z</time>
      </trkpt>
      <trkpt lat="45.7114" lon="4.88186">
        <ele>155.19999694824</ele>
        <time>2017-07-16T06:41:16Z</time>
      </trkpt>
      <trkpt lat="45.71139" lon="4.88173">
        <ele>155.19999694824</ele>
        <time>2017-07-16T06:41:18Z</time>
      </trkpt>
      <trkpt lat="45.71133" lon="4.88162">
        <ele>155.19999694824</ele>
        <time>2017-07-16T06:41:20Z</time>
      </trkpt>
      <trkpt lat="45.7113" lon="4.88148">
        <ele>155.19999694824</ele>
        <time>2017-07-16T06:41:22Z</time>
      </trkpt>
      <trkpt lat="45.71141" lon="4.8813">
        <ele>154.80000305176</ele>
        <time>2017-07-16T06:41:25Z</time>
      </trkpt>
      <trkpt lat="45.71156" lon="4.88108">
        <ele>154.80000305176</ele>
        <time>2017-07-16T06:41:29Z</time>
      </trkpt>
      <trkpt lat="45.7116" lon="4.88102">
        <ele>154.80000305176</ele>
        <time>2017-07-16T06:41:30Z</time>
      </trkpt>
      <trkpt lat="45.71185" lon="4.88069">
        <ele>155</ele>
        <time>2017-07-16T06:41:36Z</time>
      </trkpt>
      <trkpt lat="45.71189" lon="4.88063">
        <ele>155</ele>
        <time>2017-07-16T06:41:37Z</time>
      </trkpt>
      <trkpt lat="45.71219" lon="4.88017">
        <ele>154.60000610352</ele>
        <time>2017-07-16T06:41:45Z</time>
      </trkpt>
      <trkpt lat="45.71252" lon="4.87968">
        <ele>154.39999389648</ele>
        <time>2017-07-16T06:41:53Z</time>
      </trkpt>
      <trkpt lat="45.71289" lon="4.87916">
        <ele>154.19999694824</ele>
        <time>2017-07-16T06:42:02Z</time>
      </trkpt>
      <trkpt lat="45.71325" lon="4.87867">
        <ele>154</ele>
        <time>2017-07-16T06:42:11Z</time>
      </trkpt>
      <trkpt lat="45.71356" lon="4.87825">
        <ele>154</ele>
        <time>2017-07-16T06:42:19Z</time>
      </trkpt>
      <trkpt lat="45.71362" lon="4.87815">
        <ele>154</ele>
        <time>2017-07-16T06:42:21Z</time>
      </trkpt>
      <trkpt lat="45.71367" lon="4.87808">
        <ele>154</ele>
        <time>2017-07-16T06:42:24Z</time>
      </trkpt>
      <trkpt lat="45.71369" lon="4.878">
        <ele>153.80000305176</ele>
        <time>2017-07-16T06:42:26Z</time>
      </trkpt>
      <trkpt lat="45.71367" lon="4.87795">
        <ele>153.80000305176</ele>
        <time>2017-07-16T06:42:27Z</time>
      </trkpt>
      <trkpt lat="45.71356" lon="4.87774">
        <ele>153.60000610352</ele>
        <time>2017-07-16T06:42:31Z</time>
      </trkpt>
      <trkpt lat="45.71354" lon="4.87768">
        <ele>153.60000610352</ele>
        <time>2017-07-16T06:42:32Z</time>
      </trkpt>
      <trkpt lat="45.71338" lon="4.87738">
        <ele>153.80000305176</ele>
        <time>2017-07-16T06:42:37Z</time>
      </trkpt>
      <trkpt lat="45.71311" lon="4.87684">
        <ele>153.80000305176</ele>
        <time>2017-07-16T06:42:45Z</time>
      </trkpt>
      <trkpt lat="45.71277" lon="4.87618">
        <ele>153.80000305176</ele>
        <time>2017-07-16T06:42:54Z</time>
      </trkpt>
      <trkpt lat="45.71246" lon="4.8756">
        <ele>153.39999389648</ele>
        <time>2017-07-16T06:43:02Z</time>
      </trkpt>
      <trkpt lat="45.71238" lon="4.87546">
        <ele>153.39999389648</ele>
        <time>2017-07-16T06:43:04Z</time>
      </trkpt>
      <trkpt lat="45.71216" lon="4.87505">
        <ele>153</ele>
        <time>2017-07-16T06:43:10Z</time>
      </trkpt>
      <trkpt lat="45.7121" lon="4.87491">
        <ele>153</ele>
        <time>2017-07-16T06:43:12Z</time>
      </trkpt>
      <trkpt lat="45.7121" lon="4.87475">
        <ele>152.80000305176</ele>
        <time>2017-07-16T06:43:14Z</time>
      </trkpt>
      <trkpt lat="45.71219" lon="4.87464">
        <ele>152.80000305176</ele>
        <time>2017-07-16T06:43:16Z</time>
      </trkpt>
      <trkpt lat="45.71229" lon="4.87456">
        <ele>152.80000305176</ele>
        <time>2017-07-16T06:43:18Z</time>
      </trkpt>
      <trkpt lat="45.71239" lon="4.87447">
        <ele>153</ele>
        <time>2017-07-16T06:43:20Z</time>
      </trkpt>
      <trkpt lat="45.71274" lon="4.8742">
        <ele>153</ele>
        <time>2017-07-16T06:43:27Z</time>
      </trkpt>
      <trkpt lat="45.71317" lon="4.87385">
        <ele>153</ele>
        <time>2017-07-16T06:43:36Z</time>
      </trkpt>
      <trkpt lat="45.71361" lon="4.8735">
        <ele>152.80000305176</ele>
        <time>2017-07-16T06:43:45Z</time>
      </trkpt>
      <trkpt lat="45.71399" lon="4.87316">
        <ele>152.60000610352</ele>
        <time>2017-07-16T06:43:53Z</time>
      </trkpt>
      <trkpt lat="45.71447" lon="4.87276">
        <ele>152.60000610352</ele>
        <time>2017-07-16T06:44:03Z</time>
      </trkpt>
      <trkpt lat="45.71452" lon="4.87272">
        <ele>152.60000610352</ele>
        <time>2017-07-16T06:44:04Z</time>
      </trkpt>
      <trkpt lat="45.71489" lon="4.87241">
        <ele>152.39999389648</ele>
        <time>2017-07-16T06:44:12Z</time>
      </trkpt>
      <trkpt lat="45.71494" lon="4.87237">
        <ele>152.19999694824</ele>
        <time>2017-07-16T06:44:13Z</time>
      </trkpt>
      <trkpt lat="45.7153" lon="4.87206">
        <ele>152</ele>
        <time>2017-07-16T06:44:21Z</time>
      </trkpt>
      <trkpt lat="45.7154" lon="4.872">
        <ele>152.19999694824</ele>
        <time>2017-07-16T06:44:23Z</time>
      </trkpt>
      <trkpt lat="45.71549" lon="4.87192">
        <ele>152.39999389648</ele>
        <time>2017-07-16T06:44:25Z</time>
      </trkpt>
      <trkpt lat="45.71567" lon="4.87176">
        <ele>152.19999694824</ele>
        <time>2017-07-16T06:44:29Z</time>
      </trkpt>
      <trkpt lat="45.71615" lon="4.87134">
        <ele>151.60000610352</ele>
        <time>2017-07-16T06:44:39Z</time>
      </trkpt>
      <trkpt lat="45.7162" lon="4.8713">
        <ele>151.60000610352</ele>
        <time>2017-07-16T06:44:40Z</time>
      </trkpt>
      <trkpt lat="45.7166" lon="4.87099">
        <ele>151.39999389648</ele>
        <time>2017-07-16T06:44:48Z</time>
      </trkpt>
      <trkpt lat="45.71675" lon="4.87087">
        <ele>151.19999694824</ele>
        <time>2017-07-16T06:44:51Z</time>
      </trkpt>
      <trkpt lat="45.71685" lon="4.87079">
        <ele>151.19999694824</ele>
        <time>2017-07-16T06:44:53Z</time>
      </trkpt>
      <trkpt lat="45.71709" lon="4.87056">
        <ele>151</ele>
        <time>2017-07-16T06:44:58Z</time>
      </trkpt>
      <trkpt lat="45.71715" lon="4.87053">
        <ele>151</ele>
        <time>2017-07-16T06:44:59Z</time>
      </trkpt>
      <trkpt lat="45.71729" lon="4.87041">
        <ele>151</ele>
        <time>2017-07-16T06:45:02Z</time>
      </trkpt>
      <trkpt lat="45.71756" lon="4.87013">
        <ele>151.39999389648</ele>
        <time>2017-07-16T06:45:09Z</time>
      </trkpt>
      <trkpt lat="45.71778" lon="4.86991">
        <ele>152.19999694824</ele>
        <time>2017-07-16T06:45:15Z</time>
      </trkpt>
      <trkpt lat="45.71789" lon="4.86981">
        <ele>152.80000305176</ele>
        <time>2017-07-16T06:45:18Z</time>
      </trkpt>
      <trkpt lat="45.718" lon="4.86971">
        <ele>153.39999389648</ele>
        <time>2017-07-16T06:45:21Z</time>
      </trkpt>
      <trkpt lat="45.71815" lon="4.86957">
        <ele>154.60000610352</ele>
        <time>2017-07-16T06:45:25Z</time>
      </trkpt>
      <trkpt lat="45.71818" lon="4.86954">
        <ele>154.80000305176</ele>
        <time>2017-07-16T06:45:26Z</time>
      </trkpt>
      <trkpt lat="45.71852" lon="4.86922">
        <ele>155.60000610352</ele>
        <time>2017-07-16T06:45:34Z</time>
      </trkpt>
      <trkpt lat="45.71856" lon="4.86918">
        <ele>155.60000610352</ele>
        <time>2017-07-16T06:45:35Z</time>
      </trkpt>
      <trkpt lat="45.71889" lon="4.86887">
        <ele>154.80000305176</ele>
        <time>2017-07-16T06:45:41Z</time>
      </trkpt>
      <trkpt lat="45.71902" lon="4.86875">
        <ele>154.39999389648</ele>
        <time>2017-07-16T06:45:43Z</time>
      </trkpt>
      <trkpt lat="45.71929" lon="4.86852">
        <ele>152.80000305176</ele>
        <time>2017-07-16T06:45:47Z</time>
      </trkpt>
      <trkpt lat="45.71934" lon="4.86849">
        <ele>152.39999389648</ele>
        <time>2017-07-16T06:45:48Z</time>
      </trkpt>
      <trkpt lat="45.71943" lon="4.86845">
        <ele>151.39999389648</ele>
        <time>2017-07-16T06:45:50Z</time>
      </trkpt>
      <trkpt lat="45.71946" lon="4.86843">
        <ele>151</ele>
        <time>2017-07-16T06:45:51Z</time>
      </trkpt>
      <trkpt lat="45.7195" lon="4.86841">
        <ele>150.19999694824</ele>
        <time>2017-07-16T06:45:53Z</time>
      </trkpt>
      <trkpt lat="45.71952" lon="4.86839">
        <ele>149.80000305176</ele>
        <time>2017-07-16T06:45:54Z</time>
      </trkpt>
      <trkpt lat="45.71955" lon="4.86825">
        <ele>149.39999389648</ele>
        <time>2017-07-16T06:45:57Z</time>
      </trkpt>
      <trkpt lat="45.71955" lon="4.86818">
        <ele>149.39999389648</ele>
        <time>2017-07-16T06:45:58Z</time>
      </trkpt>
      <trkpt lat="45.71954" lon="4.86805">
        <ele>149.19999694824</ele>
        <time>2017-07-16T06:46:00Z</time>
      </trkpt>
      <trkpt lat="45.71955" lon="4.86798">
        <ele>149.19999694824</ele>
        <time>2017-07-16T06:46:01Z</time>
      </trkpt>
      <trkpt lat="45.71956" lon="4.86776">
        <ele>149.19999694824</ele>
        <time>2017-07-16T06:46:04Z</time>
      </trkpt>
      <trkpt lat="45.71956" lon="4.86751">
        <ele>149.19999694824</ele>
        <time>2017-07-16T06:46:07Z</time>
      </trkpt>
      <trkpt lat="45.71955" lon="4.86709">
        <ele>149.19999694824</ele>
        <time>2017-07-16T06:46:12Z</time>
      </trkpt>
      <trkpt lat="45.71955" lon="4.86675">
        <ele>149</ele>
        <time>2017-07-16T06:46:16Z</time>
      </trkpt>
      <trkpt lat="45.71954" lon="4.86597">
        <ele>149</ele>
        <time>2017-07-16T06:46:25Z</time>
      </trkpt>
      <trkpt lat="45.71953" lon="4.86579">
        <ele>149</ele>
        <time>2017-07-16T06:46:27Z</time>
      </trkpt>
      <trkpt lat="45.71952" lon="4.86499">
        <ele>148.39999389648</ele>
        <time>2017-07-16T06:46:36Z</time>
      </trkpt>
      <trkpt lat="45.71952" lon="4.86464">
        <ele>148.39999389648</ele>
        <time>2017-07-16T06:46:40Z</time>
      </trkpt>
      <trkpt lat="45.71951" lon="4.86438">
        <ele>148.39999389648</ele>
        <time>2017-07-16T06:46:43Z</time>
      </trkpt>
      <trkpt lat="45.71951" lon="4.86403">
        <ele>148.19999694824</ele>
        <time>2017-07-16T06:46:47Z</time>
      </trkpt>
      <trkpt lat="45.7195" lon="4.86395">
        <ele>148.19999694824</ele>
        <time>2017-07-16T06:46:48Z</time>
      </trkpt>
      <trkpt lat="45.71949" lon="4.86378">
        <ele>148</ele>
        <time>2017-07-16T06:46:50Z</time>
      </trkpt>
      <trkpt lat="45.71949" lon="4.86317">
        <ele>147.60000610352</ele>
        <time>2017-07-16T06:46:57Z</time>
      </trkpt>
      <trkpt lat="45.71949" lon="4.86244">
        <ele>147.39999389648</ele>
        <time>2017-07-16T06:47:05Z</time>
      </trkpt>
      <trkpt lat="45.71948" lon="4.8617">
        <ele>147.39999389648</ele>
        <time>2017-07-16T06:47:13Z</time>
      </trkpt>
      <trkpt lat="45.71947" lon="4.86132">
        <ele>147</ele>
        <time>2017-07-16T06:47:17Z</time>
      </trkpt>
      <trkpt lat="45.71947" lon="4.86085">
        <ele>146.80000305176</ele>
        <time>2017-07-16T06:47:22Z</time>
      </trkpt>
      <trkpt lat="45.71945" lon="4.86003">
        <ele>146.39999389648</ele>
        <time>2017-07-16T06:47:31Z</time>
      </trkpt>
      <trkpt lat="45.71945" lon="4.85994">
        <ele>146.39999389648</ele>
        <time>2017-07-16T06:47:32Z</time>
      </trkpt>
      <trkpt lat="45.71944" lon="4.85941">
        <ele>146.19999694824</ele>
        <time>2017-07-16T06:47:39Z</time>
      </trkpt>
      <trkpt lat="45.71946" lon="4.85921">
        <ele>146</ele>
        <time>2017-07-16T06:47:43Z</time>
      </trkpt>
      <trkpt lat="45.71944" lon="4.85901">
        <ele>145.60000610352</ele>
        <time>2017-07-16T06:47:47Z</time>
      </trkpt>
      <trkpt lat="45.71943" lon="4.85895">
        <ele>145.60000610352</ele>
        <time>2017-07-16T06:47:48Z</time>
      </trkpt>
      <trkpt lat="45.71942" lon="4.85866">
        <ele>145.60000610352</ele>
        <time>2017-07-16T06:47:52Z</time>
      </trkpt>
      <trkpt lat="45.71942" lon="4.85819">
        <ele>145.80000305176</ele>
        <time>2017-07-16T06:47:58Z</time>
      </trkpt>
      <trkpt lat="45.71941" lon="4.85803">
        <ele>145.80000305176</ele>
        <time>2017-07-16T06:48:00Z</time>
      </trkpt>
      <trkpt lat="45.7194" lon="4.85744">
        <ele>145.39999389648</ele>
        <time>2017-07-16T06:48:07Z</time>
      </trkpt>
      <trkpt lat="45.71939" lon="4.85695">
        <ele>145.60000610352</ele>
        <time>2017-07-16T06:48:13Z</time>
      </trkpt>
      <trkpt lat="45.71939" lon="4.85634">
        <ele>145.19999694824</ele>
        <time>2017-07-16T06:48:20Z</time>
      </trkpt>
      <trkpt lat="45.71938" lon="4.85582">
        <ele>145</ele>
        <time>2017-07-16T06:48:26Z</time>
      </trkpt>
      <trkpt lat="45.71937" lon="4.85555">
        <ele>145</ele>
        <time>2017-07-16T06:48:29Z</time>
      </trkpt>
      <trkpt lat="45.71934" lon="4.85479">
        <ele>144.80000305176</ele>
        <time>2017-07-16T06:48:38Z</time>
      </trkpt>
      <trkpt lat="45.71934" lon="4.85463">
        <ele>144.60000610352</ele>
        <time>2017-07-16T06:48:40Z</time>
      </trkpt>
      <trkpt lat="45.71934" lon="4.8545">
        <ele>144.60000610352</ele>
        <time>2017-07-16T06:48:42Z</time>
      </trkpt>
      <trkpt lat="45.71936" lon="4.85446">
        <ele>144.60000610352</ele>
        <time>2017-07-16T06:48:43Z</time>
      </trkpt>
      <trkpt lat="45.71948" lon="4.85442">
        <ele>144.39999389648</ele>
        <time>2017-07-16T06:48:47Z</time>
      </trkpt>
      <trkpt lat="45.71952" lon="4.85442">
        <ele>144.39999389648</ele>
        <time>2017-07-16T06:48:48Z</time>
      </trkpt>
      <trkpt lat="45.71972" lon="4.85441">
        <ele>144.19999694824</ele>
        <time>2017-07-16T06:48:52Z</time>
      </trkpt>
      <trkpt lat="45.72018" lon="4.85438">
        <ele>144.19999694824</ele>
        <time>2017-07-16T06:49:00Z</time>
      </trkpt>
      <trkpt lat="45.72055" lon="4.85435">
        <ele>144.19999694824</ele>
        <time>2017-07-16T06:49:06Z</time>
      </trkpt>
      <trkpt lat="45.72109" lon="4.85431">
        <ele>144</ele>
        <time>2017-07-16T06:49:15Z</time>
      </trkpt>
      <trkpt lat="45.72115" lon="4.85431">
        <ele>144</ele>
        <time>2017-07-16T06:49:16Z</time>
      </trkpt>
      <trkpt lat="45.72151" lon="4.85428">
        <ele>144</ele>
        <time>2017-07-16T06:49:22Z</time>
      </trkpt>
      <trkpt lat="45.72181" lon="4.85426">
        <ele>143.80000305176</ele>
        <time>2017-07-16T06:49:28Z</time>
      </trkpt>
      <trkpt lat="45.72183" lon="4.85426">
        <ele>143.39999389648</ele>
        <time>2017-07-16T06:50:46Z</time>
      </trkpt>
      <trkpt lat="45.72185" lon="4.85426">
        <ele>143.39999389648</ele>
        <time>2017-07-16T06:50:47Z</time>
      </trkpt>
      <trkpt lat="45.72199" lon="4.85424">
        <ele>143.39999389648</ele>
        <time>2017-07-16T06:50:52Z</time>
      </trkpt>
      <trkpt lat="45.7223" lon="4.85421">
        <ele>143.60000610352</ele>
        <time>2017-07-16T06:50:58Z</time>
      </trkpt>
      <trkpt lat="45.72269" lon="4.85418">
        <ele>144</ele>
        <time>2017-07-16T06:51:05Z</time>
      </trkpt>
      <trkpt lat="45.7231" lon="4.85416">
        <ele>143.80000305176</ele>
        <time>2017-07-16T06:51:12Z</time>
      </trkpt>
      <trkpt lat="45.7235" lon="4.85413">
        <ele>143.80000305176</ele>
        <time>2017-07-16T06:51:19Z</time>
      </trkpt>
      <trkpt lat="45.72396" lon="4.85411">
        <ele>143.80000305176</ele>
        <time>2017-07-16T06:51:27Z</time>
      </trkpt>
      <trkpt lat="45.72446" lon="4.85408">
        <ele>143.60000610352</ele>
        <time>2017-07-16T06:51:36Z</time>
      </trkpt>
      <trkpt lat="45.7248" lon="4.85405">
        <ele>143.60000610352</ele>
        <time>2017-07-16T06:51:42Z</time>
      </trkpt>
      <trkpt lat="45.72526" lon="4.854">
        <ele>143.80000305176</ele>
        <time>2017-07-16T06:51:50Z</time>
      </trkpt>
      <trkpt lat="45.7257" lon="4.85397">
        <ele>144</ele>
        <time>2017-07-16T06:51:58Z</time>
      </trkpt>
      <trkpt lat="45.72626" lon="4.85394">
        <ele>143.60000610352</ele>
        <time>2017-07-16T06:52:08Z</time>
      </trkpt>
      <trkpt lat="45.72637" lon="4.85394">
        <ele>143.80000305176</ele>
        <time>2017-07-16T06:52:10Z</time>
      </trkpt>
      <trkpt lat="45.7266" lon="4.85392">
        <ele>143.80000305176</ele>
        <time>2017-07-16T06:52:14Z</time>
      </trkpt>
      <trkpt lat="45.72699" lon="4.85389">
        <ele>143.80000305176</ele>
        <time>2017-07-16T06:52:21Z</time>
      </trkpt>
      <trkpt lat="45.72738" lon="4.85387">
        <ele>144</ele>
        <time>2017-07-16T06:52:28Z</time>
      </trkpt>
      <trkpt lat="45.72787" lon="4.85384">
        <ele>144</ele>
        <time>2017-07-16T06:52:37Z</time>
      </trkpt>
      <trkpt lat="45.72826" lon="4.85379">
        <ele>144</ele>
        <time>2017-07-16T06:52:44Z</time>
      </trkpt>
      <trkpt lat="45.72831" lon="4.85379">
        <ele>144</ele>
        <time>2017-07-16T06:52:45Z</time>
      </trkpt>
      <trkpt lat="45.72876" lon="4.85376">
        <ele>144</ele>
        <time>2017-07-16T06:52:53Z</time>
      </trkpt>
      <trkpt lat="45.72892" lon="4.85375">
        <ele>144.19999694824</ele>
        <time>2017-07-16T06:52:56Z</time>
      </trkpt>
      <trkpt lat="45.72912" lon="4.85375">
        <ele>144.39999389648</ele>
        <time>2017-07-16T06:53:00Z</time>
      </trkpt>
      <trkpt lat="45.72944" lon="4.85372">
        <ele>144.80000305176</ele>
        <time>2017-07-16T06:53:07Z</time>
      </trkpt>
      <trkpt lat="45.72952" lon="4.85371">
        <ele>144.80000305176</ele>
        <time>2017-07-16T06:53:11Z</time>
      </trkpt>
      <trkpt lat="45.72956" lon="4.85372">
        <ele>144.39999389648</ele>
        <time>2017-07-16T06:53:17Z</time>
      </trkpt>
      <trkpt lat="45.72958" lon="4.8537">
        <ele>144.39999389648</ele>
        <time>2017-07-16T06:53:23Z</time>
      </trkpt>
      <trkpt lat="45.7296" lon="4.85368">
        <ele>144.19999694824</ele>
        <time>2017-07-16T06:53:24Z</time>
      </trkpt>
      <trkpt lat="45.72962" lon="4.85357">
        <ele>144.19999694824</ele>
        <time>2017-07-16T06:53:27Z</time>
      </trkpt>
      <trkpt lat="45.72961" lon="4.85342">
        <ele>144</ele>
        <time>2017-07-16T06:53:30Z</time>
      </trkpt>
      <trkpt lat="45.72961" lon="4.85335">
        <ele>144</ele>
        <time>2017-07-16T06:53:31Z</time>
      </trkpt>
      <trkpt lat="45.72953" lon="4.85294">
        <ele>144</ele>
        <time>2017-07-16T06:53:37Z</time>
      </trkpt>
      <trkpt lat="45.72943" lon="4.85228">
        <ele>144</ele>
        <time>2017-07-16T06:53:45Z</time>
      </trkpt>
      <trkpt lat="45.72942" lon="4.8518">
        <ele>143</ele>
        <time>2017-07-16T06:53:50Z</time>
      </trkpt>
      <trkpt lat="45.72942" lon="4.8517">
        <ele>142.80000305176</ele>
        <time>2017-07-16T06:53:51Z</time>
      </trkpt>
      <trkpt lat="45.72942" lon="4.8512">
        <ele>142.39999389648</ele>
        <time>2017-07-16T06:53:56Z</time>
      </trkpt>
      <trkpt lat="45.72942" lon="4.85111">
        <ele>142.19999694824</ele>
        <time>2017-07-16T06:53:57Z</time>
      </trkpt>
      <trkpt lat="45.72941" lon="4.85102">
        <ele>141.80000305176</ele>
        <time>2017-07-16T06:53:58Z</time>
      </trkpt>
      <trkpt lat="45.7294" lon="4.85053">
        <ele>140.80000305176</ele>
        <time>2017-07-16T06:54:03Z</time>
      </trkpt>
      <trkpt lat="45.7294" lon="4.85031">
        <ele>140.39999389648</ele>
        <time>2017-07-16T06:54:05Z</time>
      </trkpt>
      <trkpt lat="45.72939" lon="4.85009">
        <ele>139.80000305176</ele>
        <time>2017-07-16T06:54:07Z</time>
      </trkpt>
      <trkpt lat="45.72938" lon="4.84953">
        <ele>138.80000305176</ele>
        <time>2017-07-16T06:54:12Z</time>
      </trkpt>
      <trkpt lat="45.72938" lon="4.84941">
        <ele>138.60000610352</ele>
        <time>2017-07-16T06:54:13Z</time>
      </trkpt>
      <trkpt lat="45.72937" lon="4.84859">
        <ele>137.80000305176</ele>
        <time>2017-07-16T06:54:20Z</time>
      </trkpt>
      <trkpt lat="45.72938" lon="4.84847">
        <ele>137.60000610352</ele>
        <time>2017-07-16T06:54:21Z</time>
      </trkpt>
      <trkpt lat="45.72938" lon="4.84824">
        <ele>137.60000610352</ele>
        <time>2017-07-16T06:54:23Z</time>
      </trkpt>
      <trkpt lat="45.72939" lon="4.84758">
        <ele>136.80000305176</ele>
        <time>2017-07-16T06:54:29Z</time>
      </trkpt>
      <trkpt lat="45.7294" lon="4.84715">
        <ele>136.39999389648</ele>
        <time>2017-07-16T06:54:33Z</time>
      </trkpt>
      <trkpt lat="45.72941" lon="4.84695">
        <ele>136.39999389648</ele>
        <time>2017-07-16T06:54:35Z</time>
      </trkpt>
      <trkpt lat="45.72945" lon="4.84637">
        <ele>136</ele>
        <time>2017-07-16T06:54:41Z</time>
      </trkpt>
      <trkpt lat="45.72947" lon="4.84574">
        <ele>136.39999389648</ele>
        <time>2017-07-16T06:54:48Z</time>
      </trkpt>
      <trkpt lat="45.72953" lon="4.84515">
        <ele>136.60000610352</ele>
        <time>2017-07-16T06:54:55Z</time>
      </trkpt>
      <trkpt lat="45.72958" lon="4.84442">
        <ele>136.80000305176</ele>
        <time>2017-07-16T06:55:04Z</time>
      </trkpt>
      <trkpt lat="45.72964" lon="4.84373">
        <ele>136.60000610352</ele>
        <time>2017-07-16T06:55:12Z</time>
      </trkpt>
      <trkpt lat="45.7297" lon="4.84314">
        <ele>136.60000610352</ele>
        <time>2017-07-16T06:55:19Z</time>
      </trkpt>
      <trkpt lat="45.72975" lon="4.84254">
        <ele>136.60000610352</ele>
        <time>2017-07-16T06:55:26Z</time>
      </trkpt>
      <trkpt lat="45.72979" lon="4.84189">
        <ele>136.80000305176</ele>
        <time>2017-07-16T06:55:34Z</time>
      </trkpt>
      <trkpt lat="45.72982" lon="4.84147">
        <ele>136.60000610352</ele>
        <time>2017-07-16T06:55:39Z</time>
      </trkpt>
      <trkpt lat="45.72983" lon="4.84138">
        <ele>136.80000305176</ele>
        <time>2017-07-16T06:55:40Z</time>
      </trkpt>
      <trkpt lat="45.72991" lon="4.8406">
        <ele>136.60000610352</ele>
        <time>2017-07-16T06:55:49Z</time>
      </trkpt>
      <trkpt lat="45.72992" lon="4.84051">
        <ele>136.60000610352</ele>
        <time>2017-07-16T06:55:50Z</time>
      </trkpt>
      <trkpt lat="45.72998" lon="4.83991">
        <ele>136.60000610352</ele>
        <time>2017-07-16T06:55:57Z</time>
      </trkpt>
      <trkpt lat="45.73003" lon="4.83924">
        <ele>136.39999389648</ele>
        <time>2017-07-16T06:56:05Z</time>
      </trkpt>
      <trkpt lat="45.73006" lon="4.83855">
        <ele>136.19999694824</ele>
        <time>2017-07-16T06:56:13Z</time>
      </trkpt>
      <trkpt lat="45.7301" lon="4.8381">
        <ele>136.19999694824</ele>
        <time>2017-07-16T06:56:18Z</time>
      </trkpt>
      <trkpt lat="45.73015" lon="4.83792">
        <ele>136</ele>
        <time>2017-07-16T06:56:20Z</time>
      </trkpt>
      <trkpt lat="45.73028" lon="4.83742">
        <ele>136.19999694824</ele>
        <time>2017-07-16T06:56:26Z</time>
      </trkpt>
      <trkpt lat="45.73042" lon="4.83694">
        <ele>136</ele>
        <time>2017-07-16T06:56:32Z</time>
      </trkpt>
      <trkpt lat="45.73066" lon="4.83618">
        <ele>136.19999694824</ele>
        <time>2017-07-16T06:56:42Z</time>
      </trkpt>
      <trkpt lat="45.73068" lon="4.8361">
        <ele>136.19999694824</ele>
        <time>2017-07-16T06:56:43Z</time>
      </trkpt>
      <trkpt lat="45.73085" lon="4.83548">
        <ele>136.19999694824</ele>
        <time>2017-07-16T06:56:51Z</time>
      </trkpt>
      <trkpt lat="45.7309" lon="4.83533">
        <ele>136.39999389648</ele>
        <time>2017-07-16T06:56:53Z</time>
      </trkpt>
      <trkpt lat="45.73098" lon="4.83504">
        <ele>136.39999389648</ele>
        <time>2017-07-16T06:56:57Z</time>
      </trkpt>
      <trkpt lat="45.7311" lon="4.83459">
        <ele>136.60000610352</ele>
        <time>2017-07-16T06:57:03Z</time>
      </trkpt>
      <trkpt lat="45.73124" lon="4.83414">
        <ele>136.80000305176</ele>
        <time>2017-07-16T06:57:10Z</time>
      </trkpt>
      <trkpt lat="45.73132" lon="4.83395">
        <ele>136.80000305176</ele>
        <time>2017-07-16T06:57:15Z</time>
      </trkpt>
      <trkpt lat="45.73138" lon="4.83386">
        <ele>136.60000610352</ele>
        <time>2017-07-16T06:57:21Z</time>
      </trkpt>
      <trkpt lat="45.73138" lon="4.83384">
        <ele>136.60000610352</ele>
        <time>2017-07-16T06:57:22Z</time>
      </trkpt>
      <trkpt lat="45.73141" lon="4.83375">
        <ele>136.60000610352</ele>
        <time>2017-07-16T06:57:26Z</time>
      </trkpt>
      <trkpt lat="45.73142" lon="4.83374">
        <ele>136.60000610352</ele>
        <time>2017-07-16T06:57:27Z</time>
      </trkpt>
      <trkpt lat="45.73147" lon="4.8337">
        <ele>136.60000610352</ele>
        <time>2017-07-16T06:57:30Z</time>
      </trkpt>
      <trkpt lat="45.73147" lon="4.83356">
        <ele>136.60000610352</ele>
        <time>2017-07-16T06:57:33Z</time>
      </trkpt>
      <trkpt lat="45.73146" lon="4.83337">
        <ele>136.60000610352</ele>
        <time>2017-07-16T06:57:36Z</time>
      </trkpt>
      <trkpt lat="45.73147" lon="4.8333">
        <ele>136.60000610352</ele>
        <time>2017-07-16T06:57:37Z</time>
      </trkpt>
      <trkpt lat="45.73147" lon="4.83323">
        <ele>136.60000610352</ele>
        <time>2017-07-16T06:57:38Z</time>
      </trkpt>
      <trkpt lat="45.73147" lon="4.83316">
        <ele>136.60000610352</ele>
        <time>2017-07-16T06:57:39Z</time>
      </trkpt>
      <trkpt lat="45.73146" lon="4.83285">
        <ele>136.80000305176</ele>
        <time>2017-07-16T06:57:43Z</time>
      </trkpt>
      <trkpt lat="45.73146" lon="4.83236">
        <ele>136.80000305176</ele>
        <time>2017-07-16T06:57:49Z</time>
      </trkpt>
      <trkpt lat="45.73146" lon="4.83204">
        <ele>137</ele>
        <time>2017-07-16T06:57:53Z</time>
      </trkpt>
      <trkpt lat="45.73146" lon="4.83181">
        <ele>137</ele>
        <time>2017-07-16T06:57:56Z</time>
      </trkpt>
      <trkpt lat="45.73149" lon="4.83127">
        <ele>136.80000305176</ele>
        <time>2017-07-16T06:58:03Z</time>
      </trkpt>
      <trkpt lat="45.73149" lon="4.83069">
        <ele>136.80000305176</ele>
        <time>2017-07-16T06:58:10Z</time>
      </trkpt>
      <trkpt lat="45.73151" lon="4.83012">
        <ele>136.80000305176</ele>
        <time>2017-07-16T06:58:17Z</time>
      </trkpt>
      <trkpt lat="45.73152" lon="4.82994">
        <ele>136.39999389648</ele>
        <time>2017-07-16T06:58:21Z</time>
      </trkpt>
      <trkpt lat="45.73152" lon="4.82971">
        <ele>136.19999694824</ele>
        <time>2017-07-16T06:58:25Z</time>
      </trkpt>
      <trkpt lat="45.73151" lon="4.82964">
        <ele>136.19999694824</ele>
        <time>2017-07-16T06:58:26Z</time>
      </trkpt>
      <trkpt lat="45.73151" lon="4.82919">
        <ele>136.39999389648</ele>
        <time>2017-07-16T06:58:32Z</time>
      </trkpt>
      <trkpt lat="45.73154" lon="4.82857">
        <ele>136.60000610352</ele>
        <time>2017-07-16T06:58:40Z</time>
      </trkpt>
      <trkpt lat="45.73159" lon="4.82783">
        <ele>136.60000610352</ele>
        <time>2017-07-16T06:58:49Z</time>
      </trkpt>
      <trkpt lat="45.73161" lon="4.82766">
        <ele>136.80000305176</ele>
        <time>2017-07-16T06:58:51Z</time>
      </trkpt>
      <trkpt lat="45.73163" lon="4.82742">
        <ele>136.80000305176</ele>
        <time>2017-07-16T06:58:54Z</time>
      </trkpt>
      <trkpt lat="45.73163" lon="4.82717">
        <ele>136.60000610352</ele>
        <time>2017-07-16T06:58:57Z</time>
      </trkpt>
      <trkpt lat="45.73164" lon="4.82693">
        <ele>136.80000305176</ele>
        <time>2017-07-16T06:59:00Z</time>
      </trkpt>
      <trkpt lat="45.73165" lon="4.8264">
        <ele>136.80000305176</ele>
        <time>2017-07-16T06:59:07Z</time>
      </trkpt>
      <trkpt lat="45.73169" lon="4.82593">
        <ele>137</ele>
        <time>2017-07-16T06:59:13Z</time>
      </trkpt>
      <trkpt lat="45.73171" lon="4.82517">
        <ele>136.80000305176</ele>
        <time>2017-07-16T06:59:23Z</time>
      </trkpt>
      <trkpt lat="45.73173" lon="4.82442">
        <ele>136.80000305176</ele>
        <time>2017-07-16T06:59:33Z</time>
      </trkpt>
      <trkpt lat="45.73175" lon="4.82436">
        <ele>136.80000305176</ele>
        <time>2017-07-16T06:59:34Z</time>
      </trkpt>
      <trkpt lat="45.73183" lon="4.82432">
        <ele>136.60000610352</ele>
        <time>2017-07-16T06:59:36Z</time>
      </trkpt>
      <trkpt lat="45.73193" lon="4.82433">
        <ele>136.39999389648</ele>
        <time>2017-07-16T06:59:38Z</time>
      </trkpt>
      <trkpt lat="45.73224" lon="4.82433">
        <ele>137</ele>
        <time>2017-07-16T06:59:44Z</time>
      </trkpt>
      <trkpt lat="45.73244" lon="4.82432">
        <ele>137.39999389648</ele>
        <time>2017-07-16T06:59:48Z</time>
      </trkpt>
      <trkpt lat="45.73249" lon="4.82429">
        <ele>137.60000610352</ele>
        <time>2017-07-16T06:59:49Z</time>
      </trkpt>
      <trkpt lat="45.73253" lon="4.82425">
        <ele>137.60000610352</ele>
        <time>2017-07-16T06:59:50Z</time>
      </trkpt>
      <trkpt lat="45.73261" lon="4.82414">
        <ele>137.60000610352</ele>
        <time>2017-07-16T06:59:52Z</time>
      </trkpt>
      <trkpt lat="45.73271" lon="4.82402">
        <ele>137.39999389648</ele>
        <time>2017-07-16T06:59:54Z</time>
      </trkpt>
      <trkpt lat="45.73289" lon="4.82396">
        <ele>137</ele>
        <time>2017-07-16T06:59:57Z</time>
      </trkpt>
      <trkpt lat="45.73296" lon="4.82395">
        <ele>137</ele>
        <time>2017-07-16T06:59:58Z</time>
      </trkpt>
      <trkpt lat="45.73322" lon="4.82391">
        <ele>136.39999389648</ele>
        <time>2017-07-16T07:00:02Z</time>
      </trkpt>
      <trkpt lat="45.73346" lon="4.82387">
        <ele>136.19999694824</ele>
        <time>2017-07-16T07:00:06Z</time>
      </trkpt>
      <trkpt lat="45.73392" lon="4.82382">
        <ele>136.19999694824</ele>
        <time>2017-07-16T07:00:14Z</time>
      </trkpt>
      <trkpt lat="45.73444" lon="4.82375">
        <ele>136.19999694824</ele>
        <time>2017-07-16T07:00:23Z</time>
      </trkpt>
      <trkpt lat="45.7346" lon="4.82373">
        <ele>136.39999389648</ele>
        <time>2017-07-16T07:00:26Z</time>
      </trkpt>
      <trkpt lat="45.73466" lon="4.82373">
        <ele>136.39999389648</ele>
        <time>2017-07-16T07:00:27Z</time>
      </trkpt>
      <trkpt lat="45.73513" lon="4.82369">
        <ele>136.60000610352</ele>
        <time>2017-07-16T07:00:35Z</time>
      </trkpt>
      <trkpt lat="45.73525" lon="4.82369">
        <ele>136.60000610352</ele>
        <time>2017-07-16T07:00:37Z</time>
      </trkpt>
      <trkpt lat="45.73542" lon="4.8237">
        <ele>136.80000305176</ele>
        <time>2017-07-16T07:00:40Z</time>
      </trkpt>
      <trkpt lat="45.73569" lon="4.82375">
        <ele>136.60000610352</ele>
        <time>2017-07-16T07:00:45Z</time>
      </trkpt>
      <trkpt lat="45.73603" lon="4.82382">
        <ele>136.60000610352</ele>
        <time>2017-07-16T07:00:51Z</time>
      </trkpt>
      <trkpt lat="45.73631" lon="4.82391">
        <ele>136.80000305176</ele>
        <time>2017-07-16T07:00:56Z</time>
      </trkpt>
      <trkpt lat="45.73665" lon="4.82405">
        <ele>137</ele>
        <time>2017-07-16T07:01:02Z</time>
      </trkpt>
      <trkpt lat="45.7367" lon="4.82411">
        <ele>137</ele>
        <time>2017-07-16T07:01:03Z</time>
      </trkpt>
      <trkpt lat="45.73687" lon="4.82423">
        <ele>137</ele>
        <time>2017-07-16T07:01:06Z</time>
      </trkpt>
      <trkpt lat="45.73694" lon="4.82426">
        <ele>137</ele>
        <time>2017-07-16T07:01:07Z</time>
      </trkpt>
      <trkpt lat="45.73722" lon="4.82444">
        <ele>137</ele>
        <time>2017-07-16T07:01:12Z</time>
      </trkpt>
      <trkpt lat="45.73748" lon="4.82461">
        <ele>137.60000610352</ele>
        <time>2017-07-16T07:01:17Z</time>
      </trkpt>
      <trkpt lat="45.73753" lon="4.82465">
        <ele>137.60000610352</ele>
        <time>2017-07-16T07:01:18Z</time>
      </trkpt>
      <trkpt lat="45.73778" lon="4.82486">
        <ele>137.39999389648</ele>
        <time>2017-07-16T07:01:23Z</time>
      </trkpt>
      <trkpt lat="45.73812" lon="4.82513">
        <ele>137.39999389648</ele>
        <time>2017-07-16T07:01:30Z</time>
      </trkpt>
      <trkpt lat="45.7384" lon="4.82537">
        <ele>137.39999389648</ele>
        <time>2017-07-16T07:01:36Z</time>
      </trkpt>
      <trkpt lat="45.73874" lon="4.82565">
        <ele>137.60000610352</ele>
        <time>2017-07-16T07:01:43Z</time>
      </trkpt>
      <trkpt lat="45.73919" lon="4.82603">
        <ele>137.19999694824</ele>
        <time>2017-07-16T07:01:52Z</time>
      </trkpt>
      <trkpt lat="45.7395" lon="4.82629">
        <ele>137.19999694824</ele>
        <time>2017-07-16T07:01:58Z</time>
      </trkpt>
      <trkpt lat="45.73986" lon="4.82659">
        <ele>137.19999694824</ele>
        <time>2017-07-16T07:02:05Z</time>
      </trkpt>
      <trkpt lat="45.74016" lon="4.82684">
        <ele>137.39999389648</ele>
        <time>2017-07-16T07:02:11Z</time>
      </trkpt>
      <trkpt lat="45.74057" lon="4.82721">
        <ele>137.39999389648</ele>
        <time>2017-07-16T07:02:20Z</time>
      </trkpt>
      <trkpt lat="45.7409" lon="4.82749">
        <ele>137.80000305176</ele>
        <time>2017-07-16T07:02:27Z</time>
      </trkpt>
      <trkpt lat="45.74128" lon="4.82783">
        <ele>138</ele>
        <time>2017-07-16T07:02:35Z</time>
      </trkpt>
      <trkpt lat="45.74173" lon="4.8282">
        <ele>138</ele>
        <time>2017-07-16T07:02:44Z</time>
      </trkpt>
      <trkpt lat="45.74201" lon="4.82845">
        <ele>138</ele>
        <time>2017-07-16T07:02:50Z</time>
      </trkpt>
      <trkpt lat="45.74235" lon="4.82873">
        <ele>138.19999694824</ele>
        <time>2017-07-16T07:02:57Z</time>
      </trkpt>
      <trkpt lat="45.74272" lon="4.82905">
        <ele>138.39999389648</ele>
        <time>2017-07-16T07:03:05Z</time>
      </trkpt>
      <trkpt lat="45.74299" lon="4.82929">
        <ele>138.60000610352</ele>
        <time>2017-07-16T07:03:11Z</time>
      </trkpt>
      <trkpt lat="45.74307" lon="4.82936">
        <ele>138.60000610352</ele>
        <time>2017-07-16T07:03:13Z</time>
      </trkpt>
      <trkpt lat="45.74342" lon="4.82967">
        <ele>138.80000305176</ele>
        <time>2017-07-16T07:03:21Z</time>
      </trkpt>
      <trkpt lat="45.74381" lon="4.82999">
        <ele>139</ele>
        <time>2017-07-16T07:03:29Z</time>
      </trkpt>
      <trkpt lat="45.74426" lon="4.83041">
        <ele>139</ele>
        <time>2017-07-16T07:03:38Z</time>
      </trkpt>
      <trkpt lat="45.7446" lon="4.83081">
        <ele>139</ele>
        <time>2017-07-16T07:03:46Z</time>
      </trkpt>
      <trkpt lat="45.74468" lon="4.8309">
        <ele>139</ele>
        <time>2017-07-16T07:03:48Z</time>
      </trkpt>
      <trkpt lat="45.74479" lon="4.83104">
        <ele>139</ele>
        <time>2017-07-16T07:03:51Z</time>
      </trkpt>
      <trkpt lat="45.74513" lon="4.83145">
        <ele>138.80000305176</ele>
        <time>2017-07-16T07:03:59Z</time>
      </trkpt>
      <trkpt lat="45.74551" lon="4.83191">
        <ele>138.80000305176</ele>
        <time>2017-07-16T07:04:08Z</time>
      </trkpt>
      <trkpt lat="45.74572" lon="4.83218">
        <ele>138.60000610352</ele>
        <time>2017-07-16T07:04:13Z</time>
      </trkpt>
      <trkpt lat="45.74581" lon="4.83227">
        <ele>138.39999389648</ele>
        <time>2017-07-16T07:04:15Z</time>
      </trkpt>
      <trkpt lat="45.74602" lon="4.83251">
        <ele>138.39999389648</ele>
        <time>2017-07-16T07:04:20Z</time>
      </trkpt>
      <trkpt lat="45.74637" lon="4.83274">
        <ele>138.39999389648</ele>
        <time>2017-07-16T07:04:27Z</time>
      </trkpt>
      <trkpt lat="45.7467" lon="4.83298">
        <ele>138.80000305176</ele>
        <time>2017-07-16T07:04:34Z</time>
      </trkpt>
      <trkpt lat="45.74697" lon="4.83319">
        <ele>139</ele>
        <time>2017-07-16T07:04:40Z</time>
      </trkpt>
      <trkpt lat="45.74722" lon="4.83338">
        <ele>139.19999694824</ele>
        <time>2017-07-16T07:04:46Z</time>
      </trkpt>
      <trkpt lat="45.74747" lon="4.83356">
        <ele>139.19999694824</ele>
        <time>2017-07-16T07:04:52Z</time>
      </trkpt>
      <trkpt lat="45.74779" lon="4.83372">
        <ele>139</ele>
        <time>2017-07-16T07:04:59Z</time>
      </trkpt>
      <trkpt lat="45.74789" lon="4.83359">
        <ele>139.19999694824</ele>
        <time>2017-07-16T07:05:02Z</time>
      </trkpt>
      <trkpt lat="45.74795" lon="4.8334">
        <ele>139.60000610352</ele>
        <time>2017-07-16T07:05:05Z</time>
      </trkpt>
      <trkpt lat="45.74796" lon="4.83334">
        <ele>139.60000610352</ele>
        <time>2017-07-16T07:05:06Z</time>
      </trkpt>
      <trkpt lat="45.74809" lon="4.83293">
        <ele>140.80000305176</ele>
        <time>2017-07-16T07:05:13Z</time>
      </trkpt>
      <trkpt lat="45.74811" lon="4.83287">
        <ele>141</ele>
        <time>2017-07-16T07:05:14Z</time>
      </trkpt>
      <trkpt lat="45.74823" lon="4.83248">
        <ele>142</ele>
        <time>2017-07-16T07:05:21Z</time>
      </trkpt>
      <trkpt lat="45.74831" lon="4.83225">
        <ele>142.60000610352</ele>
        <time>2017-07-16T07:05:25Z</time>
      </trkpt>
      <trkpt lat="45.74844" lon="4.83183">
        <ele>143</ele>
        <time>2017-07-16T07:05:32Z</time>
      </trkpt>
      <trkpt lat="45.74848" lon="4.83171">
        <ele>143.19999694824</ele>
        <time>2017-07-16T07:05:34Z</time>
      </trkpt>
      <trkpt lat="45.74864" lon="4.8312">
        <ele>143.60000610352</ele>
        <time>2017-07-16T07:05:42Z</time>
      </trkpt>
      <trkpt lat="45.74871" lon="4.83097">
        <ele>142.80000305176</ele>
        <time>2017-07-16T07:05:47Z</time>
      </trkpt>
      <trkpt lat="45.74875" lon="4.83095">
        <ele>142</ele>
        <time>2017-07-16T07:05:57Z</time>
      </trkpt>
      <trkpt lat="45.74877" lon="4.83096">
        <ele>142</ele>
        <time>2017-07-16T07:05:58Z</time>
      </trkpt>
      <trkpt lat="45.74892" lon="4.83107">
        <ele>142.60000610352</ele>
        <time>2017-07-16T07:06:03Z</time>
      </trkpt>
      <trkpt lat="45.749" lon="4.83114">
        <ele>142.80000305176</ele>
        <time>2017-07-16T07:06:05Z</time>
      </trkpt>
      <trkpt lat="45.74915" lon="4.83125">
        <ele>142.60000610352</ele>
        <time>2017-07-16T07:06:08Z</time>
      </trkpt>
      <trkpt lat="45.74953" lon="4.83158">
        <ele>140.80000305176</ele>
        <time>2017-07-16T07:06:15Z</time>
      </trkpt>
      <trkpt lat="45.74996" lon="4.83187">
        <ele>139.60000610352</ele>
        <time>2017-07-16T07:06:22Z</time>
      </trkpt>
      <trkpt lat="45.75002" lon="4.83191">
        <ele>139.60000610352</ele>
        <time>2017-07-16T07:06:23Z</time>
      </trkpt>
      <trkpt lat="45.75038" lon="4.83215">
        <ele>139.19999694824</ele>
        <time>2017-07-16T07:06:30Z</time>
      </trkpt>
      <trkpt lat="45.7505" lon="4.8322">
        <ele>139</ele>
        <time>2017-07-16T07:06:34Z</time>
      </trkpt>
      <trkpt lat="45.75059" lon="4.83225">
        <ele>138.60000610352</ele>
        <time>2017-07-16T07:06:37Z</time>
      </trkpt>
      <trkpt lat="45.75062" lon="4.83228">
        <ele>138.60000610352</ele>
        <time>2017-07-16T07:06:38Z</time>
      </trkpt>
      <trkpt lat="45.75066" lon="4.83231">
        <ele>138.60000610352</ele>
        <time>2017-07-16T07:06:39Z</time>
      </trkpt>
      <trkpt lat="45.75079" lon="4.83241">
        <ele>138.60000610352</ele>
        <time>2017-07-16T07:06:42Z</time>
      </trkpt>
      <trkpt lat="45.75084" lon="4.83244">
        <ele>138.60000610352</ele>
        <time>2017-07-16T07:06:43Z</time>
      </trkpt>
      <trkpt lat="45.75103" lon="4.83257">
        <ele>138.60000610352</ele>
        <time>2017-07-16T07:06:47Z</time>
      </trkpt>
      <trkpt lat="45.75144" lon="4.83285">
        <ele>138.80000305176</ele>
        <time>2017-07-16T07:06:55Z</time>
      </trkpt>
      <trkpt lat="45.75186" lon="4.83313">
        <ele>138.60000610352</ele>
        <time>2017-07-16T07:07:03Z</time>
      </trkpt>
      <trkpt lat="45.75229" lon="4.83342">
        <ele>138.60000610352</ele>
        <time>2017-07-16T07:07:11Z</time>
      </trkpt>
      <trkpt lat="45.75267" lon="4.83369">
        <ele>139</ele>
        <time>2017-07-16T07:07:19Z</time>
      </trkpt>
      <trkpt lat="45.75303" lon="4.83393">
        <ele>139.60000610352</ele>
        <time>2017-07-16T07:07:27Z</time>
      </trkpt>
      <trkpt lat="45.75331" lon="4.83414">
        <ele>140</ele>
        <time>2017-07-16T07:07:33Z</time>
      </trkpt>
      <trkpt lat="45.75374" lon="4.83442">
        <ele>139.60000610352</ele>
        <time>2017-07-16T07:07:41Z</time>
      </trkpt>
      <trkpt lat="45.754" lon="4.83461">
        <ele>138.80000305176</ele>
        <time>2017-07-16T07:07:46Z</time>
      </trkpt>
      <trkpt lat="45.75416" lon="4.8347">
        <ele>138.60000610352</ele>
        <time>2017-07-16T07:07:49Z</time>
      </trkpt>
      <trkpt lat="45.75447" lon="4.83491">
        <ele>138.60000610352</ele>
        <time>2017-07-16T07:07:55Z</time>
      </trkpt>
      <trkpt lat="45.75473" lon="4.83513">
        <ele>138.80000305176</ele>
        <time>2017-07-16T07:08:01Z</time>
      </trkpt>
      <trkpt lat="45.75476" lon="4.83527">
        <ele>138.80000305176</ele>
        <time>2017-07-16T07:08:04Z</time>
      </trkpt>
      <trkpt lat="45.75486" lon="4.83537">
        <ele>138.80000305176</ele>
        <time>2017-07-16T07:08:07Z</time>
      </trkpt>
      <trkpt lat="45.75494" lon="4.83543">
        <ele>138.80000305176</ele>
        <time>2017-07-16T07:08:09Z</time>
      </trkpt>
      <trkpt lat="45.75509" lon="4.83555">
        <ele>139</ele>
        <time>2017-07-16T07:08:13Z</time>
      </trkpt>
      <trkpt lat="45.75533" lon="4.83574">
        <ele>138.80000305176</ele>
        <time>2017-07-16T07:08:20Z</time>
      </trkpt>
      <trkpt lat="45.75566" lon="4.836">
        <ele>139.19999694824</ele>
        <time>2017-07-16T07:08:28Z</time>
      </trkpt>
      <trkpt lat="45.75578" lon="4.83605">
        <ele>139.19999694824</ele>
        <time>2017-07-16T07:08:32Z</time>
      </trkpt>
      <trkpt lat="45.75579" lon="4.83602">
        <ele>139.19999694824</ele>
        <time>2017-07-16T07:08:33Z</time>
      </trkpt>
      <trkpt lat="45.75588" lon="4.83602">
        <ele>139</ele>
        <time>2017-07-16T07:08:36Z</time>
      </trkpt>
      <trkpt lat="45.75594" lon="4.83609">
        <ele>138.80000305176</ele>
        <time>2017-07-16T07:08:38Z</time>
      </trkpt>
      <trkpt lat="45.75597" lon="4.8361">
        <ele>138.80000305176</ele>
        <time>2017-07-16T07:08:39Z</time>
      </trkpt>
      <trkpt lat="45.756" lon="4.83611">
        <ele>138.80000305176</ele>
        <time>2017-07-16T07:08:40Z</time>
      </trkpt>
      <trkpt lat="45.75606" lon="4.83599">
        <ele>139</ele>
        <time>2017-07-16T07:08:43Z</time>
      </trkpt>
      <trkpt lat="45.75617" lon="4.83586">
        <ele>139</ele>
        <time>2017-07-16T07:08:47Z</time>
      </trkpt>
      <trkpt lat="45.75629" lon="4.83598">
        <ele>138.80000305176</ele>
        <time>2017-07-16T07:08:50Z</time>
      </trkpt>
      <trkpt lat="45.75634" lon="4.83602">
        <ele>138.80000305176</ele>
        <time>2017-07-16T07:08:51Z</time>
      </trkpt>
      <trkpt lat="45.75649" lon="4.8361">
        <ele>138.80000305176</ele>
        <time>2017-07-16T07:08:54Z</time>
      </trkpt>
      <trkpt lat="45.75654" lon="4.83611">
        <ele>138.80000305176</ele>
        <time>2017-07-16T07:08:55Z</time>
      </trkpt>
      <trkpt lat="45.75665" lon="4.83615">
        <ele>139</ele>
        <time>2017-07-16T07:08:57Z</time>
      </trkpt>
      <trkpt lat="45.75685" lon="4.83626">
        <ele>139.19999694824</ele>
        <time>2017-07-16T07:09:01Z</time>
      </trkpt>
      <trkpt lat="45.75709" lon="4.83642">
        <ele>139.80000305176</ele>
        <time>2017-07-16T07:09:07Z</time>
      </trkpt>
      <trkpt lat="45.75715" lon="4.83645">
        <ele>140.19999694824</ele>
        <time>2017-07-16T07:09:11Z</time>
      </trkpt>
      <trkpt lat="45.75715" lon="4.83646">
        <ele>140.19999694824</ele>
        <time>2017-07-16T07:09:12Z</time>
      </trkpt>
      <trkpt lat="45.75722" lon="4.8365">
        <ele>140.39999389648</ele>
        <time>2017-07-16T07:09:16Z</time>
      </trkpt>
      <trkpt lat="45.75728" lon="4.83637">
        <ele>140.60000610352</ele>
        <time>2017-07-16T07:09:19Z</time>
      </trkpt>
      <trkpt lat="45.75739" lon="4.83603">
        <ele>140.60000610352</ele>
        <time>2017-07-16T07:09:25Z</time>
      </trkpt>
      <trkpt lat="45.75754" lon="4.83559">
        <ele>139.60000610352</ele>
        <time>2017-07-16T07:09:32Z</time>
      </trkpt>
      <trkpt lat="45.75774" lon="4.83489">
        <ele>139.60000610352</ele>
        <time>2017-07-16T07:09:41Z</time>
      </trkpt>
      <trkpt lat="45.75796" lon="4.83415">
        <ele>138.60000610352</ele>
        <time>2017-07-16T07:09:50Z</time>
      </trkpt>
      <trkpt lat="45.75812" lon="4.83356">
        <ele>138</ele>
        <time>2017-07-16T07:09:57Z</time>
      </trkpt>
      <trkpt lat="45.75831" lon="4.8329">
        <ele>137.80000305176</ele>
        <time>2017-07-16T07:10:05Z</time>
      </trkpt>
      <trkpt lat="45.75846" lon="4.83237">
        <ele>137.80000305176</ele>
        <time>2017-07-16T07:10:12Z</time>
      </trkpt>
      <trkpt lat="45.75859" lon="4.83194">
        <ele>138</ele>
        <time>2017-07-16T07:10:18Z</time>
      </trkpt>
      <trkpt lat="45.75868" lon="4.83159">
        <ele>138.19999694824</ele>
        <time>2017-07-16T07:10:23Z</time>
      </trkpt>
      <trkpt lat="45.75872" lon="4.83146">
        <ele>138.19999694824</ele>
        <time>2017-07-16T07:10:25Z</time>
      </trkpt>
      <trkpt lat="45.75876" lon="4.83132">
        <ele>138.19999694824</ele>
        <time>2017-07-16T07:10:27Z</time>
      </trkpt>
      <trkpt lat="45.75882" lon="4.83109">
        <ele>138.19999694824</ele>
        <time>2017-07-16T07:10:30Z</time>
      </trkpt>
      <trkpt lat="45.75898" lon="4.83052">
        <ele>139</ele>
        <time>2017-07-16T07:10:38Z</time>
      </trkpt>
      <trkpt lat="45.7591" lon="4.83011">
        <ele>138.80000305176</ele>
        <time>2017-07-16T07:10:44Z</time>
      </trkpt>
      <trkpt lat="45.75912" lon="4.83004">
        <ele>138.80000305176</ele>
        <time>2017-07-16T07:10:45Z</time>
      </trkpt>
      <trkpt lat="45.75926" lon="4.82961">
        <ele>139.19999694824</ele>
        <time>2017-07-16T07:10:52Z</time>
      </trkpt>
      <trkpt lat="45.75933" lon="4.82934">
        <ele>139.60000610352</ele>
        <time>2017-07-16T07:10:56Z</time>
      </trkpt>
      <trkpt lat="45.7594" lon="4.82906">
        <ele>140.19999694824</ele>
        <time>2017-07-16T07:11:00Z</time>
      </trkpt>
      <trkpt lat="45.75944" lon="4.82892">
        <ele>141</ele>
        <time>2017-07-16T07:11:02Z</time>
      </trkpt>
      <trkpt lat="45.75956" lon="4.82852">
        <ele>142.19999694824</ele>
        <time>2017-07-16T07:11:08Z</time>
      </trkpt>
      <trkpt lat="45.75959" lon="4.82845">
        <ele>142.19999694824</ele>
        <time>2017-07-16T07:11:09Z</time>
      </trkpt>
      <trkpt lat="45.75962" lon="4.82832">
        <ele>142.39999389648</ele>
        <time>2017-07-16T07:11:11Z</time>
      </trkpt>
      <trkpt lat="45.7597" lon="4.82804">
        <ele>142.39999389648</ele>
        <time>2017-07-16T07:11:15Z</time>
      </trkpt>
      <trkpt lat="45.75985" lon="4.82798">
        <ele>142</ele>
        <time>2017-07-16T07:11:18Z</time>
      </trkpt>
      <trkpt lat="45.75996" lon="4.82805">
        <ele>141.60000610352</ele>
        <time>2017-07-16T07:11:20Z</time>
      </trkpt>
      <trkpt lat="45.76008" lon="4.82812">
        <ele>141.19999694824</ele>
        <time>2017-07-16T07:11:22Z</time>
      </trkpt>
      <trkpt lat="45.7602" lon="4.82819">
        <ele>141</ele>
        <time>2017-07-16T07:11:24Z</time>
      </trkpt>
      <trkpt lat="45.76053" lon="4.82836">
        <ele>139.80000305176</ele>
        <time>2017-07-16T07:11:29Z</time>
      </trkpt>
      <trkpt lat="45.76097" lon="4.82851">
        <ele>139</ele>
        <time>2017-07-16T07:11:36Z</time>
      </trkpt>
      <trkpt lat="45.76102" lon="4.82853">
        <ele>138.80000305176</ele>
        <time>2017-07-16T07:11:37Z</time>
      </trkpt>
      <trkpt lat="45.76112" lon="4.82854">
        <ele>138.80000305176</ele>
        <time>2017-07-16T07:11:39Z</time>
      </trkpt>
      <trkpt lat="45.76119" lon="4.82855">
        <ele>138.39999389648</ele>
        <time>2017-07-16T07:11:41Z</time>
      </trkpt>
      <trkpt lat="45.76135" lon="4.82861">
        <ele>138.19999694824</ele>
        <time>2017-07-16T07:11:46Z</time>
      </trkpt>
      <trkpt lat="45.76149" lon="4.82861">
        <ele>138.19999694824</ele>
        <time>2017-07-16T07:11:49Z</time>
      </trkpt>
      <trkpt lat="45.76154" lon="4.82861">
        <ele>138.19999694824</ele>
        <time>2017-07-16T07:11:50Z</time>
      </trkpt>
      <trkpt lat="45.76166" lon="4.82862">
        <ele>138.19999694824</ele>
        <time>2017-07-16T07:11:52Z</time>
      </trkpt>
      <trkpt lat="45.76182" lon="4.82867">
        <ele>138.39999389648</ele>
        <time>2017-07-16T07:11:55Z</time>
      </trkpt>
      <trkpt lat="45.76217" lon="4.82879">
        <ele>138.60000610352</ele>
        <time>2017-07-16T07:12:01Z</time>
      </trkpt>
      <trkpt lat="45.76229" lon="4.82884">
        <ele>138.39999389648</ele>
        <time>2017-07-16T07:12:03Z</time>
      </trkpt>
      <trkpt lat="45.76253" lon="4.82894">
        <ele>138.19999694824</ele>
        <time>2017-07-16T07:12:07Z</time>
      </trkpt>
      <trkpt lat="45.76271" lon="4.82901">
        <ele>137.80000305176</ele>
        <time>2017-07-16T07:12:10Z</time>
      </trkpt>
      <trkpt lat="45.76296" lon="4.82909">
        <ele>137.39999389648</ele>
        <time>2017-07-16T07:12:14Z</time>
      </trkpt>
      <trkpt lat="45.76302" lon="4.8291">
        <ele>137.39999389648</ele>
        <time>2017-07-16T07:12:15Z</time>
      </trkpt>
      <trkpt lat="45.76325" lon="4.82911">
        <ele>137.19999694824</ele>
        <time>2017-07-16T07:12:19Z</time>
      </trkpt>
      <trkpt lat="45.76362" lon="4.82913">
        <ele>137.39999389648</ele>
        <time>2017-07-16T07:12:26Z</time>
      </trkpt>
      <trkpt lat="45.76368" lon="4.82912">
        <ele>137.39999389648</ele>
        <time>2017-07-16T07:12:27Z</time>
      </trkpt>
      <trkpt lat="45.76393" lon="4.82911">
        <ele>137.60000610352</ele>
        <time>2017-07-16T07:12:32Z</time>
      </trkpt>
      <trkpt lat="45.76416" lon="4.8291">
        <ele>138.39999389648</ele>
        <time>2017-07-16T07:12:37Z</time>
      </trkpt>
      <trkpt lat="45.76425" lon="4.82911">
        <ele>138.60000610352</ele>
        <time>2017-07-16T07:12:39Z</time>
      </trkpt>
      <trkpt lat="45.76436" lon="4.82911">
        <ele>138.80000305176</ele>
        <time>2017-07-16T07:12:41Z</time>
      </trkpt>
      <trkpt lat="45.7645" lon="4.82912">
        <ele>139.19999694824</ele>
        <time>2017-07-16T07:12:44Z</time>
      </trkpt>
      <trkpt lat="45.76482" lon="4.82909">
        <ele>139.80000305176</ele>
        <time>2017-07-16T07:12:50Z</time>
      </trkpt>
      <trkpt lat="45.76486" lon="4.82909">
        <ele>140</ele>
        <time>2017-07-16T07:12:51Z</time>
      </trkpt>
      <trkpt lat="45.76516" lon="4.8291">
        <ele>140.19999694824</ele>
        <time>2017-07-16T07:12:57Z</time>
      </trkpt>
      <trkpt lat="45.76551" lon="4.82902">
        <ele>139.80000305176</ele>
        <time>2017-07-16T07:13:03Z</time>
      </trkpt>
      <trkpt lat="45.76575" lon="4.82896">
        <ele>139.19999694824</ele>
        <time>2017-07-16T07:13:08Z</time>
      </trkpt>
      <trkpt lat="45.76599" lon="4.82888">
        <ele>139.19999694824</ele>
        <time>2017-07-16T07:13:14Z</time>
      </trkpt>
      <trkpt lat="45.76625" lon="4.82874">
        <ele>139.60000610352</ele>
        <time>2017-07-16T07:13:19Z</time>
      </trkpt>
      <trkpt lat="45.76629" lon="4.82869">
        <ele>139.60000610352</ele>
        <time>2017-07-16T07:13:20Z</time>
      </trkpt>
      <trkpt lat="45.76652" lon="4.8284">
        <ele>139.80000305176</ele>
        <time>2017-07-16T07:13:25Z</time>
      </trkpt>
      <trkpt lat="45.7669" lon="4.82788">
        <ele>138.80000305176</ele>
        <time>2017-07-16T07:13:33Z</time>
      </trkpt>
      <trkpt lat="45.76725" lon="4.82722">
        <ele>137.80000305176</ele>
        <time>2017-07-16T07:13:42Z</time>
      </trkpt>
      <trkpt lat="45.76739" lon="4.82671">
        <ele>137.80000305176</ele>
        <time>2017-07-16T07:13:48Z</time>
      </trkpt>
      <trkpt lat="45.76747" lon="4.82609">
        <ele>138.19999694824</ele>
        <time>2017-07-16T07:13:55Z</time>
      </trkpt>
      <trkpt lat="45.76742" lon="4.8255">
        <ele>138.80000305176</ele>
        <time>2017-07-16T07:14:02Z</time>
      </trkpt>
      <trkpt lat="45.76739" lon="4.82499">
        <ele>138.60000610352</ele>
        <time>2017-07-16T07:14:08Z</time>
      </trkpt>
      <trkpt lat="45.76736" lon="4.82438">
        <ele>138.39999389648</ele>
        <time>2017-07-16T07:14:15Z</time>
      </trkpt>
      <trkpt lat="45.76733" lon="4.82368">
        <ele>138</ele>
        <time>2017-07-16T07:14:23Z</time>
      </trkpt>
      <trkpt lat="45.76732" lon="4.82304">
        <ele>138.39999389648</ele>
        <time>2017-07-16T07:14:30Z</time>
      </trkpt>
      <trkpt lat="45.76728" lon="4.82249">
        <ele>138.60000610352</ele>
        <time>2017-07-16T07:14:36Z</time>
      </trkpt>
      <trkpt lat="45.76724" lon="4.82232">
        <ele>138.80000305176</ele>
        <time>2017-07-16T07:14:38Z</time>
      </trkpt>
      <trkpt lat="45.76716" lon="4.82207">
        <ele>139</ele>
        <time>2017-07-16T07:14:41Z</time>
      </trkpt>
      <trkpt lat="45.76702" lon="4.82156">
        <ele>139</ele>
        <time>2017-07-16T07:14:47Z</time>
      </trkpt>
      <trkpt lat="45.76686" lon="4.82092">
        <ele>139.60000610352</ele>
        <time>2017-07-16T07:14:55Z</time>
      </trkpt>
      <trkpt lat="45.76672" lon="4.82047">
        <ele>139.60000610352</ele>
        <time>2017-07-16T07:15:01Z</time>
      </trkpt>
      <trkpt lat="45.76655" lon="4.81986">
        <ele>139.60000610352</ele>
        <time>2017-07-16T07:15:09Z</time>
      </trkpt>
      <trkpt lat="45.76645" lon="4.81936">
        <ele>139.60000610352</ele>
        <time>2017-07-16T07:15:15Z</time>
      </trkpt>
      <trkpt lat="45.76641" lon="4.81896">
        <ele>139.60000610352</ele>
        <time>2017-07-16T07:15:20Z</time>
      </trkpt>
      <trkpt lat="45.7664" lon="4.81849">
        <ele>139.60000610352</ele>
        <time>2017-07-16T07:15:26Z</time>
      </trkpt>
      <trkpt lat="45.76643" lon="4.81798">
        <ele>139.60000610352</ele>
        <time>2017-07-16T07:15:32Z</time>
      </trkpt>
      <trkpt lat="45.76646" lon="4.8178">
        <ele>139.39999389648</ele>
        <time>2017-07-16T07:15:34Z</time>
      </trkpt>
      <trkpt lat="45.76652" lon="4.81744">
        <ele>139.19999694824</ele>
        <time>2017-07-16T07:15:38Z</time>
      </trkpt>
      <trkpt lat="45.76667" lon="4.81668">
        <ele>139</ele>
        <time>2017-07-16T07:15:46Z</time>
      </trkpt>
      <trkpt lat="45.7667" lon="4.81649">
        <ele>139</ele>
        <time>2017-07-16T07:15:48Z</time>
      </trkpt>
      <trkpt lat="45.76684" lon="4.81583">
        <ele>138.80000305176</ele>
        <time>2017-07-16T07:15:55Z</time>
      </trkpt>
      <trkpt lat="45.7671" lon="4.81508">
        <ele>138.19999694824</ele>
        <time>2017-07-16T07:16:04Z</time>
      </trkpt>
      <trkpt lat="45.76737" lon="4.81432">
        <ele>138</ele>
        <time>2017-07-16T07:16:13Z</time>
      </trkpt>
      <trkpt lat="45.76759" lon="4.81369">
        <ele>137.80000305176</ele>
        <time>2017-07-16T07:16:20Z</time>
      </trkpt>
      <trkpt lat="45.76792" lon="4.81319">
        <ele>138.19999694824</ele>
        <time>2017-07-16T07:16:27Z</time>
      </trkpt>
      <trkpt lat="45.76816" lon="4.81298">
        <ele>138.19999694824</ele>
        <time>2017-07-16T07:16:31Z</time>
      </trkpt>
      <trkpt lat="45.76829" lon="4.8129">
        <ele>138.19999694824</ele>
        <time>2017-07-16T07:16:33Z</time>
      </trkpt>
      <trkpt lat="45.76842" lon="4.81283">
        <ele>138</ele>
        <time>2017-07-16T07:16:35Z</time>
      </trkpt>
      <trkpt lat="45.76861" lon="4.81275">
        <ele>138</ele>
        <time>2017-07-16T07:16:38Z</time>
      </trkpt>
      <trkpt lat="45.76894" lon="4.81269">
        <ele>138</ele>
        <time>2017-07-16T07:16:43Z</time>
      </trkpt>
      <trkpt lat="45.76942" lon="4.81264">
        <ele>138.39999389648</ele>
        <time>2017-07-16T07:16:51Z</time>
      </trkpt>
      <trkpt lat="45.76971" lon="4.81257">
        <ele>139</ele>
        <time>2017-07-16T07:16:57Z</time>
      </trkpt>
      <trkpt lat="45.76988" lon="4.8125">
        <ele>139.39999389648</ele>
        <time>2017-07-16T07:17:02Z</time>
      </trkpt>
      <trkpt lat="45.77012" lon="4.81239">
        <ele>139.60000610352</ele>
        <time>2017-07-16T07:17:07Z</time>
      </trkpt>
      <trkpt lat="45.77042" lon="4.81224">
        <ele>139.39999389648</ele>
        <time>2017-07-16T07:17:12Z</time>
      </trkpt>
      <trkpt lat="45.77048" lon="4.81222">
        <ele>139.39999389648</ele>
        <time>2017-07-16T07:17:13Z</time>
      </trkpt>
      <trkpt lat="45.77078" lon="4.81209">
        <ele>139</ele>
        <time>2017-07-16T07:17:18Z</time>
      </trkpt>
      <trkpt lat="45.77112" lon="4.81193">
        <ele>138.60000610352</ele>
        <time>2017-07-16T07:17:24Z</time>
      </trkpt>
      <trkpt lat="45.77149" lon="4.81176">
        <ele>138.60000610352</ele>
        <time>2017-07-16T07:17:31Z</time>
      </trkpt>
      <trkpt lat="45.7718" lon="4.81162">
        <ele>138.80000305176</ele>
        <time>2017-07-16T07:17:37Z</time>
      </trkpt>
      <trkpt lat="45.77185" lon="4.81158">
        <ele>138.80000305176</ele>
        <time>2017-07-16T07:17:38Z</time>
      </trkpt>
      <trkpt lat="45.77205" lon="4.8114">
        <ele>139</ele>
        <time>2017-07-16T07:17:42Z</time>
      </trkpt>
      <trkpt lat="45.77232" lon="4.81108">
        <ele>139.39999389648</ele>
        <time>2017-07-16T07:17:48Z</time>
      </trkpt>
      <trkpt lat="45.7725" lon="4.81086">
        <ele>139.39999389648</ele>
        <time>2017-07-16T07:17:52Z</time>
      </trkpt>
      <trkpt lat="45.77264" lon="4.81069">
        <ele>139.39999389648</ele>
        <time>2017-07-16T07:17:55Z</time>
      </trkpt>
      <trkpt lat="45.77296" lon="4.81031">
        <ele>139.60000610352</ele>
        <time>2017-07-16T07:18:02Z</time>
      </trkpt>
      <trkpt lat="45.77318" lon="4.81005">
        <ele>139.80000305176</ele>
        <time>2017-07-16T07:18:07Z</time>
      </trkpt>
      <trkpt lat="45.77341" lon="4.80976">
        <ele>140</ele>
        <time>2017-07-16T07:18:12Z</time>
      </trkpt>
      <trkpt lat="45.77357" lon="4.80961">
        <ele>139.60000610352</ele>
        <time>2017-07-16T07:18:15Z</time>
      </trkpt>
      <trkpt lat="45.77369" lon="4.80955">
        <ele>139.60000610352</ele>
        <time>2017-07-16T07:18:17Z</time>
      </trkpt>
      <trkpt lat="45.77397" lon="4.80932">
        <ele>139.60000610352</ele>
        <time>2017-07-16T07:18:22Z</time>
      </trkpt>
      <trkpt lat="45.77411" lon="4.80916">
        <ele>139.60000610352</ele>
        <time>2017-07-16T07:18:25Z</time>
      </trkpt>
      <trkpt lat="45.77422" lon="4.80908">
        <ele>139.60000610352</ele>
        <time>2017-07-16T07:18:27Z</time>
      </trkpt>
      <trkpt lat="45.77457" lon="4.80878">
        <ele>139.60000610352</ele>
        <time>2017-07-16T07:18:34Z</time>
      </trkpt>
      <trkpt lat="45.77481" lon="4.80859">
        <ele>139.60000610352</ele>
        <time>2017-07-16T07:18:40Z</time>
      </trkpt>
      <trkpt lat="45.77482" lon="4.80857">
        <ele>139.60000610352</ele>
        <time>2017-07-16T07:18:43Z</time>
      </trkpt>
      <trkpt lat="45.77484" lon="4.80856">
        <ele>139.39999389648</ele>
        <time>2017-07-16T07:19:04Z</time>
      </trkpt>
      <trkpt lat="45.77487" lon="4.80857">
        <ele>139.39999389648</ele>
        <time>2017-07-16T07:19:05Z</time>
      </trkpt>
      <trkpt lat="45.77498" lon="4.80854">
        <ele>139.60000610352</ele>
        <time>2017-07-16T07:19:09Z</time>
      </trkpt>
      <trkpt lat="45.77506" lon="4.80845">
        <ele>139.60000610352</ele>
        <time>2017-07-16T07:19:11Z</time>
      </trkpt>
      <trkpt lat="45.77511" lon="4.80842">
        <ele>139.60000610352</ele>
        <time>2017-07-16T07:19:12Z</time>
      </trkpt>
      <trkpt lat="45.77516" lon="4.8084">
        <ele>139.60000610352</ele>
        <time>2017-07-16T07:19:13Z</time>
      </trkpt>
      <trkpt lat="45.77558" lon="4.80822">
        <ele>139.80000305176</ele>
        <time>2017-07-16T07:19:20Z</time>
      </trkpt>
      <trkpt lat="45.77606" lon="4.80804">
        <ele>139.80000305176</ele>
        <time>2017-07-16T07:19:28Z</time>
      </trkpt>
      <trkpt lat="45.77624" lon="4.80798">
        <ele>139.80000305176</ele>
        <time>2017-07-16T07:19:31Z</time>
      </trkpt>
      <trkpt lat="45.77647" lon="4.80789">
        <ele>139.80000305176</ele>
        <time>2017-07-16T07:19:35Z</time>
      </trkpt>
      <trkpt lat="45.77691" lon="4.80774">
        <ele>139.60000610352</ele>
        <time>2017-07-16T07:19:43Z</time>
      </trkpt>
      <trkpt lat="45.77697" lon="4.80774">
        <ele>139.60000610352</ele>
        <time>2017-07-16T07:19:44Z</time>
      </trkpt>
      <trkpt lat="45.7772" lon="4.80773">
        <ele>139.39999389648</ele>
        <time>2017-07-16T07:19:48Z</time>
      </trkpt>
      <trkpt lat="45.77731" lon="4.80775">
        <ele>139.39999389648</ele>
        <time>2017-07-16T07:19:50Z</time>
      </trkpt>
      <trkpt lat="45.77763" lon="4.80781">
        <ele>139.39999389648</ele>
        <time>2017-07-16T07:19:56Z</time>
      </trkpt>
      <trkpt lat="45.77805" lon="4.80788">
        <ele>139.60000610352</ele>
        <time>2017-07-16T07:20:04Z</time>
      </trkpt>
      <trkpt lat="45.77843" lon="4.80794">
        <ele>140</ele>
        <time>2017-07-16T07:20:12Z</time>
      </trkpt>
      <trkpt lat="45.77853" lon="4.80795">
        <ele>140</ele>
        <time>2017-07-16T07:20:14Z</time>
      </trkpt>
      <trkpt lat="45.77869" lon="4.80805">
        <ele>140.19999694824</ele>
        <time>2017-07-16T07:20:17Z</time>
      </trkpt>
      <trkpt lat="45.77903" lon="4.80824">
        <ele>140.39999389648</ele>
        <time>2017-07-16T07:20:23Z</time>
      </trkpt>
      <trkpt lat="45.77942" lon="4.80846">
        <ele>140.39999389648</ele>
        <time>2017-07-16T07:20:30Z</time>
      </trkpt>
      <trkpt lat="45.77946" lon="4.8085">
        <ele>140.39999389648</ele>
        <time>2017-07-16T07:20:31Z</time>
      </trkpt>
      <trkpt lat="45.77961" lon="4.80859">
        <ele>140.60000610352</ele>
        <time>2017-07-16T07:20:34Z</time>
      </trkpt>
      <trkpt lat="45.77966" lon="4.80862">
        <ele>140.60000610352</ele>
        <time>2017-07-16T07:20:35Z</time>
      </trkpt>
      <trkpt lat="45.77971" lon="4.80865">
        <ele>140.60000610352</ele>
        <time>2017-07-16T07:20:36Z</time>
      </trkpt>
      <trkpt lat="45.77996" lon="4.80878">
        <ele>140.39999389648</ele>
        <time>2017-07-16T07:20:41Z</time>
      </trkpt>
      <trkpt lat="45.78001" lon="4.80882">
        <ele>140.60000610352</ele>
        <time>2017-07-16T07:20:42Z</time>
      </trkpt>
      <trkpt lat="45.78021" lon="4.80896">
        <ele>140.60000610352</ele>
        <time>2017-07-16T07:20:46Z</time>
      </trkpt>
      <trkpt lat="45.78025" lon="4.80898">
        <ele>140.60000610352</ele>
        <time>2017-07-16T07:20:47Z</time>
      </trkpt>
      <trkpt lat="45.78035" lon="4.80907">
        <ele>140.60000610352</ele>
        <time>2017-07-16T07:20:50Z</time>
      </trkpt>
      <trkpt lat="45.78051" lon="4.80918">
        <ele>140.80000305176</ele>
        <time>2017-07-16T07:20:55Z</time>
      </trkpt>
      <trkpt lat="45.78061" lon="4.80924">
        <ele>140.80000305176</ele>
        <time>2017-07-16T07:20:57Z</time>
      </trkpt>
      <trkpt lat="45.78071" lon="4.80932">
        <ele>141</ele>
        <time>2017-07-16T07:20:59Z</time>
      </trkpt>
      <trkpt lat="45.78076" lon="4.80937">
        <ele>141</ele>
        <time>2017-07-16T07:21:00Z</time>
      </trkpt>
      <trkpt lat="45.78115" lon="4.80971">
        <ele>140.80000305176</ele>
        <time>2017-07-16T07:21:07Z</time>
      </trkpt>
      <trkpt lat="45.7816" lon="4.81011">
        <ele>140</ele>
        <time>2017-07-16T07:21:15Z</time>
      </trkpt>
      <trkpt lat="45.78166" lon="4.81015">
        <ele>139.80000305176</ele>
        <time>2017-07-16T07:21:16Z</time>
      </trkpt>
      <trkpt lat="45.78211" lon="4.81053">
        <ele>139.39999389648</ele>
        <time>2017-07-16T07:21:24Z</time>
      </trkpt>
      <trkpt lat="45.78262" lon="4.81095">
        <ele>139</ele>
        <time>2017-07-16T07:21:33Z</time>
      </trkpt>
      <trkpt lat="45.78267" lon="4.81099">
        <ele>139</ele>
        <time>2017-07-16T07:21:34Z</time>
      </trkpt>
      <trkpt lat="45.78317" lon="4.8114">
        <ele>139.19999694824</ele>
        <time>2017-07-16T07:21:43Z</time>
      </trkpt>
      <trkpt lat="45.78322" lon="4.81145">
        <ele>139.19999694824</ele>
        <time>2017-07-16T07:21:44Z</time>
      </trkpt>
      <trkpt lat="45.78364" lon="4.81178">
        <ele>139.19999694824</ele>
        <time>2017-07-16T07:21:52Z</time>
      </trkpt>
      <trkpt lat="45.784" lon="4.8121">
        <ele>139.39999389648</ele>
        <time>2017-07-16T07:21:59Z</time>
      </trkpt>
      <trkpt lat="45.78405" lon="4.81214">
        <ele>139.39999389648</ele>
        <time>2017-07-16T07:22:00Z</time>
      </trkpt>
      <trkpt lat="45.78432" lon="4.81235">
        <ele>139.19999694824</ele>
        <time>2017-07-16T07:22:05Z</time>
      </trkpt>
      <trkpt lat="45.78481" lon="4.81273">
        <ele>139.39999389648</ele>
        <time>2017-07-16T07:22:14Z</time>
      </trkpt>
      <trkpt lat="45.78486" lon="4.81277">
        <ele>139.39999389648</ele>
        <time>2017-07-16T07:22:15Z</time>
      </trkpt>
      <trkpt lat="45.78514" lon="4.813">
        <ele>138.80000305176</ele>
        <time>2017-07-16T07:22:20Z</time>
      </trkpt>
      <trkpt lat="45.78526" lon="4.81308">
        <ele>138.80000305176</ele>
        <time>2017-07-16T07:22:22Z</time>
      </trkpt>
      <trkpt lat="45.78569" lon="4.81339">
        <ele>138.19999694824</ele>
        <time>2017-07-16T07:22:29Z</time>
      </trkpt>
      <trkpt lat="45.7861" lon="4.81366">
        <ele>138.19999694824</ele>
        <time>2017-07-16T07:22:36Z</time>
      </trkpt>
      <trkpt lat="45.78651" lon="4.81393">
        <ele>138</ele>
        <time>2017-07-16T07:22:43Z</time>
      </trkpt>
      <trkpt lat="45.78687" lon="4.81417">
        <ele>137.80000305176</ele>
        <time>2017-07-16T07:22:49Z</time>
      </trkpt>
      <trkpt lat="45.78693" lon="4.81421">
        <ele>137.80000305176</ele>
        <time>2017-07-16T07:22:50Z</time>
      </trkpt>
      <trkpt lat="45.78729" lon="4.81445">
        <ele>138</ele>
        <time>2017-07-16T07:22:56Z</time>
      </trkpt>
      <trkpt lat="45.78774" lon="4.81479">
        <ele>137.80000305176</ele>
        <time>2017-07-16T07:23:04Z</time>
      </trkpt>
      <trkpt lat="45.78816" lon="4.81515">
        <ele>137.80000305176</ele>
        <time>2017-07-16T07:23:11Z</time>
      </trkpt>
      <trkpt lat="45.7886" lon="4.81557">
        <ele>137.80000305176</ele>
        <time>2017-07-16T07:23:19Z</time>
      </trkpt>
      <trkpt lat="45.78865" lon="4.81563">
        <ele>138</ele>
        <time>2017-07-16T07:23:20Z</time>
      </trkpt>
      <trkpt lat="45.78884" lon="4.81586">
        <ele>138.19999694824</ele>
        <time>2017-07-16T07:23:24Z</time>
      </trkpt>
      <trkpt lat="45.78927" lon="4.81642">
        <ele>137.80000305176</ele>
        <time>2017-07-16T07:23:33Z</time>
      </trkpt>
      <trkpt lat="45.78965" lon="4.81694">
        <ele>137.80000305176</ele>
        <time>2017-07-16T07:23:41Z</time>
      </trkpt>
      <trkpt lat="45.78984" lon="4.81723">
        <ele>137.80000305176</ele>
        <time>2017-07-16T07:23:45Z</time>
      </trkpt>
      <trkpt lat="45.78993" lon="4.81737">
        <ele>137.80000305176</ele>
        <time>2017-07-16T07:23:47Z</time>
      </trkpt>
      <trkpt lat="45.79022" lon="4.81781">
        <ele>137.80000305176</ele>
        <time>2017-07-16T07:23:53Z</time>
      </trkpt>
      <trkpt lat="45.79055" lon="4.81827">
        <ele>137.60000610352</ele>
        <time>2017-07-16T07:24:00Z</time>
      </trkpt>
      <trkpt lat="45.79097" lon="4.81884">
        <ele>138</ele>
        <time>2017-07-16T07:24:09Z</time>
      </trkpt>
      <trkpt lat="45.79129" lon="4.81928">
        <ele>138.19999694824</ele>
        <time>2017-07-16T07:24:16Z</time>
      </trkpt>
      <trkpt lat="45.79134" lon="4.81934">
        <ele>138.19999694824</ele>
        <time>2017-07-16T07:24:17Z</time>
      </trkpt>
      <trkpt lat="45.79157" lon="4.81964">
        <ele>138.19999694824</ele>
        <time>2017-07-16T07:24:22Z</time>
      </trkpt>
      <trkpt lat="45.79195" lon="4.82011">
        <ele>138.39999389648</ele>
        <time>2017-07-16T07:24:30Z</time>
      </trkpt>
      <trkpt lat="45.79227" lon="4.82052">
        <ele>138</ele>
        <time>2017-07-16T07:24:37Z</time>
      </trkpt>
      <trkpt lat="45.79261" lon="4.82093">
        <ele>138.19999694824</ele>
        <time>2017-07-16T07:24:44Z</time>
      </trkpt>
      <trkpt lat="45.79265" lon="4.821">
        <ele>138.19999694824</ele>
        <time>2017-07-16T07:24:45Z</time>
      </trkpt>
      <trkpt lat="45.79279" lon="4.82119">
        <ele>138.19999694824</ele>
        <time>2017-07-16T07:24:48Z</time>
      </trkpt>
      <trkpt lat="45.79289" lon="4.8213">
        <ele>138.19999694824</ele>
        <time>2017-07-16T07:24:50Z</time>
      </trkpt>
      <trkpt lat="45.79318" lon="4.82166">
        <ele>138.39999389648</ele>
        <time>2017-07-16T07:24:56Z</time>
      </trkpt>
      <trkpt lat="45.79351" lon="4.82209">
        <ele>138.39999389648</ele>
        <time>2017-07-16T07:25:03Z</time>
      </trkpt>
      <trkpt lat="45.79385" lon="4.82266">
        <ele>138.60000610352</ele>
        <time>2017-07-16T07:25:11Z</time>
      </trkpt>
      <trkpt lat="45.79414" lon="4.82318">
        <ele>138.60000610352</ele>
        <time>2017-07-16T07:25:18Z</time>
      </trkpt>
      <trkpt lat="45.79446" lon="4.82377">
        <ele>138.60000610352</ele>
        <time>2017-07-16T07:25:26Z</time>
      </trkpt>
      <trkpt lat="45.79471" lon="4.82422">
        <ele>138.60000610352</ele>
        <time>2017-07-16T07:25:32Z</time>
      </trkpt>
      <trkpt lat="45.79506" lon="4.82482">
        <ele>138.80000305176</ele>
        <time>2017-07-16T07:25:40Z</time>
      </trkpt>
      <trkpt lat="45.79542" lon="4.8255">
        <ele>138.60000610352</ele>
        <time>2017-07-16T07:25:49Z</time>
      </trkpt>
      <trkpt lat="45.79576" lon="4.82615">
        <ele>138.80000305176</ele>
        <time>2017-07-16T07:25:58Z</time>
      </trkpt>
      <trkpt lat="45.79603" lon="4.82668">
        <ele>139.19999694824</ele>
        <time>2017-07-16T07:26:06Z</time>
      </trkpt>
      <trkpt lat="45.79616" lon="4.82693">
        <ele>139.39999389648</ele>
        <time>2017-07-16T07:26:10Z</time>
      </trkpt>
      <trkpt lat="45.79622" lon="4.82706">
        <ele>139.19999694824</ele>
        <time>2017-07-16T07:26:12Z</time>
      </trkpt>
      <trkpt lat="45.79645" lon="4.82752">
        <ele>139.19999694824</ele>
        <time>2017-07-16T07:26:19Z</time>
      </trkpt>
      <trkpt lat="45.79673" lon="4.82803">
        <ele>139</ele>
        <time>2017-07-16T07:26:27Z</time>
      </trkpt>
      <trkpt lat="45.79677" lon="4.82809">
        <ele>139</ele>
        <time>2017-07-16T07:26:28Z</time>
      </trkpt>
      <trkpt lat="45.79704" lon="4.82861">
        <ele>138.80000305176</ele>
        <time>2017-07-16T07:26:36Z</time>
      </trkpt>
      <trkpt lat="45.79731" lon="4.82913">
        <ele>138.80000305176</ele>
        <time>2017-07-16T07:26:44Z</time>
      </trkpt>
      <trkpt lat="45.79757" lon="4.82963">
        <ele>139</ele>
        <time>2017-07-16T07:26:52Z</time>
      </trkpt>
      <trkpt lat="45.79777" lon="4.83001">
        <ele>139.60000610352</ele>
        <time>2017-07-16T07:26:59Z</time>
      </trkpt>
      <trkpt lat="45.7978" lon="4.83008">
        <ele>139.60000610352</ele>
        <time>2017-07-16T07:27:00Z</time>
      </trkpt>
      <trkpt lat="45.79785" lon="4.8302">
        <ele>140</ele>
        <time>2017-07-16T07:27:02Z</time>
      </trkpt>
      <trkpt lat="45.79791" lon="4.8303">
        <ele>140.60000610352</ele>
        <time>2017-07-16T07:27:04Z</time>
      </trkpt>
      <trkpt lat="45.79795" lon="4.83045">
        <ele>141</ele>
        <time>2017-07-16T07:27:07Z</time>
      </trkpt>
      <trkpt lat="45.79797" lon="4.83049">
        <ele>141</ele>
        <time>2017-07-16T07:27:08Z</time>
      </trkpt>
      <trkpt lat="45.79805" lon="4.83065">
        <ele>141.19999694824</ele>
        <time>2017-07-16T07:27:11Z</time>
      </trkpt>
      <trkpt lat="45.79808" lon="4.83073">
        <ele>141.19999694824</ele>
        <time>2017-07-16T07:27:12Z</time>
      </trkpt>
      <trkpt lat="45.79826" lon="4.83117">
        <ele>140.19999694824</ele>
        <time>2017-07-16T07:27:17Z</time>
      </trkpt>
      <trkpt lat="45.79829" lon="4.83126">
        <ele>140</ele>
        <time>2017-07-16T07:27:18Z</time>
      </trkpt>
      <trkpt lat="45.79847" lon="4.83167">
        <ele>138.80000305176</ele>
        <time>2017-07-16T07:27:23Z</time>
      </trkpt>
      <trkpt lat="45.79852" lon="4.83183">
        <ele>138.60000610352</ele>
        <time>2017-07-16T07:27:25Z</time>
      </trkpt>
      <trkpt lat="45.79865" lon="4.83216">
        <ele>138.39999389648</ele>
        <time>2017-07-16T07:27:29Z</time>
      </trkpt>
      <trkpt lat="45.79868" lon="4.83224">
        <ele>138.39999389648</ele>
        <time>2017-07-16T07:27:30Z</time>
      </trkpt>
      <trkpt lat="45.79882" lon="4.83275">
        <ele>138.39999389648</ele>
        <time>2017-07-16T07:27:36Z</time>
      </trkpt>
      <trkpt lat="45.79899" lon="4.83333">
        <ele>138.19999694824</ele>
        <time>2017-07-16T07:27:43Z</time>
      </trkpt>
      <trkpt lat="45.79917" lon="4.83391">
        <ele>138.19999694824</ele>
        <time>2017-07-16T07:27:50Z</time>
      </trkpt>
      <trkpt lat="45.79934" lon="4.83448">
        <ele>138.39999389648</ele>
        <time>2017-07-16T07:27:57Z</time>
      </trkpt>
      <trkpt lat="45.79952" lon="4.83511">
        <ele>138.60000610352</ele>
        <time>2017-07-16T07:28:05Z</time>
      </trkpt>
      <trkpt lat="45.79969" lon="4.83565">
        <ele>138.19999694824</ele>
        <time>2017-07-16T07:28:12Z</time>
      </trkpt>
      <trkpt lat="45.79983" lon="4.83602">
        <ele>138.39999389648</ele>
        <time>2017-07-16T07:28:17Z</time>
      </trkpt>
      <trkpt lat="45.79986" lon="4.83609">
        <ele>138.60000610352</ele>
        <time>2017-07-16T07:28:18Z</time>
      </trkpt>
      <trkpt lat="45.80013" lon="4.83666">
        <ele>138.60000610352</ele>
        <time>2017-07-16T07:28:26Z</time>
      </trkpt>
      <trkpt lat="45.80041" lon="4.83716">
        <ele>138.80000305176</ele>
        <time>2017-07-16T07:28:34Z</time>
      </trkpt>
      <trkpt lat="45.8007" lon="4.83763">
        <ele>139.19999694824</ele>
        <time>2017-07-16T07:28:42Z</time>
      </trkpt>
      <trkpt lat="45.80081" lon="4.83779">
        <ele>139.39999389648</ele>
        <time>2017-07-16T07:28:45Z</time>
      </trkpt>
      <trkpt lat="45.80092" lon="4.83793">
        <ele>139.80000305176</ele>
        <time>2017-07-16T07:28:48Z</time>
      </trkpt>
      <trkpt lat="45.801" lon="4.83803">
        <ele>140</ele>
        <time>2017-07-16T07:28:50Z</time>
      </trkpt>
      <trkpt lat="45.80124" lon="4.83828">
        <ele>141</ele>
        <time>2017-07-16T07:28:56Z</time>
      </trkpt>
      <trkpt lat="45.80127" lon="4.83831">
        <ele>141.19999694824</ele>
        <time>2017-07-16T07:28:57Z</time>
      </trkpt>
      <trkpt lat="45.80146" lon="4.83847">
        <ele>142.19999694824</ele>
        <time>2017-07-16T07:29:02Z</time>
      </trkpt>
      <trkpt lat="45.8016" lon="4.83856">
        <ele>142.80000305176</ele>
        <time>2017-07-16T07:29:06Z</time>
      </trkpt>
      <trkpt lat="45.80166" lon="4.83859">
        <ele>143.39999389648</ele>
        <time>2017-07-16T07:29:08Z</time>
      </trkpt>
      <trkpt lat="45.80183" lon="4.8387">
        <ele>144.39999389648</ele>
        <time>2017-07-16T07:29:13Z</time>
      </trkpt>
      <trkpt lat="45.80187" lon="4.83872">
        <ele>144.60000610352</ele>
        <time>2017-07-16T07:29:14Z</time>
      </trkpt>
      <trkpt lat="45.80199" lon="4.83878">
        <ele>145.60000610352</ele>
        <time>2017-07-16T07:29:18Z</time>
      </trkpt>
      <trkpt lat="45.80206" lon="4.83883">
        <ele>146</ele>
        <time>2017-07-16T07:29:20Z</time>
      </trkpt>
      <trkpt lat="45.80216" lon="4.83887">
        <ele>146.80000305176</ele>
        <time>2017-07-16T07:29:23Z</time>
      </trkpt>
      <trkpt lat="45.8023" lon="4.83893">
        <ele>148.19999694824</ele>
        <time>2017-07-16T07:29:27Z</time>
      </trkpt>
      <trkpt lat="45.80233" lon="4.83893">
        <ele>148.39999389648</ele>
        <time>2017-07-16T07:29:28Z</time>
      </trkpt>
      <trkpt lat="45.80246" lon="4.839">
        <ele>149.19999694824</ele>
        <time>2017-07-16T07:29:32Z</time>
      </trkpt>
      <trkpt lat="45.80252" lon="4.83902">
        <ele>149.60000610352</ele>
        <time>2017-07-16T07:29:34Z</time>
      </trkpt>
      <trkpt lat="45.80264" lon="4.83909">
        <ele>150.39999389648</ele>
        <time>2017-07-16T07:29:38Z</time>
      </trkpt>
      <trkpt lat="45.80274" lon="4.83915">
        <ele>151</ele>
        <time>2017-07-16T07:29:41Z</time>
      </trkpt>
      <trkpt lat="45.80284" lon="4.8392">
        <ele>151.60000610352</ele>
        <time>2017-07-16T07:29:44Z</time>
      </trkpt>
      <trkpt lat="45.80293" lon="4.83927">
        <ele>152.19999694824</ele>
        <time>2017-07-16T07:29:47Z</time>
      </trkpt>
      <trkpt lat="45.80317" lon="4.83947">
        <ele>152.39999389648</ele>
        <time>2017-07-16T07:29:53Z</time>
      </trkpt>
      <trkpt lat="45.80344" lon="4.83972">
        <ele>151.80000305176</ele>
        <time>2017-07-16T07:29:58Z</time>
      </trkpt>
      <trkpt lat="45.80372" lon="4.83995">
        <ele>150.60000610352</ele>
        <time>2017-07-16T07:30:02Z</time>
      </trkpt>
      <trkpt lat="45.8038" lon="4.84001">
        <ele>150.19999694824</ele>
        <time>2017-07-16T07:30:03Z</time>
      </trkpt>
      <trkpt lat="45.80396" lon="4.84013">
        <ele>149</ele>
        <time>2017-07-16T07:30:05Z</time>
      </trkpt>
      <trkpt lat="45.80422" lon="4.84026">
        <ele>147.80000305176</ele>
        <time>2017-07-16T07:30:08Z</time>
      </trkpt>
      <trkpt lat="45.80431" lon="4.84031">
        <ele>147.19999694824</ele>
        <time>2017-07-16T07:30:09Z</time>
      </trkpt>
      <trkpt lat="45.8044" lon="4.84035">
        <ele>146.60000610352</ele>
        <time>2017-07-16T07:30:10Z</time>
      </trkpt>
      <trkpt lat="45.80466" lon="4.8405">
        <ele>145.39999389648</ele>
        <time>2017-07-16T07:30:13Z</time>
      </trkpt>
      <trkpt lat="45.80484" lon="4.8406">
        <ele>144</ele>
        <time>2017-07-16T07:30:15Z</time>
      </trkpt>
      <trkpt lat="45.80492" lon="4.84065">
        <ele>143.60000610352</ele>
        <time>2017-07-16T07:30:16Z</time>
      </trkpt>
      <trkpt lat="45.8051" lon="4.84074">
        <ele>143</ele>
        <time>2017-07-16T07:30:18Z</time>
      </trkpt>
      <trkpt lat="45.80535" lon="4.84089">
        <ele>141.60000610352</ele>
        <time>2017-07-16T07:30:21Z</time>
      </trkpt>
      <trkpt lat="45.80559" lon="4.84102">
        <ele>140.39999389648</ele>
        <time>2017-07-16T07:30:24Z</time>
      </trkpt>
      <trkpt lat="45.80567" lon="4.84106">
        <ele>140.19999694824</ele>
        <time>2017-07-16T07:30:25Z</time>
      </trkpt>
      <trkpt lat="45.80609" lon="4.8413">
        <ele>139.39999389648</ele>
        <time>2017-07-16T07:30:31Z</time>
      </trkpt>
      <trkpt lat="45.80615" lon="4.84133">
        <ele>139.39999389648</ele>
        <time>2017-07-16T07:30:32Z</time>
      </trkpt>
      <trkpt lat="45.80667" lon="4.84156">
        <ele>139</ele>
        <time>2017-07-16T07:30:40Z</time>
      </trkpt>
      <trkpt lat="45.80674" lon="4.84158">
        <ele>139</ele>
        <time>2017-07-16T07:30:41Z</time>
      </trkpt>
      <trkpt lat="45.80731" lon="4.84176">
        <ele>139</ele>
        <time>2017-07-16T07:30:50Z</time>
      </trkpt>
      <trkpt lat="45.80791" lon="4.84189">
        <ele>138.80000305176</ele>
        <time>2017-07-16T07:30:59Z</time>
      </trkpt>
      <trkpt lat="45.80844" lon="4.84196">
        <ele>138.80000305176</ele>
        <time>2017-07-16T07:31:07Z</time>
      </trkpt>
      <trkpt lat="45.80903" lon="4.84198">
        <ele>139.19999694824</ele>
        <time>2017-07-16T07:31:16Z</time>
      </trkpt>
      <trkpt lat="45.80955" lon="4.84199">
        <ele>139</ele>
        <time>2017-07-16T07:31:24Z</time>
      </trkpt>
      <trkpt lat="45.81008" lon="4.84204">
        <ele>139</ele>
        <time>2017-07-16T07:31:32Z</time>
      </trkpt>
      <trkpt lat="45.8106" lon="4.84218">
        <ele>139</ele>
        <time>2017-07-16T07:31:40Z</time>
      </trkpt>
      <trkpt lat="45.8111" lon="4.84239">
        <ele>138.80000305176</ele>
        <time>2017-07-16T07:31:48Z</time>
      </trkpt>
      <trkpt lat="45.81165" lon="4.84269">
        <ele>138.80000305176</ele>
        <time>2017-07-16T07:31:57Z</time>
      </trkpt>
      <trkpt lat="45.8121" lon="4.84304">
        <ele>139</ele>
        <time>2017-07-16T07:32:05Z</time>
      </trkpt>
      <trkpt lat="45.81252" lon="4.84343">
        <ele>139.19999694824</ele>
        <time>2017-07-16T07:32:13Z</time>
      </trkpt>
      <trkpt lat="45.81291" lon="4.84389">
        <ele>139</ele>
        <time>2017-07-16T07:32:21Z</time>
      </trkpt>
      <trkpt lat="45.81334" lon="4.8444">
        <ele>138.80000305176</ele>
        <time>2017-07-16T07:32:30Z</time>
      </trkpt>
      <trkpt lat="45.81371" lon="4.84485">
        <ele>138.80000305176</ele>
        <time>2017-07-16T07:32:38Z</time>
      </trkpt>
      <trkpt lat="45.81408" lon="4.8453">
        <ele>139</ele>
        <time>2017-07-16T07:32:46Z</time>
      </trkpt>
      <trkpt lat="45.81444" lon="4.84573">
        <ele>139.80000305176</ele>
        <time>2017-07-16T07:32:55Z</time>
      </trkpt>
      <trkpt lat="45.81466" lon="4.84601">
        <ele>140.39999389648</ele>
        <time>2017-07-16T07:33:01Z</time>
      </trkpt>
      <trkpt lat="45.81469" lon="4.84607">
        <ele>140.60000610352</ele>
        <time>2017-07-16T07:33:02Z</time>
      </trkpt>
      <trkpt lat="45.81472" lon="4.84613">
        <ele>140.80000305176</ele>
        <time>2017-07-16T07:33:03Z</time>
      </trkpt>
      <trkpt lat="45.8148" lon="4.84632">
        <ele>141.39999389648</ele>
        <time>2017-07-16T07:33:06Z</time>
      </trkpt>
      <trkpt lat="45.81487" lon="4.84643">
        <ele>141.60000610352</ele>
        <time>2017-07-16T07:33:08Z</time>
      </trkpt>
      <trkpt lat="45.81498" lon="4.84663">
        <ele>142</ele>
        <time>2017-07-16T07:33:11Z</time>
      </trkpt>
      <trkpt lat="45.81505" lon="4.84678">
        <ele>142</ele>
        <time>2017-07-16T07:33:13Z</time>
      </trkpt>
      <trkpt lat="45.81509" lon="4.84686">
        <ele>142</ele>
        <time>2017-07-16T07:33:14Z</time>
      </trkpt>
      <trkpt lat="45.81519" lon="4.84723">
        <ele>141</ele>
        <time>2017-07-16T07:33:18Z</time>
      </trkpt>
      <trkpt lat="45.81524" lon="4.84742">
        <ele>140.39999389648</ele>
        <time>2017-07-16T07:33:20Z</time>
      </trkpt>
      <trkpt lat="45.8154" lon="4.84796">
        <ele>139.39999389648</ele>
        <time>2017-07-16T07:33:26Z</time>
      </trkpt>
      <trkpt lat="45.81543" lon="4.84804">
        <ele>139.39999389648</ele>
        <time>2017-07-16T07:33:27Z</time>
      </trkpt>
      <trkpt lat="45.81572" lon="4.84876">
        <ele>138.80000305176</ele>
        <time>2017-07-16T07:33:36Z</time>
      </trkpt>
      <trkpt lat="45.81601" lon="4.84946">
        <ele>138.80000305176</ele>
        <time>2017-07-16T07:33:45Z</time>
      </trkpt>
      <trkpt lat="45.81607" lon="4.84961">
        <ele>138.80000305176</ele>
        <time>2017-07-16T07:33:47Z</time>
      </trkpt>
      <trkpt lat="45.81629" lon="4.85015">
        <ele>138.80000305176</ele>
        <time>2017-07-16T07:33:54Z</time>
      </trkpt>
      <trkpt lat="45.81632" lon="4.85023">
        <ele>138.80000305176</ele>
        <time>2017-07-16T07:33:55Z</time>
      </trkpt>
      <trkpt lat="45.81643" lon="4.85053">
        <ele>139</ele>
        <time>2017-07-16T07:33:59Z</time>
      </trkpt>
      <trkpt lat="45.81663" lon="4.851">
        <ele>139</ele>
        <time>2017-07-16T07:34:06Z</time>
      </trkpt>
      <trkpt lat="45.81677" lon="4.85132">
        <ele>139</ele>
        <time>2017-07-16T07:34:11Z</time>
      </trkpt>
      <trkpt lat="45.81684" lon="4.85151">
        <ele>139.19999694824</ele>
        <time>2017-07-16T07:34:14Z</time>
      </trkpt>
      <trkpt lat="45.81687" lon="4.85157">
        <ele>139.19999694824</ele>
        <time>2017-07-16T07:34:15Z</time>
      </trkpt>
      <trkpt lat="45.81692" lon="4.85169">
        <ele>139</ele>
        <time>2017-07-16T07:34:17Z</time>
      </trkpt>
      <trkpt lat="45.817" lon="4.85187">
        <ele>138.80000305176</ele>
        <time>2017-07-16T07:34:20Z</time>
      </trkpt>
      <trkpt lat="45.81708" lon="4.85205">
        <ele>138.80000305176</ele>
        <time>2017-07-16T07:34:23Z</time>
      </trkpt>
      <trkpt lat="45.81713" lon="4.85214">
        <ele>138.60000610352</ele>
        <time>2017-07-16T07:34:50Z</time>
      </trkpt>
      <trkpt lat="45.81718" lon="4.85221">
        <ele>138.60000610352</ele>
        <time>2017-07-16T07:34:53Z</time>
      </trkpt>
      <trkpt lat="45.81731" lon="4.85245">
        <ele>138.60000610352</ele>
        <time>2017-07-16T07:35:00Z</time>
      </trkpt>
      <trkpt lat="45.81745" lon="4.8527">
        <ele>139</ele>
        <time>2017-07-16T07:35:07Z</time>
      </trkpt>
      <trkpt lat="45.81752" lon="4.85281">
        <ele>139</ele>
        <time>2017-07-16T07:35:11Z</time>
      </trkpt>
      <trkpt lat="45.81756" lon="4.85284">
        <ele>138.39999389648</ele>
        <time>2017-07-16T07:35:38Z</time>
      </trkpt>
      <trkpt lat="45.81759" lon="4.85288">
        <ele>138.39999389648</ele>
        <time>2017-07-16T07:35:40Z</time>
      </trkpt>
      <trkpt lat="45.81772" lon="4.85305">
        <ele>138.60000610352</ele>
        <time>2017-07-16T07:35:46Z</time>
      </trkpt>
      <trkpt lat="45.81788" lon="4.85327">
        <ele>138.60000610352</ele>
        <time>2017-07-16T07:35:52Z</time>
      </trkpt>
      <trkpt lat="45.81815" lon="4.85358">
        <ele>138.80000305176</ele>
        <time>2017-07-16T07:36:00Z</time>
      </trkpt>
      <trkpt lat="45.81825" lon="4.85368">
        <ele>137.39999389648</ele>
        <time>2017-07-16T07:36:12Z</time>
      </trkpt>
      <trkpt lat="45.81829" lon="4.85372">
        <ele>138.80000305176</ele>
        <time>2017-07-16T07:36:14Z</time>
      </trkpt>
      <trkpt lat="45.8183" lon="4.85374">
        <ele>139.39999389648</ele>
        <time>2017-07-16T07:36:15Z</time>
      </trkpt>
      <trkpt lat="45.81849" lon="4.85389">
        <ele>138.60000610352</ele>
        <time>2017-07-16T07:36:21Z</time>
      </trkpt>
      <trkpt lat="45.81881" lon="4.85414">
        <ele>138.80000305176</ele>
        <time>2017-07-16T07:36:30Z</time>
      </trkpt>
      <trkpt lat="45.81884" lon="4.85416">
        <ele>138.80000305176</ele>
        <time>2017-07-16T07:36:31Z</time>
      </trkpt>
      <trkpt lat="45.81905" lon="4.85429">
        <ele>139</ele>
        <time>2017-07-16T07:36:36Z</time>
      </trkpt>
      <trkpt lat="45.81931" lon="4.85441">
        <ele>139.39999389648</ele>
        <time>2017-07-16T07:36:41Z</time>
      </trkpt>
      <trkpt lat="45.81957" lon="4.85453">
        <ele>139.39999389648</ele>
        <time>2017-07-16T07:36:46Z</time>
      </trkpt>
      <trkpt lat="45.81997" lon="4.85466">
        <ele>139.60000610352</ele>
        <time>2017-07-16T07:36:53Z</time>
      </trkpt>
      <trkpt lat="45.82003" lon="4.85468">
        <ele>139.60000610352</ele>
        <time>2017-07-16T07:36:54Z</time>
      </trkpt>
      <trkpt lat="45.82039" lon="4.85476">
        <ele>139.60000610352</ele>
        <time>2017-07-16T07:37:00Z</time>
      </trkpt>
      <trkpt lat="45.82083" lon="4.85482">
        <ele>139.60000610352</ele>
        <time>2017-07-16T07:37:07Z</time>
      </trkpt>
      <trkpt lat="45.82141" lon="4.85485">
        <ele>139.80000305176</ele>
        <time>2017-07-16T07:37:16Z</time>
      </trkpt>
      <trkpt lat="45.82197" lon="4.85481">
        <ele>139.80000305176</ele>
        <time>2017-07-16T07:37:25Z</time>
      </trkpt>
      <trkpt lat="45.82246" lon="4.85473">
        <ele>139.80000305176</ele>
        <time>2017-07-16T07:37:33Z</time>
      </trkpt>
      <trkpt lat="45.82252" lon="4.85472">
        <ele>139.80000305176</ele>
        <time>2017-07-16T07:37:34Z</time>
      </trkpt>
      <trkpt lat="45.82285" lon="4.85464">
        <ele>140.19999694824</ele>
        <time>2017-07-16T07:37:40Z</time>
      </trkpt>
      <trkpt lat="45.82335" lon="4.85445">
        <ele>140.39999389648</ele>
        <time>2017-07-16T07:37:49Z</time>
      </trkpt>
      <trkpt lat="45.82374" lon="4.85429">
        <ele>140.60000610352</ele>
        <time>2017-07-16T07:37:56Z</time>
      </trkpt>
      <trkpt lat="45.82408" lon="4.85413">
        <ele>140.80000305176</ele>
        <time>2017-07-16T07:38:02Z</time>
      </trkpt>
      <trkpt lat="45.82413" lon="4.85411">
        <ele>141</ele>
        <time>2017-07-16T07:38:03Z</time>
      </trkpt>
      <trkpt lat="45.82451" lon="4.8539">
        <ele>141.39999389648</ele>
        <time>2017-07-16T07:38:10Z</time>
      </trkpt>
      <trkpt lat="45.82496" lon="4.85364">
        <ele>141.19999694824</ele>
        <time>2017-07-16T07:38:18Z</time>
      </trkpt>
      <trkpt lat="45.82546" lon="4.85331">
        <ele>140.80000305176</ele>
        <time>2017-07-16T07:38:27Z</time>
      </trkpt>
      <trkpt lat="45.82551" lon="4.85327">
        <ele>140.60000610352</ele>
        <time>2017-07-16T07:38:28Z</time>
      </trkpt>
      <trkpt lat="45.82557" lon="4.85324">
        <ele>140.60000610352</ele>
        <time>2017-07-16T07:38:29Z</time>
      </trkpt>
      <trkpt lat="45.82585" lon="4.85305">
        <ele>140.19999694824</ele>
        <time>2017-07-16T07:38:34Z</time>
      </trkpt>
      <trkpt lat="45.82625" lon="4.85275">
        <ele>139.80000305176</ele>
        <time>2017-07-16T07:38:41Z</time>
      </trkpt>
      <trkpt lat="45.82664" lon="4.85248">
        <ele>139.60000610352</ele>
        <time>2017-07-16T07:38:48Z</time>
      </trkpt>
      <trkpt lat="45.82705" lon="4.85217">
        <ele>139.80000305176</ele>
        <time>2017-07-16T07:38:56Z</time>
      </trkpt>
      <trkpt lat="45.82742" lon="4.85189">
        <ele>139.39999389648</ele>
        <time>2017-07-16T07:39:03Z</time>
      </trkpt>
      <trkpt lat="45.82784" lon="4.85158">
        <ele>139.60000610352</ele>
        <time>2017-07-16T07:39:11Z</time>
      </trkpt>
      <trkpt lat="45.82819" lon="4.85128">
        <ele>139.19999694824</ele>
        <time>2017-07-16T07:39:18Z</time>
      </trkpt>
      <trkpt lat="45.82834" lon="4.85114">
        <ele>139.39999389648</ele>
        <time>2017-07-16T07:39:21Z</time>
      </trkpt>
      <trkpt lat="45.82848" lon="4.85101">
        <ele>139.60000610352</ele>
        <time>2017-07-16T07:39:24Z</time>
      </trkpt>
      <trkpt lat="45.82884" lon="4.85062">
        <ele>139.80000305176</ele>
        <time>2017-07-16T07:39:31Z</time>
      </trkpt>
      <trkpt lat="45.82919" lon="4.85024">
        <ele>139.60000610352</ele>
        <time>2017-07-16T07:39:38Z</time>
      </trkpt>
      <trkpt lat="45.82957" lon="4.84977">
        <ele>139.80000305176</ele>
        <time>2017-07-16T07:39:46Z</time>
      </trkpt>
      <trkpt lat="45.82998" lon="4.84921">
        <ele>139.80000305176</ele>
        <time>2017-07-16T07:39:55Z</time>
      </trkpt>
      <trkpt lat="45.83002" lon="4.84914">
        <ele>139.80000305176</ele>
        <time>2017-07-16T07:39:56Z</time>
      </trkpt>
      <trkpt lat="45.83031" lon="4.84869">
        <ele>140</ele>
        <time>2017-07-16T07:40:03Z</time>
      </trkpt>
      <trkpt lat="45.83057" lon="4.84819">
        <ele>140.60000610352</ele>
        <time>2017-07-16T07:40:11Z</time>
      </trkpt>
      <trkpt lat="45.83066" lon="4.84802">
        <ele>140.80000305176</ele>
        <time>2017-07-16T07:40:14Z</time>
      </trkpt>
      <trkpt lat="45.83083" lon="4.84769">
        <ele>141.80000305176</ele>
        <time>2017-07-16T07:40:20Z</time>
      </trkpt>
      <trkpt lat="45.8309" lon="4.8476">
        <ele>142</ele>
        <time>2017-07-16T07:40:22Z</time>
      </trkpt>
      <trkpt lat="45.83102" lon="4.84745">
        <ele>142.60000610352</ele>
        <time>2017-07-16T07:40:26Z</time>
      </trkpt>
      <trkpt lat="45.83111" lon="4.84731">
        <ele>142.80000305176</ele>
        <time>2017-07-16T07:40:31Z</time>
      </trkpt>
      <trkpt lat="45.83112" lon="4.8473">
        <ele>142.80000305176</ele>
        <time>2017-07-16T07:40:32Z</time>
      </trkpt>
      <trkpt lat="45.83113" lon="4.84721">
        <ele>142.60000610352</ele>
        <time>2017-07-16T07:40:35Z</time>
      </trkpt>
      <trkpt lat="45.8312" lon="4.84701">
        <ele>142.39999389648</ele>
        <time>2017-07-16T07:40:39Z</time>
      </trkpt>
      <trkpt lat="45.83123" lon="4.84696">
        <ele>142.39999389648</ele>
        <time>2017-07-16T07:40:40Z</time>
      </trkpt>
      <trkpt lat="45.83139" lon="4.84667">
        <ele>142.39999389648</ele>
        <time>2017-07-16T07:40:45Z</time>
      </trkpt>
      <trkpt lat="45.83158" lon="4.84629">
        <ele>142.60000610352</ele>
        <time>2017-07-16T07:40:51Z</time>
      </trkpt>
      <trkpt lat="45.8317" lon="4.84592">
        <ele>142.19999694824</ele>
        <time>2017-07-16T07:40:57Z</time>
      </trkpt>
      <trkpt lat="45.83184" lon="4.8455">
        <ele>142</ele>
        <time>2017-07-16T07:41:04Z</time>
      </trkpt>
      <trkpt lat="45.83198" lon="4.84494">
        <ele>141.39999389648</ele>
        <time>2017-07-16T07:41:12Z</time>
      </trkpt>
      <trkpt lat="45.83208" lon="4.84448">
        <ele>141.19999694824</ele>
        <time>2017-07-16T07:41:18Z</time>
      </trkpt>
      <trkpt lat="45.83209" lon="4.84439">
        <ele>141.19999694824</ele>
        <time>2017-07-16T07:41:19Z</time>
      </trkpt>
      <trkpt lat="45.83216" lon="4.84399">
        <ele>141.19999694824</ele>
        <time>2017-07-16T07:41:24Z</time>
      </trkpt>
      <trkpt lat="45.8323" lon="4.84331">
        <ele>141.60000610352</ele>
        <time>2017-07-16T07:41:33Z</time>
      </trkpt>
      <trkpt lat="45.83241" lon="4.8428">
        <ele>141.60000610352</ele>
        <time>2017-07-16T07:41:40Z</time>
      </trkpt>
      <trkpt lat="45.83254" lon="4.8422">
        <ele>141.19999694824</ele>
        <time>2017-07-16T07:41:48Z</time>
      </trkpt>
      <trkpt lat="45.83259" lon="4.84196">
        <ele>141</ele>
        <time>2017-07-16T07:41:51Z</time>
      </trkpt>
      <trkpt lat="45.8327" lon="4.84147">
        <ele>140.80000305176</ele>
        <time>2017-07-16T07:41:57Z</time>
      </trkpt>
      <trkpt lat="45.83287" lon="4.84074">
        <ele>141</ele>
        <time>2017-07-16T07:42:06Z</time>
      </trkpt>
      <trkpt lat="45.83289" lon="4.84066">
        <ele>141.19999694824</ele>
        <time>2017-07-16T07:42:07Z</time>
      </trkpt>
      <trkpt lat="45.83304" lon="4.83995">
        <ele>141.39999389648</ele>
        <time>2017-07-16T07:42:16Z</time>
      </trkpt>
      <trkpt lat="45.83317" lon="4.83937">
        <ele>141.60000610352</ele>
        <time>2017-07-16T07:42:24Z</time>
      </trkpt>
      <trkpt lat="45.83319" lon="4.8393">
        <ele>141.60000610352</ele>
        <time>2017-07-16T07:42:25Z</time>
      </trkpt>
      <trkpt lat="45.83336" lon="4.83865">
        <ele>142</ele>
        <time>2017-07-16T07:42:34Z</time>
      </trkpt>
      <trkpt lat="45.83338" lon="4.83858">
        <ele>142</ele>
        <time>2017-07-16T07:42:35Z</time>
      </trkpt>
      <trkpt lat="45.83359" lon="4.83783">
        <ele>142.60000610352</ele>
        <time>2017-07-16T07:42:45Z</time>
      </trkpt>
      <trkpt lat="45.83377" lon="4.83719">
        <ele>142.80000305176</ele>
        <time>2017-07-16T07:42:53Z</time>
      </trkpt>
      <trkpt lat="45.83397" lon="4.83652">
        <ele>142.39999389648</ele>
        <time>2017-07-16T07:43:02Z</time>
      </trkpt>
      <trkpt lat="45.83423" lon="4.83576">
        <ele>142</ele>
        <time>2017-07-16T07:43:12Z</time>
      </trkpt>
      <trkpt lat="45.8345" lon="4.83505">
        <ele>142</ele>
        <time>2017-07-16T07:43:21Z</time>
      </trkpt>
      <trkpt lat="45.83453" lon="4.83497">
        <ele>142</ele>
        <time>2017-07-16T07:43:22Z</time>
      </trkpt>
      <trkpt lat="45.83485" lon="4.83427">
        <ele>142.39999389648</ele>
        <time>2017-07-16T07:43:31Z</time>
      </trkpt>
      <trkpt lat="45.83511" lon="4.83383">
        <ele>142.39999389648</ele>
        <time>2017-07-16T07:43:37Z</time>
      </trkpt>
      <trkpt lat="45.83553" lon="4.8333">
        <ele>142</ele>
        <time>2017-07-16T07:43:45Z</time>
      </trkpt>
      <trkpt lat="45.83595" lon="4.83292">
        <ele>141.80000305176</ele>
        <time>2017-07-16T07:43:52Z</time>
      </trkpt>
      <trkpt lat="45.83649" lon="4.83253">
        <ele>141.19999694824</ele>
        <time>2017-07-16T07:44:01Z</time>
      </trkpt>
      <trkpt lat="45.83655" lon="4.83249">
        <ele>141.19999694824</ele>
        <time>2017-07-16T07:44:02Z</time>
      </trkpt>
      <trkpt lat="45.83705" lon="4.83207">
        <ele>141.39999389648</ele>
        <time>2017-07-16T07:44:11Z</time>
      </trkpt>
      <trkpt lat="45.83751" lon="4.83171">
        <ele>141.19999694824</ele>
        <time>2017-07-16T07:44:19Z</time>
      </trkpt>
      <trkpt lat="45.83788" lon="4.8315">
        <ele>141</ele>
        <time>2017-07-16T07:44:25Z</time>
      </trkpt>
      <trkpt lat="45.838" lon="4.83144">
        <ele>140.80000305176</ele>
        <time>2017-07-16T07:44:27Z</time>
      </trkpt>
      <trkpt lat="45.83858" lon="4.83123">
        <ele>140.60000610352</ele>
        <time>2017-07-16T07:44:36Z</time>
      </trkpt>
      <trkpt lat="45.83901" lon="4.83114">
        <ele>140.60000610352</ele>
        <time>2017-07-16T07:44:43Z</time>
      </trkpt>
      <trkpt lat="45.83951" lon="4.83109">
        <ele>140.19999694824</ele>
        <time>2017-07-16T07:44:51Z</time>
      </trkpt>
      <trkpt lat="45.84002" lon="4.83107">
        <ele>140.19999694824</ele>
        <time>2017-07-16T07:44:59Z</time>
      </trkpt>
      <trkpt lat="45.84052" lon="4.83111">
        <ele>140.60000610352</ele>
        <time>2017-07-16T07:45:07Z</time>
      </trkpt>
      <trkpt lat="45.84106" lon="4.83121">
        <ele>140.80000305176</ele>
        <time>2017-07-16T07:45:16Z</time>
      </trkpt>
      <trkpt lat="45.84159" lon="4.83138">
        <ele>140.80000305176</ele>
        <time>2017-07-16T07:45:25Z</time>
      </trkpt>
      <trkpt lat="45.84164" lon="4.8314">
        <ele>140.80000305176</ele>
        <time>2017-07-16T07:45:26Z</time>
      </trkpt>
      <trkpt lat="45.84207" lon="4.83155">
        <ele>140.80000305176</ele>
        <time>2017-07-16T07:45:33Z</time>
      </trkpt>
      <trkpt lat="45.84256" lon="4.83172">
        <ele>140.60000610352</ele>
        <time>2017-07-16T07:45:40Z</time>
      </trkpt>
      <trkpt lat="45.84305" lon="4.83186">
        <ele>140.60000610352</ele>
        <time>2017-07-16T07:45:47Z</time>
      </trkpt>
      <trkpt lat="45.84362" lon="4.832">
        <ele>140.39999389648</ele>
        <time>2017-07-16T07:45:55Z</time>
      </trkpt>
      <trkpt lat="45.84369" lon="4.83202">
        <ele>140.39999389648</ele>
        <time>2017-07-16T07:45:56Z</time>
      </trkpt>
      <trkpt lat="45.84425" lon="4.83217">
        <ele>140.60000610352</ele>
        <time>2017-07-16T07:46:04Z</time>
      </trkpt>
      <trkpt lat="45.84482" lon="4.83231">
        <ele>140.60000610352</ele>
        <time>2017-07-16T07:46:12Z</time>
      </trkpt>
      <trkpt lat="45.84528" lon="4.83241">
        <ele>140.60000610352</ele>
        <time>2017-07-16T07:46:19Z</time>
      </trkpt>
      <trkpt lat="45.84548" lon="4.83244">
        <ele>140.80000305176</ele>
        <time>2017-07-16T07:46:22Z</time>
      </trkpt>
      <trkpt lat="45.84556" lon="4.83244">
        <ele>141</ele>
        <time>2017-07-16T07:46:23Z</time>
      </trkpt>
      <trkpt lat="45.84599" lon="4.83238">
        <ele>141</ele>
        <time>2017-07-16T07:46:29Z</time>
      </trkpt>
      <trkpt lat="45.8464" lon="4.8322">
        <ele>140.39999389648</ele>
        <time>2017-07-16T07:46:35Z</time>
      </trkpt>
      <trkpt lat="45.84681" lon="4.83198">
        <ele>139.80000305176</ele>
        <time>2017-07-16T07:46:41Z</time>
      </trkpt>
      <trkpt lat="45.84702" lon="4.83189">
        <ele>139.39999389648</ele>
        <time>2017-07-16T07:46:44Z</time>
      </trkpt>
      <trkpt lat="45.84723" lon="4.83184">
        <ele>139.19999694824</ele>
        <time>2017-07-16T07:46:47Z</time>
      </trkpt>
      <trkpt lat="45.84737" lon="4.83183">
        <ele>139</ele>
        <time>2017-07-16T07:46:49Z</time>
      </trkpt>
      <trkpt lat="45.84752" lon="4.83183">
        <ele>138.80000305176</ele>
        <time>2017-07-16T07:46:51Z</time>
      </trkpt>
      <trkpt lat="45.8478" lon="4.83189">
        <ele>138.60000610352</ele>
        <time>2017-07-16T07:46:55Z</time>
      </trkpt>
      <trkpt lat="45.84837" lon="4.83203">
        <ele>138.60000610352</ele>
        <time>2017-07-16T07:47:03Z</time>
      </trkpt>
      <trkpt lat="45.84851" lon="4.83206">
        <ele>138.60000610352</ele>
        <time>2017-07-16T07:47:05Z</time>
      </trkpt>
      <trkpt lat="45.84905" lon="4.83225">
        <ele>138.60000610352</ele>
        <time>2017-07-16T07:47:13Z</time>
      </trkpt>
      <trkpt lat="45.8495" lon="4.83247">
        <ele>138.60000610352</ele>
        <time>2017-07-16T07:47:20Z</time>
      </trkpt>
      <trkpt lat="45.85001" lon="4.83271">
        <ele>138.80000305176</ele>
        <time>2017-07-16T07:47:28Z</time>
      </trkpt>
      <trkpt lat="45.85054" lon="4.83293">
        <ele>139</ele>
        <time>2017-07-16T07:47:36Z</time>
      </trkpt>
      <trkpt lat="45.85107" lon="4.83317">
        <ele>139.39999389648</ele>
        <time>2017-07-16T07:47:44Z</time>
      </trkpt>
      <trkpt lat="45.85114" lon="4.83319">
        <ele>139.39999389648</ele>
        <time>2017-07-16T07:47:45Z</time>
      </trkpt>
      <trkpt lat="45.85161" lon="4.83337">
        <ele>139.80000305176</ele>
        <time>2017-07-16T07:47:52Z</time>
      </trkpt>
      <trkpt lat="45.85174" lon="4.83341">
        <ele>140</ele>
        <time>2017-07-16T07:47:54Z</time>
      </trkpt>
      <trkpt lat="45.85227" lon="4.83357">
        <ele>140.19999694824</ele>
        <time>2017-07-16T07:48:02Z</time>
      </trkpt>
      <trkpt lat="45.85234" lon="4.83359">
        <ele>140.19999694824</ele>
        <time>2017-07-16T07:48:03Z</time>
      </trkpt>
      <trkpt lat="45.8528" lon="4.83372">
        <ele>140</ele>
        <time>2017-07-16T07:48:10Z</time>
      </trkpt>
      <trkpt lat="45.85326" lon="4.83387">
        <ele>139.80000305176</ele>
        <time>2017-07-16T07:48:17Z</time>
      </trkpt>
      <trkpt lat="45.85377" lon="4.83404">
        <ele>139.80000305176</ele>
        <time>2017-07-16T07:48:25Z</time>
      </trkpt>
      <trkpt lat="45.8541" lon="4.83414">
        <ele>139.80000305176</ele>
        <time>2017-07-16T07:48:30Z</time>
      </trkpt>
      <trkpt lat="45.85449" lon="4.83426">
        <ele>140</ele>
        <time>2017-07-16T07:48:36Z</time>
      </trkpt>
      <trkpt lat="45.85505" lon="4.8344">
        <ele>140</ele>
        <time>2017-07-16T07:48:44Z</time>
      </trkpt>
      <trkpt lat="45.85561" lon="4.83457">
        <ele>140</ele>
        <time>2017-07-16T07:48:52Z</time>
      </trkpt>
      <trkpt lat="45.85575" lon="4.83462">
        <ele>140</ele>
        <time>2017-07-16T07:48:54Z</time>
      </trkpt>
      <trkpt lat="45.85623" lon="4.83478">
        <ele>139.80000305176</ele>
        <time>2017-07-16T07:49:01Z</time>
      </trkpt>
      <trkpt lat="45.85665" lon="4.83491">
        <ele>139.80000305176</ele>
        <time>2017-07-16T07:49:07Z</time>
      </trkpt>
      <trkpt lat="45.85694" lon="4.83498">
        <ele>140</ele>
        <time>2017-07-16T07:49:11Z</time>
      </trkpt>
      <trkpt lat="45.85709" lon="4.835">
        <ele>139.80000305176</ele>
        <time>2017-07-16T07:49:13Z</time>
      </trkpt>
      <trkpt lat="45.85768" lon="4.83508">
        <ele>139.19999694824</ele>
        <time>2017-07-16T07:49:21Z</time>
      </trkpt>
      <trkpt lat="45.8581" lon="4.83513">
        <ele>139.19999694824</ele>
        <time>2017-07-16T07:49:27Z</time>
      </trkpt>
      <trkpt lat="45.85851" lon="4.83519">
        <ele>139</ele>
        <time>2017-07-16T07:49:33Z</time>
      </trkpt>
      <trkpt lat="45.85896" lon="4.83521">
        <ele>138.80000305176</ele>
        <time>2017-07-16T07:49:40Z</time>
      </trkpt>
      <trkpt lat="45.85939" lon="4.83523">
        <ele>138.80000305176</ele>
        <time>2017-07-16T07:49:46Z</time>
      </trkpt>
      <trkpt lat="45.8596" lon="4.83521">
        <ele>138.80000305176</ele>
        <time>2017-07-16T07:49:49Z</time>
      </trkpt>
      <trkpt lat="45.8599" lon="4.83521">
        <ele>138.80000305176</ele>
        <time>2017-07-16T07:49:53Z</time>
      </trkpt>
      <trkpt lat="45.86043" lon="4.83522">
        <ele>138.80000305176</ele>
        <time>2017-07-16T07:50:00Z</time>
      </trkpt>
      <trkpt lat="45.86095" lon="4.83524">
        <ele>138.80000305176</ele>
        <time>2017-07-16T07:50:07Z</time>
      </trkpt>
      <trkpt lat="45.86154" lon="4.8353">
        <ele>138.60000610352</ele>
        <time>2017-07-16T07:50:15Z</time>
      </trkpt>
      <trkpt lat="45.86161" lon="4.83531">
        <ele>138.60000610352</ele>
        <time>2017-07-16T07:50:16Z</time>
      </trkpt>
      <trkpt lat="45.8622" lon="4.83536">
        <ele>138.60000610352</ele>
        <time>2017-07-16T07:50:24Z</time>
      </trkpt>
      <trkpt lat="45.86227" lon="4.83536">
        <ele>138.60000610352</ele>
        <time>2017-07-16T07:50:25Z</time>
      </trkpt>
      <trkpt lat="45.86284" lon="4.83537">
        <ele>138.60000610352</ele>
        <time>2017-07-16T07:50:33Z</time>
      </trkpt>
      <trkpt lat="45.86319" lon="4.83531">
        <ele>138.60000610352</ele>
        <time>2017-07-16T07:50:38Z</time>
      </trkpt>
      <trkpt lat="45.86332" lon="4.83525">
        <ele>138.60000610352</ele>
        <time>2017-07-16T07:50:40Z</time>
      </trkpt>
      <trkpt lat="45.86345" lon="4.83517">
        <ele>138.60000610352</ele>
        <time>2017-07-16T07:50:42Z</time>
      </trkpt>
      <trkpt lat="45.86359" lon="4.83511">
        <ele>138.39999389648</ele>
        <time>2017-07-16T07:50:44Z</time>
      </trkpt>
      <trkpt lat="45.86366" lon="4.8351">
        <ele>138.39999389648</ele>
        <time>2017-07-16T07:50:45Z</time>
      </trkpt>
      <trkpt lat="45.86391" lon="4.83498">
        <ele>138.39999389648</ele>
        <time>2017-07-16T07:50:49Z</time>
      </trkpt>
      <trkpt lat="45.86404" lon="4.83491">
        <ele>138.80000305176</ele>
        <time>2017-07-16T07:50:51Z</time>
      </trkpt>
      <trkpt lat="45.86418" lon="4.83488">
        <ele>138.80000305176</ele>
        <time>2017-07-16T07:50:53Z</time>
      </trkpt>
      <trkpt lat="45.86466" lon="4.83474">
        <ele>138.80000305176</ele>
        <time>2017-07-16T07:51:00Z</time>
      </trkpt>
      <trkpt lat="45.86524" lon="4.83452">
        <ele>138.60000610352</ele>
        <time>2017-07-16T07:51:09Z</time>
      </trkpt>
      <trkpt lat="45.86575" lon="4.83442">
        <ele>139.19999694824</ele>
        <time>2017-07-16T07:51:17Z</time>
      </trkpt>
      <trkpt lat="45.86614" lon="4.83439">
        <ele>139.60000610352</ele>
        <time>2017-07-16T07:51:23Z</time>
      </trkpt>
      <trkpt lat="45.86667" lon="4.83442">
        <ele>139.19999694824</ele>
        <time>2017-07-16T07:51:31Z</time>
      </trkpt>
      <trkpt lat="45.86722" lon="4.83447">
        <ele>139.39999389648</ele>
        <time>2017-07-16T07:51:39Z</time>
      </trkpt>
      <trkpt lat="45.86737" lon="4.83448">
        <ele>139.19999694824</ele>
        <time>2017-07-16T07:51:41Z</time>
      </trkpt>
      <trkpt lat="45.86787" lon="4.83452">
        <ele>139.19999694824</ele>
        <time>2017-07-16T07:51:48Z</time>
      </trkpt>
      <trkpt lat="45.86838" lon="4.83457">
        <ele>139</ele>
        <time>2017-07-16T07:51:55Z</time>
      </trkpt>
      <trkpt lat="45.86891" lon="4.83462">
        <ele>138.60000610352</ele>
        <time>2017-07-16T07:52:02Z</time>
      </trkpt>
      <trkpt lat="45.86948" lon="4.83467">
        <ele>138.60000610352</ele>
        <time>2017-07-16T07:52:10Z</time>
      </trkpt>
      <trkpt lat="45.86955" lon="4.83467">
        <ele>138.80000305176</ele>
        <time>2017-07-16T07:52:11Z</time>
      </trkpt>
      <trkpt lat="45.8697" lon="4.83467">
        <ele>138.80000305176</ele>
        <time>2017-07-16T07:52:13Z</time>
      </trkpt>
      <trkpt lat="45.86997" lon="4.83467">
        <ele>139.19999694824</ele>
        <time>2017-07-16T07:52:17Z</time>
      </trkpt>
      <trkpt lat="45.87045" lon="4.83469">
        <ele>139</ele>
        <time>2017-07-16T07:52:24Z</time>
      </trkpt>
      <trkpt lat="45.87103" lon="4.83468">
        <ele>139.39999389648</ele>
        <time>2017-07-16T07:52:32Z</time>
      </trkpt>
      <trkpt lat="45.8711" lon="4.83468">
        <ele>139.39999389648</ele>
        <time>2017-07-16T07:52:33Z</time>
      </trkpt>
      <trkpt lat="45.87154" lon="4.83474">
        <ele>139.19999694824</ele>
        <time>2017-07-16T07:52:39Z</time>
      </trkpt>
      <trkpt lat="45.87215" lon="4.83485">
        <ele>139</ele>
        <time>2017-07-16T07:52:47Z</time>
      </trkpt>
      <trkpt lat="45.87222" lon="4.83486">
        <ele>139</ele>
        <time>2017-07-16T07:52:48Z</time>
      </trkpt>
      <trkpt lat="45.87281" lon="4.83497">
        <ele>139.19999694824</ele>
        <time>2017-07-16T07:52:56Z</time>
      </trkpt>
      <trkpt lat="45.87288" lon="4.83498">
        <ele>139.19999694824</ele>
        <time>2017-07-16T07:52:57Z</time>
      </trkpt>
      <trkpt lat="45.87348" lon="4.83507">
        <ele>139.19999694824</ele>
        <time>2017-07-16T07:53:05Z</time>
      </trkpt>
      <trkpt lat="45.87355" lon="4.83508">
        <ele>139.19999694824</ele>
        <time>2017-07-16T07:53:06Z</time>
      </trkpt>
      <trkpt lat="45.8737" lon="4.83508">
        <ele>139</ele>
        <time>2017-07-16T07:53:08Z</time>
      </trkpt>
      <trkpt lat="45.87423" lon="4.83507">
        <ele>139.19999694824</ele>
        <time>2017-07-16T07:53:15Z</time>
      </trkpt>
      <trkpt lat="45.87467" lon="4.83507">
        <ele>139.19999694824</ele>
        <time>2017-07-16T07:53:21Z</time>
      </trkpt>
      <trkpt lat="45.87519" lon="4.83509">
        <ele>139.39999389648</ele>
        <time>2017-07-16T07:53:28Z</time>
      </trkpt>
      <trkpt lat="45.8757" lon="4.83526">
        <ele>139.60000610352</ele>
        <time>2017-07-16T07:53:35Z</time>
      </trkpt>
      <trkpt lat="45.87619" lon="4.83542">
        <ele>139.19999694824</ele>
        <time>2017-07-16T07:53:42Z</time>
      </trkpt>
      <trkpt lat="45.87656" lon="4.83549">
        <ele>139.60000610352</ele>
        <time>2017-07-16T07:53:48Z</time>
      </trkpt>
      <trkpt lat="45.87662" lon="4.8355">
        <ele>139.80000305176</ele>
        <time>2017-07-16T07:53:49Z</time>
      </trkpt>
      <trkpt lat="45.87672" lon="4.83554">
        <ele>140.39999389648</ele>
        <time>2017-07-16T07:53:51Z</time>
      </trkpt>
      <trkpt lat="45.87678" lon="4.83564">
        <ele>140.60000610352</ele>
        <time>2017-07-16T07:53:53Z</time>
      </trkpt>
      <trkpt lat="45.87679" lon="4.83572">
        <ele>141</ele>
        <time>2017-07-16T07:53:54Z</time>
      </trkpt>
      <trkpt lat="45.8768" lon="4.83586">
        <ele>141.39999389648</ele>
        <time>2017-07-16T07:53:56Z</time>
      </trkpt>
      <trkpt lat="45.8768" lon="4.836">
        <ele>142</ele>
        <time>2017-07-16T07:53:58Z</time>
      </trkpt>
      <trkpt lat="45.87682" lon="4.83634">
        <ele>142.80000305176</ele>
        <time>2017-07-16T07:54:03Z</time>
      </trkpt>
      <trkpt lat="45.87684" lon="4.83648">
        <ele>143</ele>
        <time>2017-07-16T07:54:05Z</time>
      </trkpt>
      <trkpt lat="45.87687" lon="4.83684">
        <ele>143.80000305176</ele>
        <time>2017-07-16T07:54:10Z</time>
      </trkpt>
      <trkpt lat="45.87689" lon="4.83697">
        <ele>144.19999694824</ele>
        <time>2017-07-16T07:54:12Z</time>
      </trkpt>
      <trkpt lat="45.87692" lon="4.83736">
        <ele>144.60000610352</ele>
        <time>2017-07-16T07:54:17Z</time>
      </trkpt>
      <trkpt lat="45.87697" lon="4.83798">
        <ele>143.60000610352</ele>
        <time>2017-07-16T07:54:24Z</time>
      </trkpt>
      <trkpt lat="45.87698" lon="4.83826">
        <ele>142.80000305176</ele>
        <time>2017-07-16T07:54:27Z</time>
      </trkpt>
      <trkpt lat="45.87698" lon="4.83844">
        <ele>142.39999389648</ele>
        <time>2017-07-16T07:54:29Z</time>
      </trkpt>
      <trkpt lat="45.87706" lon="4.83857">
        <ele>142</ele>
        <time>2017-07-16T07:54:31Z</time>
      </trkpt>
      <trkpt lat="45.87712" lon="4.83858">
        <ele>141.60000610352</ele>
        <time>2017-07-16T07:54:32Z</time>
      </trkpt>
      <trkpt lat="45.87717" lon="4.83857">
        <ele>141.39999389648</ele>
        <time>2017-07-16T07:54:33Z</time>
      </trkpt>
      <trkpt lat="45.87734" lon="4.83849">
        <ele>141</ele>
        <time>2017-07-16T07:54:36Z</time>
      </trkpt>
      <trkpt lat="45.87739" lon="4.83847">
        <ele>140.80000305176</ele>
        <time>2017-07-16T07:54:37Z</time>
      </trkpt>
      <trkpt lat="45.87763" lon="4.83836">
        <ele>140.80000305176</ele>
        <time>2017-07-16T07:54:41Z</time>
      </trkpt>
      <trkpt lat="45.87769" lon="4.83832">
        <ele>140.80000305176</ele>
        <time>2017-07-16T07:54:42Z</time>
      </trkpt>
      <trkpt lat="45.8778" lon="4.83822">
        <ele>140.60000610352</ele>
        <time>2017-07-16T07:54:44Z</time>
      </trkpt>
      <trkpt lat="45.87797" lon="4.83805">
        <ele>140.39999389648</ele>
        <time>2017-07-16T07:54:47Z</time>
      </trkpt>
      <trkpt lat="45.87835" lon="4.83767">
        <ele>140</ele>
        <time>2017-07-16T07:54:54Z</time>
      </trkpt>
      <trkpt lat="45.87882" lon="4.83721">
        <ele>140</ele>
        <time>2017-07-16T07:55:03Z</time>
      </trkpt>
      <trkpt lat="45.8791" lon="4.83693">
        <ele>139.60000610352</ele>
        <time>2017-07-16T07:55:09Z</time>
      </trkpt>
      <trkpt lat="45.8794" lon="4.83664">
        <ele>139.39999389648</ele>
        <time>2017-07-16T07:55:16Z</time>
      </trkpt>
      <trkpt lat="45.87959" lon="4.83646">
        <ele>139.39999389648</ele>
        <time>2017-07-16T07:55:20Z</time>
      </trkpt>
      <trkpt lat="45.87969" lon="4.83636">
        <ele>139.39999389648</ele>
        <time>2017-07-16T07:55:22Z</time>
      </trkpt>
      <trkpt lat="45.88005" lon="4.83601">
        <ele>139.39999389648</ele>
        <time>2017-07-16T07:55:29Z</time>
      </trkpt>
      <trkpt lat="45.88015" lon="4.8359">
        <ele>139.39999389648</ele>
        <time>2017-07-16T07:55:31Z</time>
      </trkpt>
      <trkpt lat="45.88031" lon="4.83576">
        <ele>139.39999389648</ele>
        <time>2017-07-16T07:55:34Z</time>
      </trkpt>
      <trkpt lat="45.88067" lon="4.83539">
        <ele>139.39999389648</ele>
        <time>2017-07-16T07:55:41Z</time>
      </trkpt>
      <trkpt lat="45.88109" lon="4.835">
        <ele>139.60000610352</ele>
        <time>2017-07-16T07:55:49Z</time>
      </trkpt>
      <trkpt lat="45.88148" lon="4.83471">
        <ele>139.60000610352</ele>
        <time>2017-07-16T07:55:56Z</time>
      </trkpt>
      <trkpt lat="45.88198" lon="4.8344">
        <ele>139.80000305176</ele>
        <time>2017-07-16T07:56:05Z</time>
      </trkpt>
      <trkpt lat="45.8825" lon="4.83418">
        <ele>140</ele>
        <time>2017-07-16T07:56:14Z</time>
      </trkpt>
      <trkpt lat="45.88256" lon="4.83416">
        <ele>140</ele>
        <time>2017-07-16T07:56:15Z</time>
      </trkpt>
      <trkpt lat="45.88304" lon="4.83397">
        <ele>139.60000610352</ele>
        <time>2017-07-16T07:56:24Z</time>
      </trkpt>
      <trkpt lat="45.88347" lon="4.83381">
        <ele>139.80000305176</ele>
        <time>2017-07-16T07:56:31Z</time>
      </trkpt>
      <trkpt lat="45.88388" lon="4.83366">
        <ele>140</ele>
        <time>2017-07-16T07:56:38Z</time>
      </trkpt>
      <trkpt lat="45.88433" lon="4.83344">
        <ele>140.39999389648</ele>
        <time>2017-07-16T07:56:46Z</time>
      </trkpt>
      <trkpt lat="45.88483" lon="4.83316">
        <ele>140</ele>
        <time>2017-07-16T07:56:55Z</time>
      </trkpt>
      <trkpt lat="45.88527" lon="4.83291">
        <ele>140.19999694824</ele>
        <time>2017-07-16T07:57:03Z</time>
      </trkpt>
      <trkpt lat="45.88551" lon="4.83269">
        <ele>140.39999389648</ele>
        <time>2017-07-16T07:57:08Z</time>
      </trkpt>
      <trkpt lat="45.88556" lon="4.83264">
        <ele>140.39999389648</ele>
        <time>2017-07-16T07:57:09Z</time>
      </trkpt>
      <trkpt lat="45.88599" lon="4.83208">
        <ele>140.39999389648</ele>
        <time>2017-07-16T07:57:18Z</time>
      </trkpt>
      <trkpt lat="45.88634" lon="4.83166">
        <ele>140.60000610352</ele>
        <time>2017-07-16T07:57:25Z</time>
      </trkpt>
      <trkpt lat="45.88643" lon="4.83154">
        <ele>140.60000610352</ele>
        <time>2017-07-16T07:57:27Z</time>
      </trkpt>
      <trkpt lat="45.88686" lon="4.83103">
        <ele>141.39999389648</ele>
        <time>2017-07-16T07:57:36Z</time>
      </trkpt>
      <trkpt lat="45.88716" lon="4.83065">
        <ele>141.39999389648</ele>
        <time>2017-07-16T07:57:43Z</time>
      </trkpt>
      <trkpt lat="45.88755" lon="4.83019">
        <ele>141.39999389648</ele>
        <time>2017-07-16T07:57:52Z</time>
      </trkpt>
      <trkpt lat="45.88779" lon="4.82989">
        <ele>141.60000610352</ele>
        <time>2017-07-16T07:57:58Z</time>
      </trkpt>
      <trkpt lat="45.88788" lon="4.82978">
        <ele>141.60000610352</ele>
        <time>2017-07-16T07:58:00Z</time>
      </trkpt>
      <trkpt lat="45.88822" lon="4.82934">
        <ele>141.80000305176</ele>
        <time>2017-07-16T07:58:08Z</time>
      </trkpt>
      <trkpt lat="45.88864" lon="4.82883">
        <ele>141.80000305176</ele>
        <time>2017-07-16T07:58:17Z</time>
      </trkpt>
      <trkpt lat="45.88906" lon="4.82834">
        <ele>141.60000610352</ele>
        <time>2017-07-16T07:58:26Z</time>
      </trkpt>
      <trkpt lat="45.88911" lon="4.82829">
        <ele>141.60000610352</ele>
        <time>2017-07-16T07:58:27Z</time>
      </trkpt>
      <trkpt lat="45.88953" lon="4.82779">
        <ele>141.80000305176</ele>
        <time>2017-07-16T07:58:36Z</time>
      </trkpt>
      <trkpt lat="45.88957" lon="4.82773">
        <ele>141.80000305176</ele>
        <time>2017-07-16T07:58:37Z</time>
      </trkpt>
      <trkpt lat="45.88989" lon="4.82736">
        <ele>142</ele>
        <time>2017-07-16T07:58:44Z</time>
      </trkpt>
      <trkpt lat="45.8902" lon="4.82694">
        <ele>142</ele>
        <time>2017-07-16T07:58:51Z</time>
      </trkpt>
      <trkpt lat="45.89058" lon="4.82651">
        <ele>142</ele>
        <time>2017-07-16T07:58:59Z</time>
      </trkpt>
      <trkpt lat="45.89089" lon="4.82612">
        <ele>142</ele>
        <time>2017-07-16T07:59:06Z</time>
      </trkpt>
      <trkpt lat="45.89094" lon="4.82608">
        <ele>142</ele>
        <time>2017-07-16T07:59:07Z</time>
      </trkpt>
      <trkpt lat="45.89105" lon="4.82605">
        <ele>142.19999694824</ele>
        <time>2017-07-16T07:59:09Z</time>
      </trkpt>
      <trkpt lat="45.89116" lon="4.82602">
        <ele>142.19999694824</ele>
        <time>2017-07-16T07:59:11Z</time>
      </trkpt>
      <trkpt lat="45.89125" lon="4.82593">
        <ele>142.39999389648</ele>
        <time>2017-07-16T07:59:13Z</time>
      </trkpt>
      <trkpt lat="45.89139" lon="4.82566">
        <ele>142.39999389648</ele>
        <time>2017-07-16T07:59:17Z</time>
      </trkpt>
      <trkpt lat="45.89147" lon="4.82552">
        <ele>142.19999694824</ele>
        <time>2017-07-16T07:59:19Z</time>
      </trkpt>
      <trkpt lat="45.89161" lon="4.82534">
        <ele>142.19999694824</ele>
        <time>2017-07-16T07:59:22Z</time>
      </trkpt>
      <trkpt lat="45.89177" lon="4.82518">
        <ele>142</ele>
        <time>2017-07-16T07:59:25Z</time>
      </trkpt>
      <trkpt lat="45.89193" lon="4.82503">
        <ele>142</ele>
        <time>2017-07-16T07:59:28Z</time>
      </trkpt>
      <trkpt lat="45.89233" lon="4.82457">
        <ele>142</ele>
        <time>2017-07-16T07:59:36Z</time>
      </trkpt>
      <trkpt lat="45.89276" lon="4.82407">
        <ele>141.60000610352</ele>
        <time>2017-07-16T07:59:45Z</time>
      </trkpt>
      <trkpt lat="45.89281" lon="4.82401">
        <ele>141.60000610352</ele>
        <time>2017-07-16T07:59:46Z</time>
      </trkpt>
      <trkpt lat="45.89313" lon="4.82362">
        <ele>141.60000610352</ele>
        <time>2017-07-16T07:59:53Z</time>
      </trkpt>
      <trkpt lat="45.89353" lon="4.82313">
        <ele>141.80000305176</ele>
        <time>2017-07-16T08:00:02Z</time>
      </trkpt>
      <trkpt lat="45.89391" lon="4.82266">
        <ele>141.60000610352</ele>
        <time>2017-07-16T08:00:11Z</time>
      </trkpt>
      <trkpt lat="45.89435" lon="4.8221">
        <ele>141.60000610352</ele>
        <time>2017-07-16T08:00:21Z</time>
      </trkpt>
      <trkpt lat="45.89454" lon="4.8219">
        <ele>141.60000610352</ele>
        <time>2017-07-16T08:00:25Z</time>
      </trkpt>
      <trkpt lat="45.89469" lon="4.82177">
        <ele>141.60000610352</ele>
        <time>2017-07-16T08:00:28Z</time>
      </trkpt>
      <trkpt lat="45.89518" lon="4.82138">
        <ele>141.80000305176</ele>
        <time>2017-07-16T08:00:38Z</time>
      </trkpt>
      <trkpt lat="45.89523" lon="4.82135">
        <ele>142</ele>
        <time>2017-07-16T08:00:39Z</time>
      </trkpt>
      <trkpt lat="45.89543" lon="4.82127">
        <ele>142</ele>
        <time>2017-07-16T08:00:43Z</time>
      </trkpt>
      <trkpt lat="45.89548" lon="4.82122">
        <ele>142.19999694824</ele>
        <time>2017-07-16T08:00:44Z</time>
      </trkpt>
      <trkpt lat="45.8956" lon="4.82095">
        <ele>142.60000610352</ele>
        <time>2017-07-16T08:00:48Z</time>
      </trkpt>
      <trkpt lat="45.89564" lon="4.82088">
        <ele>142.60000610352</ele>
        <time>2017-07-16T08:00:49Z</time>
      </trkpt>
      <trkpt lat="45.89578" lon="4.82071">
        <ele>142.60000610352</ele>
        <time>2017-07-16T08:00:52Z</time>
      </trkpt>
      <trkpt lat="45.89613" lon="4.82039">
        <ele>142.39999389648</ele>
        <time>2017-07-16T08:00:59Z</time>
      </trkpt>
      <trkpt lat="45.89652" lon="4.82">
        <ele>142.80000305176</ele>
        <time>2017-07-16T08:01:07Z</time>
      </trkpt>
      <trkpt lat="45.89658" lon="4.81996">
        <ele>142.80000305176</ele>
        <time>2017-07-16T08:01:08Z</time>
      </trkpt>
      <trkpt lat="45.89663" lon="4.81993">
        <ele>143</ele>
        <time>2017-07-16T08:01:09Z</time>
      </trkpt>
      <trkpt lat="45.89684" lon="4.81975">
        <ele>143</ele>
        <time>2017-07-16T08:01:13Z</time>
      </trkpt>
      <trkpt lat="45.89722" lon="4.81942">
        <ele>143.39999389648</ele>
        <time>2017-07-16T08:01:21Z</time>
      </trkpt>
      <trkpt lat="45.89749" lon="4.8192">
        <ele>143.80000305176</ele>
        <time>2017-07-16T08:01:27Z</time>
      </trkpt>
      <trkpt lat="45.89762" lon="4.8191">
        <ele>144</ele>
        <time>2017-07-16T08:01:30Z</time>
      </trkpt>
      <trkpt lat="45.89795" lon="4.81885">
        <ele>144.60000610352</ele>
        <time>2017-07-16T08:01:37Z</time>
      </trkpt>
      <trkpt lat="45.89822" lon="4.8186">
        <ele>144.80000305176</ele>
        <time>2017-07-16T08:01:43Z</time>
      </trkpt>
      <trkpt lat="45.89835" lon="4.81847">
        <ele>145.19999694824</ele>
        <time>2017-07-16T08:01:46Z</time>
      </trkpt>
      <trkpt lat="45.89869" lon="4.81807">
        <ele>145.60000610352</ele>
        <time>2017-07-16T08:01:54Z</time>
      </trkpt>
      <trkpt lat="45.8989" lon="4.81783">
        <ele>145.80000305176</ele>
        <time>2017-07-16T08:01:59Z</time>
      </trkpt>
      <trkpt lat="45.89903" lon="4.81771">
        <ele>146</ele>
        <time>2017-07-16T08:02:02Z</time>
      </trkpt>
      <trkpt lat="45.89912" lon="4.81766">
        <ele>146</ele>
        <time>2017-07-16T08:02:04Z</time>
      </trkpt>
      <trkpt lat="45.89922" lon="4.81766">
        <ele>146.19999694824</ele>
        <time>2017-07-16T08:02:06Z</time>
      </trkpt>
      <trkpt lat="45.89943" lon="4.81767">
        <ele>146.60000610352</ele>
        <time>2017-07-16T08:02:10Z</time>
      </trkpt>
      <trkpt lat="45.89954" lon="4.81751">
        <ele>146.80000305176</ele>
        <time>2017-07-16T08:02:13Z</time>
      </trkpt>
      <trkpt lat="45.89956" lon="4.81744">
        <ele>147</ele>
        <time>2017-07-16T08:02:14Z</time>
      </trkpt>
      <trkpt lat="45.89959" lon="4.81737">
        <ele>147</ele>
        <time>2017-07-16T08:02:15Z</time>
      </trkpt>
      <trkpt lat="45.89965" lon="4.81724">
        <ele>147</ele>
        <time>2017-07-16T08:02:17Z</time>
      </trkpt>
      <trkpt lat="45.8997" lon="4.81719">
        <ele>147</ele>
        <time>2017-07-16T08:02:18Z</time>
      </trkpt>
      <trkpt lat="45.89996" lon="4.817">
        <ele>147</ele>
        <time>2017-07-16T08:02:23Z</time>
      </trkpt>
      <trkpt lat="45.90037" lon="4.81678">
        <ele>147.19999694824</ele>
        <time>2017-07-16T08:02:31Z</time>
      </trkpt>
      <trkpt lat="45.90042" lon="4.81676">
        <ele>147.19999694824</ele>
        <time>2017-07-16T08:02:32Z</time>
      </trkpt>
      <trkpt lat="45.9009" lon="4.81659">
        <ele>148</ele>
        <time>2017-07-16T08:02:41Z</time>
      </trkpt>
      <trkpt lat="45.90106" lon="4.81654">
        <ele>148.39999389648</ele>
        <time>2017-07-16T08:02:44Z</time>
      </trkpt>
      <trkpt lat="45.90122" lon="4.81652">
        <ele>148.60000610352</ele>
        <time>2017-07-16T08:02:47Z</time>
      </trkpt>
      <trkpt lat="45.90154" lon="4.81648">
        <ele>149</ele>
        <time>2017-07-16T08:02:53Z</time>
      </trkpt>
      <trkpt lat="45.90165" lon="4.81647">
        <ele>149.19999694824</ele>
        <time>2017-07-16T08:02:55Z</time>
      </trkpt>
      <trkpt lat="45.90203" lon="4.81643">
        <ele>149.19999694824</ele>
        <time>2017-07-16T08:03:02Z</time>
      </trkpt>
      <trkpt lat="45.90219" lon="4.81641">
        <ele>149.19999694824</ele>
        <time>2017-07-16T08:03:05Z</time>
      </trkpt>
      <trkpt lat="45.90237" lon="4.81639">
        <ele>149.60000610352</ele>
        <time>2017-07-16T08:03:08Z</time>
      </trkpt>
      <trkpt lat="45.90253" lon="4.81638">
        <ele>149.60000610352</ele>
        <time>2017-07-16T08:03:11Z</time>
      </trkpt>
      <trkpt lat="45.90266" lon="4.81644">
        <ele>149.80000305176</ele>
        <time>2017-07-16T08:03:14Z</time>
      </trkpt>
      <trkpt lat="45.90274" lon="4.81654">
        <ele>150</ele>
        <time>2017-07-16T08:03:16Z</time>
      </trkpt>
      <trkpt lat="45.90278" lon="4.81659">
        <ele>150.19999694824</ele>
        <time>2017-07-16T08:03:17Z</time>
      </trkpt>
      <trkpt lat="45.90283" lon="4.81662">
        <ele>150.19999694824</ele>
        <time>2017-07-16T08:03:18Z</time>
      </trkpt>
      <trkpt lat="45.90298" lon="4.81655">
        <ele>150.39999389648</ele>
        <time>2017-07-16T08:03:21Z</time>
      </trkpt>
      <trkpt lat="45.90306" lon="4.81643">
        <ele>150.39999389648</ele>
        <time>2017-07-16T08:03:23Z</time>
      </trkpt>
      <trkpt lat="45.90314" lon="4.81634">
        <ele>150.39999389648</ele>
        <time>2017-07-16T08:03:25Z</time>
      </trkpt>
      <trkpt lat="45.9032" lon="4.81631">
        <ele>150.60000610352</ele>
        <time>2017-07-16T08:03:26Z</time>
      </trkpt>
      <trkpt lat="45.90341" lon="4.81625">
        <ele>150.60000610352</ele>
        <time>2017-07-16T08:03:30Z</time>
      </trkpt>
      <trkpt lat="45.90391" lon="4.8161">
        <ele>150.80000305176</ele>
        <time>2017-07-16T08:03:39Z</time>
      </trkpt>
      <trkpt lat="45.90428" lon="4.81605">
        <ele>151</ele>
        <time>2017-07-16T08:03:46Z</time>
      </trkpt>
      <trkpt lat="45.90464" lon="4.81604">
        <ele>151</ele>
        <time>2017-07-16T08:03:53Z</time>
      </trkpt>
      <trkpt lat="45.90468" lon="4.81603">
        <ele>151.19999694824</ele>
        <time>2017-07-16T08:03:54Z</time>
      </trkpt>
      <trkpt lat="45.90479" lon="4.81603">
        <ele>151.39999389648</ele>
        <time>2017-07-16T08:03:56Z</time>
      </trkpt>
      <trkpt lat="45.90494" lon="4.81602">
        <ele>151.80000305176</ele>
        <time>2017-07-16T08:03:59Z</time>
      </trkpt>
      <trkpt lat="45.90525" lon="4.81599">
        <ele>152</ele>
        <time>2017-07-16T08:04:05Z</time>
      </trkpt>
      <trkpt lat="45.9053" lon="4.81598">
        <ele>152.19999694824</ele>
        <time>2017-07-16T08:04:06Z</time>
      </trkpt>
      <trkpt lat="45.90573" lon="4.81594">
        <ele>152.60000610352</ele>
        <time>2017-07-16T08:04:14Z</time>
      </trkpt>
      <trkpt lat="45.90619" lon="4.81591">
        <ele>152</ele>
        <time>2017-07-16T08:04:21Z</time>
      </trkpt>
      <trkpt lat="45.90649" lon="4.8159">
        <ele>151</ele>
        <time>2017-07-16T08:04:25Z</time>
      </trkpt>
      <trkpt lat="45.90673" lon="4.81589">
        <ele>150.19999694824</ele>
        <time>2017-07-16T08:04:28Z</time>
      </trkpt>
      <trkpt lat="45.90682" lon="4.81589">
        <ele>150</ele>
        <time>2017-07-16T08:04:29Z</time>
      </trkpt>
      <trkpt lat="45.90708" lon="4.81587">
        <ele>148.80000305176</ele>
        <time>2017-07-16T08:04:32Z</time>
      </trkpt>
      <trkpt lat="45.90727" lon="4.81587">
        <ele>148.19999694824</ele>
        <time>2017-07-16T08:04:34Z</time>
      </trkpt>
      <trkpt lat="45.90736" lon="4.81586">
        <ele>147.80000305176</ele>
        <time>2017-07-16T08:04:35Z</time>
      </trkpt>
      <trkpt lat="45.90765" lon="4.81585">
        <ele>146.39999389648</ele>
        <time>2017-07-16T08:04:38Z</time>
      </trkpt>
      <trkpt lat="45.90794" lon="4.81586">
        <ele>145</ele>
        <time>2017-07-16T08:04:41Z</time>
      </trkpt>
      <trkpt lat="45.90804" lon="4.81586">
        <ele>144.60000610352</ele>
        <time>2017-07-16T08:04:42Z</time>
      </trkpt>
      <trkpt lat="45.90823" lon="4.81585">
        <ele>143.39999389648</ele>
        <time>2017-07-16T08:04:44Z</time>
      </trkpt>
      <trkpt lat="45.90859" lon="4.81584">
        <ele>142.39999389648</ele>
        <time>2017-07-16T08:04:48Z</time>
      </trkpt>
      <trkpt lat="45.90867" lon="4.81584">
        <ele>142.19999694824</ele>
        <time>2017-07-16T08:04:49Z</time>
      </trkpt>
      <trkpt lat="45.909" lon="4.81584">
        <ele>141.39999389648</ele>
        <time>2017-07-16T08:04:53Z</time>
      </trkpt>
      <trkpt lat="45.90914" lon="4.81586">
        <ele>141.39999389648</ele>
        <time>2017-07-16T08:04:55Z</time>
      </trkpt>
      <trkpt lat="45.90964" lon="4.81594">
        <ele>141.19999694824</ele>
        <time>2017-07-16T08:05:02Z</time>
      </trkpt>
      <trkpt lat="45.91017" lon="4.81604">
        <ele>141.19999694824</ele>
        <time>2017-07-16T08:05:10Z</time>
      </trkpt>
      <trkpt lat="45.91069" lon="4.81611">
        <ele>141.19999694824</ele>
        <time>2017-07-16T08:05:18Z</time>
      </trkpt>
      <trkpt lat="45.91127" lon="4.81613">
        <ele>140.80000305176</ele>
        <time>2017-07-16T08:05:27Z</time>
      </trkpt>
      <trkpt lat="45.91171" lon="4.81614">
        <ele>141.19999694824</ele>
        <time>2017-07-16T08:05:34Z</time>
      </trkpt>
      <trkpt lat="45.91226" lon="4.81614">
        <ele>141</ele>
        <time>2017-07-16T08:05:43Z</time>
      </trkpt>
      <trkpt lat="45.91232" lon="4.81615">
        <ele>141</ele>
        <time>2017-07-16T08:05:44Z</time>
      </trkpt>
      <trkpt lat="45.91273" lon="4.81614">
        <ele>141.19999694824</ele>
        <time>2017-07-16T08:05:51Z</time>
      </trkpt>
      <trkpt lat="45.91326" lon="4.81614">
        <ele>141</ele>
        <time>2017-07-16T08:06:00Z</time>
      </trkpt>
      <trkpt lat="45.91384" lon="4.81613">
        <ele>141.19999694824</ele>
        <time>2017-07-16T08:06:10Z</time>
      </trkpt>
      <trkpt lat="45.9139" lon="4.81612">
        <ele>141.19999694824</ele>
        <time>2017-07-16T08:06:11Z</time>
      </trkpt>
      <trkpt lat="45.9144" lon="4.81609">
        <ele>141</ele>
        <time>2017-07-16T08:06:20Z</time>
      </trkpt>
      <trkpt lat="45.91494" lon="4.81602">
        <ele>141.80000305176</ele>
        <time>2017-07-16T08:06:30Z</time>
      </trkpt>
      <trkpt lat="45.91499" lon="4.81602">
        <ele>141.80000305176</ele>
        <time>2017-07-16T08:06:31Z</time>
      </trkpt>
      <trkpt lat="45.91546" lon="4.81594">
        <ele>141.80000305176</ele>
        <time>2017-07-16T08:06:40Z</time>
      </trkpt>
      <trkpt lat="45.91587" lon="4.81586">
        <ele>141.39999389648</ele>
        <time>2017-07-16T08:06:48Z</time>
      </trkpt>
      <trkpt lat="45.91593" lon="4.81586">
        <ele>141.39999389648</ele>
        <time>2017-07-16T08:06:49Z</time>
      </trkpt>
      <trkpt lat="45.9164" lon="4.81576">
        <ele>141.19999694824</ele>
        <time>2017-07-16T08:06:58Z</time>
      </trkpt>
      <trkpt lat="45.91694" lon="4.81564">
        <ele>141.19999694824</ele>
        <time>2017-07-16T08:07:08Z</time>
      </trkpt>
      <trkpt lat="45.91739" lon="4.81551">
        <ele>141.39999389648</ele>
        <time>2017-07-16T08:07:16Z</time>
      </trkpt>
      <trkpt lat="45.9178" lon="4.81537">
        <ele>141.39999389648</ele>
        <time>2017-07-16T08:07:23Z</time>
      </trkpt>
      <trkpt lat="45.91835" lon="4.81517">
        <ele>141.19999694824</ele>
        <time>2017-07-16T08:07:32Z</time>
      </trkpt>
      <trkpt lat="45.91891" lon="4.81497">
        <ele>141.39999389648</ele>
        <time>2017-07-16T08:07:41Z</time>
      </trkpt>
      <trkpt lat="45.91937" lon="4.8148">
        <ele>141.39999389648</ele>
        <time>2017-07-16T08:07:49Z</time>
      </trkpt>
      <trkpt lat="45.91995" lon="4.81457">
        <ele>141.39999389648</ele>
        <time>2017-07-16T08:07:59Z</time>
      </trkpt>
      <trkpt lat="45.92036" lon="4.81436">
        <ele>141.60000610352</ele>
        <time>2017-07-16T08:08:06Z</time>
      </trkpt>
      <trkpt lat="45.92088" lon="4.81405">
        <ele>141.39999389648</ele>
        <time>2017-07-16T08:08:15Z</time>
      </trkpt>
      <trkpt lat="45.9213" lon="4.81388">
        <ele>141.19999694824</ele>
        <time>2017-07-16T08:08:22Z</time>
      </trkpt>
      <trkpt lat="45.92159" lon="4.81388">
        <ele>141.19999694824</ele>
        <time>2017-07-16T08:08:27Z</time>
      </trkpt>
      <trkpt lat="45.92165" lon="4.81391">
        <ele>141.19999694824</ele>
        <time>2017-07-16T08:08:28Z</time>
      </trkpt>
      <trkpt lat="45.9218" lon="4.814">
        <ele>141.39999389648</ele>
        <time>2017-07-16T08:08:31Z</time>
      </trkpt>
      <trkpt lat="45.92194" lon="4.81391">
        <ele>141.60000610352</ele>
        <time>2017-07-16T08:08:34Z</time>
      </trkpt>
      <trkpt lat="45.92202" lon="4.8137">
        <ele>141.80000305176</ele>
        <time>2017-07-16T08:08:37Z</time>
      </trkpt>
      <trkpt lat="45.92205" lon="4.81362">
        <ele>141.80000305176</ele>
        <time>2017-07-16T08:08:38Z</time>
      </trkpt>
      <trkpt lat="45.92208" lon="4.81355">
        <ele>141.80000305176</ele>
        <time>2017-07-16T08:08:39Z</time>
      </trkpt>
      <trkpt lat="45.92216" lon="4.81343">
        <ele>141.60000610352</ele>
        <time>2017-07-16T08:08:41Z</time>
      </trkpt>
      <trkpt lat="45.92252" lon="4.81306">
        <ele>141.19999694824</ele>
        <time>2017-07-16T08:08:48Z</time>
      </trkpt>
      <trkpt lat="45.9229" lon="4.81281">
        <ele>141.19999694824</ele>
        <time>2017-07-16T08:08:55Z</time>
      </trkpt>
      <trkpt lat="45.92338" lon="4.81249">
        <ele>141.39999389648</ele>
        <time>2017-07-16T08:09:04Z</time>
      </trkpt>
      <trkpt lat="45.92376" lon="4.81225">
        <ele>141.39999389648</ele>
        <time>2017-07-16T08:09:11Z</time>
      </trkpt>
      <trkpt lat="45.92417" lon="4.81203">
        <ele>142</ele>
        <time>2017-07-16T08:09:19Z</time>
      </trkpt>
      <trkpt lat="45.92455" lon="4.81196">
        <ele>141.60000610352</ele>
        <time>2017-07-16T08:09:26Z</time>
      </trkpt>
      <trkpt lat="45.92494" lon="4.81194">
        <ele>141.60000610352</ele>
        <time>2017-07-16T08:09:33Z</time>
      </trkpt>
      <trkpt lat="45.92545" lon="4.81192">
        <ele>141</ele>
        <time>2017-07-16T08:09:42Z</time>
      </trkpt>
      <trkpt lat="45.92583" lon="4.81189">
        <ele>141.19999694824</ele>
        <time>2017-07-16T08:09:49Z</time>
      </trkpt>
      <trkpt lat="45.92588" lon="4.81189">
        <ele>141.39999389648</ele>
        <time>2017-07-16T08:09:50Z</time>
      </trkpt>
      <trkpt lat="45.92634" lon="4.81185">
        <ele>141.80000305176</ele>
        <time>2017-07-16T08:09:59Z</time>
      </trkpt>
      <trkpt lat="45.92675" lon="4.81179">
        <ele>142</ele>
        <time>2017-07-16T08:10:07Z</time>
      </trkpt>
      <trkpt lat="45.9271" lon="4.81172">
        <ele>142.39999389648</ele>
        <time>2017-07-16T08:10:14Z</time>
      </trkpt>
      <trkpt lat="45.92725" lon="4.8117">
        <ele>142.60000610352</ele>
        <time>2017-07-16T08:10:17Z</time>
      </trkpt>
      <trkpt lat="45.92745" lon="4.8117">
        <ele>142.60000610352</ele>
        <time>2017-07-16T08:10:21Z</time>
      </trkpt>
      <trkpt lat="45.92754" lon="4.81178">
        <ele>142.39999389648</ele>
        <time>2017-07-16T08:10:23Z</time>
      </trkpt>
      <trkpt lat="45.92774" lon="4.8118">
        <ele>142.39999389648</ele>
        <time>2017-07-16T08:10:27Z</time>
      </trkpt>
      <trkpt lat="45.92782" lon="4.8116">
        <ele>142.80000305176</ele>
        <time>2017-07-16T08:10:30Z</time>
      </trkpt>
      <trkpt lat="45.92785" lon="4.81145">
        <ele>142.80000305176</ele>
        <time>2017-07-16T08:10:32Z</time>
      </trkpt>
      <trkpt lat="45.92787" lon="4.81137">
        <ele>142.80000305176</ele>
        <time>2017-07-16T08:10:33Z</time>
      </trkpt>
      <trkpt lat="45.9279" lon="4.81131">
        <ele>142.60000610352</ele>
        <time>2017-07-16T08:10:34Z</time>
      </trkpt>
      <trkpt lat="45.92814" lon="4.81091">
        <ele>142.19999694824</ele>
        <time>2017-07-16T08:10:40Z</time>
      </trkpt>
      <trkpt lat="45.9285" lon="4.81026">
        <ele>141.80000305176</ele>
        <time>2017-07-16T08:10:49Z</time>
      </trkpt>
      <trkpt lat="45.92869" lon="4.80977">
        <ele>142</ele>
        <time>2017-07-16T08:10:55Z</time>
      </trkpt>
      <trkpt lat="45.92891" lon="4.80915">
        <ele>142</ele>
        <time>2017-07-16T08:11:03Z</time>
      </trkpt>
      <trkpt lat="45.92908" lon="4.80863">
        <ele>142.19999694824</ele>
        <time>2017-07-16T08:11:10Z</time>
      </trkpt>
      <trkpt lat="45.92933" lon="4.80788">
        <ele>142.39999389648</ele>
        <time>2017-07-16T08:11:20Z</time>
      </trkpt>
      <trkpt lat="45.92956" lon="4.80717">
        <ele>142.39999389648</ele>
        <time>2017-07-16T08:11:29Z</time>
      </trkpt>
      <trkpt lat="45.9298" lon="4.80645">
        <ele>142.19999694824</ele>
        <time>2017-07-16T08:11:38Z</time>
      </trkpt>
      <trkpt lat="45.92985" lon="4.80629">
        <ele>142.19999694824</ele>
        <time>2017-07-16T08:11:40Z</time>
      </trkpt>
      <trkpt lat="45.93008" lon="4.80558">
        <ele>142.60000610352</ele>
        <time>2017-07-16T08:11:49Z</time>
      </trkpt>
      <trkpt lat="45.93033" lon="4.80486">
        <ele>142.39999389648</ele>
        <time>2017-07-16T08:11:58Z</time>
      </trkpt>
      <trkpt lat="45.93058" lon="4.80412">
        <ele>142.60000610352</ele>
        <time>2017-07-16T08:12:07Z</time>
      </trkpt>
      <trkpt lat="45.93061" lon="4.80404">
        <ele>142.39999389648</ele>
        <time>2017-07-16T08:12:08Z</time>
      </trkpt>
      <trkpt lat="45.93084" lon="4.80333">
        <ele>141.80000305176</ele>
        <time>2017-07-16T08:12:16Z</time>
      </trkpt>
      <trkpt lat="45.9311" lon="4.80257">
        <ele>141.39999389648</ele>
        <time>2017-07-16T08:12:25Z</time>
      </trkpt>
      <trkpt lat="45.93112" lon="4.8025">
        <ele>141.39999389648</ele>
        <time>2017-07-16T08:12:26Z</time>
      </trkpt>
      <trkpt lat="45.93135" lon="4.80181">
        <ele>141.19999694824</ele>
        <time>2017-07-16T08:12:35Z</time>
      </trkpt>
      <trkpt lat="45.93158" lon="4.8011">
        <ele>141.19999694824</ele>
        <time>2017-07-16T08:12:44Z</time>
      </trkpt>
      <trkpt lat="45.93175" lon="4.80076">
        <ele>141.39999389648</ele>
        <time>2017-07-16T08:12:49Z</time>
      </trkpt>
      <trkpt lat="45.93181" lon="4.80075">
        <ele>141.39999389648</ele>
        <time>2017-07-16T08:12:50Z</time>
      </trkpt>
      <trkpt lat="45.93201" lon="4.8006">
        <ele>141.39999389648</ele>
        <time>2017-07-16T08:12:54Z</time>
      </trkpt>
      <trkpt lat="45.93202" lon="4.80036">
        <ele>141.60000610352</ele>
        <time>2017-07-16T08:12:57Z</time>
      </trkpt>
      <trkpt lat="45.93192" lon="4.80016">
        <ele>141.60000610352</ele>
        <time>2017-07-16T08:13:00Z</time>
      </trkpt>
      <trkpt lat="45.93186" lon="4.80001">
        <ele>141.60000610352</ele>
        <time>2017-07-16T08:13:02Z</time>
      </trkpt>
      <trkpt lat="45.93186" lon="4.79983">
        <ele>141.39999389648</ele>
        <time>2017-07-16T08:13:04Z</time>
      </trkpt>
      <trkpt lat="45.93191" lon="4.79959">
        <ele>141.39999389648</ele>
        <time>2017-07-16T08:13:07Z</time>
      </trkpt>
      <trkpt lat="45.93194" lon="4.79951">
        <ele>141.60000610352</ele>
        <time>2017-07-16T08:13:08Z</time>
      </trkpt>
      <trkpt lat="45.93216" lon="4.79905">
        <ele>141.80000305176</ele>
        <time>2017-07-16T08:13:15Z</time>
      </trkpt>
      <trkpt lat="45.93244" lon="4.79843">
        <ele>142.19999694824</ele>
        <time>2017-07-16T08:13:24Z</time>
      </trkpt>
      <trkpt lat="45.93258" lon="4.79798">
        <ele>142.39999389648</ele>
        <time>2017-07-16T08:13:30Z</time>
      </trkpt>
      <trkpt lat="45.93261" lon="4.79791">
        <ele>142.60000610352</ele>
        <time>2017-07-16T08:13:31Z</time>
      </trkpt>
      <trkpt lat="45.93272" lon="4.79754">
        <ele>143.39999389648</ele>
        <time>2017-07-16T08:13:36Z</time>
      </trkpt>
      <trkpt lat="45.93274" lon="4.79746">
        <ele>143.60000610352</ele>
        <time>2017-07-16T08:13:37Z</time>
      </trkpt>
      <trkpt lat="45.93279" lon="4.79733">
        <ele>144</ele>
        <time>2017-07-16T08:13:39Z</time>
      </trkpt>
      <trkpt lat="45.93289" lon="4.79705">
        <ele>144.60000610352</ele>
        <time>2017-07-16T08:13:43Z</time>
      </trkpt>
      <trkpt lat="45.93291" lon="4.79698">
        <ele>144.80000305176</ele>
        <time>2017-07-16T08:13:44Z</time>
      </trkpt>
      <trkpt lat="45.93309" lon="4.79646">
        <ele>145.39999389648</ele>
        <time>2017-07-16T08:13:51Z</time>
      </trkpt>
      <trkpt lat="45.93311" lon="4.79639">
        <ele>145.60000610352</ele>
        <time>2017-07-16T08:13:52Z</time>
      </trkpt>
      <trkpt lat="45.93328" lon="4.79588">
        <ele>146</ele>
        <time>2017-07-16T08:13:59Z</time>
      </trkpt>
      <trkpt lat="45.93348" lon="4.79533">
        <ele>145.80000305176</ele>
        <time>2017-07-16T08:14:06Z</time>
      </trkpt>
      <trkpt lat="45.93373" lon="4.79457">
        <ele>145.19999694824</ele>
        <time>2017-07-16T08:14:15Z</time>
      </trkpt>
      <trkpt lat="45.93382" lon="4.7943">
        <ele>144.80000305176</ele>
        <time>2017-07-16T08:14:18Z</time>
      </trkpt>
      <trkpt lat="45.93386" lon="4.79421">
        <ele>144.60000610352</ele>
        <time>2017-07-16T08:14:19Z</time>
      </trkpt>
      <trkpt lat="45.93389" lon="4.79413">
        <ele>144.39999389648</ele>
        <time>2017-07-16T08:14:20Z</time>
      </trkpt>
      <trkpt lat="45.9341" lon="4.7935">
        <ele>143.39999389648</ele>
        <time>2017-07-16T08:14:27Z</time>
      </trkpt>
      <trkpt lat="45.93413" lon="4.79341">
        <ele>143.39999389648</ele>
        <time>2017-07-16T08:14:28Z</time>
      </trkpt>
      <trkpt lat="45.93422" lon="4.79314">
        <ele>142.39999389648</ele>
        <time>2017-07-16T08:14:31Z</time>
      </trkpt>
      <trkpt lat="45.9344" lon="4.79261">
        <ele>141.80000305176</ele>
        <time>2017-07-16T08:14:37Z</time>
      </trkpt>
      <trkpt lat="45.93462" lon="4.79194">
        <ele>141.39999389648</ele>
        <time>2017-07-16T08:14:45Z</time>
      </trkpt>
      <trkpt lat="45.93465" lon="4.79186">
        <ele>141.39999389648</ele>
        <time>2017-07-16T08:14:46Z</time>
      </trkpt>
      <trkpt lat="45.93486" lon="4.79129">
        <ele>141.39999389648</ele>
        <time>2017-07-16T08:14:53Z</time>
      </trkpt>
      <trkpt lat="45.9351" lon="4.79063">
        <ele>141.39999389648</ele>
        <time>2017-07-16T08:15:01Z</time>
      </trkpt>
      <trkpt lat="45.93518" lon="4.79049">
        <ele>141.39999389648</ele>
        <time>2017-07-16T08:15:03Z</time>
      </trkpt>
      <trkpt lat="45.93527" lon="4.79025">
        <ele>141.60000610352</ele>
        <time>2017-07-16T08:15:06Z</time>
      </trkpt>
      <trkpt lat="45.93538" lon="4.79002">
        <ele>141.60000610352</ele>
        <time>2017-07-16T08:15:09Z</time>
      </trkpt>
      <trkpt lat="45.93553" lon="4.78974">
        <ele>141.60000610352</ele>
        <time>2017-07-16T08:15:13Z</time>
      </trkpt>
      <trkpt lat="45.93556" lon="4.78966">
        <ele>141.60000610352</ele>
        <time>2017-07-16T08:15:14Z</time>
      </trkpt>
      <trkpt lat="45.93564" lon="4.78942">
        <ele>141.80000305176</ele>
        <time>2017-07-16T08:15:17Z</time>
      </trkpt>
      <trkpt lat="45.93578" lon="4.78912">
        <ele>141.80000305176</ele>
        <time>2017-07-16T08:15:21Z</time>
      </trkpt>
      <trkpt lat="45.93581" lon="4.78905">
        <ele>141.80000305176</ele>
        <time>2017-07-16T08:15:22Z</time>
      </trkpt>
      <trkpt lat="45.93604" lon="4.78852">
        <ele>142</ele>
        <time>2017-07-16T08:15:29Z</time>
      </trkpt>
      <trkpt lat="45.93631" lon="4.78798">
        <ele>142.39999389648</ele>
        <time>2017-07-16T08:15:37Z</time>
      </trkpt>
      <trkpt lat="45.93656" lon="4.78746">
        <ele>142.80000305176</ele>
        <time>2017-07-16T08:15:45Z</time>
      </trkpt>
      <trkpt lat="45.93673" lon="4.78707">
        <ele>143.39999389648</ele>
        <time>2017-07-16T08:15:51Z</time>
      </trkpt>
      <trkpt lat="45.93676" lon="4.78701">
        <ele>143.39999389648</ele>
        <time>2017-07-16T08:15:52Z</time>
      </trkpt>
      <trkpt lat="45.93686" lon="4.78677">
        <ele>143.80000305176</ele>
        <time>2017-07-16T08:15:56Z</time>
      </trkpt>
      <trkpt lat="45.93693" lon="4.78659">
        <ele>144</ele>
        <time>2017-07-16T08:15:59Z</time>
      </trkpt>
      <trkpt lat="45.93701" lon="4.78642">
        <ele>144.19999694824</ele>
        <time>2017-07-16T08:16:02Z</time>
      </trkpt>
      <trkpt lat="45.93708" lon="4.78632">
        <ele>144.60000610352</ele>
        <time>2017-07-16T08:16:04Z</time>
      </trkpt>
      <trkpt lat="45.93714" lon="4.7862">
        <ele>144.80000305176</ele>
        <time>2017-07-16T08:16:06Z</time>
      </trkpt>
      <trkpt lat="45.93714" lon="4.78599">
        <ele>145.19999694824</ele>
        <time>2017-07-16T08:16:09Z</time>
      </trkpt>
      <trkpt lat="45.93716" lon="4.78583">
        <ele>145.60000610352</ele>
        <time>2017-07-16T08:16:11Z</time>
      </trkpt>
      <trkpt lat="45.93717" lon="4.78576">
        <ele>145.60000610352</ele>
        <time>2017-07-16T08:16:12Z</time>
      </trkpt>
      <trkpt lat="45.93719" lon="4.78568">
        <ele>145.60000610352</ele>
        <time>2017-07-16T08:16:13Z</time>
      </trkpt>
      <trkpt lat="45.93734" lon="4.78506">
        <ele>146.39999389648</ele>
        <time>2017-07-16T08:16:22Z</time>
      </trkpt>
      <trkpt lat="45.93741" lon="4.78479">
        <ele>146.60000610352</ele>
        <time>2017-07-16T08:16:26Z</time>
      </trkpt>
      <trkpt lat="45.93748" lon="4.78452">
        <ele>147</ele>
        <time>2017-07-16T08:16:30Z</time>
      </trkpt>
      <trkpt lat="45.93757" lon="4.78418">
        <ele>147.60000610352</ele>
        <time>2017-07-16T08:16:35Z</time>
      </trkpt>
      <trkpt lat="45.93762" lon="4.78398">
        <ele>148.19999694824</ele>
        <time>2017-07-16T08:16:38Z</time>
      </trkpt>
      <trkpt lat="45.93766" lon="4.78377">
        <ele>148.60000610352</ele>
        <time>2017-07-16T08:16:41Z</time>
      </trkpt>
      <trkpt lat="45.93775" lon="4.7834">
        <ele>149</ele>
        <time>2017-07-16T08:16:46Z</time>
      </trkpt>
      <trkpt lat="45.93787" lon="4.78297">
        <ele>149.19999694824</ele>
        <time>2017-07-16T08:16:52Z</time>
      </trkpt>
      <trkpt lat="45.93791" lon="4.7829">
        <ele>149.19999694824</ele>
        <time>2017-07-16T08:16:53Z</time>
      </trkpt>
      <trkpt lat="45.93817" lon="4.78228">
        <ele>149.60000610352</ele>
        <time>2017-07-16T08:17:02Z</time>
      </trkpt>
      <trkpt lat="45.93819" lon="4.7822">
        <ele>149.80000305176</ele>
        <time>2017-07-16T08:17:03Z</time>
      </trkpt>
      <trkpt lat="45.93828" lon="4.78179">
        <ele>149.80000305176</ele>
        <time>2017-07-16T08:17:08Z</time>
      </trkpt>
      <trkpt lat="45.93846" lon="4.7811">
        <ele>149</ele>
        <time>2017-07-16T08:17:16Z</time>
      </trkpt>
      <trkpt lat="45.93852" lon="4.78082">
        <ele>148.60000610352</ele>
        <time>2017-07-16T08:17:19Z</time>
      </trkpt>
      <trkpt lat="45.93861" lon="4.78034">
        <ele>148</ele>
        <time>2017-07-16T08:17:24Z</time>
      </trkpt>
      <trkpt lat="45.93867" lon="4.78008">
        <ele>147.80000305176</ele>
        <time>2017-07-16T08:17:27Z</time>
      </trkpt>
      <trkpt lat="45.93869" lon="4.77988">
        <ele>147.80000305176</ele>
        <time>2017-07-16T08:17:29Z</time>
      </trkpt>
      <trkpt lat="45.93871" lon="4.77978">
        <ele>147.80000305176</ele>
        <time>2017-07-16T08:17:30Z</time>
      </trkpt>
      <trkpt lat="45.93879" lon="4.77947">
        <ele>147.60000610352</ele>
        <time>2017-07-16T08:17:33Z</time>
      </trkpt>
      <trkpt lat="45.93881" lon="4.77936">
        <ele>147.39999389648</ele>
        <time>2017-07-16T08:17:34Z</time>
      </trkpt>
      <trkpt lat="45.93891" lon="4.7789">
        <ele>146.39999389648</ele>
        <time>2017-07-16T08:17:38Z</time>
      </trkpt>
      <trkpt lat="45.93899" lon="4.77868">
        <ele>145.60000610352</ele>
        <time>2017-07-16T08:17:40Z</time>
      </trkpt>
      <trkpt lat="45.93907" lon="4.77845">
        <ele>145</ele>
        <time>2017-07-16T08:17:42Z</time>
      </trkpt>
      <trkpt lat="45.93919" lon="4.77797">
        <ele>144</ele>
        <time>2017-07-16T08:17:46Z</time>
      </trkpt>
      <trkpt lat="45.93932" lon="4.77752">
        <ele>142.80000305176</ele>
        <time>2017-07-16T08:17:50Z</time>
      </trkpt>
      <trkpt lat="45.93937" lon="4.77741">
        <ele>142.80000305176</ele>
        <time>2017-07-16T08:17:51Z</time>
      </trkpt>
      <trkpt lat="45.93961" lon="4.77683">
        <ele>142.39999389648</ele>
        <time>2017-07-16T08:17:57Z</time>
      </trkpt>
      <trkpt lat="45.93975" lon="4.77623">
        <ele>142.19999694824</ele>
        <time>2017-07-16T08:18:03Z</time>
      </trkpt>
      <trkpt lat="45.9399" lon="4.77544">
        <ele>142</ele>
        <time>2017-07-16T08:18:11Z</time>
      </trkpt>
      <trkpt lat="45.93992" lon="4.77534">
        <ele>141.80000305176</ele>
        <time>2017-07-16T08:18:12Z</time>
      </trkpt>
      <trkpt lat="45.94003" lon="4.77453">
        <ele>142</ele>
        <time>2017-07-16T08:18:20Z</time>
      </trkpt>
      <trkpt lat="45.94011" lon="4.77392">
        <ele>142</ele>
        <time>2017-07-16T08:18:26Z</time>
      </trkpt>
      <trkpt lat="45.94017" lon="4.77314">
        <ele>142.19999694824</ele>
        <time>2017-07-16T08:18:34Z</time>
      </trkpt>
      <trkpt lat="45.94021" lon="4.77253">
        <ele>142.80000305176</ele>
        <time>2017-07-16T08:18:41Z</time>
      </trkpt>
      <trkpt lat="45.94022" lon="4.77245">
        <ele>143</ele>
        <time>2017-07-16T08:18:42Z</time>
      </trkpt>
      <trkpt lat="45.94028" lon="4.77202">
        <ele>143.19999694824</ele>
        <time>2017-07-16T08:18:47Z</time>
      </trkpt>
      <trkpt lat="45.94038" lon="4.77128">
        <ele>142.80000305176</ele>
        <time>2017-07-16T08:18:55Z</time>
      </trkpt>
      <trkpt lat="45.94046" lon="4.7705">
        <ele>142.39999389648</ele>
        <time>2017-07-16T08:19:03Z</time>
      </trkpt>
      <trkpt lat="45.94055" lon="4.76995">
        <ele>142.80000305176</ele>
        <time>2017-07-16T08:19:09Z</time>
      </trkpt>
      <trkpt lat="45.94058" lon="4.76987">
        <ele>142.80000305176</ele>
        <time>2017-07-16T08:19:10Z</time>
      </trkpt>
      <trkpt lat="45.94066" lon="4.76965">
        <ele>142.80000305176</ele>
        <time>2017-07-16T08:19:13Z</time>
      </trkpt>
      <trkpt lat="45.94068" lon="4.76957">
        <ele>142.80000305176</ele>
        <time>2017-07-16T08:19:14Z</time>
      </trkpt>
      <trkpt lat="45.94075" lon="4.76941">
        <ele>143</ele>
        <time>2017-07-16T08:19:16Z</time>
      </trkpt>
      <trkpt lat="45.94083" lon="4.76926">
        <ele>143</ele>
        <time>2017-07-16T08:19:18Z</time>
      </trkpt>
      <trkpt lat="45.94109" lon="4.76872">
        <ele>143.39999389648</ele>
        <time>2017-07-16T08:19:26Z</time>
      </trkpt>
      <trkpt lat="45.94124" lon="4.76842">
        <ele>144</ele>
        <time>2017-07-16T08:19:31Z</time>
      </trkpt>
      <trkpt lat="45.94132" lon="4.76825">
        <ele>144.39999389648</ele>
        <time>2017-07-16T08:19:34Z</time>
      </trkpt>
      <trkpt lat="45.94137" lon="4.76815">
        <ele>144.80000305176</ele>
        <time>2017-07-16T08:19:36Z</time>
      </trkpt>
      <trkpt lat="45.94139" lon="4.76809">
        <ele>145</ele>
        <time>2017-07-16T08:19:37Z</time>
      </trkpt>
      <trkpt lat="45.94147" lon="4.76794">
        <ele>145.39999389648</ele>
        <time>2017-07-16T08:19:40Z</time>
      </trkpt>
      <trkpt lat="45.94165" lon="4.76753">
        <ele>146.19999694824</ele>
        <time>2017-07-16T08:19:47Z</time>
      </trkpt>
      <trkpt lat="45.94169" lon="4.76741">
        <ele>146.60000610352</ele>
        <time>2017-07-16T08:19:49Z</time>
      </trkpt>
      <trkpt lat="45.94173" lon="4.7672">
        <ele>147.19999694824</ele>
        <time>2017-07-16T08:19:52Z</time>
      </trkpt>
      <trkpt lat="45.94173" lon="4.76713">
        <ele>147.39999389648</ele>
        <time>2017-07-16T08:19:53Z</time>
      </trkpt>
      <trkpt lat="45.94174" lon="4.76698">
        <ele>147.60000610352</ele>
        <time>2017-07-16T08:19:55Z</time>
      </trkpt>
      <trkpt lat="45.94174" lon="4.76677">
        <ele>148.39999389648</ele>
        <time>2017-07-16T08:19:58Z</time>
      </trkpt>
      <trkpt lat="45.94173" lon="4.76669">
        <ele>148.60000610352</ele>
        <time>2017-07-16T08:19:59Z</time>
      </trkpt>
      <trkpt lat="45.9417" lon="4.76626">
        <ele>149.39999389648</ele>
        <time>2017-07-16T08:20:05Z</time>
      </trkpt>
      <trkpt lat="45.94169" lon="4.76611">
        <ele>149.60000610352</ele>
        <time>2017-07-16T08:20:07Z</time>
      </trkpt>
      <trkpt lat="45.94165" lon="4.76556">
        <ele>150.39999389648</ele>
        <time>2017-07-16T08:20:15Z</time>
      </trkpt>
      <trkpt lat="45.94162" lon="4.76505">
        <ele>151.39999389648</ele>
        <time>2017-07-16T08:20:22Z</time>
      </trkpt>
      <trkpt lat="45.94161" lon="4.76498">
        <ele>151.60000610352</ele>
        <time>2017-07-16T08:20:23Z</time>
      </trkpt>
      <trkpt lat="45.94161" lon="4.76484">
        <ele>151.80000305176</ele>
        <time>2017-07-16T08:20:25Z</time>
      </trkpt>
      <trkpt lat="45.94165" lon="4.76462">
        <ele>152.39999389648</ele>
        <time>2017-07-16T08:20:28Z</time>
      </trkpt>
      <trkpt lat="45.94167" lon="4.76448">
        <ele>152.80000305176</ele>
        <time>2017-07-16T08:20:30Z</time>
      </trkpt>
      <trkpt lat="45.94168" lon="4.76417">
        <ele>153.19999694824</ele>
        <time>2017-07-16T08:20:34Z</time>
      </trkpt>
      <trkpt lat="45.94178" lon="4.76381">
        <ele>153.19999694824</ele>
        <time>2017-07-16T08:20:39Z</time>
      </trkpt>
      <trkpt lat="45.9418" lon="4.76373">
        <ele>153.39999389648</ele>
        <time>2017-07-16T08:20:40Z</time>
      </trkpt>
      <trkpt lat="45.94185" lon="4.7636">
        <ele>153.39999389648</ele>
        <time>2017-07-16T08:20:42Z</time>
      </trkpt>
      <trkpt lat="45.94192" lon="4.76349">
        <ele>153.60000610352</ele>
        <time>2017-07-16T08:20:44Z</time>
      </trkpt>
      <trkpt lat="45.9422" lon="4.76295">
        <ele>154.19999694824</ele>
        <time>2017-07-16T08:20:53Z</time>
      </trkpt>
      <trkpt lat="45.94233" lon="4.76274">
        <ele>154.60000610352</ele>
        <time>2017-07-16T08:20:57Z</time>
      </trkpt>
      <trkpt lat="45.94244" lon="4.76257">
        <ele>154.80000305176</ele>
        <time>2017-07-16T08:21:00Z</time>
      </trkpt>
      <trkpt lat="45.94253" lon="4.76248">
        <ele>155</ele>
        <time>2017-07-16T08:21:02Z</time>
      </trkpt>
      <trkpt lat="45.9427" lon="4.76231">
        <ele>155.19999694824</ele>
        <time>2017-07-16T08:21:06Z</time>
      </trkpt>
      <trkpt lat="45.94283" lon="4.76221">
        <ele>155.60000610352</ele>
        <time>2017-07-16T08:21:09Z</time>
      </trkpt>
      <trkpt lat="45.94304" lon="4.76204">
        <ele>156.19999694824</ele>
        <time>2017-07-16T08:21:14Z</time>
      </trkpt>
      <trkpt lat="45.94313" lon="4.76197">
        <ele>156.19999694824</ele>
        <time>2017-07-16T08:21:16Z</time>
      </trkpt>
      <trkpt lat="45.94329" lon="4.76184">
        <ele>156.60000610352</ele>
        <time>2017-07-16T08:21:20Z</time>
      </trkpt>
      <trkpt lat="45.94334" lon="4.7618">
        <ele>156.60000610352</ele>
        <time>2017-07-16T08:21:21Z</time>
      </trkpt>
      <trkpt lat="45.94365" lon="4.76158">
        <ele>157.19999694824</ele>
        <time>2017-07-16T08:21:28Z</time>
      </trkpt>
      <trkpt lat="45.94388" lon="4.76141">
        <ele>157.80000305176</ele>
        <time>2017-07-16T08:21:33Z</time>
      </trkpt>
      <trkpt lat="45.94407" lon="4.76125">
        <ele>158</ele>
        <time>2017-07-16T08:21:37Z</time>
      </trkpt>
      <trkpt lat="45.94445" lon="4.76089">
        <ele>158.60000610352</ele>
        <time>2017-07-16T08:21:45Z</time>
      </trkpt>
      <trkpt lat="45.94459" lon="4.76073">
        <ele>158.80000305176</ele>
        <time>2017-07-16T08:21:48Z</time>
      </trkpt>
      <trkpt lat="45.9448" lon="4.7605">
        <ele>159</ele>
        <time>2017-07-16T08:21:53Z</time>
      </trkpt>
      <trkpt lat="45.94485" lon="4.76047">
        <ele>159.19999694824</ele>
        <time>2017-07-16T08:21:54Z</time>
      </trkpt>
      <trkpt lat="45.94504" lon="4.76043">
        <ele>159.60000610352</ele>
        <time>2017-07-16T08:21:58Z</time>
      </trkpt>
      <trkpt lat="45.94516" lon="4.76034">
        <ele>160</ele>
        <time>2017-07-16T08:22:01Z</time>
      </trkpt>
      <trkpt lat="45.94523" lon="4.76021">
        <ele>160.39999389648</ele>
        <time>2017-07-16T08:22:03Z</time>
      </trkpt>
      <trkpt lat="45.9453" lon="4.76008">
        <ele>160.60000610352</ele>
        <time>2017-07-16T08:22:05Z</time>
      </trkpt>
      <trkpt lat="45.94534" lon="4.76002">
        <ele>160.60000610352</ele>
        <time>2017-07-16T08:22:06Z</time>
      </trkpt>
      <trkpt lat="45.94539" lon="4.75998">
        <ele>160.80000305176</ele>
        <time>2017-07-16T08:22:07Z</time>
      </trkpt>
      <trkpt lat="45.94556" lon="4.75987">
        <ele>160.60000610352</ele>
        <time>2017-07-16T08:22:10Z</time>
      </trkpt>
      <trkpt lat="45.94596" lon="4.75966">
        <ele>160.80000305176</ele>
        <time>2017-07-16T08:22:17Z</time>
      </trkpt>
      <trkpt lat="45.94626" lon="4.7595">
        <ele>160.80000305176</ele>
        <time>2017-07-16T08:22:23Z</time>
      </trkpt>
      <trkpt lat="45.94635" lon="4.75944">
        <ele>160.80000305176</ele>
        <time>2017-07-16T08:22:25Z</time>
      </trkpt>
      <trkpt lat="45.94639" lon="4.75941">
        <ele>161</ele>
        <time>2017-07-16T08:22:26Z</time>
      </trkpt>
      <trkpt lat="45.94664" lon="4.75921">
        <ele>161.80000305176</ele>
        <time>2017-07-16T08:22:32Z</time>
      </trkpt>
      <trkpt lat="45.94672" lon="4.75913">
        <ele>162</ele>
        <time>2017-07-16T08:22:34Z</time>
      </trkpt>
      <trkpt lat="45.94704" lon="4.75883">
        <ele>163</ele>
        <time>2017-07-16T08:22:42Z</time>
      </trkpt>
      <trkpt lat="45.94708" lon="4.7588">
        <ele>163</ele>
        <time>2017-07-16T08:22:43Z</time>
      </trkpt>
      <trkpt lat="45.9473" lon="4.75864">
        <ele>163.60000610352</ele>
        <time>2017-07-16T08:22:48Z</time>
      </trkpt>
      <trkpt lat="45.94744" lon="4.75856">
        <ele>163.80000305176</ele>
        <time>2017-07-16T08:22:51Z</time>
      </trkpt>
      <trkpt lat="45.94764" lon="4.75846">
        <ele>164</ele>
        <time>2017-07-16T08:22:55Z</time>
      </trkpt>
      <trkpt lat="45.94785" lon="4.75839">
        <ele>164.39999389648</ele>
        <time>2017-07-16T08:22:59Z</time>
      </trkpt>
      <trkpt lat="45.94825" lon="4.75828">
        <ele>164.80000305176</ele>
        <time>2017-07-16T08:23:07Z</time>
      </trkpt>
      <trkpt lat="45.94854" lon="4.75817">
        <ele>165</ele>
        <time>2017-07-16T08:23:13Z</time>
      </trkpt>
      <trkpt lat="45.9486" lon="4.75816">
        <ele>165</ele>
        <time>2017-07-16T08:23:14Z</time>
      </trkpt>
      <trkpt lat="45.94871" lon="4.75813">
        <ele>165.19999694824</ele>
        <time>2017-07-16T08:23:16Z</time>
      </trkpt>
      <trkpt lat="45.94877" lon="4.75813">
        <ele>165.19999694824</ele>
        <time>2017-07-16T08:23:17Z</time>
      </trkpt>
      <trkpt lat="45.94883" lon="4.75812">
        <ele>165.19999694824</ele>
        <time>2017-07-16T08:23:18Z</time>
      </trkpt>
      <trkpt lat="45.9492" lon="4.75817">
        <ele>164</ele>
        <time>2017-07-16T08:23:24Z</time>
      </trkpt>
      <trkpt lat="45.94932" lon="4.75822">
        <ele>163.19999694824</ele>
        <time>2017-07-16T08:23:26Z</time>
      </trkpt>
      <trkpt lat="45.94943" lon="4.75829">
        <ele>162.60000610352</ele>
        <time>2017-07-16T08:23:28Z</time>
      </trkpt>
      <trkpt lat="45.94949" lon="4.75833">
        <ele>162.19999694824</ele>
        <time>2017-07-16T08:23:29Z</time>
      </trkpt>
      <trkpt lat="45.94966" lon="4.75844">
        <ele>161.39999389648</ele>
        <time>2017-07-16T08:23:32Z</time>
      </trkpt>
      <trkpt lat="45.94977" lon="4.7585">
        <ele>160.80000305176</ele>
        <time>2017-07-16T08:23:34Z</time>
      </trkpt>
      <trkpt lat="45.94983" lon="4.75852">
        <ele>160.80000305176</ele>
        <time>2017-07-16T08:23:35Z</time>
      </trkpt>
      <trkpt lat="45.94997" lon="4.75852">
        <ele>160.39999389648</ele>
        <time>2017-07-16T08:23:37Z</time>
      </trkpt>
      <trkpt lat="45.95004" lon="4.75851">
        <ele>160</ele>
        <time>2017-07-16T08:23:38Z</time>
      </trkpt>
      <trkpt lat="45.95011" lon="4.75849">
        <ele>159.80000305176</ele>
        <time>2017-07-16T08:23:39Z</time>
      </trkpt>
      <trkpt lat="45.95027" lon="4.75847">
        <ele>159.19999694824</ele>
        <time>2017-07-16T08:23:41Z</time>
      </trkpt>
      <trkpt lat="45.9506" lon="4.7584">
        <ele>158</ele>
        <time>2017-07-16T08:23:45Z</time>
      </trkpt>
      <trkpt lat="45.95068" lon="4.75838">
        <ele>157.80000305176</ele>
        <time>2017-07-16T08:23:46Z</time>
      </trkpt>
      <trkpt lat="45.95093" lon="4.75836">
        <ele>157</ele>
        <time>2017-07-16T08:23:49Z</time>
      </trkpt>
      <trkpt lat="45.9511" lon="4.75835">
        <ele>156.19999694824</ele>
        <time>2017-07-16T08:23:51Z</time>
      </trkpt>
      <trkpt lat="45.95126" lon="4.75833">
        <ele>155.60000610352</ele>
        <time>2017-07-16T08:23:53Z</time>
      </trkpt>
      <trkpt lat="45.95158" lon="4.75822">
        <ele>154</ele>
        <time>2017-07-16T08:23:57Z</time>
      </trkpt>
      <trkpt lat="45.95185" lon="4.75802">
        <ele>152.80000305176</ele>
        <time>2017-07-16T08:24:01Z</time>
      </trkpt>
      <trkpt lat="45.95191" lon="4.75796">
        <ele>152.60000610352</ele>
        <time>2017-07-16T08:24:02Z</time>
      </trkpt>
      <trkpt lat="45.95224" lon="4.7576">
        <ele>151.60000610352</ele>
        <time>2017-07-16T08:24:08Z</time>
      </trkpt>
      <trkpt lat="45.95229" lon="4.75755">
        <ele>151.60000610352</ele>
        <time>2017-07-16T08:24:09Z</time>
      </trkpt>
      <trkpt lat="45.95267" lon="4.75707">
        <ele>151.19999694824</ele>
        <time>2017-07-16T08:24:17Z</time>
      </trkpt>
      <trkpt lat="45.95293" lon="4.75668">
        <ele>150.80000305176</ele>
        <time>2017-07-16T08:24:23Z</time>
      </trkpt>
      <trkpt lat="45.95307" lon="4.75648">
        <ele>150.60000610352</ele>
        <time>2017-07-16T08:24:26Z</time>
      </trkpt>
      <trkpt lat="45.95334" lon="4.75611">
        <ele>150.80000305176</ele>
        <time>2017-07-16T08:24:32Z</time>
      </trkpt>
      <trkpt lat="45.95368" lon="4.75566">
        <ele>151.39999389648</ele>
        <time>2017-07-16T08:24:40Z</time>
      </trkpt>
      <trkpt lat="45.9539" lon="4.75541">
        <ele>151.60000610352</ele>
        <time>2017-07-16T08:24:45Z</time>
      </trkpt>
      <trkpt lat="45.95403" lon="4.75528">
        <ele>152.19999694824</ele>
        <time>2017-07-16T08:24:48Z</time>
      </trkpt>
      <trkpt lat="45.9543" lon="4.75511">
        <ele>152.80000305176</ele>
        <time>2017-07-16T08:24:54Z</time>
      </trkpt>
      <trkpt lat="45.95434" lon="4.75509">
        <ele>152.80000305176</ele>
        <time>2017-07-16T08:24:55Z</time>
      </trkpt>
      <trkpt lat="45.9547" lon="4.75496">
        <ele>153.80000305176</ele>
        <time>2017-07-16T08:25:03Z</time>
      </trkpt>
      <trkpt lat="45.95497" lon="4.75493">
        <ele>154.80000305176</ele>
        <time>2017-07-16T08:25:09Z</time>
      </trkpt>
      <trkpt lat="45.95501" lon="4.75493">
        <ele>155</ele>
        <time>2017-07-16T08:25:10Z</time>
      </trkpt>
      <trkpt lat="45.95506" lon="4.75493">
        <ele>155.19999694824</ele>
        <time>2017-07-16T08:25:11Z</time>
      </trkpt>
      <trkpt lat="45.95523" lon="4.75498">
        <ele>156</ele>
        <time>2017-07-16T08:25:15Z</time>
      </trkpt>
      <trkpt lat="45.95535" lon="4.75492">
        <ele>156.39999389648</ele>
        <time>2017-07-16T08:25:18Z</time>
      </trkpt>
      <trkpt lat="45.95546" lon="4.75472">
        <ele>156.80000305176</ele>
        <time>2017-07-16T08:25:22Z</time>
      </trkpt>
      <trkpt lat="45.95553" lon="4.75463">
        <ele>157</ele>
        <time>2017-07-16T08:25:24Z</time>
      </trkpt>
      <trkpt lat="45.95561" lon="4.75456">
        <ele>157.19999694824</ele>
        <time>2017-07-16T08:25:26Z</time>
      </trkpt>
      <trkpt lat="45.95565" lon="4.75453">
        <ele>157.19999694824</ele>
        <time>2017-07-16T08:25:27Z</time>
      </trkpt>
      <trkpt lat="45.95572" lon="4.75446">
        <ele>157.39999389648</ele>
        <time>2017-07-16T08:25:29Z</time>
      </trkpt>
      <trkpt lat="45.95579" lon="4.7544">
        <ele>157.80000305176</ele>
        <time>2017-07-16T08:25:31Z</time>
      </trkpt>
      <trkpt lat="45.95586" lon="4.75435">
        <ele>158.39999389648</ele>
        <time>2017-07-16T08:25:33Z</time>
      </trkpt>
      <trkpt lat="45.95601" lon="4.75424">
        <ele>159</ele>
        <time>2017-07-16T08:25:37Z</time>
      </trkpt>
      <trkpt lat="45.95616" lon="4.75413">
        <ele>159.39999389648</ele>
        <time>2017-07-16T08:25:41Z</time>
      </trkpt>
      <trkpt lat="45.95627" lon="4.75404">
        <ele>160</ele>
        <time>2017-07-16T08:25:44Z</time>
      </trkpt>
      <trkpt lat="45.95631" lon="4.75402">
        <ele>160</ele>
        <time>2017-07-16T08:25:45Z</time>
      </trkpt>
      <trkpt lat="45.95642" lon="4.75394">
        <ele>160.60000610352</ele>
        <time>2017-07-16T08:25:48Z</time>
      </trkpt>
      <trkpt lat="45.95657" lon="4.75382">
        <ele>161.19999694824</ele>
        <time>2017-07-16T08:25:52Z</time>
      </trkpt>
      <trkpt lat="45.95668" lon="4.75372">
        <ele>161.60000610352</ele>
        <time>2017-07-16T08:25:55Z</time>
      </trkpt>
      <trkpt lat="45.95675" lon="4.75366">
        <ele>162.19999694824</ele>
        <time>2017-07-16T08:25:57Z</time>
      </trkpt>
      <trkpt lat="45.95682" lon="4.7536">
        <ele>162.80000305176</ele>
        <time>2017-07-16T08:25:59Z</time>
      </trkpt>
      <trkpt lat="45.95703" lon="4.7534">
        <ele>163.80000305176</ele>
        <time>2017-07-16T08:26:05Z</time>
      </trkpt>
      <trkpt lat="45.9571" lon="4.75333">
        <ele>164</ele>
        <time>2017-07-16T08:26:07Z</time>
      </trkpt>
      <trkpt lat="45.95718" lon="4.75326">
        <ele>164</ele>
        <time>2017-07-16T08:26:09Z</time>
      </trkpt>
      <trkpt lat="45.95733" lon="4.75309">
        <ele>164.39999389648</ele>
        <time>2017-07-16T08:26:13Z</time>
      </trkpt>
      <trkpt lat="45.95752" lon="4.75288">
        <ele>164.80000305176</ele>
        <time>2017-07-16T08:26:18Z</time>
      </trkpt>
      <trkpt lat="45.95764" lon="4.75275">
        <ele>164.80000305176</ele>
        <time>2017-07-16T08:26:21Z</time>
      </trkpt>
      <trkpt lat="45.95784" lon="4.7525">
        <ele>164.60000610352</ele>
        <time>2017-07-16T08:26:26Z</time>
      </trkpt>
      <trkpt lat="45.95792" lon="4.75241">
        <ele>164.80000305176</ele>
        <time>2017-07-16T08:26:28Z</time>
      </trkpt>
      <trkpt lat="45.95821" lon="4.75203">
        <ele>164.80000305176</ele>
        <time>2017-07-16T08:26:35Z</time>
      </trkpt>
      <trkpt lat="45.95858" lon="4.75151">
        <ele>164.19999694824</ele>
        <time>2017-07-16T08:26:44Z</time>
      </trkpt>
      <trkpt lat="45.9589" lon="4.75119">
        <ele>163.80000305176</ele>
        <time>2017-07-16T08:26:50Z</time>
      </trkpt>
      <trkpt lat="45.95931" lon="4.75096">
        <ele>162.80000305176</ele>
        <time>2017-07-16T08:26:56Z</time>
      </trkpt>
      <trkpt lat="45.95938" lon="4.75092">
        <ele>162.60000610352</ele>
        <time>2017-07-16T08:26:57Z</time>
      </trkpt>
      <trkpt lat="45.95968" lon="4.7508">
        <ele>161.60000610352</ele>
        <time>2017-07-16T08:27:01Z</time>
      </trkpt>
      <trkpt lat="45.9599" lon="4.75071">
        <ele>161.19999694824</ele>
        <time>2017-07-16T08:27:04Z</time>
      </trkpt>
      <trkpt lat="45.96022" lon="4.75058">
        <ele>160.39999389648</ele>
        <time>2017-07-16T08:27:08Z</time>
      </trkpt>
      <trkpt lat="45.96031" lon="4.75056">
        <ele>160</ele>
        <time>2017-07-16T08:27:09Z</time>
      </trkpt>
      <trkpt lat="45.96048" lon="4.75052">
        <ele>159.39999389648</ele>
        <time>2017-07-16T08:27:11Z</time>
      </trkpt>
      <trkpt lat="45.96056" lon="4.75051">
        <ele>159.19999694824</ele>
        <time>2017-07-16T08:27:12Z</time>
      </trkpt>
      <trkpt lat="45.96073" lon="4.75053">
        <ele>158.80000305176</ele>
        <time>2017-07-16T08:27:14Z</time>
      </trkpt>
      <trkpt lat="45.96096" lon="4.75065">
        <ele>158</ele>
        <time>2017-07-16T08:27:17Z</time>
      </trkpt>
      <trkpt lat="45.96103" lon="4.75072">
        <ele>157.80000305176</ele>
        <time>2017-07-16T08:27:18Z</time>
      </trkpt>
      <trkpt lat="45.96142" lon="4.75113">
        <ele>157</ele>
        <time>2017-07-16T08:27:24Z</time>
      </trkpt>
      <trkpt lat="45.96155" lon="4.75128">
        <ele>156.60000610352</ele>
        <time>2017-07-16T08:27:26Z</time>
      </trkpt>
      <trkpt lat="45.9619" lon="4.7516">
        <ele>155.80000305176</ele>
        <time>2017-07-16T08:27:31Z</time>
      </trkpt>
      <trkpt lat="45.96198" lon="4.75166">
        <ele>155.60000610352</ele>
        <time>2017-07-16T08:27:32Z</time>
      </trkpt>
      <trkpt lat="45.96214" lon="4.75177">
        <ele>155</ele>
        <time>2017-07-16T08:27:34Z</time>
      </trkpt>
      <trkpt lat="45.96222" lon="4.75182">
        <ele>154.80000305176</ele>
        <time>2017-07-16T08:27:35Z</time>
      </trkpt>
      <trkpt lat="45.96238" lon="4.75191">
        <ele>154.19999694824</ele>
        <time>2017-07-16T08:27:37Z</time>
      </trkpt>
      <trkpt lat="45.96255" lon="4.752">
        <ele>153.80000305176</ele>
        <time>2017-07-16T08:27:39Z</time>
      </trkpt>
      <trkpt lat="45.9629" lon="4.75214">
        <ele>152.60000610352</ele>
        <time>2017-07-16T08:27:43Z</time>
      </trkpt>
      <trkpt lat="45.96345" lon="4.75232">
        <ele>151.60000610352</ele>
        <time>2017-07-16T08:27:49Z</time>
      </trkpt>
      <trkpt lat="45.96354" lon="4.75236">
        <ele>151.39999389648</ele>
        <time>2017-07-16T08:27:50Z</time>
      </trkpt>
      <trkpt lat="45.96389" lon="4.7525">
        <ele>150.60000610352</ele>
        <time>2017-07-16T08:27:54Z</time>
      </trkpt>
      <trkpt lat="45.96415" lon="4.75262">
        <ele>149.80000305176</ele>
        <time>2017-07-16T08:27:57Z</time>
      </trkpt>
      <trkpt lat="45.96424" lon="4.75266">
        <ele>149.39999389648</ele>
        <time>2017-07-16T08:27:58Z</time>
      </trkpt>
      <trkpt lat="45.96465" lon="4.7529">
        <ele>148.39999389648</ele>
        <time>2017-07-16T08:28:03Z</time>
      </trkpt>
      <trkpt lat="45.96499" lon="4.75309">
        <ele>147.39999389648</ele>
        <time>2017-07-16T08:28:07Z</time>
      </trkpt>
      <trkpt lat="45.96516" lon="4.75319">
        <ele>146.80000305176</ele>
        <time>2017-07-16T08:28:09Z</time>
      </trkpt>
      <trkpt lat="45.96541" lon="4.75334">
        <ele>146.19999694824</ele>
        <time>2017-07-16T08:28:12Z</time>
      </trkpt>
      <trkpt lat="45.96589" lon="4.75366">
        <ele>145</ele>
        <time>2017-07-16T08:28:18Z</time>
      </trkpt>
      <trkpt lat="45.96643" lon="4.75398">
        <ele>144.60000610352</ele>
        <time>2017-07-16T08:28:25Z</time>
      </trkpt>
      <trkpt lat="45.9665" lon="4.75402">
        <ele>144.39999389648</ele>
        <time>2017-07-16T08:28:26Z</time>
      </trkpt>
      <trkpt lat="45.96672" lon="4.75415">
        <ele>144</ele>
        <time>2017-07-16T08:28:29Z</time>
      </trkpt>
      <trkpt lat="45.96703" lon="4.75433">
        <ele>143.80000305176</ele>
        <time>2017-07-16T08:28:33Z</time>
      </trkpt>
      <trkpt lat="45.96741" lon="4.75456">
        <ele>143</ele>
        <time>2017-07-16T08:28:38Z</time>
      </trkpt>
      <trkpt lat="45.96755" lon="4.75465">
        <ele>143</ele>
        <time>2017-07-16T08:28:40Z</time>
      </trkpt>
      <trkpt lat="45.96799" lon="4.75484">
        <ele>142.39999389648</ele>
        <time>2017-07-16T08:28:46Z</time>
      </trkpt>
      <trkpt lat="45.96856" lon="4.75506">
        <ele>142</ele>
        <time>2017-07-16T08:28:54Z</time>
      </trkpt>
      <trkpt lat="45.96863" lon="4.75508">
        <ele>142</ele>
        <time>2017-07-16T08:28:55Z</time>
      </trkpt>
      <trkpt lat="45.96892" lon="4.75518">
        <ele>142</ele>
        <time>2017-07-16T08:28:59Z</time>
      </trkpt>
      <trkpt lat="45.96944" lon="4.75539">
        <ele>142.60000610352</ele>
        <time>2017-07-16T08:29:07Z</time>
      </trkpt>
      <trkpt lat="45.97" lon="4.7556">
        <ele>142.60000610352</ele>
        <time>2017-07-16T08:29:16Z</time>
      </trkpt>
      <trkpt lat="45.97056" lon="4.75583">
        <ele>142.19999694824</ele>
        <time>2017-07-16T08:29:25Z</time>
      </trkpt>
      <trkpt lat="45.97105" lon="4.75607">
        <ele>142.39999389648</ele>
        <time>2017-07-16T08:29:33Z</time>
      </trkpt>
      <trkpt lat="45.97147" lon="4.75626">
        <ele>142.60000610352</ele>
        <time>2017-07-16T08:29:40Z</time>
      </trkpt>
      <trkpt lat="45.97195" lon="4.75648">
        <ele>142.39999389648</ele>
        <time>2017-07-16T08:29:48Z</time>
      </trkpt>
      <trkpt lat="45.9725" lon="4.75667">
        <ele>142</ele>
        <time>2017-07-16T08:29:57Z</time>
      </trkpt>
      <trkpt lat="45.97256" lon="4.75669">
        <ele>142</ele>
        <time>2017-07-16T08:29:58Z</time>
      </trkpt>
      <trkpt lat="45.97311" lon="4.75681">
        <ele>142</ele>
        <time>2017-07-16T08:30:07Z</time>
      </trkpt>
      <trkpt lat="45.97361" lon="4.75686">
        <ele>142.39999389648</ele>
        <time>2017-07-16T08:30:15Z</time>
      </trkpt>
      <trkpt lat="45.97411" lon="4.75686">
        <ele>142.19999694824</ele>
        <time>2017-07-16T08:30:23Z</time>
      </trkpt>
      <trkpt lat="45.9747" lon="4.75683">
        <ele>142.19999694824</ele>
        <time>2017-07-16T08:30:33Z</time>
      </trkpt>
      <trkpt lat="45.97512" lon="4.75676">
        <ele>142.19999694824</ele>
        <time>2017-07-16T08:30:40Z</time>
      </trkpt>
      <trkpt lat="45.97523" lon="4.7567">
        <ele>142.19999694824</ele>
        <time>2017-07-16T08:30:42Z</time>
      </trkpt>
      <trkpt lat="45.9754" lon="4.75663">
        <ele>142.19999694824</ele>
        <time>2017-07-16T08:30:45Z</time>
      </trkpt>
      <trkpt lat="45.97553" lon="4.7568">
        <ele>141.80000305176</ele>
        <time>2017-07-16T08:30:48Z</time>
      </trkpt>
      <trkpt lat="45.97557" lon="4.75685">
        <ele>141.80000305176</ele>
        <time>2017-07-16T08:30:49Z</time>
      </trkpt>
      <trkpt lat="45.97567" lon="4.75691">
        <ele>141.80000305176</ele>
        <time>2017-07-16T08:30:51Z</time>
      </trkpt>
      <trkpt lat="45.97578" lon="4.75689">
        <ele>142</ele>
        <time>2017-07-16T08:30:53Z</time>
      </trkpt>
      <trkpt lat="45.97589" lon="4.75686">
        <ele>142.19999694824</ele>
        <time>2017-07-16T08:30:55Z</time>
      </trkpt>
      <trkpt lat="45.976" lon="4.75682">
        <ele>142.19999694824</ele>
        <time>2017-07-16T08:30:57Z</time>
      </trkpt>
      <trkpt lat="45.9761" lon="4.75677">
        <ele>142.19999694824</ele>
        <time>2017-07-16T08:30:59Z</time>
      </trkpt>
      <trkpt lat="45.97644" lon="4.75673">
        <ele>142.39999389648</ele>
        <time>2017-07-16T08:31:05Z</time>
      </trkpt>
      <trkpt lat="45.97684" lon="4.75672">
        <ele>142.19999694824</ele>
        <time>2017-07-16T08:31:12Z</time>
      </trkpt>
      <trkpt lat="45.97734" lon="4.75671">
        <ele>142.19999694824</ele>
        <time>2017-07-16T08:31:21Z</time>
      </trkpt>
      <trkpt lat="45.97784" lon="4.75676">
        <ele>142.60000610352</ele>
        <time>2017-07-16T08:31:30Z</time>
      </trkpt>
      <trkpt lat="45.97816" lon="4.7568">
        <ele>143</ele>
        <time>2017-07-16T08:31:36Z</time>
      </trkpt>
      <trkpt lat="45.97821" lon="4.7568">
        <ele>143.19999694824</ele>
        <time>2017-07-16T08:31:37Z</time>
      </trkpt>
      <trkpt lat="45.97858" lon="4.75688">
        <ele>143.60000610352</ele>
        <time>2017-07-16T08:31:44Z</time>
      </trkpt>
      <trkpt lat="45.97894" lon="4.75702">
        <ele>143.60000610352</ele>
        <time>2017-07-16T08:31:51Z</time>
      </trkpt>
      <trkpt lat="45.97932" lon="4.75724">
        <ele>144.19999694824</ele>
        <time>2017-07-16T08:31:59Z</time>
      </trkpt>
      <trkpt lat="45.97941" lon="4.7573">
        <ele>144.19999694824</ele>
        <time>2017-07-16T08:32:01Z</time>
      </trkpt>
      <trkpt lat="45.97952" lon="4.75744">
        <ele>144.39999389648</ele>
        <time>2017-07-16T08:32:04Z</time>
      </trkpt>
      <trkpt lat="45.97965" lon="4.75741">
        <ele>144.60000610352</ele>
        <time>2017-07-16T08:32:07Z</time>
      </trkpt>
      <trkpt lat="45.9797" lon="4.75737">
        <ele>144.60000610352</ele>
        <time>2017-07-16T08:32:08Z</time>
      </trkpt>
      <trkpt lat="45.97975" lon="4.75733">
        <ele>144.60000610352</ele>
        <time>2017-07-16T08:32:09Z</time>
      </trkpt>
      <trkpt lat="45.97993" lon="4.75726">
        <ele>144.80000305176</ele>
        <time>2017-07-16T08:32:12Z</time>
      </trkpt>
      <trkpt lat="45.9803" lon="4.7571">
        <ele>144.39999389648</ele>
        <time>2017-07-16T08:32:18Z</time>
      </trkpt>
      <trkpt lat="45.98074" lon="4.75702">
        <ele>144</ele>
        <time>2017-07-16T08:32:25Z</time>
      </trkpt>
      <trkpt lat="45.98132" lon="4.75697">
        <ele>143.80000305176</ele>
        <time>2017-07-16T08:32:34Z</time>
      </trkpt>
      <trkpt lat="45.98138" lon="4.75697">
        <ele>143.80000305176</ele>
        <time>2017-07-16T08:32:35Z</time>
      </trkpt>
      <trkpt lat="45.98173" lon="4.75694">
        <ele>144</ele>
        <time>2017-07-16T08:32:41Z</time>
      </trkpt>
      <trkpt lat="45.98184" lon="4.75694">
        <ele>144.19999694824</ele>
        <time>2017-07-16T08:32:43Z</time>
      </trkpt>
      <trkpt lat="45.98218" lon="4.75688">
        <ele>144.19999694824</ele>
        <time>2017-07-16T08:32:49Z</time>
      </trkpt>
      <trkpt lat="45.98257" lon="4.75684">
        <ele>144</ele>
        <time>2017-07-16T08:32:56Z</time>
      </trkpt>
      <trkpt lat="45.98269" lon="4.75685">
        <ele>143.60000610352</ele>
        <time>2017-07-16T08:32:58Z</time>
      </trkpt>
      <trkpt lat="45.98285" lon="4.75682">
        <ele>143.39999389648</ele>
        <time>2017-07-16T08:33:01Z</time>
      </trkpt>
      <trkpt lat="45.98301" lon="4.75684">
        <ele>143.39999389648</ele>
        <time>2017-07-16T08:33:04Z</time>
      </trkpt>
      <trkpt lat="45.98312" lon="4.75685">
        <ele>143.19999694824</ele>
        <time>2017-07-16T08:33:06Z</time>
      </trkpt>
      <trkpt lat="45.98317" lon="4.75686">
        <ele>143.19999694824</ele>
        <time>2017-07-16T08:33:07Z</time>
      </trkpt>
      <trkpt lat="45.98333" lon="4.75688">
        <ele>143</ele>
        <time>2017-07-16T08:33:10Z</time>
      </trkpt>
      <trkpt lat="45.98345" lon="4.75691">
        <ele>143</ele>
        <time>2017-07-16T08:33:12Z</time>
      </trkpt>
      <trkpt lat="45.98366" lon="4.75695">
        <ele>143</ele>
        <time>2017-07-16T08:33:16Z</time>
      </trkpt>
      <trkpt lat="45.98375" lon="4.757">
        <ele>143.19999694824</ele>
        <time>2017-07-16T08:33:18Z</time>
      </trkpt>
      <trkpt lat="45.98389" lon="4.75702">
        <ele>143.19999694824</ele>
        <time>2017-07-16T08:33:21Z</time>
      </trkpt>
      <trkpt lat="45.98394" lon="4.75701">
        <ele>143.19999694824</ele>
        <time>2017-07-16T08:33:22Z</time>
      </trkpt>
      <trkpt lat="45.98405" lon="4.75701">
        <ele>143.39999389648</ele>
        <time>2017-07-16T08:33:24Z</time>
      </trkpt>
      <trkpt lat="45.98415" lon="4.75702">
        <ele>143.39999389648</ele>
        <time>2017-07-16T08:33:26Z</time>
      </trkpt>
      <trkpt lat="45.98453" lon="4.75708">
        <ele>143.60000610352</ele>
        <time>2017-07-16T08:33:33Z</time>
      </trkpt>
      <trkpt lat="45.98489" lon="4.75717">
        <ele>143.60000610352</ele>
        <time>2017-07-16T08:33:40Z</time>
      </trkpt>
      <trkpt lat="45.98493" lon="4.75731">
        <ele>143.60000610352</ele>
        <time>2017-07-16T08:33:43Z</time>
      </trkpt>
      <trkpt lat="45.98494" lon="4.75742">
        <ele>143.60000610352</ele>
        <time>2017-07-16T08:33:45Z</time>
      </trkpt>
      <trkpt lat="45.98493" lon="4.75759">
        <ele>143.80000305176</ele>
        <time>2017-07-16T08:33:48Z</time>
      </trkpt>
      <trkpt lat="45.98493" lon="4.75765">
        <ele>143.80000305176</ele>
        <time>2017-07-16T08:33:49Z</time>
      </trkpt>
      <trkpt lat="45.98493" lon="4.75778">
        <ele>144.19999694824</ele>
        <time>2017-07-16T08:33:51Z</time>
      </trkpt>
      <trkpt lat="45.98501" lon="4.75795">
        <ele>144.60000610352</ele>
        <time>2017-07-16T08:33:54Z</time>
      </trkpt>
      <trkpt lat="45.98516" lon="4.75799">
        <ele>145.19999694824</ele>
        <time>2017-07-16T08:33:57Z</time>
      </trkpt>
      <trkpt lat="45.9855" lon="4.75806">
        <ele>146</ele>
        <time>2017-07-16T08:34:03Z</time>
      </trkpt>
      <trkpt lat="45.98555" lon="4.75809">
        <ele>146</ele>
        <time>2017-07-16T08:34:04Z</time>
      </trkpt>
      <trkpt lat="45.98584" lon="4.75833">
        <ele>146.19999694824</ele>
        <time>2017-07-16T08:34:10Z</time>
      </trkpt>
      <trkpt lat="45.98593" lon="4.7584">
        <ele>146.19999694824</ele>
        <time>2017-07-16T08:34:12Z</time>
      </trkpt>
      <trkpt lat="45.98601" lon="4.75837">
        <ele>146.19999694824</ele>
        <time>2017-07-16T08:34:14Z</time>
      </trkpt>
      <trkpt lat="45.98605" lon="4.75825">
        <ele>146.19999694824</ele>
        <time>2017-07-16T08:34:16Z</time>
      </trkpt>
      <trkpt lat="45.98606" lon="4.75818">
        <ele>146.19999694824</ele>
        <time>2017-07-16T08:34:17Z</time>
      </trkpt>
      <trkpt lat="45.98603" lon="4.7579">
        <ele>145.39999389648</ele>
        <time>2017-07-16T08:34:21Z</time>
      </trkpt>
      <trkpt lat="45.98603" lon="4.75782">
        <ele>145.19999694824</ele>
        <time>2017-07-16T08:34:22Z</time>
      </trkpt>
      <trkpt lat="45.98601" lon="4.75768">
        <ele>145.19999694824</ele>
        <time>2017-07-16T08:34:24Z</time>
      </trkpt>
      <trkpt lat="45.98598" lon="4.75747">
        <ele>145</ele>
        <time>2017-07-16T08:34:27Z</time>
      </trkpt>
      <trkpt lat="45.98603" lon="4.75735">
        <ele>144.80000305176</ele>
        <time>2017-07-16T08:34:29Z</time>
      </trkpt>
      <trkpt lat="45.98618" lon="4.7573">
        <ele>144.60000610352</ele>
        <time>2017-07-16T08:34:32Z</time>
      </trkpt>
      <trkpt lat="45.98624" lon="4.75731">
        <ele>144.60000610352</ele>
        <time>2017-07-16T08:34:33Z</time>
      </trkpt>
      <trkpt lat="45.98657" lon="4.75732">
        <ele>145.19999694824</ele>
        <time>2017-07-16T08:34:39Z</time>
      </trkpt>
      <trkpt lat="45.98688" lon="4.7573">
        <ele>145.80000305176</ele>
        <time>2017-07-16T08:34:45Z</time>
      </trkpt>
      <trkpt lat="45.98703" lon="4.7573">
        <ele>146.39999389648</ele>
        <time>2017-07-16T08:34:48Z</time>
      </trkpt>
      <trkpt lat="45.98718" lon="4.75729">
        <ele>146.80000305176</ele>
        <time>2017-07-16T08:34:51Z</time>
      </trkpt>
      <trkpt lat="45.98748" lon="4.75728">
        <ele>147</ele>
        <time>2017-07-16T08:34:57Z</time>
      </trkpt>
      <trkpt lat="45.98762" lon="4.75726">
        <ele>147.39999389648</ele>
        <time>2017-07-16T08:35:00Z</time>
      </trkpt>
      <trkpt lat="45.98767" lon="4.75727">
        <ele>147.39999389648</ele>
        <time>2017-07-16T08:35:01Z</time>
      </trkpt>
      <trkpt lat="45.98771" lon="4.75728">
        <ele>147.39999389648</ele>
        <time>2017-07-16T08:35:02Z</time>
      </trkpt>
      <trkpt lat="45.98786" lon="4.75722">
        <ele>147.39999389648</ele>
        <time>2017-07-16T08:35:05Z</time>
      </trkpt>
      <trkpt lat="45.98797" lon="4.75722">
        <ele>147.39999389648</ele>
        <time>2017-07-16T08:35:07Z</time>
      </trkpt>
      <trkpt lat="45.98809" lon="4.75722">
        <ele>147.39999389648</ele>
        <time>2017-07-16T08:35:09Z</time>
      </trkpt>
      <trkpt lat="45.9886" lon="4.75713">
        <ele>147.39999389648</ele>
        <time>2017-07-16T08:35:17Z</time>
      </trkpt>
      <trkpt lat="45.98897" lon="4.75702">
        <ele>147.19999694824</ele>
        <time>2017-07-16T08:35:23Z</time>
      </trkpt>
      <trkpt lat="45.98941" lon="4.7568">
        <ele>146.39999389648</ele>
        <time>2017-07-16T08:35:30Z</time>
      </trkpt>
      <trkpt lat="45.98954" lon="4.75674">
        <ele>146.39999389648</ele>
        <time>2017-07-16T08:35:32Z</time>
      </trkpt>
      <trkpt lat="45.98973" lon="4.75667">
        <ele>146.39999389648</ele>
        <time>2017-07-16T08:35:35Z</time>
      </trkpt>
      <trkpt lat="45.98986" lon="4.75664">
        <ele>146.19999694824</ele>
        <time>2017-07-16T08:35:37Z</time>
      </trkpt>
      <trkpt lat="45.99027" lon="4.75663">
        <ele>146.19999694824</ele>
        <time>2017-07-16T08:35:43Z</time>
      </trkpt>
      <trkpt lat="45.99072" lon="4.75665">
        <ele>146.80000305176</ele>
        <time>2017-07-16T08:35:50Z</time>
      </trkpt>
      <trkpt lat="45.99096" lon="4.75661">
        <ele>147.19999694824</ele>
        <time>2017-07-16T08:35:54Z</time>
      </trkpt>
      <trkpt lat="45.99107" lon="4.75654">
        <ele>147.19999694824</ele>
        <time>2017-07-16T08:35:56Z</time>
      </trkpt>
      <trkpt lat="45.99118" lon="4.75646">
        <ele>147.39999389648</ele>
        <time>2017-07-16T08:35:58Z</time>
      </trkpt>
      <trkpt lat="45.99124" lon="4.75642">
        <ele>147.39999389648</ele>
        <time>2017-07-16T08:35:59Z</time>
      </trkpt>
      <trkpt lat="45.99136" lon="4.75637">
        <ele>147.39999389648</ele>
        <time>2017-07-16T08:36:01Z</time>
      </trkpt>
      <trkpt lat="45.99142" lon="4.75632">
        <ele>147.39999389648</ele>
        <time>2017-07-16T08:36:02Z</time>
      </trkpt>
      <trkpt lat="45.99153" lon="4.75622">
        <ele>147.39999389648</ele>
        <time>2017-07-16T08:36:04Z</time>
      </trkpt>
      <trkpt lat="45.99165" lon="4.75614">
        <ele>147.39999389648</ele>
        <time>2017-07-16T08:36:06Z</time>
      </trkpt>
      <trkpt lat="45.99183" lon="4.75601">
        <ele>147.19999694824</ele>
        <time>2017-07-16T08:36:09Z</time>
      </trkpt>
      <trkpt lat="45.99233" lon="4.75567">
        <ele>146.60000610352</ele>
        <time>2017-07-16T08:36:17Z</time>
      </trkpt>
      <trkpt lat="45.99278" lon="4.75536">
        <ele>145.80000305176</ele>
        <time>2017-07-16T08:36:24Z</time>
      </trkpt>
      <trkpt lat="45.99313" lon="4.75499">
        <ele>145.80000305176</ele>
        <time>2017-07-16T08:36:30Z</time>
      </trkpt>
      <trkpt lat="45.99327" lon="4.75475">
        <ele>145.80000305176</ele>
        <time>2017-07-16T08:36:33Z</time>
      </trkpt>
      <trkpt lat="45.99335" lon="4.75458">
        <ele>145.60000610352</ele>
        <time>2017-07-16T08:36:35Z</time>
      </trkpt>
      <trkpt lat="45.99344" lon="4.75443">
        <ele>145.39999389648</ele>
        <time>2017-07-16T08:36:37Z</time>
      </trkpt>
      <trkpt lat="45.99358" lon="4.75422">
        <ele>145.39999389648</ele>
        <time>2017-07-16T08:36:40Z</time>
      </trkpt>
      <trkpt lat="45.9936" lon="4.75414">
        <ele>145.39999389648</ele>
        <time>2017-07-16T08:36:41Z</time>
      </trkpt>
      <trkpt lat="45.99362" lon="4.75396">
        <ele>145.39999389648</ele>
        <time>2017-07-16T08:36:43Z</time>
      </trkpt>
      <trkpt lat="45.99371" lon="4.75362">
        <ele>145.19999694824</ele>
        <time>2017-07-16T08:36:47Z</time>
      </trkpt>
      <trkpt lat="45.99375" lon="4.75354">
        <ele>145.19999694824</ele>
        <time>2017-07-16T08:36:48Z</time>
      </trkpt>
      <trkpt lat="45.9939" lon="4.75337">
        <ele>145</ele>
        <time>2017-07-16T08:36:51Z</time>
      </trkpt>
      <trkpt lat="45.994" lon="4.75328">
        <ele>145</ele>
        <time>2017-07-16T08:36:53Z</time>
      </trkpt>
      <trkpt lat="45.99411" lon="4.75322">
        <ele>145</ele>
        <time>2017-07-16T08:36:55Z</time>
      </trkpt>
      <trkpt lat="45.99417" lon="4.7532">
        <ele>145</ele>
        <time>2017-07-16T08:36:56Z</time>
      </trkpt>
      <trkpt lat="45.99439" lon="4.75315">
        <ele>145.19999694824</ele>
        <time>2017-07-16T08:37:00Z</time>
      </trkpt>
      <trkpt lat="45.9945" lon="4.75315">
        <ele>145.60000610352</ele>
        <time>2017-07-16T08:37:02Z</time>
      </trkpt>
      <trkpt lat="45.99476" lon="4.75312">
        <ele>146.39999389648</ele>
        <time>2017-07-16T08:37:07Z</time>
      </trkpt>
      <trkpt lat="45.99502" lon="4.7531">
        <ele>146.60000610352</ele>
        <time>2017-07-16T08:37:12Z</time>
      </trkpt>
      <trkpt lat="45.99539" lon="4.75309">
        <ele>147.19999694824</ele>
        <time>2017-07-16T08:37:19Z</time>
      </trkpt>
      <trkpt lat="45.99548" lon="4.75312">
        <ele>147.39999389648</ele>
        <time>2017-07-16T08:37:21Z</time>
      </trkpt>
      <trkpt lat="45.99556" lon="4.75319">
        <ele>147.80000305176</ele>
        <time>2017-07-16T08:37:23Z</time>
      </trkpt>
      <trkpt lat="45.99575" lon="4.75325">
        <ele>148</ele>
        <time>2017-07-16T08:37:27Z</time>
      </trkpt>
      <trkpt lat="45.99591" lon="4.75309">
        <ele>148.39999389648</ele>
        <time>2017-07-16T08:37:31Z</time>
      </trkpt>
      <trkpt lat="45.99595" lon="4.75303">
        <ele>148.60000610352</ele>
        <time>2017-07-16T08:37:32Z</time>
      </trkpt>
      <trkpt lat="45.99602" lon="4.75292">
        <ele>148.80000305176</ele>
        <time>2017-07-16T08:37:34Z</time>
      </trkpt>
      <trkpt lat="45.99612" lon="4.75283">
        <ele>148.80000305176</ele>
        <time>2017-07-16T08:37:36Z</time>
      </trkpt>
      <trkpt lat="45.99632" lon="4.75278">
        <ele>148.60000610352</ele>
        <time>2017-07-16T08:37:39Z</time>
      </trkpt>
      <trkpt lat="45.99646" lon="4.75278">
        <ele>148.19999694824</ele>
        <time>2017-07-16T08:37:41Z</time>
      </trkpt>
      <trkpt lat="45.99654" lon="4.75277">
        <ele>148</ele>
        <time>2017-07-16T08:37:42Z</time>
      </trkpt>
      <trkpt lat="45.99669" lon="4.75272">
        <ele>147.39999389648</ele>
        <time>2017-07-16T08:37:44Z</time>
      </trkpt>
      <trkpt lat="45.9969" lon="4.75263">
        <ele>146.19999694824</ele>
        <time>2017-07-16T08:37:47Z</time>
      </trkpt>
      <trkpt lat="45.99711" lon="4.75252">
        <ele>145.39999389648</ele>
        <time>2017-07-16T08:37:50Z</time>
      </trkpt>
      <trkpt lat="45.99723" lon="4.75246">
        <ele>145.19999694824</ele>
        <time>2017-07-16T08:37:52Z</time>
      </trkpt>
      <trkpt lat="45.99761" lon="4.75228">
        <ele>144.39999389648</ele>
        <time>2017-07-16T08:37:58Z</time>
      </trkpt>
      <trkpt lat="45.99815" lon="4.75204">
        <ele>144.19999694824</ele>
        <time>2017-07-16T08:38:07Z</time>
      </trkpt>
      <trkpt lat="45.99832" lon="4.75196">
        <ele>144</ele>
        <time>2017-07-16T08:38:10Z</time>
      </trkpt>
      <trkpt lat="45.99865" lon="4.7518">
        <ele>144</ele>
        <time>2017-07-16T08:38:16Z</time>
      </trkpt>
      <trkpt lat="45.99908" lon="4.7516">
        <ele>143.80000305176</ele>
        <time>2017-07-16T08:38:24Z</time>
      </trkpt>
      <trkpt lat="45.99952" lon="4.75139">
        <ele>143.80000305176</ele>
        <time>2017-07-16T08:38:32Z</time>
      </trkpt>
      <trkpt lat="45.99997" lon="4.7512">
        <ele>143.60000610352</ele>
        <time>2017-07-16T08:38:40Z</time>
      </trkpt>
      <trkpt lat="46.00003" lon="4.7512">
        <ele>143.60000610352</ele>
        <time>2017-07-16T08:38:41Z</time>
      </trkpt>
      <trkpt lat="46.00016" lon="4.75119">
        <ele>143.60000610352</ele>
        <time>2017-07-16T08:38:43Z</time>
      </trkpt>
      <trkpt lat="46.00022" lon="4.75116">
        <ele>143.60000610352</ele>
        <time>2017-07-16T08:38:44Z</time>
      </trkpt>
      <trkpt lat="46.0004" lon="4.75112">
        <ele>143.60000610352</ele>
        <time>2017-07-16T08:38:47Z</time>
      </trkpt>
      <trkpt lat="46.00058" lon="4.7511">
        <ele>143.60000610352</ele>
        <time>2017-07-16T08:38:50Z</time>
      </trkpt>
      <trkpt lat="46.00108" lon="4.7511">
        <ele>143.39999389648</ele>
        <time>2017-07-16T08:38:58Z</time>
      </trkpt>
      <trkpt lat="46.00151" lon="4.75111">
        <ele>143.60000610352</ele>
        <time>2017-07-16T08:39:05Z</time>
      </trkpt>
      <trkpt lat="46.00191" lon="4.75112">
        <ele>144</ele>
        <time>2017-07-16T08:39:12Z</time>
      </trkpt>
      <trkpt lat="46.00222" lon="4.75111">
        <ele>143.80000305176</ele>
        <time>2017-07-16T08:39:17Z</time>
      </trkpt>
      <trkpt lat="46.00234" lon="4.75111">
        <ele>144</ele>
        <time>2017-07-16T08:39:19Z</time>
      </trkpt>
      <trkpt lat="46.00264" lon="4.75108">
        <ele>144.19999694824</ele>
        <time>2017-07-16T08:39:24Z</time>
      </trkpt>
      <trkpt lat="46.00304" lon="4.75104">
        <ele>144.39999389648</ele>
        <time>2017-07-16T08:39:31Z</time>
      </trkpt>
      <trkpt lat="46.00335" lon="4.751">
        <ele>144.39999389648</ele>
        <time>2017-07-16T08:39:36Z</time>
      </trkpt>
      <trkpt lat="46.00386" lon="4.75093">
        <ele>143.80000305176</ele>
        <time>2017-07-16T08:39:44Z</time>
      </trkpt>
      <trkpt lat="46.0043" lon="4.75092">
        <ele>143.39999389648</ele>
        <time>2017-07-16T08:39:51Z</time>
      </trkpt>
      <trkpt lat="46.00482" lon="4.75091">
        <ele>143.19999694824</ele>
        <time>2017-07-16T08:39:59Z</time>
      </trkpt>
      <trkpt lat="46.00522" lon="4.75089">
        <ele>143</ele>
        <time>2017-07-16T08:40:05Z</time>
      </trkpt>
      <trkpt lat="46.00529" lon="4.75089">
        <ele>143</ele>
        <time>2017-07-16T08:40:06Z</time>
      </trkpt>
      <trkpt lat="46.00578" lon="4.75087">
        <ele>142.80000305176</ele>
        <time>2017-07-16T08:40:13Z</time>
      </trkpt>
      <trkpt lat="46.00633" lon="4.75085">
        <ele>142.80000305176</ele>
        <time>2017-07-16T08:40:21Z</time>
      </trkpt>
      <trkpt lat="46.00689" lon="4.75082">
        <ele>142.60000610352</ele>
        <time>2017-07-16T08:40:29Z</time>
      </trkpt>
      <trkpt lat="46.00728" lon="4.75082">
        <ele>142.80000305176</ele>
        <time>2017-07-16T08:40:35Z</time>
      </trkpt>
      <trkpt lat="46.00769" lon="4.75096">
        <ele>142.80000305176</ele>
        <time>2017-07-16T08:40:41Z</time>
      </trkpt>
      <trkpt lat="46.00823" lon="4.75112">
        <ele>142.80000305176</ele>
        <time>2017-07-16T08:40:49Z</time>
      </trkpt>
      <trkpt lat="46.00829" lon="4.75114">
        <ele>143</ele>
        <time>2017-07-16T08:40:50Z</time>
      </trkpt>
      <trkpt lat="46.00875" lon="4.75127">
        <ele>143.39999389648</ele>
        <time>2017-07-16T08:40:57Z</time>
      </trkpt>
      <trkpt lat="46.00911" lon="4.75139">
        <ele>143.60000610352</ele>
        <time>2017-07-16T08:41:03Z</time>
      </trkpt>
      <trkpt lat="46.00939" lon="4.75147">
        <ele>144</ele>
        <time>2017-07-16T08:41:08Z</time>
      </trkpt>
      <trkpt lat="46.00954" lon="4.75152">
        <ele>144.39999389648</ele>
        <time>2017-07-16T08:41:11Z</time>
      </trkpt>
      <trkpt lat="46.00965" lon="4.75155">
        <ele>144.39999389648</ele>
        <time>2017-07-16T08:41:13Z</time>
      </trkpt>
      <trkpt lat="46.00986" lon="4.75162">
        <ele>144.19999694824</ele>
        <time>2017-07-16T08:41:17Z</time>
      </trkpt>
      <trkpt lat="46.01021" lon="4.75173">
        <ele>144</ele>
        <time>2017-07-16T08:41:23Z</time>
      </trkpt>
      <trkpt lat="46.01073" lon="4.75191">
        <ele>144.60000610352</ele>
        <time>2017-07-16T08:41:32Z</time>
      </trkpt>
      <trkpt lat="46.0112" lon="4.75206">
        <ele>144.39999389648</ele>
        <time>2017-07-16T08:41:40Z</time>
      </trkpt>
      <trkpt lat="46.0117" lon="4.75221">
        <ele>144.80000305176</ele>
        <time>2017-07-16T08:41:49Z</time>
      </trkpt>
      <trkpt lat="46.01212" lon="4.75236">
        <ele>145</ele>
        <time>2017-07-16T08:41:57Z</time>
      </trkpt>
      <trkpt lat="46.01261" lon="4.75253">
        <ele>145</ele>
        <time>2017-07-16T08:42:06Z</time>
      </trkpt>
      <trkpt lat="46.01272" lon="4.75256">
        <ele>145</ele>
        <time>2017-07-16T08:42:08Z</time>
      </trkpt>
      <trkpt lat="46.01315" lon="4.7527">
        <ele>145</ele>
        <time>2017-07-16T08:42:16Z</time>
      </trkpt>
      <trkpt lat="46.01368" lon="4.75286">
        <ele>144.60000610352</ele>
        <time>2017-07-16T08:42:25Z</time>
      </trkpt>
      <trkpt lat="46.01428" lon="4.753">
        <ele>144</ele>
        <time>2017-07-16T08:42:34Z</time>
      </trkpt>
      <trkpt lat="46.01482" lon="4.75311">
        <ele>143.80000305176</ele>
        <time>2017-07-16T08:42:42Z</time>
      </trkpt>
      <trkpt lat="46.01489" lon="4.75313">
        <ele>143.80000305176</ele>
        <time>2017-07-16T08:42:43Z</time>
      </trkpt>
      <trkpt lat="46.01541" lon="4.75325">
        <ele>143.39999389648</ele>
        <time>2017-07-16T08:42:51Z</time>
      </trkpt>
      <trkpt lat="46.01598" lon="4.75337">
        <ele>143.19999694824</ele>
        <time>2017-07-16T08:43:00Z</time>
      </trkpt>
      <trkpt lat="46.01604" lon="4.75338">
        <ele>143.19999694824</ele>
        <time>2017-07-16T08:43:01Z</time>
      </trkpt>
      <trkpt lat="46.01659" lon="4.75348">
        <ele>143.39999389648</ele>
        <time>2017-07-16T08:43:10Z</time>
      </trkpt>
      <trkpt lat="46.01702" lon="4.75351">
        <ele>143.19999694824</ele>
        <time>2017-07-16T08:43:17Z</time>
      </trkpt>
      <trkpt lat="46.0176" lon="4.75349">
        <ele>143.39999389648</ele>
        <time>2017-07-16T08:43:27Z</time>
      </trkpt>
      <trkpt lat="46.01765" lon="4.75349">
        <ele>143.39999389648</ele>
        <time>2017-07-16T08:43:28Z</time>
      </trkpt>
      <trkpt lat="46.01814" lon="4.75347">
        <ele>143.60000610352</ele>
        <time>2017-07-16T08:43:37Z</time>
      </trkpt>
      <trkpt lat="46.01848" lon="4.75347">
        <ele>143.60000610352</ele>
        <time>2017-07-16T08:43:43Z</time>
      </trkpt>
      <trkpt lat="46.01899" lon="4.75345">
        <ele>144</ele>
        <time>2017-07-16T08:43:52Z</time>
      </trkpt>
      <trkpt lat="46.01953" lon="4.75343">
        <ele>145</ele>
        <time>2017-07-16T08:44:02Z</time>
      </trkpt>
      <trkpt lat="46.0199" lon="4.75342">
        <ele>145.80000305176</ele>
        <time>2017-07-16T08:44:09Z</time>
      </trkpt>
      <trkpt lat="46.02016" lon="4.75342">
        <ele>146</ele>
        <time>2017-07-16T08:44:14Z</time>
      </trkpt>
      <trkpt lat="46.02021" lon="4.75342">
        <ele>146.19999694824</ele>
        <time>2017-07-16T08:44:15Z</time>
      </trkpt>
      <trkpt lat="46.02051" lon="4.7534">
        <ele>147.19999694824</ele>
        <time>2017-07-16T08:44:21Z</time>
      </trkpt>
      <trkpt lat="46.02061" lon="4.75339">
        <ele>148</ele>
        <time>2017-07-16T08:44:23Z</time>
      </trkpt>
      <trkpt lat="46.02071" lon="4.75338">
        <ele>148.39999389648</ele>
        <time>2017-07-16T08:44:25Z</time>
      </trkpt>
      <trkpt lat="46.02091" lon="4.75333">
        <ele>149.19999694824</ele>
        <time>2017-07-16T08:44:29Z</time>
      </trkpt>
      <trkpt lat="46.02102" lon="4.75331">
        <ele>149.60000610352</ele>
        <time>2017-07-16T08:44:31Z</time>
      </trkpt>
      <trkpt lat="46.02128" lon="4.75326">
        <ele>150.19999694824</ele>
        <time>2017-07-16T08:44:36Z</time>
      </trkpt>
      <trkpt lat="46.02149" lon="4.75321">
        <ele>150.60000610352</ele>
        <time>2017-07-16T08:44:40Z</time>
      </trkpt>
      <trkpt lat="46.02159" lon="4.75318">
        <ele>150.60000610352</ele>
        <time>2017-07-16T08:44:42Z</time>
      </trkpt>
      <trkpt lat="46.02164" lon="4.75316">
        <ele>150.80000305176</ele>
        <time>2017-07-16T08:44:43Z</time>
      </trkpt>
      <trkpt lat="46.0217" lon="4.75314">
        <ele>150.80000305176</ele>
        <time>2017-07-16T08:44:45Z</time>
      </trkpt>
      <trkpt lat="46.02197" lon="4.75309">
        <ele>151.39999389648</ele>
        <time>2017-07-16T08:44:50Z</time>
      </trkpt>
      <trkpt lat="46.02249" lon="4.75294">
        <ele>151.19999694824</ele>
        <time>2017-07-16T08:44:59Z</time>
      </trkpt>
      <trkpt lat="46.02287" lon="4.75287">
        <ele>151.60000610352</ele>
        <time>2017-07-16T08:45:05Z</time>
      </trkpt>
      <trkpt lat="46.02342" lon="4.75276">
        <ele>150.19999694824</ele>
        <time>2017-07-16T08:45:13Z</time>
      </trkpt>
      <trkpt lat="46.02349" lon="4.75276">
        <ele>150</ele>
        <time>2017-07-16T08:45:14Z</time>
      </trkpt>
      <trkpt lat="46.02383" lon="4.75273">
        <ele>149.39999389648</ele>
        <time>2017-07-16T08:45:19Z</time>
      </trkpt>
      <trkpt lat="46.02404" lon="4.75274">
        <ele>149</ele>
        <time>2017-07-16T08:45:22Z</time>
      </trkpt>
      <trkpt lat="46.02431" lon="4.75275">
        <ele>148.39999389648</ele>
        <time>2017-07-16T08:45:26Z</time>
      </trkpt>
      <trkpt lat="46.02456" lon="4.75276">
        <ele>148.19999694824</ele>
        <time>2017-07-16T08:45:30Z</time>
      </trkpt>
      <trkpt lat="46.02497" lon="4.7528">
        <ele>148</ele>
        <time>2017-07-16T08:45:37Z</time>
      </trkpt>
      <trkpt lat="46.0254" lon="4.75282">
        <ele>148.60000610352</ele>
        <time>2017-07-16T08:45:45Z</time>
      </trkpt>
      <trkpt lat="46.02568" lon="4.75286">
        <ele>148.80000305176</ele>
        <time>2017-07-16T08:45:50Z</time>
      </trkpt>
      <trkpt lat="46.02617" lon="4.75292">
        <ele>148.60000610352</ele>
        <time>2017-07-16T08:45:58Z</time>
      </trkpt>
      <trkpt lat="46.02673" lon="4.75307">
        <ele>147.80000305176</ele>
        <time>2017-07-16T08:46:06Z</time>
      </trkpt>
      <trkpt lat="46.02687" lon="4.75312">
        <ele>147.39999389648</ele>
        <time>2017-07-16T08:46:08Z</time>
      </trkpt>
      <trkpt lat="46.02729" lon="4.75329">
        <ele>146.19999694824</ele>
        <time>2017-07-16T08:46:14Z</time>
      </trkpt>
      <trkpt lat="46.02778" lon="4.75355">
        <ele>145.60000610352</ele>
        <time>2017-07-16T08:46:22Z</time>
      </trkpt>
      <trkpt lat="46.02808" lon="4.75371">
        <ele>145.19999694824</ele>
        <time>2017-07-16T08:46:28Z</time>
      </trkpt>
      <trkpt lat="46.02848" lon="4.7539">
        <ele>146.39999389648</ele>
        <time>2017-07-16T08:46:37Z</time>
      </trkpt>
      <trkpt lat="46.0287" lon="4.754">
        <ele>147.39999389648</ele>
        <time>2017-07-16T08:46:42Z</time>
      </trkpt>
      <trkpt lat="46.02881" lon="4.75407">
        <ele>148</ele>
        <time>2017-07-16T08:46:45Z</time>
      </trkpt>
      <trkpt lat="46.02889" lon="4.75411">
        <ele>148.39999389648</ele>
        <time>2017-07-16T08:46:47Z</time>
      </trkpt>
      <trkpt lat="46.0291" lon="4.7542">
        <ele>149.39999389648</ele>
        <time>2017-07-16T08:46:52Z</time>
      </trkpt>
      <trkpt lat="46.02914" lon="4.75421">
        <ele>149.60000610352</ele>
        <time>2017-07-16T08:46:53Z</time>
      </trkpt>
      <trkpt lat="46.02929" lon="4.75429">
        <ele>150.39999389648</ele>
        <time>2017-07-16T08:46:57Z</time>
      </trkpt>
      <trkpt lat="46.02941" lon="4.75434">
        <ele>151</ele>
        <time>2017-07-16T08:47:00Z</time>
      </trkpt>
      <trkpt lat="46.02953" lon="4.7544">
        <ele>151.60000610352</ele>
        <time>2017-07-16T08:47:03Z</time>
      </trkpt>
      <trkpt lat="46.02965" lon="4.75445">
        <ele>152.19999694824</ele>
        <time>2017-07-16T08:47:06Z</time>
      </trkpt>
      <trkpt lat="46.02973" lon="4.75449">
        <ele>152.39999389648</ele>
        <time>2017-07-16T08:47:08Z</time>
      </trkpt>
      <trkpt lat="46.02985" lon="4.75455">
        <ele>152.60000610352</ele>
        <time>2017-07-16T08:47:11Z</time>
      </trkpt>
      <trkpt lat="46.02989" lon="4.75456">
        <ele>153</ele>
        <time>2017-07-16T08:47:12Z</time>
      </trkpt>
      <trkpt lat="46.02997" lon="4.75461">
        <ele>153.39999389648</ele>
        <time>2017-07-16T08:47:14Z</time>
      </trkpt>
      <trkpt lat="46.03005" lon="4.75465">
        <ele>153.39999389648</ele>
        <time>2017-07-16T08:47:16Z</time>
      </trkpt>
      <trkpt lat="46.03013" lon="4.75469">
        <ele>153.80000305176</ele>
        <time>2017-07-16T08:47:18Z</time>
      </trkpt>
      <trkpt lat="46.03037" lon="4.75481">
        <ele>154.60000610352</ele>
        <time>2017-07-16T08:47:24Z</time>
      </trkpt>
      <trkpt lat="46.03045" lon="4.75486">
        <ele>154.80000305176</ele>
        <time>2017-07-16T08:47:26Z</time>
      </trkpt>
      <trkpt lat="46.03071" lon="4.75498">
        <ele>155.19999694824</ele>
        <time>2017-07-16T08:47:32Z</time>
      </trkpt>
      <trkpt lat="46.031" lon="4.75515">
        <ele>155.80000305176</ele>
        <time>2017-07-16T08:47:39Z</time>
      </trkpt>
      <trkpt lat="46.03104" lon="4.75518">
        <ele>156</ele>
        <time>2017-07-16T08:47:40Z</time>
      </trkpt>
      <trkpt lat="46.03139" lon="4.75541">
        <ele>156.60000610352</ele>
        <time>2017-07-16T08:47:48Z</time>
      </trkpt>
      <trkpt lat="46.03165" lon="4.75559">
        <ele>156.80000305176</ele>
        <time>2017-07-16T08:47:54Z</time>
      </trkpt>
      <trkpt lat="46.03187" lon="4.75577">
        <ele>157.39999389648</ele>
        <time>2017-07-16T08:47:59Z</time>
      </trkpt>
      <trkpt lat="46.03228" lon="4.75605">
        <ele>157.60000610352</ele>
        <time>2017-07-16T08:48:08Z</time>
      </trkpt>
      <trkpt lat="46.03267" lon="4.75623">
        <ele>157.80000305176</ele>
        <time>2017-07-16T08:48:16Z</time>
      </trkpt>
      <trkpt lat="46.03291" lon="4.7563">
        <ele>158</ele>
        <time>2017-07-16T08:48:21Z</time>
      </trkpt>
      <trkpt lat="46.03312" lon="4.75635">
        <ele>158</ele>
        <time>2017-07-16T08:48:25Z</time>
      </trkpt>
      <trkpt lat="46.03355" lon="4.75638">
        <ele>158.19999694824</ele>
        <time>2017-07-16T08:48:33Z</time>
      </trkpt>
      <trkpt lat="46.03394" lon="4.75634">
        <ele>158.60000610352</ele>
        <time>2017-07-16T08:48:40Z</time>
      </trkpt>
      <trkpt lat="46.03438" lon="4.75625">
        <ele>158.39999389648</ele>
        <time>2017-07-16T08:48:48Z</time>
      </trkpt>
      <trkpt lat="46.03486" lon="4.75616">
        <ele>158.39999389648</ele>
        <time>2017-07-16T08:48:57Z</time>
      </trkpt>
      <trkpt lat="46.03535" lon="4.75605">
        <ele>158.80000305176</ele>
        <time>2017-07-16T08:49:07Z</time>
      </trkpt>
      <trkpt lat="46.0356" lon="4.75602">
        <ele>159</ele>
        <time>2017-07-16T08:49:12Z</time>
      </trkpt>
      <trkpt lat="46.03576" lon="4.75602">
        <ele>159</ele>
        <time>2017-07-16T08:49:15Z</time>
      </trkpt>
      <trkpt lat="46.03615" lon="4.75606">
        <ele>159.19999694824</ele>
        <time>2017-07-16T08:49:23Z</time>
      </trkpt>
      <trkpt lat="46.03626" lon="4.75606">
        <ele>159.19999694824</ele>
        <time>2017-07-16T08:49:25Z</time>
      </trkpt>
      <trkpt lat="46.03666" lon="4.75612">
        <ele>159.60000610352</ele>
        <time>2017-07-16T08:49:33Z</time>
      </trkpt>
      <trkpt lat="46.03686" lon="4.75614">
        <ele>160</ele>
        <time>2017-07-16T08:49:37Z</time>
      </trkpt>
      <trkpt lat="46.03707" lon="4.75616">
        <ele>160.19999694824</ele>
        <time>2017-07-16T08:49:41Z</time>
      </trkpt>
      <trkpt lat="46.03752" lon="4.7562">
        <ele>160.19999694824</ele>
        <time>2017-07-16T08:49:50Z</time>
      </trkpt>
      <trkpt lat="46.03802" lon="4.75622">
        <ele>160.39999389648</ele>
        <time>2017-07-16T08:50:00Z</time>
      </trkpt>
      <trkpt lat="46.03852" lon="4.75627">
        <ele>160</ele>
        <time>2017-07-16T08:50:10Z</time>
      </trkpt>
      <trkpt lat="46.03905" lon="4.75637">
        <ele>159.39999389648</ele>
        <time>2017-07-16T08:50:20Z</time>
      </trkpt>
      <trkpt lat="46.03943" lon="4.75652">
        <ele>159</ele>
        <time>2017-07-16T08:50:27Z</time>
      </trkpt>
      <trkpt lat="46.03954" lon="4.75658">
        <ele>158.80000305176</ele>
        <time>2017-07-16T08:50:29Z</time>
      </trkpt>
      <trkpt lat="46.03992" lon="4.75683">
        <ele>158.39999389648</ele>
        <time>2017-07-16T08:50:36Z</time>
      </trkpt>
      <trkpt lat="46.04033" lon="4.75712">
        <ele>157.80000305176</ele>
        <time>2017-07-16T08:50:43Z</time>
      </trkpt>
      <trkpt lat="46.04039" lon="4.75716">
        <ele>157.60000610352</ele>
        <time>2017-07-16T08:50:44Z</time>
      </trkpt>
      <trkpt lat="46.04071" lon="4.75738">
        <ele>156.60000610352</ele>
        <time>2017-07-16T08:50:49Z</time>
      </trkpt>
      <trkpt lat="46.04089" lon="4.75753">
        <ele>156</ele>
        <time>2017-07-16T08:50:52Z</time>
      </trkpt>
      <trkpt lat="46.0412" lon="4.75778">
        <ele>155.60000610352</ele>
        <time>2017-07-16T08:50:57Z</time>
      </trkpt>
      <trkpt lat="46.04132" lon="4.7579">
        <ele>155.60000610352</ele>
        <time>2017-07-16T08:50:59Z</time>
      </trkpt>
      <trkpt lat="46.04165" lon="4.75839">
        <ele>155</ele>
        <time>2017-07-16T08:51:06Z</time>
      </trkpt>
      <trkpt lat="46.04187" lon="4.7588">
        <ele>154.60000610352</ele>
        <time>2017-07-16T08:51:12Z</time>
      </trkpt>
      <trkpt lat="46.04208" lon="4.75915">
        <ele>154.60000610352</ele>
        <time>2017-07-16T08:51:18Z</time>
      </trkpt>
      <trkpt lat="46.04212" lon="4.7592">
        <ele>154.60000610352</ele>
        <time>2017-07-16T08:51:19Z</time>
      </trkpt>
      <trkpt lat="46.04244" lon="4.75959">
        <ele>154.80000305176</ele>
        <time>2017-07-16T08:51:27Z</time>
      </trkpt>
      <trkpt lat="46.04281" lon="4.75995">
        <ele>154.39999389648</ele>
        <time>2017-07-16T08:51:35Z</time>
      </trkpt>
      <trkpt lat="46.04324" lon="4.76039">
        <ele>153.80000305176</ele>
        <time>2017-07-16T08:51:44Z</time>
      </trkpt>
      <trkpt lat="46.04334" lon="4.76048">
        <ele>153.60000610352</ele>
        <time>2017-07-16T08:51:46Z</time>
      </trkpt>
      <trkpt lat="46.04364" lon="4.76074">
        <ele>153.39999389648</ele>
        <time>2017-07-16T08:51:52Z</time>
      </trkpt>
      <trkpt lat="46.04401" lon="4.76114">
        <ele>153.19999694824</ele>
        <time>2017-07-16T08:52:00Z</time>
      </trkpt>
      <trkpt lat="46.04428" lon="4.76153">
        <ele>152.80000305176</ele>
        <time>2017-07-16T08:52:07Z</time>
      </trkpt>
      <trkpt lat="46.04464" lon="4.76206">
        <ele>152.80000305176</ele>
        <time>2017-07-16T08:52:16Z</time>
      </trkpt>
      <trkpt lat="46.04482" lon="4.76231">
        <ele>152.60000610352</ele>
        <time>2017-07-16T08:52:20Z</time>
      </trkpt>
      <trkpt lat="46.04503" lon="4.76262">
        <ele>152.60000610352</ele>
        <time>2017-07-16T08:52:25Z</time>
      </trkpt>
      <trkpt lat="46.0454" lon="4.76315">
        <ele>152.19999694824</ele>
        <time>2017-07-16T08:52:34Z</time>
      </trkpt>
      <trkpt lat="46.04566" lon="4.76351">
        <ele>152.60000610352</ele>
        <time>2017-07-16T08:52:41Z</time>
      </trkpt>
      <trkpt lat="46.04598" lon="4.76396">
        <ele>153.39999389648</ele>
        <time>2017-07-16T08:52:50Z</time>
      </trkpt>
      <trkpt lat="46.04606" lon="4.76406">
        <ele>153.60000610352</ele>
        <time>2017-07-16T08:52:52Z</time>
      </trkpt>
      <trkpt lat="46.04621" lon="4.76428">
        <ele>154</ele>
        <time>2017-07-16T08:52:56Z</time>
      </trkpt>
      <trkpt lat="46.04625" lon="4.76434">
        <ele>154.19999694824</ele>
        <time>2017-07-16T08:52:57Z</time>
      </trkpt>
      <trkpt lat="46.04642" lon="4.76453">
        <ele>154.80000305176</ele>
        <time>2017-07-16T08:53:01Z</time>
      </trkpt>
      <trkpt lat="46.04654" lon="4.76468">
        <ele>155.39999389648</ele>
        <time>2017-07-16T08:53:04Z</time>
      </trkpt>
      <trkpt lat="46.04676" lon="4.76495">
        <ele>155.80000305176</ele>
        <time>2017-07-16T08:53:10Z</time>
      </trkpt>
      <trkpt lat="46.04687" lon="4.76507">
        <ele>156.19999694824</ele>
        <time>2017-07-16T08:53:13Z</time>
      </trkpt>
      <trkpt lat="46.04713" lon="4.76531">
        <ele>157</ele>
        <time>2017-07-16T08:53:20Z</time>
      </trkpt>
      <trkpt lat="46.04749" lon="4.76556">
        <ele>158</ele>
        <time>2017-07-16T08:53:29Z</time>
      </trkpt>
      <trkpt lat="46.04778" lon="4.76573">
        <ele>158.80000305176</ele>
        <time>2017-07-16T08:53:36Z</time>
      </trkpt>
      <trkpt lat="46.04782" lon="4.76575">
        <ele>159</ele>
        <time>2017-07-16T08:53:37Z</time>
      </trkpt>
      <trkpt lat="46.04791" lon="4.76578">
        <ele>159.19999694824</ele>
        <time>2017-07-16T08:53:39Z</time>
      </trkpt>
      <trkpt lat="46.04808" lon="4.76584">
        <ele>159.60000610352</ele>
        <time>2017-07-16T08:53:43Z</time>
      </trkpt>
      <trkpt lat="46.04829" lon="4.7659">
        <ele>160.19999694824</ele>
        <time>2017-07-16T08:53:48Z</time>
      </trkpt>
      <trkpt lat="46.04842" lon="4.76593">
        <ele>160.60000610352</ele>
        <time>2017-07-16T08:53:51Z</time>
      </trkpt>
      <trkpt lat="46.04867" lon="4.76593">
        <ele>161.19999694824</ele>
        <time>2017-07-16T08:53:57Z</time>
      </trkpt>
      <trkpt lat="46.04872" lon="4.76593">
        <ele>161.39999389648</ele>
        <time>2017-07-16T08:53:58Z</time>
      </trkpt>
      <trkpt lat="46.04881" lon="4.76592">
        <ele>161.60000610352</ele>
        <time>2017-07-16T08:54:00Z</time>
      </trkpt>
      <trkpt lat="46.04901" lon="4.76591">
        <ele>161.60000610352</ele>
        <time>2017-07-16T08:54:04Z</time>
      </trkpt>
      <trkpt lat="46.04934" lon="4.76585">
        <ele>162.39999389648</ele>
        <time>2017-07-16T08:54:11Z</time>
      </trkpt>
      <trkpt lat="46.04977" lon="4.76577">
        <ele>162.60000610352</ele>
        <time>2017-07-16T08:54:20Z</time>
      </trkpt>
      <trkpt lat="46.05016" lon="4.76574">
        <ele>162</ele>
        <time>2017-07-16T08:54:27Z</time>
      </trkpt>
      <trkpt lat="46.05033" lon="4.76579">
        <ele>161.80000305176</ele>
        <time>2017-07-16T08:54:30Z</time>
      </trkpt>
      <trkpt lat="46.05044" lon="4.76587">
        <ele>161.60000610352</ele>
        <time>2017-07-16T08:54:32Z</time>
      </trkpt>
      <trkpt lat="46.0508" lon="4.76615">
        <ele>161.19999694824</ele>
        <time>2017-07-16T08:54:39Z</time>
      </trkpt>
      <trkpt lat="46.05092" lon="4.7662">
        <ele>161.19999694824</ele>
        <time>2017-07-16T08:54:41Z</time>
      </trkpt>
      <trkpt lat="46.05133" lon="4.76634">
        <ele>160.80000305176</ele>
        <time>2017-07-16T08:54:48Z</time>
      </trkpt>
      <trkpt lat="46.05163" lon="4.76648">
        <ele>160.19999694824</ele>
        <time>2017-07-16T08:54:53Z</time>
      </trkpt>
      <trkpt lat="46.05175" lon="4.76655">
        <ele>160</ele>
        <time>2017-07-16T08:54:55Z</time>
      </trkpt>
      <trkpt lat="46.05219" lon="4.76682">
        <ele>160</ele>
        <time>2017-07-16T08:55:03Z</time>
      </trkpt>
      <trkpt lat="46.05273" lon="4.76705">
        <ele>160.39999389648</ele>
        <time>2017-07-16T08:55:13Z</time>
      </trkpt>
      <trkpt lat="46.0531" lon="4.7672">
        <ele>161</ele>
        <time>2017-07-16T08:55:20Z</time>
      </trkpt>
      <trkpt lat="46.05353" lon="4.76741">
        <ele>160.80000305176</ele>
        <time>2017-07-16T08:55:28Z</time>
      </trkpt>
      <trkpt lat="46.05392" lon="4.76765">
        <ele>160</ele>
        <time>2017-07-16T08:55:35Z</time>
      </trkpt>
      <trkpt lat="46.05412" lon="4.76777">
        <ele>159.19999694824</ele>
        <time>2017-07-16T08:55:38Z</time>
      </trkpt>
      <trkpt lat="46.05439" lon="4.76793">
        <ele>158</ele>
        <time>2017-07-16T08:55:42Z</time>
      </trkpt>
      <trkpt lat="46.05467" lon="4.76811">
        <ele>156.80000305176</ele>
        <time>2017-07-16T08:55:46Z</time>
      </trkpt>
      <trkpt lat="46.05496" lon="4.76829">
        <ele>155.80000305176</ele>
        <time>2017-07-16T08:55:50Z</time>
      </trkpt>
      <trkpt lat="46.05504" lon="4.76832">
        <ele>155.60000610352</ele>
        <time>2017-07-16T08:55:51Z</time>
      </trkpt>
      <trkpt lat="46.05527" lon="4.76845">
        <ele>154.80000305176</ele>
        <time>2017-07-16T08:55:54Z</time>
      </trkpt>
      <trkpt lat="46.05559" lon="4.76861">
        <ele>153.39999389648</ele>
        <time>2017-07-16T08:55:58Z</time>
      </trkpt>
      <trkpt lat="46.05568" lon="4.76864">
        <ele>153</ele>
        <time>2017-07-16T08:55:59Z</time>
      </trkpt>
      <trkpt lat="46.05584" lon="4.76872">
        <ele>151.80000305176</ele>
        <time>2017-07-16T08:56:01Z</time>
      </trkpt>
      <trkpt lat="46.05609" lon="4.76882">
        <ele>150.60000610352</ele>
        <time>2017-07-16T08:56:04Z</time>
      </trkpt>
      <trkpt lat="46.05634" lon="4.76892">
        <ele>149.39999389648</ele>
        <time>2017-07-16T08:56:07Z</time>
      </trkpt>
      <trkpt lat="46.05642" lon="4.76895">
        <ele>149.19999694824</ele>
        <time>2017-07-16T08:56:08Z</time>
      </trkpt>
      <trkpt lat="46.05666" lon="4.76905">
        <ele>148.19999694824</ele>
        <time>2017-07-16T08:56:11Z</time>
      </trkpt>
      <trkpt lat="46.05689" lon="4.76913">
        <ele>147.39999389648</ele>
        <time>2017-07-16T08:56:14Z</time>
      </trkpt>
      <trkpt lat="46.05697" lon="4.76915">
        <ele>147.19999694824</ele>
        <time>2017-07-16T08:56:15Z</time>
      </trkpt>
      <trkpt lat="46.0573" lon="4.76922">
        <ele>146.39999389648</ele>
        <time>2017-07-16T08:56:19Z</time>
      </trkpt>
      <trkpt lat="46.05738" lon="4.76923">
        <ele>146.19999694824</ele>
        <time>2017-07-16T08:56:20Z</time>
      </trkpt>
      <trkpt lat="46.0577" lon="4.76926">
        <ele>145.60000610352</ele>
        <time>2017-07-16T08:56:24Z</time>
      </trkpt>
      <trkpt lat="46.05786" lon="4.76926">
        <ele>145.19999694824</ele>
        <time>2017-07-16T08:56:26Z</time>
      </trkpt>
      <trkpt lat="46.05815" lon="4.7693">
        <ele>144.60000610352</ele>
        <time>2017-07-16T08:56:30Z</time>
      </trkpt>
      <trkpt lat="46.0586" lon="4.76943">
        <ele>144.19999694824</ele>
        <time>2017-07-16T08:56:37Z</time>
      </trkpt>
      <trkpt lat="46.05901" lon="4.76961">
        <ele>144.19999694824</ele>
        <time>2017-07-16T08:56:44Z</time>
      </trkpt>
      <trkpt lat="46.05957" lon="4.76985">
        <ele>144.19999694824</ele>
        <time>2017-07-16T08:56:54Z</time>
      </trkpt>
      <trkpt lat="46.05984" lon="4.76997">
        <ele>144.19999694824</ele>
        <time>2017-07-16T08:56:59Z</time>
      </trkpt>
      <trkpt lat="46.06005" lon="4.77007">
        <ele>144</ele>
        <time>2017-07-16T08:57:03Z</time>
      </trkpt>
      <trkpt lat="46.06048" lon="4.77027">
        <ele>144.60000610352</ele>
        <time>2017-07-16T08:57:11Z</time>
      </trkpt>
      <trkpt lat="46.06089" lon="4.77042">
        <ele>144.60000610352</ele>
        <time>2017-07-16T08:57:19Z</time>
      </trkpt>
      <trkpt lat="46.06136" lon="4.77053">
        <ele>144.60000610352</ele>
        <time>2017-07-16T08:57:28Z</time>
      </trkpt>
      <trkpt lat="46.06175" lon="4.77056">
        <ele>144.39999389648</ele>
        <time>2017-07-16T08:57:35Z</time>
      </trkpt>
      <trkpt lat="46.06219" lon="4.77062">
        <ele>144.19999694824</ele>
        <time>2017-07-16T08:57:43Z</time>
      </trkpt>
      <trkpt lat="46.06267" lon="4.77079">
        <ele>144.19999694824</ele>
        <time>2017-07-16T08:57:52Z</time>
      </trkpt>
      <trkpt lat="46.06307" lon="4.77101">
        <ele>144.39999389648</ele>
        <time>2017-07-16T08:58:00Z</time>
      </trkpt>
      <trkpt lat="46.06354" lon="4.77137">
        <ele>144</ele>
        <time>2017-07-16T08:58:10Z</time>
      </trkpt>
      <trkpt lat="46.06359" lon="4.7714">
        <ele>144</ele>
        <time>2017-07-16T08:58:11Z</time>
      </trkpt>
      <trkpt lat="46.064" lon="4.77162">
        <ele>144.39999389648</ele>
        <time>2017-07-16T08:58:19Z</time>
      </trkpt>
      <trkpt lat="46.0645" lon="4.77178">
        <ele>144</ele>
        <time>2017-07-16T08:58:28Z</time>
      </trkpt>
      <trkpt lat="46.06489" lon="4.7719">
        <ele>144.19999694824</ele>
        <time>2017-07-16T08:58:35Z</time>
      </trkpt>
      <trkpt lat="46.06534" lon="4.77203">
        <ele>144.60000610352</ele>
        <time>2017-07-16T08:58:43Z</time>
      </trkpt>
      <trkpt lat="46.06584" lon="4.77213">
        <ele>145</ele>
        <time>2017-07-16T08:58:52Z</time>
      </trkpt>
      <trkpt lat="46.06629" lon="4.7721">
        <ele>144.60000610352</ele>
        <time>2017-07-16T08:59:00Z</time>
      </trkpt>
      <trkpt lat="46.06686" lon="4.77203">
        <ele>144.60000610352</ele>
        <time>2017-07-16T08:59:10Z</time>
      </trkpt>
      <trkpt lat="46.06729" lon="4.7719">
        <ele>144.39999389648</ele>
        <time>2017-07-16T08:59:18Z</time>
      </trkpt>
      <trkpt lat="46.0674" lon="4.77185">
        <ele>144.39999389648</ele>
        <time>2017-07-16T08:59:20Z</time>
      </trkpt>
      <trkpt lat="46.06754" lon="4.77173">
        <ele>144.39999389648</ele>
        <time>2017-07-16T08:59:23Z</time>
      </trkpt>
      <trkpt lat="46.06789" lon="4.77135">
        <ele>144.60000610352</ele>
        <time>2017-07-16T08:59:31Z</time>
      </trkpt>
      <trkpt lat="46.06827" lon="4.771">
        <ele>144.19999694824</ele>
        <time>2017-07-16T08:59:39Z</time>
      </trkpt>
      <trkpt lat="46.06863" lon="4.77082">
        <ele>144.19999694824</ele>
        <time>2017-07-16T08:59:46Z</time>
      </trkpt>
      <trkpt lat="46.06906" lon="4.77077">
        <ele>144</ele>
        <time>2017-07-16T08:59:54Z</time>
      </trkpt>
      <trkpt lat="46.06949" lon="4.77074">
        <ele>144</ele>
        <time>2017-07-16T09:00:02Z</time>
      </trkpt>
      <trkpt lat="46.06982" lon="4.77067">
        <ele>144.39999389648</ele>
        <time>2017-07-16T09:00:08Z</time>
      </trkpt>
      <trkpt lat="46.06986" lon="4.77061">
        <ele>144.60000610352</ele>
        <time>2017-07-16T09:00:09Z</time>
      </trkpt>
      <trkpt lat="46.06993" lon="4.77037">
        <ele>144.80000305176</ele>
        <time>2017-07-16T09:00:12Z</time>
      </trkpt>
      <trkpt lat="46.07005" lon="4.77013">
        <ele>144.80000305176</ele>
        <time>2017-07-16T09:00:15Z</time>
      </trkpt>
      <trkpt lat="46.07013" lon="4.76997">
        <ele>144.60000610352</ele>
        <time>2017-07-16T09:00:17Z</time>
      </trkpt>
      <trkpt lat="46.07043" lon="4.76938">
        <ele>143.39999389648</ele>
        <time>2017-07-16T09:00:25Z</time>
      </trkpt>
      <trkpt lat="46.07057" lon="4.76911">
        <ele>143</ele>
        <time>2017-07-16T09:00:29Z</time>
      </trkpt>
      <trkpt lat="46.07071" lon="4.76886">
        <ele>142.80000305176</ele>
        <time>2017-07-16T09:00:33Z</time>
      </trkpt>
      <trkpt lat="46.07095" lon="4.76836">
        <ele>142.80000305176</ele>
        <time>2017-07-16T09:00:41Z</time>
      </trkpt>
      <trkpt lat="46.07112" lon="4.76804">
        <ele>142.80000305176</ele>
        <time>2017-07-16T09:00:47Z</time>
      </trkpt>
      <trkpt lat="46.07114" lon="4.76799">
        <ele>142.39999389648</ele>
        <time>2017-07-16T09:01:26Z</time>
      </trkpt>
      <trkpt lat="46.07121" lon="4.76781">
        <ele>142.60000610352</ele>
        <time>2017-07-16T09:01:31Z</time>
      </trkpt>
      <trkpt lat="46.0714" lon="4.76749">
        <ele>142.60000610352</ele>
        <time>2017-07-16T09:01:37Z</time>
      </trkpt>
      <trkpt lat="46.07166" lon="4.76702">
        <ele>143.39999389648</ele>
        <time>2017-07-16T09:01:45Z</time>
      </trkpt>
      <trkpt lat="46.07188" lon="4.76659">
        <ele>143.39999389648</ele>
        <time>2017-07-16T09:01:52Z</time>
      </trkpt>
      <trkpt lat="46.07227" lon="4.76602">
        <ele>143.19999694824</ele>
        <time>2017-07-16T09:02:02Z</time>
      </trkpt>
      <trkpt lat="46.07262" lon="4.76558">
        <ele>143.19999694824</ele>
        <time>2017-07-16T09:02:10Z</time>
      </trkpt>
      <trkpt lat="46.07304" lon="4.76511">
        <ele>143.39999389648</ele>
        <time>2017-07-16T09:02:19Z</time>
      </trkpt>
      <trkpt lat="46.07348" lon="4.76465">
        <ele>143.60000610352</ele>
        <time>2017-07-16T09:02:28Z</time>
      </trkpt>
      <trkpt lat="46.0738" lon="4.76428">
        <ele>143.60000610352</ele>
        <time>2017-07-16T09:02:35Z</time>
      </trkpt>
      <trkpt lat="46.07416" lon="4.76391">
        <ele>143.19999694824</ele>
        <time>2017-07-16T09:02:43Z</time>
      </trkpt>
      <trkpt lat="46.0745" lon="4.76356">
        <ele>142.80000305176</ele>
        <time>2017-07-16T09:02:51Z</time>
      </trkpt>
      <trkpt lat="46.07465" lon="4.76341">
        <ele>142.80000305176</ele>
        <time>2017-07-16T09:02:55Z</time>
      </trkpt>
      <trkpt lat="46.0747" lon="4.76341">
        <ele>142.80000305176</ele>
        <time>2017-07-16T09:02:56Z</time>
      </trkpt>
      <trkpt lat="46.07487" lon="4.76337">
        <ele>142.80000305176</ele>
        <time>2017-07-16T09:03:00Z</time>
      </trkpt>
      <trkpt lat="46.07487" lon="4.76318">
        <ele>143</ele>
        <time>2017-07-16T09:03:03Z</time>
      </trkpt>
      <trkpt lat="46.07476" lon="4.76306">
        <ele>143.19999694824</ele>
        <time>2017-07-16T09:03:06Z</time>
      </trkpt>
      <trkpt lat="46.07473" lon="4.76301">
        <ele>143.19999694824</ele>
        <time>2017-07-16T09:03:07Z</time>
      </trkpt>
      <trkpt lat="46.07471" lon="4.76288">
        <ele>143</ele>
        <time>2017-07-16T09:03:09Z</time>
      </trkpt>
      <trkpt lat="46.07468" lon="4.76274">
        <ele>142.60000610352</ele>
        <time>2017-07-16T09:03:13Z</time>
      </trkpt>
      <trkpt lat="46.07468" lon="4.76268">
        <ele>141.80000305176</ele>
        <time>2017-07-16T09:03:27Z</time>
      </trkpt>
      <trkpt lat="46.07466" lon="4.7626">
        <ele>141.80000305176</ele>
        <time>2017-07-16T09:03:29Z</time>
      </trkpt>
      <trkpt lat="46.07467" lon="4.76233">
        <ele>141.60000610352</ele>
        <time>2017-07-16T09:03:34Z</time>
      </trkpt>
      <trkpt lat="46.07468" lon="4.76219">
        <ele>141.60000610352</ele>
        <time>2017-07-16T09:03:36Z</time>
      </trkpt>
      <trkpt lat="46.07465" lon="4.76207">
        <ele>141.60000610352</ele>
        <time>2017-07-16T09:03:38Z</time>
      </trkpt>
      <trkpt lat="46.07453" lon="4.76196">
        <ele>141.39999389648</ele>
        <time>2017-07-16T09:03:41Z</time>
      </trkpt>
      <trkpt lat="46.07446" lon="4.76193">
        <ele>141.19999694824</ele>
        <time>2017-07-16T09:03:43Z</time>
      </trkpt>
      <trkpt lat="46.0744" lon="4.7619">
        <ele>141</ele>
        <time>2017-07-16T09:03:45Z</time>
      </trkpt>
      <trkpt lat="46.07436" lon="4.76187">
        <ele>140.80000305176</ele>
        <time>2017-07-16T09:03:46Z</time>
      </trkpt>
      <trkpt lat="46.07425" lon="4.76175">
        <ele>140.39999389648</ele>
        <time>2017-07-16T09:03:50Z</time>
      </trkpt>
      <trkpt lat="46.07411" lon="4.76168">
        <ele>140.19999694824</ele>
        <time>2017-07-16T09:03:54Z</time>
      </trkpt>
      <trkpt lat="46.07392" lon="4.7617">
        <ele>140.19999694824</ele>
        <time>2017-07-16T09:03:58Z</time>
      </trkpt>
      <trkpt lat="46.07388" lon="4.76173">
        <ele>140.39999389648</ele>
        <time>2017-07-16T09:03:59Z</time>
      </trkpt>
      <trkpt lat="46.07367" lon="4.76183">
        <ele>140.39999389648</ele>
        <time>2017-07-16T09:04:04Z</time>
      </trkpt>
      <trkpt lat="46.07355" lon="4.76192">
        <ele>140.39999389648</ele>
        <time>2017-07-16T09:04:07Z</time>
      </trkpt>
      <trkpt lat="46.07352" lon="4.76195">
        <ele>140.39999389648</ele>
        <time>2017-07-16T09:04:08Z</time>
      </trkpt>
      <trkpt lat="46.07339" lon="4.76203">
        <ele>140.39999389648</ele>
        <time>2017-07-16T09:04:12Z</time>
      </trkpt>
      <trkpt lat="46.07332" lon="4.76209">
        <ele>140.19999694824</ele>
        <time>2017-07-16T09:04:16Z</time>
      </trkpt>
      <trkpt lat="46.07332" lon="4.7621">
        <ele>140.19999694824</ele>
        <time>2017-07-16T09:04:17Z</time>
      </trkpt>
      <trkpt lat="46.07335" lon="4.76221">
        <ele>103.19999694824</ele>
        <time>2017-07-17T05:10:03Z</time>
      </trkpt>
      <trkpt lat="46.0747" lon="4.763">
        <ele>179.60000610352</ele>
        <time>2017-07-17T05:47:45Z</time>
      </trkpt>
      <trkpt lat="46.07472" lon="4.76306">
        <ele>180</ele>
        <time>2017-07-17T05:48:01Z</time>
      </trkpt>
      <trkpt lat="46.07471" lon="4.76308">
        <ele>180</ele>
        <time>2017-07-17T05:48:02Z</time>
      </trkpt>
      <trkpt lat="46.0747" lon="4.7631">
        <ele>180.19999694824</ele>
        <time>2017-07-17T05:48:03Z</time>
      </trkpt>
      <trkpt lat="46.07465" lon="4.76326">
        <ele>180.19999694824</ele>
        <time>2017-07-17T05:48:08Z</time>
      </trkpt>
      <trkpt lat="46.07466" lon="4.76331">
        <ele>180.19999694824</ele>
        <time>2017-07-17T05:48:09Z</time>
      </trkpt>
      <trkpt lat="46.07472" lon="4.76341">
        <ele>180.19999694824</ele>
        <time>2017-07-17T05:48:12Z</time>
      </trkpt>
      <trkpt lat="46.07482" lon="4.7634">
        <ele>180.60000610352</ele>
        <time>2017-07-17T05:48:15Z</time>
      </trkpt>
      <trkpt lat="46.07491" lon="4.76323">
        <ele>180.80000305176</ele>
        <time>2017-07-17T05:48:19Z</time>
      </trkpt>
      <trkpt lat="46.07492" lon="4.76317">
        <ele>180.80000305176</ele>
        <time>2017-07-17T05:48:20Z</time>
      </trkpt>
      <trkpt lat="46.07493" lon="4.76311">
        <ele>180.80000305176</ele>
        <time>2017-07-17T05:48:21Z</time>
      </trkpt>
      <trkpt lat="46.07499" lon="4.76302">
        <ele>180.80000305176</ele>
        <time>2017-07-17T05:48:23Z</time>
      </trkpt>
      <trkpt lat="46.07513" lon="4.76288">
        <ele>180.80000305176</ele>
        <time>2017-07-17T05:48:27Z</time>
      </trkpt>
      <trkpt lat="46.0752" lon="4.7628">
        <ele>180.80000305176</ele>
        <time>2017-07-17T05:48:29Z</time>
      </trkpt>
      <trkpt lat="46.07541" lon="4.76256">
        <ele>180.80000305176</ele>
        <time>2017-07-17T05:48:35Z</time>
      </trkpt>
      <trkpt lat="46.07545" lon="4.76253">
        <ele>180.80000305176</ele>
        <time>2017-07-17T05:48:36Z</time>
      </trkpt>
      <trkpt lat="46.07575" lon="4.76221">
        <ele>180.80000305176</ele>
        <time>2017-07-17T05:48:44Z</time>
      </trkpt>
      <trkpt lat="46.07594" lon="4.76202">
        <ele>180.60000610352</ele>
        <time>2017-07-17T05:48:49Z</time>
      </trkpt>
      <trkpt lat="46.076" lon="4.76198">
        <ele>180.60000610352</ele>
        <time>2017-07-17T05:48:51Z</time>
      </trkpt>
      <trkpt lat="46.07601" lon="4.76196">
        <ele>180.19999694824</ele>
        <time>2017-07-17T05:49:00Z</time>
      </trkpt>
      <trkpt lat="46.07603" lon="4.76195">
        <ele>180.19999694824</ele>
        <time>2017-07-17T05:49:01Z</time>
      </trkpt>
      <trkpt lat="46.07615" lon="4.76182">
        <ele>180.39999389648</ele>
        <time>2017-07-17T05:49:06Z</time>
      </trkpt>
      <trkpt lat="46.07625" lon="4.76171">
        <ele>180.39999389648</ele>
        <time>2017-07-17T05:49:09Z</time>
      </trkpt>
      <trkpt lat="46.07639" lon="4.76157">
        <ele>180.39999389648</ele>
        <time>2017-07-17T05:49:13Z</time>
      </trkpt>
      <trkpt lat="46.07669" lon="4.76125">
        <ele>180.60000610352</ele>
        <time>2017-07-17T05:49:21Z</time>
      </trkpt>
      <trkpt lat="46.07695" lon="4.76095">
        <ele>180.60000610352</ele>
        <time>2017-07-17T05:49:28Z</time>
      </trkpt>
      <trkpt lat="46.07723" lon="4.76064">
        <ele>180.60000610352</ele>
        <time>2017-07-17T05:49:35Z</time>
      </trkpt>
      <trkpt lat="46.07752" lon="4.76037">
        <ele>180.60000610352</ele>
        <time>2017-07-17T05:49:42Z</time>
      </trkpt>
      <trkpt lat="46.07787" lon="4.76011">
        <ele>181</ele>
        <time>2017-07-17T05:49:50Z</time>
      </trkpt>
      <trkpt lat="46.07818" lon="4.75991">
        <ele>181.39999389648</ele>
        <time>2017-07-17T05:49:57Z</time>
      </trkpt>
      <trkpt lat="46.07855" lon="4.75966">
        <ele>181.19999694824</ele>
        <time>2017-07-17T05:50:05Z</time>
      </trkpt>
      <trkpt lat="46.07894" lon="4.75939">
        <ele>180.80000305176</ele>
        <time>2017-07-17T05:50:13Z</time>
      </trkpt>
      <trkpt lat="46.07928" lon="4.75918">
        <ele>180.80000305176</ele>
        <time>2017-07-17T05:50:20Z</time>
      </trkpt>
      <trkpt lat="46.07962" lon="4.75896">
        <ele>181</ele>
        <time>2017-07-17T05:50:27Z</time>
      </trkpt>
      <trkpt lat="46.07975" lon="4.75888">
        <ele>181</ele>
        <time>2017-07-17T05:50:30Z</time>
      </trkpt>
      <trkpt lat="46.07983" lon="4.75883">
        <ele>181</ele>
        <time>2017-07-17T05:50:32Z</time>
      </trkpt>
      <trkpt lat="46.08001" lon="4.75874">
        <ele>181.39999389648</ele>
        <time>2017-07-17T05:50:36Z</time>
      </trkpt>
      <trkpt lat="46.0801" lon="4.75875">
        <ele>181.39999389648</ele>
        <time>2017-07-17T05:50:38Z</time>
      </trkpt>
      <trkpt lat="46.08024" lon="4.75875">
        <ele>181.80000305176</ele>
        <time>2017-07-17T05:50:41Z</time>
      </trkpt>
      <trkpt lat="46.08037" lon="4.75875">
        <ele>182</ele>
        <time>2017-07-17T05:50:44Z</time>
      </trkpt>
      <trkpt lat="46.08066" lon="4.75872">
        <ele>182.80000305176</ele>
        <time>2017-07-17T05:50:51Z</time>
      </trkpt>
      <trkpt lat="46.08069" lon="4.75872">
        <ele>183</ele>
        <time>2017-07-17T05:50:52Z</time>
      </trkpt>
      <trkpt lat="46.08077" lon="4.75875">
        <ele>183.60000610352</ele>
        <time>2017-07-17T05:50:56Z</time>
      </trkpt>
      <trkpt lat="46.08078" lon="4.75874">
        <ele>183.80000305176</ele>
        <time>2017-07-17T05:50:57Z</time>
      </trkpt>
      <trkpt lat="46.0808" lon="4.75869">
        <ele>183.80000305176</ele>
        <time>2017-07-17T05:50:59Z</time>
      </trkpt>
      <trkpt lat="46.0808" lon="4.75865">
        <ele>184</ele>
        <time>2017-07-17T05:51:00Z</time>
      </trkpt>
      <trkpt lat="46.08077" lon="4.75843">
        <ele>184</ele>
        <time>2017-07-17T05:51:04Z</time>
      </trkpt>
      <trkpt lat="46.08076" lon="4.75836">
        <ele>184</ele>
        <time>2017-07-17T05:51:05Z</time>
      </trkpt>
      <trkpt lat="46.08075" lon="4.75801">
        <ele>183.60000610352</ele>
        <time>2017-07-17T05:51:10Z</time>
      </trkpt>
      <trkpt lat="46.08077" lon="4.75795">
        <ele>183.39999389648</ele>
        <time>2017-07-17T05:51:11Z</time>
      </trkpt>
      <trkpt lat="46.08088" lon="4.7578">
        <ele>183</ele>
        <time>2017-07-17T05:51:14Z</time>
      </trkpt>
      <trkpt lat="46.08092" lon="4.75775">
        <ele>183</ele>
        <time>2017-07-17T05:51:15Z</time>
      </trkpt>
      <trkpt lat="46.08096" lon="4.75769">
        <ele>182.80000305176</ele>
        <time>2017-07-17T05:51:16Z</time>
      </trkpt>
      <trkpt lat="46.08116" lon="4.75738">
        <ele>182.60000610352</ele>
        <time>2017-07-17T05:51:22Z</time>
      </trkpt>
      <trkpt lat="46.08121" lon="4.75727">
        <ele>182.19999694824</ele>
        <time>2017-07-17T05:51:26Z</time>
      </trkpt>
      <trkpt lat="46.08128" lon="4.75717">
        <ele>181.80000305176</ele>
        <time>2017-07-17T05:51:30Z</time>
      </trkpt>
      <trkpt lat="46.0813" lon="4.75713">
        <ele>181.80000305176</ele>
        <time>2017-07-17T05:51:31Z</time>
      </trkpt>
      <trkpt lat="46.08138" lon="4.75696">
        <ele>181.60000610352</ele>
        <time>2017-07-17T05:51:35Z</time>
      </trkpt>
      <trkpt lat="46.08159" lon="4.7567">
        <ele>181.60000610352</ele>
        <time>2017-07-17T05:51:41Z</time>
      </trkpt>
      <trkpt lat="46.08182" lon="4.75635">
        <ele>181.39999389648</ele>
        <time>2017-07-17T05:51:48Z</time>
      </trkpt>
      <trkpt lat="46.08201" lon="4.75608">
        <ele>181.19999694824</ele>
        <time>2017-07-17T05:51:55Z</time>
      </trkpt>
      <trkpt lat="46.08212" lon="4.75593">
        <ele>181.19999694824</ele>
        <time>2017-07-17T05:51:59Z</time>
      </trkpt>
      <trkpt lat="46.08217" lon="4.75586">
        <ele>181.19999694824</ele>
        <time>2017-07-17T05:52:01Z</time>
      </trkpt>
      <trkpt lat="46.08241" lon="4.75553">
        <ele>181</ele>
        <time>2017-07-17T05:52:09Z</time>
      </trkpt>
      <trkpt lat="46.08263" lon="4.75525">
        <ele>181</ele>
        <time>2017-07-17T05:52:16Z</time>
      </trkpt>
      <trkpt lat="46.08285" lon="4.75499">
        <ele>181</ele>
        <time>2017-07-17T05:52:23Z</time>
      </trkpt>
      <trkpt lat="46.08305" lon="4.75472">
        <ele>180.80000305176</ele>
        <time>2017-07-17T05:52:30Z</time>
      </trkpt>
      <trkpt lat="46.0831" lon="4.75466">
        <ele>180.80000305176</ele>
        <time>2017-07-17T05:52:32Z</time>
      </trkpt>
      <trkpt lat="46.08315" lon="4.75461">
        <ele>180.60000610352</ele>
        <time>2017-07-17T05:52:36Z</time>
      </trkpt>
      <trkpt lat="46.08316" lon="4.7546">
        <ele>180.39999389648</ele>
        <time>2017-07-17T05:53:06Z</time>
      </trkpt>
      <trkpt lat="46.08318" lon="4.75456">
        <ele>180.39999389648</ele>
        <time>2017-07-17T05:53:08Z</time>
      </trkpt>
      <trkpt lat="46.08332" lon="4.75438">
        <ele>180.39999389648</ele>
        <time>2017-07-17T05:53:14Z</time>
      </trkpt>
      <trkpt lat="46.08347" lon="4.75414">
        <ele>180.60000610352</ele>
        <time>2017-07-17T05:53:20Z</time>
      </trkpt>
      <trkpt lat="46.0836" lon="4.75398">
        <ele>180.60000610352</ele>
        <time>2017-07-17T05:53:24Z</time>
      </trkpt>
      <trkpt lat="46.08367" lon="4.75389">
        <ele>180.80000305176</ele>
        <time>2017-07-17T05:53:26Z</time>
      </trkpt>
      <trkpt lat="46.08377" lon="4.75377">
        <ele>180.80000305176</ele>
        <time>2017-07-17T05:53:29Z</time>
      </trkpt>
      <trkpt lat="46.08388" lon="4.75367">
        <ele>180.80000305176</ele>
        <time>2017-07-17T05:53:32Z</time>
      </trkpt>
      <trkpt lat="46.08409" lon="4.75346">
        <ele>180.60000610352</ele>
        <time>2017-07-17T05:53:39Z</time>
      </trkpt>
      <trkpt lat="46.08439" lon="4.75332">
        <ele>180.80000305176</ele>
        <time>2017-07-17T05:53:46Z</time>
      </trkpt>
      <trkpt lat="46.08459" lon="4.75323">
        <ele>180.80000305176</ele>
        <time>2017-07-17T05:53:50Z</time>
      </trkpt>
      <trkpt lat="46.0847" lon="4.7532">
        <ele>180.80000305176</ele>
        <time>2017-07-17T05:53:52Z</time>
      </trkpt>
      <trkpt lat="46.08526" lon="4.75308">
        <ele>180.80000305176</ele>
        <time>2017-07-17T05:54:02Z</time>
      </trkpt>
      <trkpt lat="46.08536" lon="4.75314">
        <ele>180.80000305176</ele>
        <time>2017-07-17T05:54:05Z</time>
      </trkpt>
      <trkpt lat="46.08542" lon="4.75309">
        <ele>180.80000305176</ele>
        <time>2017-07-17T05:54:09Z</time>
      </trkpt>
      <trkpt lat="46.08552" lon="4.75304">
        <ele>180.60000610352</ele>
        <time>2017-07-17T05:54:12Z</time>
      </trkpt>
      <trkpt lat="46.08558" lon="4.75303">
        <ele>180.60000610352</ele>
        <time>2017-07-17T05:54:13Z</time>
      </trkpt>
      <trkpt lat="46.08575" lon="4.75299">
        <ele>180.19999694824</ele>
        <time>2017-07-17T05:54:16Z</time>
      </trkpt>
      <trkpt lat="46.08592" lon="4.753">
        <ele>179.60000610352</ele>
        <time>2017-07-17T05:54:19Z</time>
      </trkpt>
      <trkpt lat="46.08609" lon="4.75301">
        <ele>179.39999389648</ele>
        <time>2017-07-17T05:54:22Z</time>
      </trkpt>
      <trkpt lat="46.08644" lon="4.75307">
        <ele>179.19999694824</ele>
        <time>2017-07-17T05:54:28Z</time>
      </trkpt>
      <trkpt lat="46.08662" lon="4.75312">
        <ele>179.19999694824</ele>
        <time>2017-07-17T05:54:31Z</time>
      </trkpt>
      <trkpt lat="46.08679" lon="4.75314">
        <ele>179</ele>
        <time>2017-07-17T05:54:34Z</time>
      </trkpt>
      <trkpt lat="46.0872" lon="4.75326">
        <ele>179</ele>
        <time>2017-07-17T05:54:41Z</time>
      </trkpt>
      <trkpt lat="46.08771" lon="4.75343">
        <ele>179</ele>
        <time>2017-07-17T05:54:50Z</time>
      </trkpt>
      <trkpt lat="46.08829" lon="4.7536">
        <ele>179</ele>
        <time>2017-07-17T05:55:00Z</time>
      </trkpt>
      <trkpt lat="46.08876" lon="4.75378">
        <ele>179</ele>
        <time>2017-07-17T05:55:08Z</time>
      </trkpt>
      <trkpt lat="46.08924" lon="4.75402">
        <ele>179.19999694824</ele>
        <time>2017-07-17T05:55:16Z</time>
      </trkpt>
      <trkpt lat="46.08966" lon="4.7542">
        <ele>179.19999694824</ele>
        <time>2017-07-17T05:55:23Z</time>
      </trkpt>
      <trkpt lat="46.09015" lon="4.75439">
        <ele>179.19999694824</ele>
        <time>2017-07-17T05:55:31Z</time>
      </trkpt>
      <trkpt lat="46.09069" lon="4.75459">
        <ele>179</ele>
        <time>2017-07-17T05:55:40Z</time>
      </trkpt>
      <trkpt lat="46.0912" lon="4.75482">
        <ele>179</ele>
        <time>2017-07-17T05:55:49Z</time>
      </trkpt>
      <trkpt lat="46.09166" lon="4.75499">
        <ele>179</ele>
        <time>2017-07-17T05:55:57Z</time>
      </trkpt>
      <trkpt lat="46.09197" lon="4.75514">
        <ele>179</ele>
        <time>2017-07-17T05:56:03Z</time>
      </trkpt>
      <trkpt lat="46.0924" lon="4.75532">
        <ele>179</ele>
        <time>2017-07-17T05:56:11Z</time>
      </trkpt>
      <trkpt lat="46.09279" lon="4.75546">
        <ele>179</ele>
        <time>2017-07-17T05:56:18Z</time>
      </trkpt>
      <trkpt lat="46.09329" lon="4.75569">
        <ele>178.80000305176</ele>
        <time>2017-07-17T05:56:27Z</time>
      </trkpt>
      <trkpt lat="46.09379" lon="4.75596">
        <ele>179</ele>
        <time>2017-07-17T05:56:36Z</time>
      </trkpt>
      <trkpt lat="46.09425" lon="4.75622">
        <ele>178.80000305176</ele>
        <time>2017-07-17T05:56:44Z</time>
      </trkpt>
      <trkpt lat="46.09436" lon="4.75628">
        <ele>178.80000305176</ele>
        <time>2017-07-17T05:56:46Z</time>
      </trkpt>
      <trkpt lat="46.09479" lon="4.75653">
        <ele>179</ele>
        <time>2017-07-17T05:56:54Z</time>
      </trkpt>
      <trkpt lat="46.09516" lon="4.75674">
        <ele>179</ele>
        <time>2017-07-17T05:57:01Z</time>
      </trkpt>
      <trkpt lat="46.09521" lon="4.75677">
        <ele>179</ele>
        <time>2017-07-17T05:57:02Z</time>
      </trkpt>
      <trkpt lat="46.09549" lon="4.75693">
        <ele>179</ele>
        <time>2017-07-17T05:57:07Z</time>
      </trkpt>
      <trkpt lat="46.09597" lon="4.75723">
        <ele>179.19999694824</ele>
        <time>2017-07-17T05:57:16Z</time>
      </trkpt>
      <trkpt lat="46.0965" lon="4.75761">
        <ele>179.19999694824</ele>
        <time>2017-07-17T05:57:26Z</time>
      </trkpt>
      <trkpt lat="46.09656" lon="4.75765">
        <ele>179.39999389648</ele>
        <time>2017-07-17T05:57:27Z</time>
      </trkpt>
      <trkpt lat="46.0969" lon="4.75793">
        <ele>179.39999389648</ele>
        <time>2017-07-17T05:57:34Z</time>
      </trkpt>
      <trkpt lat="46.09695" lon="4.75797">
        <ele>179.39999389648</ele>
        <time>2017-07-17T05:57:35Z</time>
      </trkpt>
      <trkpt lat="46.09726" lon="4.75824">
        <ele>179.39999389648</ele>
        <time>2017-07-17T05:57:42Z</time>
      </trkpt>
      <trkpt lat="46.09758" lon="4.75856">
        <ele>179.19999694824</ele>
        <time>2017-07-17T05:57:49Z</time>
      </trkpt>
      <trkpt lat="46.09797" lon="4.75895">
        <ele>179.39999389648</ele>
        <time>2017-07-17T05:57:57Z</time>
      </trkpt>
      <trkpt lat="46.09825" lon="4.75928">
        <ele>179.39999389648</ele>
        <time>2017-07-17T05:58:03Z</time>
      </trkpt>
      <trkpt lat="46.09861" lon="4.7597">
        <ele>179</ele>
        <time>2017-07-17T05:58:11Z</time>
      </trkpt>
      <trkpt lat="46.09893" lon="4.76006">
        <ele>179.19999694824</ele>
        <time>2017-07-17T05:58:18Z</time>
      </trkpt>
      <trkpt lat="46.0993" lon="4.76049">
        <ele>179.19999694824</ele>
        <time>2017-07-17T05:58:26Z</time>
      </trkpt>
      <trkpt lat="46.09958" lon="4.7608">
        <ele>179.19999694824</ele>
        <time>2017-07-17T05:58:32Z</time>
      </trkpt>
      <trkpt lat="46.1" lon="4.76127">
        <ele>179.19999694824</ele>
        <time>2017-07-17T05:58:41Z</time>
      </trkpt>
      <trkpt lat="46.10042" lon="4.76175">
        <ele>179.19999694824</ele>
        <time>2017-07-17T05:58:50Z</time>
      </trkpt>
      <trkpt lat="46.10079" lon="4.76217">
        <ele>179.19999694824</ele>
        <time>2017-07-17T05:58:58Z</time>
      </trkpt>
      <trkpt lat="46.10116" lon="4.76258">
        <ele>179.39999389648</ele>
        <time>2017-07-17T05:59:06Z</time>
      </trkpt>
      <trkpt lat="46.10137" lon="4.76275">
        <ele>179.39999389648</ele>
        <time>2017-07-17T05:59:10Z</time>
      </trkpt>
      <trkpt lat="46.10142" lon="4.76277">
        <ele>179.39999389648</ele>
        <time>2017-07-17T05:59:11Z</time>
      </trkpt>
      <trkpt lat="46.10166" lon="4.76285">
        <ele>179.19999694824</ele>
        <time>2017-07-17T05:59:17Z</time>
      </trkpt>
      <trkpt lat="46.10168" lon="4.76286">
        <ele>179</ele>
        <time>2017-07-17T05:59:33Z</time>
      </trkpt>
      <trkpt lat="46.1017" lon="4.76288">
        <ele>179</ele>
        <time>2017-07-17T05:59:34Z</time>
      </trkpt>
      <trkpt lat="46.10181" lon="4.76293">
        <ele>179</ele>
        <time>2017-07-17T05:59:38Z</time>
      </trkpt>
      <trkpt lat="46.10185" lon="4.76292">
        <ele>179</ele>
        <time>2017-07-17T05:59:39Z</time>
      </trkpt>
      <trkpt lat="46.10193" lon="4.7629">
        <ele>179</ele>
        <time>2017-07-17T05:59:41Z</time>
      </trkpt>
      <trkpt lat="46.10197" lon="4.76289">
        <ele>179</ele>
        <time>2017-07-17T05:59:42Z</time>
      </trkpt>
      <trkpt lat="46.10213" lon="4.76294">
        <ele>179</ele>
        <time>2017-07-17T05:59:46Z</time>
      </trkpt>
      <trkpt lat="46.10223" lon="4.76317">
        <ele>179</ele>
        <time>2017-07-17T05:59:50Z</time>
      </trkpt>
      <trkpt lat="46.10224" lon="4.76324">
        <ele>179</ele>
        <time>2017-07-17T05:59:51Z</time>
      </trkpt>
      <trkpt lat="46.10234" lon="4.76358">
        <ele>179.19999694824</ele>
        <time>2017-07-17T05:59:56Z</time>
      </trkpt>
      <trkpt lat="46.10252" lon="4.76397">
        <ele>179.39999389648</ele>
        <time>2017-07-17T06:00:02Z</time>
      </trkpt>
      <trkpt lat="46.10273" lon="4.76438">
        <ele>179.39999389648</ele>
        <time>2017-07-17T06:00:08Z</time>
      </trkpt>
      <trkpt lat="46.103" lon="4.76472">
        <ele>179.39999389648</ele>
        <time>2017-07-17T06:00:14Z</time>
      </trkpt>
      <trkpt lat="46.10341" lon="4.76513">
        <ele>179.39999389648</ele>
        <time>2017-07-17T06:00:22Z</time>
      </trkpt>
      <trkpt lat="46.10388" lon="4.76559">
        <ele>179.60000610352</ele>
        <time>2017-07-17T06:00:31Z</time>
      </trkpt>
      <trkpt lat="46.10433" lon="4.76605">
        <ele>179.19999694824</ele>
        <time>2017-07-17T06:00:40Z</time>
      </trkpt>
      <trkpt lat="46.10479" lon="4.76651">
        <ele>179.19999694824</ele>
        <time>2017-07-17T06:00:49Z</time>
      </trkpt>
      <trkpt lat="46.10484" lon="4.76656">
        <ele>179</ele>
        <time>2017-07-17T06:00:50Z</time>
      </trkpt>
      <trkpt lat="46.10529" lon="4.76701">
        <ele>179.19999694824</ele>
        <time>2017-07-17T06:00:59Z</time>
      </trkpt>
      <trkpt lat="46.10574" lon="4.76747">
        <ele>179.39999389648</ele>
        <time>2017-07-17T06:01:08Z</time>
      </trkpt>
      <trkpt lat="46.10578" lon="4.76752">
        <ele>179.39999389648</ele>
        <time>2017-07-17T06:01:09Z</time>
      </trkpt>
      <trkpt lat="46.10619" lon="4.76792">
        <ele>179.39999389648</ele>
        <time>2017-07-17T06:01:17Z</time>
      </trkpt>
      <trkpt lat="46.10659" lon="4.76833">
        <ele>179.19999694824</ele>
        <time>2017-07-17T06:01:25Z</time>
      </trkpt>
      <trkpt lat="46.10701" lon="4.76874">
        <ele>179.19999694824</ele>
        <time>2017-07-17T06:01:33Z</time>
      </trkpt>
      <trkpt lat="46.10746" lon="4.76921">
        <ele>179.19999694824</ele>
        <time>2017-07-17T06:01:42Z</time>
      </trkpt>
      <trkpt lat="46.10756" lon="4.76931">
        <ele>179.19999694824</ele>
        <time>2017-07-17T06:01:44Z</time>
      </trkpt>
      <trkpt lat="46.10794" lon="4.76975">
        <ele>179.39999389648</ele>
        <time>2017-07-17T06:01:52Z</time>
      </trkpt>
      <trkpt lat="46.10836" lon="4.77027">
        <ele>179</ele>
        <time>2017-07-17T06:02:01Z</time>
      </trkpt>
      <trkpt lat="46.10867" lon="4.77068">
        <ele>179.19999694824</ele>
        <time>2017-07-17T06:02:08Z</time>
      </trkpt>
      <trkpt lat="46.10897" lon="4.77113">
        <ele>179.19999694824</ele>
        <time>2017-07-17T06:02:15Z</time>
      </trkpt>
      <trkpt lat="46.10934" lon="4.77157">
        <ele>179.19999694824</ele>
        <time>2017-07-17T06:02:23Z</time>
      </trkpt>
      <trkpt lat="46.10974" lon="4.77198">
        <ele>179.39999389648</ele>
        <time>2017-07-17T06:02:31Z</time>
      </trkpt>
      <trkpt lat="46.1102" lon="4.7724">
        <ele>179.39999389648</ele>
        <time>2017-07-17T06:02:40Z</time>
      </trkpt>
      <trkpt lat="46.11049" lon="4.77268">
        <ele>179.19999694824</ele>
        <time>2017-07-17T06:02:46Z</time>
      </trkpt>
      <trkpt lat="46.11053" lon="4.77274">
        <ele>179.39999389648</ele>
        <time>2017-07-17T06:02:47Z</time>
      </trkpt>
      <trkpt lat="46.11062" lon="4.77285">
        <ele>179.39999389648</ele>
        <time>2017-07-17T06:02:49Z</time>
      </trkpt>
      <trkpt lat="46.11077" lon="4.77294">
        <ele>179.39999389648</ele>
        <time>2017-07-17T06:02:52Z</time>
      </trkpt>
      <trkpt lat="46.11082" lon="4.77295">
        <ele>179.39999389648</ele>
        <time>2017-07-17T06:02:53Z</time>
      </trkpt>
      <trkpt lat="46.11093" lon="4.77293">
        <ele>179.39999389648</ele>
        <time>2017-07-17T06:02:55Z</time>
      </trkpt>
      <trkpt lat="46.11105" lon="4.77293">
        <ele>179.19999694824</ele>
        <time>2017-07-17T06:02:57Z</time>
      </trkpt>
      <trkpt lat="46.11123" lon="4.77297">
        <ele>179.19999694824</ele>
        <time>2017-07-17T06:03:00Z</time>
      </trkpt>
      <trkpt lat="46.11144" lon="4.77302">
        <ele>179.19999694824</ele>
        <time>2017-07-17T06:03:04Z</time>
      </trkpt>
      <trkpt lat="46.11154" lon="4.77304">
        <ele>179.19999694824</ele>
        <time>2017-07-17T06:03:06Z</time>
      </trkpt>
      <trkpt lat="46.11191" lon="4.77314">
        <ele>179.19999694824</ele>
        <time>2017-07-17T06:03:13Z</time>
      </trkpt>
      <trkpt lat="46.11237" lon="4.77322">
        <ele>179.19999694824</ele>
        <time>2017-07-17T06:03:21Z</time>
      </trkpt>
      <trkpt lat="46.11285" lon="4.77327">
        <ele>179.19999694824</ele>
        <time>2017-07-17T06:03:29Z</time>
      </trkpt>
      <trkpt lat="46.1134" lon="4.77335">
        <ele>179.39999389648</ele>
        <time>2017-07-17T06:03:38Z</time>
      </trkpt>
      <trkpt lat="46.11393" lon="4.77345">
        <ele>179.39999389648</ele>
        <time>2017-07-17T06:03:47Z</time>
      </trkpt>
      <trkpt lat="46.11442" lon="4.77357">
        <ele>179.39999389648</ele>
        <time>2017-07-17T06:03:55Z</time>
      </trkpt>
      <trkpt lat="46.11491" lon="4.77366">
        <ele>179.60000610352</ele>
        <time>2017-07-17T06:04:03Z</time>
      </trkpt>
      <trkpt lat="46.11539" lon="4.77385">
        <ele>179.39999389648</ele>
        <time>2017-07-17T06:04:11Z</time>
      </trkpt>
      <trkpt lat="46.11591" lon="4.7741">
        <ele>179.60000610352</ele>
        <time>2017-07-17T06:04:20Z</time>
      </trkpt>
      <trkpt lat="46.11637" lon="4.77435">
        <ele>179.60000610352</ele>
        <time>2017-07-17T06:04:28Z</time>
      </trkpt>
      <trkpt lat="46.11664" lon="4.77455">
        <ele>179.80000305176</ele>
        <time>2017-07-17T06:04:33Z</time>
      </trkpt>
      <trkpt lat="46.11669" lon="4.7746">
        <ele>179.80000305176</ele>
        <time>2017-07-17T06:04:34Z</time>
      </trkpt>
      <trkpt lat="46.11717" lon="4.77498">
        <ele>179.80000305176</ele>
        <time>2017-07-17T06:04:43Z</time>
      </trkpt>
      <trkpt lat="46.11755" lon="4.77525">
        <ele>180</ele>
        <time>2017-07-17T06:04:50Z</time>
      </trkpt>
      <trkpt lat="46.11806" lon="4.77557">
        <ele>180.19999694824</ele>
        <time>2017-07-17T06:04:59Z</time>
      </trkpt>
      <trkpt lat="46.11812" lon="4.7756">
        <ele>180.19999694824</ele>
        <time>2017-07-17T06:05:00Z</time>
      </trkpt>
      <trkpt lat="46.11865" lon="4.7759">
        <ele>180</ele>
        <time>2017-07-17T06:05:09Z</time>
      </trkpt>
      <trkpt lat="46.11907" lon="4.77612">
        <ele>179.80000305176</ele>
        <time>2017-07-17T06:05:16Z</time>
      </trkpt>
      <trkpt lat="46.11954" lon="4.77635">
        <ele>179.80000305176</ele>
        <time>2017-07-17T06:05:24Z</time>
      </trkpt>
      <trkpt lat="46.12006" lon="4.77665">
        <ele>179.80000305176</ele>
        <time>2017-07-17T06:05:33Z</time>
      </trkpt>
      <trkpt lat="46.12047" lon="4.7769">
        <ele>179.80000305176</ele>
        <time>2017-07-17T06:05:40Z</time>
      </trkpt>
      <trkpt lat="46.12052" lon="4.77696">
        <ele>179.80000305176</ele>
        <time>2017-07-17T06:05:41Z</time>
      </trkpt>
      <trkpt lat="46.12084" lon="4.77727">
        <ele>179.80000305176</ele>
        <time>2017-07-17T06:05:47Z</time>
      </trkpt>
      <trkpt lat="46.12133" lon="4.77774">
        <ele>179.60000610352</ele>
        <time>2017-07-17T06:05:56Z</time>
      </trkpt>
      <trkpt lat="46.12138" lon="4.77779">
        <ele>179.60000610352</ele>
        <time>2017-07-17T06:05:57Z</time>
      </trkpt>
      <trkpt lat="46.1215" lon="4.77794">
        <ele>179.60000610352</ele>
        <time>2017-07-17T06:06:01Z</time>
      </trkpt>
      <trkpt lat="46.12152" lon="4.77795">
        <ele>179.39999389648</ele>
        <time>2017-07-17T06:06:03Z</time>
      </trkpt>
      <trkpt lat="46.12154" lon="4.77796">
        <ele>179.19999694824</ele>
        <time>2017-07-17T06:06:23Z</time>
      </trkpt>
      <trkpt lat="46.12164" lon="4.77801">
        <ele>179</ele>
        <time>2017-07-17T06:06:28Z</time>
      </trkpt>
      <trkpt lat="46.12178" lon="4.77817">
        <ele>179.19999694824</ele>
        <time>2017-07-17T06:06:34Z</time>
      </trkpt>
      <trkpt lat="46.12191" lon="4.77847">
        <ele>179</ele>
        <time>2017-07-17T06:06:40Z</time>
      </trkpt>
      <trkpt lat="46.12207" lon="4.77873">
        <ele>179</ele>
        <time>2017-07-17T06:06:45Z</time>
      </trkpt>
      <trkpt lat="46.1221" lon="4.77878">
        <ele>179.19999694824</ele>
        <time>2017-07-17T06:06:46Z</time>
      </trkpt>
      <trkpt lat="46.12234" lon="4.7791">
        <ele>179.19999694824</ele>
        <time>2017-07-17T06:06:52Z</time>
      </trkpt>
      <trkpt lat="46.12268" lon="4.77944">
        <ele>179.19999694824</ele>
        <time>2017-07-17T06:06:59Z</time>
      </trkpt>
      <trkpt lat="46.12313" lon="4.77986">
        <ele>179</ele>
        <time>2017-07-17T06:07:08Z</time>
      </trkpt>
      <trkpt lat="46.12347" lon="4.78024">
        <ele>179.39999389648</ele>
        <time>2017-07-17T06:07:15Z</time>
      </trkpt>
      <trkpt lat="46.12388" lon="4.78076">
        <ele>179.19999694824</ele>
        <time>2017-07-17T06:07:24Z</time>
      </trkpt>
      <trkpt lat="46.12427" lon="4.78126">
        <ele>179</ele>
        <time>2017-07-17T06:07:33Z</time>
      </trkpt>
      <trkpt lat="46.12465" lon="4.78179">
        <ele>178.80000305176</ele>
        <time>2017-07-17T06:07:42Z</time>
      </trkpt>
      <trkpt lat="46.12496" lon="4.78214">
        <ele>178.80000305176</ele>
        <time>2017-07-17T06:07:49Z</time>
      </trkpt>
      <trkpt lat="46.12525" lon="4.78251">
        <ele>179</ele>
        <time>2017-07-17T06:07:56Z</time>
      </trkpt>
      <trkpt lat="46.12559" lon="4.78295">
        <ele>179</ele>
        <time>2017-07-17T06:08:04Z</time>
      </trkpt>
      <trkpt lat="46.12587" lon="4.78333">
        <ele>178.80000305176</ele>
        <time>2017-07-17T06:08:11Z</time>
      </trkpt>
      <trkpt lat="46.12624" lon="4.78385">
        <ele>179</ele>
        <time>2017-07-17T06:08:20Z</time>
      </trkpt>
      <trkpt lat="46.12667" lon="4.78442">
        <ele>179</ele>
        <time>2017-07-17T06:08:29Z</time>
      </trkpt>
      <trkpt lat="46.12672" lon="4.78447">
        <ele>179</ele>
        <time>2017-07-17T06:08:30Z</time>
      </trkpt>
      <trkpt lat="46.1271" lon="4.78498">
        <ele>178.80000305176</ele>
        <time>2017-07-17T06:08:39Z</time>
      </trkpt>
      <trkpt lat="46.12738" lon="4.78536">
        <ele>178.80000305176</ele>
        <time>2017-07-17T06:08:46Z</time>
      </trkpt>
      <trkpt lat="46.12753" lon="4.78556">
        <ele>178.60000610352</ele>
        <time>2017-07-17T06:08:50Z</time>
      </trkpt>
      <trkpt lat="46.12765" lon="4.78571">
        <ele>178.80000305176</ele>
        <time>2017-07-17T06:08:53Z</time>
      </trkpt>
      <trkpt lat="46.128" lon="4.78614">
        <ele>178.80000305176</ele>
        <time>2017-07-17T06:09:01Z</time>
      </trkpt>
      <trkpt lat="46.12839" lon="4.78664">
        <ele>179</ele>
        <time>2017-07-17T06:09:10Z</time>
      </trkpt>
      <trkpt lat="46.12878" lon="4.78714">
        <ele>178.80000305176</ele>
        <time>2017-07-17T06:09:19Z</time>
      </trkpt>
      <trkpt lat="46.12912" lon="4.7876">
        <ele>179</ele>
        <time>2017-07-17T06:09:27Z</time>
      </trkpt>
      <trkpt lat="46.12942" lon="4.78799">
        <ele>179</ele>
        <time>2017-07-17T06:09:34Z</time>
      </trkpt>
      <trkpt lat="46.12979" lon="4.78843">
        <ele>178.80000305176</ele>
        <time>2017-07-17T06:09:42Z</time>
      </trkpt>
      <trkpt lat="46.13016" lon="4.78881">
        <ele>179</ele>
        <time>2017-07-17T06:09:50Z</time>
      </trkpt>
      <trkpt lat="46.13022" lon="4.78885">
        <ele>179</ele>
        <time>2017-07-17T06:09:51Z</time>
      </trkpt>
      <trkpt lat="46.13043" lon="4.78896">
        <ele>179</ele>
        <time>2017-07-17T06:09:55Z</time>
      </trkpt>
      <trkpt lat="46.13047" lon="4.78901">
        <ele>179</ele>
        <time>2017-07-17T06:09:56Z</time>
      </trkpt>
      <trkpt lat="46.13061" lon="4.78913">
        <ele>178.80000305176</ele>
        <time>2017-07-17T06:09:59Z</time>
      </trkpt>
      <trkpt lat="46.13066" lon="4.78917">
        <ele>178.80000305176</ele>
        <time>2017-07-17T06:10:00Z</time>
      </trkpt>
      <trkpt lat="46.13078" lon="4.78931">
        <ele>179</ele>
        <time>2017-07-17T06:10:03Z</time>
      </trkpt>
      <trkpt lat="46.13084" lon="4.78942">
        <ele>179</ele>
        <time>2017-07-17T06:10:05Z</time>
      </trkpt>
      <trkpt lat="46.13112" lon="4.78977">
        <ele>179</ele>
        <time>2017-07-17T06:10:12Z</time>
      </trkpt>
      <trkpt lat="46.13143" lon="4.79016">
        <ele>178.80000305176</ele>
        <time>2017-07-17T06:10:20Z</time>
      </trkpt>
      <trkpt lat="46.1317" lon="4.7905">
        <ele>178.80000305176</ele>
        <time>2017-07-17T06:10:27Z</time>
      </trkpt>
      <trkpt lat="46.132" lon="4.79092">
        <ele>179</ele>
        <time>2017-07-17T06:10:35Z</time>
      </trkpt>
      <trkpt lat="46.13237" lon="4.79137">
        <ele>178.80000305176</ele>
        <time>2017-07-17T06:10:44Z</time>
      </trkpt>
      <trkpt lat="46.13271" lon="4.79174">
        <ele>179</ele>
        <time>2017-07-17T06:10:52Z</time>
      </trkpt>
      <trkpt lat="46.13306" lon="4.79207">
        <ele>178.60000610352</ele>
        <time>2017-07-17T06:11:00Z</time>
      </trkpt>
      <trkpt lat="46.13344" lon="4.79239">
        <ele>179</ele>
        <time>2017-07-17T06:11:08Z</time>
      </trkpt>
      <trkpt lat="46.13387" lon="4.79274">
        <ele>178.60000610352</ele>
        <time>2017-07-17T06:11:17Z</time>
      </trkpt>
      <trkpt lat="46.13435" lon="4.79317">
        <ele>178.80000305176</ele>
        <time>2017-07-17T06:11:27Z</time>
      </trkpt>
      <trkpt lat="46.13444" lon="4.79325">
        <ele>178.80000305176</ele>
        <time>2017-07-17T06:11:29Z</time>
      </trkpt>
      <trkpt lat="46.13493" lon="4.79371">
        <ele>178.80000305176</ele>
        <time>2017-07-17T06:11:39Z</time>
      </trkpt>
      <trkpt lat="46.13498" lon="4.79375">
        <ele>178.80000305176</ele>
        <time>2017-07-17T06:11:40Z</time>
      </trkpt>
      <trkpt lat="46.13539" lon="4.79415">
        <ele>179</ele>
        <time>2017-07-17T06:11:49Z</time>
      </trkpt>
      <trkpt lat="46.13579" lon="4.79454">
        <ele>178.60000610352</ele>
        <time>2017-07-17T06:11:58Z</time>
      </trkpt>
      <trkpt lat="46.1361" lon="4.79485">
        <ele>178.80000305176</ele>
        <time>2017-07-17T06:12:05Z</time>
      </trkpt>
      <trkpt lat="46.13652" lon="4.79525">
        <ele>178.80000305176</ele>
        <time>2017-07-17T06:12:14Z</time>
      </trkpt>
      <trkpt lat="46.13692" lon="4.79566">
        <ele>178.60000610352</ele>
        <time>2017-07-17T06:12:23Z</time>
      </trkpt>
      <trkpt lat="46.13726" lon="4.79603">
        <ele>178.60000610352</ele>
        <time>2017-07-17T06:12:31Z</time>
      </trkpt>
      <trkpt lat="46.13774" lon="4.79654">
        <ele>178.60000610352</ele>
        <time>2017-07-17T06:12:42Z</time>
      </trkpt>
      <trkpt lat="46.13804" lon="4.79687">
        <ele>178.80000305176</ele>
        <time>2017-07-17T06:12:49Z</time>
      </trkpt>
      <trkpt lat="46.13847" lon="4.79741">
        <ele>178.60000610352</ele>
        <time>2017-07-17T06:13:00Z</time>
      </trkpt>
      <trkpt lat="46.13846" lon="4.79747">
        <ele>178.39999389648</ele>
        <time>2017-07-17T06:15:10Z</time>
      </trkpt>
      <trkpt lat="46.13843" lon="4.79747">
        <ele>178.39999389648</ele>
        <time>2017-07-17T06:15:12Z</time>
      </trkpt>
      <trkpt lat="46.1384" lon="4.7975">
        <ele>178.39999389648</ele>
        <time>2017-07-17T06:15:14Z</time>
      </trkpt>
      <trkpt lat="46.13837" lon="4.79755">
        <ele>178.60000610352</ele>
        <time>2017-07-17T06:15:17Z</time>
      </trkpt>
      <trkpt lat="46.1383" lon="4.7977">
        <ele>179</ele>
        <time>2017-07-17T06:15:23Z</time>
      </trkpt>
      <trkpt lat="46.13824" lon="4.79787">
        <ele>179.60000610352</ele>
        <time>2017-07-17T06:15:28Z</time>
      </trkpt>
      <trkpt lat="46.13823" lon="4.79789">
        <ele>179.60000610352</ele>
        <time>2017-07-17T06:15:29Z</time>
      </trkpt>
      <trkpt lat="46.1382" lon="4.798">
        <ele>180</ele>
        <time>2017-07-17T06:15:32Z</time>
      </trkpt>
      <trkpt lat="46.13806" lon="4.79823">
        <ele>180.60000610352</ele>
        <time>2017-07-17T06:15:37Z</time>
      </trkpt>
      <trkpt lat="46.13796" lon="4.79835">
        <ele>180.60000610352</ele>
        <time>2017-07-17T06:15:40Z</time>
      </trkpt>
      <trkpt lat="46.13789" lon="4.79842">
        <ele>180.80000305176</ele>
        <time>2017-07-17T06:15:42Z</time>
      </trkpt>
      <trkpt lat="46.1377" lon="4.79869">
        <ele>181.19999694824</ele>
        <time>2017-07-17T06:15:48Z</time>
      </trkpt>
      <trkpt lat="46.13757" lon="4.79897">
        <ele>181.39999389648</ele>
        <time>2017-07-17T06:15:53Z</time>
      </trkpt>
      <trkpt lat="46.13753" lon="4.79909">
        <ele>181.60000610352</ele>
        <time>2017-07-17T06:15:55Z</time>
      </trkpt>
      <trkpt lat="46.13743" lon="4.79932">
        <ele>181.80000305176</ele>
        <time>2017-07-17T06:15:59Z</time>
      </trkpt>
      <trkpt lat="46.13736" lon="4.79948">
        <ele>182</ele>
        <time>2017-07-17T06:16:02Z</time>
      </trkpt>
      <trkpt lat="46.13734" lon="4.79954">
        <ele>182</ele>
        <time>2017-07-17T06:16:03Z</time>
      </trkpt>
      <trkpt lat="46.1372" lon="4.79988">
        <ele>182.19999694824</ele>
        <time>2017-07-17T06:16:09Z</time>
      </trkpt>
      <trkpt lat="46.13715" lon="4.79999">
        <ele>182.19999694824</ele>
        <time>2017-07-17T06:16:11Z</time>
      </trkpt>
      <trkpt lat="46.13697" lon="4.80044">
        <ele>182.80000305176</ele>
        <time>2017-07-17T06:16:19Z</time>
      </trkpt>
      <trkpt lat="46.13694" lon="4.8005">
        <ele>183</ele>
        <time>2017-07-17T06:16:20Z</time>
      </trkpt>
      <trkpt lat="46.1368" lon="4.80089">
        <ele>183.19999694824</ele>
        <time>2017-07-17T06:16:27Z</time>
      </trkpt>
      <trkpt lat="46.13664" lon="4.80135">
        <ele>183.80000305176</ele>
        <time>2017-07-17T06:16:35Z</time>
      </trkpt>
      <trkpt lat="46.13646" lon="4.80184">
        <ele>184.39999389648</ele>
        <time>2017-07-17T06:16:44Z</time>
      </trkpt>
      <trkpt lat="46.13642" lon="4.80194">
        <ele>184.39999389648</ele>
        <time>2017-07-17T06:16:46Z</time>
      </trkpt>
      <trkpt lat="46.13629" lon="4.80219">
        <ele>184.80000305176</ele>
        <time>2017-07-17T06:16:51Z</time>
      </trkpt>
      <trkpt lat="46.13625" lon="4.80224">
        <ele>184.80000305176</ele>
        <time>2017-07-17T06:16:52Z</time>
      </trkpt>
      <trkpt lat="46.13612" lon="4.80231">
        <ele>185.19999694824</ele>
        <time>2017-07-17T06:16:55Z</time>
      </trkpt>
      <trkpt lat="46.13603" lon="4.80238">
        <ele>185.60000610352</ele>
        <time>2017-07-17T06:16:59Z</time>
      </trkpt>
      <trkpt lat="46.13603" lon="4.80247">
        <ele>186</ele>
        <time>2017-07-17T06:17:02Z</time>
      </trkpt>
      <trkpt lat="46.13607" lon="4.8025">
        <ele>186</ele>
        <time>2017-07-17T06:17:03Z</time>
      </trkpt>
      <trkpt lat="46.13612" lon="4.80257">
        <ele>186.19999694824</ele>
        <time>2017-07-17T06:17:05Z</time>
      </trkpt>
      <trkpt lat="46.13631" lon="4.80279">
        <ele>186.39999389648</ele>
        <time>2017-07-17T06:17:10Z</time>
      </trkpt>
      <trkpt lat="46.13662" lon="4.80316">
        <ele>186.60000610352</ele>
        <time>2017-07-17T06:17:17Z</time>
      </trkpt>
      <trkpt lat="46.13706" lon="4.80368">
        <ele>186.60000610352</ele>
        <time>2017-07-17T06:17:27Z</time>
      </trkpt>
      <trkpt lat="46.13731" lon="4.80396">
        <ele>186.60000610352</ele>
        <time>2017-07-17T06:17:33Z</time>
      </trkpt>
      <trkpt lat="46.13758" lon="4.80431">
        <ele>187</ele>
        <time>2017-07-17T06:17:40Z</time>
      </trkpt>
      <trkpt lat="46.13762" lon="4.80436">
        <ele>187</ele>
        <time>2017-07-17T06:17:41Z</time>
      </trkpt>
      <trkpt lat="46.13789" lon="4.80469">
        <ele>187.80000305176</ele>
        <time>2017-07-17T06:17:48Z</time>
      </trkpt>
      <trkpt lat="46.13804" lon="4.80488">
        <ele>188</ele>
        <time>2017-07-17T06:17:52Z</time>
      </trkpt>
      <trkpt lat="46.13819" lon="4.80507">
        <ele>188.80000305176</ele>
        <time>2017-07-17T06:17:56Z</time>
      </trkpt>
      <trkpt lat="46.13827" lon="4.80516">
        <ele>189</ele>
        <time>2017-07-17T06:17:58Z</time>
      </trkpt>
      <trkpt lat="46.13846" lon="4.80541">
        <ele>189.39999389648</ele>
        <time>2017-07-17T06:18:03Z</time>
      </trkpt>
      <trkpt lat="46.13871" lon="4.80569">
        <ele>190</ele>
        <time>2017-07-17T06:18:09Z</time>
      </trkpt>
      <trkpt lat="46.1388" lon="4.80578">
        <ele>190.39999389648</ele>
        <time>2017-07-17T06:18:11Z</time>
      </trkpt>
      <trkpt lat="46.13916" lon="4.80608">
        <ele>191.19999694824</ele>
        <time>2017-07-17T06:18:19Z</time>
      </trkpt>
      <trkpt lat="46.13954" lon="4.80634">
        <ele>192.19999694824</ele>
        <time>2017-07-17T06:18:27Z</time>
      </trkpt>
      <trkpt lat="46.13959" lon="4.80636">
        <ele>192.19999694824</ele>
        <time>2017-07-17T06:18:28Z</time>
      </trkpt>
      <trkpt lat="46.13995" lon="4.80652">
        <ele>193</ele>
        <time>2017-07-17T06:18:35Z</time>
      </trkpt>
      <trkpt lat="46.14027" lon="4.80666">
        <ele>193.19999694824</ele>
        <time>2017-07-17T06:18:41Z</time>
      </trkpt>
      <trkpt lat="46.14053" lon="4.80679">
        <ele>193.39999389648</ele>
        <time>2017-07-17T06:18:46Z</time>
      </trkpt>
      <trkpt lat="46.14094" lon="4.807">
        <ele>193.60000610352</ele>
        <time>2017-07-17T06:18:54Z</time>
      </trkpt>
      <trkpt lat="46.14132" lon="4.80719">
        <ele>193.39999389648</ele>
        <time>2017-07-17T06:19:01Z</time>
      </trkpt>
      <trkpt lat="46.14186" lon="4.80743">
        <ele>192.80000305176</ele>
        <time>2017-07-17T06:19:10Z</time>
      </trkpt>
      <trkpt lat="46.14226" lon="4.80757">
        <ele>192.19999694824</ele>
        <time>2017-07-17T06:19:16Z</time>
      </trkpt>
      <trkpt lat="46.1424" lon="4.80762">
        <ele>192</ele>
        <time>2017-07-17T06:19:18Z</time>
      </trkpt>
      <trkpt lat="46.14262" lon="4.80769">
        <ele>191</ele>
        <time>2017-07-17T06:19:21Z</time>
      </trkpt>
      <trkpt lat="46.14299" lon="4.80784">
        <ele>190.39999389648</ele>
        <time>2017-07-17T06:19:26Z</time>
      </trkpt>
      <trkpt lat="46.14321" lon="4.80795">
        <ele>190</ele>
        <time>2017-07-17T06:19:29Z</time>
      </trkpt>
      <trkpt lat="46.1436" lon="4.80814">
        <ele>189.19999694824</ele>
        <time>2017-07-17T06:19:34Z</time>
      </trkpt>
      <trkpt lat="46.14375" lon="4.80822">
        <ele>188.80000305176</ele>
        <time>2017-07-17T06:19:36Z</time>
      </trkpt>
      <trkpt lat="46.14428" lon="4.80849">
        <ele>187.39999389648</ele>
        <time>2017-07-17T06:19:43Z</time>
      </trkpt>
      <trkpt lat="46.14479" lon="4.80877">
        <ele>186.39999389648</ele>
        <time>2017-07-17T06:19:50Z</time>
      </trkpt>
      <trkpt lat="46.14487" lon="4.80881">
        <ele>186.39999389648</ele>
        <time>2017-07-17T06:19:51Z</time>
      </trkpt>
      <trkpt lat="46.14532" lon="4.80904">
        <ele>185.39999389648</ele>
        <time>2017-07-17T06:19:57Z</time>
      </trkpt>
      <trkpt lat="46.14555" lon="4.80915">
        <ele>185</ele>
        <time>2017-07-17T06:20:00Z</time>
      </trkpt>
      <trkpt lat="46.14599" lon="4.80937">
        <ele>184.39999389648</ele>
        <time>2017-07-17T06:20:06Z</time>
      </trkpt>
      <trkpt lat="46.14622" lon="4.80946">
        <ele>184</ele>
        <time>2017-07-17T06:20:09Z</time>
      </trkpt>
      <trkpt lat="46.1466" lon="4.80957">
        <ele>183.39999389648</ele>
        <time>2017-07-17T06:20:14Z</time>
      </trkpt>
      <trkpt lat="46.14683" lon="4.80963">
        <ele>183</ele>
        <time>2017-07-17T06:20:17Z</time>
      </trkpt>
      <trkpt lat="46.14726" lon="4.80984">
        <ele>182.19999694824</ele>
        <time>2017-07-17T06:20:23Z</time>
      </trkpt>
      <trkpt lat="46.1478" lon="4.81016">
        <ele>182</ele>
        <time>2017-07-17T06:20:31Z</time>
      </trkpt>
      <trkpt lat="46.14825" lon="4.81045">
        <ele>182</ele>
        <time>2017-07-17T06:20:38Z</time>
      </trkpt>
      <trkpt lat="46.14878" lon="4.81077">
        <ele>182.19999694824</ele>
        <time>2017-07-17T06:20:46Z</time>
      </trkpt>
      <trkpt lat="46.14884" lon="4.81081">
        <ele>182.19999694824</ele>
        <time>2017-07-17T06:20:47Z</time>
      </trkpt>
      <trkpt lat="46.14933" lon="4.81119">
        <ele>182</ele>
        <time>2017-07-17T06:20:55Z</time>
      </trkpt>
      <trkpt lat="46.14983" lon="4.81167">
        <ele>181.80000305176</ele>
        <time>2017-07-17T06:21:04Z</time>
      </trkpt>
      <trkpt lat="46.14989" lon="4.81172">
        <ele>181.80000305176</ele>
        <time>2017-07-17T06:21:05Z</time>
      </trkpt>
      <trkpt lat="46.15035" lon="4.81223">
        <ele>182</ele>
        <time>2017-07-17T06:21:14Z</time>
      </trkpt>
      <trkpt lat="46.15076" lon="4.81273">
        <ele>182.39999389648</ele>
        <time>2017-07-17T06:21:23Z</time>
      </trkpt>
      <trkpt lat="46.15121" lon="4.81328">
        <ele>183.19999694824</ele>
        <time>2017-07-17T06:21:33Z</time>
      </trkpt>
      <trkpt lat="46.1513" lon="4.81339">
        <ele>183.39999389648</ele>
        <time>2017-07-17T06:21:35Z</time>
      </trkpt>
      <trkpt lat="46.15158" lon="4.81367">
        <ele>183.80000305176</ele>
        <time>2017-07-17T06:21:41Z</time>
      </trkpt>
      <trkpt lat="46.15193" lon="4.81397">
        <ele>184</ele>
        <time>2017-07-17T06:21:48Z</time>
      </trkpt>
      <trkpt lat="46.15233" lon="4.81433">
        <ele>184.19999694824</ele>
        <time>2017-07-17T06:21:56Z</time>
      </trkpt>
      <trkpt lat="46.15244" lon="4.81442">
        <ele>184.39999389648</ele>
        <time>2017-07-17T06:21:58Z</time>
      </trkpt>
      <trkpt lat="46.15279" lon="4.81471">
        <ele>185.19999694824</ele>
        <time>2017-07-17T06:22:05Z</time>
      </trkpt>
      <trkpt lat="46.15289" lon="4.8148">
        <ele>185.39999389648</ele>
        <time>2017-07-17T06:22:07Z</time>
      </trkpt>
      <trkpt lat="46.15298" lon="4.81489">
        <ele>185.80000305176</ele>
        <time>2017-07-17T06:22:09Z</time>
      </trkpt>
      <trkpt lat="46.15308" lon="4.81498">
        <ele>185.80000305176</ele>
        <time>2017-07-17T06:22:11Z</time>
      </trkpt>
      <trkpt lat="46.15349" lon="4.81532">
        <ele>185.39999389648</ele>
        <time>2017-07-17T06:22:19Z</time>
      </trkpt>
      <trkpt lat="46.15397" lon="4.81572">
        <ele>185.19999694824</ele>
        <time>2017-07-17T06:22:28Z</time>
      </trkpt>
      <trkpt lat="46.15423" lon="4.8159">
        <ele>185.39999389648</ele>
        <time>2017-07-17T06:22:33Z</time>
      </trkpt>
      <trkpt lat="46.15433" lon="4.81594">
        <ele>185.39999389648</ele>
        <time>2017-07-17T06:22:35Z</time>
      </trkpt>
      <trkpt lat="46.15478" lon="4.81603">
        <ele>185.39999389648</ele>
        <time>2017-07-17T06:22:42Z</time>
      </trkpt>
      <trkpt lat="46.15516" lon="4.81616">
        <ele>185.19999694824</ele>
        <time>2017-07-17T06:22:48Z</time>
      </trkpt>
      <trkpt lat="46.15563" lon="4.81643">
        <ele>185</ele>
        <time>2017-07-17T06:22:56Z</time>
      </trkpt>
      <trkpt lat="46.15604" lon="4.81665">
        <ele>185.39999389648</ele>
        <time>2017-07-17T06:23:03Z</time>
      </trkpt>
      <trkpt lat="46.15616" lon="4.81669">
        <ele>185.39999389648</ele>
        <time>2017-07-17T06:23:05Z</time>
      </trkpt>
      <trkpt lat="46.1564" lon="4.81678">
        <ele>185.60000610352</ele>
        <time>2017-07-17T06:23:09Z</time>
      </trkpt>
      <trkpt lat="46.15675" lon="4.81687">
        <ele>185.80000305176</ele>
        <time>2017-07-17T06:23:15Z</time>
      </trkpt>
      <trkpt lat="46.15719" lon="4.81689">
        <ele>186.19999694824</ele>
        <time>2017-07-17T06:23:22Z</time>
      </trkpt>
      <trkpt lat="46.15773" lon="4.81685">
        <ele>186</ele>
        <time>2017-07-17T06:23:30Z</time>
      </trkpt>
      <trkpt lat="46.15828" lon="4.81679">
        <ele>185.19999694824</ele>
        <time>2017-07-17T06:23:38Z</time>
      </trkpt>
      <trkpt lat="46.15835" lon="4.81677">
        <ele>185.19999694824</ele>
        <time>2017-07-17T06:23:39Z</time>
      </trkpt>
      <trkpt lat="46.15881" lon="4.81657">
        <ele>184.60000610352</ele>
        <time>2017-07-17T06:23:46Z</time>
      </trkpt>
      <trkpt lat="46.15909" lon="4.81646">
        <ele>184.39999389648</ele>
        <time>2017-07-17T06:23:50Z</time>
      </trkpt>
      <trkpt lat="46.1593" lon="4.8164">
        <ele>184.39999389648</ele>
        <time>2017-07-17T06:23:53Z</time>
      </trkpt>
      <trkpt lat="46.15987" lon="4.81629">
        <ele>183.60000610352</ele>
        <time>2017-07-17T06:24:01Z</time>
      </trkpt>
      <trkpt lat="46.16033" lon="4.81609">
        <ele>183.39999389648</ele>
        <time>2017-07-17T06:24:08Z</time>
      </trkpt>
      <trkpt lat="46.16084" lon="4.81581">
        <ele>183</ele>
        <time>2017-07-17T06:24:16Z</time>
      </trkpt>
      <trkpt lat="46.16124" lon="4.81564">
        <ele>182.60000610352</ele>
        <time>2017-07-17T06:24:22Z</time>
      </trkpt>
      <trkpt lat="46.16175" lon="4.81551">
        <ele>182.60000610352</ele>
        <time>2017-07-17T06:24:30Z</time>
      </trkpt>
      <trkpt lat="46.16218" lon="4.81554">
        <ele>182.60000610352</ele>
        <time>2017-07-17T06:24:37Z</time>
      </trkpt>
      <trkpt lat="46.1626" lon="4.81563">
        <ele>182.80000305176</ele>
        <time>2017-07-17T06:24:44Z</time>
      </trkpt>
      <trkpt lat="46.16292" lon="4.81569">
        <ele>183</ele>
        <time>2017-07-17T06:24:50Z</time>
      </trkpt>
      <trkpt lat="46.16314" lon="4.81574">
        <ele>183.19999694824</ele>
        <time>2017-07-17T06:24:55Z</time>
      </trkpt>
      <trkpt lat="46.16318" lon="4.81576">
        <ele>183.19999694824</ele>
        <time>2017-07-17T06:24:56Z</time>
      </trkpt>
      <trkpt lat="46.16355" lon="4.81591">
        <ele>183.60000610352</ele>
        <time>2017-07-17T06:25:05Z</time>
      </trkpt>
      <trkpt lat="46.16382" lon="4.81602">
        <ele>183.60000610352</ele>
        <time>2017-07-17T06:25:12Z</time>
      </trkpt>
      <trkpt lat="46.16397" lon="4.8161">
        <ele>183.80000305176</ele>
        <time>2017-07-17T06:25:15Z</time>
      </trkpt>
      <trkpt lat="46.16412" lon="4.81619">
        <ele>183.80000305176</ele>
        <time>2017-07-17T06:25:18Z</time>
      </trkpt>
      <trkpt lat="46.16447" lon="4.8164">
        <ele>184.39999389648</ele>
        <time>2017-07-17T06:25:25Z</time>
      </trkpt>
      <trkpt lat="46.16466" lon="4.81653">
        <ele>184.39999389648</ele>
        <time>2017-07-17T06:25:29Z</time>
      </trkpt>
      <trkpt lat="46.1649" lon="4.81673">
        <ele>184.80000305176</ele>
        <time>2017-07-17T06:25:34Z</time>
      </trkpt>
      <trkpt lat="46.16513" lon="4.81694">
        <ele>185.19999694824</ele>
        <time>2017-07-17T06:25:39Z</time>
      </trkpt>
      <trkpt lat="46.16522" lon="4.81703">
        <ele>185.39999389648</ele>
        <time>2017-07-17T06:25:41Z</time>
      </trkpt>
      <trkpt lat="46.16532" lon="4.81711">
        <ele>185.60000610352</ele>
        <time>2017-07-17T06:25:43Z</time>
      </trkpt>
      <trkpt lat="46.16557" lon="4.8173">
        <ele>185.80000305176</ele>
        <time>2017-07-17T06:25:48Z</time>
      </trkpt>
      <trkpt lat="46.16597" lon="4.8176">
        <ele>186.60000610352</ele>
        <time>2017-07-17T06:25:56Z</time>
      </trkpt>
      <trkpt lat="46.1663" lon="4.81782">
        <ele>187.39999389648</ele>
        <time>2017-07-17T06:26:03Z</time>
      </trkpt>
      <trkpt lat="46.16647" lon="4.8179">
        <ele>187.60000610352</ele>
        <time>2017-07-17T06:26:06Z</time>
      </trkpt>
      <trkpt lat="46.16669" lon="4.81801">
        <ele>188.39999389648</ele>
        <time>2017-07-17T06:26:10Z</time>
      </trkpt>
      <trkpt lat="46.16704" lon="4.81821">
        <ele>188.80000305176</ele>
        <time>2017-07-17T06:26:16Z</time>
      </trkpt>
      <trkpt lat="46.16715" lon="4.81827">
        <ele>188.80000305176</ele>
        <time>2017-07-17T06:26:18Z</time>
      </trkpt>
      <trkpt lat="46.16763" lon="4.81858">
        <ele>189.19999694824</ele>
        <time>2017-07-17T06:26:27Z</time>
      </trkpt>
      <trkpt lat="46.16795" lon="4.81877">
        <ele>189.80000305176</ele>
        <time>2017-07-17T06:26:33Z</time>
      </trkpt>
      <trkpt lat="46.16806" lon="4.81884">
        <ele>189.80000305176</ele>
        <time>2017-07-17T06:26:35Z</time>
      </trkpt>
      <trkpt lat="46.16846" lon="4.81914">
        <ele>190.39999389648</ele>
        <time>2017-07-17T06:26:43Z</time>
      </trkpt>
      <trkpt lat="46.16865" lon="4.8193">
        <ele>190.80000305176</ele>
        <time>2017-07-17T06:26:47Z</time>
      </trkpt>
      <trkpt lat="46.16887" lon="4.81948">
        <ele>191.39999389648</ele>
        <time>2017-07-17T06:26:52Z</time>
      </trkpt>
      <trkpt lat="46.16906" lon="4.8196">
        <ele>192.19999694824</ele>
        <time>2017-07-17T06:26:56Z</time>
      </trkpt>
      <trkpt lat="46.16921" lon="4.81967">
        <ele>192.39999389648</ele>
        <time>2017-07-17T06:26:59Z</time>
      </trkpt>
      <trkpt lat="46.16935" lon="4.81974">
        <ele>192.80000305176</ele>
        <time>2017-07-17T06:27:02Z</time>
      </trkpt>
      <trkpt lat="46.16946" lon="4.81978">
        <ele>192.60000610352</ele>
        <time>2017-07-17T06:27:05Z</time>
      </trkpt>
      <trkpt lat="46.16947" lon="4.81978">
        <ele>192.60000610352</ele>
        <time>2017-07-17T06:27:06Z</time>
      </trkpt>
      <trkpt lat="46.16948" lon="4.81977">
        <ele>191.80000305176</ele>
        <time>2017-07-17T06:27:29Z</time>
      </trkpt>
      <trkpt lat="46.16951" lon="4.81977">
        <ele>191.80000305176</ele>
        <time>2017-07-17T06:27:30Z</time>
      </trkpt>
      <trkpt lat="46.16966" lon="4.81981">
        <ele>191.80000305176</ele>
        <time>2017-07-17T06:27:34Z</time>
      </trkpt>
      <trkpt lat="46.17001" lon="4.81987">
        <ele>191.19999694824</ele>
        <time>2017-07-17T06:27:40Z</time>
      </trkpt>
      <trkpt lat="46.17007" lon="4.81988">
        <ele>191</ele>
        <time>2017-07-17T06:27:41Z</time>
      </trkpt>
      <trkpt lat="46.17043" lon="4.81995">
        <ele>190</ele>
        <time>2017-07-17T06:27:46Z</time>
      </trkpt>
      <trkpt lat="46.17082" lon="4.82003">
        <ele>188.80000305176</ele>
        <time>2017-07-17T06:27:51Z</time>
      </trkpt>
      <trkpt lat="46.17099" lon="4.82005">
        <ele>188.19999694824</ele>
        <time>2017-07-17T06:27:53Z</time>
      </trkpt>
      <trkpt lat="46.17116" lon="4.82007">
        <ele>187.80000305176</ele>
        <time>2017-07-17T06:27:55Z</time>
      </trkpt>
      <trkpt lat="46.1715" lon="4.82006">
        <ele>186.80000305176</ele>
        <time>2017-07-17T06:27:59Z</time>
      </trkpt>
      <trkpt lat="46.17157" lon="4.82005">
        <ele>186.60000610352</ele>
        <time>2017-07-17T06:28:00Z</time>
      </trkpt>
      <trkpt lat="46.17184" lon="4.81996">
        <ele>186.60000610352</ele>
        <time>2017-07-17T06:28:04Z</time>
      </trkpt>
      <trkpt lat="46.17189" lon="4.81989">
        <ele>186.60000610352</ele>
        <time>2017-07-17T06:28:05Z</time>
      </trkpt>
      <trkpt lat="46.17233" lon="4.81956">
        <ele>186.39999389648</ele>
        <time>2017-07-17T06:28:12Z</time>
      </trkpt>
      <trkpt lat="46.17277" lon="4.81932">
        <ele>186.39999389648</ele>
        <time>2017-07-17T06:28:19Z</time>
      </trkpt>
      <trkpt lat="46.17325" lon="4.81908">
        <ele>186.60000610352</ele>
        <time>2017-07-17T06:28:26Z</time>
      </trkpt>
      <trkpt lat="46.17381" lon="4.81883">
        <ele>185.80000305176</ele>
        <time>2017-07-17T06:28:34Z</time>
      </trkpt>
      <trkpt lat="46.17395" lon="4.81878">
        <ele>185.60000610352</ele>
        <time>2017-07-17T06:28:36Z</time>
      </trkpt>
      <trkpt lat="46.17424" lon="4.81874">
        <ele>185.60000610352</ele>
        <time>2017-07-17T06:28:40Z</time>
      </trkpt>
      <trkpt lat="46.17484" lon="4.81871">
        <ele>185</ele>
        <time>2017-07-17T06:28:48Z</time>
      </trkpt>
      <trkpt lat="46.17518" lon="4.81866">
        <ele>184.80000305176</ele>
        <time>2017-07-17T06:28:53Z</time>
      </trkpt>
      <trkpt lat="46.1755" lon="4.81861">
        <ele>184.60000610352</ele>
        <time>2017-07-17T06:28:58Z</time>
      </trkpt>
      <trkpt lat="46.17557" lon="4.8186">
        <ele>184.60000610352</ele>
        <time>2017-07-17T06:28:59Z</time>
      </trkpt>
      <trkpt lat="46.17602" lon="4.81856">
        <ele>184.60000610352</ele>
        <time>2017-07-17T06:29:06Z</time>
      </trkpt>
      <trkpt lat="46.17652" lon="4.81845">
        <ele>184.60000610352</ele>
        <time>2017-07-17T06:29:15Z</time>
      </trkpt>
      <trkpt lat="46.17672" lon="4.81842">
        <ele>184.60000610352</ele>
        <time>2017-07-17T06:29:20Z</time>
      </trkpt>
      <trkpt lat="46.17679" lon="4.81845">
        <ele>184.80000305176</ele>
        <time>2017-07-17T06:29:33Z</time>
      </trkpt>
      <trkpt lat="46.17693" lon="4.81847">
        <ele>184.80000305176</ele>
        <time>2017-07-17T06:29:38Z</time>
      </trkpt>
      <trkpt lat="46.17716" lon="4.81846">
        <ele>184.80000305176</ele>
        <time>2017-07-17T06:29:43Z</time>
      </trkpt>
      <trkpt lat="46.17745" lon="4.81845">
        <ele>184.60000610352</ele>
        <time>2017-07-17T06:29:48Z</time>
      </trkpt>
      <trkpt lat="46.1778" lon="4.81842">
        <ele>185</ele>
        <time>2017-07-17T06:29:54Z</time>
      </trkpt>
      <trkpt lat="46.17792" lon="4.81841">
        <ele>185</ele>
        <time>2017-07-17T06:29:56Z</time>
      </trkpt>
      <trkpt lat="46.17809" lon="4.8185">
        <ele>185.19999694824</ele>
        <time>2017-07-17T06:29:59Z</time>
      </trkpt>
      <trkpt lat="46.17826" lon="4.81869">
        <ele>185</ele>
        <time>2017-07-17T06:30:02Z</time>
      </trkpt>
      <trkpt lat="46.17831" lon="4.81875">
        <ele>185</ele>
        <time>2017-07-17T06:30:03Z</time>
      </trkpt>
      <trkpt lat="46.1786" lon="4.81914">
        <ele>185</ele>
        <time>2017-07-17T06:30:09Z</time>
      </trkpt>
      <trkpt lat="46.17896" lon="4.81953">
        <ele>185</ele>
        <time>2017-07-17T06:30:16Z</time>
      </trkpt>
      <trkpt lat="46.17906" lon="4.81963">
        <ele>185</ele>
        <time>2017-07-17T06:30:18Z</time>
      </trkpt>
      <trkpt lat="46.1792" lon="4.8198">
        <ele>185</ele>
        <time>2017-07-17T06:30:21Z</time>
      </trkpt>
      <trkpt lat="46.1793" lon="4.81992">
        <ele>185</ele>
        <time>2017-07-17T06:30:23Z</time>
      </trkpt>
      <trkpt lat="46.17944" lon="4.82011">
        <ele>184.80000305176</ele>
        <time>2017-07-17T06:30:26Z</time>
      </trkpt>
      <trkpt lat="46.1796" lon="4.82027">
        <ele>185</ele>
        <time>2017-07-17T06:30:29Z</time>
      </trkpt>
      <trkpt lat="46.17976" lon="4.82043">
        <ele>185</ele>
        <time>2017-07-17T06:30:32Z</time>
      </trkpt>
      <trkpt lat="46.18026" lon="4.8209">
        <ele>185.19999694824</ele>
        <time>2017-07-17T06:30:41Z</time>
      </trkpt>
      <trkpt lat="46.18032" lon="4.82096">
        <ele>185.19999694824</ele>
        <time>2017-07-17T06:30:42Z</time>
      </trkpt>
      <trkpt lat="46.18083" lon="4.82142">
        <ele>185.39999389648</ele>
        <time>2017-07-17T06:30:51Z</time>
      </trkpt>
      <trkpt lat="46.18105" lon="4.82159">
        <ele>185.60000610352</ele>
        <time>2017-07-17T06:30:55Z</time>
      </trkpt>
      <trkpt lat="46.1812" lon="4.82172">
        <ele>185.60000610352</ele>
        <time>2017-07-17T06:30:58Z</time>
      </trkpt>
      <trkpt lat="46.18156" lon="4.822">
        <ele>185.60000610352</ele>
        <time>2017-07-17T06:31:05Z</time>
      </trkpt>
      <trkpt lat="46.18172" lon="4.82215">
        <ele>185.60000610352</ele>
        <time>2017-07-17T06:31:08Z</time>
      </trkpt>
      <trkpt lat="46.18189" lon="4.82229">
        <ele>185.60000610352</ele>
        <time>2017-07-17T06:31:11Z</time>
      </trkpt>
      <trkpt lat="46.18242" lon="4.82271">
        <ele>185.60000610352</ele>
        <time>2017-07-17T06:31:20Z</time>
      </trkpt>
      <trkpt lat="46.18248" lon="4.82275">
        <ele>185.60000610352</ele>
        <time>2017-07-17T06:31:21Z</time>
      </trkpt>
      <trkpt lat="46.18284" lon="4.82297">
        <ele>186</ele>
        <time>2017-07-17T06:31:27Z</time>
      </trkpt>
      <trkpt lat="46.18335" lon="4.82323">
        <ele>185.80000305176</ele>
        <time>2017-07-17T06:31:35Z</time>
      </trkpt>
      <trkpt lat="46.18386" lon="4.82351">
        <ele>185.60000610352</ele>
        <time>2017-07-17T06:31:43Z</time>
      </trkpt>
      <trkpt lat="46.184" lon="4.82357">
        <ele>185.60000610352</ele>
        <time>2017-07-17T06:31:45Z</time>
      </trkpt>
      <trkpt lat="46.18453" lon="4.82382">
        <ele>185.60000610352</ele>
        <time>2017-07-17T06:31:53Z</time>
      </trkpt>
      <trkpt lat="46.18467" lon="4.82386">
        <ele>185.60000610352</ele>
        <time>2017-07-17T06:31:55Z</time>
      </trkpt>
      <trkpt lat="46.18509" lon="4.8239">
        <ele>185.60000610352</ele>
        <time>2017-07-17T06:32:01Z</time>
      </trkpt>
      <trkpt lat="46.18563" lon="4.8239">
        <ele>185.60000610352</ele>
        <time>2017-07-17T06:32:09Z</time>
      </trkpt>
      <trkpt lat="46.18621" lon="4.8239">
        <ele>185.80000305176</ele>
        <time>2017-07-17T06:32:18Z</time>
      </trkpt>
      <trkpt lat="46.1868" lon="4.82387">
        <ele>186</ele>
        <time>2017-07-17T06:32:27Z</time>
      </trkpt>
      <trkpt lat="46.18686" lon="4.82386">
        <ele>186</ele>
        <time>2017-07-17T06:32:28Z</time>
      </trkpt>
      <trkpt lat="46.18733" lon="4.82378">
        <ele>186</ele>
        <time>2017-07-17T06:32:35Z</time>
      </trkpt>
      <trkpt lat="46.18787" lon="4.82369">
        <ele>185.60000610352</ele>
        <time>2017-07-17T06:32:43Z</time>
      </trkpt>
      <trkpt lat="46.188" lon="4.82367">
        <ele>185.60000610352</ele>
        <time>2017-07-17T06:32:45Z</time>
      </trkpt>
      <trkpt lat="46.18854" lon="4.82368">
        <ele>185.60000610352</ele>
        <time>2017-07-17T06:32:53Z</time>
      </trkpt>
      <trkpt lat="46.18913" lon="4.82377">
        <ele>185.60000610352</ele>
        <time>2017-07-17T06:33:02Z</time>
      </trkpt>
      <trkpt lat="46.18958" lon="4.82386">
        <ele>185.80000305176</ele>
        <time>2017-07-17T06:33:09Z</time>
      </trkpt>
      <trkpt lat="46.19006" lon="4.824">
        <ele>186.39999389648</ele>
        <time>2017-07-17T06:33:17Z</time>
      </trkpt>
      <trkpt lat="46.19024" lon="4.82405">
        <ele>186.80000305176</ele>
        <time>2017-07-17T06:33:20Z</time>
      </trkpt>
      <trkpt lat="46.19053" lon="4.82412">
        <ele>187.39999389648</ele>
        <time>2017-07-17T06:33:25Z</time>
      </trkpt>
      <trkpt lat="46.19076" lon="4.8242">
        <ele>187.80000305176</ele>
        <time>2017-07-17T06:33:29Z</time>
      </trkpt>
      <trkpt lat="46.19088" lon="4.82426">
        <ele>188</ele>
        <time>2017-07-17T06:33:31Z</time>
      </trkpt>
      <trkpt lat="46.19141" lon="4.82449">
        <ele>188.39999389648</ele>
        <time>2017-07-17T06:33:40Z</time>
      </trkpt>
      <trkpt lat="46.19187" lon="4.8247">
        <ele>188.39999389648</ele>
        <time>2017-07-17T06:33:48Z</time>
      </trkpt>
      <trkpt lat="46.19227" lon="4.82495">
        <ele>188.60000610352</ele>
        <time>2017-07-17T06:33:55Z</time>
      </trkpt>
      <trkpt lat="46.1925" lon="4.82509">
        <ele>188.80000305176</ele>
        <time>2017-07-17T06:33:59Z</time>
      </trkpt>
      <trkpt lat="46.19273" lon="4.82522">
        <ele>189</ele>
        <time>2017-07-17T06:34:03Z</time>
      </trkpt>
      <trkpt lat="46.19317" lon="4.82548">
        <ele>189.19999694824</ele>
        <time>2017-07-17T06:34:11Z</time>
      </trkpt>
      <trkpt lat="46.19367" lon="4.82577">
        <ele>189.80000305176</ele>
        <time>2017-07-17T06:34:20Z</time>
      </trkpt>
      <trkpt lat="46.19383" lon="4.82584">
        <ele>189.80000305176</ele>
        <time>2017-07-17T06:34:23Z</time>
      </trkpt>
      <trkpt lat="46.19419" lon="4.82596">
        <ele>190.19999694824</ele>
        <time>2017-07-17T06:34:29Z</time>
      </trkpt>
      <trkpt lat="46.19455" lon="4.82608">
        <ele>190.60000610352</ele>
        <time>2017-07-17T06:34:35Z</time>
      </trkpt>
      <trkpt lat="46.19513" lon="4.8263">
        <ele>190.80000305176</ele>
        <time>2017-07-17T06:34:45Z</time>
      </trkpt>
      <trkpt lat="46.19564" lon="4.82656">
        <ele>191.19999694824</ele>
        <time>2017-07-17T06:34:54Z</time>
      </trkpt>
      <trkpt lat="46.1957" lon="4.82659">
        <ele>191.19999694824</ele>
        <time>2017-07-17T06:34:55Z</time>
      </trkpt>
      <trkpt lat="46.19608" lon="4.82689">
        <ele>191.60000610352</ele>
        <time>2017-07-17T06:35:02Z</time>
      </trkpt>
      <trkpt lat="46.19635" lon="4.82721">
        <ele>192</ele>
        <time>2017-07-17T06:35:08Z</time>
      </trkpt>
      <trkpt lat="46.19639" lon="4.82727">
        <ele>192</ele>
        <time>2017-07-17T06:35:09Z</time>
      </trkpt>
      <trkpt lat="46.19673" lon="4.82759">
        <ele>192.60000610352</ele>
        <time>2017-07-17T06:35:16Z</time>
      </trkpt>
      <trkpt lat="46.19695" lon="4.82775">
        <ele>193</ele>
        <time>2017-07-17T06:35:20Z</time>
      </trkpt>
      <trkpt lat="46.19729" lon="4.82796">
        <ele>193.19999694824</ele>
        <time>2017-07-17T06:35:26Z</time>
      </trkpt>
      <trkpt lat="46.19753" lon="4.82808">
        <ele>193.19999694824</ele>
        <time>2017-07-17T06:35:30Z</time>
      </trkpt>
      <trkpt lat="46.19773" lon="4.82813">
        <ele>193</ele>
        <time>2017-07-17T06:35:33Z</time>
      </trkpt>
      <trkpt lat="46.1982" lon="4.82819">
        <ele>192.60000610352</ele>
        <time>2017-07-17T06:35:40Z</time>
      </trkpt>
      <trkpt lat="46.19862" lon="4.82817">
        <ele>192.80000305176</ele>
        <time>2017-07-17T06:35:47Z</time>
      </trkpt>
      <trkpt lat="46.199" lon="4.82818">
        <ele>193.80000305176</ele>
        <time>2017-07-17T06:35:54Z</time>
      </trkpt>
      <trkpt lat="46.19909" lon="4.82819">
        <ele>194.19999694824</ele>
        <time>2017-07-17T06:35:56Z</time>
      </trkpt>
      <trkpt lat="46.19934" lon="4.82823">
        <ele>195</ele>
        <time>2017-07-17T06:36:01Z</time>
      </trkpt>
      <trkpt lat="46.19943" lon="4.82826">
        <ele>195.19999694824</ele>
        <time>2017-07-17T06:36:03Z</time>
      </trkpt>
      <trkpt lat="46.19962" lon="4.82832">
        <ele>195.60000610352</ele>
        <time>2017-07-17T06:36:07Z</time>
      </trkpt>
      <trkpt lat="46.19967" lon="4.82835">
        <ele>196</ele>
        <time>2017-07-17T06:36:08Z</time>
      </trkpt>
      <trkpt lat="46.19981" lon="4.82842">
        <ele>196.39999389648</ele>
        <time>2017-07-17T06:36:11Z</time>
      </trkpt>
      <trkpt lat="46.20002" lon="4.82858">
        <ele>197.19999694824</ele>
        <time>2017-07-17T06:36:16Z</time>
      </trkpt>
      <trkpt lat="46.20006" lon="4.82861">
        <ele>197.39999389648</ele>
        <time>2017-07-17T06:36:17Z</time>
      </trkpt>
      <trkpt lat="46.20033" lon="4.82889">
        <ele>198.39999389648</ele>
        <time>2017-07-17T06:36:24Z</time>
      </trkpt>
      <trkpt lat="46.2004" lon="4.82897">
        <ele>198.80000305176</ele>
        <time>2017-07-17T06:36:26Z</time>
      </trkpt>
      <trkpt lat="46.20044" lon="4.82901">
        <ele>198.80000305176</ele>
        <time>2017-07-17T06:36:27Z</time>
      </trkpt>
      <trkpt lat="46.20054" lon="4.82916">
        <ele>199.39999389648</ele>
        <time>2017-07-17T06:36:30Z</time>
      </trkpt>
      <trkpt lat="46.20057" lon="4.8292">
        <ele>199.60000610352</ele>
        <time>2017-07-17T06:36:31Z</time>
      </trkpt>
      <trkpt lat="46.2006" lon="4.82925">
        <ele>200</ele>
        <time>2017-07-17T06:36:32Z</time>
      </trkpt>
      <trkpt lat="46.20074" lon="4.82947">
        <ele>200.60000610352</ele>
        <time>2017-07-17T06:36:37Z</time>
      </trkpt>
      <trkpt lat="46.20077" lon="4.82952">
        <ele>200.80000305176</ele>
        <time>2017-07-17T06:36:38Z</time>
      </trkpt>
      <trkpt lat="46.20085" lon="4.82965">
        <ele>201.19999694824</ele>
        <time>2017-07-17T06:36:41Z</time>
      </trkpt>
      <trkpt lat="46.20096" lon="4.82982">
        <ele>201.80000305176</ele>
        <time>2017-07-17T06:36:45Z</time>
      </trkpt>
      <trkpt lat="46.20108" lon="4.83">
        <ele>202.19999694824</ele>
        <time>2017-07-17T06:36:49Z</time>
      </trkpt>
      <trkpt lat="46.20125" lon="4.83023">
        <ele>202.80000305176</ele>
        <time>2017-07-17T06:36:54Z</time>
      </trkpt>
      <trkpt lat="46.20135" lon="4.83036">
        <ele>203.39999389648</ele>
        <time>2017-07-17T06:36:57Z</time>
      </trkpt>
      <trkpt lat="46.20142" lon="4.83045">
        <ele>203.80000305176</ele>
        <time>2017-07-17T06:36:59Z</time>
      </trkpt>
      <trkpt lat="46.20145" lon="4.83049">
        <ele>203.80000305176</ele>
        <time>2017-07-17T06:37:00Z</time>
      </trkpt>
      <trkpt lat="46.20164" lon="4.8307">
        <ele>204.80000305176</ele>
        <time>2017-07-17T06:37:05Z</time>
      </trkpt>
      <trkpt lat="46.20167" lon="4.83074">
        <ele>205</ele>
        <time>2017-07-17T06:37:06Z</time>
      </trkpt>
      <trkpt lat="46.20199" lon="4.83103">
        <ele>206</ele>
        <time>2017-07-17T06:37:14Z</time>
      </trkpt>
      <trkpt lat="46.20203" lon="4.83107">
        <ele>206</ele>
        <time>2017-07-17T06:37:15Z</time>
      </trkpt>
      <trkpt lat="46.20243" lon="4.83135">
        <ele>207</ele>
        <time>2017-07-17T06:37:24Z</time>
      </trkpt>
      <trkpt lat="46.20248" lon="4.83137">
        <ele>207</ele>
        <time>2017-07-17T06:37:25Z</time>
      </trkpt>
      <trkpt lat="46.20291" lon="4.83159">
        <ele>207.60000610352</ele>
        <time>2017-07-17T06:37:34Z</time>
      </trkpt>
      <trkpt lat="46.20317" lon="4.8317">
        <ele>208.19999694824</ele>
        <time>2017-07-17T06:37:39Z</time>
      </trkpt>
      <trkpt lat="46.20337" lon="4.8318">
        <ele>208.39999389648</ele>
        <time>2017-07-17T06:37:43Z</time>
      </trkpt>
      <trkpt lat="46.20378" lon="4.83205">
        <ele>208.60000610352</ele>
        <time>2017-07-17T06:37:51Z</time>
      </trkpt>
      <trkpt lat="46.20412" lon="4.83228">
        <ele>209.19999694824</ele>
        <time>2017-07-17T06:37:58Z</time>
      </trkpt>
      <trkpt lat="46.20422" lon="4.83234">
        <ele>209.39999389648</ele>
        <time>2017-07-17T06:38:00Z</time>
      </trkpt>
      <trkpt lat="46.20458" lon="4.83258">
        <ele>209.80000305176</ele>
        <time>2017-07-17T06:38:08Z</time>
      </trkpt>
      <trkpt lat="46.20481" lon="4.83273">
        <ele>210.39999389648</ele>
        <time>2017-07-17T06:38:13Z</time>
      </trkpt>
      <trkpt lat="46.20485" lon="4.83276">
        <ele>210.39999389648</ele>
        <time>2017-07-17T06:38:14Z</time>
      </trkpt>
      <trkpt lat="46.20511" lon="4.83296">
        <ele>211</ele>
        <time>2017-07-17T06:38:20Z</time>
      </trkpt>
      <trkpt lat="46.2052" lon="4.83304">
        <ele>211.19999694824</ele>
        <time>2017-07-17T06:38:22Z</time>
      </trkpt>
      <trkpt lat="46.20532" lon="4.83315">
        <ele>211.39999389648</ele>
        <time>2017-07-17T06:38:25Z</time>
      </trkpt>
      <trkpt lat="46.20544" lon="4.83327">
        <ele>211.60000610352</ele>
        <time>2017-07-17T06:38:28Z</time>
      </trkpt>
      <trkpt lat="46.20577" lon="4.83363">
        <ele>212.19999694824</ele>
        <time>2017-07-17T06:38:36Z</time>
      </trkpt>
      <trkpt lat="46.20585" lon="4.83372">
        <ele>212.39999389648</ele>
        <time>2017-07-17T06:38:38Z</time>
      </trkpt>
      <trkpt lat="46.20605" lon="4.83394">
        <ele>212.80000305176</ele>
        <time>2017-07-17T06:38:43Z</time>
      </trkpt>
      <trkpt lat="46.2064" lon="4.83423">
        <ele>213.39999389648</ele>
        <time>2017-07-17T06:38:51Z</time>
      </trkpt>
      <trkpt lat="46.20644" lon="4.83426">
        <ele>213.60000610352</ele>
        <time>2017-07-17T06:38:52Z</time>
      </trkpt>
      <trkpt lat="46.20675" lon="4.83446">
        <ele>214</ele>
        <time>2017-07-17T06:38:59Z</time>
      </trkpt>
      <trkpt lat="46.2068" lon="4.83448">
        <ele>214</ele>
        <time>2017-07-17T06:39:00Z</time>
      </trkpt>
      <trkpt lat="46.20696" lon="4.83458">
        <ele>214.39999389648</ele>
        <time>2017-07-17T06:39:04Z</time>
      </trkpt>
      <trkpt lat="46.20704" lon="4.83463">
        <ele>214.60000610352</ele>
        <time>2017-07-17T06:39:06Z</time>
      </trkpt>
      <trkpt lat="46.20735" lon="4.83482">
        <ele>215</ele>
        <time>2017-07-17T06:39:13Z</time>
      </trkpt>
      <trkpt lat="46.20772" lon="4.83504">
        <ele>215.19999694824</ele>
        <time>2017-07-17T06:39:21Z</time>
      </trkpt>
      <trkpt lat="46.20781" lon="4.83509">
        <ele>215</ele>
        <time>2017-07-17T06:39:23Z</time>
      </trkpt>
      <trkpt lat="46.20799" lon="4.83518">
        <ele>214.60000610352</ele>
        <time>2017-07-17T06:39:27Z</time>
      </trkpt>
      <trkpt lat="46.20836" lon="4.83537">
        <ele>214</ele>
        <time>2017-07-17T06:39:34Z</time>
      </trkpt>
      <trkpt lat="46.20864" lon="4.83553">
        <ele>213.39999389648</ele>
        <time>2017-07-17T06:39:39Z</time>
      </trkpt>
      <trkpt lat="46.20881" lon="4.83562">
        <ele>213</ele>
        <time>2017-07-17T06:39:43Z</time>
      </trkpt>
      <trkpt lat="46.20899" lon="4.83571">
        <ele>212.39999389648</ele>
        <time>2017-07-17T06:39:46Z</time>
      </trkpt>
      <trkpt lat="46.20924" lon="4.83579">
        <ele>211.80000305176</ele>
        <time>2017-07-17T06:39:50Z</time>
      </trkpt>
      <trkpt lat="46.20943" lon="4.83583">
        <ele>211.39999389648</ele>
        <time>2017-07-17T06:39:53Z</time>
      </trkpt>
      <trkpt lat="46.20963" lon="4.83586">
        <ele>210.80000305176</ele>
        <time>2017-07-17T06:39:56Z</time>
      </trkpt>
      <trkpt lat="46.20985" lon="4.83589">
        <ele>210.19999694824</ele>
        <time>2017-07-17T06:39:59Z</time>
      </trkpt>
      <trkpt lat="46.21016" lon="4.83593">
        <ele>209</ele>
        <time>2017-07-17T06:40:03Z</time>
      </trkpt>
      <trkpt lat="46.21046" lon="4.83597">
        <ele>207.80000305176</ele>
        <time>2017-07-17T06:40:07Z</time>
      </trkpt>
      <trkpt lat="46.2106" lon="4.836">
        <ele>207.39999389648</ele>
        <time>2017-07-17T06:40:09Z</time>
      </trkpt>
      <trkpt lat="46.21097" lon="4.83605">
        <ele>206.60000610352</ele>
        <time>2017-07-17T06:40:14Z</time>
      </trkpt>
      <trkpt lat="46.21118" lon="4.83606">
        <ele>206</ele>
        <time>2017-07-17T06:40:17Z</time>
      </trkpt>
      <trkpt lat="46.21139" lon="4.83602">
        <ele>205.60000610352</ele>
        <time>2017-07-17T06:40:20Z</time>
      </trkpt>
      <trkpt lat="46.21153" lon="4.83596">
        <ele>205.39999389648</ele>
        <time>2017-07-17T06:40:22Z</time>
      </trkpt>
      <trkpt lat="46.212" lon="4.83571">
        <ele>204.60000610352</ele>
        <time>2017-07-17T06:40:29Z</time>
      </trkpt>
      <trkpt lat="46.21207" lon="4.83568">
        <ele>204.39999389648</ele>
        <time>2017-07-17T06:40:30Z</time>
      </trkpt>
      <trkpt lat="46.21252" lon="4.83555">
        <ele>203.60000610352</ele>
        <time>2017-07-17T06:40:36Z</time>
      </trkpt>
      <trkpt lat="46.21259" lon="4.83554">
        <ele>203.39999389648</ele>
        <time>2017-07-17T06:40:37Z</time>
      </trkpt>
      <trkpt lat="46.21305" lon="4.8355">
        <ele>202.39999389648</ele>
        <time>2017-07-17T06:40:43Z</time>
      </trkpt>
      <trkpt lat="46.21351" lon="4.83547">
        <ele>201.19999694824</ele>
        <time>2017-07-17T06:40:49Z</time>
      </trkpt>
      <trkpt lat="46.21375" lon="4.83545">
        <ele>200.60000610352</ele>
        <time>2017-07-17T06:40:52Z</time>
      </trkpt>
      <trkpt lat="46.21399" lon="4.83541">
        <ele>200.19999694824</ele>
        <time>2017-07-17T06:40:55Z</time>
      </trkpt>
      <trkpt lat="46.21439" lon="4.83532">
        <ele>199.19999694824</ele>
        <time>2017-07-17T06:41:00Z</time>
      </trkpt>
      <trkpt lat="46.21447" lon="4.8353">
        <ele>199</ele>
        <time>2017-07-17T06:41:01Z</time>
      </trkpt>
      <trkpt lat="46.215" lon="4.83515">
        <ele>198.39999389648</ele>
        <time>2017-07-17T06:41:08Z</time>
      </trkpt>
      <trkpt lat="46.21508" lon="4.83513">
        <ele>198.39999389648</ele>
        <time>2017-07-17T06:41:09Z</time>
      </trkpt>
      <trkpt lat="46.21531" lon="4.83505">
        <ele>198</ele>
        <time>2017-07-17T06:41:12Z</time>
      </trkpt>
      <trkpt lat="46.2156" lon="4.83499">
        <ele>197.60000610352</ele>
        <time>2017-07-17T06:41:16Z</time>
      </trkpt>
      <trkpt lat="46.21589" lon="4.83491">
        <ele>197.39999389648</ele>
        <time>2017-07-17T06:41:20Z</time>
      </trkpt>
      <trkpt lat="46.21602" lon="4.83484">
        <ele>197.19999694824</ele>
        <time>2017-07-17T06:41:22Z</time>
      </trkpt>
      <trkpt lat="46.21649" lon="4.83458">
        <ele>197</ele>
        <time>2017-07-17T06:41:29Z</time>
      </trkpt>
      <trkpt lat="46.21674" lon="4.83443">
        <ele>197</ele>
        <time>2017-07-17T06:41:33Z</time>
      </trkpt>
      <trkpt lat="46.21687" lon="4.83438">
        <ele>197</ele>
        <time>2017-07-17T06:41:35Z</time>
      </trkpt>
      <trkpt lat="46.21694" lon="4.83438">
        <ele>196.80000305176</ele>
        <time>2017-07-17T06:41:36Z</time>
      </trkpt>
      <trkpt lat="46.21716" lon="4.83441">
        <ele>196.60000610352</ele>
        <time>2017-07-17T06:41:39Z</time>
      </trkpt>
      <trkpt lat="46.21753" lon="4.83452">
        <ele>196.19999694824</ele>
        <time>2017-07-17T06:41:44Z</time>
      </trkpt>
      <trkpt lat="46.21761" lon="4.83455">
        <ele>195.80000305176</ele>
        <time>2017-07-17T06:41:45Z</time>
      </trkpt>
      <trkpt lat="46.21807" lon="4.83473">
        <ele>194.80000305176</ele>
        <time>2017-07-17T06:41:51Z</time>
      </trkpt>
      <trkpt lat="46.21814" lon="4.83476">
        <ele>194.60000610352</ele>
        <time>2017-07-17T06:41:52Z</time>
      </trkpt>
      <trkpt lat="46.21845" lon="4.83482">
        <ele>193.80000305176</ele>
        <time>2017-07-17T06:41:56Z</time>
      </trkpt>
      <trkpt lat="46.21853" lon="4.83483">
        <ele>193.80000305176</ele>
        <time>2017-07-17T06:41:57Z</time>
      </trkpt>
      <trkpt lat="46.21881" lon="4.83492">
        <ele>193.60000610352</ele>
        <time>2017-07-17T06:42:01Z</time>
      </trkpt>
      <trkpt lat="46.21895" lon="4.835">
        <ele>193.60000610352</ele>
        <time>2017-07-17T06:42:03Z</time>
      </trkpt>
      <trkpt lat="46.21931" lon="4.83522">
        <ele>192.80000305176</ele>
        <time>2017-07-17T06:42:08Z</time>
      </trkpt>
      <trkpt lat="46.21945" lon="4.83529">
        <ele>192.19999694824</ele>
        <time>2017-07-17T06:42:10Z</time>
      </trkpt>
      <trkpt lat="46.21953" lon="4.83531">
        <ele>192</ele>
        <time>2017-07-17T06:42:11Z</time>
      </trkpt>
      <trkpt lat="46.21969" lon="4.83531">
        <ele>191.60000610352</ele>
        <time>2017-07-17T06:42:13Z</time>
      </trkpt>
      <trkpt lat="46.21994" lon="4.83529">
        <ele>191.19999694824</ele>
        <time>2017-07-17T06:42:16Z</time>
      </trkpt>
      <trkpt lat="46.22019" lon="4.83527">
        <ele>190.60000610352</ele>
        <time>2017-07-17T06:42:19Z</time>
      </trkpt>
      <trkpt lat="46.22044" lon="4.83525">
        <ele>189.80000305176</ele>
        <time>2017-07-17T06:42:22Z</time>
      </trkpt>
      <trkpt lat="46.22061" lon="4.83521">
        <ele>189.39999389648</ele>
        <time>2017-07-17T06:42:24Z</time>
      </trkpt>
      <trkpt lat="46.22094" lon="4.83513">
        <ele>188.80000305176</ele>
        <time>2017-07-17T06:42:28Z</time>
      </trkpt>
      <trkpt lat="46.22132" lon="4.83499">
        <ele>188.39999389648</ele>
        <time>2017-07-17T06:42:33Z</time>
      </trkpt>
      <trkpt lat="46.22153" lon="4.83488">
        <ele>188.39999389648</ele>
        <time>2017-07-17T06:42:36Z</time>
      </trkpt>
      <trkpt lat="46.22205" lon="4.83459">
        <ele>187.80000305176</ele>
        <time>2017-07-17T06:42:43Z</time>
      </trkpt>
      <trkpt lat="46.22212" lon="4.83455">
        <ele>187.80000305176</ele>
        <time>2017-07-17T06:42:44Z</time>
      </trkpt>
      <trkpt lat="46.22241" lon="4.83443">
        <ele>187.39999389648</ele>
        <time>2017-07-17T06:42:48Z</time>
      </trkpt>
      <trkpt lat="46.22257" lon="4.83439">
        <ele>187.19999694824</ele>
        <time>2017-07-17T06:42:50Z</time>
      </trkpt>
      <trkpt lat="46.22303" lon="4.83436">
        <ele>186.80000305176</ele>
        <time>2017-07-17T06:42:56Z</time>
      </trkpt>
      <trkpt lat="46.22327" lon="4.83433">
        <ele>186.39999389648</ele>
        <time>2017-07-17T06:42:59Z</time>
      </trkpt>
      <trkpt lat="46.22349" lon="4.83425">
        <ele>186.19999694824</ele>
        <time>2017-07-17T06:43:02Z</time>
      </trkpt>
      <trkpt lat="46.22381" lon="4.83395">
        <ele>186</ele>
        <time>2017-07-17T06:43:07Z</time>
      </trkpt>
      <trkpt lat="46.22405" lon="4.83353">
        <ele>185.60000610352</ele>
        <time>2017-07-17T06:43:12Z</time>
      </trkpt>
      <trkpt lat="46.22438" lon="4.8328">
        <ele>185.39999389648</ele>
        <time>2017-07-17T06:43:20Z</time>
      </trkpt>
      <trkpt lat="46.22442" lon="4.83271">
        <ele>185.39999389648</ele>
        <time>2017-07-17T06:43:21Z</time>
      </trkpt>
      <trkpt lat="46.2246" lon="4.83237">
        <ele>185.19999694824</ele>
        <time>2017-07-17T06:43:25Z</time>
      </trkpt>
      <trkpt lat="46.22473" lon="4.83229">
        <ele>185.19999694824</ele>
        <time>2017-07-17T06:43:27Z</time>
      </trkpt>
      <trkpt lat="46.22494" lon="4.83237">
        <ele>185</ele>
        <time>2017-07-17T06:43:30Z</time>
      </trkpt>
      <trkpt lat="46.2251" lon="4.8326">
        <ele>184.80000305176</ele>
        <time>2017-07-17T06:43:33Z</time>
      </trkpt>
      <trkpt lat="46.22541" lon="4.83316">
        <ele>184.60000610352</ele>
        <time>2017-07-17T06:43:40Z</time>
      </trkpt>
      <trkpt lat="46.22577" lon="4.83378">
        <ele>184.60000610352</ele>
        <time>2017-07-17T06:43:48Z</time>
      </trkpt>
      <trkpt lat="46.22582" lon="4.83385">
        <ele>184.60000610352</ele>
        <time>2017-07-17T06:43:49Z</time>
      </trkpt>
      <trkpt lat="46.2262" lon="4.8345">
        <ele>184.39999389648</ele>
        <time>2017-07-17T06:43:58Z</time>
      </trkpt>
      <trkpt lat="46.22651" lon="4.83503">
        <ele>185.19999694824</ele>
        <time>2017-07-17T06:44:06Z</time>
      </trkpt>
      <trkpt lat="46.22686" lon="4.83562">
        <ele>185.80000305176</ele>
        <time>2017-07-17T06:44:15Z</time>
      </trkpt>
      <trkpt lat="46.22723" lon="4.83625">
        <ele>186.19999694824</ele>
        <time>2017-07-17T06:44:25Z</time>
      </trkpt>
      <trkpt lat="46.22726" lon="4.83631">
        <ele>186.19999694824</ele>
        <time>2017-07-17T06:44:26Z</time>
      </trkpt>
      <trkpt lat="46.22734" lon="4.83643">
        <ele>186.39999389648</ele>
        <time>2017-07-17T06:44:28Z</time>
      </trkpt>
      <trkpt lat="46.22767" lon="4.83701">
        <ele>186.80000305176</ele>
        <time>2017-07-17T06:44:37Z</time>
      </trkpt>
      <trkpt lat="46.22799" lon="4.83755">
        <ele>187.19999694824</ele>
        <time>2017-07-17T06:44:46Z</time>
      </trkpt>
      <trkpt lat="46.22813" lon="4.83779">
        <ele>187.39999389648</ele>
        <time>2017-07-17T06:44:50Z</time>
      </trkpt>
      <trkpt lat="46.22833" lon="4.83813">
        <ele>188</ele>
        <time>2017-07-17T06:44:56Z</time>
      </trkpt>
      <trkpt lat="46.2285" lon="4.83842">
        <ele>188.60000610352</ele>
        <time>2017-07-17T06:45:01Z</time>
      </trkpt>
      <trkpt lat="46.22867" lon="4.8387">
        <ele>189.39999389648</ele>
        <time>2017-07-17T06:45:06Z</time>
      </trkpt>
      <trkpt lat="46.22892" lon="4.83911">
        <ele>189.80000305176</ele>
        <time>2017-07-17T06:45:13Z</time>
      </trkpt>
      <trkpt lat="46.22898" lon="4.83922">
        <ele>190</ele>
        <time>2017-07-17T06:45:15Z</time>
      </trkpt>
      <trkpt lat="46.22924" lon="4.83966">
        <ele>190.80000305176</ele>
        <time>2017-07-17T06:45:23Z</time>
      </trkpt>
      <trkpt lat="46.22934" lon="4.83982">
        <ele>191.19999694824</ele>
        <time>2017-07-17T06:45:26Z</time>
      </trkpt>
      <trkpt lat="46.2295" lon="4.84008">
        <ele>191.80000305176</ele>
        <time>2017-07-17T06:45:31Z</time>
      </trkpt>
      <trkpt lat="46.2296" lon="4.8403">
        <ele>192.39999389648</ele>
        <time>2017-07-17T06:45:35Z</time>
      </trkpt>
      <trkpt lat="46.22963" lon="4.84042">
        <ele>192.60000610352</ele>
        <time>2017-07-17T06:45:37Z</time>
      </trkpt>
      <trkpt lat="46.22968" lon="4.84059">
        <ele>193</ele>
        <time>2017-07-17T06:45:40Z</time>
      </trkpt>
      <trkpt lat="46.22971" lon="4.84063">
        <ele>193.19999694824</ele>
        <time>2017-07-17T06:45:41Z</time>
      </trkpt>
      <trkpt lat="46.22986" lon="4.84079">
        <ele>194</ele>
        <time>2017-07-17T06:45:45Z</time>
      </trkpt>
      <trkpt lat="46.2299" lon="4.84083">
        <ele>194</ele>
        <time>2017-07-17T06:45:46Z</time>
      </trkpt>
      <trkpt lat="46.23009" lon="4.8411">
        <ele>194.39999389648</ele>
        <time>2017-07-17T06:45:52Z</time>
      </trkpt>
      <trkpt lat="46.23023" lon="4.84133">
        <ele>195</ele>
        <time>2017-07-17T06:45:57Z</time>
      </trkpt>
      <trkpt lat="46.23029" lon="4.84142">
        <ele>195.60000610352</ele>
        <time>2017-07-17T06:45:59Z</time>
      </trkpt>
      <trkpt lat="46.23044" lon="4.84169">
        <ele>196.19999694824</ele>
        <time>2017-07-17T06:46:04Z</time>
      </trkpt>
      <trkpt lat="46.23049" lon="4.8418">
        <ele>196.39999389648</ele>
        <time>2017-07-17T06:46:06Z</time>
      </trkpt>
      <trkpt lat="46.23064" lon="4.84203">
        <ele>197.19999694824</ele>
        <time>2017-07-17T06:46:11Z</time>
      </trkpt>
      <trkpt lat="46.23074" lon="4.84222">
        <ele>198</ele>
        <time>2017-07-17T06:46:15Z</time>
      </trkpt>
      <trkpt lat="46.2308" lon="4.84232">
        <ele>198.19999694824</ele>
        <time>2017-07-17T06:46:17Z</time>
      </trkpt>
      <trkpt lat="46.23088" lon="4.84246">
        <ele>198.80000305176</ele>
        <time>2017-07-17T06:46:20Z</time>
      </trkpt>
      <trkpt lat="46.23094" lon="4.84255">
        <ele>199</ele>
        <time>2017-07-17T06:46:22Z</time>
      </trkpt>
      <trkpt lat="46.231" lon="4.84265">
        <ele>199.39999389648</ele>
        <time>2017-07-17T06:46:24Z</time>
      </trkpt>
      <trkpt lat="46.2312" lon="4.84298">
        <ele>200.39999389648</ele>
        <time>2017-07-17T06:46:31Z</time>
      </trkpt>
      <trkpt lat="46.23138" lon="4.84329">
        <ele>201.60000610352</ele>
        <time>2017-07-17T06:46:37Z</time>
      </trkpt>
      <trkpt lat="46.23143" lon="4.84339">
        <ele>201.80000305176</ele>
        <time>2017-07-17T06:46:39Z</time>
      </trkpt>
      <trkpt lat="46.23164" lon="4.84376">
        <ele>202.60000610352</ele>
        <time>2017-07-17T06:46:47Z</time>
      </trkpt>
      <trkpt lat="46.23167" lon="4.84381">
        <ele>202.80000305176</ele>
        <time>2017-07-17T06:46:48Z</time>
      </trkpt>
      <trkpt lat="46.23183" lon="4.84408">
        <ele>203.80000305176</ele>
        <time>2017-07-17T06:46:54Z</time>
      </trkpt>
      <trkpt lat="46.23189" lon="4.84418">
        <ele>204</ele>
        <time>2017-07-17T06:46:56Z</time>
      </trkpt>
      <trkpt lat="46.23198" lon="4.84434">
        <ele>204.80000305176</ele>
        <time>2017-07-17T06:46:59Z</time>
      </trkpt>
      <trkpt lat="46.23221" lon="4.84472">
        <ele>205.39999389648</ele>
        <time>2017-07-17T06:47:06Z</time>
      </trkpt>
      <trkpt lat="46.23238" lon="4.845">
        <ele>205.80000305176</ele>
        <time>2017-07-17T06:47:11Z</time>
      </trkpt>
      <trkpt lat="46.23251" lon="4.84524">
        <ele>205.80000305176</ele>
        <time>2017-07-17T06:47:15Z</time>
      </trkpt>
      <trkpt lat="46.23281" lon="4.84573">
        <ele>206.39999389648</ele>
        <time>2017-07-17T06:47:24Z</time>
      </trkpt>
      <trkpt lat="46.23293" lon="4.84594">
        <ele>206.80000305176</ele>
        <time>2017-07-17T06:47:28Z</time>
      </trkpt>
      <trkpt lat="46.23315" lon="4.84632">
        <ele>207.80000305176</ele>
        <time>2017-07-17T06:47:35Z</time>
      </trkpt>
      <trkpt lat="46.23321" lon="4.84644">
        <ele>207.80000305176</ele>
        <time>2017-07-17T06:47:37Z</time>
      </trkpt>
      <trkpt lat="46.23342" lon="4.84678">
        <ele>208</ele>
        <time>2017-07-17T06:47:43Z</time>
      </trkpt>
      <trkpt lat="46.23371" lon="4.84728">
        <ele>208.60000610352</ele>
        <time>2017-07-17T06:47:52Z</time>
      </trkpt>
      <trkpt lat="46.2339" lon="4.84762">
        <ele>208.60000610352</ele>
        <time>2017-07-17T06:47:58Z</time>
      </trkpt>
      <trkpt lat="46.23393" lon="4.84767">
        <ele>208.60000610352</ele>
        <time>2017-07-17T06:47:59Z</time>
      </trkpt>
      <trkpt lat="46.23415" lon="4.84806">
        <ele>209</ele>
        <time>2017-07-17T06:48:06Z</time>
      </trkpt>
      <trkpt lat="46.23421" lon="4.84817">
        <ele>209.19999694824</ele>
        <time>2017-07-17T06:48:08Z</time>
      </trkpt>
      <trkpt lat="46.23449" lon="4.84859">
        <ele>209.80000305176</ele>
        <time>2017-07-17T06:48:16Z</time>
      </trkpt>
      <trkpt lat="46.23476" lon="4.84905">
        <ele>210</ele>
        <time>2017-07-17T06:48:24Z</time>
      </trkpt>
      <trkpt lat="46.2351" lon="4.84961">
        <ele>209.80000305176</ele>
        <time>2017-07-17T06:48:33Z</time>
      </trkpt>
      <trkpt lat="46.23544" lon="4.85019">
        <ele>209.60000610352</ele>
        <time>2017-07-17T06:48:42Z</time>
      </trkpt>
      <trkpt lat="46.2357" lon="4.85063">
        <ele>210.19999694824</ele>
        <time>2017-07-17T06:48:50Z</time>
      </trkpt>
      <trkpt lat="46.236" lon="4.85112">
        <ele>211</ele>
        <time>2017-07-17T06:48:59Z</time>
      </trkpt>
      <trkpt lat="46.23603" lon="4.85118">
        <ele>211</ele>
        <time>2017-07-17T06:49:00Z</time>
      </trkpt>
      <trkpt lat="46.23632" lon="4.85167">
        <ele>212</ele>
        <time>2017-07-17T06:49:09Z</time>
      </trkpt>
      <trkpt lat="46.23635" lon="4.85172">
        <ele>212</ele>
        <time>2017-07-17T06:49:10Z</time>
      </trkpt>
      <trkpt lat="46.23665" lon="4.85222">
        <ele>213</ele>
        <time>2017-07-17T06:49:20Z</time>
      </trkpt>
      <trkpt lat="46.23667" lon="4.85227">
        <ele>213.19999694824</ele>
        <time>2017-07-17T06:49:21Z</time>
      </trkpt>
      <trkpt lat="46.23684" lon="4.85255">
        <ele>214.19999694824</ele>
        <time>2017-07-17T06:49:27Z</time>
      </trkpt>
      <trkpt lat="46.23687" lon="4.85259">
        <ele>214.39999389648</ele>
        <time>2017-07-17T06:49:28Z</time>
      </trkpt>
      <trkpt lat="46.23701" lon="4.85282">
        <ele>215.19999694824</ele>
        <time>2017-07-17T06:49:33Z</time>
      </trkpt>
      <trkpt lat="46.23712" lon="4.85301">
        <ele>216</ele>
        <time>2017-07-17T06:49:37Z</time>
      </trkpt>
      <trkpt lat="46.23718" lon="4.85311">
        <ele>216.39999389648</ele>
        <time>2017-07-17T06:49:39Z</time>
      </trkpt>
      <trkpt lat="46.23721" lon="4.85317">
        <ele>216.60000610352</ele>
        <time>2017-07-17T06:49:40Z</time>
      </trkpt>
      <trkpt lat="46.2373" lon="4.85332">
        <ele>217</ele>
        <time>2017-07-17T06:49:43Z</time>
      </trkpt>
      <trkpt lat="46.23739" lon="4.85348">
        <ele>217.39999389648</ele>
        <time>2017-07-17T06:49:46Z</time>
      </trkpt>
      <trkpt lat="46.23758" lon="4.85381">
        <ele>218.39999389648</ele>
        <time>2017-07-17T06:49:52Z</time>
      </trkpt>
      <trkpt lat="46.23775" lon="4.8541">
        <ele>218.60000610352</ele>
        <time>2017-07-17T06:49:57Z</time>
      </trkpt>
      <trkpt lat="46.23782" lon="4.85422">
        <ele>218.60000610352</ele>
        <time>2017-07-17T06:49:59Z</time>
      </trkpt>
      <trkpt lat="46.23809" lon="4.85466">
        <ele>218.39999389648</ele>
        <time>2017-07-17T06:50:06Z</time>
      </trkpt>
      <trkpt lat="46.23838" lon="4.85516">
        <ele>217.80000305176</ele>
        <time>2017-07-17T06:50:13Z</time>
      </trkpt>
      <trkpt lat="46.23847" lon="4.85532">
        <ele>217.39999389648</ele>
        <time>2017-07-17T06:50:15Z</time>
      </trkpt>
      <trkpt lat="46.23871" lon="4.85571">
        <ele>216.39999389648</ele>
        <time>2017-07-17T06:50:20Z</time>
      </trkpt>
      <trkpt lat="46.2388" lon="4.85588">
        <ele>216</ele>
        <time>2017-07-17T06:50:22Z</time>
      </trkpt>
      <trkpt lat="46.23897" lon="4.85613">
        <ele>215.19999694824</ele>
        <time>2017-07-17T06:50:25Z</time>
      </trkpt>
      <trkpt lat="46.23913" lon="4.8564">
        <ele>214.60000610352</ele>
        <time>2017-07-17T06:50:28Z</time>
      </trkpt>
      <trkpt lat="46.23923" lon="4.85659">
        <ele>214.19999694824</ele>
        <time>2017-07-17T06:50:30Z</time>
      </trkpt>
      <trkpt lat="46.23946" lon="4.85697">
        <ele>213</ele>
        <time>2017-07-17T06:50:34Z</time>
      </trkpt>
      <trkpt lat="46.23968" lon="4.85735">
        <ele>212</ele>
        <time>2017-07-17T06:50:38Z</time>
      </trkpt>
      <trkpt lat="46.23985" lon="4.85765">
        <ele>211</ele>
        <time>2017-07-17T06:50:41Z</time>
      </trkpt>
      <trkpt lat="46.23991" lon="4.85774">
        <ele>210.60000610352</ele>
        <time>2017-07-17T06:50:42Z</time>
      </trkpt>
      <trkpt lat="46.24009" lon="4.85803">
        <ele>209.60000610352</ele>
        <time>2017-07-17T06:50:45Z</time>
      </trkpt>
      <trkpt lat="46.24031" lon="4.85841">
        <ele>208.60000610352</ele>
        <time>2017-07-17T06:50:49Z</time>
      </trkpt>
      <trkpt lat="46.2406" lon="4.85887">
        <ele>207.39999389648</ele>
        <time>2017-07-17T06:50:54Z</time>
      </trkpt>
      <trkpt lat="46.24082" lon="4.85925">
        <ele>206.60000610352</ele>
        <time>2017-07-17T06:50:58Z</time>
      </trkpt>
      <trkpt lat="46.24087" lon="4.85935">
        <ele>206.39999389648</ele>
        <time>2017-07-17T06:50:59Z</time>
      </trkpt>
      <trkpt lat="46.24115" lon="4.85981">
        <ele>205.39999389648</ele>
        <time>2017-07-17T06:51:04Z</time>
      </trkpt>
      <trkpt lat="46.24132" lon="4.86009">
        <ele>204.80000305176</ele>
        <time>2017-07-17T06:51:07Z</time>
      </trkpt>
      <trkpt lat="46.24149" lon="4.86038">
        <ele>204.39999389648</ele>
        <time>2017-07-17T06:51:10Z</time>
      </trkpt>
      <trkpt lat="46.24172" lon="4.86076">
        <ele>203.19999694824</ele>
        <time>2017-07-17T06:51:14Z</time>
      </trkpt>
      <trkpt lat="46.24178" lon="4.86086">
        <ele>203</ele>
        <time>2017-07-17T06:51:15Z</time>
      </trkpt>
      <trkpt lat="46.24194" lon="4.86113">
        <ele>202</ele>
        <time>2017-07-17T06:51:18Z</time>
      </trkpt>
      <trkpt lat="46.24215" lon="4.86148">
        <ele>201</ele>
        <time>2017-07-17T06:51:22Z</time>
      </trkpt>
      <trkpt lat="46.24226" lon="4.86166">
        <ele>200.60000610352</ele>
        <time>2017-07-17T06:51:24Z</time>
      </trkpt>
      <trkpt lat="46.24252" lon="4.86209">
        <ele>199.80000305176</ele>
        <time>2017-07-17T06:51:29Z</time>
      </trkpt>
      <trkpt lat="46.24267" lon="4.86236">
        <ele>199.19999694824</ele>
        <time>2017-07-17T06:51:32Z</time>
      </trkpt>
      <trkpt lat="46.24277" lon="4.86253">
        <ele>198.80000305176</ele>
        <time>2017-07-17T06:51:34Z</time>
      </trkpt>
      <trkpt lat="46.24313" lon="4.86314">
        <ele>197.60000610352</ele>
        <time>2017-07-17T06:51:41Z</time>
      </trkpt>
      <trkpt lat="46.24347" lon="4.86372">
        <ele>196.60000610352</ele>
        <time>2017-07-17T06:51:48Z</time>
      </trkpt>
      <trkpt lat="46.24362" lon="4.86397">
        <ele>196.60000610352</ele>
        <time>2017-07-17T06:51:51Z</time>
      </trkpt>
      <trkpt lat="46.244" lon="4.86461">
        <ele>195.80000305176</ele>
        <time>2017-07-17T06:51:59Z</time>
      </trkpt>
      <trkpt lat="46.24405" lon="4.86469">
        <ele>195.60000610352</ele>
        <time>2017-07-17T06:52:00Z</time>
      </trkpt>
      <trkpt lat="46.24421" lon="4.86494">
        <ele>195.19999694824</ele>
        <time>2017-07-17T06:52:03Z</time>
      </trkpt>
      <trkpt lat="46.24446" lon="4.86538">
        <ele>194.39999389648</ele>
        <time>2017-07-17T06:52:08Z</time>
      </trkpt>
      <trkpt lat="46.2446" lon="4.86561">
        <ele>194</ele>
        <time>2017-07-17T06:52:11Z</time>
      </trkpt>
      <trkpt lat="46.24485" lon="4.86602">
        <ele>194.39999389648</ele>
        <time>2017-07-17T06:52:17Z</time>
      </trkpt>
      <trkpt lat="46.24507" lon="4.86641">
        <ele>195.60000610352</ele>
        <time>2017-07-17T06:52:23Z</time>
      </trkpt>
      <trkpt lat="46.24522" lon="4.86665">
        <ele>196.19999694824</ele>
        <time>2017-07-17T06:52:27Z</time>
      </trkpt>
      <trkpt lat="46.24558" lon="4.86728">
        <ele>196.60000610352</ele>
        <time>2017-07-17T06:52:37Z</time>
      </trkpt>
      <trkpt lat="46.24562" lon="4.86733">
        <ele>196.80000305176</ele>
        <time>2017-07-17T06:52:38Z</time>
      </trkpt>
      <trkpt lat="46.24599" lon="4.86795">
        <ele>197.80000305176</ele>
        <time>2017-07-17T06:52:49Z</time>
      </trkpt>
      <trkpt lat="46.24625" lon="4.8684">
        <ele>198.60000610352</ele>
        <time>2017-07-17T06:52:57Z</time>
      </trkpt>
      <trkpt lat="46.24629" lon="4.86846">
        <ele>198.80000305176</ele>
        <time>2017-07-17T06:52:58Z</time>
      </trkpt>
      <trkpt lat="46.24652" lon="4.86885">
        <ele>199.60000610352</ele>
        <time>2017-07-17T06:53:05Z</time>
      </trkpt>
      <trkpt lat="46.24659" lon="4.86897">
        <ele>200</ele>
        <time>2017-07-17T06:53:07Z</time>
      </trkpt>
      <trkpt lat="46.24682" lon="4.86936">
        <ele>201</ele>
        <time>2017-07-17T06:53:14Z</time>
      </trkpt>
      <trkpt lat="46.24685" lon="4.86941">
        <ele>201</ele>
        <time>2017-07-17T06:53:15Z</time>
      </trkpt>
      <trkpt lat="46.24721" lon="4.87001">
        <ele>202.19999694824</ele>
        <time>2017-07-17T06:53:26Z</time>
      </trkpt>
      <trkpt lat="46.2473" lon="4.87017">
        <ele>202.60000610352</ele>
        <time>2017-07-17T06:53:29Z</time>
      </trkpt>
      <trkpt lat="46.24746" lon="4.87045">
        <ele>203.19999694824</ele>
        <time>2017-07-17T06:53:34Z</time>
      </trkpt>
      <trkpt lat="46.24757" lon="4.87063">
        <ele>203.39999389648</ele>
        <time>2017-07-17T06:53:37Z</time>
      </trkpt>
      <trkpt lat="46.24789" lon="4.87118">
        <ele>203.19999694824</ele>
        <time>2017-07-17T06:53:45Z</time>
      </trkpt>
      <trkpt lat="46.24824" lon="4.87179">
        <ele>202.19999694824</ele>
        <time>2017-07-17T06:53:53Z</time>
      </trkpt>
      <trkpt lat="46.24829" lon="4.87187">
        <ele>202.19999694824</ele>
        <time>2017-07-17T06:53:54Z</time>
      </trkpt>
      <trkpt lat="46.24868" lon="4.87252">
        <ele>201.19999694824</ele>
        <time>2017-07-17T06:54:02Z</time>
      </trkpt>
      <trkpt lat="46.24873" lon="4.87261">
        <ele>201</ele>
        <time>2017-07-17T06:54:03Z</time>
      </trkpt>
      <trkpt lat="46.24908" lon="4.87322">
        <ele>200</ele>
        <time>2017-07-17T06:54:10Z</time>
      </trkpt>
      <trkpt lat="46.24936" lon="4.87368">
        <ele>198.60000610352</ele>
        <time>2017-07-17T06:54:15Z</time>
      </trkpt>
      <trkpt lat="46.24948" lon="4.87388">
        <ele>198</ele>
        <time>2017-07-17T06:54:17Z</time>
      </trkpt>
      <trkpt lat="46.2496" lon="4.87409">
        <ele>197.39999389648</ele>
        <time>2017-07-17T06:54:19Z</time>
      </trkpt>
      <trkpt lat="46.24978" lon="4.87439">
        <ele>196.39999389648</ele>
        <time>2017-07-17T06:54:22Z</time>
      </trkpt>
      <trkpt lat="46.24996" lon="4.8747">
        <ele>195.39999389648</ele>
        <time>2017-07-17T06:54:25Z</time>
      </trkpt>
      <trkpt lat="46.25002" lon="4.8748">
        <ele>195</ele>
        <time>2017-07-17T06:54:26Z</time>
      </trkpt>
      <trkpt lat="46.25015" lon="4.87502">
        <ele>193.80000305176</ele>
        <time>2017-07-17T06:54:28Z</time>
      </trkpt>
      <trkpt lat="46.25034" lon="4.87534">
        <ele>192.80000305176</ele>
        <time>2017-07-17T06:54:31Z</time>
      </trkpt>
      <trkpt lat="46.25046" lon="4.87555">
        <ele>192.19999694824</ele>
        <time>2017-07-17T06:54:33Z</time>
      </trkpt>
      <trkpt lat="46.25052" lon="4.87565">
        <ele>191.60000610352</ele>
        <time>2017-07-17T06:54:34Z</time>
      </trkpt>
      <trkpt lat="46.25077" lon="4.87606">
        <ele>190.39999389648</ele>
        <time>2017-07-17T06:54:38Z</time>
      </trkpt>
      <trkpt lat="46.25089" lon="4.87626">
        <ele>189.80000305176</ele>
        <time>2017-07-17T06:54:40Z</time>
      </trkpt>
      <trkpt lat="46.25101" lon="4.87646">
        <ele>189.39999389648</ele>
        <time>2017-07-17T06:54:42Z</time>
      </trkpt>
      <trkpt lat="46.25129" lon="4.87694">
        <ele>189</ele>
        <time>2017-07-17T06:54:47Z</time>
      </trkpt>
      <trkpt lat="46.25152" lon="4.87732">
        <ele>188.39999389648</ele>
        <time>2017-07-17T06:54:51Z</time>
      </trkpt>
      <trkpt lat="46.25173" lon="4.87769">
        <ele>187.80000305176</ele>
        <time>2017-07-17T06:54:55Z</time>
      </trkpt>
      <trkpt lat="46.25199" lon="4.87812">
        <ele>187.19999694824</ele>
        <time>2017-07-17T06:55:00Z</time>
      </trkpt>
      <trkpt lat="46.25214" lon="4.87836">
        <ele>187</ele>
        <time>2017-07-17T06:55:03Z</time>
      </trkpt>
      <trkpt lat="46.25252" lon="4.879">
        <ele>186.39999389648</ele>
        <time>2017-07-17T06:55:11Z</time>
      </trkpt>
      <trkpt lat="46.25256" lon="4.87908">
        <ele>186.39999389648</ele>
        <time>2017-07-17T06:55:12Z</time>
      </trkpt>
      <trkpt lat="46.25266" lon="4.87924">
        <ele>186.19999694824</ele>
        <time>2017-07-17T06:55:14Z</time>
      </trkpt>
      <trkpt lat="46.25301" lon="4.87984">
        <ele>186.19999694824</ele>
        <time>2017-07-17T06:55:22Z</time>
      </trkpt>
      <trkpt lat="46.25329" lon="4.88032">
        <ele>186.60000610352</ele>
        <time>2017-07-17T06:55:29Z</time>
      </trkpt>
      <trkpt lat="46.25363" lon="4.8809">
        <ele>186.60000610352</ele>
        <time>2017-07-17T06:55:37Z</time>
      </trkpt>
      <trkpt lat="46.25397" lon="4.88148">
        <ele>186.19999694824</ele>
        <time>2017-07-17T06:55:45Z</time>
      </trkpt>
      <trkpt lat="46.25421" lon="4.88188">
        <ele>186.60000610352</ele>
        <time>2017-07-17T06:55:51Z</time>
      </trkpt>
      <trkpt lat="46.25449" lon="4.88236">
        <ele>187</ele>
        <time>2017-07-17T06:55:58Z</time>
      </trkpt>
      <trkpt lat="46.25479" lon="4.88286">
        <ele>187.19999694824</ele>
        <time>2017-07-17T06:56:05Z</time>
      </trkpt>
      <trkpt lat="46.25511" lon="4.88342">
        <ele>186.39999389648</ele>
        <time>2017-07-17T06:56:12Z</time>
      </trkpt>
      <trkpt lat="46.25538" lon="4.88387">
        <ele>185.19999694824</ele>
        <time>2017-07-17T06:56:17Z</time>
      </trkpt>
      <trkpt lat="46.25558" lon="4.88422">
        <ele>184.39999389648</ele>
        <time>2017-07-17T06:56:21Z</time>
      </trkpt>
      <trkpt lat="46.25564" lon="4.8843">
        <ele>184.19999694824</ele>
        <time>2017-07-17T06:56:22Z</time>
      </trkpt>
      <trkpt lat="46.25603" lon="4.88497">
        <ele>183.60000610352</ele>
        <time>2017-07-17T06:56:30Z</time>
      </trkpt>
      <trkpt lat="46.25634" lon="4.8855">
        <ele>183.39999389648</ele>
        <time>2017-07-17T06:56:37Z</time>
      </trkpt>
      <trkpt lat="46.25672" lon="4.88614">
        <ele>183.60000610352</ele>
        <time>2017-07-17T06:56:46Z</time>
      </trkpt>
      <trkpt lat="46.25711" lon="4.8868">
        <ele>183.60000610352</ele>
        <time>2017-07-17T06:56:55Z</time>
      </trkpt>
      <trkpt lat="46.25715" lon="4.88687">
        <ele>183.60000610352</ele>
        <time>2017-07-17T06:56:56Z</time>
      </trkpt>
      <trkpt lat="46.25738" lon="4.88726">
        <ele>183.60000610352</ele>
        <time>2017-07-17T06:57:02Z</time>
      </trkpt>
      <trkpt lat="46.25762" lon="4.88766">
        <ele>183.60000610352</ele>
        <time>2017-07-17T06:57:09Z</time>
      </trkpt>
      <trkpt lat="46.25769" lon="4.8879">
        <ele>183.80000305176</ele>
        <time>2017-07-17T06:57:14Z</time>
      </trkpt>
      <trkpt lat="46.25774" lon="4.88799">
        <ele>183.60000610352</ele>
        <time>2017-07-17T06:57:17Z</time>
      </trkpt>
      <trkpt lat="46.25778" lon="4.88799">
        <ele>183.60000610352</ele>
        <time>2017-07-17T06:57:18Z</time>
      </trkpt>
      <trkpt lat="46.25787" lon="4.888">
        <ele>183.39999389648</ele>
        <time>2017-07-17T06:57:20Z</time>
      </trkpt>
      <trkpt lat="46.25802" lon="4.88802">
        <ele>183.39999389648</ele>
        <time>2017-07-17T06:57:23Z</time>
      </trkpt>
      <trkpt lat="46.25845" lon="4.88806">
        <ele>183.80000305176</ele>
        <time>2017-07-17T06:57:31Z</time>
      </trkpt>
      <trkpt lat="46.25892" lon="4.88808">
        <ele>184</ele>
        <time>2017-07-17T06:57:39Z</time>
      </trkpt>
      <trkpt lat="46.25924" lon="4.88802">
        <ele>184</ele>
        <time>2017-07-17T06:57:45Z</time>
      </trkpt>
      <trkpt lat="46.25942" lon="4.88797">
        <ele>183.80000305176</ele>
        <time>2017-07-17T06:57:48Z</time>
      </trkpt>
      <trkpt lat="46.2596" lon="4.88792">
        <ele>183.60000610352</ele>
        <time>2017-07-17T06:57:51Z</time>
      </trkpt>
      <trkpt lat="46.26002" lon="4.88782">
        <ele>184</ele>
        <time>2017-07-17T06:57:58Z</time>
      </trkpt>
      <trkpt lat="46.2604" lon="4.8878">
        <ele>184</ele>
        <time>2017-07-17T06:58:04Z</time>
      </trkpt>
      <trkpt lat="46.26082" lon="4.88779">
        <ele>183.80000305176</ele>
        <time>2017-07-17T06:58:11Z</time>
      </trkpt>
      <trkpt lat="46.26107" lon="4.88773">
        <ele>183.60000610352</ele>
        <time>2017-07-17T06:58:15Z</time>
      </trkpt>
      <trkpt lat="46.26116" lon="4.88765">
        <ele>183.80000305176</ele>
        <time>2017-07-17T06:58:17Z</time>
      </trkpt>
      <trkpt lat="46.26128" lon="4.88747">
        <ele>183.80000305176</ele>
        <time>2017-07-17T06:58:20Z</time>
      </trkpt>
      <trkpt lat="46.26132" lon="4.88741">
        <ele>184</ele>
        <time>2017-07-17T06:58:21Z</time>
      </trkpt>
      <trkpt lat="46.26154" lon="4.88704">
        <ele>184</ele>
        <time>2017-07-17T06:58:27Z</time>
      </trkpt>
      <trkpt lat="46.26159" lon="4.88699">
        <ele>184</ele>
        <time>2017-07-17T06:58:28Z</time>
      </trkpt>
      <trkpt lat="46.26168" lon="4.88689">
        <ele>184</ele>
        <time>2017-07-17T06:58:30Z</time>
      </trkpt>
      <trkpt lat="46.26179" lon="4.88684">
        <ele>183.80000305176</ele>
        <time>2017-07-17T06:58:32Z</time>
      </trkpt>
      <trkpt lat="46.26214" lon="4.8868">
        <ele>183.60000610352</ele>
        <time>2017-07-17T06:58:38Z</time>
      </trkpt>
      <trkpt lat="46.26256" lon="4.88682">
        <ele>183.60000610352</ele>
        <time>2017-07-17T06:58:45Z</time>
      </trkpt>
      <trkpt lat="46.26309" lon="4.88688">
        <ele>183.80000305176</ele>
        <time>2017-07-17T06:58:54Z</time>
      </trkpt>
      <trkpt lat="46.26327" lon="4.88687">
        <ele>183.80000305176</ele>
        <time>2017-07-17T06:58:57Z</time>
      </trkpt>
      <trkpt lat="46.2634" lon="4.8869">
        <ele>184</ele>
        <time>2017-07-17T06:58:59Z</time>
      </trkpt>
      <trkpt lat="46.26383" lon="4.88704">
        <ele>184</ele>
        <time>2017-07-17T06:59:06Z</time>
      </trkpt>
      <trkpt lat="46.26426" lon="4.88716">
        <ele>184</ele>
        <time>2017-07-17T06:59:13Z</time>
      </trkpt>
      <trkpt lat="46.26469" lon="4.8873">
        <ele>183.80000305176</ele>
        <time>2017-07-17T06:59:20Z</time>
      </trkpt>
      <trkpt lat="46.26502" lon="4.8874">
        <ele>183.60000610352</ele>
        <time>2017-07-17T06:59:26Z</time>
      </trkpt>
      <trkpt lat="46.26514" lon="4.88745">
        <ele>183.39999389648</ele>
        <time>2017-07-17T06:59:28Z</time>
      </trkpt>
      <trkpt lat="46.26529" lon="4.8876">
        <ele>183.60000610352</ele>
        <time>2017-07-17T06:59:31Z</time>
      </trkpt>
      <trkpt lat="46.26538" lon="4.88783">
        <ele>183.80000305176</ele>
        <time>2017-07-17T06:59:34Z</time>
      </trkpt>
      <trkpt lat="46.26538" lon="4.8881">
        <ele>183.80000305176</ele>
        <time>2017-07-17T06:59:37Z</time>
      </trkpt>
      <trkpt lat="46.26534" lon="4.88837">
        <ele>183.80000305176</ele>
        <time>2017-07-17T06:59:40Z</time>
      </trkpt>
      <trkpt lat="46.26532" lon="4.88855">
        <ele>183.80000305176</ele>
        <time>2017-07-17T06:59:42Z</time>
      </trkpt>
      <trkpt lat="46.26528" lon="4.88896">
        <ele>184</ele>
        <time>2017-07-17T06:59:47Z</time>
      </trkpt>
      <trkpt lat="46.2653" lon="4.88903">
        <ele>184</ele>
        <time>2017-07-17T06:59:48Z</time>
      </trkpt>
      <trkpt lat="46.26544" lon="4.88915">
        <ele>184.39999389648</ele>
        <time>2017-07-17T06:59:51Z</time>
      </trkpt>
      <trkpt lat="46.26549" lon="4.88919">
        <ele>184.60000610352</ele>
        <time>2017-07-17T06:59:52Z</time>
      </trkpt>
      <trkpt lat="46.26574" lon="4.88941">
        <ele>184.60000610352</ele>
        <time>2017-07-17T06:59:57Z</time>
      </trkpt>
      <trkpt lat="46.26609" lon="4.88974">
        <ele>184.80000305176</ele>
        <time>2017-07-17T07:00:04Z</time>
      </trkpt>
      <trkpt lat="46.26635" lon="4.89014">
        <ele>185</ele>
        <time>2017-07-17T07:00:10Z</time>
      </trkpt>
      <trkpt lat="46.26649" lon="4.89045">
        <ele>185.19999694824</ele>
        <time>2017-07-17T07:00:14Z</time>
      </trkpt>
      <trkpt lat="46.26661" lon="4.89065">
        <ele>185.39999389648</ele>
        <time>2017-07-17T07:00:17Z</time>
      </trkpt>
      <trkpt lat="46.2669" lon="4.89095">
        <ele>185.19999694824</ele>
        <time>2017-07-17T07:00:23Z</time>
      </trkpt>
      <trkpt lat="46.26738" lon="4.89139">
        <ele>184.80000305176</ele>
        <time>2017-07-17T07:00:32Z</time>
      </trkpt>
      <trkpt lat="46.26765" lon="4.89164">
        <ele>184.19999694824</ele>
        <time>2017-07-17T07:00:37Z</time>
      </trkpt>
      <trkpt lat="46.2679" lon="4.89188">
        <ele>184</ele>
        <time>2017-07-17T07:00:42Z</time>
      </trkpt>
      <trkpt lat="46.26798" lon="4.89197">
        <ele>184</ele>
        <time>2017-07-17T07:00:44Z</time>
      </trkpt>
      <trkpt lat="46.26807" lon="4.89205">
        <ele>184.39999389648</ele>
        <time>2017-07-17T07:00:46Z</time>
      </trkpt>
      <trkpt lat="46.26841" lon="4.89238">
        <ele>184.80000305176</ele>
        <time>2017-07-17T07:00:54Z</time>
      </trkpt>
      <trkpt lat="46.26857" lon="4.89249">
        <ele>185.19999694824</ele>
        <time>2017-07-17T07:00:57Z</time>
      </trkpt>
      <trkpt lat="46.26869" lon="4.8925">
        <ele>185.19999694824</ele>
        <time>2017-07-17T07:00:59Z</time>
      </trkpt>
      <trkpt lat="46.26885" lon="4.89239">
        <ele>185.19999694824</ele>
        <time>2017-07-17T07:01:02Z</time>
      </trkpt>
      <trkpt lat="46.26899" lon="4.89213">
        <ele>185.19999694824</ele>
        <time>2017-07-17T07:01:06Z</time>
      </trkpt>
      <trkpt lat="46.26902" lon="4.89206">
        <ele>185.19999694824</ele>
        <time>2017-07-17T07:01:07Z</time>
      </trkpt>
      <trkpt lat="46.26914" lon="4.89173">
        <ele>185.19999694824</ele>
        <time>2017-07-17T07:01:12Z</time>
      </trkpt>
      <trkpt lat="46.26923" lon="4.89152">
        <ele>185</ele>
        <time>2017-07-17T07:01:17Z</time>
      </trkpt>
      <trkpt lat="46.26923" lon="4.89147">
        <ele>185</ele>
        <time>2017-07-17T07:03:10Z</time>
      </trkpt>
      <trkpt lat="46.26924" lon="4.89143">
        <ele>185</ele>
        <time>2017-07-17T07:03:11Z</time>
      </trkpt>
      <trkpt lat="46.26932" lon="4.89123">
        <ele>185</ele>
        <time>2017-07-17T07:03:16Z</time>
      </trkpt>
      <trkpt lat="46.2694" lon="4.89101">
        <ele>185.19999694824</ele>
        <time>2017-07-17T07:03:20Z</time>
      </trkpt>
      <trkpt lat="46.26947" lon="4.89082">
        <ele>185.19999694824</ele>
        <time>2017-07-17T07:03:23Z</time>
      </trkpt>
      <trkpt lat="46.26963" lon="4.89033">
        <ele>185.19999694824</ele>
        <time>2017-07-17T07:03:30Z</time>
      </trkpt>
      <trkpt lat="46.26988" lon="4.88972">
        <ele>185.60000610352</ele>
        <time>2017-07-17T07:03:39Z</time>
      </trkpt>
      <trkpt lat="46.26992" lon="4.88967">
        <ele>185.60000610352</ele>
        <time>2017-07-17T07:03:40Z</time>
      </trkpt>
      <trkpt lat="46.2701" lon="4.88944">
        <ele>186.19999694824</ele>
        <time>2017-07-17T07:03:45Z</time>
      </trkpt>
      <trkpt lat="46.27014" lon="4.8894">
        <ele>186.19999694824</ele>
        <time>2017-07-17T07:03:46Z</time>
      </trkpt>
      <trkpt lat="46.27034" lon="4.88919">
        <ele>187.39999389648</ele>
        <time>2017-07-17T07:03:52Z</time>
      </trkpt>
      <trkpt lat="46.27054" lon="4.88903">
        <ele>188.39999389648</ele>
        <time>2017-07-17T07:03:58Z</time>
      </trkpt>
      <trkpt lat="46.27075" lon="4.88891">
        <ele>189.60000610352</ele>
        <time>2017-07-17T07:04:04Z</time>
      </trkpt>
      <trkpt lat="46.27078" lon="4.88889">
        <ele>189.80000305176</ele>
        <time>2017-07-17T07:04:05Z</time>
      </trkpt>
      <trkpt lat="46.27096" lon="4.8888">
        <ele>190.60000610352</ele>
        <time>2017-07-17T07:04:10Z</time>
      </trkpt>
      <trkpt lat="46.27104" lon="4.88875">
        <ele>191.19999694824</ele>
        <time>2017-07-17T07:04:12Z</time>
      </trkpt>
      <trkpt lat="46.27115" lon="4.88871">
        <ele>191.60000610352</ele>
        <time>2017-07-17T07:04:15Z</time>
      </trkpt>
      <trkpt lat="46.2713" lon="4.88861">
        <ele>192.19999694824</ele>
        <time>2017-07-17T07:04:19Z</time>
      </trkpt>
      <trkpt lat="46.2715" lon="4.88848">
        <ele>192.80000305176</ele>
        <time>2017-07-17T07:04:24Z</time>
      </trkpt>
      <trkpt lat="46.27169" lon="4.88834">
        <ele>193</ele>
        <time>2017-07-17T07:04:29Z</time>
      </trkpt>
      <trkpt lat="46.27188" lon="4.88821">
        <ele>193.80000305176</ele>
        <time>2017-07-17T07:04:34Z</time>
      </trkpt>
      <trkpt lat="46.27203" lon="4.88811">
        <ele>194.39999389648</ele>
        <time>2017-07-17T07:04:38Z</time>
      </trkpt>
      <trkpt lat="46.27215" lon="4.88802">
        <ele>194.80000305176</ele>
        <time>2017-07-17T07:04:41Z</time>
      </trkpt>
      <trkpt lat="46.27241" lon="4.88783">
        <ele>195.39999389648</ele>
        <time>2017-07-17T07:04:47Z</time>
      </trkpt>
      <trkpt lat="46.27282" lon="4.88752">
        <ele>195</ele>
        <time>2017-07-17T07:04:55Z</time>
      </trkpt>
      <trkpt lat="46.27325" lon="4.88709">
        <ele>194.19999694824</ele>
        <time>2017-07-17T07:05:03Z</time>
      </trkpt>
      <trkpt lat="46.27346" lon="4.88681">
        <ele>193.80000305176</ele>
        <time>2017-07-17T07:05:07Z</time>
      </trkpt>
      <trkpt lat="46.27357" lon="4.88666">
        <ele>193.39999389648</ele>
        <time>2017-07-17T07:05:09Z</time>
      </trkpt>
      <trkpt lat="46.2738" lon="4.88635">
        <ele>192.60000610352</ele>
        <time>2017-07-17T07:05:13Z</time>
      </trkpt>
      <trkpt lat="46.27409" lon="4.88594">
        <ele>192</ele>
        <time>2017-07-17T07:05:18Z</time>
      </trkpt>
      <trkpt lat="46.27426" lon="4.88566">
        <ele>191.60000610352</ele>
        <time>2017-07-17T07:05:21Z</time>
      </trkpt>
      <trkpt lat="46.27447" lon="4.88526">
        <ele>190.39999389648</ele>
        <time>2017-07-17T07:05:25Z</time>
      </trkpt>
      <trkpt lat="46.27467" lon="4.88483">
        <ele>189.19999694824</ele>
        <time>2017-07-17T07:05:29Z</time>
      </trkpt>
      <trkpt lat="46.27482" lon="4.88438">
        <ele>188</ele>
        <time>2017-07-17T07:05:33Z</time>
      </trkpt>
      <trkpt lat="46.27504" lon="4.88371">
        <ele>187</ele>
        <time>2017-07-17T07:05:39Z</time>
      </trkpt>
      <trkpt lat="46.27511" lon="4.88348">
        <ele>186.60000610352</ele>
        <time>2017-07-17T07:05:41Z</time>
      </trkpt>
      <trkpt lat="46.27535" lon="4.88297">
        <ele>185.80000305176</ele>
        <time>2017-07-17T07:05:46Z</time>
      </trkpt>
      <trkpt lat="46.2754" lon="4.88288">
        <ele>185.60000610352</ele>
        <time>2017-07-17T07:05:47Z</time>
      </trkpt>
      <trkpt lat="46.27546" lon="4.8828">
        <ele>185.39999389648</ele>
        <time>2017-07-17T07:05:48Z</time>
      </trkpt>
      <trkpt lat="46.27565" lon="4.88259">
        <ele>185</ele>
        <time>2017-07-17T07:05:51Z</time>
      </trkpt>
      <trkpt lat="46.27586" lon="4.88241">
        <ele>184.80000305176</ele>
        <time>2017-07-17T07:05:54Z</time>
      </trkpt>
      <trkpt lat="46.27614" lon="4.88222">
        <ele>184.60000610352</ele>
        <time>2017-07-17T07:05:58Z</time>
      </trkpt>
      <trkpt lat="46.27666" lon="4.88182">
        <ele>184.39999389648</ele>
        <time>2017-07-17T07:06:06Z</time>
      </trkpt>
      <trkpt lat="46.27672" lon="4.88177">
        <ele>184.39999389648</ele>
        <time>2017-07-17T07:06:07Z</time>
      </trkpt>
      <trkpt lat="46.2772" lon="4.88137">
        <ele>184.19999694824</ele>
        <time>2017-07-17T07:06:15Z</time>
      </trkpt>
      <trkpt lat="46.27731" lon="4.88127">
        <ele>184</ele>
        <time>2017-07-17T07:06:17Z</time>
      </trkpt>
      <trkpt lat="46.27748" lon="4.88111">
        <ele>183.80000305176</ele>
        <time>2017-07-17T07:06:20Z</time>
      </trkpt>
      <trkpt lat="46.27796" lon="4.8807">
        <ele>183.19999694824</ele>
        <time>2017-07-17T07:06:28Z</time>
      </trkpt>
      <trkpt lat="46.27842" lon="4.88046">
        <ele>183</ele>
        <time>2017-07-17T07:06:35Z</time>
      </trkpt>
      <trkpt lat="46.27899" lon="4.8802">
        <ele>182.80000305176</ele>
        <time>2017-07-17T07:06:44Z</time>
      </trkpt>
      <trkpt lat="46.27925" lon="4.88008">
        <ele>182.80000305176</ele>
        <time>2017-07-17T07:06:48Z</time>
      </trkpt>
      <trkpt lat="46.27956" lon="4.87991">
        <ele>182.80000305176</ele>
        <time>2017-07-17T07:06:53Z</time>
      </trkpt>
      <trkpt lat="46.27998" lon="4.87968">
        <ele>182.60000610352</ele>
        <time>2017-07-17T07:07:00Z</time>
      </trkpt>
      <trkpt lat="46.28051" lon="4.87935">
        <ele>182.60000610352</ele>
        <time>2017-07-17T07:07:09Z</time>
      </trkpt>
      <trkpt lat="46.28056" lon="4.87931">
        <ele>182.60000610352</ele>
        <time>2017-07-17T07:07:10Z</time>
      </trkpt>
      <trkpt lat="46.28108" lon="4.87894">
        <ele>182.19999694824</ele>
        <time>2017-07-17T07:07:19Z</time>
      </trkpt>
      <trkpt lat="46.28131" lon="4.87877">
        <ele>182</ele>
        <time>2017-07-17T07:07:23Z</time>
      </trkpt>
      <trkpt lat="46.28149" lon="4.87864">
        <ele>181.60000610352</ele>
        <time>2017-07-17T07:07:26Z</time>
      </trkpt>
      <trkpt lat="46.28183" lon="4.87837">
        <ele>181.39999389648</ele>
        <time>2017-07-17T07:07:32Z</time>
      </trkpt>
      <trkpt lat="46.28234" lon="4.87793">
        <ele>181.39999389648</ele>
        <time>2017-07-17T07:07:41Z</time>
      </trkpt>
      <trkpt lat="46.28239" lon="4.87788">
        <ele>181.39999389648</ele>
        <time>2017-07-17T07:07:42Z</time>
      </trkpt>
      <trkpt lat="46.28275" lon="4.87745">
        <ele>181.19999694824</ele>
        <time>2017-07-17T07:07:49Z</time>
      </trkpt>
      <trkpt lat="46.28303" lon="4.87696">
        <ele>181</ele>
        <time>2017-07-17T07:07:56Z</time>
      </trkpt>
      <trkpt lat="46.28309" lon="4.87683">
        <ele>181</ele>
        <time>2017-07-17T07:07:58Z</time>
      </trkpt>
      <trkpt lat="46.28319" lon="4.87659">
        <ele>180.80000305176</ele>
        <time>2017-07-17T07:08:02Z</time>
      </trkpt>
      <trkpt lat="46.28321" lon="4.87654">
        <ele>180.80000305176</ele>
        <time>2017-07-17T07:08:03Z</time>
      </trkpt>
      <trkpt lat="46.28327" lon="4.87637">
        <ele>180.60000610352</ele>
        <time>2017-07-17T07:08:06Z</time>
      </trkpt>
      <trkpt lat="46.28329" lon="4.87627">
        <ele>180.60000610352</ele>
        <time>2017-07-17T07:08:08Z</time>
      </trkpt>
      <trkpt lat="46.28339" lon="4.87595">
        <ele>181</ele>
        <time>2017-07-17T07:08:16Z</time>
      </trkpt>
      <trkpt lat="46.28346" lon="4.87572">
        <ele>181.19999694824</ele>
        <time>2017-07-17T07:08:23Z</time>
      </trkpt>
      <trkpt lat="46.28357" lon="4.87553">
        <ele>181.60000610352</ele>
        <time>2017-07-17T07:08:28Z</time>
      </trkpt>
      <trkpt lat="46.2836" lon="4.87549">
        <ele>181.80000305176</ele>
        <time>2017-07-17T07:08:29Z</time>
      </trkpt>
      <trkpt lat="46.28363" lon="4.87545">
        <ele>181.80000305176</ele>
        <time>2017-07-17T07:08:30Z</time>
      </trkpt>
      <trkpt lat="46.2837" lon="4.87528">
        <ele>182</ele>
        <time>2017-07-17T07:08:33Z</time>
      </trkpt>
      <trkpt lat="46.28386" lon="4.87509">
        <ele>182.19999694824</ele>
        <time>2017-07-17T07:08:37Z</time>
      </trkpt>
      <trkpt lat="46.2842" lon="4.87482">
        <ele>182</ele>
        <time>2017-07-17T07:08:44Z</time>
      </trkpt>
      <trkpt lat="46.2847" lon="4.87446">
        <ele>182.39999389648</ele>
        <time>2017-07-17T07:08:54Z</time>
      </trkpt>
      <trkpt lat="46.28489" lon="4.87433">
        <ele>182.80000305176</ele>
        <time>2017-07-17T07:08:58Z</time>
      </trkpt>
      <trkpt lat="46.28502" lon="4.87423">
        <ele>183.19999694824</ele>
        <time>2017-07-17T07:09:01Z</time>
      </trkpt>
      <trkpt lat="46.28518" lon="4.87412">
        <ele>184</ele>
        <time>2017-07-17T07:09:05Z</time>
      </trkpt>
      <trkpt lat="46.28533" lon="4.87401">
        <ele>184.60000610352</ele>
        <time>2017-07-17T07:09:09Z</time>
      </trkpt>
      <trkpt lat="46.28545" lon="4.87393">
        <ele>185</ele>
        <time>2017-07-17T07:09:12Z</time>
      </trkpt>
      <trkpt lat="46.28563" lon="4.87379">
        <ele>185.80000305176</ele>
        <time>2017-07-17T07:09:17Z</time>
      </trkpt>
      <trkpt lat="46.28571" lon="4.87374">
        <ele>186.19999694824</ele>
        <time>2017-07-17T07:09:19Z</time>
      </trkpt>
      <trkpt lat="46.28593" lon="4.87357">
        <ele>187</ele>
        <time>2017-07-17T07:09:25Z</time>
      </trkpt>
      <trkpt lat="46.28597" lon="4.87355">
        <ele>187.19999694824</ele>
        <time>2017-07-17T07:09:26Z</time>
      </trkpt>
      <trkpt lat="46.28629" lon="4.87333">
        <ele>188.19999694824</ele>
        <time>2017-07-17T07:09:34Z</time>
      </trkpt>
      <trkpt lat="46.28663" lon="4.87307">
        <ele>188.80000305176</ele>
        <time>2017-07-17T07:09:42Z</time>
      </trkpt>
      <trkpt lat="46.28716" lon="4.87269">
        <ele>188.80000305176</ele>
        <time>2017-07-17T07:09:53Z</time>
      </trkpt>
      <trkpt lat="46.28763" lon="4.87237">
        <ele>187.60000610352</ele>
        <time>2017-07-17T07:10:01Z</time>
      </trkpt>
      <trkpt lat="46.28776" lon="4.87231">
        <ele>187.19999694824</ele>
        <time>2017-07-17T07:10:03Z</time>
      </trkpt>
      <trkpt lat="46.28788" lon="4.8723">
        <ele>186.80000305176</ele>
        <time>2017-07-17T07:10:05Z</time>
      </trkpt>
      <trkpt lat="46.288" lon="4.87231">
        <ele>186.60000610352</ele>
        <time>2017-07-17T07:10:07Z</time>
      </trkpt>
      <trkpt lat="46.2881" lon="4.87226">
        <ele>186.60000610352</ele>
        <time>2017-07-17T07:10:09Z</time>
      </trkpt>
      <trkpt lat="46.2884" lon="4.87219">
        <ele>186.80000305176</ele>
        <time>2017-07-17T07:10:14Z</time>
      </trkpt>
      <trkpt lat="46.28892" lon="4.87228">
        <ele>186.19999694824</ele>
        <time>2017-07-17T07:10:22Z</time>
      </trkpt>
      <trkpt lat="46.28899" lon="4.87229">
        <ele>186.19999694824</ele>
        <time>2017-07-17T07:10:23Z</time>
      </trkpt>
      <trkpt lat="46.28935" lon="4.87231">
        <ele>185.19999694824</ele>
        <time>2017-07-17T07:10:28Z</time>
      </trkpt>
      <trkpt lat="46.28942" lon="4.8723">
        <ele>185</ele>
        <time>2017-07-17T07:10:29Z</time>
      </trkpt>
      <trkpt lat="46.28979" lon="4.87217">
        <ele>184</ele>
        <time>2017-07-17T07:10:34Z</time>
      </trkpt>
      <trkpt lat="46.28986" lon="4.87214">
        <ele>183.80000305176</ele>
        <time>2017-07-17T07:10:35Z</time>
      </trkpt>
      <trkpt lat="46.29025" lon="4.87188">
        <ele>183</ele>
        <time>2017-07-17T07:10:41Z</time>
      </trkpt>
      <trkpt lat="46.29074" lon="4.8715">
        <ele>182.60000610352</ele>
        <time>2017-07-17T07:10:49Z</time>
      </trkpt>
      <trkpt lat="46.29122" lon="4.87115">
        <ele>182.39999389648</ele>
        <time>2017-07-17T07:10:57Z</time>
      </trkpt>
      <trkpt lat="46.29174" lon="4.87077">
        <ele>182.39999389648</ele>
        <time>2017-07-17T07:11:06Z</time>
      </trkpt>
      <trkpt lat="46.2918" lon="4.87073">
        <ele>182.39999389648</ele>
        <time>2017-07-17T07:11:07Z</time>
      </trkpt>
      <trkpt lat="46.29229" lon="4.87037">
        <ele>182.39999389648</ele>
        <time>2017-07-17T07:11:15Z</time>
      </trkpt>
      <trkpt lat="46.2924" lon="4.87027">
        <ele>182.39999389648</ele>
        <time>2017-07-17T07:11:17Z</time>
      </trkpt>
      <trkpt lat="46.29278" lon="4.86992">
        <ele>182.19999694824</ele>
        <time>2017-07-17T07:11:24Z</time>
      </trkpt>
      <trkpt lat="46.29305" lon="4.86966">
        <ele>182</ele>
        <time>2017-07-17T07:11:29Z</time>
      </trkpt>
      <trkpt lat="46.29326" lon="4.86945">
        <ele>182</ele>
        <time>2017-07-17T07:11:33Z</time>
      </trkpt>
      <trkpt lat="46.29364" lon="4.86913">
        <ele>182</ele>
        <time>2017-07-17T07:11:40Z</time>
      </trkpt>
      <trkpt lat="46.29376" lon="4.86908">
        <ele>182</ele>
        <time>2017-07-17T07:11:42Z</time>
      </trkpt>
      <trkpt lat="46.29389" lon="4.8691">
        <ele>182</ele>
        <time>2017-07-17T07:11:44Z</time>
      </trkpt>
      <trkpt lat="46.29406" lon="4.86902">
        <ele>182</ele>
        <time>2017-07-17T07:11:47Z</time>
      </trkpt>
      <trkpt lat="46.29416" lon="4.86891">
        <ele>182</ele>
        <time>2017-07-17T07:11:49Z</time>
      </trkpt>
      <trkpt lat="46.29422" lon="4.86885">
        <ele>182</ele>
        <time>2017-07-17T07:11:50Z</time>
      </trkpt>
      <trkpt lat="46.29433" lon="4.86877">
        <ele>182</ele>
        <time>2017-07-17T07:11:52Z</time>
      </trkpt>
      <trkpt lat="46.29481" lon="4.86847">
        <ele>181.80000305176</ele>
        <time>2017-07-17T07:12:00Z</time>
      </trkpt>
      <trkpt lat="46.29533" lon="4.86816">
        <ele>182</ele>
        <time>2017-07-17T07:12:09Z</time>
      </trkpt>
      <trkpt lat="46.29576" lon="4.86799">
        <ele>181.80000305176</ele>
        <time>2017-07-17T07:12:16Z</time>
      </trkpt>
      <trkpt lat="46.29589" lon="4.86796">
        <ele>181.80000305176</ele>
        <time>2017-07-17T07:12:18Z</time>
      </trkpt>
      <trkpt lat="46.29615" lon="4.86794">
        <ele>181.80000305176</ele>
        <time>2017-07-17T07:12:22Z</time>
      </trkpt>
      <trkpt lat="46.29646" lon="4.86795">
        <ele>181.80000305176</ele>
        <time>2017-07-17T07:12:27Z</time>
      </trkpt>
      <trkpt lat="46.29653" lon="4.86796">
        <ele>181.80000305176</ele>
        <time>2017-07-17T07:12:28Z</time>
      </trkpt>
      <trkpt lat="46.29678" lon="4.86801">
        <ele>182</ele>
        <time>2017-07-17T07:12:32Z</time>
      </trkpt>
      <trkpt lat="46.29728" lon="4.86812">
        <ele>182.19999694824</ele>
        <time>2017-07-17T07:12:40Z</time>
      </trkpt>
      <trkpt lat="46.29787" lon="4.86827">
        <ele>182.19999694824</ele>
        <time>2017-07-17T07:12:49Z</time>
      </trkpt>
      <trkpt lat="46.29844" lon="4.86839">
        <ele>182.39999389648</ele>
        <time>2017-07-17T07:12:58Z</time>
      </trkpt>
      <trkpt lat="46.29895" lon="4.8685">
        <ele>182.39999389648</ele>
        <time>2017-07-17T07:13:06Z</time>
      </trkpt>
      <trkpt lat="46.29942" lon="4.86862">
        <ele>182</ele>
        <time>2017-07-17T07:13:13Z</time>
      </trkpt>
      <trkpt lat="46.29994" lon="4.86886">
        <ele>181.80000305176</ele>
        <time>2017-07-17T07:13:21Z</time>
      </trkpt>
      <trkpt lat="46.30042" lon="4.86917">
        <ele>181.80000305176</ele>
        <time>2017-07-17T07:13:29Z</time>
      </trkpt>
      <trkpt lat="46.30077" lon="4.86941">
        <ele>182</ele>
        <time>2017-07-17T07:13:35Z</time>
      </trkpt>
      <trkpt lat="46.30093" lon="4.86951">
        <ele>182</ele>
        <time>2017-07-17T07:13:38Z</time>
      </trkpt>
      <trkpt lat="46.30099" lon="4.86964">
        <ele>182</ele>
        <time>2017-07-17T07:13:40Z</time>
      </trkpt>
      <trkpt lat="46.30101" lon="4.86979">
        <ele>182</ele>
        <time>2017-07-17T07:13:42Z</time>
      </trkpt>
      <trkpt lat="46.30103" lon="4.86995">
        <ele>182.19999694824</ele>
        <time>2017-07-17T07:13:44Z</time>
      </trkpt>
      <trkpt lat="46.30105" lon="4.87003">
        <ele>182.19999694824</ele>
        <time>2017-07-17T07:13:45Z</time>
      </trkpt>
      <trkpt lat="46.30118" lon="4.87039">
        <ele>182.60000610352</ele>
        <time>2017-07-17T07:13:50Z</time>
      </trkpt>
      <trkpt lat="46.30125" lon="4.87052">
        <ele>182.60000610352</ele>
        <time>2017-07-17T07:13:52Z</time>
      </trkpt>
      <trkpt lat="46.30148" lon="4.87091">
        <ele>183</ele>
        <time>2017-07-17T07:13:59Z</time>
      </trkpt>
      <trkpt lat="46.30154" lon="4.87101">
        <ele>183</ele>
        <time>2017-07-17T07:14:01Z</time>
      </trkpt>
      <trkpt lat="46.30162" lon="4.87112">
        <ele>183.39999389648</ele>
        <time>2017-07-17T07:14:04Z</time>
      </trkpt>
      <trkpt lat="46.30168" lon="4.87115">
        <ele>183.80000305176</ele>
        <time>2017-07-17T07:14:07Z</time>
      </trkpt>
      <trkpt lat="46.30169" lon="4.87116">
        <ele>184</ele>
        <time>2017-07-17T07:14:08Z</time>
      </trkpt>
      <trkpt lat="46.3017" lon="4.87117">
        <ele>184.19999694824</ele>
        <time>2017-07-17T07:14:10Z</time>
      </trkpt>
      <trkpt lat="46.30175" lon="4.87113">
        <ele>184.39999389648</ele>
        <time>2017-07-17T07:14:13Z</time>
      </trkpt>
      <trkpt lat="46.30181" lon="4.87101">
        <ele>184.60000610352</ele>
        <time>2017-07-17T07:14:16Z</time>
      </trkpt>
      <trkpt lat="46.30182" lon="4.87094">
        <ele>184.60000610352</ele>
        <time>2017-07-17T07:14:17Z</time>
      </trkpt>
      <trkpt lat="46.30184" lon="4.87089">
        <ele>184.60000610352</ele>
        <time>2017-07-17T07:14:18Z</time>
      </trkpt>
      <trkpt lat="46.30192" lon="4.8706">
        <ele>184.60000610352</ele>
        <time>2017-07-17T07:14:23Z</time>
      </trkpt>
      <trkpt lat="46.302" lon="4.87036">
        <ele>184.39999389648</ele>
        <time>2017-07-17T07:14:29Z</time>
      </trkpt>
      <trkpt lat="46.30207" lon="4.87022">
        <ele>184.39999389648</ele>
        <time>2017-07-17T07:14:33Z</time>
      </trkpt>
      <trkpt lat="46.30209" lon="4.87011">
        <ele>184.39999389648</ele>
        <time>2017-07-17T07:14:35Z</time>
      </trkpt>
      <trkpt lat="46.3021" lon="4.86991">
        <ele>184.39999389648</ele>
        <time>2017-07-17T07:14:38Z</time>
      </trkpt>
      <trkpt lat="46.30214" lon="4.86938">
        <ele>184.39999389648</ele>
        <time>2017-07-17T07:14:45Z</time>
      </trkpt>
      <trkpt lat="46.30216" lon="4.86876">
        <ele>184.19999694824</ele>
        <time>2017-07-17T07:14:52Z</time>
      </trkpt>
      <trkpt lat="46.30219" lon="4.86795">
        <ele>184.39999389648</ele>
        <time>2017-07-17T07:15:01Z</time>
      </trkpt>
      <trkpt lat="46.30224" lon="4.86711">
        <ele>184.19999694824</ele>
        <time>2017-07-17T07:15:10Z</time>
      </trkpt>
      <trkpt lat="46.30229" lon="4.86642">
        <ele>184</ele>
        <time>2017-07-17T07:15:18Z</time>
      </trkpt>
      <trkpt lat="46.30236" lon="4.86588">
        <ele>184</ele>
        <time>2017-07-17T07:15:25Z</time>
      </trkpt>
      <trkpt lat="46.30237" lon="4.86579">
        <ele>183</ele>
        <time>2017-07-17T07:17:07Z</time>
      </trkpt>
      <trkpt lat="46.30237" lon="4.86571">
        <ele>183</ele>
        <time>2017-07-17T07:17:10Z</time>
      </trkpt>
      <trkpt lat="46.3024" lon="4.86545">
        <ele>183</ele>
        <time>2017-07-17T07:17:16Z</time>
      </trkpt>
      <trkpt lat="46.30243" lon="4.86516">
        <ele>183</ele>
        <time>2017-07-17T07:17:21Z</time>
      </trkpt>
      <trkpt lat="46.30247" lon="4.86468">
        <ele>183.19999694824</ele>
        <time>2017-07-17T07:17:28Z</time>
      </trkpt>
      <trkpt lat="46.30253" lon="4.86409">
        <ele>183.19999694824</ele>
        <time>2017-07-17T07:17:36Z</time>
      </trkpt>
      <trkpt lat="46.30258" lon="4.86353">
        <ele>183.19999694824</ele>
        <time>2017-07-17T07:17:43Z</time>
      </trkpt>
      <trkpt lat="46.30266" lon="4.86281">
        <ele>182.80000305176</ele>
        <time>2017-07-17T07:17:52Z</time>
      </trkpt>
      <trkpt lat="46.30272" lon="4.86217">
        <ele>182.60000610352</ele>
        <time>2017-07-17T07:17:59Z</time>
      </trkpt>
      <trkpt lat="46.30278" lon="4.86134">
        <ele>182.60000610352</ele>
        <time>2017-07-17T07:18:08Z</time>
      </trkpt>
      <trkpt lat="46.30287" lon="4.8605">
        <ele>182.60000610352</ele>
        <time>2017-07-17T07:18:17Z</time>
      </trkpt>
      <trkpt lat="46.30295" lon="4.85964">
        <ele>182.80000305176</ele>
        <time>2017-07-17T07:18:26Z</time>
      </trkpt>
      <trkpt lat="46.30297" lon="4.85944">
        <ele>182.80000305176</ele>
        <time>2017-07-17T07:18:28Z</time>
      </trkpt>
      <trkpt lat="46.30302" lon="4.85877">
        <ele>182.80000305176</ele>
        <time>2017-07-17T07:18:35Z</time>
      </trkpt>
      <trkpt lat="46.30309" lon="4.85793">
        <ele>182.80000305176</ele>
        <time>2017-07-17T07:18:44Z</time>
      </trkpt>
      <trkpt lat="46.30311" lon="4.85783">
        <ele>182.80000305176</ele>
        <time>2017-07-17T07:18:45Z</time>
      </trkpt>
      <trkpt lat="46.30319" lon="4.85699">
        <ele>182.60000610352</ele>
        <time>2017-07-17T07:18:54Z</time>
      </trkpt>
      <trkpt lat="46.30327" lon="4.85615">
        <ele>182.60000610352</ele>
        <time>2017-07-17T07:19:03Z</time>
      </trkpt>
      <trkpt lat="46.30328" lon="4.85606">
        <ele>182.60000610352</ele>
        <time>2017-07-17T07:19:04Z</time>
      </trkpt>
      <trkpt lat="46.30336" lon="4.85522">
        <ele>182.60000610352</ele>
        <time>2017-07-17T07:19:13Z</time>
      </trkpt>
      <trkpt lat="46.30342" lon="4.85449">
        <ele>182.80000305176</ele>
        <time>2017-07-17T07:19:21Z</time>
      </trkpt>
      <trkpt lat="46.30349" lon="4.85366">
        <ele>182.60000610352</ele>
        <time>2017-07-17T07:19:30Z</time>
      </trkpt>
      <trkpt lat="46.30356" lon="4.85299">
        <ele>183.19999694824</ele>
        <time>2017-07-17T07:19:38Z</time>
      </trkpt>
      <trkpt lat="46.3036" lon="4.85256">
        <ele>184.19999694824</ele>
        <time>2017-07-17T07:19:44Z</time>
      </trkpt>
      <trkpt lat="46.30362" lon="4.85242">
        <ele>184.60000610352</ele>
        <time>2017-07-17T07:19:46Z</time>
      </trkpt>
      <trkpt lat="46.30364" lon="4.85213">
        <ele>185.39999389648</ele>
        <time>2017-07-17T07:19:50Z</time>
      </trkpt>
      <trkpt lat="46.30366" lon="4.85192">
        <ele>186</ele>
        <time>2017-07-17T07:19:53Z</time>
      </trkpt>
      <trkpt lat="46.3037" lon="4.85162">
        <ele>186.60000610352</ele>
        <time>2017-07-17T07:19:57Z</time>
      </trkpt>
      <trkpt lat="46.30375" lon="4.85117">
        <ele>187.60000610352</ele>
        <time>2017-07-17T07:20:03Z</time>
      </trkpt>
      <trkpt lat="46.30379" lon="4.85071">
        <ele>188.60000610352</ele>
        <time>2017-07-17T07:20:09Z</time>
      </trkpt>
      <trkpt lat="46.30381" lon="4.85048">
        <ele>188.80000305176</ele>
        <time>2017-07-17T07:20:12Z</time>
      </trkpt>
      <trkpt lat="46.30389" lon="4.84971">
        <ele>189.39999389648</ele>
        <time>2017-07-17T07:20:22Z</time>
      </trkpt>
      <trkpt lat="46.30396" lon="4.84897">
        <ele>189</ele>
        <time>2017-07-17T07:20:31Z</time>
      </trkpt>
      <trkpt lat="46.30403" lon="4.84831">
        <ele>188.39999389648</ele>
        <time>2017-07-17T07:20:38Z</time>
      </trkpt>
      <trkpt lat="46.30408" lon="4.8477">
        <ele>187.60000610352</ele>
        <time>2017-07-17T07:20:44Z</time>
      </trkpt>
      <trkpt lat="46.3041" lon="4.84748">
        <ele>187.19999694824</ele>
        <time>2017-07-17T07:20:46Z</time>
      </trkpt>
      <trkpt lat="46.30413" lon="4.84714">
        <ele>186.60000610352</ele>
        <time>2017-07-17T07:20:49Z</time>
      </trkpt>
      <trkpt lat="46.30416" lon="4.84666">
        <ele>185.39999389648</ele>
        <time>2017-07-17T07:20:53Z</time>
      </trkpt>
      <trkpt lat="46.30423" lon="4.84632">
        <ele>184.39999389648</ele>
        <time>2017-07-17T07:20:56Z</time>
      </trkpt>
      <trkpt lat="46.30427" lon="4.84622">
        <ele>184.19999694824</ele>
        <time>2017-07-17T07:20:57Z</time>
      </trkpt>
      <trkpt lat="46.30437" lon="4.84585">
        <ele>183.19999694824</ele>
        <time>2017-07-17T07:21:01Z</time>
      </trkpt>
      <trkpt lat="46.30433" lon="4.84566">
        <ele>183.19999694824</ele>
        <time>2017-07-17T07:21:03Z</time>
      </trkpt>
      <trkpt lat="46.30432" lon="4.84557">
        <ele>183.19999694824</ele>
        <time>2017-07-17T07:21:04Z</time>
      </trkpt>
      <trkpt lat="46.3043" lon="4.84505">
        <ele>183.19999694824</ele>
        <time>2017-07-17T07:21:09Z</time>
      </trkpt>
      <trkpt lat="46.3043" lon="4.84494">
        <ele>183</ele>
        <time>2017-07-17T07:21:10Z</time>
      </trkpt>
      <trkpt lat="46.30437" lon="4.84422">
        <ele>182.80000305176</ele>
        <time>2017-07-17T07:21:17Z</time>
      </trkpt>
      <trkpt lat="46.30447" lon="4.84344">
        <ele>182.80000305176</ele>
        <time>2017-07-17T07:21:25Z</time>
      </trkpt>
      <trkpt lat="46.30448" lon="4.84335">
        <ele>182.80000305176</ele>
        <time>2017-07-17T07:21:26Z</time>
      </trkpt>
      <trkpt lat="46.30456" lon="4.84254">
        <ele>183</ele>
        <time>2017-07-17T07:21:35Z</time>
      </trkpt>
      <trkpt lat="46.30461" lon="4.84199">
        <ele>182.80000305176</ele>
        <time>2017-07-17T07:21:42Z</time>
      </trkpt>
      <trkpt lat="46.30467" lon="4.84134">
        <ele>182.80000305176</ele>
        <time>2017-07-17T07:21:50Z</time>
      </trkpt>
      <trkpt lat="46.30468" lon="4.84119">
        <ele>182.80000305176</ele>
        <time>2017-07-17T07:21:52Z</time>
      </trkpt>
      <trkpt lat="46.3047" lon="4.84095">
        <ele>182.80000305176</ele>
        <time>2017-07-17T07:21:55Z</time>
      </trkpt>
      <trkpt lat="46.30477" lon="4.84022">
        <ele>182.80000305176</ele>
        <time>2017-07-17T07:22:04Z</time>
      </trkpt>
      <trkpt lat="46.30484" lon="4.83948">
        <ele>183</ele>
        <time>2017-07-17T07:22:13Z</time>
      </trkpt>
      <trkpt lat="46.30485" lon="4.83933">
        <ele>182.80000305176</ele>
        <time>2017-07-17T07:22:15Z</time>
      </trkpt>
      <trkpt lat="46.30481" lon="4.83917">
        <ele>183</ele>
        <time>2017-07-17T07:22:17Z</time>
      </trkpt>
      <trkpt lat="46.30469" lon="4.8386">
        <ele>183</ele>
        <time>2017-07-17T07:22:24Z</time>
      </trkpt>
      <trkpt lat="46.30468" lon="4.83851">
        <ele>183</ele>
        <time>2017-07-17T07:22:25Z</time>
      </trkpt>
      <trkpt lat="46.3047" lon="4.83819">
        <ele>183.39999389648</ele>
        <time>2017-07-17T07:22:29Z</time>
      </trkpt>
      <trkpt lat="46.30478" lon="4.83781">
        <ele>184.19999694824</ele>
        <time>2017-07-17T07:22:34Z</time>
      </trkpt>
      <trkpt lat="46.30482" lon="4.83766">
        <ele>184.60000610352</ele>
        <time>2017-07-17T07:22:36Z</time>
      </trkpt>
      <trkpt lat="46.30489" lon="4.83727">
        <ele>185.39999389648</ele>
        <time>2017-07-17T07:22:42Z</time>
      </trkpt>
      <trkpt lat="46.30503" lon="4.83675">
        <ele>186</ele>
        <time>2017-07-17T07:22:50Z</time>
      </trkpt>
      <trkpt lat="46.30509" lon="4.83655">
        <ele>186.39999389648</ele>
        <time>2017-07-17T07:22:53Z</time>
      </trkpt>
      <trkpt lat="46.30513" lon="4.83641">
        <ele>186.60000610352</ele>
        <time>2017-07-17T07:22:55Z</time>
      </trkpt>
      <trkpt lat="46.30521" lon="4.8362">
        <ele>186.80000305176</ele>
        <time>2017-07-17T07:22:58Z</time>
      </trkpt>
      <trkpt lat="46.3053" lon="4.83599">
        <ele>186.19999694824</ele>
        <time>2017-07-17T07:23:01Z</time>
      </trkpt>
      <trkpt lat="46.30541" lon="4.83595">
        <ele>185.80000305176</ele>
        <time>2017-07-17T07:23:03Z</time>
      </trkpt>
      <trkpt lat="46.30552" lon="4.83603">
        <ele>185.39999389648</ele>
        <time>2017-07-17T07:23:05Z</time>
      </trkpt>
      <trkpt lat="46.30557" lon="4.83608">
        <ele>185.19999694824</ele>
        <time>2017-07-17T07:23:06Z</time>
      </trkpt>
      <trkpt lat="46.30585" lon="4.83633">
        <ele>184.39999389648</ele>
        <time>2017-07-17T07:23:11Z</time>
      </trkpt>
      <trkpt lat="46.30597" lon="4.83643">
        <ele>184</ele>
        <time>2017-07-17T07:23:13Z</time>
      </trkpt>
      <trkpt lat="46.30636" lon="4.83665">
        <ele>183.19999694824</ele>
        <time>2017-07-17T07:23:19Z</time>
      </trkpt>
      <trkpt lat="46.30683" lon="4.83679">
        <ele>182.60000610352</ele>
        <time>2017-07-17T07:23:26Z</time>
      </trkpt>
      <trkpt lat="46.30741" lon="4.83697">
        <ele>182.39999389648</ele>
        <time>2017-07-17T07:23:35Z</time>
      </trkpt>
      <trkpt lat="46.30799" lon="4.83717">
        <ele>182.39999389648</ele>
        <time>2017-07-17T07:23:44Z</time>
      </trkpt>
      <trkpt lat="46.3085" lon="4.83733">
        <ele>182.60000610352</ele>
        <time>2017-07-17T07:23:52Z</time>
      </trkpt>
      <trkpt lat="46.309" lon="4.83751">
        <ele>182.80000305176</ele>
        <time>2017-07-17T07:24:00Z</time>
      </trkpt>
      <trkpt lat="46.30923" lon="4.83763">
        <ele>182.80000305176</ele>
        <time>2017-07-17T07:24:04Z</time>
      </trkpt>
      <trkpt lat="46.30928" lon="4.83768">
        <ele>182.80000305176</ele>
        <time>2017-07-17T07:24:05Z</time>
      </trkpt>
      <trkpt lat="46.3094" lon="4.83776">
        <ele>182.80000305176</ele>
        <time>2017-07-17T07:24:07Z</time>
      </trkpt>
      <trkpt lat="46.30952" lon="4.83778">
        <ele>182.80000305176</ele>
        <time>2017-07-17T07:24:09Z</time>
      </trkpt>
      <trkpt lat="46.30965" lon="4.83779">
        <ele>182.80000305176</ele>
        <time>2017-07-17T07:24:11Z</time>
      </trkpt>
      <trkpt lat="46.30984" lon="4.83785">
        <ele>183</ele>
        <time>2017-07-17T07:24:14Z</time>
      </trkpt>
      <trkpt lat="46.31035" lon="4.83801">
        <ele>182.80000305176</ele>
        <time>2017-07-17T07:24:22Z</time>
      </trkpt>
      <trkpt lat="46.31086" lon="4.83818">
        <ele>182.60000610352</ele>
        <time>2017-07-17T07:24:30Z</time>
      </trkpt>
      <trkpt lat="46.31122" lon="4.83835">
        <ele>182.39999389648</ele>
        <time>2017-07-17T07:24:36Z</time>
      </trkpt>
      <trkpt lat="46.31151" lon="4.83858">
        <ele>182.19999694824</ele>
        <time>2017-07-17T07:24:42Z</time>
      </trkpt>
      <trkpt lat="46.31156" lon="4.83861">
        <ele>182.19999694824</ele>
        <time>2017-07-17T07:24:43Z</time>
      </trkpt>
      <trkpt lat="46.312" lon="4.83892">
        <ele>182.19999694824</ele>
        <time>2017-07-17T07:24:51Z</time>
      </trkpt>
      <trkpt lat="46.31253" lon="4.83929">
        <ele>182.19999694824</ele>
        <time>2017-07-17T07:25:00Z</time>
      </trkpt>
      <trkpt lat="46.31298" lon="4.83962">
        <ele>182.19999694824</ele>
        <time>2017-07-17T07:25:08Z</time>
      </trkpt>
      <trkpt lat="46.31337" lon="4.83982">
        <ele>182.39999389648</ele>
        <time>2017-07-17T07:25:15Z</time>
      </trkpt>
      <trkpt lat="46.31351" lon="4.8399">
        <ele>182.39999389648</ele>
        <time>2017-07-17T07:25:19Z</time>
      </trkpt>
      <trkpt lat="46.31358" lon="4.83995">
        <ele>182.39999389648</ele>
        <time>2017-07-17T07:25:21Z</time>
      </trkpt>
      <trkpt lat="46.31367" lon="4.83998">
        <ele>182.39999389648</ele>
        <time>2017-07-17T07:25:23Z</time>
      </trkpt>
      <trkpt lat="46.314" lon="4.84012">
        <ele>182</ele>
        <time>2017-07-17T07:25:30Z</time>
      </trkpt>
      <trkpt lat="46.31408" lon="4.84016">
        <ele>181.19999694824</ele>
        <time>2017-07-17T07:25:47Z</time>
      </trkpt>
      <trkpt lat="46.31412" lon="4.84021">
        <ele>181.39999389648</ele>
        <time>2017-07-17T07:25:49Z</time>
      </trkpt>
      <trkpt lat="46.31421" lon="4.84032">
        <ele>181.19999694824</ele>
        <time>2017-07-17T07:25:52Z</time>
      </trkpt>
      <trkpt lat="46.31425" lon="4.84037">
        <ele>181.19999694824</ele>
        <time>2017-07-17T07:25:53Z</time>
      </trkpt>
      <trkpt lat="46.31429" lon="4.84041">
        <ele>181</ele>
        <time>2017-07-17T07:25:54Z</time>
      </trkpt>
      <trkpt lat="46.31443" lon="4.84049">
        <ele>180.60000610352</ele>
        <time>2017-07-17T07:25:57Z</time>
      </trkpt>
      <trkpt lat="46.31452" lon="4.84057">
        <ele>180.19999694824</ele>
        <time>2017-07-17T07:25:59Z</time>
      </trkpt>
      <trkpt lat="46.31457" lon="4.84061">
        <ele>180.19999694824</ele>
        <time>2017-07-17T07:26:00Z</time>
      </trkpt>
      <trkpt lat="46.31462" lon="4.84064">
        <ele>180</ele>
        <time>2017-07-17T07:26:01Z</time>
      </trkpt>
      <trkpt lat="46.31467" lon="4.84067">
        <ele>180</ele>
        <time>2017-07-17T07:26:02Z</time>
      </trkpt>
      <trkpt lat="46.31473" lon="4.84071">
        <ele>180</ele>
        <time>2017-07-17T07:26:03Z</time>
      </trkpt>
      <trkpt lat="46.31517" lon="4.84099">
        <ele>180</ele>
        <time>2017-07-17T07:26:11Z</time>
      </trkpt>
      <trkpt lat="46.31522" lon="4.84103">
        <ele>180</ele>
        <time>2017-07-17T07:26:12Z</time>
      </trkpt>
      <trkpt lat="46.31543" lon="4.8412">
        <ele>180.39999389648</ele>
        <time>2017-07-17T07:26:16Z</time>
      </trkpt>
      <trkpt lat="46.31549" lon="4.84123">
        <ele>180.39999389648</ele>
        <time>2017-07-17T07:26:17Z</time>
      </trkpt>
      <trkpt lat="46.31577" lon="4.84139">
        <ele>180.39999389648</ele>
        <time>2017-07-17T07:26:22Z</time>
      </trkpt>
      <trkpt lat="46.31628" lon="4.84167">
        <ele>180.19999694824</ele>
        <time>2017-07-17T07:26:31Z</time>
      </trkpt>
      <trkpt lat="46.3167" lon="4.84194">
        <ele>180.19999694824</ele>
        <time>2017-07-17T07:26:39Z</time>
      </trkpt>
      <trkpt lat="46.31696" lon="4.84217">
        <ele>180</ele>
        <time>2017-07-17T07:26:45Z</time>
      </trkpt>
      <trkpt lat="46.31705" lon="4.84224">
        <ele>180</ele>
        <time>2017-07-17T07:26:47Z</time>
      </trkpt>
      <trkpt lat="46.31719" lon="4.8423">
        <ele>180</ele>
        <time>2017-07-17T07:26:50Z</time>
      </trkpt>
      <trkpt lat="46.31723" lon="4.84231">
        <ele>180</ele>
        <time>2017-07-17T07:26:51Z</time>
      </trkpt>
      <trkpt lat="46.31744" lon="4.84239">
        <ele>180.19999694824</ele>
        <time>2017-07-17T07:26:56Z</time>
      </trkpt>
      <trkpt lat="46.3177" lon="4.84252">
        <ele>180.60000610352</ele>
        <time>2017-07-17T07:27:02Z</time>
      </trkpt>
      <trkpt lat="46.31802" lon="4.84269">
        <ele>181.19999694824</ele>
        <time>2017-07-17T07:27:09Z</time>
      </trkpt>
      <trkpt lat="46.31832" lon="4.84289">
        <ele>182</ele>
        <time>2017-07-17T07:27:15Z</time>
      </trkpt>
      <trkpt lat="46.31857" lon="4.84307">
        <ele>182.19999694824</ele>
        <time>2017-07-17T07:27:20Z</time>
      </trkpt>
      <trkpt lat="46.31873" lon="4.84317">
        <ele>182.39999389648</ele>
        <time>2017-07-17T07:27:23Z</time>
      </trkpt>
      <trkpt lat="46.31919" lon="4.84348">
        <ele>182.60000610352</ele>
        <time>2017-07-17T07:27:32Z</time>
      </trkpt>
      <trkpt lat="46.3197" lon="4.84382">
        <ele>182.19999694824</ele>
        <time>2017-07-17T07:27:41Z</time>
      </trkpt>
      <trkpt lat="46.32013" lon="4.84415">
        <ele>182.19999694824</ele>
        <time>2017-07-17T07:27:49Z</time>
      </trkpt>
      <trkpt lat="46.32049" lon="4.84443">
        <ele>182.39999389648</ele>
        <time>2017-07-17T07:27:57Z</time>
      </trkpt>
      <trkpt lat="46.32092" lon="4.84476">
        <ele>182.19999694824</ele>
        <time>2017-07-17T07:28:05Z</time>
      </trkpt>
      <trkpt lat="46.32122" lon="4.84497">
        <ele>182</ele>
        <time>2017-07-17T07:28:11Z</time>
      </trkpt>
      <trkpt lat="46.32127" lon="4.84499">
        <ele>181.80000305176</ele>
        <time>2017-07-17T07:28:12Z</time>
      </trkpt>
      <trkpt lat="46.32147" lon="4.84497">
        <ele>181.80000305176</ele>
        <time>2017-07-17T07:28:16Z</time>
      </trkpt>
      <trkpt lat="46.32181" lon="4.84491">
        <ele>181.80000305176</ele>
        <time>2017-07-17T07:28:22Z</time>
      </trkpt>
      <trkpt lat="46.3223" lon="4.84484">
        <ele>181.60000610352</ele>
        <time>2017-07-17T07:28:30Z</time>
      </trkpt>
      <trkpt lat="46.32275" lon="4.84484">
        <ele>181.60000610352</ele>
        <time>2017-07-17T07:28:37Z</time>
      </trkpt>
      <trkpt lat="46.32325" lon="4.84486">
        <ele>181.80000305176</ele>
        <time>2017-07-17T07:28:45Z</time>
      </trkpt>
      <trkpt lat="46.32367" lon="4.84489">
        <ele>181.80000305176</ele>
        <time>2017-07-17T07:28:52Z</time>
      </trkpt>
      <trkpt lat="46.32416" lon="4.8449">
        <ele>181.80000305176</ele>
        <time>2017-07-17T07:29:00Z</time>
      </trkpt>
      <trkpt lat="46.32459" lon="4.84493">
        <ele>181.80000305176</ele>
        <time>2017-07-17T07:29:07Z</time>
      </trkpt>
      <trkpt lat="46.32502" lon="4.84494">
        <ele>181.80000305176</ele>
        <time>2017-07-17T07:29:14Z</time>
      </trkpt>
      <trkpt lat="46.32549" lon="4.84497">
        <ele>181.80000305176</ele>
        <time>2017-07-17T07:29:22Z</time>
      </trkpt>
      <trkpt lat="46.32559" lon="4.84497">
        <ele>181.80000305176</ele>
        <time>2017-07-17T07:29:24Z</time>
      </trkpt>
      <trkpt lat="46.3257" lon="4.84496">
        <ele>181.60000610352</ele>
        <time>2017-07-17T07:29:27Z</time>
      </trkpt>
      <trkpt lat="46.32573" lon="4.84499">
        <ele>181.60000610352</ele>
        <time>2017-07-17T07:29:28Z</time>
      </trkpt>
      <trkpt lat="46.32577" lon="4.84508">
        <ele>181.60000610352</ele>
        <time>2017-07-17T07:29:30Z</time>
      </trkpt>
      <trkpt lat="46.3258" lon="4.8452">
        <ele>181.60000610352</ele>
        <time>2017-07-17T07:29:32Z</time>
      </trkpt>
      <trkpt lat="46.32588" lon="4.8454">
        <ele>181.60000610352</ele>
        <time>2017-07-17T07:29:35Z</time>
      </trkpt>
      <trkpt lat="46.3259" lon="4.84548">
        <ele>181.39999389648</ele>
        <time>2017-07-17T07:29:36Z</time>
      </trkpt>
      <trkpt lat="46.32595" lon="4.84573">
        <ele>181.39999389648</ele>
        <time>2017-07-17T07:29:39Z</time>
      </trkpt>
      <trkpt lat="46.32599" lon="4.8459">
        <ele>181.39999389648</ele>
        <time>2017-07-17T07:29:41Z</time>
      </trkpt>
      <trkpt lat="46.32605" lon="4.84616">
        <ele>181.39999389648</ele>
        <time>2017-07-17T07:29:44Z</time>
      </trkpt>
      <trkpt lat="46.32619" lon="4.84668">
        <ele>181.19999694824</ele>
        <time>2017-07-17T07:29:50Z</time>
      </trkpt>
      <trkpt lat="46.32622" lon="4.84676">
        <ele>181.19999694824</ele>
        <time>2017-07-17T07:29:51Z</time>
      </trkpt>
      <trkpt lat="46.32626" lon="4.84684">
        <ele>181.19999694824</ele>
        <time>2017-07-17T07:29:52Z</time>
      </trkpt>
      <trkpt lat="46.3264" lon="4.84706">
        <ele>180.80000305176</ele>
        <time>2017-07-17T07:29:55Z</time>
      </trkpt>
      <trkpt lat="46.32646" lon="4.84713">
        <ele>180.60000610352</ele>
        <time>2017-07-17T07:29:56Z</time>
      </trkpt>
      <trkpt lat="46.32669" lon="4.8475">
        <ele>180.19999694824</ele>
        <time>2017-07-17T07:30:01Z</time>
      </trkpt>
      <trkpt lat="46.32673" lon="4.84758">
        <ele>180</ele>
        <time>2017-07-17T07:30:02Z</time>
      </trkpt>
      <trkpt lat="46.32696" lon="4.84802">
        <ele>179.80000305176</ele>
        <time>2017-07-17T07:30:08Z</time>
      </trkpt>
      <trkpt lat="46.32704" lon="4.84813">
        <ele>179.80000305176</ele>
        <time>2017-07-17T07:30:10Z</time>
      </trkpt>
      <trkpt lat="46.32722" lon="4.84833">
        <ele>179.80000305176</ele>
        <time>2017-07-17T07:30:14Z</time>
      </trkpt>
      <trkpt lat="46.32754" lon="4.84866">
        <ele>180.39999389648</ele>
        <time>2017-07-17T07:30:21Z</time>
      </trkpt>
      <trkpt lat="46.32783" lon="4.84908">
        <ele>180.39999389648</ele>
        <time>2017-07-17T07:30:28Z</time>
      </trkpt>
      <trkpt lat="46.32811" lon="4.84961">
        <ele>180.39999389648</ele>
        <time>2017-07-17T07:30:36Z</time>
      </trkpt>
      <trkpt lat="46.32831" lon="4.84997">
        <ele>180.39999389648</ele>
        <time>2017-07-17T07:30:42Z</time>
      </trkpt>
      <trkpt lat="46.32843" lon="4.85016">
        <ele>180.60000610352</ele>
        <time>2017-07-17T07:30:45Z</time>
      </trkpt>
      <trkpt lat="46.32853" lon="4.85022">
        <ele>180.60000610352</ele>
        <time>2017-07-17T07:30:47Z</time>
      </trkpt>
      <trkpt lat="46.32871" lon="4.8503">
        <ele>180.60000610352</ele>
        <time>2017-07-17T07:30:50Z</time>
      </trkpt>
      <trkpt lat="46.32877" lon="4.85033">
        <ele>180.60000610352</ele>
        <time>2017-07-17T07:30:51Z</time>
      </trkpt>
      <trkpt lat="46.32915" lon="4.85046">
        <ele>180.39999389648</ele>
        <time>2017-07-17T07:30:57Z</time>
      </trkpt>
      <trkpt lat="46.32973" lon="4.85063">
        <ele>180.39999389648</ele>
        <time>2017-07-17T07:31:06Z</time>
      </trkpt>
      <trkpt lat="46.33025" lon="4.85076">
        <ele>180.19999694824</ele>
        <time>2017-07-17T07:31:14Z</time>
      </trkpt>
      <trkpt lat="46.33075" lon="4.85085">
        <ele>180.19999694824</ele>
        <time>2017-07-17T07:31:22Z</time>
      </trkpt>
      <trkpt lat="46.33119" lon="4.8509">
        <ele>180.19999694824</ele>
        <time>2017-07-17T07:31:29Z</time>
      </trkpt>
      <trkpt lat="46.33132" lon="4.85091">
        <ele>180.19999694824</ele>
        <time>2017-07-17T07:31:31Z</time>
      </trkpt>
      <trkpt lat="46.33177" lon="4.85093">
        <ele>180.39999389648</ele>
        <time>2017-07-17T07:31:38Z</time>
      </trkpt>
      <trkpt lat="46.33215" lon="4.85094">
        <ele>180.60000610352</ele>
        <time>2017-07-17T07:31:44Z</time>
      </trkpt>
      <trkpt lat="46.33266" lon="4.8509">
        <ele>180.80000305176</ele>
        <time>2017-07-17T07:31:52Z</time>
      </trkpt>
      <trkpt lat="46.33318" lon="4.85083">
        <ele>181</ele>
        <time>2017-07-17T07:32:00Z</time>
      </trkpt>
      <trkpt lat="46.33375" lon="4.85074">
        <ele>180.80000305176</ele>
        <time>2017-07-17T07:32:09Z</time>
      </trkpt>
      <trkpt lat="46.33427" lon="4.85067">
        <ele>181</ele>
        <time>2017-07-17T07:32:17Z</time>
      </trkpt>
      <trkpt lat="46.33486" lon="4.85058">
        <ele>180.80000305176</ele>
        <time>2017-07-17T07:32:26Z</time>
      </trkpt>
      <trkpt lat="46.33544" lon="4.85053">
        <ele>181</ele>
        <time>2017-07-17T07:32:35Z</time>
      </trkpt>
      <trkpt lat="46.336" lon="4.85055">
        <ele>181</ele>
        <time>2017-07-17T07:32:44Z</time>
      </trkpt>
      <trkpt lat="46.33606" lon="4.85055">
        <ele>181</ele>
        <time>2017-07-17T07:32:45Z</time>
      </trkpt>
      <trkpt lat="46.33656" lon="4.85063">
        <ele>180.80000305176</ele>
        <time>2017-07-17T07:32:53Z</time>
      </trkpt>
      <trkpt lat="46.33662" lon="4.85064">
        <ele>180.80000305176</ele>
        <time>2017-07-17T07:32:54Z</time>
      </trkpt>
      <trkpt lat="46.33681" lon="4.85062">
        <ele>180.60000610352</ele>
        <time>2017-07-17T07:32:57Z</time>
      </trkpt>
      <trkpt lat="46.3371" lon="4.85061">
        <ele>180.60000610352</ele>
        <time>2017-07-17T07:33:02Z</time>
      </trkpt>
      <trkpt lat="46.33738" lon="4.85063">
        <ele>180.60000610352</ele>
        <time>2017-07-17T07:33:08Z</time>
      </trkpt>
      <trkpt lat="46.33776" lon="4.85072">
        <ele>180.39999389648</ele>
        <time>2017-07-17T07:33:15Z</time>
      </trkpt>
      <trkpt lat="46.33825" lon="4.85079">
        <ele>181</ele>
        <time>2017-07-17T07:33:23Z</time>
      </trkpt>
      <trkpt lat="46.3387" lon="4.85082">
        <ele>181.19999694824</ele>
        <time>2017-07-17T07:33:31Z</time>
      </trkpt>
      <trkpt lat="46.33902" lon="4.85082">
        <ele>182.19999694824</ele>
        <time>2017-07-17T07:33:37Z</time>
      </trkpt>
      <trkpt lat="46.33908" lon="4.85081">
        <ele>182.19999694824</ele>
        <time>2017-07-17T07:33:38Z</time>
      </trkpt>
      <trkpt lat="46.3395" lon="4.85074">
        <ele>182.39999389648</ele>
        <time>2017-07-17T07:33:45Z</time>
      </trkpt>
      <trkpt lat="46.33967" lon="4.85069">
        <ele>182.39999389648</ele>
        <time>2017-07-17T07:33:48Z</time>
      </trkpt>
      <trkpt lat="46.3398" lon="4.8507">
        <ele>182.39999389648</ele>
        <time>2017-07-17T07:33:50Z</time>
      </trkpt>
      <trkpt lat="46.34027" lon="4.85079">
        <ele>181.60000610352</ele>
        <time>2017-07-17T07:33:57Z</time>
      </trkpt>
      <trkpt lat="46.34054" lon="4.85085">
        <ele>181.19999694824</ele>
        <time>2017-07-17T07:34:01Z</time>
      </trkpt>
      <trkpt lat="46.3408" lon="4.85091">
        <ele>180.80000305176</ele>
        <time>2017-07-17T07:34:05Z</time>
      </trkpt>
      <trkpt lat="46.34132" lon="4.85102">
        <ele>180.39999389648</ele>
        <time>2017-07-17T07:34:13Z</time>
      </trkpt>
      <trkpt lat="46.34183" lon="4.85109">
        <ele>180.80000305176</ele>
        <time>2017-07-17T07:34:21Z</time>
      </trkpt>
      <trkpt lat="46.3424" lon="4.85118">
        <ele>180.80000305176</ele>
        <time>2017-07-17T07:34:30Z</time>
      </trkpt>
      <trkpt lat="46.34292" lon="4.85121">
        <ele>180.80000305176</ele>
        <time>2017-07-17T07:34:38Z</time>
      </trkpt>
      <trkpt lat="46.34339" lon="4.85117">
        <ele>180.80000305176</ele>
        <time>2017-07-17T07:34:45Z</time>
      </trkpt>
      <trkpt lat="46.34397" lon="4.85111">
        <ele>180.80000305176</ele>
        <time>2017-07-17T07:34:54Z</time>
      </trkpt>
      <trkpt lat="46.34448" lon="4.85108">
        <ele>181</ele>
        <time>2017-07-17T07:35:02Z</time>
      </trkpt>
      <trkpt lat="46.34494" lon="4.85105">
        <ele>180.80000305176</ele>
        <time>2017-07-17T07:35:09Z</time>
      </trkpt>
      <trkpt lat="46.34534" lon="4.85105">
        <ele>180.60000610352</ele>
        <time>2017-07-17T07:35:15Z</time>
      </trkpt>
      <trkpt lat="46.34581" lon="4.85101">
        <ele>180.19999694824</ele>
        <time>2017-07-17T07:35:22Z</time>
      </trkpt>
      <trkpt lat="46.34632" lon="4.851">
        <ele>180.39999389648</ele>
        <time>2017-07-17T07:35:30Z</time>
      </trkpt>
      <trkpt lat="46.34671" lon="4.85101">
        <ele>180.60000610352</ele>
        <time>2017-07-17T07:35:36Z</time>
      </trkpt>
      <trkpt lat="46.34685" lon="4.851">
        <ele>180.39999389648</ele>
        <time>2017-07-17T07:35:38Z</time>
      </trkpt>
      <trkpt lat="46.34705" lon="4.85096">
        <ele>180.19999694824</ele>
        <time>2017-07-17T07:35:41Z</time>
      </trkpt>
      <trkpt lat="46.34738" lon="4.85086">
        <ele>180</ele>
        <time>2017-07-17T07:35:46Z</time>
      </trkpt>
      <trkpt lat="46.34759" lon="4.8508">
        <ele>179.80000305176</ele>
        <time>2017-07-17T07:35:49Z</time>
      </trkpt>
      <trkpt lat="46.34808" lon="4.85066">
        <ele>179.80000305176</ele>
        <time>2017-07-17T07:35:57Z</time>
      </trkpt>
      <trkpt lat="46.34852" lon="4.85056">
        <ele>180.39999389648</ele>
        <time>2017-07-17T07:36:05Z</time>
      </trkpt>
      <trkpt lat="46.34888" lon="4.85049">
        <ele>181</ele>
        <time>2017-07-17T07:36:12Z</time>
      </trkpt>
      <trkpt lat="46.34893" lon="4.85049">
        <ele>181.19999694824</ele>
        <time>2017-07-17T07:36:13Z</time>
      </trkpt>
      <trkpt lat="46.34903" lon="4.85049">
        <ele>181.80000305176</ele>
        <time>2017-07-17T07:36:15Z</time>
      </trkpt>
      <trkpt lat="46.34913" lon="4.85048">
        <ele>182</ele>
        <time>2017-07-17T07:36:17Z</time>
      </trkpt>
      <trkpt lat="46.34935" lon="4.85045">
        <ele>182.19999694824</ele>
        <time>2017-07-17T07:36:21Z</time>
      </trkpt>
      <trkpt lat="46.34963" lon="4.85041">
        <ele>182.39999389648</ele>
        <time>2017-07-17T07:36:26Z</time>
      </trkpt>
      <trkpt lat="46.35005" lon="4.85035">
        <ele>182.19999694824</ele>
        <time>2017-07-17T07:36:33Z</time>
      </trkpt>
      <trkpt lat="46.35049" lon="4.85026">
        <ele>181.19999694824</ele>
        <time>2017-07-17T07:36:40Z</time>
      </trkpt>
      <trkpt lat="46.35056" lon="4.85025">
        <ele>181.19999694824</ele>
        <time>2017-07-17T07:36:41Z</time>
      </trkpt>
      <trkpt lat="46.351" lon="4.85014">
        <ele>181</ele>
        <time>2017-07-17T07:36:48Z</time>
      </trkpt>
      <trkpt lat="46.35142" lon="4.85006">
        <ele>180.80000305176</ele>
        <time>2017-07-17T07:36:54Z</time>
      </trkpt>
      <trkpt lat="46.35185" lon="4.84997">
        <ele>180.19999694824</ele>
        <time>2017-07-17T07:37:00Z</time>
      </trkpt>
      <trkpt lat="46.35231" lon="4.84984">
        <ele>179.80000305176</ele>
        <time>2017-07-17T07:37:07Z</time>
      </trkpt>
      <trkpt lat="46.35237" lon="4.84981">
        <ele>180</ele>
        <time>2017-07-17T07:37:08Z</time>
      </trkpt>
      <trkpt lat="46.35248" lon="4.84977">
        <ele>180.19999694824</ele>
        <time>2017-07-17T07:37:10Z</time>
      </trkpt>
      <trkpt lat="46.3526" lon="4.84976">
        <ele>180.39999389648</ele>
        <time>2017-07-17T07:37:12Z</time>
      </trkpt>
      <trkpt lat="46.35293" lon="4.84979">
        <ele>180.39999389648</ele>
        <time>2017-07-17T07:37:18Z</time>
      </trkpt>
      <trkpt lat="46.35327" lon="4.84977">
        <ele>180.19999694824</ele>
        <time>2017-07-17T07:37:24Z</time>
      </trkpt>
      <trkpt lat="46.35362" lon="4.84976">
        <ele>180</ele>
        <time>2017-07-17T07:37:30Z</time>
      </trkpt>
      <trkpt lat="46.35413" lon="4.84979">
        <ele>180.39999389648</ele>
        <time>2017-07-17T07:37:38Z</time>
      </trkpt>
      <trkpt lat="46.35465" lon="4.84988">
        <ele>180.19999694824</ele>
        <time>2017-07-17T07:37:46Z</time>
      </trkpt>
      <trkpt lat="46.355" lon="4.84992">
        <ele>180.60000610352</ele>
        <time>2017-07-17T07:37:52Z</time>
      </trkpt>
      <trkpt lat="46.35542" lon="4.85">
        <ele>180.80000305176</ele>
        <time>2017-07-17T07:37:59Z</time>
      </trkpt>
      <trkpt lat="46.3558" lon="4.85011">
        <ele>181</ele>
        <time>2017-07-17T07:38:05Z</time>
      </trkpt>
      <trkpt lat="46.35617" lon="4.85025">
        <ele>181.19999694824</ele>
        <time>2017-07-17T07:38:11Z</time>
      </trkpt>
      <trkpt lat="46.35654" lon="4.85042">
        <ele>181</ele>
        <time>2017-07-17T07:38:17Z</time>
      </trkpt>
      <trkpt lat="46.3569" lon="4.85064">
        <ele>181</ele>
        <time>2017-07-17T07:38:23Z</time>
      </trkpt>
      <trkpt lat="46.35737" lon="4.8509">
        <ele>181.19999694824</ele>
        <time>2017-07-17T07:38:31Z</time>
      </trkpt>
      <trkpt lat="46.3579" lon="4.8512">
        <ele>181</ele>
        <time>2017-07-17T07:38:40Z</time>
      </trkpt>
      <trkpt lat="46.35796" lon="4.85124">
        <ele>181</ele>
        <time>2017-07-17T07:38:41Z</time>
      </trkpt>
      <trkpt lat="46.35835" lon="4.85149">
        <ele>181.19999694824</ele>
        <time>2017-07-17T07:38:48Z</time>
      </trkpt>
      <trkpt lat="46.35881" lon="4.85179">
        <ele>181.19999694824</ele>
        <time>2017-07-17T07:38:56Z</time>
      </trkpt>
      <trkpt lat="46.35932" lon="4.85214">
        <ele>181.19999694824</ele>
        <time>2017-07-17T07:39:05Z</time>
      </trkpt>
      <trkpt lat="46.35938" lon="4.8522">
        <ele>181.19999694824</ele>
        <time>2017-07-17T07:39:06Z</time>
      </trkpt>
      <trkpt lat="46.35954" lon="4.85237">
        <ele>181</ele>
        <time>2017-07-17T07:39:09Z</time>
      </trkpt>
      <trkpt lat="46.35978" lon="4.85252">
        <ele>181</ele>
        <time>2017-07-17T07:39:13Z</time>
      </trkpt>
      <trkpt lat="46.35984" lon="4.85256">
        <ele>181</ele>
        <time>2017-07-17T07:39:14Z</time>
      </trkpt>
      <trkpt lat="46.36028" lon="4.85277">
        <ele>180.80000305176</ele>
        <time>2017-07-17T07:39:21Z</time>
      </trkpt>
      <trkpt lat="46.36072" lon="4.85287">
        <ele>180.60000610352</ele>
        <time>2017-07-17T07:39:28Z</time>
      </trkpt>
      <trkpt lat="46.36108" lon="4.85298">
        <ele>180.80000305176</ele>
        <time>2017-07-17T07:39:34Z</time>
      </trkpt>
      <trkpt lat="46.36119" lon="4.85302">
        <ele>181</ele>
        <time>2017-07-17T07:39:36Z</time>
      </trkpt>
      <trkpt lat="46.36137" lon="4.85309">
        <ele>181</ele>
        <time>2017-07-17T07:39:39Z</time>
      </trkpt>
      <trkpt lat="46.36164" lon="4.8532">
        <ele>181.19999694824</ele>
        <time>2017-07-17T07:39:45Z</time>
      </trkpt>
      <trkpt lat="46.36168" lon="4.85322">
        <ele>181.19999694824</ele>
        <time>2017-07-17T07:39:46Z</time>
      </trkpt>
      <trkpt lat="46.3618" lon="4.85323">
        <ele>181.39999389648</ele>
        <time>2017-07-17T07:39:49Z</time>
      </trkpt>
      <trkpt lat="46.36184" lon="4.85323">
        <ele>181.39999389648</ele>
        <time>2017-07-17T07:39:50Z</time>
      </trkpt>
      <trkpt lat="46.36206" lon="4.85328">
        <ele>182</ele>
        <time>2017-07-17T07:39:56Z</time>
      </trkpt>
      <trkpt lat="46.36219" lon="4.85333">
        <ele>182.19999694824</ele>
        <time>2017-07-17T07:39:59Z</time>
      </trkpt>
      <trkpt lat="46.36234" lon="4.85338">
        <ele>182.39999389648</ele>
        <time>2017-07-17T07:40:02Z</time>
      </trkpt>
      <trkpt lat="46.36273" lon="4.85355">
        <ele>182.39999389648</ele>
        <time>2017-07-17T07:40:09Z</time>
      </trkpt>
      <trkpt lat="46.36308" lon="4.85371">
        <ele>182.60000610352</ele>
        <time>2017-07-17T07:40:15Z</time>
      </trkpt>
      <trkpt lat="46.36341" lon="4.85387">
        <ele>182.60000610352</ele>
        <time>2017-07-17T07:40:21Z</time>
      </trkpt>
      <trkpt lat="46.36371" lon="4.85402">
        <ele>183</ele>
        <time>2017-07-17T07:40:27Z</time>
      </trkpt>
      <trkpt lat="46.36397" lon="4.85418">
        <ele>183.39999389648</ele>
        <time>2017-07-17T07:40:32Z</time>
      </trkpt>
      <trkpt lat="46.36407" lon="4.85425">
        <ele>183.60000610352</ele>
        <time>2017-07-17T07:40:34Z</time>
      </trkpt>
      <trkpt lat="46.36456" lon="4.85456">
        <ele>184</ele>
        <time>2017-07-17T07:40:43Z</time>
      </trkpt>
      <trkpt lat="46.36491" lon="4.85483">
        <ele>184</ele>
        <time>2017-07-17T07:40:50Z</time>
      </trkpt>
      <trkpt lat="46.36522" lon="4.85509">
        <ele>183.39999389648</ele>
        <time>2017-07-17T07:40:56Z</time>
      </trkpt>
      <trkpt lat="46.36555" lon="4.85537">
        <ele>182.80000305176</ele>
        <time>2017-07-17T07:41:02Z</time>
      </trkpt>
      <trkpt lat="46.366" lon="4.85575">
        <ele>182.39999389648</ele>
        <time>2017-07-17T07:41:10Z</time>
      </trkpt>
      <trkpt lat="46.36609" lon="4.85585">
        <ele>182.19999694824</ele>
        <time>2017-07-17T07:41:12Z</time>
      </trkpt>
      <trkpt lat="46.36615" lon="4.85588">
        <ele>182.19999694824</ele>
        <time>2017-07-17T07:41:13Z</time>
      </trkpt>
      <trkpt lat="46.36626" lon="4.85597">
        <ele>182</ele>
        <time>2017-07-17T07:41:15Z</time>
      </trkpt>
      <trkpt lat="46.36637" lon="4.85605">
        <ele>182</ele>
        <time>2017-07-17T07:41:17Z</time>
      </trkpt>
      <trkpt lat="46.36659" lon="4.8562">
        <ele>182</ele>
        <time>2017-07-17T07:41:21Z</time>
      </trkpt>
      <trkpt lat="46.36686" lon="4.8564">
        <ele>182</ele>
        <time>2017-07-17T07:41:26Z</time>
      </trkpt>
      <trkpt lat="46.36696" lon="4.85648">
        <ele>181.80000305176</ele>
        <time>2017-07-17T07:41:28Z</time>
      </trkpt>
      <trkpt lat="46.36725" lon="4.8567">
        <ele>182</ele>
        <time>2017-07-17T07:41:34Z</time>
      </trkpt>
      <trkpt lat="46.36752" lon="4.85689">
        <ele>182.39999389648</ele>
        <time>2017-07-17T07:41:40Z</time>
      </trkpt>
      <trkpt lat="46.36762" lon="4.85697">
        <ele>182.39999389648</ele>
        <time>2017-07-17T07:41:42Z</time>
      </trkpt>
      <trkpt lat="46.36778" lon="4.85706">
        <ele>182.19999694824</ele>
        <time>2017-07-17T07:41:45Z</time>
      </trkpt>
      <trkpt lat="46.36809" lon="4.85728">
        <ele>182.19999694824</ele>
        <time>2017-07-17T07:41:51Z</time>
      </trkpt>
      <trkpt lat="46.36819" lon="4.85735">
        <ele>182.39999389648</ele>
        <time>2017-07-17T07:41:53Z</time>
      </trkpt>
      <trkpt lat="46.36839" lon="4.85748">
        <ele>182.19999694824</ele>
        <time>2017-07-17T07:41:57Z</time>
      </trkpt>
      <trkpt lat="46.36854" lon="4.8576">
        <ele>182.19999694824</ele>
        <time>2017-07-17T07:42:00Z</time>
      </trkpt>
      <trkpt lat="46.36865" lon="4.85768">
        <ele>182.39999389648</ele>
        <time>2017-07-17T07:42:02Z</time>
      </trkpt>
      <trkpt lat="46.3687" lon="4.85771">
        <ele>182.39999389648</ele>
        <time>2017-07-17T07:42:03Z</time>
      </trkpt>
      <trkpt lat="46.36906" lon="4.85796">
        <ele>182.39999389648</ele>
        <time>2017-07-17T07:42:10Z</time>
      </trkpt>
      <trkpt lat="46.36943" lon="4.85824">
        <ele>182.60000610352</ele>
        <time>2017-07-17T07:42:17Z</time>
      </trkpt>
      <trkpt lat="46.36989" lon="4.8586">
        <ele>182.39999389648</ele>
        <time>2017-07-17T07:42:25Z</time>
      </trkpt>
      <trkpt lat="46.37034" lon="4.85893">
        <ele>182</ele>
        <time>2017-07-17T07:42:33Z</time>
      </trkpt>
      <trkpt lat="46.37068" lon="4.85922">
        <ele>182.39999389648</ele>
        <time>2017-07-17T07:42:40Z</time>
      </trkpt>
      <trkpt lat="46.37111" lon="4.85959">
        <ele>182</ele>
        <time>2017-07-17T07:42:48Z</time>
      </trkpt>
      <trkpt lat="46.3715" lon="4.85994">
        <ele>182.39999389648</ele>
        <time>2017-07-17T07:42:56Z</time>
      </trkpt>
      <trkpt lat="46.37181" lon="4.86023">
        <ele>182.60000610352</ele>
        <time>2017-07-17T07:43:02Z</time>
      </trkpt>
      <trkpt lat="46.3722" lon="4.86062">
        <ele>182.60000610352</ele>
        <time>2017-07-17T07:43:10Z</time>
      </trkpt>
      <trkpt lat="46.37248" lon="4.86085">
        <ele>182.60000610352</ele>
        <time>2017-07-17T07:43:16Z</time>
      </trkpt>
      <trkpt lat="46.37275" lon="4.86108">
        <ele>182.39999389648</ele>
        <time>2017-07-17T07:43:21Z</time>
      </trkpt>
      <trkpt lat="46.37313" lon="4.86143">
        <ele>181.80000305176</ele>
        <time>2017-07-17T07:43:28Z</time>
      </trkpt>
      <trkpt lat="46.3735" lon="4.86183">
        <ele>182.39999389648</ele>
        <time>2017-07-17T07:43:36Z</time>
      </trkpt>
      <trkpt lat="46.37387" lon="4.86221">
        <ele>182.60000610352</ele>
        <time>2017-07-17T07:43:44Z</time>
      </trkpt>
      <trkpt lat="46.37437" lon="4.86266">
        <ele>182.80000305176</ele>
        <time>2017-07-17T07:43:54Z</time>
      </trkpt>
      <trkpt lat="46.37472" lon="4.86294">
        <ele>182.80000305176</ele>
        <time>2017-07-17T07:44:01Z</time>
      </trkpt>
      <trkpt lat="46.37515" lon="4.86334">
        <ele>182.60000610352</ele>
        <time>2017-07-17T07:44:09Z</time>
      </trkpt>
      <trkpt lat="46.37521" lon="4.86338">
        <ele>182.39999389648</ele>
        <time>2017-07-17T07:44:10Z</time>
      </trkpt>
      <trkpt lat="46.3755" lon="4.86359">
        <ele>181.80000305176</ele>
        <time>2017-07-17T07:44:15Z</time>
      </trkpt>
      <trkpt lat="46.37584" lon="4.86396">
        <ele>182</ele>
        <time>2017-07-17T07:44:22Z</time>
      </trkpt>
      <trkpt lat="46.3762" lon="4.86429">
        <ele>182</ele>
        <time>2017-07-17T07:44:29Z</time>
      </trkpt>
      <trkpt lat="46.37654" lon="4.86466">
        <ele>182</ele>
        <time>2017-07-17T07:44:36Z</time>
      </trkpt>
      <trkpt lat="46.37691" lon="4.86494">
        <ele>181.80000305176</ele>
        <time>2017-07-17T07:44:43Z</time>
      </trkpt>
      <trkpt lat="46.37719" lon="4.86516">
        <ele>181.60000610352</ele>
        <time>2017-07-17T07:44:49Z</time>
      </trkpt>
      <trkpt lat="46.37723" lon="4.86518">
        <ele>181.39999389648</ele>
        <time>2017-07-17T07:44:50Z</time>
      </trkpt>
      <trkpt lat="46.37736" lon="4.8653">
        <ele>181.19999694824</ele>
        <time>2017-07-17T07:44:53Z</time>
      </trkpt>
      <trkpt lat="46.37741" lon="4.86533">
        <ele>181.19999694824</ele>
        <time>2017-07-17T07:44:54Z</time>
      </trkpt>
      <trkpt lat="46.37746" lon="4.86536">
        <ele>181.19999694824</ele>
        <time>2017-07-17T07:44:55Z</time>
      </trkpt>
      <trkpt lat="46.37762" lon="4.86549">
        <ele>181</ele>
        <time>2017-07-17T07:44:58Z</time>
      </trkpt>
      <trkpt lat="46.37794" lon="4.86572">
        <ele>181.39999389648</ele>
        <time>2017-07-17T07:45:04Z</time>
      </trkpt>
      <trkpt lat="46.37829" lon="4.86606">
        <ele>181.60000610352</ele>
        <time>2017-07-17T07:45:11Z</time>
      </trkpt>
      <trkpt lat="46.37874" lon="4.86639">
        <ele>181.39999389648</ele>
        <time>2017-07-17T07:45:19Z</time>
      </trkpt>
      <trkpt lat="46.37912" lon="4.86674">
        <ele>181.19999694824</ele>
        <time>2017-07-17T07:45:26Z</time>
      </trkpt>
      <trkpt lat="46.37957" lon="4.86721">
        <ele>181</ele>
        <time>2017-07-17T07:45:35Z</time>
      </trkpt>
      <trkpt lat="46.37962" lon="4.86726">
        <ele>181</ele>
        <time>2017-07-17T07:45:36Z</time>
      </trkpt>
      <trkpt lat="46.38004" lon="4.86766">
        <ele>181</ele>
        <time>2017-07-17T07:45:44Z</time>
      </trkpt>
      <trkpt lat="46.38053" lon="4.86806">
        <ele>181</ele>
        <time>2017-07-17T07:45:53Z</time>
      </trkpt>
      <trkpt lat="46.38091" lon="4.86842">
        <ele>181.39999389648</ele>
        <time>2017-07-17T07:46:01Z</time>
      </trkpt>
      <trkpt lat="46.381" lon="4.86852">
        <ele>181.60000610352</ele>
        <time>2017-07-17T07:46:03Z</time>
      </trkpt>
      <trkpt lat="46.38114" lon="4.86869">
        <ele>181.80000305176</ele>
        <time>2017-07-17T07:46:06Z</time>
      </trkpt>
      <trkpt lat="46.38153" lon="4.86912">
        <ele>181.80000305176</ele>
        <time>2017-07-17T07:46:14Z</time>
      </trkpt>
      <trkpt lat="46.38192" lon="4.86953">
        <ele>182</ele>
        <time>2017-07-17T07:46:22Z</time>
      </trkpt>
      <trkpt lat="46.38202" lon="4.86964">
        <ele>181.80000305176</ele>
        <time>2017-07-17T07:46:24Z</time>
      </trkpt>
      <trkpt lat="46.38211" lon="4.86977">
        <ele>181.80000305176</ele>
        <time>2017-07-17T07:46:26Z</time>
      </trkpt>
      <trkpt lat="46.38221" lon="4.86988">
        <ele>181.80000305176</ele>
        <time>2017-07-17T07:46:28Z</time>
      </trkpt>
      <trkpt lat="46.38241" lon="4.87011">
        <ele>182</ele>
        <time>2017-07-17T07:46:32Z</time>
      </trkpt>
      <trkpt lat="46.38247" lon="4.87016">
        <ele>181.80000305176</ele>
        <time>2017-07-17T07:46:33Z</time>
      </trkpt>
      <trkpt lat="46.38268" lon="4.87035">
        <ele>181.60000610352</ele>
        <time>2017-07-17T07:46:37Z</time>
      </trkpt>
      <trkpt lat="46.38296" lon="4.87058">
        <ele>181.19999694824</ele>
        <time>2017-07-17T07:46:43Z</time>
      </trkpt>
      <trkpt lat="46.38321" lon="4.87078">
        <ele>181.39999389648</ele>
        <time>2017-07-17T07:46:48Z</time>
      </trkpt>
      <trkpt lat="46.38325" lon="4.87083">
        <ele>181.39999389648</ele>
        <time>2017-07-17T07:46:49Z</time>
      </trkpt>
      <trkpt lat="46.38354" lon="4.87109">
        <ele>181.80000305176</ele>
        <time>2017-07-17T07:46:55Z</time>
      </trkpt>
      <trkpt lat="46.38399" lon="4.8714">
        <ele>181.39999389648</ele>
        <time>2017-07-17T07:47:03Z</time>
      </trkpt>
      <trkpt lat="46.38434" lon="4.87163">
        <ele>181.19999694824</ele>
        <time>2017-07-17T07:47:09Z</time>
      </trkpt>
      <trkpt lat="46.38487" lon="4.87193">
        <ele>180.80000305176</ele>
        <time>2017-07-17T07:47:18Z</time>
      </trkpt>
      <trkpt lat="46.38531" lon="4.87219">
        <ele>181.19999694824</ele>
        <time>2017-07-17T07:47:26Z</time>
      </trkpt>
      <trkpt lat="46.38564" lon="4.87242">
        <ele>181.39999389648</ele>
        <time>2017-07-17T07:47:32Z</time>
      </trkpt>
      <trkpt lat="46.38597" lon="4.8727">
        <ele>181.19999694824</ele>
        <time>2017-07-17T07:47:38Z</time>
      </trkpt>
      <trkpt lat="46.38632" lon="4.87285">
        <ele>181</ele>
        <time>2017-07-17T07:47:44Z</time>
      </trkpt>
      <trkpt lat="46.38687" lon="4.8731">
        <ele>181</ele>
        <time>2017-07-17T07:47:54Z</time>
      </trkpt>
      <trkpt lat="46.38728" lon="4.87331">
        <ele>181.80000305176</ele>
        <time>2017-07-17T07:48:02Z</time>
      </trkpt>
      <trkpt lat="46.38756" lon="4.8734">
        <ele>182</ele>
        <time>2017-07-17T07:48:07Z</time>
      </trkpt>
      <trkpt lat="46.38761" lon="4.87343">
        <ele>182</ele>
        <time>2017-07-17T07:48:08Z</time>
      </trkpt>
      <trkpt lat="46.3879" lon="4.8737">
        <ele>182.19999694824</ele>
        <time>2017-07-17T07:48:14Z</time>
      </trkpt>
      <trkpt lat="46.388" lon="4.87378">
        <ele>182.19999694824</ele>
        <time>2017-07-17T07:48:16Z</time>
      </trkpt>
      <trkpt lat="46.38826" lon="4.87394">
        <ele>182.60000610352</ele>
        <time>2017-07-17T07:48:21Z</time>
      </trkpt>
      <trkpt lat="46.38874" lon="4.87425">
        <ele>182.60000610352</ele>
        <time>2017-07-17T07:48:30Z</time>
      </trkpt>
      <trkpt lat="46.38917" lon="4.87466">
        <ele>182.39999389648</ele>
        <time>2017-07-17T07:48:38Z</time>
      </trkpt>
      <trkpt lat="46.38965" lon="4.87506">
        <ele>181.60000610352</ele>
        <time>2017-07-17T07:48:46Z</time>
      </trkpt>
      <trkpt lat="46.38976" lon="4.87515">
        <ele>181.60000610352</ele>
        <time>2017-07-17T07:48:48Z</time>
      </trkpt>
      <trkpt lat="46.3902" lon="4.8755">
        <ele>181.80000305176</ele>
        <time>2017-07-17T07:48:56Z</time>
      </trkpt>
      <trkpt lat="46.39065" lon="4.87592">
        <ele>181.19999694824</ele>
        <time>2017-07-17T07:49:04Z</time>
      </trkpt>
      <trkpt lat="46.39101" lon="4.87631">
        <ele>181</ele>
        <time>2017-07-17T07:49:11Z</time>
      </trkpt>
      <trkpt lat="46.39141" lon="4.87671">
        <ele>180.80000305176</ele>
        <time>2017-07-17T07:49:19Z</time>
      </trkpt>
      <trkpt lat="46.39161" lon="4.8769">
        <ele>180.80000305176</ele>
        <time>2017-07-17T07:49:23Z</time>
      </trkpt>
      <trkpt lat="46.39169" lon="4.87702">
        <ele>180.60000610352</ele>
        <time>2017-07-17T07:49:25Z</time>
      </trkpt>
      <trkpt lat="46.39211" lon="4.8776">
        <ele>180.80000305176</ele>
        <time>2017-07-17T07:49:35Z</time>
      </trkpt>
      <trkpt lat="46.39216" lon="4.87764">
        <ele>180.80000305176</ele>
        <time>2017-07-17T07:49:36Z</time>
      </trkpt>
      <trkpt lat="46.39237" lon="4.87777">
        <ele>180.60000610352</ele>
        <time>2017-07-17T07:49:40Z</time>
      </trkpt>
      <trkpt lat="46.39271" lon="4.87806">
        <ele>180.60000610352</ele>
        <time>2017-07-17T07:49:47Z</time>
      </trkpt>
      <trkpt lat="46.39303" lon="4.8784">
        <ele>181</ele>
        <time>2017-07-17T07:49:54Z</time>
      </trkpt>
      <trkpt lat="46.39333" lon="4.87867">
        <ele>181</ele>
        <time>2017-07-17T07:50:00Z</time>
      </trkpt>
      <trkpt lat="46.39367" lon="4.879">
        <ele>181</ele>
        <time>2017-07-17T07:50:07Z</time>
      </trkpt>
      <trkpt lat="46.39403" lon="4.87929">
        <ele>181</ele>
        <time>2017-07-17T07:50:14Z</time>
      </trkpt>
      <trkpt lat="46.39446" lon="4.87957">
        <ele>181</ele>
        <time>2017-07-17T07:50:22Z</time>
      </trkpt>
      <trkpt lat="46.39494" lon="4.87985">
        <ele>181.19999694824</ele>
        <time>2017-07-17T07:50:31Z</time>
      </trkpt>
      <trkpt lat="46.39543" lon="4.8801">
        <ele>181.39999389648</ele>
        <time>2017-07-17T07:50:40Z</time>
      </trkpt>
      <trkpt lat="46.39593" lon="4.88033">
        <ele>181.39999389648</ele>
        <time>2017-07-17T07:50:49Z</time>
      </trkpt>
      <trkpt lat="46.39643" lon="4.88061">
        <ele>181.39999389648</ele>
        <time>2017-07-17T07:50:58Z</time>
      </trkpt>
      <trkpt lat="46.39696" lon="4.88094">
        <ele>181.39999389648</ele>
        <time>2017-07-17T07:51:08Z</time>
      </trkpt>
      <trkpt lat="46.39751" lon="4.88128">
        <ele>181.39999389648</ele>
        <time>2017-07-17T07:51:18Z</time>
      </trkpt>
      <trkpt lat="46.3979" lon="4.88153">
        <ele>181.39999389648</ele>
        <time>2017-07-17T07:51:26Z</time>
      </trkpt>
      <trkpt lat="46.39827" lon="4.88179">
        <ele>181.39999389648</ele>
        <time>2017-07-17T07:51:33Z</time>
      </trkpt>
      <trkpt lat="46.39873" lon="4.88218">
        <ele>181.39999389648</ele>
        <time>2017-07-17T07:51:42Z</time>
      </trkpt>
      <trkpt lat="46.39917" lon="4.88259">
        <ele>181.39999389648</ele>
        <time>2017-07-17T07:51:51Z</time>
      </trkpt>
      <trkpt lat="46.3995" lon="4.8829">
        <ele>181.60000610352</ele>
        <time>2017-07-17T07:51:58Z</time>
      </trkpt>
      <trkpt lat="46.39983" lon="4.88319">
        <ele>181.60000610352</ele>
        <time>2017-07-17T07:52:05Z</time>
      </trkpt>
      <trkpt lat="46.4002" lon="4.88354">
        <ele>181.19999694824</ele>
        <time>2017-07-17T07:52:13Z</time>
      </trkpt>
      <trkpt lat="46.40061" lon="4.88389">
        <ele>181.19999694824</ele>
        <time>2017-07-17T07:52:22Z</time>
      </trkpt>
      <trkpt lat="46.40088" lon="4.88408">
        <ele>181.19999694824</ele>
        <time>2017-07-17T07:52:29Z</time>
      </trkpt>
      <trkpt lat="46.40101" lon="4.88416">
        <ele>181.19999694824</ele>
        <time>2017-07-17T07:52:34Z</time>
      </trkpt>
      <trkpt lat="46.40112" lon="4.8842">
        <ele>181</ele>
        <time>2017-07-17T07:52:40Z</time>
      </trkpt>
      <trkpt lat="46.4012" lon="4.88426">
        <ele>181</ele>
        <time>2017-07-17T07:52:46Z</time>
      </trkpt>
      <trkpt lat="46.40134" lon="4.88434">
        <ele>181</ele>
        <time>2017-07-17T07:52:51Z</time>
      </trkpt>
      <trkpt lat="46.40154" lon="4.88451">
        <ele>181</ele>
        <time>2017-07-17T07:52:57Z</time>
      </trkpt>
      <trkpt lat="46.40176" lon="4.88473">
        <ele>181.19999694824</ele>
        <time>2017-07-17T07:53:02Z</time>
      </trkpt>
      <trkpt lat="46.40198" lon="4.88499">
        <ele>181.39999389648</ele>
        <time>2017-07-17T07:53:07Z</time>
      </trkpt>
      <trkpt lat="46.40203" lon="4.88503">
        <ele>181.39999389648</ele>
        <time>2017-07-17T07:53:08Z</time>
      </trkpt>
      <trkpt lat="46.40239" lon="4.88532">
        <ele>181.39999389648</ele>
        <time>2017-07-17T07:53:15Z</time>
      </trkpt>
      <trkpt lat="46.40291" lon="4.88569">
        <ele>181.60000610352</ele>
        <time>2017-07-17T07:53:25Z</time>
      </trkpt>
      <trkpt lat="46.40338" lon="4.88605">
        <ele>181.19999694824</ele>
        <time>2017-07-17T07:53:34Z</time>
      </trkpt>
      <trkpt lat="46.40344" lon="4.88608">
        <ele>181.19999694824</ele>
        <time>2017-07-17T07:53:35Z</time>
      </trkpt>
      <trkpt lat="46.40366" lon="4.88625">
        <ele>181.19999694824</ele>
        <time>2017-07-17T07:53:39Z</time>
      </trkpt>
      <trkpt lat="46.40371" lon="4.88629">
        <ele>181.19999694824</ele>
        <time>2017-07-17T07:53:40Z</time>
      </trkpt>
      <trkpt lat="46.40407" lon="4.88663">
        <ele>181</ele>
        <time>2017-07-17T07:53:47Z</time>
      </trkpt>
      <trkpt lat="46.40443" lon="4.88692">
        <ele>181</ele>
        <time>2017-07-17T07:53:54Z</time>
      </trkpt>
      <trkpt lat="46.40454" lon="4.88698">
        <ele>181</ele>
        <time>2017-07-17T07:53:56Z</time>
      </trkpt>
      <trkpt lat="46.40469" lon="4.88706">
        <ele>181</ele>
        <time>2017-07-17T07:53:59Z</time>
      </trkpt>
      <trkpt lat="46.40479" lon="4.88712">
        <ele>181</ele>
        <time>2017-07-17T07:54:01Z</time>
      </trkpt>
      <trkpt lat="46.40506" lon="4.88721">
        <ele>181</ele>
        <time>2017-07-17T07:54:06Z</time>
      </trkpt>
      <trkpt lat="46.4055" lon="4.88728">
        <ele>181</ele>
        <time>2017-07-17T07:54:14Z</time>
      </trkpt>
      <trkpt lat="46.4059" lon="4.88733">
        <ele>181.19999694824</ele>
        <time>2017-07-17T07:54:21Z</time>
      </trkpt>
      <trkpt lat="46.40636" lon="4.88732">
        <ele>181</ele>
        <time>2017-07-17T07:54:29Z</time>
      </trkpt>
      <trkpt lat="46.40689" lon="4.88713">
        <ele>181</ele>
        <time>2017-07-17T07:54:38Z</time>
      </trkpt>
      <trkpt lat="46.40734" lon="4.88697">
        <ele>181.19999694824</ele>
        <time>2017-07-17T07:54:46Z</time>
      </trkpt>
      <trkpt lat="46.40776" lon="4.88688">
        <ele>181</ele>
        <time>2017-07-17T07:54:53Z</time>
      </trkpt>
      <trkpt lat="46.40835" lon="4.88676">
        <ele>181</ele>
        <time>2017-07-17T07:55:03Z</time>
      </trkpt>
      <trkpt lat="46.4084" lon="4.88675">
        <ele>181</ele>
        <time>2017-07-17T07:55:04Z</time>
      </trkpt>
      <trkpt lat="46.40883" lon="4.88661">
        <ele>180.80000305176</ele>
        <time>2017-07-17T07:55:11Z</time>
      </trkpt>
      <trkpt lat="46.40923" lon="4.8864">
        <ele>180.80000305176</ele>
        <time>2017-07-17T07:55:18Z</time>
      </trkpt>
      <trkpt lat="46.40927" lon="4.88635">
        <ele>180.80000305176</ele>
        <time>2017-07-17T07:55:19Z</time>
      </trkpt>
      <trkpt lat="46.40944" lon="4.88615">
        <ele>181</ele>
        <time>2017-07-17T07:55:23Z</time>
      </trkpt>
      <trkpt lat="46.40979" lon="4.88574">
        <ele>181.19999694824</ele>
        <time>2017-07-17T07:55:31Z</time>
      </trkpt>
      <trkpt lat="46.40987" lon="4.88567">
        <ele>181.19999694824</ele>
        <time>2017-07-17T07:55:34Z</time>
      </trkpt>
      <trkpt lat="46.40997" lon="4.8856">
        <ele>181.39999389648</ele>
        <time>2017-07-17T07:55:40Z</time>
      </trkpt>
      <trkpt lat="46.41008" lon="4.88564">
        <ele>181.19999694824</ele>
        <time>2017-07-17T07:55:43Z</time>
      </trkpt>
      <trkpt lat="46.41011" lon="4.88568">
        <ele>181</ele>
        <time>2017-07-17T07:55:44Z</time>
      </trkpt>
      <trkpt lat="46.4103" lon="4.88584">
        <ele>180.80000305176</ele>
        <time>2017-07-17T07:55:49Z</time>
      </trkpt>
      <trkpt lat="46.41034" lon="4.88586">
        <ele>180.60000610352</ele>
        <time>2017-07-17T07:55:50Z</time>
      </trkpt>
      <trkpt lat="46.41048" lon="4.88586">
        <ele>180.80000305176</ele>
        <time>2017-07-17T07:55:53Z</time>
      </trkpt>
      <trkpt lat="46.41052" lon="4.88585">
        <ele>180.80000305176</ele>
        <time>2017-07-17T07:55:54Z</time>
      </trkpt>
      <trkpt lat="46.41078" lon="4.88581">
        <ele>181.19999694824</ele>
        <time>2017-07-17T07:55:59Z</time>
      </trkpt>
      <trkpt lat="46.41084" lon="4.8858">
        <ele>181</ele>
        <time>2017-07-17T07:56:00Z</time>
      </trkpt>
      <trkpt lat="46.41118" lon="4.88577">
        <ele>181.19999694824</ele>
        <time>2017-07-17T07:56:06Z</time>
      </trkpt>
      <trkpt lat="46.41164" lon="4.88571">
        <ele>181.39999389648</ele>
        <time>2017-07-17T07:56:14Z</time>
      </trkpt>
      <trkpt lat="46.41212" lon="4.88569">
        <ele>181.60000610352</ele>
        <time>2017-07-17T07:56:22Z</time>
      </trkpt>
      <trkpt lat="46.41247" lon="4.88573">
        <ele>181.39999389648</ele>
        <time>2017-07-17T07:56:28Z</time>
      </trkpt>
      <trkpt lat="46.41304" lon="4.8858">
        <ele>181.39999389648</ele>
        <time>2017-07-17T07:56:38Z</time>
      </trkpt>
      <trkpt lat="46.4131" lon="4.8858">
        <ele>181.39999389648</ele>
        <time>2017-07-17T07:56:39Z</time>
      </trkpt>
      <trkpt lat="46.41351" lon="4.88584">
        <ele>181.39999389648</ele>
        <time>2017-07-17T07:56:46Z</time>
      </trkpt>
      <trkpt lat="46.41398" lon="4.88588">
        <ele>181.60000610352</ele>
        <time>2017-07-17T07:56:54Z</time>
      </trkpt>
      <trkpt lat="46.41445" lon="4.88595">
        <ele>181.39999389648</ele>
        <time>2017-07-17T07:57:02Z</time>
      </trkpt>
      <trkpt lat="46.41497" lon="4.8861">
        <ele>181.60000610352</ele>
        <time>2017-07-17T07:57:11Z</time>
      </trkpt>
      <trkpt lat="46.41555" lon="4.88627">
        <ele>181.39999389648</ele>
        <time>2017-07-17T07:57:21Z</time>
      </trkpt>
      <trkpt lat="46.41607" lon="4.88646">
        <ele>181.60000610352</ele>
        <time>2017-07-17T07:57:30Z</time>
      </trkpt>
      <trkpt lat="46.41658" lon="4.88662">
        <ele>181.60000610352</ele>
        <time>2017-07-17T07:57:39Z</time>
      </trkpt>
      <trkpt lat="46.41709" lon="4.88674">
        <ele>181.60000610352</ele>
        <time>2017-07-17T07:57:48Z</time>
      </trkpt>
      <trkpt lat="46.41749" lon="4.88673">
        <ele>181.80000305176</ele>
        <time>2017-07-17T07:57:55Z</time>
      </trkpt>
      <trkpt lat="46.41754" lon="4.88675">
        <ele>181.80000305176</ele>
        <time>2017-07-17T07:57:56Z</time>
      </trkpt>
      <trkpt lat="46.4177" lon="4.88686">
        <ele>181.80000305176</ele>
        <time>2017-07-17T07:57:59Z</time>
      </trkpt>
      <trkpt lat="46.41776" lon="4.8869">
        <ele>181.80000305176</ele>
        <time>2017-07-17T07:58:00Z</time>
      </trkpt>
      <trkpt lat="46.41805" lon="4.88704">
        <ele>181.80000305176</ele>
        <time>2017-07-17T07:58:05Z</time>
      </trkpt>
      <trkpt lat="46.41811" lon="4.88705">
        <ele>181.80000305176</ele>
        <time>2017-07-17T07:58:06Z</time>
      </trkpt>
      <trkpt lat="46.41848" lon="4.88711">
        <ele>181.80000305176</ele>
        <time>2017-07-17T07:58:12Z</time>
      </trkpt>
      <trkpt lat="46.41891" lon="4.88713">
        <ele>181.80000305176</ele>
        <time>2017-07-17T07:58:19Z</time>
      </trkpt>
      <trkpt lat="46.41939" lon="4.88721">
        <ele>182</ele>
        <time>2017-07-17T07:58:27Z</time>
      </trkpt>
      <trkpt lat="46.41989" lon="4.88731">
        <ele>181.80000305176</ele>
        <time>2017-07-17T07:58:35Z</time>
      </trkpt>
      <trkpt lat="46.4203" lon="4.88738">
        <ele>181.80000305176</ele>
        <time>2017-07-17T07:58:42Z</time>
      </trkpt>
      <trkpt lat="46.42078" lon="4.88748">
        <ele>181.80000305176</ele>
        <time>2017-07-17T07:58:50Z</time>
      </trkpt>
      <trkpt lat="46.42118" lon="4.88759">
        <ele>181.80000305176</ele>
        <time>2017-07-17T07:58:57Z</time>
      </trkpt>
      <trkpt lat="46.42169" lon="4.88769">
        <ele>181.60000610352</ele>
        <time>2017-07-17T07:59:06Z</time>
      </trkpt>
      <trkpt lat="46.42219" lon="4.8878">
        <ele>181.80000305176</ele>
        <time>2017-07-17T07:59:15Z</time>
      </trkpt>
      <trkpt lat="46.42237" lon="4.88782">
        <ele>181.80000305176</ele>
        <time>2017-07-17T07:59:19Z</time>
      </trkpt>
      <trkpt lat="46.42244" lon="4.88784">
        <ele>181.80000305176</ele>
        <time>2017-07-17T07:59:21Z</time>
      </trkpt>
      <trkpt lat="46.42251" lon="4.88785">
        <ele>181.19999694824</ele>
        <time>2017-07-17T07:59:49Z</time>
      </trkpt>
      <trkpt lat="46.42256" lon="4.88786">
        <ele>181.19999694824</ele>
        <time>2017-07-17T07:59:52Z</time>
      </trkpt>
      <trkpt lat="46.4227" lon="4.88788">
        <ele>181.19999694824</ele>
        <time>2017-07-17T07:59:57Z</time>
      </trkpt>
      <trkpt lat="46.42296" lon="4.88793">
        <ele>181.39999389648</ele>
        <time>2017-07-17T08:00:04Z</time>
      </trkpt>
      <trkpt lat="46.42329" lon="4.88799">
        <ele>181.60000610352</ele>
        <time>2017-07-17T08:00:11Z</time>
      </trkpt>
      <trkpt lat="46.42376" lon="4.88808">
        <ele>181.80000305176</ele>
        <time>2017-07-17T08:00:20Z</time>
      </trkpt>
      <trkpt lat="46.42415" lon="4.88815">
        <ele>181.60000610352</ele>
        <time>2017-07-17T08:00:27Z</time>
      </trkpt>
      <trkpt lat="46.42461" lon="4.88824">
        <ele>181.80000305176</ele>
        <time>2017-07-17T08:00:35Z</time>
      </trkpt>
      <trkpt lat="46.42513" lon="4.8883">
        <ele>181.80000305176</ele>
        <time>2017-07-17T08:00:44Z</time>
      </trkpt>
      <trkpt lat="46.4256" lon="4.88833">
        <ele>181.80000305176</ele>
        <time>2017-07-17T08:00:52Z</time>
      </trkpt>
      <trkpt lat="46.42612" lon="4.88836">
        <ele>181.80000305176</ele>
        <time>2017-07-17T08:01:01Z</time>
      </trkpt>
      <trkpt lat="46.42664" lon="4.88839">
        <ele>182</ele>
        <time>2017-07-17T08:01:10Z</time>
      </trkpt>
      <trkpt lat="46.4271" lon="4.88841">
        <ele>182</ele>
        <time>2017-07-17T08:01:18Z</time>
      </trkpt>
      <trkpt lat="46.42756" lon="4.88844">
        <ele>182</ele>
        <time>2017-07-17T08:01:26Z</time>
      </trkpt>
      <trkpt lat="46.42792" lon="4.88847">
        <ele>181.80000305176</ele>
        <time>2017-07-17T08:01:32Z</time>
      </trkpt>
      <trkpt lat="46.42831" lon="4.8885">
        <ele>181.80000305176</ele>
        <time>2017-07-17T08:01:39Z</time>
      </trkpt>
      <trkpt lat="46.42878" lon="4.88845">
        <ele>182</ele>
        <time>2017-07-17T08:01:47Z</time>
      </trkpt>
      <trkpt lat="46.42916" lon="4.88831">
        <ele>182</ele>
        <time>2017-07-17T08:01:54Z</time>
      </trkpt>
      <trkpt lat="46.42921" lon="4.8883">
        <ele>182</ele>
        <time>2017-07-17T08:01:55Z</time>
      </trkpt>
      <trkpt lat="46.42943" lon="4.88822">
        <ele>182.39999389648</ele>
        <time>2017-07-17T08:01:59Z</time>
      </trkpt>
      <trkpt lat="46.42948" lon="4.8882">
        <ele>182.39999389648</ele>
        <time>2017-07-17T08:02:00Z</time>
      </trkpt>
      <trkpt lat="46.42953" lon="4.88819">
        <ele>182.39999389648</ele>
        <time>2017-07-17T08:02:01Z</time>
      </trkpt>
      <trkpt lat="46.42972" lon="4.88818">
        <ele>182.39999389648</ele>
        <time>2017-07-17T08:02:05Z</time>
      </trkpt>
      <trkpt lat="46.42986" lon="4.88816">
        <ele>182.60000610352</ele>
        <time>2017-07-17T08:02:08Z</time>
      </trkpt>
      <trkpt lat="46.42996" lon="4.8881">
        <ele>182.80000305176</ele>
        <time>2017-07-17T08:02:10Z</time>
      </trkpt>
      <trkpt lat="46.43023" lon="4.88787">
        <ele>183</ele>
        <time>2017-07-17T08:02:16Z</time>
      </trkpt>
      <trkpt lat="46.43028" lon="4.88784">
        <ele>182.80000305176</ele>
        <time>2017-07-17T08:02:17Z</time>
      </trkpt>
      <trkpt lat="46.43079" lon="4.88756">
        <ele>183</ele>
        <time>2017-07-17T08:02:27Z</time>
      </trkpt>
      <trkpt lat="46.43095" lon="4.88749">
        <ele>183</ele>
        <time>2017-07-17T08:02:30Z</time>
      </trkpt>
      <trkpt lat="46.43106" lon="4.88745">
        <ele>183</ele>
        <time>2017-07-17T08:02:32Z</time>
      </trkpt>
      <trkpt lat="46.43156" lon="4.88732">
        <ele>183</ele>
        <time>2017-07-17T08:02:41Z</time>
      </trkpt>
      <trkpt lat="46.43167" lon="4.8873">
        <ele>182.80000305176</ele>
        <time>2017-07-17T08:02:43Z</time>
      </trkpt>
      <trkpt lat="46.4319" lon="4.88728">
        <ele>182.80000305176</ele>
        <time>2017-07-17T08:02:47Z</time>
      </trkpt>
      <trkpt lat="46.4323" lon="4.88727">
        <ele>182.80000305176</ele>
        <time>2017-07-17T08:02:54Z</time>
      </trkpt>
      <trkpt lat="46.43273" lon="4.88732">
        <ele>182.80000305176</ele>
        <time>2017-07-17T08:03:01Z</time>
      </trkpt>
      <trkpt lat="46.43316" lon="4.88738">
        <ele>182.39999389648</ele>
        <time>2017-07-17T08:03:08Z</time>
      </trkpt>
      <trkpt lat="46.43338" lon="4.88744">
        <ele>182.39999389648</ele>
        <time>2017-07-17T08:03:12Z</time>
      </trkpt>
      <trkpt lat="46.43344" lon="4.88745">
        <ele>182.39999389648</ele>
        <time>2017-07-17T08:03:13Z</time>
      </trkpt>
      <trkpt lat="46.43386" lon="4.88753">
        <ele>182.39999389648</ele>
        <time>2017-07-17T08:03:20Z</time>
      </trkpt>
      <trkpt lat="46.43428" lon="4.88758">
        <ele>182.39999389648</ele>
        <time>2017-07-17T08:03:27Z</time>
      </trkpt>
      <trkpt lat="46.43434" lon="4.88756">
        <ele>182.19999694824</ele>
        <time>2017-07-17T08:03:28Z</time>
      </trkpt>
      <trkpt lat="46.4345" lon="4.88752">
        <ele>182</ele>
        <time>2017-07-17T08:03:31Z</time>
      </trkpt>
      <trkpt lat="46.43454" lon="4.88753">
        <ele>182</ele>
        <time>2017-07-17T08:03:32Z</time>
      </trkpt>
      <trkpt lat="46.43462" lon="4.88757">
        <ele>182</ele>
        <time>2017-07-17T08:03:35Z</time>
      </trkpt>
      <trkpt lat="46.43465" lon="4.88756">
        <ele>181.60000610352</ele>
        <time>2017-07-17T08:03:48Z</time>
      </trkpt>
      <trkpt lat="46.43466" lon="4.88755">
        <ele>181.80000305176</ele>
        <time>2017-07-17T08:03:49Z</time>
      </trkpt>
      <trkpt lat="46.43468" lon="4.88739">
        <ele>182</ele>
        <time>2017-07-17T08:03:55Z</time>
      </trkpt>
      <trkpt lat="46.43475" lon="4.88714">
        <ele>182.39999389648</ele>
        <time>2017-07-17T08:04:00Z</time>
      </trkpt>
      <trkpt lat="46.43489" lon="4.88675">
        <ele>182.60000610352</ele>
        <time>2017-07-17T08:04:06Z</time>
      </trkpt>
      <trkpt lat="46.43492" lon="4.88669">
        <ele>182.60000610352</ele>
        <time>2017-07-17T08:04:07Z</time>
      </trkpt>
      <trkpt lat="46.43505" lon="4.88636">
        <ele>182.60000610352</ele>
        <time>2017-07-17T08:04:12Z</time>
      </trkpt>
      <trkpt lat="46.43522" lon="4.88596">
        <ele>182.60000610352</ele>
        <time>2017-07-17T08:04:18Z</time>
      </trkpt>
      <trkpt lat="46.43544" lon="4.8854">
        <ele>182.80000305176</ele>
        <time>2017-07-17T08:04:26Z</time>
      </trkpt>
      <trkpt lat="46.43561" lon="4.88498">
        <ele>182.80000305176</ele>
        <time>2017-07-17T08:04:32Z</time>
      </trkpt>
      <trkpt lat="46.43564" lon="4.8849">
        <ele>182.80000305176</ele>
        <time>2017-07-17T08:04:33Z</time>
      </trkpt>
      <trkpt lat="46.43588" lon="4.88432">
        <ele>182.80000305176</ele>
        <time>2017-07-17T08:04:41Z</time>
      </trkpt>
      <trkpt lat="46.43602" lon="4.88408">
        <ele>182.80000305176</ele>
        <time>2017-07-17T08:04:45Z</time>
      </trkpt>
      <trkpt lat="46.43607" lon="4.88404">
        <ele>182.80000305176</ele>
        <time>2017-07-17T08:04:46Z</time>
      </trkpt>
      <trkpt lat="46.43625" lon="4.88406">
        <ele>183</ele>
        <time>2017-07-17T08:04:49Z</time>
      </trkpt>
      <trkpt lat="46.43666" lon="4.88421">
        <ele>183</ele>
        <time>2017-07-17T08:04:56Z</time>
      </trkpt>
      <trkpt lat="46.43707" lon="4.88436">
        <ele>183.19999694824</ele>
        <time>2017-07-17T08:05:03Z</time>
      </trkpt>
      <trkpt lat="46.43713" lon="4.88438">
        <ele>183.39999389648</ele>
        <time>2017-07-17T08:05:04Z</time>
      </trkpt>
      <trkpt lat="46.43759" lon="4.88455">
        <ele>183.39999389648</ele>
        <time>2017-07-17T08:05:12Z</time>
      </trkpt>
      <trkpt lat="46.43804" lon="4.88471">
        <ele>183.39999389648</ele>
        <time>2017-07-17T08:05:20Z</time>
      </trkpt>
      <trkpt lat="46.43848" lon="4.88486">
        <ele>183.39999389648</ele>
        <time>2017-07-17T08:05:28Z</time>
      </trkpt>
      <trkpt lat="46.43869" lon="4.88492">
        <ele>183.39999389648</ele>
        <time>2017-07-17T08:05:32Z</time>
      </trkpt>
      <trkpt lat="46.43879" lon="4.88485">
        <ele>183.39999389648</ele>
        <time>2017-07-17T08:05:34Z</time>
      </trkpt>
      <trkpt lat="46.43886" lon="4.88463">
        <ele>183</ele>
        <time>2017-07-17T08:05:37Z</time>
      </trkpt>
      <trkpt lat="46.43887" lon="4.88455">
        <ele>182.80000305176</ele>
        <time>2017-07-17T08:05:38Z</time>
      </trkpt>
      <trkpt lat="46.43894" lon="4.88398">
        <ele>182.60000610352</ele>
        <time>2017-07-17T08:05:45Z</time>
      </trkpt>
      <trkpt lat="46.439" lon="4.88339">
        <ele>183</ele>
        <time>2017-07-17T08:05:52Z</time>
      </trkpt>
      <trkpt lat="46.43902" lon="4.88324">
        <ele>183.19999694824</ele>
        <time>2017-07-17T08:05:54Z</time>
      </trkpt>
      <trkpt lat="46.43909" lon="4.88314">
        <ele>183.19999694824</ele>
        <time>2017-07-17T08:05:56Z</time>
      </trkpt>
      <trkpt lat="46.43922" lon="4.88316">
        <ele>183.39999389648</ele>
        <time>2017-07-17T08:05:59Z</time>
      </trkpt>
      <trkpt lat="46.43931" lon="4.88319">
        <ele>183.60000610352</ele>
        <time>2017-07-17T08:06:01Z</time>
      </trkpt>
      <trkpt lat="46.43947" lon="4.88327">
        <ele>184</ele>
        <time>2017-07-17T08:06:04Z</time>
      </trkpt>
      <trkpt lat="46.4397" lon="4.88338">
        <ele>184.39999389648</ele>
        <time>2017-07-17T08:06:08Z</time>
      </trkpt>
      <trkpt lat="46.43987" lon="4.88346">
        <ele>184.39999389648</ele>
        <time>2017-07-17T08:06:11Z</time>
      </trkpt>
      <trkpt lat="46.44033" lon="4.88369">
        <ele>184.19999694824</ele>
        <time>2017-07-17T08:06:19Z</time>
      </trkpt>
      <trkpt lat="46.44087" lon="4.88396">
        <ele>184.19999694824</ele>
        <time>2017-07-17T08:06:29Z</time>
      </trkpt>
      <trkpt lat="46.44127" lon="4.88416">
        <ele>184.39999389648</ele>
        <time>2017-07-17T08:06:36Z</time>
      </trkpt>
      <trkpt lat="46.44171" lon="4.88437">
        <ele>184.19999694824</ele>
        <time>2017-07-17T08:06:44Z</time>
      </trkpt>
      <trkpt lat="46.44221" lon="4.8846">
        <ele>184.39999389648</ele>
        <time>2017-07-17T08:06:53Z</time>
      </trkpt>
      <trkpt lat="46.44262" lon="4.88479">
        <ele>184.19999694824</ele>
        <time>2017-07-17T08:07:00Z</time>
      </trkpt>
      <trkpt lat="46.44281" lon="4.88494">
        <ele>184</ele>
        <time>2017-07-17T08:07:04Z</time>
      </trkpt>
      <trkpt lat="46.44285" lon="4.88499">
        <ele>184</ele>
        <time>2017-07-17T08:07:05Z</time>
      </trkpt>
      <trkpt lat="46.44305" lon="4.88513">
        <ele>183.80000305176</ele>
        <time>2017-07-17T08:07:10Z</time>
      </trkpt>
      <trkpt lat="46.44314" lon="4.88511">
        <ele>183.80000305176</ele>
        <time>2017-07-17T08:07:13Z</time>
      </trkpt>
      <trkpt lat="46.44322" lon="4.88492">
        <ele>183.60000610352</ele>
        <time>2017-07-17T08:07:17Z</time>
      </trkpt>
      <trkpt lat="46.44326" lon="4.88474">
        <ele>183.39999389648</ele>
        <time>2017-07-17T08:07:20Z</time>
      </trkpt>
      <trkpt lat="46.44329" lon="4.88461">
        <ele>183.39999389648</ele>
        <time>2017-07-17T08:07:22Z</time>
      </trkpt>
      <trkpt lat="46.44332" lon="4.88456">
        <ele>183.39999389648</ele>
        <time>2017-07-17T08:07:23Z</time>
      </trkpt>
      <trkpt lat="46.44348" lon="4.88444">
        <ele>183.39999389648</ele>
        <time>2017-07-17T08:07:27Z</time>
      </trkpt>
      <trkpt lat="46.44353" lon="4.88443">
        <ele>183.39999389648</ele>
        <time>2017-07-17T08:07:28Z</time>
      </trkpt>
      <trkpt lat="46.44383" lon="4.88426">
        <ele>183.19999694824</ele>
        <time>2017-07-17T08:07:34Z</time>
      </trkpt>
      <trkpt lat="46.44399" lon="4.88419">
        <ele>183</ele>
        <time>2017-07-17T08:07:37Z</time>
      </trkpt>
      <trkpt lat="46.4441" lon="4.88419">
        <ele>183</ele>
        <time>2017-07-17T08:07:39Z</time>
      </trkpt>
      <trkpt lat="46.44428" lon="4.88438">
        <ele>182.80000305176</ele>
        <time>2017-07-17T08:07:43Z</time>
      </trkpt>
      <trkpt lat="46.44435" lon="4.88452">
        <ele>182.80000305176</ele>
        <time>2017-07-17T08:07:45Z</time>
      </trkpt>
      <trkpt lat="46.44447" lon="4.88483">
        <ele>182.80000305176</ele>
        <time>2017-07-17T08:07:49Z</time>
      </trkpt>
      <trkpt lat="46.44457" lon="4.88515">
        <ele>182.60000610352</ele>
        <time>2017-07-17T08:07:53Z</time>
      </trkpt>
      <trkpt lat="46.44457" lon="4.88532">
        <ele>182.39999389648</ele>
        <time>2017-07-17T08:07:55Z</time>
      </trkpt>
      <trkpt lat="46.44456" lon="4.8854">
        <ele>182.39999389648</ele>
        <time>2017-07-17T08:07:56Z</time>
      </trkpt>
      <trkpt lat="46.44457" lon="4.88549">
        <ele>182.39999389648</ele>
        <time>2017-07-17T08:07:57Z</time>
      </trkpt>
      <trkpt lat="46.44462" lon="4.88563">
        <ele>182.19999694824</ele>
        <time>2017-07-17T08:07:59Z</time>
      </trkpt>
      <trkpt lat="46.4447" lon="4.88576">
        <ele>182.19999694824</ele>
        <time>2017-07-17T08:08:01Z</time>
      </trkpt>
      <trkpt lat="46.44481" lon="4.88595">
        <ele>182</ele>
        <time>2017-07-17T08:08:04Z</time>
      </trkpt>
      <trkpt lat="46.44497" lon="4.8862">
        <ele>181.60000610352</ele>
        <time>2017-07-17T08:08:08Z</time>
      </trkpt>
      <trkpt lat="46.44507" lon="4.88629">
        <ele>181.60000610352</ele>
        <time>2017-07-17T08:08:10Z</time>
      </trkpt>
      <trkpt lat="46.44547" lon="4.88662">
        <ele>181.39999389648</ele>
        <time>2017-07-17T08:08:18Z</time>
      </trkpt>
      <trkpt lat="46.44552" lon="4.88665">
        <ele>181.39999389648</ele>
        <time>2017-07-17T08:08:19Z</time>
      </trkpt>
      <trkpt lat="46.44557" lon="4.88666">
        <ele>181.39999389648</ele>
        <time>2017-07-17T08:08:20Z</time>
      </trkpt>
      <trkpt lat="46.44562" lon="4.88664">
        <ele>181.19999694824</ele>
        <time>2017-07-17T08:08:21Z</time>
      </trkpt>
      <trkpt lat="46.4457" lon="4.88646">
        <ele>181.19999694824</ele>
        <time>2017-07-17T08:08:24Z</time>
      </trkpt>
      <trkpt lat="46.44571" lon="4.88639">
        <ele>181.19999694824</ele>
        <time>2017-07-17T08:08:25Z</time>
      </trkpt>
      <trkpt lat="46.44583" lon="4.88583">
        <ele>181.60000610352</ele>
        <time>2017-07-17T08:08:33Z</time>
      </trkpt>
      <trkpt lat="46.44585" lon="4.88576">
        <ele>181.60000610352</ele>
        <time>2017-07-17T08:08:34Z</time>
      </trkpt>
      <trkpt lat="46.44595" lon="4.88564">
        <ele>181.60000610352</ele>
        <time>2017-07-17T08:08:37Z</time>
      </trkpt>
      <trkpt lat="46.44618" lon="4.88561">
        <ele>182</ele>
        <time>2017-07-17T08:08:42Z</time>
      </trkpt>
      <trkpt lat="46.44634" lon="4.88563">
        <ele>182.39999389648</ele>
        <time>2017-07-17T08:08:46Z</time>
      </trkpt>
      <trkpt lat="46.44639" lon="4.88565">
        <ele>182.60000610352</ele>
        <time>2017-07-17T08:08:48Z</time>
      </trkpt>
      <trkpt lat="46.44649" lon="4.88574">
        <ele>183.19999694824</ele>
        <time>2017-07-17T08:08:53Z</time>
      </trkpt>
      <trkpt lat="46.44649" lon="4.88578">
        <ele>183.19999694824</ele>
        <time>2017-07-17T08:08:54Z</time>
      </trkpt>
      <trkpt lat="46.44648" lon="4.88595">
        <ele>183.19999694824</ele>
        <time>2017-07-17T08:08:58Z</time>
      </trkpt>
      <trkpt lat="46.44653" lon="4.88606">
        <ele>183.39999389648</ele>
        <time>2017-07-17T08:09:01Z</time>
      </trkpt>
      <trkpt lat="46.44669" lon="4.88616">
        <ele>183.39999389648</ele>
        <time>2017-07-17T08:09:05Z</time>
      </trkpt>
      <trkpt lat="46.44673" lon="4.88618">
        <ele>183.39999389648</ele>
        <time>2017-07-17T08:09:06Z</time>
      </trkpt>
      <trkpt lat="46.44698" lon="4.88633">
        <ele>182.60000610352</ele>
        <time>2017-07-17T08:09:11Z</time>
      </trkpt>
      <trkpt lat="46.44708" lon="4.88638">
        <ele>182.39999389648</ele>
        <time>2017-07-17T08:09:13Z</time>
      </trkpt>
      <trkpt lat="46.44735" lon="4.88651">
        <ele>182</ele>
        <time>2017-07-17T08:09:18Z</time>
      </trkpt>
      <trkpt lat="46.44766" lon="4.8867">
        <ele>182</ele>
        <time>2017-07-17T08:09:25Z</time>
      </trkpt>
      <trkpt lat="46.44767" lon="4.88674">
        <ele>182</ele>
        <time>2017-07-17T08:09:26Z</time>
      </trkpt>
      <trkpt lat="46.44767" lon="4.88683">
        <ele>182</ele>
        <time>2017-07-17T08:09:28Z</time>
      </trkpt>
      <trkpt lat="46.44761" lon="4.88704">
        <ele>182</ele>
        <time>2017-07-17T08:09:32Z</time>
      </trkpt>
      <trkpt lat="46.44755" lon="4.8873">
        <ele>182.19999694824</ele>
        <time>2017-07-17T08:09:36Z</time>
      </trkpt>
      <trkpt lat="46.44749" lon="4.88752">
        <ele>182.19999694824</ele>
        <time>2017-07-17T08:09:39Z</time>
      </trkpt>
      <trkpt lat="46.44746" lon="4.88768">
        <ele>182.39999389648</ele>
        <time>2017-07-17T08:09:41Z</time>
      </trkpt>
      <trkpt lat="46.44727" lon="4.88841">
        <ele>182.19999694824</ele>
        <time>2017-07-17T08:09:50Z</time>
      </trkpt>
      <trkpt lat="46.44724" lon="4.88849">
        <ele>182.19999694824</ele>
        <time>2017-07-17T08:09:51Z</time>
      </trkpt>
      <trkpt lat="46.44705" lon="4.88917">
        <ele>182</ele>
        <time>2017-07-17T08:09:59Z</time>
      </trkpt>
      <trkpt lat="46.44686" lon="4.88982">
        <ele>182</ele>
        <time>2017-07-17T08:10:07Z</time>
      </trkpt>
      <trkpt lat="46.44665" lon="4.89055">
        <ele>182</ele>
        <time>2017-07-17T08:10:16Z</time>
      </trkpt>
      <trkpt lat="46.4466" lon="4.89071">
        <ele>182</ele>
        <time>2017-07-17T08:10:18Z</time>
      </trkpt>
      <trkpt lat="46.44644" lon="4.89128">
        <ele>182</ele>
        <time>2017-07-17T08:10:25Z</time>
      </trkpt>
      <trkpt lat="46.44639" lon="4.89144">
        <ele>182</ele>
        <time>2017-07-17T08:10:27Z</time>
      </trkpt>
      <trkpt lat="46.44633" lon="4.89167">
        <ele>182</ele>
        <time>2017-07-17T08:10:30Z</time>
      </trkpt>
      <trkpt lat="46.44618" lon="4.89218">
        <ele>182.19999694824</ele>
        <time>2017-07-17T08:10:37Z</time>
      </trkpt>
      <trkpt lat="46.44603" lon="4.89268">
        <ele>182.60000610352</ele>
        <time>2017-07-17T08:10:45Z</time>
      </trkpt>
      <trkpt lat="46.44601" lon="4.89283">
        <ele>182.60000610352</ele>
        <time>2017-07-17T08:10:48Z</time>
      </trkpt>
      <trkpt lat="46.44603" lon="4.89288">
        <ele>182.60000610352</ele>
        <time>2017-07-17T08:10:49Z</time>
      </trkpt>
      <trkpt lat="46.44614" lon="4.89298">
        <ele>182.60000610352</ele>
        <time>2017-07-17T08:10:52Z</time>
      </trkpt>
      <trkpt lat="46.44645" lon="4.89319">
        <ele>182</ele>
        <time>2017-07-17T08:10:59Z</time>
      </trkpt>
      <trkpt lat="46.44653" lon="4.89324">
        <ele>182</ele>
        <time>2017-07-17T08:11:01Z</time>
      </trkpt>
      <trkpt lat="46.44663" lon="4.89335">
        <ele>182</ele>
        <time>2017-07-17T08:11:04Z</time>
      </trkpt>
      <trkpt lat="46.44676" lon="4.89347">
        <ele>182</ele>
        <time>2017-07-17T08:11:08Z</time>
      </trkpt>
      <trkpt lat="46.44711" lon="4.89378">
        <ele>182.19999694824</ele>
        <time>2017-07-17T08:11:17Z</time>
      </trkpt>
      <trkpt lat="46.44735" lon="4.89401">
        <ele>182.19999694824</ele>
        <time>2017-07-17T08:11:23Z</time>
      </trkpt>
      <trkpt lat="46.44739" lon="4.89405">
        <ele>182.19999694824</ele>
        <time>2017-07-17T08:11:24Z</time>
      </trkpt>
      <trkpt lat="46.4475" lon="4.89417">
        <ele>182.19999694824</ele>
        <time>2017-07-17T08:11:27Z</time>
      </trkpt>
      <trkpt lat="46.44754" lon="4.89425">
        <ele>182.19999694824</ele>
        <time>2017-07-17T08:11:29Z</time>
      </trkpt>
      <trkpt lat="46.44756" lon="4.8943">
        <ele>182</ele>
        <time>2017-07-17T08:11:32Z</time>
      </trkpt>
      <trkpt lat="46.44757" lon="4.89432">
        <ele>181.80000305176</ele>
        <time>2017-07-17T08:11:41Z</time>
      </trkpt>
      <trkpt lat="46.44759" lon="4.89437">
        <ele>181.80000305176</ele>
        <time>2017-07-17T08:11:43Z</time>
      </trkpt>
      <trkpt lat="46.44768" lon="4.8946">
        <ele>181.60000610352</ele>
        <time>2017-07-17T08:11:49Z</time>
      </trkpt>
      <trkpt lat="46.44786" lon="4.89488">
        <ele>181.39999389648</ele>
        <time>2017-07-17T08:11:56Z</time>
      </trkpt>
      <trkpt lat="46.44802" lon="4.895">
        <ele>181.60000610352</ele>
        <time>2017-07-17T08:12:01Z</time>
      </trkpt>
      <trkpt lat="46.44823" lon="4.89498">
        <ele>181.60000610352</ele>
        <time>2017-07-17T08:12:06Z</time>
      </trkpt>
      <trkpt lat="46.44832" lon="4.89496">
        <ele>181.60000610352</ele>
        <time>2017-07-17T08:12:08Z</time>
      </trkpt>
      <trkpt lat="46.44845" lon="4.89496">
        <ele>181.80000305176</ele>
        <time>2017-07-17T08:12:11Z</time>
      </trkpt>
      <trkpt lat="46.44866" lon="4.89513">
        <ele>181.80000305176</ele>
        <time>2017-07-17T08:12:16Z</time>
      </trkpt>
      <trkpt lat="46.44899" lon="4.89541">
        <ele>181.60000610352</ele>
        <time>2017-07-17T08:12:23Z</time>
      </trkpt>
      <trkpt lat="46.44921" lon="4.89562">
        <ele>181.60000610352</ele>
        <time>2017-07-17T08:12:28Z</time>
      </trkpt>
      <trkpt lat="46.44926" lon="4.89566">
        <ele>181.60000610352</ele>
        <time>2017-07-17T08:12:29Z</time>
      </trkpt>
      <trkpt lat="46.44963" lon="4.89599">
        <ele>181.80000305176</ele>
        <time>2017-07-17T08:12:37Z</time>
      </trkpt>
      <trkpt lat="46.44982" lon="4.89615">
        <ele>181.60000610352</ele>
        <time>2017-07-17T08:12:41Z</time>
      </trkpt>
      <trkpt lat="46.44995" lon="4.89629">
        <ele>181.80000305176</ele>
        <time>2017-07-17T08:12:44Z</time>
      </trkpt>
      <trkpt lat="46.45007" lon="4.89641">
        <ele>182</ele>
        <time>2017-07-17T08:12:47Z</time>
      </trkpt>
      <trkpt lat="46.45016" lon="4.89655">
        <ele>182</ele>
        <time>2017-07-17T08:12:50Z</time>
      </trkpt>
      <trkpt lat="46.45024" lon="4.89662">
        <ele>181.80000305176</ele>
        <time>2017-07-17T08:12:52Z</time>
      </trkpt>
      <trkpt lat="46.4504" lon="4.89679">
        <ele>182</ele>
        <time>2017-07-17T08:12:56Z</time>
      </trkpt>
      <trkpt lat="46.45073" lon="4.89718">
        <ele>182</ele>
        <time>2017-07-17T08:13:04Z</time>
      </trkpt>
      <trkpt lat="46.45107" lon="4.89761">
        <ele>182</ele>
        <time>2017-07-17T08:13:12Z</time>
      </trkpt>
      <trkpt lat="46.45129" lon="4.89788">
        <ele>181.80000305176</ele>
        <time>2017-07-17T08:13:18Z</time>
      </trkpt>
      <trkpt lat="46.45139" lon="4.898">
        <ele>181.60000610352</ele>
        <time>2017-07-17T08:13:23Z</time>
      </trkpt>
      <trkpt lat="46.4514" lon="4.89802">
        <ele>181.60000610352</ele>
        <time>2017-07-17T08:16:41Z</time>
      </trkpt>
      <trkpt lat="46.45143" lon="4.89807">
        <ele>181.60000610352</ele>
        <time>2017-07-17T08:16:43Z</time>
      </trkpt>
      <trkpt lat="46.45154" lon="4.89827">
        <ele>181.60000610352</ele>
        <time>2017-07-17T08:16:48Z</time>
      </trkpt>
      <trkpt lat="46.45174" lon="4.8986">
        <ele>181.60000610352</ele>
        <time>2017-07-17T08:16:54Z</time>
      </trkpt>
      <trkpt lat="46.452" lon="4.89908">
        <ele>182</ele>
        <time>2017-07-17T08:17:02Z</time>
      </trkpt>
      <trkpt lat="46.45235" lon="4.89968">
        <ele>182.39999389648</ele>
        <time>2017-07-17T08:17:12Z</time>
      </trkpt>
      <trkpt lat="46.45261" lon="4.90007">
        <ele>182.60000610352</ele>
        <time>2017-07-17T08:17:19Z</time>
      </trkpt>
      <trkpt lat="46.45289" lon="4.90045">
        <ele>182.60000610352</ele>
        <time>2017-07-17T08:17:26Z</time>
      </trkpt>
      <trkpt lat="46.45331" lon="4.90101">
        <ele>182.60000610352</ele>
        <time>2017-07-17T08:17:36Z</time>
      </trkpt>
      <trkpt lat="46.4537" lon="4.90154">
        <ele>182.80000305176</ele>
        <time>2017-07-17T08:17:45Z</time>
      </trkpt>
      <trkpt lat="46.45406" lon="4.90208">
        <ele>183</ele>
        <time>2017-07-17T08:17:54Z</time>
      </trkpt>
      <trkpt lat="46.45445" lon="4.90257">
        <ele>182.80000305176</ele>
        <time>2017-07-17T08:18:03Z</time>
      </trkpt>
      <trkpt lat="46.45481" lon="4.90304">
        <ele>183</ele>
        <time>2017-07-17T08:18:11Z</time>
      </trkpt>
      <trkpt lat="46.45517" lon="4.90364">
        <ele>183.19999694824</ele>
        <time>2017-07-17T08:18:20Z</time>
      </trkpt>
      <trkpt lat="46.45541" lon="4.90412">
        <ele>183.19999694824</ele>
        <time>2017-07-17T08:18:27Z</time>
      </trkpt>
      <trkpt lat="46.45568" lon="4.9046">
        <ele>183.19999694824</ele>
        <time>2017-07-17T08:18:34Z</time>
      </trkpt>
      <trkpt lat="46.4559" lon="4.90504">
        <ele>183.39999389648</ele>
        <time>2017-07-17T08:18:40Z</time>
      </trkpt>
      <trkpt lat="46.45597" lon="4.90519">
        <ele>183.39999389648</ele>
        <time>2017-07-17T08:18:42Z</time>
      </trkpt>
      <trkpt lat="46.45604" lon="4.90534">
        <ele>183.39999389648</ele>
        <time>2017-07-17T08:18:44Z</time>
      </trkpt>
      <trkpt lat="46.45611" lon="4.90548">
        <ele>183.39999389648</ele>
        <time>2017-07-17T08:18:46Z</time>
      </trkpt>
      <trkpt lat="46.45614" lon="4.90555">
        <ele>183.39999389648</ele>
        <time>2017-07-17T08:18:47Z</time>
      </trkpt>
      <trkpt lat="46.45644" lon="4.90614">
        <ele>183.19999694824</ele>
        <time>2017-07-17T08:18:55Z</time>
      </trkpt>
      <trkpt lat="46.45677" lon="4.90678">
        <ele>182.80000305176</ele>
        <time>2017-07-17T08:19:04Z</time>
      </trkpt>
      <trkpt lat="46.45689" lon="4.90698">
        <ele>183.19999694824</ele>
        <time>2017-07-17T08:19:07Z</time>
      </trkpt>
      <trkpt lat="46.45714" lon="4.90739">
        <ele>183.19999694824</ele>
        <time>2017-07-17T08:19:13Z</time>
      </trkpt>
      <trkpt lat="46.45749" lon="4.90791">
        <ele>183</ele>
        <time>2017-07-17T08:19:21Z</time>
      </trkpt>
      <trkpt lat="46.45783" lon="4.90832">
        <ele>183.19999694824</ele>
        <time>2017-07-17T08:19:28Z</time>
      </trkpt>
      <trkpt lat="46.45824" lon="4.90879">
        <ele>183.19999694824</ele>
        <time>2017-07-17T08:19:36Z</time>
      </trkpt>
      <trkpt lat="46.45849" lon="4.90909">
        <ele>183.19999694824</ele>
        <time>2017-07-17T08:19:41Z</time>
      </trkpt>
      <trkpt lat="46.45862" lon="4.90931">
        <ele>183</ele>
        <time>2017-07-17T08:19:44Z</time>
      </trkpt>
      <trkpt lat="46.459" lon="4.90992">
        <ele>182.80000305176</ele>
        <time>2017-07-17T08:19:53Z</time>
      </trkpt>
      <trkpt lat="46.45905" lon="4.90999">
        <ele>182.80000305176</ele>
        <time>2017-07-17T08:19:54Z</time>
      </trkpt>
      <trkpt lat="46.45935" lon="4.91037">
        <ele>183</ele>
        <time>2017-07-17T08:20:00Z</time>
      </trkpt>
      <trkpt lat="46.45965" lon="4.9107">
        <ele>183</ele>
        <time>2017-07-17T08:20:06Z</time>
      </trkpt>
      <trkpt lat="46.46008" lon="4.91114">
        <ele>183.19999694824</ele>
        <time>2017-07-17T08:20:14Z</time>
      </trkpt>
      <trkpt lat="46.46048" lon="4.91147">
        <ele>183.19999694824</ele>
        <time>2017-07-17T08:20:21Z</time>
      </trkpt>
      <trkpt lat="46.46091" lon="4.91174">
        <ele>183.19999694824</ele>
        <time>2017-07-17T08:20:28Z</time>
      </trkpt>
      <trkpt lat="46.46145" lon="4.91208">
        <ele>183.19999694824</ele>
        <time>2017-07-17T08:20:37Z</time>
      </trkpt>
      <trkpt lat="46.46189" lon="4.91233">
        <ele>183</ele>
        <time>2017-07-17T08:20:44Z</time>
      </trkpt>
      <trkpt lat="46.46232" lon="4.91253">
        <ele>183.19999694824</ele>
        <time>2017-07-17T08:20:51Z</time>
      </trkpt>
      <trkpt lat="46.46288" lon="4.91277">
        <ele>183.19999694824</ele>
        <time>2017-07-17T08:21:00Z</time>
      </trkpt>
      <trkpt lat="46.46338" lon="4.91294">
        <ele>183</ele>
        <time>2017-07-17T08:21:08Z</time>
      </trkpt>
      <trkpt lat="46.46389" lon="4.91302">
        <ele>183</ele>
        <time>2017-07-17T08:21:16Z</time>
      </trkpt>
      <trkpt lat="46.4644" lon="4.91304">
        <ele>183</ele>
        <time>2017-07-17T08:21:24Z</time>
      </trkpt>
      <trkpt lat="46.46478" lon="4.91311">
        <ele>183.19999694824</ele>
        <time>2017-07-17T08:21:30Z</time>
      </trkpt>
      <trkpt lat="46.46528" lon="4.91327">
        <ele>183</ele>
        <time>2017-07-17T08:21:38Z</time>
      </trkpt>
      <trkpt lat="46.46562" lon="4.91332">
        <ele>183</ele>
        <time>2017-07-17T08:21:44Z</time>
      </trkpt>
      <trkpt lat="46.46598" lon="4.91346">
        <ele>182.80000305176</ele>
        <time>2017-07-17T08:21:51Z</time>
      </trkpt>
      <trkpt lat="46.46634" lon="4.91366">
        <ele>183</ele>
        <time>2017-07-17T08:21:57Z</time>
      </trkpt>
      <trkpt lat="46.46658" lon="4.91375">
        <ele>183</ele>
        <time>2017-07-17T08:22:01Z</time>
      </trkpt>
      <trkpt lat="46.46671" lon="4.91375">
        <ele>183</ele>
        <time>2017-07-17T08:22:03Z</time>
      </trkpt>
      <trkpt lat="46.46684" lon="4.91371">
        <ele>183</ele>
        <time>2017-07-17T08:22:05Z</time>
      </trkpt>
      <trkpt lat="46.46703" lon="4.9137">
        <ele>183</ele>
        <time>2017-07-17T08:22:08Z</time>
      </trkpt>
      <trkpt lat="46.46733" lon="4.91382">
        <ele>183</ele>
        <time>2017-07-17T08:22:13Z</time>
      </trkpt>
      <trkpt lat="46.46753" lon="4.91398">
        <ele>183</ele>
        <time>2017-07-17T08:22:17Z</time>
      </trkpt>
      <trkpt lat="46.46758" lon="4.914">
        <ele>183</ele>
        <time>2017-07-17T08:22:18Z</time>
      </trkpt>
      <trkpt lat="46.46784" lon="4.91413">
        <ele>183</ele>
        <time>2017-07-17T08:22:23Z</time>
      </trkpt>
      <trkpt lat="46.46812" lon="4.9142">
        <ele>183.19999694824</ele>
        <time>2017-07-17T08:22:28Z</time>
      </trkpt>
      <trkpt lat="46.46818" lon="4.91419">
        <ele>183.19999694824</ele>
        <time>2017-07-17T08:22:29Z</time>
      </trkpt>
      <trkpt lat="46.4683" lon="4.9142">
        <ele>183.19999694824</ele>
        <time>2017-07-17T08:22:31Z</time>
      </trkpt>
      <trkpt lat="46.46842" lon="4.91422">
        <ele>183</ele>
        <time>2017-07-17T08:22:33Z</time>
      </trkpt>
      <trkpt lat="46.46848" lon="4.91422">
        <ele>183</ele>
        <time>2017-07-17T08:22:34Z</time>
      </trkpt>
      <trkpt lat="46.46901" lon="4.91415">
        <ele>183</ele>
        <time>2017-07-17T08:22:42Z</time>
      </trkpt>
      <trkpt lat="46.46953" lon="4.91415">
        <ele>183.19999694824</ele>
        <time>2017-07-17T08:22:50Z</time>
      </trkpt>
      <trkpt lat="46.47008" lon="4.91415">
        <ele>183</ele>
        <time>2017-07-17T08:22:58Z</time>
      </trkpt>
      <trkpt lat="46.47055" lon="4.9141">
        <ele>182.80000305176</ele>
        <time>2017-07-17T08:23:05Z</time>
      </trkpt>
      <trkpt lat="46.47109" lon="4.91409">
        <ele>183</ele>
        <time>2017-07-17T08:23:13Z</time>
      </trkpt>
      <trkpt lat="46.47164" lon="4.91414">
        <ele>183.19999694824</ele>
        <time>2017-07-17T08:23:21Z</time>
      </trkpt>
      <trkpt lat="46.47224" lon="4.91416">
        <ele>183.19999694824</ele>
        <time>2017-07-17T08:23:30Z</time>
      </trkpt>
      <trkpt lat="46.47284" lon="4.91418">
        <ele>183</ele>
        <time>2017-07-17T08:23:39Z</time>
      </trkpt>
      <trkpt lat="46.47343" lon="4.91417">
        <ele>183.19999694824</ele>
        <time>2017-07-17T08:23:48Z</time>
      </trkpt>
      <trkpt lat="46.4735" lon="4.91416">
        <ele>183.19999694824</ele>
        <time>2017-07-17T08:23:49Z</time>
      </trkpt>
      <trkpt lat="46.47408" lon="4.91409">
        <ele>183.19999694824</ele>
        <time>2017-07-17T08:23:58Z</time>
      </trkpt>
      <trkpt lat="46.47459" lon="4.914">
        <ele>183.39999389648</ele>
        <time>2017-07-17T08:24:06Z</time>
      </trkpt>
      <trkpt lat="46.4751" lon="4.91388">
        <ele>183.39999389648</ele>
        <time>2017-07-17T08:24:14Z</time>
      </trkpt>
      <trkpt lat="46.4756" lon="4.91377">
        <ele>183.19999694824</ele>
        <time>2017-07-17T08:24:22Z</time>
      </trkpt>
      <trkpt lat="46.47566" lon="4.91374">
        <ele>183.19999694824</ele>
        <time>2017-07-17T08:24:23Z</time>
      </trkpt>
      <trkpt lat="46.47597" lon="4.91361">
        <ele>183.19999694824</ele>
        <time>2017-07-17T08:24:28Z</time>
      </trkpt>
      <trkpt lat="46.47637" lon="4.91338">
        <ele>183.39999389648</ele>
        <time>2017-07-17T08:24:35Z</time>
      </trkpt>
      <trkpt lat="46.4767" lon="4.91331">
        <ele>183.80000305176</ele>
        <time>2017-07-17T08:24:40Z</time>
      </trkpt>
      <trkpt lat="46.47715" lon="4.91327">
        <ele>183</ele>
        <time>2017-07-17T08:24:46Z</time>
      </trkpt>
      <trkpt lat="46.47768" lon="4.9131">
        <ele>183</ele>
        <time>2017-07-17T08:24:54Z</time>
      </trkpt>
      <trkpt lat="46.47817" lon="4.91291">
        <ele>183</ele>
        <time>2017-07-17T08:25:02Z</time>
      </trkpt>
      <trkpt lat="46.47875" lon="4.91282">
        <ele>183.19999694824</ele>
        <time>2017-07-17T08:25:11Z</time>
      </trkpt>
      <trkpt lat="46.47915" lon="4.91277">
        <ele>183.19999694824</ele>
        <time>2017-07-17T08:25:17Z</time>
      </trkpt>
      <trkpt lat="46.47967" lon="4.9127">
        <ele>182.80000305176</ele>
        <time>2017-07-17T08:25:25Z</time>
      </trkpt>
      <trkpt lat="46.48024" lon="4.91265">
        <ele>182.60000610352</ele>
        <time>2017-07-17T08:25:34Z</time>
      </trkpt>
      <trkpt lat="46.48036" lon="4.91264">
        <ele>182.60000610352</ele>
        <time>2017-07-17T08:25:36Z</time>
      </trkpt>
      <trkpt lat="46.48087" lon="4.9126">
        <ele>182.60000610352</ele>
        <time>2017-07-17T08:25:44Z</time>
      </trkpt>
      <trkpt lat="46.48126" lon="4.91256">
        <ele>182.80000305176</ele>
        <time>2017-07-17T08:25:50Z</time>
      </trkpt>
      <trkpt lat="46.48179" lon="4.91259">
        <ele>183.39999389648</ele>
        <time>2017-07-17T08:25:57Z</time>
      </trkpt>
      <trkpt lat="46.48235" lon="4.91264">
        <ele>182.80000305176</ele>
        <time>2017-07-17T08:26:04Z</time>
      </trkpt>
      <trkpt lat="46.48243" lon="4.91264">
        <ele>182.80000305176</ele>
        <time>2017-07-17T08:26:05Z</time>
      </trkpt>
      <trkpt lat="46.48297" lon="4.91259">
        <ele>182.60000610352</ele>
        <time>2017-07-17T08:26:12Z</time>
      </trkpt>
      <trkpt lat="46.48349" lon="4.91258">
        <ele>182.80000305176</ele>
        <time>2017-07-17T08:26:19Z</time>
      </trkpt>
      <trkpt lat="46.48411" lon="4.91258">
        <ele>182.60000610352</ele>
        <time>2017-07-17T08:26:27Z</time>
      </trkpt>
      <trkpt lat="46.48465" lon="4.91258">
        <ele>182.60000610352</ele>
        <time>2017-07-17T08:26:34Z</time>
      </trkpt>
      <trkpt lat="46.48481" lon="4.91256">
        <ele>182.39999389648</ele>
        <time>2017-07-17T08:26:36Z</time>
      </trkpt>
      <trkpt lat="46.48503" lon="4.91252">
        <ele>182.39999389648</ele>
        <time>2017-07-17T08:26:39Z</time>
      </trkpt>
      <trkpt lat="46.48526" lon="4.91245">
        <ele>182.39999389648</ele>
        <time>2017-07-17T08:26:42Z</time>
      </trkpt>
      <trkpt lat="46.4858" lon="4.91232">
        <ele>182.60000610352</ele>
        <time>2017-07-17T08:26:49Z</time>
      </trkpt>
      <trkpt lat="46.48595" lon="4.91229">
        <ele>182.60000610352</ele>
        <time>2017-07-17T08:26:51Z</time>
      </trkpt>
      <trkpt lat="46.48634" lon="4.91229">
        <ele>182.60000610352</ele>
        <time>2017-07-17T08:26:56Z</time>
      </trkpt>
      <trkpt lat="46.48685" lon="4.91236">
        <ele>182.60000610352</ele>
        <time>2017-07-17T08:27:03Z</time>
      </trkpt>
      <trkpt lat="46.48725" lon="4.91245">
        <ele>182.60000610352</ele>
        <time>2017-07-17T08:27:09Z</time>
      </trkpt>
      <trkpt lat="46.48751" lon="4.91253">
        <ele>182.80000305176</ele>
        <time>2017-07-17T08:27:14Z</time>
      </trkpt>
      <trkpt lat="46.48767" lon="4.9125">
        <ele>182.60000610352</ele>
        <time>2017-07-17T08:27:18Z</time>
      </trkpt>
      <trkpt lat="46.48779" lon="4.91246">
        <ele>182.60000610352</ele>
        <time>2017-07-17T08:27:21Z</time>
      </trkpt>
      <trkpt lat="46.48783" lon="4.91249">
        <ele>182.60000610352</ele>
        <time>2017-07-17T08:27:22Z</time>
      </trkpt>
      <trkpt lat="46.48801" lon="4.91254">
        <ele>182.60000610352</ele>
        <time>2017-07-17T08:27:26Z</time>
      </trkpt>
      <trkpt lat="46.48807" lon="4.91256">
        <ele>182.60000610352</ele>
        <time>2017-07-17T08:27:27Z</time>
      </trkpt>
      <trkpt lat="46.48844" lon="4.91271">
        <ele>183</ele>
        <time>2017-07-17T08:27:34Z</time>
      </trkpt>
      <trkpt lat="46.48883" lon="4.91287">
        <ele>183</ele>
        <time>2017-07-17T08:27:41Z</time>
      </trkpt>
      <trkpt lat="46.48922" lon="4.91306">
        <ele>182.80000305176</ele>
        <time>2017-07-17T08:27:48Z</time>
      </trkpt>
      <trkpt lat="46.48964" lon="4.91328">
        <ele>183</ele>
        <time>2017-07-17T08:27:55Z</time>
      </trkpt>
      <trkpt lat="46.49006" lon="4.91357">
        <ele>182.80000305176</ele>
        <time>2017-07-17T08:28:02Z</time>
      </trkpt>
      <trkpt lat="46.49043" lon="4.9139">
        <ele>183</ele>
        <time>2017-07-17T08:28:09Z</time>
      </trkpt>
      <trkpt lat="46.49082" lon="4.91432">
        <ele>182.80000305176</ele>
        <time>2017-07-17T08:28:17Z</time>
      </trkpt>
      <trkpt lat="46.49099" lon="4.91455">
        <ele>182.60000610352</ele>
        <time>2017-07-17T08:28:21Z</time>
      </trkpt>
      <trkpt lat="46.49105" lon="4.91469">
        <ele>182.60000610352</ele>
        <time>2017-07-17T08:28:23Z</time>
      </trkpt>
      <trkpt lat="46.49127" lon="4.91519">
        <ele>182.60000610352</ele>
        <time>2017-07-17T08:28:30Z</time>
      </trkpt>
      <trkpt lat="46.49149" lon="4.9157">
        <ele>182.60000610352</ele>
        <time>2017-07-17T08:28:37Z</time>
      </trkpt>
      <trkpt lat="46.4918" lon="4.91638">
        <ele>182.60000610352</ele>
        <time>2017-07-17T08:28:46Z</time>
      </trkpt>
      <trkpt lat="46.49215" lon="4.91702">
        <ele>182.60000610352</ele>
        <time>2017-07-17T08:28:55Z</time>
      </trkpt>
      <trkpt lat="46.49255" lon="4.91759">
        <ele>182.39999389648</ele>
        <time>2017-07-17T08:29:04Z</time>
      </trkpt>
      <trkpt lat="46.4926" lon="4.91765">
        <ele>182.60000610352</ele>
        <time>2017-07-17T08:29:05Z</time>
      </trkpt>
      <trkpt lat="46.49298" lon="4.91815">
        <ele>182.80000305176</ele>
        <time>2017-07-17T08:29:14Z</time>
      </trkpt>
      <trkpt lat="46.49328" lon="4.91856">
        <ele>183.19999694824</ele>
        <time>2017-07-17T08:29:21Z</time>
      </trkpt>
      <trkpt lat="46.49365" lon="4.91905">
        <ele>183</ele>
        <time>2017-07-17T08:29:29Z</time>
      </trkpt>
      <trkpt lat="46.49401" lon="4.91956">
        <ele>183.19999694824</ele>
        <time>2017-07-17T08:29:37Z</time>
      </trkpt>
      <trkpt lat="46.49431" lon="4.92005">
        <ele>183</ele>
        <time>2017-07-17T08:29:44Z</time>
      </trkpt>
      <trkpt lat="46.49464" lon="4.92059">
        <ele>183.19999694824</ele>
        <time>2017-07-17T08:29:52Z</time>
      </trkpt>
      <trkpt lat="46.49494" lon="4.92107">
        <ele>183.19999694824</ele>
        <time>2017-07-17T08:29:59Z</time>
      </trkpt>
      <trkpt lat="46.49527" lon="4.92162">
        <ele>183</ele>
        <time>2017-07-17T08:30:07Z</time>
      </trkpt>
      <trkpt lat="46.49559" lon="4.92219">
        <ele>182.80000305176</ele>
        <time>2017-07-17T08:30:15Z</time>
      </trkpt>
      <trkpt lat="46.49592" lon="4.92273">
        <ele>183</ele>
        <time>2017-07-17T08:30:23Z</time>
      </trkpt>
      <trkpt lat="46.49596" lon="4.9228">
        <ele>183</ele>
        <time>2017-07-17T08:30:24Z</time>
      </trkpt>
      <trkpt lat="46.49628" lon="4.92325">
        <ele>182.80000305176</ele>
        <time>2017-07-17T08:30:31Z</time>
      </trkpt>
      <trkpt lat="46.49662" lon="4.92367">
        <ele>182.60000610352</ele>
        <time>2017-07-17T08:30:38Z</time>
      </trkpt>
      <trkpt lat="46.49697" lon="4.92403">
        <ele>182.80000305176</ele>
        <time>2017-07-17T08:30:45Z</time>
      </trkpt>
      <trkpt lat="46.49739" lon="4.92438">
        <ele>182.80000305176</ele>
        <time>2017-07-17T08:30:53Z</time>
      </trkpt>
      <trkpt lat="46.49783" lon="4.92466">
        <ele>183</ele>
        <time>2017-07-17T08:31:01Z</time>
      </trkpt>
      <trkpt lat="46.49824" lon="4.92488">
        <ele>183.19999694824</ele>
        <time>2017-07-17T08:31:08Z</time>
      </trkpt>
      <trkpt lat="46.4987" lon="4.92514">
        <ele>183.19999694824</ele>
        <time>2017-07-17T08:31:16Z</time>
      </trkpt>
      <trkpt lat="46.49914" lon="4.92539">
        <ele>183.19999694824</ele>
        <time>2017-07-17T08:31:24Z</time>
      </trkpt>
      <trkpt lat="46.49964" lon="4.92566">
        <ele>183</ele>
        <time>2017-07-17T08:31:33Z</time>
      </trkpt>
      <trkpt lat="46.49995" lon="4.92585">
        <ele>182.80000305176</ele>
        <time>2017-07-17T08:31:39Z</time>
      </trkpt>
      <trkpt lat="46.50041" lon="4.92604">
        <ele>182.39999389648</ele>
        <time>2017-07-17T08:31:47Z</time>
      </trkpt>
      <trkpt lat="46.5009" lon="4.92614">
        <ele>182.39999389648</ele>
        <time>2017-07-17T08:31:55Z</time>
      </trkpt>
      <trkpt lat="46.50102" lon="4.92615">
        <ele>182.39999389648</ele>
        <time>2017-07-17T08:31:57Z</time>
      </trkpt>
      <trkpt lat="46.50126" lon="4.92617">
        <ele>182.19999694824</ele>
        <time>2017-07-17T08:32:01Z</time>
      </trkpt>
      <trkpt lat="46.5015" lon="4.92615">
        <ele>182</ele>
        <time>2017-07-17T08:32:06Z</time>
      </trkpt>
      <trkpt lat="46.50159" lon="4.92614">
        <ele>182</ele>
        <time>2017-07-17T08:32:08Z</time>
      </trkpt>
      <trkpt lat="46.50173" lon="4.92615">
        <ele>181.60000610352</ele>
        <time>2017-07-17T08:32:11Z</time>
      </trkpt>
      <trkpt lat="46.50202" lon="4.92619">
        <ele>182</ele>
        <time>2017-07-17T08:32:17Z</time>
      </trkpt>
      <trkpt lat="46.50212" lon="4.92622">
        <ele>182</ele>
        <time>2017-07-17T08:32:19Z</time>
      </trkpt>
      <trkpt lat="46.50232" lon="4.92627">
        <ele>182.39999389648</ele>
        <time>2017-07-17T08:32:23Z</time>
      </trkpt>
      <trkpt lat="46.50242" lon="4.92632">
        <ele>182.39999389648</ele>
        <time>2017-07-17T08:32:25Z</time>
      </trkpt>
      <trkpt lat="46.50262" lon="4.92641">
        <ele>182.39999389648</ele>
        <time>2017-07-17T08:32:29Z</time>
      </trkpt>
      <trkpt lat="46.50282" lon="4.92652">
        <ele>182.60000610352</ele>
        <time>2017-07-17T08:32:34Z</time>
      </trkpt>
      <trkpt lat="46.50297" lon="4.92662">
        <ele>182.80000305176</ele>
        <time>2017-07-17T08:32:39Z</time>
      </trkpt>
      <trkpt lat="46.50327" lon="4.9268">
        <ele>183</ele>
        <time>2017-07-17T08:32:46Z</time>
      </trkpt>
      <trkpt lat="46.50364" lon="4.92694">
        <ele>183.39999389648</ele>
        <time>2017-07-17T08:32:54Z</time>
      </trkpt>
      <trkpt lat="46.5038" lon="4.92704">
        <ele>183.60000610352</ele>
        <time>2017-07-17T08:32:58Z</time>
      </trkpt>
      <trkpt lat="46.50383" lon="4.92707">
        <ele>183.60000610352</ele>
        <time>2017-07-17T08:32:59Z</time>
      </trkpt>
      <trkpt lat="46.50405" lon="4.92722">
        <ele>183.80000305176</ele>
        <time>2017-07-17T08:33:04Z</time>
      </trkpt>
      <trkpt lat="46.50409" lon="4.92723">
        <ele>183.80000305176</ele>
        <time>2017-07-17T08:33:05Z</time>
      </trkpt>
      <trkpt lat="46.50423" lon="4.92728">
        <ele>183.80000305176</ele>
        <time>2017-07-17T08:33:09Z</time>
      </trkpt>
      <trkpt lat="46.50433" lon="4.92736">
        <ele>183.80000305176</ele>
        <time>2017-07-17T08:33:12Z</time>
      </trkpt>
      <trkpt lat="46.50442" lon="4.9274">
        <ele>183.80000305176</ele>
        <time>2017-07-17T08:33:14Z</time>
      </trkpt>
      <trkpt lat="46.5045" lon="4.92746">
        <ele>183.80000305176</ele>
        <time>2017-07-17T08:33:16Z</time>
      </trkpt>
      <trkpt lat="46.50463" lon="4.92756">
        <ele>184</ele>
        <time>2017-07-17T08:33:19Z</time>
      </trkpt>
      <trkpt lat="46.50477" lon="4.92767">
        <ele>184</ele>
        <time>2017-07-17T08:33:22Z</time>
      </trkpt>
      <trkpt lat="46.50487" lon="4.92781">
        <ele>184.19999694824</ele>
        <time>2017-07-17T08:33:25Z</time>
      </trkpt>
      <trkpt lat="46.50502" lon="4.92792">
        <ele>184.19999694824</ele>
        <time>2017-07-17T08:33:29Z</time>
      </trkpt>
      <trkpt lat="46.50525" lon="4.92802">
        <ele>184.19999694824</ele>
        <time>2017-07-17T08:33:35Z</time>
      </trkpt>
      <trkpt lat="46.50529" lon="4.92803">
        <ele>184.19999694824</ele>
        <time>2017-07-17T08:33:36Z</time>
      </trkpt>
      <trkpt lat="46.50542" lon="4.92806">
        <ele>183.80000305176</ele>
        <time>2017-07-17T08:33:39Z</time>
      </trkpt>
      <trkpt lat="46.50548" lon="4.92808">
        <ele>183.80000305176</ele>
        <time>2017-07-17T08:33:40Z</time>
      </trkpt>
      <trkpt lat="46.50586" lon="4.92822">
        <ele>183.19999694824</ele>
        <time>2017-07-17T08:33:47Z</time>
      </trkpt>
      <trkpt lat="46.50623" lon="4.92836">
        <ele>182.60000610352</ele>
        <time>2017-07-17T08:33:54Z</time>
      </trkpt>
      <trkpt lat="46.5064" lon="4.92842">
        <ele>182.60000610352</ele>
        <time>2017-07-17T08:33:57Z</time>
      </trkpt>
      <trkpt lat="46.5065" lon="4.92847">
        <ele>182.60000610352</ele>
        <time>2017-07-17T08:33:59Z</time>
      </trkpt>
      <trkpt lat="46.50656" lon="4.92849">
        <ele>182.80000305176</ele>
        <time>2017-07-17T08:34:00Z</time>
      </trkpt>
      <trkpt lat="46.50683" lon="4.92858">
        <ele>182.80000305176</ele>
        <time>2017-07-17T08:34:05Z</time>
      </trkpt>
      <trkpt lat="46.50726" lon="4.92872">
        <ele>183</ele>
        <time>2017-07-17T08:34:13Z</time>
      </trkpt>
      <trkpt lat="46.50764" lon="4.9288">
        <ele>183</ele>
        <time>2017-07-17T08:34:20Z</time>
      </trkpt>
      <trkpt lat="46.50794" lon="4.92889">
        <ele>183</ele>
        <time>2017-07-17T08:34:26Z</time>
      </trkpt>
      <trkpt lat="46.50823" lon="4.92898">
        <ele>183</ele>
        <time>2017-07-17T08:34:31Z</time>
      </trkpt>
      <trkpt lat="46.50863" lon="4.92904">
        <ele>182.80000305176</ele>
        <time>2017-07-17T08:34:38Z</time>
      </trkpt>
      <trkpt lat="46.50892" lon="4.92914">
        <ele>182.60000610352</ele>
        <time>2017-07-17T08:34:43Z</time>
      </trkpt>
      <trkpt lat="46.50903" lon="4.9292">
        <ele>182.60000610352</ele>
        <time>2017-07-17T08:34:45Z</time>
      </trkpt>
      <trkpt lat="46.50947" lon="4.92936">
        <ele>182.80000305176</ele>
        <time>2017-07-17T08:34:53Z</time>
      </trkpt>
      <trkpt lat="46.50982" lon="4.92957">
        <ele>182.80000305176</ele>
        <time>2017-07-17T08:34:59Z</time>
      </trkpt>
      <trkpt lat="46.51029" lon="4.92981">
        <ele>182.60000610352</ele>
        <time>2017-07-17T08:35:07Z</time>
      </trkpt>
      <trkpt lat="46.51062" lon="4.93003">
        <ele>182.60000610352</ele>
        <time>2017-07-17T08:35:13Z</time>
      </trkpt>
      <trkpt lat="46.51101" lon="4.93026">
        <ele>182.60000610352</ele>
        <time>2017-07-17T08:35:20Z</time>
      </trkpt>
      <trkpt lat="46.51144" lon="4.93058">
        <ele>182.60000610352</ele>
        <time>2017-07-17T08:35:28Z</time>
      </trkpt>
      <trkpt lat="46.51175" lon="4.93088">
        <ele>182.60000610352</ele>
        <time>2017-07-17T08:35:34Z</time>
      </trkpt>
      <trkpt lat="46.51212" lon="4.93117">
        <ele>182.60000610352</ele>
        <time>2017-07-17T08:35:41Z</time>
      </trkpt>
      <trkpt lat="46.51217" lon="4.93122">
        <ele>182.60000610352</ele>
        <time>2017-07-17T08:35:42Z</time>
      </trkpt>
      <trkpt lat="46.51223" lon="4.93127">
        <ele>182.60000610352</ele>
        <time>2017-07-17T08:35:43Z</time>
      </trkpt>
      <trkpt lat="46.51252" lon="4.93156">
        <ele>182.60000610352</ele>
        <time>2017-07-17T08:35:49Z</time>
      </trkpt>
      <trkpt lat="46.51291" lon="4.93194">
        <ele>182.80000305176</ele>
        <time>2017-07-17T08:35:57Z</time>
      </trkpt>
      <trkpt lat="46.51332" lon="4.9323">
        <ele>182.60000610352</ele>
        <time>2017-07-17T08:36:05Z</time>
      </trkpt>
      <trkpt lat="46.51381" lon="4.93278">
        <ele>182.80000305176</ele>
        <time>2017-07-17T08:36:15Z</time>
      </trkpt>
      <trkpt lat="46.51386" lon="4.93283">
        <ele>182.80000305176</ele>
        <time>2017-07-17T08:36:16Z</time>
      </trkpt>
      <trkpt lat="46.5142" lon="4.9332">
        <ele>182.80000305176</ele>
        <time>2017-07-17T08:36:23Z</time>
      </trkpt>
      <trkpt lat="46.51459" lon="4.93362">
        <ele>182.60000610352</ele>
        <time>2017-07-17T08:36:31Z</time>
      </trkpt>
      <trkpt lat="46.51487" lon="4.93391">
        <ele>182.60000610352</ele>
        <time>2017-07-17T08:36:37Z</time>
      </trkpt>
      <trkpt lat="46.51495" lon="4.93402">
        <ele>182.80000305176</ele>
        <time>2017-07-17T08:36:39Z</time>
      </trkpt>
      <trkpt lat="46.51508" lon="4.93417">
        <ele>183</ele>
        <time>2017-07-17T08:36:42Z</time>
      </trkpt>
      <trkpt lat="46.51547" lon="4.93461">
        <ele>183.19999694824</ele>
        <time>2017-07-17T08:36:51Z</time>
      </trkpt>
      <trkpt lat="46.51579" lon="4.93494">
        <ele>183.19999694824</ele>
        <time>2017-07-17T08:36:58Z</time>
      </trkpt>
      <trkpt lat="46.51624" lon="4.93533">
        <ele>183.19999694824</ele>
        <time>2017-07-17T08:37:07Z</time>
      </trkpt>
      <trkpt lat="46.51664" lon="4.93563">
        <ele>183.39999389648</ele>
        <time>2017-07-17T08:37:15Z</time>
      </trkpt>
      <trkpt lat="46.51713" lon="4.93594">
        <ele>183.19999694824</ele>
        <time>2017-07-17T08:37:24Z</time>
      </trkpt>
      <trkpt lat="46.51756" lon="4.93616">
        <ele>183</ele>
        <time>2017-07-17T08:37:32Z</time>
      </trkpt>
      <trkpt lat="46.51793" lon="4.93636">
        <ele>182.80000305176</ele>
        <time>2017-07-17T08:37:39Z</time>
      </trkpt>
      <trkpt lat="46.51814" lon="4.93648">
        <ele>182.80000305176</ele>
        <time>2017-07-17T08:37:43Z</time>
      </trkpt>
      <trkpt lat="46.5182" lon="4.9365">
        <ele>182.80000305176</ele>
        <time>2017-07-17T08:37:44Z</time>
      </trkpt>
      <trkpt lat="46.51854" lon="4.9366">
        <ele>183</ele>
        <time>2017-07-17T08:37:50Z</time>
      </trkpt>
      <trkpt lat="46.51892" lon="4.93672">
        <ele>183.19999694824</ele>
        <time>2017-07-17T08:37:57Z</time>
      </trkpt>
      <trkpt lat="46.51933" lon="4.93683">
        <ele>183.19999694824</ele>
        <time>2017-07-17T08:38:04Z</time>
      </trkpt>
      <trkpt lat="46.51956" lon="4.93688">
        <ele>183</ele>
        <time>2017-07-17T08:38:08Z</time>
      </trkpt>
      <trkpt lat="46.51968" lon="4.93689">
        <ele>183</ele>
        <time>2017-07-17T08:38:10Z</time>
      </trkpt>
      <trkpt lat="46.51973" lon="4.93692">
        <ele>183</ele>
        <time>2017-07-17T08:38:11Z</time>
      </trkpt>
      <trkpt lat="46.51983" lon="4.93696">
        <ele>183</ele>
        <time>2017-07-17T08:38:13Z</time>
      </trkpt>
      <trkpt lat="46.51988" lon="4.93698">
        <ele>183</ele>
        <time>2017-07-17T08:38:14Z</time>
      </trkpt>
      <trkpt lat="46.52022" lon="4.93708">
        <ele>183.19999694824</ele>
        <time>2017-07-17T08:38:21Z</time>
      </trkpt>
      <trkpt lat="46.52058" lon="4.93707">
        <ele>183.39999389648</ele>
        <time>2017-07-17T08:38:28Z</time>
      </trkpt>
      <trkpt lat="46.52099" lon="4.937">
        <ele>183.19999694824</ele>
        <time>2017-07-17T08:38:35Z</time>
      </trkpt>
      <trkpt lat="46.52151" lon="4.93693">
        <ele>183.19999694824</ele>
        <time>2017-07-17T08:38:44Z</time>
      </trkpt>
      <trkpt lat="46.52195" lon="4.9369">
        <ele>183.19999694824</ele>
        <time>2017-07-17T08:38:51Z</time>
      </trkpt>
      <trkpt lat="46.52247" lon="4.93688">
        <ele>182.60000610352</ele>
        <time>2017-07-17T08:38:59Z</time>
      </trkpt>
      <trkpt lat="46.52296" lon="4.9368">
        <ele>182.60000610352</ele>
        <time>2017-07-17T08:39:07Z</time>
      </trkpt>
      <trkpt lat="46.52336" lon="4.93667">
        <ele>182.39999389648</ele>
        <time>2017-07-17T08:39:14Z</time>
      </trkpt>
      <trkpt lat="46.52347" lon="4.93661">
        <ele>182.60000610352</ele>
        <time>2017-07-17T08:39:16Z</time>
      </trkpt>
      <trkpt lat="46.52368" lon="4.93648">
        <ele>182.80000305176</ele>
        <time>2017-07-17T08:39:20Z</time>
      </trkpt>
      <trkpt lat="46.52379" lon="4.93645">
        <ele>182.80000305176</ele>
        <time>2017-07-17T08:39:22Z</time>
      </trkpt>
      <trkpt lat="46.52384" lon="4.93644">
        <ele>182.80000305176</ele>
        <time>2017-07-17T08:39:23Z</time>
      </trkpt>
      <trkpt lat="46.52395" lon="4.93641">
        <ele>183</ele>
        <time>2017-07-17T08:39:25Z</time>
      </trkpt>
      <trkpt lat="46.52448" lon="4.93631">
        <ele>183</ele>
        <time>2017-07-17T08:39:34Z</time>
      </trkpt>
      <trkpt lat="46.52484" lon="4.93624">
        <ele>182.80000305176</ele>
        <time>2017-07-17T08:39:40Z</time>
      </trkpt>
      <trkpt lat="46.52494" lon="4.93619">
        <ele>182.60000610352</ele>
        <time>2017-07-17T08:39:42Z</time>
      </trkpt>
      <trkpt lat="46.52533" lon="4.93604">
        <ele>182.80000305176</ele>
        <time>2017-07-17T08:39:49Z</time>
      </trkpt>
      <trkpt lat="46.52569" lon="4.93601">
        <ele>182.80000305176</ele>
        <time>2017-07-17T08:39:55Z</time>
      </trkpt>
      <trkpt lat="46.52589" lon="4.93597">
        <ele>182.39999389648</ele>
        <time>2017-07-17T08:39:58Z</time>
      </trkpt>
      <trkpt lat="46.52614" lon="4.93588">
        <ele>182</ele>
        <time>2017-07-17T08:40:02Z</time>
      </trkpt>
      <trkpt lat="46.52662" lon="4.93565">
        <ele>182</ele>
        <time>2017-07-17T08:40:10Z</time>
      </trkpt>
      <trkpt lat="46.52713" lon="4.93542">
        <ele>182</ele>
        <time>2017-07-17T08:40:19Z</time>
      </trkpt>
      <trkpt lat="46.52755" lon="4.93521">
        <ele>182.19999694824</ele>
        <time>2017-07-17T08:40:27Z</time>
      </trkpt>
      <trkpt lat="46.5277" lon="4.93513">
        <ele>182.19999694824</ele>
        <time>2017-07-17T08:40:30Z</time>
      </trkpt>
      <trkpt lat="46.52783" lon="4.93502">
        <ele>182.39999389648</ele>
        <time>2017-07-17T08:40:33Z</time>
      </trkpt>
      <trkpt lat="46.52791" lon="4.93495">
        <ele>182.60000610352</ele>
        <time>2017-07-17T08:40:35Z</time>
      </trkpt>
      <trkpt lat="46.528" lon="4.93487">
        <ele>182.80000305176</ele>
        <time>2017-07-17T08:40:37Z</time>
      </trkpt>
      <trkpt lat="46.52805" lon="4.93484">
        <ele>183</ele>
        <time>2017-07-17T08:40:38Z</time>
      </trkpt>
      <trkpt lat="46.52842" lon="4.9346">
        <ele>183.39999389648</ele>
        <time>2017-07-17T08:40:45Z</time>
      </trkpt>
      <trkpt lat="46.52847" lon="4.93456">
        <ele>183.60000610352</ele>
        <time>2017-07-17T08:40:46Z</time>
      </trkpt>
      <trkpt lat="46.52878" lon="4.93431">
        <ele>183.60000610352</ele>
        <time>2017-07-17T08:40:53Z</time>
      </trkpt>
      <trkpt lat="46.52922" lon="4.93397">
        <ele>183.60000610352</ele>
        <time>2017-07-17T08:41:02Z</time>
      </trkpt>
      <trkpt lat="46.52957" lon="4.93361">
        <ele>183.80000305176</ele>
        <time>2017-07-17T08:41:10Z</time>
      </trkpt>
      <trkpt lat="46.53002" lon="4.93316">
        <ele>184.19999694824</ele>
        <time>2017-07-17T08:41:20Z</time>
      </trkpt>
      <trkpt lat="46.53015" lon="4.93303">
        <ele>184.39999389648</ele>
        <time>2017-07-17T08:41:23Z</time>
      </trkpt>
      <trkpt lat="46.53028" lon="4.9329">
        <ele>184.60000610352</ele>
        <time>2017-07-17T08:41:26Z</time>
      </trkpt>
      <trkpt lat="46.53032" lon="4.93286">
        <ele>184.60000610352</ele>
        <time>2017-07-17T08:41:27Z</time>
      </trkpt>
      <trkpt lat="46.53059" lon="4.93259">
        <ele>184.60000610352</ele>
        <time>2017-07-17T08:41:33Z</time>
      </trkpt>
      <trkpt lat="46.53072" lon="4.93248">
        <ele>185</ele>
        <time>2017-07-17T08:41:36Z</time>
      </trkpt>
      <trkpt lat="46.531" lon="4.93224">
        <ele>185.19999694824</ele>
        <time>2017-07-17T08:41:42Z</time>
      </trkpt>
      <trkpt lat="46.53145" lon="4.93191">
        <ele>184.39999389648</ele>
        <time>2017-07-17T08:41:50Z</time>
      </trkpt>
      <trkpt lat="46.53185" lon="4.93163">
        <ele>184.19999694824</ele>
        <time>2017-07-17T08:41:57Z</time>
      </trkpt>
      <trkpt lat="46.53228" lon="4.93128">
        <ele>184</ele>
        <time>2017-07-17T08:42:05Z</time>
      </trkpt>
      <trkpt lat="46.5327" lon="4.93097">
        <ele>183.60000610352</ele>
        <time>2017-07-17T08:42:13Z</time>
      </trkpt>
      <trkpt lat="46.53302" lon="4.93072">
        <ele>183.60000610352</ele>
        <time>2017-07-17T08:42:19Z</time>
      </trkpt>
      <trkpt lat="46.53312" lon="4.93063">
        <ele>183.39999389648</ele>
        <time>2017-07-17T08:42:21Z</time>
      </trkpt>
      <trkpt lat="46.53339" lon="4.93041">
        <ele>183.39999389648</ele>
        <time>2017-07-17T08:42:26Z</time>
      </trkpt>
      <trkpt lat="46.5335" lon="4.93033">
        <ele>183.39999389648</ele>
        <time>2017-07-17T08:42:28Z</time>
      </trkpt>
      <trkpt lat="46.53397" lon="4.92999">
        <ele>183.19999694824</ele>
        <time>2017-07-17T08:42:37Z</time>
      </trkpt>
      <trkpt lat="46.53446" lon="4.9296">
        <ele>183.39999389648</ele>
        <time>2017-07-17T08:42:47Z</time>
      </trkpt>
      <trkpt lat="46.53465" lon="4.92947">
        <ele>183.80000305176</ele>
        <time>2017-07-17T08:42:51Z</time>
      </trkpt>
      <trkpt lat="46.53473" lon="4.92943">
        <ele>183.80000305176</ele>
        <time>2017-07-17T08:42:53Z</time>
      </trkpt>
      <trkpt lat="46.53492" lon="4.92931">
        <ele>184.19999694824</ele>
        <time>2017-07-17T08:42:57Z</time>
      </trkpt>
      <trkpt lat="46.53505" lon="4.92922">
        <ele>184.60000610352</ele>
        <time>2017-07-17T08:43:00Z</time>
      </trkpt>
      <trkpt lat="46.53529" lon="4.92906">
        <ele>185.39999389648</ele>
        <time>2017-07-17T08:43:05Z</time>
      </trkpt>
      <trkpt lat="46.53538" lon="4.929">
        <ele>185.39999389648</ele>
        <time>2017-07-17T08:43:07Z</time>
      </trkpt>
      <trkpt lat="46.53559" lon="4.92888">
        <ele>185.60000610352</ele>
        <time>2017-07-17T08:43:11Z</time>
      </trkpt>
      <trkpt lat="46.53602" lon="4.92866">
        <ele>184.80000305176</ele>
        <time>2017-07-17T08:43:18Z</time>
      </trkpt>
      <trkpt lat="46.53656" lon="4.92836">
        <ele>183.60000610352</ele>
        <time>2017-07-17T08:43:27Z</time>
      </trkpt>
      <trkpt lat="46.53661" lon="4.92832">
        <ele>183.39999389648</ele>
        <time>2017-07-17T08:43:28Z</time>
      </trkpt>
      <trkpt lat="46.53702" lon="4.9281">
        <ele>183</ele>
        <time>2017-07-17T08:43:35Z</time>
      </trkpt>
      <trkpt lat="46.53714" lon="4.92803">
        <ele>183</ele>
        <time>2017-07-17T08:43:37Z</time>
      </trkpt>
      <trkpt lat="46.53747" lon="4.92786">
        <ele>183</ele>
        <time>2017-07-17T08:43:43Z</time>
      </trkpt>
      <trkpt lat="46.53795" lon="4.92758">
        <ele>183</ele>
        <time>2017-07-17T08:43:52Z</time>
      </trkpt>
      <trkpt lat="46.5385" lon="4.92724">
        <ele>183.19999694824</ele>
        <time>2017-07-17T08:44:02Z</time>
      </trkpt>
      <trkpt lat="46.539" lon="4.92697">
        <ele>183.19999694824</ele>
        <time>2017-07-17T08:44:11Z</time>
      </trkpt>
      <trkpt lat="46.53939" lon="4.92681">
        <ele>183.19999694824</ele>
        <time>2017-07-17T08:44:18Z</time>
      </trkpt>
      <trkpt lat="46.53985" lon="4.92662">
        <ele>183</ele>
        <time>2017-07-17T08:44:26Z</time>
      </trkpt>
      <trkpt lat="46.54041" lon="4.92639">
        <ele>183.19999694824</ele>
        <time>2017-07-17T08:44:36Z</time>
      </trkpt>
      <trkpt lat="46.54086" lon="4.92621">
        <ele>183.19999694824</ele>
        <time>2017-07-17T08:44:44Z</time>
      </trkpt>
      <trkpt lat="46.54124" lon="4.92603">
        <ele>183.39999389648</ele>
        <time>2017-07-17T08:44:51Z</time>
      </trkpt>
      <trkpt lat="46.54155" lon="4.92588">
        <ele>183.39999389648</ele>
        <time>2017-07-17T08:44:57Z</time>
      </trkpt>
      <trkpt lat="46.54201" lon="4.92563">
        <ele>183.80000305176</ele>
        <time>2017-07-17T08:45:06Z</time>
      </trkpt>
      <trkpt lat="46.54251" lon="4.92539">
        <ele>183.60000610352</ele>
        <time>2017-07-17T08:45:15Z</time>
      </trkpt>
      <trkpt lat="46.54257" lon="4.92537">
        <ele>183.60000610352</ele>
        <time>2017-07-17T08:45:16Z</time>
      </trkpt>
      <trkpt lat="46.54279" lon="4.92523">
        <ele>183.80000305176</ele>
        <time>2017-07-17T08:45:20Z</time>
      </trkpt>
      <trkpt lat="46.54326" lon="4.92492">
        <ele>183.80000305176</ele>
        <time>2017-07-17T08:45:29Z</time>
      </trkpt>
      <trkpt lat="46.54359" lon="4.92474">
        <ele>184</ele>
        <time>2017-07-17T08:45:35Z</time>
      </trkpt>
      <trkpt lat="46.54399" lon="4.9246">
        <ele>183.80000305176</ele>
        <time>2017-07-17T08:45:42Z</time>
      </trkpt>
      <trkpt lat="46.54444" lon="4.92437">
        <ele>183.80000305176</ele>
        <time>2017-07-17T08:45:50Z</time>
      </trkpt>
      <trkpt lat="46.54483" lon="4.92406">
        <ele>183.39999389648</ele>
        <time>2017-07-17T08:45:57Z</time>
      </trkpt>
      <trkpt lat="46.54527" lon="4.92371">
        <ele>182.80000305176</ele>
        <time>2017-07-17T08:46:05Z</time>
      </trkpt>
      <trkpt lat="46.54574" lon="4.92335">
        <ele>183</ele>
        <time>2017-07-17T08:46:14Z</time>
      </trkpt>
      <trkpt lat="46.5458" lon="4.92331">
        <ele>183</ele>
        <time>2017-07-17T08:46:15Z</time>
      </trkpt>
      <trkpt lat="46.5463" lon="4.92301">
        <ele>183</ele>
        <time>2017-07-17T08:46:24Z</time>
      </trkpt>
      <trkpt lat="46.54636" lon="4.92298">
        <ele>183</ele>
        <time>2017-07-17T08:46:25Z</time>
      </trkpt>
      <trkpt lat="46.5469" lon="4.92264">
        <ele>183.19999694824</ele>
        <time>2017-07-17T08:46:35Z</time>
      </trkpt>
      <trkpt lat="46.54707" lon="4.92253">
        <ele>183.19999694824</ele>
        <time>2017-07-17T08:46:38Z</time>
      </trkpt>
      <trkpt lat="46.54722" lon="4.92241">
        <ele>183.19999694824</ele>
        <time>2017-07-17T08:46:41Z</time>
      </trkpt>
      <trkpt lat="46.54757" lon="4.9221">
        <ele>183.39999389648</ele>
        <time>2017-07-17T08:46:48Z</time>
      </trkpt>
      <trkpt lat="46.54782" lon="4.92188">
        <ele>183.39999389648</ele>
        <time>2017-07-17T08:46:54Z</time>
      </trkpt>
      <trkpt lat="46.54806" lon="4.9216">
        <ele>183.19999694824</ele>
        <time>2017-07-17T08:47:00Z</time>
      </trkpt>
      <trkpt lat="46.5484" lon="4.92126">
        <ele>183</ele>
        <time>2017-07-17T08:47:07Z</time>
      </trkpt>
      <trkpt lat="46.54866" lon="4.92104">
        <ele>183</ele>
        <time>2017-07-17T08:47:12Z</time>
      </trkpt>
      <trkpt lat="46.54872" lon="4.92101">
        <ele>183</ele>
        <time>2017-07-17T08:47:13Z</time>
      </trkpt>
      <trkpt lat="46.5491" lon="4.92079">
        <ele>183.19999694824</ele>
        <time>2017-07-17T08:47:20Z</time>
      </trkpt>
      <trkpt lat="46.54947" lon="4.92059">
        <ele>183.60000610352</ele>
        <time>2017-07-17T08:47:27Z</time>
      </trkpt>
      <trkpt lat="46.54982" lon="4.92047">
        <ele>183.80000305176</ele>
        <time>2017-07-17T08:47:33Z</time>
      </trkpt>
      <trkpt lat="46.55027" lon="4.92031">
        <ele>183.60000610352</ele>
        <time>2017-07-17T08:47:41Z</time>
      </trkpt>
      <trkpt lat="46.55062" lon="4.92017">
        <ele>183.80000305176</ele>
        <time>2017-07-17T08:47:48Z</time>
      </trkpt>
      <trkpt lat="46.55074" lon="4.92011">
        <ele>183.80000305176</ele>
        <time>2017-07-17T08:47:52Z</time>
      </trkpt>
      <trkpt lat="46.55083" lon="4.92009">
        <ele>184</ele>
        <time>2017-07-17T08:47:58Z</time>
      </trkpt>
      <trkpt lat="46.55097" lon="4.92004">
        <ele>184</ele>
        <time>2017-07-17T08:48:03Z</time>
      </trkpt>
      <trkpt lat="46.55128" lon="4.91994">
        <ele>184</ele>
        <time>2017-07-17T08:48:10Z</time>
      </trkpt>
      <trkpt lat="46.55164" lon="4.91977">
        <ele>183.80000305176</ele>
        <time>2017-07-17T08:48:17Z</time>
      </trkpt>
      <trkpt lat="46.55204" lon="4.91958">
        <ele>183.60000610352</ele>
        <time>2017-07-17T08:48:25Z</time>
      </trkpt>
      <trkpt lat="46.55253" lon="4.91934">
        <ele>183</ele>
        <time>2017-07-17T08:48:34Z</time>
      </trkpt>
      <trkpt lat="46.55296" lon="4.91912">
        <ele>183.19999694824</ele>
        <time>2017-07-17T08:48:42Z</time>
      </trkpt>
      <trkpt lat="46.55332" lon="4.91892">
        <ele>183.19999694824</ele>
        <time>2017-07-17T08:48:49Z</time>
      </trkpt>
      <trkpt lat="46.55377" lon="4.91868">
        <ele>183.39999389648</ele>
        <time>2017-07-17T08:48:58Z</time>
      </trkpt>
      <trkpt lat="46.55419" lon="4.91844">
        <ele>183.39999389648</ele>
        <time>2017-07-17T08:49:07Z</time>
      </trkpt>
      <trkpt lat="46.55436" lon="4.91836">
        <ele>183.60000610352</ele>
        <time>2017-07-17T08:49:11Z</time>
      </trkpt>
      <trkpt lat="46.5544" lon="4.91835">
        <ele>183.60000610352</ele>
        <time>2017-07-17T08:49:12Z</time>
      </trkpt>
      <trkpt lat="46.55445" lon="4.91834">
        <ele>183.80000305176</ele>
        <time>2017-07-17T08:49:13Z</time>
      </trkpt>
      <trkpt lat="46.55463" lon="4.91823">
        <ele>184</ele>
        <time>2017-07-17T08:49:17Z</time>
      </trkpt>
      <trkpt lat="46.55477" lon="4.91814">
        <ele>184.19999694824</ele>
        <time>2017-07-17T08:49:20Z</time>
      </trkpt>
      <trkpt lat="46.55491" lon="4.91806">
        <ele>184.39999389648</ele>
        <time>2017-07-17T08:49:23Z</time>
      </trkpt>
      <trkpt lat="46.55495" lon="4.91804">
        <ele>184.39999389648</ele>
        <time>2017-07-17T08:49:24Z</time>
      </trkpt>
      <trkpt lat="46.55504" lon="4.91799">
        <ele>184.39999389648</ele>
        <time>2017-07-17T08:49:26Z</time>
      </trkpt>
      <trkpt lat="46.55513" lon="4.91795">
        <ele>184.60000610352</ele>
        <time>2017-07-17T08:49:28Z</time>
      </trkpt>
      <trkpt lat="46.55526" lon="4.91789">
        <ele>184.80000305176</ele>
        <time>2017-07-17T08:49:31Z</time>
      </trkpt>
      <trkpt lat="46.55539" lon="4.91783">
        <ele>184.80000305176</ele>
        <time>2017-07-17T08:49:34Z</time>
      </trkpt>
      <trkpt lat="46.55564" lon="4.91774">
        <ele>184.80000305176</ele>
        <time>2017-07-17T08:49:41Z</time>
      </trkpt>
      <trkpt lat="46.5558" lon="4.91767">
        <ele>185.19999694824</ele>
        <time>2017-07-17T08:49:47Z</time>
      </trkpt>
      <trkpt lat="46.55581" lon="4.91764">
        <ele>185.19999694824</ele>
        <time>2017-07-17T08:49:48Z</time>
      </trkpt>
      <trkpt lat="46.55582" lon="4.91757">
        <ele>185.39999389648</ele>
        <time>2017-07-17T08:49:50Z</time>
      </trkpt>
      <trkpt lat="46.55582" lon="4.91753">
        <ele>185.39999389648</ele>
        <time>2017-07-17T08:49:51Z</time>
      </trkpt>
      <trkpt lat="46.5558" lon="4.91732">
        <ele>185.19999694824</ele>
        <time>2017-07-17T08:49:56Z</time>
      </trkpt>
      <trkpt lat="46.55573" lon="4.91706">
        <ele>185.19999694824</ele>
        <time>2017-07-17T08:50:01Z</time>
      </trkpt>
      <trkpt lat="46.55566" lon="4.91682">
        <ele>185.19999694824</ele>
        <time>2017-07-17T08:50:06Z</time>
      </trkpt>
      <trkpt lat="46.55556" lon="4.91646">
        <ele>185.39999389648</ele>
        <time>2017-07-17T08:50:13Z</time>
      </trkpt>
      <trkpt lat="46.55545" lon="4.91614">
        <ele>185.19999694824</ele>
        <time>2017-07-17T08:50:20Z</time>
      </trkpt>
      <trkpt lat="46.55541" lon="4.91607">
        <ele>185.39999389648</ele>
        <time>2017-07-17T08:50:23Z</time>
      </trkpt>
      <trkpt lat="46.5554" lon="4.91606">
        <ele>185.39999389648</ele>
        <time>2017-07-17T08:50:24Z</time>
      </trkpt>
      <trkpt lat="46.55541" lon="4.91602">
        <ele>185.39999389648</ele>
        <time>2017-07-17T08:50:28Z</time>
      </trkpt>
      <trkpt lat="46.55542" lon="4.916">
        <ele>185.39999389648</ele>
        <time>2017-07-17T08:50:29Z</time>
      </trkpt>
      <trkpt lat="46.5554" lon="4.91595">
        <ele>185.39999389648</ele>
        <time>2017-07-17T08:50:32Z</time>
      </trkpt>
      <trkpt lat="46.5554" lon="4.91593">
        <ele>185.39999389648</ele>
        <time>2017-07-17T08:50:33Z</time>
      </trkpt>
      <trkpt lat="46.5554" lon="4.91591">
        <ele>185.39999389648</ele>
        <time>2017-07-17T08:50:34Z</time>
      </trkpt>
      <trkpt lat="46.5554" lon="4.91588">
        <ele>185.60000610352</ele>
        <time>2017-07-17T08:50:36Z</time>
      </trkpt>
      <trkpt lat="46.55541" lon="4.91584">
        <ele>185.60000610352</ele>
        <time>2017-07-17T08:50:58Z</time>
      </trkpt>
      <trkpt lat="46.55542" lon="4.91582">
        <ele>185.60000610352</ele>
        <time>2017-07-17T08:50:59Z</time>
      </trkpt>
      <trkpt lat="46.55552" lon="4.91576">
        <ele>185.60000610352</ele>
        <time>2017-07-17T08:51:03Z</time>
      </trkpt>
      <trkpt lat="46.55555" lon="4.91574">
        <ele>185.60000610352</ele>
        <time>2017-07-17T08:51:04Z</time>
      </trkpt>
      <trkpt lat="46.55575" lon="4.91566">
        <ele>185.80000305176</ele>
        <time>2017-07-17T08:51:09Z</time>
      </trkpt>
      <trkpt lat="46.55618" lon="4.91554">
        <ele>186.39999389648</ele>
        <time>2017-07-17T08:51:18Z</time>
      </trkpt>
      <trkpt lat="46.55628" lon="4.9155">
        <ele>186.60000610352</ele>
        <time>2017-07-17T08:51:20Z</time>
      </trkpt>
      <trkpt lat="46.5567" lon="4.91537">
        <ele>186.80000305176</ele>
        <time>2017-07-17T08:51:28Z</time>
      </trkpt>
      <trkpt lat="46.5572" lon="4.91521">
        <ele>186.80000305176</ele>
        <time>2017-07-17T08:51:37Z</time>
      </trkpt>
      <trkpt lat="46.55764" lon="4.91505">
        <ele>186.60000610352</ele>
        <time>2017-07-17T08:51:45Z</time>
      </trkpt>
      <trkpt lat="46.558" lon="4.91492">
        <ele>186.80000305176</ele>
        <time>2017-07-17T08:51:52Z</time>
      </trkpt>
      <trkpt lat="46.55814" lon="4.9149">
        <ele>186.60000610352</ele>
        <time>2017-07-17T08:51:56Z</time>
      </trkpt>
      <trkpt lat="46.55816" lon="4.91493">
        <ele>186.60000610352</ele>
        <time>2017-07-17T08:51:57Z</time>
      </trkpt>
      <trkpt lat="46.5582" lon="4.91501">
        <ele>186.39999389648</ele>
        <time>2017-07-17T08:51:59Z</time>
      </trkpt>
      <trkpt lat="46.55822" lon="4.9152">
        <ele>186.19999694824</ele>
        <time>2017-07-17T08:52:03Z</time>
      </trkpt>
      <trkpt lat="46.55822" lon="4.91524">
        <ele>186.19999694824</ele>
        <time>2017-07-17T08:52:04Z</time>
      </trkpt>
      <trkpt lat="46.55824" lon="4.91556">
        <ele>186</ele>
        <time>2017-07-17T08:52:10Z</time>
      </trkpt>
      <trkpt lat="46.55826" lon="4.9157">
        <ele>185.60000610352</ele>
        <time>2017-07-17T08:52:14Z</time>
      </trkpt>
      <trkpt lat="46.55827" lon="4.91572">
        <ele>185.39999389648</ele>
        <time>2017-07-17T08:52:15Z</time>
      </trkpt>
      <trkpt lat="46.55833" lon="4.91571">
        <ele>185.39999389648</ele>
        <time>2017-07-17T08:52:19Z</time>
      </trkpt>
      <trkpt lat="46.55845" lon="4.91566">
        <ele>185.39999389648</ele>
        <time>2017-07-17T08:52:25Z</time>
      </trkpt>
      <trkpt lat="46.55851" lon="4.91564">
        <ele>185.39999389648</ele>
        <time>2017-07-17T08:52:27Z</time>
      </trkpt>
      <trkpt lat="46.55866" lon="4.91558">
        <ele>185.80000305176</ele>
        <time>2017-07-17T08:52:31Z</time>
      </trkpt>
      <trkpt lat="46.55892" lon="4.91553">
        <ele>186</ele>
        <time>2017-07-17T08:52:38Z</time>
      </trkpt>
      <trkpt lat="46.55909" lon="4.91547">
        <ele>185.80000305176</ele>
        <time>2017-07-17T08:52:44Z</time>
      </trkpt>
      <trkpt lat="46.55906" lon="4.91527">
        <ele>111.19999694824</ele>
        <time>2017-07-17T09:10:28Z</time>
      </trkpt>
      <trkpt lat="46.55902" lon="4.9153">
        <ele>111</ele>
        <time>2017-07-17T09:10:41Z</time>
      </trkpt>
      <trkpt lat="46.55897" lon="4.91534">
        <ele>111</ele>
        <time>2017-07-17T09:10:43Z</time>
      </trkpt>
      <trkpt lat="46.5588" lon="4.91541">
        <ele>111</ele>
        <time>2017-07-17T09:10:49Z</time>
      </trkpt>
      <trkpt lat="46.55855" lon="4.91555">
        <ele>111.19999694824</ele>
        <time>2017-07-17T09:10:57Z</time>
      </trkpt>
      <trkpt lat="46.55841" lon="4.91564">
        <ele>111.19999694824</ele>
        <time>2017-07-17T09:11:03Z</time>
      </trkpt>
      <trkpt lat="46.55833" lon="4.91569">
        <ele>111</ele>
        <time>2017-07-17T09:11:08Z</time>
      </trkpt>
      <trkpt lat="46.55829" lon="4.91574">
        <ele>110.80000305176</ele>
        <time>2017-07-17T09:11:12Z</time>
      </trkpt>
      <trkpt lat="46.55828" lon="4.91577">
        <ele>110.80000305176</ele>
        <time>2017-07-17T09:11:13Z</time>
      </trkpt>
      <trkpt lat="46.5583" lon="4.91593">
        <ele>110.59999847412</ele>
        <time>2017-07-17T09:11:17Z</time>
      </trkpt>
      <trkpt lat="46.5583" lon="4.91598">
        <ele>110.59999847412</ele>
        <time>2017-07-17T09:11:18Z</time>
      </trkpt>
      <trkpt lat="46.55834" lon="4.91635">
        <ele>110.59999847412</ele>
        <time>2017-07-17T09:11:25Z</time>
      </trkpt>
      <trkpt lat="46.55836" lon="4.9164">
        <ele>110.59999847412</ele>
        <time>2017-07-17T09:11:26Z</time>
      </trkpt>
      <trkpt lat="46.55844" lon="4.91646">
        <ele>110.40000152588</ele>
        <time>2017-07-17T09:11:28Z</time>
      </trkpt>
      <trkpt lat="46.55855" lon="4.91646">
        <ele>110.19999694824</ele>
        <time>2017-07-17T09:11:31Z</time>
      </trkpt>
      <trkpt lat="46.55858" lon="4.91643">
        <ele>110</ele>
        <time>2017-07-17T09:11:32Z</time>
      </trkpt>
      <trkpt lat="46.55866" lon="4.91639">
        <ele>110</ele>
        <time>2017-07-17T09:11:34Z</time>
      </trkpt>
      <trkpt lat="46.5587" lon="4.91638">
        <ele>110</ele>
        <time>2017-07-17T09:11:35Z</time>
      </trkpt>
      <trkpt lat="46.55883" lon="4.91628">
        <ele>110</ele>
        <time>2017-07-17T09:11:38Z</time>
      </trkpt>
      <trkpt lat="46.55904" lon="4.91614">
        <ele>109.80000305176</ele>
        <time>2017-07-17T09:11:44Z</time>
      </trkpt>
      <trkpt lat="46.5592" lon="4.91604">
        <ele>109.80000305176</ele>
        <time>2017-07-17T09:11:49Z</time>
      </trkpt>
      <trkpt lat="46.55933" lon="4.91591">
        <ele>110</ele>
        <time>2017-07-17T09:11:54Z</time>
      </trkpt>
      <trkpt lat="46.55951" lon="4.91585">
        <ele>110</ele>
        <time>2017-07-17T09:11:59Z</time>
      </trkpt>
      <trkpt lat="46.55972" lon="4.91569">
        <ele>110</ele>
        <time>2017-07-17T09:12:05Z</time>
      </trkpt>
      <trkpt lat="46.55985" lon="4.91564">
        <ele>109.59999847412</ele>
        <time>2017-07-17T09:12:49Z</time>
      </trkpt>
      <trkpt lat="46.55992" lon="4.91559">
        <ele>109.80000305176</ele>
        <time>2017-07-17T09:12:52Z</time>
      </trkpt>
      <trkpt lat="46.56007" lon="4.91549">
        <ele>109.80000305176</ele>
        <time>2017-07-17T09:12:57Z</time>
      </trkpt>
      <trkpt lat="46.56024" lon="4.91532">
        <ele>110</ele>
        <time>2017-07-17T09:13:03Z</time>
      </trkpt>
      <trkpt lat="46.56034" lon="4.91521">
        <ele>110</ele>
        <time>2017-07-17T09:13:06Z</time>
      </trkpt>
      <trkpt lat="46.5604" lon="4.91513">
        <ele>110</ele>
        <time>2017-07-17T09:13:08Z</time>
      </trkpt>
      <trkpt lat="46.56065" lon="4.91483">
        <ele>110.19999694824</ele>
        <time>2017-07-17T09:13:15Z</time>
      </trkpt>
      <trkpt lat="46.56068" lon="4.91479">
        <ele>110.40000152588</ele>
        <time>2017-07-17T09:13:16Z</time>
      </trkpt>
      <trkpt lat="46.56095" lon="4.91452">
        <ele>110.19999694824</ele>
        <time>2017-07-17T09:13:23Z</time>
      </trkpt>
      <trkpt lat="46.56099" lon="4.91448">
        <ele>110.19999694824</ele>
        <time>2017-07-17T09:13:24Z</time>
      </trkpt>
      <trkpt lat="46.56132" lon="4.91411">
        <ele>110.40000152588</ele>
        <time>2017-07-17T09:13:33Z</time>
      </trkpt>
      <trkpt lat="46.56163" lon="4.9138">
        <ele>110.19999694824</ele>
        <time>2017-07-17T09:13:41Z</time>
      </trkpt>
      <trkpt lat="46.56187" lon="4.91361">
        <ele>110.19999694824</ele>
        <time>2017-07-17T09:13:47Z</time>
      </trkpt>
      <trkpt lat="46.5622" lon="4.91335">
        <ele>110.19999694824</ele>
        <time>2017-07-17T09:13:55Z</time>
      </trkpt>
      <trkpt lat="46.56235" lon="4.91319">
        <ele>110.19999694824</ele>
        <time>2017-07-17T09:13:59Z</time>
      </trkpt>
      <trkpt lat="46.56246" lon="4.91309">
        <ele>110.19999694824</ele>
        <time>2017-07-17T09:14:02Z</time>
      </trkpt>
      <trkpt lat="46.5627" lon="4.91289">
        <ele>110.19999694824</ele>
        <time>2017-07-17T09:14:08Z</time>
      </trkpt>
      <trkpt lat="46.56299" lon="4.91263">
        <ele>110.19999694824</ele>
        <time>2017-07-17T09:14:15Z</time>
      </trkpt>
      <trkpt lat="46.56336" lon="4.91236">
        <ele>110.19999694824</ele>
        <time>2017-07-17T09:14:24Z</time>
      </trkpt>
      <trkpt lat="46.56362" lon="4.91224">
        <ele>111.19999694824</ele>
        <time>2017-07-17T09:14:31Z</time>
      </trkpt>
      <trkpt lat="46.56365" lon="4.91221">
        <ele>111.19999694824</ele>
        <time>2017-07-17T09:14:32Z</time>
      </trkpt>
      <trkpt lat="46.56379" lon="4.91214">
        <ele>112</ele>
        <time>2017-07-17T09:14:36Z</time>
      </trkpt>
      <trkpt lat="46.56385" lon="4.9121">
        <ele>112.59999847412</ele>
        <time>2017-07-17T09:14:38Z</time>
      </trkpt>
      <trkpt lat="46.56391" lon="4.91207">
        <ele>113</ele>
        <time>2017-07-17T09:14:40Z</time>
      </trkpt>
      <trkpt lat="46.56394" lon="4.91209">
        <ele>113.19999694824</ele>
        <time>2017-07-17T09:14:41Z</time>
      </trkpt>
      <trkpt lat="46.56399" lon="4.91218">
        <ele>113.59999847412</ele>
        <time>2017-07-17T09:14:43Z</time>
      </trkpt>
      <trkpt lat="46.56401" lon="4.91225">
        <ele>113.80000305176</ele>
        <time>2017-07-17T09:14:44Z</time>
      </trkpt>
      <trkpt lat="46.56403" lon="4.91231">
        <ele>114</ele>
        <time>2017-07-17T09:14:45Z</time>
      </trkpt>
      <trkpt lat="46.56409" lon="4.91253">
        <ele>114.80000305176</ele>
        <time>2017-07-17T09:14:49Z</time>
      </trkpt>
      <trkpt lat="46.56416" lon="4.91274">
        <ele>115.59999847412</ele>
        <time>2017-07-17T09:14:53Z</time>
      </trkpt>
      <trkpt lat="46.56418" lon="4.91279">
        <ele>115.80000305176</ele>
        <time>2017-07-17T09:14:54Z</time>
      </trkpt>
      <trkpt lat="46.56428" lon="4.91311">
        <ele>116.80000305176</ele>
        <time>2017-07-17T09:15:00Z</time>
      </trkpt>
      <trkpt lat="46.56438" lon="4.91343">
        <ele>117.19999694824</ele>
        <time>2017-07-17T09:15:06Z</time>
      </trkpt>
      <trkpt lat="46.56442" lon="4.91357">
        <ele>117.19999694824</ele>
        <time>2017-07-17T09:15:08Z</time>
      </trkpt>
      <trkpt lat="46.56456" lon="4.91405">
        <ele>116.59999847412</ele>
        <time>2017-07-17T09:15:14Z</time>
      </trkpt>
      <trkpt lat="46.56461" lon="4.91429">
        <ele>116</ele>
        <time>2017-07-17T09:15:17Z</time>
      </trkpt>
      <trkpt lat="46.56461" lon="4.91436">
        <ele>115.59999847412</ele>
        <time>2017-07-17T09:15:18Z</time>
      </trkpt>
      <trkpt lat="46.56462" lon="4.91443">
        <ele>115.19999694824</ele>
        <time>2017-07-17T09:15:19Z</time>
      </trkpt>
      <trkpt lat="46.56462" lon="4.9146">
        <ele>114.40000152588</ele>
        <time>2017-07-17T09:15:22Z</time>
      </trkpt>
      <trkpt lat="46.56467" lon="4.91461">
        <ele>113.80000305176</ele>
        <time>2017-07-17T09:15:25Z</time>
      </trkpt>
      <trkpt lat="46.56468" lon="4.9145">
        <ele>113.40000152588</ele>
        <time>2017-07-17T09:15:28Z</time>
      </trkpt>
      <trkpt lat="46.56469" lon="4.91446">
        <ele>113.40000152588</ele>
        <time>2017-07-17T09:15:29Z</time>
      </trkpt>
      <trkpt lat="46.56474" lon="4.9142">
        <ele>113</ele>
        <time>2017-07-17T09:15:34Z</time>
      </trkpt>
      <trkpt lat="46.56477" lon="4.91415">
        <ele>112.80000305176</ele>
        <time>2017-07-17T09:15:35Z</time>
      </trkpt>
      <trkpt lat="46.56486" lon="4.91403">
        <ele>112.19999694824</ele>
        <time>2017-07-17T09:15:38Z</time>
      </trkpt>
      <trkpt lat="46.5649" lon="4.91399">
        <ele>112</ele>
        <time>2017-07-17T09:15:39Z</time>
      </trkpt>
      <trkpt lat="46.56503" lon="4.91391">
        <ele>111.59999847412</ele>
        <time>2017-07-17T09:15:42Z</time>
      </trkpt>
      <trkpt lat="46.56507" lon="4.91389">
        <ele>111.40000152588</ele>
        <time>2017-07-17T09:15:43Z</time>
      </trkpt>
      <trkpt lat="46.5652" lon="4.91385">
        <ele>111</ele>
        <time>2017-07-17T09:15:46Z</time>
      </trkpt>
      <trkpt lat="46.56529" lon="4.91382">
        <ele>110.80000305176</ele>
        <time>2017-07-17T09:15:48Z</time>
      </trkpt>
      <trkpt lat="46.56538" lon="4.91379">
        <ele>110.59999847412</ele>
        <time>2017-07-17T09:15:50Z</time>
      </trkpt>
      <trkpt lat="46.56562" lon="4.91372">
        <ele>110.40000152588</ele>
        <time>2017-07-17T09:15:56Z</time>
      </trkpt>
      <trkpt lat="46.56586" lon="4.91365">
        <ele>110</ele>
        <time>2017-07-17T09:16:02Z</time>
      </trkpt>
      <trkpt lat="46.56613" lon="4.91354">
        <ele>110</ele>
        <time>2017-07-17T09:16:09Z</time>
      </trkpt>
      <trkpt lat="46.5663" lon="4.91343">
        <ele>109.80000305176</ele>
        <time>2017-07-17T09:16:14Z</time>
      </trkpt>
      <trkpt lat="46.56644" lon="4.91336">
        <ele>109.80000305176</ele>
        <time>2017-07-17T09:16:17Z</time>
      </trkpt>
      <trkpt lat="46.56654" lon="4.91335">
        <ele>110</ele>
        <time>2017-07-17T09:16:19Z</time>
      </trkpt>
      <trkpt lat="46.56664" lon="4.91335">
        <ele>110</ele>
        <time>2017-07-17T09:16:21Z</time>
      </trkpt>
      <trkpt lat="46.56691" lon="4.91339">
        <ele>109.80000305176</ele>
        <time>2017-07-17T09:16:26Z</time>
      </trkpt>
      <trkpt lat="46.56729" lon="4.9135">
        <ele>109.40000152588</ele>
        <time>2017-07-17T09:16:33Z</time>
      </trkpt>
      <trkpt lat="46.56761" lon="4.91363">
        <ele>109</ele>
        <time>2017-07-17T09:16:39Z</time>
      </trkpt>
      <trkpt lat="46.56777" lon="4.91369">
        <ele>108.80000305176</ele>
        <time>2017-07-17T09:16:42Z</time>
      </trkpt>
      <trkpt lat="46.56812" lon="4.91383">
        <ele>108.80000305176</ele>
        <time>2017-07-17T09:16:49Z</time>
      </trkpt>
      <trkpt lat="46.56859" lon="4.91402">
        <ele>109</ele>
        <time>2017-07-17T09:16:58Z</time>
      </trkpt>
      <trkpt lat="46.56895" lon="4.91419">
        <ele>109</ele>
        <time>2017-07-17T09:17:05Z</time>
      </trkpt>
      <trkpt lat="46.56932" lon="4.91435">
        <ele>109</ele>
        <time>2017-07-17T09:17:12Z</time>
      </trkpt>
      <trkpt lat="46.56978" lon="4.91455">
        <ele>108.40000152588</ele>
        <time>2017-07-17T09:17:20Z</time>
      </trkpt>
      <trkpt lat="46.57017" lon="4.91474">
        <ele>108.19999694824</ele>
        <time>2017-07-17T09:17:27Z</time>
      </trkpt>
      <trkpt lat="46.57059" lon="4.91495">
        <ele>108.19999694824</ele>
        <time>2017-07-17T09:17:35Z</time>
      </trkpt>
      <trkpt lat="46.57107" lon="4.91518">
        <ele>108</ele>
        <time>2017-07-17T09:17:44Z</time>
      </trkpt>
      <trkpt lat="46.57155" lon="4.91541">
        <ele>108.19999694824</ele>
        <time>2017-07-17T09:17:53Z</time>
      </trkpt>
      <trkpt lat="46.57198" lon="4.91561">
        <ele>108.19999694824</ele>
        <time>2017-07-17T09:18:01Z</time>
      </trkpt>
      <trkpt lat="46.57242" lon="4.91582">
        <ele>108.40000152588</ele>
        <time>2017-07-17T09:18:09Z</time>
      </trkpt>
      <trkpt lat="46.57263" lon="4.91591">
        <ele>108.40000152588</ele>
        <time>2017-07-17T09:18:13Z</time>
      </trkpt>
      <trkpt lat="46.57273" lon="4.91592">
        <ele>108.59999847412</ele>
        <time>2017-07-17T09:18:15Z</time>
      </trkpt>
      <trkpt lat="46.57305" lon="4.91591">
        <ele>108.59999847412</ele>
        <time>2017-07-17T09:18:21Z</time>
      </trkpt>
      <trkpt lat="46.57315" lon="4.91591">
        <ele>108.40000152588</ele>
        <time>2017-07-17T09:18:23Z</time>
      </trkpt>
      <trkpt lat="46.57324" lon="4.91595">
        <ele>108.40000152588</ele>
        <time>2017-07-17T09:18:25Z</time>
      </trkpt>
      <trkpt lat="46.57336" lon="4.91616">
        <ele>108</ele>
        <time>2017-07-17T09:18:29Z</time>
      </trkpt>
      <trkpt lat="46.57335" lon="4.9163">
        <ele>107.80000305176</ele>
        <time>2017-07-17T09:18:31Z</time>
      </trkpt>
      <trkpt lat="46.57334" lon="4.91638">
        <ele>107.80000305176</ele>
        <time>2017-07-17T09:18:32Z</time>
      </trkpt>
      <trkpt lat="46.57329" lon="4.91688">
        <ele>108.19999694824</ele>
        <time>2017-07-17T09:18:39Z</time>
      </trkpt>
      <trkpt lat="46.57326" lon="4.91723">
        <ele>108.40000152588</ele>
        <time>2017-07-17T09:18:44Z</time>
      </trkpt>
      <trkpt lat="46.57323" lon="4.91735">
        <ele>108.40000152588</ele>
        <time>2017-07-17T09:18:46Z</time>
      </trkpt>
      <trkpt lat="46.57324" lon="4.91746">
        <ele>108.40000152588</ele>
        <time>2017-07-17T09:18:49Z</time>
      </trkpt>
      <trkpt lat="46.57334" lon="4.9175">
        <ele>108.80000305176</ele>
        <time>2017-07-17T09:18:52Z</time>
      </trkpt>
      <trkpt lat="46.57338" lon="4.91752">
        <ele>108.80000305176</ele>
        <time>2017-07-17T09:18:53Z</time>
      </trkpt>
      <trkpt lat="46.57342" lon="4.91753">
        <ele>109</ele>
        <time>2017-07-17T09:18:54Z</time>
      </trkpt>
      <trkpt lat="46.57356" lon="4.91758">
        <ele>109</ele>
        <time>2017-07-17T09:18:57Z</time>
      </trkpt>
      <trkpt lat="46.5738" lon="4.91772">
        <ele>109.19999694824</ele>
        <time>2017-07-17T09:19:02Z</time>
      </trkpt>
      <trkpt lat="46.5739" lon="4.91779">
        <ele>109.40000152588</ele>
        <time>2017-07-17T09:19:04Z</time>
      </trkpt>
      <trkpt lat="46.57399" lon="4.91786">
        <ele>109.40000152588</ele>
        <time>2017-07-17T09:19:06Z</time>
      </trkpt>
      <trkpt lat="46.57412" lon="4.91803">
        <ele>109.19999694824</ele>
        <time>2017-07-17T09:19:09Z</time>
      </trkpt>
      <trkpt lat="46.5744" lon="4.91848">
        <ele>109</ele>
        <time>2017-07-17T09:19:16Z</time>
      </trkpt>
      <trkpt lat="46.57464" lon="4.91883">
        <ele>109.19999694824</ele>
        <time>2017-07-17T09:19:22Z</time>
      </trkpt>
      <trkpt lat="46.57492" lon="4.91924">
        <ele>109</ele>
        <time>2017-07-17T09:19:29Z</time>
      </trkpt>
      <trkpt lat="46.57518" lon="4.9197">
        <ele>108.80000305176</ele>
        <time>2017-07-17T09:19:36Z</time>
      </trkpt>
      <trkpt lat="46.57522" lon="4.91978">
        <ele>108.80000305176</ele>
        <time>2017-07-17T09:19:37Z</time>
      </trkpt>
      <trkpt lat="46.57549" lon="4.92034">
        <ele>108.80000305176</ele>
        <time>2017-07-17T09:19:45Z</time>
      </trkpt>
      <trkpt lat="46.57577" lon="4.92069">
        <ele>108.80000305176</ele>
        <time>2017-07-17T09:19:51Z</time>
      </trkpt>
      <trkpt lat="46.57615" lon="4.9211">
        <ele>108.80000305176</ele>
        <time>2017-07-17T09:19:59Z</time>
      </trkpt>
      <trkpt lat="46.5762" lon="4.92114">
        <ele>108.80000305176</ele>
        <time>2017-07-17T09:20:00Z</time>
      </trkpt>
      <trkpt lat="46.57647" lon="4.9213">
        <ele>108.80000305176</ele>
        <time>2017-07-17T09:20:05Z</time>
      </trkpt>
      <trkpt lat="46.5769" lon="4.92159">
        <ele>108.80000305176</ele>
        <time>2017-07-17T09:20:13Z</time>
      </trkpt>
      <trkpt lat="46.57733" lon="4.92186">
        <ele>109</ele>
        <time>2017-07-17T09:20:21Z</time>
      </trkpt>
      <trkpt lat="46.57783" lon="4.92218">
        <ele>108.80000305176</ele>
        <time>2017-07-17T09:20:30Z</time>
      </trkpt>
      <trkpt lat="46.57825" lon="4.92244">
        <ele>108.80000305176</ele>
        <time>2017-07-17T09:20:38Z</time>
      </trkpt>
      <trkpt lat="46.57864" lon="4.92264">
        <ele>109</ele>
        <time>2017-07-17T09:20:45Z</time>
      </trkpt>
      <trkpt lat="46.57903" lon="4.92285">
        <ele>109</ele>
        <time>2017-07-17T09:20:52Z</time>
      </trkpt>
      <trkpt lat="46.57918" lon="4.92297">
        <ele>109</ele>
        <time>2017-07-17T09:20:55Z</time>
      </trkpt>
      <trkpt lat="46.57934" lon="4.92309">
        <ele>109</ele>
        <time>2017-07-17T09:20:58Z</time>
      </trkpt>
      <trkpt lat="46.57986" lon="4.92345">
        <ele>109</ele>
        <time>2017-07-17T09:21:08Z</time>
      </trkpt>
      <trkpt lat="46.58027" lon="4.92371">
        <ele>109.19999694824</ele>
        <time>2017-07-17T09:21:16Z</time>
      </trkpt>
      <trkpt lat="46.5806" lon="4.92393">
        <ele>109</ele>
        <time>2017-07-17T09:21:22Z</time>
      </trkpt>
      <trkpt lat="46.58092" lon="4.92415">
        <ele>108.80000305176</ele>
        <time>2017-07-17T09:21:28Z</time>
      </trkpt>
      <trkpt lat="46.58128" lon="4.92441">
        <ele>109</ele>
        <time>2017-07-17T09:21:35Z</time>
      </trkpt>
      <trkpt lat="46.5816" lon="4.92462">
        <ele>109</ele>
        <time>2017-07-17T09:21:41Z</time>
      </trkpt>
      <trkpt lat="46.58187" lon="4.92477">
        <ele>108.80000305176</ele>
        <time>2017-07-17T09:21:46Z</time>
      </trkpt>
      <trkpt lat="46.58198" lon="4.92485">
        <ele>108.80000305176</ele>
        <time>2017-07-17T09:21:48Z</time>
      </trkpt>
      <trkpt lat="46.58209" lon="4.92491">
        <ele>109</ele>
        <time>2017-07-17T09:21:50Z</time>
      </trkpt>
      <trkpt lat="46.58231" lon="4.92504">
        <ele>109.19999694824</ele>
        <time>2017-07-17T09:21:54Z</time>
      </trkpt>
      <trkpt lat="46.5827" lon="4.92527">
        <ele>109</ele>
        <time>2017-07-17T09:22:01Z</time>
      </trkpt>
      <trkpt lat="46.58303" lon="4.92544">
        <ele>109</ele>
        <time>2017-07-17T09:22:07Z</time>
      </trkpt>
      <trkpt lat="46.58347" lon="4.92568">
        <ele>109.19999694824</ele>
        <time>2017-07-17T09:22:15Z</time>
      </trkpt>
      <trkpt lat="46.58369" lon="4.92585">
        <ele>109.19999694824</ele>
        <time>2017-07-17T09:22:19Z</time>
      </trkpt>
      <trkpt lat="46.5838" lon="4.92594">
        <ele>109</ele>
        <time>2017-07-17T09:22:21Z</time>
      </trkpt>
      <trkpt lat="46.58415" lon="4.92628">
        <ele>109</ele>
        <time>2017-07-17T09:22:28Z</time>
      </trkpt>
      <trkpt lat="46.5845" lon="4.92664">
        <ele>108.59999847412</ele>
        <time>2017-07-17T09:22:35Z</time>
      </trkpt>
      <trkpt lat="46.58455" lon="4.92668">
        <ele>108.59999847412</ele>
        <time>2017-07-17T09:22:36Z</time>
      </trkpt>
      <trkpt lat="46.58481" lon="4.92688">
        <ele>108.40000152588</ele>
        <time>2017-07-17T09:22:41Z</time>
      </trkpt>
      <trkpt lat="46.58518" lon="4.92714">
        <ele>108.40000152588</ele>
        <time>2017-07-17T09:22:48Z</time>
      </trkpt>
      <trkpt lat="46.5856" lon="4.92742">
        <ele>108.80000305176</ele>
        <time>2017-07-17T09:22:56Z</time>
      </trkpt>
      <trkpt lat="46.5859" lon="4.92759">
        <ele>109</ele>
        <time>2017-07-17T09:23:02Z</time>
      </trkpt>
      <trkpt lat="46.58625" lon="4.9278">
        <ele>109.19999694824</ele>
        <time>2017-07-17T09:23:09Z</time>
      </trkpt>
      <trkpt lat="46.5863" lon="4.92782">
        <ele>109.40000152588</ele>
        <time>2017-07-17T09:23:10Z</time>
      </trkpt>
      <trkpt lat="46.58648" lon="4.92794">
        <ele>109.59999847412</ele>
        <time>2017-07-17T09:23:14Z</time>
      </trkpt>
      <trkpt lat="46.58672" lon="4.9281">
        <ele>110</ele>
        <time>2017-07-17T09:23:19Z</time>
      </trkpt>
      <trkpt lat="46.58716" lon="4.92843">
        <ele>110</ele>
        <time>2017-07-17T09:23:28Z</time>
      </trkpt>
      <trkpt lat="46.5876" lon="4.9288">
        <ele>110.19999694824</ele>
        <time>2017-07-17T09:23:37Z</time>
      </trkpt>
      <trkpt lat="46.58784" lon="4.92899">
        <ele>110.40000152588</ele>
        <time>2017-07-17T09:23:42Z</time>
      </trkpt>
      <trkpt lat="46.58792" lon="4.92906">
        <ele>110.40000152588</ele>
        <time>2017-07-17T09:23:44Z</time>
      </trkpt>
      <trkpt lat="46.58817" lon="4.92927">
        <ele>110.40000152588</ele>
        <time>2017-07-17T09:23:49Z</time>
      </trkpt>
      <trkpt lat="46.58853" lon="4.92958">
        <ele>110.80000305176</ele>
        <time>2017-07-17T09:23:57Z</time>
      </trkpt>
      <trkpt lat="46.58888" lon="4.92991">
        <ele>110.80000305176</ele>
        <time>2017-07-17T09:24:04Z</time>
      </trkpt>
      <trkpt lat="46.58916" lon="4.93018">
        <ele>110.59999847412</ele>
        <time>2017-07-17T09:24:09Z</time>
      </trkpt>
      <trkpt lat="46.58948" lon="4.93053">
        <ele>110.19999694824</ele>
        <time>2017-07-17T09:24:15Z</time>
      </trkpt>
      <trkpt lat="46.58976" lon="4.93085">
        <ele>110.19999694824</ele>
        <time>2017-07-17T09:24:21Z</time>
      </trkpt>
      <trkpt lat="46.59015" lon="4.9313">
        <ele>110</ele>
        <time>2017-07-17T09:24:29Z</time>
      </trkpt>
      <trkpt lat="46.59043" lon="4.93164">
        <ele>109.59999847412</ele>
        <time>2017-07-17T09:24:35Z</time>
      </trkpt>
      <trkpt lat="46.59048" lon="4.9317">
        <ele>109.59999847412</ele>
        <time>2017-07-17T09:24:36Z</time>
      </trkpt>
      <trkpt lat="46.59093" lon="4.93224">
        <ele>109.80000305176</ele>
        <time>2017-07-17T09:24:46Z</time>
      </trkpt>
      <trkpt lat="46.59121" lon="4.93257">
        <ele>109.80000305176</ele>
        <time>2017-07-17T09:24:52Z</time>
      </trkpt>
      <trkpt lat="46.59154" lon="4.93293">
        <ele>109.59999847412</ele>
        <time>2017-07-17T09:24:59Z</time>
      </trkpt>
      <trkpt lat="46.59192" lon="4.93334">
        <ele>110</ele>
        <time>2017-07-17T09:25:07Z</time>
      </trkpt>
      <trkpt lat="46.59221" lon="4.93362">
        <ele>110</ele>
        <time>2017-07-17T09:25:13Z</time>
      </trkpt>
      <trkpt lat="46.5925" lon="4.93389">
        <ele>110.19999694824</ele>
        <time>2017-07-17T09:25:19Z</time>
      </trkpt>
      <trkpt lat="46.59255" lon="4.93394">
        <ele>110</ele>
        <time>2017-07-17T09:25:20Z</time>
      </trkpt>
      <trkpt lat="46.59287" lon="4.93421">
        <ele>110.19999694824</ele>
        <time>2017-07-17T09:25:26Z</time>
      </trkpt>
      <trkpt lat="46.59292" lon="4.93426">
        <ele>110.19999694824</ele>
        <time>2017-07-17T09:25:27Z</time>
      </trkpt>
      <trkpt lat="46.59313" lon="4.93447">
        <ele>110.19999694824</ele>
        <time>2017-07-17T09:25:31Z</time>
      </trkpt>
      <trkpt lat="46.59349" lon="4.93485">
        <ele>109.59999847412</ele>
        <time>2017-07-17T09:25:38Z</time>
      </trkpt>
      <trkpt lat="46.59386" lon="4.9352">
        <ele>109.59999847412</ele>
        <time>2017-07-17T09:25:45Z</time>
      </trkpt>
      <trkpt lat="46.59416" lon="4.93549">
        <ele>109.40000152588</ele>
        <time>2017-07-17T09:25:51Z</time>
      </trkpt>
      <trkpt lat="46.59462" lon="4.93592">
        <ele>109.40000152588</ele>
        <time>2017-07-17T09:26:00Z</time>
      </trkpt>
      <trkpt lat="46.59495" lon="4.9363">
        <ele>109.40000152588</ele>
        <time>2017-07-17T09:26:07Z</time>
      </trkpt>
      <trkpt lat="46.59522" lon="4.93674">
        <ele>109.40000152588</ele>
        <time>2017-07-17T09:26:14Z</time>
      </trkpt>
      <trkpt lat="46.59546" lon="4.93722">
        <ele>109.40000152588</ele>
        <time>2017-07-17T09:26:21Z</time>
      </trkpt>
      <trkpt lat="46.59549" lon="4.93729">
        <ele>109.40000152588</ele>
        <time>2017-07-17T09:26:22Z</time>
      </trkpt>
      <trkpt lat="46.59567" lon="4.93764">
        <ele>109.40000152588</ele>
        <time>2017-07-17T09:26:27Z</time>
      </trkpt>
      <trkpt lat="46.59589" lon="4.93817">
        <ele>109.19999694824</ele>
        <time>2017-07-17T09:26:34Z</time>
      </trkpt>
      <trkpt lat="46.59598" lon="4.93839">
        <ele>109.19999694824</ele>
        <time>2017-07-17T09:26:37Z</time>
      </trkpt>
      <trkpt lat="46.59603" lon="4.93855">
        <ele>109.19999694824</ele>
        <time>2017-07-17T09:26:39Z</time>
      </trkpt>
      <trkpt lat="46.59609" lon="4.93869">
        <ele>109.19999694824</ele>
        <time>2017-07-17T09:26:41Z</time>
      </trkpt>
      <trkpt lat="46.59622" lon="4.93896">
        <ele>109.40000152588</ele>
        <time>2017-07-17T09:26:45Z</time>
      </trkpt>
      <trkpt lat="46.59645" lon="4.93941">
        <ele>109.40000152588</ele>
        <time>2017-07-17T09:26:52Z</time>
      </trkpt>
      <trkpt lat="46.59665" lon="4.93957">
        <ele>109.40000152588</ele>
        <time>2017-07-17T09:26:56Z</time>
      </trkpt>
      <trkpt lat="46.5967" lon="4.9396">
        <ele>109.40000152588</ele>
        <time>2017-07-17T09:26:57Z</time>
      </trkpt>
      <trkpt lat="46.59686" lon="4.93968">
        <ele>109.40000152588</ele>
        <time>2017-07-17T09:27:00Z</time>
      </trkpt>
      <trkpt lat="46.5972" lon="4.9398">
        <ele>109.59999847412</ele>
        <time>2017-07-17T09:27:06Z</time>
      </trkpt>
      <trkpt lat="46.5976" lon="4.93998">
        <ele>109.59999847412</ele>
        <time>2017-07-17T09:27:13Z</time>
      </trkpt>
      <trkpt lat="46.59765" lon="4.94002">
        <ele>109.59999847412</ele>
        <time>2017-07-17T09:27:14Z</time>
      </trkpt>
      <trkpt lat="46.59786" lon="4.94019">
        <ele>109.59999847412</ele>
        <time>2017-07-17T09:27:18Z</time>
      </trkpt>
      <trkpt lat="46.59816" lon="4.94048">
        <ele>109.40000152588</ele>
        <time>2017-07-17T09:27:24Z</time>
      </trkpt>
      <trkpt lat="46.59826" lon="4.94057">
        <ele>109.40000152588</ele>
        <time>2017-07-17T09:27:26Z</time>
      </trkpt>
      <trkpt lat="46.59863" lon="4.94091">
        <ele>109.19999694824</ele>
        <time>2017-07-17T09:27:33Z</time>
      </trkpt>
      <trkpt lat="46.599" lon="4.94127">
        <ele>109.19999694824</ele>
        <time>2017-07-17T09:27:40Z</time>
      </trkpt>
      <trkpt lat="46.59942" lon="4.94166">
        <ele>109.19999694824</ele>
        <time>2017-07-17T09:27:48Z</time>
      </trkpt>
      <trkpt lat="46.59978" lon="4.94199">
        <ele>109.19999694824</ele>
        <time>2017-07-17T09:27:55Z</time>
      </trkpt>
      <trkpt lat="46.60029" lon="4.94243">
        <ele>109.40000152588</ele>
        <time>2017-07-17T09:28:05Z</time>
      </trkpt>
      <trkpt lat="46.60039" lon="4.94252">
        <ele>109.40000152588</ele>
        <time>2017-07-17T09:28:07Z</time>
      </trkpt>
      <trkpt lat="46.6007" lon="4.94273">
        <ele>109.40000152588</ele>
        <time>2017-07-17T09:28:13Z</time>
      </trkpt>
      <trkpt lat="46.60109" lon="4.94297">
        <ele>109.40000152588</ele>
        <time>2017-07-17T09:28:20Z</time>
      </trkpt>
      <trkpt lat="46.6014" lon="4.94322">
        <ele>109.40000152588</ele>
        <time>2017-07-17T09:28:26Z</time>
      </trkpt>
      <trkpt lat="46.60171" lon="4.94355">
        <ele>109.19999694824</ele>
        <time>2017-07-17T09:28:32Z</time>
      </trkpt>
      <trkpt lat="46.60198" lon="4.94391">
        <ele>109.19999694824</ele>
        <time>2017-07-17T09:28:38Z</time>
      </trkpt>
      <trkpt lat="46.60216" lon="4.94415">
        <ele>109.19999694824</ele>
        <time>2017-07-17T09:28:42Z</time>
      </trkpt>
      <trkpt lat="46.60224" lon="4.94429">
        <ele>109.19999694824</ele>
        <time>2017-07-17T09:28:44Z</time>
      </trkpt>
      <trkpt lat="46.60248" lon="4.94479">
        <ele>109.19999694824</ele>
        <time>2017-07-17T09:28:51Z</time>
      </trkpt>
      <trkpt lat="46.6027" lon="4.94523">
        <ele>109.19999694824</ele>
        <time>2017-07-17T09:28:57Z</time>
      </trkpt>
      <trkpt lat="46.60282" lon="4.94553">
        <ele>109.19999694824</ele>
        <time>2017-07-17T09:29:01Z</time>
      </trkpt>
      <trkpt lat="46.60289" lon="4.94567">
        <ele>109.40000152588</ele>
        <time>2017-07-17T09:29:03Z</time>
      </trkpt>
      <trkpt lat="46.60311" lon="4.94615">
        <ele>109.59999847412</ele>
        <time>2017-07-17T09:29:10Z</time>
      </trkpt>
      <trkpt lat="46.60327" lon="4.94651">
        <ele>109.80000305176</ele>
        <time>2017-07-17T09:29:15Z</time>
      </trkpt>
      <trkpt lat="46.60331" lon="4.94658">
        <ele>109.80000305176</ele>
        <time>2017-07-17T09:29:16Z</time>
      </trkpt>
      <trkpt lat="46.60334" lon="4.94665">
        <ele>110</ele>
        <time>2017-07-17T09:29:17Z</time>
      </trkpt>
      <trkpt lat="46.60349" lon="4.94702">
        <ele>110.40000152588</ele>
        <time>2017-07-17T09:29:22Z</time>
      </trkpt>
      <trkpt lat="46.60374" lon="4.94757">
        <ele>110.59999847412</ele>
        <time>2017-07-17T09:29:30Z</time>
      </trkpt>
      <trkpt lat="46.60399" lon="4.94811">
        <ele>111</ele>
        <time>2017-07-17T09:29:38Z</time>
      </trkpt>
      <trkpt lat="46.60405" lon="4.94823">
        <ele>111.19999694824</ele>
        <time>2017-07-17T09:29:40Z</time>
      </trkpt>
      <trkpt lat="46.60423" lon="4.94865">
        <ele>111.19999694824</ele>
        <time>2017-07-17T09:29:46Z</time>
      </trkpt>
      <trkpt lat="46.6045" lon="4.94927">
        <ele>111.59999847412</ele>
        <time>2017-07-17T09:29:55Z</time>
      </trkpt>
      <trkpt lat="46.60476" lon="4.94983">
        <ele>111.59999847412</ele>
        <time>2017-07-17T09:30:03Z</time>
      </trkpt>
      <trkpt lat="46.60506" lon="4.95026">
        <ele>111.59999847412</ele>
        <time>2017-07-17T09:30:10Z</time>
      </trkpt>
      <trkpt lat="46.6055" lon="4.95075">
        <ele>111.59999847412</ele>
        <time>2017-07-17T09:30:19Z</time>
      </trkpt>
      <trkpt lat="46.60559" lon="4.95086">
        <ele>111.59999847412</ele>
        <time>2017-07-17T09:30:21Z</time>
      </trkpt>
      <trkpt lat="46.60598" lon="4.95131">
        <ele>111.59999847412</ele>
        <time>2017-07-17T09:30:29Z</time>
      </trkpt>
      <trkpt lat="46.60608" lon="4.95141">
        <ele>111.59999847412</ele>
        <time>2017-07-17T09:30:31Z</time>
      </trkpt>
      <trkpt lat="46.60627" lon="4.95164">
        <ele>111.59999847412</ele>
        <time>2017-07-17T09:30:35Z</time>
      </trkpt>
      <trkpt lat="46.60666" lon="4.95208">
        <ele>111.59999847412</ele>
        <time>2017-07-17T09:30:43Z</time>
      </trkpt>
      <trkpt lat="46.60703" lon="4.95248">
        <ele>111.19999694824</ele>
        <time>2017-07-17T09:30:50Z</time>
      </trkpt>
      <trkpt lat="46.60736" lon="4.9528">
        <ele>111.19999694824</ele>
        <time>2017-07-17T09:30:56Z</time>
      </trkpt>
      <trkpt lat="46.60742" lon="4.95286">
        <ele>111.19999694824</ele>
        <time>2017-07-17T09:30:57Z</time>
      </trkpt>
      <trkpt lat="46.60779" lon="4.95324">
        <ele>111.19999694824</ele>
        <time>2017-07-17T09:31:04Z</time>
      </trkpt>
      <trkpt lat="46.60828" lon="4.95367">
        <ele>111.40000152588</ele>
        <time>2017-07-17T09:31:13Z</time>
      </trkpt>
      <trkpt lat="46.60839" lon="4.95374">
        <ele>111.59999847412</ele>
        <time>2017-07-17T09:31:15Z</time>
      </trkpt>
      <trkpt lat="46.60858" lon="4.95379">
        <ele>111.59999847412</ele>
        <time>2017-07-17T09:31:18Z</time>
      </trkpt>
      <trkpt lat="46.60901" lon="4.95394">
        <ele>111.40000152588</ele>
        <time>2017-07-17T09:31:25Z</time>
      </trkpt>
      <trkpt lat="46.60957" lon="4.95421">
        <ele>111</ele>
        <time>2017-07-17T09:31:34Z</time>
      </trkpt>
      <trkpt lat="46.61008" lon="4.95439">
        <ele>110.80000305176</ele>
        <time>2017-07-17T09:31:42Z</time>
      </trkpt>
      <trkpt lat="46.61022" lon="4.95439">
        <ele>110.59999847412</ele>
        <time>2017-07-17T09:31:44Z</time>
      </trkpt>
      <trkpt lat="46.61041" lon="4.95433">
        <ele>110.59999847412</ele>
        <time>2017-07-17T09:31:47Z</time>
      </trkpt>
      <trkpt lat="46.61099" lon="4.9542">
        <ele>110.40000152588</ele>
        <time>2017-07-17T09:31:56Z</time>
      </trkpt>
      <trkpt lat="46.61105" lon="4.95421">
        <ele>110.40000152588</ele>
        <time>2017-07-17T09:31:57Z</time>
      </trkpt>
      <trkpt lat="46.61124" lon="4.95428">
        <ele>110.40000152588</ele>
        <time>2017-07-17T09:32:00Z</time>
      </trkpt>
      <trkpt lat="46.61152" lon="4.95449">
        <ele>110.40000152588</ele>
        <time>2017-07-17T09:32:05Z</time>
      </trkpt>
      <trkpt lat="46.61157" lon="4.95454">
        <ele>110.40000152588</ele>
        <time>2017-07-17T09:32:06Z</time>
      </trkpt>
      <trkpt lat="46.61192" lon="4.95499">
        <ele>110.19999694824</ele>
        <time>2017-07-17T09:32:14Z</time>
      </trkpt>
      <trkpt lat="46.6122" lon="4.95549">
        <ele>110.59999847412</ele>
        <time>2017-07-17T09:32:22Z</time>
      </trkpt>
      <trkpt lat="46.61241" lon="4.95602">
        <ele>111</ele>
        <time>2017-07-17T09:32:30Z</time>
      </trkpt>
      <trkpt lat="46.61244" lon="4.95609">
        <ele>111</ele>
        <time>2017-07-17T09:32:31Z</time>
      </trkpt>
      <trkpt lat="46.61258" lon="4.95642">
        <ele>111</ele>
        <time>2017-07-17T09:32:36Z</time>
      </trkpt>
      <trkpt lat="46.6128" lon="4.95698">
        <ele>111.40000152588</ele>
        <time>2017-07-17T09:32:44Z</time>
      </trkpt>
      <trkpt lat="46.61294" lon="4.95743">
        <ele>111.59999847412</ele>
        <time>2017-07-17T09:32:50Z</time>
      </trkpt>
      <trkpt lat="46.61305" lon="4.9578">
        <ele>111.19999694824</ele>
        <time>2017-07-17T09:32:55Z</time>
      </trkpt>
      <trkpt lat="46.61307" lon="4.95787">
        <ele>111.19999694824</ele>
        <time>2017-07-17T09:32:56Z</time>
      </trkpt>
      <trkpt lat="46.61326" lon="4.95846">
        <ele>111.59999847412</ele>
        <time>2017-07-17T09:33:04Z</time>
      </trkpt>
      <trkpt lat="46.61354" lon="4.95909">
        <ele>111.80000305176</ele>
        <time>2017-07-17T09:33:13Z</time>
      </trkpt>
      <trkpt lat="46.61365" lon="4.95927">
        <ele>112</ele>
        <time>2017-07-17T09:33:16Z</time>
      </trkpt>
      <trkpt lat="46.61381" lon="4.95951">
        <ele>112.19999694824</ele>
        <time>2017-07-17T09:33:20Z</time>
      </trkpt>
      <trkpt lat="46.61409" lon="4.95999">
        <ele>112.40000152588</ele>
        <time>2017-07-17T09:33:28Z</time>
      </trkpt>
      <trkpt lat="46.61442" lon="4.96059">
        <ele>112.59999847412</ele>
        <time>2017-07-17T09:33:38Z</time>
      </trkpt>
      <trkpt lat="46.61456" lon="4.96088">
        <ele>112.80000305176</ele>
        <time>2017-07-17T09:33:44Z</time>
      </trkpt>
      <trkpt lat="46.61465" lon="4.96098">
        <ele>112.59999847412</ele>
        <time>2017-07-17T09:33:47Z</time>
      </trkpt>
      <trkpt lat="46.61473" lon="4.96103">
        <ele>112.59999847412</ele>
        <time>2017-07-17T09:33:49Z</time>
      </trkpt>
      <trkpt lat="46.61507" lon="4.96121">
        <ele>112.80000305176</ele>
        <time>2017-07-17T09:33:56Z</time>
      </trkpt>
      <trkpt lat="46.61534" lon="4.96134">
        <ele>113</ele>
        <time>2017-07-17T09:34:01Z</time>
      </trkpt>
      <trkpt lat="46.61577" lon="4.96156">
        <ele>113</ele>
        <time>2017-07-17T09:34:09Z</time>
      </trkpt>
      <trkpt lat="46.61619" lon="4.96181">
        <ele>112.59999847412</ele>
        <time>2017-07-17T09:34:17Z</time>
      </trkpt>
      <trkpt lat="46.61644" lon="4.962">
        <ele>112.59999847412</ele>
        <time>2017-07-17T09:34:22Z</time>
      </trkpt>
      <trkpt lat="46.61659" lon="4.96211">
        <ele>112.59999847412</ele>
        <time>2017-07-17T09:34:25Z</time>
      </trkpt>
      <trkpt lat="46.61702" lon="4.96244">
        <ele>112.59999847412</ele>
        <time>2017-07-17T09:34:34Z</time>
      </trkpt>
      <trkpt lat="46.6174" lon="4.96275">
        <ele>112.80000305176</ele>
        <time>2017-07-17T09:34:42Z</time>
      </trkpt>
      <trkpt lat="46.61775" lon="4.96301">
        <ele>113</ele>
        <time>2017-07-17T09:34:49Z</time>
      </trkpt>
      <trkpt lat="46.6178" lon="4.96303">
        <ele>113.19999694824</ele>
        <time>2017-07-17T09:34:50Z</time>
      </trkpt>
      <trkpt lat="46.61805" lon="4.96312">
        <ele>113.40000152588</ele>
        <time>2017-07-17T09:34:55Z</time>
      </trkpt>
      <trkpt lat="46.61846" lon="4.96318">
        <ele>113.40000152588</ele>
        <time>2017-07-17T09:35:03Z</time>
      </trkpt>
      <trkpt lat="46.61861" lon="4.96319">
        <ele>113.59999847412</ele>
        <time>2017-07-17T09:35:06Z</time>
      </trkpt>
      <trkpt lat="46.61877" lon="4.96318">
        <ele>113.59999847412</ele>
        <time>2017-07-17T09:35:09Z</time>
      </trkpt>
      <trkpt lat="46.61923" lon="4.96314">
        <ele>114</ele>
        <time>2017-07-17T09:35:18Z</time>
      </trkpt>
      <trkpt lat="46.61934" lon="4.96314">
        <ele>114.19999694824</ele>
        <time>2017-07-17T09:35:20Z</time>
      </trkpt>
      <trkpt lat="46.6194" lon="4.96315">
        <ele>114.19999694824</ele>
        <time>2017-07-17T09:35:21Z</time>
      </trkpt>
      <trkpt lat="46.61951" lon="4.96319">
        <ele>114.19999694824</ele>
        <time>2017-07-17T09:35:23Z</time>
      </trkpt>
      <trkpt lat="46.61971" lon="4.96328">
        <ele>114.40000152588</ele>
        <time>2017-07-17T09:35:27Z</time>
      </trkpt>
      <trkpt lat="46.6198" lon="4.96335">
        <ele>114.40000152588</ele>
        <time>2017-07-17T09:35:29Z</time>
      </trkpt>
      <trkpt lat="46.62019" lon="4.96358">
        <ele>114.59999847412</ele>
        <time>2017-07-17T09:35:37Z</time>
      </trkpt>
      <trkpt lat="46.62055" lon="4.96381">
        <ele>114.40000152588</ele>
        <time>2017-07-17T09:35:45Z</time>
      </trkpt>
      <trkpt lat="46.62059" lon="4.96383">
        <ele>114.40000152588</ele>
        <time>2017-07-17T09:35:46Z</time>
      </trkpt>
      <trkpt lat="46.6208" lon="4.96398">
        <ele>114.40000152588</ele>
        <time>2017-07-17T09:35:52Z</time>
      </trkpt>
      <trkpt lat="46.62103" lon="4.96411">
        <ele>114.40000152588</ele>
        <time>2017-07-17T09:35:59Z</time>
      </trkpt>
      <trkpt lat="46.62111" lon="4.96417">
        <ele>114.40000152588</ele>
        <time>2017-07-17T09:36:01Z</time>
      </trkpt>
      <trkpt lat="46.62124" lon="4.96424">
        <ele>114.40000152588</ele>
        <time>2017-07-17T09:36:04Z</time>
      </trkpt>
      <trkpt lat="46.62139" lon="4.96435">
        <ele>114.40000152588</ele>
        <time>2017-07-17T09:36:07Z</time>
      </trkpt>
      <trkpt lat="46.6215" lon="4.96441">
        <ele>114.59999847412</ele>
        <time>2017-07-17T09:36:09Z</time>
      </trkpt>
      <trkpt lat="46.62197" lon="4.9647">
        <ele>114.80000305176</ele>
        <time>2017-07-17T09:36:18Z</time>
      </trkpt>
      <trkpt lat="46.62238" lon="4.96495">
        <ele>115</ele>
        <time>2017-07-17T09:36:26Z</time>
      </trkpt>
      <trkpt lat="46.62248" lon="4.96501">
        <ele>115.19999694824</ele>
        <time>2017-07-17T09:36:28Z</time>
      </trkpt>
      <trkpt lat="46.62278" lon="4.96519">
        <ele>115.40000152588</ele>
        <time>2017-07-17T09:36:34Z</time>
      </trkpt>
      <trkpt lat="46.62312" lon="4.96533">
        <ele>116</ele>
        <time>2017-07-17T09:36:41Z</time>
      </trkpt>
      <trkpt lat="46.62317" lon="4.96532">
        <ele>116.19999694824</ele>
        <time>2017-07-17T09:36:42Z</time>
      </trkpt>
      <trkpt lat="46.62323" lon="4.96532">
        <ele>116.40000152588</ele>
        <time>2017-07-17T09:36:43Z</time>
      </trkpt>
      <trkpt lat="46.62334" lon="4.9653">
        <ele>116.59999847412</ele>
        <time>2017-07-17T09:36:45Z</time>
      </trkpt>
      <trkpt lat="46.62339" lon="4.96528">
        <ele>116.59999847412</ele>
        <time>2017-07-17T09:36:46Z</time>
      </trkpt>
      <trkpt lat="46.62361" lon="4.96517">
        <ele>117</ele>
        <time>2017-07-17T09:36:50Z</time>
      </trkpt>
      <trkpt lat="46.62392" lon="4.96488">
        <ele>117</ele>
        <time>2017-07-17T09:36:56Z</time>
      </trkpt>
      <trkpt lat="46.62434" lon="4.9644">
        <ele>116.40000152588</ele>
        <time>2017-07-17T09:37:04Z</time>
      </trkpt>
      <trkpt lat="46.6248" lon="4.96386">
        <ele>115.59999847412</ele>
        <time>2017-07-17T09:37:13Z</time>
      </trkpt>
      <trkpt lat="46.62506" lon="4.96353">
        <ele>115.19999694824</ele>
        <time>2017-07-17T09:37:18Z</time>
      </trkpt>
      <trkpt lat="46.6251" lon="4.96344">
        <ele>115.19999694824</ele>
        <time>2017-07-17T09:37:19Z</time>
      </trkpt>
      <trkpt lat="46.62517" lon="4.96315">
        <ele>114.59999847412</ele>
        <time>2017-07-17T09:37:22Z</time>
      </trkpt>
      <trkpt lat="46.62517" lon="4.96294">
        <ele>114.59999847412</ele>
        <time>2017-07-17T09:37:24Z</time>
      </trkpt>
      <trkpt lat="46.62518" lon="4.96264">
        <ele>114.40000152588</ele>
        <time>2017-07-17T09:37:27Z</time>
      </trkpt>
      <trkpt lat="46.62518" lon="4.96207">
        <ele>114.19999694824</ele>
        <time>2017-07-17T09:37:33Z</time>
      </trkpt>
      <trkpt lat="46.62518" lon="4.96198">
        <ele>114</ele>
        <time>2017-07-17T09:37:34Z</time>
      </trkpt>
      <trkpt lat="46.62522" lon="4.9617">
        <ele>113.80000305176</ele>
        <time>2017-07-17T09:37:37Z</time>
      </trkpt>
      <trkpt lat="46.62529" lon="4.96156">
        <ele>113.80000305176</ele>
        <time>2017-07-17T09:37:39Z</time>
      </trkpt>
      <trkpt lat="46.62546" lon="4.96151">
        <ele>113.59999847412</ele>
        <time>2017-07-17T09:37:42Z</time>
      </trkpt>
      <trkpt lat="46.62562" lon="4.96155">
        <ele>113.59999847412</ele>
        <time>2017-07-17T09:37:45Z</time>
      </trkpt>
      <trkpt lat="46.62572" lon="4.96159">
        <ele>113.80000305176</ele>
        <time>2017-07-17T09:37:47Z</time>
      </trkpt>
      <trkpt lat="46.62606" lon="4.9617">
        <ele>114.59999847412</ele>
        <time>2017-07-17T09:37:55Z</time>
      </trkpt>
      <trkpt lat="46.6261" lon="4.96172">
        <ele>114.80000305176</ele>
        <time>2017-07-17T09:37:56Z</time>
      </trkpt>
      <trkpt lat="46.62622" lon="4.96175">
        <ele>115.19999694824</ele>
        <time>2017-07-17T09:37:59Z</time>
      </trkpt>
      <trkpt lat="46.6263" lon="4.96177">
        <ele>115.40000152588</ele>
        <time>2017-07-17T09:38:01Z</time>
      </trkpt>
      <trkpt lat="46.62634" lon="4.96178">
        <ele>115.59999847412</ele>
        <time>2017-07-17T09:38:02Z</time>
      </trkpt>
      <trkpt lat="46.62662" lon="4.96187">
        <ele>116.40000152588</ele>
        <time>2017-07-17T09:38:09Z</time>
      </trkpt>
      <trkpt lat="46.62682" lon="4.96194">
        <ele>117</ele>
        <time>2017-07-17T09:38:14Z</time>
      </trkpt>
      <trkpt lat="46.62686" lon="4.96196">
        <ele>117.19999694824</ele>
        <time>2017-07-17T09:38:15Z</time>
      </trkpt>
      <trkpt lat="46.62698" lon="4.96199">
        <ele>117.59999847412</ele>
        <time>2017-07-17T09:38:18Z</time>
      </trkpt>
      <trkpt lat="46.62721" lon="4.96205">
        <ele>118.40000152588</ele>
        <time>2017-07-17T09:38:24Z</time>
      </trkpt>
      <trkpt lat="46.62725" lon="4.96205">
        <ele>118.59999847412</ele>
        <time>2017-07-17T09:38:25Z</time>
      </trkpt>
      <trkpt lat="46.62744" lon="4.96204">
        <ele>119.40000152588</ele>
        <time>2017-07-17T09:38:30Z</time>
      </trkpt>
      <trkpt lat="46.62752" lon="4.96203">
        <ele>119.59999847412</ele>
        <time>2017-07-17T09:38:32Z</time>
      </trkpt>
      <trkpt lat="46.62775" lon="4.96198">
        <ele>120.40000152588</ele>
        <time>2017-07-17T09:38:38Z</time>
      </trkpt>
      <trkpt lat="46.62783" lon="4.96196">
        <ele>120.59999847412</ele>
        <time>2017-07-17T09:38:40Z</time>
      </trkpt>
      <trkpt lat="46.62802" lon="4.96193">
        <ele>120.80000305176</ele>
        <time>2017-07-17T09:38:45Z</time>
      </trkpt>
      <trkpt lat="46.62828" lon="4.96193">
        <ele>121.80000305176</ele>
        <time>2017-07-17T09:38:52Z</time>
      </trkpt>
      <trkpt lat="46.62843" lon="4.96193">
        <ele>122.19999694824</ele>
        <time>2017-07-17T09:38:58Z</time>
      </trkpt>
      <trkpt lat="46.62858" lon="4.96191">
        <ele>122.40000152588</ele>
        <time>2017-07-17T09:39:03Z</time>
      </trkpt>
      <trkpt lat="46.62885" lon="4.96191">
        <ele>122.59999847412</ele>
        <time>2017-07-17T09:39:10Z</time>
      </trkpt>
      <trkpt lat="46.62897" lon="4.9619">
        <ele>122.80000305176</ele>
        <time>2017-07-17T09:39:13Z</time>
      </trkpt>
      <trkpt lat="46.62914" lon="4.96191">
        <ele>123.40000152588</ele>
        <time>2017-07-17T09:39:17Z</time>
      </trkpt>
      <trkpt lat="46.62918" lon="4.9619">
        <ele>123.59999847412</ele>
        <time>2017-07-17T09:39:18Z</time>
      </trkpt>
      <trkpt lat="46.62926" lon="4.96191">
        <ele>123.80000305176</ele>
        <time>2017-07-17T09:39:20Z</time>
      </trkpt>
      <trkpt lat="46.62935" lon="4.96192">
        <ele>124</ele>
        <time>2017-07-17T09:39:22Z</time>
      </trkpt>
      <trkpt lat="46.62939" lon="4.96194">
        <ele>124</ele>
        <time>2017-07-17T09:39:23Z</time>
      </trkpt>
      <trkpt lat="46.62944" lon="4.96195">
        <ele>124</ele>
        <time>2017-07-17T09:39:24Z</time>
      </trkpt>
      <trkpt lat="46.62963" lon="4.96207">
        <ele>124.80000305176</ele>
        <time>2017-07-17T09:39:29Z</time>
      </trkpt>
      <trkpt lat="46.62975" lon="4.96215">
        <ele>125</ele>
        <time>2017-07-17T09:39:32Z</time>
      </trkpt>
      <trkpt lat="46.62998" lon="4.96231">
        <ele>125.40000152588</ele>
        <time>2017-07-17T09:39:38Z</time>
      </trkpt>
      <trkpt lat="46.63013" lon="4.9624">
        <ele>126</ele>
        <time>2017-07-17T09:39:42Z</time>
      </trkpt>
      <trkpt lat="46.63025" lon="4.96245">
        <ele>126.40000152588</ele>
        <time>2017-07-17T09:39:45Z</time>
      </trkpt>
      <trkpt lat="46.63033" lon="4.96247">
        <ele>126.59999847412</ele>
        <time>2017-07-17T09:39:47Z</time>
      </trkpt>
      <trkpt lat="46.63049" lon="4.96249">
        <ele>127</ele>
        <time>2017-07-17T09:39:51Z</time>
      </trkpt>
      <trkpt lat="46.63053" lon="4.96249">
        <ele>127.19999694824</ele>
        <time>2017-07-17T09:39:52Z</time>
      </trkpt>
      <trkpt lat="46.63061" lon="4.96247">
        <ele>127.40000152588</ele>
        <time>2017-07-17T09:39:54Z</time>
      </trkpt>
      <trkpt lat="46.63077" lon="4.96242">
        <ele>127.80000305176</ele>
        <time>2017-07-17T09:39:58Z</time>
      </trkpt>
      <trkpt lat="46.63081" lon="4.96242">
        <ele>127.80000305176</ele>
        <time>2017-07-17T09:39:59Z</time>
      </trkpt>
      <trkpt lat="46.63097" lon="4.9624">
        <ele>128.19999694824</ele>
        <time>2017-07-17T09:40:03Z</time>
      </trkpt>
      <trkpt lat="46.63101" lon="4.96239">
        <ele>128.19999694824</ele>
        <time>2017-07-17T09:40:04Z</time>
      </trkpt>
      <trkpt lat="46.63139" lon="4.96234">
        <ele>129.19999694824</ele>
        <time>2017-07-17T09:40:13Z</time>
      </trkpt>
      <trkpt lat="46.63143" lon="4.96234">
        <ele>129.19999694824</ele>
        <time>2017-07-17T09:40:14Z</time>
      </trkpt>
      <trkpt lat="46.63163" lon="4.96235">
        <ele>129.80000305176</ele>
        <time>2017-07-17T09:40:19Z</time>
      </trkpt>
      <trkpt lat="46.63171" lon="4.96238">
        <ele>130</ele>
        <time>2017-07-17T09:40:21Z</time>
      </trkpt>
      <trkpt lat="46.63177" lon="4.96246">
        <ele>130.19999694824</ele>
        <time>2017-07-17T09:40:23Z</time>
      </trkpt>
      <trkpt lat="46.63179" lon="4.96257">
        <ele>130.39999389648</ele>
        <time>2017-07-17T09:40:25Z</time>
      </trkpt>
      <trkpt lat="46.6318" lon="4.96262">
        <ele>130.60000610352</ele>
        <time>2017-07-17T09:40:26Z</time>
      </trkpt>
      <trkpt lat="46.63181" lon="4.96271">
        <ele>131.19999694824</ele>
        <time>2017-07-17T09:40:28Z</time>
      </trkpt>
      <trkpt lat="46.63183" lon="4.96281">
        <ele>131.80000305176</ele>
        <time>2017-07-17T09:40:31Z</time>
      </trkpt>
      <trkpt lat="46.63188" lon="4.96287">
        <ele>132.19999694824</ele>
        <time>2017-07-17T09:40:34Z</time>
      </trkpt>
      <trkpt lat="46.63191" lon="4.96291">
        <ele>132.19999694824</ele>
        <time>2017-07-17T09:40:36Z</time>
      </trkpt>
      <trkpt lat="46.63192" lon="4.96305">
        <ele>132.39999389648</ele>
        <time>2017-07-17T09:40:40Z</time>
      </trkpt>
      <trkpt lat="46.63192" lon="4.96309">
        <ele>132.39999389648</ele>
        <time>2017-07-17T09:40:41Z</time>
      </trkpt>
      <trkpt lat="46.63193" lon="4.96326">
        <ele>132.60000610352</ele>
        <time>2017-07-17T09:40:47Z</time>
      </trkpt>
      <trkpt lat="46.63196" lon="4.96329">
        <ele>132.60000610352</ele>
        <time>2017-07-17T09:40:50Z</time>
      </trkpt>
      <trkpt lat="46.63197" lon="4.96324">
        <ele>132.80000305176</ele>
        <time>2017-07-17T09:40:52Z</time>
      </trkpt>
      <trkpt lat="46.63198" lon="4.96315">
        <ele>132.80000305176</ele>
        <time>2017-07-17T09:40:55Z</time>
      </trkpt>
      <trkpt lat="46.63197" lon="4.96308">
        <ele>132.80000305176</ele>
        <time>2017-07-17T09:40:57Z</time>
      </trkpt>
      <trkpt lat="46.63189" lon="4.96288">
        <ele>132.60000610352</ele>
        <time>2017-07-17T09:41:04Z</time>
      </trkpt>
      <trkpt lat="46.63182" lon="4.96269">
        <ele>132.39999389648</ele>
        <time>2017-07-17T09:41:09Z</time>
      </trkpt>
      <trkpt lat="46.63182" lon="4.9625">
        <ele>132.19999694824</ele>
        <time>2017-07-17T09:41:13Z</time>
      </trkpt>
      <trkpt lat="46.63182" lon="4.96244">
        <ele>132.19999694824</ele>
        <time>2017-07-17T09:41:14Z</time>
      </trkpt>
      <trkpt lat="46.63183" lon="4.96219">
        <ele>131.80000305176</ele>
        <time>2017-07-17T09:41:18Z</time>
      </trkpt>
      <trkpt lat="46.63189" lon="4.96179">
        <ele>131.60000610352</ele>
        <time>2017-07-17T09:41:25Z</time>
      </trkpt>
      <trkpt lat="46.63198" lon="4.96151">
        <ele>131.39999389648</ele>
        <time>2017-07-17T09:41:31Z</time>
      </trkpt>
      <trkpt lat="46.63201" lon="4.96147">
        <ele>131.19999694824</ele>
        <time>2017-07-17T09:41:32Z</time>
      </trkpt>
      <trkpt lat="46.63208" lon="4.96141">
        <ele>131</ele>
        <time>2017-07-17T09:41:36Z</time>
      </trkpt>
      <trkpt lat="46.63205" lon="4.96147">
        <ele>130.60000610352</ele>
        <time>2017-07-17T09:42:09Z</time>
      </trkpt>
      <trkpt lat="46.63197" lon="4.96157">
        <ele>130.80000305176</ele>
        <time>2017-07-17T09:43:00Z</time>
      </trkpt>
      <trkpt lat="46.63196" lon="4.96162">
        <ele>130.80000305176</ele>
        <time>2017-07-17T09:43:02Z</time>
      </trkpt>
      <trkpt lat="46.63193" lon="4.96168">
        <ele>131</ele>
        <time>2017-07-17T09:44:10Z</time>
      </trkpt>
      <trkpt lat="46.63193" lon="4.96172">
        <ele>131</ele>
        <time>2017-07-17T09:44:11Z</time>
      </trkpt>
      <trkpt lat="46.63189" lon="4.96194">
        <ele>131</ele>
        <time>2017-07-17T09:44:17Z</time>
      </trkpt>
      <trkpt lat="46.63185" lon="4.96223">
        <ele>131.19999694824</ele>
        <time>2017-07-17T09:44:23Z</time>
      </trkpt>
      <trkpt lat="46.63185" lon="4.96228">
        <ele>131.19999694824</ele>
        <time>2017-07-17T09:44:24Z</time>
      </trkpt>
      <trkpt lat="46.6318" lon="4.96261">
        <ele>131.60000610352</ele>
        <time>2017-07-17T09:44:31Z</time>
      </trkpt>
      <trkpt lat="46.63185" lon="4.96285">
        <ele>131.80000305176</ele>
        <time>2017-07-17T09:44:36Z</time>
      </trkpt>
      <trkpt lat="46.6319" lon="4.96298">
        <ele>132.39999389648</ele>
        <time>2017-07-17T09:44:39Z</time>
      </trkpt>
      <trkpt lat="46.63197" lon="4.96317">
        <ele>132.60000610352</ele>
        <time>2017-07-17T09:44:43Z</time>
      </trkpt>
      <trkpt lat="46.63209" lon="4.9633">
        <ele>132.60000610352</ele>
        <time>2017-07-17T09:44:47Z</time>
      </trkpt>
      <trkpt lat="46.63229" lon="4.9634">
        <ele>133</ele>
        <time>2017-07-17T09:44:53Z</time>
      </trkpt>
      <trkpt lat="46.6324" lon="4.96345">
        <ele>133.39999389648</ele>
        <time>2017-07-17T09:44:57Z</time>
      </trkpt>
      <trkpt lat="46.63249" lon="4.96351">
        <ele>133.60000610352</ele>
        <time>2017-07-17T09:45:00Z</time>
      </trkpt>
      <trkpt lat="46.63271" lon="4.96357">
        <ele>134.39999389648</ele>
        <time>2017-07-17T09:45:07Z</time>
      </trkpt>
      <trkpt lat="46.63275" lon="4.96359">
        <ele>134.39999389648</ele>
        <time>2017-07-17T09:45:08Z</time>
      </trkpt>
      <trkpt lat="46.63292" lon="4.96366">
        <ele>135</ele>
        <time>2017-07-17T09:45:13Z</time>
      </trkpt>
      <trkpt lat="46.63305" lon="4.96371">
        <ele>135.60000610352</ele>
        <time>2017-07-17T09:45:17Z</time>
      </trkpt>
      <trkpt lat="46.6331" lon="4.96374">
        <ele>135.80000305176</ele>
        <time>2017-07-17T09:45:19Z</time>
      </trkpt>
      <trkpt lat="46.63325" lon="4.96384">
        <ele>136</ele>
        <time>2017-07-17T09:45:24Z</time>
      </trkpt>
      <trkpt lat="46.63344" lon="4.96401">
        <ele>136.60000610352</ele>
        <time>2017-07-17T09:45:30Z</time>
      </trkpt>
      <trkpt lat="46.63347" lon="4.96403">
        <ele>136.80000305176</ele>
        <time>2017-07-17T09:45:31Z</time>
      </trkpt>
      <trkpt lat="46.63368" lon="4.96417">
        <ele>137.19999694824</ele>
        <time>2017-07-17T09:45:37Z</time>
      </trkpt>
      <trkpt lat="46.63387" lon="4.96436">
        <ele>137.39999389648</ele>
        <time>2017-07-17T09:45:43Z</time>
      </trkpt>
      <trkpt lat="46.6339" lon="4.9644">
        <ele>137.39999389648</ele>
        <time>2017-07-17T09:45:44Z</time>
      </trkpt>
      <trkpt lat="46.63393" lon="4.96453">
        <ele>137.39999389648</ele>
        <time>2017-07-17T09:45:47Z</time>
      </trkpt>
      <trkpt lat="46.63394" lon="4.9646">
        <ele>137.60000610352</ele>
        <time>2017-07-17T09:45:49Z</time>
      </trkpt>
      <trkpt lat="46.63393" lon="4.96464">
        <ele>137.80000305176</ele>
        <time>2017-07-17T09:45:50Z</time>
      </trkpt>
      <trkpt lat="46.63392" lon="4.96477">
        <ele>138.39999389648</ele>
        <time>2017-07-17T09:45:54Z</time>
      </trkpt>
      <trkpt lat="46.63391" lon="4.96493">
        <ele>138.80000305176</ele>
        <time>2017-07-17T09:45:58Z</time>
      </trkpt>
      <trkpt lat="46.6339" lon="4.96502">
        <ele>139</ele>
        <time>2017-07-17T09:46:00Z</time>
      </trkpt>
      <trkpt lat="46.63386" lon="4.96538">
        <ele>139.80000305176</ele>
        <time>2017-07-17T09:46:07Z</time>
      </trkpt>
      <trkpt lat="46.63387" lon="4.96543">
        <ele>139.80000305176</ele>
        <time>2017-07-17T09:46:08Z</time>
      </trkpt>
      <trkpt lat="46.63384" lon="4.96575">
        <ele>140.19999694824</ele>
        <time>2017-07-17T09:46:14Z</time>
      </trkpt>
      <trkpt lat="46.63384" lon="4.96592">
        <ele>139.80000305176</ele>
        <time>2017-07-17T09:46:44Z</time>
      </trkpt>
      <trkpt lat="46.63384" lon="4.96599">
        <ele>139.80000305176</ele>
        <time>2017-07-17T09:46:46Z</time>
      </trkpt>
      <trkpt lat="46.6338" lon="4.96621">
        <ele>140</ele>
        <time>2017-07-17T09:46:50Z</time>
      </trkpt>
      <trkpt lat="46.63376" lon="4.96671">
        <ele>140</ele>
        <time>2017-07-17T09:46:57Z</time>
      </trkpt>
      <trkpt lat="46.63376" lon="4.96693">
        <ele>139.80000305176</ele>
        <time>2017-07-17T09:47:00Z</time>
      </trkpt>
      <trkpt lat="46.63375" lon="4.96707">
        <ele>139.60000610352</ele>
        <time>2017-07-17T09:47:02Z</time>
      </trkpt>
      <trkpt lat="46.63375" lon="4.96715">
        <ele>139.60000610352</ele>
        <time>2017-07-17T09:47:03Z</time>
      </trkpt>
      <trkpt lat="46.6337" lon="4.96758">
        <ele>139</ele>
        <time>2017-07-17T09:47:09Z</time>
      </trkpt>
      <trkpt lat="46.63369" lon="4.96772">
        <ele>138.80000305176</ele>
        <time>2017-07-17T09:47:11Z</time>
      </trkpt>
      <trkpt lat="46.63365" lon="4.9681">
        <ele>138.19999694824</ele>
        <time>2017-07-17T09:47:16Z</time>
      </trkpt>
      <trkpt lat="46.63362" lon="4.96853">
        <ele>137.80000305176</ele>
        <time>2017-07-17T09:47:21Z</time>
      </trkpt>
      <trkpt lat="46.63362" lon="4.96862">
        <ele>137.60000610352</ele>
        <time>2017-07-17T09:47:22Z</time>
      </trkpt>
      <trkpt lat="46.63357" lon="4.9693">
        <ele>137.19999694824</ele>
        <time>2017-07-17T09:47:30Z</time>
      </trkpt>
      <trkpt lat="46.63355" lon="4.96978">
        <ele>137</ele>
        <time>2017-07-17T09:47:36Z</time>
      </trkpt>
      <trkpt lat="46.63352" lon="4.97014">
        <ele>137.19999694824</ele>
        <time>2017-07-17T09:47:42Z</time>
      </trkpt>
      <trkpt lat="46.63349" lon="4.97048">
        <ele>137.39999389648</ele>
        <time>2017-07-17T09:47:48Z</time>
      </trkpt>
      <trkpt lat="46.63345" lon="4.97105">
        <ele>138</ele>
        <time>2017-07-17T09:47:58Z</time>
      </trkpt>
      <trkpt lat="46.63344" lon="4.97123">
        <ele>138.39999389648</ele>
        <time>2017-07-17T09:48:01Z</time>
      </trkpt>
      <trkpt lat="46.63342" lon="4.97141">
        <ele>138.80000305176</ele>
        <time>2017-07-17T09:48:04Z</time>
      </trkpt>
      <trkpt lat="46.63342" lon="4.97147">
        <ele>138.80000305176</ele>
        <time>2017-07-17T09:48:05Z</time>
      </trkpt>
      <trkpt lat="46.63342" lon="4.97158">
        <ele>139</ele>
        <time>2017-07-17T09:48:07Z</time>
      </trkpt>
      <trkpt lat="46.6334" lon="4.97187">
        <ele>139.39999389648</ele>
        <time>2017-07-17T09:48:12Z</time>
      </trkpt>
      <trkpt lat="46.63338" lon="4.9721">
        <ele>139.80000305176</ele>
        <time>2017-07-17T09:48:16Z</time>
      </trkpt>
      <trkpt lat="46.63337" lon="4.97228">
        <ele>140</ele>
        <time>2017-07-17T09:48:19Z</time>
      </trkpt>
      <trkpt lat="46.63332" lon="4.97264">
        <ele>140.80000305176</ele>
        <time>2017-07-17T09:48:26Z</time>
      </trkpt>
      <trkpt lat="46.63331" lon="4.97265">
        <ele>141</ele>
        <time>2017-07-17T09:48:27Z</time>
      </trkpt>
      <trkpt lat="46.6333" lon="4.97263">
        <ele>141.19999694824</ele>
        <time>2017-07-17T09:48:29Z</time>
      </trkpt>
      <trkpt lat="46.6333" lon="4.97254">
        <ele>141</ele>
        <time>2017-07-17T09:48:33Z</time>
      </trkpt>
      <trkpt lat="46.6333" lon="4.97254">
        <ele>141</ele>
        <time>2017-07-17T09:48:34Z</time>
      </trkpt>
      <trkpt lat="46.63332" lon="4.97263">
        <ele>140.19999694824</ele>
        <time>2017-07-17T10:14:11Z</time>
      </trkpt>
      <trkpt lat="46.63333" lon="4.97267">
        <ele>140.19999694824</ele>
        <time>2017-07-17T10:14:13Z</time>
      </trkpt>
      <trkpt lat="46.63331" lon="4.97283">
        <ele>140.39999389648</ele>
        <time>2017-07-17T10:14:20Z</time>
      </trkpt>
      <trkpt lat="46.6333" lon="4.97303">
        <ele>140.60000610352</ele>
        <time>2017-07-17T10:14:29Z</time>
      </trkpt>
      <trkpt lat="46.6333" lon="4.97306">
        <ele>140.80000305176</ele>
        <time>2017-07-17T10:14:30Z</time>
      </trkpt>
      <trkpt lat="46.6333" lon="4.97318">
        <ele>140.80000305176</ele>
        <time>2017-07-17T10:14:35Z</time>
      </trkpt>
      <trkpt lat="46.63329" lon="4.97334">
        <ele>140.80000305176</ele>
        <time>2017-07-17T10:14:42Z</time>
      </trkpt>
      <trkpt lat="46.63329" lon="4.97354">
        <ele>141</ele>
        <time>2017-07-17T10:14:50Z</time>
      </trkpt>
      <trkpt lat="46.63332" lon="4.97376">
        <ele>141.19999694824</ele>
        <time>2017-07-17T10:14:58Z</time>
      </trkpt>
      <trkpt lat="46.63334" lon="4.97399">
        <ele>141.19999694824</ele>
        <time>2017-07-17T10:15:06Z</time>
      </trkpt>
      <trkpt lat="46.63338" lon="4.97421">
        <ele>141</ele>
        <time>2017-07-17T10:15:14Z</time>
      </trkpt>
      <trkpt lat="46.6334" lon="4.97439">
        <ele>141</ele>
        <time>2017-07-17T10:15:20Z</time>
      </trkpt>
      <trkpt lat="46.63343" lon="4.97459">
        <ele>141</ele>
        <time>2017-07-17T10:15:27Z</time>
      </trkpt>
      <trkpt lat="46.63347" lon="4.97489">
        <ele>141</ele>
        <time>2017-07-17T10:15:37Z</time>
      </trkpt>
      <trkpt lat="46.63351" lon="4.97512">
        <ele>141.19999694824</ele>
        <time>2017-07-17T10:15:45Z</time>
      </trkpt>
      <trkpt lat="46.63354" lon="4.97539">
        <ele>141.19999694824</ele>
        <time>2017-07-17T10:15:54Z</time>
      </trkpt>
      <trkpt lat="46.63357" lon="4.9756">
        <ele>141.39999389648</ele>
        <time>2017-07-17T10:16:01Z</time>
      </trkpt>
      <trkpt lat="46.63362" lon="4.97585">
        <ele>141.60000610352</ele>
        <time>2017-07-17T10:16:10Z</time>
      </trkpt>
      <trkpt lat="46.63365" lon="4.97606">
        <ele>141.60000610352</ele>
        <time>2017-07-17T10:16:17Z</time>
      </trkpt>
      <trkpt lat="46.63368" lon="4.97629">
        <ele>141.80000305176</ele>
        <time>2017-07-17T10:16:25Z</time>
      </trkpt>
      <trkpt lat="46.63371" lon="4.97649">
        <ele>141.80000305176</ele>
        <time>2017-07-17T10:16:33Z</time>
      </trkpt>
      <trkpt lat="46.63373" lon="4.97663">
        <ele>141.80000305176</ele>
        <time>2017-07-17T10:16:39Z</time>
      </trkpt>
      <trkpt lat="46.63375" lon="4.97683">
        <ele>141.80000305176</ele>
        <time>2017-07-17T10:16:47Z</time>
      </trkpt>
      <trkpt lat="46.63378" lon="4.97704">
        <ele>142</ele>
        <time>2017-07-17T10:16:56Z</time>
      </trkpt>
      <trkpt lat="46.63378" lon="4.97706">
        <ele>142</ele>
        <time>2017-07-17T10:16:57Z</time>
      </trkpt>
      <trkpt lat="46.63379" lon="4.97711">
        <ele>142</ele>
        <time>2017-07-17T10:18:24Z</time>
      </trkpt>
      <trkpt lat="46.63379" lon="4.97714">
        <ele>142</ele>
        <time>2017-07-17T10:18:25Z</time>
      </trkpt>
      <trkpt lat="46.6338" lon="4.97723">
        <ele>141.80000305176</ele>
        <time>2017-07-17T10:18:28Z</time>
      </trkpt>
      <trkpt lat="46.63382" lon="4.97734">
        <ele>142</ele>
        <time>2017-07-17T10:18:31Z</time>
      </trkpt>
      <trkpt lat="46.63386" lon="4.97765">
        <ele>142</ele>
        <time>2017-07-17T10:18:39Z</time>
      </trkpt>
      <trkpt lat="46.63389" lon="4.97784">
        <ele>142.19999694824</ele>
        <time>2017-07-17T10:18:45Z</time>
      </trkpt>
      <trkpt lat="46.63391" lon="4.97793">
        <ele>142.19999694824</ele>
        <time>2017-07-17T10:18:48Z</time>
      </trkpt>
      <trkpt lat="46.63393" lon="4.97812">
        <ele>142.39999389648</ele>
        <time>2017-07-17T10:18:54Z</time>
      </trkpt>
      <trkpt lat="46.63396" lon="4.9783">
        <ele>142.19999694824</ele>
        <time>2017-07-17T10:19:00Z</time>
      </trkpt>
      <trkpt lat="46.63398" lon="4.97854">
        <ele>142.39999389648</ele>
        <time>2017-07-17T10:19:07Z</time>
      </trkpt>
      <trkpt lat="46.63401" lon="4.97873">
        <ele>142.39999389648</ele>
        <time>2017-07-17T10:19:12Z</time>
      </trkpt>
      <trkpt lat="46.63406" lon="4.97906">
        <ele>142.60000610352</ele>
        <time>2017-07-17T10:19:19Z</time>
      </trkpt>
      <trkpt lat="46.63411" lon="4.97943">
        <ele>142.80000305176</ele>
        <time>2017-07-17T10:19:25Z</time>
      </trkpt>
      <trkpt lat="46.6342" lon="4.97999">
        <ele>143</ele>
        <time>2017-07-17T10:19:33Z</time>
      </trkpt>
      <trkpt lat="46.63423" lon="4.98026">
        <ele>143.19999694824</ele>
        <time>2017-07-17T10:19:37Z</time>
      </trkpt>
      <trkpt lat="46.63426" lon="4.98047">
        <ele>143.19999694824</ele>
        <time>2017-07-17T10:19:40Z</time>
      </trkpt>
      <trkpt lat="46.63428" lon="4.98061">
        <ele>143.19999694824</ele>
        <time>2017-07-17T10:19:42Z</time>
      </trkpt>
      <trkpt lat="46.63432" lon="4.98082">
        <ele>143.39999389648</ele>
        <time>2017-07-17T10:19:45Z</time>
      </trkpt>
      <trkpt lat="46.63436" lon="4.9811">
        <ele>143.60000610352</ele>
        <time>2017-07-17T10:19:49Z</time>
      </trkpt>
      <trkpt lat="46.63441" lon="4.9815">
        <ele>144.19999694824</ele>
        <time>2017-07-17T10:19:55Z</time>
      </trkpt>
      <trkpt lat="46.63444" lon="4.9817">
        <ele>144.39999389648</ele>
        <time>2017-07-17T10:19:58Z</time>
      </trkpt>
      <trkpt lat="46.63453" lon="4.98229">
        <ele>144.80000305176</ele>
        <time>2017-07-17T10:20:07Z</time>
      </trkpt>
      <trkpt lat="46.6346" lon="4.98281">
        <ele>145.19999694824</ele>
        <time>2017-07-17T10:20:15Z</time>
      </trkpt>
      <trkpt lat="46.63466" lon="4.98344">
        <ele>145.80000305176</ele>
        <time>2017-07-17T10:20:24Z</time>
      </trkpt>
      <trkpt lat="46.63467" lon="4.98414">
        <ele>145.60000610352</ele>
        <time>2017-07-17T10:20:33Z</time>
      </trkpt>
      <trkpt lat="46.63467" lon="4.98491">
        <ele>144.60000610352</ele>
        <time>2017-07-17T10:20:43Z</time>
      </trkpt>
      <trkpt lat="46.63474" lon="4.98514">
        <ele>144.39999389648</ele>
        <time>2017-07-17T10:20:48Z</time>
      </trkpt>
      <trkpt lat="46.63485" lon="4.98514">
        <ele>144.39999389648</ele>
        <time>2017-07-17T10:20:51Z</time>
      </trkpt>
      <trkpt lat="46.63497" lon="4.98511">
        <ele>144.39999389648</ele>
        <time>2017-07-17T10:20:54Z</time>
      </trkpt>
      <trkpt lat="46.63506" lon="4.9851">
        <ele>144.60000610352</ele>
        <time>2017-07-17T10:20:56Z</time>
      </trkpt>
      <trkpt lat="46.63534" lon="4.98506">
        <ele>145.19999694824</ele>
        <time>2017-07-17T10:21:02Z</time>
      </trkpt>
      <trkpt lat="46.63557" lon="4.98501">
        <ele>145.60000610352</ele>
        <time>2017-07-17T10:21:07Z</time>
      </trkpt>
      <trkpt lat="46.63567" lon="4.98499">
        <ele>145.80000305176</ele>
        <time>2017-07-17T10:21:09Z</time>
      </trkpt>
      <trkpt lat="46.63572" lon="4.98498">
        <ele>146</ele>
        <time>2017-07-17T10:21:10Z</time>
      </trkpt>
      <trkpt lat="46.63591" lon="4.98493">
        <ele>146.19999694824</ele>
        <time>2017-07-17T10:21:14Z</time>
      </trkpt>
      <trkpt lat="46.63596" lon="4.98492">
        <ele>146.39999389648</ele>
        <time>2017-07-17T10:21:15Z</time>
      </trkpt>
      <trkpt lat="46.63601" lon="4.98492">
        <ele>146.39999389648</ele>
        <time>2017-07-17T10:21:16Z</time>
      </trkpt>
      <trkpt lat="46.63642" lon="4.98484">
        <ele>147.39999389648</ele>
        <time>2017-07-17T10:21:24Z</time>
      </trkpt>
      <trkpt lat="46.63692" lon="4.98473">
        <ele>148</ele>
        <time>2017-07-17T10:21:34Z</time>
      </trkpt>
      <trkpt lat="46.63733" lon="4.98463">
        <ele>148</ele>
        <time>2017-07-17T10:21:42Z</time>
      </trkpt>
      <trkpt lat="46.6377" lon="4.98455">
        <ele>148.39999389648</ele>
        <time>2017-07-17T10:21:49Z</time>
      </trkpt>
      <trkpt lat="46.63787" lon="4.98451">
        <ele>148.39999389648</ele>
        <time>2017-07-17T10:21:52Z</time>
      </trkpt>
      <trkpt lat="46.63842" lon="4.98438">
        <ele>148.39999389648</ele>
        <time>2017-07-17T10:22:02Z</time>
      </trkpt>
      <trkpt lat="46.63894" lon="4.98427">
        <ele>148</ele>
        <time>2017-07-17T10:22:11Z</time>
      </trkpt>
      <trkpt lat="46.63948" lon="4.98415">
        <ele>148</ele>
        <time>2017-07-17T10:22:20Z</time>
      </trkpt>
      <trkpt lat="46.6396" lon="4.98413">
        <ele>148</ele>
        <time>2017-07-17T10:22:22Z</time>
      </trkpt>
      <trkpt lat="46.64005" lon="4.98403">
        <ele>147.60000610352</ele>
        <time>2017-07-17T10:22:29Z</time>
      </trkpt>
      <trkpt lat="46.64033" lon="4.98397">
        <ele>147.19999694824</ele>
        <time>2017-07-17T10:22:33Z</time>
      </trkpt>
      <trkpt lat="46.64062" lon="4.9839">
        <ele>146.39999389648</ele>
        <time>2017-07-17T10:22:37Z</time>
      </trkpt>
      <trkpt lat="46.6407" lon="4.98388">
        <ele>146.19999694824</ele>
        <time>2017-07-17T10:22:38Z</time>
      </trkpt>
      <trkpt lat="46.64108" lon="4.9838">
        <ele>145</ele>
        <time>2017-07-17T10:22:43Z</time>
      </trkpt>
      <trkpt lat="46.64131" lon="4.98375">
        <ele>144.39999389648</ele>
        <time>2017-07-17T10:22:46Z</time>
      </trkpt>
      <trkpt lat="46.64154" lon="4.9837">
        <ele>143.80000305176</ele>
        <time>2017-07-17T10:22:49Z</time>
      </trkpt>
      <trkpt lat="46.64191" lon="4.98362">
        <ele>143.39999389648</ele>
        <time>2017-07-17T10:22:54Z</time>
      </trkpt>
      <trkpt lat="46.6422" lon="4.98355">
        <ele>142.80000305176</ele>
        <time>2017-07-17T10:22:58Z</time>
      </trkpt>
      <trkpt lat="46.64255" lon="4.98347">
        <ele>142.39999389648</ele>
        <time>2017-07-17T10:23:03Z</time>
      </trkpt>
      <trkpt lat="46.64262" lon="4.98346">
        <ele>142.39999389648</ele>
        <time>2017-07-17T10:23:04Z</time>
      </trkpt>
      <trkpt lat="46.64297" lon="4.98338">
        <ele>141.80000305176</ele>
        <time>2017-07-17T10:23:09Z</time>
      </trkpt>
      <trkpt lat="46.64331" lon="4.98331">
        <ele>141.39999389648</ele>
        <time>2017-07-17T10:23:14Z</time>
      </trkpt>
      <trkpt lat="46.6439" lon="4.98317">
        <ele>141</ele>
        <time>2017-07-17T10:23:23Z</time>
      </trkpt>
      <trkpt lat="46.64447" lon="4.98305">
        <ele>141</ele>
        <time>2017-07-17T10:23:32Z</time>
      </trkpt>
      <trkpt lat="46.64453" lon="4.98304">
        <ele>141</ele>
        <time>2017-07-17T10:23:33Z</time>
      </trkpt>
      <trkpt lat="46.64508" lon="4.98292">
        <ele>141</ele>
        <time>2017-07-17T10:23:42Z</time>
      </trkpt>
      <trkpt lat="46.64546" lon="4.98283">
        <ele>140.80000305176</ele>
        <time>2017-07-17T10:23:48Z</time>
      </trkpt>
      <trkpt lat="46.64566" lon="4.98279">
        <ele>140.60000610352</ele>
        <time>2017-07-17T10:23:51Z</time>
      </trkpt>
      <trkpt lat="46.64622" lon="4.98266">
        <ele>139.60000610352</ele>
        <time>2017-07-17T10:23:59Z</time>
      </trkpt>
      <trkpt lat="46.6463" lon="4.98265">
        <ele>139.60000610352</ele>
        <time>2017-07-17T10:24:00Z</time>
      </trkpt>
      <trkpt lat="46.64668" lon="4.98256">
        <ele>138.60000610352</ele>
        <time>2017-07-17T10:24:05Z</time>
      </trkpt>
      <trkpt lat="46.64683" lon="4.98252">
        <ele>138</ele>
        <time>2017-07-17T10:24:07Z</time>
      </trkpt>
      <trkpt lat="46.64691" lon="4.98251">
        <ele>137.60000610352</ele>
        <time>2017-07-17T10:24:08Z</time>
      </trkpt>
      <trkpt lat="46.64699" lon="4.98249">
        <ele>137.60000610352</ele>
        <time>2017-07-17T10:24:09Z</time>
      </trkpt>
      <trkpt lat="46.64716" lon="4.98244">
        <ele>137.19999694824</ele>
        <time>2017-07-17T10:24:12Z</time>
      </trkpt>
      <trkpt lat="46.64721" lon="4.98243">
        <ele>136.80000305176</ele>
        <time>2017-07-17T10:24:13Z</time>
      </trkpt>
      <trkpt lat="46.64732" lon="4.98239">
        <ele>136.19999694824</ele>
        <time>2017-07-17T10:24:15Z</time>
      </trkpt>
      <trkpt lat="46.64738" lon="4.98238">
        <ele>136</ele>
        <time>2017-07-17T10:24:16Z</time>
      </trkpt>
      <trkpt lat="46.64766" lon="4.98232">
        <ele>135</ele>
        <time>2017-07-17T10:24:20Z</time>
      </trkpt>
      <trkpt lat="46.64774" lon="4.9823">
        <ele>134.80000305176</ele>
        <time>2017-07-17T10:24:21Z</time>
      </trkpt>
      <trkpt lat="46.64807" lon="4.98223">
        <ele>133.80000305176</ele>
        <time>2017-07-17T10:24:26Z</time>
      </trkpt>
      <trkpt lat="46.64825" lon="4.98219">
        <ele>133.19999694824</ele>
        <time>2017-07-17T10:24:28Z</time>
      </trkpt>
      <trkpt lat="46.64844" lon="4.98215">
        <ele>132.60000610352</ele>
        <time>2017-07-17T10:24:30Z</time>
      </trkpt>
      <trkpt lat="46.64873" lon="4.98208">
        <ele>131.39999389648</ele>
        <time>2017-07-17T10:24:33Z</time>
      </trkpt>
      <trkpt lat="46.64902" lon="4.98201">
        <ele>130.19999694824</ele>
        <time>2017-07-17T10:24:36Z</time>
      </trkpt>
      <trkpt lat="46.64953" lon="4.9819">
        <ele>129.60000610352</ele>
        <time>2017-07-17T10:24:42Z</time>
      </trkpt>
      <trkpt lat="46.65003" lon="4.98179">
        <ele>129.80000305176</ele>
        <time>2017-07-17T10:24:49Z</time>
      </trkpt>
      <trkpt lat="46.65022" lon="4.98174">
        <ele>130</ele>
        <time>2017-07-17T10:24:52Z</time>
      </trkpt>
      <trkpt lat="46.65041" lon="4.98172">
        <ele>130.39999389648</ele>
        <time>2017-07-17T10:24:55Z</time>
      </trkpt>
      <trkpt lat="46.65083" lon="4.98161">
        <ele>131</ele>
        <time>2017-07-17T10:25:02Z</time>
      </trkpt>
      <trkpt lat="46.65094" lon="4.98158">
        <ele>131.19999694824</ele>
        <time>2017-07-17T10:25:04Z</time>
      </trkpt>
      <trkpt lat="46.65107" lon="4.98157">
        <ele>131.19999694824</ele>
        <time>2017-07-17T10:25:06Z</time>
      </trkpt>
      <trkpt lat="46.65144" lon="4.98149">
        <ele>131.60000610352</ele>
        <time>2017-07-17T10:25:12Z</time>
      </trkpt>
      <trkpt lat="46.65199" lon="4.98136">
        <ele>132.19999694824</ele>
        <time>2017-07-17T10:25:21Z</time>
      </trkpt>
      <trkpt lat="46.65249" lon="4.98125">
        <ele>132.19999694824</ele>
        <time>2017-07-17T10:25:29Z</time>
      </trkpt>
      <trkpt lat="46.65302" lon="4.98114">
        <ele>131.80000305176</ele>
        <time>2017-07-17T10:25:37Z</time>
      </trkpt>
      <trkpt lat="46.65358" lon="4.98101">
        <ele>131</ele>
        <time>2017-07-17T10:25:45Z</time>
      </trkpt>
      <trkpt lat="46.65406" lon="4.98091">
        <ele>130.80000305176</ele>
        <time>2017-07-17T10:25:52Z</time>
      </trkpt>
      <trkpt lat="46.65453" lon="4.98068">
        <ele>130.60000610352</ele>
        <time>2017-07-17T10:25:59Z</time>
      </trkpt>
      <trkpt lat="46.65504" lon="4.98029">
        <ele>130.19999694824</ele>
        <time>2017-07-17T10:26:07Z</time>
      </trkpt>
      <trkpt lat="46.65557" lon="4.9799">
        <ele>129.19999694824</ele>
        <time>2017-07-17T10:26:15Z</time>
      </trkpt>
      <trkpt lat="46.65564" lon="4.97986">
        <ele>129</ele>
        <time>2017-07-17T10:26:16Z</time>
      </trkpt>
      <trkpt lat="46.65583" lon="4.97972">
        <ele>128.60000610352</ele>
        <time>2017-07-17T10:26:19Z</time>
      </trkpt>
      <trkpt lat="46.65615" lon="4.97952">
        <ele>128.19999694824</ele>
        <time>2017-07-17T10:26:24Z</time>
      </trkpt>
      <trkpt lat="46.65622" lon="4.97949">
        <ele>128</ele>
        <time>2017-07-17T10:26:25Z</time>
      </trkpt>
      <trkpt lat="46.65669" lon="4.97932">
        <ele>127.19999694824</ele>
        <time>2017-07-17T10:26:32Z</time>
      </trkpt>
      <trkpt lat="46.65675" lon="4.9793">
        <ele>127</ele>
        <time>2017-07-17T10:26:33Z</time>
      </trkpt>
      <trkpt lat="46.65722" lon="4.97915">
        <ele>126.59999847412</ele>
        <time>2017-07-17T10:26:40Z</time>
      </trkpt>
      <trkpt lat="46.6577" lon="4.97899">
        <ele>125.80000305176</ele>
        <time>2017-07-17T10:26:47Z</time>
      </trkpt>
      <trkpt lat="46.65777" lon="4.97897">
        <ele>125.59999847412</ele>
        <time>2017-07-17T10:26:48Z</time>
      </trkpt>
      <trkpt lat="46.65808" lon="4.97893">
        <ele>124.80000305176</ele>
        <time>2017-07-17T10:26:52Z</time>
      </trkpt>
      <trkpt lat="46.65825" lon="4.97892">
        <ele>124.19999694824</ele>
        <time>2017-07-17T10:26:54Z</time>
      </trkpt>
      <trkpt lat="46.65842" lon="4.9789">
        <ele>123.59999847412</ele>
        <time>2017-07-17T10:26:56Z</time>
      </trkpt>
      <trkpt lat="46.6587" lon="4.97888">
        <ele>122.19999694824</ele>
        <time>2017-07-17T10:26:59Z</time>
      </trkpt>
      <trkpt lat="46.6588" lon="4.97887">
        <ele>122</ele>
        <time>2017-07-17T10:27:00Z</time>
      </trkpt>
      <trkpt lat="46.65899" lon="4.97886">
        <ele>121.19999694824</ele>
        <time>2017-07-17T10:27:02Z</time>
      </trkpt>
      <trkpt lat="46.65929" lon="4.97883">
        <ele>119.59999847412</ele>
        <time>2017-07-17T10:27:05Z</time>
      </trkpt>
      <trkpt lat="46.65949" lon="4.97882">
        <ele>118.59999847412</ele>
        <time>2017-07-17T10:27:07Z</time>
      </trkpt>
      <trkpt lat="46.65979" lon="4.9788">
        <ele>117.19999694824</ele>
        <time>2017-07-17T10:27:10Z</time>
      </trkpt>
      <trkpt lat="46.66007" lon="4.97879">
        <ele>116.19999694824</ele>
        <time>2017-07-17T10:27:13Z</time>
      </trkpt>
      <trkpt lat="46.66025" lon="4.97877">
        <ele>115.59999847412</ele>
        <time>2017-07-17T10:27:15Z</time>
      </trkpt>
      <trkpt lat="46.66067" lon="4.97874">
        <ele>115</ele>
        <time>2017-07-17T10:27:20Z</time>
      </trkpt>
      <trkpt lat="46.66091" lon="4.97872">
        <ele>114.80000305176</ele>
        <time>2017-07-17T10:27:23Z</time>
      </trkpt>
      <trkpt lat="46.66099" lon="4.97872">
        <ele>114.80000305176</ele>
        <time>2017-07-17T10:27:24Z</time>
      </trkpt>
      <trkpt lat="46.66158" lon="4.97867">
        <ele>114.40000152588</ele>
        <time>2017-07-17T10:27:32Z</time>
      </trkpt>
      <trkpt lat="46.66165" lon="4.97866">
        <ele>114.40000152588</ele>
        <time>2017-07-17T10:27:33Z</time>
      </trkpt>
      <trkpt lat="46.66221" lon="4.97862">
        <ele>114.19999694824</ele>
        <time>2017-07-17T10:27:41Z</time>
      </trkpt>
      <trkpt lat="46.66235" lon="4.97861">
        <ele>114</ele>
        <time>2017-07-17T10:27:43Z</time>
      </trkpt>
      <trkpt lat="46.66242" lon="4.9786">
        <ele>114</ele>
        <time>2017-07-17T10:27:44Z</time>
      </trkpt>
      <trkpt lat="46.66302" lon="4.97856">
        <ele>113.80000305176</ele>
        <time>2017-07-17T10:27:53Z</time>
      </trkpt>
      <trkpt lat="46.6636" lon="4.97851">
        <ele>114.19999694824</ele>
        <time>2017-07-17T10:28:02Z</time>
      </trkpt>
      <trkpt lat="46.66407" lon="4.97847">
        <ele>114.59999847412</ele>
        <time>2017-07-17T10:28:10Z</time>
      </trkpt>
      <trkpt lat="46.66443" lon="4.97844">
        <ele>115</ele>
        <time>2017-07-17T10:28:17Z</time>
      </trkpt>
      <trkpt lat="46.66453" lon="4.97843">
        <ele>115.19999694824</ele>
        <time>2017-07-17T10:28:19Z</time>
      </trkpt>
      <trkpt lat="46.6648" lon="4.97841">
        <ele>116.19999694824</ele>
        <time>2017-07-17T10:28:25Z</time>
      </trkpt>
      <trkpt lat="46.66488" lon="4.97841">
        <ele>116.59999847412</ele>
        <time>2017-07-17T10:28:27Z</time>
      </trkpt>
      <trkpt lat="46.66504" lon="4.97839">
        <ele>117.40000152588</ele>
        <time>2017-07-17T10:28:31Z</time>
      </trkpt>
      <trkpt lat="46.66525" lon="4.97837">
        <ele>118.40000152588</ele>
        <time>2017-07-17T10:28:36Z</time>
      </trkpt>
      <trkpt lat="46.66529" lon="4.97837">
        <ele>118.59999847412</ele>
        <time>2017-07-17T10:28:37Z</time>
      </trkpt>
      <trkpt lat="46.66557" lon="4.97835">
        <ele>119.59999847412</ele>
        <time>2017-07-17T10:28:44Z</time>
      </trkpt>
      <trkpt lat="46.66564" lon="4.97834">
        <ele>119.80000305176</ele>
        <time>2017-07-17T10:28:46Z</time>
      </trkpt>
      <trkpt lat="46.66584" lon="4.97832">
        <ele>120.59999847412</ele>
        <time>2017-07-17T10:28:51Z</time>
      </trkpt>
      <trkpt lat="46.66602" lon="4.97831">
        <ele>121.40000152588</ele>
        <time>2017-07-17T10:28:56Z</time>
      </trkpt>
      <trkpt lat="46.66606" lon="4.97831">
        <ele>121.80000305176</ele>
        <time>2017-07-17T10:28:57Z</time>
      </trkpt>
      <trkpt lat="46.66628" lon="4.97829">
        <ele>122.80000305176</ele>
        <time>2017-07-17T10:29:03Z</time>
      </trkpt>
      <trkpt lat="46.66635" lon="4.97828">
        <ele>123</ele>
        <time>2017-07-17T10:29:05Z</time>
      </trkpt>
      <trkpt lat="46.66655" lon="4.97826">
        <ele>123.80000305176</ele>
        <time>2017-07-17T10:29:10Z</time>
      </trkpt>
      <trkpt lat="46.6667" lon="4.97825">
        <ele>124.40000152588</ele>
        <time>2017-07-17T10:29:14Z</time>
      </trkpt>
      <trkpt lat="46.66686" lon="4.97824">
        <ele>125</ele>
        <time>2017-07-17T10:29:18Z</time>
      </trkpt>
      <trkpt lat="46.66707" lon="4.97822">
        <ele>126</ele>
        <time>2017-07-17T10:29:24Z</time>
      </trkpt>
      <trkpt lat="46.66734" lon="4.9782">
        <ele>127.19999694824</ele>
        <time>2017-07-17T10:29:31Z</time>
      </trkpt>
      <trkpt lat="46.66737" lon="4.9782">
        <ele>127.40000152588</ele>
        <time>2017-07-17T10:29:32Z</time>
      </trkpt>
      <trkpt lat="46.66779" lon="4.97817">
        <ele>128</ele>
        <time>2017-07-17T10:29:42Z</time>
      </trkpt>
      <trkpt lat="46.66792" lon="4.97815">
        <ele>128.39999389648</ele>
        <time>2017-07-17T10:29:45Z</time>
      </trkpt>
      <trkpt lat="46.66823" lon="4.97813">
        <ele>128.80000305176</ele>
        <time>2017-07-17T10:29:52Z</time>
      </trkpt>
      <trkpt lat="46.66865" lon="4.9781">
        <ele>129</ele>
        <time>2017-07-17T10:30:01Z</time>
      </trkpt>
      <trkpt lat="46.66916" lon="4.97806">
        <ele>129.19999694824</ele>
        <time>2017-07-17T10:30:11Z</time>
      </trkpt>
      <trkpt lat="46.66963" lon="4.97803">
        <ele>129</ele>
        <time>2017-07-17T10:30:20Z</time>
      </trkpt>
      <trkpt lat="46.67007" lon="4.97799">
        <ele>128.80000305176</ele>
        <time>2017-07-17T10:30:28Z</time>
      </trkpt>
      <trkpt lat="46.67058" lon="4.97794">
        <ele>127.59999847412</ele>
        <time>2017-07-17T10:30:36Z</time>
      </trkpt>
      <trkpt lat="46.67079" lon="4.97793">
        <ele>127.19999694824</ele>
        <time>2017-07-17T10:30:39Z</time>
      </trkpt>
      <trkpt lat="46.67115" lon="4.9779">
        <ele>126.19999694824</ele>
        <time>2017-07-17T10:30:44Z</time>
      </trkpt>
      <trkpt lat="46.67123" lon="4.97789">
        <ele>126</ele>
        <time>2017-07-17T10:30:45Z</time>
      </trkpt>
      <trkpt lat="46.67173" lon="4.97784">
        <ele>125</ele>
        <time>2017-07-17T10:30:52Z</time>
      </trkpt>
      <trkpt lat="46.67225" lon="4.97779">
        <ele>124.80000305176</ele>
        <time>2017-07-17T10:31:00Z</time>
      </trkpt>
      <trkpt lat="46.6728" lon="4.97775">
        <ele>125.19999694824</ele>
        <time>2017-07-17T10:31:09Z</time>
      </trkpt>
      <trkpt lat="46.67338" lon="4.9777">
        <ele>125.40000152588</ele>
        <time>2017-07-17T10:31:18Z</time>
      </trkpt>
      <trkpt lat="46.6739" lon="4.97766">
        <ele>125.19999694824</ele>
        <time>2017-07-17T10:31:26Z</time>
      </trkpt>
      <trkpt lat="46.67435" lon="4.97764">
        <ele>124.80000305176</ele>
        <time>2017-07-17T10:31:33Z</time>
      </trkpt>
      <trkpt lat="46.6749" lon="4.97759">
        <ele>125.19999694824</ele>
        <time>2017-07-17T10:31:42Z</time>
      </trkpt>
      <trkpt lat="46.6754" lon="4.97754">
        <ele>125.40000152588</ele>
        <time>2017-07-17T10:31:51Z</time>
      </trkpt>
      <trkpt lat="46.6758" lon="4.9775">
        <ele>125.59999847412</ele>
        <time>2017-07-17T10:31:58Z</time>
      </trkpt>
      <trkpt lat="46.67618" lon="4.97746">
        <ele>125.80000305176</ele>
        <time>2017-07-17T10:32:05Z</time>
      </trkpt>
      <trkpt lat="46.67629" lon="4.97746">
        <ele>126</ele>
        <time>2017-07-17T10:32:07Z</time>
      </trkpt>
      <trkpt lat="46.6766" lon="4.97742">
        <ele>126.19999694824</ele>
        <time>2017-07-17T10:32:13Z</time>
      </trkpt>
      <trkpt lat="46.67702" lon="4.97732">
        <ele>126.80000305176</ele>
        <time>2017-07-17T10:32:21Z</time>
      </trkpt>
      <trkpt lat="46.67712" lon="4.9773">
        <ele>126.80000305176</ele>
        <time>2017-07-17T10:32:23Z</time>
      </trkpt>
      <trkpt lat="46.67728" lon="4.97729">
        <ele>126.80000305176</ele>
        <time>2017-07-17T10:32:26Z</time>
      </trkpt>
      <trkpt lat="46.67734" lon="4.97728">
        <ele>126.80000305176</ele>
        <time>2017-07-17T10:32:27Z</time>
      </trkpt>
      <trkpt lat="46.67768" lon="4.97721">
        <ele>127</ele>
        <time>2017-07-17T10:32:33Z</time>
      </trkpt>
      <trkpt lat="46.67773" lon="4.9772">
        <ele>127</ele>
        <time>2017-07-17T10:32:34Z</time>
      </trkpt>
      <trkpt lat="46.67816" lon="4.9771">
        <ele>127</ele>
        <time>2017-07-17T10:32:41Z</time>
      </trkpt>
      <trkpt lat="46.67858" lon="4.97701">
        <ele>126.59999847412</ele>
        <time>2017-07-17T10:32:48Z</time>
      </trkpt>
      <trkpt lat="46.67914" lon="4.9769">
        <ele>126.59999847412</ele>
        <time>2017-07-17T10:32:57Z</time>
      </trkpt>
      <trkpt lat="46.67973" lon="4.97679">
        <ele>126</ele>
        <time>2017-07-17T10:33:06Z</time>
      </trkpt>
      <trkpt lat="46.67993" lon="4.97676">
        <ele>126</ele>
        <time>2017-07-17T10:33:09Z</time>
      </trkpt>
      <trkpt lat="46.68" lon="4.97675">
        <ele>125.80000305176</ele>
        <time>2017-07-17T10:33:10Z</time>
      </trkpt>
      <trkpt lat="46.68032" lon="4.97669">
        <ele>125.59999847412</ele>
        <time>2017-07-17T10:33:15Z</time>
      </trkpt>
      <trkpt lat="46.68092" lon="4.97658">
        <ele>125.40000152588</ele>
        <time>2017-07-17T10:33:24Z</time>
      </trkpt>
      <trkpt lat="46.68111" lon="4.97654">
        <ele>125.40000152588</ele>
        <time>2017-07-17T10:33:27Z</time>
      </trkpt>
      <trkpt lat="46.68169" lon="4.97642">
        <ele>125</ele>
        <time>2017-07-17T10:33:36Z</time>
      </trkpt>
      <trkpt lat="46.68183" lon="4.9764">
        <ele>125</ele>
        <time>2017-07-17T10:33:38Z</time>
      </trkpt>
      <trkpt lat="46.68189" lon="4.97638">
        <ele>124.80000305176</ele>
        <time>2017-07-17T10:33:39Z</time>
      </trkpt>
      <trkpt lat="46.68248" lon="4.97626">
        <ele>124.80000305176</ele>
        <time>2017-07-17T10:33:48Z</time>
      </trkpt>
      <trkpt lat="46.68268" lon="4.97623">
        <ele>124.19999694824</ele>
        <time>2017-07-17T10:33:51Z</time>
      </trkpt>
      <trkpt lat="46.68308" lon="4.97615">
        <ele>124</ele>
        <time>2017-07-17T10:33:57Z</time>
      </trkpt>
      <trkpt lat="46.68327" lon="4.97611">
        <ele>123.80000305176</ele>
        <time>2017-07-17T10:34:00Z</time>
      </trkpt>
      <trkpt lat="46.6838" lon="4.97601">
        <ele>123.40000152588</ele>
        <time>2017-07-17T10:34:08Z</time>
      </trkpt>
      <trkpt lat="46.68433" lon="4.9759">
        <ele>123</ele>
        <time>2017-07-17T10:34:16Z</time>
      </trkpt>
      <trkpt lat="46.68486" lon="4.9758">
        <ele>123</ele>
        <time>2017-07-17T10:34:24Z</time>
      </trkpt>
      <trkpt lat="46.68492" lon="4.97579">
        <ele>122.80000305176</ele>
        <time>2017-07-17T10:34:25Z</time>
      </trkpt>
      <trkpt lat="46.68549" lon="4.97567">
        <ele>122.40000152588</ele>
        <time>2017-07-17T10:34:34Z</time>
      </trkpt>
      <trkpt lat="46.68598" lon="4.97557">
        <ele>121.80000305176</ele>
        <time>2017-07-17T10:34:42Z</time>
      </trkpt>
      <trkpt lat="46.68605" lon="4.97556">
        <ele>121.80000305176</ele>
        <time>2017-07-17T10:34:43Z</time>
      </trkpt>
      <trkpt lat="46.68661" lon="4.97545">
        <ele>121</ele>
        <time>2017-07-17T10:34:52Z</time>
      </trkpt>
      <trkpt lat="46.68668" lon="4.97543">
        <ele>121</ele>
        <time>2017-07-17T10:34:53Z</time>
      </trkpt>
      <trkpt lat="46.68694" lon="4.97537">
        <ele>120.80000305176</ele>
        <time>2017-07-17T10:34:57Z</time>
      </trkpt>
      <trkpt lat="46.68713" lon="4.97532">
        <ele>120.80000305176</ele>
        <time>2017-07-17T10:35:00Z</time>
      </trkpt>
      <trkpt lat="46.68746" lon="4.97528">
        <ele>120.40000152588</ele>
        <time>2017-07-17T10:35:05Z</time>
      </trkpt>
      <trkpt lat="46.68752" lon="4.97527">
        <ele>120.19999694824</ele>
        <time>2017-07-17T10:35:06Z</time>
      </trkpt>
      <trkpt lat="46.68809" lon="4.97516">
        <ele>119.80000305176</ele>
        <time>2017-07-17T10:35:15Z</time>
      </trkpt>
      <trkpt lat="46.68815" lon="4.97515">
        <ele>119.59999847412</ele>
        <time>2017-07-17T10:35:16Z</time>
      </trkpt>
      <trkpt lat="46.68865" lon="4.97506">
        <ele>119</ele>
        <time>2017-07-17T10:35:24Z</time>
      </trkpt>
      <trkpt lat="46.68908" lon="4.97498">
        <ele>118.80000305176</ele>
        <time>2017-07-17T10:35:31Z</time>
      </trkpt>
      <trkpt lat="46.68957" lon="4.97488">
        <ele>118.40000152588</ele>
        <time>2017-07-17T10:35:39Z</time>
      </trkpt>
      <trkpt lat="46.6901" lon="4.97477">
        <ele>118.19999694824</ele>
        <time>2017-07-17T10:35:48Z</time>
      </trkpt>
      <trkpt lat="46.69064" lon="4.97467">
        <ele>118</ele>
        <time>2017-07-17T10:35:57Z</time>
      </trkpt>
      <trkpt lat="46.6907" lon="4.97466">
        <ele>118</ele>
        <time>2017-07-17T10:35:58Z</time>
      </trkpt>
      <trkpt lat="46.69089" lon="4.97461">
        <ele>117.80000305176</ele>
        <time>2017-07-17T10:36:01Z</time>
      </trkpt>
      <trkpt lat="46.69128" lon="4.97454">
        <ele>117.19999694824</ele>
        <time>2017-07-17T10:36:07Z</time>
      </trkpt>
      <trkpt lat="46.69159" lon="4.97447">
        <ele>116.80000305176</ele>
        <time>2017-07-17T10:36:12Z</time>
      </trkpt>
      <trkpt lat="46.69178" lon="4.97443">
        <ele>116.59999847412</ele>
        <time>2017-07-17T10:36:15Z</time>
      </trkpt>
      <trkpt lat="46.69222" lon="4.97433">
        <ele>115.80000305176</ele>
        <time>2017-07-17T10:36:22Z</time>
      </trkpt>
      <trkpt lat="46.69234" lon="4.9743">
        <ele>115.59999847412</ele>
        <time>2017-07-17T10:36:24Z</time>
      </trkpt>
      <trkpt lat="46.69277" lon="4.97421">
        <ele>115</ele>
        <time>2017-07-17T10:36:31Z</time>
      </trkpt>
      <trkpt lat="46.69329" lon="4.9741">
        <ele>115</ele>
        <time>2017-07-17T10:36:40Z</time>
      </trkpt>
      <trkpt lat="46.69368" lon="4.97402">
        <ele>115</ele>
        <time>2017-07-17T10:36:47Z</time>
      </trkpt>
      <trkpt lat="46.69421" lon="4.9739">
        <ele>114.59999847412</ele>
        <time>2017-07-17T10:36:56Z</time>
      </trkpt>
      <trkpt lat="46.69468" lon="4.97382">
        <ele>114.80000305176</ele>
        <time>2017-07-17T10:37:04Z</time>
      </trkpt>
      <trkpt lat="46.69522" lon="4.97371">
        <ele>115</ele>
        <time>2017-07-17T10:37:13Z</time>
      </trkpt>
      <trkpt lat="46.69577" lon="4.97359">
        <ele>114.80000305176</ele>
        <time>2017-07-17T10:37:22Z</time>
      </trkpt>
      <trkpt lat="46.69583" lon="4.97357">
        <ele>114.80000305176</ele>
        <time>2017-07-17T10:37:23Z</time>
      </trkpt>
      <trkpt lat="46.69589" lon="4.97356">
        <ele>114.80000305176</ele>
        <time>2017-07-17T10:37:24Z</time>
      </trkpt>
      <trkpt lat="46.69613" lon="4.97352">
        <ele>114.80000305176</ele>
        <time>2017-07-17T10:37:28Z</time>
      </trkpt>
      <trkpt lat="46.6966" lon="4.97343">
        <ele>114.80000305176</ele>
        <time>2017-07-17T10:37:36Z</time>
      </trkpt>
      <trkpt lat="46.69711" lon="4.97333">
        <ele>115.40000152588</ele>
        <time>2017-07-17T10:37:45Z</time>
      </trkpt>
      <trkpt lat="46.69733" lon="4.97329">
        <ele>115.80000305176</ele>
        <time>2017-07-17T10:37:49Z</time>
      </trkpt>
      <trkpt lat="46.69755" lon="4.97322">
        <ele>115.80000305176</ele>
        <time>2017-07-17T10:37:53Z</time>
      </trkpt>
      <trkpt lat="46.6976" lon="4.97322">
        <ele>116</ele>
        <time>2017-07-17T10:37:54Z</time>
      </trkpt>
      <trkpt lat="46.69768" lon="4.97321">
        <ele>116.19999694824</ele>
        <time>2017-07-17T10:37:56Z</time>
      </trkpt>
      <trkpt lat="46.69772" lon="4.97321">
        <ele>116.40000152588</ele>
        <time>2017-07-17T10:37:57Z</time>
      </trkpt>
      <trkpt lat="46.69783" lon="4.97318">
        <ele>116.80000305176</ele>
        <time>2017-07-17T10:38:00Z</time>
      </trkpt>
      <trkpt lat="46.69795" lon="4.97317">
        <ele>117.19999694824</ele>
        <time>2017-07-17T10:38:04Z</time>
      </trkpt>
      <trkpt lat="46.69805" lon="4.97312">
        <ele>117.59999847412</ele>
        <time>2017-07-17T10:38:09Z</time>
      </trkpt>
      <trkpt lat="46.69803" lon="4.9731">
        <ele>117.80000305176</ele>
        <time>2017-07-17T10:38:10Z</time>
      </trkpt>
      <trkpt lat="46.69793" lon="4.97312">
        <ele>117.80000305176</ele>
        <time>2017-07-17T10:38:13Z</time>
      </trkpt>
      <trkpt lat="46.6977" lon="4.97319">
        <ele>117.59999847412</ele>
        <time>2017-07-17T10:38:18Z</time>
      </trkpt>
      <trkpt lat="46.69746" lon="4.97326">
        <ele>117.19999694824</ele>
        <time>2017-07-17T10:38:23Z</time>
      </trkpt>
      <trkpt lat="46.69743" lon="4.97332">
        <ele>117</ele>
        <time>2017-07-17T10:38:24Z</time>
      </trkpt>
      <trkpt lat="46.69741" lon="4.97357">
        <ele>116.80000305176</ele>
        <time>2017-07-17T10:38:27Z</time>
      </trkpt>
      <trkpt lat="46.69743" lon="4.97376">
        <ele>116.59999847412</ele>
        <time>2017-07-17T10:38:29Z</time>
      </trkpt>
      <trkpt lat="46.69744" lon="4.97403">
        <ele>115.80000305176</ele>
        <time>2017-07-17T10:38:32Z</time>
      </trkpt>
      <trkpt lat="46.69745" lon="4.97411">
        <ele>115.40000152588</ele>
        <time>2017-07-17T10:38:33Z</time>
      </trkpt>
      <trkpt lat="46.69746" lon="4.97451">
        <ele>114.80000305176</ele>
        <time>2017-07-17T10:38:38Z</time>
      </trkpt>
      <trkpt lat="46.69748" lon="4.97458">
        <ele>114.59999847412</ele>
        <time>2017-07-17T10:38:39Z</time>
      </trkpt>
      <trkpt lat="46.6976" lon="4.97479">
        <ele>114.59999847412</ele>
        <time>2017-07-17T10:38:43Z</time>
      </trkpt>
      <trkpt lat="46.69771" lon="4.97492">
        <ele>114.40000152588</ele>
        <time>2017-07-17T10:38:48Z</time>
      </trkpt>
      <trkpt lat="46.69772" lon="4.97491">
        <ele>114.40000152588</ele>
        <time>2017-07-17T10:38:49Z</time>
      </trkpt>
      <trkpt lat="46.69773" lon="4.97486">
        <ele>114.40000152588</ele>
        <time>2017-07-17T10:38:52Z</time>
      </trkpt>
      <trkpt lat="46.69775" lon="4.97476">
        <ele>114</ele>
        <time>2017-07-17T10:38:58Z</time>
      </trkpt>
      <trkpt lat="46.69775" lon="4.97471">
        <ele>118.80000305176</ele>
        <time>2017-07-17T11:57:11Z</time>
      </trkpt>
      <trkpt lat="46.69765" lon="4.97472">
        <ele>119.19999694824</ele>
        <time>2017-07-17T11:58:25Z</time>
      </trkpt>
      <trkpt lat="46.69759" lon="4.97469">
        <ele>119.19999694824</ele>
        <time>2017-07-17T11:58:28Z</time>
      </trkpt>
      <trkpt lat="46.69754" lon="4.97457">
        <ele>119.19999694824</ele>
        <time>2017-07-17T11:58:32Z</time>
      </trkpt>
      <trkpt lat="46.69752" lon="4.97453">
        <ele>119.19999694824</ele>
        <time>2017-07-17T11:58:33Z</time>
      </trkpt>
      <trkpt lat="46.69748" lon="4.97429">
        <ele>119.40000152588</ele>
        <time>2017-07-17T11:58:39Z</time>
      </trkpt>
      <trkpt lat="46.69746" lon="4.97396">
        <ele>119.59999847412</ele>
        <time>2017-07-17T11:58:47Z</time>
      </trkpt>
      <trkpt lat="46.69745" lon="4.9737">
        <ele>119.59999847412</ele>
        <time>2017-07-17T11:58:53Z</time>
      </trkpt>
      <trkpt lat="46.69745" lon="4.97366">
        <ele>119.59999847412</ele>
        <time>2017-07-17T11:58:54Z</time>
      </trkpt>
      <trkpt lat="46.69745" lon="4.97353">
        <ele>119.80000305176</ele>
        <time>2017-07-17T11:58:57Z</time>
      </trkpt>
      <trkpt lat="46.69745" lon="4.97349">
        <ele>119.80000305176</ele>
        <time>2017-07-17T11:58:58Z</time>
      </trkpt>
      <trkpt lat="46.69745" lon="4.97345">
        <ele>119.80000305176</ele>
        <time>2017-07-17T11:58:59Z</time>
      </trkpt>
      <trkpt lat="46.69744" lon="4.9733">
        <ele>120.19999694824</ele>
        <time>2017-07-17T11:59:04Z</time>
      </trkpt>
      <trkpt lat="46.69747" lon="4.97326">
        <ele>120.59999847412</ele>
        <time>2017-07-17T11:59:06Z</time>
      </trkpt>
      <trkpt lat="46.69752" lon="4.97326">
        <ele>120.80000305176</ele>
        <time>2017-07-17T11:59:08Z</time>
      </trkpt>
      <trkpt lat="46.69769" lon="4.97323">
        <ele>121.59999847412</ele>
        <time>2017-07-17T11:59:14Z</time>
      </trkpt>
      <trkpt lat="46.69784" lon="4.97319">
        <ele>122</ele>
        <time>2017-07-17T11:59:19Z</time>
      </trkpt>
      <trkpt lat="46.69796" lon="4.97317">
        <ele>122.19999694824</ele>
        <time>2017-07-17T11:59:23Z</time>
      </trkpt>
      <trkpt lat="46.69818" lon="4.97313">
        <ele>122.80000305176</ele>
        <time>2017-07-17T11:59:30Z</time>
      </trkpt>
      <trkpt lat="46.69821" lon="4.97312">
        <ele>123</ele>
        <time>2017-07-17T11:59:31Z</time>
      </trkpt>
      <trkpt lat="46.69845" lon="4.97305">
        <ele>123.59999847412</ele>
        <time>2017-07-17T11:59:38Z</time>
      </trkpt>
      <trkpt lat="46.69864" lon="4.97295">
        <ele>124</ele>
        <time>2017-07-17T11:59:44Z</time>
      </trkpt>
      <trkpt lat="46.69886" lon="4.97278">
        <ele>124.59999847412</ele>
        <time>2017-07-17T11:59:51Z</time>
      </trkpt>
      <trkpt lat="46.69892" lon="4.97272">
        <ele>124.59999847412</ele>
        <time>2017-07-17T11:59:53Z</time>
      </trkpt>
      <trkpt lat="46.69905" lon="4.97262">
        <ele>125</ele>
        <time>2017-07-17T11:59:57Z</time>
      </trkpt>
      <trkpt lat="46.69918" lon="4.97251">
        <ele>125.40000152588</ele>
        <time>2017-07-17T12:00:01Z</time>
      </trkpt>
      <trkpt lat="46.69941" lon="4.97232">
        <ele>126</ele>
        <time>2017-07-17T12:00:08Z</time>
      </trkpt>
      <trkpt lat="46.69945" lon="4.97229">
        <ele>126.19999694824</ele>
        <time>2017-07-17T12:00:09Z</time>
      </trkpt>
      <trkpt lat="46.69974" lon="4.97205">
        <ele>126.40000152588</ele>
        <time>2017-07-17T12:00:17Z</time>
      </trkpt>
      <trkpt lat="46.70008" lon="4.97177">
        <ele>126.59999847412</ele>
        <time>2017-07-17T12:00:26Z</time>
      </trkpt>
      <trkpt lat="46.70049" lon="4.97144">
        <ele>127</ele>
        <time>2017-07-17T12:00:36Z</time>
      </trkpt>
      <trkpt lat="46.70072" lon="4.97124">
        <ele>127</ele>
        <time>2017-07-17T12:00:42Z</time>
      </trkpt>
      <trkpt lat="46.70081" lon="4.97117">
        <ele>127.19999694824</ele>
        <time>2017-07-17T12:00:44Z</time>
      </trkpt>
      <trkpt lat="46.70085" lon="4.97114">
        <ele>127.19999694824</ele>
        <time>2017-07-17T12:00:45Z</time>
      </trkpt>
      <trkpt lat="46.70122" lon="4.97084">
        <ele>127.59999847412</ele>
        <time>2017-07-17T12:00:54Z</time>
      </trkpt>
      <trkpt lat="46.70154" lon="4.97058">
        <ele>128.19999694824</ele>
        <time>2017-07-17T12:01:02Z</time>
      </trkpt>
      <trkpt lat="46.70162" lon="4.97052">
        <ele>128.19999694824</ele>
        <time>2017-07-17T12:01:04Z</time>
      </trkpt>
      <trkpt lat="46.70199" lon="4.97018">
        <ele>128.60000610352</ele>
        <time>2017-07-17T12:01:14Z</time>
      </trkpt>
      <trkpt lat="46.70229" lon="4.96992">
        <ele>128.80000305176</ele>
        <time>2017-07-17T12:01:22Z</time>
      </trkpt>
      <trkpt lat="46.70237" lon="4.96986">
        <ele>128.80000305176</ele>
        <time>2017-07-17T12:01:24Z</time>
      </trkpt>
      <trkpt lat="46.70245" lon="4.96981">
        <ele>128.80000305176</ele>
        <time>2017-07-17T12:01:26Z</time>
      </trkpt>
      <trkpt lat="46.70262" lon="4.96969">
        <ele>129</ele>
        <time>2017-07-17T12:01:30Z</time>
      </trkpt>
      <trkpt lat="46.70282" lon="4.96953">
        <ele>129.19999694824</ele>
        <time>2017-07-17T12:01:35Z</time>
      </trkpt>
      <trkpt lat="46.70299" lon="4.96941">
        <ele>129.39999389648</ele>
        <time>2017-07-17T12:01:39Z</time>
      </trkpt>
      <trkpt lat="46.70336" lon="4.96911">
        <ele>129.39999389648</ele>
        <time>2017-07-17T12:01:48Z</time>
      </trkpt>
      <trkpt lat="46.70369" lon="4.96883">
        <ele>129.80000305176</ele>
        <time>2017-07-17T12:01:56Z</time>
      </trkpt>
      <trkpt lat="46.70395" lon="4.96862">
        <ele>129.80000305176</ele>
        <time>2017-07-17T12:02:02Z</time>
      </trkpt>
      <trkpt lat="46.70412" lon="4.96847">
        <ele>130</ele>
        <time>2017-07-17T12:02:06Z</time>
      </trkpt>
      <trkpt lat="46.70442" lon="4.96822">
        <ele>130.19999694824</ele>
        <time>2017-07-17T12:02:13Z</time>
      </trkpt>
      <trkpt lat="46.70454" lon="4.96811">
        <ele>130.39999389648</ele>
        <time>2017-07-17T12:02:16Z</time>
      </trkpt>
      <trkpt lat="46.70499" lon="4.9677">
        <ele>131</ele>
        <time>2017-07-17T12:02:27Z</time>
      </trkpt>
      <trkpt lat="46.70535" lon="4.96745">
        <ele>131.19999694824</ele>
        <time>2017-07-17T12:02:35Z</time>
      </trkpt>
      <trkpt lat="46.70559" lon="4.96739">
        <ele>131.19999694824</ele>
        <time>2017-07-17T12:02:40Z</time>
      </trkpt>
      <trkpt lat="46.70564" lon="4.9674">
        <ele>131.19999694824</ele>
        <time>2017-07-17T12:02:41Z</time>
      </trkpt>
      <trkpt lat="46.70569" lon="4.96741">
        <ele>131.19999694824</ele>
        <time>2017-07-17T12:02:42Z</time>
      </trkpt>
      <trkpt lat="46.70579" lon="4.96743">
        <ele>131.39999389648</ele>
        <time>2017-07-17T12:02:44Z</time>
      </trkpt>
      <trkpt lat="46.70596" lon="4.96751">
        <ele>131.60000610352</ele>
        <time>2017-07-17T12:02:48Z</time>
      </trkpt>
      <trkpt lat="46.70627" lon="4.96771">
        <ele>131.80000305176</ele>
        <time>2017-07-17T12:02:56Z</time>
      </trkpt>
      <trkpt lat="46.70645" lon="4.96781">
        <ele>131.80000305176</ele>
        <time>2017-07-17T12:03:02Z</time>
      </trkpt>
      <trkpt lat="46.70656" lon="4.96777">
        <ele>132</ele>
        <time>2017-07-17T12:03:05Z</time>
      </trkpt>
      <trkpt lat="46.70659" lon="4.96774">
        <ele>132</ele>
        <time>2017-07-17T12:03:06Z</time>
      </trkpt>
      <trkpt lat="46.70667" lon="4.96759">
        <ele>132</ele>
        <time>2017-07-17T12:03:09Z</time>
      </trkpt>
      <trkpt lat="46.70673" lon="4.96748">
        <ele>131.80000305176</ele>
        <time>2017-07-17T12:03:11Z</time>
      </trkpt>
      <trkpt lat="46.70695" lon="4.96705">
        <ele>131.80000305176</ele>
        <time>2017-07-17T12:03:18Z</time>
      </trkpt>
      <trkpt lat="46.70726" lon="4.96644">
        <ele>132</ele>
        <time>2017-07-17T12:03:28Z</time>
      </trkpt>
      <trkpt lat="46.70756" lon="4.9659">
        <ele>132.19999694824</ele>
        <time>2017-07-17T12:03:37Z</time>
      </trkpt>
      <trkpt lat="46.70776" lon="4.9655">
        <ele>132</ele>
        <time>2017-07-17T12:03:44Z</time>
      </trkpt>
      <trkpt lat="46.7078" lon="4.96537">
        <ele>132</ele>
        <time>2017-07-17T12:03:49Z</time>
      </trkpt>
      <trkpt lat="46.70774" lon="4.96539">
        <ele>132</ele>
        <time>2017-07-17T12:03:52Z</time>
      </trkpt>
      <trkpt lat="46.70768" lon="4.96554">
        <ele>131.80000305176</ele>
        <time>2017-07-17T12:03:55Z</time>
      </trkpt>
      <trkpt lat="46.70766" lon="4.96559">
        <ele>132</ele>
        <time>2017-07-17T12:03:56Z</time>
      </trkpt>
      <trkpt lat="46.70747" lon="4.96597">
        <ele>132.19999694824</ele>
        <time>2017-07-17T12:04:03Z</time>
      </trkpt>
      <trkpt lat="46.70739" lon="4.96613">
        <ele>132.39999389648</ele>
        <time>2017-07-17T12:04:06Z</time>
      </trkpt>
      <trkpt lat="46.70721" lon="4.96647">
        <ele>132.60000610352</ele>
        <time>2017-07-17T12:04:12Z</time>
      </trkpt>
      <trkpt lat="46.70711" lon="4.9667">
        <ele>132.60000610352</ele>
        <time>2017-07-17T12:04:16Z</time>
      </trkpt>
      <trkpt lat="46.70717" lon="4.96682">
        <ele>132.39999389648</ele>
        <time>2017-07-17T12:04:18Z</time>
      </trkpt>
      <trkpt lat="46.70731" lon="4.96688">
        <ele>132.39999389648</ele>
        <time>2017-07-17T12:04:21Z</time>
      </trkpt>
      <trkpt lat="46.70741" lon="4.96687">
        <ele>132.19999694824</ele>
        <time>2017-07-17T12:04:23Z</time>
      </trkpt>
      <trkpt lat="46.70756" lon="4.96688">
        <ele>132.19999694824</ele>
        <time>2017-07-17T12:04:26Z</time>
      </trkpt>
      <trkpt lat="46.70761" lon="4.96687">
        <ele>132.19999694824</ele>
        <time>2017-07-17T12:04:27Z</time>
      </trkpt>
      <trkpt lat="46.70781" lon="4.96683">
        <ele>132.39999389648</ele>
        <time>2017-07-17T12:04:31Z</time>
      </trkpt>
      <trkpt lat="46.708" lon="4.96677">
        <ele>132.39999389648</ele>
        <time>2017-07-17T12:04:35Z</time>
      </trkpt>
      <trkpt lat="46.70805" lon="4.96675">
        <ele>132.39999389648</ele>
        <time>2017-07-17T12:04:36Z</time>
      </trkpt>
      <trkpt lat="46.70814" lon="4.96672">
        <ele>132.60000610352</ele>
        <time>2017-07-17T12:04:38Z</time>
      </trkpt>
      <trkpt lat="46.70838" lon="4.96667">
        <ele>132.60000610352</ele>
        <time>2017-07-17T12:04:43Z</time>
      </trkpt>
      <trkpt lat="46.70856" lon="4.96664">
        <ele>133</ele>
        <time>2017-07-17T12:04:47Z</time>
      </trkpt>
      <trkpt lat="46.70866" lon="4.96664">
        <ele>133</ele>
        <time>2017-07-17T12:04:49Z</time>
      </trkpt>
      <trkpt lat="46.70875" lon="4.96662">
        <ele>133</ele>
        <time>2017-07-17T12:04:51Z</time>
      </trkpt>
      <trkpt lat="46.7089" lon="4.96661">
        <ele>133.39999389648</ele>
        <time>2017-07-17T12:04:54Z</time>
      </trkpt>
      <trkpt lat="46.70915" lon="4.9666">
        <ele>133.60000610352</ele>
        <time>2017-07-17T12:04:59Z</time>
      </trkpt>
      <trkpt lat="46.70956" lon="4.96661">
        <ele>133.60000610352</ele>
        <time>2017-07-17T12:05:07Z</time>
      </trkpt>
      <trkpt lat="46.70996" lon="4.96661">
        <ele>133.60000610352</ele>
        <time>2017-07-17T12:05:15Z</time>
      </trkpt>
      <trkpt lat="46.71001" lon="4.9666">
        <ele>133.60000610352</ele>
        <time>2017-07-17T12:05:16Z</time>
      </trkpt>
      <trkpt lat="46.7101" lon="4.9666">
        <ele>133.39999389648</ele>
        <time>2017-07-17T12:05:18Z</time>
      </trkpt>
      <trkpt lat="46.71031" lon="4.96662">
        <ele>133.39999389648</ele>
        <time>2017-07-17T12:05:22Z</time>
      </trkpt>
      <trkpt lat="46.71064" lon="4.96666">
        <ele>133</ele>
        <time>2017-07-17T12:05:28Z</time>
      </trkpt>
      <trkpt lat="46.71089" lon="4.96663">
        <ele>132.80000305176</ele>
        <time>2017-07-17T12:05:33Z</time>
      </trkpt>
      <trkpt lat="46.71102" lon="4.96655">
        <ele>132.80000305176</ele>
        <time>2017-07-17T12:05:36Z</time>
      </trkpt>
      <trkpt lat="46.7111" lon="4.96648">
        <ele>133</ele>
        <time>2017-07-17T12:05:38Z</time>
      </trkpt>
      <trkpt lat="46.71118" lon="4.96641">
        <ele>133</ele>
        <time>2017-07-17T12:05:40Z</time>
      </trkpt>
      <trkpt lat="46.71126" lon="4.96632">
        <ele>133.19999694824</ele>
        <time>2017-07-17T12:05:42Z</time>
      </trkpt>
      <trkpt lat="46.7113" lon="4.96626">
        <ele>133.19999694824</ele>
        <time>2017-07-17T12:05:43Z</time>
      </trkpt>
      <trkpt lat="46.71159" lon="4.96587">
        <ele>133</ele>
        <time>2017-07-17T12:05:52Z</time>
      </trkpt>
      <trkpt lat="46.71167" lon="4.9658">
        <ele>133</ele>
        <time>2017-07-17T12:05:54Z</time>
      </trkpt>
      <trkpt lat="46.71182" lon="4.96568">
        <ele>133.19999694824</ele>
        <time>2017-07-17T12:05:58Z</time>
      </trkpt>
      <trkpt lat="46.71192" lon="4.96547">
        <ele>133.39999389648</ele>
        <time>2017-07-17T12:06:03Z</time>
      </trkpt>
      <trkpt lat="46.71193" lon="4.96527">
        <ele>133.39999389648</ele>
        <time>2017-07-17T12:06:07Z</time>
      </trkpt>
      <trkpt lat="46.71193" lon="4.96516">
        <ele>133.39999389648</ele>
        <time>2017-07-17T12:06:09Z</time>
      </trkpt>
      <trkpt lat="46.71197" lon="4.96507">
        <ele>133.39999389648</ele>
        <time>2017-07-17T12:06:11Z</time>
      </trkpt>
      <trkpt lat="46.71225" lon="4.96479">
        <ele>133.39999389648</ele>
        <time>2017-07-17T12:06:18Z</time>
      </trkpt>
      <trkpt lat="46.71232" lon="4.96471">
        <ele>133.39999389648</ele>
        <time>2017-07-17T12:06:20Z</time>
      </trkpt>
      <trkpt lat="46.71253" lon="4.96441">
        <ele>133.39999389648</ele>
        <time>2017-07-17T12:06:26Z</time>
      </trkpt>
      <trkpt lat="46.71278" lon="4.96406">
        <ele>133.39999389648</ele>
        <time>2017-07-17T12:06:33Z</time>
      </trkpt>
      <trkpt lat="46.71281" lon="4.96402">
        <ele>133.39999389648</ele>
        <time>2017-07-17T12:06:34Z</time>
      </trkpt>
      <trkpt lat="46.7129" lon="4.96395">
        <ele>133.60000610352</ele>
        <time>2017-07-17T12:06:36Z</time>
      </trkpt>
      <trkpt lat="46.71298" lon="4.9639">
        <ele>133.60000610352</ele>
        <time>2017-07-17T12:06:38Z</time>
      </trkpt>
      <trkpt lat="46.71336" lon="4.96377">
        <ele>133.80000305176</ele>
        <time>2017-07-17T12:06:46Z</time>
      </trkpt>
      <trkpt lat="46.71386" lon="4.96366">
        <ele>133.80000305176</ele>
        <time>2017-07-17T12:06:56Z</time>
      </trkpt>
      <trkpt lat="46.71426" lon="4.96359">
        <ele>133.80000305176</ele>
        <time>2017-07-17T12:07:04Z</time>
      </trkpt>
      <trkpt lat="46.71464" lon="4.96357">
        <ele>134.19999694824</ele>
        <time>2017-07-17T12:07:12Z</time>
      </trkpt>
      <trkpt lat="46.71474" lon="4.96356">
        <ele>134.39999389648</ele>
        <time>2017-07-17T12:07:14Z</time>
      </trkpt>
      <trkpt lat="46.71479" lon="4.96356">
        <ele>134.39999389648</ele>
        <time>2017-07-17T12:07:15Z</time>
      </trkpt>
      <trkpt lat="46.71513" lon="4.96353">
        <ele>134.60000610352</ele>
        <time>2017-07-17T12:07:22Z</time>
      </trkpt>
      <trkpt lat="46.71556" lon="4.96345">
        <ele>134.80000305176</ele>
        <time>2017-07-17T12:07:31Z</time>
      </trkpt>
      <trkpt lat="46.71589" lon="4.96333">
        <ele>134.39999389648</ele>
        <time>2017-07-17T12:07:38Z</time>
      </trkpt>
      <trkpt lat="46.71612" lon="4.96318">
        <ele>134.19999694824</ele>
        <time>2017-07-17T12:07:43Z</time>
      </trkpt>
      <trkpt lat="46.71621" lon="4.96311">
        <ele>134.19999694824</ele>
        <time>2017-07-17T12:07:45Z</time>
      </trkpt>
      <trkpt lat="46.71635" lon="4.96299">
        <ele>134.19999694824</ele>
        <time>2017-07-17T12:07:48Z</time>
      </trkpt>
      <trkpt lat="46.71644" lon="4.96291">
        <ele>134</ele>
        <time>2017-07-17T12:07:50Z</time>
      </trkpt>
      <trkpt lat="46.71649" lon="4.96287">
        <ele>134</ele>
        <time>2017-07-17T12:07:51Z</time>
      </trkpt>
      <trkpt lat="46.7167" lon="4.96262">
        <ele>134.19999694824</ele>
        <time>2017-07-17T12:07:56Z</time>
      </trkpt>
      <trkpt lat="46.717" lon="4.96225">
        <ele>134</ele>
        <time>2017-07-17T12:08:03Z</time>
      </trkpt>
      <trkpt lat="46.71733" lon="4.9617">
        <ele>133.80000305176</ele>
        <time>2017-07-17T12:08:12Z</time>
      </trkpt>
      <trkpt lat="46.71742" lon="4.96149">
        <ele>133.80000305176</ele>
        <time>2017-07-17T12:08:15Z</time>
      </trkpt>
      <trkpt lat="46.71753" lon="4.96114">
        <ele>133.80000305176</ele>
        <time>2017-07-17T12:08:20Z</time>
      </trkpt>
      <trkpt lat="46.71762" lon="4.96069">
        <ele>133.80000305176</ele>
        <time>2017-07-17T12:08:26Z</time>
      </trkpt>
      <trkpt lat="46.71766" lon="4.96064">
        <ele>134</ele>
        <time>2017-07-17T12:08:27Z</time>
      </trkpt>
      <trkpt lat="46.71781" lon="4.9606">
        <ele>134</ele>
        <time>2017-07-17T12:08:30Z</time>
      </trkpt>
      <trkpt lat="46.71787" lon="4.96062">
        <ele>134</ele>
        <time>2017-07-17T12:08:31Z</time>
      </trkpt>
      <trkpt lat="46.71823" lon="4.96076">
        <ele>134.19999694824</ele>
        <time>2017-07-17T12:08:38Z</time>
      </trkpt>
      <trkpt lat="46.71862" lon="4.96092">
        <ele>134</ele>
        <time>2017-07-17T12:08:45Z</time>
      </trkpt>
      <trkpt lat="46.71884" lon="4.96099">
        <ele>134</ele>
        <time>2017-07-17T12:08:49Z</time>
      </trkpt>
      <trkpt lat="46.71895" lon="4.96096">
        <ele>134</ele>
        <time>2017-07-17T12:08:51Z</time>
      </trkpt>
      <trkpt lat="46.71903" lon="4.96076">
        <ele>133.80000305176</ele>
        <time>2017-07-17T12:08:54Z</time>
      </trkpt>
      <trkpt lat="46.71905" lon="4.96059">
        <ele>133.60000610352</ele>
        <time>2017-07-17T12:08:56Z</time>
      </trkpt>
      <trkpt lat="46.71909" lon="4.96028">
        <ele>133.60000610352</ele>
        <time>2017-07-17T12:09:00Z</time>
      </trkpt>
      <trkpt lat="46.71915" lon="4.95981">
        <ele>133.60000610352</ele>
        <time>2017-07-17T12:09:06Z</time>
      </trkpt>
      <trkpt lat="46.71922" lon="4.95932">
        <ele>133.60000610352</ele>
        <time>2017-07-17T12:09:12Z</time>
      </trkpt>
      <trkpt lat="46.71925" lon="4.95908">
        <ele>133.39999389648</ele>
        <time>2017-07-17T12:09:15Z</time>
      </trkpt>
      <trkpt lat="46.71933" lon="4.95867">
        <ele>133</ele>
        <time>2017-07-17T12:09:20Z</time>
      </trkpt>
      <trkpt lat="46.71935" lon="4.95858">
        <ele>132.80000305176</ele>
        <time>2017-07-17T12:09:21Z</time>
      </trkpt>
      <trkpt lat="46.71947" lon="4.95824">
        <ele>132.39999389648</ele>
        <time>2017-07-17T12:09:25Z</time>
      </trkpt>
      <trkpt lat="46.71951" lon="4.95815">
        <ele>132.19999694824</ele>
        <time>2017-07-17T12:09:26Z</time>
      </trkpt>
      <trkpt lat="46.71956" lon="4.95807">
        <ele>132</ele>
        <time>2017-07-17T12:09:27Z</time>
      </trkpt>
      <trkpt lat="46.71981" lon="4.95774">
        <ele>131.39999389648</ele>
        <time>2017-07-17T12:09:32Z</time>
      </trkpt>
      <trkpt lat="46.71988" lon="4.95773">
        <ele>131.39999389648</ele>
        <time>2017-07-17T12:09:34Z</time>
      </trkpt>
      <trkpt lat="46.71991" lon="4.95777">
        <ele>131.19999694824</ele>
        <time>2017-07-17T12:09:35Z</time>
      </trkpt>
      <trkpt lat="46.71996" lon="4.95791">
        <ele>130.39999389648</ele>
        <time>2017-07-17T12:09:39Z</time>
      </trkpt>
      <trkpt lat="46.71998" lon="4.95793">
        <ele>130.19999694824</ele>
        <time>2017-07-17T12:09:40Z</time>
      </trkpt>
      <trkpt lat="46.72013" lon="4.95809">
        <ele>130.60000610352</ele>
        <time>2017-07-17T12:09:45Z</time>
      </trkpt>
      <trkpt lat="46.72033" lon="4.95831">
        <ele>131.19999694824</ele>
        <time>2017-07-17T12:09:51Z</time>
      </trkpt>
      <trkpt lat="46.72037" lon="4.95834">
        <ele>131.39999389648</ele>
        <time>2017-07-17T12:09:52Z</time>
      </trkpt>
      <trkpt lat="46.72041" lon="4.95837">
        <ele>131.39999389648</ele>
        <time>2017-07-17T12:09:53Z</time>
      </trkpt>
      <trkpt lat="46.7206" lon="4.95845">
        <ele>131.60000610352</ele>
        <time>2017-07-17T12:09:57Z</time>
      </trkpt>
      <trkpt lat="46.7207" lon="4.95849">
        <ele>131.60000610352</ele>
        <time>2017-07-17T12:09:59Z</time>
      </trkpt>
      <trkpt lat="46.72079" lon="4.95852">
        <ele>131.80000305176</ele>
        <time>2017-07-17T12:10:01Z</time>
      </trkpt>
      <trkpt lat="46.72089" lon="4.95853">
        <ele>132</ele>
        <time>2017-07-17T12:10:03Z</time>
      </trkpt>
      <trkpt lat="46.72109" lon="4.95846">
        <ele>132</ele>
        <time>2017-07-17T12:10:07Z</time>
      </trkpt>
      <trkpt lat="46.72129" lon="4.95847">
        <ele>131.80000305176</ele>
        <time>2017-07-17T12:10:11Z</time>
      </trkpt>
      <trkpt lat="46.72161" lon="4.95857">
        <ele>131.80000305176</ele>
        <time>2017-07-17T12:10:18Z</time>
      </trkpt>
      <trkpt lat="46.72164" lon="4.95857">
        <ele>131.60000610352</ele>
        <time>2017-07-17T12:10:19Z</time>
      </trkpt>
      <trkpt lat="46.72169" lon="4.95853">
        <ele>131.60000610352</ele>
        <time>2017-07-17T12:10:21Z</time>
      </trkpt>
      <trkpt lat="46.72173" lon="4.95837">
        <ele>131.19999694824</ele>
        <time>2017-07-17T12:10:24Z</time>
      </trkpt>
      <trkpt lat="46.72177" lon="4.9578">
        <ele>130.60000610352</ele>
        <time>2017-07-17T12:10:32Z</time>
      </trkpt>
      <trkpt lat="46.72178" lon="4.95765">
        <ele>130.60000610352</ele>
        <time>2017-07-17T12:10:34Z</time>
      </trkpt>
      <trkpt lat="46.72179" lon="4.95751">
        <ele>130.80000305176</ele>
        <time>2017-07-17T12:10:36Z</time>
      </trkpt>
      <trkpt lat="46.72179" lon="4.95737">
        <ele>130.80000305176</ele>
        <time>2017-07-17T12:10:38Z</time>
      </trkpt>
      <trkpt lat="46.7218" lon="4.95731">
        <ele>130.80000305176</ele>
        <time>2017-07-17T12:10:39Z</time>
      </trkpt>
      <trkpt lat="46.72185" lon="4.95721">
        <ele>130.80000305176</ele>
        <time>2017-07-17T12:10:41Z</time>
      </trkpt>
      <trkpt lat="46.72197" lon="4.95714">
        <ele>131</ele>
        <time>2017-07-17T12:10:44Z</time>
      </trkpt>
      <trkpt lat="46.72205" lon="4.95711">
        <ele>131.19999694824</ele>
        <time>2017-07-17T12:10:46Z</time>
      </trkpt>
      <trkpt lat="46.72209" lon="4.95709">
        <ele>131.39999389648</ele>
        <time>2017-07-17T12:10:47Z</time>
      </trkpt>
      <trkpt lat="46.72226" lon="4.95704">
        <ele>131.80000305176</ele>
        <time>2017-07-17T12:10:51Z</time>
      </trkpt>
      <trkpt lat="46.7223" lon="4.95702">
        <ele>131.80000305176</ele>
        <time>2017-07-17T12:10:52Z</time>
      </trkpt>
      <trkpt lat="46.72254" lon="4.95693">
        <ele>132.19999694824</ele>
        <time>2017-07-17T12:10:58Z</time>
      </trkpt>
      <trkpt lat="46.72263" lon="4.95689">
        <ele>132.39999389648</ele>
        <time>2017-07-17T12:11:00Z</time>
      </trkpt>
      <trkpt lat="46.72281" lon="4.95683">
        <ele>132.60000610352</ele>
        <time>2017-07-17T12:11:04Z</time>
      </trkpt>
      <trkpt lat="46.72317" lon="4.95668">
        <ele>133</ele>
        <time>2017-07-17T12:11:12Z</time>
      </trkpt>
      <trkpt lat="46.72359" lon="4.95652">
        <ele>133.39999389648</ele>
        <time>2017-07-17T12:11:21Z</time>
      </trkpt>
      <trkpt lat="46.72369" lon="4.95651">
        <ele>133.39999389648</ele>
        <time>2017-07-17T12:11:23Z</time>
      </trkpt>
      <trkpt lat="46.72378" lon="4.95652">
        <ele>133.60000610352</ele>
        <time>2017-07-17T12:11:25Z</time>
      </trkpt>
      <trkpt lat="46.72414" lon="4.95658">
        <ele>134</ele>
        <time>2017-07-17T12:11:32Z</time>
      </trkpt>
      <trkpt lat="46.72451" lon="4.95665">
        <ele>133.80000305176</ele>
        <time>2017-07-17T12:11:39Z</time>
      </trkpt>
      <trkpt lat="46.72456" lon="4.95666">
        <ele>133.80000305176</ele>
        <time>2017-07-17T12:11:40Z</time>
      </trkpt>
      <trkpt lat="46.72503" lon="4.95688">
        <ele>133.60000610352</ele>
        <time>2017-07-17T12:11:49Z</time>
      </trkpt>
      <trkpt lat="46.72535" lon="4.95708">
        <ele>133.60000610352</ele>
        <time>2017-07-17T12:11:55Z</time>
      </trkpt>
      <trkpt lat="46.72539" lon="4.95713">
        <ele>133.60000610352</ele>
        <time>2017-07-17T12:11:56Z</time>
      </trkpt>
      <trkpt lat="46.72562" lon="4.95739">
        <ele>133.19999694824</ele>
        <time>2017-07-17T12:12:01Z</time>
      </trkpt>
      <trkpt lat="46.72573" lon="4.95747">
        <ele>133.19999694824</ele>
        <time>2017-07-17T12:12:03Z</time>
      </trkpt>
      <trkpt lat="46.72601" lon="4.95754">
        <ele>133.19999694824</ele>
        <time>2017-07-17T12:12:08Z</time>
      </trkpt>
      <trkpt lat="46.72612" lon="4.95752">
        <ele>133.19999694824</ele>
        <time>2017-07-17T12:12:10Z</time>
      </trkpt>
      <trkpt lat="46.72634" lon="4.95748">
        <ele>133.19999694824</ele>
        <time>2017-07-17T12:12:14Z</time>
      </trkpt>
      <trkpt lat="46.72672" lon="4.95741">
        <ele>133.19999694824</ele>
        <time>2017-07-17T12:12:21Z</time>
      </trkpt>
      <trkpt lat="46.7268" lon="4.9574">
        <ele>133</ele>
        <time>2017-07-17T12:12:23Z</time>
      </trkpt>
      <trkpt lat="46.72687" lon="4.95746">
        <ele>133</ele>
        <time>2017-07-17T12:12:25Z</time>
      </trkpt>
      <trkpt lat="46.72696" lon="4.95764">
        <ele>133</ele>
        <time>2017-07-17T12:12:28Z</time>
      </trkpt>
      <trkpt lat="46.72699" lon="4.9577">
        <ele>133</ele>
        <time>2017-07-17T12:12:29Z</time>
      </trkpt>
      <trkpt lat="46.72722" lon="4.95818">
        <ele>132.80000305176</ele>
        <time>2017-07-17T12:12:37Z</time>
      </trkpt>
      <trkpt lat="46.72732" lon="4.95846">
        <ele>132.80000305176</ele>
        <time>2017-07-17T12:12:43Z</time>
      </trkpt>
      <trkpt lat="46.72734" lon="4.95849">
        <ele>132.80000305176</ele>
        <time>2017-07-17T12:12:44Z</time>
      </trkpt>
      <trkpt lat="46.72741" lon="4.95851">
        <ele>132.80000305176</ele>
        <time>2017-07-17T12:12:46Z</time>
      </trkpt>
      <trkpt lat="46.72759" lon="4.9585">
        <ele>132.60000610352</ele>
        <time>2017-07-17T12:12:51Z</time>
      </trkpt>
      <trkpt lat="46.72763" lon="4.9585">
        <ele>132.19999694824</ele>
        <time>2017-07-17T12:12:52Z</time>
      </trkpt>
      <trkpt lat="46.72776" lon="4.95852">
        <ele>131.80000305176</ele>
        <time>2017-07-17T12:12:55Z</time>
      </trkpt>
      <trkpt lat="46.72784" lon="4.95856">
        <ele>132</ele>
        <time>2017-07-17T12:12:57Z</time>
      </trkpt>
      <trkpt lat="46.72798" lon="4.95861">
        <ele>132</ele>
        <time>2017-07-17T12:13:00Z</time>
      </trkpt>
      <trkpt lat="46.72813" lon="4.95867">
        <ele>132</ele>
        <time>2017-07-17T12:13:03Z</time>
      </trkpt>
      <trkpt lat="46.72845" lon="4.95879">
        <ele>132.39999389648</ele>
        <time>2017-07-17T12:13:09Z</time>
      </trkpt>
      <trkpt lat="46.72855" lon="4.95887">
        <ele>132.39999389648</ele>
        <time>2017-07-17T12:13:11Z</time>
      </trkpt>
      <trkpt lat="46.72865" lon="4.95896">
        <ele>132.39999389648</ele>
        <time>2017-07-17T12:13:13Z</time>
      </trkpt>
      <trkpt lat="46.72877" lon="4.95913">
        <ele>132</ele>
        <time>2017-07-17T12:13:16Z</time>
      </trkpt>
      <trkpt lat="46.7288" lon="4.9592">
        <ele>132</ele>
        <time>2017-07-17T12:13:17Z</time>
      </trkpt>
      <trkpt lat="46.72892" lon="4.95948">
        <ele>132</ele>
        <time>2017-07-17T12:13:21Z</time>
      </trkpt>
      <trkpt lat="46.72909" lon="4.95981">
        <ele>132</ele>
        <time>2017-07-17T12:13:26Z</time>
      </trkpt>
      <trkpt lat="46.72914" lon="4.95986">
        <ele>132</ele>
        <time>2017-07-17T12:13:27Z</time>
      </trkpt>
      <trkpt lat="46.72945" lon="4.96011">
        <ele>132</ele>
        <time>2017-07-17T12:13:33Z</time>
      </trkpt>
      <trkpt lat="46.72981" lon="4.96033">
        <ele>132</ele>
        <time>2017-07-17T12:13:40Z</time>
      </trkpt>
      <trkpt lat="46.72985" lon="4.96038">
        <ele>132</ele>
        <time>2017-07-17T12:13:41Z</time>
      </trkpt>
      <trkpt lat="46.73004" lon="4.96069">
        <ele>131.80000305176</ele>
        <time>2017-07-17T12:13:46Z</time>
      </trkpt>
      <trkpt lat="46.73029" lon="4.96122">
        <ele>131.80000305176</ele>
        <time>2017-07-17T12:13:54Z</time>
      </trkpt>
      <trkpt lat="46.73059" lon="4.96169">
        <ele>132</ele>
        <time>2017-07-17T12:14:02Z</time>
      </trkpt>
      <trkpt lat="46.7309" lon="4.96205">
        <ele>132</ele>
        <time>2017-07-17T12:14:09Z</time>
      </trkpt>
      <trkpt lat="46.73128" lon="4.96246">
        <ele>131.60000610352</ele>
        <time>2017-07-17T12:14:17Z</time>
      </trkpt>
      <trkpt lat="46.73155" lon="4.96269">
        <ele>131.19999694824</ele>
        <time>2017-07-17T12:14:22Z</time>
      </trkpt>
      <trkpt lat="46.73166" lon="4.96277">
        <ele>131</ele>
        <time>2017-07-17T12:14:24Z</time>
      </trkpt>
      <trkpt lat="46.73216" lon="4.96304">
        <ele>130.80000305176</ele>
        <time>2017-07-17T12:14:33Z</time>
      </trkpt>
      <trkpt lat="46.73254" lon="4.96328">
        <ele>130.60000610352</ele>
        <time>2017-07-17T12:14:40Z</time>
      </trkpt>
      <trkpt lat="46.7329" lon="4.96358">
        <ele>130.19999694824</ele>
        <time>2017-07-17T12:14:47Z</time>
      </trkpt>
      <trkpt lat="46.73316" lon="4.96379">
        <ele>130</ele>
        <time>2017-07-17T12:14:52Z</time>
      </trkpt>
      <trkpt lat="46.73322" lon="4.96382">
        <ele>129.80000305176</ele>
        <time>2017-07-17T12:14:53Z</time>
      </trkpt>
      <trkpt lat="46.73357" lon="4.96389">
        <ele>129.19999694824</ele>
        <time>2017-07-17T12:14:59Z</time>
      </trkpt>
      <trkpt lat="46.73375" lon="4.96391">
        <ele>129</ele>
        <time>2017-07-17T12:15:02Z</time>
      </trkpt>
      <trkpt lat="46.73398" lon="4.96389">
        <ele>129</ele>
        <time>2017-07-17T12:15:06Z</time>
      </trkpt>
      <trkpt lat="46.73435" lon="4.96389">
        <ele>128.60000610352</ele>
        <time>2017-07-17T12:15:13Z</time>
      </trkpt>
      <trkpt lat="46.73439" lon="4.96388">
        <ele>127.80000305176</ele>
        <time>2017-07-17T12:16:11Z</time>
      </trkpt>
      <trkpt lat="46.73441" lon="4.96388">
        <ele>127.80000305176</ele>
        <time>2017-07-17T12:16:26Z</time>
      </trkpt>
      <trkpt lat="46.73442" lon="4.96387">
        <ele>127.80000305176</ele>
        <time>2017-07-17T12:16:27Z</time>
      </trkpt>
      <trkpt lat="46.73454" lon="4.96386">
        <ele>127.80000305176</ele>
        <time>2017-07-17T12:16:32Z</time>
      </trkpt>
      <trkpt lat="46.73474" lon="4.96385">
        <ele>128</ele>
        <time>2017-07-17T12:16:37Z</time>
      </trkpt>
      <trkpt lat="46.73502" lon="4.96386">
        <ele>128</ele>
        <time>2017-07-17T12:16:43Z</time>
      </trkpt>
      <trkpt lat="46.73505" lon="4.96386">
        <ele>128</ele>
        <time>2017-07-17T12:16:44Z</time>
      </trkpt>
      <trkpt lat="46.73525" lon="4.96387">
        <ele>128</ele>
        <time>2017-07-17T12:16:50Z</time>
      </trkpt>
      <trkpt lat="46.73541" lon="4.96386">
        <ele>128</ele>
        <time>2017-07-17T12:16:56Z</time>
      </trkpt>
      <trkpt lat="46.73561" lon="4.96386">
        <ele>128.19999694824</ele>
        <time>2017-07-17T12:17:02Z</time>
      </trkpt>
      <trkpt lat="46.73587" lon="4.9639">
        <ele>128.39999389648</ele>
        <time>2017-07-17T12:17:08Z</time>
      </trkpt>
      <trkpt lat="46.73609" lon="4.96409">
        <ele>128.60000610352</ele>
        <time>2017-07-17T12:17:14Z</time>
      </trkpt>
      <trkpt lat="46.73617" lon="4.96418">
        <ele>128.80000305176</ele>
        <time>2017-07-17T12:17:18Z</time>
      </trkpt>
      <trkpt lat="46.73619" lon="4.9642">
        <ele>129.19999694824</ele>
        <time>2017-07-17T12:17:27Z</time>
      </trkpt>
      <trkpt lat="46.73623" lon="4.96424">
        <ele>129.39999389648</ele>
        <time>2017-07-17T12:17:30Z</time>
      </trkpt>
      <trkpt lat="46.73634" lon="4.96437">
        <ele>129.60000610352</ele>
        <time>2017-07-17T12:17:36Z</time>
      </trkpt>
      <trkpt lat="46.73646" lon="4.96452">
        <ele>130</ele>
        <time>2017-07-17T12:17:41Z</time>
      </trkpt>
      <trkpt lat="46.73654" lon="4.9646">
        <ele>130.19999694824</ele>
        <time>2017-07-17T12:17:44Z</time>
      </trkpt>
      <trkpt lat="46.73676" lon="4.96469">
        <ele>131</ele>
        <time>2017-07-17T12:17:50Z</time>
      </trkpt>
      <trkpt lat="46.7369" lon="4.9647">
        <ele>131.19999694824</ele>
        <time>2017-07-17T12:17:53Z</time>
      </trkpt>
      <trkpt lat="46.73704" lon="4.96468">
        <ele>131.39999389648</ele>
        <time>2017-07-17T12:17:56Z</time>
      </trkpt>
      <trkpt lat="46.73747" lon="4.96458">
        <ele>131.19999694824</ele>
        <time>2017-07-17T12:18:05Z</time>
      </trkpt>
      <trkpt lat="46.73767" lon="4.96458">
        <ele>131.39999389648</ele>
        <time>2017-07-17T12:18:09Z</time>
      </trkpt>
      <trkpt lat="46.73777" lon="4.96464">
        <ele>131.39999389648</ele>
        <time>2017-07-17T12:18:11Z</time>
      </trkpt>
      <trkpt lat="46.73785" lon="4.96474">
        <ele>131.39999389648</ele>
        <time>2017-07-17T12:18:13Z</time>
      </trkpt>
      <trkpt lat="46.73788" lon="4.9648">
        <ele>131.39999389648</ele>
        <time>2017-07-17T12:18:14Z</time>
      </trkpt>
      <trkpt lat="46.73792" lon="4.96487">
        <ele>131.39999389648</ele>
        <time>2017-07-17T12:18:15Z</time>
      </trkpt>
      <trkpt lat="46.73809" lon="4.96537">
        <ele>131.39999389648</ele>
        <time>2017-07-17T12:18:22Z</time>
      </trkpt>
      <trkpt lat="46.73815" lon="4.9655">
        <ele>131.39999389648</ele>
        <time>2017-07-17T12:18:24Z</time>
      </trkpt>
      <trkpt lat="46.73827" lon="4.96565">
        <ele>131.60000610352</ele>
        <time>2017-07-17T12:18:27Z</time>
      </trkpt>
      <trkpt lat="46.73832" lon="4.96568">
        <ele>131.60000610352</ele>
        <time>2017-07-17T12:18:28Z</time>
      </trkpt>
      <trkpt lat="46.73848" lon="4.96574">
        <ele>132</ele>
        <time>2017-07-17T12:18:31Z</time>
      </trkpt>
      <trkpt lat="46.73853" lon="4.96576">
        <ele>132</ele>
        <time>2017-07-17T12:18:32Z</time>
      </trkpt>
      <trkpt lat="46.73859" lon="4.96578">
        <ele>132</ele>
        <time>2017-07-17T12:18:33Z</time>
      </trkpt>
      <trkpt lat="46.73881" lon="4.9658">
        <ele>132.19999694824</ele>
        <time>2017-07-17T12:18:37Z</time>
      </trkpt>
      <trkpt lat="46.73914" lon="4.96579">
        <ele>132.19999694824</ele>
        <time>2017-07-17T12:18:43Z</time>
      </trkpt>
      <trkpt lat="46.73926" lon="4.96578">
        <ele>132.19999694824</ele>
        <time>2017-07-17T12:18:45Z</time>
      </trkpt>
      <trkpt lat="46.73942" lon="4.96582">
        <ele>132.19999694824</ele>
        <time>2017-07-17T12:18:48Z</time>
      </trkpt>
      <trkpt lat="46.73954" lon="4.96599">
        <ele>132.39999389648</ele>
        <time>2017-07-17T12:18:51Z</time>
      </trkpt>
      <trkpt lat="46.7396" lon="4.96614">
        <ele>132.39999389648</ele>
        <time>2017-07-17T12:18:53Z</time>
      </trkpt>
      <trkpt lat="46.7397" lon="4.96645">
        <ele>132.39999389648</ele>
        <time>2017-07-17T12:18:57Z</time>
      </trkpt>
      <trkpt lat="46.73987" lon="4.96691">
        <ele>132.39999389648</ele>
        <time>2017-07-17T12:19:03Z</time>
      </trkpt>
      <trkpt lat="46.74008" lon="4.96742">
        <ele>132</ele>
        <time>2017-07-17T12:19:10Z</time>
      </trkpt>
      <trkpt lat="46.74024" lon="4.96753">
        <ele>132</ele>
        <time>2017-07-17T12:19:13Z</time>
      </trkpt>
      <trkpt lat="46.74036" lon="4.96755">
        <ele>132</ele>
        <time>2017-07-17T12:19:15Z</time>
      </trkpt>
      <trkpt lat="46.74042" lon="4.96755">
        <ele>132</ele>
        <time>2017-07-17T12:19:16Z</time>
      </trkpt>
      <trkpt lat="46.74053" lon="4.96753">
        <ele>131.80000305176</ele>
        <time>2017-07-17T12:19:18Z</time>
      </trkpt>
      <trkpt lat="46.74101" lon="4.96748">
        <ele>131.60000610352</ele>
        <time>2017-07-17T12:19:26Z</time>
      </trkpt>
      <trkpt lat="46.74158" lon="4.96742">
        <ele>131.39999389648</ele>
        <time>2017-07-17T12:19:35Z</time>
      </trkpt>
      <trkpt lat="46.7417" lon="4.96739">
        <ele>131.39999389648</ele>
        <time>2017-07-17T12:19:37Z</time>
      </trkpt>
      <trkpt lat="46.74193" lon="4.9673">
        <ele>131.39999389648</ele>
        <time>2017-07-17T12:19:41Z</time>
      </trkpt>
      <trkpt lat="46.74232" lon="4.96711">
        <ele>131.39999389648</ele>
        <time>2017-07-17T12:19:48Z</time>
      </trkpt>
      <trkpt lat="46.74269" lon="4.96683">
        <ele>131.39999389648</ele>
        <time>2017-07-17T12:19:55Z</time>
      </trkpt>
      <trkpt lat="46.74288" lon="4.96663">
        <ele>131.39999389648</ele>
        <time>2017-07-17T12:19:59Z</time>
      </trkpt>
      <trkpt lat="46.74297" lon="4.9665">
        <ele>131.39999389648</ele>
        <time>2017-07-17T12:20:01Z</time>
      </trkpt>
      <trkpt lat="46.74302" lon="4.96644">
        <ele>131.39999389648</ele>
        <time>2017-07-17T12:20:02Z</time>
      </trkpt>
      <trkpt lat="46.74322" lon="4.96623">
        <ele>131</ele>
        <time>2017-07-17T12:20:06Z</time>
      </trkpt>
      <trkpt lat="46.74328" lon="4.9662">
        <ele>131</ele>
        <time>2017-07-17T12:20:07Z</time>
      </trkpt>
      <trkpt lat="46.74339" lon="4.96618">
        <ele>130.80000305176</ele>
        <time>2017-07-17T12:20:09Z</time>
      </trkpt>
      <trkpt lat="46.74368" lon="4.96618">
        <ele>131</ele>
        <time>2017-07-17T12:20:14Z</time>
      </trkpt>
      <trkpt lat="46.74379" lon="4.9662">
        <ele>130.80000305176</ele>
        <time>2017-07-17T12:20:16Z</time>
      </trkpt>
      <trkpt lat="46.74391" lon="4.96619">
        <ele>130.80000305176</ele>
        <time>2017-07-17T12:20:18Z</time>
      </trkpt>
      <trkpt lat="46.74421" lon="4.96615">
        <ele>130.80000305176</ele>
        <time>2017-07-17T12:20:23Z</time>
      </trkpt>
      <trkpt lat="46.7446" lon="4.96599">
        <ele>130.39999389648</ele>
        <time>2017-07-17T12:20:30Z</time>
      </trkpt>
      <trkpt lat="46.74465" lon="4.96595">
        <ele>130.39999389648</ele>
        <time>2017-07-17T12:20:31Z</time>
      </trkpt>
      <trkpt lat="46.74482" lon="4.96587">
        <ele>130.39999389648</ele>
        <time>2017-07-17T12:20:34Z</time>
      </trkpt>
      <trkpt lat="46.7451" lon="4.96593">
        <ele>130.60000610352</ele>
        <time>2017-07-17T12:20:39Z</time>
      </trkpt>
      <trkpt lat="46.7452" lon="4.96601">
        <ele>130.80000305176</ele>
        <time>2017-07-17T12:20:41Z</time>
      </trkpt>
      <trkpt lat="46.74538" lon="4.96616">
        <ele>131</ele>
        <time>2017-07-17T12:20:45Z</time>
      </trkpt>
      <trkpt lat="46.74574" lon="4.96642">
        <ele>131.19999694824</ele>
        <time>2017-07-17T12:20:52Z</time>
      </trkpt>
      <trkpt lat="46.74607" lon="4.9665">
        <ele>131.39999389648</ele>
        <time>2017-07-17T12:20:58Z</time>
      </trkpt>
      <trkpt lat="46.74622" lon="4.96651">
        <ele>131.19999694824</ele>
        <time>2017-07-17T12:21:01Z</time>
      </trkpt>
      <trkpt lat="46.74631" lon="4.96651">
        <ele>131</ele>
        <time>2017-07-17T12:21:03Z</time>
      </trkpt>
      <trkpt lat="46.74635" lon="4.9665">
        <ele>131</ele>
        <time>2017-07-17T12:21:04Z</time>
      </trkpt>
      <trkpt lat="46.74649" lon="4.96647">
        <ele>131</ele>
        <time>2017-07-17T12:21:07Z</time>
      </trkpt>
      <trkpt lat="46.74659" lon="4.96644">
        <ele>131</ele>
        <time>2017-07-17T12:21:09Z</time>
      </trkpt>
      <trkpt lat="46.74693" lon="4.96639">
        <ele>131</ele>
        <time>2017-07-17T12:21:16Z</time>
      </trkpt>
      <trkpt lat="46.74738" lon="4.9663">
        <ele>130.60000610352</ele>
        <time>2017-07-17T12:21:24Z</time>
      </trkpt>
      <trkpt lat="46.74783" lon="4.96622">
        <ele>130.39999389648</ele>
        <time>2017-07-17T12:21:32Z</time>
      </trkpt>
      <trkpt lat="46.74795" lon="4.96621">
        <ele>130.60000610352</ele>
        <time>2017-07-17T12:21:34Z</time>
      </trkpt>
      <trkpt lat="46.74818" lon="4.96616">
        <ele>130.60000610352</ele>
        <time>2017-07-17T12:21:38Z</time>
      </trkpt>
      <trkpt lat="46.74864" lon="4.96597">
        <ele>130.19999694824</ele>
        <time>2017-07-17T12:21:46Z</time>
      </trkpt>
      <trkpt lat="46.74876" lon="4.96591">
        <ele>130</ele>
        <time>2017-07-17T12:21:48Z</time>
      </trkpt>
      <trkpt lat="46.74908" lon="4.96571">
        <ele>129.19999694824</ele>
        <time>2017-07-17T12:21:54Z</time>
      </trkpt>
      <trkpt lat="46.74924" lon="4.9656">
        <ele>129.19999694824</ele>
        <time>2017-07-17T12:21:57Z</time>
      </trkpt>
      <trkpt lat="46.74945" lon="4.96546">
        <ele>129.19999694824</ele>
        <time>2017-07-17T12:22:01Z</time>
      </trkpt>
      <trkpt lat="46.7496" lon="4.96536">
        <ele>129.19999694824</ele>
        <time>2017-07-17T12:22:04Z</time>
      </trkpt>
      <trkpt lat="46.74971" lon="4.96531">
        <ele>129.19999694824</ele>
        <time>2017-07-17T12:22:06Z</time>
      </trkpt>
      <trkpt lat="46.75005" lon="4.96518">
        <ele>129.39999389648</ele>
        <time>2017-07-17T12:22:13Z</time>
      </trkpt>
      <trkpt lat="46.75037" lon="4.96509">
        <ele>130</ele>
        <time>2017-07-17T12:22:20Z</time>
      </trkpt>
      <trkpt lat="46.75057" lon="4.96507">
        <ele>130.39999389648</ele>
        <time>2017-07-17T12:22:26Z</time>
      </trkpt>
      <trkpt lat="46.75065" lon="4.96509">
        <ele>130.39999389648</ele>
        <time>2017-07-17T12:22:30Z</time>
      </trkpt>
      <trkpt lat="46.75077" lon="4.96503">
        <ele>130.60000610352</ele>
        <time>2017-07-17T12:22:34Z</time>
      </trkpt>
      <trkpt lat="46.75085" lon="4.96501">
        <ele>130.60000610352</ele>
        <time>2017-07-17T12:22:36Z</time>
      </trkpt>
      <trkpt lat="46.75099" lon="4.96499">
        <ele>130.80000305176</ele>
        <time>2017-07-17T12:22:39Z</time>
      </trkpt>
      <trkpt lat="46.75109" lon="4.96497">
        <ele>130.80000305176</ele>
        <time>2017-07-17T12:22:41Z</time>
      </trkpt>
      <trkpt lat="46.75124" lon="4.96489">
        <ele>130.80000305176</ele>
        <time>2017-07-17T12:22:44Z</time>
      </trkpt>
      <trkpt lat="46.75148" lon="4.96473">
        <ele>130.60000610352</ele>
        <time>2017-07-17T12:22:49Z</time>
      </trkpt>
      <trkpt lat="46.75197" lon="4.96439">
        <ele>130.60000610352</ele>
        <time>2017-07-17T12:22:59Z</time>
      </trkpt>
      <trkpt lat="46.75237" lon="4.96413">
        <ele>130.39999389648</ele>
        <time>2017-07-17T12:23:07Z</time>
      </trkpt>
      <trkpt lat="46.75277" lon="4.96398">
        <ele>130</ele>
        <time>2017-07-17T12:23:14Z</time>
      </trkpt>
      <trkpt lat="46.75289" lon="4.964">
        <ele>129.80000305176</ele>
        <time>2017-07-17T12:23:16Z</time>
      </trkpt>
      <trkpt lat="46.75306" lon="4.96404">
        <ele>129.60000610352</ele>
        <time>2017-07-17T12:23:19Z</time>
      </trkpt>
      <trkpt lat="46.75345" lon="4.96415">
        <ele>129.60000610352</ele>
        <time>2017-07-17T12:23:26Z</time>
      </trkpt>
      <trkpt lat="46.7538" lon="4.96433">
        <ele>129.60000610352</ele>
        <time>2017-07-17T12:23:33Z</time>
      </trkpt>
      <trkpt lat="46.75424" lon="4.96459">
        <ele>129.80000305176</ele>
        <time>2017-07-17T12:23:42Z</time>
      </trkpt>
      <trkpt lat="46.75468" lon="4.96487">
        <ele>130</ele>
        <time>2017-07-17T12:23:51Z</time>
      </trkpt>
      <trkpt lat="46.75502" lon="4.96506">
        <ele>130.19999694824</ele>
        <time>2017-07-17T12:23:58Z</time>
      </trkpt>
      <trkpt lat="46.75556" lon="4.9654">
        <ele>130.60000610352</ele>
        <time>2017-07-17T12:24:09Z</time>
      </trkpt>
      <trkpt lat="46.75575" lon="4.96553">
        <ele>131</ele>
        <time>2017-07-17T12:24:13Z</time>
      </trkpt>
      <trkpt lat="46.75603" lon="4.96574">
        <ele>131.19999694824</ele>
        <time>2017-07-17T12:24:19Z</time>
      </trkpt>
      <trkpt lat="46.7563" lon="4.96598">
        <ele>131.60000610352</ele>
        <time>2017-07-17T12:24:25Z</time>
      </trkpt>
      <trkpt lat="46.75661" lon="4.96634">
        <ele>131.80000305176</ele>
        <time>2017-07-17T12:24:33Z</time>
      </trkpt>
      <trkpt lat="46.75665" lon="4.96639">
        <ele>132</ele>
        <time>2017-07-17T12:24:34Z</time>
      </trkpt>
      <trkpt lat="46.75687" lon="4.96669">
        <ele>132.19999694824</ele>
        <time>2017-07-17T12:24:40Z</time>
      </trkpt>
      <trkpt lat="46.7569" lon="4.96675">
        <ele>132.19999694824</ele>
        <time>2017-07-17T12:24:41Z</time>
      </trkpt>
      <trkpt lat="46.75701" lon="4.9669">
        <ele>132.39999389648</ele>
        <time>2017-07-17T12:24:44Z</time>
      </trkpt>
      <trkpt lat="46.75707" lon="4.967">
        <ele>132.39999389648</ele>
        <time>2017-07-17T12:24:46Z</time>
      </trkpt>
      <trkpt lat="46.75736" lon="4.96744">
        <ele>133</ele>
        <time>2017-07-17T12:24:55Z</time>
      </trkpt>
      <trkpt lat="46.75745" lon="4.96755">
        <ele>133</ele>
        <time>2017-07-17T12:24:57Z</time>
      </trkpt>
      <trkpt lat="46.75765" lon="4.9678">
        <ele>133</ele>
        <time>2017-07-17T12:25:02Z</time>
      </trkpt>
      <trkpt lat="46.75793" lon="4.96824">
        <ele>133</ele>
        <time>2017-07-17T12:25:08Z</time>
      </trkpt>
      <trkpt lat="46.75822" lon="4.96876">
        <ele>132.80000305176</ele>
        <time>2017-07-17T12:25:15Z</time>
      </trkpt>
      <trkpt lat="46.75852" lon="4.96915">
        <ele>132.80000305176</ele>
        <time>2017-07-17T12:25:22Z</time>
      </trkpt>
      <trkpt lat="46.75894" lon="4.96952">
        <ele>133</ele>
        <time>2017-07-17T12:25:31Z</time>
      </trkpt>
      <trkpt lat="46.75931" lon="4.96985">
        <ele>133.60000610352</ele>
        <time>2017-07-17T12:25:39Z</time>
      </trkpt>
      <trkpt lat="46.75936" lon="4.96988">
        <ele>133.60000610352</ele>
        <time>2017-07-17T12:25:40Z</time>
      </trkpt>
      <trkpt lat="46.75961" lon="4.97002">
        <ele>133.80000305176</ele>
        <time>2017-07-17T12:25:45Z</time>
      </trkpt>
      <trkpt lat="46.75988" lon="4.97025">
        <ele>133.80000305176</ele>
        <time>2017-07-17T12:25:51Z</time>
      </trkpt>
      <trkpt lat="46.76013" lon="4.97059">
        <ele>133.60000610352</ele>
        <time>2017-07-17T12:25:57Z</time>
      </trkpt>
      <trkpt lat="46.76017" lon="4.97066">
        <ele>133.60000610352</ele>
        <time>2017-07-17T12:25:58Z</time>
      </trkpt>
      <trkpt lat="46.76052" lon="4.97122">
        <ele>134</ele>
        <time>2017-07-17T12:26:06Z</time>
      </trkpt>
      <trkpt lat="46.76069" lon="4.97144">
        <ele>134</ele>
        <time>2017-07-17T12:26:10Z</time>
      </trkpt>
      <trkpt lat="46.76079" lon="4.97152">
        <ele>134.19999694824</ele>
        <time>2017-07-17T12:26:12Z</time>
      </trkpt>
      <trkpt lat="46.76111" lon="4.97168">
        <ele>134.60000610352</ele>
        <time>2017-07-17T12:26:18Z</time>
      </trkpt>
      <trkpt lat="46.76151" lon="4.97172">
        <ele>134.60000610352</ele>
        <time>2017-07-17T12:26:25Z</time>
      </trkpt>
      <trkpt lat="46.76186" lon="4.97185">
        <ele>134.80000305176</ele>
        <time>2017-07-17T12:26:31Z</time>
      </trkpt>
      <trkpt lat="46.76241" lon="4.97199">
        <ele>134.39999389648</ele>
        <time>2017-07-17T12:26:41Z</time>
      </trkpt>
      <trkpt lat="46.7628" lon="4.97209">
        <ele>134.39999389648</ele>
        <time>2017-07-17T12:26:48Z</time>
      </trkpt>
      <trkpt lat="46.763" lon="4.97213">
        <ele>134.39999389648</ele>
        <time>2017-07-17T12:26:52Z</time>
      </trkpt>
      <trkpt lat="46.7631" lon="4.97215">
        <ele>134.60000610352</ele>
        <time>2017-07-17T12:26:54Z</time>
      </trkpt>
      <trkpt lat="46.76329" lon="4.97222">
        <ele>134.60000610352</ele>
        <time>2017-07-17T12:26:58Z</time>
      </trkpt>
      <trkpt lat="46.76335" lon="4.97223">
        <ele>134.60000610352</ele>
        <time>2017-07-17T12:26:59Z</time>
      </trkpt>
      <trkpt lat="46.76368" lon="4.97229">
        <ele>134.80000305176</ele>
        <time>2017-07-17T12:27:05Z</time>
      </trkpt>
      <trkpt lat="46.76402" lon="4.97228">
        <ele>135</ele>
        <time>2017-07-17T12:27:11Z</time>
      </trkpt>
      <trkpt lat="46.76441" lon="4.97228">
        <ele>134.80000305176</ele>
        <time>2017-07-17T12:27:18Z</time>
      </trkpt>
      <trkpt lat="46.7648" lon="4.97227">
        <ele>135</ele>
        <time>2017-07-17T12:27:25Z</time>
      </trkpt>
      <trkpt lat="46.76491" lon="4.97226">
        <ele>135.19999694824</ele>
        <time>2017-07-17T12:27:27Z</time>
      </trkpt>
      <trkpt lat="46.76532" lon="4.97227">
        <ele>135.39999389648</ele>
        <time>2017-07-17T12:27:34Z</time>
      </trkpt>
      <trkpt lat="46.76586" lon="4.97236">
        <ele>135.60000610352</ele>
        <time>2017-07-17T12:27:43Z</time>
      </trkpt>
      <trkpt lat="46.76631" lon="4.97246">
        <ele>136.19999694824</ele>
        <time>2017-07-17T12:27:51Z</time>
      </trkpt>
      <trkpt lat="46.76666" lon="4.97255">
        <ele>136.60000610352</ele>
        <time>2017-07-17T12:27:58Z</time>
      </trkpt>
      <trkpt lat="46.76714" lon="4.97265">
        <ele>136.80000305176</ele>
        <time>2017-07-17T12:28:07Z</time>
      </trkpt>
      <trkpt lat="46.76757" lon="4.97276">
        <ele>137</ele>
        <time>2017-07-17T12:28:15Z</time>
      </trkpt>
      <trkpt lat="46.76794" lon="4.97285">
        <ele>137.19999694824</ele>
        <time>2017-07-17T12:28:22Z</time>
      </trkpt>
      <trkpt lat="46.76804" lon="4.97287">
        <ele>137.39999389648</ele>
        <time>2017-07-17T12:28:24Z</time>
      </trkpt>
      <trkpt lat="46.76842" lon="4.97304">
        <ele>138</ele>
        <time>2017-07-17T12:28:32Z</time>
      </trkpt>
      <trkpt lat="46.76851" lon="4.97308">
        <ele>138.60000610352</ele>
        <time>2017-07-17T12:28:34Z</time>
      </trkpt>
      <trkpt lat="46.76868" lon="4.97317">
        <ele>139.39999389648</ele>
        <time>2017-07-17T12:28:38Z</time>
      </trkpt>
      <trkpt lat="46.76872" lon="4.97319">
        <ele>139.80000305176</ele>
        <time>2017-07-17T12:28:39Z</time>
      </trkpt>
      <trkpt lat="46.76899" lon="4.97333">
        <ele>140.19999694824</ele>
        <time>2017-07-17T12:28:46Z</time>
      </trkpt>
      <trkpt lat="46.76915" lon="4.97341">
        <ele>139.60000610352</ele>
        <time>2017-07-17T12:28:50Z</time>
      </trkpt>
      <trkpt lat="46.76927" lon="4.97347">
        <ele>139.39999389648</ele>
        <time>2017-07-17T12:28:53Z</time>
      </trkpt>
      <trkpt lat="46.76947" lon="4.97356">
        <ele>139.60000610352</ele>
        <time>2017-07-17T12:28:58Z</time>
      </trkpt>
      <trkpt lat="46.76961" lon="4.97365">
        <ele>140</ele>
        <time>2017-07-17T12:29:02Z</time>
      </trkpt>
      <trkpt lat="46.76985" lon="4.97376">
        <ele>140.80000305176</ele>
        <time>2017-07-17T12:29:09Z</time>
      </trkpt>
      <trkpt lat="46.76991" lon="4.97378">
        <ele>141.19999694824</ele>
        <time>2017-07-17T12:29:11Z</time>
      </trkpt>
      <trkpt lat="46.77003" lon="4.97384">
        <ele>142</ele>
        <time>2017-07-17T12:29:15Z</time>
      </trkpt>
      <trkpt lat="46.77008" lon="4.97387">
        <ele>142.39999389648</ele>
        <time>2017-07-17T12:29:17Z</time>
      </trkpt>
      <trkpt lat="46.7702" lon="4.97392">
        <ele>143.19999694824</ele>
        <time>2017-07-17T12:29:21Z</time>
      </trkpt>
      <trkpt lat="46.77029" lon="4.97397">
        <ele>143.80000305176</ele>
        <time>2017-07-17T12:29:24Z</time>
      </trkpt>
      <trkpt lat="46.77035" lon="4.974">
        <ele>144.19999694824</ele>
        <time>2017-07-17T12:29:26Z</time>
      </trkpt>
      <trkpt lat="46.7705" lon="4.9741">
        <ele>145</ele>
        <time>2017-07-17T12:29:31Z</time>
      </trkpt>
      <trkpt lat="46.77053" lon="4.97412">
        <ele>145</ele>
        <time>2017-07-17T12:29:32Z</time>
      </trkpt>
      <trkpt lat="46.77056" lon="4.97414">
        <ele>145.19999694824</ele>
        <time>2017-07-17T12:29:33Z</time>
      </trkpt>
      <trkpt lat="46.77076" lon="4.97428">
        <ele>146.19999694824</ele>
        <time>2017-07-17T12:29:40Z</time>
      </trkpt>
      <trkpt lat="46.77078" lon="4.97431">
        <ele>146.39999389648</ele>
        <time>2017-07-17T12:29:41Z</time>
      </trkpt>
      <trkpt lat="46.77088" lon="4.97438">
        <ele>147.39999389648</ele>
        <time>2017-07-17T12:29:46Z</time>
      </trkpt>
      <trkpt lat="46.7709" lon="4.97439">
        <ele>147.60000610352</ele>
        <time>2017-07-17T12:29:48Z</time>
      </trkpt>
      <trkpt lat="46.77096" lon="4.9744">
        <ele>147.80000305176</ele>
        <time>2017-07-17T12:29:51Z</time>
      </trkpt>
      <trkpt lat="46.77114" lon="4.97434">
        <ele>148</ele>
        <time>2017-07-17T12:29:56Z</time>
      </trkpt>
      <trkpt lat="46.77122" lon="4.97432">
        <ele>148</ele>
        <time>2017-07-17T12:29:58Z</time>
      </trkpt>
      <trkpt lat="46.77137" lon="4.97425">
        <ele>148</ele>
        <time>2017-07-17T12:30:02Z</time>
      </trkpt>
      <trkpt lat="46.77153" lon="4.97419">
        <ele>148.19999694824</ele>
        <time>2017-07-17T12:30:06Z</time>
      </trkpt>
      <trkpt lat="46.77156" lon="4.97417">
        <ele>148.39999389648</ele>
        <time>2017-07-17T12:30:07Z</time>
      </trkpt>
      <trkpt lat="46.7716" lon="4.97415">
        <ele>148.39999389648</ele>
        <time>2017-07-17T12:30:08Z</time>
      </trkpt>
      <trkpt lat="46.77198" lon="4.97401">
        <ele>148.80000305176</ele>
        <time>2017-07-17T12:30:18Z</time>
      </trkpt>
      <trkpt lat="46.7722" lon="4.97392">
        <ele>149.39999389648</ele>
        <time>2017-07-17T12:30:24Z</time>
      </trkpt>
      <trkpt lat="46.77235" lon="4.97385">
        <ele>149.80000305176</ele>
        <time>2017-07-17T12:30:28Z</time>
      </trkpt>
      <trkpt lat="46.77257" lon="4.97378">
        <ele>150.60000610352</ele>
        <time>2017-07-17T12:30:34Z</time>
      </trkpt>
      <trkpt lat="46.7728" lon="4.97366">
        <ele>151</ele>
        <time>2017-07-17T12:30:40Z</time>
      </trkpt>
      <trkpt lat="46.77303" lon="4.97356">
        <ele>151.39999389648</ele>
        <time>2017-07-17T12:30:46Z</time>
      </trkpt>
      <trkpt lat="46.77311" lon="4.97354">
        <ele>151.60000610352</ele>
        <time>2017-07-17T12:30:48Z</time>
      </trkpt>
      <trkpt lat="46.77319" lon="4.97351">
        <ele>151.80000305176</ele>
        <time>2017-07-17T12:30:50Z</time>
      </trkpt>
      <trkpt lat="46.77335" lon="4.97343">
        <ele>152.39999389648</ele>
        <time>2017-07-17T12:30:54Z</time>
      </trkpt>
      <trkpt lat="46.77343" lon="4.9734">
        <ele>152.60000610352</ele>
        <time>2017-07-17T12:30:56Z</time>
      </trkpt>
      <trkpt lat="46.77371" lon="4.97331">
        <ele>153.60000610352</ele>
        <time>2017-07-17T12:31:03Z</time>
      </trkpt>
      <trkpt lat="46.77379" lon="4.97329">
        <ele>153.80000305176</ele>
        <time>2017-07-17T12:31:05Z</time>
      </trkpt>
      <trkpt lat="46.77409" lon="4.97326">
        <ele>154.39999389648</ele>
        <time>2017-07-17T12:31:12Z</time>
      </trkpt>
      <trkpt lat="46.77422" lon="4.97325">
        <ele>154.80000305176</ele>
        <time>2017-07-17T12:31:15Z</time>
      </trkpt>
      <trkpt lat="46.77442" lon="4.97325">
        <ele>155.19999694824</ele>
        <time>2017-07-17T12:31:20Z</time>
      </trkpt>
      <trkpt lat="46.77474" lon="4.97326">
        <ele>156</ele>
        <time>2017-07-17T12:31:27Z</time>
      </trkpt>
      <trkpt lat="46.77488" lon="4.97326">
        <ele>156.39999389648</ele>
        <time>2017-07-17T12:31:30Z</time>
      </trkpt>
      <trkpt lat="46.77515" lon="4.97323">
        <ele>156.60000610352</ele>
        <time>2017-07-17T12:31:36Z</time>
      </trkpt>
      <trkpt lat="46.77547" lon="4.97322">
        <ele>156.80000305176</ele>
        <time>2017-07-17T12:31:43Z</time>
      </trkpt>
      <trkpt lat="46.77577" lon="4.97324">
        <ele>157</ele>
        <time>2017-07-17T12:31:49Z</time>
      </trkpt>
      <trkpt lat="46.77581" lon="4.97325">
        <ele>157</ele>
        <time>2017-07-17T12:31:50Z</time>
      </trkpt>
      <trkpt lat="46.77586" lon="4.97326">
        <ele>157</ele>
        <time>2017-07-17T12:31:51Z</time>
      </trkpt>
      <trkpt lat="46.77617" lon="4.97334">
        <ele>157</ele>
        <time>2017-07-17T12:31:57Z</time>
      </trkpt>
      <trkpt lat="46.77651" lon="4.97345">
        <ele>157</ele>
        <time>2017-07-17T12:32:03Z</time>
      </trkpt>
      <trkpt lat="46.77704" lon="4.97362">
        <ele>156.60000610352</ele>
        <time>2017-07-17T12:32:12Z</time>
      </trkpt>
      <trkpt lat="46.77752" lon="4.97377">
        <ele>156.60000610352</ele>
        <time>2017-07-17T12:32:20Z</time>
      </trkpt>
      <trkpt lat="46.77764" lon="4.97381">
        <ele>156.39999389648</ele>
        <time>2017-07-17T12:32:22Z</time>
      </trkpt>
      <trkpt lat="46.77805" lon="4.97391">
        <ele>156.19999694824</ele>
        <time>2017-07-17T12:32:29Z</time>
      </trkpt>
      <trkpt lat="46.77841" lon="4.974">
        <ele>155.80000305176</ele>
        <time>2017-07-17T12:32:35Z</time>
      </trkpt>
      <trkpt lat="46.77853" lon="4.97403">
        <ele>155.80000305176</ele>
        <time>2017-07-17T12:32:37Z</time>
      </trkpt>
      <trkpt lat="46.77901" lon="4.97416">
        <ele>154.80000305176</ele>
        <time>2017-07-17T12:32:45Z</time>
      </trkpt>
      <trkpt lat="46.77957" lon="4.9743">
        <ele>153.80000305176</ele>
        <time>2017-07-17T12:32:54Z</time>
      </trkpt>
      <trkpt lat="46.77998" lon="4.9744">
        <ele>153.39999389648</ele>
        <time>2017-07-17T12:33:01Z</time>
      </trkpt>
      <trkpt lat="46.78054" lon="4.97455">
        <ele>153.19999694824</ele>
        <time>2017-07-17T12:33:10Z</time>
      </trkpt>
      <trkpt lat="46.78074" lon="4.9746">
        <ele>152.80000305176</ele>
        <time>2017-07-17T12:33:13Z</time>
      </trkpt>
      <trkpt lat="46.78103" lon="4.97468">
        <ele>152.19999694824</ele>
        <time>2017-07-17T12:33:17Z</time>
      </trkpt>
      <trkpt lat="46.78118" lon="4.97471">
        <ele>151.80000305176</ele>
        <time>2017-07-17T12:33:19Z</time>
      </trkpt>
      <trkpt lat="46.78146" lon="4.97476">
        <ele>150.60000610352</ele>
        <time>2017-07-17T12:33:23Z</time>
      </trkpt>
      <trkpt lat="46.78167" lon="4.97483">
        <ele>149.80000305176</ele>
        <time>2017-07-17T12:33:26Z</time>
      </trkpt>
      <trkpt lat="46.78181" lon="4.97486">
        <ele>149.60000610352</ele>
        <time>2017-07-17T12:33:28Z</time>
      </trkpt>
      <trkpt lat="46.78222" lon="4.97497">
        <ele>148.39999389648</ele>
        <time>2017-07-17T12:33:34Z</time>
      </trkpt>
      <trkpt lat="46.7827" lon="4.97509">
        <ele>148</ele>
        <time>2017-07-17T12:33:41Z</time>
      </trkpt>
      <trkpt lat="46.78317" lon="4.97519">
        <ele>147.39999389648</ele>
        <time>2017-07-17T12:33:48Z</time>
      </trkpt>
      <trkpt lat="46.78375" lon="4.97539">
        <ele>146.60000610352</ele>
        <time>2017-07-17T12:33:56Z</time>
      </trkpt>
      <trkpt lat="46.78404" lon="4.97549">
        <ele>146.39999389648</ele>
        <time>2017-07-17T12:34:00Z</time>
      </trkpt>
      <trkpt lat="46.78424" lon="4.97555">
        <ele>146.19999694824</ele>
        <time>2017-07-17T12:34:03Z</time>
      </trkpt>
      <trkpt lat="46.7847" lon="4.9757">
        <ele>146.19999694824</ele>
        <time>2017-07-17T12:34:10Z</time>
      </trkpt>
      <trkpt lat="46.78512" lon="4.97582">
        <ele>146.19999694824</ele>
        <time>2017-07-17T12:34:17Z</time>
      </trkpt>
      <trkpt lat="46.78552" lon="4.97591">
        <ele>146.39999389648</ele>
        <time>2017-07-17T12:34:24Z</time>
      </trkpt>
      <trkpt lat="46.78602" lon="4.97606">
        <ele>145.19999694824</ele>
        <time>2017-07-17T12:34:31Z</time>
      </trkpt>
      <trkpt lat="46.78633" lon="4.97615">
        <ele>144.19999694824</ele>
        <time>2017-07-17T12:34:35Z</time>
      </trkpt>
      <trkpt lat="46.78646" lon="4.97619">
        <ele>144</ele>
        <time>2017-07-17T12:34:37Z</time>
      </trkpt>
      <trkpt lat="46.78652" lon="4.97621">
        <ele>144</ele>
        <time>2017-07-17T12:34:38Z</time>
      </trkpt>
      <trkpt lat="46.78677" lon="4.97629">
        <ele>144.60000610352</ele>
        <time>2017-07-17T12:34:43Z</time>
      </trkpt>
      <trkpt lat="46.78689" lon="4.97632">
        <ele>145.39999389648</ele>
        <time>2017-07-17T12:34:46Z</time>
      </trkpt>
      <trkpt lat="46.78699" lon="4.97635">
        <ele>145.80000305176</ele>
        <time>2017-07-17T12:34:49Z</time>
      </trkpt>
      <trkpt lat="46.7871" lon="4.97638">
        <ele>146.60000610352</ele>
        <time>2017-07-17T12:34:52Z</time>
      </trkpt>
      <trkpt lat="46.78727" lon="4.97641">
        <ele>147.80000305176</ele>
        <time>2017-07-17T12:34:57Z</time>
      </trkpt>
      <trkpt lat="46.78733" lon="4.97642">
        <ele>148.39999389648</ele>
        <time>2017-07-17T12:34:59Z</time>
      </trkpt>
      <trkpt lat="46.78739" lon="4.97643">
        <ele>148.80000305176</ele>
        <time>2017-07-17T12:35:01Z</time>
      </trkpt>
      <trkpt lat="46.78754" lon="4.97643">
        <ele>149.80000305176</ele>
        <time>2017-07-17T12:35:06Z</time>
      </trkpt>
      <trkpt lat="46.78774" lon="4.97644">
        <ele>150.80000305176</ele>
        <time>2017-07-17T12:35:12Z</time>
      </trkpt>
      <trkpt lat="46.78777" lon="4.97644">
        <ele>151</ele>
        <time>2017-07-17T12:35:13Z</time>
      </trkpt>
      <trkpt lat="46.78808" lon="4.97644">
        <ele>151.80000305176</ele>
        <time>2017-07-17T12:35:20Z</time>
      </trkpt>
      <trkpt lat="46.78812" lon="4.97645">
        <ele>151.80000305176</ele>
        <time>2017-07-17T12:35:21Z</time>
      </trkpt>
      <trkpt lat="46.78844" lon="4.97645">
        <ele>152</ele>
        <time>2017-07-17T12:35:27Z</time>
      </trkpt>
      <trkpt lat="46.78884" lon="4.97647">
        <ele>151.60000610352</ele>
        <time>2017-07-17T12:35:34Z</time>
      </trkpt>
      <trkpt lat="46.7893" lon="4.97647">
        <ele>150.80000305176</ele>
        <time>2017-07-17T12:35:42Z</time>
      </trkpt>
      <trkpt lat="46.78978" lon="4.97646">
        <ele>149.80000305176</ele>
        <time>2017-07-17T12:35:50Z</time>
      </trkpt>
      <trkpt lat="46.79026" lon="4.97642">
        <ele>149.80000305176</ele>
        <time>2017-07-17T12:35:58Z</time>
      </trkpt>
      <trkpt lat="46.79044" lon="4.97636">
        <ele>149.80000305176</ele>
        <time>2017-07-17T12:36:01Z</time>
      </trkpt>
      <trkpt lat="46.79061" lon="4.97626">
        <ele>150</ele>
        <time>2017-07-17T12:36:04Z</time>
      </trkpt>
      <trkpt lat="46.79101" lon="4.97593">
        <ele>150.60000610352</ele>
        <time>2017-07-17T12:36:12Z</time>
      </trkpt>
      <trkpt lat="46.79116" lon="4.9758">
        <ele>150.80000305176</ele>
        <time>2017-07-17T12:36:15Z</time>
      </trkpt>
      <trkpt lat="46.79144" lon="4.97559">
        <ele>151.39999389648</ele>
        <time>2017-07-17T12:36:21Z</time>
      </trkpt>
      <trkpt lat="46.79179" lon="4.97546">
        <ele>151.80000305176</ele>
        <time>2017-07-17T12:36:28Z</time>
      </trkpt>
      <trkpt lat="46.7919" lon="4.97544">
        <ele>152</ele>
        <time>2017-07-17T12:36:30Z</time>
      </trkpt>
      <trkpt lat="46.79212" lon="4.97543">
        <ele>152.19999694824</ele>
        <time>2017-07-17T12:36:34Z</time>
      </trkpt>
      <trkpt lat="46.79223" lon="4.97544">
        <ele>152.39999389648</ele>
        <time>2017-07-17T12:36:36Z</time>
      </trkpt>
      <trkpt lat="46.79255" lon="4.97559">
        <ele>152.39999389648</ele>
        <time>2017-07-17T12:36:42Z</time>
      </trkpt>
      <trkpt lat="46.79291" lon="4.97565">
        <ele>152.39999389648</ele>
        <time>2017-07-17T12:36:48Z</time>
      </trkpt>
      <trkpt lat="46.79309" lon="4.97565">
        <ele>152.19999694824</ele>
        <time>2017-07-17T12:36:51Z</time>
      </trkpt>
      <trkpt lat="46.7932" lon="4.97565">
        <ele>152</ele>
        <time>2017-07-17T12:36:53Z</time>
      </trkpt>
      <trkpt lat="46.79326" lon="4.97565">
        <ele>152</ele>
        <time>2017-07-17T12:36:54Z</time>
      </trkpt>
      <trkpt lat="46.79375" lon="4.97569">
        <ele>151.60000610352</ele>
        <time>2017-07-17T12:37:03Z</time>
      </trkpt>
      <trkpt lat="46.79404" lon="4.97567">
        <ele>151.80000305176</ele>
        <time>2017-07-17T12:37:08Z</time>
      </trkpt>
      <trkpt lat="46.7941" lon="4.97564">
        <ele>151.80000305176</ele>
        <time>2017-07-17T12:37:09Z</time>
      </trkpt>
      <trkpt lat="46.79435" lon="4.97542">
        <ele>151.80000305176</ele>
        <time>2017-07-17T12:37:14Z</time>
      </trkpt>
      <trkpt lat="46.79469" lon="4.97501">
        <ele>151.39999389648</ele>
        <time>2017-07-17T12:37:21Z</time>
      </trkpt>
      <trkpt lat="46.79502" lon="4.9746">
        <ele>151.39999389648</ele>
        <time>2017-07-17T12:37:28Z</time>
      </trkpt>
      <trkpt lat="46.79524" lon="4.97439">
        <ele>151.19999694824</ele>
        <time>2017-07-17T12:37:32Z</time>
      </trkpt>
      <trkpt lat="46.7953" lon="4.97438">
        <ele>151</ele>
        <time>2017-07-17T12:37:33Z</time>
      </trkpt>
      <trkpt lat="46.79542" lon="4.97438">
        <ele>150.80000305176</ele>
        <time>2017-07-17T12:37:35Z</time>
      </trkpt>
      <trkpt lat="46.79549" lon="4.97437">
        <ele>150.80000305176</ele>
        <time>2017-07-17T12:37:36Z</time>
      </trkpt>
      <trkpt lat="46.79555" lon="4.97437">
        <ele>150.80000305176</ele>
        <time>2017-07-17T12:37:37Z</time>
      </trkpt>
      <trkpt lat="46.79589" lon="4.9744">
        <ele>151</ele>
        <time>2017-07-17T12:37:43Z</time>
      </trkpt>
      <trkpt lat="46.79638" lon="4.97441">
        <ele>150.60000610352</ele>
        <time>2017-07-17T12:37:51Z</time>
      </trkpt>
      <trkpt lat="46.79687" lon="4.97435">
        <ele>150.19999694824</ele>
        <time>2017-07-17T12:37:59Z</time>
      </trkpt>
      <trkpt lat="46.797" lon="4.97433">
        <ele>150</ele>
        <time>2017-07-17T12:38:01Z</time>
      </trkpt>
      <trkpt lat="46.79724" lon="4.97428">
        <ele>150</ele>
        <time>2017-07-17T12:38:05Z</time>
      </trkpt>
      <trkpt lat="46.79736" lon="4.97427">
        <ele>149.80000305176</ele>
        <time>2017-07-17T12:38:07Z</time>
      </trkpt>
      <trkpt lat="46.79768" lon="4.97424">
        <ele>149.19999694824</ele>
        <time>2017-07-17T12:38:13Z</time>
      </trkpt>
      <trkpt lat="46.79781" lon="4.97422">
        <ele>149.19999694824</ele>
        <time>2017-07-17T12:38:17Z</time>
      </trkpt>
      <trkpt lat="46.79787" lon="4.97423">
        <ele>148.80000305176</ele>
        <time>2017-07-17T12:38:20Z</time>
      </trkpt>
      <trkpt lat="46.79796" lon="4.9742">
        <ele>148.60000610352</ele>
        <time>2017-07-17T12:38:23Z</time>
      </trkpt>
      <trkpt lat="46.79821" lon="4.97413">
        <ele>148.39999389648</ele>
        <time>2017-07-17T12:38:28Z</time>
      </trkpt>
      <trkpt lat="46.79838" lon="4.97406">
        <ele>148.19999694824</ele>
        <time>2017-07-17T12:38:31Z</time>
      </trkpt>
      <trkpt lat="46.79856" lon="4.97401">
        <ele>147.80000305176</ele>
        <time>2017-07-17T12:38:34Z</time>
      </trkpt>
      <trkpt lat="46.79911" lon="4.97385">
        <ele>147.39999389648</ele>
        <time>2017-07-17T12:38:43Z</time>
      </trkpt>
      <trkpt lat="46.79951" lon="4.97372">
        <ele>147.39999389648</ele>
        <time>2017-07-17T12:38:50Z</time>
      </trkpt>
      <trkpt lat="46.79988" lon="4.97361">
        <ele>147.80000305176</ele>
        <time>2017-07-17T12:38:57Z</time>
      </trkpt>
      <trkpt lat="46.80012" lon="4.97343">
        <ele>148.60000610352</ele>
        <time>2017-07-17T12:39:02Z</time>
      </trkpt>
      <trkpt lat="46.80016" lon="4.97338">
        <ele>148.80000305176</ele>
        <time>2017-07-17T12:39:03Z</time>
      </trkpt>
      <trkpt lat="46.80019" lon="4.97332">
        <ele>148.80000305176</ele>
        <time>2017-07-17T12:39:04Z</time>
      </trkpt>
      <trkpt lat="46.80041" lon="4.9729">
        <ele>148.39999389648</ele>
        <time>2017-07-17T12:39:10Z</time>
      </trkpt>
      <trkpt lat="46.80061" lon="4.9725">
        <ele>147.60000610352</ele>
        <time>2017-07-17T12:39:15Z</time>
      </trkpt>
      <trkpt lat="46.80065" lon="4.97242">
        <ele>147.39999389648</ele>
        <time>2017-07-17T12:39:16Z</time>
      </trkpt>
      <trkpt lat="46.80095" lon="4.97188">
        <ele>146.60000610352</ele>
        <time>2017-07-17T12:39:23Z</time>
      </trkpt>
      <trkpt lat="46.80099" lon="4.97182">
        <ele>146.39999389648</ele>
        <time>2017-07-17T12:39:24Z</time>
      </trkpt>
      <trkpt lat="46.80124" lon="4.97145">
        <ele>145.39999389648</ele>
        <time>2017-07-17T12:39:29Z</time>
      </trkpt>
      <trkpt lat="46.80134" lon="4.97129">
        <ele>145.19999694824</ele>
        <time>2017-07-17T12:39:31Z</time>
      </trkpt>
      <trkpt lat="46.8015" lon="4.97103">
        <ele>144.39999389648</ele>
        <time>2017-07-17T12:39:34Z</time>
      </trkpt>
      <trkpt lat="46.80167" lon="4.97077">
        <ele>143.19999694824</ele>
        <time>2017-07-17T12:39:37Z</time>
      </trkpt>
      <trkpt lat="46.80173" lon="4.97068">
        <ele>142.80000305176</ele>
        <time>2017-07-17T12:39:38Z</time>
      </trkpt>
      <trkpt lat="46.80184" lon="4.97049">
        <ele>142</ele>
        <time>2017-07-17T12:39:40Z</time>
      </trkpt>
      <trkpt lat="46.80211" lon="4.97015">
        <ele>140.80000305176</ele>
        <time>2017-07-17T12:39:44Z</time>
      </trkpt>
      <trkpt lat="46.80233" lon="4.96997">
        <ele>139.60000610352</ele>
        <time>2017-07-17T12:39:47Z</time>
      </trkpt>
      <trkpt lat="46.8024" lon="4.96992">
        <ele>138.80000305176</ele>
        <time>2017-07-17T12:39:48Z</time>
      </trkpt>
      <trkpt lat="46.80248" lon="4.96988">
        <ele>138.39999389648</ele>
        <time>2017-07-17T12:39:49Z</time>
      </trkpt>
      <trkpt lat="46.80257" lon="4.96985">
        <ele>138</ele>
        <time>2017-07-17T12:39:50Z</time>
      </trkpt>
      <trkpt lat="46.80274" lon="4.96981">
        <ele>137.19999694824</ele>
        <time>2017-07-17T12:39:52Z</time>
      </trkpt>
      <trkpt lat="46.80282" lon="4.9698">
        <ele>136.80000305176</ele>
        <time>2017-07-17T12:39:53Z</time>
      </trkpt>
      <trkpt lat="46.80314" lon="4.96972">
        <ele>136.19999694824</ele>
        <time>2017-07-17T12:39:57Z</time>
      </trkpt>
      <trkpt lat="46.80321" lon="4.96968">
        <ele>136</ele>
        <time>2017-07-17T12:39:58Z</time>
      </trkpt>
      <trkpt lat="46.80348" lon="4.96944">
        <ele>135.39999389648</ele>
        <time>2017-07-17T12:40:02Z</time>
      </trkpt>
      <trkpt lat="46.80373" lon="4.96918">
        <ele>135</ele>
        <time>2017-07-17T12:40:06Z</time>
      </trkpt>
      <trkpt lat="46.80391" lon="4.96902">
        <ele>134.60000610352</ele>
        <time>2017-07-17T12:40:09Z</time>
      </trkpt>
      <trkpt lat="46.80426" lon="4.9688">
        <ele>134.80000305176</ele>
        <time>2017-07-17T12:40:15Z</time>
      </trkpt>
      <trkpt lat="46.80451" lon="4.96864">
        <ele>135.39999389648</ele>
        <time>2017-07-17T12:40:21Z</time>
      </trkpt>
      <trkpt lat="46.80468" lon="4.96853">
        <ele>136</ele>
        <time>2017-07-17T12:40:26Z</time>
      </trkpt>
      <trkpt lat="46.80474" lon="4.9685">
        <ele>136.39999389648</ele>
        <time>2017-07-17T12:40:28Z</time>
      </trkpt>
      <trkpt lat="46.80488" lon="4.96838">
        <ele>137.19999694824</ele>
        <time>2017-07-17T12:40:33Z</time>
      </trkpt>
      <trkpt lat="46.80491" lon="4.96837">
        <ele>137.60000610352</ele>
        <time>2017-07-17T12:40:34Z</time>
      </trkpt>
      <trkpt lat="46.80501" lon="4.96828">
        <ele>138.39999389648</ele>
        <time>2017-07-17T12:40:38Z</time>
      </trkpt>
      <trkpt lat="46.8051" lon="4.96822">
        <ele>139</ele>
        <time>2017-07-17T12:40:41Z</time>
      </trkpt>
      <trkpt lat="46.80515" lon="4.96817">
        <ele>139.39999389648</ele>
        <time>2017-07-17T12:40:43Z</time>
      </trkpt>
      <trkpt lat="46.80526" lon="4.96809">
        <ele>140.19999694824</ele>
        <time>2017-07-17T12:40:47Z</time>
      </trkpt>
      <trkpt lat="46.80532" lon="4.96804">
        <ele>140.60000610352</ele>
        <time>2017-07-17T12:40:49Z</time>
      </trkpt>
      <trkpt lat="46.80546" lon="4.96793">
        <ele>141.60000610352</ele>
        <time>2017-07-17T12:40:54Z</time>
      </trkpt>
      <trkpt lat="46.80552" lon="4.96788">
        <ele>142</ele>
        <time>2017-07-17T12:40:56Z</time>
      </trkpt>
      <trkpt lat="46.80575" lon="4.9677">
        <ele>142.60000610352</ele>
        <time>2017-07-17T12:41:02Z</time>
      </trkpt>
      <trkpt lat="46.80579" lon="4.96767">
        <ele>142.39999389648</ele>
        <time>2017-07-17T12:41:03Z</time>
      </trkpt>
      <trkpt lat="46.80602" lon="4.96759">
        <ele>142</ele>
        <time>2017-07-17T12:41:07Z</time>
      </trkpt>
      <trkpt lat="46.8063" lon="4.96758">
        <ele>141.39999389648</ele>
        <time>2017-07-17T12:41:12Z</time>
      </trkpt>
      <trkpt lat="46.80672" lon="4.96763">
        <ele>141.60000610352</ele>
        <time>2017-07-17T12:41:20Z</time>
      </trkpt>
      <trkpt lat="46.80712" lon="4.96764">
        <ele>142.19999694824</ele>
        <time>2017-07-17T12:41:29Z</time>
      </trkpt>
      <trkpt lat="46.80733" lon="4.96764">
        <ele>142.60000610352</ele>
        <time>2017-07-17T12:41:34Z</time>
      </trkpt>
      <trkpt lat="46.8075" lon="4.96765">
        <ele>143.19999694824</ele>
        <time>2017-07-17T12:41:38Z</time>
      </trkpt>
      <trkpt lat="46.80768" lon="4.96764">
        <ele>143.80000305176</ele>
        <time>2017-07-17T12:41:42Z</time>
      </trkpt>
      <trkpt lat="46.8078" lon="4.96765">
        <ele>144.19999694824</ele>
        <time>2017-07-17T12:41:45Z</time>
      </trkpt>
      <trkpt lat="46.80823" lon="4.96765">
        <ele>144.60000610352</ele>
        <time>2017-07-17T12:41:54Z</time>
      </trkpt>
      <trkpt lat="46.80838" lon="4.96767">
        <ele>144.80000305176</ele>
        <time>2017-07-17T12:41:57Z</time>
      </trkpt>
      <trkpt lat="46.80864" lon="4.9677">
        <ele>144.80000305176</ele>
        <time>2017-07-17T12:42:02Z</time>
      </trkpt>
      <trkpt lat="46.80893" lon="4.96771">
        <ele>144.60000610352</ele>
        <time>2017-07-17T12:42:07Z</time>
      </trkpt>
      <trkpt lat="46.80905" lon="4.96772">
        <ele>144.39999389648</ele>
        <time>2017-07-17T12:42:09Z</time>
      </trkpt>
      <trkpt lat="46.80945" lon="4.96778">
        <ele>144.39999389648</ele>
        <time>2017-07-17T12:42:16Z</time>
      </trkpt>
      <trkpt lat="46.80985" lon="4.96792">
        <ele>144</ele>
        <time>2017-07-17T12:42:23Z</time>
      </trkpt>
      <trkpt lat="46.81001" lon="4.96802">
        <ele>144</ele>
        <time>2017-07-17T12:42:26Z</time>
      </trkpt>
      <trkpt lat="46.81016" lon="4.96813">
        <ele>143.80000305176</ele>
        <time>2017-07-17T12:42:29Z</time>
      </trkpt>
      <trkpt lat="46.81026" lon="4.9682">
        <ele>143.60000610352</ele>
        <time>2017-07-17T12:42:31Z</time>
      </trkpt>
      <trkpt lat="46.81061" lon="4.9685">
        <ele>143</ele>
        <time>2017-07-17T12:42:38Z</time>
      </trkpt>
      <trkpt lat="46.811" lon="4.96882">
        <ele>142.60000610352</ele>
        <time>2017-07-17T12:42:45Z</time>
      </trkpt>
      <trkpt lat="46.81106" lon="4.96886">
        <ele>142.60000610352</ele>
        <time>2017-07-17T12:42:46Z</time>
      </trkpt>
      <trkpt lat="46.81156" lon="4.9692">
        <ele>141.80000305176</ele>
        <time>2017-07-17T12:42:54Z</time>
      </trkpt>
      <trkpt lat="46.81162" lon="4.96923">
        <ele>141.80000305176</ele>
        <time>2017-07-17T12:42:55Z</time>
      </trkpt>
      <trkpt lat="46.81181" lon="4.96933">
        <ele>141.60000610352</ele>
        <time>2017-07-17T12:42:58Z</time>
      </trkpt>
      <trkpt lat="46.81206" lon="4.96941">
        <ele>141.19999694824</ele>
        <time>2017-07-17T12:43:02Z</time>
      </trkpt>
      <trkpt lat="46.8125" lon="4.96943">
        <ele>140.80000305176</ele>
        <time>2017-07-17T12:43:09Z</time>
      </trkpt>
      <trkpt lat="46.81281" lon="4.9694">
        <ele>140.60000610352</ele>
        <time>2017-07-17T12:43:14Z</time>
      </trkpt>
      <trkpt lat="46.81287" lon="4.96939">
        <ele>140.39999389648</ele>
        <time>2017-07-17T12:43:15Z</time>
      </trkpt>
      <trkpt lat="46.81322" lon="4.96932">
        <ele>140.19999694824</ele>
        <time>2017-07-17T12:43:21Z</time>
      </trkpt>
      <trkpt lat="46.81328" lon="4.96929">
        <ele>140.19999694824</ele>
        <time>2017-07-17T12:43:22Z</time>
      </trkpt>
      <trkpt lat="46.81352" lon="4.96915">
        <ele>140.19999694824</ele>
        <time>2017-07-17T12:43:27Z</time>
      </trkpt>
      <trkpt lat="46.81356" lon="4.96911">
        <ele>140</ele>
        <time>2017-07-17T12:43:28Z</time>
      </trkpt>
      <trkpt lat="46.81374" lon="4.96901">
        <ele>140.19999694824</ele>
        <time>2017-07-17T12:43:33Z</time>
      </trkpt>
      <trkpt lat="46.81373" lon="4.96914">
        <ele>140</ele>
        <time>2017-07-17T12:43:35Z</time>
      </trkpt>
      <trkpt lat="46.81368" lon="4.96932">
        <ele>139.80000305176</ele>
        <time>2017-07-17T12:43:38Z</time>
      </trkpt>
      <trkpt lat="46.81367" lon="4.96939">
        <ele>139.80000305176</ele>
        <time>2017-07-17T12:43:39Z</time>
      </trkpt>
      <trkpt lat="46.81365" lon="4.9695">
        <ele>139.60000610352</ele>
        <time>2017-07-17T12:43:41Z</time>
      </trkpt>
      <trkpt lat="46.81365" lon="4.96963">
        <ele>139.39999389648</ele>
        <time>2017-07-17T12:43:43Z</time>
      </trkpt>
      <trkpt lat="46.81367" lon="4.96969">
        <ele>139.39999389648</ele>
        <time>2017-07-17T12:43:44Z</time>
      </trkpt>
      <trkpt lat="46.81382" lon="4.96979">
        <ele>139.19999694824</ele>
        <time>2017-07-17T12:43:47Z</time>
      </trkpt>
      <trkpt lat="46.81387" lon="4.96982">
        <ele>139.19999694824</ele>
        <time>2017-07-17T12:43:48Z</time>
      </trkpt>
      <trkpt lat="46.81392" lon="4.96986">
        <ele>139.39999389648</ele>
        <time>2017-07-17T12:43:49Z</time>
      </trkpt>
      <trkpt lat="46.81414" lon="4.97">
        <ele>139.19999694824</ele>
        <time>2017-07-17T12:43:53Z</time>
      </trkpt>
      <trkpt lat="46.8146" lon="4.97022">
        <ele>138.80000305176</ele>
        <time>2017-07-17T12:44:01Z</time>
      </trkpt>
      <trkpt lat="46.8149" lon="4.97022">
        <ele>138.60000610352</ele>
        <time>2017-07-17T12:44:06Z</time>
      </trkpt>
      <trkpt lat="46.81508" lon="4.97018">
        <ele>138.39999389648</ele>
        <time>2017-07-17T12:44:09Z</time>
      </trkpt>
      <trkpt lat="46.81533" lon="4.97013">
        <ele>138.19999694824</ele>
        <time>2017-07-17T12:44:13Z</time>
      </trkpt>
      <trkpt lat="46.81575" lon="4.97">
        <ele>138.19999694824</ele>
        <time>2017-07-17T12:44:20Z</time>
      </trkpt>
      <trkpt lat="46.81615" lon="4.96991">
        <ele>138</ele>
        <time>2017-07-17T12:44:27Z</time>
      </trkpt>
      <trkpt lat="46.81626" lon="4.9699">
        <ele>137.80000305176</ele>
        <time>2017-07-17T12:44:29Z</time>
      </trkpt>
      <trkpt lat="46.81638" lon="4.96992">
        <ele>137.60000610352</ele>
        <time>2017-07-17T12:44:31Z</time>
      </trkpt>
      <trkpt lat="46.81663" lon="4.96994">
        <ele>137.60000610352</ele>
        <time>2017-07-17T12:44:35Z</time>
      </trkpt>
      <trkpt lat="46.8167" lon="4.96994">
        <ele>137.60000610352</ele>
        <time>2017-07-17T12:44:36Z</time>
      </trkpt>
      <trkpt lat="46.81695" lon="4.96997">
        <ele>137.39999389648</ele>
        <time>2017-07-17T12:44:40Z</time>
      </trkpt>
      <trkpt lat="46.81707" lon="4.96999">
        <ele>137.39999389648</ele>
        <time>2017-07-17T12:44:42Z</time>
      </trkpt>
      <trkpt lat="46.81742" lon="4.97006">
        <ele>136.80000305176</ele>
        <time>2017-07-17T12:44:48Z</time>
      </trkpt>
      <trkpt lat="46.81784" lon="4.97019">
        <ele>136.39999389648</ele>
        <time>2017-07-17T12:44:55Z</time>
      </trkpt>
      <trkpt lat="46.8179" lon="4.9702">
        <ele>136.19999694824</ele>
        <time>2017-07-17T12:44:56Z</time>
      </trkpt>
      <trkpt lat="46.81796" lon="4.97018">
        <ele>136</ele>
        <time>2017-07-17T12:44:57Z</time>
      </trkpt>
      <trkpt lat="46.81803" lon="4.97013">
        <ele>135.80000305176</ele>
        <time>2017-07-17T12:44:59Z</time>
      </trkpt>
      <trkpt lat="46.81814" lon="4.97003">
        <ele>135.39999389648</ele>
        <time>2017-07-17T12:45:03Z</time>
      </trkpt>
      <trkpt lat="46.81815" lon="4.97004">
        <ele>135.19999694824</ele>
        <time>2017-07-17T12:45:04Z</time>
      </trkpt>
      <trkpt lat="46.81818" lon="4.96997">
        <ele>135.19999694824</ele>
        <time>2017-07-17T12:45:07Z</time>
      </trkpt>
      <trkpt lat="46.81825" lon="4.96977">
        <ele>135.19999694824</ele>
        <time>2017-07-17T12:45:12Z</time>
      </trkpt>
      <trkpt lat="46.81828" lon="4.96973">
        <ele>135.19999694824</ele>
        <time>2017-07-17T12:45:13Z</time>
      </trkpt>
      <trkpt lat="46.8183" lon="4.96968">
        <ele>135.39999389648</ele>
        <time>2017-07-17T12:45:14Z</time>
      </trkpt>
      <trkpt lat="46.81838" lon="4.96952">
        <ele>135.60000610352</ele>
        <time>2017-07-17T12:45:17Z</time>
      </trkpt>
      <trkpt lat="46.81857" lon="4.96911">
        <ele>135.60000610352</ele>
        <time>2017-07-17T12:45:24Z</time>
      </trkpt>
      <trkpt lat="46.81879" lon="4.96866">
        <ele>136.19999694824</ele>
        <time>2017-07-17T12:45:32Z</time>
      </trkpt>
      <trkpt lat="46.81883" lon="4.96856">
        <ele>136.19999694824</ele>
        <time>2017-07-17T12:45:34Z</time>
      </trkpt>
      <trkpt lat="46.81893" lon="4.96834">
        <ele>136.60000610352</ele>
        <time>2017-07-17T12:45:39Z</time>
      </trkpt>
      <trkpt lat="46.81908" lon="4.96822">
        <ele>136.60000610352</ele>
        <time>2017-07-17T12:45:44Z</time>
      </trkpt>
      <trkpt lat="46.8192" lon="4.96817">
        <ele>136.80000305176</ele>
        <time>2017-07-17T12:45:47Z</time>
      </trkpt>
      <trkpt lat="46.81929" lon="4.96816">
        <ele>136.80000305176</ele>
        <time>2017-07-17T12:45:49Z</time>
      </trkpt>
      <trkpt lat="46.81934" lon="4.96814">
        <ele>137</ele>
        <time>2017-07-17T12:45:51Z</time>
      </trkpt>
      <trkpt lat="46.81931" lon="4.9681">
        <ele>137.19999694824</ele>
        <time>2017-07-17T12:45:54Z</time>
      </trkpt>
      <trkpt lat="46.81922" lon="4.96816">
        <ele>137</ele>
        <time>2017-07-17T12:45:58Z</time>
      </trkpt>
      <trkpt lat="46.81916" lon="4.96809">
        <ele>137</ele>
        <time>2017-07-17T12:46:01Z</time>
      </trkpt>
      <trkpt lat="46.81915" lon="4.96803">
        <ele>137.19999694824</ele>
        <time>2017-07-17T12:46:04Z</time>
      </trkpt>
      <trkpt lat="46.81916" lon="4.96807">
        <ele>137.80000305176</ele>
        <time>2017-07-17T12:49:51Z</time>
      </trkpt>
      <trkpt lat="46.81922" lon="4.96814">
        <ele>137.80000305176</ele>
        <time>2017-07-17T12:49:54Z</time>
      </trkpt>
      <trkpt lat="46.81934" lon="4.96811">
        <ele>137.60000610352</ele>
        <time>2017-07-17T12:49:58Z</time>
      </trkpt>
      <trkpt lat="46.81951" lon="4.96798">
        <ele>137.80000305176</ele>
        <time>2017-07-17T12:50:04Z</time>
      </trkpt>
      <trkpt lat="46.8197" lon="4.96774">
        <ele>137.80000305176</ele>
        <time>2017-07-17T12:50:12Z</time>
      </trkpt>
      <trkpt lat="46.81979" lon="4.96767">
        <ele>138</ele>
        <time>2017-07-17T12:50:17Z</time>
      </trkpt>
      <trkpt lat="46.81981" lon="4.9677">
        <ele>138</ele>
        <time>2017-07-17T12:50:18Z</time>
      </trkpt>
      <trkpt lat="46.81993" lon="4.96788">
        <ele>138</ele>
        <time>2017-07-17T12:50:22Z</time>
      </trkpt>
      <trkpt lat="46.81999" lon="4.96798">
        <ele>138.19999694824</ele>
        <time>2017-07-17T12:50:24Z</time>
      </trkpt>
      <trkpt lat="46.82013" lon="4.9682">
        <ele>138.19999694824</ele>
        <time>2017-07-17T12:50:28Z</time>
      </trkpt>
      <trkpt lat="46.8205" lon="4.96878">
        <ele>138.39999389648</ele>
        <time>2017-07-17T12:50:39Z</time>
      </trkpt>
      <trkpt lat="46.82074" lon="4.96919">
        <ele>138.19999694824</ele>
        <time>2017-07-17T12:50:46Z</time>
      </trkpt>
      <trkpt lat="46.82107" lon="4.96976">
        <ele>138</ele>
        <time>2017-07-17T12:50:55Z</time>
      </trkpt>
      <trkpt lat="46.82143" lon="4.97035">
        <ele>137.60000610352</ele>
        <time>2017-07-17T12:51:04Z</time>
      </trkpt>
      <trkpt lat="46.8218" lon="4.97096">
        <ele>137</ele>
        <time>2017-07-17T12:51:13Z</time>
      </trkpt>
      <trkpt lat="46.82184" lon="4.97103">
        <ele>136.80000305176</ele>
        <time>2017-07-17T12:51:14Z</time>
      </trkpt>
      <trkpt lat="46.82215" lon="4.97153">
        <ele>135.80000305176</ele>
        <time>2017-07-17T12:51:21Z</time>
      </trkpt>
      <trkpt lat="46.82251" lon="4.97212">
        <ele>134.80000305176</ele>
        <time>2017-07-17T12:51:29Z</time>
      </trkpt>
      <trkpt lat="46.82255" lon="4.9722">
        <ele>134.60000610352</ele>
        <time>2017-07-17T12:51:30Z</time>
      </trkpt>
      <trkpt lat="46.82293" lon="4.97282">
        <ele>133.80000305176</ele>
        <time>2017-07-17T12:51:39Z</time>
      </trkpt>
      <trkpt lat="46.82297" lon="4.97289">
        <ele>133.60000610352</ele>
        <time>2017-07-17T12:51:40Z</time>
      </trkpt>
      <trkpt lat="46.82333" lon="4.97349">
        <ele>133.19999694824</ele>
        <time>2017-07-17T12:51:49Z</time>
      </trkpt>
      <trkpt lat="46.82368" lon="4.97409">
        <ele>132.80000305176</ele>
        <time>2017-07-17T12:51:58Z</time>
      </trkpt>
      <trkpt lat="46.82372" lon="4.97415">
        <ele>132.80000305176</ele>
        <time>2017-07-17T12:51:59Z</time>
      </trkpt>
      <trkpt lat="46.82404" lon="4.97467">
        <ele>132.80000305176</ele>
        <time>2017-07-17T12:52:07Z</time>
      </trkpt>
      <trkpt lat="46.82437" lon="4.97522">
        <ele>133</ele>
        <time>2017-07-17T12:52:16Z</time>
      </trkpt>
      <trkpt lat="46.82465" lon="4.9757">
        <ele>133.60000610352</ele>
        <time>2017-07-17T12:52:25Z</time>
      </trkpt>
      <trkpt lat="46.8249" lon="4.9761">
        <ele>134.60000610352</ele>
        <time>2017-07-17T12:52:33Z</time>
      </trkpt>
      <trkpt lat="46.82506" lon="4.97637">
        <ele>134.80000305176</ele>
        <time>2017-07-17T12:52:38Z</time>
      </trkpt>
      <trkpt lat="46.82519" lon="4.97659">
        <ele>134.80000305176</ele>
        <time>2017-07-17T12:52:42Z</time>
      </trkpt>
      <trkpt lat="46.82545" lon="4.97703">
        <ele>134.80000305176</ele>
        <time>2017-07-17T12:52:49Z</time>
      </trkpt>
      <trkpt lat="46.8258" lon="4.9776">
        <ele>133.60000610352</ele>
        <time>2017-07-17T12:52:57Z</time>
      </trkpt>
      <trkpt lat="46.82585" lon="4.97767">
        <ele>133.39999389648</ele>
        <time>2017-07-17T12:52:58Z</time>
      </trkpt>
      <trkpt lat="46.82604" lon="4.978">
        <ele>132.60000610352</ele>
        <time>2017-07-17T12:53:02Z</time>
      </trkpt>
      <trkpt lat="46.8262" lon="4.97826">
        <ele>131.39999389648</ele>
        <time>2017-07-17T12:53:05Z</time>
      </trkpt>
      <trkpt lat="46.82625" lon="4.97835">
        <ele>131.19999694824</ele>
        <time>2017-07-17T12:53:06Z</time>
      </trkpt>
      <trkpt lat="46.82646" lon="4.97869">
        <ele>130.19999694824</ele>
        <time>2017-07-17T12:53:10Z</time>
      </trkpt>
      <trkpt lat="46.82666" lon="4.97902">
        <ele>129.19999694824</ele>
        <time>2017-07-17T12:53:14Z</time>
      </trkpt>
      <trkpt lat="46.82687" lon="4.97936">
        <ele>128</ele>
        <time>2017-07-17T12:53:18Z</time>
      </trkpt>
      <trkpt lat="46.82712" lon="4.97977">
        <ele>127</ele>
        <time>2017-07-17T12:53:23Z</time>
      </trkpt>
      <trkpt lat="46.82731" lon="4.98008">
        <ele>126.59999847412</ele>
        <time>2017-07-17T12:53:27Z</time>
      </trkpt>
      <trkpt lat="46.82764" lon="4.98063">
        <ele>126</ele>
        <time>2017-07-17T12:53:34Z</time>
      </trkpt>
      <trkpt lat="46.82773" lon="4.98078">
        <ele>125.59999847412</ele>
        <time>2017-07-17T12:53:36Z</time>
      </trkpt>
      <trkpt lat="46.82811" lon="4.98141">
        <ele>125.40000152588</ele>
        <time>2017-07-17T12:53:45Z</time>
      </trkpt>
      <trkpt lat="46.82841" lon="4.98189">
        <ele>126.19999694824</ele>
        <time>2017-07-17T12:53:53Z</time>
      </trkpt>
      <trkpt lat="46.82858" lon="4.98216">
        <ele>127</ele>
        <time>2017-07-17T12:53:58Z</time>
      </trkpt>
      <trkpt lat="46.82872" lon="4.9824">
        <ele>127.59999847412</ele>
        <time>2017-07-17T12:54:02Z</time>
      </trkpt>
      <trkpt lat="46.82888" lon="4.98266">
        <ele>128</ele>
        <time>2017-07-17T12:54:06Z</time>
      </trkpt>
      <trkpt lat="46.82905" lon="4.98296">
        <ele>128</ele>
        <time>2017-07-17T12:54:10Z</time>
      </trkpt>
      <trkpt lat="46.82939" lon="4.98352">
        <ele>126.80000305176</ele>
        <time>2017-07-17T12:54:17Z</time>
      </trkpt>
      <trkpt lat="46.82948" lon="4.98367">
        <ele>126.19999694824</ele>
        <time>2017-07-17T12:54:19Z</time>
      </trkpt>
      <trkpt lat="46.82976" lon="4.98411">
        <ele>125.59999847412</ele>
        <time>2017-07-17T12:54:25Z</time>
      </trkpt>
      <trkpt lat="46.82989" lon="4.98433">
        <ele>125.40000152588</ele>
        <time>2017-07-17T12:54:28Z</time>
      </trkpt>
      <trkpt lat="46.83025" lon="4.98493">
        <ele>124.59999847412</ele>
        <time>2017-07-17T12:54:37Z</time>
      </trkpt>
      <trkpt lat="46.83059" lon="4.9855">
        <ele>124.59999847412</ele>
        <time>2017-07-17T12:54:46Z</time>
      </trkpt>
      <trkpt lat="46.83066" lon="4.98563">
        <ele>124.40000152588</ele>
        <time>2017-07-17T12:54:48Z</time>
      </trkpt>
      <trkpt lat="46.83105" lon="4.98625">
        <ele>125</ele>
        <time>2017-07-17T12:54:58Z</time>
      </trkpt>
      <trkpt lat="46.83108" lon="4.98632">
        <ele>125</ele>
        <time>2017-07-17T12:54:59Z</time>
      </trkpt>
      <trkpt lat="46.83132" lon="4.98669">
        <ele>125.59999847412</ele>
        <time>2017-07-17T12:55:05Z</time>
      </trkpt>
      <trkpt lat="46.83147" lon="4.98694">
        <ele>125.80000305176</ele>
        <time>2017-07-17T12:55:09Z</time>
      </trkpt>
      <trkpt lat="46.83178" lon="4.98745">
        <ele>126.59999847412</ele>
        <time>2017-07-17T12:55:17Z</time>
      </trkpt>
      <trkpt lat="46.83186" lon="4.98758">
        <ele>127</ele>
        <time>2017-07-17T12:55:19Z</time>
      </trkpt>
      <trkpt lat="46.83206" lon="4.9879">
        <ele>127.80000305176</ele>
        <time>2017-07-17T12:55:24Z</time>
      </trkpt>
      <trkpt lat="46.83225" lon="4.9882">
        <ele>128.60000610352</ele>
        <time>2017-07-17T12:55:29Z</time>
      </trkpt>
      <trkpt lat="46.83229" lon="4.98826">
        <ele>128.80000305176</ele>
        <time>2017-07-17T12:55:30Z</time>
      </trkpt>
      <trkpt lat="46.83247" lon="4.98855">
        <ele>129.80000305176</ele>
        <time>2017-07-17T12:55:35Z</time>
      </trkpt>
      <trkpt lat="46.83257" lon="4.98871">
        <ele>130.19999694824</ele>
        <time>2017-07-17T12:55:38Z</time>
      </trkpt>
      <trkpt lat="46.83273" lon="4.98899">
        <ele>130.80000305176</ele>
        <time>2017-07-17T12:55:43Z</time>
      </trkpt>
      <trkpt lat="46.8329" lon="4.98926">
        <ele>131.39999389648</ele>
        <time>2017-07-17T12:55:48Z</time>
      </trkpt>
      <trkpt lat="46.833" lon="4.98943">
        <ele>131.80000305176</ele>
        <time>2017-07-17T12:55:51Z</time>
      </trkpt>
      <trkpt lat="46.83317" lon="4.9897">
        <ele>132.39999389648</ele>
        <time>2017-07-17T12:55:56Z</time>
      </trkpt>
      <trkpt lat="46.83321" lon="4.98975">
        <ele>132.60000610352</ele>
        <time>2017-07-17T12:55:57Z</time>
      </trkpt>
      <trkpt lat="46.83324" lon="4.98981">
        <ele>132.80000305176</ele>
        <time>2017-07-17T12:55:58Z</time>
      </trkpt>
      <trkpt lat="46.8333" lon="4.98992">
        <ele>133</ele>
        <time>2017-07-17T12:56:00Z</time>
      </trkpt>
      <trkpt lat="46.83339" lon="4.99009">
        <ele>133.19999694824</ele>
        <time>2017-07-17T12:56:03Z</time>
      </trkpt>
      <trkpt lat="46.83366" lon="4.99054">
        <ele>133.80000305176</ele>
        <time>2017-07-17T12:56:11Z</time>
      </trkpt>
      <trkpt lat="46.83402" lon="4.99109">
        <ele>134</ele>
        <time>2017-07-17T12:56:21Z</time>
      </trkpt>
      <trkpt lat="46.83436" lon="4.99166">
        <ele>134</ele>
        <time>2017-07-17T12:56:30Z</time>
      </trkpt>
      <trkpt lat="46.83472" lon="4.99229">
        <ele>134</ele>
        <time>2017-07-17T12:56:39Z</time>
      </trkpt>
      <trkpt lat="46.8351" lon="4.99294">
        <ele>134</ele>
        <time>2017-07-17T12:56:48Z</time>
      </trkpt>
      <trkpt lat="46.83513" lon="4.993">
        <ele>134</ele>
        <time>2017-07-17T12:56:49Z</time>
      </trkpt>
      <trkpt lat="46.83516" lon="4.99306">
        <ele>134</ele>
        <time>2017-07-17T12:56:50Z</time>
      </trkpt>
      <trkpt lat="46.8352" lon="4.99321">
        <ele>134</ele>
        <time>2017-07-17T12:56:53Z</time>
      </trkpt>
      <trkpt lat="46.83525" lon="4.99329">
        <ele>133.80000305176</ele>
        <time>2017-07-17T12:56:56Z</time>
      </trkpt>
      <trkpt lat="46.83528" lon="4.99328">
        <ele>133.60000610352</ele>
        <time>2017-07-17T12:57:38Z</time>
      </trkpt>
      <trkpt lat="46.83529" lon="4.99329">
        <ele>133.60000610352</ele>
        <time>2017-07-17T12:57:39Z</time>
      </trkpt>
      <trkpt lat="46.83537" lon="4.99341">
        <ele>133.60000610352</ele>
        <time>2017-07-17T12:57:43Z</time>
      </trkpt>
      <trkpt lat="46.83551" lon="4.99364">
        <ele>134</ele>
        <time>2017-07-17T12:57:48Z</time>
      </trkpt>
      <trkpt lat="46.83573" lon="4.99399">
        <ele>134</ele>
        <time>2017-07-17T12:57:54Z</time>
      </trkpt>
      <trkpt lat="46.83602" lon="4.99446">
        <ele>134.19999694824</ele>
        <time>2017-07-17T12:58:01Z</time>
      </trkpt>
      <trkpt lat="46.83639" lon="4.99508">
        <ele>134.19999694824</ele>
        <time>2017-07-17T12:58:10Z</time>
      </trkpt>
      <trkpt lat="46.83643" lon="4.99515">
        <ele>134.19999694824</ele>
        <time>2017-07-17T12:58:11Z</time>
      </trkpt>
      <trkpt lat="46.83675" lon="4.99567">
        <ele>134.39999389648</ele>
        <time>2017-07-17T12:58:19Z</time>
      </trkpt>
      <trkpt lat="46.83715" lon="4.99633">
        <ele>134.39999389648</ele>
        <time>2017-07-17T12:58:29Z</time>
      </trkpt>
      <trkpt lat="46.83752" lon="4.99695">
        <ele>134.19999694824</ele>
        <time>2017-07-17T12:58:38Z</time>
      </trkpt>
      <trkpt lat="46.8376" lon="4.99709">
        <ele>134.19999694824</ele>
        <time>2017-07-17T12:58:40Z</time>
      </trkpt>
      <trkpt lat="46.83799" lon="4.99774">
        <ele>134.19999694824</ele>
        <time>2017-07-17T12:58:49Z</time>
      </trkpt>
      <trkpt lat="46.83837" lon="4.99835">
        <ele>133.39999389648</ele>
        <time>2017-07-17T12:58:57Z</time>
      </trkpt>
      <trkpt lat="46.83841" lon="4.99843">
        <ele>133.19999694824</ele>
        <time>2017-07-17T12:58:58Z</time>
      </trkpt>
      <trkpt lat="46.83861" lon="4.99877">
        <ele>133</ele>
        <time>2017-07-17T12:59:02Z</time>
      </trkpt>
      <trkpt lat="46.83882" lon="4.99911">
        <ele>132</ele>
        <time>2017-07-17T12:59:06Z</time>
      </trkpt>
      <trkpt lat="46.83887" lon="4.9992">
        <ele>131.80000305176</ele>
        <time>2017-07-17T12:59:07Z</time>
      </trkpt>
      <trkpt lat="46.83914" lon="4.99964">
        <ele>130.80000305176</ele>
        <time>2017-07-17T12:59:12Z</time>
      </trkpt>
      <trkpt lat="46.8393" lon="4.99991">
        <ele>130.39999389648</ele>
        <time>2017-07-17T12:59:15Z</time>
      </trkpt>
      <trkpt lat="46.83952" lon="5.00026">
        <ele>129.60000610352</ele>
        <time>2017-07-17T12:59:19Z</time>
      </trkpt>
      <trkpt lat="46.83973" lon="5.00061">
        <ele>128.60000610352</ele>
        <time>2017-07-17T12:59:23Z</time>
      </trkpt>
      <trkpt lat="46.83978" lon="5.0007">
        <ele>128.39999389648</ele>
        <time>2017-07-17T12:59:24Z</time>
      </trkpt>
      <trkpt lat="46.84008" lon="5.00121">
        <ele>127.59999847412</ele>
        <time>2017-07-17T12:59:30Z</time>
      </trkpt>
      <trkpt lat="46.84013" lon="5.00129">
        <ele>127.40000152588</ele>
        <time>2017-07-17T12:59:31Z</time>
      </trkpt>
      <trkpt lat="46.84023" lon="5.00145">
        <ele>127.19999694824</ele>
        <time>2017-07-17T12:59:33Z</time>
      </trkpt>
      <trkpt lat="46.84062" lon="5.00209">
        <ele>127</ele>
        <time>2017-07-17T12:59:41Z</time>
      </trkpt>
      <trkpt lat="46.841" lon="5.00272">
        <ele>126.80000305176</ele>
        <time>2017-07-17T12:59:49Z</time>
      </trkpt>
      <trkpt lat="46.84104" lon="5.0028">
        <ele>126.80000305176</ele>
        <time>2017-07-17T12:59:50Z</time>
      </trkpt>
      <trkpt lat="46.84141" lon="5.00339">
        <ele>126.80000305176</ele>
        <time>2017-07-17T12:59:58Z</time>
      </trkpt>
      <trkpt lat="46.84149" lon="5.00354">
        <ele>126.80000305176</ele>
        <time>2017-07-17T13:00:00Z</time>
      </trkpt>
      <trkpt lat="46.84181" lon="5.00407">
        <ele>127.59999847412</ele>
        <time>2017-07-17T13:00:08Z</time>
      </trkpt>
      <trkpt lat="46.8421" lon="5.00456">
        <ele>128.39999389648</ele>
        <time>2017-07-17T13:00:16Z</time>
      </trkpt>
      <trkpt lat="46.84224" lon="5.00479">
        <ele>129</ele>
        <time>2017-07-17T13:00:20Z</time>
      </trkpt>
      <trkpt lat="46.84228" lon="5.00485">
        <ele>129.19999694824</ele>
        <time>2017-07-17T13:00:21Z</time>
      </trkpt>
      <trkpt lat="46.84246" lon="5.00514">
        <ele>129.60000610352</ele>
        <time>2017-07-17T13:00:26Z</time>
      </trkpt>
      <trkpt lat="46.84264" lon="5.00545">
        <ele>129.60000610352</ele>
        <time>2017-07-17T13:00:31Z</time>
      </trkpt>
      <trkpt lat="46.8429" lon="5.00588">
        <ele>129.60000610352</ele>
        <time>2017-07-17T13:00:38Z</time>
      </trkpt>
      <trkpt lat="46.84326" lon="5.0065">
        <ele>129</ele>
        <time>2017-07-17T13:00:48Z</time>
      </trkpt>
      <trkpt lat="46.84363" lon="5.00709">
        <ele>128.80000305176</ele>
        <time>2017-07-17T13:00:58Z</time>
      </trkpt>
      <trkpt lat="46.84367" lon="5.00715">
        <ele>128.80000305176</ele>
        <time>2017-07-17T13:00:59Z</time>
      </trkpt>
      <trkpt lat="46.844" lon="5.0077">
        <ele>129.19999694824</ele>
        <time>2017-07-17T13:01:08Z</time>
      </trkpt>
      <trkpt lat="46.84428" lon="5.00817">
        <ele>129.80000305176</ele>
        <time>2017-07-17T13:01:16Z</time>
      </trkpt>
      <trkpt lat="46.84464" lon="5.00878">
        <ele>130.60000610352</ele>
        <time>2017-07-17T13:01:26Z</time>
      </trkpt>
      <trkpt lat="46.84502" lon="5.00941">
        <ele>131.39999389648</ele>
        <time>2017-07-17T13:01:37Z</time>
      </trkpt>
      <trkpt lat="46.84516" lon="5.00963">
        <ele>131.60000610352</ele>
        <time>2017-07-17T13:01:41Z</time>
      </trkpt>
      <trkpt lat="46.84535" lon="5.00996">
        <ele>132.19999694824</ele>
        <time>2017-07-17T13:01:47Z</time>
      </trkpt>
      <trkpt lat="46.84561" lon="5.01039">
        <ele>132.80000305176</ele>
        <time>2017-07-17T13:01:55Z</time>
      </trkpt>
      <trkpt lat="46.84567" lon="5.01049">
        <ele>132.80000305176</ele>
        <time>2017-07-17T13:01:57Z</time>
      </trkpt>
      <trkpt lat="46.84597" lon="5.01101">
        <ele>133.39999389648</ele>
        <time>2017-07-17T13:02:07Z</time>
      </trkpt>
      <trkpt lat="46.84632" lon="5.01159">
        <ele>133.39999389648</ele>
        <time>2017-07-17T13:02:18Z</time>
      </trkpt>
      <trkpt lat="46.8467" lon="5.01224">
        <ele>133</ele>
        <time>2017-07-17T13:02:29Z</time>
      </trkpt>
      <trkpt lat="46.84673" lon="5.0123">
        <ele>133</ele>
        <time>2017-07-17T13:02:30Z</time>
      </trkpt>
      <trkpt lat="46.84709" lon="5.01289">
        <ele>133</ele>
        <time>2017-07-17T13:02:40Z</time>
      </trkpt>
      <trkpt lat="46.84716" lon="5.01301">
        <ele>133</ele>
        <time>2017-07-17T13:02:42Z</time>
      </trkpt>
      <trkpt lat="46.8475" lon="5.01356">
        <ele>132.39999389648</ele>
        <time>2017-07-17T13:02:51Z</time>
      </trkpt>
      <trkpt lat="46.84787" lon="5.01418">
        <ele>132</ele>
        <time>2017-07-17T13:03:01Z</time>
      </trkpt>
      <trkpt lat="46.84792" lon="5.01425">
        <ele>132</ele>
        <time>2017-07-17T13:03:02Z</time>
      </trkpt>
      <trkpt lat="46.84807" lon="5.0145">
        <ele>131.60000610352</ele>
        <time>2017-07-17T13:03:06Z</time>
      </trkpt>
      <trkpt lat="46.84832" lon="5.0149">
        <ele>131.39999389648</ele>
        <time>2017-07-17T13:03:12Z</time>
      </trkpt>
      <trkpt lat="46.84861" lon="5.01535">
        <ele>131.39999389648</ele>
        <time>2017-07-17T13:03:19Z</time>
      </trkpt>
      <trkpt lat="46.84891" lon="5.01585">
        <ele>131.60000610352</ele>
        <time>2017-07-17T13:03:27Z</time>
      </trkpt>
      <trkpt lat="46.84894" lon="5.01591">
        <ele>131.60000610352</ele>
        <time>2017-07-17T13:03:28Z</time>
      </trkpt>
      <trkpt lat="46.84932" lon="5.01654">
        <ele>132</ele>
        <time>2017-07-17T13:03:38Z</time>
      </trkpt>
      <trkpt lat="46.84936" lon="5.0166">
        <ele>132</ele>
        <time>2017-07-17T13:03:39Z</time>
      </trkpt>
      <trkpt lat="46.84973" lon="5.01722">
        <ele>132.60000610352</ele>
        <time>2017-07-17T13:03:49Z</time>
      </trkpt>
      <trkpt lat="46.84977" lon="5.01728">
        <ele>132.80000305176</ele>
        <time>2017-07-17T13:03:50Z</time>
      </trkpt>
      <trkpt lat="46.85007" lon="5.01778">
        <ele>133.19999694824</ele>
        <time>2017-07-17T13:03:58Z</time>
      </trkpt>
      <trkpt lat="46.85043" lon="5.01839">
        <ele>133.60000610352</ele>
        <time>2017-07-17T13:04:08Z</time>
      </trkpt>
      <trkpt lat="46.85047" lon="5.01845">
        <ele>133.60000610352</ele>
        <time>2017-07-17T13:04:09Z</time>
      </trkpt>
      <trkpt lat="46.85058" lon="5.01863">
        <ele>133.80000305176</ele>
        <time>2017-07-17T13:04:12Z</time>
      </trkpt>
      <trkpt lat="46.85091" lon="5.01917">
        <ele>134.39999389648</ele>
        <time>2017-07-17T13:04:21Z</time>
      </trkpt>
      <trkpt lat="46.85105" lon="5.01941">
        <ele>134.80000305176</ele>
        <time>2017-07-17T13:04:25Z</time>
      </trkpt>
      <trkpt lat="46.85127" lon="5.01977">
        <ele>135</ele>
        <time>2017-07-17T13:04:31Z</time>
      </trkpt>
      <trkpt lat="46.85164" lon="5.02037">
        <ele>135.19999694824</ele>
        <time>2017-07-17T13:04:41Z</time>
      </trkpt>
      <trkpt lat="46.85167" lon="5.02043">
        <ele>135.19999694824</ele>
        <time>2017-07-17T13:04:42Z</time>
      </trkpt>
      <trkpt lat="46.85205" lon="5.02106">
        <ele>135.60000610352</ele>
        <time>2017-07-17T13:04:52Z</time>
      </trkpt>
      <trkpt lat="46.85212" lon="5.02119">
        <ele>135.60000610352</ele>
        <time>2017-07-17T13:04:54Z</time>
      </trkpt>
      <trkpt lat="46.85227" lon="5.02143">
        <ele>135.80000305176</ele>
        <time>2017-07-17T13:04:58Z</time>
      </trkpt>
      <trkpt lat="46.85256" lon="5.02193">
        <ele>136.19999694824</ele>
        <time>2017-07-17T13:05:06Z</time>
      </trkpt>
      <trkpt lat="46.85294" lon="5.02256">
        <ele>136.19999694824</ele>
        <time>2017-07-17T13:05:16Z</time>
      </trkpt>
      <trkpt lat="46.85298" lon="5.02263">
        <ele>136.19999694824</ele>
        <time>2017-07-17T13:05:17Z</time>
      </trkpt>
      <trkpt lat="46.85332" lon="5.02319">
        <ele>135.80000305176</ele>
        <time>2017-07-17T13:05:25Z</time>
      </trkpt>
      <trkpt lat="46.85369" lon="5.0238">
        <ele>135</ele>
        <time>2017-07-17T13:05:33Z</time>
      </trkpt>
      <trkpt lat="46.85378" lon="5.02396">
        <ele>134.80000305176</ele>
        <time>2017-07-17T13:05:35Z</time>
      </trkpt>
      <trkpt lat="46.85388" lon="5.02413">
        <ele>134.80000305176</ele>
        <time>2017-07-17T13:05:37Z</time>
      </trkpt>
      <trkpt lat="46.85418" lon="5.02463">
        <ele>134</ele>
        <time>2017-07-17T13:05:43Z</time>
      </trkpt>
      <trkpt lat="46.85429" lon="5.02481">
        <ele>133.60000610352</ele>
        <time>2017-07-17T13:05:45Z</time>
      </trkpt>
      <trkpt lat="46.85461" lon="5.02535">
        <ele>132.39999389648</ele>
        <time>2017-07-17T13:05:51Z</time>
      </trkpt>
      <trkpt lat="46.85472" lon="5.02553">
        <ele>132.19999694824</ele>
        <time>2017-07-17T13:05:53Z</time>
      </trkpt>
      <trkpt lat="46.85488" lon="5.02579">
        <ele>131.39999389648</ele>
        <time>2017-07-17T13:05:56Z</time>
      </trkpt>
      <trkpt lat="46.85524" lon="5.0264">
        <ele>130.39999389648</ele>
        <time>2017-07-17T13:06:03Z</time>
      </trkpt>
      <trkpt lat="46.85534" lon="5.02656">
        <ele>130.19999694824</ele>
        <time>2017-07-17T13:06:05Z</time>
      </trkpt>
      <trkpt lat="46.85562" lon="5.02703">
        <ele>130.19999694824</ele>
        <time>2017-07-17T13:06:11Z</time>
      </trkpt>
      <trkpt lat="46.85598" lon="5.02762">
        <ele>130.19999694824</ele>
        <time>2017-07-17T13:06:19Z</time>
      </trkpt>
      <trkpt lat="46.85607" lon="5.02776">
        <ele>130.19999694824</ele>
        <time>2017-07-17T13:06:21Z</time>
      </trkpt>
      <trkpt lat="46.85638" lon="5.02828">
        <ele>131.19999694824</ele>
        <time>2017-07-17T13:06:29Z</time>
      </trkpt>
      <trkpt lat="46.85642" lon="5.02834">
        <ele>131.39999389648</ele>
        <time>2017-07-17T13:06:30Z</time>
      </trkpt>
      <trkpt lat="46.85666" lon="5.02875">
        <ele>132.39999389648</ele>
        <time>2017-07-17T13:06:37Z</time>
      </trkpt>
      <trkpt lat="46.85673" lon="5.02886">
        <ele>132.80000305176</ele>
        <time>2017-07-17T13:06:39Z</time>
      </trkpt>
      <trkpt lat="46.85689" lon="5.02914">
        <ele>133.60000610352</ele>
        <time>2017-07-17T13:06:44Z</time>
      </trkpt>
      <trkpt lat="46.85702" lon="5.02936">
        <ele>134.19999694824</ele>
        <time>2017-07-17T13:06:48Z</time>
      </trkpt>
      <trkpt lat="46.85713" lon="5.02953">
        <ele>134.80000305176</ele>
        <time>2017-07-17T13:06:51Z</time>
      </trkpt>
      <trkpt lat="46.85729" lon="5.02981">
        <ele>135.60000610352</ele>
        <time>2017-07-17T13:06:56Z</time>
      </trkpt>
      <trkpt lat="46.85735" lon="5.02992">
        <ele>135.80000305176</ele>
        <time>2017-07-17T13:06:58Z</time>
      </trkpt>
      <trkpt lat="46.85753" lon="5.0302">
        <ele>136.19999694824</ele>
        <time>2017-07-17T13:07:03Z</time>
      </trkpt>
      <trkpt lat="46.85766" lon="5.03042">
        <ele>136.80000305176</ele>
        <time>2017-07-17T13:07:07Z</time>
      </trkpt>
      <trkpt lat="46.85789" lon="5.03081">
        <ele>137.39999389648</ele>
        <time>2017-07-17T13:07:14Z</time>
      </trkpt>
      <trkpt lat="46.85822" lon="5.03136">
        <ele>137</ele>
        <time>2017-07-17T13:07:23Z</time>
      </trkpt>
      <trkpt lat="46.85853" lon="5.03189">
        <ele>136</ele>
        <time>2017-07-17T13:07:30Z</time>
      </trkpt>
      <trkpt lat="46.85863" lon="5.03205">
        <ele>135.39999389648</ele>
        <time>2017-07-17T13:07:32Z</time>
      </trkpt>
      <trkpt lat="46.85891" lon="5.0325">
        <ele>134.39999389648</ele>
        <time>2017-07-17T13:07:37Z</time>
      </trkpt>
      <trkpt lat="46.85914" lon="5.03289">
        <ele>133.19999694824</ele>
        <time>2017-07-17T13:07:41Z</time>
      </trkpt>
      <trkpt lat="46.85937" lon="5.03328">
        <ele>132</ele>
        <time>2017-07-17T13:07:45Z</time>
      </trkpt>
      <trkpt lat="46.8596" lon="5.03366">
        <ele>130.80000305176</ele>
        <time>2017-07-17T13:07:49Z</time>
      </trkpt>
      <trkpt lat="46.85993" lon="5.03421">
        <ele>129.60000610352</ele>
        <time>2017-07-17T13:07:55Z</time>
      </trkpt>
      <trkpt lat="46.86009" lon="5.03447">
        <ele>128.80000305176</ele>
        <time>2017-07-17T13:07:58Z</time>
      </trkpt>
      <trkpt lat="46.86014" lon="5.03455">
        <ele>128.60000610352</ele>
        <time>2017-07-17T13:07:59Z</time>
      </trkpt>
      <trkpt lat="46.86055" lon="5.03522">
        <ele>127.59999847412</ele>
        <time>2017-07-17T13:08:07Z</time>
      </trkpt>
      <trkpt lat="46.8606" lon="5.03531">
        <ele>127.59999847412</ele>
        <time>2017-07-17T13:08:08Z</time>
      </trkpt>
      <trkpt lat="46.86092" lon="5.03582">
        <ele>126.59999847412</ele>
        <time>2017-07-17T13:08:14Z</time>
      </trkpt>
      <trkpt lat="46.86098" lon="5.03591">
        <ele>126.40000152588</ele>
        <time>2017-07-17T13:08:15Z</time>
      </trkpt>
      <trkpt lat="46.86135" lon="5.03653">
        <ele>126.19999694824</ele>
        <time>2017-07-17T13:08:22Z</time>
      </trkpt>
      <trkpt lat="46.86175" lon="5.03718">
        <ele>126.19999694824</ele>
        <time>2017-07-17T13:08:30Z</time>
      </trkpt>
      <trkpt lat="46.86209" lon="5.03775">
        <ele>126.40000152588</ele>
        <time>2017-07-17T13:08:38Z</time>
      </trkpt>
      <trkpt lat="46.8623" lon="5.03812">
        <ele>127</ele>
        <time>2017-07-17T13:08:44Z</time>
      </trkpt>
      <trkpt lat="46.86237" lon="5.03823">
        <ele>127.19999694824</ele>
        <time>2017-07-17T13:08:46Z</time>
      </trkpt>
      <trkpt lat="46.86243" lon="5.03832">
        <ele>127.59999847412</ele>
        <time>2017-07-17T13:08:48Z</time>
      </trkpt>
      <trkpt lat="46.8625" lon="5.03842">
        <ele>127.80000305176</ele>
        <time>2017-07-17T13:08:50Z</time>
      </trkpt>
      <trkpt lat="46.86267" lon="5.03872">
        <ele>128.60000610352</ele>
        <time>2017-07-17T13:08:56Z</time>
      </trkpt>
      <trkpt lat="46.86276" lon="5.03885">
        <ele>129.19999694824</ele>
        <time>2017-07-17T13:08:59Z</time>
      </trkpt>
      <trkpt lat="46.86288" lon="5.03904">
        <ele>129.80000305176</ele>
        <time>2017-07-17T13:09:03Z</time>
      </trkpt>
      <trkpt lat="46.86299" lon="5.03924">
        <ele>130.60000610352</ele>
        <time>2017-07-17T13:09:07Z</time>
      </trkpt>
      <trkpt lat="46.86302" lon="5.03929">
        <ele>131</ele>
        <time>2017-07-17T13:09:08Z</time>
      </trkpt>
      <trkpt lat="46.86319" lon="5.03959">
        <ele>132.19999694824</ele>
        <time>2017-07-17T13:09:14Z</time>
      </trkpt>
      <trkpt lat="46.86331" lon="5.03979">
        <ele>132.80000305176</ele>
        <time>2017-07-17T13:09:18Z</time>
      </trkpt>
      <trkpt lat="46.86337" lon="5.03988">
        <ele>133.19999694824</ele>
        <time>2017-07-17T13:09:20Z</time>
      </trkpt>
      <trkpt lat="46.86355" lon="5.04016">
        <ele>134.39999389648</ele>
        <time>2017-07-17T13:09:26Z</time>
      </trkpt>
      <trkpt lat="46.8638" lon="5.04055">
        <ele>135.39999389648</ele>
        <time>2017-07-17T13:09:34Z</time>
      </trkpt>
      <trkpt lat="46.86383" lon="5.0406">
        <ele>135.39999389648</ele>
        <time>2017-07-17T13:09:35Z</time>
      </trkpt>
      <trkpt lat="46.86412" lon="5.04103">
        <ele>135.60000610352</ele>
        <time>2017-07-17T13:09:43Z</time>
      </trkpt>
      <trkpt lat="46.86453" lon="5.04161">
        <ele>134.60000610352</ele>
        <time>2017-07-17T13:09:53Z</time>
      </trkpt>
      <trkpt lat="46.86477" lon="5.04195">
        <ele>134.19999694824</ele>
        <time>2017-07-17T13:09:59Z</time>
      </trkpt>
      <trkpt lat="46.86486" lon="5.04207">
        <ele>133.80000305176</ele>
        <time>2017-07-17T13:10:01Z</time>
      </trkpt>
      <trkpt lat="46.86503" lon="5.04232">
        <ele>133</ele>
        <time>2017-07-17T13:10:05Z</time>
      </trkpt>
      <trkpt lat="46.86523" lon="5.0426">
        <ele>132.39999389648</ele>
        <time>2017-07-17T13:10:09Z</time>
      </trkpt>
      <trkpt lat="46.86533" lon="5.04274">
        <ele>132</ele>
        <time>2017-07-17T13:10:11Z</time>
      </trkpt>
      <trkpt lat="46.86553" lon="5.04304">
        <ele>131</ele>
        <time>2017-07-17T13:10:15Z</time>
      </trkpt>
      <trkpt lat="46.86569" lon="5.04327">
        <ele>130.39999389648</ele>
        <time>2017-07-17T13:10:18Z</time>
      </trkpt>
      <trkpt lat="46.8658" lon="5.04343">
        <ele>129.80000305176</ele>
        <time>2017-07-17T13:10:20Z</time>
      </trkpt>
      <trkpt lat="46.86606" lon="5.04382">
        <ele>128.80000305176</ele>
        <time>2017-07-17T13:10:25Z</time>
      </trkpt>
      <trkpt lat="46.86621" lon="5.04406">
        <ele>128.60000610352</ele>
        <time>2017-07-17T13:10:28Z</time>
      </trkpt>
      <trkpt lat="46.86662" lon="5.04464">
        <ele>128.19999694824</ele>
        <time>2017-07-17T13:10:36Z</time>
      </trkpt>
      <trkpt lat="46.86667" lon="5.04471">
        <ele>128.19999694824</ele>
        <time>2017-07-17T13:10:37Z</time>
      </trkpt>
      <trkpt lat="46.86695" lon="5.04511">
        <ele>127.80000305176</ele>
        <time>2017-07-17T13:10:43Z</time>
      </trkpt>
      <trkpt lat="46.86704" lon="5.04524">
        <ele>127.80000305176</ele>
        <time>2017-07-17T13:10:45Z</time>
      </trkpt>
      <trkpt lat="46.86737" lon="5.04571">
        <ele>127.59999847412</ele>
        <time>2017-07-17T13:10:53Z</time>
      </trkpt>
      <trkpt lat="46.86773" lon="5.04621">
        <ele>127.59999847412</ele>
        <time>2017-07-17T13:11:02Z</time>
      </trkpt>
      <trkpt lat="46.86814" lon="5.04676">
        <ele>127.40000152588</ele>
        <time>2017-07-17T13:11:12Z</time>
      </trkpt>
      <trkpt lat="46.86817" lon="5.04681">
        <ele>127.40000152588</ele>
        <time>2017-07-17T13:11:13Z</time>
      </trkpt>
      <trkpt lat="46.86847" lon="5.04721">
        <ele>127.59999847412</ele>
        <time>2017-07-17T13:11:21Z</time>
      </trkpt>
      <trkpt lat="46.86877" lon="5.0476">
        <ele>127.80000305176</ele>
        <time>2017-07-17T13:11:30Z</time>
      </trkpt>
      <trkpt lat="46.86898" lon="5.04789">
        <ele>128.80000305176</ele>
        <time>2017-07-17T13:11:38Z</time>
      </trkpt>
      <trkpt lat="46.86921" lon="5.04819">
        <ele>129.80000305176</ele>
        <time>2017-07-17T13:11:47Z</time>
      </trkpt>
      <trkpt lat="46.86924" lon="5.04822">
        <ele>129.80000305176</ele>
        <time>2017-07-17T13:11:48Z</time>
      </trkpt>
      <trkpt lat="46.86941" lon="5.04846">
        <ele>131</ele>
        <time>2017-07-17T13:11:55Z</time>
      </trkpt>
      <trkpt lat="46.86951" lon="5.04859">
        <ele>131.80000305176</ele>
        <time>2017-07-17T13:11:59Z</time>
      </trkpt>
      <trkpt lat="46.86955" lon="5.04866">
        <ele>132.19999694824</ele>
        <time>2017-07-17T13:12:01Z</time>
      </trkpt>
      <trkpt lat="46.86972" lon="5.04889">
        <ele>133</ele>
        <time>2017-07-17T13:12:07Z</time>
      </trkpt>
      <trkpt lat="46.87001" lon="5.0493">
        <ele>133</ele>
        <time>2017-07-17T13:12:16Z</time>
      </trkpt>
      <trkpt lat="46.87038" lon="5.04982">
        <ele>132.39999389648</ele>
        <time>2017-07-17T13:12:26Z</time>
      </trkpt>
      <trkpt lat="46.87072" lon="5.05028">
        <ele>132.19999694824</ele>
        <time>2017-07-17T13:12:35Z</time>
      </trkpt>
      <trkpt lat="46.87104" lon="5.05073">
        <ele>132.39999389648</ele>
        <time>2017-07-17T13:12:44Z</time>
      </trkpt>
      <trkpt lat="46.87133" lon="5.05115">
        <ele>132.80000305176</ele>
        <time>2017-07-17T13:12:53Z</time>
      </trkpt>
      <trkpt lat="46.87147" lon="5.05134">
        <ele>133.19999694824</ele>
        <time>2017-07-17T13:12:57Z</time>
      </trkpt>
      <trkpt lat="46.87161" lon="5.05154">
        <ele>133.60000610352</ele>
        <time>2017-07-17T13:13:01Z</time>
      </trkpt>
      <trkpt lat="46.87186" lon="5.05188">
        <ele>134.39999389648</ele>
        <time>2017-07-17T13:13:08Z</time>
      </trkpt>
      <trkpt lat="46.87189" lon="5.05193">
        <ele>134.39999389648</ele>
        <time>2017-07-17T13:13:09Z</time>
      </trkpt>
      <trkpt lat="46.87216" lon="5.05229">
        <ele>135.39999389648</ele>
        <time>2017-07-17T13:13:17Z</time>
      </trkpt>
      <trkpt lat="46.87222" lon="5.05238">
        <ele>135.80000305176</ele>
        <time>2017-07-17T13:13:19Z</time>
      </trkpt>
      <trkpt lat="46.87241" lon="5.05264">
        <ele>136.60000610352</ele>
        <time>2017-07-17T13:13:25Z</time>
      </trkpt>
      <trkpt lat="46.87248" lon="5.05274">
        <ele>136.60000610352</ele>
        <time>2017-07-17T13:13:27Z</time>
      </trkpt>
      <trkpt lat="46.87281" lon="5.0532">
        <ele>137</ele>
        <time>2017-07-17T13:13:36Z</time>
      </trkpt>
      <trkpt lat="46.87322" lon="5.05379">
        <ele>136.80000305176</ele>
        <time>2017-07-17T13:13:47Z</time>
      </trkpt>
      <trkpt lat="46.87326" lon="5.05384">
        <ele>137</ele>
        <time>2017-07-17T13:13:48Z</time>
      </trkpt>
      <trkpt lat="46.87363" lon="5.05435">
        <ele>137</ele>
        <time>2017-07-17T13:13:57Z</time>
      </trkpt>
      <trkpt lat="46.87405" lon="5.05493">
        <ele>137.19999694824</ele>
        <time>2017-07-17T13:14:07Z</time>
      </trkpt>
      <trkpt lat="46.87413" lon="5.05505">
        <ele>137.19999694824</ele>
        <time>2017-07-17T13:14:09Z</time>
      </trkpt>
      <trkpt lat="46.87445" lon="5.0555">
        <ele>137.39999389648</ele>
        <time>2017-07-17T13:14:17Z</time>
      </trkpt>
      <trkpt lat="46.87453" lon="5.05562">
        <ele>137.60000610352</ele>
        <time>2017-07-17T13:14:19Z</time>
      </trkpt>
      <trkpt lat="46.87477" lon="5.05594">
        <ele>137.80000305176</ele>
        <time>2017-07-17T13:14:25Z</time>
      </trkpt>
      <trkpt lat="46.87519" lon="5.05654">
        <ele>137.80000305176</ele>
        <time>2017-07-17T13:14:36Z</time>
      </trkpt>
      <trkpt lat="46.87523" lon="5.0566">
        <ele>137.80000305176</ele>
        <time>2017-07-17T13:14:37Z</time>
      </trkpt>
      <trkpt lat="46.87561" lon="5.05718">
        <ele>137.80000305176</ele>
        <time>2017-07-17T13:14:47Z</time>
      </trkpt>
      <trkpt lat="46.87569" lon="5.0573">
        <ele>137.80000305176</ele>
        <time>2017-07-17T13:14:49Z</time>
      </trkpt>
      <trkpt lat="46.87608" lon="5.05787">
        <ele>138.19999694824</ele>
        <time>2017-07-17T13:14:59Z</time>
      </trkpt>
      <trkpt lat="46.87616" lon="5.05798">
        <ele>138.19999694824</ele>
        <time>2017-07-17T13:15:01Z</time>
      </trkpt>
      <trkpt lat="46.87655" lon="5.05853">
        <ele>138.19999694824</ele>
        <time>2017-07-17T13:15:11Z</time>
      </trkpt>
      <trkpt lat="46.87691" lon="5.05903">
        <ele>138.60000610352</ele>
        <time>2017-07-17T13:15:20Z</time>
      </trkpt>
      <trkpt lat="46.87695" lon="5.05909">
        <ele>138.60000610352</ele>
        <time>2017-07-17T13:15:21Z</time>
      </trkpt>
      <trkpt lat="46.87698" lon="5.05915">
        <ele>138.60000610352</ele>
        <time>2017-07-17T13:15:22Z</time>
      </trkpt>
      <trkpt lat="46.87709" lon="5.05932">
        <ele>138.60000610352</ele>
        <time>2017-07-17T13:15:25Z</time>
      </trkpt>
      <trkpt lat="46.87716" lon="5.05943">
        <ele>138.60000610352</ele>
        <time>2017-07-17T13:15:27Z</time>
      </trkpt>
      <trkpt lat="46.87755" lon="5.05995">
        <ele>138.39999389648</ele>
        <time>2017-07-17T13:15:37Z</time>
      </trkpt>
      <trkpt lat="46.87795" lon="5.06046">
        <ele>138.19999694824</ele>
        <time>2017-07-17T13:15:47Z</time>
      </trkpt>
      <trkpt lat="46.87836" lon="5.06096">
        <ele>138.19999694824</ele>
        <time>2017-07-17T13:15:57Z</time>
      </trkpt>
      <trkpt lat="46.87865" lon="5.06136">
        <ele>138.60000610352</ele>
        <time>2017-07-17T13:16:05Z</time>
      </trkpt>
      <trkpt lat="46.87868" lon="5.0614">
        <ele>138.60000610352</ele>
        <time>2017-07-17T13:16:06Z</time>
      </trkpt>
      <trkpt lat="46.87889" lon="5.06169">
        <ele>139.60000610352</ele>
        <time>2017-07-17T13:16:13Z</time>
      </trkpt>
      <trkpt lat="46.87892" lon="5.06173">
        <ele>139.80000305176</ele>
        <time>2017-07-17T13:16:14Z</time>
      </trkpt>
      <trkpt lat="46.8791" lon="5.06198">
        <ele>140.80000305176</ele>
        <time>2017-07-17T13:16:20Z</time>
      </trkpt>
      <trkpt lat="46.87922" lon="5.06216">
        <ele>141.60000610352</ele>
        <time>2017-07-17T13:16:25Z</time>
      </trkpt>
      <trkpt lat="46.87932" lon="5.06228">
        <ele>142</ele>
        <time>2017-07-17T13:16:28Z</time>
      </trkpt>
      <trkpt lat="46.87944" lon="5.06246">
        <ele>142.60000610352</ele>
        <time>2017-07-17T13:16:32Z</time>
      </trkpt>
      <trkpt lat="46.87954" lon="5.06259">
        <ele>143</ele>
        <time>2017-07-17T13:16:35Z</time>
      </trkpt>
      <trkpt lat="46.87971" lon="5.06282">
        <ele>143.19999694824</ele>
        <time>2017-07-17T13:16:40Z</time>
      </trkpt>
      <trkpt lat="46.88" lon="5.06323">
        <ele>143.60000610352</ele>
        <time>2017-07-17T13:16:48Z</time>
      </trkpt>
      <trkpt lat="46.88034" lon="5.0637">
        <ele>143.19999694824</ele>
        <time>2017-07-17T13:16:56Z</time>
      </trkpt>
      <trkpt lat="46.8807" lon="5.0642">
        <ele>142.19999694824</ele>
        <time>2017-07-17T13:17:03Z</time>
      </trkpt>
      <trkpt lat="46.88081" lon="5.06436">
        <ele>141.80000305176</ele>
        <time>2017-07-17T13:17:05Z</time>
      </trkpt>
      <trkpt lat="46.88105" lon="5.0647">
        <ele>140.60000610352</ele>
        <time>2017-07-17T13:17:09Z</time>
      </trkpt>
      <trkpt lat="46.88117" lon="5.06487">
        <ele>140</ele>
        <time>2017-07-17T13:17:11Z</time>
      </trkpt>
      <trkpt lat="46.88123" lon="5.06495">
        <ele>139.60000610352</ele>
        <time>2017-07-17T13:17:12Z</time>
      </trkpt>
      <trkpt lat="46.88157" lon="5.06541">
        <ele>138.80000305176</ele>
        <time>2017-07-17T13:17:18Z</time>
      </trkpt>
      <trkpt lat="46.88173" lon="5.06564">
        <ele>138.60000610352</ele>
        <time>2017-07-17T13:17:21Z</time>
      </trkpt>
      <trkpt lat="46.88193" lon="5.06593">
        <ele>138.60000610352</ele>
        <time>2017-07-17T13:17:25Z</time>
      </trkpt>
      <trkpt lat="46.88227" lon="5.06641">
        <ele>138.60000610352</ele>
        <time>2017-07-17T13:17:32Z</time>
      </trkpt>
      <trkpt lat="46.88269" lon="5.06699">
        <ele>138.80000305176</ele>
        <time>2017-07-17T13:17:41Z</time>
      </trkpt>
      <trkpt lat="46.88309" lon="5.06755">
        <ele>138.60000610352</ele>
        <time>2017-07-17T13:17:50Z</time>
      </trkpt>
      <trkpt lat="46.88318" lon="5.06768">
        <ele>138.39999389648</ele>
        <time>2017-07-17T13:17:52Z</time>
      </trkpt>
      <trkpt lat="46.88359" lon="5.06825">
        <ele>138.39999389648</ele>
        <time>2017-07-17T13:18:01Z</time>
      </trkpt>
      <trkpt lat="46.88363" lon="5.06831">
        <ele>138.39999389648</ele>
        <time>2017-07-17T13:18:02Z</time>
      </trkpt>
      <trkpt lat="46.88402" lon="5.06885">
        <ele>138.19999694824</ele>
        <time>2017-07-17T13:18:11Z</time>
      </trkpt>
      <trkpt lat="46.88442" lon="5.06941">
        <ele>138.39999389648</ele>
        <time>2017-07-17T13:18:21Z</time>
      </trkpt>
      <trkpt lat="46.88472" lon="5.06985">
        <ele>138.60000610352</ele>
        <time>2017-07-17T13:18:29Z</time>
      </trkpt>
      <trkpt lat="46.88499" lon="5.07021">
        <ele>138.80000305176</ele>
        <time>2017-07-17T13:18:36Z</time>
      </trkpt>
      <trkpt lat="46.88542" lon="5.07076">
        <ele>138.60000610352</ele>
        <time>2017-07-17T13:18:46Z</time>
      </trkpt>
      <trkpt lat="46.88577" lon="5.07123">
        <ele>138</ele>
        <time>2017-07-17T13:18:54Z</time>
      </trkpt>
      <trkpt lat="46.88611" lon="5.07166">
        <ele>138</ele>
        <time>2017-07-17T13:19:02Z</time>
      </trkpt>
      <trkpt lat="46.88647" lon="5.07214">
        <ele>138.80000305176</ele>
        <time>2017-07-17T13:19:11Z</time>
      </trkpt>
      <trkpt lat="46.88688" lon="5.07267">
        <ele>139.39999389648</ele>
        <time>2017-07-17T13:19:21Z</time>
      </trkpt>
      <trkpt lat="46.88713" lon="5.07299">
        <ele>139.60000610352</ele>
        <time>2017-07-17T13:19:27Z</time>
      </trkpt>
      <trkpt lat="46.88725" lon="5.07315">
        <ele>139.60000610352</ele>
        <time>2017-07-17T13:19:30Z</time>
      </trkpt>
      <trkpt lat="46.88766" lon="5.07368">
        <ele>140</ele>
        <time>2017-07-17T13:19:40Z</time>
      </trkpt>
      <trkpt lat="46.8877" lon="5.07373">
        <ele>140</ele>
        <time>2017-07-17T13:19:41Z</time>
      </trkpt>
      <trkpt lat="46.88814" lon="5.0743">
        <ele>139.80000305176</ele>
        <time>2017-07-17T13:19:51Z</time>
      </trkpt>
      <trkpt lat="46.88857" lon="5.07485">
        <ele>139.19999694824</ele>
        <time>2017-07-17T13:20:00Z</time>
      </trkpt>
      <trkpt lat="46.88894" lon="5.07533">
        <ele>139.19999694824</ele>
        <time>2017-07-17T13:20:08Z</time>
      </trkpt>
      <trkpt lat="46.88936" lon="5.07587">
        <ele>139.39999389648</ele>
        <time>2017-07-17T13:20:17Z</time>
      </trkpt>
      <trkpt lat="46.88979" lon="5.07643">
        <ele>139.19999694824</ele>
        <time>2017-07-17T13:20:26Z</time>
      </trkpt>
      <trkpt lat="46.89022" lon="5.07697">
        <ele>139</ele>
        <time>2017-07-17T13:20:35Z</time>
      </trkpt>
      <trkpt lat="46.89051" lon="5.07735">
        <ele>138.60000610352</ele>
        <time>2017-07-17T13:20:41Z</time>
      </trkpt>
      <trkpt lat="46.89055" lon="5.07741">
        <ele>138.39999389648</ele>
        <time>2017-07-17T13:20:42Z</time>
      </trkpt>
      <trkpt lat="46.89099" lon="5.07797">
        <ele>137.80000305176</ele>
        <time>2017-07-17T13:20:51Z</time>
      </trkpt>
      <trkpt lat="46.89103" lon="5.07803">
        <ele>137.80000305176</ele>
        <time>2017-07-17T13:20:52Z</time>
      </trkpt>
      <trkpt lat="46.89137" lon="5.07847">
        <ele>137.39999389648</ele>
        <time>2017-07-17T13:20:59Z</time>
      </trkpt>
      <trkpt lat="46.89181" lon="5.07903">
        <ele>137.39999389648</ele>
        <time>2017-07-17T13:21:08Z</time>
      </trkpt>
      <trkpt lat="46.89186" lon="5.0791">
        <ele>137.19999694824</ele>
        <time>2017-07-17T13:21:09Z</time>
      </trkpt>
      <trkpt lat="46.89225" lon="5.07959">
        <ele>137.19999694824</ele>
        <time>2017-07-17T13:21:17Z</time>
      </trkpt>
      <trkpt lat="46.89266" lon="5.08013">
        <ele>137.39999389648</ele>
        <time>2017-07-17T13:21:26Z</time>
      </trkpt>
      <trkpt lat="46.8927" lon="5.08018">
        <ele>137.39999389648</ele>
        <time>2017-07-17T13:21:27Z</time>
      </trkpt>
      <trkpt lat="46.893" lon="5.08056">
        <ele>138.19999694824</ele>
        <time>2017-07-17T13:21:34Z</time>
      </trkpt>
      <trkpt lat="46.89308" lon="5.08067">
        <ele>138.60000610352</ele>
        <time>2017-07-17T13:21:36Z</time>
      </trkpt>
      <trkpt lat="46.89339" lon="5.08107">
        <ele>139</ele>
        <time>2017-07-17T13:21:43Z</time>
      </trkpt>
      <trkpt lat="46.89384" lon="5.08164">
        <ele>139</ele>
        <time>2017-07-17T13:21:53Z</time>
      </trkpt>
      <trkpt lat="46.89422" lon="5.08212">
        <ele>139.19999694824</ele>
        <time>2017-07-17T13:22:02Z</time>
      </trkpt>
      <trkpt lat="46.89453" lon="5.08253">
        <ele>139.39999389648</ele>
        <time>2017-07-17T13:22:10Z</time>
      </trkpt>
      <trkpt lat="46.89457" lon="5.08259">
        <ele>139.60000610352</ele>
        <time>2017-07-17T13:22:11Z</time>
      </trkpt>
      <trkpt lat="46.89486" lon="5.08296">
        <ele>140</ele>
        <time>2017-07-17T13:22:18Z</time>
      </trkpt>
      <trkpt lat="46.89518" lon="5.08338">
        <ele>140.39999389648</ele>
        <time>2017-07-17T13:22:26Z</time>
      </trkpt>
      <trkpt lat="46.89539" lon="5.08365">
        <ele>140.60000610352</ele>
        <time>2017-07-17T13:22:31Z</time>
      </trkpt>
      <trkpt lat="46.89559" lon="5.08391">
        <ele>141</ele>
        <time>2017-07-17T13:22:36Z</time>
      </trkpt>
      <trkpt lat="46.89601" lon="5.08444">
        <ele>141.39999389648</ele>
        <time>2017-07-17T13:22:46Z</time>
      </trkpt>
      <trkpt lat="46.89605" lon="5.08449">
        <ele>141.39999389648</ele>
        <time>2017-07-17T13:22:47Z</time>
      </trkpt>
      <trkpt lat="46.89637" lon="5.08492">
        <ele>141.80000305176</ele>
        <time>2017-07-17T13:22:55Z</time>
      </trkpt>
      <trkpt lat="46.89649" lon="5.08507">
        <ele>142</ele>
        <time>2017-07-17T13:22:58Z</time>
      </trkpt>
      <trkpt lat="46.89686" lon="5.08554">
        <ele>142.19999694824</ele>
        <time>2017-07-17T13:23:06Z</time>
      </trkpt>
      <trkpt lat="46.89729" lon="5.08609">
        <ele>142.19999694824</ele>
        <time>2017-07-17T13:23:15Z</time>
      </trkpt>
      <trkpt lat="46.89733" lon="5.08615">
        <ele>142.19999694824</ele>
        <time>2017-07-17T13:23:16Z</time>
      </trkpt>
      <trkpt lat="46.89764" lon="5.08654">
        <ele>142</ele>
        <time>2017-07-17T13:23:23Z</time>
      </trkpt>
      <trkpt lat="46.89797" lon="5.08697">
        <ele>142.60000610352</ele>
        <time>2017-07-17T13:23:31Z</time>
      </trkpt>
      <trkpt lat="46.89809" lon="5.08713">
        <ele>142.80000305176</ele>
        <time>2017-07-17T13:23:34Z</time>
      </trkpt>
      <trkpt lat="46.8982" lon="5.08726">
        <ele>142.60000610352</ele>
        <time>2017-07-17T13:23:37Z</time>
      </trkpt>
      <trkpt lat="46.89845" lon="5.08759">
        <ele>142.80000305176</ele>
        <time>2017-07-17T13:23:44Z</time>
      </trkpt>
      <trkpt lat="46.89856" lon="5.08773">
        <ele>142.80000305176</ele>
        <time>2017-07-17T13:23:47Z</time>
      </trkpt>
      <trkpt lat="46.89882" lon="5.088">
        <ele>142.19999694824</ele>
        <time>2017-07-17T13:23:54Z</time>
      </trkpt>
      <trkpt lat="46.89896" lon="5.08821">
        <ele>142</ele>
        <time>2017-07-17T13:23:58Z</time>
      </trkpt>
      <trkpt lat="46.89912" lon="5.08842">
        <ele>141.80000305176</ele>
        <time>2017-07-17T13:24:03Z</time>
      </trkpt>
      <trkpt lat="46.89915" lon="5.08845">
        <ele>141.60000610352</ele>
        <time>2017-07-17T13:24:04Z</time>
      </trkpt>
      <trkpt lat="46.89925" lon="5.08861">
        <ele>141.39999389648</ele>
        <time>2017-07-17T13:24:09Z</time>
      </trkpt>
      <trkpt lat="46.89939" lon="5.08882">
        <ele>141.19999694824</ele>
        <time>2017-07-17T13:24:14Z</time>
      </trkpt>
      <trkpt lat="46.89968" lon="5.08918">
        <ele>141</ele>
        <time>2017-07-17T13:24:21Z</time>
      </trkpt>
      <trkpt lat="46.89987" lon="5.08945">
        <ele>141.19999694824</ele>
        <time>2017-07-17T13:24:26Z</time>
      </trkpt>
      <trkpt lat="46.89998" lon="5.08964">
        <ele>141</ele>
        <time>2017-07-17T13:24:31Z</time>
      </trkpt>
      <trkpt lat="46.90008" lon="5.08975">
        <ele>141</ele>
        <time>2017-07-17T13:24:34Z</time>
      </trkpt>
      <trkpt lat="46.90011" lon="5.08981">
        <ele>141</ele>
        <time>2017-07-17T13:24:35Z</time>
      </trkpt>
      <trkpt lat="46.90021" lon="5.08997">
        <ele>141</ele>
        <time>2017-07-17T13:24:38Z</time>
      </trkpt>
      <trkpt lat="46.90033" lon="5.09015">
        <ele>141</ele>
        <time>2017-07-17T13:24:41Z</time>
      </trkpt>
      <trkpt lat="46.90037" lon="5.09022">
        <ele>141</ele>
        <time>2017-07-17T13:24:42Z</time>
      </trkpt>
      <trkpt lat="46.90053" lon="5.09045">
        <ele>141.19999694824</ele>
        <time>2017-07-17T13:24:46Z</time>
      </trkpt>
      <trkpt lat="46.90079" lon="5.09082">
        <ele>141.19999694824</ele>
        <time>2017-07-17T13:24:53Z</time>
      </trkpt>
      <trkpt lat="46.90083" lon="5.09083">
        <ele>141.19999694824</ele>
        <time>2017-07-17T13:24:55Z</time>
      </trkpt>
      <trkpt lat="46.90086" lon="5.09082">
        <ele>141.19999694824</ele>
        <time>2017-07-17T13:24:56Z</time>
      </trkpt>
      <trkpt lat="46.90096" lon="5.09076">
        <ele>140.60000610352</ele>
        <time>2017-07-17T13:24:59Z</time>
      </trkpt>
      <trkpt lat="46.901" lon="5.09073">
        <ele>140.60000610352</ele>
        <time>2017-07-17T13:25:00Z</time>
      </trkpt>
      <trkpt lat="46.90103" lon="5.09068">
        <ele>140.60000610352</ele>
        <time>2017-07-17T13:25:01Z</time>
      </trkpt>
      <trkpt lat="46.90122" lon="5.0904">
        <ele>140.39999389648</ele>
        <time>2017-07-17T13:25:06Z</time>
      </trkpt>
      <trkpt lat="46.90156" lon="5.0899">
        <ele>140.60000610352</ele>
        <time>2017-07-17T13:25:14Z</time>
      </trkpt>
      <trkpt lat="46.90184" lon="5.08946">
        <ele>140.60000610352</ele>
        <time>2017-07-17T13:25:21Z</time>
      </trkpt>
      <trkpt lat="46.90209" lon="5.08904">
        <ele>140.19999694824</ele>
        <time>2017-07-17T13:25:27Z</time>
      </trkpt>
      <trkpt lat="46.90223" lon="5.08881">
        <ele>139.60000610352</ele>
        <time>2017-07-17T13:25:30Z</time>
      </trkpt>
      <trkpt lat="46.90245" lon="5.08839">
        <ele>138.60000610352</ele>
        <time>2017-07-17T13:25:35Z</time>
      </trkpt>
      <trkpt lat="46.9025" lon="5.0883">
        <ele>138.39999389648</ele>
        <time>2017-07-17T13:25:36Z</time>
      </trkpt>
      <trkpt lat="46.90268" lon="5.0878">
        <ele>137</ele>
        <time>2017-07-17T13:25:41Z</time>
      </trkpt>
      <trkpt lat="46.90284" lon="5.08725">
        <ele>136</ele>
        <time>2017-07-17T13:25:46Z</time>
      </trkpt>
      <trkpt lat="46.9029" lon="5.08703">
        <ele>135.39999389648</ele>
        <time>2017-07-17T13:25:48Z</time>
      </trkpt>
      <trkpt lat="46.90293" lon="5.08691">
        <ele>134.80000305176</ele>
        <time>2017-07-17T13:25:49Z</time>
      </trkpt>
      <trkpt lat="46.90299" lon="5.08668">
        <ele>133.80000305176</ele>
        <time>2017-07-17T13:25:51Z</time>
      </trkpt>
      <trkpt lat="46.9031" lon="5.08634">
        <ele>132.60000610352</ele>
        <time>2017-07-17T13:25:54Z</time>
      </trkpt>
      <trkpt lat="46.90321" lon="5.08589">
        <ele>131</ele>
        <time>2017-07-17T13:25:58Z</time>
      </trkpt>
      <trkpt lat="46.90326" lon="5.08569">
        <ele>130.60000610352</ele>
        <time>2017-07-17T13:26:00Z</time>
      </trkpt>
      <trkpt lat="46.90342" lon="5.08504">
        <ele>130.39999389648</ele>
        <time>2017-07-17T13:26:07Z</time>
      </trkpt>
      <trkpt lat="46.90362" lon="5.08426">
        <ele>130.19999694824</ele>
        <time>2017-07-17T13:26:16Z</time>
      </trkpt>
      <trkpt lat="46.90373" lon="5.08377">
        <ele>130</ele>
        <time>2017-07-17T13:26:22Z</time>
      </trkpt>
      <trkpt lat="46.90376" lon="5.08365">
        <ele>129.80000305176</ele>
        <time>2017-07-17T13:26:24Z</time>
      </trkpt>
      <trkpt lat="46.90385" lon="5.08358">
        <ele>129.19999694824</ele>
        <time>2017-07-17T13:26:27Z</time>
      </trkpt>
      <trkpt lat="46.90394" lon="5.08359">
        <ele>128.80000305176</ele>
        <time>2017-07-17T13:26:29Z</time>
      </trkpt>
      <trkpt lat="46.90402" lon="5.08365">
        <ele>128.39999389648</ele>
        <time>2017-07-17T13:26:31Z</time>
      </trkpt>
      <trkpt lat="46.90412" lon="5.08374">
        <ele>128.19999694824</ele>
        <time>2017-07-17T13:26:33Z</time>
      </trkpt>
      <trkpt lat="46.90421" lon="5.08382">
        <ele>128</ele>
        <time>2017-07-17T13:26:35Z</time>
      </trkpt>
      <trkpt lat="46.90431" lon="5.08389">
        <ele>127.80000305176</ele>
        <time>2017-07-17T13:26:37Z</time>
      </trkpt>
      <trkpt lat="46.90461" lon="5.0841">
        <ele>127.80000305176</ele>
        <time>2017-07-17T13:26:43Z</time>
      </trkpt>
      <trkpt lat="46.90471" lon="5.08415">
        <ele>127.80000305176</ele>
        <time>2017-07-17T13:26:45Z</time>
      </trkpt>
      <trkpt lat="46.90476" lon="5.08418">
        <ele>127.80000305176</ele>
        <time>2017-07-17T13:26:46Z</time>
      </trkpt>
      <trkpt lat="46.90487" lon="5.08423">
        <ele>127.59999847412</ele>
        <time>2017-07-17T13:26:48Z</time>
      </trkpt>
      <trkpt lat="46.90505" lon="5.08426">
        <ele>127.59999847412</ele>
        <time>2017-07-17T13:26:51Z</time>
      </trkpt>
      <trkpt lat="46.90523" lon="5.08423">
        <ele>127.59999847412</ele>
        <time>2017-07-17T13:26:54Z</time>
      </trkpt>
      <trkpt lat="46.90535" lon="5.08419">
        <ele>127.59999847412</ele>
        <time>2017-07-17T13:26:56Z</time>
      </trkpt>
      <trkpt lat="46.9057" lon="5.08404">
        <ele>127.59999847412</ele>
        <time>2017-07-17T13:27:02Z</time>
      </trkpt>
      <trkpt lat="46.90611" lon="5.08381">
        <ele>127.59999847412</ele>
        <time>2017-07-17T13:27:09Z</time>
      </trkpt>
      <trkpt lat="46.90655" lon="5.08357">
        <ele>127.80000305176</ele>
        <time>2017-07-17T13:27:17Z</time>
      </trkpt>
      <trkpt lat="46.90694" lon="5.08336">
        <ele>127.80000305176</ele>
        <time>2017-07-17T13:27:24Z</time>
      </trkpt>
      <trkpt lat="46.90732" lon="5.08315">
        <ele>127.80000305176</ele>
        <time>2017-07-17T13:27:31Z</time>
      </trkpt>
      <trkpt lat="46.90777" lon="5.08295">
        <ele>127.80000305176</ele>
        <time>2017-07-17T13:27:39Z</time>
      </trkpt>
      <trkpt lat="46.90825" lon="5.08286">
        <ele>127.80000305176</ele>
        <time>2017-07-17T13:27:47Z</time>
      </trkpt>
      <trkpt lat="46.90872" lon="5.08284">
        <ele>127.80000305176</ele>
        <time>2017-07-17T13:27:55Z</time>
      </trkpt>
      <trkpt lat="46.9092" lon="5.08291">
        <ele>127.80000305176</ele>
        <time>2017-07-17T13:28:03Z</time>
      </trkpt>
      <trkpt lat="46.9096" lon="5.08302">
        <ele>127.59999847412</ele>
        <time>2017-07-17T13:28:10Z</time>
      </trkpt>
      <trkpt lat="46.90977" lon="5.08306">
        <ele>127.59999847412</ele>
        <time>2017-07-17T13:28:13Z</time>
      </trkpt>
      <trkpt lat="46.91006" lon="5.08314">
        <ele>127.80000305176</ele>
        <time>2017-07-17T13:28:18Z</time>
      </trkpt>
      <trkpt lat="46.91041" lon="5.08326">
        <ele>127.80000305176</ele>
        <time>2017-07-17T13:28:25Z</time>
      </trkpt>
      <trkpt lat="46.91079" lon="5.08345">
        <ele>127.59999847412</ele>
        <time>2017-07-17T13:28:32Z</time>
      </trkpt>
      <trkpt lat="46.9111" lon="5.08363">
        <ele>127.59999847412</ele>
        <time>2017-07-17T13:28:38Z</time>
      </trkpt>
      <trkpt lat="46.91151" lon="5.0839">
        <ele>127.59999847412</ele>
        <time>2017-07-17T13:28:46Z</time>
      </trkpt>
      <trkpt lat="46.912" lon="5.08432">
        <ele>127.59999847412</ele>
        <time>2017-07-17T13:28:56Z</time>
      </trkpt>
      <trkpt lat="46.91232" lon="5.08465">
        <ele>127.80000305176</ele>
        <time>2017-07-17T13:29:03Z</time>
      </trkpt>
      <trkpt lat="46.91264" lon="5.08497">
        <ele>127.80000305176</ele>
        <time>2017-07-17T13:29:10Z</time>
      </trkpt>
      <trkpt lat="46.91292" lon="5.08525">
        <ele>128</ele>
        <time>2017-07-17T13:29:16Z</time>
      </trkpt>
      <trkpt lat="46.91338" lon="5.08571">
        <ele>128</ele>
        <time>2017-07-17T13:29:26Z</time>
      </trkpt>
      <trkpt lat="46.91342" lon="5.08576">
        <ele>128</ele>
        <time>2017-07-17T13:29:27Z</time>
      </trkpt>
      <trkpt lat="46.91371" lon="5.08606">
        <ele>127.59999847412</ele>
        <time>2017-07-17T13:29:34Z</time>
      </trkpt>
      <trkpt lat="46.91413" lon="5.08654">
        <ele>127.59999847412</ele>
        <time>2017-07-17T13:29:44Z</time>
      </trkpt>
      <trkpt lat="46.91447" lon="5.08693">
        <ele>128</ele>
        <time>2017-07-17T13:29:52Z</time>
      </trkpt>
      <trkpt lat="46.91459" lon="5.08709">
        <ele>127.59999847412</ele>
        <time>2017-07-17T13:29:55Z</time>
      </trkpt>
      <trkpt lat="46.91471" lon="5.08724">
        <ele>127.59999847412</ele>
        <time>2017-07-17T13:29:58Z</time>
      </trkpt>
      <trkpt lat="46.91493" lon="5.08751">
        <ele>127.80000305176</ele>
        <time>2017-07-17T13:30:04Z</time>
      </trkpt>
      <trkpt lat="46.91512" lon="5.08767">
        <ele>127.59999847412</ele>
        <time>2017-07-17T13:30:09Z</time>
      </trkpt>
      <trkpt lat="46.91521" lon="5.0877">
        <ele>127.40000152588</ele>
        <time>2017-07-17T13:30:11Z</time>
      </trkpt>
      <trkpt lat="46.91537" lon="5.08773">
        <ele>127.19999694824</ele>
        <time>2017-07-17T13:30:15Z</time>
      </trkpt>
      <trkpt lat="46.91548" lon="5.08773">
        <ele>127</ele>
        <time>2017-07-17T13:30:18Z</time>
      </trkpt>
      <trkpt lat="46.91571" lon="5.08765">
        <ele>127.19999694824</ele>
        <time>2017-07-17T13:30:24Z</time>
      </trkpt>
      <trkpt lat="46.91576" lon="5.08765">
        <ele>127.19999694824</ele>
        <time>2017-07-17T13:30:25Z</time>
      </trkpt>
      <trkpt lat="46.91593" lon="5.08772">
        <ele>127.40000152588</ele>
        <time>2017-07-17T13:30:29Z</time>
      </trkpt>
      <trkpt lat="46.91598" lon="5.08774">
        <ele>127.40000152588</ele>
        <time>2017-07-17T13:30:30Z</time>
      </trkpt>
      <trkpt lat="46.91633" lon="5.08793">
        <ele>127.19999694824</ele>
        <time>2017-07-17T13:30:37Z</time>
      </trkpt>
      <trkpt lat="46.9167" lon="5.08813">
        <ele>127.19999694824</ele>
        <time>2017-07-17T13:30:44Z</time>
      </trkpt>
      <trkpt lat="46.91676" lon="5.08814">
        <ele>127.19999694824</ele>
        <time>2017-07-17T13:30:45Z</time>
      </trkpt>
      <trkpt lat="46.91723" lon="5.08819">
        <ele>127.19999694824</ele>
        <time>2017-07-17T13:30:53Z</time>
      </trkpt>
      <trkpt lat="46.91779" lon="5.08825">
        <ele>126.80000305176</ele>
        <time>2017-07-17T13:31:02Z</time>
      </trkpt>
      <trkpt lat="46.91828" lon="5.08829">
        <ele>126.80000305176</ele>
        <time>2017-07-17T13:31:10Z</time>
      </trkpt>
      <trkpt lat="46.91835" lon="5.08828">
        <ele>126.80000305176</ele>
        <time>2017-07-17T13:31:11Z</time>
      </trkpt>
      <trkpt lat="46.91853" lon="5.08827">
        <ele>126.80000305176</ele>
        <time>2017-07-17T13:31:14Z</time>
      </trkpt>
      <trkpt lat="46.91865" lon="5.08825">
        <ele>126.80000305176</ele>
        <time>2017-07-17T13:31:16Z</time>
      </trkpt>
      <trkpt lat="46.91889" lon="5.08819">
        <ele>127</ele>
        <time>2017-07-17T13:31:20Z</time>
      </trkpt>
      <trkpt lat="46.91937" lon="5.08809">
        <ele>126.80000305176</ele>
        <time>2017-07-17T13:31:28Z</time>
      </trkpt>
      <trkpt lat="46.91977" lon="5.088">
        <ele>127</ele>
        <time>2017-07-17T13:31:35Z</time>
      </trkpt>
      <trkpt lat="46.91982" lon="5.08799">
        <ele>127</ele>
        <time>2017-07-17T13:31:36Z</time>
      </trkpt>
      <trkpt lat="46.92018" lon="5.08792">
        <ele>127</ele>
        <time>2017-07-17T13:31:42Z</time>
      </trkpt>
      <trkpt lat="46.92066" lon="5.08789">
        <ele>127</ele>
        <time>2017-07-17T13:31:50Z</time>
      </trkpt>
      <trkpt lat="46.92099" lon="5.0879">
        <ele>126.80000305176</ele>
        <time>2017-07-17T13:31:56Z</time>
      </trkpt>
      <trkpt lat="46.92104" lon="5.0879">
        <ele>126.59999847412</ele>
        <time>2017-07-17T13:31:57Z</time>
      </trkpt>
      <trkpt lat="46.92133" lon="5.08794">
        <ele>126.80000305176</ele>
        <time>2017-07-17T13:32:03Z</time>
      </trkpt>
      <trkpt lat="46.92173" lon="5.08807">
        <ele>126.80000305176</ele>
        <time>2017-07-17T13:32:11Z</time>
      </trkpt>
      <trkpt lat="46.92208" lon="5.08826">
        <ele>127</ele>
        <time>2017-07-17T13:32:19Z</time>
      </trkpt>
      <trkpt lat="46.9223" lon="5.08842">
        <ele>127.40000152588</ele>
        <time>2017-07-17T13:32:24Z</time>
      </trkpt>
      <trkpt lat="46.92239" lon="5.08849">
        <ele>127.59999847412</ele>
        <time>2017-07-17T13:32:26Z</time>
      </trkpt>
      <trkpt lat="46.92266" lon="5.08874">
        <ele>127.40000152588</ele>
        <time>2017-07-17T13:32:32Z</time>
      </trkpt>
      <trkpt lat="46.9227" lon="5.08878">
        <ele>127.19999694824</ele>
        <time>2017-07-17T13:32:33Z</time>
      </trkpt>
      <trkpt lat="46.92306" lon="5.08917">
        <ele>127.59999847412</ele>
        <time>2017-07-17T13:32:41Z</time>
      </trkpt>
      <trkpt lat="46.92321" lon="5.08935">
        <ele>127.59999847412</ele>
        <time>2017-07-17T13:32:44Z</time>
      </trkpt>
      <trkpt lat="46.92329" lon="5.08949">
        <ele>127.40000152588</ele>
        <time>2017-07-17T13:32:46Z</time>
      </trkpt>
      <trkpt lat="46.92363" lon="5.09005">
        <ele>127.19999694824</ele>
        <time>2017-07-17T13:32:54Z</time>
      </trkpt>
      <trkpt lat="46.92401" lon="5.0905">
        <ele>127.19999694824</ele>
        <time>2017-07-17T13:33:02Z</time>
      </trkpt>
      <trkpt lat="46.9244" lon="5.09087">
        <ele>127</ele>
        <time>2017-07-17T13:33:10Z</time>
      </trkpt>
      <trkpt lat="46.92476" lon="5.09118">
        <ele>127.19999694824</ele>
        <time>2017-07-17T13:33:18Z</time>
      </trkpt>
      <trkpt lat="46.92522" lon="5.09149">
        <ele>127.40000152588</ele>
        <time>2017-07-17T13:33:28Z</time>
      </trkpt>
      <trkpt lat="46.92527" lon="5.09153">
        <ele>127.40000152588</ele>
        <time>2017-07-17T13:33:29Z</time>
      </trkpt>
      <trkpt lat="46.92555" lon="5.0917">
        <ele>127.40000152588</ele>
        <time>2017-07-17T13:33:35Z</time>
      </trkpt>
      <trkpt lat="46.92594" lon="5.0919">
        <ele>127.19999694824</ele>
        <time>2017-07-17T13:33:43Z</time>
      </trkpt>
      <trkpt lat="46.92635" lon="5.09211">
        <ele>127</ele>
        <time>2017-07-17T13:33:51Z</time>
      </trkpt>
      <trkpt lat="46.92675" lon="5.09235">
        <ele>127.19999694824</ele>
        <time>2017-07-17T13:33:59Z</time>
      </trkpt>
      <trkpt lat="46.92713" lon="5.09267">
        <ele>127.19999694824</ele>
        <time>2017-07-17T13:34:07Z</time>
      </trkpt>
      <trkpt lat="46.92751" lon="5.09305">
        <ele>127</ele>
        <time>2017-07-17T13:34:15Z</time>
      </trkpt>
      <trkpt lat="46.92795" lon="5.09341">
        <ele>127</ele>
        <time>2017-07-17T13:34:24Z</time>
      </trkpt>
      <trkpt lat="46.92828" lon="5.09358">
        <ele>126.80000305176</ele>
        <time>2017-07-17T13:34:30Z</time>
      </trkpt>
      <trkpt lat="46.92867" lon="5.09373">
        <ele>127</ele>
        <time>2017-07-17T13:34:37Z</time>
      </trkpt>
      <trkpt lat="46.92916" lon="5.09391">
        <ele>126.59999847412</ele>
        <time>2017-07-17T13:34:46Z</time>
      </trkpt>
      <trkpt lat="46.92932" lon="5.09397">
        <ele>126.80000305176</ele>
        <time>2017-07-17T13:34:49Z</time>
      </trkpt>
      <trkpt lat="46.92944" lon="5.094">
        <ele>126.80000305176</ele>
        <time>2017-07-17T13:34:51Z</time>
      </trkpt>
      <trkpt lat="46.92949" lon="5.09401">
        <ele>126.80000305176</ele>
        <time>2017-07-17T13:34:52Z</time>
      </trkpt>
      <trkpt lat="46.92961" lon="5.09405">
        <ele>126.80000305176</ele>
        <time>2017-07-17T13:34:54Z</time>
      </trkpt>
      <trkpt lat="46.92978" lon="5.09412">
        <ele>126.80000305176</ele>
        <time>2017-07-17T13:34:57Z</time>
      </trkpt>
      <trkpt lat="46.93016" lon="5.09427">
        <ele>126.80000305176</ele>
        <time>2017-07-17T13:35:04Z</time>
      </trkpt>
      <trkpt lat="46.93058" lon="5.09439">
        <ele>127</ele>
        <time>2017-07-17T13:35:12Z</time>
      </trkpt>
      <trkpt lat="46.9311" lon="5.09443">
        <ele>127</ele>
        <time>2017-07-17T13:35:22Z</time>
      </trkpt>
      <trkpt lat="46.93153" lon="5.09437">
        <ele>127.19999694824</ele>
        <time>2017-07-17T13:35:30Z</time>
      </trkpt>
      <trkpt lat="46.93205" lon="5.09431">
        <ele>127</ele>
        <time>2017-07-17T13:35:39Z</time>
      </trkpt>
      <trkpt lat="46.93246" lon="5.09428">
        <ele>126.80000305176</ele>
        <time>2017-07-17T13:35:46Z</time>
      </trkpt>
      <trkpt lat="46.93291" lon="5.09423">
        <ele>127</ele>
        <time>2017-07-17T13:35:54Z</time>
      </trkpt>
      <trkpt lat="46.93335" lon="5.09415">
        <ele>127.59999847412</ele>
        <time>2017-07-17T13:36:02Z</time>
      </trkpt>
      <trkpt lat="46.9334" lon="5.09413">
        <ele>127.59999847412</ele>
        <time>2017-07-17T13:36:03Z</time>
      </trkpt>
      <trkpt lat="46.93381" lon="5.09401">
        <ele>127.19999694824</ele>
        <time>2017-07-17T13:36:11Z</time>
      </trkpt>
      <trkpt lat="46.93413" lon="5.09396">
        <ele>127</ele>
        <time>2017-07-17T13:36:17Z</time>
      </trkpt>
      <trkpt lat="46.9345" lon="5.09394">
        <ele>127.19999694824</ele>
        <time>2017-07-17T13:36:24Z</time>
      </trkpt>
      <trkpt lat="46.93455" lon="5.09394">
        <ele>127</ele>
        <time>2017-07-17T13:36:25Z</time>
      </trkpt>
      <trkpt lat="46.93494" lon="5.09402">
        <ele>127.19999694824</ele>
        <time>2017-07-17T13:36:32Z</time>
      </trkpt>
      <trkpt lat="46.93529" lon="5.09418">
        <ele>127.19999694824</ele>
        <time>2017-07-17T13:36:39Z</time>
      </trkpt>
      <trkpt lat="46.93538" lon="5.09424">
        <ele>127.19999694824</ele>
        <time>2017-07-17T13:36:41Z</time>
      </trkpt>
      <trkpt lat="46.93583" lon="5.09447">
        <ele>127.40000152588</ele>
        <time>2017-07-17T13:36:50Z</time>
      </trkpt>
      <trkpt lat="46.93626" lon="5.09469">
        <ele>127.19999694824</ele>
        <time>2017-07-17T13:36:59Z</time>
      </trkpt>
      <trkpt lat="46.93669" lon="5.09491">
        <ele>126.80000305176</ele>
        <time>2017-07-17T13:37:08Z</time>
      </trkpt>
      <trkpt lat="46.93679" lon="5.09494">
        <ele>127</ele>
        <time>2017-07-17T13:37:10Z</time>
      </trkpt>
      <trkpt lat="46.93697" lon="5.09493">
        <ele>127.19999694824</ele>
        <time>2017-07-17T13:37:14Z</time>
      </trkpt>
      <trkpt lat="46.93706" lon="5.09489">
        <ele>127.19999694824</ele>
        <time>2017-07-17T13:37:16Z</time>
      </trkpt>
      <trkpt lat="46.93718" lon="5.09478">
        <ele>127.40000152588</ele>
        <time>2017-07-17T13:37:19Z</time>
      </trkpt>
      <trkpt lat="46.93726" lon="5.09468">
        <ele>127.80000305176</ele>
        <time>2017-07-17T13:37:21Z</time>
      </trkpt>
      <trkpt lat="46.93749" lon="5.09439">
        <ele>128.19999694824</ele>
        <time>2017-07-17T13:37:27Z</time>
      </trkpt>
      <trkpt lat="46.93768" lon="5.09421">
        <ele>128.39999389648</ele>
        <time>2017-07-17T13:37:32Z</time>
      </trkpt>
      <trkpt lat="46.93773" lon="5.09418">
        <ele>128.39999389648</ele>
        <time>2017-07-17T13:37:33Z</time>
      </trkpt>
      <trkpt lat="46.93797" lon="5.09417">
        <ele>128.39999389648</ele>
        <time>2017-07-17T13:37:38Z</time>
      </trkpt>
      <trkpt lat="46.93813" lon="5.09431">
        <ele>128.80000305176</ele>
        <time>2017-07-17T13:37:42Z</time>
      </trkpt>
      <trkpt lat="46.93816" lon="5.09435">
        <ele>129</ele>
        <time>2017-07-17T13:37:43Z</time>
      </trkpt>
      <trkpt lat="46.93838" lon="5.0946">
        <ele>129.39999389648</ele>
        <time>2017-07-17T13:37:49Z</time>
      </trkpt>
      <trkpt lat="46.93852" lon="5.09476">
        <ele>129.60000610352</ele>
        <time>2017-07-17T13:37:53Z</time>
      </trkpt>
      <trkpt lat="46.93861" lon="5.09487">
        <ele>129.80000305176</ele>
        <time>2017-07-17T13:37:56Z</time>
      </trkpt>
      <trkpt lat="46.93864" lon="5.09491">
        <ele>130</ele>
        <time>2017-07-17T13:37:57Z</time>
      </trkpt>
      <trkpt lat="46.93883" lon="5.09512">
        <ele>130.19999694824</ele>
        <time>2017-07-17T13:38:04Z</time>
      </trkpt>
      <trkpt lat="46.93895" lon="5.09529">
        <ele>130.39999389648</ele>
        <time>2017-07-17T13:38:10Z</time>
      </trkpt>
      <trkpt lat="46.93914" lon="5.09561">
        <ele>130.60000610352</ele>
        <time>2017-07-17T13:38:18Z</time>
      </trkpt>
      <trkpt lat="46.93925" lon="5.09585">
        <ele>131</ele>
        <time>2017-07-17T13:38:23Z</time>
      </trkpt>
      <trkpt lat="46.93933" lon="5.09604">
        <ele>131.39999389648</ele>
        <time>2017-07-17T13:38:27Z</time>
      </trkpt>
      <trkpt lat="46.93936" lon="5.09609">
        <ele>131.60000610352</ele>
        <time>2017-07-17T13:38:28Z</time>
      </trkpt>
      <trkpt lat="46.9395" lon="5.09634">
        <ele>132</ele>
        <time>2017-07-17T13:38:33Z</time>
      </trkpt>
      <trkpt lat="46.93952" lon="5.0964">
        <ele>132.19999694824</ele>
        <time>2017-07-17T13:38:34Z</time>
      </trkpt>
      <trkpt lat="46.9396" lon="5.09657">
        <ele>132.60000610352</ele>
        <time>2017-07-17T13:38:37Z</time>
      </trkpt>
      <trkpt lat="46.93963" lon="5.09662">
        <ele>132.60000610352</ele>
        <time>2017-07-17T13:38:38Z</time>
      </trkpt>
      <trkpt lat="46.93984" lon="5.09703">
        <ele>133.19999694824</ele>
        <time>2017-07-17T13:38:46Z</time>
      </trkpt>
      <trkpt lat="46.93987" lon="5.09708">
        <ele>133.60000610352</ele>
        <time>2017-07-17T13:38:47Z</time>
      </trkpt>
      <trkpt lat="46.94005" lon="5.09744">
        <ele>134.19999694824</ele>
        <time>2017-07-17T13:38:55Z</time>
      </trkpt>
      <trkpt lat="46.94009" lon="5.09759">
        <ele>134.60000610352</ele>
        <time>2017-07-17T13:39:00Z</time>
      </trkpt>
      <trkpt lat="46.94008" lon="5.09761">
        <ele>134.60000610352</ele>
        <time>2017-07-17T13:39:01Z</time>
      </trkpt>
      <trkpt lat="46.94007" lon="5.09767">
        <ele>133.19999694824</ele>
        <time>2017-07-17T13:41:25Z</time>
      </trkpt>
      <trkpt lat="46.94018" lon="5.09771">
        <ele>133.19999694824</ele>
        <time>2017-07-17T13:41:30Z</time>
      </trkpt>
      <trkpt lat="46.94027" lon="5.09787">
        <ele>133.39999389648</ele>
        <time>2017-07-17T13:41:35Z</time>
      </trkpt>
      <trkpt lat="46.94042" lon="5.09818">
        <ele>134</ele>
        <time>2017-07-17T13:41:42Z</time>
      </trkpt>
      <trkpt lat="46.94046" lon="5.09828">
        <ele>134.19999694824</ele>
        <time>2017-07-17T13:41:44Z</time>
      </trkpt>
      <trkpt lat="46.9406" lon="5.09857">
        <ele>134.60000610352</ele>
        <time>2017-07-17T13:41:50Z</time>
      </trkpt>
      <trkpt lat="46.9408" lon="5.09895">
        <ele>135.19999694824</ele>
        <time>2017-07-17T13:41:58Z</time>
      </trkpt>
      <trkpt lat="46.94083" lon="5.099">
        <ele>135.19999694824</ele>
        <time>2017-07-17T13:41:59Z</time>
      </trkpt>
      <trkpt lat="46.94099" lon="5.09931">
        <ele>135.39999389648</ele>
        <time>2017-07-17T13:42:05Z</time>
      </trkpt>
      <trkpt lat="46.94115" lon="5.09963">
        <ele>135.60000610352</ele>
        <time>2017-07-17T13:42:11Z</time>
      </trkpt>
      <trkpt lat="46.9412" lon="5.09974">
        <ele>135.60000610352</ele>
        <time>2017-07-17T13:42:13Z</time>
      </trkpt>
      <trkpt lat="46.94147" lon="5.10032">
        <ele>135.80000305176</ele>
        <time>2017-07-17T13:42:23Z</time>
      </trkpt>
      <trkpt lat="46.94171" lon="5.10095">
        <ele>135.80000305176</ele>
        <time>2017-07-17T13:42:33Z</time>
      </trkpt>
      <trkpt lat="46.9419" lon="5.10152">
        <ele>135.80000305176</ele>
        <time>2017-07-17T13:42:42Z</time>
      </trkpt>
      <trkpt lat="46.942" lon="5.10182">
        <ele>135.80000305176</ele>
        <time>2017-07-17T13:42:47Z</time>
      </trkpt>
      <trkpt lat="46.94205" lon="5.10201">
        <ele>136.19999694824</ele>
        <time>2017-07-17T13:42:50Z</time>
      </trkpt>
      <trkpt lat="46.94207" lon="5.10207">
        <ele>136.19999694824</ele>
        <time>2017-07-17T13:42:51Z</time>
      </trkpt>
      <trkpt lat="46.94222" lon="5.1025">
        <ele>136.39999389648</ele>
        <time>2017-07-17T13:42:58Z</time>
      </trkpt>
      <trkpt lat="46.94237" lon="5.10296">
        <ele>136.39999389648</ele>
        <time>2017-07-17T13:43:05Z</time>
      </trkpt>
      <trkpt lat="46.94256" lon="5.10354">
        <ele>136.39999389648</ele>
        <time>2017-07-17T13:43:13Z</time>
      </trkpt>
      <trkpt lat="46.94278" lon="5.10423">
        <ele>135.19999694824</ele>
        <time>2017-07-17T13:43:22Z</time>
      </trkpt>
      <trkpt lat="46.94281" lon="5.10431">
        <ele>135.19999694824</ele>
        <time>2017-07-17T13:43:23Z</time>
      </trkpt>
      <trkpt lat="46.94295" lon="5.10492">
        <ele>134</ele>
        <time>2017-07-17T13:43:30Z</time>
      </trkpt>
      <trkpt lat="46.94297" lon="5.10501">
        <ele>134</ele>
        <time>2017-07-17T13:43:31Z</time>
      </trkpt>
      <trkpt lat="46.94308" lon="5.10576">
        <ele>133</ele>
        <time>2017-07-17T13:43:39Z</time>
      </trkpt>
      <trkpt lat="46.94309" lon="5.10585">
        <ele>133</ele>
        <time>2017-07-17T13:43:40Z</time>
      </trkpt>
      <trkpt lat="46.94322" lon="5.10657">
        <ele>132.19999694824</ele>
        <time>2017-07-17T13:43:48Z</time>
      </trkpt>
      <trkpt lat="46.94329" lon="5.107">
        <ele>132</ele>
        <time>2017-07-17T13:43:53Z</time>
      </trkpt>
      <trkpt lat="46.94337" lon="5.10734">
        <ele>131.80000305176</ele>
        <time>2017-07-17T13:43:57Z</time>
      </trkpt>
      <trkpt lat="46.94352" lon="5.1081">
        <ele>131.80000305176</ele>
        <time>2017-07-17T13:44:06Z</time>
      </trkpt>
      <trkpt lat="46.94368" lon="5.10874">
        <ele>132</ele>
        <time>2017-07-17T13:44:14Z</time>
      </trkpt>
      <trkpt lat="46.9439" lon="5.10936">
        <ele>132.60000610352</ele>
        <time>2017-07-17T13:44:23Z</time>
      </trkpt>
      <trkpt lat="46.94409" lon="5.10985">
        <ele>133</ele>
        <time>2017-07-17T13:44:30Z</time>
      </trkpt>
      <trkpt lat="46.94414" lon="5.10999">
        <ele>133</ele>
        <time>2017-07-17T13:44:32Z</time>
      </trkpt>
      <trkpt lat="46.9443" lon="5.11046">
        <ele>133.19999694824</ele>
        <time>2017-07-17T13:44:39Z</time>
      </trkpt>
      <trkpt lat="46.94444" lon="5.11099">
        <ele>133.39999389648</ele>
        <time>2017-07-17T13:44:46Z</time>
      </trkpt>
      <trkpt lat="46.94447" lon="5.11114">
        <ele>133.39999389648</ele>
        <time>2017-07-17T13:44:48Z</time>
      </trkpt>
      <trkpt lat="46.94453" lon="5.11154">
        <ele>133.60000610352</ele>
        <time>2017-07-17T13:44:53Z</time>
      </trkpt>
      <trkpt lat="46.9446" lon="5.11207">
        <ele>134</ele>
        <time>2017-07-17T13:45:00Z</time>
      </trkpt>
      <trkpt lat="46.94461" lon="5.11215">
        <ele>134</ele>
        <time>2017-07-17T13:45:01Z</time>
      </trkpt>
      <trkpt lat="46.94475" lon="5.11297">
        <ele>134.39999389648</ele>
        <time>2017-07-17T13:45:12Z</time>
      </trkpt>
      <trkpt lat="46.94489" lon="5.11378">
        <ele>134.80000305176</ele>
        <time>2017-07-17T13:45:23Z</time>
      </trkpt>
      <trkpt lat="46.9449" lon="5.11385">
        <ele>134.80000305176</ele>
        <time>2017-07-17T13:45:24Z</time>
      </trkpt>
      <trkpt lat="46.94492" lon="5.11399">
        <ele>135</ele>
        <time>2017-07-17T13:45:26Z</time>
      </trkpt>
      <trkpt lat="46.94503" lon="5.1146">
        <ele>135.60000610352</ele>
        <time>2017-07-17T13:45:35Z</time>
      </trkpt>
      <trkpt lat="46.94509" lon="5.11492">
        <ele>136.19999694824</ele>
        <time>2017-07-17T13:45:40Z</time>
      </trkpt>
      <trkpt lat="46.94515" lon="5.11515">
        <ele>136.60000610352</ele>
        <time>2017-07-17T13:45:44Z</time>
      </trkpt>
      <trkpt lat="46.94528" lon="5.11557">
        <ele>137.19999694824</ele>
        <time>2017-07-17T13:45:51Z</time>
      </trkpt>
      <trkpt lat="46.94533" lon="5.11569">
        <ele>137.39999389648</ele>
        <time>2017-07-17T13:45:53Z</time>
      </trkpt>
      <trkpt lat="46.94554" lon="5.11617">
        <ele>137.60000610352</ele>
        <time>2017-07-17T13:46:01Z</time>
      </trkpt>
      <trkpt lat="46.94579" lon="5.11667">
        <ele>138.19999694824</ele>
        <time>2017-07-17T13:46:10Z</time>
      </trkpt>
      <trkpt lat="46.94609" lon="5.11717">
        <ele>138.39999389648</ele>
        <time>2017-07-17T13:46:19Z</time>
      </trkpt>
      <trkpt lat="46.94642" lon="5.11766">
        <ele>138.60000610352</ele>
        <time>2017-07-17T13:46:28Z</time>
      </trkpt>
      <trkpt lat="46.94671" lon="5.11819">
        <ele>139</ele>
        <time>2017-07-17T13:46:37Z</time>
      </trkpt>
      <trkpt lat="46.94692" lon="5.11871">
        <ele>139</ele>
        <time>2017-07-17T13:46:45Z</time>
      </trkpt>
      <trkpt lat="46.94703" lon="5.11913">
        <ele>139.19999694824</ele>
        <time>2017-07-17T13:46:51Z</time>
      </trkpt>
      <trkpt lat="46.94706" lon="5.11927">
        <ele>139.39999389648</ele>
        <time>2017-07-17T13:46:53Z</time>
      </trkpt>
      <trkpt lat="46.94715" lon="5.11984">
        <ele>139.60000610352</ele>
        <time>2017-07-17T13:47:01Z</time>
      </trkpt>
      <trkpt lat="46.94725" lon="5.12033">
        <ele>139.60000610352</ele>
        <time>2017-07-17T13:47:08Z</time>
      </trkpt>
      <trkpt lat="46.94727" lon="5.1204">
        <ele>139.60000610352</ele>
        <time>2017-07-17T13:47:09Z</time>
      </trkpt>
      <trkpt lat="46.94739" lon="5.12072">
        <ele>139.80000305176</ele>
        <time>2017-07-17T13:47:14Z</time>
      </trkpt>
      <trkpt lat="46.94763" lon="5.12112">
        <ele>140.19999694824</ele>
        <time>2017-07-17T13:47:21Z</time>
      </trkpt>
      <trkpt lat="46.94766" lon="5.12118">
        <ele>140.19999694824</ele>
        <time>2017-07-17T13:47:22Z</time>
      </trkpt>
      <trkpt lat="46.94773" lon="5.12128">
        <ele>140.39999389648</ele>
        <time>2017-07-17T13:47:24Z</time>
      </trkpt>
      <trkpt lat="46.94789" lon="5.12148">
        <ele>140.39999389648</ele>
        <time>2017-07-17T13:47:28Z</time>
      </trkpt>
      <trkpt lat="46.94822" lon="5.12184">
        <ele>140.80000305176</ele>
        <time>2017-07-17T13:47:36Z</time>
      </trkpt>
      <trkpt lat="46.94863" lon="5.12217">
        <ele>141</ele>
        <time>2017-07-17T13:47:45Z</time>
      </trkpt>
      <trkpt lat="46.94876" lon="5.12228">
        <ele>141.19999694824</ele>
        <time>2017-07-17T13:47:48Z</time>
      </trkpt>
      <trkpt lat="46.94904" lon="5.12251">
        <ele>141.19999694824</ele>
        <time>2017-07-17T13:47:54Z</time>
      </trkpt>
      <trkpt lat="46.94948" lon="5.12293">
        <ele>141.19999694824</ele>
        <time>2017-07-17T13:48:04Z</time>
      </trkpt>
      <trkpt lat="46.94984" lon="5.12324">
        <ele>141.39999389648</ele>
        <time>2017-07-17T13:48:12Z</time>
      </trkpt>
      <trkpt lat="46.95034" lon="5.12352">
        <ele>141.39999389648</ele>
        <time>2017-07-17T13:48:22Z</time>
      </trkpt>
      <trkpt lat="46.9508" lon="5.12371">
        <ele>141.39999389648</ele>
        <time>2017-07-17T13:48:31Z</time>
      </trkpt>
      <trkpt lat="46.95121" lon="5.12382">
        <ele>141.60000610352</ele>
        <time>2017-07-17T13:48:39Z</time>
      </trkpt>
      <trkpt lat="46.95153" lon="5.12392">
        <ele>141.60000610352</ele>
        <time>2017-07-17T13:48:45Z</time>
      </trkpt>
      <trkpt lat="46.95208" lon="5.12405">
        <ele>141.19999694824</ele>
        <time>2017-07-17T13:48:55Z</time>
      </trkpt>
      <trkpt lat="46.95214" lon="5.12407">
        <ele>141</ele>
        <time>2017-07-17T13:48:56Z</time>
      </trkpt>
      <trkpt lat="46.9526" lon="5.12413">
        <ele>140.60000610352</ele>
        <time>2017-07-17T13:49:04Z</time>
      </trkpt>
      <trkpt lat="46.95277" lon="5.12415">
        <ele>140.19999694824</ele>
        <time>2017-07-17T13:49:07Z</time>
      </trkpt>
      <trkpt lat="46.95317" lon="5.12416">
        <ele>139</ele>
        <time>2017-07-17T13:49:14Z</time>
      </trkpt>
      <trkpt lat="46.95361" lon="5.12418">
        <ele>138.19999694824</ele>
        <time>2017-07-17T13:49:21Z</time>
      </trkpt>
      <trkpt lat="46.95367" lon="5.12418">
        <ele>138</ele>
        <time>2017-07-17T13:49:22Z</time>
      </trkpt>
      <trkpt lat="46.95401" lon="5.12419">
        <ele>137</ele>
        <time>2017-07-17T13:49:27Z</time>
      </trkpt>
      <trkpt lat="46.95422" lon="5.1242">
        <ele>136.39999389648</ele>
        <time>2017-07-17T13:49:30Z</time>
      </trkpt>
      <trkpt lat="46.95451" lon="5.12421">
        <ele>135.60000610352</ele>
        <time>2017-07-17T13:49:34Z</time>
      </trkpt>
      <trkpt lat="46.95488" lon="5.12421">
        <ele>134.60000610352</ele>
        <time>2017-07-17T13:49:39Z</time>
      </trkpt>
      <trkpt lat="46.95539" lon="5.1242">
        <ele>133.39999389648</ele>
        <time>2017-07-17T13:49:46Z</time>
      </trkpt>
      <trkpt lat="46.95553" lon="5.12418">
        <ele>133.19999694824</ele>
        <time>2017-07-17T13:49:48Z</time>
      </trkpt>
      <trkpt lat="46.95574" lon="5.12413">
        <ele>132.80000305176</ele>
        <time>2017-07-17T13:49:51Z</time>
      </trkpt>
      <trkpt lat="46.95587" lon="5.12409">
        <ele>132.39999389648</ele>
        <time>2017-07-17T13:49:53Z</time>
      </trkpt>
      <trkpt lat="46.95594" lon="5.12406">
        <ele>132.19999694824</ele>
        <time>2017-07-17T13:49:54Z</time>
      </trkpt>
      <trkpt lat="46.95637" lon="5.12388">
        <ele>131.60000610352</ele>
        <time>2017-07-17T13:50:01Z</time>
      </trkpt>
      <trkpt lat="46.9569" lon="5.12366">
        <ele>131.39999389648</ele>
        <time>2017-07-17T13:50:10Z</time>
      </trkpt>
      <trkpt lat="46.95702" lon="5.12362">
        <ele>131.39999389648</ele>
        <time>2017-07-17T13:50:12Z</time>
      </trkpt>
      <trkpt lat="46.95719" lon="5.1235">
        <ele>131.19999694824</ele>
        <time>2017-07-17T13:50:15Z</time>
      </trkpt>
      <trkpt lat="46.9573" lon="5.12329">
        <ele>131</ele>
        <time>2017-07-17T13:50:18Z</time>
      </trkpt>
      <trkpt lat="46.95736" lon="5.12302">
        <ele>131</ele>
        <time>2017-07-17T13:50:21Z</time>
      </trkpt>
      <trkpt lat="46.9574" lon="5.12284">
        <ele>131</ele>
        <time>2017-07-17T13:50:23Z</time>
      </trkpt>
      <trkpt lat="46.95756" lon="5.12215">
        <ele>130.60000610352</ele>
        <time>2017-07-17T13:50:31Z</time>
      </trkpt>
      <trkpt lat="46.95773" lon="5.12148">
        <ele>130.60000610352</ele>
        <time>2017-07-17T13:50:39Z</time>
      </trkpt>
      <trkpt lat="46.95786" lon="5.12097">
        <ele>130.60000610352</ele>
        <time>2017-07-17T13:50:45Z</time>
      </trkpt>
      <trkpt lat="46.95788" lon="5.12088">
        <ele>130.60000610352</ele>
        <time>2017-07-17T13:50:46Z</time>
      </trkpt>
      <trkpt lat="46.95797" lon="5.12056">
        <ele>130.39999389648</ele>
        <time>2017-07-17T13:50:50Z</time>
      </trkpt>
      <trkpt lat="46.958" lon="5.12049">
        <ele>130.39999389648</ele>
        <time>2017-07-17T13:50:51Z</time>
      </trkpt>
      <trkpt lat="46.95807" lon="5.12034">
        <ele>130.19999694824</ele>
        <time>2017-07-17T13:50:53Z</time>
      </trkpt>
      <trkpt lat="46.95821" lon="5.12017">
        <ele>130.19999694824</ele>
        <time>2017-07-17T13:50:56Z</time>
      </trkpt>
      <trkpt lat="46.95826" lon="5.12013">
        <ele>130.19999694824</ele>
        <time>2017-07-17T13:50:57Z</time>
      </trkpt>
      <trkpt lat="46.95852" lon="5.11994">
        <ele>130.19999694824</ele>
        <time>2017-07-17T13:51:02Z</time>
      </trkpt>
      <trkpt lat="46.95863" lon="5.11989">
        <ele>130.39999389648</ele>
        <time>2017-07-17T13:51:04Z</time>
      </trkpt>
      <trkpt lat="46.95898" lon="5.11976">
        <ele>130.39999389648</ele>
        <time>2017-07-17T13:51:11Z</time>
      </trkpt>
      <trkpt lat="46.95917" lon="5.11974">
        <ele>130.39999389648</ele>
        <time>2017-07-17T13:51:15Z</time>
      </trkpt>
      <trkpt lat="46.95926" lon="5.11977">
        <ele>130.19999694824</ele>
        <time>2017-07-17T13:51:17Z</time>
      </trkpt>
      <trkpt lat="46.95959" lon="5.11992">
        <ele>130.80000305176</ele>
        <time>2017-07-17T13:51:24Z</time>
      </trkpt>
      <trkpt lat="46.95996" lon="5.12008">
        <ele>130.39999389648</ele>
        <time>2017-07-17T13:51:31Z</time>
      </trkpt>
      <trkpt lat="46.96001" lon="5.12011">
        <ele>130.19999694824</ele>
        <time>2017-07-17T13:51:32Z</time>
      </trkpt>
      <trkpt lat="46.96015" lon="5.12027">
        <ele>130</ele>
        <time>2017-07-17T13:51:35Z</time>
      </trkpt>
      <trkpt lat="46.96019" lon="5.12033">
        <ele>129.80000305176</ele>
        <time>2017-07-17T13:51:36Z</time>
      </trkpt>
      <trkpt lat="46.96023" lon="5.12039">
        <ele>129.80000305176</ele>
        <time>2017-07-17T13:51:37Z</time>
      </trkpt>
      <trkpt lat="46.96033" lon="5.12055">
        <ele>129.80000305176</ele>
        <time>2017-07-17T13:51:40Z</time>
      </trkpt>
      <trkpt lat="46.96052" lon="5.12079">
        <ele>130.19999694824</ele>
        <time>2017-07-17T13:51:45Z</time>
      </trkpt>
      <trkpt lat="46.96056" lon="5.12083">
        <ele>130.19999694824</ele>
        <time>2017-07-17T13:51:46Z</time>
      </trkpt>
      <trkpt lat="46.96073" lon="5.1209">
        <ele>130</ele>
        <time>2017-07-17T13:51:49Z</time>
      </trkpt>
      <trkpt lat="46.96086" lon="5.12093">
        <ele>129.80000305176</ele>
        <time>2017-07-17T13:51:51Z</time>
      </trkpt>
      <trkpt lat="46.96092" lon="5.12096">
        <ele>129.60000610352</ele>
        <time>2017-07-17T13:51:52Z</time>
      </trkpt>
      <trkpt lat="46.96098" lon="5.121">
        <ele>129.19999694824</ele>
        <time>2017-07-17T13:51:53Z</time>
      </trkpt>
      <trkpt lat="46.9611" lon="5.1211">
        <ele>128.60000610352</ele>
        <time>2017-07-17T13:51:55Z</time>
      </trkpt>
      <trkpt lat="46.96125" lon="5.12122">
        <ele>128.19999694824</ele>
        <time>2017-07-17T13:51:58Z</time>
      </trkpt>
      <trkpt lat="46.9614" lon="5.12131">
        <ele>128</ele>
        <time>2017-07-17T13:52:01Z</time>
      </trkpt>
      <trkpt lat="46.9619" lon="5.12148">
        <ele>127.59999847412</ele>
        <time>2017-07-17T13:52:10Z</time>
      </trkpt>
      <trkpt lat="46.9623" lon="5.12148">
        <ele>127.19999694824</ele>
        <time>2017-07-17T13:52:17Z</time>
      </trkpt>
      <trkpt lat="46.96275" lon="5.12136">
        <ele>126.80000305176</ele>
        <time>2017-07-17T13:52:25Z</time>
      </trkpt>
      <trkpt lat="46.9629" lon="5.12126">
        <ele>127</ele>
        <time>2017-07-17T13:52:28Z</time>
      </trkpt>
      <trkpt lat="46.96305" lon="5.12116">
        <ele>127</ele>
        <time>2017-07-17T13:52:31Z</time>
      </trkpt>
      <trkpt lat="46.96342" lon="5.12096">
        <ele>127</ele>
        <time>2017-07-17T13:52:38Z</time>
      </trkpt>
      <trkpt lat="46.96372" lon="5.12078">
        <ele>126.80000305176</ele>
        <time>2017-07-17T13:52:45Z</time>
      </trkpt>
      <trkpt lat="46.96376" lon="5.12076">
        <ele>126.59999847412</ele>
        <time>2017-07-17T13:52:46Z</time>
      </trkpt>
      <trkpt lat="46.96399" lon="5.12059">
        <ele>126.80000305176</ele>
        <time>2017-07-17T13:52:51Z</time>
      </trkpt>
      <trkpt lat="46.96439" lon="5.12031">
        <ele>126.80000305176</ele>
        <time>2017-07-17T13:52:59Z</time>
      </trkpt>
      <trkpt lat="46.96491" lon="5.11996">
        <ele>127</ele>
        <time>2017-07-17T13:53:09Z</time>
      </trkpt>
      <trkpt lat="46.9654" lon="5.1197">
        <ele>127</ele>
        <time>2017-07-17T13:53:18Z</time>
      </trkpt>
      <trkpt lat="46.96574" lon="5.11959">
        <ele>127</ele>
        <time>2017-07-17T13:53:24Z</time>
      </trkpt>
      <trkpt lat="46.96632" lon="5.1195">
        <ele>127.40000152588</ele>
        <time>2017-07-17T13:53:34Z</time>
      </trkpt>
      <trkpt lat="46.96688" lon="5.11943">
        <ele>127.59999847412</ele>
        <time>2017-07-17T13:53:44Z</time>
      </trkpt>
      <trkpt lat="46.96738" lon="5.1194">
        <ele>127.59999847412</ele>
        <time>2017-07-17T13:53:53Z</time>
      </trkpt>
      <trkpt lat="46.96794" lon="5.11942">
        <ele>127.40000152588</ele>
        <time>2017-07-17T13:54:03Z</time>
      </trkpt>
      <trkpt lat="46.968" lon="5.11943">
        <ele>127.40000152588</ele>
        <time>2017-07-17T13:54:04Z</time>
      </trkpt>
      <trkpt lat="46.9685" lon="5.1195">
        <ele>127.40000152588</ele>
        <time>2017-07-17T13:54:13Z</time>
      </trkpt>
      <trkpt lat="46.96856" lon="5.11951">
        <ele>127.40000152588</ele>
        <time>2017-07-17T13:54:14Z</time>
      </trkpt>
      <trkpt lat="46.96894" lon="5.11961">
        <ele>127.59999847412</ele>
        <time>2017-07-17T13:54:21Z</time>
      </trkpt>
      <trkpt lat="46.96928" lon="5.11974">
        <ele>127.80000305176</ele>
        <time>2017-07-17T13:54:27Z</time>
      </trkpt>
      <trkpt lat="46.96975" lon="5.11983">
        <ele>127.59999847412</ele>
        <time>2017-07-17T13:54:35Z</time>
      </trkpt>
      <trkpt lat="46.96981" lon="5.11984">
        <ele>127.59999847412</ele>
        <time>2017-07-17T13:54:36Z</time>
      </trkpt>
      <trkpt lat="46.97004" lon="5.1199">
        <ele>127.40000152588</ele>
        <time>2017-07-17T13:54:40Z</time>
      </trkpt>
      <trkpt lat="46.97051" lon="5.12009">
        <ele>127.19999694824</ele>
        <time>2017-07-17T13:54:48Z</time>
      </trkpt>
      <trkpt lat="46.97104" lon="5.12039">
        <ele>127.19999694824</ele>
        <time>2017-07-17T13:54:58Z</time>
      </trkpt>
      <trkpt lat="46.97155" lon="5.12072">
        <ele>127.40000152588</ele>
        <time>2017-07-17T13:55:08Z</time>
      </trkpt>
      <trkpt lat="46.97186" lon="5.12102">
        <ele>127.40000152588</ele>
        <time>2017-07-17T13:55:15Z</time>
      </trkpt>
      <trkpt lat="46.97216" lon="5.1215">
        <ele>127.59999847412</ele>
        <time>2017-07-17T13:55:23Z</time>
      </trkpt>
      <trkpt lat="46.97228" lon="5.12177">
        <ele>127.40000152588</ele>
        <time>2017-07-17T13:55:27Z</time>
      </trkpt>
      <trkpt lat="46.97233" lon="5.12189">
        <ele>127.40000152588</ele>
        <time>2017-07-17T13:55:29Z</time>
      </trkpt>
      <trkpt lat="46.97236" lon="5.12196">
        <ele>127.40000152588</ele>
        <time>2017-07-17T13:55:30Z</time>
      </trkpt>
      <trkpt lat="46.97242" lon="5.12225">
        <ele>127.40000152588</ele>
        <time>2017-07-17T13:55:34Z</time>
      </trkpt>
      <trkpt lat="46.97257" lon="5.12298">
        <ele>127.59999847412</ele>
        <time>2017-07-17T13:55:44Z</time>
      </trkpt>
      <trkpt lat="46.97272" lon="5.12376">
        <ele>127.59999847412</ele>
        <time>2017-07-17T13:55:54Z</time>
      </trkpt>
      <trkpt lat="46.97278" lon="5.12442">
        <ele>127.59999847412</ele>
        <time>2017-07-17T13:56:02Z</time>
      </trkpt>
      <trkpt lat="46.97284" lon="5.12526">
        <ele>127.59999847412</ele>
        <time>2017-07-17T13:56:12Z</time>
      </trkpt>
      <trkpt lat="46.97284" lon="5.12534">
        <ele>127.59999847412</ele>
        <time>2017-07-17T13:56:13Z</time>
      </trkpt>
      <trkpt lat="46.9729" lon="5.12616">
        <ele>127.80000305176</ele>
        <time>2017-07-17T13:56:23Z</time>
      </trkpt>
      <trkpt lat="46.9729" lon="5.12624">
        <ele>127.80000305176</ele>
        <time>2017-07-17T13:56:24Z</time>
      </trkpt>
      <trkpt lat="46.97296" lon="5.12696">
        <ele>128</ele>
        <time>2017-07-17T13:56:33Z</time>
      </trkpt>
      <trkpt lat="46.97307" lon="5.12758">
        <ele>128</ele>
        <time>2017-07-17T13:56:41Z</time>
      </trkpt>
      <trkpt lat="46.97324" lon="5.12824">
        <ele>128</ele>
        <time>2017-07-17T13:56:50Z</time>
      </trkpt>
      <trkpt lat="46.97339" lon="5.12868">
        <ele>128</ele>
        <time>2017-07-17T13:56:56Z</time>
      </trkpt>
      <trkpt lat="46.97345" lon="5.1289">
        <ele>128</ele>
        <time>2017-07-17T13:56:59Z</time>
      </trkpt>
      <trkpt lat="46.97368" lon="5.12937">
        <ele>128</ele>
        <time>2017-07-17T13:57:06Z</time>
      </trkpt>
      <trkpt lat="46.97394" lon="5.12983">
        <ele>128</ele>
        <time>2017-07-17T13:57:13Z</time>
      </trkpt>
      <trkpt lat="46.97426" lon="5.13039">
        <ele>128.19999694824</ele>
        <time>2017-07-17T13:57:22Z</time>
      </trkpt>
      <trkpt lat="46.97453" lon="5.13077">
        <ele>128</ele>
        <time>2017-07-17T13:57:29Z</time>
      </trkpt>
      <trkpt lat="46.9748" lon="5.13102">
        <ele>128</ele>
        <time>2017-07-17T13:57:35Z</time>
      </trkpt>
      <trkpt lat="46.97485" lon="5.13105">
        <ele>128</ele>
        <time>2017-07-17T13:57:36Z</time>
      </trkpt>
      <trkpt lat="46.9751" lon="5.13121">
        <ele>128.19999694824</ele>
        <time>2017-07-17T13:57:41Z</time>
      </trkpt>
      <trkpt lat="46.97515" lon="5.13124">
        <ele>128.39999389648</ele>
        <time>2017-07-17T13:57:42Z</time>
      </trkpt>
      <trkpt lat="46.97556" lon="5.13146">
        <ele>128.19999694824</ele>
        <time>2017-07-17T13:57:50Z</time>
      </trkpt>
      <trkpt lat="46.97561" lon="5.13149">
        <ele>128.19999694824</ele>
        <time>2017-07-17T13:57:51Z</time>
      </trkpt>
      <trkpt lat="46.97586" lon="5.13166">
        <ele>128.19999694824</ele>
        <time>2017-07-17T13:57:56Z</time>
      </trkpt>
      <trkpt lat="46.97614" lon="5.13177">
        <ele>128.19999694824</ele>
        <time>2017-07-17T13:58:02Z</time>
      </trkpt>
      <trkpt lat="46.97651" lon="5.13176">
        <ele>128.39999389648</ele>
        <time>2017-07-17T13:58:09Z</time>
      </trkpt>
      <trkpt lat="46.97656" lon="5.13176">
        <ele>128.39999389648</ele>
        <time>2017-07-17T13:58:10Z</time>
      </trkpt>
      <trkpt lat="46.97669" lon="5.13181">
        <ele>128.39999389648</ele>
        <time>2017-07-17T13:58:13Z</time>
      </trkpt>
      <trkpt lat="46.97673" lon="5.13183">
        <ele>128.39999389648</ele>
        <time>2017-07-17T13:58:14Z</time>
      </trkpt>
      <trkpt lat="46.97713" lon="5.13208">
        <ele>128.60000610352</ele>
        <time>2017-07-17T13:58:23Z</time>
      </trkpt>
      <trkpt lat="46.9775" lon="5.13238">
        <ele>128.80000305176</ele>
        <time>2017-07-17T13:58:31Z</time>
      </trkpt>
      <trkpt lat="46.97762" lon="5.13248">
        <ele>129.19999694824</ele>
        <time>2017-07-17T13:58:35Z</time>
      </trkpt>
      <trkpt lat="46.97764" lon="5.1325">
        <ele>129.39999389648</ele>
        <time>2017-07-17T13:58:36Z</time>
      </trkpt>
      <trkpt lat="46.97772" lon="5.13258">
        <ele>130.39999389648</ele>
        <time>2017-07-17T13:58:40Z</time>
      </trkpt>
      <trkpt lat="46.97777" lon="5.13262">
        <ele>130.80000305176</ele>
        <time>2017-07-17T13:58:42Z</time>
      </trkpt>
      <trkpt lat="46.97788" lon="5.13269">
        <ele>131.19999694824</ele>
        <time>2017-07-17T13:58:45Z</time>
      </trkpt>
      <trkpt lat="46.97792" lon="5.13272">
        <ele>131.19999694824</ele>
        <time>2017-07-17T13:58:46Z</time>
      </trkpt>
      <trkpt lat="46.97818" lon="5.13293">
        <ele>130.39999389648</ele>
        <time>2017-07-17T13:58:51Z</time>
      </trkpt>
      <trkpt lat="46.97854" lon="5.1332">
        <ele>129.39999389648</ele>
        <time>2017-07-17T13:58:58Z</time>
      </trkpt>
      <trkpt lat="46.97905" lon="5.1336">
        <ele>129</ele>
        <time>2017-07-17T13:59:08Z</time>
      </trkpt>
      <trkpt lat="46.97949" lon="5.13396">
        <ele>129</ele>
        <time>2017-07-17T13:59:17Z</time>
      </trkpt>
      <trkpt lat="46.97998" lon="5.13435">
        <ele>129</ele>
        <time>2017-07-17T13:59:27Z</time>
      </trkpt>
      <trkpt lat="46.98003" lon="5.13439">
        <ele>129</ele>
        <time>2017-07-17T13:59:28Z</time>
      </trkpt>
      <trkpt lat="46.98047" lon="5.13473">
        <ele>129</ele>
        <time>2017-07-17T13:59:37Z</time>
      </trkpt>
      <trkpt lat="46.98085" lon="5.13504">
        <ele>129</ele>
        <time>2017-07-17T13:59:45Z</time>
      </trkpt>
      <trkpt lat="46.98123" lon="5.13535">
        <ele>129</ele>
        <time>2017-07-17T13:59:53Z</time>
      </trkpt>
      <trkpt lat="46.98166" lon="5.13569">
        <ele>129</ele>
        <time>2017-07-17T14:00:02Z</time>
      </trkpt>
      <trkpt lat="46.98204" lon="5.136">
        <ele>129.19999694824</ele>
        <time>2017-07-17T14:00:10Z</time>
      </trkpt>
      <trkpt lat="46.98235" lon="5.13625">
        <ele>129.19999694824</ele>
        <time>2017-07-17T14:00:17Z</time>
      </trkpt>
      <trkpt lat="46.98239" lon="5.13628">
        <ele>129.19999694824</ele>
        <time>2017-07-17T14:00:18Z</time>
      </trkpt>
      <trkpt lat="46.98253" lon="5.13637">
        <ele>129.19999694824</ele>
        <time>2017-07-17T14:00:22Z</time>
      </trkpt>
      <trkpt lat="46.98276" lon="5.13655">
        <ele>130</ele>
        <time>2017-07-17T14:00:29Z</time>
      </trkpt>
      <trkpt lat="46.98301" lon="5.13674">
        <ele>130.19999694824</ele>
        <time>2017-07-17T14:00:35Z</time>
      </trkpt>
      <trkpt lat="46.98334" lon="5.13705">
        <ele>130</ele>
        <time>2017-07-17T14:00:42Z</time>
      </trkpt>
      <trkpt lat="46.98365" lon="5.13743">
        <ele>129.39999389648</ele>
        <time>2017-07-17T14:00:49Z</time>
      </trkpt>
      <trkpt lat="46.98389" lon="5.13785">
        <ele>129.39999389648</ele>
        <time>2017-07-17T14:00:56Z</time>
      </trkpt>
      <trkpt lat="46.98422" lon="5.13844">
        <ele>129.39999389648</ele>
        <time>2017-07-17T14:01:06Z</time>
      </trkpt>
      <trkpt lat="46.98448" lon="5.1389">
        <ele>129.60000610352</ele>
        <time>2017-07-17T14:01:14Z</time>
      </trkpt>
      <trkpt lat="46.98471" lon="5.13932">
        <ele>129.39999389648</ele>
        <time>2017-07-17T14:01:21Z</time>
      </trkpt>
      <trkpt lat="46.98503" lon="5.13994">
        <ele>129.39999389648</ele>
        <time>2017-07-17T14:01:31Z</time>
      </trkpt>
      <trkpt lat="46.9853" lon="5.14052">
        <ele>129.39999389648</ele>
        <time>2017-07-17T14:01:40Z</time>
      </trkpt>
      <trkpt lat="46.98555" lon="5.14107">
        <ele>129.19999694824</ele>
        <time>2017-07-17T14:01:49Z</time>
      </trkpt>
      <trkpt lat="46.98559" lon="5.14117">
        <ele>129.19999694824</ele>
        <time>2017-07-17T14:01:51Z</time>
      </trkpt>
      <trkpt lat="46.98565" lon="5.14133">
        <ele>129</ele>
        <time>2017-07-17T14:01:54Z</time>
      </trkpt>
      <trkpt lat="46.98572" lon="5.1415">
        <ele>129</ele>
        <time>2017-07-17T14:01:57Z</time>
      </trkpt>
      <trkpt lat="46.98575" lon="5.14163">
        <ele>129.19999694824</ele>
        <time>2017-07-17T14:01:59Z</time>
      </trkpt>
      <trkpt lat="46.98577" lon="5.1417">
        <ele>129.19999694824</ele>
        <time>2017-07-17T14:02:00Z</time>
      </trkpt>
      <trkpt lat="46.98592" lon="5.14216">
        <ele>129.39999389648</ele>
        <time>2017-07-17T14:02:07Z</time>
      </trkpt>
      <trkpt lat="46.98613" lon="5.14285">
        <ele>129.19999694824</ele>
        <time>2017-07-17T14:02:17Z</time>
      </trkpt>
      <trkpt lat="46.98635" lon="5.14344">
        <ele>129.19999694824</ele>
        <time>2017-07-17T14:02:26Z</time>
      </trkpt>
      <trkpt lat="46.98644" lon="5.14361">
        <ele>129.39999389648</ele>
        <time>2017-07-17T14:02:29Z</time>
      </trkpt>
      <trkpt lat="46.98658" lon="5.14384">
        <ele>129.39999389648</ele>
        <time>2017-07-17T14:02:33Z</time>
      </trkpt>
      <trkpt lat="46.98683" lon="5.14413">
        <ele>129.39999389648</ele>
        <time>2017-07-17T14:02:39Z</time>
      </trkpt>
      <trkpt lat="46.9871" lon="5.1444">
        <ele>128.80000305176</ele>
        <time>2017-07-17T14:02:45Z</time>
      </trkpt>
      <trkpt lat="46.98714" lon="5.14444">
        <ele>128.80000305176</ele>
        <time>2017-07-17T14:02:46Z</time>
      </trkpt>
      <trkpt lat="46.98732" lon="5.1446">
        <ele>128.80000305176</ele>
        <time>2017-07-17T14:02:50Z</time>
      </trkpt>
      <trkpt lat="46.98746" lon="5.14469">
        <ele>129</ele>
        <time>2017-07-17T14:02:53Z</time>
      </trkpt>
      <trkpt lat="46.98778" lon="5.14489">
        <ele>129.39999389648</ele>
        <time>2017-07-17T14:03:00Z</time>
      </trkpt>
      <trkpt lat="46.98787" lon="5.14494">
        <ele>129.19999694824</ele>
        <time>2017-07-17T14:03:02Z</time>
      </trkpt>
      <trkpt lat="46.98801" lon="5.14502">
        <ele>129.19999694824</ele>
        <time>2017-07-17T14:03:05Z</time>
      </trkpt>
      <trkpt lat="46.98805" lon="5.14503">
        <ele>129.19999694824</ele>
        <time>2017-07-17T14:03:06Z</time>
      </trkpt>
      <trkpt lat="46.98823" lon="5.14507">
        <ele>129</ele>
        <time>2017-07-17T14:03:10Z</time>
      </trkpt>
      <trkpt lat="46.98831" lon="5.14507">
        <ele>128.80000305176</ele>
        <time>2017-07-17T14:03:12Z</time>
      </trkpt>
      <trkpt lat="46.98847" lon="5.14506">
        <ele>128.60000610352</ele>
        <time>2017-07-17T14:03:17Z</time>
      </trkpt>
      <trkpt lat="46.98867" lon="5.14507">
        <ele>128.60000610352</ele>
        <time>2017-07-17T14:03:24Z</time>
      </trkpt>
      <trkpt lat="46.98895" lon="5.14508">
        <ele>129</ele>
        <time>2017-07-17T14:03:31Z</time>
      </trkpt>
      <trkpt lat="46.98913" lon="5.1451">
        <ele>129</ele>
        <time>2017-07-17T14:03:35Z</time>
      </trkpt>
      <trkpt lat="46.98921" lon="5.1451">
        <ele>129.19999694824</ele>
        <time>2017-07-17T14:03:37Z</time>
      </trkpt>
      <trkpt lat="46.9895" lon="5.14514">
        <ele>129</ele>
        <time>2017-07-17T14:03:43Z</time>
      </trkpt>
      <trkpt lat="46.98983" lon="5.14527">
        <ele>129</ele>
        <time>2017-07-17T14:03:50Z</time>
      </trkpt>
      <trkpt lat="46.9901" lon="5.14548">
        <ele>129.19999694824</ele>
        <time>2017-07-17T14:03:57Z</time>
      </trkpt>
      <trkpt lat="46.99035" lon="5.14568">
        <ele>129.39999389648</ele>
        <time>2017-07-17T14:04:03Z</time>
      </trkpt>
      <trkpt lat="46.99069" lon="5.14597">
        <ele>129.19999694824</ele>
        <time>2017-07-17T14:04:11Z</time>
      </trkpt>
      <trkpt lat="46.99098" lon="5.14621">
        <ele>129.39999389648</ele>
        <time>2017-07-17T14:04:18Z</time>
      </trkpt>
      <trkpt lat="46.99135" lon="5.14649">
        <ele>129.60000610352</ele>
        <time>2017-07-17T14:04:26Z</time>
      </trkpt>
      <trkpt lat="46.99171" lon="5.14676">
        <ele>129.60000610352</ele>
        <time>2017-07-17T14:04:34Z</time>
      </trkpt>
      <trkpt lat="46.992" lon="5.14695">
        <ele>129.60000610352</ele>
        <time>2017-07-17T14:04:40Z</time>
      </trkpt>
      <trkpt lat="46.99234" lon="5.14716">
        <ele>129.60000610352</ele>
        <time>2017-07-17T14:04:47Z</time>
      </trkpt>
      <trkpt lat="46.99239" lon="5.1472">
        <ele>129.60000610352</ele>
        <time>2017-07-17T14:04:48Z</time>
      </trkpt>
      <trkpt lat="46.99253" lon="5.14728">
        <ele>129.39999389648</ele>
        <time>2017-07-17T14:04:51Z</time>
      </trkpt>
      <trkpt lat="46.99266" lon="5.14735">
        <ele>129.39999389648</ele>
        <time>2017-07-17T14:04:55Z</time>
      </trkpt>
      <trkpt lat="46.99299" lon="5.14747">
        <ele>129.39999389648</ele>
        <time>2017-07-17T14:05:02Z</time>
      </trkpt>
      <trkpt lat="46.99304" lon="5.14748">
        <ele>129.60000610352</ele>
        <time>2017-07-17T14:05:03Z</time>
      </trkpt>
      <trkpt lat="46.99328" lon="5.14748">
        <ele>129.80000305176</ele>
        <time>2017-07-17T14:05:08Z</time>
      </trkpt>
      <trkpt lat="46.99333" lon="5.14747">
        <ele>129.80000305176</ele>
        <time>2017-07-17T14:05:09Z</time>
      </trkpt>
      <trkpt lat="46.99357" lon="5.14743">
        <ele>129.80000305176</ele>
        <time>2017-07-17T14:05:14Z</time>
      </trkpt>
      <trkpt lat="46.99384" lon="5.14737">
        <ele>130.19999694824</ele>
        <time>2017-07-17T14:05:20Z</time>
      </trkpt>
      <trkpt lat="46.99389" lon="5.14735">
        <ele>130.19999694824</ele>
        <time>2017-07-17T14:05:21Z</time>
      </trkpt>
      <trkpt lat="46.99412" lon="5.14725">
        <ele>130.19999694824</ele>
        <time>2017-07-17T14:05:26Z</time>
      </trkpt>
      <trkpt lat="46.99417" lon="5.14722">
        <ele>130.19999694824</ele>
        <time>2017-07-17T14:05:27Z</time>
      </trkpt>
      <trkpt lat="46.99429" lon="5.14712">
        <ele>130.19999694824</ele>
        <time>2017-07-17T14:05:30Z</time>
      </trkpt>
      <trkpt lat="46.99436" lon="5.14704">
        <ele>130.39999389648</ele>
        <time>2017-07-17T14:05:32Z</time>
      </trkpt>
      <trkpt lat="46.9944" lon="5.14701">
        <ele>130.39999389648</ele>
        <time>2017-07-17T14:05:33Z</time>
      </trkpt>
      <trkpt lat="46.99444" lon="5.14697">
        <ele>130.39999389648</ele>
        <time>2017-07-17T14:05:34Z</time>
      </trkpt>
      <trkpt lat="46.9947" lon="5.14674">
        <ele>130.80000305176</ele>
        <time>2017-07-17T14:05:41Z</time>
      </trkpt>
      <trkpt lat="46.9949" lon="5.1466">
        <ele>130.60000610352</ele>
        <time>2017-07-17T14:05:48Z</time>
      </trkpt>
      <trkpt lat="46.99505" lon="5.1465">
        <ele>130.60000610352</ele>
        <time>2017-07-17T14:05:55Z</time>
      </trkpt>
      <trkpt lat="46.99521" lon="5.14636">
        <ele>130.80000305176</ele>
        <time>2017-07-17T14:06:01Z</time>
      </trkpt>
      <trkpt lat="46.99541" lon="5.14622">
        <ele>130.80000305176</ele>
        <time>2017-07-17T14:06:08Z</time>
      </trkpt>
      <trkpt lat="46.9956" lon="5.14603">
        <ele>130.60000610352</ele>
        <time>2017-07-17T14:06:14Z</time>
      </trkpt>
      <trkpt lat="46.99583" lon="5.14585">
        <ele>130.80000305176</ele>
        <time>2017-07-17T14:06:21Z</time>
      </trkpt>
      <trkpt lat="46.99602" lon="5.1457">
        <ele>130.80000305176</ele>
        <time>2017-07-17T14:06:28Z</time>
      </trkpt>
      <trkpt lat="46.99621" lon="5.14554">
        <ele>130.80000305176</ele>
        <time>2017-07-17T14:06:34Z</time>
      </trkpt>
      <trkpt lat="46.99643" lon="5.14536">
        <ele>130.80000305176</ele>
        <time>2017-07-17T14:06:42Z</time>
      </trkpt>
      <trkpt lat="46.99663" lon="5.14518">
        <ele>131</ele>
        <time>2017-07-17T14:06:50Z</time>
      </trkpt>
      <trkpt lat="46.99684" lon="5.14504">
        <ele>130.80000305176</ele>
        <time>2017-07-17T14:06:57Z</time>
      </trkpt>
      <trkpt lat="46.99708" lon="5.14489">
        <ele>130.80000305176</ele>
        <time>2017-07-17T14:07:05Z</time>
      </trkpt>
      <trkpt lat="46.99736" lon="5.14474">
        <ele>130.80000305176</ele>
        <time>2017-07-17T14:07:14Z</time>
      </trkpt>
      <trkpt lat="46.99745" lon="5.1447">
        <ele>130.80000305176</ele>
        <time>2017-07-17T14:07:18Z</time>
      </trkpt>
      <trkpt lat="46.9975" lon="5.14471">
        <ele>130.80000305176</ele>
        <time>2017-07-17T14:07:20Z</time>
      </trkpt>
      <trkpt lat="46.99756" lon="5.14474">
        <ele>130.39999389648</ele>
        <time>2017-07-17T14:08:39Z</time>
      </trkpt>
      <trkpt lat="46.99765" lon="5.14464">
        <ele>130.60000610352</ele>
        <time>2017-07-17T14:08:44Z</time>
      </trkpt>
      <trkpt lat="46.99767" lon="5.14462">
        <ele>130.60000610352</ele>
        <time>2017-07-17T14:08:45Z</time>
      </trkpt>
      <trkpt lat="46.9978" lon="5.14453">
        <ele>130.80000305176</ele>
        <time>2017-07-17T14:08:50Z</time>
      </trkpt>
      <trkpt lat="46.99799" lon="5.14442">
        <ele>131.39999389648</ele>
        <time>2017-07-17T14:08:57Z</time>
      </trkpt>
      <trkpt lat="46.99801" lon="5.14441">
        <ele>131.39999389648</ele>
        <time>2017-07-17T14:08:58Z</time>
      </trkpt>
      <trkpt lat="46.99817" lon="5.14437">
        <ele>132</ele>
        <time>2017-07-17T14:09:03Z</time>
      </trkpt>
      <trkpt lat="46.99827" lon="5.14436">
        <ele>132.39999389648</ele>
        <time>2017-07-17T14:09:06Z</time>
      </trkpt>
      <trkpt lat="46.99837" lon="5.14436">
        <ele>133</ele>
        <time>2017-07-17T14:09:09Z</time>
      </trkpt>
      <trkpt lat="46.99849" lon="5.14433">
        <ele>133.60000610352</ele>
        <time>2017-07-17T14:09:14Z</time>
      </trkpt>
      <trkpt lat="46.99869" lon="5.1443">
        <ele>133.39999389648</ele>
        <time>2017-07-17T14:09:19Z</time>
      </trkpt>
      <trkpt lat="46.99904" lon="5.14426">
        <ele>132.80000305176</ele>
        <time>2017-07-17T14:09:25Z</time>
      </trkpt>
      <trkpt lat="46.9991" lon="5.14426">
        <ele>132.60000610352</ele>
        <time>2017-07-17T14:09:26Z</time>
      </trkpt>
      <trkpt lat="46.99946" lon="5.14425">
        <ele>131.39999389648</ele>
        <time>2017-07-17T14:09:32Z</time>
      </trkpt>
      <trkpt lat="46.99951" lon="5.14425">
        <ele>131.39999389648</ele>
        <time>2017-07-17T14:09:33Z</time>
      </trkpt>
      <trkpt lat="46.99966" lon="5.14425">
        <ele>131.19999694824</ele>
        <time>2017-07-17T14:09:36Z</time>
      </trkpt>
      <trkpt lat="46.99982" lon="5.14425">
        <ele>131</ele>
        <time>2017-07-17T14:09:39Z</time>
      </trkpt>
      <trkpt lat="46.99993" lon="5.14423">
        <ele>131</ele>
        <time>2017-07-17T14:09:41Z</time>
      </trkpt>
      <trkpt lat="47.00009" lon="5.1442">
        <ele>130.80000305176</ele>
        <time>2017-07-17T14:09:44Z</time>
      </trkpt>
      <trkpt lat="47.00024" lon="5.14416">
        <ele>131</ele>
        <time>2017-07-17T14:09:47Z</time>
      </trkpt>
      <trkpt lat="47.00042" lon="5.14411">
        <ele>131</ele>
        <time>2017-07-17T14:09:51Z</time>
      </trkpt>
      <trkpt lat="47.00064" lon="5.14406">
        <ele>131.19999694824</ele>
        <time>2017-07-17T14:09:56Z</time>
      </trkpt>
      <trkpt lat="47.00071" lon="5.14399">
        <ele>131.19999694824</ele>
        <time>2017-07-17T14:09:58Z</time>
      </trkpt>
      <trkpt lat="47.00073" lon="5.1438">
        <ele>131</ele>
        <time>2017-07-17T14:10:01Z</time>
      </trkpt>
      <trkpt lat="47.00082" lon="5.14352">
        <ele>130.60000610352</ele>
        <time>2017-07-17T14:10:05Z</time>
      </trkpt>
      <trkpt lat="47.00092" lon="5.14345">
        <ele>130.39999389648</ele>
        <time>2017-07-17T14:10:07Z</time>
      </trkpt>
      <trkpt lat="47.00102" lon="5.14341">
        <ele>130.19999694824</ele>
        <time>2017-07-17T14:10:09Z</time>
      </trkpt>
      <trkpt lat="47.00107" lon="5.14339">
        <ele>130</ele>
        <time>2017-07-17T14:10:10Z</time>
      </trkpt>
      <trkpt lat="47.00142" lon="5.1433">
        <ele>130.19999694824</ele>
        <time>2017-07-17T14:10:17Z</time>
      </trkpt>
      <trkpt lat="47.00168" lon="5.14323">
        <ele>130</ele>
        <time>2017-07-17T14:10:22Z</time>
      </trkpt>
      <trkpt lat="47.00183" lon="5.14325">
        <ele>129.80000305176</ele>
        <time>2017-07-17T14:10:25Z</time>
      </trkpt>
      <trkpt lat="47.00192" lon="5.14329">
        <ele>129.80000305176</ele>
        <time>2017-07-17T14:10:27Z</time>
      </trkpt>
      <trkpt lat="47.00215" lon="5.14335">
        <ele>129.80000305176</ele>
        <time>2017-07-17T14:10:32Z</time>
      </trkpt>
      <trkpt lat="47.00235" lon="5.14339">
        <ele>129.80000305176</ele>
        <time>2017-07-17T14:10:37Z</time>
      </trkpt>
      <trkpt lat="47.00239" lon="5.14339">
        <ele>130</ele>
        <time>2017-07-17T14:10:38Z</time>
      </trkpt>
      <trkpt lat="47.00255" lon="5.14349">
        <ele>129.80000305176</ele>
        <time>2017-07-17T14:10:43Z</time>
      </trkpt>
      <trkpt lat="47.00264" lon="5.14369">
        <ele>129.80000305176</ele>
        <time>2017-07-17T14:10:47Z</time>
      </trkpt>
      <trkpt lat="47.00266" lon="5.14375">
        <ele>129.80000305176</ele>
        <time>2017-07-17T14:10:48Z</time>
      </trkpt>
      <trkpt lat="47.00269" lon="5.14393">
        <ele>130</ele>
        <time>2017-07-17T14:10:51Z</time>
      </trkpt>
      <trkpt lat="47.00269" lon="5.14399">
        <ele>130</ele>
        <time>2017-07-17T14:10:52Z</time>
      </trkpt>
      <trkpt lat="47.00265" lon="5.14423">
        <ele>130.19999694824</ele>
        <time>2017-07-17T14:10:56Z</time>
      </trkpt>
      <trkpt lat="47.00261" lon="5.14458">
        <ele>130.19999694824</ele>
        <time>2017-07-17T14:11:02Z</time>
      </trkpt>
      <trkpt lat="47.00259" lon="5.14468">
        <ele>130.39999389648</ele>
        <time>2017-07-17T14:11:06Z</time>
      </trkpt>
      <trkpt lat="47.00259" lon="5.14479">
        <ele>130.39999389648</ele>
        <time>2017-07-17T14:11:11Z</time>
      </trkpt>
      <trkpt lat="47.00261" lon="5.14478">
        <ele>130.39999389648</ele>
        <time>2017-07-17T14:11:12Z</time>
      </trkpt>
      <trkpt lat="47.00265" lon="5.14468">
        <ele>130.39999389648</ele>
        <time>2017-07-17T14:11:15Z</time>
      </trkpt>
      <trkpt lat="47.00266" lon="5.14437">
        <ele>130.19999694824</ele>
        <time>2017-07-17T14:11:21Z</time>
      </trkpt>
      <trkpt lat="47.0027" lon="5.14397">
        <ele>130.39999389648</ele>
        <time>2017-07-17T14:11:28Z</time>
      </trkpt>
      <trkpt lat="47.00273" lon="5.14372">
        <ele>130.19999694824</ele>
        <time>2017-07-17T14:11:33Z</time>
      </trkpt>
      <trkpt lat="47.00279" lon="5.14347">
        <ele>130.19999694824</ele>
        <time>2017-07-17T14:11:38Z</time>
      </trkpt>
      <trkpt lat="47.00282" lon="5.14342">
        <ele>130.19999694824</ele>
        <time>2017-07-17T14:11:39Z</time>
      </trkpt>
      <trkpt lat="47.00297" lon="5.14334">
        <ele>130.19999694824</ele>
        <time>2017-07-17T14:11:43Z</time>
      </trkpt>
      <trkpt lat="47.00321" lon="5.14329">
        <ele>130</ele>
        <time>2017-07-17T14:11:50Z</time>
      </trkpt>
      <trkpt lat="47.00341" lon="5.14326">
        <ele>130.19999694824</ele>
        <time>2017-07-17T14:11:58Z</time>
      </trkpt>
      <trkpt lat="47.00344" lon="5.14325">
        <ele>130.19999694824</ele>
        <time>2017-07-17T14:11:59Z</time>
      </trkpt>
      <trkpt lat="47.00361" lon="5.14321">
        <ele>130</ele>
        <time>2017-07-17T14:12:07Z</time>
      </trkpt>
      <trkpt lat="47.00378" lon="5.1432">
        <ele>130</ele>
        <time>2017-07-17T14:12:14Z</time>
      </trkpt>
      <trkpt lat="47.00388" lon="5.1432">
        <ele>130</ele>
        <time>2017-07-17T14:12:19Z</time>
      </trkpt>
      <trkpt lat="47.0039" lon="5.14322">
        <ele>130</ele>
        <time>2017-07-17T14:12:20Z</time>
      </trkpt>
      <trkpt lat="47.00393" lon="5.14322">
        <ele>129.60000610352</ele>
        <time>2017-07-17T14:13:52Z</time>
      </trkpt>
      <trkpt lat="47.00405" lon="5.14314">
        <ele>129.80000305176</ele>
        <time>2017-07-17T14:13:57Z</time>
      </trkpt>
      <trkpt lat="47.0041" lon="5.14309">
        <ele>129.80000305176</ele>
        <time>2017-07-17T14:13:59Z</time>
      </trkpt>
      <trkpt lat="47.00422" lon="5.14299">
        <ele>130</ele>
        <time>2017-07-17T14:14:03Z</time>
      </trkpt>
      <trkpt lat="47.00428" lon="5.14292">
        <ele>130</ele>
        <time>2017-07-17T14:14:05Z</time>
      </trkpt>
      <trkpt lat="47.00435" lon="5.14284">
        <ele>130</ele>
        <time>2017-07-17T14:14:07Z</time>
      </trkpt>
      <trkpt lat="47.00438" lon="5.14279">
        <ele>130</ele>
        <time>2017-07-17T14:14:08Z</time>
      </trkpt>
      <trkpt lat="47.00455" lon="5.14249">
        <ele>130</ele>
        <time>2017-07-17T14:14:14Z</time>
      </trkpt>
      <trkpt lat="47.00457" lon="5.14244">
        <ele>130</ele>
        <time>2017-07-17T14:14:15Z</time>
      </trkpt>
      <trkpt lat="47.00463" lon="5.14226">
        <ele>130</ele>
        <time>2017-07-17T14:14:18Z</time>
      </trkpt>
      <trkpt lat="47.00467" lon="5.14213">
        <ele>130</ele>
        <time>2017-07-17T14:14:20Z</time>
      </trkpt>
      <trkpt lat="47.00474" lon="5.14188">
        <ele>130.19999694824</ele>
        <time>2017-07-17T14:14:24Z</time>
      </trkpt>
      <trkpt lat="47.00475" lon="5.14175">
        <ele>130.19999694824</ele>
        <time>2017-07-17T14:14:26Z</time>
      </trkpt>
      <trkpt lat="47.00471" lon="5.14155">
        <ele>130.60000610352</ele>
        <time>2017-07-17T14:14:30Z</time>
      </trkpt>
      <trkpt lat="47.00468" lon="5.14137">
        <ele>131.39999389648</ele>
        <time>2017-07-17T14:14:34Z</time>
      </trkpt>
      <trkpt lat="47.00467" lon="5.14124">
        <ele>132</ele>
        <time>2017-07-17T14:14:37Z</time>
      </trkpt>
      <trkpt lat="47.00466" lon="5.14116">
        <ele>132.39999389648</ele>
        <time>2017-07-17T14:14:39Z</time>
      </trkpt>
      <trkpt lat="47.00461" lon="5.14092">
        <ele>133.60000610352</ele>
        <time>2017-07-17T14:14:45Z</time>
      </trkpt>
      <trkpt lat="47.00457" lon="5.14066">
        <ele>135</ele>
        <time>2017-07-17T14:14:51Z</time>
      </trkpt>
      <trkpt lat="47.0045" lon="5.14023">
        <ele>135.39999389648</ele>
        <time>2017-07-17T14:15:00Z</time>
      </trkpt>
      <trkpt lat="47.00451" lon="5.14017">
        <ele>135</ele>
        <time>2017-07-17T14:15:04Z</time>
      </trkpt>
      <trkpt lat="47.0045" lon="5.14015">
        <ele>133.60000610352</ele>
        <time>2017-07-17T14:16:42Z</time>
      </trkpt>
      <trkpt lat="47.0045" lon="5.14009">
        <ele>133.60000610352</ele>
        <time>2017-07-17T14:16:44Z</time>
      </trkpt>
      <trkpt lat="47.00456" lon="5.14004">
        <ele>133.60000610352</ele>
        <time>2017-07-17T14:16:47Z</time>
      </trkpt>
      <trkpt lat="47.00468" lon="5.13994">
        <ele>132.80000305176</ele>
        <time>2017-07-17T14:16:52Z</time>
      </trkpt>
      <trkpt lat="47.00472" lon="5.13994">
        <ele>132.60000610352</ele>
        <time>2017-07-17T14:16:53Z</time>
      </trkpt>
      <trkpt lat="47.00481" lon="5.13998">
        <ele>132.19999694824</ele>
        <time>2017-07-17T14:16:55Z</time>
      </trkpt>
      <trkpt lat="47.00485" lon="5.14">
        <ele>132</ele>
        <time>2017-07-17T14:16:56Z</time>
      </trkpt>
      <trkpt lat="47.00493" lon="5.14005">
        <ele>131.60000610352</ele>
        <time>2017-07-17T14:16:58Z</time>
      </trkpt>
      <trkpt lat="47.00509" lon="5.14009">
        <ele>131</ele>
        <time>2017-07-17T14:17:02Z</time>
      </trkpt>
      <trkpt lat="47.00539" lon="5.14">
        <ele>131.19999694824</ele>
        <time>2017-07-17T14:17:09Z</time>
      </trkpt>
      <trkpt lat="47.0058" lon="5.13983">
        <ele>131.39999389648</ele>
        <time>2017-07-17T14:17:18Z</time>
      </trkpt>
      <trkpt lat="47.00612" lon="5.1397">
        <ele>131.39999389648</ele>
        <time>2017-07-17T14:17:25Z</time>
      </trkpt>
      <trkpt lat="47.00641" lon="5.13956">
        <ele>131.60000610352</ele>
        <time>2017-07-17T14:17:32Z</time>
      </trkpt>
      <trkpt lat="47.00676" lon="5.13937">
        <ele>132.19999694824</ele>
        <time>2017-07-17T14:17:40Z</time>
      </trkpt>
      <trkpt lat="47.00725" lon="5.13909">
        <ele>131.80000305176</ele>
        <time>2017-07-17T14:17:50Z</time>
      </trkpt>
      <trkpt lat="47.00763" lon="5.13892">
        <ele>131.80000305176</ele>
        <time>2017-07-17T14:17:57Z</time>
      </trkpt>
      <trkpt lat="47.00816" lon="5.13877">
        <ele>130.39999389648</ele>
        <time>2017-07-17T14:18:06Z</time>
      </trkpt>
      <trkpt lat="47.00858" lon="5.13861">
        <ele>130.19999694824</ele>
        <time>2017-07-17T14:18:14Z</time>
      </trkpt>
      <trkpt lat="47.00905" lon="5.13844">
        <ele>130</ele>
        <time>2017-07-17T14:18:23Z</time>
      </trkpt>
      <trkpt lat="47.00959" lon="5.13826">
        <ele>130</ele>
        <time>2017-07-17T14:18:33Z</time>
      </trkpt>
      <trkpt lat="47.00965" lon="5.13825">
        <ele>130</ele>
        <time>2017-07-17T14:18:34Z</time>
      </trkpt>
      <trkpt lat="47.01012" lon="5.13814">
        <ele>130.19999694824</ele>
        <time>2017-07-17T14:18:43Z</time>
      </trkpt>
      <trkpt lat="47.01055" lon="5.13805">
        <ele>130.60000610352</ele>
        <time>2017-07-17T14:18:51Z</time>
      </trkpt>
      <trkpt lat="47.01108" lon="5.13796">
        <ele>130.60000610352</ele>
        <time>2017-07-17T14:19:01Z</time>
      </trkpt>
      <trkpt lat="47.01153" lon="5.13791">
        <ele>130.60000610352</ele>
        <time>2017-07-17T14:19:09Z</time>
      </trkpt>
      <trkpt lat="47.01203" lon="5.13787">
        <ele>130.60000610352</ele>
        <time>2017-07-17T14:19:18Z</time>
      </trkpt>
      <trkpt lat="47.0126" lon="5.13783">
        <ele>130.60000610352</ele>
        <time>2017-07-17T14:19:28Z</time>
      </trkpt>
      <trkpt lat="47.01311" lon="5.13782">
        <ele>130.60000610352</ele>
        <time>2017-07-17T14:19:37Z</time>
      </trkpt>
      <trkpt lat="47.01367" lon="5.13785">
        <ele>130.60000610352</ele>
        <time>2017-07-17T14:19:47Z</time>
      </trkpt>
      <trkpt lat="47.01373" lon="5.13786">
        <ele>130.60000610352</ele>
        <time>2017-07-17T14:19:48Z</time>
      </trkpt>
      <trkpt lat="47.01423" lon="5.13791">
        <ele>130.60000610352</ele>
        <time>2017-07-17T14:19:57Z</time>
      </trkpt>
      <trkpt lat="47.01479" lon="5.13799">
        <ele>130.80000305176</ele>
        <time>2017-07-17T14:20:07Z</time>
      </trkpt>
      <trkpt lat="47.01522" lon="5.13807">
        <ele>130.80000305176</ele>
        <time>2017-07-17T14:20:15Z</time>
      </trkpt>
      <trkpt lat="47.01566" lon="5.13818">
        <ele>130.80000305176</ele>
        <time>2017-07-17T14:20:23Z</time>
      </trkpt>
      <trkpt lat="47.01594" lon="5.13826">
        <ele>130.80000305176</ele>
        <time>2017-07-17T14:20:28Z</time>
      </trkpt>
      <trkpt lat="47.01616" lon="5.13833">
        <ele>130.80000305176</ele>
        <time>2017-07-17T14:20:32Z</time>
      </trkpt>
      <trkpt lat="47.01665" lon="5.13849">
        <ele>131</ele>
        <time>2017-07-17T14:20:41Z</time>
      </trkpt>
      <trkpt lat="47.01721" lon="5.13869">
        <ele>130.80000305176</ele>
        <time>2017-07-17T14:20:51Z</time>
      </trkpt>
      <trkpt lat="47.01773" lon="5.13892">
        <ele>130.60000610352</ele>
        <time>2017-07-17T14:21:00Z</time>
      </trkpt>
      <trkpt lat="47.01828" lon="5.13919">
        <ele>130.80000305176</ele>
        <time>2017-07-17T14:21:10Z</time>
      </trkpt>
      <trkpt lat="47.01878" lon="5.13946">
        <ele>130.80000305176</ele>
        <time>2017-07-17T14:21:19Z</time>
      </trkpt>
      <trkpt lat="47.01928" lon="5.13975">
        <ele>130.80000305176</ele>
        <time>2017-07-17T14:21:28Z</time>
      </trkpt>
      <trkpt lat="47.01934" lon="5.13979">
        <ele>130.80000305176</ele>
        <time>2017-07-17T14:21:29Z</time>
      </trkpt>
      <trkpt lat="47.01976" lon="5.14006">
        <ele>130.80000305176</ele>
        <time>2017-07-17T14:21:37Z</time>
      </trkpt>
      <trkpt lat="47.02029" lon="5.14044">
        <ele>131</ele>
        <time>2017-07-17T14:21:47Z</time>
      </trkpt>
      <trkpt lat="47.02044" lon="5.14056">
        <ele>131</ele>
        <time>2017-07-17T14:21:50Z</time>
      </trkpt>
      <trkpt lat="47.02075" lon="5.1408">
        <ele>131</ele>
        <time>2017-07-17T14:21:56Z</time>
      </trkpt>
      <trkpt lat="47.02117" lon="5.14114">
        <ele>131</ele>
        <time>2017-07-17T14:22:04Z</time>
      </trkpt>
      <trkpt lat="47.02167" lon="5.1416">
        <ele>131</ele>
        <time>2017-07-17T14:22:14Z</time>
      </trkpt>
      <trkpt lat="47.022" lon="5.14192">
        <ele>131</ele>
        <time>2017-07-17T14:22:21Z</time>
      </trkpt>
      <trkpt lat="47.02243" lon="5.14236">
        <ele>131.19999694824</ele>
        <time>2017-07-17T14:22:30Z</time>
      </trkpt>
      <trkpt lat="47.02275" lon="5.1427">
        <ele>131.39999389648</ele>
        <time>2017-07-17T14:22:37Z</time>
      </trkpt>
      <trkpt lat="47.02316" lon="5.14317">
        <ele>131</ele>
        <time>2017-07-17T14:22:46Z</time>
      </trkpt>
      <trkpt lat="47.02343" lon="5.1435">
        <ele>131.19999694824</ele>
        <time>2017-07-17T14:22:52Z</time>
      </trkpt>
      <trkpt lat="47.02356" lon="5.14367">
        <ele>131.19999694824</ele>
        <time>2017-07-17T14:22:55Z</time>
      </trkpt>
      <trkpt lat="47.02395" lon="5.14417">
        <ele>131.19999694824</ele>
        <time>2017-07-17T14:23:04Z</time>
      </trkpt>
      <trkpt lat="47.02429" lon="5.14463">
        <ele>131.39999389648</ele>
        <time>2017-07-17T14:23:13Z</time>
      </trkpt>
      <trkpt lat="47.02432" lon="5.14467">
        <ele>131.39999389648</ele>
        <time>2017-07-17T14:23:14Z</time>
      </trkpt>
      <trkpt lat="47.02445" lon="5.14485">
        <ele>132.60000610352</ele>
        <time>2017-07-17T14:23:18Z</time>
      </trkpt>
      <trkpt lat="47.02455" lon="5.14499">
        <ele>133</ele>
        <time>2017-07-17T14:23:21Z</time>
      </trkpt>
      <trkpt lat="47.0249" lon="5.14552">
        <ele>133.39999389648</ele>
        <time>2017-07-17T14:23:31Z</time>
      </trkpt>
      <trkpt lat="47.02524" lon="5.14604">
        <ele>133.60000610352</ele>
        <time>2017-07-17T14:23:40Z</time>
      </trkpt>
      <trkpt lat="47.02528" lon="5.14609">
        <ele>133.60000610352</ele>
        <time>2017-07-17T14:23:41Z</time>
      </trkpt>
      <trkpt lat="47.02562" lon="5.1466">
        <ele>134</ele>
        <time>2017-07-17T14:23:50Z</time>
      </trkpt>
      <trkpt lat="47.02566" lon="5.14665">
        <ele>134</ele>
        <time>2017-07-17T14:23:51Z</time>
      </trkpt>
      <trkpt lat="47.02569" lon="5.14671">
        <ele>134</ele>
        <time>2017-07-17T14:23:52Z</time>
      </trkpt>
      <trkpt lat="47.02576" lon="5.14682">
        <ele>134</ele>
        <time>2017-07-17T14:23:54Z</time>
      </trkpt>
      <trkpt lat="47.02583" lon="5.14694">
        <ele>134</ele>
        <time>2017-07-17T14:23:56Z</time>
      </trkpt>
      <trkpt lat="47.02618" lon="5.14744">
        <ele>134</ele>
        <time>2017-07-17T14:24:05Z</time>
      </trkpt>
      <trkpt lat="47.02632" lon="5.14764">
        <ele>134</ele>
        <time>2017-07-17T14:24:09Z</time>
      </trkpt>
      <trkpt lat="47.02641" lon="5.14777">
        <ele>134</ele>
        <time>2017-07-17T14:24:12Z</time>
      </trkpt>
      <trkpt lat="47.0267" lon="5.1482">
        <ele>134</ele>
        <time>2017-07-17T14:24:20Z</time>
      </trkpt>
      <trkpt lat="47.02707" lon="5.14875">
        <ele>134</ele>
        <time>2017-07-17T14:24:30Z</time>
      </trkpt>
      <trkpt lat="47.02736" lon="5.14919">
        <ele>134.39999389648</ele>
        <time>2017-07-17T14:24:38Z</time>
      </trkpt>
      <trkpt lat="47.02744" lon="5.1493">
        <ele>134.39999389648</ele>
        <time>2017-07-17T14:24:40Z</time>
      </trkpt>
      <trkpt lat="47.02769" lon="5.14968">
        <ele>134.39999389648</ele>
        <time>2017-07-17T14:24:47Z</time>
      </trkpt>
      <trkpt lat="47.02802" lon="5.15017">
        <ele>134.19999694824</ele>
        <time>2017-07-17T14:24:56Z</time>
      </trkpt>
      <trkpt lat="47.02809" lon="5.15027">
        <ele>134.19999694824</ele>
        <time>2017-07-17T14:24:58Z</time>
      </trkpt>
      <trkpt lat="47.02833" lon="5.15063">
        <ele>134.19999694824</ele>
        <time>2017-07-17T14:25:05Z</time>
      </trkpt>
      <trkpt lat="47.02868" lon="5.15115">
        <ele>134</ele>
        <time>2017-07-17T14:25:15Z</time>
      </trkpt>
      <trkpt lat="47.02905" lon="5.15167">
        <ele>134</ele>
        <time>2017-07-17T14:25:25Z</time>
      </trkpt>
      <trkpt lat="47.02938" lon="5.15215">
        <ele>134</ele>
        <time>2017-07-17T14:25:34Z</time>
      </trkpt>
      <trkpt lat="47.02974" lon="5.15269">
        <ele>134.19999694824</ele>
        <time>2017-07-17T14:25:44Z</time>
      </trkpt>
      <trkpt lat="47.03003" lon="5.15311">
        <ele>134</ele>
        <time>2017-07-17T14:25:52Z</time>
      </trkpt>
      <trkpt lat="47.03036" lon="5.15358">
        <ele>134</ele>
        <time>2017-07-17T14:26:01Z</time>
      </trkpt>
      <trkpt lat="47.03058" lon="5.15391">
        <ele>134</ele>
        <time>2017-07-17T14:26:07Z</time>
      </trkpt>
      <trkpt lat="47.03093" lon="5.15443">
        <ele>134</ele>
        <time>2017-07-17T14:26:17Z</time>
      </trkpt>
      <trkpt lat="47.03104" lon="5.1546">
        <ele>134.19999694824</ele>
        <time>2017-07-17T14:26:20Z</time>
      </trkpt>
      <trkpt lat="47.03125" lon="5.15491">
        <ele>134.19999694824</ele>
        <time>2017-07-17T14:26:26Z</time>
      </trkpt>
      <trkpt lat="47.03157" lon="5.15538">
        <ele>134</ele>
        <time>2017-07-17T14:26:35Z</time>
      </trkpt>
      <trkpt lat="47.03186" lon="5.15582">
        <ele>134</ele>
        <time>2017-07-17T14:26:43Z</time>
      </trkpt>
      <trkpt lat="47.03215" lon="5.15627">
        <ele>134</ele>
        <time>2017-07-17T14:26:51Z</time>
      </trkpt>
      <trkpt lat="47.03219" lon="5.15635">
        <ele>134</ele>
        <time>2017-07-17T14:26:52Z</time>
      </trkpt>
      <trkpt lat="47.0323" lon="5.15653">
        <ele>134.19999694824</ele>
        <time>2017-07-17T14:26:55Z</time>
      </trkpt>
      <trkpt lat="47.03234" lon="5.15658">
        <ele>134.19999694824</ele>
        <time>2017-07-17T14:26:56Z</time>
      </trkpt>
      <trkpt lat="47.03262" lon="5.15694">
        <ele>134.19999694824</ele>
        <time>2017-07-17T14:27:03Z</time>
      </trkpt>
      <trkpt lat="47.03266" lon="5.15699">
        <ele>134.19999694824</ele>
        <time>2017-07-17T14:27:04Z</time>
      </trkpt>
      <trkpt lat="47.03296" lon="5.15742">
        <ele>134.19999694824</ele>
        <time>2017-07-17T14:27:12Z</time>
      </trkpt>
      <trkpt lat="47.03329" lon="5.1579">
        <ele>134.19999694824</ele>
        <time>2017-07-17T14:27:21Z</time>
      </trkpt>
      <trkpt lat="47.03351" lon="5.15823">
        <ele>134.19999694824</ele>
        <time>2017-07-17T14:27:27Z</time>
      </trkpt>
      <trkpt lat="47.03383" lon="5.15868">
        <ele>134.19999694824</ele>
        <time>2017-07-17T14:27:36Z</time>
      </trkpt>
      <trkpt lat="47.03413" lon="5.15914">
        <ele>134.39999389648</ele>
        <time>2017-07-17T14:27:45Z</time>
      </trkpt>
      <trkpt lat="47.03444" lon="5.1596">
        <ele>134.39999389648</ele>
        <time>2017-07-17T14:27:54Z</time>
      </trkpt>
      <trkpt lat="47.03468" lon="5.15995">
        <ele>134.39999389648</ele>
        <time>2017-07-17T14:28:01Z</time>
      </trkpt>
      <trkpt lat="47.03498" lon="5.1604">
        <ele>134.19999694824</ele>
        <time>2017-07-17T14:28:10Z</time>
      </trkpt>
      <trkpt lat="47.03506" lon="5.16048">
        <ele>134.19999694824</ele>
        <time>2017-07-17T14:28:12Z</time>
      </trkpt>
      <trkpt lat="47.03516" lon="5.16064">
        <ele>134.19999694824</ele>
        <time>2017-07-17T14:28:15Z</time>
      </trkpt>
      <trkpt lat="47.03545" lon="5.16108">
        <ele>134.39999389648</ele>
        <time>2017-07-17T14:28:24Z</time>
      </trkpt>
      <trkpt lat="47.03572" lon="5.16149">
        <ele>134.19999694824</ele>
        <time>2017-07-17T14:28:32Z</time>
      </trkpt>
      <trkpt lat="47.03603" lon="5.16193">
        <ele>134.39999389648</ele>
        <time>2017-07-17T14:28:41Z</time>
      </trkpt>
      <trkpt lat="47.03633" lon="5.16239">
        <ele>134.19999694824</ele>
        <time>2017-07-17T14:28:50Z</time>
      </trkpt>
      <trkpt lat="47.03661" lon="5.16279">
        <ele>134.19999694824</ele>
        <time>2017-07-17T14:28:58Z</time>
      </trkpt>
      <trkpt lat="47.03696" lon="5.16329">
        <ele>134.19999694824</ele>
        <time>2017-07-17T14:29:08Z</time>
      </trkpt>
      <trkpt lat="47.0372" lon="5.16364">
        <ele>134.39999389648</ele>
        <time>2017-07-17T14:29:15Z</time>
      </trkpt>
      <trkpt lat="47.03743" lon="5.16399">
        <ele>134.19999694824</ele>
        <time>2017-07-17T14:29:22Z</time>
      </trkpt>
      <trkpt lat="47.03772" lon="5.1644">
        <ele>134.19999694824</ele>
        <time>2017-07-17T14:29:30Z</time>
      </trkpt>
      <trkpt lat="47.038" lon="5.16481">
        <ele>134.19999694824</ele>
        <time>2017-07-17T14:29:38Z</time>
      </trkpt>
      <trkpt lat="47.03838" lon="5.16538">
        <ele>134.19999694824</ele>
        <time>2017-07-17T14:29:49Z</time>
      </trkpt>
      <trkpt lat="47.03869" lon="5.16584">
        <ele>134.19999694824</ele>
        <time>2017-07-17T14:29:58Z</time>
      </trkpt>
      <trkpt lat="47.03894" lon="5.16619">
        <ele>134.19999694824</ele>
        <time>2017-07-17T14:30:05Z</time>
      </trkpt>
      <trkpt lat="47.03925" lon="5.16665">
        <ele>134.39999389648</ele>
        <time>2017-07-17T14:30:14Z</time>
      </trkpt>
      <trkpt lat="47.0395" lon="5.167">
        <ele>134.39999389648</ele>
        <time>2017-07-17T14:30:21Z</time>
      </trkpt>
      <trkpt lat="47.03978" lon="5.16744">
        <ele>134.19999694824</ele>
        <time>2017-07-17T14:30:29Z</time>
      </trkpt>
      <trkpt lat="47.04007" lon="5.16784">
        <ele>134.60000610352</ele>
        <time>2017-07-17T14:30:37Z</time>
      </trkpt>
      <trkpt lat="47.0401" lon="5.16789">
        <ele>134.60000610352</ele>
        <time>2017-07-17T14:30:38Z</time>
      </trkpt>
      <trkpt lat="47.04039" lon="5.16832">
        <ele>134.39999389648</ele>
        <time>2017-07-17T14:30:46Z</time>
      </trkpt>
      <trkpt lat="47.04072" lon="5.16879">
        <ele>134.60000610352</ele>
        <time>2017-07-17T14:30:55Z</time>
      </trkpt>
      <trkpt lat="47.04102" lon="5.16921">
        <ele>134.60000610352</ele>
        <time>2017-07-17T14:31:03Z</time>
      </trkpt>
      <trkpt lat="47.04109" lon="5.16931">
        <ele>134.60000610352</ele>
        <time>2017-07-17T14:31:05Z</time>
      </trkpt>
      <trkpt lat="47.04139" lon="5.16973">
        <ele>134.39999389648</ele>
        <time>2017-07-17T14:31:13Z</time>
      </trkpt>
      <trkpt lat="47.04168" lon="5.17013">
        <ele>134.39999389648</ele>
        <time>2017-07-17T14:31:21Z</time>
      </trkpt>
      <trkpt lat="47.04183" lon="5.17034">
        <ele>134.60000610352</ele>
        <time>2017-07-17T14:31:25Z</time>
      </trkpt>
      <trkpt lat="47.0419" lon="5.17044">
        <ele>134.80000305176</ele>
        <time>2017-07-17T14:31:27Z</time>
      </trkpt>
      <trkpt lat="47.04232" lon="5.17102">
        <ele>134.39999389648</ele>
        <time>2017-07-17T14:31:38Z</time>
      </trkpt>
      <trkpt lat="47.0424" lon="5.17113">
        <ele>134.39999389648</ele>
        <time>2017-07-17T14:31:40Z</time>
      </trkpt>
      <trkpt lat="47.04275" lon="5.1716">
        <ele>134.60000610352</ele>
        <time>2017-07-17T14:31:49Z</time>
      </trkpt>
      <trkpt lat="47.04314" lon="5.17213">
        <ele>134.39999389648</ele>
        <time>2017-07-17T14:31:59Z</time>
      </trkpt>
      <trkpt lat="47.04348" lon="5.17258">
        <ele>134.60000610352</ele>
        <time>2017-07-17T14:32:08Z</time>
      </trkpt>
      <trkpt lat="47.04375" lon="5.17295">
        <ele>134.39999389648</ele>
        <time>2017-07-17T14:32:15Z</time>
      </trkpt>
      <trkpt lat="47.04395" lon="5.17321">
        <ele>134.39999389648</ele>
        <time>2017-07-17T14:32:20Z</time>
      </trkpt>
      <trkpt lat="47.04437" lon="5.17378">
        <ele>134.60000610352</ele>
        <time>2017-07-17T14:32:31Z</time>
      </trkpt>
      <trkpt lat="47.04469" lon="5.17419">
        <ele>134.60000610352</ele>
        <time>2017-07-17T14:32:39Z</time>
      </trkpt>
      <trkpt lat="47.04508" lon="5.1747">
        <ele>134.60000610352</ele>
        <time>2017-07-17T14:32:49Z</time>
      </trkpt>
      <trkpt lat="47.04548" lon="5.17521">
        <ele>134.60000610352</ele>
        <time>2017-07-17T14:32:59Z</time>
      </trkpt>
      <trkpt lat="47.04588" lon="5.17572">
        <ele>134.60000610352</ele>
        <time>2017-07-17T14:33:09Z</time>
      </trkpt>
      <trkpt lat="47.04628" lon="5.17624">
        <ele>134.60000610352</ele>
        <time>2017-07-17T14:33:19Z</time>
      </trkpt>
      <trkpt lat="47.04673" lon="5.1768">
        <ele>134.60000610352</ele>
        <time>2017-07-17T14:33:30Z</time>
      </trkpt>
      <trkpt lat="47.04686" lon="5.17695">
        <ele>134.60000610352</ele>
        <time>2017-07-17T14:33:33Z</time>
      </trkpt>
      <trkpt lat="47.04718" lon="5.17735">
        <ele>134.60000610352</ele>
        <time>2017-07-17T14:33:41Z</time>
      </trkpt>
      <trkpt lat="47.04722" lon="5.1774">
        <ele>134.60000610352</ele>
        <time>2017-07-17T14:33:42Z</time>
      </trkpt>
      <trkpt lat="47.04737" lon="5.17759">
        <ele>134.60000610352</ele>
        <time>2017-07-17T14:33:46Z</time>
      </trkpt>
      <trkpt lat="47.04766" lon="5.17794">
        <ele>134.80000305176</ele>
        <time>2017-07-17T14:33:53Z</time>
      </trkpt>
      <trkpt lat="47.04811" lon="5.1785">
        <ele>135</ele>
        <time>2017-07-17T14:34:04Z</time>
      </trkpt>
      <trkpt lat="47.04836" lon="5.1788">
        <ele>135.19999694824</ele>
        <time>2017-07-17T14:34:11Z</time>
      </trkpt>
      <trkpt lat="47.04865" lon="5.17916">
        <ele>135</ele>
        <time>2017-07-17T14:34:19Z</time>
      </trkpt>
      <trkpt lat="47.04896" lon="5.17953">
        <ele>134.80000305176</ele>
        <time>2017-07-17T14:34:27Z</time>
      </trkpt>
      <trkpt lat="47.04916" lon="5.17977">
        <ele>134.80000305176</ele>
        <time>2017-07-17T14:34:32Z</time>
      </trkpt>
      <trkpt lat="47.04929" lon="5.17993">
        <ele>134.80000305176</ele>
        <time>2017-07-17T14:34:35Z</time>
      </trkpt>
      <trkpt lat="47.04971" lon="5.18043">
        <ele>134.80000305176</ele>
        <time>2017-07-17T14:34:45Z</time>
      </trkpt>
      <trkpt lat="47.05001" lon="5.18077">
        <ele>134.80000305176</ele>
        <time>2017-07-17T14:34:52Z</time>
      </trkpt>
      <trkpt lat="47.05009" lon="5.18086">
        <ele>134.80000305176</ele>
        <time>2017-07-17T14:34:54Z</time>
      </trkpt>
      <trkpt lat="47.05025" lon="5.18106">
        <ele>135</ele>
        <time>2017-07-17T14:34:58Z</time>
      </trkpt>
      <trkpt lat="47.05071" lon="5.1816">
        <ele>134.60000610352</ele>
        <time>2017-07-17T14:35:09Z</time>
      </trkpt>
      <trkpt lat="47.0511" lon="5.18205">
        <ele>134.80000305176</ele>
        <time>2017-07-17T14:35:18Z</time>
      </trkpt>
      <trkpt lat="47.05149" lon="5.18249">
        <ele>134.80000305176</ele>
        <time>2017-07-17T14:35:27Z</time>
      </trkpt>
      <trkpt lat="47.05188" lon="5.18295">
        <ele>135</ele>
        <time>2017-07-17T14:35:36Z</time>
      </trkpt>
      <trkpt lat="47.05219" lon="5.1833">
        <ele>135</ele>
        <time>2017-07-17T14:35:43Z</time>
      </trkpt>
      <trkpt lat="47.05249" lon="5.18364">
        <ele>135.19999694824</ele>
        <time>2017-07-17T14:35:50Z</time>
      </trkpt>
      <trkpt lat="47.05292" lon="5.18411">
        <ele>135.19999694824</ele>
        <time>2017-07-17T14:36:00Z</time>
      </trkpt>
      <trkpt lat="47.05337" lon="5.18461">
        <ele>135</ele>
        <time>2017-07-17T14:36:11Z</time>
      </trkpt>
      <trkpt lat="47.05374" lon="5.18501">
        <ele>135</ele>
        <time>2017-07-17T14:36:20Z</time>
      </trkpt>
      <trkpt lat="47.05411" lon="5.18543">
        <ele>135</ele>
        <time>2017-07-17T14:36:29Z</time>
      </trkpt>
      <trkpt lat="47.05457" lon="5.18594">
        <ele>134.80000305176</ele>
        <time>2017-07-17T14:36:40Z</time>
      </trkpt>
      <trkpt lat="47.05461" lon="5.18598">
        <ele>134.80000305176</ele>
        <time>2017-07-17T14:36:41Z</time>
      </trkpt>
      <trkpt lat="47.05498" lon="5.18637">
        <ele>134.80000305176</ele>
        <time>2017-07-17T14:36:50Z</time>
      </trkpt>
      <trkpt lat="47.05506" lon="5.18646">
        <ele>134.80000305176</ele>
        <time>2017-07-17T14:36:52Z</time>
      </trkpt>
      <trkpt lat="47.05527" lon="5.18669">
        <ele>134.80000305176</ele>
        <time>2017-07-17T14:36:57Z</time>
      </trkpt>
      <trkpt lat="47.05549" lon="5.1869">
        <ele>134.80000305176</ele>
        <time>2017-07-17T14:37:03Z</time>
      </trkpt>
      <trkpt lat="47.05565" lon="5.18706">
        <ele>134.60000610352</ele>
        <time>2017-07-17T14:37:09Z</time>
      </trkpt>
      <trkpt lat="47.05576" lon="5.18719">
        <ele>134.60000610352</ele>
        <time>2017-07-17T14:37:14Z</time>
      </trkpt>
      <trkpt lat="47.05594" lon="5.18737">
        <ele>134.80000305176</ele>
        <time>2017-07-17T14:37:20Z</time>
      </trkpt>
      <trkpt lat="47.05605" lon="5.18749">
        <ele>134.80000305176</ele>
        <time>2017-07-17T14:37:23Z</time>
      </trkpt>
      <trkpt lat="47.05612" lon="5.18756">
        <ele>134.80000305176</ele>
        <time>2017-07-17T14:37:25Z</time>
      </trkpt>
      <trkpt lat="47.05616" lon="5.1876">
        <ele>134.80000305176</ele>
        <time>2017-07-17T14:37:26Z</time>
      </trkpt>
      <trkpt lat="47.05645" lon="5.18789">
        <ele>135</ele>
        <time>2017-07-17T14:37:34Z</time>
      </trkpt>
      <trkpt lat="47.05662" lon="5.18808">
        <ele>134.60000610352</ele>
        <time>2017-07-17T14:37:40Z</time>
      </trkpt>
      <trkpt lat="47.05677" lon="5.18824">
        <ele>134.60000610352</ele>
        <time>2017-07-17T14:37:45Z</time>
      </trkpt>
      <trkpt lat="47.05706" lon="5.18853">
        <ele>134.80000305176</ele>
        <time>2017-07-17T14:37:53Z</time>
      </trkpt>
      <trkpt lat="47.0571" lon="5.18857">
        <ele>134.80000305176</ele>
        <time>2017-07-17T14:37:54Z</time>
      </trkpt>
      <trkpt lat="47.05717" lon="5.18866">
        <ele>135</ele>
        <time>2017-07-17T14:37:56Z</time>
      </trkpt>
      <trkpt lat="47.05725" lon="5.18872">
        <ele>134.80000305176</ele>
        <time>2017-07-17T14:37:58Z</time>
      </trkpt>
      <trkpt lat="47.05737" lon="5.18885">
        <ele>134.80000305176</ele>
        <time>2017-07-17T14:38:01Z</time>
      </trkpt>
      <trkpt lat="47.05753" lon="5.18901">
        <ele>134.80000305176</ele>
        <time>2017-07-17T14:38:05Z</time>
      </trkpt>
      <trkpt lat="47.05781" lon="5.1893">
        <ele>135</ele>
        <time>2017-07-17T14:38:12Z</time>
      </trkpt>
      <trkpt lat="47.05816" lon="5.18966">
        <ele>134.60000610352</ele>
        <time>2017-07-17T14:38:21Z</time>
      </trkpt>
      <trkpt lat="47.05831" lon="5.18982">
        <ele>134.60000610352</ele>
        <time>2017-07-17T14:38:25Z</time>
      </trkpt>
      <trkpt lat="47.05839" lon="5.18989">
        <ele>134.80000305176</ele>
        <time>2017-07-17T14:38:27Z</time>
      </trkpt>
      <trkpt lat="47.05847" lon="5.18997">
        <ele>134.80000305176</ele>
        <time>2017-07-17T14:38:29Z</time>
      </trkpt>
      <trkpt lat="47.05863" lon="5.19013">
        <ele>134.60000610352</ele>
        <time>2017-07-17T14:38:33Z</time>
      </trkpt>
      <trkpt lat="47.05871" lon="5.1902">
        <ele>134.80000305176</ele>
        <time>2017-07-17T14:38:35Z</time>
      </trkpt>
      <trkpt lat="47.05887" lon="5.19035">
        <ele>134.80000305176</ele>
        <time>2017-07-17T14:38:39Z</time>
      </trkpt>
      <trkpt lat="47.05927" lon="5.19075">
        <ele>134.60000610352</ele>
        <time>2017-07-17T14:38:49Z</time>
      </trkpt>
      <trkpt lat="47.05931" lon="5.19079">
        <ele>134.80000305176</ele>
        <time>2017-07-17T14:38:50Z</time>
      </trkpt>
      <trkpt lat="47.05947" lon="5.19096">
        <ele>134.80000305176</ele>
        <time>2017-07-17T14:38:54Z</time>
      </trkpt>
      <trkpt lat="47.05951" lon="5.19099">
        <ele>134.80000305176</ele>
        <time>2017-07-17T14:38:55Z</time>
      </trkpt>
      <trkpt lat="47.05975" lon="5.19123">
        <ele>135</ele>
        <time>2017-07-17T14:39:01Z</time>
      </trkpt>
      <trkpt lat="47.05979" lon="5.19127">
        <ele>135</ele>
        <time>2017-07-17T14:39:02Z</time>
      </trkpt>
      <trkpt lat="47.05999" lon="5.19146">
        <ele>135</ele>
        <time>2017-07-17T14:39:07Z</time>
      </trkpt>
      <trkpt lat="47.0603" lon="5.19179">
        <ele>135</ele>
        <time>2017-07-17T14:39:15Z</time>
      </trkpt>
      <trkpt lat="47.06034" lon="5.19183">
        <ele>135</ele>
        <time>2017-07-17T14:39:16Z</time>
      </trkpt>
      <trkpt lat="47.06066" lon="5.19212">
        <ele>134.19999694824</ele>
        <time>2017-07-17T14:39:24Z</time>
      </trkpt>
      <trkpt lat="47.0609" lon="5.19238">
        <ele>134.19999694824</ele>
        <time>2017-07-17T14:39:31Z</time>
      </trkpt>
      <trkpt lat="47.06116" lon="5.19263">
        <ele>134.19999694824</ele>
        <time>2017-07-17T14:39:38Z</time>
      </trkpt>
      <trkpt lat="47.06137" lon="5.19283">
        <ele>134.39999389648</ele>
        <time>2017-07-17T14:39:44Z</time>
      </trkpt>
      <trkpt lat="47.06154" lon="5.193">
        <ele>134.39999389648</ele>
        <time>2017-07-17T14:39:50Z</time>
      </trkpt>
      <trkpt lat="47.06178" lon="5.19322">
        <ele>134</ele>
        <time>2017-07-17T14:39:57Z</time>
      </trkpt>
      <trkpt lat="47.06209" lon="5.19353">
        <ele>134.60000610352</ele>
        <time>2017-07-17T14:40:06Z</time>
      </trkpt>
      <trkpt lat="47.06235" lon="5.19377">
        <ele>134.60000610352</ele>
        <time>2017-07-17T14:40:13Z</time>
      </trkpt>
      <trkpt lat="47.06249" lon="5.19392">
        <ele>134.60000610352</ele>
        <time>2017-07-17T14:40:17Z</time>
      </trkpt>
      <trkpt lat="47.06257" lon="5.19397">
        <ele>134.80000305176</ele>
        <time>2017-07-17T14:40:19Z</time>
      </trkpt>
      <trkpt lat="47.0627" lon="5.1941">
        <ele>134.60000610352</ele>
        <time>2017-07-17T14:40:24Z</time>
      </trkpt>
      <trkpt lat="47.06287" lon="5.19429">
        <ele>134.19999694824</ele>
        <time>2017-07-17T14:40:31Z</time>
      </trkpt>
      <trkpt lat="47.06312" lon="5.19452">
        <ele>134.19999694824</ele>
        <time>2017-07-17T14:40:39Z</time>
      </trkpt>
      <trkpt lat="47.06329" lon="5.19468">
        <ele>134.39999389648</ele>
        <time>2017-07-17T14:40:45Z</time>
      </trkpt>
      <trkpt lat="47.06352" lon="5.19487">
        <ele>134.19999694824</ele>
        <time>2017-07-17T14:40:53Z</time>
      </trkpt>
      <trkpt lat="47.06364" lon="5.19493">
        <ele>134</ele>
        <time>2017-07-17T14:40:58Z</time>
      </trkpt>
      <trkpt lat="47.06366" lon="5.19496">
        <ele>133.80000305176</ele>
        <time>2017-07-17T14:41:39Z</time>
      </trkpt>
      <trkpt lat="47.06367" lon="5.19497">
        <ele>133.80000305176</ele>
        <time>2017-07-17T14:41:40Z</time>
      </trkpt>
      <trkpt lat="47.06379" lon="5.19507">
        <ele>134</ele>
        <time>2017-07-17T14:41:46Z</time>
      </trkpt>
      <trkpt lat="47.06387" lon="5.19516">
        <ele>134</ele>
        <time>2017-07-17T14:41:50Z</time>
      </trkpt>
      <trkpt lat="47.0639" lon="5.19518">
        <ele>134</ele>
        <time>2017-07-17T14:41:51Z</time>
      </trkpt>
      <trkpt lat="47.06402" lon="5.1953">
        <ele>134.19999694824</ele>
        <time>2017-07-17T14:41:57Z</time>
      </trkpt>
      <trkpt lat="47.06413" lon="5.1954">
        <ele>134.39999389648</ele>
        <time>2017-07-17T14:42:04Z</time>
      </trkpt>
      <trkpt lat="47.06421" lon="5.19547">
        <ele>134.19999694824</ele>
        <time>2017-07-17T14:42:38Z</time>
      </trkpt>
      <trkpt lat="47.06427" lon="5.19552">
        <ele>134.19999694824</ele>
        <time>2017-07-17T14:42:41Z</time>
      </trkpt>
      <trkpt lat="47.06444" lon="5.19569">
        <ele>134.19999694824</ele>
        <time>2017-07-17T14:42:47Z</time>
      </trkpt>
      <trkpt lat="47.06476" lon="5.19602">
        <ele>134.39999389648</ele>
        <time>2017-07-17T14:42:56Z</time>
      </trkpt>
      <trkpt lat="47.06507" lon="5.19635">
        <ele>134.19999694824</ele>
        <time>2017-07-17T14:43:05Z</time>
      </trkpt>
      <trkpt lat="47.06536" lon="5.19665">
        <ele>134.39999389648</ele>
        <time>2017-07-17T14:43:13Z</time>
      </trkpt>
      <trkpt lat="47.06547" lon="5.19676">
        <ele>134.39999389648</ele>
        <time>2017-07-17T14:43:16Z</time>
      </trkpt>
      <trkpt lat="47.0658" lon="5.19708">
        <ele>134.60000610352</ele>
        <time>2017-07-17T14:43:25Z</time>
      </trkpt>
      <trkpt lat="47.06613" lon="5.19736">
        <ele>134.39999389648</ele>
        <time>2017-07-17T14:43:33Z</time>
      </trkpt>
      <trkpt lat="47.06639" lon="5.19755">
        <ele>134.60000610352</ele>
        <time>2017-07-17T14:43:39Z</time>
      </trkpt>
      <trkpt lat="47.06648" lon="5.19762">
        <ele>134.39999389648</ele>
        <time>2017-07-17T14:43:41Z</time>
      </trkpt>
      <trkpt lat="47.06667" lon="5.19772">
        <ele>134.39999389648</ele>
        <time>2017-07-17T14:43:45Z</time>
      </trkpt>
      <trkpt lat="47.06702" lon="5.1979">
        <ele>134.19999694824</ele>
        <time>2017-07-17T14:43:52Z</time>
      </trkpt>
      <trkpt lat="47.06717" lon="5.19801">
        <ele>134.19999694824</ele>
        <time>2017-07-17T14:43:55Z</time>
      </trkpt>
      <trkpt lat="47.06729" lon="5.19816">
        <ele>134</ele>
        <time>2017-07-17T14:43:58Z</time>
      </trkpt>
      <trkpt lat="47.06738" lon="5.19836">
        <ele>133.80000305176</ele>
        <time>2017-07-17T14:44:01Z</time>
      </trkpt>
      <trkpt lat="47.06743" lon="5.1985">
        <ele>133.80000305176</ele>
        <time>2017-07-17T14:44:03Z</time>
      </trkpt>
      <trkpt lat="47.06761" lon="5.19887">
        <ele>133.80000305176</ele>
        <time>2017-07-17T14:44:09Z</time>
      </trkpt>
      <trkpt lat="47.0678" lon="5.199">
        <ele>133.80000305176</ele>
        <time>2017-07-17T14:44:13Z</time>
      </trkpt>
      <trkpt lat="47.06784" lon="5.19902">
        <ele>133.80000305176</ele>
        <time>2017-07-17T14:44:14Z</time>
      </trkpt>
      <trkpt lat="47.0681" lon="5.19907">
        <ele>134</ele>
        <time>2017-07-17T14:44:19Z</time>
      </trkpt>
      <trkpt lat="47.06847" lon="5.19917">
        <ele>134</ele>
        <time>2017-07-17T14:44:27Z</time>
      </trkpt>
      <trkpt lat="47.06866" lon="5.19921">
        <ele>134</ele>
        <time>2017-07-17T14:44:33Z</time>
      </trkpt>
      <trkpt lat="47.06867" lon="5.19923">
        <ele>134</ele>
        <time>2017-07-17T14:44:34Z</time>
      </trkpt>
      <trkpt lat="47.06866" lon="5.19925">
        <ele>133.80000305176</ele>
        <time>2017-07-17T14:44:36Z</time>
      </trkpt>
      <trkpt lat="47.06857" lon="5.19921">
        <ele>133.80000305176</ele>
        <time>2017-07-17T14:44:40Z</time>
      </trkpt>
      <trkpt lat="47.06855" lon="5.19919">
        <ele>134</ele>
        <time>2017-07-17T14:44:41Z</time>
      </trkpt>
      <trkpt lat="47.0684" lon="5.19915">
        <ele>134</ele>
        <time>2017-07-17T14:44:47Z</time>
      </trkpt>
      <trkpt lat="47.06826" lon="5.19912">
        <ele>133.80000305176</ele>
        <time>2017-07-17T14:44:52Z</time>
      </trkpt>
      <trkpt lat="47.06804" lon="5.19905">
        <ele>133.80000305176</ele>
        <time>2017-07-17T14:44:58Z</time>
      </trkpt>
      <trkpt lat="47.06778" lon="5.199">
        <ele>134</ele>
        <time>2017-07-17T14:45:05Z</time>
      </trkpt>
      <trkpt lat="47.06771" lon="5.19896">
        <ele>133.80000305176</ele>
        <time>2017-07-17T14:45:07Z</time>
      </trkpt>
      <trkpt lat="47.06763" lon="5.19889">
        <ele>133.80000305176</ele>
        <time>2017-07-17T14:45:09Z</time>
      </trkpt>
      <trkpt lat="47.06755" lon="5.1988">
        <ele>133.80000305176</ele>
        <time>2017-07-17T14:45:11Z</time>
      </trkpt>
      <trkpt lat="47.06746" lon="5.19862">
        <ele>133.80000305176</ele>
        <time>2017-07-17T14:45:14Z</time>
      </trkpt>
      <trkpt lat="47.06731" lon="5.19821">
        <ele>133.60000610352</ele>
        <time>2017-07-17T14:45:21Z</time>
      </trkpt>
      <trkpt lat="47.06712" lon="5.19797">
        <ele>133.60000610352</ele>
        <time>2017-07-17T14:45:28Z</time>
      </trkpt>
      <trkpt lat="47.06692" lon="5.19786">
        <ele>133.80000305176</ele>
        <time>2017-07-17T14:45:36Z</time>
      </trkpt>
      <trkpt lat="47.0669" lon="5.19785">
        <ele>133.80000305176</ele>
        <time>2017-07-17T14:46:01Z</time>
      </trkpt>
      <trkpt lat="47.06689" lon="5.19784">
        <ele>133.60000610352</ele>
        <time>2017-07-17T14:46:02Z</time>
      </trkpt>
      <trkpt lat="47.0668" lon="5.1978">
        <ele>133.80000305176</ele>
        <time>2017-07-17T14:46:06Z</time>
      </trkpt>
      <trkpt lat="47.06674" lon="5.19776">
        <ele>133.80000305176</ele>
        <time>2017-07-17T14:46:08Z</time>
      </trkpt>
      <trkpt lat="47.0666" lon="5.1977">
        <ele>134</ele>
        <time>2017-07-17T14:46:12Z</time>
      </trkpt>
      <trkpt lat="47.06643" lon="5.19759">
        <ele>134.39999389648</ele>
        <time>2017-07-17T14:46:16Z</time>
      </trkpt>
      <trkpt lat="47.06639" lon="5.19756">
        <ele>134.39999389648</ele>
        <time>2017-07-17T14:46:17Z</time>
      </trkpt>
      <trkpt lat="47.06604" lon="5.19729">
        <ele>134.60000610352</ele>
        <time>2017-07-17T14:46:25Z</time>
      </trkpt>
      <trkpt lat="47.06568" lon="5.19696">
        <ele>134.60000610352</ele>
        <time>2017-07-17T14:46:33Z</time>
      </trkpt>
      <trkpt lat="47.06524" lon="5.19651">
        <ele>134.80000305176</ele>
        <time>2017-07-17T14:46:43Z</time>
      </trkpt>
      <trkpt lat="47.06484" lon="5.19609">
        <ele>134.80000305176</ele>
        <time>2017-07-17T14:46:52Z</time>
      </trkpt>
      <trkpt lat="47.06441" lon="5.19567">
        <ele>134.60000610352</ele>
        <time>2017-07-17T14:47:01Z</time>
      </trkpt>
      <trkpt lat="47.06395" lon="5.19523">
        <ele>134.80000305176</ele>
        <time>2017-07-17T14:47:11Z</time>
      </trkpt>
      <trkpt lat="47.06391" lon="5.19518">
        <ele>134.80000305176</ele>
        <time>2017-07-17T14:47:12Z</time>
      </trkpt>
      <trkpt lat="47.06375" lon="5.19503">
        <ele>134.80000305176</ele>
        <time>2017-07-17T14:47:16Z</time>
      </trkpt>
      <trkpt lat="47.06371" lon="5.195">
        <ele>134.80000305176</ele>
        <time>2017-07-17T14:47:17Z</time>
      </trkpt>
      <trkpt lat="47.06337" lon="5.19475">
        <ele>134.39999389648</ele>
        <time>2017-07-17T14:47:25Z</time>
      </trkpt>
      <trkpt lat="47.06312" lon="5.19451">
        <ele>134.39999389648</ele>
        <time>2017-07-17T14:47:32Z</time>
      </trkpt>
      <trkpt lat="47.06289" lon="5.19429">
        <ele>134.19999694824</ele>
        <time>2017-07-17T14:47:39Z</time>
      </trkpt>
      <trkpt lat="47.06248" lon="5.1939">
        <ele>134.80000305176</ele>
        <time>2017-07-17T14:47:49Z</time>
      </trkpt>
      <trkpt lat="47.06226" lon="5.19368">
        <ele>134.60000610352</ele>
        <time>2017-07-17T14:47:54Z</time>
      </trkpt>
      <trkpt lat="47.06189" lon="5.19332">
        <ele>134.80000305176</ele>
        <time>2017-07-17T14:48:02Z</time>
      </trkpt>
      <trkpt lat="47.0614" lon="5.19285">
        <ele>134.60000610352</ele>
        <time>2017-07-17T14:48:12Z</time>
      </trkpt>
      <trkpt lat="47.06135" lon="5.1928">
        <ele>134.60000610352</ele>
        <time>2017-07-17T14:48:13Z</time>
      </trkpt>
      <trkpt lat="47.0609" lon="5.19237">
        <ele>134.60000610352</ele>
        <time>2017-07-17T14:48:22Z</time>
      </trkpt>
      <trkpt lat="47.06057" lon="5.19202">
        <ele>134.80000305176</ele>
        <time>2017-07-17T14:48:29Z</time>
      </trkpt>
      <trkpt lat="47.06017" lon="5.19164">
        <ele>134.60000610352</ele>
        <time>2017-07-17T14:48:37Z</time>
      </trkpt>
      <trkpt lat="47.05968" lon="5.19116">
        <ele>134.80000305176</ele>
        <time>2017-07-17T14:48:47Z</time>
      </trkpt>
      <trkpt lat="47.05964" lon="5.19111">
        <ele>134.80000305176</ele>
        <time>2017-07-17T14:48:48Z</time>
      </trkpt>
      <trkpt lat="47.05914" lon="5.19062">
        <ele>134.60000610352</ele>
        <time>2017-07-17T14:48:58Z</time>
      </trkpt>
      <trkpt lat="47.05869" lon="5.19018">
        <ele>134.60000610352</ele>
        <time>2017-07-17T14:49:07Z</time>
      </trkpt>
      <trkpt lat="47.05853" lon="5.19003">
        <ele>134.60000610352</ele>
        <time>2017-07-17T14:49:10Z</time>
      </trkpt>
      <trkpt lat="47.05813" lon="5.18961">
        <ele>134.80000305176</ele>
        <time>2017-07-17T14:49:18Z</time>
      </trkpt>
      <trkpt lat="47.05766" lon="5.18915">
        <ele>134.80000305176</ele>
        <time>2017-07-17T14:49:27Z</time>
      </trkpt>
      <trkpt lat="47.05721" lon="5.18868">
        <ele>134.80000305176</ele>
        <time>2017-07-17T14:49:36Z</time>
      </trkpt>
      <trkpt lat="47.05711" lon="5.18858">
        <ele>134.80000305176</ele>
        <time>2017-07-17T14:49:38Z</time>
      </trkpt>
      <trkpt lat="47.05665" lon="5.18811">
        <ele>134.80000305176</ele>
        <time>2017-07-17T14:49:47Z</time>
      </trkpt>
      <trkpt lat="47.0566" lon="5.18805">
        <ele>134.80000305176</ele>
        <time>2017-07-17T14:49:48Z</time>
      </trkpt>
      <trkpt lat="47.0562" lon="5.18764">
        <ele>135</ele>
        <time>2017-07-17T14:49:56Z</time>
      </trkpt>
      <trkpt lat="47.05577" lon="5.18719">
        <ele>135</ele>
        <time>2017-07-17T14:50:05Z</time>
      </trkpt>
      <trkpt lat="47.05539" lon="5.1868">
        <ele>135.19999694824</ele>
        <time>2017-07-17T14:50:13Z</time>
      </trkpt>
      <trkpt lat="47.05517" lon="5.18648">
        <ele>135</ele>
        <time>2017-07-17T14:50:19Z</time>
      </trkpt>
      <trkpt lat="47.05518" lon="5.18623">
        <ele>134.80000305176</ele>
        <time>2017-07-17T14:50:22Z</time>
      </trkpt>
      <trkpt lat="47.05528" lon="5.18601">
        <ele>134.60000610352</ele>
        <time>2017-07-17T14:50:25Z</time>
      </trkpt>
      <trkpt lat="47.05553" lon="5.18552">
        <ele>134.80000305176</ele>
        <time>2017-07-17T14:50:32Z</time>
      </trkpt>
      <trkpt lat="47.05574" lon="5.18517">
        <ele>135.39999389648</ele>
        <time>2017-07-17T14:50:38Z</time>
      </trkpt>
      <trkpt lat="47.05575" lon="5.18507">
        <ele>135.60000610352</ele>
        <time>2017-07-17T14:50:40Z</time>
      </trkpt>
      <trkpt lat="47.05575" lon="5.18504">
        <ele>135.60000610352</ele>
        <time>2017-07-17T14:50:41Z</time>
      </trkpt>
      <trkpt lat="47.05576" lon="5.18498">
        <ele>135.80000305176</ele>
        <time>2017-07-17T14:50:44Z</time>
      </trkpt>
      <trkpt lat="47.05576" lon="5.18496">
        <ele>136</ele>
        <time>2017-07-17T14:50:45Z</time>
      </trkpt>
      <trkpt lat="47.05568" lon="5.18497">
        <ele>136.19999694824</ele>
        <time>2017-07-17T14:50:48Z</time>
      </trkpt>
      <trkpt lat="47.0556" lon="5.18508">
        <ele>136.39999389648</ele>
        <time>2017-07-17T14:50:51Z</time>
      </trkpt>
      <trkpt lat="47.05554" lon="5.18516">
        <ele>136.60000610352</ele>
        <time>2017-07-17T14:50:53Z</time>
      </trkpt>
      <trkpt lat="47.05539" lon="5.18532">
        <ele>136.80000305176</ele>
        <time>2017-07-17T14:50:57Z</time>
      </trkpt>
      <trkpt lat="47.05531" lon="5.1854">
        <ele>137</ele>
        <time>2017-07-17T14:50:59Z</time>
      </trkpt>
      <trkpt lat="47.0552" lon="5.18554">
        <ele>137.39999389648</ele>
        <time>2017-07-17T14:51:02Z</time>
      </trkpt>
      <trkpt lat="47.05516" lon="5.18558">
        <ele>137.80000305176</ele>
        <time>2017-07-17T14:51:03Z</time>
      </trkpt>
      <trkpt lat="47.05512" lon="5.18563">
        <ele>138</ele>
        <time>2017-07-17T14:51:04Z</time>
      </trkpt>
      <trkpt lat="47.05496" lon="5.18581">
        <ele>138.80000305176</ele>
        <time>2017-07-17T14:51:08Z</time>
      </trkpt>
      <trkpt lat="47.05489" lon="5.18588">
        <ele>139.19999694824</ele>
        <time>2017-07-17T14:51:10Z</time>
      </trkpt>
      <trkpt lat="47.05481" lon="5.18598">
        <ele>140</ele>
        <time>2017-07-17T14:51:14Z</time>
      </trkpt>
      <trkpt lat="47.05479" lon="5.186">
        <ele>140</ele>
        <time>2017-07-17T14:51:15Z</time>
      </trkpt>
      <trkpt lat="47.05474" lon="5.18607">
        <ele>140.60000610352</ele>
        <time>2017-07-17T14:51:19Z</time>
      </trkpt>
      <trkpt lat="47.05472" lon="5.18608">
        <ele>140.60000610352</ele>
        <time>2017-07-17T14:51:20Z</time>
      </trkpt>
      <trkpt lat="47.05469" lon="5.18612">
        <ele>140.80000305176</ele>
        <time>2017-07-17T14:51:23Z</time>
      </trkpt>
      <trkpt lat="47.05468" lon="5.18613">
        <ele>140.80000305176</ele>
        <time>2017-07-17T14:51:24Z</time>
      </trkpt>
      <trkpt lat="47.05464" lon="5.18616">
        <ele>140.80000305176</ele>
        <time>2017-07-17T14:51:27Z</time>
      </trkpt>
      <trkpt lat="47.05461" lon="5.18619">
        <ele>141</ele>
        <time>2017-07-17T14:51:29Z</time>
      </trkpt>
      <trkpt lat="47.0546" lon="5.18621">
        <ele>141</ele>
        <time>2017-07-17T14:51:30Z</time>
      </trkpt>
      <trkpt lat="47.05456" lon="5.18626">
        <ele>141</ele>
        <time>2017-07-17T14:51:34Z</time>
      </trkpt>
      <trkpt lat="47.05448" lon="5.18637">
        <ele>141</ele>
        <time>2017-07-17T14:51:40Z</time>
      </trkpt>
      <trkpt lat="47.05446" lon="5.18639">
        <ele>141</ele>
        <time>2017-07-17T14:51:41Z</time>
      </trkpt>
      <trkpt lat="47.05437" lon="5.1865">
        <ele>141</ele>
        <time>2017-07-17T14:51:48Z</time>
      </trkpt>
      <trkpt lat="47.05429" lon="5.18659">
        <ele>141</ele>
        <time>2017-07-17T14:51:54Z</time>
      </trkpt>
      <trkpt lat="47.05414" lon="5.18671">
        <ele>141</ele>
        <time>2017-07-17T14:52:00Z</time>
      </trkpt>
      <trkpt lat="47.05411" lon="5.18674">
        <ele>140.80000305176</ele>
        <time>2017-07-17T14:52:01Z</time>
      </trkpt>
      <trkpt lat="47.054" lon="5.18689">
        <ele>140.60000610352</ele>
        <time>2017-07-17T14:52:04Z</time>
      </trkpt>
      <trkpt lat="47.05391" lon="5.18701">
        <ele>140.60000610352</ele>
        <time>2017-07-17T14:52:06Z</time>
      </trkpt>
      <trkpt lat="47.05379" lon="5.18711">
        <ele>140.19999694824</ele>
        <time>2017-07-17T14:52:08Z</time>
      </trkpt>
      <trkpt lat="47.05368" lon="5.18723">
        <ele>140</ele>
        <time>2017-07-17T14:52:10Z</time>
      </trkpt>
      <trkpt lat="47.05362" lon="5.1873">
        <ele>139.80000305176</ele>
        <time>2017-07-17T14:52:11Z</time>
      </trkpt>
      <trkpt lat="47.05344" lon="5.1875">
        <ele>139.19999694824</ele>
        <time>2017-07-17T14:52:14Z</time>
      </trkpt>
      <trkpt lat="47.05338" lon="5.18756">
        <ele>138.80000305176</ele>
        <time>2017-07-17T14:52:15Z</time>
      </trkpt>
      <trkpt lat="47.05313" lon="5.18784">
        <ele>137.60000610352</ele>
        <time>2017-07-17T14:52:19Z</time>
      </trkpt>
      <trkpt lat="47.05295" lon="5.18803">
        <ele>137</ele>
        <time>2017-07-17T14:52:22Z</time>
      </trkpt>
      <trkpt lat="47.05284" lon="5.18816">
        <ele>136.39999389648</ele>
        <time>2017-07-17T14:52:24Z</time>
      </trkpt>
      <trkpt lat="47.05265" lon="5.18838">
        <ele>136</ele>
        <time>2017-07-17T14:52:28Z</time>
      </trkpt>
      <trkpt lat="47.05256" lon="5.18848">
        <ele>135.80000305176</ele>
        <time>2017-07-17T14:52:30Z</time>
      </trkpt>
      <trkpt lat="47.05246" lon="5.18854">
        <ele>135.80000305176</ele>
        <time>2017-07-17T14:52:33Z</time>
      </trkpt>
      <trkpt lat="47.05245" lon="5.18843">
        <ele>135.60000610352</ele>
        <time>2017-07-17T14:52:36Z</time>
      </trkpt>
      <trkpt lat="47.05257" lon="5.18829">
        <ele>135.39999389648</ele>
        <time>2017-07-17T14:52:40Z</time>
      </trkpt>
      <trkpt lat="47.05262" lon="5.18824">
        <ele>135.19999694824</ele>
        <time>2017-07-17T14:52:41Z</time>
      </trkpt>
      <trkpt lat="47.05278" lon="5.18804">
        <ele>135</ele>
        <time>2017-07-17T14:52:45Z</time>
      </trkpt>
      <trkpt lat="47.05296" lon="5.18782">
        <ele>134.19999694824</ele>
        <time>2017-07-17T14:52:50Z</time>
      </trkpt>
      <trkpt lat="47.05326" lon="5.18745">
        <ele>133.80000305176</ele>
        <time>2017-07-17T14:52:57Z</time>
      </trkpt>
      <trkpt lat="47.0537" lon="5.18689">
        <ele>133.80000305176</ele>
        <time>2017-07-17T14:53:07Z</time>
      </trkpt>
      <trkpt lat="47.05396" lon="5.18651">
        <ele>133.80000305176</ele>
        <time>2017-07-17T14:53:14Z</time>
      </trkpt>
      <trkpt lat="47.05402" lon="5.18645">
        <ele>133.80000305176</ele>
        <time>2017-07-17T14:53:16Z</time>
      </trkpt>
      <trkpt lat="47.05405" lon="5.18645">
        <ele>133.80000305176</ele>
        <time>2017-07-17T14:53:17Z</time>
      </trkpt>
      <trkpt lat="47.05414" lon="5.18654">
        <ele>134.39999389648</ele>
        <time>2017-07-17T14:53:20Z</time>
      </trkpt>
      <trkpt lat="47.05417" lon="5.18658">
        <ele>134.39999389648</ele>
        <time>2017-07-17T14:53:21Z</time>
      </trkpt>
      <trkpt lat="47.0543" lon="5.18674">
        <ele>135</ele>
        <time>2017-07-17T14:53:25Z</time>
      </trkpt>
      <trkpt lat="47.05437" lon="5.18686">
        <ele>135.19999694824</ele>
        <time>2017-07-17T14:53:27Z</time>
      </trkpt>
      <trkpt lat="47.05454" lon="5.18715">
        <ele>135</ele>
        <time>2017-07-17T14:53:33Z</time>
      </trkpt>
      <trkpt lat="47.05459" lon="5.1872">
        <ele>135</ele>
        <time>2017-07-17T14:53:34Z</time>
      </trkpt>
      <trkpt lat="47.05486" lon="5.18741">
        <ele>135</ele>
        <time>2017-07-17T14:53:40Z</time>
      </trkpt>
      <trkpt lat="47.05495" lon="5.18748">
        <ele>135</ele>
        <time>2017-07-17T14:53:42Z</time>
      </trkpt>
      <trkpt lat="47.05512" lon="5.18765">
        <ele>135</ele>
        <time>2017-07-17T14:53:46Z</time>
      </trkpt>
      <trkpt lat="47.05547" lon="5.188">
        <ele>135.19999694824</ele>
        <time>2017-07-17T14:53:54Z</time>
      </trkpt>
      <trkpt lat="47.05573" lon="5.18826">
        <ele>135.39999389648</ele>
        <time>2017-07-17T14:54:00Z</time>
      </trkpt>
      <trkpt lat="47.05581" lon="5.18836">
        <ele>135.39999389648</ele>
        <time>2017-07-17T14:54:02Z</time>
      </trkpt>
      <trkpt lat="47.05627" lon="5.18883">
        <ele>135.39999389648</ele>
        <time>2017-07-17T14:54:12Z</time>
      </trkpt>
      <trkpt lat="47.05669" lon="5.18926">
        <ele>135.60000610352</ele>
        <time>2017-07-17T14:54:21Z</time>
      </trkpt>
      <trkpt lat="47.05706" lon="5.18964">
        <ele>135.60000610352</ele>
        <time>2017-07-17T14:54:29Z</time>
      </trkpt>
      <trkpt lat="47.05753" lon="5.19011">
        <ele>135.39999389648</ele>
        <time>2017-07-17T14:54:39Z</time>
      </trkpt>
      <trkpt lat="47.05757" lon="5.19016">
        <ele>135.60000610352</ele>
        <time>2017-07-17T14:54:40Z</time>
      </trkpt>
      <trkpt lat="47.05795" lon="5.19054">
        <ele>135.39999389648</ele>
        <time>2017-07-17T14:54:48Z</time>
      </trkpt>
      <trkpt lat="47.05837" lon="5.19095">
        <ele>135.39999389648</ele>
        <time>2017-07-17T14:54:57Z</time>
      </trkpt>
      <trkpt lat="47.05872" lon="5.19131">
        <ele>135.19999694824</ele>
        <time>2017-07-17T14:55:05Z</time>
      </trkpt>
      <trkpt lat="47.05903" lon="5.19161">
        <ele>135.39999389648</ele>
        <time>2017-07-17T14:55:12Z</time>
      </trkpt>
      <trkpt lat="47.05908" lon="5.19166">
        <ele>135.39999389648</ele>
        <time>2017-07-17T14:55:13Z</time>
      </trkpt>
      <trkpt lat="47.05943" lon="5.192">
        <ele>135.19999694824</ele>
        <time>2017-07-17T14:55:21Z</time>
      </trkpt>
      <trkpt lat="47.05978" lon="5.19234">
        <ele>135.39999389648</ele>
        <time>2017-07-17T14:55:29Z</time>
      </trkpt>
      <trkpt lat="47.05986" lon="5.19243">
        <ele>135.39999389648</ele>
        <time>2017-07-17T14:55:31Z</time>
      </trkpt>
      <trkpt lat="47.06008" lon="5.19264">
        <ele>135.39999389648</ele>
        <time>2017-07-17T14:55:36Z</time>
      </trkpt>
      <trkpt lat="47.06043" lon="5.19298">
        <ele>135.39999389648</ele>
        <time>2017-07-17T14:55:44Z</time>
      </trkpt>
      <trkpt lat="47.06089" lon="5.19342">
        <ele>135.19999694824</ele>
        <time>2017-07-17T14:55:54Z</time>
      </trkpt>
      <trkpt lat="47.06134" lon="5.19386">
        <ele>135.19999694824</ele>
        <time>2017-07-17T14:56:04Z</time>
      </trkpt>
      <trkpt lat="47.06176" lon="5.19426">
        <ele>135.39999389648</ele>
        <time>2017-07-17T14:56:13Z</time>
      </trkpt>
      <trkpt lat="47.0622" lon="5.19469">
        <ele>135.39999389648</ele>
        <time>2017-07-17T14:56:23Z</time>
      </trkpt>
      <trkpt lat="47.06246" lon="5.19496">
        <ele>135.60000610352</ele>
        <time>2017-07-17T14:56:29Z</time>
      </trkpt>
      <trkpt lat="47.06278" lon="5.19526">
        <ele>136</ele>
        <time>2017-07-17T14:56:36Z</time>
      </trkpt>
      <trkpt lat="47.06311" lon="5.19558">
        <ele>135.60000610352</ele>
        <time>2017-07-17T14:56:43Z</time>
      </trkpt>
      <trkpt lat="47.06344" lon="5.19589">
        <ele>135.60000610352</ele>
        <time>2017-07-17T14:56:50Z</time>
      </trkpt>
      <trkpt lat="47.06376" lon="5.1962">
        <ele>135.60000610352</ele>
        <time>2017-07-17T14:56:57Z</time>
      </trkpt>
      <trkpt lat="47.06421" lon="5.19665">
        <ele>135.39999389648</ele>
        <time>2017-07-17T14:57:07Z</time>
      </trkpt>
      <trkpt lat="47.06457" lon="5.19705">
        <ele>135.39999389648</ele>
        <time>2017-07-17T14:57:15Z</time>
      </trkpt>
      <trkpt lat="47.06494" lon="5.19744">
        <ele>135.39999389648</ele>
        <time>2017-07-17T14:57:23Z</time>
      </trkpt>
      <trkpt lat="47.06526" lon="5.19775">
        <ele>135.60000610352</ele>
        <time>2017-07-17T14:57:30Z</time>
      </trkpt>
      <trkpt lat="47.06563" lon="5.19811">
        <ele>135.60000610352</ele>
        <time>2017-07-17T14:57:38Z</time>
      </trkpt>
      <trkpt lat="47.06598" lon="5.19844">
        <ele>135.80000305176</ele>
        <time>2017-07-17T14:57:46Z</time>
      </trkpt>
      <trkpt lat="47.0663" lon="5.19873">
        <ele>135.80000305176</ele>
        <time>2017-07-17T14:57:53Z</time>
      </trkpt>
      <trkpt lat="47.06639" lon="5.19881">
        <ele>135.80000305176</ele>
        <time>2017-07-17T14:57:55Z</time>
      </trkpt>
      <trkpt lat="47.06663" lon="5.19899">
        <ele>135.60000610352</ele>
        <time>2017-07-17T14:58:00Z</time>
      </trkpt>
      <trkpt lat="47.067" lon="5.19933">
        <ele>135.39999389648</ele>
        <time>2017-07-17T14:58:08Z</time>
      </trkpt>
      <trkpt lat="47.06745" lon="5.19976">
        <ele>135.39999389648</ele>
        <time>2017-07-17T14:58:18Z</time>
      </trkpt>
      <trkpt lat="47.06779" lon="5.20009">
        <ele>135.19999694824</ele>
        <time>2017-07-17T14:58:26Z</time>
      </trkpt>
      <trkpt lat="47.06805" lon="5.20034">
        <ele>135</ele>
        <time>2017-07-17T14:58:33Z</time>
      </trkpt>
      <trkpt lat="47.06827" lon="5.20056">
        <ele>135.19999694824</ele>
        <time>2017-07-17T14:58:39Z</time>
      </trkpt>
      <trkpt lat="47.06856" lon="5.20084">
        <ele>135.39999389648</ele>
        <time>2017-07-17T14:58:47Z</time>
      </trkpt>
      <trkpt lat="47.06886" lon="5.20113">
        <ele>135.39999389648</ele>
        <time>2017-07-17T14:58:55Z</time>
      </trkpt>
      <trkpt lat="47.069" lon="5.20127">
        <ele>135.39999389648</ele>
        <time>2017-07-17T14:58:59Z</time>
      </trkpt>
      <trkpt lat="47.06911" lon="5.20137">
        <ele>135.39999389648</ele>
        <time>2017-07-17T14:59:02Z</time>
      </trkpt>
      <trkpt lat="47.06942" lon="5.20168">
        <ele>135.39999389648</ele>
        <time>2017-07-17T14:59:11Z</time>
      </trkpt>
      <trkpt lat="47.06981" lon="5.20206">
        <ele>135.39999389648</ele>
        <time>2017-07-17T14:59:22Z</time>
      </trkpt>
      <trkpt lat="47.07008" lon="5.20231">
        <ele>135.39999389648</ele>
        <time>2017-07-17T14:59:30Z</time>
      </trkpt>
      <trkpt lat="47.07036" lon="5.20258">
        <ele>135.39999389648</ele>
        <time>2017-07-17T14:59:38Z</time>
      </trkpt>
      <trkpt lat="47.07068" lon="5.20288">
        <ele>135.39999389648</ele>
        <time>2017-07-17T14:59:47Z</time>
      </trkpt>
      <trkpt lat="47.07075" lon="5.20295">
        <ele>135.39999389648</ele>
        <time>2017-07-17T14:59:49Z</time>
      </trkpt>
      <trkpt lat="47.07078" lon="5.20298">
        <ele>135.39999389648</ele>
        <time>2017-07-17T14:59:50Z</time>
      </trkpt>
      <trkpt lat="47.071" lon="5.20319">
        <ele>135.60000610352</ele>
        <time>2017-07-17T14:59:56Z</time>
      </trkpt>
      <trkpt lat="47.07107" lon="5.20326">
        <ele>135.60000610352</ele>
        <time>2017-07-17T14:59:58Z</time>
      </trkpt>
      <trkpt lat="47.07122" lon="5.20341">
        <ele>135.39999389648</ele>
        <time>2017-07-17T15:00:02Z</time>
      </trkpt>
      <trkpt lat="47.07152" lon="5.20369">
        <ele>135.39999389648</ele>
        <time>2017-07-17T15:00:10Z</time>
      </trkpt>
      <trkpt lat="47.07156" lon="5.20373">
        <ele>135.39999389648</ele>
        <time>2017-07-17T15:00:11Z</time>
      </trkpt>
      <trkpt lat="47.07175" lon="5.20393">
        <ele>135.60000610352</ele>
        <time>2017-07-17T15:00:16Z</time>
      </trkpt>
      <trkpt lat="47.07205" lon="5.20425">
        <ele>135.39999389648</ele>
        <time>2017-07-17T15:00:24Z</time>
      </trkpt>
      <trkpt lat="47.07228" lon="5.2045">
        <ele>135</ele>
        <time>2017-07-17T15:00:30Z</time>
      </trkpt>
      <trkpt lat="47.07259" lon="5.20484">
        <ele>134.39999389648</ele>
        <time>2017-07-17T15:00:38Z</time>
      </trkpt>
      <trkpt lat="47.07263" lon="5.20489">
        <ele>134.19999694824</ele>
        <time>2017-07-17T15:00:39Z</time>
      </trkpt>
      <trkpt lat="47.07296" lon="5.20522">
        <ele>134</ele>
        <time>2017-07-17T15:00:47Z</time>
      </trkpt>
      <trkpt lat="47.07329" lon="5.20554">
        <ele>134.19999694824</ele>
        <time>2017-07-17T15:00:55Z</time>
      </trkpt>
      <trkpt lat="47.07362" lon="5.20586">
        <ele>134.19999694824</ele>
        <time>2017-07-17T15:01:03Z</time>
      </trkpt>
      <trkpt lat="47.074" lon="5.20624">
        <ele>134</ele>
        <time>2017-07-17T15:01:12Z</time>
      </trkpt>
      <trkpt lat="47.0744" lon="5.20663">
        <ele>133.80000305176</ele>
        <time>2017-07-17T15:01:21Z</time>
      </trkpt>
      <trkpt lat="47.07482" lon="5.20701">
        <ele>133.80000305176</ele>
        <time>2017-07-17T15:01:30Z</time>
      </trkpt>
      <trkpt lat="47.07514" lon="5.20739">
        <ele>133.80000305176</ele>
        <time>2017-07-17T15:01:38Z</time>
      </trkpt>
      <trkpt lat="47.0754" lon="5.20777">
        <ele>133.60000610352</ele>
        <time>2017-07-17T15:01:46Z</time>
      </trkpt>
      <trkpt lat="47.07566" lon="5.20815">
        <ele>133.60000610352</ele>
        <time>2017-07-17T15:01:54Z</time>
      </trkpt>
      <trkpt lat="47.07579" lon="5.20834">
        <ele>133.80000305176</ele>
        <time>2017-07-17T15:01:58Z</time>
      </trkpt>
      <trkpt lat="47.07586" lon="5.20849">
        <ele>133.80000305176</ele>
        <time>2017-07-17T15:02:01Z</time>
      </trkpt>
      <trkpt lat="47.07601" lon="5.20888">
        <ele>134.19999694824</ele>
        <time>2017-07-17T15:02:08Z</time>
      </trkpt>
      <trkpt lat="47.07619" lon="5.20948">
        <ele>134</ele>
        <time>2017-07-17T15:02:18Z</time>
      </trkpt>
      <trkpt lat="47.07629" lon="5.20979">
        <ele>133.60000610352</ele>
        <time>2017-07-17T15:02:24Z</time>
      </trkpt>
      <trkpt lat="47.07643" lon="5.21023">
        <ele>133.80000305176</ele>
        <time>2017-07-17T15:02:32Z</time>
      </trkpt>
      <trkpt lat="47.07661" lon="5.21062">
        <ele>134</ele>
        <time>2017-07-17T15:02:40Z</time>
      </trkpt>
      <trkpt lat="47.07691" lon="5.21105">
        <ele>134</ele>
        <time>2017-07-17T15:02:50Z</time>
      </trkpt>
      <trkpt lat="47.07711" lon="5.21134">
        <ele>134</ele>
        <time>2017-07-17T15:02:57Z</time>
      </trkpt>
      <trkpt lat="47.07736" lon="5.21171">
        <ele>134</ele>
        <time>2017-07-17T15:03:05Z</time>
      </trkpt>
      <trkpt lat="47.0776" lon="5.21206">
        <ele>134</ele>
        <time>2017-07-17T15:03:13Z</time>
      </trkpt>
      <trkpt lat="47.07789" lon="5.21248">
        <ele>134.19999694824</ele>
        <time>2017-07-17T15:03:23Z</time>
      </trkpt>
      <trkpt lat="47.07811" lon="5.21283">
        <ele>134</ele>
        <time>2017-07-17T15:03:31Z</time>
      </trkpt>
      <trkpt lat="47.07841" lon="5.21329">
        <ele>134</ele>
        <time>2017-07-17T15:03:41Z</time>
      </trkpt>
      <trkpt lat="47.07846" lon="5.21338">
        <ele>134</ele>
        <time>2017-07-17T15:03:43Z</time>
      </trkpt>
      <trkpt lat="47.0786" lon="5.2137">
        <ele>134</ele>
        <time>2017-07-17T15:03:49Z</time>
      </trkpt>
      <trkpt lat="47.07874" lon="5.21407">
        <ele>134</ele>
        <time>2017-07-17T15:03:56Z</time>
      </trkpt>
      <trkpt lat="47.07886" lon="5.21446">
        <ele>134</ele>
        <time>2017-07-17T15:04:03Z</time>
      </trkpt>
      <trkpt lat="47.07889" lon="5.21457">
        <ele>134.19999694824</ele>
        <time>2017-07-17T15:04:05Z</time>
      </trkpt>
      <trkpt lat="47.079" lon="5.21508">
        <ele>134.19999694824</ele>
        <time>2017-07-17T15:04:14Z</time>
      </trkpt>
      <trkpt lat="47.07905" lon="5.2155">
        <ele>134.19999694824</ele>
        <time>2017-07-17T15:04:21Z</time>
      </trkpt>
      <trkpt lat="47.07907" lon="5.21617">
        <ele>134.19999694824</ele>
        <time>2017-07-17T15:04:32Z</time>
      </trkpt>
      <trkpt lat="47.07908" lon="5.21642">
        <ele>134.39999389648</ele>
        <time>2017-07-17T15:04:36Z</time>
      </trkpt>
      <trkpt lat="47.0791" lon="5.21661">
        <ele>134.39999389648</ele>
        <time>2017-07-17T15:04:39Z</time>
      </trkpt>
      <trkpt lat="47.0791" lon="5.21697">
        <ele>134.19999694824</ele>
        <time>2017-07-17T15:04:45Z</time>
      </trkpt>
      <trkpt lat="47.07912" lon="5.21743">
        <ele>134.19999694824</ele>
        <time>2017-07-17T15:04:52Z</time>
      </trkpt>
      <trkpt lat="47.07913" lon="5.21809">
        <ele>134.39999389648</ele>
        <time>2017-07-17T15:05:02Z</time>
      </trkpt>
      <trkpt lat="47.07915" lon="5.21861">
        <ele>134.19999694824</ele>
        <time>2017-07-17T15:05:10Z</time>
      </trkpt>
      <trkpt lat="47.0792" lon="5.21912">
        <ele>134.39999389648</ele>
        <time>2017-07-17T15:05:18Z</time>
      </trkpt>
      <trkpt lat="47.07927" lon="5.21969">
        <ele>134.39999389648</ele>
        <time>2017-07-17T15:05:27Z</time>
      </trkpt>
      <trkpt lat="47.07937" lon="5.22029">
        <ele>134.39999389648</ele>
        <time>2017-07-17T15:05:37Z</time>
      </trkpt>
      <trkpt lat="47.0795" lon="5.2209">
        <ele>134.60000610352</ele>
        <time>2017-07-17T15:05:47Z</time>
      </trkpt>
      <trkpt lat="47.07961" lon="5.22142">
        <ele>134.80000305176</ele>
        <time>2017-07-17T15:05:56Z</time>
      </trkpt>
      <trkpt lat="47.07977" lon="5.222">
        <ele>134.60000610352</ele>
        <time>2017-07-17T15:06:06Z</time>
      </trkpt>
      <trkpt lat="47.07992" lon="5.22247">
        <ele>134.39999389648</ele>
        <time>2017-07-17T15:06:14Z</time>
      </trkpt>
      <trkpt lat="47.08007" lon="5.22292">
        <ele>134.39999389648</ele>
        <time>2017-07-17T15:06:22Z</time>
      </trkpt>
      <trkpt lat="47.08017" lon="5.2232">
        <ele>134.39999389648</ele>
        <time>2017-07-17T15:06:27Z</time>
      </trkpt>
      <trkpt lat="47.0802" lon="5.22326">
        <ele>134.39999389648</ele>
        <time>2017-07-17T15:06:28Z</time>
      </trkpt>
      <trkpt lat="47.0804" lon="5.22381">
        <ele>134.39999389648</ele>
        <time>2017-07-17T15:06:38Z</time>
      </trkpt>
      <trkpt lat="47.08051" lon="5.22406">
        <ele>134.39999389648</ele>
        <time>2017-07-17T15:06:43Z</time>
      </trkpt>
      <trkpt lat="47.08056" lon="5.22416">
        <ele>134.39999389648</ele>
        <time>2017-07-17T15:06:45Z</time>
      </trkpt>
      <trkpt lat="47.08086" lon="5.2247">
        <ele>134.80000305176</ele>
        <time>2017-07-17T15:06:56Z</time>
      </trkpt>
      <trkpt lat="47.08106" lon="5.22505">
        <ele>134.19999694824</ele>
        <time>2017-07-17T15:07:04Z</time>
      </trkpt>
      <trkpt lat="47.08127" lon="5.22541">
        <ele>134.60000610352</ele>
        <time>2017-07-17T15:07:12Z</time>
      </trkpt>
      <trkpt lat="47.08142" lon="5.22567">
        <ele>134.60000610352</ele>
        <time>2017-07-17T15:07:18Z</time>
      </trkpt>
      <trkpt lat="47.0815" lon="5.22579">
        <ele>134.60000610352</ele>
        <time>2017-07-17T15:07:21Z</time>
      </trkpt>
      <trkpt lat="47.08161" lon="5.22602">
        <ele>134.60000610352</ele>
        <time>2017-07-17T15:07:26Z</time>
      </trkpt>
      <trkpt lat="47.08181" lon="5.22641">
        <ele>134.60000610352</ele>
        <time>2017-07-17T15:07:34Z</time>
      </trkpt>
      <trkpt lat="47.08203" lon="5.2268">
        <ele>134.60000610352</ele>
        <time>2017-07-17T15:07:42Z</time>
      </trkpt>
      <trkpt lat="47.08224" lon="5.22715">
        <ele>134.60000610352</ele>
        <time>2017-07-17T15:07:50Z</time>
      </trkpt>
      <trkpt lat="47.08251" lon="5.2275">
        <ele>134.60000610352</ele>
        <time>2017-07-17T15:07:58Z</time>
      </trkpt>
      <trkpt lat="47.08272" lon="5.22773">
        <ele>134.39999389648</ele>
        <time>2017-07-17T15:08:04Z</time>
      </trkpt>
      <trkpt lat="47.0828" lon="5.2278">
        <ele>134.19999694824</ele>
        <time>2017-07-17T15:08:06Z</time>
      </trkpt>
      <trkpt lat="47.0831" lon="5.22812">
        <ele>134.19999694824</ele>
        <time>2017-07-17T15:08:14Z</time>
      </trkpt>
      <trkpt lat="47.08318" lon="5.2282">
        <ele>134.19999694824</ele>
        <time>2017-07-17T15:08:16Z</time>
      </trkpt>
      <trkpt lat="47.08333" lon="5.22834">
        <ele>134.19999694824</ele>
        <time>2017-07-17T15:08:20Z</time>
      </trkpt>
      <trkpt lat="47.08355" lon="5.22858">
        <ele>134.39999389648</ele>
        <time>2017-07-17T15:08:26Z</time>
      </trkpt>
      <trkpt lat="47.08384" lon="5.22889">
        <ele>134.39999389648</ele>
        <time>2017-07-17T15:08:34Z</time>
      </trkpt>
      <trkpt lat="47.08405" lon="5.22909">
        <ele>134.39999389648</ele>
        <time>2017-07-17T15:08:40Z</time>
      </trkpt>
      <trkpt lat="47.08409" lon="5.22913">
        <ele>134.39999389648</ele>
        <time>2017-07-17T15:08:41Z</time>
      </trkpt>
      <trkpt lat="47.08437" lon="5.22943">
        <ele>134.80000305176</ele>
        <time>2017-07-17T15:08:49Z</time>
      </trkpt>
      <trkpt lat="47.08463" lon="5.22969">
        <ele>134.60000610352</ele>
        <time>2017-07-17T15:08:57Z</time>
      </trkpt>
      <trkpt lat="47.0849" lon="5.22997">
        <ele>134.60000610352</ele>
        <time>2017-07-17T15:09:05Z</time>
      </trkpt>
      <trkpt lat="47.08521" lon="5.23037">
        <ele>134.60000610352</ele>
        <time>2017-07-17T15:09:13Z</time>
      </trkpt>
      <trkpt lat="47.08542" lon="5.2308">
        <ele>134.80000305176</ele>
        <time>2017-07-17T15:09:21Z</time>
      </trkpt>
      <trkpt lat="47.08544" lon="5.23085">
        <ele>134.80000305176</ele>
        <time>2017-07-17T15:09:22Z</time>
      </trkpt>
      <trkpt lat="47.08552" lon="5.23113">
        <ele>134.80000305176</ele>
        <time>2017-07-17T15:09:27Z</time>
      </trkpt>
      <trkpt lat="47.08556" lon="5.23159">
        <ele>134.80000305176</ele>
        <time>2017-07-17T15:09:35Z</time>
      </trkpt>
      <trkpt lat="47.08558" lon="5.23204">
        <ele>134.80000305176</ele>
        <time>2017-07-17T15:09:42Z</time>
      </trkpt>
      <trkpt lat="47.08561" lon="5.23243">
        <ele>134.80000305176</ele>
        <time>2017-07-17T15:09:49Z</time>
      </trkpt>
      <trkpt lat="47.08557" lon="5.23267">
        <ele>134.80000305176</ele>
        <time>2017-07-17T15:09:53Z</time>
      </trkpt>
      <trkpt lat="47.08555" lon="5.23278">
        <ele>134.80000305176</ele>
        <time>2017-07-17T15:09:55Z</time>
      </trkpt>
      <trkpt lat="47.08545" lon="5.23306">
        <ele>134.80000305176</ele>
        <time>2017-07-17T15:10:01Z</time>
      </trkpt>
      <trkpt lat="47.08527" lon="5.23337">
        <ele>134.80000305176</ele>
        <time>2017-07-17T15:10:09Z</time>
      </trkpt>
      <trkpt lat="47.08509" lon="5.23371">
        <ele>134.39999389648</ele>
        <time>2017-07-17T15:10:16Z</time>
      </trkpt>
      <trkpt lat="47.08491" lon="5.23412">
        <ele>134.60000610352</ele>
        <time>2017-07-17T15:10:23Z</time>
      </trkpt>
      <trkpt lat="47.08477" lon="5.23438">
        <ele>134.60000610352</ele>
        <time>2017-07-17T15:10:28Z</time>
      </trkpt>
      <trkpt lat="47.08471" lon="5.23447">
        <ele>134.60000610352</ele>
        <time>2017-07-17T15:10:30Z</time>
      </trkpt>
      <trkpt lat="47.08451" lon="5.23476">
        <ele>134.80000305176</ele>
        <time>2017-07-17T15:10:37Z</time>
      </trkpt>
      <trkpt lat="47.0843" lon="5.23502">
        <ele>134.60000610352</ele>
        <time>2017-07-17T15:10:43Z</time>
      </trkpt>
      <trkpt lat="47.08407" lon="5.23531">
        <ele>134.60000610352</ele>
        <time>2017-07-17T15:10:49Z</time>
      </trkpt>
      <trkpt lat="47.08399" lon="5.2354">
        <ele>134.60000610352</ele>
        <time>2017-07-17T15:10:51Z</time>
      </trkpt>
      <trkpt lat="47.08371" lon="5.23569">
        <ele>134.60000610352</ele>
        <time>2017-07-17T15:10:58Z</time>
      </trkpt>
      <trkpt lat="47.08345" lon="5.23596">
        <ele>134.60000610352</ele>
        <time>2017-07-17T15:11:05Z</time>
      </trkpt>
      <trkpt lat="47.08336" lon="5.23609">
        <ele>134.80000305176</ele>
        <time>2017-07-17T15:11:08Z</time>
      </trkpt>
      <trkpt lat="47.08326" lon="5.23625">
        <ele>134.80000305176</ele>
        <time>2017-07-17T15:11:12Z</time>
      </trkpt>
      <trkpt lat="47.08311" lon="5.23652">
        <ele>134.60000610352</ele>
        <time>2017-07-17T15:11:18Z</time>
      </trkpt>
      <trkpt lat="47.08292" lon="5.23687">
        <ele>135</ele>
        <time>2017-07-17T15:11:25Z</time>
      </trkpt>
      <trkpt lat="47.08289" lon="5.23691">
        <ele>135</ele>
        <time>2017-07-17T15:11:26Z</time>
      </trkpt>
      <trkpt lat="47.08272" lon="5.23719">
        <ele>134.80000305176</ele>
        <time>2017-07-17T15:11:32Z</time>
      </trkpt>
      <trkpt lat="47.08241" lon="5.23773">
        <ele>135</ele>
        <time>2017-07-17T15:11:43Z</time>
      </trkpt>
      <trkpt lat="47.08213" lon="5.23815">
        <ele>134.80000305176</ele>
        <time>2017-07-17T15:11:52Z</time>
      </trkpt>
      <trkpt lat="47.08193" lon="5.2385">
        <ele>135</ele>
        <time>2017-07-17T15:11:59Z</time>
      </trkpt>
      <trkpt lat="47.0817" lon="5.23906">
        <ele>135.19999694824</ele>
        <time>2017-07-17T15:12:09Z</time>
      </trkpt>
      <trkpt lat="47.08155" lon="5.23953">
        <ele>135</ele>
        <time>2017-07-17T15:12:17Z</time>
      </trkpt>
      <trkpt lat="47.08143" lon="5.24006">
        <ele>134.80000305176</ele>
        <time>2017-07-17T15:12:26Z</time>
      </trkpt>
      <trkpt lat="47.08137" lon="5.24056">
        <ele>134.80000305176</ele>
        <time>2017-07-17T15:12:34Z</time>
      </trkpt>
      <trkpt lat="47.08137" lon="5.24114">
        <ele>135</ele>
        <time>2017-07-17T15:12:43Z</time>
      </trkpt>
      <trkpt lat="47.08138" lon="5.24175">
        <ele>135.19999694824</ele>
        <time>2017-07-17T15:12:53Z</time>
      </trkpt>
      <trkpt lat="47.0814" lon="5.24217">
        <ele>135.19999694824</ele>
        <time>2017-07-17T15:13:00Z</time>
      </trkpt>
      <trkpt lat="47.08141" lon="5.24242">
        <ele>135.19999694824</ele>
        <time>2017-07-17T15:13:04Z</time>
      </trkpt>
      <trkpt lat="47.08142" lon="5.24248">
        <ele>135.19999694824</ele>
        <time>2017-07-17T15:13:05Z</time>
      </trkpt>
      <trkpt lat="47.08144" lon="5.24275">
        <ele>135.39999389648</ele>
        <time>2017-07-17T15:13:10Z</time>
      </trkpt>
      <trkpt lat="47.08145" lon="5.24284">
        <ele>135.39999389648</ele>
        <time>2017-07-17T15:13:12Z</time>
      </trkpt>
      <trkpt lat="47.08147" lon="5.24314">
        <ele>135.60000610352</ele>
        <time>2017-07-17T15:13:18Z</time>
      </trkpt>
      <trkpt lat="47.08155" lon="5.24356">
        <ele>135.80000305176</ele>
        <time>2017-07-17T15:13:26Z</time>
      </trkpt>
      <trkpt lat="47.08168" lon="5.24398">
        <ele>136.19999694824</ele>
        <time>2017-07-17T15:13:35Z</time>
      </trkpt>
      <trkpt lat="47.08174" lon="5.24413">
        <ele>136.39999389648</ele>
        <time>2017-07-17T15:13:38Z</time>
      </trkpt>
      <trkpt lat="47.08181" lon="5.24427">
        <ele>136.60000610352</ele>
        <time>2017-07-17T15:13:41Z</time>
      </trkpt>
      <trkpt lat="47.0819" lon="5.24447">
        <ele>136.80000305176</ele>
        <time>2017-07-17T15:13:45Z</time>
      </trkpt>
      <trkpt lat="47.08196" lon="5.24458">
        <ele>136.80000305176</ele>
        <time>2017-07-17T15:13:47Z</time>
      </trkpt>
      <trkpt lat="47.08219" lon="5.245">
        <ele>136.80000305176</ele>
        <time>2017-07-17T15:13:55Z</time>
      </trkpt>
      <trkpt lat="47.08222" lon="5.24504">
        <ele>136.60000610352</ele>
        <time>2017-07-17T15:13:56Z</time>
      </trkpt>
      <trkpt lat="47.0824" lon="5.24526">
        <ele>136.60000610352</ele>
        <time>2017-07-17T15:14:01Z</time>
      </trkpt>
      <trkpt lat="47.08268" lon="5.24556">
        <ele>136.19999694824</ele>
        <time>2017-07-17T15:14:09Z</time>
      </trkpt>
      <trkpt lat="47.08289" lon="5.24578">
        <ele>136</ele>
        <time>2017-07-17T15:14:15Z</time>
      </trkpt>
      <trkpt lat="47.08295" lon="5.24588">
        <ele>135.80000305176</ele>
        <time>2017-07-17T15:14:17Z</time>
      </trkpt>
      <trkpt lat="47.08301" lon="5.24604">
        <ele>135.60000610352</ele>
        <time>2017-07-17T15:14:20Z</time>
      </trkpt>
      <trkpt lat="47.08305" lon="5.24613">
        <ele>135.60000610352</ele>
        <time>2017-07-17T15:14:22Z</time>
      </trkpt>
      <trkpt lat="47.08306" lon="5.24619">
        <ele>135.60000610352</ele>
        <time>2017-07-17T15:14:23Z</time>
      </trkpt>
      <trkpt lat="47.08311" lon="5.24637">
        <ele>135.39999389648</ele>
        <time>2017-07-17T15:14:27Z</time>
      </trkpt>
      <trkpt lat="47.08323" lon="5.24659">
        <ele>136.19999694824</ele>
        <time>2017-07-17T15:14:33Z</time>
      </trkpt>
      <trkpt lat="47.08341" lon="5.24685">
        <ele>136.80000305176</ele>
        <time>2017-07-17T15:14:40Z</time>
      </trkpt>
      <trkpt lat="47.08357" lon="5.24709">
        <ele>137.39999389648</ele>
        <time>2017-07-17T15:14:46Z</time>
      </trkpt>
      <trkpt lat="47.08359" lon="5.24713">
        <ele>137.60000610352</ele>
        <time>2017-07-17T15:14:47Z</time>
      </trkpt>
      <trkpt lat="47.08379" lon="5.24739">
        <ele>138</ele>
        <time>2017-07-17T15:14:54Z</time>
      </trkpt>
      <trkpt lat="47.08402" lon="5.24766">
        <ele>138.19999694824</ele>
        <time>2017-07-17T15:15:02Z</time>
      </trkpt>
      <trkpt lat="47.08421" lon="5.2479">
        <ele>137.80000305176</ele>
        <time>2017-07-17T15:15:10Z</time>
      </trkpt>
      <trkpt lat="47.08441" lon="5.24816">
        <ele>138</ele>
        <time>2017-07-17T15:15:19Z</time>
      </trkpt>
      <trkpt lat="47.08455" lon="5.24834">
        <ele>137.80000305176</ele>
        <time>2017-07-17T15:15:25Z</time>
      </trkpt>
      <trkpt lat="47.08466" lon="5.24848">
        <ele>138</ele>
        <time>2017-07-17T15:15:30Z</time>
      </trkpt>
      <trkpt lat="47.08478" lon="5.24859">
        <ele>137.80000305176</ele>
        <time>2017-07-17T15:15:36Z</time>
      </trkpt>
      <trkpt lat="47.08482" lon="5.24864">
        <ele>137.60000610352</ele>
        <time>2017-07-17T15:15:57Z</time>
      </trkpt>
      <trkpt lat="47.08482" lon="5.24866">
        <ele>137.60000610352</ele>
        <time>2017-07-17T15:15:58Z</time>
      </trkpt>
      <trkpt lat="47.08486" lon="5.24869">
        <ele>137.60000610352</ele>
        <time>2017-07-17T15:16:01Z</time>
      </trkpt>
      <trkpt lat="47.08486" lon="5.24875">
        <ele>137.80000305176</ele>
        <time>2017-07-17T15:16:06Z</time>
      </trkpt>
      <trkpt lat="47.08495" lon="5.24883">
        <ele>137.80000305176</ele>
        <time>2017-07-17T15:16:10Z</time>
      </trkpt>
      <trkpt lat="47.08504" lon="5.24892">
        <ele>137.80000305176</ele>
        <time>2017-07-17T15:16:13Z</time>
      </trkpt>
      <trkpt lat="47.0851" lon="5.249">
        <ele>137.80000305176</ele>
        <time>2017-07-17T15:16:15Z</time>
      </trkpt>
      <trkpt lat="47.08512" lon="5.24905">
        <ele>137.80000305176</ele>
        <time>2017-07-17T15:16:16Z</time>
      </trkpt>
      <trkpt lat="47.08519" lon="5.24914">
        <ele>138</ele>
        <time>2017-07-17T15:16:18Z</time>
      </trkpt>
      <trkpt lat="47.08522" lon="5.24918">
        <ele>138</ele>
        <time>2017-07-17T15:16:19Z</time>
      </trkpt>
      <trkpt lat="47.08544" lon="5.24953">
        <ele>138.19999694824</ele>
        <time>2017-07-17T15:16:26Z</time>
      </trkpt>
      <trkpt lat="47.08571" lon="5.24994">
        <ele>138.19999694824</ele>
        <time>2017-07-17T15:16:34Z</time>
      </trkpt>
      <trkpt lat="47.08592" lon="5.25025">
        <ele>138</ele>
        <time>2017-07-17T15:16:40Z</time>
      </trkpt>
      <trkpt lat="47.08616" lon="5.25062">
        <ele>138</ele>
        <time>2017-07-17T15:16:47Z</time>
      </trkpt>
      <trkpt lat="47.08633" lon="5.25091">
        <ele>137.80000305176</ele>
        <time>2017-07-17T15:16:53Z</time>
      </trkpt>
      <trkpt lat="47.08639" lon="5.251">
        <ele>137.80000305176</ele>
        <time>2017-07-17T15:16:55Z</time>
      </trkpt>
      <trkpt lat="47.08657" lon="5.2513">
        <ele>137.60000610352</ele>
        <time>2017-07-17T15:17:01Z</time>
      </trkpt>
      <trkpt lat="47.08675" lon="5.25162">
        <ele>137.60000610352</ele>
        <time>2017-07-17T15:17:07Z</time>
      </trkpt>
      <trkpt lat="47.08681" lon="5.25173">
        <ele>137.60000610352</ele>
        <time>2017-07-17T15:17:09Z</time>
      </trkpt>
      <trkpt lat="47.08695" lon="5.25201">
        <ele>137.60000610352</ele>
        <time>2017-07-17T15:17:14Z</time>
      </trkpt>
      <trkpt lat="47.0871" lon="5.25244">
        <ele>137.80000305176</ele>
        <time>2017-07-17T15:17:21Z</time>
      </trkpt>
      <trkpt lat="47.08722" lon="5.25298">
        <ele>138.39999389648</ele>
        <time>2017-07-17T15:17:29Z</time>
      </trkpt>
      <trkpt lat="47.08728" lon="5.25326">
        <ele>138.39999389648</ele>
        <time>2017-07-17T15:17:33Z</time>
      </trkpt>
      <trkpt lat="47.08735" lon="5.25356">
        <ele>138.60000610352</ele>
        <time>2017-07-17T15:17:37Z</time>
      </trkpt>
      <trkpt lat="47.08744" lon="5.25398">
        <ele>138.60000610352</ele>
        <time>2017-07-17T15:17:44Z</time>
      </trkpt>
      <trkpt lat="47.08749" lon="5.25425">
        <ele>138.60000610352</ele>
        <time>2017-07-17T15:17:50Z</time>
      </trkpt>
      <trkpt lat="47.08749" lon="5.25433">
        <ele>138.60000610352</ele>
        <time>2017-07-17T15:17:55Z</time>
      </trkpt>
      <trkpt lat="47.08747" lon="5.25432">
        <ele>138.39999389648</ele>
        <time>2017-07-17T15:17:58Z</time>
      </trkpt>
      <trkpt lat="47.08745" lon="5.25431">
        <ele>138.39999389648</ele>
        <time>2017-07-17T15:17:59Z</time>
      </trkpt>
      <trkpt lat="47.08732" lon="5.25422">
        <ele>138.19999694824</ele>
        <time>2017-07-17T15:18:03Z</time>
      </trkpt>
      <trkpt lat="47.08705" lon="5.25396">
        <ele>138.39999389648</ele>
        <time>2017-07-17T15:18:10Z</time>
      </trkpt>
      <trkpt lat="47.08668" lon="5.25362">
        <ele>138.39999389648</ele>
        <time>2017-07-17T15:18:19Z</time>
      </trkpt>
      <trkpt lat="47.08645" lon="5.25342">
        <ele>138.19999694824</ele>
        <time>2017-07-17T15:18:25Z</time>
      </trkpt>
      <trkpt lat="47.08636" lon="5.25338">
        <ele>138.19999694824</ele>
        <time>2017-07-17T15:18:27Z</time>
      </trkpt>
      <trkpt lat="47.08628" lon="5.25335">
        <ele>138.19999694824</ele>
        <time>2017-07-17T15:18:29Z</time>
      </trkpt>
      <trkpt lat="47.08621" lon="5.25342">
        <ele>138.19999694824</ele>
        <time>2017-07-17T15:18:31Z</time>
      </trkpt>
      <trkpt lat="47.08616" lon="5.25362">
        <ele>138.39999389648</ele>
        <time>2017-07-17T15:18:35Z</time>
      </trkpt>
      <trkpt lat="47.08621" lon="5.25377">
        <ele>138.80000305176</ele>
        <time>2017-07-17T15:18:38Z</time>
      </trkpt>
      <trkpt lat="47.08623" lon="5.25387">
        <ele>139</ele>
        <time>2017-07-17T15:18:40Z</time>
      </trkpt>
      <trkpt lat="47.08632" lon="5.25409">
        <ele>139.60000610352</ele>
        <time>2017-07-17T15:18:45Z</time>
      </trkpt>
      <trkpt lat="47.08635" lon="5.25422">
        <ele>140.19999694824</ele>
        <time>2017-07-17T15:18:48Z</time>
      </trkpt>
      <trkpt lat="47.08639" lon="5.25436">
        <ele>140.60000610352</ele>
        <time>2017-07-17T15:18:51Z</time>
      </trkpt>
      <trkpt lat="47.08643" lon="5.25449">
        <ele>141.19999694824</ele>
        <time>2017-07-17T15:18:54Z</time>
      </trkpt>
      <trkpt lat="47.08647" lon="5.25462">
        <ele>141.80000305176</ele>
        <time>2017-07-17T15:18:57Z</time>
      </trkpt>
      <trkpt lat="47.08654" lon="5.25484">
        <ele>142.80000305176</ele>
        <time>2017-07-17T15:19:02Z</time>
      </trkpt>
      <trkpt lat="47.08661" lon="5.25507">
        <ele>143.60000610352</ele>
        <time>2017-07-17T15:19:07Z</time>
      </trkpt>
      <trkpt lat="47.08665" lon="5.25516">
        <ele>143.80000305176</ele>
        <time>2017-07-17T15:19:09Z</time>
      </trkpt>
      <trkpt lat="47.08679" lon="5.25544">
        <ele>144.80000305176</ele>
        <time>2017-07-17T15:19:15Z</time>
      </trkpt>
      <trkpt lat="47.08684" lon="5.25554">
        <ele>145</ele>
        <time>2017-07-17T15:19:17Z</time>
      </trkpt>
      <trkpt lat="47.08701" lon="5.25583">
        <ele>145</ele>
        <time>2017-07-17T15:19:22Z</time>
      </trkpt>
      <trkpt lat="47.08737" lon="5.25631">
        <ele>143.80000305176</ele>
        <time>2017-07-17T15:19:30Z</time>
      </trkpt>
      <trkpt lat="47.08766" lon="5.25664">
        <ele>142.80000305176</ele>
        <time>2017-07-17T15:19:35Z</time>
      </trkpt>
      <trkpt lat="47.08783" lon="5.25685">
        <ele>141.80000305176</ele>
        <time>2017-07-17T15:19:38Z</time>
      </trkpt>
      <trkpt lat="47.08789" lon="5.25692">
        <ele>141.60000610352</ele>
        <time>2017-07-17T15:19:39Z</time>
      </trkpt>
      <trkpt lat="47.08818" lon="5.25738">
        <ele>140.39999389648</ele>
        <time>2017-07-17T15:19:45Z</time>
      </trkpt>
      <trkpt lat="47.08822" lon="5.25747">
        <ele>140.39999389648</ele>
        <time>2017-07-17T15:19:46Z</time>
      </trkpt>
      <trkpt lat="47.08835" lon="5.25781">
        <ele>140.19999694824</ele>
        <time>2017-07-17T15:19:50Z</time>
      </trkpt>
      <trkpt lat="47.08838" lon="5.2579">
        <ele>140.19999694824</ele>
        <time>2017-07-17T15:19:51Z</time>
      </trkpt>
      <trkpt lat="47.08847" lon="5.25823">
        <ele>140</ele>
        <time>2017-07-17T15:19:55Z</time>
      </trkpt>
      <trkpt lat="47.08861" lon="5.25862">
        <ele>139.60000610352</ele>
        <time>2017-07-17T15:20:00Z</time>
      </trkpt>
      <trkpt lat="47.08864" lon="5.25869">
        <ele>139.39999389648</ele>
        <time>2017-07-17T15:20:01Z</time>
      </trkpt>
      <trkpt lat="47.08869" lon="5.25875">
        <ele>139.39999389648</ele>
        <time>2017-07-17T15:20:02Z</time>
      </trkpt>
      <trkpt lat="47.08885" lon="5.259">
        <ele>138.60000610352</ele>
        <time>2017-07-17T15:20:06Z</time>
      </trkpt>
      <trkpt lat="47.08889" lon="5.25906">
        <ele>138.39999389648</ele>
        <time>2017-07-17T15:20:07Z</time>
      </trkpt>
      <trkpt lat="47.08894" lon="5.25911">
        <ele>138.39999389648</ele>
        <time>2017-07-17T15:20:08Z</time>
      </trkpt>
      <trkpt lat="47.08899" lon="5.25916">
        <ele>138.19999694824</ele>
        <time>2017-07-17T15:20:09Z</time>
      </trkpt>
      <trkpt lat="47.08909" lon="5.25924">
        <ele>138</ele>
        <time>2017-07-17T15:20:11Z</time>
      </trkpt>
      <trkpt lat="47.08924" lon="5.2593">
        <ele>137.60000610352</ele>
        <time>2017-07-17T15:20:14Z</time>
      </trkpt>
      <trkpt lat="47.08929" lon="5.25931">
        <ele>137.39999389648</ele>
        <time>2017-07-17T15:20:15Z</time>
      </trkpt>
      <trkpt lat="47.08935" lon="5.25931">
        <ele>137.19999694824</ele>
        <time>2017-07-17T15:20:16Z</time>
      </trkpt>
      <trkpt lat="47.08976" lon="5.25938">
        <ele>136.39999389648</ele>
        <time>2017-07-17T15:20:24Z</time>
      </trkpt>
      <trkpt lat="47.08985" lon="5.2594">
        <ele>136.19999694824</ele>
        <time>2017-07-17T15:20:26Z</time>
      </trkpt>
      <trkpt lat="47.08999" lon="5.25944">
        <ele>136.19999694824</ele>
        <time>2017-07-17T15:20:29Z</time>
      </trkpt>
      <trkpt lat="47.09031" lon="5.25952">
        <ele>136.39999389648</ele>
        <time>2017-07-17T15:20:36Z</time>
      </trkpt>
      <trkpt lat="47.09074" lon="5.25963">
        <ele>136.39999389648</ele>
        <time>2017-07-17T15:20:45Z</time>
      </trkpt>
      <trkpt lat="47.09113" lon="5.25973">
        <ele>136.60000610352</ele>
        <time>2017-07-17T15:20:53Z</time>
      </trkpt>
      <trkpt lat="47.09168" lon="5.25987">
        <ele>136.60000610352</ele>
        <time>2017-07-17T15:21:04Z</time>
      </trkpt>
      <trkpt lat="47.09211" lon="5.25997">
        <ele>136.39999389648</ele>
        <time>2017-07-17T15:21:13Z</time>
      </trkpt>
      <trkpt lat="47.0925" lon="5.26006">
        <ele>136.60000610352</ele>
        <time>2017-07-17T15:21:21Z</time>
      </trkpt>
      <trkpt lat="47.09293" lon="5.26017">
        <ele>136.60000610352</ele>
        <time>2017-07-17T15:21:30Z</time>
      </trkpt>
      <trkpt lat="47.0933" lon="5.26027">
        <ele>136.60000610352</ele>
        <time>2017-07-17T15:21:38Z</time>
      </trkpt>
      <trkpt lat="47.09366" lon="5.26036">
        <ele>136.60000610352</ele>
        <time>2017-07-17T15:21:46Z</time>
      </trkpt>
      <trkpt lat="47.09402" lon="5.26045">
        <ele>137</ele>
        <time>2017-07-17T15:21:54Z</time>
      </trkpt>
      <trkpt lat="47.09435" lon="5.26054">
        <ele>137</ele>
        <time>2017-07-17T15:22:01Z</time>
      </trkpt>
      <trkpt lat="47.09483" lon="5.26065">
        <ele>136.80000305176</ele>
        <time>2017-07-17T15:22:11Z</time>
      </trkpt>
      <trkpt lat="47.09524" lon="5.26075">
        <ele>137</ele>
        <time>2017-07-17T15:22:20Z</time>
      </trkpt>
      <trkpt lat="47.09553" lon="5.26082">
        <ele>137</ele>
        <time>2017-07-17T15:22:27Z</time>
      </trkpt>
      <trkpt lat="47.09574" lon="5.26089">
        <ele>137</ele>
        <time>2017-07-17T15:22:32Z</time>
      </trkpt>
      <trkpt lat="47.09588" lon="5.26092">
        <ele>137.19999694824</ele>
        <time>2017-07-17T15:22:35Z</time>
      </trkpt>
      <trkpt lat="47.09592" lon="5.26093">
        <ele>137.39999389648</ele>
        <time>2017-07-17T15:22:36Z</time>
      </trkpt>
      <trkpt lat="47.09627" lon="5.26102">
        <ele>137.19999694824</ele>
        <time>2017-07-17T15:22:44Z</time>
      </trkpt>
      <trkpt lat="47.09636" lon="5.26104">
        <ele>137.19999694824</ele>
        <time>2017-07-17T15:22:46Z</time>
      </trkpt>
      <trkpt lat="47.09653" lon="5.26109">
        <ele>137.19999694824</ele>
        <time>2017-07-17T15:22:50Z</time>
      </trkpt>
      <trkpt lat="47.09657" lon="5.2611">
        <ele>137.19999694824</ele>
        <time>2017-07-17T15:22:51Z</time>
      </trkpt>
      <trkpt lat="47.09678" lon="5.26115">
        <ele>137.19999694824</ele>
        <time>2017-07-17T15:22:56Z</time>
      </trkpt>
      <trkpt lat="47.09687" lon="5.26116">
        <ele>137.19999694824</ele>
        <time>2017-07-17T15:22:58Z</time>
      </trkpt>
      <trkpt lat="47.09726" lon="5.26126">
        <ele>137.60000610352</ele>
        <time>2017-07-17T15:23:07Z</time>
      </trkpt>
      <trkpt lat="47.09762" lon="5.26136">
        <ele>137.80000305176</ele>
        <time>2017-07-17T15:23:15Z</time>
      </trkpt>
      <trkpt lat="47.09798" lon="5.26144">
        <ele>137.80000305176</ele>
        <time>2017-07-17T15:23:23Z</time>
      </trkpt>
      <trkpt lat="47.09835" lon="5.26152">
        <ele>137.80000305176</ele>
        <time>2017-07-17T15:23:31Z</time>
      </trkpt>
      <trkpt lat="47.09849" lon="5.26154">
        <ele>138</ele>
        <time>2017-07-17T15:23:34Z</time>
      </trkpt>
      <trkpt lat="47.09867" lon="5.26158">
        <ele>138</ele>
        <time>2017-07-17T15:23:38Z</time>
      </trkpt>
      <trkpt lat="47.09911" lon="5.2617">
        <ele>138</ele>
        <time>2017-07-17T15:23:48Z</time>
      </trkpt>
      <trkpt lat="47.09942" lon="5.2618">
        <ele>138</ele>
        <time>2017-07-17T15:23:55Z</time>
      </trkpt>
      <trkpt lat="47.09967" lon="5.26189">
        <ele>138</ele>
        <time>2017-07-17T15:24:02Z</time>
      </trkpt>
      <trkpt lat="47.09975" lon="5.26193">
        <ele>138.19999694824</ele>
        <time>2017-07-17T15:24:06Z</time>
      </trkpt>
      <trkpt lat="47.09976" lon="5.26195">
        <ele>138.19999694824</ele>
        <time>2017-07-17T15:24:07Z</time>
      </trkpt>
      <trkpt lat="47.09976" lon="5.26207">
        <ele>138.19999694824</ele>
        <time>2017-07-17T15:24:10Z</time>
      </trkpt>
      <trkpt lat="47.09976" lon="5.26211">
        <ele>138.39999389648</ele>
        <time>2017-07-17T15:24:11Z</time>
      </trkpt>
      <trkpt lat="47.09974" lon="5.26246">
        <ele>139</ele>
        <time>2017-07-17T15:24:19Z</time>
      </trkpt>
      <trkpt lat="47.09974" lon="5.26254">
        <ele>139.39999389648</ele>
        <time>2017-07-17T15:24:21Z</time>
      </trkpt>
      <trkpt lat="47.09972" lon="5.26272">
        <ele>140</ele>
        <time>2017-07-17T15:24:26Z</time>
      </trkpt>
      <trkpt lat="47.0997" lon="5.26289">
        <ele>140.39999389648</ele>
        <time>2017-07-17T15:24:32Z</time>
      </trkpt>
      <trkpt lat="47.0997" lon="5.26291">
        <ele>140.39999389648</ele>
        <time>2017-07-17T15:24:33Z</time>
      </trkpt>
      <trkpt lat="47.09968" lon="5.26298">
        <ele>141</ele>
        <time>2017-07-17T15:25:39Z</time>
      </trkpt>
      <trkpt lat="47.09968" lon="5.26301">
        <ele>141</ele>
        <time>2017-07-17T15:25:40Z</time>
      </trkpt>
      <trkpt lat="47.09969" lon="5.26325">
        <ele>141.19999694824</ele>
        <time>2017-07-17T15:25:45Z</time>
      </trkpt>
      <trkpt lat="47.09972" lon="5.26364">
        <ele>140.60000610352</ele>
        <time>2017-07-17T15:25:51Z</time>
      </trkpt>
      <trkpt lat="47.0997" lon="5.26431">
        <ele>139.39999389648</ele>
        <time>2017-07-17T15:25:59Z</time>
      </trkpt>
      <trkpt lat="47.0997" lon="5.26439">
        <ele>139.19999694824</ele>
        <time>2017-07-17T15:26:00Z</time>
      </trkpt>
      <trkpt lat="47.0997" lon="5.26457">
        <ele>139</ele>
        <time>2017-07-17T15:26:02Z</time>
      </trkpt>
      <trkpt lat="47.09967" lon="5.26474">
        <ele>138.60000610352</ele>
        <time>2017-07-17T15:26:04Z</time>
      </trkpt>
      <trkpt lat="47.09966" lon="5.26482">
        <ele>138.39999389648</ele>
        <time>2017-07-17T15:26:05Z</time>
      </trkpt>
      <trkpt lat="47.09964" lon="5.26497">
        <ele>138.19999694824</ele>
        <time>2017-07-17T15:26:07Z</time>
      </trkpt>
      <trkpt lat="47.09963" lon="5.26504">
        <ele>138</ele>
        <time>2017-07-17T15:26:08Z</time>
      </trkpt>
      <trkpt lat="47.09962" lon="5.26511">
        <ele>138</ele>
        <time>2017-07-17T15:26:09Z</time>
      </trkpt>
      <trkpt lat="47.09951" lon="5.26561">
        <ele>137.60000610352</ele>
        <time>2017-07-17T15:26:17Z</time>
      </trkpt>
      <trkpt lat="47.09947" lon="5.26583">
        <ele>137.60000610352</ele>
        <time>2017-07-17T15:26:22Z</time>
      </trkpt>
      <trkpt lat="47.0994" lon="5.26614">
        <ele>137.39999389648</ele>
        <time>2017-07-17T15:26:28Z</time>
      </trkpt>
      <trkpt lat="47.09935" lon="5.2666">
        <ele>137.60000610352</ele>
        <time>2017-07-17T15:26:35Z</time>
      </trkpt>
      <trkpt lat="47.09934" lon="5.26724">
        <ele>137.80000305176</ele>
        <time>2017-07-17T15:26:44Z</time>
      </trkpt>
      <trkpt lat="47.09934" lon="5.26738">
        <ele>137.80000305176</ele>
        <time>2017-07-17T15:26:46Z</time>
      </trkpt>
      <trkpt lat="47.09937" lon="5.26766">
        <ele>137.80000305176</ele>
        <time>2017-07-17T15:26:50Z</time>
      </trkpt>
      <trkpt lat="47.09943" lon="5.26828">
        <ele>137.60000610352</ele>
        <time>2017-07-17T15:26:59Z</time>
      </trkpt>
      <trkpt lat="47.0995" lon="5.2687">
        <ele>137.39999389648</ele>
        <time>2017-07-17T15:27:06Z</time>
      </trkpt>
      <trkpt lat="47.09957" lon="5.26911">
        <ele>137.39999389648</ele>
        <time>2017-07-17T15:27:13Z</time>
      </trkpt>
      <trkpt lat="47.09962" lon="5.26931">
        <ele>137.60000610352</ele>
        <time>2017-07-17T15:27:16Z</time>
      </trkpt>
      <trkpt lat="47.09964" lon="5.26944">
        <ele>137.60000610352</ele>
        <time>2017-07-17T15:27:18Z</time>
      </trkpt>
      <trkpt lat="47.09966" lon="5.26951">
        <ele>137.60000610352</ele>
        <time>2017-07-17T15:27:19Z</time>
      </trkpt>
      <trkpt lat="47.09981" lon="5.27011">
        <ele>137.60000610352</ele>
        <time>2017-07-17T15:27:28Z</time>
      </trkpt>
      <trkpt lat="47.09999" lon="5.27076">
        <ele>137.60000610352</ele>
        <time>2017-07-17T15:27:38Z</time>
      </trkpt>
      <trkpt lat="47.10009" lon="5.27117">
        <ele>137.60000610352</ele>
        <time>2017-07-17T15:27:45Z</time>
      </trkpt>
      <trkpt lat="47.10021" lon="5.27178">
        <ele>137.60000610352</ele>
        <time>2017-07-17T15:27:54Z</time>
      </trkpt>
      <trkpt lat="47.10026" lon="5.27216">
        <ele>137.60000610352</ele>
        <time>2017-07-17T15:28:00Z</time>
      </trkpt>
      <trkpt lat="47.10028" lon="5.27228">
        <ele>137.60000610352</ele>
        <time>2017-07-17T15:28:02Z</time>
      </trkpt>
      <trkpt lat="47.10031" lon="5.27247">
        <ele>137.60000610352</ele>
        <time>2017-07-17T15:28:05Z</time>
      </trkpt>
      <trkpt lat="47.10033" lon="5.27253">
        <ele>137.60000610352</ele>
        <time>2017-07-17T15:28:06Z</time>
      </trkpt>
      <trkpt lat="47.10042" lon="5.27291">
        <ele>137.60000610352</ele>
        <time>2017-07-17T15:28:12Z</time>
      </trkpt>
      <trkpt lat="47.10052" lon="5.27331">
        <ele>137.60000610352</ele>
        <time>2017-07-17T15:28:19Z</time>
      </trkpt>
      <trkpt lat="47.10057" lon="5.2736">
        <ele>137.60000610352</ele>
        <time>2017-07-17T15:28:25Z</time>
      </trkpt>
      <trkpt lat="47.10059" lon="5.27386">
        <ele>137.60000610352</ele>
        <time>2017-07-17T15:28:32Z</time>
      </trkpt>
      <trkpt lat="47.10061" lon="5.27387">
        <ele>137.39999389648</ele>
        <time>2017-07-17T15:28:37Z</time>
      </trkpt>
      <trkpt lat="47.1006" lon="5.27385">
        <ele>137</ele>
        <time>2017-07-17T15:28:43Z</time>
      </trkpt>
      <trkpt lat="47.10059" lon="5.27379">
        <ele>137</ele>
        <time>2017-07-17T15:28:45Z</time>
      </trkpt>
      <trkpt lat="47.10056" lon="5.27359">
        <ele>137</ele>
        <time>2017-07-17T15:28:49Z</time>
      </trkpt>
      <trkpt lat="47.10056" lon="5.27352">
        <ele>137</ele>
        <time>2017-07-17T15:28:50Z</time>
      </trkpt>
      <trkpt lat="47.1005" lon="5.27317">
        <ele>137</ele>
        <time>2017-07-17T15:28:55Z</time>
      </trkpt>
      <trkpt lat="47.10032" lon="5.27241">
        <ele>137.39999389648</ele>
        <time>2017-07-17T15:29:05Z</time>
      </trkpt>
      <trkpt lat="47.1003" lon="5.27233">
        <ele>137.39999389648</ele>
        <time>2017-07-17T15:29:06Z</time>
      </trkpt>
      <trkpt lat="47.10018" lon="5.27152">
        <ele>137.39999389648</ele>
        <time>2017-07-17T15:29:16Z</time>
      </trkpt>
      <trkpt lat="47.10015" lon="5.27136">
        <ele>137.39999389648</ele>
        <time>2017-07-17T15:29:18Z</time>
      </trkpt>
      <trkpt lat="47.10001" lon="5.27079">
        <ele>137.39999389648</ele>
        <time>2017-07-17T15:29:25Z</time>
      </trkpt>
      <trkpt lat="47.09986" lon="5.27021">
        <ele>137.60000610352</ele>
        <time>2017-07-17T15:29:32Z</time>
      </trkpt>
      <trkpt lat="47.09971" lon="5.26964">
        <ele>137.60000610352</ele>
        <time>2017-07-17T15:29:39Z</time>
      </trkpt>
      <trkpt lat="47.09958" lon="5.26905">
        <ele>137.60000610352</ele>
        <time>2017-07-17T15:29:46Z</time>
      </trkpt>
      <trkpt lat="47.09946" lon="5.26839">
        <ele>137.60000610352</ele>
        <time>2017-07-17T15:29:54Z</time>
      </trkpt>
      <trkpt lat="47.09938" lon="5.2678">
        <ele>137.60000610352</ele>
        <time>2017-07-17T15:30:01Z</time>
      </trkpt>
      <trkpt lat="47.09934" lon="5.26721">
        <ele>137.60000610352</ele>
        <time>2017-07-17T15:30:08Z</time>
      </trkpt>
      <trkpt lat="47.09934" lon="5.26713">
        <ele>137.60000610352</ele>
        <time>2017-07-17T15:30:09Z</time>
      </trkpt>
      <trkpt lat="47.09934" lon="5.26683">
        <ele>137.80000305176</ele>
        <time>2017-07-17T15:30:13Z</time>
      </trkpt>
      <trkpt lat="47.09936" lon="5.26643">
        <ele>137.80000305176</ele>
        <time>2017-07-17T15:30:18Z</time>
      </trkpt>
      <trkpt lat="47.09937" lon="5.26627">
        <ele>137.80000305176</ele>
        <time>2017-07-17T15:30:20Z</time>
      </trkpt>
      <trkpt lat="47.0994" lon="5.26612">
        <ele>137.80000305176</ele>
        <time>2017-07-17T15:30:22Z</time>
      </trkpt>
      <trkpt lat="47.09945" lon="5.2658">
        <ele>137.60000610352</ele>
        <time>2017-07-17T15:30:26Z</time>
      </trkpt>
      <trkpt lat="47.09953" lon="5.26535">
        <ele>137.80000305176</ele>
        <time>2017-07-17T15:30:32Z</time>
      </trkpt>
      <trkpt lat="47.09962" lon="5.26471">
        <ele>137.60000610352</ele>
        <time>2017-07-17T15:30:40Z</time>
      </trkpt>
      <trkpt lat="47.09967" lon="5.26413">
        <ele>137.80000305176</ele>
        <time>2017-07-17T15:30:48Z</time>
      </trkpt>
      <trkpt lat="47.09967" lon="5.26393">
        <ele>138.19999694824</ele>
        <time>2017-07-17T15:30:51Z</time>
      </trkpt>
      <trkpt lat="47.09967" lon="5.26387">
        <ele>138.39999389648</ele>
        <time>2017-07-17T15:30:52Z</time>
      </trkpt>
      <trkpt lat="47.09968" lon="5.26362">
        <ele>138.80000305176</ele>
        <time>2017-07-17T15:30:56Z</time>
      </trkpt>
      <trkpt lat="47.09969" lon="5.26344">
        <ele>139.39999389648</ele>
        <time>2017-07-17T15:30:59Z</time>
      </trkpt>
      <trkpt lat="47.09969" lon="5.26321">
        <ele>140</ele>
        <time>2017-07-17T15:31:03Z</time>
      </trkpt>
      <trkpt lat="47.09969" lon="5.26308">
        <ele>140.60000610352</ele>
        <time>2017-07-17T15:31:06Z</time>
      </trkpt>
      <trkpt lat="47.09971" lon="5.26303">
        <ele>140.80000305176</ele>
        <time>2017-07-17T15:31:08Z</time>
      </trkpt>
      <trkpt lat="47.09978" lon="5.26303">
        <ele>141.19999694824</ele>
        <time>2017-07-17T15:31:11Z</time>
      </trkpt>
      <trkpt lat="47.09988" lon="5.26305">
        <ele>141.60000610352</ele>
        <time>2017-07-17T15:31:14Z</time>
      </trkpt>
      <trkpt lat="47.10002" lon="5.26307">
        <ele>142.19999694824</ele>
        <time>2017-07-17T15:31:18Z</time>
      </trkpt>
      <trkpt lat="47.10017" lon="5.26309">
        <ele>142.80000305176</ele>
        <time>2017-07-17T15:31:22Z</time>
      </trkpt>
      <trkpt lat="47.10036" lon="5.26311">
        <ele>143.39999389648</ele>
        <time>2017-07-17T15:31:27Z</time>
      </trkpt>
      <trkpt lat="47.10048" lon="5.26312">
        <ele>143.80000305176</ele>
        <time>2017-07-17T15:31:30Z</time>
      </trkpt>
      <trkpt lat="47.1007" lon="5.26315">
        <ele>144.19999694824</ele>
        <time>2017-07-17T15:31:35Z</time>
      </trkpt>
      <trkpt lat="47.10111" lon="5.26319">
        <ele>144.19999694824</ele>
        <time>2017-07-17T15:31:43Z</time>
      </trkpt>
      <trkpt lat="47.1012" lon="5.26319">
        <ele>143.80000305176</ele>
        <time>2017-07-17T15:31:45Z</time>
      </trkpt>
      <trkpt lat="47.10127" lon="5.26324">
        <ele>143.19999694824</ele>
        <time>2017-07-17T15:31:47Z</time>
      </trkpt>
      <trkpt lat="47.10128" lon="5.26343">
        <ele>142.60000610352</ele>
        <time>2017-07-17T15:31:50Z</time>
      </trkpt>
      <trkpt lat="47.10127" lon="5.2635">
        <ele>142.39999389648</ele>
        <time>2017-07-17T15:31:51Z</time>
      </trkpt>
      <trkpt lat="47.10121" lon="5.26392">
        <ele>142</ele>
        <time>2017-07-17T15:31:56Z</time>
      </trkpt>
      <trkpt lat="47.10118" lon="5.26419">
        <ele>141.60000610352</ele>
        <time>2017-07-17T15:31:59Z</time>
      </trkpt>
      <trkpt lat="47.10115" lon="5.26455">
        <ele>140.80000305176</ele>
        <time>2017-07-17T15:32:03Z</time>
      </trkpt>
      <trkpt lat="47.10115" lon="5.26464">
        <ele>140.60000610352</ele>
        <time>2017-07-17T15:32:04Z</time>
      </trkpt>
      <trkpt lat="47.10111" lon="5.26512">
        <ele>139.80000305176</ele>
        <time>2017-07-17T15:32:10Z</time>
      </trkpt>
      <trkpt lat="47.10105" lon="5.26583">
        <ele>139.60000610352</ele>
        <time>2017-07-17T15:32:19Z</time>
      </trkpt>
      <trkpt lat="47.10098" lon="5.26642">
        <ele>139.60000610352</ele>
        <time>2017-07-17T15:32:27Z</time>
      </trkpt>
      <trkpt lat="47.10095" lon="5.26672">
        <ele>139.60000610352</ele>
        <time>2017-07-17T15:32:31Z</time>
      </trkpt>
      <trkpt lat="47.10098" lon="5.26694">
        <ele>139.60000610352</ele>
        <time>2017-07-17T15:32:34Z</time>
      </trkpt>
      <trkpt lat="47.10102" lon="5.26707">
        <ele>139.60000610352</ele>
        <time>2017-07-17T15:32:36Z</time>
      </trkpt>
      <trkpt lat="47.10108" lon="5.26727">
        <ele>139.80000305176</ele>
        <time>2017-07-17T15:32:39Z</time>
      </trkpt>
      <trkpt lat="47.10126" lon="5.26783">
        <ele>139.60000610352</ele>
        <time>2017-07-17T15:32:47Z</time>
      </trkpt>
      <trkpt lat="47.1013" lon="5.26797">
        <ele>139.60000610352</ele>
        <time>2017-07-17T15:32:49Z</time>
      </trkpt>
      <trkpt lat="47.10143" lon="5.26831">
        <ele>139.60000610352</ele>
        <time>2017-07-17T15:32:54Z</time>
      </trkpt>
      <trkpt lat="47.10146" lon="5.26838">
        <ele>139.60000610352</ele>
        <time>2017-07-17T15:32:55Z</time>
      </trkpt>
      <trkpt lat="47.10154" lon="5.26873">
        <ele>139.39999389648</ele>
        <time>2017-07-17T15:33:00Z</time>
      </trkpt>
      <trkpt lat="47.1015" lon="5.26896">
        <ele>139.39999389648</ele>
        <time>2017-07-17T15:33:03Z</time>
      </trkpt>
      <trkpt lat="47.10149" lon="5.26912">
        <ele>139.19999694824</ele>
        <time>2017-07-17T15:33:05Z</time>
      </trkpt>
      <trkpt lat="47.10149" lon="5.26936">
        <ele>139.19999694824</ele>
        <time>2017-07-17T15:33:08Z</time>
      </trkpt>
      <trkpt lat="47.1015" lon="5.26944">
        <ele>139.19999694824</ele>
        <time>2017-07-17T15:33:09Z</time>
      </trkpt>
      <trkpt lat="47.10163" lon="5.26997">
        <ele>139.19999694824</ele>
        <time>2017-07-17T15:33:16Z</time>
      </trkpt>
      <trkpt lat="47.10167" lon="5.27014">
        <ele>139</ele>
        <time>2017-07-17T15:33:18Z</time>
      </trkpt>
      <trkpt lat="47.10172" lon="5.2704">
        <ele>138.80000305176</ele>
        <time>2017-07-17T15:33:21Z</time>
      </trkpt>
      <trkpt lat="47.10176" lon="5.27056">
        <ele>138.60000610352</ele>
        <time>2017-07-17T15:33:23Z</time>
      </trkpt>
      <trkpt lat="47.10191" lon="5.2711">
        <ele>138</ele>
        <time>2017-07-17T15:33:30Z</time>
      </trkpt>
      <trkpt lat="47.10192" lon="5.27117">
        <ele>138</ele>
        <time>2017-07-17T15:33:31Z</time>
      </trkpt>
      <trkpt lat="47.10189" lon="5.27131">
        <ele>138</ele>
        <time>2017-07-17T15:33:33Z</time>
      </trkpt>
      <trkpt lat="47.10176" lon="5.27148">
        <ele>138</ele>
        <time>2017-07-17T15:33:37Z</time>
      </trkpt>
      <trkpt lat="47.10172" lon="5.27151">
        <ele>137.80000305176</ele>
        <time>2017-07-17T15:33:38Z</time>
      </trkpt>
      <trkpt lat="47.10164" lon="5.27159">
        <ele>137.60000610352</ele>
        <time>2017-07-17T15:33:40Z</time>
      </trkpt>
      <trkpt lat="47.1016" lon="5.27172">
        <ele>137.60000610352</ele>
        <time>2017-07-17T15:33:42Z</time>
      </trkpt>
      <trkpt lat="47.10159" lon="5.2718">
        <ele>137.60000610352</ele>
        <time>2017-07-17T15:33:43Z</time>
      </trkpt>
      <trkpt lat="47.10163" lon="5.27202">
        <ele>137.60000610352</ele>
        <time>2017-07-17T15:33:46Z</time>
      </trkpt>
      <trkpt lat="47.10174" lon="5.27262">
        <ele>137.80000305176</ele>
        <time>2017-07-17T15:33:54Z</time>
      </trkpt>
      <trkpt lat="47.10184" lon="5.27329">
        <ele>138</ele>
        <time>2017-07-17T15:34:03Z</time>
      </trkpt>
      <trkpt lat="47.10193" lon="5.27379">
        <ele>138</ele>
        <time>2017-07-17T15:34:10Z</time>
      </trkpt>
      <trkpt lat="47.10201" lon="5.27437">
        <ele>137.60000610352</ele>
        <time>2017-07-17T15:34:18Z</time>
      </trkpt>
      <trkpt lat="47.10209" lon="5.27492">
        <ele>137.80000305176</ele>
        <time>2017-07-17T15:34:26Z</time>
      </trkpt>
      <trkpt lat="47.10214" lon="5.27524">
        <ele>137.80000305176</ele>
        <time>2017-07-17T15:34:31Z</time>
      </trkpt>
      <trkpt lat="47.10215" lon="5.27541">
        <ele>138</ele>
        <time>2017-07-17T15:34:34Z</time>
      </trkpt>
      <trkpt lat="47.10221" lon="5.27567">
        <ele>137.80000305176</ele>
        <time>2017-07-17T15:34:40Z</time>
      </trkpt>
      <trkpt lat="47.10224" lon="5.27574">
        <ele>137.60000610352</ele>
        <time>2017-07-17T15:34:43Z</time>
      </trkpt>
      <trkpt lat="47.10226" lon="5.27573">
        <ele>137.60000610352</ele>
        <time>2017-07-17T15:34:44Z</time>
      </trkpt>
      <trkpt lat="47.10225" lon="5.27568">
        <ele>137.60000610352</ele>
        <time>2017-07-17T15:34:48Z</time>
      </trkpt>
      <trkpt lat="47.10222" lon="5.27573">
        <ele>138.39999389648</ele>
        <time>2017-07-17T15:43:18Z</time>
      </trkpt>
      <trkpt lat="47.10223" lon="5.27575">
        <ele>138.39999389648</ele>
        <time>2017-07-17T15:43:19Z</time>
      </trkpt>
      <trkpt lat="47.10231" lon="5.27578">
        <ele>138.60000610352</ele>
        <time>2017-07-17T15:43:23Z</time>
      </trkpt>
      <trkpt lat="47.10241" lon="5.27586">
        <ele>138.39999389648</ele>
        <time>2017-07-17T15:43:29Z</time>
      </trkpt>
      <trkpt lat="47.10243" lon="5.27595">
        <ele>138.39999389648</ele>
        <time>2017-07-17T15:43:32Z</time>
      </trkpt>
      <trkpt lat="47.10244" lon="5.27608">
        <ele>138.60000610352</ele>
        <time>2017-07-17T15:43:35Z</time>
      </trkpt>
      <trkpt lat="47.10248" lon="5.27637">
        <ele>138.80000305176</ele>
        <time>2017-07-17T15:43:42Z</time>
      </trkpt>
      <trkpt lat="47.10254" lon="5.2765">
        <ele>138.60000610352</ele>
        <time>2017-07-17T15:43:46Z</time>
      </trkpt>
      <trkpt lat="47.10256" lon="5.27651">
        <ele>138.60000610352</ele>
        <time>2017-07-17T15:43:47Z</time>
      </trkpt>
      <trkpt lat="47.10267" lon="5.27646">
        <ele>138.60000610352</ele>
        <time>2017-07-17T15:43:51Z</time>
      </trkpt>
      <trkpt lat="47.10275" lon="5.27639">
        <ele>138.39999389648</ele>
        <time>2017-07-17T15:43:56Z</time>
      </trkpt>
      <trkpt lat="47.10282" lon="5.27632">
        <ele>138.39999389648</ele>
        <time>2017-07-17T15:44:02Z</time>
      </trkpt>
      <trkpt lat="47.10283" lon="5.2763">
        <ele>138.39999389648</ele>
        <time>2017-07-17T15:44:03Z</time>
      </trkpt>
      <trkpt lat="47.10297" lon="5.2762">
        <ele>138.19999694824</ele>
        <time>2017-07-17T15:44:12Z</time>
      </trkpt>
      <trkpt lat="47.10304" lon="5.27615">
        <ele>138.19999694824</ele>
        <time>2017-07-17T15:44:17Z</time>
      </trkpt>
      <trkpt lat="47.10305" lon="5.27614">
        <ele>138.39999389648</ele>
        <time>2017-07-17T15:44:18Z</time>
      </trkpt>
      <trkpt lat="47.10307" lon="5.27607">
        <ele>138.39999389648</ele>
        <time>2017-07-17T15:44:23Z</time>
      </trkpt>
      <trkpt lat="47.10305" lon="5.27604">
        <ele>138.39999389648</ele>
        <time>2017-07-17T15:44:25Z</time>
      </trkpt>
      <trkpt lat="47.10303" lon="5.27593">
        <ele>138.39999389648</ele>
        <time>2017-07-17T15:44:30Z</time>
      </trkpt>
      <trkpt lat="47.10304" lon="5.27589">
        <ele>138.19999694824</ele>
        <time>2017-07-17T15:44:33Z</time>
      </trkpt>
      <trkpt lat="47.10306" lon="5.27592">
        <ele>138.19999694824</ele>
        <time>2017-07-17T15:44:38Z</time>
      </trkpt>
      <trkpt lat="47.10309" lon="5.27607">
        <ele>138.39999389648</ele>
        <time>2017-07-17T15:44:44Z</time>
      </trkpt>
      <trkpt lat="47.10309" lon="5.27615">
        <ele>138.39999389648</ele>
        <time>2017-07-17T15:44:49Z</time>
      </trkpt>
      <trkpt lat="47.10302" lon="5.27618">
        <ele>138.39999389648</ele>
        <time>2017-07-17T15:44:54Z</time>
      </trkpt>
      <trkpt lat="47.10289" lon="5.27627">
        <ele>138.39999389648</ele>
        <time>2017-07-17T15:45:00Z</time>
      </trkpt>
      <trkpt lat="47.10282" lon="5.27635">
        <ele>138.39999389648</ele>
        <time>2017-07-17T15:45:05Z</time>
      </trkpt>
      <trkpt lat="47.10275" lon="5.27646">
        <ele>138.19999694824</ele>
        <time>2017-07-17T15:45:11Z</time>
      </trkpt>
      <trkpt lat="47.10278" lon="5.27659">
        <ele>138.19999694824</ele>
        <time>2017-07-17T15:45:16Z</time>
      </trkpt>
      <trkpt lat="47.10282" lon="5.2767">
        <ele>138.19999694824</ele>
        <time>2017-07-17T15:45:22Z</time>
      </trkpt>
      <trkpt lat="47.10281" lon="5.2767">
        <ele>175.19999694824</ele>
        <time>2017-07-18T05:52:42Z</time>
      </trkpt>
      <trkpt lat="47.10278" lon="5.27665">
        <ele>174</ele>
        <time>2017-07-18T05:52:53Z</time>
      </trkpt>
      <trkpt lat="47.10274" lon="5.27663">
        <ele>174</ele>
        <time>2017-07-18T05:52:56Z</time>
      </trkpt>
      <trkpt lat="47.10269" lon="5.27659">
        <ele>174</ele>
        <time>2017-07-18T05:53:00Z</time>
      </trkpt>
      <trkpt lat="47.10265" lon="5.27654">
        <ele>174</ele>
        <time>2017-07-18T05:53:03Z</time>
      </trkpt>
      <trkpt lat="47.10264" lon="5.27653">
        <ele>174</ele>
        <time>2017-07-18T05:53:04Z</time>
      </trkpt>
      <trkpt lat="47.10258" lon="5.27653">
        <ele>174.19999694824</ele>
        <time>2017-07-18T05:53:08Z</time>
      </trkpt>
      <trkpt lat="47.10249" lon="5.2765">
        <ele>174.19999694824</ele>
        <time>2017-07-18T05:53:13Z</time>
      </trkpt>
      <trkpt lat="47.10249" lon="5.27648">
        <ele>174.19999694824</ele>
        <time>2017-07-18T05:53:14Z</time>
      </trkpt>
      <trkpt lat="47.10249" lon="5.27628">
        <ele>174.39999389648</ele>
        <time>2017-07-18T05:53:21Z</time>
      </trkpt>
      <trkpt lat="47.10247" lon="5.27608">
        <ele>174.39999389648</ele>
        <time>2017-07-18T05:53:27Z</time>
      </trkpt>
      <trkpt lat="47.10241" lon="5.27586">
        <ele>174.39999389648</ele>
        <time>2017-07-18T05:53:33Z</time>
      </trkpt>
      <trkpt lat="47.10227" lon="5.2758">
        <ele>174.39999389648</ele>
        <time>2017-07-18T05:53:38Z</time>
      </trkpt>
      <trkpt lat="47.10221" lon="5.27561">
        <ele>174.39999389648</ele>
        <time>2017-07-18T05:53:43Z</time>
      </trkpt>
      <trkpt lat="47.10216" lon="5.27537">
        <ele>174.19999694824</ele>
        <time>2017-07-18T05:53:50Z</time>
      </trkpt>
      <trkpt lat="47.10213" lon="5.27519">
        <ele>174.19999694824</ele>
        <time>2017-07-18T05:53:56Z</time>
      </trkpt>
      <trkpt lat="47.10211" lon="5.27503">
        <ele>174.19999694824</ele>
        <time>2017-07-18T05:54:01Z</time>
      </trkpt>
      <trkpt lat="47.1021" lon="5.27488">
        <ele>174.19999694824</ele>
        <time>2017-07-18T05:54:06Z</time>
      </trkpt>
      <trkpt lat="47.10207" lon="5.27469">
        <ele>174.19999694824</ele>
        <time>2017-07-18T05:54:11Z</time>
      </trkpt>
      <trkpt lat="47.10204" lon="5.27442">
        <ele>174.19999694824</ele>
        <time>2017-07-18T05:54:17Z</time>
      </trkpt>
      <trkpt lat="47.10197" lon="5.27406">
        <ele>174.19999694824</ele>
        <time>2017-07-18T05:54:24Z</time>
      </trkpt>
      <trkpt lat="47.10192" lon="5.27372">
        <ele>174.19999694824</ele>
        <time>2017-07-18T05:54:30Z</time>
      </trkpt>
      <trkpt lat="47.10184" lon="5.27334">
        <ele>174.19999694824</ele>
        <time>2017-07-18T05:54:37Z</time>
      </trkpt>
      <trkpt lat="47.10178" lon="5.27289">
        <ele>174.39999389648</ele>
        <time>2017-07-18T05:54:45Z</time>
      </trkpt>
      <trkpt lat="47.10172" lon="5.27242">
        <ele>174.19999694824</ele>
        <time>2017-07-18T05:54:53Z</time>
      </trkpt>
      <trkpt lat="47.10165" lon="5.27208">
        <ele>174.39999389648</ele>
        <time>2017-07-18T05:55:00Z</time>
      </trkpt>
      <trkpt lat="47.1016" lon="5.27179">
        <ele>174.39999389648</ele>
        <time>2017-07-18T05:55:06Z</time>
      </trkpt>
      <trkpt lat="47.10162" lon="5.27157">
        <ele>174.39999389648</ele>
        <time>2017-07-18T05:55:10Z</time>
      </trkpt>
      <trkpt lat="47.10165" lon="5.27153">
        <ele>174.39999389648</ele>
        <time>2017-07-18T05:55:11Z</time>
      </trkpt>
      <trkpt lat="47.10176" lon="5.27144">
        <ele>174.19999694824</ele>
        <time>2017-07-18T05:55:14Z</time>
      </trkpt>
      <trkpt lat="47.10183" lon="5.27138">
        <ele>174.19999694824</ele>
        <time>2017-07-18T05:55:16Z</time>
      </trkpt>
      <trkpt lat="47.10193" lon="5.27116">
        <ele>174.19999694824</ele>
        <time>2017-07-18T05:55:21Z</time>
      </trkpt>
      <trkpt lat="47.10188" lon="5.27094">
        <ele>174.19999694824</ele>
        <time>2017-07-18T05:55:25Z</time>
      </trkpt>
      <trkpt lat="47.10175" lon="5.2705">
        <ele>174.39999389648</ele>
        <time>2017-07-18T05:55:33Z</time>
      </trkpt>
      <trkpt lat="47.10165" lon="5.2701">
        <ele>174.39999389648</ele>
        <time>2017-07-18T05:55:40Z</time>
      </trkpt>
      <trkpt lat="47.10157" lon="5.26966">
        <ele>174.80000305176</ele>
        <time>2017-07-18T05:55:48Z</time>
      </trkpt>
      <trkpt lat="47.10152" lon="5.2695">
        <ele>175.39999389648</ele>
        <time>2017-07-18T05:55:51Z</time>
      </trkpt>
      <trkpt lat="47.10149" lon="5.26933">
        <ele>175.60000610352</ele>
        <time>2017-07-18T05:55:54Z</time>
      </trkpt>
      <trkpt lat="47.10149" lon="5.26926">
        <ele>175.60000610352</ele>
        <time>2017-07-18T05:55:55Z</time>
      </trkpt>
      <trkpt lat="47.1015" lon="5.26897">
        <ele>175.60000610352</ele>
        <time>2017-07-18T05:56:00Z</time>
      </trkpt>
      <trkpt lat="47.10151" lon="5.26892">
        <ele>175.19999694824</ele>
        <time>2017-07-18T05:57:25Z</time>
      </trkpt>
      <trkpt lat="47.10153" lon="5.26876">
        <ele>175.19999694824</ele>
        <time>2017-07-18T05:57:30Z</time>
      </trkpt>
      <trkpt lat="47.10155" lon="5.2686">
        <ele>175.19999694824</ele>
        <time>2017-07-18T05:57:34Z</time>
      </trkpt>
      <trkpt lat="47.10154" lon="5.26855">
        <ele>175.39999389648</ele>
        <time>2017-07-18T05:57:35Z</time>
      </trkpt>
      <trkpt lat="47.10148" lon="5.26842">
        <ele>175.60000610352</ele>
        <time>2017-07-18T05:57:38Z</time>
      </trkpt>
      <trkpt lat="47.10145" lon="5.26832">
        <ele>175.60000610352</ele>
        <time>2017-07-18T05:57:40Z</time>
      </trkpt>
      <trkpt lat="47.10131" lon="5.26794">
        <ele>176</ele>
        <time>2017-07-18T05:57:47Z</time>
      </trkpt>
      <trkpt lat="47.10122" lon="5.26767">
        <ele>176</ele>
        <time>2017-07-18T05:57:54Z</time>
      </trkpt>
      <trkpt lat="47.10113" lon="5.26749">
        <ele>176</ele>
        <time>2017-07-18T05:57:59Z</time>
      </trkpt>
      <trkpt lat="47.10112" lon="5.26741">
        <ele>175</ele>
        <time>2017-07-18T06:04:51Z</time>
      </trkpt>
      <trkpt lat="47.1011" lon="5.26734">
        <ele>175.19999694824</ele>
        <time>2017-07-18T06:04:55Z</time>
      </trkpt>
      <trkpt lat="47.10108" lon="5.26728">
        <ele>175.19999694824</ele>
        <time>2017-07-18T06:04:57Z</time>
      </trkpt>
      <trkpt lat="47.10102" lon="5.26707">
        <ele>175.19999694824</ele>
        <time>2017-07-18T06:05:03Z</time>
      </trkpt>
      <trkpt lat="47.10101" lon="5.267">
        <ele>175.19999694824</ele>
        <time>2017-07-18T06:05:21Z</time>
      </trkpt>
      <trkpt lat="47.10101" lon="5.26702">
        <ele>175.19999694824</ele>
        <time>2017-07-18T06:05:23Z</time>
      </trkpt>
      <trkpt lat="47.10101" lon="5.26706">
        <ele>175.19999694824</ele>
        <time>2017-07-18T06:05:25Z</time>
      </trkpt>
      <trkpt lat="47.10099" lon="5.267">
        <ele>175.19999694824</ele>
        <time>2017-07-18T06:05:46Z</time>
      </trkpt>
      <trkpt lat="47.10099" lon="5.26697">
        <ele>175.19999694824</ele>
        <time>2017-07-18T06:05:47Z</time>
      </trkpt>
      <trkpt lat="47.10094" lon="5.26688">
        <ele>175.19999694824</ele>
        <time>2017-07-18T06:05:50Z</time>
      </trkpt>
      <trkpt lat="47.10093" lon="5.26684">
        <ele>175.19999694824</ele>
        <time>2017-07-18T06:05:51Z</time>
      </trkpt>
      <trkpt lat="47.10093" lon="5.26652">
        <ele>175</ele>
        <time>2017-07-18T06:05:58Z</time>
      </trkpt>
      <trkpt lat="47.10096" lon="5.26615">
        <ele>175</ele>
        <time>2017-07-18T06:06:06Z</time>
      </trkpt>
      <trkpt lat="47.101" lon="5.26584">
        <ele>175</ele>
        <time>2017-07-18T06:06:12Z</time>
      </trkpt>
      <trkpt lat="47.10101" lon="5.26572">
        <ele>175</ele>
        <time>2017-07-18T06:06:14Z</time>
      </trkpt>
      <trkpt lat="47.10104" lon="5.26547">
        <ele>175</ele>
        <time>2017-07-18T06:06:18Z</time>
      </trkpt>
      <trkpt lat="47.10105" lon="5.26535">
        <ele>175</ele>
        <time>2017-07-18T06:06:20Z</time>
      </trkpt>
      <trkpt lat="47.10107" lon="5.2651">
        <ele>175.19999694824</ele>
        <time>2017-07-18T06:06:24Z</time>
      </trkpt>
      <trkpt lat="47.10111" lon="5.26466">
        <ele>175.19999694824</ele>
        <time>2017-07-18T06:06:31Z</time>
      </trkpt>
      <trkpt lat="47.10112" lon="5.2646">
        <ele>175.19999694824</ele>
        <time>2017-07-18T06:06:32Z</time>
      </trkpt>
      <trkpt lat="47.10117" lon="5.26419">
        <ele>175.19999694824</ele>
        <time>2017-07-18T06:06:39Z</time>
      </trkpt>
      <trkpt lat="47.10122" lon="5.26379">
        <ele>175.80000305176</ele>
        <time>2017-07-18T06:06:46Z</time>
      </trkpt>
      <trkpt lat="47.10126" lon="5.26352">
        <ele>176.39999389648</ele>
        <time>2017-07-18T06:06:51Z</time>
      </trkpt>
      <trkpt lat="47.10126" lon="5.26347">
        <ele>176.60000610352</ele>
        <time>2017-07-18T06:06:52Z</time>
      </trkpt>
      <trkpt lat="47.10131" lon="5.26329">
        <ele>177.19999694824</ele>
        <time>2017-07-18T06:06:57Z</time>
      </trkpt>
      <trkpt lat="47.10131" lon="5.26324">
        <ele>177.39999389648</ele>
        <time>2017-07-18T06:06:59Z</time>
      </trkpt>
      <trkpt lat="47.10131" lon="5.2632">
        <ele>177.60000610352</ele>
        <time>2017-07-18T06:07:02Z</time>
      </trkpt>
      <trkpt lat="47.10129" lon="5.26315">
        <ele>177.60000610352</ele>
        <time>2017-07-18T06:07:04Z</time>
      </trkpt>
      <trkpt lat="47.10124" lon="5.26313">
        <ele>177.80000305176</ele>
        <time>2017-07-18T06:07:06Z</time>
      </trkpt>
      <trkpt lat="47.1011" lon="5.26313">
        <ele>178.19999694824</ele>
        <time>2017-07-18T06:07:12Z</time>
      </trkpt>
      <trkpt lat="47.10107" lon="5.26313">
        <ele>178.39999389648</ele>
        <time>2017-07-18T06:07:13Z</time>
      </trkpt>
      <trkpt lat="47.10104" lon="5.26312">
        <ele>178.39999389648</ele>
        <time>2017-07-18T06:07:14Z</time>
      </trkpt>
      <trkpt lat="47.10086" lon="5.26309">
        <ele>179</ele>
        <time>2017-07-18T06:07:20Z</time>
      </trkpt>
      <trkpt lat="47.10064" lon="5.26306">
        <ele>179.39999389648</ele>
        <time>2017-07-18T06:07:27Z</time>
      </trkpt>
      <trkpt lat="47.10061" lon="5.26306">
        <ele>179.80000305176</ele>
        <time>2017-07-18T06:07:28Z</time>
      </trkpt>
      <trkpt lat="47.1003" lon="5.26301">
        <ele>180.39999389648</ele>
        <time>2017-07-18T06:07:36Z</time>
      </trkpt>
      <trkpt lat="47.09998" lon="5.26298">
        <ele>180.19999694824</ele>
        <time>2017-07-18T06:07:42Z</time>
      </trkpt>
      <trkpt lat="47.0997" lon="5.263">
        <ele>179.39999389648</ele>
        <time>2017-07-18T06:07:47Z</time>
      </trkpt>
      <trkpt lat="47.09968" lon="5.26307">
        <ele>179.19999694824</ele>
        <time>2017-07-18T06:07:48Z</time>
      </trkpt>
      <trkpt lat="47.09966" lon="5.26328">
        <ele>178.60000610352</ele>
        <time>2017-07-18T06:07:51Z</time>
      </trkpt>
      <trkpt lat="47.09966" lon="5.26333">
        <ele>178.19999694824</ele>
        <time>2017-07-18T06:07:52Z</time>
      </trkpt>
      <trkpt lat="47.09966" lon="5.26341">
        <ele>176.60000610352</ele>
        <time>2017-07-18T06:10:14Z</time>
      </trkpt>
      <trkpt lat="47.09968" lon="5.26353">
        <ele>176.60000610352</ele>
        <time>2017-07-18T06:10:17Z</time>
      </trkpt>
      <trkpt lat="47.09968" lon="5.26383">
        <ele>176.19999694824</ele>
        <time>2017-07-18T06:10:22Z</time>
      </trkpt>
      <trkpt lat="47.09967" lon="5.26419">
        <ele>175.60000610352</ele>
        <time>2017-07-18T06:10:27Z</time>
      </trkpt>
      <trkpt lat="47.09963" lon="5.26478">
        <ele>174.60000610352</ele>
        <time>2017-07-18T06:10:34Z</time>
      </trkpt>
      <trkpt lat="47.09962" lon="5.26487">
        <ele>174.39999389648</ele>
        <time>2017-07-18T06:10:35Z</time>
      </trkpt>
      <trkpt lat="47.09954" lon="5.26542">
        <ele>174</ele>
        <time>2017-07-18T06:10:42Z</time>
      </trkpt>
      <trkpt lat="47.09943" lon="5.26602">
        <ele>174</ele>
        <time>2017-07-18T06:10:50Z</time>
      </trkpt>
      <trkpt lat="47.09937" lon="5.26657">
        <ele>173.80000305176</ele>
        <time>2017-07-18T06:10:57Z</time>
      </trkpt>
      <trkpt lat="47.09936" lon="5.26713">
        <ele>173.80000305176</ele>
        <time>2017-07-18T06:11:04Z</time>
      </trkpt>
      <trkpt lat="47.09938" lon="5.26762">
        <ele>174</ele>
        <time>2017-07-18T06:11:10Z</time>
      </trkpt>
      <trkpt lat="47.09947" lon="5.26836">
        <ele>173.80000305176</ele>
        <time>2017-07-18T06:11:19Z</time>
      </trkpt>
      <trkpt lat="47.09958" lon="5.26899">
        <ele>173.80000305176</ele>
        <time>2017-07-18T06:11:27Z</time>
      </trkpt>
      <trkpt lat="47.09974" lon="5.26969">
        <ele>173.60000610352</ele>
        <time>2017-07-18T06:11:36Z</time>
      </trkpt>
      <trkpt lat="47.09991" lon="5.27031">
        <ele>173.60000610352</ele>
        <time>2017-07-18T06:11:44Z</time>
      </trkpt>
      <trkpt lat="47.10008" lon="5.27092">
        <ele>173.60000610352</ele>
        <time>2017-07-18T06:11:52Z</time>
      </trkpt>
      <trkpt lat="47.10021" lon="5.27147">
        <ele>173.60000610352</ele>
        <time>2017-07-18T06:11:59Z</time>
      </trkpt>
      <trkpt lat="47.10029" lon="5.27204">
        <ele>173.60000610352</ele>
        <time>2017-07-18T06:12:06Z</time>
      </trkpt>
      <trkpt lat="47.10045" lon="5.27283">
        <ele>173.60000610352</ele>
        <time>2017-07-18T06:12:16Z</time>
      </trkpt>
      <trkpt lat="47.1006" lon="5.27355">
        <ele>173.60000610352</ele>
        <time>2017-07-18T06:12:25Z</time>
      </trkpt>
      <trkpt lat="47.10064" lon="5.27412">
        <ele>173.60000610352</ele>
        <time>2017-07-18T06:12:32Z</time>
      </trkpt>
      <trkpt lat="47.10065" lon="5.27417">
        <ele>173.39999389648</ele>
        <time>2017-07-18T06:12:34Z</time>
      </trkpt>
      <trkpt lat="47.10065" lon="5.27419">
        <ele>173.19999694824</ele>
        <time>2017-07-18T06:14:53Z</time>
      </trkpt>
      <trkpt lat="47.10067" lon="5.27426">
        <ele>173.19999694824</ele>
        <time>2017-07-18T06:14:55Z</time>
      </trkpt>
      <trkpt lat="47.10069" lon="5.27452">
        <ele>173</ele>
        <time>2017-07-18T06:15:00Z</time>
      </trkpt>
      <trkpt lat="47.1007" lon="5.27465">
        <ele>173</ele>
        <time>2017-07-18T06:15:02Z</time>
      </trkpt>
      <trkpt lat="47.10073" lon="5.27492">
        <ele>173.19999694824</ele>
        <time>2017-07-18T06:15:06Z</time>
      </trkpt>
      <trkpt lat="47.10077" lon="5.27558">
        <ele>173.39999389648</ele>
        <time>2017-07-18T06:15:15Z</time>
      </trkpt>
      <trkpt lat="47.10086" lon="5.27625">
        <ele>173.39999389648</ele>
        <time>2017-07-18T06:15:24Z</time>
      </trkpt>
      <trkpt lat="47.10098" lon="5.27693">
        <ele>173.39999389648</ele>
        <time>2017-07-18T06:15:33Z</time>
      </trkpt>
      <trkpt lat="47.10119" lon="5.27769">
        <ele>173.39999389648</ele>
        <time>2017-07-18T06:15:43Z</time>
      </trkpt>
      <trkpt lat="47.10127" lon="5.27808">
        <ele>173.39999389648</ele>
        <time>2017-07-18T06:15:48Z</time>
      </trkpt>
      <trkpt lat="47.1013" lon="5.27824">
        <ele>173.39999389648</ele>
        <time>2017-07-18T06:15:50Z</time>
      </trkpt>
      <trkpt lat="47.10138" lon="5.2788">
        <ele>173.39999389648</ele>
        <time>2017-07-18T06:15:57Z</time>
      </trkpt>
      <trkpt lat="47.10149" lon="5.27961">
        <ele>173.39999389648</ele>
        <time>2017-07-18T06:16:07Z</time>
      </trkpt>
      <trkpt lat="47.1016" lon="5.2804">
        <ele>173.60000610352</ele>
        <time>2017-07-18T06:16:17Z</time>
      </trkpt>
      <trkpt lat="47.10164" lon="5.28064">
        <ele>173.39999389648</ele>
        <time>2017-07-18T06:16:20Z</time>
      </trkpt>
      <trkpt lat="47.10176" lon="5.28144">
        <ele>173.39999389648</ele>
        <time>2017-07-18T06:16:30Z</time>
      </trkpt>
      <trkpt lat="47.10178" lon="5.2816">
        <ele>173.39999389648</ele>
        <time>2017-07-18T06:16:32Z</time>
      </trkpt>
      <trkpt lat="47.1019" lon="5.28239">
        <ele>173.39999389648</ele>
        <time>2017-07-18T06:16:42Z</time>
      </trkpt>
      <trkpt lat="47.1019" lon="5.28247">
        <ele>173.39999389648</ele>
        <time>2017-07-18T06:16:43Z</time>
      </trkpt>
      <trkpt lat="47.10199" lon="5.28304">
        <ele>173.39999389648</ele>
        <time>2017-07-18T06:16:50Z</time>
      </trkpt>
      <trkpt lat="47.1021" lon="5.28387">
        <ele>173.60000610352</ele>
        <time>2017-07-18T06:17:00Z</time>
      </trkpt>
      <trkpt lat="47.10216" lon="5.28455">
        <ele>173.60000610352</ele>
        <time>2017-07-18T06:17:08Z</time>
      </trkpt>
      <trkpt lat="47.10222" lon="5.28539">
        <ele>173.60000610352</ele>
        <time>2017-07-18T06:17:18Z</time>
      </trkpt>
      <trkpt lat="47.10226" lon="5.28623">
        <ele>173.39999389648</ele>
        <time>2017-07-18T06:17:28Z</time>
      </trkpt>
      <trkpt lat="47.10223" lon="5.28684">
        <ele>173.39999389648</ele>
        <time>2017-07-18T06:17:35Z</time>
      </trkpt>
      <trkpt lat="47.10214" lon="5.28751">
        <ele>173.39999389648</ele>
        <time>2017-07-18T06:17:43Z</time>
      </trkpt>
      <trkpt lat="47.10204" lon="5.28818">
        <ele>173.60000610352</ele>
        <time>2017-07-18T06:17:51Z</time>
      </trkpt>
      <trkpt lat="47.10194" lon="5.28893">
        <ele>173.60000610352</ele>
        <time>2017-07-18T06:18:00Z</time>
      </trkpt>
      <trkpt lat="47.10186" lon="5.28962">
        <ele>173.80000305176</ele>
        <time>2017-07-18T06:18:08Z</time>
      </trkpt>
      <trkpt lat="47.10177" lon="5.2903">
        <ele>173.60000610352</ele>
        <time>2017-07-18T06:18:16Z</time>
      </trkpt>
      <trkpt lat="47.10169" lon="5.29098">
        <ele>173.60000610352</ele>
        <time>2017-07-18T06:18:24Z</time>
      </trkpt>
      <trkpt lat="47.10161" lon="5.29184">
        <ele>173.80000305176</ele>
        <time>2017-07-18T06:18:34Z</time>
      </trkpt>
      <trkpt lat="47.10155" lon="5.29262">
        <ele>173.60000610352</ele>
        <time>2017-07-18T06:18:43Z</time>
      </trkpt>
      <trkpt lat="47.10154" lon="5.29271">
        <ele>173.60000610352</ele>
        <time>2017-07-18T06:18:44Z</time>
      </trkpt>
      <trkpt lat="47.10148" lon="5.29358">
        <ele>173.80000305176</ele>
        <time>2017-07-18T06:18:54Z</time>
      </trkpt>
      <trkpt lat="47.10145" lon="5.2942">
        <ele>173.80000305176</ele>
        <time>2017-07-18T06:19:01Z</time>
      </trkpt>
      <trkpt lat="47.10143" lon="5.29501">
        <ele>173.60000610352</ele>
        <time>2017-07-18T06:19:10Z</time>
      </trkpt>
      <trkpt lat="47.10147" lon="5.29553">
        <ele>173.80000305176</ele>
        <time>2017-07-18T06:19:16Z</time>
      </trkpt>
      <trkpt lat="47.10147" lon="5.29562">
        <ele>173.80000305176</ele>
        <time>2017-07-18T06:19:17Z</time>
      </trkpt>
      <trkpt lat="47.10145" lon="5.29639">
        <ele>173.80000305176</ele>
        <time>2017-07-18T06:19:26Z</time>
      </trkpt>
      <trkpt lat="47.10145" lon="5.29664">
        <ele>173.80000305176</ele>
        <time>2017-07-18T06:19:29Z</time>
      </trkpt>
      <trkpt lat="47.10147" lon="5.29699">
        <ele>173.80000305176</ele>
        <time>2017-07-18T06:19:33Z</time>
      </trkpt>
      <trkpt lat="47.10155" lon="5.29767">
        <ele>173.60000610352</ele>
        <time>2017-07-18T06:19:41Z</time>
      </trkpt>
      <trkpt lat="47.10158" lon="5.29784">
        <ele>173.60000610352</ele>
        <time>2017-07-18T06:19:43Z</time>
      </trkpt>
      <trkpt lat="47.1017" lon="5.29825">
        <ele>173.39999389648</ele>
        <time>2017-07-18T06:19:48Z</time>
      </trkpt>
      <trkpt lat="47.10191" lon="5.29889">
        <ele>173.39999389648</ele>
        <time>2017-07-18T06:19:56Z</time>
      </trkpt>
      <trkpt lat="47.10213" lon="5.29942">
        <ele>173.39999389648</ele>
        <time>2017-07-18T06:20:03Z</time>
      </trkpt>
      <trkpt lat="47.10238" lon="5.29989">
        <ele>173.39999389648</ele>
        <time>2017-07-18T06:20:10Z</time>
      </trkpt>
      <trkpt lat="47.10261" lon="5.30027">
        <ele>173.39999389648</ele>
        <time>2017-07-18T06:20:16Z</time>
      </trkpt>
      <trkpt lat="47.10265" lon="5.30033">
        <ele>173.39999389648</ele>
        <time>2017-07-18T06:20:17Z</time>
      </trkpt>
      <trkpt lat="47.10299" lon="5.30079">
        <ele>173.39999389648</ele>
        <time>2017-07-18T06:20:25Z</time>
      </trkpt>
      <trkpt lat="47.1034" lon="5.3013">
        <ele>173.39999389648</ele>
        <time>2017-07-18T06:20:34Z</time>
      </trkpt>
      <trkpt lat="47.10381" lon="5.30181">
        <ele>173.39999389648</ele>
        <time>2017-07-18T06:20:43Z</time>
      </trkpt>
      <trkpt lat="47.10417" lon="5.30213">
        <ele>173.19999694824</ele>
        <time>2017-07-18T06:20:50Z</time>
      </trkpt>
      <trkpt lat="47.10456" lon="5.30252">
        <ele>173.19999694824</ele>
        <time>2017-07-18T06:20:58Z</time>
      </trkpt>
      <trkpt lat="47.10497" lon="5.30285">
        <ele>173.39999389648</ele>
        <time>2017-07-18T06:21:06Z</time>
      </trkpt>
      <trkpt lat="47.10502" lon="5.3029">
        <ele>173.39999389648</ele>
        <time>2017-07-18T06:21:07Z</time>
      </trkpt>
      <trkpt lat="47.10542" lon="5.30341">
        <ele>173.39999389648</ele>
        <time>2017-07-18T06:21:16Z</time>
      </trkpt>
      <trkpt lat="47.10571" lon="5.30396">
        <ele>173.39999389648</ele>
        <time>2017-07-18T06:21:24Z</time>
      </trkpt>
      <trkpt lat="47.10597" lon="5.30454">
        <ele>173.39999389648</ele>
        <time>2017-07-18T06:21:32Z</time>
      </trkpt>
      <trkpt lat="47.10624" lon="5.30517">
        <ele>173.60000610352</ele>
        <time>2017-07-18T06:21:41Z</time>
      </trkpt>
      <trkpt lat="47.10638" lon="5.30551">
        <ele>173.60000610352</ele>
        <time>2017-07-18T06:21:46Z</time>
      </trkpt>
      <trkpt lat="47.10644" lon="5.30565">
        <ele>173.60000610352</ele>
        <time>2017-07-18T06:21:48Z</time>
      </trkpt>
      <trkpt lat="47.10662" lon="5.30618">
        <ele>173.80000305176</ele>
        <time>2017-07-18T06:21:55Z</time>
      </trkpt>
      <trkpt lat="47.10675" lon="5.30666">
        <ele>173.60000610352</ele>
        <time>2017-07-18T06:22:01Z</time>
      </trkpt>
      <trkpt lat="47.10685" lon="5.30727">
        <ele>173.60000610352</ele>
        <time>2017-07-18T06:22:08Z</time>
      </trkpt>
      <trkpt lat="47.10699" lon="5.30806">
        <ele>173.39999389648</ele>
        <time>2017-07-18T06:22:17Z</time>
      </trkpt>
      <trkpt lat="47.10709" lon="5.30856">
        <ele>173.39999389648</ele>
        <time>2017-07-18T06:22:23Z</time>
      </trkpt>
      <trkpt lat="47.1072" lon="5.30931">
        <ele>173.60000610352</ele>
        <time>2017-07-18T06:22:32Z</time>
      </trkpt>
      <trkpt lat="47.10727" lon="5.30999">
        <ele>173.60000610352</ele>
        <time>2017-07-18T06:22:40Z</time>
      </trkpt>
      <trkpt lat="47.10735" lon="5.3105">
        <ele>173.80000305176</ele>
        <time>2017-07-18T06:22:46Z</time>
      </trkpt>
      <trkpt lat="47.10741" lon="5.31074">
        <ele>173.80000305176</ele>
        <time>2017-07-18T06:22:49Z</time>
      </trkpt>
      <trkpt lat="47.10751" lon="5.31128">
        <ele>174</ele>
        <time>2017-07-18T06:22:56Z</time>
      </trkpt>
      <trkpt lat="47.10762" lon="5.31191">
        <ele>174</ele>
        <time>2017-07-18T06:23:04Z</time>
      </trkpt>
      <trkpt lat="47.10763" lon="5.31234">
        <ele>174.39999389648</ele>
        <time>2017-07-18T06:23:10Z</time>
      </trkpt>
      <trkpt lat="47.10761" lon="5.31248">
        <ele>174.60000610352</ele>
        <time>2017-07-18T06:23:12Z</time>
      </trkpt>
      <trkpt lat="47.1076" lon="5.31255">
        <ele>174.60000610352</ele>
        <time>2017-07-18T06:23:13Z</time>
      </trkpt>
      <trkpt lat="47.10754" lon="5.31275">
        <ele>175.19999694824</ele>
        <time>2017-07-18T06:23:16Z</time>
      </trkpt>
      <trkpt lat="47.1075" lon="5.31294">
        <ele>175.39999389648</ele>
        <time>2017-07-18T06:23:19Z</time>
      </trkpt>
      <trkpt lat="47.10751" lon="5.31305">
        <ele>175.39999389648</ele>
        <time>2017-07-18T06:23:21Z</time>
      </trkpt>
      <trkpt lat="47.1076" lon="5.31315">
        <ele>175.39999389648</ele>
        <time>2017-07-18T06:23:24Z</time>
      </trkpt>
      <trkpt lat="47.10763" lon="5.31317">
        <ele>175.39999389648</ele>
        <time>2017-07-18T06:23:25Z</time>
      </trkpt>
      <trkpt lat="47.10768" lon="5.31324">
        <ele>175.60000610352</ele>
        <time>2017-07-18T06:23:27Z</time>
      </trkpt>
      <trkpt lat="47.10777" lon="5.31334">
        <ele>176.19999694824</ele>
        <time>2017-07-18T06:23:31Z</time>
      </trkpt>
      <trkpt lat="47.10782" lon="5.31339">
        <ele>176.80000305176</ele>
        <time>2017-07-18T06:23:34Z</time>
      </trkpt>
      <trkpt lat="47.10786" lon="5.31345">
        <ele>177</ele>
        <time>2017-07-18T06:23:37Z</time>
      </trkpt>
      <trkpt lat="47.10786" lon="5.31348">
        <ele>177</ele>
        <time>2017-07-18T06:23:38Z</time>
      </trkpt>
      <trkpt lat="47.10779" lon="5.31362">
        <ele>177</ele>
        <time>2017-07-18T06:23:42Z</time>
      </trkpt>
      <trkpt lat="47.10771" lon="5.31374">
        <ele>176.39999389648</ele>
        <time>2017-07-18T06:23:46Z</time>
      </trkpt>
      <trkpt lat="47.10769" lon="5.31376">
        <ele>175.39999389648</ele>
        <time>2017-07-18T06:24:36Z</time>
      </trkpt>
      <trkpt lat="47.10774" lon="5.31361">
        <ele>175.39999389648</ele>
        <time>2017-07-18T06:24:41Z</time>
      </trkpt>
      <trkpt lat="47.10784" lon="5.31345">
        <ele>175.80000305176</ele>
        <time>2017-07-18T06:24:47Z</time>
      </trkpt>
      <trkpt lat="47.10789" lon="5.31351">
        <ele>176.39999389648</ele>
        <time>2017-07-18T06:24:51Z</time>
      </trkpt>
      <trkpt lat="47.1079" lon="5.31356">
        <ele>176.19999694824</ele>
        <time>2017-07-18T06:25:06Z</time>
      </trkpt>
      <trkpt lat="47.1079" lon="5.3136">
        <ele>176.19999694824</ele>
        <time>2017-07-18T06:25:07Z</time>
      </trkpt>
      <trkpt lat="47.10791" lon="5.31384">
        <ele>175.80000305176</ele>
        <time>2017-07-18T06:25:13Z</time>
      </trkpt>
      <trkpt lat="47.10786" lon="5.31416">
        <ele>174.60000610352</ele>
        <time>2017-07-18T06:25:20Z</time>
      </trkpt>
      <trkpt lat="47.10786" lon="5.3143">
        <ele>174.39999389648</ele>
        <time>2017-07-18T06:25:24Z</time>
      </trkpt>
      <trkpt lat="47.10787" lon="5.31434">
        <ele>174.19999694824</ele>
        <time>2017-07-18T06:25:25Z</time>
      </trkpt>
      <trkpt lat="47.10787" lon="5.31442">
        <ele>174</ele>
        <time>2017-07-18T06:25:46Z</time>
      </trkpt>
      <trkpt lat="47.10789" lon="5.31435">
        <ele>174</ele>
        <time>2017-07-18T06:25:50Z</time>
      </trkpt>
      <trkpt lat="47.10788" lon="5.31432">
        <ele>174</ele>
        <time>2017-07-18T06:25:51Z</time>
      </trkpt>
      <trkpt lat="47.10782" lon="5.31416">
        <ele>173.80000305176</ele>
        <time>2017-07-18T06:25:56Z</time>
      </trkpt>
      <trkpt lat="47.1077" lon="5.31418">
        <ele>174</ele>
        <time>2017-07-18T06:26:00Z</time>
      </trkpt>
      <trkpt lat="47.10768" lon="5.31418">
        <ele>174</ele>
        <time>2017-07-18T06:26:01Z</time>
      </trkpt>
      <trkpt lat="47.10757" lon="5.31423">
        <ele>174.80000305176</ele>
        <time>2017-07-18T06:26:05Z</time>
      </trkpt>
      <trkpt lat="47.10755" lon="5.31426">
        <ele>174.80000305176</ele>
        <time>2017-07-18T06:26:06Z</time>
      </trkpt>
      <trkpt lat="47.10744" lon="5.31452">
        <ele>175.19999694824</ele>
        <time>2017-07-18T06:26:12Z</time>
      </trkpt>
      <trkpt lat="47.10727" lon="5.31481">
        <ele>175.19999694824</ele>
        <time>2017-07-18T06:26:18Z</time>
      </trkpt>
      <trkpt lat="47.10701" lon="5.31513">
        <ele>175.39999389648</ele>
        <time>2017-07-18T06:26:25Z</time>
      </trkpt>
      <trkpt lat="47.10697" lon="5.31517">
        <ele>175.39999389648</ele>
        <time>2017-07-18T06:26:26Z</time>
      </trkpt>
      <trkpt lat="47.10682" lon="5.3153">
        <ele>175.19999694824</ele>
        <time>2017-07-18T06:26:31Z</time>
      </trkpt>
      <trkpt lat="47.10664" lon="5.31543">
        <ele>175.19999694824</ele>
        <time>2017-07-18T06:26:37Z</time>
      </trkpt>
      <trkpt lat="47.10638" lon="5.3156">
        <ele>175.19999694824</ele>
        <time>2017-07-18T06:26:43Z</time>
      </trkpt>
      <trkpt lat="47.10599" lon="5.31576">
        <ele>175.19999694824</ele>
        <time>2017-07-18T06:26:51Z</time>
      </trkpt>
      <trkpt lat="47.10558" lon="5.31587">
        <ele>175.60000610352</ele>
        <time>2017-07-18T06:26:59Z</time>
      </trkpt>
      <trkpt lat="47.10522" lon="5.31596">
        <ele>175.80000305176</ele>
        <time>2017-07-18T06:27:07Z</time>
      </trkpt>
      <trkpt lat="47.10507" lon="5.31597">
        <ele>176.39999389648</ele>
        <time>2017-07-18T06:27:11Z</time>
      </trkpt>
      <trkpt lat="47.10494" lon="5.316">
        <ele>177</ele>
        <time>2017-07-18T06:27:14Z</time>
      </trkpt>
      <trkpt lat="47.10476" lon="5.31606">
        <ele>177.39999389648</ele>
        <time>2017-07-18T06:27:18Z</time>
      </trkpt>
      <trkpt lat="47.10463" lon="5.31612">
        <ele>177.60000610352</ele>
        <time>2017-07-18T06:27:21Z</time>
      </trkpt>
      <trkpt lat="47.1042" lon="5.31625">
        <ele>177.80000305176</ele>
        <time>2017-07-18T06:27:30Z</time>
      </trkpt>
      <trkpt lat="47.10366" lon="5.3164">
        <ele>177.60000610352</ele>
        <time>2017-07-18T06:27:40Z</time>
      </trkpt>
      <trkpt lat="47.10361" lon="5.31642">
        <ele>177.39999389648</ele>
        <time>2017-07-18T06:27:41Z</time>
      </trkpt>
      <trkpt lat="47.10307" lon="5.31656">
        <ele>177.39999389648</ele>
        <time>2017-07-18T06:27:51Z</time>
      </trkpt>
      <trkpt lat="47.10296" lon="5.31659">
        <ele>177.39999389648</ele>
        <time>2017-07-18T06:27:53Z</time>
      </trkpt>
      <trkpt lat="47.1024" lon="5.31666">
        <ele>177.39999389648</ele>
        <time>2017-07-18T06:28:03Z</time>
      </trkpt>
      <trkpt lat="47.10195" lon="5.31662">
        <ele>177.19999694824</ele>
        <time>2017-07-18T06:28:11Z</time>
      </trkpt>
      <trkpt lat="47.1019" lon="5.31662">
        <ele>177.39999389648</ele>
        <time>2017-07-18T06:28:12Z</time>
      </trkpt>
      <trkpt lat="47.10168" lon="5.31666">
        <ele>177.60000610352</ele>
        <time>2017-07-18T06:28:16Z</time>
      </trkpt>
      <trkpt lat="47.10163" lon="5.31669">
        <ele>177.60000610352</ele>
        <time>2017-07-18T06:28:17Z</time>
      </trkpt>
      <trkpt lat="47.10126" lon="5.31695">
        <ele>177.39999389648</ele>
        <time>2017-07-18T06:28:25Z</time>
      </trkpt>
      <trkpt lat="47.10109" lon="5.3172">
        <ele>177.60000610352</ele>
        <time>2017-07-18T06:28:30Z</time>
      </trkpt>
      <trkpt lat="47.10107" lon="5.31725">
        <ele>177.60000610352</ele>
        <time>2017-07-18T06:28:31Z</time>
      </trkpt>
      <trkpt lat="47.10105" lon="5.31749">
        <ele>177.80000305176</ele>
        <time>2017-07-18T06:28:35Z</time>
      </trkpt>
      <trkpt lat="47.10108" lon="5.31757">
        <ele>178</ele>
        <time>2017-07-18T06:28:37Z</time>
      </trkpt>
      <trkpt lat="47.10109" lon="5.31762">
        <ele>178.39999389648</ele>
        <time>2017-07-18T06:28:39Z</time>
      </trkpt>
      <trkpt lat="47.10109" lon="5.31765">
        <ele>178.80000305176</ele>
        <time>2017-07-18T06:28:40Z</time>
      </trkpt>
      <trkpt lat="47.10109" lon="5.31772">
        <ele>179.80000305176</ele>
        <time>2017-07-18T06:28:42Z</time>
      </trkpt>
      <trkpt lat="47.10109" lon="5.31778">
        <ele>180.19999694824</ele>
        <time>2017-07-18T06:28:44Z</time>
      </trkpt>
      <trkpt lat="47.1011" lon="5.31785">
        <ele>180.39999389648</ele>
        <time>2017-07-18T06:28:46Z</time>
      </trkpt>
      <trkpt lat="47.10114" lon="5.31792">
        <ele>180.60000610352</ele>
        <time>2017-07-18T06:28:48Z</time>
      </trkpt>
      <trkpt lat="47.10122" lon="5.31801">
        <ele>180.60000610352</ele>
        <time>2017-07-18T06:28:50Z</time>
      </trkpt>
      <trkpt lat="47.10134" lon="5.31816">
        <ele>180.19999694824</ele>
        <time>2017-07-18T06:28:53Z</time>
      </trkpt>
      <trkpt lat="47.10162" lon="5.3185">
        <ele>179</ele>
        <time>2017-07-18T06:28:59Z</time>
      </trkpt>
      <trkpt lat="47.10167" lon="5.31856">
        <ele>178.60000610352</ele>
        <time>2017-07-18T06:29:00Z</time>
      </trkpt>
      <trkpt lat="47.10194" lon="5.3189">
        <ele>177.39999389648</ele>
        <time>2017-07-18T06:29:06Z</time>
      </trkpt>
      <trkpt lat="47.10199" lon="5.31896">
        <ele>177.39999389648</ele>
        <time>2017-07-18T06:29:07Z</time>
      </trkpt>
      <trkpt lat="47.10224" lon="5.31929">
        <ele>177.39999389648</ele>
        <time>2017-07-18T06:29:13Z</time>
      </trkpt>
      <trkpt lat="47.10254" lon="5.31966">
        <ele>178.19999694824</ele>
        <time>2017-07-18T06:29:20Z</time>
      </trkpt>
      <trkpt lat="47.10292" lon="5.32008">
        <ele>178.60000610352</ele>
        <time>2017-07-18T06:29:29Z</time>
      </trkpt>
      <trkpt lat="47.10301" lon="5.32017">
        <ele>178.60000610352</ele>
        <time>2017-07-18T06:29:31Z</time>
      </trkpt>
      <trkpt lat="47.10322" lon="5.32041">
        <ele>179.80000305176</ele>
        <time>2017-07-18T06:29:36Z</time>
      </trkpt>
      <trkpt lat="47.10343" lon="5.32065">
        <ele>180</ele>
        <time>2017-07-18T06:29:41Z</time>
      </trkpt>
      <trkpt lat="47.1037" lon="5.321">
        <ele>180.39999389648</ele>
        <time>2017-07-18T06:29:48Z</time>
      </trkpt>
      <trkpt lat="47.10394" lon="5.3213">
        <ele>180.80000305176</ele>
        <time>2017-07-18T06:29:54Z</time>
      </trkpt>
      <trkpt lat="47.10398" lon="5.32135">
        <ele>180.80000305176</ele>
        <time>2017-07-18T06:29:55Z</time>
      </trkpt>
      <trkpt lat="47.10433" lon="5.3218">
        <ele>181.39999389648</ele>
        <time>2017-07-18T06:30:04Z</time>
      </trkpt>
      <trkpt lat="47.10461" lon="5.32218">
        <ele>181.60000610352</ele>
        <time>2017-07-18T06:30:11Z</time>
      </trkpt>
      <trkpt lat="47.10504" lon="5.32274">
        <ele>181.60000610352</ele>
        <time>2017-07-18T06:30:21Z</time>
      </trkpt>
      <trkpt lat="47.10535" lon="5.32317">
        <ele>181.39999389648</ele>
        <time>2017-07-18T06:30:28Z</time>
      </trkpt>
      <trkpt lat="47.10555" lon="5.32358">
        <ele>181.60000610352</ele>
        <time>2017-07-18T06:30:34Z</time>
      </trkpt>
      <trkpt lat="47.10577" lon="5.32417">
        <ele>181.60000610352</ele>
        <time>2017-07-18T06:30:42Z</time>
      </trkpt>
      <trkpt lat="47.10589" lon="5.32455">
        <ele>181.80000305176</ele>
        <time>2017-07-18T06:30:47Z</time>
      </trkpt>
      <trkpt lat="47.10598" lon="5.32485">
        <ele>182</ele>
        <time>2017-07-18T06:30:51Z</time>
      </trkpt>
      <trkpt lat="47.10611" lon="5.32529">
        <ele>182.19999694824</ele>
        <time>2017-07-18T06:30:57Z</time>
      </trkpt>
      <trkpt lat="47.10634" lon="5.32603">
        <ele>182.19999694824</ele>
        <time>2017-07-18T06:31:07Z</time>
      </trkpt>
      <trkpt lat="47.10652" lon="5.32658">
        <ele>182.39999389648</ele>
        <time>2017-07-18T06:31:14Z</time>
      </trkpt>
      <trkpt lat="47.10667" lon="5.32708">
        <ele>182.39999389648</ele>
        <time>2017-07-18T06:31:21Z</time>
      </trkpt>
      <trkpt lat="47.10673" lon="5.32727">
        <ele>182.80000305176</ele>
        <time>2017-07-18T06:31:24Z</time>
      </trkpt>
      <trkpt lat="47.10679" lon="5.3275">
        <ele>183.60000610352</ele>
        <time>2017-07-18T06:31:28Z</time>
      </trkpt>
      <trkpt lat="47.10683" lon="5.32761">
        <ele>184.19999694824</ele>
        <time>2017-07-18T06:31:30Z</time>
      </trkpt>
      <trkpt lat="47.10694" lon="5.32797">
        <ele>185.19999694824</ele>
        <time>2017-07-18T06:31:36Z</time>
      </trkpt>
      <trkpt lat="47.10695" lon="5.32803">
        <ele>185.39999389648</ele>
        <time>2017-07-18T06:31:37Z</time>
      </trkpt>
      <trkpt lat="47.107" lon="5.32815">
        <ele>185.60000610352</ele>
        <time>2017-07-18T06:31:39Z</time>
      </trkpt>
      <trkpt lat="47.10708" lon="5.3284">
        <ele>186.19999694824</ele>
        <time>2017-07-18T06:31:43Z</time>
      </trkpt>
      <trkpt lat="47.1071" lon="5.32846">
        <ele>186.39999389648</ele>
        <time>2017-07-18T06:31:44Z</time>
      </trkpt>
      <trkpt lat="47.10714" lon="5.32859">
        <ele>186.60000610352</ele>
        <time>2017-07-18T06:31:46Z</time>
      </trkpt>
      <trkpt lat="47.10721" lon="5.32885">
        <ele>186.80000305176</ele>
        <time>2017-07-18T06:31:50Z</time>
      </trkpt>
      <trkpt lat="47.10734" lon="5.32923">
        <ele>187.19999694824</ele>
        <time>2017-07-18T06:31:56Z</time>
      </trkpt>
      <trkpt lat="47.10737" lon="5.32936">
        <ele>187.39999389648</ele>
        <time>2017-07-18T06:31:58Z</time>
      </trkpt>
      <trkpt lat="47.10754" lon="5.32985">
        <ele>188.39999389648</ele>
        <time>2017-07-18T06:32:06Z</time>
      </trkpt>
      <trkpt lat="47.10759" lon="5.32996">
        <ele>188.60000610352</ele>
        <time>2017-07-18T06:32:08Z</time>
      </trkpt>
      <trkpt lat="47.10777" lon="5.33046">
        <ele>189.39999389648</ele>
        <time>2017-07-18T06:32:16Z</time>
      </trkpt>
      <trkpt lat="47.10779" lon="5.33052">
        <ele>189.39999389648</ele>
        <time>2017-07-18T06:32:17Z</time>
      </trkpt>
      <trkpt lat="47.10801" lon="5.33102">
        <ele>190</ele>
        <time>2017-07-18T06:32:25Z</time>
      </trkpt>
      <trkpt lat="47.10822" lon="5.33154">
        <ele>190.19999694824</ele>
        <time>2017-07-18T06:32:33Z</time>
      </trkpt>
      <trkpt lat="47.10831" lon="5.33173">
        <ele>190.39999389648</ele>
        <time>2017-07-18T06:32:36Z</time>
      </trkpt>
      <trkpt lat="47.10846" lon="5.33214">
        <ele>190.80000305176</ele>
        <time>2017-07-18T06:32:42Z</time>
      </trkpt>
      <trkpt lat="47.10858" lon="5.33249">
        <ele>190.80000305176</ele>
        <time>2017-07-18T06:32:47Z</time>
      </trkpt>
      <trkpt lat="47.10864" lon="5.33263">
        <ele>191</ele>
        <time>2017-07-18T06:32:49Z</time>
      </trkpt>
      <trkpt lat="47.10882" lon="5.33316">
        <ele>191</ele>
        <time>2017-07-18T06:32:56Z</time>
      </trkpt>
      <trkpt lat="47.10899" lon="5.33367">
        <ele>190.80000305176</ele>
        <time>2017-07-18T06:33:03Z</time>
      </trkpt>
      <trkpt lat="47.10908" lon="5.33396">
        <ele>191</ele>
        <time>2017-07-18T06:33:07Z</time>
      </trkpt>
      <trkpt lat="47.10911" lon="5.3341">
        <ele>191</ele>
        <time>2017-07-18T06:33:09Z</time>
      </trkpt>
      <trkpt lat="47.1092" lon="5.33446">
        <ele>191</ele>
        <time>2017-07-18T06:33:14Z</time>
      </trkpt>
      <trkpt lat="47.10922" lon="5.33453">
        <ele>191</ele>
        <time>2017-07-18T06:33:15Z</time>
      </trkpt>
      <trkpt lat="47.10936" lon="5.33506">
        <ele>190.39999389648</ele>
        <time>2017-07-18T06:33:22Z</time>
      </trkpt>
      <trkpt lat="47.1095" lon="5.33562">
        <ele>190.39999389648</ele>
        <time>2017-07-18T06:33:29Z</time>
      </trkpt>
      <trkpt lat="47.10972" lon="5.33642">
        <ele>190.19999694824</ele>
        <time>2017-07-18T06:33:39Z</time>
      </trkpt>
      <trkpt lat="47.10985" lon="5.33686">
        <ele>190.39999389648</ele>
        <time>2017-07-18T06:33:45Z</time>
      </trkpt>
      <trkpt lat="47.10988" lon="5.33694">
        <ele>190.60000610352</ele>
        <time>2017-07-18T06:33:46Z</time>
      </trkpt>
      <trkpt lat="47.11005" lon="5.33742">
        <ele>190.60000610352</ele>
        <time>2017-07-18T06:33:52Z</time>
      </trkpt>
      <trkpt lat="47.1103" lon="5.33806">
        <ele>190.19999694824</ele>
        <time>2017-07-18T06:34:00Z</time>
      </trkpt>
      <trkpt lat="47.11052" lon="5.3386">
        <ele>190.19999694824</ele>
        <time>2017-07-18T06:34:07Z</time>
      </trkpt>
      <trkpt lat="47.1108" lon="5.33923">
        <ele>189.39999389648</ele>
        <time>2017-07-18T06:34:15Z</time>
      </trkpt>
      <trkpt lat="47.11084" lon="5.3393">
        <ele>189.39999389648</ele>
        <time>2017-07-18T06:34:16Z</time>
      </trkpt>
      <trkpt lat="47.11106" lon="5.33977">
        <ele>189</ele>
        <time>2017-07-18T06:34:22Z</time>
      </trkpt>
      <trkpt lat="47.11137" lon="5.34041">
        <ele>189</ele>
        <time>2017-07-18T06:34:31Z</time>
      </trkpt>
      <trkpt lat="47.1114" lon="5.34048">
        <ele>189</ele>
        <time>2017-07-18T06:34:32Z</time>
      </trkpt>
      <trkpt lat="47.11165" lon="5.34098">
        <ele>188.80000305176</ele>
        <time>2017-07-18T06:34:39Z</time>
      </trkpt>
      <trkpt lat="47.11176" lon="5.34118">
        <ele>188.39999389648</ele>
        <time>2017-07-18T06:34:42Z</time>
      </trkpt>
      <trkpt lat="47.11192" lon="5.34151">
        <ele>188.19999694824</ele>
        <time>2017-07-18T06:34:47Z</time>
      </trkpt>
      <trkpt lat="47.11198" lon="5.34166">
        <ele>188.19999694824</ele>
        <time>2017-07-18T06:34:49Z</time>
      </trkpt>
      <trkpt lat="47.11209" lon="5.34199">
        <ele>188.19999694824</ele>
        <time>2017-07-18T06:34:53Z</time>
      </trkpt>
      <trkpt lat="47.11222" lon="5.34256">
        <ele>187.19999694824</ele>
        <time>2017-07-18T06:34:59Z</time>
      </trkpt>
      <trkpt lat="47.11224" lon="5.34266">
        <ele>187</ele>
        <time>2017-07-18T06:35:00Z</time>
      </trkpt>
      <trkpt lat="47.11235" lon="5.34324">
        <ele>186</ele>
        <time>2017-07-18T06:35:06Z</time>
      </trkpt>
      <trkpt lat="47.11244" lon="5.3437">
        <ele>185.60000610352</ele>
        <time>2017-07-18T06:35:11Z</time>
      </trkpt>
      <trkpt lat="47.11254" lon="5.34425">
        <ele>185.39999389648</ele>
        <time>2017-07-18T06:35:17Z</time>
      </trkpt>
      <trkpt lat="47.11265" lon="5.34482">
        <ele>185.60000610352</ele>
        <time>2017-07-18T06:35:24Z</time>
      </trkpt>
      <trkpt lat="47.11282" lon="5.34549">
        <ele>186.39999389648</ele>
        <time>2017-07-18T06:35:33Z</time>
      </trkpt>
      <trkpt lat="47.11298" lon="5.34609">
        <ele>186.80000305176</ele>
        <time>2017-07-18T06:35:41Z</time>
      </trkpt>
      <trkpt lat="47.11303" lon="5.34632">
        <ele>187</ele>
        <time>2017-07-18T06:35:44Z</time>
      </trkpt>
      <trkpt lat="47.11311" lon="5.34663">
        <ele>187.19999694824</ele>
        <time>2017-07-18T06:35:48Z</time>
      </trkpt>
      <trkpt lat="47.11318" lon="5.34708">
        <ele>187.39999389648</ele>
        <time>2017-07-18T06:35:54Z</time>
      </trkpt>
      <trkpt lat="47.11326" lon="5.34743">
        <ele>188</ele>
        <time>2017-07-18T06:35:59Z</time>
      </trkpt>
      <trkpt lat="47.11331" lon="5.34763">
        <ele>188.39999389648</ele>
        <time>2017-07-18T06:36:02Z</time>
      </trkpt>
      <trkpt lat="47.11333" lon="5.34769">
        <ele>188.60000610352</ele>
        <time>2017-07-18T06:36:03Z</time>
      </trkpt>
      <trkpt lat="47.11345" lon="5.34795">
        <ele>189</ele>
        <time>2017-07-18T06:36:07Z</time>
      </trkpt>
      <trkpt lat="47.11348" lon="5.34802">
        <ele>189</ele>
        <time>2017-07-18T06:36:08Z</time>
      </trkpt>
      <trkpt lat="47.11365" lon="5.34834">
        <ele>189</ele>
        <time>2017-07-18T06:36:13Z</time>
      </trkpt>
      <trkpt lat="47.11386" lon="5.34872">
        <ele>189.19999694824</ele>
        <time>2017-07-18T06:36:19Z</time>
      </trkpt>
      <trkpt lat="47.11389" lon="5.34878">
        <ele>189.19999694824</ele>
        <time>2017-07-18T06:36:20Z</time>
      </trkpt>
      <trkpt lat="47.11417" lon="5.34934">
        <ele>189.80000305176</ele>
        <time>2017-07-18T06:36:29Z</time>
      </trkpt>
      <trkpt lat="47.11448" lon="5.35001">
        <ele>190.19999694824</ele>
        <time>2017-07-18T06:36:39Z</time>
      </trkpt>
      <trkpt lat="47.11458" lon="5.35023">
        <ele>190.19999694824</ele>
        <time>2017-07-18T06:36:42Z</time>
      </trkpt>
      <trkpt lat="47.11475" lon="5.35059">
        <ele>190</ele>
        <time>2017-07-18T06:36:47Z</time>
      </trkpt>
      <trkpt lat="47.11499" lon="5.3512">
        <ele>189.80000305176</ele>
        <time>2017-07-18T06:36:55Z</time>
      </trkpt>
      <trkpt lat="47.11522" lon="5.35183">
        <ele>189.60000610352</ele>
        <time>2017-07-18T06:37:03Z</time>
      </trkpt>
      <trkpt lat="47.11536" lon="5.35231">
        <ele>189.60000610352</ele>
        <time>2017-07-18T06:37:09Z</time>
      </trkpt>
      <trkpt lat="47.11548" lon="5.35288">
        <ele>190</ele>
        <time>2017-07-18T06:37:16Z</time>
      </trkpt>
      <trkpt lat="47.11566" lon="5.35351">
        <ele>190.19999694824</ele>
        <time>2017-07-18T06:37:24Z</time>
      </trkpt>
      <trkpt lat="47.1159" lon="5.35413">
        <ele>189.80000305176</ele>
        <time>2017-07-18T06:37:32Z</time>
      </trkpt>
      <trkpt lat="47.11616" lon="5.35462">
        <ele>189.39999389648</ele>
        <time>2017-07-18T06:37:39Z</time>
      </trkpt>
      <trkpt lat="47.11623" lon="5.35476">
        <ele>189</ele>
        <time>2017-07-18T06:37:41Z</time>
      </trkpt>
      <trkpt lat="47.11637" lon="5.35506">
        <ele>188.80000305176</ele>
        <time>2017-07-18T06:37:45Z</time>
      </trkpt>
      <trkpt lat="47.11665" lon="5.35578">
        <ele>188.60000610352</ele>
        <time>2017-07-18T06:37:54Z</time>
      </trkpt>
      <trkpt lat="47.11667" lon="5.35587">
        <ele>188.39999389648</ele>
        <time>2017-07-18T06:37:55Z</time>
      </trkpt>
      <trkpt lat="47.11692" lon="5.35661">
        <ele>188.19999694824</ele>
        <time>2017-07-18T06:38:04Z</time>
      </trkpt>
      <trkpt lat="47.11695" lon="5.35669">
        <ele>188.19999694824</ele>
        <time>2017-07-18T06:38:05Z</time>
      </trkpt>
      <trkpt lat="47.11708" lon="5.35712">
        <ele>188</ele>
        <time>2017-07-18T06:38:10Z</time>
      </trkpt>
      <trkpt lat="47.11716" lon="5.35738">
        <ele>187.80000305176</ele>
        <time>2017-07-18T06:38:13Z</time>
      </trkpt>
      <trkpt lat="47.11735" lon="5.35799">
        <ele>187</ele>
        <time>2017-07-18T06:38:20Z</time>
      </trkpt>
      <trkpt lat="47.1174" lon="5.35815">
        <ele>187</ele>
        <time>2017-07-18T06:38:22Z</time>
      </trkpt>
      <trkpt lat="47.11756" lon="5.35868">
        <ele>186.80000305176</ele>
        <time>2017-07-18T06:38:29Z</time>
      </trkpt>
      <trkpt lat="47.11771" lon="5.35918">
        <ele>186.19999694824</ele>
        <time>2017-07-18T06:38:35Z</time>
      </trkpt>
      <trkpt lat="47.11773" lon="5.35927">
        <ele>186.19999694824</ele>
        <time>2017-07-18T06:38:36Z</time>
      </trkpt>
      <trkpt lat="47.11775" lon="5.35937">
        <ele>186</ele>
        <time>2017-07-18T06:38:37Z</time>
      </trkpt>
      <trkpt lat="47.11775" lon="5.35956">
        <ele>185.60000610352</ele>
        <time>2017-07-18T06:38:39Z</time>
      </trkpt>
      <trkpt lat="47.11775" lon="5.35966">
        <ele>185.60000610352</ele>
        <time>2017-07-18T06:38:40Z</time>
      </trkpt>
      <trkpt lat="47.11774" lon="5.35975">
        <ele>185.39999389648</ele>
        <time>2017-07-18T06:38:41Z</time>
      </trkpt>
      <trkpt lat="47.1177" lon="5.35994">
        <ele>184.80000305176</ele>
        <time>2017-07-18T06:38:43Z</time>
      </trkpt>
      <trkpt lat="47.11772" lon="5.36024">
        <ele>184.60000610352</ele>
        <time>2017-07-18T06:38:46Z</time>
      </trkpt>
      <trkpt lat="47.11774" lon="5.36033">
        <ele>184.60000610352</ele>
        <time>2017-07-18T06:38:47Z</time>
      </trkpt>
      <trkpt lat="47.11779" lon="5.36053">
        <ele>184.39999389648</ele>
        <time>2017-07-18T06:38:49Z</time>
      </trkpt>
      <trkpt lat="47.11785" lon="5.36072">
        <ele>184.19999694824</ele>
        <time>2017-07-18T06:38:51Z</time>
      </trkpt>
      <trkpt lat="47.11791" lon="5.36091">
        <ele>183.80000305176</ele>
        <time>2017-07-18T06:38:53Z</time>
      </trkpt>
      <trkpt lat="47.11803" lon="5.36128">
        <ele>183.19999694824</ele>
        <time>2017-07-18T06:38:57Z</time>
      </trkpt>
      <trkpt lat="47.11811" lon="5.36154">
        <ele>182.60000610352</ele>
        <time>2017-07-18T06:39:00Z</time>
      </trkpt>
      <trkpt lat="47.11824" lon="5.362">
        <ele>182</ele>
        <time>2017-07-18T06:39:05Z</time>
      </trkpt>
      <trkpt lat="47.1183" lon="5.36219">
        <ele>181.39999389648</ele>
        <time>2017-07-18T06:39:07Z</time>
      </trkpt>
      <trkpt lat="47.11841" lon="5.36261">
        <ele>181</ele>
        <time>2017-07-18T06:39:12Z</time>
      </trkpt>
      <trkpt lat="47.11846" lon="5.3628">
        <ele>181.60000610352</ele>
        <time>2017-07-18T06:39:16Z</time>
      </trkpt>
      <trkpt lat="47.11847" lon="5.36281">
        <ele>182.19999694824</ele>
        <time>2017-07-18T06:40:55Z</time>
      </trkpt>
      <trkpt lat="47.11848" lon="5.36282">
        <ele>182.19999694824</ele>
        <time>2017-07-18T06:40:56Z</time>
      </trkpt>
      <trkpt lat="47.1185" lon="5.36287">
        <ele>182.19999694824</ele>
        <time>2017-07-18T06:40:58Z</time>
      </trkpt>
      <trkpt lat="47.11852" lon="5.36297">
        <ele>182.19999694824</ele>
        <time>2017-07-18T06:41:01Z</time>
      </trkpt>
      <trkpt lat="47.11856" lon="5.3631">
        <ele>182.39999389648</ele>
        <time>2017-07-18T06:41:04Z</time>
      </trkpt>
      <trkpt lat="47.11861" lon="5.36323">
        <ele>182.80000305176</ele>
        <time>2017-07-18T06:41:07Z</time>
      </trkpt>
      <trkpt lat="47.11873" lon="5.36351">
        <ele>183.39999389648</ele>
        <time>2017-07-18T06:41:13Z</time>
      </trkpt>
      <trkpt lat="47.11876" lon="5.36355">
        <ele>183.60000610352</ele>
        <time>2017-07-18T06:41:14Z</time>
      </trkpt>
      <trkpt lat="47.11893" lon="5.36374">
        <ele>184</ele>
        <time>2017-07-18T06:41:19Z</time>
      </trkpt>
      <trkpt lat="47.11909" lon="5.36388">
        <ele>184.60000610352</ele>
        <time>2017-07-18T06:41:23Z</time>
      </trkpt>
      <trkpt lat="47.11929" lon="5.36407">
        <ele>185</ele>
        <time>2017-07-18T06:41:28Z</time>
      </trkpt>
      <trkpt lat="47.11943" lon="5.36423">
        <ele>185.60000610352</ele>
        <time>2017-07-18T06:41:32Z</time>
      </trkpt>
      <trkpt lat="47.11963" lon="5.36448">
        <ele>186.39999389648</ele>
        <time>2017-07-18T06:41:38Z</time>
      </trkpt>
      <trkpt lat="47.11969" lon="5.36456">
        <ele>186.60000610352</ele>
        <time>2017-07-18T06:41:40Z</time>
      </trkpt>
      <trkpt lat="47.11985" lon="5.36479">
        <ele>187.19999694824</ele>
        <time>2017-07-18T06:41:45Z</time>
      </trkpt>
      <trkpt lat="47.11992" lon="5.36489">
        <ele>187.39999389648</ele>
        <time>2017-07-18T06:41:47Z</time>
      </trkpt>
      <trkpt lat="47.12017" lon="5.36525">
        <ele>187.60000610352</ele>
        <time>2017-07-18T06:41:54Z</time>
      </trkpt>
      <trkpt lat="47.12049" lon="5.36572">
        <ele>186.60000610352</ele>
        <time>2017-07-18T06:42:01Z</time>
      </trkpt>
      <trkpt lat="47.12069" lon="5.36607">
        <ele>185.39999389648</ele>
        <time>2017-07-18T06:42:05Z</time>
      </trkpt>
      <trkpt lat="47.12079" lon="5.36627">
        <ele>184.60000610352</ele>
        <time>2017-07-18T06:42:07Z</time>
      </trkpt>
      <trkpt lat="47.12084" lon="5.36637">
        <ele>184.19999694824</ele>
        <time>2017-07-18T06:42:08Z</time>
      </trkpt>
      <trkpt lat="47.12098" lon="5.36667">
        <ele>183.19999694824</ele>
        <time>2017-07-18T06:42:11Z</time>
      </trkpt>
      <trkpt lat="47.12106" lon="5.36688">
        <ele>182.39999389648</ele>
        <time>2017-07-18T06:42:13Z</time>
      </trkpt>
      <trkpt lat="47.12113" lon="5.3671">
        <ele>182</ele>
        <time>2017-07-18T06:42:15Z</time>
      </trkpt>
      <trkpt lat="47.12124" lon="5.36754">
        <ele>181.39999389648</ele>
        <time>2017-07-18T06:42:19Z</time>
      </trkpt>
      <trkpt lat="47.12126" lon="5.36786">
        <ele>181</ele>
        <time>2017-07-18T06:42:22Z</time>
      </trkpt>
      <trkpt lat="47.12127" lon="5.36796">
        <ele>180.80000305176</ele>
        <time>2017-07-18T06:42:23Z</time>
      </trkpt>
      <trkpt lat="47.12123" lon="5.3684">
        <ele>181</ele>
        <time>2017-07-18T06:42:28Z</time>
      </trkpt>
      <trkpt lat="47.12118" lon="5.36868">
        <ele>181.60000610352</ele>
        <time>2017-07-18T06:42:33Z</time>
      </trkpt>
      <trkpt lat="47.12118" lon="5.36872">
        <ele>181.60000610352</ele>
        <time>2017-07-18T06:42:34Z</time>
      </trkpt>
      <trkpt lat="47.12121" lon="5.3688">
        <ele>181.80000305176</ele>
        <time>2017-07-18T06:42:36Z</time>
      </trkpt>
      <trkpt lat="47.12123" lon="5.36884">
        <ele>182</ele>
        <time>2017-07-18T06:42:37Z</time>
      </trkpt>
      <trkpt lat="47.12126" lon="5.36894">
        <ele>182.39999389648</ele>
        <time>2017-07-18T06:42:40Z</time>
      </trkpt>
      <trkpt lat="47.12126" lon="5.36896">
        <ele>182.80000305176</ele>
        <time>2017-07-18T06:42:41Z</time>
      </trkpt>
      <trkpt lat="47.12129" lon="5.36906">
        <ele>183</ele>
        <time>2017-07-18T06:42:44Z</time>
      </trkpt>
      <trkpt lat="47.12131" lon="5.36915">
        <ele>183.19999694824</ele>
        <time>2017-07-18T06:42:46Z</time>
      </trkpt>
      <trkpt lat="47.12138" lon="5.36946">
        <ele>184</ele>
        <time>2017-07-18T06:42:52Z</time>
      </trkpt>
      <trkpt lat="47.12141" lon="5.36956">
        <ele>184.39999389648</ele>
        <time>2017-07-18T06:42:54Z</time>
      </trkpt>
      <trkpt lat="47.12147" lon="5.36979">
        <ele>185.19999694824</ele>
        <time>2017-07-18T06:42:59Z</time>
      </trkpt>
      <trkpt lat="47.1215" lon="5.36991">
        <ele>185.60000610352</ele>
        <time>2017-07-18T06:43:01Z</time>
      </trkpt>
      <trkpt lat="47.12152" lon="5.37003">
        <ele>186</ele>
        <time>2017-07-18T06:43:03Z</time>
      </trkpt>
      <trkpt lat="47.12154" lon="5.37016">
        <ele>186.19999694824</ele>
        <time>2017-07-18T06:43:05Z</time>
      </trkpt>
      <trkpt lat="47.1216" lon="5.3705">
        <ele>187</ele>
        <time>2017-07-18T06:43:10Z</time>
      </trkpt>
      <trkpt lat="47.12175" lon="5.37102">
        <ele>187</ele>
        <time>2017-07-18T06:43:17Z</time>
      </trkpt>
      <trkpt lat="47.12181" lon="5.37116">
        <ele>186.80000305176</ele>
        <time>2017-07-18T06:43:19Z</time>
      </trkpt>
      <trkpt lat="47.12196" lon="5.3713">
        <ele>186.60000610352</ele>
        <time>2017-07-18T06:43:22Z</time>
      </trkpt>
      <trkpt lat="47.12225" lon="5.37156">
        <ele>186.19999694824</ele>
        <time>2017-07-18T06:43:28Z</time>
      </trkpt>
      <trkpt lat="47.12258" lon="5.37192">
        <ele>186.39999389648</ele>
        <time>2017-07-18T06:43:35Z</time>
      </trkpt>
      <trkpt lat="47.12285" lon="5.37235">
        <ele>186.39999389648</ele>
        <time>2017-07-18T06:43:42Z</time>
      </trkpt>
      <trkpt lat="47.12308" lon="5.37276">
        <ele>186.80000305176</ele>
        <time>2017-07-18T06:43:49Z</time>
      </trkpt>
      <trkpt lat="47.12319" lon="5.37297">
        <ele>187.39999389648</ele>
        <time>2017-07-18T06:43:53Z</time>
      </trkpt>
      <trkpt lat="47.12325" lon="5.37314">
        <ele>188</ele>
        <time>2017-07-18T06:43:56Z</time>
      </trkpt>
      <trkpt lat="47.12331" lon="5.37325">
        <ele>188.60000610352</ele>
        <time>2017-07-18T06:43:58Z</time>
      </trkpt>
      <trkpt lat="47.12335" lon="5.37338">
        <ele>189</ele>
        <time>2017-07-18T06:44:00Z</time>
      </trkpt>
      <trkpt lat="47.12339" lon="5.37351">
        <ele>189.39999389648</ele>
        <time>2017-07-18T06:44:02Z</time>
      </trkpt>
      <trkpt lat="47.12342" lon="5.37357">
        <ele>189.60000610352</ele>
        <time>2017-07-18T06:44:03Z</time>
      </trkpt>
      <trkpt lat="47.12345" lon="5.37363">
        <ele>189.60000610352</ele>
        <time>2017-07-18T06:44:04Z</time>
      </trkpt>
      <trkpt lat="47.12357" lon="5.37395">
        <ele>190.19999694824</ele>
        <time>2017-07-18T06:44:09Z</time>
      </trkpt>
      <trkpt lat="47.12379" lon="5.37441">
        <ele>190.39999389648</ele>
        <time>2017-07-18T06:44:16Z</time>
      </trkpt>
      <trkpt lat="47.12404" lon="5.37478">
        <ele>190</ele>
        <time>2017-07-18T06:44:22Z</time>
      </trkpt>
      <trkpt lat="47.12441" lon="5.3752">
        <ele>190</ele>
        <time>2017-07-18T06:44:30Z</time>
      </trkpt>
      <trkpt lat="47.12474" lon="5.37545">
        <ele>190.39999389648</ele>
        <time>2017-07-18T06:44:37Z</time>
      </trkpt>
      <trkpt lat="47.12496" lon="5.37552">
        <ele>190.80000305176</ele>
        <time>2017-07-18T06:44:41Z</time>
      </trkpt>
      <trkpt lat="47.12507" lon="5.37555">
        <ele>190.80000305176</ele>
        <time>2017-07-18T06:44:43Z</time>
      </trkpt>
      <trkpt lat="47.12561" lon="5.37564">
        <ele>191</ele>
        <time>2017-07-18T06:44:52Z</time>
      </trkpt>
      <trkpt lat="47.12567" lon="5.37565">
        <ele>191</ele>
        <time>2017-07-18T06:44:53Z</time>
      </trkpt>
      <trkpt lat="47.12604" lon="5.3757">
        <ele>191</ele>
        <time>2017-07-18T06:44:59Z</time>
      </trkpt>
      <trkpt lat="47.12659" lon="5.37576">
        <ele>191</ele>
        <time>2017-07-18T06:45:08Z</time>
      </trkpt>
      <trkpt lat="47.12707" lon="5.37582">
        <ele>190.80000305176</ele>
        <time>2017-07-18T06:45:16Z</time>
      </trkpt>
      <trkpt lat="47.12752" lon="5.37592">
        <ele>190.60000610352</ele>
        <time>2017-07-18T06:45:23Z</time>
      </trkpt>
      <trkpt lat="47.12796" lon="5.37614">
        <ele>190.39999389648</ele>
        <time>2017-07-18T06:45:30Z</time>
      </trkpt>
      <trkpt lat="47.12851" lon="5.37646">
        <ele>190</ele>
        <time>2017-07-18T06:45:39Z</time>
      </trkpt>
      <trkpt lat="47.12894" lon="5.37673">
        <ele>189.80000305176</ele>
        <time>2017-07-18T06:45:46Z</time>
      </trkpt>
      <trkpt lat="47.12906" lon="5.37678">
        <ele>189.60000610352</ele>
        <time>2017-07-18T06:45:48Z</time>
      </trkpt>
      <trkpt lat="47.12925" lon="5.3769">
        <ele>189.39999389648</ele>
        <time>2017-07-18T06:45:51Z</time>
      </trkpt>
      <trkpt lat="47.12964" lon="5.37713">
        <ele>189.19999694824</ele>
        <time>2017-07-18T06:45:57Z</time>
      </trkpt>
      <trkpt lat="47.12998" lon="5.37733">
        <ele>188.60000610352</ele>
        <time>2017-07-18T06:46:02Z</time>
      </trkpt>
      <trkpt lat="47.13012" lon="5.37741">
        <ele>188.19999694824</ele>
        <time>2017-07-18T06:46:04Z</time>
      </trkpt>
      <trkpt lat="47.13034" lon="5.37754">
        <ele>187.60000610352</ele>
        <time>2017-07-18T06:46:07Z</time>
      </trkpt>
      <trkpt lat="47.13063" lon="5.37769">
        <ele>186.60000610352</ele>
        <time>2017-07-18T06:46:11Z</time>
      </trkpt>
      <trkpt lat="47.13071" lon="5.37773">
        <ele>186.39999389648</ele>
        <time>2017-07-18T06:46:12Z</time>
      </trkpt>
      <trkpt lat="47.1311" lon="5.37796">
        <ele>185.19999694824</ele>
        <time>2017-07-18T06:46:17Z</time>
      </trkpt>
      <trkpt lat="47.13118" lon="5.37801">
        <ele>184.80000305176</ele>
        <time>2017-07-18T06:46:18Z</time>
      </trkpt>
      <trkpt lat="47.13144" lon="5.37815">
        <ele>184</ele>
        <time>2017-07-18T06:46:21Z</time>
      </trkpt>
      <trkpt lat="47.13177" lon="5.37832">
        <ele>182.80000305176</ele>
        <time>2017-07-18T06:46:25Z</time>
      </trkpt>
      <trkpt lat="47.13185" lon="5.37836">
        <ele>182.60000610352</ele>
        <time>2017-07-18T06:46:26Z</time>
      </trkpt>
      <trkpt lat="47.13232" lon="5.37863">
        <ele>182.80000305176</ele>
        <time>2017-07-18T06:46:33Z</time>
      </trkpt>
      <trkpt lat="47.13287" lon="5.37894">
        <ele>183.19999694824</ele>
        <time>2017-07-18T06:46:42Z</time>
      </trkpt>
      <trkpt lat="47.13342" lon="5.37926">
        <ele>182.60000610352</ele>
        <time>2017-07-18T06:46:51Z</time>
      </trkpt>
      <trkpt lat="47.13348" lon="5.3793">
        <ele>182.60000610352</ele>
        <time>2017-07-18T06:46:52Z</time>
      </trkpt>
      <trkpt lat="47.1339" lon="5.37954">
        <ele>181.80000305176</ele>
        <time>2017-07-18T06:46:58Z</time>
      </trkpt>
      <trkpt lat="47.13398" lon="5.37958">
        <ele>181.60000610352</ele>
        <time>2017-07-18T06:46:59Z</time>
      </trkpt>
      <trkpt lat="47.13428" lon="5.37976">
        <ele>180.60000610352</ele>
        <time>2017-07-18T06:47:03Z</time>
      </trkpt>
      <trkpt lat="47.13469" lon="5.37999">
        <ele>179.39999389648</ele>
        <time>2017-07-18T06:47:08Z</time>
      </trkpt>
      <trkpt lat="47.13493" lon="5.38012">
        <ele>178.39999389648</ele>
        <time>2017-07-18T06:47:11Z</time>
      </trkpt>
      <trkpt lat="47.13534" lon="5.38036">
        <ele>177.19999694824</ele>
        <time>2017-07-18T06:47:16Z</time>
      </trkpt>
      <trkpt lat="47.13557" lon="5.38047">
        <ele>176.60000610352</ele>
        <time>2017-07-18T06:47:19Z</time>
      </trkpt>
      <trkpt lat="47.13597" lon="5.3807">
        <ele>176.60000610352</ele>
        <time>2017-07-18T06:47:25Z</time>
      </trkpt>
      <trkpt lat="47.13638" lon="5.38096">
        <ele>176.80000305176</ele>
        <time>2017-07-18T06:47:32Z</time>
      </trkpt>
      <trkpt lat="47.13672" lon="5.38121">
        <ele>177.60000610352</ele>
        <time>2017-07-18T06:47:39Z</time>
      </trkpt>
      <trkpt lat="47.13685" lon="5.38132">
        <ele>178.39999389648</ele>
        <time>2017-07-18T06:47:42Z</time>
      </trkpt>
      <trkpt lat="47.13703" lon="5.38146">
        <ele>179.19999694824</ele>
        <time>2017-07-18T06:47:46Z</time>
      </trkpt>
      <trkpt lat="47.13707" lon="5.38149">
        <ele>179.39999389648</ele>
        <time>2017-07-18T06:47:47Z</time>
      </trkpt>
      <trkpt lat="47.13733" lon="5.38168">
        <ele>180.19999694824</ele>
        <time>2017-07-18T06:47:53Z</time>
      </trkpt>
      <trkpt lat="47.13742" lon="5.38175">
        <ele>180.39999389648</ele>
        <time>2017-07-18T06:47:55Z</time>
      </trkpt>
      <trkpt lat="47.13768" lon="5.38192">
        <ele>181.60000610352</ele>
        <time>2017-07-18T06:48:01Z</time>
      </trkpt>
      <trkpt lat="47.13794" lon="5.38209">
        <ele>182.19999694824</ele>
        <time>2017-07-18T06:48:07Z</time>
      </trkpt>
      <trkpt lat="47.13827" lon="5.3823">
        <ele>182.60000610352</ele>
        <time>2017-07-18T06:48:14Z</time>
      </trkpt>
      <trkpt lat="47.13858" lon="5.38251">
        <ele>183.39999389648</ele>
        <time>2017-07-18T06:48:21Z</time>
      </trkpt>
      <trkpt lat="47.13862" lon="5.38254">
        <ele>183.60000610352</ele>
        <time>2017-07-18T06:48:22Z</time>
      </trkpt>
      <trkpt lat="47.1389" lon="5.38276">
        <ele>184</ele>
        <time>2017-07-18T06:48:28Z</time>
      </trkpt>
      <trkpt lat="47.13898" lon="5.38284">
        <ele>184.19999694824</ele>
        <time>2017-07-18T06:48:30Z</time>
      </trkpt>
      <trkpt lat="47.13914" lon="5.38301">
        <ele>184.39999389648</ele>
        <time>2017-07-18T06:48:34Z</time>
      </trkpt>
      <trkpt lat="47.13922" lon="5.38309">
        <ele>184.60000610352</ele>
        <time>2017-07-18T06:48:36Z</time>
      </trkpt>
      <trkpt lat="47.13935" lon="5.38326">
        <ele>185.39999389648</ele>
        <time>2017-07-18T06:48:40Z</time>
      </trkpt>
      <trkpt lat="47.13942" lon="5.38335">
        <ele>185.80000305176</ele>
        <time>2017-07-18T06:48:42Z</time>
      </trkpt>
      <trkpt lat="47.13956" lon="5.38353">
        <ele>186.39999389648</ele>
        <time>2017-07-18T06:48:46Z</time>
      </trkpt>
      <trkpt lat="47.13962" lon="5.38363">
        <ele>186.60000610352</ele>
        <time>2017-07-18T06:48:48Z</time>
      </trkpt>
      <trkpt lat="47.13969" lon="5.38372">
        <ele>186.80000305176</ele>
        <time>2017-07-18T06:48:50Z</time>
      </trkpt>
      <trkpt lat="47.13986" lon="5.38393">
        <ele>187.60000610352</ele>
        <time>2017-07-18T06:48:55Z</time>
      </trkpt>
      <trkpt lat="47.13993" lon="5.38401">
        <ele>187.80000305176</ele>
        <time>2017-07-18T06:48:57Z</time>
      </trkpt>
      <trkpt lat="47.13997" lon="5.38406">
        <ele>187.80000305176</ele>
        <time>2017-07-18T06:48:58Z</time>
      </trkpt>
      <trkpt lat="47.14018" lon="5.38427">
        <ele>188.19999694824</ele>
        <time>2017-07-18T06:49:03Z</time>
      </trkpt>
      <trkpt lat="47.14049" lon="5.3846">
        <ele>188.19999694824</ele>
        <time>2017-07-18T06:49:11Z</time>
      </trkpt>
      <trkpt lat="47.14068" lon="5.38478">
        <ele>188.60000610352</ele>
        <time>2017-07-18T06:49:16Z</time>
      </trkpt>
      <trkpt lat="47.14075" lon="5.38486">
        <ele>188.60000610352</ele>
        <time>2017-07-18T06:49:18Z</time>
      </trkpt>
      <trkpt lat="47.14107" lon="5.38513">
        <ele>188.60000610352</ele>
        <time>2017-07-18T06:49:26Z</time>
      </trkpt>
      <trkpt lat="47.14139" lon="5.38535">
        <ele>188.60000610352</ele>
        <time>2017-07-18T06:49:33Z</time>
      </trkpt>
      <trkpt lat="47.14177" lon="5.38559">
        <ele>188</ele>
        <time>2017-07-18T06:49:40Z</time>
      </trkpt>
      <trkpt lat="47.14223" lon="5.38587">
        <ele>186.60000610352</ele>
        <time>2017-07-18T06:49:47Z</time>
      </trkpt>
      <trkpt lat="47.14252" lon="5.38604">
        <ele>185.19999694824</ele>
        <time>2017-07-18T06:49:51Z</time>
      </trkpt>
      <trkpt lat="47.14274" lon="5.38618">
        <ele>183.80000305176</ele>
        <time>2017-07-18T06:49:54Z</time>
      </trkpt>
      <trkpt lat="47.14281" lon="5.38622">
        <ele>183.39999389648</ele>
        <time>2017-07-18T06:49:55Z</time>
      </trkpt>
      <trkpt lat="47.14304" lon="5.38637">
        <ele>182.19999694824</ele>
        <time>2017-07-18T06:49:58Z</time>
      </trkpt>
      <trkpt lat="47.14332" lon="5.38656">
        <ele>181.19999694824</ele>
        <time>2017-07-18T06:50:02Z</time>
      </trkpt>
      <trkpt lat="47.14339" lon="5.38661">
        <ele>181</ele>
        <time>2017-07-18T06:50:03Z</time>
      </trkpt>
      <trkpt lat="47.14378" lon="5.38686">
        <ele>180.19999694824</ele>
        <time>2017-07-18T06:50:09Z</time>
      </trkpt>
      <trkpt lat="47.14384" lon="5.3869">
        <ele>180</ele>
        <time>2017-07-18T06:50:10Z</time>
      </trkpt>
      <trkpt lat="47.14421" lon="5.38713">
        <ele>179.39999389648</ele>
        <time>2017-07-18T06:50:16Z</time>
      </trkpt>
      <trkpt lat="47.14445" lon="5.38729">
        <ele>178.80000305176</ele>
        <time>2017-07-18T06:50:20Z</time>
      </trkpt>
      <trkpt lat="47.14465" lon="5.38739">
        <ele>178.19999694824</ele>
        <time>2017-07-18T06:50:23Z</time>
      </trkpt>
      <trkpt lat="47.14516" lon="5.38767">
        <ele>177.80000305176</ele>
        <time>2017-07-18T06:50:31Z</time>
      </trkpt>
      <trkpt lat="47.14522" lon="5.38772">
        <ele>177.60000610352</ele>
        <time>2017-07-18T06:50:32Z</time>
      </trkpt>
      <trkpt lat="47.14528" lon="5.38775">
        <ele>177.60000610352</ele>
        <time>2017-07-18T06:50:33Z</time>
      </trkpt>
      <trkpt lat="47.14545" lon="5.38788">
        <ele>177.39999389648</ele>
        <time>2017-07-18T06:50:36Z</time>
      </trkpt>
      <trkpt lat="47.14574" lon="5.38812">
        <ele>177.19999694824</ele>
        <time>2017-07-18T06:50:42Z</time>
      </trkpt>
      <trkpt lat="47.14587" lon="5.38818">
        <ele>177</ele>
        <time>2017-07-18T06:50:46Z</time>
      </trkpt>
      <trkpt lat="47.14594" lon="5.38803">
        <ele>176.80000305176</ele>
        <time>2017-07-18T06:50:49Z</time>
      </trkpt>
      <trkpt lat="47.14596" lon="5.38796">
        <ele>176.60000610352</ele>
        <time>2017-07-18T06:50:50Z</time>
      </trkpt>
      <trkpt lat="47.14606" lon="5.38771">
        <ele>176.19999694824</ele>
        <time>2017-07-18T06:50:54Z</time>
      </trkpt>
      <trkpt lat="47.14609" lon="5.38763">
        <ele>176.19999694824</ele>
        <time>2017-07-18T06:50:55Z</time>
      </trkpt>
      <trkpt lat="47.14619" lon="5.38733">
        <ele>176</ele>
        <time>2017-07-18T06:50:59Z</time>
      </trkpt>
      <trkpt lat="47.14621" lon="5.38724">
        <ele>176</ele>
        <time>2017-07-18T06:51:00Z</time>
      </trkpt>
      <trkpt lat="47.14623" lon="5.38686">
        <ele>175.80000305176</ele>
        <time>2017-07-18T06:51:04Z</time>
      </trkpt>
      <trkpt lat="47.14623" lon="5.38677">
        <ele>175.80000305176</ele>
        <time>2017-07-18T06:51:05Z</time>
      </trkpt>
      <trkpt lat="47.14623" lon="5.38667">
        <ele>175.60000610352</ele>
        <time>2017-07-18T06:51:06Z</time>
      </trkpt>
      <trkpt lat="47.14624" lon="5.38657">
        <ele>175.60000610352</ele>
        <time>2017-07-18T06:51:07Z</time>
      </trkpt>
      <trkpt lat="47.14622" lon="5.38638">
        <ele>175.39999389648</ele>
        <time>2017-07-18T06:51:09Z</time>
      </trkpt>
      <trkpt lat="47.14621" lon="5.38628">
        <ele>175.39999389648</ele>
        <time>2017-07-18T06:51:10Z</time>
      </trkpt>
      <trkpt lat="47.14621" lon="5.38618">
        <ele>175.19999694824</ele>
        <time>2017-07-18T06:51:11Z</time>
      </trkpt>
      <trkpt lat="47.14618" lon="5.38588">
        <ele>175.19999694824</ele>
        <time>2017-07-18T06:51:14Z</time>
      </trkpt>
      <trkpt lat="47.14608" lon="5.38502">
        <ele>175.39999389648</ele>
        <time>2017-07-18T06:51:23Z</time>
      </trkpt>
      <trkpt lat="47.14598" lon="5.38429">
        <ele>175.19999694824</ele>
        <time>2017-07-18T06:51:31Z</time>
      </trkpt>
      <trkpt lat="47.14595" lon="5.38401">
        <ele>175</ele>
        <time>2017-07-18T06:51:34Z</time>
      </trkpt>
      <trkpt lat="47.14594" lon="5.38382">
        <ele>175</ele>
        <time>2017-07-18T06:51:36Z</time>
      </trkpt>
      <trkpt lat="47.1459" lon="5.38317">
        <ele>175</ele>
        <time>2017-07-18T06:51:43Z</time>
      </trkpt>
      <trkpt lat="47.14592" lon="5.38234">
        <ele>174.80000305176</ele>
        <time>2017-07-18T06:51:52Z</time>
      </trkpt>
      <trkpt lat="47.14598" lon="5.38151">
        <ele>174.80000305176</ele>
        <time>2017-07-18T06:52:01Z</time>
      </trkpt>
      <trkpt lat="47.14597" lon="5.38068">
        <ele>174.60000610352</ele>
        <time>2017-07-18T06:52:10Z</time>
      </trkpt>
      <trkpt lat="47.14596" lon="5.38058">
        <ele>174.60000610352</ele>
        <time>2017-07-18T06:52:11Z</time>
      </trkpt>
      <trkpt lat="47.14592" lon="5.38022">
        <ele>174.60000610352</ele>
        <time>2017-07-18T06:52:15Z</time>
      </trkpt>
      <trkpt lat="47.14589" lon="5.37994">
        <ele>174.60000610352</ele>
        <time>2017-07-18T06:52:18Z</time>
      </trkpt>
      <trkpt lat="47.1458" lon="5.37913">
        <ele>174.39999389648</ele>
        <time>2017-07-18T06:52:27Z</time>
      </trkpt>
      <trkpt lat="47.14579" lon="5.37904">
        <ele>174.39999389648</ele>
        <time>2017-07-18T06:52:28Z</time>
      </trkpt>
      <trkpt lat="47.14574" lon="5.37841">
        <ele>174.19999694824</ele>
        <time>2017-07-18T06:52:35Z</time>
      </trkpt>
      <trkpt lat="47.14566" lon="5.37769">
        <ele>174.19999694824</ele>
        <time>2017-07-18T06:52:43Z</time>
      </trkpt>
      <trkpt lat="47.14557" lon="5.37698">
        <ele>174.19999694824</ele>
        <time>2017-07-18T06:52:51Z</time>
      </trkpt>
      <trkpt lat="47.14549" lon="5.37628">
        <ele>174.19999694824</ele>
        <time>2017-07-18T06:52:59Z</time>
      </trkpt>
      <trkpt lat="47.14544" lon="5.37576">
        <ele>174</ele>
        <time>2017-07-18T06:53:05Z</time>
      </trkpt>
      <trkpt lat="47.14536" lon="5.37507">
        <ele>174.19999694824</ele>
        <time>2017-07-18T06:53:13Z</time>
      </trkpt>
      <trkpt lat="47.14525" lon="5.37432">
        <ele>173.80000305176</ele>
        <time>2017-07-18T06:53:21Z</time>
      </trkpt>
      <trkpt lat="47.14515" lon="5.37379">
        <ele>173.80000305176</ele>
        <time>2017-07-18T06:53:27Z</time>
      </trkpt>
      <trkpt lat="47.14505" lon="5.37317">
        <ele>174</ele>
        <time>2017-07-18T06:53:34Z</time>
      </trkpt>
      <trkpt lat="47.14492" lon="5.37232">
        <ele>174.19999694824</ele>
        <time>2017-07-18T06:53:44Z</time>
      </trkpt>
      <trkpt lat="47.14487" lon="5.37216">
        <ele>174.19999694824</ele>
        <time>2017-07-18T06:53:46Z</time>
      </trkpt>
      <trkpt lat="47.14478" lon="5.37194">
        <ele>174.19999694824</ele>
        <time>2017-07-18T06:53:49Z</time>
      </trkpt>
      <trkpt lat="47.14468" lon="5.37168">
        <ele>174</ele>
        <time>2017-07-18T06:53:53Z</time>
      </trkpt>
      <trkpt lat="47.14467" lon="5.37162">
        <ele>173.80000305176</ele>
        <time>2017-07-18T06:53:54Z</time>
      </trkpt>
      <trkpt lat="47.14471" lon="5.37147">
        <ele>173.80000305176</ele>
        <time>2017-07-18T06:53:57Z</time>
      </trkpt>
      <trkpt lat="47.14484" lon="5.37137">
        <ele>174</ele>
        <time>2017-07-18T06:54:01Z</time>
      </trkpt>
      <trkpt lat="47.14489" lon="5.37136">
        <ele>174</ele>
        <time>2017-07-18T06:54:02Z</time>
      </trkpt>
      <trkpt lat="47.14516" lon="5.37129">
        <ele>174</ele>
        <time>2017-07-18T06:54:06Z</time>
      </trkpt>
      <trkpt lat="47.14564" lon="5.37105">
        <ele>174.19999694824</ele>
        <time>2017-07-18T06:54:14Z</time>
      </trkpt>
      <trkpt lat="47.14609" lon="5.37077">
        <ele>174.39999389648</ele>
        <time>2017-07-18T06:54:22Z</time>
      </trkpt>
      <trkpt lat="47.1465" lon="5.37054">
        <ele>174.60000610352</ele>
        <time>2017-07-18T06:54:29Z</time>
      </trkpt>
      <trkpt lat="47.14697" lon="5.37028">
        <ele>174.60000610352</ele>
        <time>2017-07-18T06:54:37Z</time>
      </trkpt>
      <trkpt lat="47.14751" lon="5.37004">
        <ele>174.80000305176</ele>
        <time>2017-07-18T06:54:46Z</time>
      </trkpt>
      <trkpt lat="47.14757" lon="5.37002">
        <ele>174.80000305176</ele>
        <time>2017-07-18T06:54:47Z</time>
      </trkpt>
      <trkpt lat="47.14813" lon="5.36983">
        <ele>174.80000305176</ele>
        <time>2017-07-18T06:54:56Z</time>
      </trkpt>
      <trkpt lat="47.14826" lon="5.36979">
        <ele>174.80000305176</ele>
        <time>2017-07-18T06:54:58Z</time>
      </trkpt>
      <trkpt lat="47.14883" lon="5.36961">
        <ele>174.39999389648</ele>
        <time>2017-07-18T06:55:07Z</time>
      </trkpt>
      <trkpt lat="47.14889" lon="5.36959">
        <ele>174.39999389648</ele>
        <time>2017-07-18T06:55:08Z</time>
      </trkpt>
      <trkpt lat="47.14943" lon="5.36938">
        <ele>174.19999694824</ele>
        <time>2017-07-18T06:55:17Z</time>
      </trkpt>
      <trkpt lat="47.14994" lon="5.36914">
        <ele>174</ele>
        <time>2017-07-18T06:55:25Z</time>
      </trkpt>
      <trkpt lat="47.15038" lon="5.369">
        <ele>174</ele>
        <time>2017-07-18T06:55:32Z</time>
      </trkpt>
      <trkpt lat="47.15094" lon="5.36883">
        <ele>174</ele>
        <time>2017-07-18T06:55:41Z</time>
      </trkpt>
      <trkpt lat="47.1514" lon="5.36856">
        <ele>173.80000305176</ele>
        <time>2017-07-18T06:55:49Z</time>
      </trkpt>
      <trkpt lat="47.15179" lon="5.36833">
        <ele>174</ele>
        <time>2017-07-18T06:55:56Z</time>
      </trkpt>
      <trkpt lat="47.15232" lon="5.36807">
        <ele>173.80000305176</ele>
        <time>2017-07-18T06:56:05Z</time>
      </trkpt>
      <trkpt lat="47.15264" lon="5.36784">
        <ele>174</ele>
        <time>2017-07-18T06:56:11Z</time>
      </trkpt>
      <trkpt lat="47.15286" lon="5.36768">
        <ele>173.80000305176</ele>
        <time>2017-07-18T06:56:15Z</time>
      </trkpt>
      <trkpt lat="47.15298" lon="5.36762">
        <ele>173.60000610352</ele>
        <time>2017-07-18T06:56:17Z</time>
      </trkpt>
      <trkpt lat="47.15304" lon="5.36759">
        <ele>173.60000610352</ele>
        <time>2017-07-18T06:56:18Z</time>
      </trkpt>
      <trkpt lat="47.15338" lon="5.36743">
        <ele>174</ele>
        <time>2017-07-18T06:56:24Z</time>
      </trkpt>
      <trkpt lat="47.15382" lon="5.36716">
        <ele>173.80000305176</ele>
        <time>2017-07-18T06:56:32Z</time>
      </trkpt>
      <trkpt lat="47.15426" lon="5.36687">
        <ele>174</ele>
        <time>2017-07-18T06:56:40Z</time>
      </trkpt>
      <trkpt lat="47.1547" lon="5.36659">
        <ele>174.19999694824</ele>
        <time>2017-07-18T06:56:48Z</time>
      </trkpt>
      <trkpt lat="47.15508" lon="5.3663">
        <ele>174.19999694824</ele>
        <time>2017-07-18T06:56:55Z</time>
      </trkpt>
      <trkpt lat="47.15547" lon="5.36605">
        <ele>173.80000305176</ele>
        <time>2017-07-18T06:57:02Z</time>
      </trkpt>
      <trkpt lat="47.15585" lon="5.36576">
        <ele>173.60000610352</ele>
        <time>2017-07-18T06:57:09Z</time>
      </trkpt>
      <trkpt lat="47.15629" lon="5.36546">
        <ele>173.80000305176</ele>
        <time>2017-07-18T06:57:17Z</time>
      </trkpt>
      <trkpt lat="47.15673" lon="5.36514">
        <ele>174</ele>
        <time>2017-07-18T06:57:25Z</time>
      </trkpt>
      <trkpt lat="47.15714" lon="5.36486">
        <ele>173.80000305176</ele>
        <time>2017-07-18T06:57:33Z</time>
      </trkpt>
      <trkpt lat="47.15724" lon="5.36477">
        <ele>173.80000305176</ele>
        <time>2017-07-18T06:57:35Z</time>
      </trkpt>
      <trkpt lat="47.15734" lon="5.36469">
        <ele>173.80000305176</ele>
        <time>2017-07-18T06:57:37Z</time>
      </trkpt>
      <trkpt lat="47.15746" lon="5.36462">
        <ele>174</ele>
        <time>2017-07-18T06:57:39Z</time>
      </trkpt>
      <trkpt lat="47.15788" lon="5.36437">
        <ele>174</ele>
        <time>2017-07-18T06:57:46Z</time>
      </trkpt>
      <trkpt lat="47.15794" lon="5.36435">
        <ele>174</ele>
        <time>2017-07-18T06:57:47Z</time>
      </trkpt>
      <trkpt lat="47.1582" lon="5.36428">
        <ele>174</ele>
        <time>2017-07-18T06:57:51Z</time>
      </trkpt>
      <trkpt lat="47.15827" lon="5.36426">
        <ele>174</ele>
        <time>2017-07-18T06:57:52Z</time>
      </trkpt>
      <trkpt lat="47.15845" lon="5.36422">
        <ele>174</ele>
        <time>2017-07-18T06:57:55Z</time>
      </trkpt>
      <trkpt lat="47.15864" lon="5.36414">
        <ele>174</ele>
        <time>2017-07-18T06:57:58Z</time>
      </trkpt>
      <trkpt lat="47.15876" lon="5.36407">
        <ele>174</ele>
        <time>2017-07-18T06:58:00Z</time>
      </trkpt>
      <trkpt lat="47.15894" lon="5.36395">
        <ele>174.19999694824</ele>
        <time>2017-07-18T06:58:03Z</time>
      </trkpt>
      <trkpt lat="47.15942" lon="5.36369">
        <ele>174</ele>
        <time>2017-07-18T06:58:11Z</time>
      </trkpt>
      <trkpt lat="47.15997" lon="5.36343">
        <ele>173.80000305176</ele>
        <time>2017-07-18T06:58:20Z</time>
      </trkpt>
      <trkpt lat="47.16009" lon="5.36335">
        <ele>173.80000305176</ele>
        <time>2017-07-18T06:58:22Z</time>
      </trkpt>
      <trkpt lat="47.16055" lon="5.36298">
        <ele>173.80000305176</ele>
        <time>2017-07-18T06:58:30Z</time>
      </trkpt>
      <trkpt lat="47.16094" lon="5.36265">
        <ele>173.80000305176</ele>
        <time>2017-07-18T06:58:37Z</time>
      </trkpt>
      <trkpt lat="47.16134" lon="5.36219">
        <ele>174</ele>
        <time>2017-07-18T06:58:45Z</time>
      </trkpt>
      <trkpt lat="47.16168" lon="5.36175">
        <ele>174</ele>
        <time>2017-07-18T06:58:52Z</time>
      </trkpt>
      <trkpt lat="47.16177" lon="5.36162">
        <ele>174</ele>
        <time>2017-07-18T06:58:54Z</time>
      </trkpt>
      <trkpt lat="47.16195" lon="5.36135">
        <ele>174</ele>
        <time>2017-07-18T06:58:58Z</time>
      </trkpt>
      <trkpt lat="47.16232" lon="5.36078">
        <ele>174</ele>
        <time>2017-07-18T06:59:06Z</time>
      </trkpt>
      <trkpt lat="47.16273" lon="5.36015">
        <ele>173.80000305176</ele>
        <time>2017-07-18T06:59:15Z</time>
      </trkpt>
      <trkpt lat="47.16283" lon="5.36002">
        <ele>173.80000305176</ele>
        <time>2017-07-18T06:59:17Z</time>
      </trkpt>
      <trkpt lat="47.1632" lon="5.35963">
        <ele>173.80000305176</ele>
        <time>2017-07-18T06:59:24Z</time>
      </trkpt>
      <trkpt lat="47.16367" lon="5.35918">
        <ele>173.80000305176</ele>
        <time>2017-07-18T06:59:33Z</time>
      </trkpt>
      <trkpt lat="47.16372" lon="5.35915">
        <ele>173.80000305176</ele>
        <time>2017-07-18T06:59:34Z</time>
      </trkpt>
      <trkpt lat="47.16409" lon="5.35887">
        <ele>174.39999389648</ele>
        <time>2017-07-18T06:59:41Z</time>
      </trkpt>
      <trkpt lat="47.1645" lon="5.35856">
        <ele>174.39999389648</ele>
        <time>2017-07-18T06:59:48Z</time>
      </trkpt>
      <trkpt lat="47.16499" lon="5.35824">
        <ele>174.39999389648</ele>
        <time>2017-07-18T06:59:56Z</time>
      </trkpt>
      <trkpt lat="47.16524" lon="5.3581">
        <ele>174.60000610352</ele>
        <time>2017-07-18T07:00:00Z</time>
      </trkpt>
      <trkpt lat="47.16536" lon="5.35804">
        <ele>174.60000610352</ele>
        <time>2017-07-18T07:00:02Z</time>
      </trkpt>
      <trkpt lat="47.16573" lon="5.35785">
        <ele>174.39999389648</ele>
        <time>2017-07-18T07:00:08Z</time>
      </trkpt>
      <trkpt lat="47.16622" lon="5.35756">
        <ele>174.19999694824</ele>
        <time>2017-07-18T07:00:16Z</time>
      </trkpt>
      <trkpt lat="47.16676" lon="5.35724">
        <ele>174.19999694824</ele>
        <time>2017-07-18T07:00:25Z</time>
      </trkpt>
      <trkpt lat="47.16726" lon="5.35702">
        <ele>174.19999694824</ele>
        <time>2017-07-18T07:00:33Z</time>
      </trkpt>
      <trkpt lat="47.16773" lon="5.35683">
        <ele>174.39999389648</ele>
        <time>2017-07-18T07:00:41Z</time>
      </trkpt>
      <trkpt lat="47.16818" lon="5.35667">
        <ele>174.39999389648</ele>
        <time>2017-07-18T07:00:48Z</time>
      </trkpt>
      <trkpt lat="47.1687" lon="5.35652">
        <ele>174.39999389648</ele>
        <time>2017-07-18T07:00:56Z</time>
      </trkpt>
      <trkpt lat="47.16909" lon="5.35647">
        <ele>174.39999389648</ele>
        <time>2017-07-18T07:01:02Z</time>
      </trkpt>
      <trkpt lat="47.16966" lon="5.35641">
        <ele>174.39999389648</ele>
        <time>2017-07-18T07:01:11Z</time>
      </trkpt>
      <trkpt lat="47.17008" lon="5.35641">
        <ele>174.39999389648</ele>
        <time>2017-07-18T07:01:18Z</time>
      </trkpt>
      <trkpt lat="47.17025" lon="5.35658">
        <ele>174.39999389648</ele>
        <time>2017-07-18T07:01:21Z</time>
      </trkpt>
      <trkpt lat="47.17041" lon="5.35661">
        <ele>174.39999389648</ele>
        <time>2017-07-18T07:01:24Z</time>
      </trkpt>
      <trkpt lat="47.1705" lon="5.35645">
        <ele>174.39999389648</ele>
        <time>2017-07-18T07:01:26Z</time>
      </trkpt>
      <trkpt lat="47.17067" lon="5.35635">
        <ele>174.39999389648</ele>
        <time>2017-07-18T07:01:29Z</time>
      </trkpt>
      <trkpt lat="47.17081" lon="5.35637">
        <ele>174.19999694824</ele>
        <time>2017-07-18T07:01:31Z</time>
      </trkpt>
      <trkpt lat="47.17101" lon="5.35639">
        <ele>174.19999694824</ele>
        <time>2017-07-18T07:01:34Z</time>
      </trkpt>
      <trkpt lat="47.17147" lon="5.35639">
        <ele>174.19999694824</ele>
        <time>2017-07-18T07:01:41Z</time>
      </trkpt>
      <trkpt lat="47.17193" lon="5.35644">
        <ele>174.39999389648</ele>
        <time>2017-07-18T07:01:48Z</time>
      </trkpt>
      <trkpt lat="47.17237" lon="5.35655">
        <ele>174.39999389648</ele>
        <time>2017-07-18T07:01:55Z</time>
      </trkpt>
      <trkpt lat="47.17289" lon="5.35665">
        <ele>174.60000610352</ele>
        <time>2017-07-18T07:02:03Z</time>
      </trkpt>
      <trkpt lat="47.17335" lon="5.35668">
        <ele>174.39999389648</ele>
        <time>2017-07-18T07:02:10Z</time>
      </trkpt>
      <trkpt lat="47.17376" lon="5.35668">
        <ele>174.39999389648</ele>
        <time>2017-07-18T07:02:17Z</time>
      </trkpt>
      <trkpt lat="47.17402" lon="5.35667">
        <ele>174.19999694824</ele>
        <time>2017-07-18T07:02:22Z</time>
      </trkpt>
      <trkpt lat="47.17406" lon="5.35669">
        <ele>174.19999694824</ele>
        <time>2017-07-18T07:02:23Z</time>
      </trkpt>
      <trkpt lat="47.17409" lon="5.35679">
        <ele>174.19999694824</ele>
        <time>2017-07-18T07:02:26Z</time>
      </trkpt>
      <trkpt lat="47.17407" lon="5.35696">
        <ele>174.19999694824</ele>
        <time>2017-07-18T07:02:30Z</time>
      </trkpt>
      <trkpt lat="47.17408" lon="5.35702">
        <ele>174.19999694824</ele>
        <time>2017-07-18T07:02:31Z</time>
      </trkpt>
      <trkpt lat="47.1741" lon="5.35714">
        <ele>174.19999694824</ele>
        <time>2017-07-18T07:02:33Z</time>
      </trkpt>
      <trkpt lat="47.17412" lon="5.3572">
        <ele>174.19999694824</ele>
        <time>2017-07-18T07:02:34Z</time>
      </trkpt>
      <trkpt lat="47.17413" lon="5.35727">
        <ele>174.19999694824</ele>
        <time>2017-07-18T07:02:35Z</time>
      </trkpt>
      <trkpt lat="47.17425" lon="5.35772">
        <ele>174.19999694824</ele>
        <time>2017-07-18T07:02:41Z</time>
      </trkpt>
      <trkpt lat="47.17443" lon="5.35846">
        <ele>174.39999389648</ele>
        <time>2017-07-18T07:02:50Z</time>
      </trkpt>
      <trkpt lat="47.17466" lon="5.3589">
        <ele>174.19999694824</ele>
        <time>2017-07-18T07:02:56Z</time>
      </trkpt>
      <trkpt lat="47.17471" lon="5.35896">
        <ele>174.19999694824</ele>
        <time>2017-07-18T07:02:57Z</time>
      </trkpt>
      <trkpt lat="47.17491" lon="5.35918">
        <ele>174</ele>
        <time>2017-07-18T07:03:01Z</time>
      </trkpt>
      <trkpt lat="47.17523" lon="5.35946">
        <ele>173.80000305176</ele>
        <time>2017-07-18T07:03:07Z</time>
      </trkpt>
      <trkpt lat="47.17557" lon="5.35985">
        <ele>174</ele>
        <time>2017-07-18T07:03:14Z</time>
      </trkpt>
      <trkpt lat="47.17562" lon="5.36011">
        <ele>174</ele>
        <time>2017-07-18T07:03:17Z</time>
      </trkpt>
      <trkpt lat="47.17562" lon="5.36029">
        <ele>174</ele>
        <time>2017-07-18T07:03:19Z</time>
      </trkpt>
      <trkpt lat="47.1756" lon="5.36055">
        <ele>174</ele>
        <time>2017-07-18T07:03:22Z</time>
      </trkpt>
      <trkpt lat="47.17561" lon="5.36064">
        <ele>174</ele>
        <time>2017-07-18T07:03:23Z</time>
      </trkpt>
      <trkpt lat="47.17567" lon="5.36078">
        <ele>174</ele>
        <time>2017-07-18T07:03:25Z</time>
      </trkpt>
      <trkpt lat="47.17575" lon="5.3609">
        <ele>174</ele>
        <time>2017-07-18T07:03:27Z</time>
      </trkpt>
      <trkpt lat="47.17583" lon="5.36101">
        <ele>174.19999694824</ele>
        <time>2017-07-18T07:03:29Z</time>
      </trkpt>
      <trkpt lat="47.17614" lon="5.36138">
        <ele>174.60000610352</ele>
        <time>2017-07-18T07:03:36Z</time>
      </trkpt>
      <trkpt lat="47.17652" lon="5.36196">
        <ele>174.60000610352</ele>
        <time>2017-07-18T07:03:45Z</time>
      </trkpt>
      <trkpt lat="47.17669" lon="5.36241">
        <ele>174.80000305176</ele>
        <time>2017-07-18T07:03:51Z</time>
      </trkpt>
      <trkpt lat="47.17694" lon="5.36316">
        <ele>175</ele>
        <time>2017-07-18T07:04:00Z</time>
      </trkpt>
      <trkpt lat="47.17721" lon="5.36391">
        <ele>174.60000610352</ele>
        <time>2017-07-18T07:04:09Z</time>
      </trkpt>
      <trkpt lat="47.17741" lon="5.36451">
        <ele>174.39999389648</ele>
        <time>2017-07-18T07:04:16Z</time>
      </trkpt>
      <trkpt lat="47.17763" lon="5.36519">
        <ele>174.39999389648</ele>
        <time>2017-07-18T07:04:24Z</time>
      </trkpt>
      <trkpt lat="47.17787" lon="5.36596">
        <ele>174.60000610352</ele>
        <time>2017-07-18T07:04:33Z</time>
      </trkpt>
      <trkpt lat="47.17792" lon="5.36613">
        <ele>174.60000610352</ele>
        <time>2017-07-18T07:04:35Z</time>
      </trkpt>
      <trkpt lat="47.17819" lon="5.36687">
        <ele>174.39999389648</ele>
        <time>2017-07-18T07:04:44Z</time>
      </trkpt>
      <trkpt lat="47.17849" lon="5.36745">
        <ele>174.60000610352</ele>
        <time>2017-07-18T07:04:52Z</time>
      </trkpt>
      <trkpt lat="47.17887" lon="5.36813">
        <ele>174.39999389648</ele>
        <time>2017-07-18T07:05:02Z</time>
      </trkpt>
      <trkpt lat="47.1789" lon="5.3682">
        <ele>174.60000610352</ele>
        <time>2017-07-18T07:05:03Z</time>
      </trkpt>
      <trkpt lat="47.17903" lon="5.3685">
        <ele>174.60000610352</ele>
        <time>2017-07-18T07:05:07Z</time>
      </trkpt>
      <trkpt lat="47.17907" lon="5.36867">
        <ele>174.60000610352</ele>
        <time>2017-07-18T07:05:09Z</time>
      </trkpt>
      <trkpt lat="47.1791" lon="5.36884">
        <ele>174.60000610352</ele>
        <time>2017-07-18T07:05:11Z</time>
      </trkpt>
      <trkpt lat="47.1791" lon="5.36902">
        <ele>174.60000610352</ele>
        <time>2017-07-18T07:05:13Z</time>
      </trkpt>
      <trkpt lat="47.17909" lon="5.36929">
        <ele>174.60000610352</ele>
        <time>2017-07-18T07:05:16Z</time>
      </trkpt>
      <trkpt lat="47.17904" lon="5.36965">
        <ele>174.39999389648</ele>
        <time>2017-07-18T07:05:20Z</time>
      </trkpt>
      <trkpt lat="47.17894" lon="5.37043">
        <ele>174.80000305176</ele>
        <time>2017-07-18T07:05:29Z</time>
      </trkpt>
      <trkpt lat="47.17891" lon="5.3706">
        <ele>174.80000305176</ele>
        <time>2017-07-18T07:05:31Z</time>
      </trkpt>
      <trkpt lat="47.17881" lon="5.37139">
        <ele>174.80000305176</ele>
        <time>2017-07-18T07:05:40Z</time>
      </trkpt>
      <trkpt lat="47.1788" lon="5.37147">
        <ele>174.80000305176</ele>
        <time>2017-07-18T07:05:41Z</time>
      </trkpt>
      <trkpt lat="47.17871" lon="5.37227">
        <ele>174.80000305176</ele>
        <time>2017-07-18T07:05:50Z</time>
      </trkpt>
      <trkpt lat="47.17866" lon="5.37277">
        <ele>174.80000305176</ele>
        <time>2017-07-18T07:05:56Z</time>
      </trkpt>
      <trkpt lat="47.17867" lon="5.37311">
        <ele>174.80000305176</ele>
        <time>2017-07-18T07:06:00Z</time>
      </trkpt>
      <trkpt lat="47.17869" lon="5.37328">
        <ele>174.80000305176</ele>
        <time>2017-07-18T07:06:02Z</time>
      </trkpt>
      <trkpt lat="47.17878" lon="5.3739">
        <ele>174.80000305176</ele>
        <time>2017-07-18T07:06:09Z</time>
      </trkpt>
      <trkpt lat="47.17878" lon="5.37417">
        <ele>174.80000305176</ele>
        <time>2017-07-18T07:06:12Z</time>
      </trkpt>
      <trkpt lat="47.17875" lon="5.37443">
        <ele>174.80000305176</ele>
        <time>2017-07-18T07:06:15Z</time>
      </trkpt>
      <trkpt lat="47.17863" lon="5.37493">
        <ele>174.80000305176</ele>
        <time>2017-07-18T07:06:21Z</time>
      </trkpt>
      <trkpt lat="47.17848" lon="5.3756">
        <ele>175</ele>
        <time>2017-07-18T07:06:29Z</time>
      </trkpt>
      <trkpt lat="47.17855" lon="5.37584">
        <ele>175</ele>
        <time>2017-07-18T07:06:32Z</time>
      </trkpt>
      <trkpt lat="47.17869" lon="5.37601">
        <ele>175</ele>
        <time>2017-07-18T07:06:35Z</time>
      </trkpt>
      <trkpt lat="47.17873" lon="5.37607">
        <ele>175</ele>
        <time>2017-07-18T07:06:36Z</time>
      </trkpt>
      <trkpt lat="47.17906" lon="5.37654">
        <ele>175.19999694824</ele>
        <time>2017-07-18T07:06:44Z</time>
      </trkpt>
      <trkpt lat="47.1792" lon="5.37669">
        <ele>175.19999694824</ele>
        <time>2017-07-18T07:06:47Z</time>
      </trkpt>
      <trkpt lat="47.17929" lon="5.3768">
        <ele>175.19999694824</ele>
        <time>2017-07-18T07:06:49Z</time>
      </trkpt>
      <trkpt lat="47.17953" lon="5.37713">
        <ele>175.19999694824</ele>
        <time>2017-07-18T07:06:55Z</time>
      </trkpt>
      <trkpt lat="47.17957" lon="5.37719">
        <ele>175.19999694824</ele>
        <time>2017-07-18T07:06:56Z</time>
      </trkpt>
      <trkpt lat="47.17959" lon="5.37727">
        <ele>175.19999694824</ele>
        <time>2017-07-18T07:06:57Z</time>
      </trkpt>
      <trkpt lat="47.17964" lon="5.37751">
        <ele>175.19999694824</ele>
        <time>2017-07-18T07:07:00Z</time>
      </trkpt>
      <trkpt lat="47.17968" lon="5.37791">
        <ele>175.19999694824</ele>
        <time>2017-07-18T07:07:05Z</time>
      </trkpt>
      <trkpt lat="47.17971" lon="5.37853">
        <ele>175.39999389648</ele>
        <time>2017-07-18T07:07:13Z</time>
      </trkpt>
      <trkpt lat="47.17973" lon="5.37892">
        <ele>175.80000305176</ele>
        <time>2017-07-18T07:07:19Z</time>
      </trkpt>
      <trkpt lat="47.17972" lon="5.37895">
        <ele>175.80000305176</ele>
        <time>2017-07-18T07:07:20Z</time>
      </trkpt>
      <trkpt lat="47.17972" lon="5.37899">
        <ele>175.80000305176</ele>
        <time>2017-07-18T07:07:22Z</time>
      </trkpt>
      <trkpt lat="47.17973" lon="5.37903">
        <ele>175.80000305176</ele>
        <time>2017-07-18T07:07:24Z</time>
      </trkpt>
      <trkpt lat="47.17971" lon="5.37921">
        <ele>175.80000305176</ele>
        <time>2017-07-18T07:07:28Z</time>
      </trkpt>
      <trkpt lat="47.17966" lon="5.37962">
        <ele>175.80000305176</ele>
        <time>2017-07-18T07:07:34Z</time>
      </trkpt>
      <trkpt lat="47.17963" lon="5.37994">
        <ele>175.80000305176</ele>
        <time>2017-07-18T07:07:38Z</time>
      </trkpt>
      <trkpt lat="47.17963" lon="5.38009">
        <ele>175.80000305176</ele>
        <time>2017-07-18T07:07:40Z</time>
      </trkpt>
      <trkpt lat="47.17963" lon="5.38035">
        <ele>176</ele>
        <time>2017-07-18T07:07:43Z</time>
      </trkpt>
      <trkpt lat="47.17968" lon="5.38051">
        <ele>176</ele>
        <time>2017-07-18T07:07:45Z</time>
      </trkpt>
      <trkpt lat="47.17982" lon="5.38106">
        <ele>176.19999694824</ele>
        <time>2017-07-18T07:07:52Z</time>
      </trkpt>
      <trkpt lat="47.17992" lon="5.38146">
        <ele>176.39999389648</ele>
        <time>2017-07-18T07:07:57Z</time>
      </trkpt>
      <trkpt lat="47.17993" lon="5.38155">
        <ele>176.39999389648</ele>
        <time>2017-07-18T07:07:58Z</time>
      </trkpt>
      <trkpt lat="47.17997" lon="5.38213">
        <ele>176.60000610352</ele>
        <time>2017-07-18T07:08:05Z</time>
      </trkpt>
      <trkpt lat="47.18" lon="5.38238">
        <ele>176.60000610352</ele>
        <time>2017-07-18T07:08:08Z</time>
      </trkpt>
      <trkpt lat="47.18006" lon="5.38251">
        <ele>176.60000610352</ele>
        <time>2017-07-18T07:08:10Z</time>
      </trkpt>
      <trkpt lat="47.18015" lon="5.3826">
        <ele>176.80000305176</ele>
        <time>2017-07-18T07:08:12Z</time>
      </trkpt>
      <trkpt lat="47.1803" lon="5.38272">
        <ele>176.80000305176</ele>
        <time>2017-07-18T07:08:15Z</time>
      </trkpt>
      <trkpt lat="47.18067" lon="5.383">
        <ele>177</ele>
        <time>2017-07-18T07:08:22Z</time>
      </trkpt>
      <trkpt lat="47.18116" lon="5.38341">
        <ele>176.80000305176</ele>
        <time>2017-07-18T07:08:31Z</time>
      </trkpt>
      <trkpt lat="47.18148" lon="5.38371">
        <ele>176.60000610352</ele>
        <time>2017-07-18T07:08:37Z</time>
      </trkpt>
      <trkpt lat="47.18192" lon="5.3842">
        <ele>176.80000305176</ele>
        <time>2017-07-18T07:08:46Z</time>
      </trkpt>
      <trkpt lat="47.18224" lon="5.3846">
        <ele>176.80000305176</ele>
        <time>2017-07-18T07:08:53Z</time>
      </trkpt>
      <trkpt lat="47.18229" lon="5.38465">
        <ele>176.80000305176</ele>
        <time>2017-07-18T07:08:54Z</time>
      </trkpt>
      <trkpt lat="47.18261" lon="5.38496">
        <ele>177.19999694824</ele>
        <time>2017-07-18T07:09:01Z</time>
      </trkpt>
      <trkpt lat="47.18266" lon="5.385">
        <ele>177.19999694824</ele>
        <time>2017-07-18T07:09:02Z</time>
      </trkpt>
      <trkpt lat="47.18285" lon="5.38518">
        <ele>177.19999694824</ele>
        <time>2017-07-18T07:09:07Z</time>
      </trkpt>
      <trkpt lat="47.18287" lon="5.38523">
        <ele>177.19999694824</ele>
        <time>2017-07-18T07:09:08Z</time>
      </trkpt>
      <trkpt lat="47.18297" lon="5.38533">
        <ele>177.19999694824</ele>
        <time>2017-07-18T07:09:11Z</time>
      </trkpt>
      <trkpt lat="47.18301" lon="5.38535">
        <ele>177</ele>
        <time>2017-07-18T07:09:12Z</time>
      </trkpt>
      <trkpt lat="47.18334" lon="5.38539">
        <ele>176.80000305176</ele>
        <time>2017-07-18T07:09:18Z</time>
      </trkpt>
      <trkpt lat="47.18367" lon="5.38545">
        <ele>177</ele>
        <time>2017-07-18T07:09:24Z</time>
      </trkpt>
      <trkpt lat="47.18397" lon="5.38552">
        <ele>177.39999389648</ele>
        <time>2017-07-18T07:09:30Z</time>
      </trkpt>
      <trkpt lat="47.18409" lon="5.38554">
        <ele>177.80000305176</ele>
        <time>2017-07-18T07:09:33Z</time>
      </trkpt>
      <trkpt lat="47.18417" lon="5.38556">
        <ele>178.19999694824</ele>
        <time>2017-07-18T07:09:35Z</time>
      </trkpt>
      <trkpt lat="47.18424" lon="5.38558">
        <ele>179</ele>
        <time>2017-07-18T07:09:37Z</time>
      </trkpt>
      <trkpt lat="47.18446" lon="5.38564">
        <ele>180.19999694824</ele>
        <time>2017-07-18T07:09:43Z</time>
      </trkpt>
      <trkpt lat="47.18453" lon="5.38566">
        <ele>180.60000610352</ele>
        <time>2017-07-18T07:09:45Z</time>
      </trkpt>
      <trkpt lat="47.18465" lon="5.38572">
        <ele>181.39999389648</ele>
        <time>2017-07-18T07:09:48Z</time>
      </trkpt>
      <trkpt lat="47.18482" lon="5.38578">
        <ele>182.19999694824</ele>
        <time>2017-07-18T07:09:52Z</time>
      </trkpt>
      <trkpt lat="47.1849" lon="5.38582">
        <ele>182.39999389648</ele>
        <time>2017-07-18T07:09:54Z</time>
      </trkpt>
      <trkpt lat="47.18528" lon="5.38595">
        <ele>183.39999389648</ele>
        <time>2017-07-18T07:10:02Z</time>
      </trkpt>
      <trkpt lat="47.18538" lon="5.38599">
        <ele>183.39999389648</ele>
        <time>2017-07-18T07:10:04Z</time>
      </trkpt>
      <trkpt lat="47.18566" lon="5.3861">
        <ele>183.39999389648</ele>
        <time>2017-07-18T07:10:09Z</time>
      </trkpt>
      <trkpt lat="47.18605" lon="5.38618">
        <ele>182.60000610352</ele>
        <time>2017-07-18T07:10:15Z</time>
      </trkpt>
      <trkpt lat="47.18612" lon="5.38618">
        <ele>182.19999694824</ele>
        <time>2017-07-18T07:10:16Z</time>
      </trkpt>
      <trkpt lat="47.1862" lon="5.38618">
        <ele>182</ele>
        <time>2017-07-18T07:10:17Z</time>
      </trkpt>
      <trkpt lat="47.18643" lon="5.38611">
        <ele>181</ele>
        <time>2017-07-18T07:10:20Z</time>
      </trkpt>
      <trkpt lat="47.18667" lon="5.38599">
        <ele>180</ele>
        <time>2017-07-18T07:10:23Z</time>
      </trkpt>
      <trkpt lat="47.18683" lon="5.38592">
        <ele>179</ele>
        <time>2017-07-18T07:10:25Z</time>
      </trkpt>
      <trkpt lat="47.18715" lon="5.38593">
        <ele>177.60000610352</ele>
        <time>2017-07-18T07:10:29Z</time>
      </trkpt>
      <trkpt lat="47.18723" lon="5.38595">
        <ele>177.39999389648</ele>
        <time>2017-07-18T07:10:30Z</time>
      </trkpt>
      <trkpt lat="47.18749" lon="5.38606">
        <ele>176.60000610352</ele>
        <time>2017-07-18T07:10:34Z</time>
      </trkpt>
      <trkpt lat="47.18782" lon="5.38623">
        <ele>176.60000610352</ele>
        <time>2017-07-18T07:10:40Z</time>
      </trkpt>
      <trkpt lat="47.1881" lon="5.38637">
        <ele>176.19999694824</ele>
        <time>2017-07-18T07:10:47Z</time>
      </trkpt>
      <trkpt lat="47.18821" lon="5.3864">
        <ele>176.19999694824</ele>
        <time>2017-07-18T07:10:51Z</time>
      </trkpt>
      <trkpt lat="47.18825" lon="5.3863">
        <ele>176.19999694824</ele>
        <time>2017-07-18T07:10:55Z</time>
      </trkpt>
      <trkpt lat="47.1883" lon="5.38621">
        <ele>176.19999694824</ele>
        <time>2017-07-18T07:10:59Z</time>
      </trkpt>
      <trkpt lat="47.18824" lon="5.38614">
        <ele>176</ele>
        <time>2017-07-18T07:11:03Z</time>
      </trkpt>
      <trkpt lat="47.18822" lon="5.38613">
        <ele>176</ele>
        <time>2017-07-18T07:11:04Z</time>
      </trkpt>
      <trkpt lat="47.18811" lon="5.38606">
        <ele>176</ele>
        <time>2017-07-18T07:11:09Z</time>
      </trkpt>
      <trkpt lat="47.18802" lon="5.38603">
        <ele>176</ele>
        <time>2017-07-18T07:11:14Z</time>
      </trkpt>
      <trkpt lat="47.18802" lon="5.38605">
        <ele>176</ele>
        <time>2017-07-18T07:11:15Z</time>
      </trkpt>
      <trkpt lat="47.18808" lon="5.3861">
        <ele>176</ele>
        <time>2017-07-18T07:11:18Z</time>
      </trkpt>
      <trkpt lat="47.18811" lon="5.38611">
        <ele>176</ele>
        <time>2017-07-18T07:11:19Z</time>
      </trkpt>
      <trkpt lat="47.18821" lon="5.38618">
        <ele>176</ele>
        <time>2017-07-18T07:11:22Z</time>
      </trkpt>
      <trkpt lat="47.18824" lon="5.38632">
        <ele>176</ele>
        <time>2017-07-18T07:11:25Z</time>
      </trkpt>
      <trkpt lat="47.18827" lon="5.38645">
        <ele>176.19999694824</ele>
        <time>2017-07-18T07:11:29Z</time>
      </trkpt>
      <trkpt lat="47.18838" lon="5.38652">
        <ele>176.39999389648</ele>
        <time>2017-07-18T07:11:33Z</time>
      </trkpt>
      <trkpt lat="47.18842" lon="5.38654">
        <ele>176.39999389648</ele>
        <time>2017-07-18T07:11:34Z</time>
      </trkpt>
      <trkpt lat="47.1885" lon="5.38659">
        <ele>176.39999389648</ele>
        <time>2017-07-18T07:11:36Z</time>
      </trkpt>
      <trkpt lat="47.18868" lon="5.38667">
        <ele>176.60000610352</ele>
        <time>2017-07-18T07:11:40Z</time>
      </trkpt>
      <trkpt lat="47.18902" lon="5.38684">
        <ele>176.39999389648</ele>
        <time>2017-07-18T07:11:48Z</time>
      </trkpt>
      <trkpt lat="47.18932" lon="5.38699">
        <ele>176.60000610352</ele>
        <time>2017-07-18T07:11:54Z</time>
      </trkpt>
      <trkpt lat="47.18978" lon="5.38721">
        <ele>176.80000305176</ele>
        <time>2017-07-18T07:12:02Z</time>
      </trkpt>
      <trkpt lat="47.19022" lon="5.38742">
        <ele>177</ele>
        <time>2017-07-18T07:12:10Z</time>
      </trkpt>
      <trkpt lat="47.19048" lon="5.38754">
        <ele>177</ele>
        <time>2017-07-18T07:12:15Z</time>
      </trkpt>
      <trkpt lat="47.19053" lon="5.38756">
        <ele>177</ele>
        <time>2017-07-18T07:12:16Z</time>
      </trkpt>
      <trkpt lat="47.19058" lon="5.38758">
        <ele>177</ele>
        <time>2017-07-18T07:12:17Z</time>
      </trkpt>
      <trkpt lat="47.19068" lon="5.38763">
        <ele>177</ele>
        <time>2017-07-18T07:12:19Z</time>
      </trkpt>
      <trkpt lat="47.19077" lon="5.38767">
        <ele>177</ele>
        <time>2017-07-18T07:12:21Z</time>
      </trkpt>
      <trkpt lat="47.1909" lon="5.38774">
        <ele>176.80000305176</ele>
        <time>2017-07-18T07:12:24Z</time>
      </trkpt>
      <trkpt lat="47.19095" lon="5.38775">
        <ele>176.80000305176</ele>
        <time>2017-07-18T07:12:25Z</time>
      </trkpt>
      <trkpt lat="47.19108" lon="5.38781">
        <ele>176.80000305176</ele>
        <time>2017-07-18T07:12:28Z</time>
      </trkpt>
      <trkpt lat="47.19115" lon="5.38787">
        <ele>177</ele>
        <time>2017-07-18T07:12:30Z</time>
      </trkpt>
      <trkpt lat="47.19127" lon="5.388">
        <ele>177</ele>
        <time>2017-07-18T07:12:34Z</time>
      </trkpt>
      <trkpt lat="47.1913" lon="5.38802">
        <ele>177</ele>
        <time>2017-07-18T07:12:35Z</time>
      </trkpt>
      <trkpt lat="47.19138" lon="5.388">
        <ele>177</ele>
        <time>2017-07-18T07:12:37Z</time>
      </trkpt>
      <trkpt lat="47.19155" lon="5.38799">
        <ele>177</ele>
        <time>2017-07-18T07:12:41Z</time>
      </trkpt>
      <trkpt lat="47.1917" lon="5.38803">
        <ele>177.19999694824</ele>
        <time>2017-07-18T07:12:44Z</time>
      </trkpt>
      <trkpt lat="47.19191" lon="5.3881">
        <ele>177.19999694824</ele>
        <time>2017-07-18T07:12:48Z</time>
      </trkpt>
      <trkpt lat="47.19223" lon="5.38816">
        <ele>177.39999389648</ele>
        <time>2017-07-18T07:12:54Z</time>
      </trkpt>
      <trkpt lat="47.19257" lon="5.38825">
        <ele>177.60000610352</ele>
        <time>2017-07-18T07:13:01Z</time>
      </trkpt>
      <trkpt lat="47.19267" lon="5.38829">
        <ele>177.60000610352</ele>
        <time>2017-07-18T07:13:05Z</time>
      </trkpt>
      <trkpt lat="47.19269" lon="5.38829">
        <ele>177.60000610352</ele>
        <time>2017-07-18T07:13:08Z</time>
      </trkpt>
      <trkpt lat="47.19271" lon="5.38828">
        <ele>177.60000610352</ele>
        <time>2017-07-18T07:13:09Z</time>
      </trkpt>
      <trkpt lat="47.19275" lon="5.38813">
        <ele>177.80000305176</ele>
        <time>2017-07-18T07:13:13Z</time>
      </trkpt>
      <trkpt lat="47.19283" lon="5.38812">
        <ele>177.80000305176</ele>
        <time>2017-07-18T07:13:16Z</time>
      </trkpt>
      <trkpt lat="47.19289" lon="5.38816">
        <ele>177.80000305176</ele>
        <time>2017-07-18T07:13:18Z</time>
      </trkpt>
      <trkpt lat="47.19296" lon="5.38819">
        <ele>178</ele>
        <time>2017-07-18T07:13:20Z</time>
      </trkpt>
      <trkpt lat="47.1931" lon="5.38827">
        <ele>178.60000610352</ele>
        <time>2017-07-18T07:13:24Z</time>
      </trkpt>
      <trkpt lat="47.19317" lon="5.38833">
        <ele>178.80000305176</ele>
        <time>2017-07-18T07:13:26Z</time>
      </trkpt>
      <trkpt lat="47.19326" lon="5.38838">
        <ele>179</ele>
        <time>2017-07-18T07:13:28Z</time>
      </trkpt>
      <trkpt lat="47.19331" lon="5.38841">
        <ele>179.19999694824</ele>
        <time>2017-07-18T07:13:29Z</time>
      </trkpt>
      <trkpt lat="47.19336" lon="5.38844">
        <ele>179.19999694824</ele>
        <time>2017-07-18T07:13:30Z</time>
      </trkpt>
      <trkpt lat="47.19347" lon="5.38855">
        <ele>179.39999389648</ele>
        <time>2017-07-18T07:13:33Z</time>
      </trkpt>
      <trkpt lat="47.19361" lon="5.38863">
        <ele>179.60000610352</ele>
        <time>2017-07-18T07:13:37Z</time>
      </trkpt>
      <trkpt lat="47.19387" lon="5.38874">
        <ele>179.80000305176</ele>
        <time>2017-07-18T07:13:43Z</time>
      </trkpt>
      <trkpt lat="47.19392" lon="5.38874">
        <ele>179.80000305176</ele>
        <time>2017-07-18T07:13:44Z</time>
      </trkpt>
      <trkpt lat="47.19405" lon="5.38864">
        <ele>179.80000305176</ele>
        <time>2017-07-18T07:13:47Z</time>
      </trkpt>
      <trkpt lat="47.19411" lon="5.38852">
        <ele>179.80000305176</ele>
        <time>2017-07-18T07:13:49Z</time>
      </trkpt>
      <trkpt lat="47.19418" lon="5.38842">
        <ele>179.60000610352</ele>
        <time>2017-07-18T07:13:51Z</time>
      </trkpt>
      <trkpt lat="47.19426" lon="5.38836">
        <ele>179.60000610352</ele>
        <time>2017-07-18T07:13:53Z</time>
      </trkpt>
      <trkpt lat="47.1944" lon="5.38841">
        <ele>179.60000610352</ele>
        <time>2017-07-18T07:13:56Z</time>
      </trkpt>
      <trkpt lat="47.1945" lon="5.38848">
        <ele>179.60000610352</ele>
        <time>2017-07-18T07:13:58Z</time>
      </trkpt>
      <trkpt lat="47.19468" lon="5.38862">
        <ele>179.39999389648</ele>
        <time>2017-07-18T07:14:02Z</time>
      </trkpt>
      <trkpt lat="47.19511" lon="5.38902">
        <ele>179.19999694824</ele>
        <time>2017-07-18T07:14:11Z</time>
      </trkpt>
      <trkpt lat="47.19538" lon="5.38931">
        <ele>179.19999694824</ele>
        <time>2017-07-18T07:14:17Z</time>
      </trkpt>
      <trkpt lat="47.19542" lon="5.38942">
        <ele>179.19999694824</ele>
        <time>2017-07-18T07:14:19Z</time>
      </trkpt>
      <trkpt lat="47.19546" lon="5.38967">
        <ele>179.19999694824</ele>
        <time>2017-07-18T07:14:23Z</time>
      </trkpt>
      <trkpt lat="47.19558" lon="5.38969">
        <ele>179.60000610352</ele>
        <time>2017-07-18T07:14:26Z</time>
      </trkpt>
      <trkpt lat="47.19566" lon="5.3897">
        <ele>179.60000610352</ele>
        <time>2017-07-18T07:14:28Z</time>
      </trkpt>
      <trkpt lat="47.19574" lon="5.38976">
        <ele>179.60000610352</ele>
        <time>2017-07-18T07:14:30Z</time>
      </trkpt>
      <trkpt lat="47.19583" lon="5.38983">
        <ele>179.39999389648</ele>
        <time>2017-07-18T07:14:32Z</time>
      </trkpt>
      <trkpt lat="47.19602" lon="5.39">
        <ele>179.60000610352</ele>
        <time>2017-07-18T07:14:36Z</time>
      </trkpt>
      <trkpt lat="47.19642" lon="5.39032">
        <ele>179.60000610352</ele>
        <time>2017-07-18T07:14:44Z</time>
      </trkpt>
      <trkpt lat="47.19688" lon="5.39069">
        <ele>179.60000610352</ele>
        <time>2017-07-18T07:14:53Z</time>
      </trkpt>
      <trkpt lat="47.19726" lon="5.39102">
        <ele>179.19999694824</ele>
        <time>2017-07-18T07:15:01Z</time>
      </trkpt>
      <trkpt lat="47.1973" lon="5.39108">
        <ele>179</ele>
        <time>2017-07-18T07:15:02Z</time>
      </trkpt>
      <trkpt lat="47.19738" lon="5.39119">
        <ele>179</ele>
        <time>2017-07-18T07:15:04Z</time>
      </trkpt>
      <trkpt lat="47.19752" lon="5.39133">
        <ele>179</ele>
        <time>2017-07-18T07:15:07Z</time>
      </trkpt>
      <trkpt lat="47.19767" lon="5.3916">
        <ele>179</ele>
        <time>2017-07-18T07:15:11Z</time>
      </trkpt>
      <trkpt lat="47.19793" lon="5.39212">
        <ele>179</ele>
        <time>2017-07-18T07:15:19Z</time>
      </trkpt>
      <trkpt lat="47.19796" lon="5.39219">
        <ele>179</ele>
        <time>2017-07-18T07:15:20Z</time>
      </trkpt>
      <trkpt lat="47.19809" lon="5.39246">
        <ele>179</ele>
        <time>2017-07-18T07:15:24Z</time>
      </trkpt>
      <trkpt lat="47.19837" lon="5.39302">
        <ele>179.19999694824</ele>
        <time>2017-07-18T07:15:32Z</time>
      </trkpt>
      <trkpt lat="47.1984" lon="5.39309">
        <ele>179.19999694824</ele>
        <time>2017-07-18T07:15:33Z</time>
      </trkpt>
      <trkpt lat="47.19857" lon="5.39337">
        <ele>179.19999694824</ele>
        <time>2017-07-18T07:15:38Z</time>
      </trkpt>
      <trkpt lat="47.19861" lon="5.3934">
        <ele>179.19999694824</ele>
        <time>2017-07-18T07:15:39Z</time>
      </trkpt>
      <trkpt lat="47.19874" lon="5.39333">
        <ele>179.19999694824</ele>
        <time>2017-07-18T07:15:42Z</time>
      </trkpt>
      <trkpt lat="47.19882" lon="5.39321">
        <ele>179</ele>
        <time>2017-07-18T07:15:44Z</time>
      </trkpt>
      <trkpt lat="47.19897" lon="5.39299">
        <ele>178.80000305176</ele>
        <time>2017-07-18T07:15:48Z</time>
      </trkpt>
      <trkpt lat="47.1992" lon="5.3927">
        <ele>178.80000305176</ele>
        <time>2017-07-18T07:15:54Z</time>
      </trkpt>
      <trkpt lat="47.19949" lon="5.39229">
        <ele>178.80000305176</ele>
        <time>2017-07-18T07:16:01Z</time>
      </trkpt>
      <trkpt lat="47.19954" lon="5.39223">
        <ele>178.60000610352</ele>
        <time>2017-07-18T07:16:02Z</time>
      </trkpt>
      <trkpt lat="47.19977" lon="5.39197">
        <ele>177.80000305176</ele>
        <time>2017-07-18T07:16:06Z</time>
      </trkpt>
      <trkpt lat="47.20004" lon="5.39181">
        <ele>176.80000305176</ele>
        <time>2017-07-18T07:16:10Z</time>
      </trkpt>
      <trkpt lat="47.20011" lon="5.39179">
        <ele>176.60000610352</ele>
        <time>2017-07-18T07:16:11Z</time>
      </trkpt>
      <trkpt lat="47.20067" lon="5.39169">
        <ele>175.60000610352</ele>
        <time>2017-07-18T07:16:19Z</time>
      </trkpt>
      <trkpt lat="47.20074" lon="5.39168">
        <ele>175.39999389648</ele>
        <time>2017-07-18T07:16:20Z</time>
      </trkpt>
      <trkpt lat="47.20126" lon="5.39161">
        <ele>175</ele>
        <time>2017-07-18T07:16:28Z</time>
      </trkpt>
      <trkpt lat="47.20132" lon="5.39163">
        <ele>175</ele>
        <time>2017-07-18T07:16:29Z</time>
      </trkpt>
      <trkpt lat="47.20158" lon="5.39176">
        <ele>175</ele>
        <time>2017-07-18T07:16:33Z</time>
      </trkpt>
      <trkpt lat="47.20211" lon="5.39212">
        <ele>175.19999694824</ele>
        <time>2017-07-18T07:16:42Z</time>
      </trkpt>
      <trkpt lat="47.20237" lon="5.39237">
        <ele>175.19999694824</ele>
        <time>2017-07-18T07:16:47Z</time>
      </trkpt>
      <trkpt lat="47.20246" lon="5.39248">
        <ele>175.19999694824</ele>
        <time>2017-07-18T07:16:49Z</time>
      </trkpt>
      <trkpt lat="47.20291" lon="5.39298">
        <ele>175.60000610352</ele>
        <time>2017-07-18T07:16:58Z</time>
      </trkpt>
      <trkpt lat="47.2033" lon="5.39342">
        <ele>175.60000610352</ele>
        <time>2017-07-18T07:17:06Z</time>
      </trkpt>
      <trkpt lat="47.20376" lon="5.39392">
        <ele>175.60000610352</ele>
        <time>2017-07-18T07:17:15Z</time>
      </trkpt>
      <trkpt lat="47.20415" lon="5.39437">
        <ele>175.39999389648</ele>
        <time>2017-07-18T07:17:23Z</time>
      </trkpt>
      <trkpt lat="47.20449" lon="5.39478">
        <ele>175.19999694824</ele>
        <time>2017-07-18T07:17:30Z</time>
      </trkpt>
      <trkpt lat="47.20479" lon="5.39514">
        <ele>175.19999694824</ele>
        <time>2017-07-18T07:17:36Z</time>
      </trkpt>
      <trkpt lat="47.2051" lon="5.39557">
        <ele>175</ele>
        <time>2017-07-18T07:17:43Z</time>
      </trkpt>
      <trkpt lat="47.20547" lon="5.39616">
        <ele>175.19999694824</ele>
        <time>2017-07-18T07:17:52Z</time>
      </trkpt>
      <trkpt lat="47.20555" lon="5.39629">
        <ele>175.19999694824</ele>
        <time>2017-07-18T07:17:54Z</time>
      </trkpt>
      <trkpt lat="47.20594" lon="5.39692">
        <ele>175.19999694824</ele>
        <time>2017-07-18T07:18:04Z</time>
      </trkpt>
      <trkpt lat="47.20632" lon="5.39738">
        <ele>175.39999389648</ele>
        <time>2017-07-18T07:18:12Z</time>
      </trkpt>
      <trkpt lat="47.20674" lon="5.39792">
        <ele>175.39999389648</ele>
        <time>2017-07-18T07:18:21Z</time>
      </trkpt>
      <trkpt lat="47.20684" lon="5.39804">
        <ele>175.39999389648</ele>
        <time>2017-07-18T07:18:23Z</time>
      </trkpt>
      <trkpt lat="47.20726" lon="5.39857">
        <ele>175.19999694824</ele>
        <time>2017-07-18T07:18:32Z</time>
      </trkpt>
      <trkpt lat="47.20731" lon="5.39863">
        <ele>175.19999694824</ele>
        <time>2017-07-18T07:18:33Z</time>
      </trkpt>
      <trkpt lat="47.20771" lon="5.39919">
        <ele>175.19999694824</ele>
        <time>2017-07-18T07:18:42Z</time>
      </trkpt>
      <trkpt lat="47.20784" lon="5.39938">
        <ele>175.19999694824</ele>
        <time>2017-07-18T07:18:45Z</time>
      </trkpt>
      <trkpt lat="47.20824" lon="5.39995">
        <ele>175.19999694824</ele>
        <time>2017-07-18T07:18:54Z</time>
      </trkpt>
      <trkpt lat="47.20833" lon="5.40007">
        <ele>175.19999694824</ele>
        <time>2017-07-18T07:18:56Z</time>
      </trkpt>
      <trkpt lat="47.20873" lon="5.40065">
        <ele>175</ele>
        <time>2017-07-18T07:19:05Z</time>
      </trkpt>
      <trkpt lat="47.20887" lon="5.40084">
        <ele>175</ele>
        <time>2017-07-18T07:19:08Z</time>
      </trkpt>
      <trkpt lat="47.20913" lon="5.40122">
        <ele>174.80000305176</ele>
        <time>2017-07-18T07:19:14Z</time>
      </trkpt>
      <trkpt lat="47.20917" lon="5.40129">
        <ele>174.80000305176</ele>
        <time>2017-07-18T07:19:15Z</time>
      </trkpt>
      <trkpt lat="47.20958" lon="5.40192">
        <ele>175.19999694824</ele>
        <time>2017-07-18T07:19:25Z</time>
      </trkpt>
      <trkpt lat="47.20991" lon="5.40243">
        <ele>175.19999694824</ele>
        <time>2017-07-18T07:19:33Z</time>
      </trkpt>
      <trkpt lat="47.21029" lon="5.40302">
        <ele>175</ele>
        <time>2017-07-18T07:19:42Z</time>
      </trkpt>
      <trkpt lat="47.21067" lon="5.40359">
        <ele>175.19999694824</ele>
        <time>2017-07-18T07:19:51Z</time>
      </trkpt>
      <trkpt lat="47.21071" lon="5.40364">
        <ele>175.19999694824</ele>
        <time>2017-07-18T07:19:52Z</time>
      </trkpt>
      <trkpt lat="47.21091" lon="5.40383">
        <ele>175.19999694824</ele>
        <time>2017-07-18T07:19:56Z</time>
      </trkpt>
      <trkpt lat="47.2113" lon="5.40422">
        <ele>175.39999389648</ele>
        <time>2017-07-18T07:20:04Z</time>
      </trkpt>
      <trkpt lat="47.21139" lon="5.40432">
        <ele>175.39999389648</ele>
        <time>2017-07-18T07:20:06Z</time>
      </trkpt>
      <trkpt lat="47.21148" lon="5.40443">
        <ele>175.39999389648</ele>
        <time>2017-07-18T07:20:08Z</time>
      </trkpt>
      <trkpt lat="47.21158" lon="5.40453">
        <ele>175.39999389648</ele>
        <time>2017-07-18T07:20:10Z</time>
      </trkpt>
      <trkpt lat="47.21206" lon="5.40503">
        <ele>175.39999389648</ele>
        <time>2017-07-18T07:20:20Z</time>
      </trkpt>
      <trkpt lat="47.21211" lon="5.40508">
        <ele>175.39999389648</ele>
        <time>2017-07-18T07:20:21Z</time>
      </trkpt>
      <trkpt lat="47.21247" lon="5.40545">
        <ele>175.60000610352</ele>
        <time>2017-07-18T07:20:29Z</time>
      </trkpt>
      <trkpt lat="47.2128" lon="5.40578">
        <ele>175.60000610352</ele>
        <time>2017-07-18T07:20:36Z</time>
      </trkpt>
      <trkpt lat="47.21283" lon="5.40583">
        <ele>175.60000610352</ele>
        <time>2017-07-18T07:20:37Z</time>
      </trkpt>
      <trkpt lat="47.21297" lon="5.40588">
        <ele>175.39999389648</ele>
        <time>2017-07-18T07:20:40Z</time>
      </trkpt>
      <trkpt lat="47.21312" lon="5.40575">
        <ele>175.39999389648</ele>
        <time>2017-07-18T07:20:43Z</time>
      </trkpt>
      <trkpt lat="47.21327" lon="5.4056">
        <ele>175.39999389648</ele>
        <time>2017-07-18T07:20:46Z</time>
      </trkpt>
      <trkpt lat="47.21335" lon="5.40547">
        <ele>175.39999389648</ele>
        <time>2017-07-18T07:20:48Z</time>
      </trkpt>
      <trkpt lat="47.21358" lon="5.40494">
        <ele>175.39999389648</ele>
        <time>2017-07-18T07:20:55Z</time>
      </trkpt>
      <trkpt lat="47.21371" lon="5.40463">
        <ele>175.39999389648</ele>
        <time>2017-07-18T07:20:59Z</time>
      </trkpt>
      <trkpt lat="47.21379" lon="5.40449">
        <ele>175.39999389648</ele>
        <time>2017-07-18T07:21:01Z</time>
      </trkpt>
      <trkpt lat="47.21382" lon="5.40441">
        <ele>175.39999389648</ele>
        <time>2017-07-18T07:21:02Z</time>
      </trkpt>
      <trkpt lat="47.21402" lon="5.40397">
        <ele>175.39999389648</ele>
        <time>2017-07-18T07:21:08Z</time>
      </trkpt>
      <trkpt lat="47.21427" lon="5.40347">
        <ele>175.19999694824</ele>
        <time>2017-07-18T07:21:15Z</time>
      </trkpt>
      <trkpt lat="47.21435" lon="5.40333">
        <ele>175.19999694824</ele>
        <time>2017-07-18T07:21:17Z</time>
      </trkpt>
      <trkpt lat="47.21449" lon="5.40315">
        <ele>175.19999694824</ele>
        <time>2017-07-18T07:21:20Z</time>
      </trkpt>
      <trkpt lat="47.21479" lon="5.40286">
        <ele>175.39999389648</ele>
        <time>2017-07-18T07:21:26Z</time>
      </trkpt>
      <trkpt lat="47.21516" lon="5.40254">
        <ele>175.39999389648</ele>
        <time>2017-07-18T07:21:33Z</time>
      </trkpt>
      <trkpt lat="47.21538" lon="5.40239">
        <ele>175.60000610352</ele>
        <time>2017-07-18T07:21:37Z</time>
      </trkpt>
      <trkpt lat="47.21549" lon="5.40233">
        <ele>175.60000610352</ele>
        <time>2017-07-18T07:21:39Z</time>
      </trkpt>
      <trkpt lat="47.21561" lon="5.40229">
        <ele>175.60000610352</ele>
        <time>2017-07-18T07:21:41Z</time>
      </trkpt>
      <trkpt lat="47.21584" lon="5.4022">
        <ele>175.60000610352</ele>
        <time>2017-07-18T07:21:45Z</time>
      </trkpt>
      <trkpt lat="47.21631" lon="5.40206">
        <ele>175.60000610352</ele>
        <time>2017-07-18T07:21:53Z</time>
      </trkpt>
      <trkpt lat="47.21652" lon="5.40215">
        <ele>175.60000610352</ele>
        <time>2017-07-18T07:21:57Z</time>
      </trkpt>
      <trkpt lat="47.21661" lon="5.40225">
        <ele>175.60000610352</ele>
        <time>2017-07-18T07:21:59Z</time>
      </trkpt>
      <trkpt lat="47.21676" lon="5.4024">
        <ele>175.60000610352</ele>
        <time>2017-07-18T07:22:02Z</time>
      </trkpt>
      <trkpt lat="47.21724" lon="5.40284">
        <ele>175.39999389648</ele>
        <time>2017-07-18T07:22:11Z</time>
      </trkpt>
      <trkpt lat="47.21772" lon="5.40329">
        <ele>175.19999694824</ele>
        <time>2017-07-18T07:22:20Z</time>
      </trkpt>
      <trkpt lat="47.2181" lon="5.40365">
        <ele>175.19999694824</ele>
        <time>2017-07-18T07:22:27Z</time>
      </trkpt>
      <trkpt lat="47.2185" lon="5.40393">
        <ele>175.19999694824</ele>
        <time>2017-07-18T07:22:34Z</time>
      </trkpt>
      <trkpt lat="47.21891" lon="5.40415">
        <ele>175.39999389648</ele>
        <time>2017-07-18T07:22:41Z</time>
      </trkpt>
      <trkpt lat="47.21945" lon="5.40438">
        <ele>175.39999389648</ele>
        <time>2017-07-18T07:22:50Z</time>
      </trkpt>
      <trkpt lat="47.21977" lon="5.40444">
        <ele>175.60000610352</ele>
        <time>2017-07-18T07:22:55Z</time>
      </trkpt>
      <trkpt lat="47.2202" lon="5.40449">
        <ele>175.60000610352</ele>
        <time>2017-07-18T07:23:02Z</time>
      </trkpt>
      <trkpt lat="47.22026" lon="5.4045">
        <ele>175.60000610352</ele>
        <time>2017-07-18T07:23:03Z</time>
      </trkpt>
      <trkpt lat="47.22051" lon="5.40448">
        <ele>175.39999389648</ele>
        <time>2017-07-18T07:23:07Z</time>
      </trkpt>
      <trkpt lat="47.22102" lon="5.40441">
        <ele>175.39999389648</ele>
        <time>2017-07-18T07:23:15Z</time>
      </trkpt>
      <trkpt lat="47.22138" lon="5.40434">
        <ele>175.39999389648</ele>
        <time>2017-07-18T07:23:21Z</time>
      </trkpt>
      <trkpt lat="47.22182" lon="5.40418">
        <ele>175.19999694824</ele>
        <time>2017-07-18T07:23:28Z</time>
      </trkpt>
      <trkpt lat="47.22238" lon="5.40397">
        <ele>175.19999694824</ele>
        <time>2017-07-18T07:23:37Z</time>
      </trkpt>
      <trkpt lat="47.22244" lon="5.40394">
        <ele>175.19999694824</ele>
        <time>2017-07-18T07:23:38Z</time>
      </trkpt>
      <trkpt lat="47.22297" lon="5.40371">
        <ele>175.39999389648</ele>
        <time>2017-07-18T07:23:47Z</time>
      </trkpt>
      <trkpt lat="47.22303" lon="5.40369">
        <ele>175.39999389648</ele>
        <time>2017-07-18T07:23:48Z</time>
      </trkpt>
      <trkpt lat="47.22344" lon="5.40349">
        <ele>175.19999694824</ele>
        <time>2017-07-18T07:23:55Z</time>
      </trkpt>
      <trkpt lat="47.22396" lon="5.40325">
        <ele>175.39999389648</ele>
        <time>2017-07-18T07:24:04Z</time>
      </trkpt>
      <trkpt lat="47.22408" lon="5.40318">
        <ele>175.39999389648</ele>
        <time>2017-07-18T07:24:06Z</time>
      </trkpt>
      <trkpt lat="47.22461" lon="5.40291">
        <ele>175.39999389648</ele>
        <time>2017-07-18T07:24:15Z</time>
      </trkpt>
      <trkpt lat="47.22473" lon="5.40287">
        <ele>175.39999389648</ele>
        <time>2017-07-18T07:24:17Z</time>
      </trkpt>
      <trkpt lat="47.2249" lon="5.4029">
        <ele>175.39999389648</ele>
        <time>2017-07-18T07:24:20Z</time>
      </trkpt>
      <trkpt lat="47.225" lon="5.403">
        <ele>175.39999389648</ele>
        <time>2017-07-18T07:24:22Z</time>
      </trkpt>
      <trkpt lat="47.22505" lon="5.40304">
        <ele>175.39999389648</ele>
        <time>2017-07-18T07:24:23Z</time>
      </trkpt>
      <trkpt lat="47.2251" lon="5.40307">
        <ele>175.39999389648</ele>
        <time>2017-07-18T07:24:24Z</time>
      </trkpt>
      <trkpt lat="47.22525" lon="5.40316">
        <ele>175.60000610352</ele>
        <time>2017-07-18T07:24:27Z</time>
      </trkpt>
      <trkpt lat="47.22535" lon="5.40312">
        <ele>175.80000305176</ele>
        <time>2017-07-18T07:24:29Z</time>
      </trkpt>
      <trkpt lat="47.22556" lon="5.40304">
        <ele>175.80000305176</ele>
        <time>2017-07-18T07:24:33Z</time>
      </trkpt>
      <trkpt lat="47.22566" lon="5.40307">
        <ele>175.80000305176</ele>
        <time>2017-07-18T07:24:35Z</time>
      </trkpt>
      <trkpt lat="47.22571" lon="5.4031">
        <ele>175.80000305176</ele>
        <time>2017-07-18T07:24:36Z</time>
      </trkpt>
      <trkpt lat="47.22602" lon="5.40328">
        <ele>175.60000610352</ele>
        <time>2017-07-18T07:24:42Z</time>
      </trkpt>
      <trkpt lat="47.22655" lon="5.4036">
        <ele>175.60000610352</ele>
        <time>2017-07-18T07:24:52Z</time>
      </trkpt>
      <trkpt lat="47.22661" lon="5.40363">
        <ele>175.60000610352</ele>
        <time>2017-07-18T07:24:53Z</time>
      </trkpt>
      <trkpt lat="47.2269" lon="5.40376">
        <ele>175.80000305176</ele>
        <time>2017-07-18T07:24:59Z</time>
      </trkpt>
      <trkpt lat="47.22721" lon="5.4039">
        <ele>176</ele>
        <time>2017-07-18T07:25:05Z</time>
      </trkpt>
      <trkpt lat="47.22754" lon="5.40408">
        <ele>175.39999389648</ele>
        <time>2017-07-18T07:25:12Z</time>
      </trkpt>
      <trkpt lat="47.22769" lon="5.40415">
        <ele>175.60000610352</ele>
        <time>2017-07-18T07:25:15Z</time>
      </trkpt>
      <trkpt lat="47.22786" lon="5.40419">
        <ele>175.60000610352</ele>
        <time>2017-07-18T07:25:18Z</time>
      </trkpt>
      <trkpt lat="47.22797" lon="5.40421">
        <ele>175.60000610352</ele>
        <time>2017-07-18T07:25:20Z</time>
      </trkpt>
      <trkpt lat="47.22808" lon="5.40421">
        <ele>175.60000610352</ele>
        <time>2017-07-18T07:25:22Z</time>
      </trkpt>
      <trkpt lat="47.2282" lon="5.4042">
        <ele>175.60000610352</ele>
        <time>2017-07-18T07:25:24Z</time>
      </trkpt>
      <trkpt lat="47.22861" lon="5.40417">
        <ele>175.60000610352</ele>
        <time>2017-07-18T07:25:31Z</time>
      </trkpt>
      <trkpt lat="47.22902" lon="5.40409">
        <ele>175.80000305176</ele>
        <time>2017-07-18T07:25:38Z</time>
      </trkpt>
      <trkpt lat="47.22949" lon="5.40397">
        <ele>175.80000305176</ele>
        <time>2017-07-18T07:25:46Z</time>
      </trkpt>
      <trkpt lat="47.22993" lon="5.40374">
        <ele>176</ele>
        <time>2017-07-18T07:25:54Z</time>
      </trkpt>
      <trkpt lat="47.23014" lon="5.40356">
        <ele>175.80000305176</ele>
        <time>2017-07-18T07:25:58Z</time>
      </trkpt>
      <trkpt lat="47.23023" lon="5.40346">
        <ele>175.80000305176</ele>
        <time>2017-07-18T07:26:00Z</time>
      </trkpt>
      <trkpt lat="47.23038" lon="5.40331">
        <ele>175.80000305176</ele>
        <time>2017-07-18T07:26:03Z</time>
      </trkpt>
      <trkpt lat="47.2305" lon="5.40326">
        <ele>175.80000305176</ele>
        <time>2017-07-18T07:26:05Z</time>
      </trkpt>
      <trkpt lat="47.23072" lon="5.40322">
        <ele>176</ele>
        <time>2017-07-18T07:26:09Z</time>
      </trkpt>
      <trkpt lat="47.23076" lon="5.40322">
        <ele>176</ele>
        <time>2017-07-18T07:26:10Z</time>
      </trkpt>
      <trkpt lat="47.23102" lon="5.40326">
        <ele>176.19999694824</ele>
        <time>2017-07-18T07:26:16Z</time>
      </trkpt>
      <trkpt lat="47.2313" lon="5.4033">
        <ele>176.19999694824</ele>
        <time>2017-07-18T07:26:22Z</time>
      </trkpt>
      <trkpt lat="47.23159" lon="5.40339">
        <ele>176.19999694824</ele>
        <time>2017-07-18T07:26:28Z</time>
      </trkpt>
      <trkpt lat="47.23183" lon="5.40345">
        <ele>176.60000610352</ele>
        <time>2017-07-18T07:26:34Z</time>
      </trkpt>
      <trkpt lat="47.23198" lon="5.40347">
        <ele>177.39999389648</ele>
        <time>2017-07-18T07:26:39Z</time>
      </trkpt>
      <trkpt lat="47.23204" lon="5.40346">
        <ele>177.80000305176</ele>
        <time>2017-07-18T07:26:41Z</time>
      </trkpt>
      <trkpt lat="47.2321" lon="5.40346">
        <ele>178.39999389648</ele>
        <time>2017-07-18T07:26:44Z</time>
      </trkpt>
      <trkpt lat="47.23213" lon="5.40345">
        <ele>178.80000305176</ele>
        <time>2017-07-18T07:26:46Z</time>
      </trkpt>
      <trkpt lat="47.23214" lon="5.40344">
        <ele>179</ele>
        <time>2017-07-18T07:26:47Z</time>
      </trkpt>
      <trkpt lat="47.23216" lon="5.40339">
        <ele>179.60000610352</ele>
        <time>2017-07-18T07:28:48Z</time>
      </trkpt>
      <trkpt lat="47.23216" lon="5.40338">
        <ele>179.60000610352</ele>
        <time>2017-07-18T07:28:49Z</time>
      </trkpt>
      <trkpt lat="47.23214" lon="5.40341">
        <ele>179.60000610352</ele>
        <time>2017-07-18T07:28:52Z</time>
      </trkpt>
      <trkpt lat="47.23213" lon="5.40342">
        <ele>179.80000305176</ele>
        <time>2017-07-18T07:28:53Z</time>
      </trkpt>
      <trkpt lat="47.23212" lon="5.40344">
        <ele>179.80000305176</ele>
        <time>2017-07-18T07:28:54Z</time>
      </trkpt>
      <trkpt lat="47.23215" lon="5.40344">
        <ele>179.80000305176</ele>
        <time>2017-07-18T07:28:57Z</time>
      </trkpt>
      <trkpt lat="47.23215" lon="5.40334">
        <ele>179.80000305176</ele>
        <time>2017-07-18T07:29:01Z</time>
      </trkpt>
      <trkpt lat="47.23215" lon="5.40325">
        <ele>180</ele>
        <time>2017-07-18T07:29:04Z</time>
      </trkpt>
      <trkpt lat="47.23216" lon="5.40317">
        <ele>180.60000610352</ele>
        <time>2017-07-18T07:29:07Z</time>
      </trkpt>
      <trkpt lat="47.23217" lon="5.4031">
        <ele>181</ele>
        <time>2017-07-18T07:29:09Z</time>
      </trkpt>
      <trkpt lat="47.23217" lon="5.40293">
        <ele>181.80000305176</ele>
        <time>2017-07-18T07:29:13Z</time>
      </trkpt>
      <trkpt lat="47.23219" lon="5.40279">
        <ele>181.39999389648</ele>
        <time>2017-07-18T07:29:18Z</time>
      </trkpt>
      <trkpt lat="47.23222" lon="5.40266">
        <ele>180</ele>
        <time>2017-07-18T07:29:24Z</time>
      </trkpt>
      <trkpt lat="47.23222" lon="5.40265">
        <ele>178.80000305176</ele>
        <time>2017-07-18T07:29:37Z</time>
      </trkpt>
      <trkpt lat="47.23222" lon="5.40261">
        <ele>178.80000305176</ele>
        <time>2017-07-18T07:29:38Z</time>
      </trkpt>
      <trkpt lat="47.23227" lon="5.40246">
        <ele>178.80000305176</ele>
        <time>2017-07-18T07:29:41Z</time>
      </trkpt>
      <trkpt lat="47.23246" lon="5.40214">
        <ele>177.60000610352</ele>
        <time>2017-07-18T07:29:46Z</time>
      </trkpt>
      <trkpt lat="47.23262" lon="5.4019">
        <ele>176.39999389648</ele>
        <time>2017-07-18T07:29:50Z</time>
      </trkpt>
      <trkpt lat="47.23274" lon="5.40175">
        <ele>176</ele>
        <time>2017-07-18T07:29:53Z</time>
      </trkpt>
      <trkpt lat="47.23278" lon="5.4017">
        <ele>175.80000305176</ele>
        <time>2017-07-18T07:29:54Z</time>
      </trkpt>
      <trkpt lat="47.23289" lon="5.40154">
        <ele>175.80000305176</ele>
        <time>2017-07-18T07:29:57Z</time>
      </trkpt>
      <trkpt lat="47.23296" lon="5.40144">
        <ele>175.80000305176</ele>
        <time>2017-07-18T07:29:59Z</time>
      </trkpt>
      <trkpt lat="47.23326" lon="5.40105">
        <ele>175.80000305176</ele>
        <time>2017-07-18T07:30:06Z</time>
      </trkpt>
      <trkpt lat="47.23366" lon="5.4005">
        <ele>175.60000610352</ele>
        <time>2017-07-18T07:30:16Z</time>
      </trkpt>
      <trkpt lat="47.23403" lon="5.40002">
        <ele>175.60000610352</ele>
        <time>2017-07-18T07:30:25Z</time>
      </trkpt>
      <trkpt lat="47.23443" lon="5.39948">
        <ele>175.60000610352</ele>
        <time>2017-07-18T07:30:35Z</time>
      </trkpt>
      <trkpt lat="47.23468" lon="5.39914">
        <ele>175.60000610352</ele>
        <time>2017-07-18T07:30:41Z</time>
      </trkpt>
      <trkpt lat="47.23506" lon="5.39863">
        <ele>175.39999389648</ele>
        <time>2017-07-18T07:30:50Z</time>
      </trkpt>
      <trkpt lat="47.2351" lon="5.39857">
        <ele>175.39999389648</ele>
        <time>2017-07-18T07:30:51Z</time>
      </trkpt>
      <trkpt lat="47.23535" lon="5.39823">
        <ele>175.39999389648</ele>
        <time>2017-07-18T07:30:57Z</time>
      </trkpt>
      <trkpt lat="47.23562" lon="5.39784">
        <ele>175.39999389648</ele>
        <time>2017-07-18T07:31:05Z</time>
      </trkpt>
      <trkpt lat="47.23583" lon="5.39759">
        <ele>175.60000610352</ele>
        <time>2017-07-18T07:31:10Z</time>
      </trkpt>
      <trkpt lat="47.23587" lon="5.39754">
        <ele>175.60000610352</ele>
        <time>2017-07-18T07:31:11Z</time>
      </trkpt>
      <trkpt lat="47.23615" lon="5.39715">
        <ele>175.19999694824</ele>
        <time>2017-07-18T07:31:18Z</time>
      </trkpt>
      <trkpt lat="47.23648" lon="5.39671">
        <ele>175.19999694824</ele>
        <time>2017-07-18T07:31:26Z</time>
      </trkpt>
      <trkpt lat="47.23687" lon="5.39619">
        <ele>175.39999389648</ele>
        <time>2017-07-18T07:31:35Z</time>
      </trkpt>
      <trkpt lat="47.23711" lon="5.39584">
        <ele>175.60000610352</ele>
        <time>2017-07-18T07:31:41Z</time>
      </trkpt>
      <trkpt lat="47.23737" lon="5.3955">
        <ele>176</ele>
        <time>2017-07-18T07:31:47Z</time>
      </trkpt>
      <trkpt lat="47.23742" lon="5.39544">
        <ele>176</ele>
        <time>2017-07-18T07:31:48Z</time>
      </trkpt>
      <trkpt lat="47.2375" lon="5.39533">
        <ele>175.80000305176</ele>
        <time>2017-07-18T07:31:50Z</time>
      </trkpt>
      <trkpt lat="47.23754" lon="5.39526">
        <ele>175.60000610352</ele>
        <time>2017-07-18T07:31:51Z</time>
      </trkpt>
      <trkpt lat="47.23762" lon="5.39515">
        <ele>175.39999389648</ele>
        <time>2017-07-18T07:31:53Z</time>
      </trkpt>
      <trkpt lat="47.23766" lon="5.3951">
        <ele>175.39999389648</ele>
        <time>2017-07-18T07:31:54Z</time>
      </trkpt>
      <trkpt lat="47.23787" lon="5.39484">
        <ele>175.80000305176</ele>
        <time>2017-07-18T07:31:59Z</time>
      </trkpt>
      <trkpt lat="47.23792" lon="5.39481">
        <ele>176</ele>
        <time>2017-07-18T07:32:00Z</time>
      </trkpt>
      <trkpt lat="47.23809" lon="5.3948">
        <ele>176</ele>
        <time>2017-07-18T07:32:03Z</time>
      </trkpt>
      <trkpt lat="47.23815" lon="5.39481">
        <ele>176</ele>
        <time>2017-07-18T07:32:04Z</time>
      </trkpt>
      <trkpt lat="47.23844" lon="5.39493">
        <ele>176.19999694824</ele>
        <time>2017-07-18T07:32:09Z</time>
      </trkpt>
      <trkpt lat="47.2385" lon="5.39497">
        <ele>176.19999694824</ele>
        <time>2017-07-18T07:32:10Z</time>
      </trkpt>
      <trkpt lat="47.23869" lon="5.39518">
        <ele>176</ele>
        <time>2017-07-18T07:32:14Z</time>
      </trkpt>
      <trkpt lat="47.23874" lon="5.39524">
        <ele>176</ele>
        <time>2017-07-18T07:32:15Z</time>
      </trkpt>
      <trkpt lat="47.23902" lon="5.39569">
        <ele>176.19999694824</ele>
        <time>2017-07-18T07:32:22Z</time>
      </trkpt>
      <trkpt lat="47.23911" lon="5.3958">
        <ele>176.39999389648</ele>
        <time>2017-07-18T07:32:24Z</time>
      </trkpt>
      <trkpt lat="47.23925" lon="5.39593">
        <ele>176.60000610352</ele>
        <time>2017-07-18T07:32:27Z</time>
      </trkpt>
      <trkpt lat="47.23943" lon="5.39614">
        <ele>176.39999389648</ele>
        <time>2017-07-18T07:32:31Z</time>
      </trkpt>
      <trkpt lat="47.23947" lon="5.39616">
        <ele>176.39999389648</ele>
        <time>2017-07-18T07:32:32Z</time>
      </trkpt>
      <trkpt lat="47.23958" lon="5.39615">
        <ele>176.60000610352</ele>
        <time>2017-07-18T07:32:35Z</time>
      </trkpt>
      <trkpt lat="47.23962" lon="5.39615">
        <ele>177</ele>
        <time>2017-07-18T07:32:36Z</time>
      </trkpt>
      <trkpt lat="47.23969" lon="5.39618">
        <ele>177.60000610352</ele>
        <time>2017-07-18T07:32:38Z</time>
      </trkpt>
      <trkpt lat="47.23976" lon="5.39624">
        <ele>177.80000305176</ele>
        <time>2017-07-18T07:32:40Z</time>
      </trkpt>
      <trkpt lat="47.2398" lon="5.39628">
        <ele>178</ele>
        <time>2017-07-18T07:32:41Z</time>
      </trkpt>
      <trkpt lat="47.23991" lon="5.39641">
        <ele>178.19999694824</ele>
        <time>2017-07-18T07:32:44Z</time>
      </trkpt>
      <trkpt lat="47.24007" lon="5.3966">
        <ele>178.60000610352</ele>
        <time>2017-07-18T07:32:48Z</time>
      </trkpt>
      <trkpt lat="47.24027" lon="5.39684">
        <ele>178.60000610352</ele>
        <time>2017-07-18T07:32:53Z</time>
      </trkpt>
      <trkpt lat="47.24035" lon="5.39693">
        <ele>178.60000610352</ele>
        <time>2017-07-18T07:32:55Z</time>
      </trkpt>
      <trkpt lat="47.24055" lon="5.39717">
        <ele>178.60000610352</ele>
        <time>2017-07-18T07:33:00Z</time>
      </trkpt>
      <trkpt lat="47.24063" lon="5.39728">
        <ele>178.60000610352</ele>
        <time>2017-07-18T07:33:02Z</time>
      </trkpt>
      <trkpt lat="47.24091" lon="5.39764">
        <ele>178.60000610352</ele>
        <time>2017-07-18T07:33:09Z</time>
      </trkpt>
      <trkpt lat="47.24125" lon="5.39806">
        <ele>178.80000305176</ele>
        <time>2017-07-18T07:33:17Z</time>
      </trkpt>
      <trkpt lat="47.24164" lon="5.39855">
        <ele>178.60000610352</ele>
        <time>2017-07-18T07:33:26Z</time>
      </trkpt>
      <trkpt lat="47.24196" lon="5.39901">
        <ele>178.60000610352</ele>
        <time>2017-07-18T07:33:34Z</time>
      </trkpt>
      <trkpt lat="47.24221" lon="5.39956">
        <ele>178.80000305176</ele>
        <time>2017-07-18T07:33:42Z</time>
      </trkpt>
      <trkpt lat="47.2424" lon="5.40018">
        <ele>179</ele>
        <time>2017-07-18T07:33:50Z</time>
      </trkpt>
      <trkpt lat="47.24251" lon="5.40084">
        <ele>178.60000610352</ele>
        <time>2017-07-18T07:33:58Z</time>
      </trkpt>
      <trkpt lat="47.2426" lon="5.40157">
        <ele>178.60000610352</ele>
        <time>2017-07-18T07:34:07Z</time>
      </trkpt>
      <trkpt lat="47.24273" lon="5.40238">
        <ele>178.60000610352</ele>
        <time>2017-07-18T07:34:17Z</time>
      </trkpt>
      <trkpt lat="47.24283" lon="5.40303">
        <ele>178.60000610352</ele>
        <time>2017-07-18T07:34:25Z</time>
      </trkpt>
      <trkpt lat="47.24285" lon="5.4032">
        <ele>178.60000610352</ele>
        <time>2017-07-18T07:34:27Z</time>
      </trkpt>
      <trkpt lat="47.24291" lon="5.40352">
        <ele>178.60000610352</ele>
        <time>2017-07-18T07:34:31Z</time>
      </trkpt>
      <trkpt lat="47.24306" lon="5.40424">
        <ele>178.60000610352</ele>
        <time>2017-07-18T07:34:40Z</time>
      </trkpt>
      <trkpt lat="47.24324" lon="5.40495">
        <ele>178.60000610352</ele>
        <time>2017-07-18T07:34:49Z</time>
      </trkpt>
      <trkpt lat="47.24343" lon="5.40553">
        <ele>178.60000610352</ele>
        <time>2017-07-18T07:34:57Z</time>
      </trkpt>
      <trkpt lat="47.24353" lon="5.40575">
        <ele>178.60000610352</ele>
        <time>2017-07-18T07:35:00Z</time>
      </trkpt>
      <trkpt lat="47.24362" lon="5.40596">
        <ele>178.60000610352</ele>
        <time>2017-07-18T07:35:03Z</time>
      </trkpt>
      <trkpt lat="47.24382" lon="5.40645">
        <ele>178.60000610352</ele>
        <time>2017-07-18T07:35:10Z</time>
      </trkpt>
      <trkpt lat="47.24384" lon="5.40652">
        <ele>178.60000610352</ele>
        <time>2017-07-18T07:35:11Z</time>
      </trkpt>
      <trkpt lat="47.24386" lon="5.40672">
        <ele>178.60000610352</ele>
        <time>2017-07-18T07:35:14Z</time>
      </trkpt>
      <trkpt lat="47.24383" lon="5.40687">
        <ele>179.19999694824</ele>
        <time>2017-07-18T07:35:17Z</time>
      </trkpt>
      <trkpt lat="47.24382" lon="5.40693">
        <ele>179.39999389648</ele>
        <time>2017-07-18T07:35:18Z</time>
      </trkpt>
      <trkpt lat="47.24381" lon="5.40697">
        <ele>179.60000610352</ele>
        <time>2017-07-18T07:35:19Z</time>
      </trkpt>
      <trkpt lat="47.24375" lon="5.40716">
        <ele>180.60000610352</ele>
        <time>2017-07-18T07:35:23Z</time>
      </trkpt>
      <trkpt lat="47.24373" lon="5.4072">
        <ele>180.80000305176</ele>
        <time>2017-07-18T07:35:24Z</time>
      </trkpt>
      <trkpt lat="47.24373" lon="5.40741">
        <ele>181</ele>
        <time>2017-07-18T07:35:28Z</time>
      </trkpt>
      <trkpt lat="47.24384" lon="5.4075">
        <ele>180.60000610352</ele>
        <time>2017-07-18T07:35:31Z</time>
      </trkpt>
      <trkpt lat="47.24392" lon="5.40754">
        <ele>180</ele>
        <time>2017-07-18T07:35:33Z</time>
      </trkpt>
      <trkpt lat="47.244" lon="5.40758">
        <ele>179.60000610352</ele>
        <time>2017-07-18T07:35:35Z</time>
      </trkpt>
      <trkpt lat="47.24413" lon="5.40765">
        <ele>179</ele>
        <time>2017-07-18T07:35:38Z</time>
      </trkpt>
      <trkpt lat="47.24429" lon="5.40773">
        <ele>178.39999389648</ele>
        <time>2017-07-18T07:35:41Z</time>
      </trkpt>
      <trkpt lat="47.24442" lon="5.40782">
        <ele>177.80000305176</ele>
        <time>2017-07-18T07:35:43Z</time>
      </trkpt>
      <trkpt lat="47.24455" lon="5.4079">
        <ele>177.19999694824</ele>
        <time>2017-07-18T07:35:45Z</time>
      </trkpt>
      <trkpt lat="47.24479" lon="5.40812">
        <ele>176.39999389648</ele>
        <time>2017-07-18T07:35:49Z</time>
      </trkpt>
      <trkpt lat="47.24506" lon="5.40841">
        <ele>176.19999694824</ele>
        <time>2017-07-18T07:35:54Z</time>
      </trkpt>
      <trkpt lat="47.2451" lon="5.40848">
        <ele>176</ele>
        <time>2017-07-18T07:35:55Z</time>
      </trkpt>
      <trkpt lat="47.24519" lon="5.40881">
        <ele>176</ele>
        <time>2017-07-18T07:35:59Z</time>
      </trkpt>
      <trkpt lat="47.24517" lon="5.40913">
        <ele>176</ele>
        <time>2017-07-18T07:36:03Z</time>
      </trkpt>
      <trkpt lat="47.24514" lon="5.40926">
        <ele>176.19999694824</ele>
        <time>2017-07-18T07:36:05Z</time>
      </trkpt>
      <trkpt lat="47.24511" lon="5.40942">
        <ele>176.19999694824</ele>
        <time>2017-07-18T07:36:08Z</time>
      </trkpt>
      <trkpt lat="47.24512" lon="5.40939">
        <ele>175.80000305176</ele>
        <time>2017-07-18T07:36:19Z</time>
      </trkpt>
      <trkpt lat="47.24512" lon="5.40934">
        <ele>175.80000305176</ele>
        <time>2017-07-18T07:36:21Z</time>
      </trkpt>
      <trkpt lat="47.24515" lon="5.40923">
        <ele>176</ele>
        <time>2017-07-18T07:36:24Z</time>
      </trkpt>
      <trkpt lat="47.24515" lon="5.40919">
        <ele>176</ele>
        <time>2017-07-18T07:36:25Z</time>
      </trkpt>
      <trkpt lat="47.24519" lon="5.40897">
        <ele>176</ele>
        <time>2017-07-18T07:36:30Z</time>
      </trkpt>
      <trkpt lat="47.24519" lon="5.40874">
        <ele>176.19999694824</ele>
        <time>2017-07-18T07:36:36Z</time>
      </trkpt>
      <trkpt lat="47.24521" lon="5.40871">
        <ele>176.19999694824</ele>
        <time>2017-07-18T07:36:38Z</time>
      </trkpt>
      <trkpt lat="47.24523" lon="5.40875">
        <ele>176</ele>
        <time>2017-07-18T07:36:40Z</time>
      </trkpt>
      <trkpt lat="47.24522" lon="5.40885">
        <ele>175.80000305176</ele>
        <time>2017-07-18T07:36:44Z</time>
      </trkpt>
      <trkpt lat="47.24519" lon="5.409">
        <ele>175.80000305176</ele>
        <time>2017-07-18T07:36:48Z</time>
      </trkpt>
      <trkpt lat="47.24517" lon="5.40911">
        <ele>176</ele>
        <time>2017-07-18T07:36:50Z</time>
      </trkpt>
      <trkpt lat="47.24514" lon="5.40931">
        <ele>176.19999694824</ele>
        <time>2017-07-18T07:36:54Z</time>
      </trkpt>
      <trkpt lat="47.24507" lon="5.40965">
        <ele>176</ele>
        <time>2017-07-18T07:37:02Z</time>
      </trkpt>
      <trkpt lat="47.24503" lon="5.40992">
        <ele>176</ele>
        <time>2017-07-18T07:37:08Z</time>
      </trkpt>
      <trkpt lat="47.24501" lon="5.41009">
        <ele>176</ele>
        <time>2017-07-18T07:37:11Z</time>
      </trkpt>
      <trkpt lat="47.24498" lon="5.41034">
        <ele>176</ele>
        <time>2017-07-18T07:37:15Z</time>
      </trkpt>
      <trkpt lat="47.24491" lon="5.41075">
        <ele>176.19999694824</ele>
        <time>2017-07-18T07:37:21Z</time>
      </trkpt>
      <trkpt lat="47.24489" lon="5.41082">
        <ele>176.19999694824</ele>
        <time>2017-07-18T07:37:22Z</time>
      </trkpt>
      <trkpt lat="47.24474" lon="5.41102">
        <ele>176.19999694824</ele>
        <time>2017-07-18T07:37:26Z</time>
      </trkpt>
      <trkpt lat="47.24451" lon="5.41105">
        <ele>176.39999389648</ele>
        <time>2017-07-18T07:37:30Z</time>
      </trkpt>
      <trkpt lat="47.2442" lon="5.41105">
        <ele>176.39999389648</ele>
        <time>2017-07-18T07:37:36Z</time>
      </trkpt>
      <trkpt lat="47.24375" lon="5.41108">
        <ele>176.39999389648</ele>
        <time>2017-07-18T07:37:45Z</time>
      </trkpt>
      <trkpt lat="47.24321" lon="5.41112">
        <ele>176.60000610352</ele>
        <time>2017-07-18T07:37:55Z</time>
      </trkpt>
      <trkpt lat="47.24272" lon="5.41116">
        <ele>176.39999389648</ele>
        <time>2017-07-18T07:38:04Z</time>
      </trkpt>
      <trkpt lat="47.24219" lon="5.41119">
        <ele>176.39999389648</ele>
        <time>2017-07-18T07:38:14Z</time>
      </trkpt>
      <trkpt lat="47.24171" lon="5.41123">
        <ele>176.19999694824</ele>
        <time>2017-07-18T07:38:23Z</time>
      </trkpt>
      <trkpt lat="47.24118" lon="5.41125">
        <ele>176.19999694824</ele>
        <time>2017-07-18T07:38:33Z</time>
      </trkpt>
      <trkpt lat="47.24071" lon="5.41132">
        <ele>176.19999694824</ele>
        <time>2017-07-18T07:38:42Z</time>
      </trkpt>
      <trkpt lat="47.24062" lon="5.41152">
        <ele>176.19999694824</ele>
        <time>2017-07-18T07:38:45Z</time>
      </trkpt>
      <trkpt lat="47.24061" lon="5.41168">
        <ele>176</ele>
        <time>2017-07-18T07:38:47Z</time>
      </trkpt>
      <trkpt lat="47.24059" lon="5.41184">
        <ele>176</ele>
        <time>2017-07-18T07:38:49Z</time>
      </trkpt>
      <trkpt lat="47.24056" lon="5.412">
        <ele>176.19999694824</ele>
        <time>2017-07-18T07:38:51Z</time>
      </trkpt>
      <trkpt lat="47.24053" lon="5.41225">
        <ele>176.19999694824</ele>
        <time>2017-07-18T07:38:54Z</time>
      </trkpt>
      <trkpt lat="47.24048" lon="5.41265">
        <ele>176.39999389648</ele>
        <time>2017-07-18T07:38:59Z</time>
      </trkpt>
      <trkpt lat="47.24046" lon="5.41282">
        <ele>176.39999389648</ele>
        <time>2017-07-18T07:39:01Z</time>
      </trkpt>
      <trkpt lat="47.24039" lon="5.4136">
        <ele>176</ele>
        <time>2017-07-18T07:39:10Z</time>
      </trkpt>
      <trkpt lat="47.24035" lon="5.41426">
        <ele>176</ele>
        <time>2017-07-18T07:39:18Z</time>
      </trkpt>
      <trkpt lat="47.2403" lon="5.4145">
        <ele>176.19999694824</ele>
        <time>2017-07-18T07:39:21Z</time>
      </trkpt>
      <trkpt lat="47.24025" lon="5.41475">
        <ele>176.19999694824</ele>
        <time>2017-07-18T07:39:24Z</time>
      </trkpt>
      <trkpt lat="47.2401" lon="5.41528">
        <ele>176.19999694824</ele>
        <time>2017-07-18T07:39:31Z</time>
      </trkpt>
      <trkpt lat="47.23988" lon="5.41596">
        <ele>176.19999694824</ele>
        <time>2017-07-18T07:39:40Z</time>
      </trkpt>
      <trkpt lat="47.23967" lon="5.41643">
        <ele>176.19999694824</ele>
        <time>2017-07-18T07:39:47Z</time>
      </trkpt>
      <trkpt lat="47.23937" lon="5.41692">
        <ele>176.39999389648</ele>
        <time>2017-07-18T07:39:55Z</time>
      </trkpt>
      <trkpt lat="47.23916" lon="5.41733">
        <ele>176.39999389648</ele>
        <time>2017-07-18T07:40:01Z</time>
      </trkpt>
      <trkpt lat="47.23912" lon="5.41741">
        <ele>176.39999389648</ele>
        <time>2017-07-18T07:40:02Z</time>
      </trkpt>
      <trkpt lat="47.23899" lon="5.41783">
        <ele>176.19999694824</ele>
        <time>2017-07-18T07:40:07Z</time>
      </trkpt>
      <trkpt lat="47.23882" lon="5.41839">
        <ele>176</ele>
        <time>2017-07-18T07:40:14Z</time>
      </trkpt>
      <trkpt lat="47.23856" lon="5.41904">
        <ele>176.19999694824</ele>
        <time>2017-07-18T07:40:23Z</time>
      </trkpt>
      <trkpt lat="47.23835" lon="5.41947">
        <ele>176.80000305176</ele>
        <time>2017-07-18T07:40:30Z</time>
      </trkpt>
      <trkpt lat="47.23829" lon="5.41958">
        <ele>177</ele>
        <time>2017-07-18T07:40:32Z</time>
      </trkpt>
      <trkpt lat="47.23826" lon="5.41963">
        <ele>177.19999694824</ele>
        <time>2017-07-18T07:40:33Z</time>
      </trkpt>
      <trkpt lat="47.2382" lon="5.41975">
        <ele>177.39999389648</ele>
        <time>2017-07-18T07:40:35Z</time>
      </trkpt>
      <trkpt lat="47.23817" lon="5.41981">
        <ele>177.60000610352</ele>
        <time>2017-07-18T07:40:36Z</time>
      </trkpt>
      <trkpt lat="47.23791" lon="5.4203">
        <ele>178</ele>
        <time>2017-07-18T07:40:44Z</time>
      </trkpt>
      <trkpt lat="47.23761" lon="5.42087">
        <ele>177.19999694824</ele>
        <time>2017-07-18T07:40:52Z</time>
      </trkpt>
      <trkpt lat="47.23748" lon="5.42121">
        <ele>176.60000610352</ele>
        <time>2017-07-18T07:40:56Z</time>
      </trkpt>
      <trkpt lat="47.23744" lon="5.42139">
        <ele>176.39999389648</ele>
        <time>2017-07-18T07:40:58Z</time>
      </trkpt>
      <trkpt lat="47.23737" lon="5.42174">
        <ele>176.19999694824</ele>
        <time>2017-07-18T07:41:02Z</time>
      </trkpt>
      <trkpt lat="47.23735" lon="5.42182">
        <ele>176.19999694824</ele>
        <time>2017-07-18T07:41:03Z</time>
      </trkpt>
      <trkpt lat="47.23731" lon="5.42199">
        <ele>176.19999694824</ele>
        <time>2017-07-18T07:41:05Z</time>
      </trkpt>
      <trkpt lat="47.23712" lon="5.42281">
        <ele>176.60000610352</ele>
        <time>2017-07-18T07:41:15Z</time>
      </trkpt>
      <trkpt lat="47.23697" lon="5.42347">
        <ele>176.39999389648</ele>
        <time>2017-07-18T07:41:23Z</time>
      </trkpt>
      <trkpt lat="47.23679" lon="5.42423">
        <ele>176.39999389648</ele>
        <time>2017-07-18T07:41:32Z</time>
      </trkpt>
      <trkpt lat="47.23663" lon="5.4249">
        <ele>176.39999389648</ele>
        <time>2017-07-18T07:41:40Z</time>
      </trkpt>
      <trkpt lat="47.23649" lon="5.4255">
        <ele>176.19999694824</ele>
        <time>2017-07-18T07:41:47Z</time>
      </trkpt>
      <trkpt lat="47.23632" lon="5.42624">
        <ele>176.19999694824</ele>
        <time>2017-07-18T07:41:56Z</time>
      </trkpt>
      <trkpt lat="47.23614" lon="5.42698">
        <ele>176.19999694824</ele>
        <time>2017-07-18T07:42:05Z</time>
      </trkpt>
      <trkpt lat="47.23599" lon="5.42763">
        <ele>176.39999389648</ele>
        <time>2017-07-18T07:42:13Z</time>
      </trkpt>
      <trkpt lat="47.23579" lon="5.42844">
        <ele>176.39999389648</ele>
        <time>2017-07-18T07:42:23Z</time>
      </trkpt>
      <trkpt lat="47.23577" lon="5.42853">
        <ele>176.39999389648</ele>
        <time>2017-07-18T07:42:24Z</time>
      </trkpt>
      <trkpt lat="47.23559" lon="5.42931">
        <ele>176.19999694824</ele>
        <time>2017-07-18T07:42:33Z</time>
      </trkpt>
      <trkpt lat="47.23556" lon="5.42939">
        <ele>176.19999694824</ele>
        <time>2017-07-18T07:42:34Z</time>
      </trkpt>
      <trkpt lat="47.23538" lon="5.43016">
        <ele>176.19999694824</ele>
        <time>2017-07-18T07:42:43Z</time>
      </trkpt>
      <trkpt lat="47.23537" lon="5.43024">
        <ele>176.19999694824</ele>
        <time>2017-07-18T07:42:44Z</time>
      </trkpt>
      <trkpt lat="47.23521" lon="5.43091">
        <ele>176.39999389648</ele>
        <time>2017-07-18T07:42:52Z</time>
      </trkpt>
      <trkpt lat="47.23504" lon="5.43165">
        <ele>176.39999389648</ele>
        <time>2017-07-18T07:43:01Z</time>
      </trkpt>
      <trkpt lat="47.23491" lon="5.4322">
        <ele>176.60000610352</ele>
        <time>2017-07-18T07:43:08Z</time>
      </trkpt>
      <trkpt lat="47.23472" lon="5.43297">
        <ele>176.60000610352</ele>
        <time>2017-07-18T07:43:18Z</time>
      </trkpt>
      <trkpt lat="47.23471" lon="5.43305">
        <ele>176.60000610352</ele>
        <time>2017-07-18T07:43:19Z</time>
      </trkpt>
      <trkpt lat="47.23456" lon="5.43366">
        <ele>176.80000305176</ele>
        <time>2017-07-18T07:43:27Z</time>
      </trkpt>
      <trkpt lat="47.23438" lon="5.43444">
        <ele>177</ele>
        <time>2017-07-18T07:43:37Z</time>
      </trkpt>
      <trkpt lat="47.23436" lon="5.43452">
        <ele>177</ele>
        <time>2017-07-18T07:43:38Z</time>
      </trkpt>
      <trkpt lat="47.23424" lon="5.43503">
        <ele>177.19999694824</ele>
        <time>2017-07-18T07:43:45Z</time>
      </trkpt>
      <trkpt lat="47.2342" lon="5.43516">
        <ele>177.39999389648</ele>
        <time>2017-07-18T07:43:47Z</time>
      </trkpt>
      <trkpt lat="47.23412" lon="5.43534">
        <ele>177.39999389648</ele>
        <time>2017-07-18T07:43:50Z</time>
      </trkpt>
      <trkpt lat="47.23401" lon="5.43555">
        <ele>177.80000305176</ele>
        <time>2017-07-18T07:43:54Z</time>
      </trkpt>
      <trkpt lat="47.23389" lon="5.43572">
        <ele>178.39999389648</ele>
        <time>2017-07-18T07:43:58Z</time>
      </trkpt>
      <trkpt lat="47.23379" lon="5.43584">
        <ele>178.80000305176</ele>
        <time>2017-07-18T07:44:01Z</time>
      </trkpt>
      <trkpt lat="47.2337" lon="5.43595">
        <ele>179.60000610352</ele>
        <time>2017-07-18T07:44:04Z</time>
      </trkpt>
      <trkpt lat="47.23353" lon="5.43618">
        <ele>180.60000610352</ele>
        <time>2017-07-18T07:44:10Z</time>
      </trkpt>
      <trkpt lat="47.23337" lon="5.43641">
        <ele>181.60000610352</ele>
        <time>2017-07-18T07:44:16Z</time>
      </trkpt>
      <trkpt lat="47.23334" lon="5.43645">
        <ele>181.80000305176</ele>
        <time>2017-07-18T07:44:17Z</time>
      </trkpt>
      <trkpt lat="47.23321" lon="5.43665">
        <ele>182.80000305176</ele>
        <time>2017-07-18T07:44:22Z</time>
      </trkpt>
      <trkpt lat="47.23316" lon="5.43672">
        <ele>183</ele>
        <time>2017-07-18T07:44:24Z</time>
      </trkpt>
      <trkpt lat="47.23305" lon="5.43686">
        <ele>183.80000305176</ele>
        <time>2017-07-18T07:44:28Z</time>
      </trkpt>
      <trkpt lat="47.23301" lon="5.43696">
        <ele>184</ele>
        <time>2017-07-18T07:44:30Z</time>
      </trkpt>
      <trkpt lat="47.2329" lon="5.43714">
        <ele>184.39999389648</ele>
        <time>2017-07-18T07:44:34Z</time>
      </trkpt>
      <trkpt lat="47.23288" lon="5.43719">
        <ele>184.60000610352</ele>
        <time>2017-07-18T07:44:35Z</time>
      </trkpt>
      <trkpt lat="47.23281" lon="5.43735">
        <ele>184.80000305176</ele>
        <time>2017-07-18T07:44:38Z</time>
      </trkpt>
      <trkpt lat="47.23274" lon="5.43753">
        <ele>185</ele>
        <time>2017-07-18T07:44:41Z</time>
      </trkpt>
      <trkpt lat="47.23251" lon="5.4381">
        <ele>184.80000305176</ele>
        <time>2017-07-18T07:44:50Z</time>
      </trkpt>
      <trkpt lat="47.23233" lon="5.43854">
        <ele>184.80000305176</ele>
        <time>2017-07-18T07:44:57Z</time>
      </trkpt>
      <trkpt lat="47.23216" lon="5.43898">
        <ele>185</ele>
        <time>2017-07-18T07:45:05Z</time>
      </trkpt>
      <trkpt lat="47.23207" lon="5.43921">
        <ele>185</ele>
        <time>2017-07-18T07:45:11Z</time>
      </trkpt>
      <trkpt lat="47.232" lon="5.43943">
        <ele>185</ele>
        <time>2017-07-18T07:45:17Z</time>
      </trkpt>
      <trkpt lat="47.23189" lon="5.43974">
        <ele>185.19999694824</ele>
        <time>2017-07-18T07:45:24Z</time>
      </trkpt>
      <trkpt lat="47.23175" lon="5.44014">
        <ele>185.80000305176</ele>
        <time>2017-07-18T07:45:32Z</time>
      </trkpt>
      <trkpt lat="47.23173" lon="5.44018">
        <ele>185.80000305176</ele>
        <time>2017-07-18T07:45:33Z</time>
      </trkpt>
      <trkpt lat="47.23167" lon="5.44032">
        <ele>186.19999694824</ele>
        <time>2017-07-18T07:45:36Z</time>
      </trkpt>
      <trkpt lat="47.23157" lon="5.44055">
        <ele>187</ele>
        <time>2017-07-18T07:45:41Z</time>
      </trkpt>
      <trkpt lat="47.23145" lon="5.44082">
        <ele>187.60000610352</ele>
        <time>2017-07-18T07:45:47Z</time>
      </trkpt>
      <trkpt lat="47.23137" lon="5.44107">
        <ele>188</ele>
        <time>2017-07-18T07:45:52Z</time>
      </trkpt>
      <trkpt lat="47.2313" lon="5.44127">
        <ele>188.19999694824</ele>
        <time>2017-07-18T07:45:56Z</time>
      </trkpt>
      <trkpt lat="47.23129" lon="5.44132">
        <ele>188.19999694824</ele>
        <time>2017-07-18T07:45:57Z</time>
      </trkpt>
      <trkpt lat="47.23123" lon="5.44157">
        <ele>188.60000610352</ele>
        <time>2017-07-18T07:46:02Z</time>
      </trkpt>
      <trkpt lat="47.23122" lon="5.44184">
        <ele>188.80000305176</ele>
        <time>2017-07-18T07:46:07Z</time>
      </trkpt>
      <trkpt lat="47.23122" lon="5.44196">
        <ele>188.80000305176</ele>
        <time>2017-07-18T07:46:09Z</time>
      </trkpt>
      <trkpt lat="47.23123" lon="5.4422">
        <ele>189</ele>
        <time>2017-07-18T07:46:13Z</time>
      </trkpt>
      <trkpt lat="47.23123" lon="5.4423">
        <ele>189</ele>
        <time>2017-07-18T07:46:15Z</time>
      </trkpt>
      <trkpt lat="47.23121" lon="5.44248">
        <ele>189.19999694824</ele>
        <time>2017-07-18T07:46:19Z</time>
      </trkpt>
      <trkpt lat="47.23116" lon="5.44278">
        <ele>189.39999389648</ele>
        <time>2017-07-18T07:46:24Z</time>
      </trkpt>
      <trkpt lat="47.23105" lon="5.44323">
        <ele>189.80000305176</ele>
        <time>2017-07-18T07:46:31Z</time>
      </trkpt>
      <trkpt lat="47.23097" lon="5.44348">
        <ele>190</ele>
        <time>2017-07-18T07:46:35Z</time>
      </trkpt>
      <trkpt lat="47.23088" lon="5.44374">
        <ele>190.19999694824</ele>
        <time>2017-07-18T07:46:39Z</time>
      </trkpt>
      <trkpt lat="47.2308" lon="5.444">
        <ele>190.19999694824</ele>
        <time>2017-07-18T07:46:43Z</time>
      </trkpt>
      <trkpt lat="47.23073" lon="5.44419">
        <ele>190.19999694824</ele>
        <time>2017-07-18T07:46:46Z</time>
      </trkpt>
      <trkpt lat="47.23071" lon="5.44426">
        <ele>190.19999694824</ele>
        <time>2017-07-18T07:46:47Z</time>
      </trkpt>
      <trkpt lat="47.23054" lon="5.44469">
        <ele>190.39999389648</ele>
        <time>2017-07-18T07:46:54Z</time>
      </trkpt>
      <trkpt lat="47.23035" lon="5.44517">
        <ele>190.19999694824</ele>
        <time>2017-07-18T07:47:01Z</time>
      </trkpt>
      <trkpt lat="47.2302" lon="5.44561">
        <ele>189.60000610352</ele>
        <time>2017-07-18T07:47:08Z</time>
      </trkpt>
      <trkpt lat="47.23015" lon="5.44587">
        <ele>189.60000610352</ele>
        <time>2017-07-18T07:47:13Z</time>
      </trkpt>
      <trkpt lat="47.23023" lon="5.44606">
        <ele>189.60000610352</ele>
        <time>2017-07-18T07:47:17Z</time>
      </trkpt>
      <trkpt lat="47.23042" lon="5.4464">
        <ele>189</ele>
        <time>2017-07-18T07:47:23Z</time>
      </trkpt>
      <trkpt lat="47.23055" lon="5.44666">
        <ele>188.19999694824</ele>
        <time>2017-07-18T07:47:28Z</time>
      </trkpt>
      <trkpt lat="47.23059" lon="5.44671">
        <ele>187.39999389648</ele>
        <time>2017-07-18T07:48:04Z</time>
      </trkpt>
      <trkpt lat="47.23063" lon="5.44682">
        <ele>187.39999389648</ele>
        <time>2017-07-18T07:48:07Z</time>
      </trkpt>
      <trkpt lat="47.23067" lon="5.44691">
        <ele>187.39999389648</ele>
        <time>2017-07-18T07:48:09Z</time>
      </trkpt>
      <trkpt lat="47.23081" lon="5.44717">
        <ele>187.39999389648</ele>
        <time>2017-07-18T07:48:14Z</time>
      </trkpt>
      <trkpt lat="47.23086" lon="5.44728">
        <ele>187.19999694824</ele>
        <time>2017-07-18T07:48:16Z</time>
      </trkpt>
      <trkpt lat="47.23093" lon="5.44742">
        <ele>187</ele>
        <time>2017-07-18T07:48:19Z</time>
      </trkpt>
      <trkpt lat="47.23097" lon="5.44745">
        <ele>187</ele>
        <time>2017-07-18T07:48:20Z</time>
      </trkpt>
      <trkpt lat="47.23106" lon="5.44752">
        <ele>186.80000305176</ele>
        <time>2017-07-18T07:48:22Z</time>
      </trkpt>
      <trkpt lat="47.23111" lon="5.44756">
        <ele>186.80000305176</ele>
        <time>2017-07-18T07:48:23Z</time>
      </trkpt>
      <trkpt lat="47.23115" lon="5.44761">
        <ele>186.60000610352</ele>
        <time>2017-07-18T07:48:24Z</time>
      </trkpt>
      <trkpt lat="47.2313" lon="5.44778">
        <ele>186.39999389648</ele>
        <time>2017-07-18T07:48:27Z</time>
      </trkpt>
      <trkpt lat="47.2315" lon="5.44803">
        <ele>185.80000305176</ele>
        <time>2017-07-18T07:48:31Z</time>
      </trkpt>
      <trkpt lat="47.23167" lon="5.44826">
        <ele>185</ele>
        <time>2017-07-18T07:48:34Z</time>
      </trkpt>
      <trkpt lat="47.23172" lon="5.44834">
        <ele>184.80000305176</ele>
        <time>2017-07-18T07:48:35Z</time>
      </trkpt>
      <trkpt lat="47.23196" lon="5.44866">
        <ele>183.39999389648</ele>
        <time>2017-07-18T07:48:39Z</time>
      </trkpt>
      <trkpt lat="47.23203" lon="5.44873">
        <ele>183.19999694824</ele>
        <time>2017-07-18T07:48:40Z</time>
      </trkpt>
      <trkpt lat="47.2321" lon="5.44879">
        <ele>182.80000305176</ele>
        <time>2017-07-18T07:48:41Z</time>
      </trkpt>
      <trkpt lat="47.23222" lon="5.44892">
        <ele>182.19999694824</ele>
        <time>2017-07-18T07:48:43Z</time>
      </trkpt>
      <trkpt lat="47.23229" lon="5.44896">
        <ele>181.80000305176</ele>
        <time>2017-07-18T07:48:44Z</time>
      </trkpt>
      <trkpt lat="47.23243" lon="5.44898">
        <ele>181.39999389648</ele>
        <time>2017-07-18T07:48:46Z</time>
      </trkpt>
      <trkpt lat="47.23253" lon="5.44886">
        <ele>181.19999694824</ele>
        <time>2017-07-18T07:48:48Z</time>
      </trkpt>
      <trkpt lat="47.23258" lon="5.4488">
        <ele>181</ele>
        <time>2017-07-18T07:48:49Z</time>
      </trkpt>
      <trkpt lat="47.23266" lon="5.44857">
        <ele>181</ele>
        <time>2017-07-18T07:48:52Z</time>
      </trkpt>
      <trkpt lat="47.23268" lon="5.44849">
        <ele>181</ele>
        <time>2017-07-18T07:48:53Z</time>
      </trkpt>
      <trkpt lat="47.23275" lon="5.44825">
        <ele>181</ele>
        <time>2017-07-18T07:48:56Z</time>
      </trkpt>
      <trkpt lat="47.23277" lon="5.44817">
        <ele>181</ele>
        <time>2017-07-18T07:48:57Z</time>
      </trkpt>
      <trkpt lat="47.23286" lon="5.44764">
        <ele>180.80000305176</ele>
        <time>2017-07-18T07:49:03Z</time>
      </trkpt>
      <trkpt lat="47.233" lon="5.4472">
        <ele>180.60000610352</ele>
        <time>2017-07-18T07:49:08Z</time>
      </trkpt>
      <trkpt lat="47.23304" lon="5.44712">
        <ele>180.60000610352</ele>
        <time>2017-07-18T07:49:09Z</time>
      </trkpt>
      <trkpt lat="47.23336" lon="5.44662">
        <ele>180.80000305176</ele>
        <time>2017-07-18T07:49:16Z</time>
      </trkpt>
      <trkpt lat="47.23369" lon="5.44615">
        <ele>180.39999389648</ele>
        <time>2017-07-18T07:49:24Z</time>
      </trkpt>
      <trkpt lat="47.23373" lon="5.4461">
        <ele>180.19999694824</ele>
        <time>2017-07-18T07:49:25Z</time>
      </trkpt>
      <trkpt lat="47.2339" lon="5.44587">
        <ele>180.19999694824</ele>
        <time>2017-07-18T07:49:29Z</time>
      </trkpt>
      <trkpt lat="47.23419" lon="5.44545">
        <ele>180.19999694824</ele>
        <time>2017-07-18T07:49:36Z</time>
      </trkpt>
      <trkpt lat="47.23423" lon="5.44539">
        <ele>180.19999694824</ele>
        <time>2017-07-18T07:49:37Z</time>
      </trkpt>
      <trkpt lat="47.23451" lon="5.44501">
        <ele>180.19999694824</ele>
        <time>2017-07-18T07:49:43Z</time>
      </trkpt>
      <trkpt lat="47.23474" lon="5.44472">
        <ele>180</ele>
        <time>2017-07-18T07:49:48Z</time>
      </trkpt>
      <trkpt lat="47.23482" lon="5.44458">
        <ele>179.80000305176</ele>
        <time>2017-07-18T07:49:50Z</time>
      </trkpt>
      <trkpt lat="47.23486" lon="5.44453">
        <ele>179.80000305176</ele>
        <time>2017-07-18T07:49:51Z</time>
      </trkpt>
      <trkpt lat="47.23505" lon="5.44429">
        <ele>179.80000305176</ele>
        <time>2017-07-18T07:49:55Z</time>
      </trkpt>
      <trkpt lat="47.23539" lon="5.44383">
        <ele>179.60000610352</ele>
        <time>2017-07-18T07:50:02Z</time>
      </trkpt>
      <trkpt lat="47.2358" lon="5.44325">
        <ele>179.39999389648</ele>
        <time>2017-07-18T07:50:11Z</time>
      </trkpt>
      <trkpt lat="47.23585" lon="5.44319">
        <ele>179.39999389648</ele>
        <time>2017-07-18T07:50:12Z</time>
      </trkpt>
      <trkpt lat="47.23605" lon="5.44291">
        <ele>179</ele>
        <time>2017-07-18T07:50:17Z</time>
      </trkpt>
      <trkpt lat="47.23617" lon="5.44275">
        <ele>178.80000305176</ele>
        <time>2017-07-18T07:50:20Z</time>
      </trkpt>
      <trkpt lat="47.23648" lon="5.44237">
        <ele>178.60000610352</ele>
        <time>2017-07-18T07:50:27Z</time>
      </trkpt>
      <trkpt lat="47.23663" lon="5.44222">
        <ele>178.60000610352</ele>
        <time>2017-07-18T07:50:30Z</time>
      </trkpt>
      <trkpt lat="47.23679" lon="5.44212">
        <ele>178.60000610352</ele>
        <time>2017-07-18T07:50:33Z</time>
      </trkpt>
      <trkpt lat="47.23684" lon="5.44209">
        <ele>178.60000610352</ele>
        <time>2017-07-18T07:50:34Z</time>
      </trkpt>
      <trkpt lat="47.23709" lon="5.44205">
        <ele>178.39999389648</ele>
        <time>2017-07-18T07:50:38Z</time>
      </trkpt>
      <trkpt lat="47.23735" lon="5.44212">
        <ele>178.39999389648</ele>
        <time>2017-07-18T07:50:42Z</time>
      </trkpt>
      <trkpt lat="47.23741" lon="5.44215">
        <ele>178.39999389648</ele>
        <time>2017-07-18T07:50:43Z</time>
      </trkpt>
      <trkpt lat="47.23747" lon="5.44219">
        <ele>178.39999389648</ele>
        <time>2017-07-18T07:50:44Z</time>
      </trkpt>
      <trkpt lat="47.23763" lon="5.44236">
        <ele>178.39999389648</ele>
        <time>2017-07-18T07:50:47Z</time>
      </trkpt>
      <trkpt lat="47.23768" lon="5.44243">
        <ele>178.39999389648</ele>
        <time>2017-07-18T07:50:48Z</time>
      </trkpt>
      <trkpt lat="47.23801" lon="5.44279">
        <ele>178.60000610352</ele>
        <time>2017-07-18T07:50:54Z</time>
      </trkpt>
      <trkpt lat="47.23838" lon="5.44306">
        <ele>178.39999389648</ele>
        <time>2017-07-18T07:51:00Z</time>
      </trkpt>
      <trkpt lat="47.23874" lon="5.44336">
        <ele>178.39999389648</ele>
        <time>2017-07-18T07:51:06Z</time>
      </trkpt>
      <trkpt lat="47.23918" lon="5.44384">
        <ele>178.19999694824</ele>
        <time>2017-07-18T07:51:14Z</time>
      </trkpt>
      <trkpt lat="47.23951" lon="5.44433">
        <ele>178</ele>
        <time>2017-07-18T07:51:21Z</time>
      </trkpt>
      <trkpt lat="47.23981" lon="5.44484">
        <ele>178</ele>
        <time>2017-07-18T07:51:28Z</time>
      </trkpt>
      <trkpt lat="47.23991" lon="5.44498">
        <ele>178</ele>
        <time>2017-07-18T07:51:30Z</time>
      </trkpt>
      <trkpt lat="47.24001" lon="5.4451">
        <ele>178</ele>
        <time>2017-07-18T07:51:32Z</time>
      </trkpt>
      <trkpt lat="47.24007" lon="5.44516">
        <ele>178</ele>
        <time>2017-07-18T07:51:33Z</time>
      </trkpt>
      <trkpt lat="47.2403" lon="5.44533">
        <ele>177.80000305176</ele>
        <time>2017-07-18T07:51:37Z</time>
      </trkpt>
      <trkpt lat="47.24037" lon="5.44536">
        <ele>177.80000305176</ele>
        <time>2017-07-18T07:51:38Z</time>
      </trkpt>
      <trkpt lat="47.2407" lon="5.44551">
        <ele>177.60000610352</ele>
        <time>2017-07-18T07:51:43Z</time>
      </trkpt>
      <trkpt lat="47.24083" lon="5.44559">
        <ele>177.39999389648</ele>
        <time>2017-07-18T07:51:45Z</time>
      </trkpt>
      <trkpt lat="47.24102" lon="5.4457">
        <ele>177.60000610352</ele>
        <time>2017-07-18T07:51:48Z</time>
      </trkpt>
      <trkpt lat="47.24138" lon="5.44597">
        <ele>177.60000610352</ele>
        <time>2017-07-18T07:51:54Z</time>
      </trkpt>
      <trkpt lat="47.2415" lon="5.44602">
        <ele>177.80000305176</ele>
        <time>2017-07-18T07:51:56Z</time>
      </trkpt>
      <trkpt lat="47.2417" lon="5.44609">
        <ele>178</ele>
        <time>2017-07-18T07:51:59Z</time>
      </trkpt>
      <trkpt lat="47.24229" lon="5.44624">
        <ele>177.60000610352</ele>
        <time>2017-07-18T07:52:07Z</time>
      </trkpt>
      <trkpt lat="47.24286" lon="5.44637">
        <ele>177.60000610352</ele>
        <time>2017-07-18T07:52:15Z</time>
      </trkpt>
      <trkpt lat="47.243" lon="5.44639">
        <ele>177.60000610352</ele>
        <time>2017-07-18T07:52:17Z</time>
      </trkpt>
      <trkpt lat="47.24358" lon="5.4465">
        <ele>177.39999389648</ele>
        <time>2017-07-18T07:52:25Z</time>
      </trkpt>
      <trkpt lat="47.2438" lon="5.44654">
        <ele>177.19999694824</ele>
        <time>2017-07-18T07:52:28Z</time>
      </trkpt>
      <trkpt lat="47.24441" lon="5.44664">
        <ele>177.19999694824</ele>
        <time>2017-07-18T07:52:36Z</time>
      </trkpt>
      <trkpt lat="47.24448" lon="5.44664">
        <ele>177.19999694824</ele>
        <time>2017-07-18T07:52:37Z</time>
      </trkpt>
      <trkpt lat="47.24508" lon="5.44662">
        <ele>177.39999389648</ele>
        <time>2017-07-18T07:52:45Z</time>
      </trkpt>
      <trkpt lat="47.2455" lon="5.44667">
        <ele>177.60000610352</ele>
        <time>2017-07-18T07:52:51Z</time>
      </trkpt>
      <trkpt lat="47.24609" lon="5.44676">
        <ele>178.39999389648</ele>
        <time>2017-07-18T07:53:00Z</time>
      </trkpt>
      <trkpt lat="47.24663" lon="5.44683">
        <ele>178.39999389648</ele>
        <time>2017-07-18T07:53:08Z</time>
      </trkpt>
      <trkpt lat="47.24719" lon="5.44693">
        <ele>178.39999389648</ele>
        <time>2017-07-18T07:53:16Z</time>
      </trkpt>
      <trkpt lat="47.24726" lon="5.44694">
        <ele>178.39999389648</ele>
        <time>2017-07-18T07:53:17Z</time>
      </trkpt>
      <trkpt lat="47.24775" lon="5.44709">
        <ele>178.19999694824</ele>
        <time>2017-07-18T07:53:24Z</time>
      </trkpt>
      <trkpt lat="47.24829" lon="5.44729">
        <ele>178.19999694824</ele>
        <time>2017-07-18T07:53:32Z</time>
      </trkpt>
      <trkpt lat="47.24835" lon="5.44732">
        <ele>178.19999694824</ele>
        <time>2017-07-18T07:53:33Z</time>
      </trkpt>
      <trkpt lat="47.24889" lon="5.44754">
        <ele>178.39999389648</ele>
        <time>2017-07-18T07:53:41Z</time>
      </trkpt>
      <trkpt lat="47.24902" lon="5.44759">
        <ele>178.60000610352</ele>
        <time>2017-07-18T07:53:43Z</time>
      </trkpt>
      <trkpt lat="47.2496" lon="5.44781">
        <ele>178.60000610352</ele>
        <time>2017-07-18T07:53:52Z</time>
      </trkpt>
      <trkpt lat="47.25002" lon="5.44793">
        <ele>178.19999694824</ele>
        <time>2017-07-18T07:53:58Z</time>
      </trkpt>
      <trkpt lat="47.25009" lon="5.44793">
        <ele>178</ele>
        <time>2017-07-18T07:53:59Z</time>
      </trkpt>
      <trkpt lat="47.25031" lon="5.44789">
        <ele>177.80000305176</ele>
        <time>2017-07-18T07:54:02Z</time>
      </trkpt>
      <trkpt lat="47.25046" lon="5.44787">
        <ele>177.80000305176</ele>
        <time>2017-07-18T07:54:04Z</time>
      </trkpt>
      <trkpt lat="47.25079" lon="5.44775">
        <ele>177.80000305176</ele>
        <time>2017-07-18T07:54:09Z</time>
      </trkpt>
      <trkpt lat="47.25134" lon="5.44766">
        <ele>178.19999694824</ele>
        <time>2017-07-18T07:54:17Z</time>
      </trkpt>
      <trkpt lat="47.25176" lon="5.44773">
        <ele>178.19999694824</ele>
        <time>2017-07-18T07:54:23Z</time>
      </trkpt>
      <trkpt lat="47.25209" lon="5.44774">
        <ele>178.39999389648</ele>
        <time>2017-07-18T07:54:29Z</time>
      </trkpt>
      <trkpt lat="47.25242" lon="5.44772">
        <ele>178.60000610352</ele>
        <time>2017-07-18T07:54:35Z</time>
      </trkpt>
      <trkpt lat="47.25248" lon="5.44772">
        <ele>178.80000305176</ele>
        <time>2017-07-18T07:54:36Z</time>
      </trkpt>
      <trkpt lat="47.25271" lon="5.44773">
        <ele>179</ele>
        <time>2017-07-18T07:54:40Z</time>
      </trkpt>
      <trkpt lat="47.25283" lon="5.44773">
        <ele>179</ele>
        <time>2017-07-18T07:54:42Z</time>
      </trkpt>
      <trkpt lat="47.25313" lon="5.44777">
        <ele>179.19999694824</ele>
        <time>2017-07-18T07:54:47Z</time>
      </trkpt>
      <trkpt lat="47.25319" lon="5.44777">
        <ele>179.19999694824</ele>
        <time>2017-07-18T07:54:48Z</time>
      </trkpt>
      <trkpt lat="47.25348" lon="5.44785">
        <ele>179.39999389648</ele>
        <time>2017-07-18T07:54:53Z</time>
      </trkpt>
      <trkpt lat="47.25388" lon="5.44803">
        <ele>179.60000610352</ele>
        <time>2017-07-18T07:55:00Z</time>
      </trkpt>
      <trkpt lat="47.25423" lon="5.44821">
        <ele>179.60000610352</ele>
        <time>2017-07-18T07:55:06Z</time>
      </trkpt>
      <trkpt lat="47.25469" lon="5.44846">
        <ele>179.80000305176</ele>
        <time>2017-07-18T07:55:14Z</time>
      </trkpt>
      <trkpt lat="47.25516" lon="5.44872">
        <ele>180</ele>
        <time>2017-07-18T07:55:22Z</time>
      </trkpt>
      <trkpt lat="47.2554" lon="5.44884">
        <ele>180</ele>
        <time>2017-07-18T07:55:26Z</time>
      </trkpt>
      <trkpt lat="47.25563" lon="5.44896">
        <ele>180.39999389648</ele>
        <time>2017-07-18T07:55:30Z</time>
      </trkpt>
      <trkpt lat="47.25602" lon="5.44911">
        <ele>180.60000610352</ele>
        <time>2017-07-18T07:55:37Z</time>
      </trkpt>
      <trkpt lat="47.25621" lon="5.44911">
        <ele>180.60000610352</ele>
        <time>2017-07-18T07:55:41Z</time>
      </trkpt>
      <trkpt lat="47.25624" lon="5.44904">
        <ele>180.60000610352</ele>
        <time>2017-07-18T07:55:42Z</time>
      </trkpt>
      <trkpt lat="47.25628" lon="5.44891">
        <ele>180.60000610352</ele>
        <time>2017-07-18T07:55:44Z</time>
      </trkpt>
      <trkpt lat="47.25632" lon="5.44879">
        <ele>180.60000610352</ele>
        <time>2017-07-18T07:55:46Z</time>
      </trkpt>
      <trkpt lat="47.25635" lon="5.44874">
        <ele>180.39999389648</ele>
        <time>2017-07-18T07:55:47Z</time>
      </trkpt>
      <trkpt lat="47.25656" lon="5.44861">
        <ele>179.80000305176</ele>
        <time>2017-07-18T07:55:51Z</time>
      </trkpt>
      <trkpt lat="47.25679" lon="5.44865">
        <ele>179.60000610352</ele>
        <time>2017-07-18T07:55:55Z</time>
      </trkpt>
      <trkpt lat="47.2569" lon="5.44871">
        <ele>179.60000610352</ele>
        <time>2017-07-18T07:55:57Z</time>
      </trkpt>
      <trkpt lat="47.25695" lon="5.44874">
        <ele>179.80000305176</ele>
        <time>2017-07-18T07:55:58Z</time>
      </trkpt>
      <trkpt lat="47.25705" lon="5.44882">
        <ele>179.80000305176</ele>
        <time>2017-07-18T07:56:00Z</time>
      </trkpt>
      <trkpt lat="47.25709" lon="5.44888">
        <ele>180</ele>
        <time>2017-07-18T07:56:01Z</time>
      </trkpt>
      <trkpt lat="47.2572" lon="5.44909">
        <ele>180</ele>
        <time>2017-07-18T07:56:04Z</time>
      </trkpt>
      <trkpt lat="47.25748" lon="5.44962">
        <ele>180.80000305176</ele>
        <time>2017-07-18T07:56:12Z</time>
      </trkpt>
      <trkpt lat="47.25757" lon="5.44973">
        <ele>181</ele>
        <time>2017-07-18T07:56:14Z</time>
      </trkpt>
      <trkpt lat="47.25777" lon="5.44996">
        <ele>181.19999694824</ele>
        <time>2017-07-18T07:56:19Z</time>
      </trkpt>
      <trkpt lat="47.258" lon="5.45024">
        <ele>181.60000610352</ele>
        <time>2017-07-18T07:56:25Z</time>
      </trkpt>
      <trkpt lat="47.25818" lon="5.45046">
        <ele>181.39999389648</ele>
        <time>2017-07-18T07:56:31Z</time>
      </trkpt>
      <trkpt lat="47.25829" lon="5.45059">
        <ele>181.80000305176</ele>
        <time>2017-07-18T07:57:17Z</time>
      </trkpt>
      <trkpt lat="47.25832" lon="5.45061">
        <ele>182</ele>
        <time>2017-07-18T07:57:19Z</time>
      </trkpt>
      <trkpt lat="47.25839" lon="5.45069">
        <ele>182</ele>
        <time>2017-07-18T07:57:22Z</time>
      </trkpt>
      <trkpt lat="47.25841" lon="5.45072">
        <ele>182</ele>
        <time>2017-07-18T07:57:23Z</time>
      </trkpt>
      <trkpt lat="47.25853" lon="5.45089">
        <ele>182.19999694824</ele>
        <time>2017-07-18T07:57:28Z</time>
      </trkpt>
      <trkpt lat="47.25886" lon="5.45127">
        <ele>183</ele>
        <time>2017-07-18T07:57:38Z</time>
      </trkpt>
      <trkpt lat="47.25889" lon="5.45132">
        <ele>183.19999694824</ele>
        <time>2017-07-18T07:57:39Z</time>
      </trkpt>
      <trkpt lat="47.25916" lon="5.45158">
        <ele>183.60000610352</ele>
        <time>2017-07-18T07:57:46Z</time>
      </trkpt>
      <trkpt lat="47.25945" lon="5.45174">
        <ele>184</ele>
        <time>2017-07-18T07:57:52Z</time>
      </trkpt>
      <trkpt lat="47.25949" lon="5.45176">
        <ele>184.19999694824</ele>
        <time>2017-07-18T07:57:53Z</time>
      </trkpt>
      <trkpt lat="47.25999" lon="5.45201">
        <ele>184.80000305176</ele>
        <time>2017-07-18T07:58:03Z</time>
      </trkpt>
      <trkpt lat="47.26041" lon="5.45222">
        <ele>184.60000610352</ele>
        <time>2017-07-18T07:58:11Z</time>
      </trkpt>
      <trkpt lat="47.2608" lon="5.45243">
        <ele>184.19999694824</ele>
        <time>2017-07-18T07:58:18Z</time>
      </trkpt>
      <trkpt lat="47.26119" lon="5.45262">
        <ele>184.19999694824</ele>
        <time>2017-07-18T07:58:25Z</time>
      </trkpt>
      <trkpt lat="47.26155" lon="5.45277">
        <ele>184</ele>
        <time>2017-07-18T07:58:31Z</time>
      </trkpt>
      <trkpt lat="47.26207" lon="5.45286">
        <ele>183.19999694824</ele>
        <time>2017-07-18T07:58:39Z</time>
      </trkpt>
      <trkpt lat="47.26226" lon="5.45284">
        <ele>182.80000305176</ele>
        <time>2017-07-18T07:58:42Z</time>
      </trkpt>
      <trkpt lat="47.26238" lon="5.45278">
        <ele>182.60000610352</ele>
        <time>2017-07-18T07:58:44Z</time>
      </trkpt>
      <trkpt lat="47.26272" lon="5.45261">
        <ele>182</ele>
        <time>2017-07-18T07:58:49Z</time>
      </trkpt>
      <trkpt lat="47.26285" lon="5.45256">
        <ele>181.60000610352</ele>
        <time>2017-07-18T07:58:51Z</time>
      </trkpt>
      <trkpt lat="47.26313" lon="5.45246">
        <ele>181</ele>
        <time>2017-07-18T07:58:55Z</time>
      </trkpt>
      <trkpt lat="47.26343" lon="5.45239">
        <ele>180.60000610352</ele>
        <time>2017-07-18T07:58:59Z</time>
      </trkpt>
      <trkpt lat="47.26387" lon="5.45233">
        <ele>179.80000305176</ele>
        <time>2017-07-18T07:59:05Z</time>
      </trkpt>
      <trkpt lat="47.26394" lon="5.45232">
        <ele>179.80000305176</ele>
        <time>2017-07-18T07:59:06Z</time>
      </trkpt>
      <trkpt lat="47.26444" lon="5.45225">
        <ele>179.39999389648</ele>
        <time>2017-07-18T07:59:13Z</time>
      </trkpt>
      <trkpt lat="47.26481" lon="5.45209">
        <ele>179</ele>
        <time>2017-07-18T07:59:19Z</time>
      </trkpt>
      <trkpt lat="47.26494" lon="5.45201">
        <ele>178.80000305176</ele>
        <time>2017-07-18T07:59:21Z</time>
      </trkpt>
      <trkpt lat="47.26511" lon="5.45185">
        <ele>178.80000305176</ele>
        <time>2017-07-18T07:59:24Z</time>
      </trkpt>
      <trkpt lat="47.26521" lon="5.45174">
        <ele>178.80000305176</ele>
        <time>2017-07-18T07:59:26Z</time>
      </trkpt>
      <trkpt lat="47.26534" lon="5.45167">
        <ele>178.80000305176</ele>
        <time>2017-07-18T07:59:29Z</time>
      </trkpt>
      <trkpt lat="47.26536" lon="5.45167">
        <ele>178.80000305176</ele>
        <time>2017-07-18T07:59:30Z</time>
      </trkpt>
      <trkpt lat="47.26539" lon="5.45165">
        <ele>179</ele>
        <time>2017-07-18T07:59:45Z</time>
      </trkpt>
      <trkpt lat="47.26538" lon="5.45154">
        <ele>179.19999694824</ele>
        <time>2017-07-18T07:59:49Z</time>
      </trkpt>
      <trkpt lat="47.26535" lon="5.45133">
        <ele>179</ele>
        <time>2017-07-18T07:59:53Z</time>
      </trkpt>
      <trkpt lat="47.26536" lon="5.45127">
        <ele>179</ele>
        <time>2017-07-18T07:59:54Z</time>
      </trkpt>
      <trkpt lat="47.26541" lon="5.45111">
        <ele>179</ele>
        <time>2017-07-18T07:59:57Z</time>
      </trkpt>
      <trkpt lat="47.26545" lon="5.45096">
        <ele>178.80000305176</ele>
        <time>2017-07-18T08:00:00Z</time>
      </trkpt>
      <trkpt lat="47.26544" lon="5.4508">
        <ele>178.80000305176</ele>
        <time>2017-07-18T08:00:03Z</time>
      </trkpt>
      <trkpt lat="47.26541" lon="5.45076">
        <ele>178.80000305176</ele>
        <time>2017-07-18T08:00:04Z</time>
      </trkpt>
      <trkpt lat="47.26529" lon="5.45058">
        <ele>178.80000305176</ele>
        <time>2017-07-18T08:00:08Z</time>
      </trkpt>
      <trkpt lat="47.26528" lon="5.45046">
        <ele>178.80000305176</ele>
        <time>2017-07-18T08:00:10Z</time>
      </trkpt>
      <trkpt lat="47.2653" lon="5.45026">
        <ele>179</ele>
        <time>2017-07-18T08:00:13Z</time>
      </trkpt>
      <trkpt lat="47.26535" lon="5.45004">
        <ele>179.19999694824</ele>
        <time>2017-07-18T08:00:16Z</time>
      </trkpt>
      <trkpt lat="47.26549" lon="5.44952">
        <ele>179.39999389648</ele>
        <time>2017-07-18T08:00:23Z</time>
      </trkpt>
      <trkpt lat="47.26556" lon="5.44918">
        <ele>179.39999389648</ele>
        <time>2017-07-18T08:00:27Z</time>
      </trkpt>
      <trkpt lat="47.26559" lon="5.4491">
        <ele>179.39999389648</ele>
        <time>2017-07-18T08:00:28Z</time>
      </trkpt>
      <trkpt lat="47.26578" lon="5.44878">
        <ele>179</ele>
        <time>2017-07-18T08:00:33Z</time>
      </trkpt>
      <trkpt lat="47.26577" lon="5.4486">
        <ele>178.80000305176</ele>
        <time>2017-07-18T08:00:36Z</time>
      </trkpt>
      <trkpt lat="47.26566" lon="5.44845">
        <ele>178.80000305176</ele>
        <time>2017-07-18T08:00:39Z</time>
      </trkpt>
      <trkpt lat="47.26562" lon="5.4484">
        <ele>178.80000305176</ele>
        <time>2017-07-18T08:00:40Z</time>
      </trkpt>
      <trkpt lat="47.26532" lon="5.44796">
        <ele>179</ele>
        <time>2017-07-18T08:00:48Z</time>
      </trkpt>
      <trkpt lat="47.26509" lon="5.44759">
        <ele>179.19999694824</ele>
        <time>2017-07-18T08:00:54Z</time>
      </trkpt>
      <trkpt lat="47.26496" lon="5.4473">
        <ele>179</ele>
        <time>2017-07-18T08:00:58Z</time>
      </trkpt>
      <trkpt lat="47.26493" lon="5.44714">
        <ele>178.80000305176</ele>
        <time>2017-07-18T08:01:00Z</time>
      </trkpt>
      <trkpt lat="47.26491" lon="5.4469">
        <ele>179</ele>
        <time>2017-07-18T08:01:03Z</time>
      </trkpt>
      <trkpt lat="47.26493" lon="5.44663">
        <ele>179.39999389648</ele>
        <time>2017-07-18T08:01:06Z</time>
      </trkpt>
      <trkpt lat="47.26493" lon="5.44619">
        <ele>179</ele>
        <time>2017-07-18T08:01:11Z</time>
      </trkpt>
      <trkpt lat="47.26481" lon="5.44557">
        <ele>178.60000610352</ele>
        <time>2017-07-18T08:01:18Z</time>
      </trkpt>
      <trkpt lat="47.26466" lon="5.44497">
        <ele>178.19999694824</ele>
        <time>2017-07-18T08:01:25Z</time>
      </trkpt>
      <trkpt lat="47.26451" lon="5.44439">
        <ele>178.19999694824</ele>
        <time>2017-07-18T08:01:32Z</time>
      </trkpt>
      <trkpt lat="47.26431" lon="5.44364">
        <ele>178.19999694824</ele>
        <time>2017-07-18T08:01:41Z</time>
      </trkpt>
      <trkpt lat="47.26414" lon="5.44298">
        <ele>178.19999694824</ele>
        <time>2017-07-18T08:01:49Z</time>
      </trkpt>
      <trkpt lat="47.26389" lon="5.44221">
        <ele>178.19999694824</ele>
        <time>2017-07-18T08:01:59Z</time>
      </trkpt>
      <trkpt lat="47.26367" lon="5.44161">
        <ele>178</ele>
        <time>2017-07-18T08:02:07Z</time>
      </trkpt>
      <trkpt lat="47.26343" lon="5.44091">
        <ele>178</ele>
        <time>2017-07-18T08:02:16Z</time>
      </trkpt>
      <trkpt lat="47.26336" lon="5.4405">
        <ele>178</ele>
        <time>2017-07-18T08:02:21Z</time>
      </trkpt>
      <trkpt lat="47.26335" lon="5.44042">
        <ele>178</ele>
        <time>2017-07-18T08:02:22Z</time>
      </trkpt>
      <trkpt lat="47.26334" lon="5.44009">
        <ele>178</ele>
        <time>2017-07-18T08:02:26Z</time>
      </trkpt>
      <trkpt lat="47.2633" lon="5.4395">
        <ele>178</ele>
        <time>2017-07-18T08:02:33Z</time>
      </trkpt>
      <trkpt lat="47.26326" lon="5.43871">
        <ele>178</ele>
        <time>2017-07-18T08:02:42Z</time>
      </trkpt>
      <trkpt lat="47.26323" lon="5.43802">
        <ele>178</ele>
        <time>2017-07-18T08:02:50Z</time>
      </trkpt>
      <trkpt lat="47.26326" lon="5.43759">
        <ele>178</ele>
        <time>2017-07-18T08:02:55Z</time>
      </trkpt>
      <trkpt lat="47.26328" lon="5.4375">
        <ele>178</ele>
        <time>2017-07-18T08:02:56Z</time>
      </trkpt>
      <trkpt lat="47.26337" lon="5.43726">
        <ele>177.80000305176</ele>
        <time>2017-07-18T08:02:59Z</time>
      </trkpt>
      <trkpt lat="47.26348" lon="5.43704">
        <ele>177.80000305176</ele>
        <time>2017-07-18T08:03:02Z</time>
      </trkpt>
      <trkpt lat="47.26356" lon="5.4369">
        <ele>177.80000305176</ele>
        <time>2017-07-18T08:03:04Z</time>
      </trkpt>
      <trkpt lat="47.26384" lon="5.43639">
        <ele>177.80000305176</ele>
        <time>2017-07-18T08:03:11Z</time>
      </trkpt>
      <trkpt lat="47.26419" lon="5.4357">
        <ele>177.80000305176</ele>
        <time>2017-07-18T08:03:20Z</time>
      </trkpt>
      <trkpt lat="47.26423" lon="5.43563">
        <ele>177.80000305176</ele>
        <time>2017-07-18T08:03:21Z</time>
      </trkpt>
      <trkpt lat="47.2645" lon="5.43501">
        <ele>178</ele>
        <time>2017-07-18T08:03:29Z</time>
      </trkpt>
      <trkpt lat="47.26469" lon="5.43448">
        <ele>178</ele>
        <time>2017-07-18T08:03:36Z</time>
      </trkpt>
      <trkpt lat="47.26489" lon="5.43402">
        <ele>177.80000305176</ele>
        <time>2017-07-18T08:03:42Z</time>
      </trkpt>
      <trkpt lat="47.26523" lon="5.43335">
        <ele>177.80000305176</ele>
        <time>2017-07-18T08:03:51Z</time>
      </trkpt>
      <trkpt lat="47.26555" lon="5.43278">
        <ele>177.60000610352</ele>
        <time>2017-07-18T08:03:59Z</time>
      </trkpt>
      <trkpt lat="47.26582" lon="5.43231">
        <ele>177.80000305176</ele>
        <time>2017-07-18T08:04:06Z</time>
      </trkpt>
      <trkpt lat="47.26608" lon="5.43184">
        <ele>177.80000305176</ele>
        <time>2017-07-18T08:04:13Z</time>
      </trkpt>
      <trkpt lat="47.26645" lon="5.43124">
        <ele>177.80000305176</ele>
        <time>2017-07-18T08:04:22Z</time>
      </trkpt>
      <trkpt lat="47.26676" lon="5.43095">
        <ele>177.80000305176</ele>
        <time>2017-07-18T08:04:28Z</time>
      </trkpt>
      <trkpt lat="47.26726" lon="5.43062">
        <ele>178</ele>
        <time>2017-07-18T08:04:37Z</time>
      </trkpt>
      <trkpt lat="47.26736" lon="5.43053">
        <ele>178</ele>
        <time>2017-07-18T08:04:39Z</time>
      </trkpt>
      <trkpt lat="47.2675" lon="5.43025">
        <ele>178</ele>
        <time>2017-07-18T08:04:43Z</time>
      </trkpt>
      <trkpt lat="47.26753" lon="5.43001">
        <ele>178.39999389648</ele>
        <time>2017-07-18T08:04:46Z</time>
      </trkpt>
      <trkpt lat="47.26754" lon="5.42992">
        <ele>178.39999389648</ele>
        <time>2017-07-18T08:04:47Z</time>
      </trkpt>
      <trkpt lat="47.26764" lon="5.42918">
        <ele>178.60000610352</ele>
        <time>2017-07-18T08:04:55Z</time>
      </trkpt>
      <trkpt lat="47.26771" lon="5.42858">
        <ele>178.39999389648</ele>
        <time>2017-07-18T08:05:02Z</time>
      </trkpt>
      <trkpt lat="47.26777" lon="5.42816">
        <ele>178.19999694824</ele>
        <time>2017-07-18T08:05:07Z</time>
      </trkpt>
      <trkpt lat="47.26782" lon="5.42776">
        <ele>178.39999389648</ele>
        <time>2017-07-18T08:05:12Z</time>
      </trkpt>
      <trkpt lat="47.26793" lon="5.42709">
        <ele>178.39999389648</ele>
        <time>2017-07-18T08:05:20Z</time>
      </trkpt>
      <trkpt lat="47.26803" lon="5.42639">
        <ele>178.19999694824</ele>
        <time>2017-07-18T08:05:28Z</time>
      </trkpt>
      <trkpt lat="47.26805" lon="5.42622">
        <ele>178.19999694824</ele>
        <time>2017-07-18T08:05:30Z</time>
      </trkpt>
      <trkpt lat="47.26813" lon="5.42561">
        <ele>178.19999694824</ele>
        <time>2017-07-18T08:05:37Z</time>
      </trkpt>
      <trkpt lat="47.26823" lon="5.42482">
        <ele>178.39999389648</ele>
        <time>2017-07-18T08:05:46Z</time>
      </trkpt>
      <trkpt lat="47.26825" lon="5.42473">
        <ele>178.39999389648</ele>
        <time>2017-07-18T08:05:47Z</time>
      </trkpt>
      <trkpt lat="47.26836" lon="5.42393">
        <ele>178.39999389648</ele>
        <time>2017-07-18T08:05:56Z</time>
      </trkpt>
      <trkpt lat="47.26848" lon="5.42313">
        <ele>178.19999694824</ele>
        <time>2017-07-18T08:06:05Z</time>
      </trkpt>
      <trkpt lat="47.26859" lon="5.42234">
        <ele>178.19999694824</ele>
        <time>2017-07-18T08:06:14Z</time>
      </trkpt>
      <trkpt lat="47.26861" lon="5.42217">
        <ele>178.19999694824</ele>
        <time>2017-07-18T08:06:16Z</time>
      </trkpt>
      <trkpt lat="47.26872" lon="5.42139">
        <ele>178.19999694824</ele>
        <time>2017-07-18T08:06:25Z</time>
      </trkpt>
      <trkpt lat="47.26876" lon="5.42114">
        <ele>178.19999694824</ele>
        <time>2017-07-18T08:06:28Z</time>
      </trkpt>
      <trkpt lat="47.26885" lon="5.42051">
        <ele>178</ele>
        <time>2017-07-18T08:06:35Z</time>
      </trkpt>
      <trkpt lat="47.26895" lon="5.41981">
        <ele>178</ele>
        <time>2017-07-18T08:06:43Z</time>
      </trkpt>
      <trkpt lat="47.26906" lon="5.41903">
        <ele>178</ele>
        <time>2017-07-18T08:06:52Z</time>
      </trkpt>
      <trkpt lat="47.26907" lon="5.41895">
        <ele>178</ele>
        <time>2017-07-18T08:06:53Z</time>
      </trkpt>
      <trkpt lat="47.26919" lon="5.41809">
        <ele>178</ele>
        <time>2017-07-18T08:07:03Z</time>
      </trkpt>
      <trkpt lat="47.2693" lon="5.41731">
        <ele>178.19999694824</ele>
        <time>2017-07-18T08:07:12Z</time>
      </trkpt>
      <trkpt lat="47.26938" lon="5.41679">
        <ele>178.39999389648</ele>
        <time>2017-07-18T08:07:18Z</time>
      </trkpt>
      <trkpt lat="47.26945" lon="5.41629">
        <ele>178.39999389648</ele>
        <time>2017-07-18T08:07:24Z</time>
      </trkpt>
      <trkpt lat="47.26949" lon="5.41595">
        <ele>178.39999389648</ele>
        <time>2017-07-18T08:07:28Z</time>
      </trkpt>
      <trkpt lat="47.26955" lon="5.41554">
        <ele>178.60000610352</ele>
        <time>2017-07-18T08:07:33Z</time>
      </trkpt>
      <trkpt lat="47.26963" lon="5.41496">
        <ele>178.60000610352</ele>
        <time>2017-07-18T08:07:40Z</time>
      </trkpt>
      <trkpt lat="47.26973" lon="5.41428">
        <ele>178.60000610352</ele>
        <time>2017-07-18T08:07:48Z</time>
      </trkpt>
      <trkpt lat="47.26983" lon="5.41354">
        <ele>178.60000610352</ele>
        <time>2017-07-18T08:07:57Z</time>
      </trkpt>
      <trkpt lat="47.26995" lon="5.41278">
        <ele>178.80000305176</ele>
        <time>2017-07-18T08:08:06Z</time>
      </trkpt>
      <trkpt lat="47.27006" lon="5.41192">
        <ele>178.80000305176</ele>
        <time>2017-07-18T08:08:16Z</time>
      </trkpt>
      <trkpt lat="47.27017" lon="5.41114">
        <ele>178.60000610352</ele>
        <time>2017-07-18T08:08:25Z</time>
      </trkpt>
      <trkpt lat="47.27018" lon="5.41105">
        <ele>178.80000305176</ele>
        <time>2017-07-18T08:08:26Z</time>
      </trkpt>
      <trkpt lat="47.27024" lon="5.4106">
        <ele>178.80000305176</ele>
        <time>2017-07-18T08:08:31Z</time>
      </trkpt>
      <trkpt lat="47.27029" lon="5.41026">
        <ele>179</ele>
        <time>2017-07-18T08:08:35Z</time>
      </trkpt>
      <trkpt lat="47.27036" lon="5.40974">
        <ele>179</ele>
        <time>2017-07-18T08:08:41Z</time>
      </trkpt>
      <trkpt lat="47.27045" lon="5.40895">
        <ele>179</ele>
        <time>2017-07-18T08:08:50Z</time>
      </trkpt>
      <trkpt lat="47.27051" lon="5.40817">
        <ele>179.19999694824</ele>
        <time>2017-07-18T08:08:59Z</time>
      </trkpt>
      <trkpt lat="47.27059" lon="5.40738">
        <ele>179</ele>
        <time>2017-07-18T08:09:08Z</time>
      </trkpt>
      <trkpt lat="47.27074" lon="5.40659">
        <ele>178.80000305176</ele>
        <time>2017-07-18T08:09:17Z</time>
      </trkpt>
      <trkpt lat="47.27094" lon="5.40596">
        <ele>178.80000305176</ele>
        <time>2017-07-18T08:09:25Z</time>
      </trkpt>
      <trkpt lat="47.27119" lon="5.40553">
        <ele>178.80000305176</ele>
        <time>2017-07-18T08:09:32Z</time>
      </trkpt>
      <trkpt lat="47.27146" lon="5.40522">
        <ele>178.80000305176</ele>
        <time>2017-07-18T08:09:38Z</time>
      </trkpt>
      <trkpt lat="47.27151" lon="5.40518">
        <ele>178.80000305176</ele>
        <time>2017-07-18T08:09:39Z</time>
      </trkpt>
      <trkpt lat="47.27189" lon="5.40481">
        <ele>179.19999694824</ele>
        <time>2017-07-18T08:09:47Z</time>
      </trkpt>
      <trkpt lat="47.27193" lon="5.40478">
        <ele>179.19999694824</ele>
        <time>2017-07-18T08:09:48Z</time>
      </trkpt>
      <trkpt lat="47.272" lon="5.40478">
        <ele>179.19999694824</ele>
        <time>2017-07-18T08:09:50Z</time>
      </trkpt>
      <trkpt lat="47.2721" lon="5.40483">
        <ele>179.19999694824</ele>
        <time>2017-07-18T08:09:53Z</time>
      </trkpt>
      <trkpt lat="47.27218" lon="5.40486">
        <ele>179</ele>
        <time>2017-07-18T08:09:55Z</time>
      </trkpt>
      <trkpt lat="47.27245" lon="5.40496">
        <ele>178.60000610352</ele>
        <time>2017-07-18T08:10:01Z</time>
      </trkpt>
      <trkpt lat="47.27262" lon="5.40503">
        <ele>178.60000610352</ele>
        <time>2017-07-18T08:10:04Z</time>
      </trkpt>
      <trkpt lat="47.27272" lon="5.40512">
        <ele>178.60000610352</ele>
        <time>2017-07-18T08:10:06Z</time>
      </trkpt>
      <trkpt lat="47.27287" lon="5.40529">
        <ele>178.39999389648</ele>
        <time>2017-07-18T08:10:09Z</time>
      </trkpt>
      <trkpt lat="47.27307" lon="5.40552">
        <ele>178.39999389648</ele>
        <time>2017-07-18T08:10:13Z</time>
      </trkpt>
      <trkpt lat="47.27328" lon="5.40574">
        <ele>178.39999389648</ele>
        <time>2017-07-18T08:10:17Z</time>
      </trkpt>
      <trkpt lat="47.2734" lon="5.40581">
        <ele>178.39999389648</ele>
        <time>2017-07-18T08:10:19Z</time>
      </trkpt>
      <trkpt lat="47.2738" lon="5.40602">
        <ele>178.39999389648</ele>
        <time>2017-07-18T08:10:26Z</time>
      </trkpt>
      <trkpt lat="47.27413" lon="5.40619">
        <ele>178.80000305176</ele>
        <time>2017-07-18T08:10:32Z</time>
      </trkpt>
      <trkpt lat="47.27418" lon="5.40622">
        <ele>178.80000305176</ele>
        <time>2017-07-18T08:10:33Z</time>
      </trkpt>
      <trkpt lat="47.27452" lon="5.4064">
        <ele>178.80000305176</ele>
        <time>2017-07-18T08:10:40Z</time>
      </trkpt>
      <trkpt lat="47.27462" lon="5.40647">
        <ele>178.80000305176</ele>
        <time>2017-07-18T08:10:42Z</time>
      </trkpt>
      <trkpt lat="47.27473" lon="5.40661">
        <ele>178.80000305176</ele>
        <time>2017-07-18T08:10:45Z</time>
      </trkpt>
      <trkpt lat="47.27477" lon="5.40684">
        <ele>178.80000305176</ele>
        <time>2017-07-18T08:10:48Z</time>
      </trkpt>
      <trkpt lat="47.27478" lon="5.40692">
        <ele>178.80000305176</ele>
        <time>2017-07-18T08:10:49Z</time>
      </trkpt>
      <trkpt lat="47.27488" lon="5.40739">
        <ele>178.80000305176</ele>
        <time>2017-07-18T08:10:54Z</time>
      </trkpt>
      <trkpt lat="47.2751" lon="5.40809">
        <ele>178.80000305176</ele>
        <time>2017-07-18T08:11:02Z</time>
      </trkpt>
      <trkpt lat="47.27533" lon="5.40863">
        <ele>179</ele>
        <time>2017-07-18T08:11:09Z</time>
      </trkpt>
      <trkpt lat="47.27563" lon="5.40922">
        <ele>178.80000305176</ele>
        <time>2017-07-18T08:11:17Z</time>
      </trkpt>
      <trkpt lat="47.27592" lon="5.4097">
        <ele>179</ele>
        <time>2017-07-18T08:11:24Z</time>
      </trkpt>
      <trkpt lat="47.27626" lon="5.41016">
        <ele>178.80000305176</ele>
        <time>2017-07-18T08:11:31Z</time>
      </trkpt>
      <trkpt lat="47.27642" lon="5.41033">
        <ele>178.80000305176</ele>
        <time>2017-07-18T08:11:34Z</time>
      </trkpt>
      <trkpt lat="47.27659" lon="5.41046">
        <ele>178.80000305176</ele>
        <time>2017-07-18T08:11:37Z</time>
      </trkpt>
      <trkpt lat="47.277" lon="5.41072">
        <ele>178.80000305176</ele>
        <time>2017-07-18T08:11:44Z</time>
      </trkpt>
      <trkpt lat="47.27755" lon="5.41104">
        <ele>179</ele>
        <time>2017-07-18T08:11:53Z</time>
      </trkpt>
      <trkpt lat="47.27761" lon="5.41108">
        <ele>179</ele>
        <time>2017-07-18T08:11:54Z</time>
      </trkpt>
      <trkpt lat="47.27803" lon="5.4113">
        <ele>178.80000305176</ele>
        <time>2017-07-18T08:12:01Z</time>
      </trkpt>
      <trkpt lat="47.27861" lon="5.41145">
        <ele>178.80000305176</ele>
        <time>2017-07-18T08:12:10Z</time>
      </trkpt>
      <trkpt lat="47.27905" lon="5.41149">
        <ele>179</ele>
        <time>2017-07-18T08:12:17Z</time>
      </trkpt>
      <trkpt lat="47.27955" lon="5.41143">
        <ele>179.19999694824</ele>
        <time>2017-07-18T08:12:25Z</time>
      </trkpt>
      <trkpt lat="47.2801" lon="5.41132">
        <ele>179.39999389648</ele>
        <time>2017-07-18T08:12:34Z</time>
      </trkpt>
      <trkpt lat="47.28067" lon="5.41119">
        <ele>179.39999389648</ele>
        <time>2017-07-18T08:12:43Z</time>
      </trkpt>
      <trkpt lat="47.28073" lon="5.41118">
        <ele>179.39999389648</ele>
        <time>2017-07-18T08:12:44Z</time>
      </trkpt>
      <trkpt lat="47.28129" lon="5.41105">
        <ele>179.39999389648</ele>
        <time>2017-07-18T08:12:53Z</time>
      </trkpt>
      <trkpt lat="47.28135" lon="5.41104">
        <ele>179.39999389648</ele>
        <time>2017-07-18T08:12:54Z</time>
      </trkpt>
      <trkpt lat="47.28185" lon="5.41091">
        <ele>179.19999694824</ele>
        <time>2017-07-18T08:13:02Z</time>
      </trkpt>
      <trkpt lat="47.2823" lon="5.41077">
        <ele>179</ele>
        <time>2017-07-18T08:13:09Z</time>
      </trkpt>
      <trkpt lat="47.28272" lon="5.41068">
        <ele>179.19999694824</ele>
        <time>2017-07-18T08:13:16Z</time>
      </trkpt>
      <trkpt lat="47.283" lon="5.41063">
        <ele>179.39999389648</ele>
        <time>2017-07-18T08:13:21Z</time>
      </trkpt>
      <trkpt lat="47.28346" lon="5.41055">
        <ele>179.60000610352</ele>
        <time>2017-07-18T08:13:29Z</time>
      </trkpt>
      <trkpt lat="47.28383" lon="5.41049">
        <ele>179.60000610352</ele>
        <time>2017-07-18T08:13:35Z</time>
      </trkpt>
      <trkpt lat="47.28424" lon="5.41042">
        <ele>179.39999389648</ele>
        <time>2017-07-18T08:13:42Z</time>
      </trkpt>
      <trkpt lat="47.2846" lon="5.41035">
        <ele>179.60000610352</ele>
        <time>2017-07-18T08:13:48Z</time>
      </trkpt>
      <trkpt lat="47.28507" lon="5.41027">
        <ele>179.80000305176</ele>
        <time>2017-07-18T08:13:56Z</time>
      </trkpt>
      <trkpt lat="47.28547" lon="5.41024">
        <ele>179.19999694824</ele>
        <time>2017-07-18T08:14:03Z</time>
      </trkpt>
      <trkpt lat="47.28589" lon="5.41024">
        <ele>179.19999694824</ele>
        <time>2017-07-18T08:14:10Z</time>
      </trkpt>
      <trkpt lat="47.28634" lon="5.4103">
        <ele>179.60000610352</ele>
        <time>2017-07-18T08:14:17Z</time>
      </trkpt>
      <trkpt lat="47.28684" lon="5.41042">
        <ele>179.60000610352</ele>
        <time>2017-07-18T08:14:25Z</time>
      </trkpt>
      <trkpt lat="47.28722" lon="5.41055">
        <ele>179.39999389648</ele>
        <time>2017-07-18T08:14:31Z</time>
      </trkpt>
      <trkpt lat="47.28765" lon="5.41074">
        <ele>179.39999389648</ele>
        <time>2017-07-18T08:14:38Z</time>
      </trkpt>
      <trkpt lat="47.28806" lon="5.4109">
        <ele>179.19999694824</ele>
        <time>2017-07-18T08:14:45Z</time>
      </trkpt>
      <trkpt lat="47.28847" lon="5.41105">
        <ele>179</ele>
        <time>2017-07-18T08:14:52Z</time>
      </trkpt>
      <trkpt lat="47.28893" lon="5.41124">
        <ele>179.19999694824</ele>
        <time>2017-07-18T08:15:00Z</time>
      </trkpt>
      <trkpt lat="47.28932" lon="5.41144">
        <ele>179.19999694824</ele>
        <time>2017-07-18T08:15:07Z</time>
      </trkpt>
      <trkpt lat="47.28973" lon="5.41162">
        <ele>179.19999694824</ele>
        <time>2017-07-18T08:15:14Z</time>
      </trkpt>
      <trkpt lat="47.29018" lon="5.4119">
        <ele>179.19999694824</ele>
        <time>2017-07-18T08:15:22Z</time>
      </trkpt>
      <trkpt lat="47.29054" lon="5.41218">
        <ele>179.19999694824</ele>
        <time>2017-07-18T08:15:29Z</time>
      </trkpt>
      <trkpt lat="47.29102" lon="5.41256">
        <ele>179.39999389648</ele>
        <time>2017-07-18T08:15:38Z</time>
      </trkpt>
      <trkpt lat="47.29149" lon="5.41294">
        <ele>179.60000610352</ele>
        <time>2017-07-18T08:15:47Z</time>
      </trkpt>
      <trkpt lat="47.29154" lon="5.41299">
        <ele>179.60000610352</ele>
        <time>2017-07-18T08:15:48Z</time>
      </trkpt>
      <trkpt lat="47.29185" lon="5.41333">
        <ele>179.60000610352</ele>
        <time>2017-07-18T08:15:54Z</time>
      </trkpt>
      <trkpt lat="47.29219" lon="5.41384">
        <ele>179.60000610352</ele>
        <time>2017-07-18T08:16:02Z</time>
      </trkpt>
      <trkpt lat="47.29247" lon="5.41427">
        <ele>179.60000610352</ele>
        <time>2017-07-18T08:16:09Z</time>
      </trkpt>
      <trkpt lat="47.29277" lon="5.41476">
        <ele>179.80000305176</ele>
        <time>2017-07-18T08:16:17Z</time>
      </trkpt>
      <trkpt lat="47.29306" lon="5.4152">
        <ele>179.80000305176</ele>
        <time>2017-07-18T08:16:24Z</time>
      </trkpt>
      <trkpt lat="47.2931" lon="5.41526">
        <ele>179.80000305176</ele>
        <time>2017-07-18T08:16:25Z</time>
      </trkpt>
      <trkpt lat="47.29338" lon="5.4157">
        <ele>179.80000305176</ele>
        <time>2017-07-18T08:16:32Z</time>
      </trkpt>
      <trkpt lat="47.29366" lon="5.41613">
        <ele>179.60000610352</ele>
        <time>2017-07-18T08:16:39Z</time>
      </trkpt>
      <trkpt lat="47.2939" lon="5.41658">
        <ele>179.60000610352</ele>
        <time>2017-07-18T08:16:46Z</time>
      </trkpt>
      <trkpt lat="47.29403" lon="5.41682">
        <ele>179.60000610352</ele>
        <time>2017-07-18T08:16:50Z</time>
      </trkpt>
      <trkpt lat="47.29407" lon="5.41687">
        <ele>179.60000610352</ele>
        <time>2017-07-18T08:16:51Z</time>
      </trkpt>
      <trkpt lat="47.29431" lon="5.4172">
        <ele>179.39999389648</ele>
        <time>2017-07-18T08:16:57Z</time>
      </trkpt>
      <trkpt lat="47.29462" lon="5.41769">
        <ele>179.80000305176</ele>
        <time>2017-07-18T08:17:05Z</time>
      </trkpt>
      <trkpt lat="47.29488" lon="5.41826">
        <ele>179.80000305176</ele>
        <time>2017-07-18T08:17:13Z</time>
      </trkpt>
      <trkpt lat="47.29512" lon="5.41877">
        <ele>180</ele>
        <time>2017-07-18T08:17:20Z</time>
      </trkpt>
      <trkpt lat="47.2954" lon="5.41936">
        <ele>179.80000305176</ele>
        <time>2017-07-18T08:17:28Z</time>
      </trkpt>
      <trkpt lat="47.29562" lon="5.41981">
        <ele>180</ele>
        <time>2017-07-18T08:17:34Z</time>
      </trkpt>
      <trkpt lat="47.29589" lon="5.42033">
        <ele>180</ele>
        <time>2017-07-18T08:17:41Z</time>
      </trkpt>
      <trkpt lat="47.29619" lon="5.4208">
        <ele>180</ele>
        <time>2017-07-18T08:17:48Z</time>
      </trkpt>
      <trkpt lat="47.29653" lon="5.42123">
        <ele>180</ele>
        <time>2017-07-18T08:17:55Z</time>
      </trkpt>
      <trkpt lat="47.29669" lon="5.42139">
        <ele>180.19999694824</ele>
        <time>2017-07-18T08:17:58Z</time>
      </trkpt>
      <trkpt lat="47.29684" lon="5.42152">
        <ele>180.19999694824</ele>
        <time>2017-07-18T08:18:01Z</time>
      </trkpt>
      <trkpt lat="47.29688" lon="5.42157">
        <ele>180.19999694824</ele>
        <time>2017-07-18T08:18:02Z</time>
      </trkpt>
      <trkpt lat="47.29702" lon="5.42168">
        <ele>180.19999694824</ele>
        <time>2017-07-18T08:18:05Z</time>
      </trkpt>
      <trkpt lat="47.29708" lon="5.42171">
        <ele>180.19999694824</ele>
        <time>2017-07-18T08:18:06Z</time>
      </trkpt>
      <trkpt lat="47.29713" lon="5.42174">
        <ele>180</ele>
        <time>2017-07-18T08:18:07Z</time>
      </trkpt>
      <trkpt lat="47.29729" lon="5.42187">
        <ele>180.19999694824</ele>
        <time>2017-07-18T08:18:10Z</time>
      </trkpt>
      <trkpt lat="47.29763" lon="5.42207">
        <ele>180</ele>
        <time>2017-07-18T08:18:16Z</time>
      </trkpt>
      <trkpt lat="47.29805" lon="5.42229">
        <ele>180</ele>
        <time>2017-07-18T08:18:23Z</time>
      </trkpt>
      <trkpt lat="47.29842" lon="5.42244">
        <ele>180</ele>
        <time>2017-07-18T08:18:29Z</time>
      </trkpt>
      <trkpt lat="47.29892" lon="5.42255">
        <ele>179.80000305176</ele>
        <time>2017-07-18T08:18:37Z</time>
      </trkpt>
      <trkpt lat="47.2994" lon="5.42259">
        <ele>179.80000305176</ele>
        <time>2017-07-18T08:18:44Z</time>
      </trkpt>
      <trkpt lat="47.29946" lon="5.42258">
        <ele>179.80000305176</ele>
        <time>2017-07-18T08:18:45Z</time>
      </trkpt>
      <trkpt lat="47.29966" lon="5.42253">
        <ele>179.80000305176</ele>
        <time>2017-07-18T08:18:48Z</time>
      </trkpt>
      <trkpt lat="47.3001" lon="5.42231">
        <ele>180.19999694824</ele>
        <time>2017-07-18T08:18:55Z</time>
      </trkpt>
      <trkpt lat="47.30047" lon="5.42194">
        <ele>180.19999694824</ele>
        <time>2017-07-18T08:19:02Z</time>
      </trkpt>
      <trkpt lat="47.30066" lon="5.42158">
        <ele>180.19999694824</ele>
        <time>2017-07-18T08:19:07Z</time>
      </trkpt>
      <trkpt lat="47.3007" lon="5.4215">
        <ele>180.19999694824</ele>
        <time>2017-07-18T08:19:08Z</time>
      </trkpt>
      <trkpt lat="47.30085" lon="5.42122">
        <ele>180</ele>
        <time>2017-07-18T08:19:12Z</time>
      </trkpt>
      <trkpt lat="47.30107" lon="5.4209">
        <ele>180</ele>
        <time>2017-07-18T08:19:18Z</time>
      </trkpt>
      <trkpt lat="47.30127" lon="5.42064">
        <ele>180</ele>
        <time>2017-07-18T08:19:22Z</time>
      </trkpt>
      <trkpt lat="47.30132" lon="5.42059">
        <ele>180</ele>
        <time>2017-07-18T08:19:23Z</time>
      </trkpt>
      <trkpt lat="47.30177" lon="5.42023">
        <ele>180</ele>
        <time>2017-07-18T08:19:31Z</time>
      </trkpt>
      <trkpt lat="47.30225" lon="5.41999">
        <ele>180.19999694824</ele>
        <time>2017-07-18T08:19:39Z</time>
      </trkpt>
      <trkpt lat="47.30266" lon="5.41983">
        <ele>180.39999389648</ele>
        <time>2017-07-18T08:19:46Z</time>
      </trkpt>
      <trkpt lat="47.30315" lon="5.41973">
        <ele>180.19999694824</ele>
        <time>2017-07-18T08:19:54Z</time>
      </trkpt>
      <trkpt lat="47.30353" lon="5.4197">
        <ele>180.39999389648</ele>
        <time>2017-07-18T08:20:01Z</time>
      </trkpt>
      <trkpt lat="47.30385" lon="5.41973">
        <ele>180.80000305176</ele>
        <time>2017-07-18T08:20:08Z</time>
      </trkpt>
      <trkpt lat="47.30389" lon="5.41973">
        <ele>180.80000305176</ele>
        <time>2017-07-18T08:20:09Z</time>
      </trkpt>
      <trkpt lat="47.30405" lon="5.41977">
        <ele>182</ele>
        <time>2017-07-18T08:20:14Z</time>
      </trkpt>
      <trkpt lat="47.30409" lon="5.41972">
        <ele>182.39999389648</ele>
        <time>2017-07-18T08:20:16Z</time>
      </trkpt>
      <trkpt lat="47.30411" lon="5.41963">
        <ele>182.80000305176</ele>
        <time>2017-07-18T08:20:18Z</time>
      </trkpt>
      <trkpt lat="47.30411" lon="5.41958">
        <ele>183</ele>
        <time>2017-07-18T08:20:19Z</time>
      </trkpt>
      <trkpt lat="47.30411" lon="5.41953">
        <ele>183.39999389648</ele>
        <time>2017-07-18T08:20:20Z</time>
      </trkpt>
      <trkpt lat="47.30412" lon="5.41934">
        <ele>183.80000305176</ele>
        <time>2017-07-18T08:20:24Z</time>
      </trkpt>
      <trkpt lat="47.30413" lon="5.4192">
        <ele>184.19999694824</ele>
        <time>2017-07-18T08:20:27Z</time>
      </trkpt>
      <trkpt lat="47.30415" lon="5.41904">
        <ele>185</ele>
        <time>2017-07-18T08:20:30Z</time>
      </trkpt>
      <trkpt lat="47.30416" lon="5.41886">
        <ele>185.19999694824</ele>
        <time>2017-07-18T08:20:33Z</time>
      </trkpt>
      <trkpt lat="47.30418" lon="5.41855">
        <ele>185.39999389648</ele>
        <time>2017-07-18T08:20:38Z</time>
      </trkpt>
      <trkpt lat="47.30422" lon="5.41825">
        <ele>184.80000305176</ele>
        <time>2017-07-18T08:20:44Z</time>
      </trkpt>
      <trkpt lat="47.30423" lon="5.41821">
        <ele>184.19999694824</ele>
        <time>2017-07-18T08:20:46Z</time>
      </trkpt>
      <trkpt lat="47.30422" lon="5.41819">
        <ele>183.39999389648</ele>
        <time>2017-07-18T08:20:52Z</time>
      </trkpt>
      <trkpt lat="47.30424" lon="5.41807">
        <ele>183.39999389648</ele>
        <time>2017-07-18T08:20:55Z</time>
      </trkpt>
      <trkpt lat="47.30427" lon="5.4179">
        <ele>183.19999694824</ele>
        <time>2017-07-18T08:20:58Z</time>
      </trkpt>
      <trkpt lat="47.30431" lon="5.41768">
        <ele>182.80000305176</ele>
        <time>2017-07-18T08:21:01Z</time>
      </trkpt>
      <trkpt lat="47.30436" lon="5.41735">
        <ele>182</ele>
        <time>2017-07-18T08:21:05Z</time>
      </trkpt>
      <trkpt lat="47.3044" lon="5.41709">
        <ele>181.39999389648</ele>
        <time>2017-07-18T08:21:08Z</time>
      </trkpt>
      <trkpt lat="47.30448" lon="5.41665">
        <ele>181.39999389648</ele>
        <time>2017-07-18T08:21:14Z</time>
      </trkpt>
      <trkpt lat="47.30461" lon="5.41605">
        <ele>181.80000305176</ele>
        <time>2017-07-18T08:21:23Z</time>
      </trkpt>
      <trkpt lat="47.30462" lon="5.41598">
        <ele>181.80000305176</ele>
        <time>2017-07-18T08:21:24Z</time>
      </trkpt>
      <trkpt lat="47.30467" lon="5.41577">
        <ele>182</ele>
        <time>2017-07-18T08:21:27Z</time>
      </trkpt>
      <trkpt lat="47.30475" lon="5.41537">
        <ele>182</ele>
        <time>2017-07-18T08:21:33Z</time>
      </trkpt>
      <trkpt lat="47.30478" lon="5.41525">
        <ele>182</ele>
        <time>2017-07-18T08:21:35Z</time>
      </trkpt>
      <trkpt lat="47.30479" lon="5.41507">
        <ele>182</ele>
        <time>2017-07-18T08:21:38Z</time>
      </trkpt>
      <trkpt lat="47.3048" lon="5.41501">
        <ele>182</ele>
        <time>2017-07-18T08:21:39Z</time>
      </trkpt>
      <trkpt lat="47.30487" lon="5.41473">
        <ele>182.39999389648</ele>
        <time>2017-07-18T08:21:45Z</time>
      </trkpt>
      <trkpt lat="47.30489" lon="5.41462">
        <ele>182.60000610352</ele>
        <time>2017-07-18T08:21:50Z</time>
      </trkpt>
      <trkpt lat="47.30481" lon="5.41467">
        <ele>182.60000610352</ele>
        <time>2017-07-18T08:29:46Z</time>
      </trkpt>
      <trkpt lat="47.30482" lon="5.41469">
        <ele>182.60000610352</ele>
        <time>2017-07-18T08:29:47Z</time>
      </trkpt>
      <trkpt lat="47.30485" lon="5.41463">
        <ele>182.60000610352</ele>
        <time>2017-07-18T08:29:50Z</time>
      </trkpt>
      <trkpt lat="47.30487" lon="5.41441">
        <ele>182.60000610352</ele>
        <time>2017-07-18T08:29:55Z</time>
      </trkpt>
      <trkpt lat="47.30487" lon="5.41439">
        <ele>182.60000610352</ele>
        <time>2017-07-18T08:29:56Z</time>
      </trkpt>
      <trkpt lat="47.3049" lon="5.41428">
        <ele>182.39999389648</ele>
        <time>2017-07-18T08:29:59Z</time>
      </trkpt>
      <trkpt lat="47.30498" lon="5.414">
        <ele>182.39999389648</ele>
        <time>2017-07-18T08:30:05Z</time>
      </trkpt>
      <trkpt lat="47.30501" lon="5.41368">
        <ele>182.19999694824</ele>
        <time>2017-07-18T08:30:11Z</time>
      </trkpt>
      <trkpt lat="47.305" lon="5.41334">
        <ele>182</ele>
        <time>2017-07-18T08:30:17Z</time>
      </trkpt>
      <trkpt lat="47.30498" lon="5.4133">
        <ele>182</ele>
        <time>2017-07-18T08:30:18Z</time>
      </trkpt>
      <trkpt lat="47.30494" lon="5.41319">
        <ele>181.80000305176</ele>
        <time>2017-07-18T08:30:21Z</time>
      </trkpt>
      <trkpt lat="47.30493" lon="5.41317">
        <ele>182</ele>
        <time>2017-07-18T08:34:23Z</time>
      </trkpt>
      <trkpt lat="47.30493" lon="5.41326">
        <ele>182</ele>
        <time>2017-07-18T08:34:26Z</time>
      </trkpt>
      <trkpt lat="47.30493" lon="5.41343">
        <ele>181</ele>
        <time>2017-07-18T08:34:40Z</time>
      </trkpt>
      <trkpt lat="47.30496" lon="5.41359">
        <ele>181.19999694824</ele>
        <time>2017-07-18T08:34:44Z</time>
      </trkpt>
      <trkpt lat="47.30496" lon="5.41377">
        <ele>181.19999694824</ele>
        <time>2017-07-18T08:34:47Z</time>
      </trkpt>
      <trkpt lat="47.30495" lon="5.4139">
        <ele>181.19999694824</ele>
        <time>2017-07-18T08:34:49Z</time>
      </trkpt>
      <trkpt lat="47.30488" lon="5.4144">
        <ele>181.19999694824</ele>
        <time>2017-07-18T08:34:57Z</time>
      </trkpt>
      <trkpt lat="47.30486" lon="5.41475">
        <ele>181.60000610352</ele>
        <time>2017-07-18T08:35:03Z</time>
      </trkpt>
      <trkpt lat="47.3048" lon="5.41521">
        <ele>181.60000610352</ele>
        <time>2017-07-18T08:35:12Z</time>
      </trkpt>
      <trkpt lat="47.3048" lon="5.41527">
        <ele>181</ele>
        <time>2017-07-18T08:36:24Z</time>
      </trkpt>
      <trkpt lat="47.30476" lon="5.41545">
        <ele>181</ele>
        <time>2017-07-18T08:36:29Z</time>
      </trkpt>
      <trkpt lat="47.30471" lon="5.41574">
        <ele>180.80000305176</ele>
        <time>2017-07-18T08:36:35Z</time>
      </trkpt>
      <trkpt lat="47.30464" lon="5.41596">
        <ele>180.80000305176</ele>
        <time>2017-07-18T08:36:41Z</time>
      </trkpt>
      <trkpt lat="47.30459" lon="5.41613">
        <ele>180.80000305176</ele>
        <time>2017-07-18T08:36:45Z</time>
      </trkpt>
      <trkpt lat="47.30452" lon="5.41647">
        <ele>181</ele>
        <time>2017-07-18T08:36:51Z</time>
      </trkpt>
      <trkpt lat="47.3045" lon="5.41653">
        <ele>181</ele>
        <time>2017-07-18T08:36:52Z</time>
      </trkpt>
      <trkpt lat="47.30445" lon="5.41686">
        <ele>181</ele>
        <time>2017-07-18T08:36:57Z</time>
      </trkpt>
      <trkpt lat="47.30443" lon="5.41693">
        <ele>181</ele>
        <time>2017-07-18T08:36:58Z</time>
      </trkpt>
      <trkpt lat="47.30434" lon="5.41744">
        <ele>180.80000305176</ele>
        <time>2017-07-18T08:37:05Z</time>
      </trkpt>
      <trkpt lat="47.30433" lon="5.41751">
        <ele>180.80000305176</ele>
        <time>2017-07-18T08:37:06Z</time>
      </trkpt>
      <trkpt lat="47.30427" lon="5.41789">
        <ele>180.80000305176</ele>
        <time>2017-07-18T08:37:12Z</time>
      </trkpt>
      <trkpt lat="47.30425" lon="5.41814">
        <ele>181.60000610352</ele>
        <time>2017-07-18T08:37:17Z</time>
      </trkpt>
      <trkpt lat="47.30426" lon="5.41823">
        <ele>182</ele>
        <time>2017-07-18T08:37:20Z</time>
      </trkpt>
      <trkpt lat="47.30428" lon="5.41825">
        <ele>182.39999389648</ele>
        <time>2017-07-18T08:37:21Z</time>
      </trkpt>
      <trkpt lat="47.3044" lon="5.4183">
        <ele>182.60000610352</ele>
        <time>2017-07-18T08:37:25Z</time>
      </trkpt>
      <trkpt lat="47.30448" lon="5.4183">
        <ele>182.60000610352</ele>
        <time>2017-07-18T08:37:27Z</time>
      </trkpt>
      <trkpt lat="47.30458" lon="5.41832">
        <ele>182.39999389648</ele>
        <time>2017-07-18T08:37:29Z</time>
      </trkpt>
      <trkpt lat="47.30483" lon="5.4184">
        <ele>181.39999389648</ele>
        <time>2017-07-18T08:37:35Z</time>
      </trkpt>
      <trkpt lat="47.30508" lon="5.41854">
        <ele>181.19999694824</ele>
        <time>2017-07-18T08:37:40Z</time>
      </trkpt>
      <trkpt lat="47.30513" lon="5.41859">
        <ele>181</ele>
        <time>2017-07-18T08:37:41Z</time>
      </trkpt>
      <trkpt lat="47.30529" lon="5.41876">
        <ele>180.39999389648</ele>
        <time>2017-07-18T08:37:44Z</time>
      </trkpt>
      <trkpt lat="47.30534" lon="5.41881">
        <ele>179.80000305176</ele>
        <time>2017-07-18T08:37:45Z</time>
      </trkpt>
      <trkpt lat="47.30556" lon="5.41907">
        <ele>179</ele>
        <time>2017-07-18T08:37:50Z</time>
      </trkpt>
      <trkpt lat="47.30585" lon="5.41934">
        <ele>178.80000305176</ele>
        <time>2017-07-18T08:37:56Z</time>
      </trkpt>
      <trkpt lat="47.30589" lon="5.4194">
        <ele>178.80000305176</ele>
        <time>2017-07-18T08:37:57Z</time>
      </trkpt>
      <trkpt lat="47.30626" lon="5.41981">
        <ele>179.39999389648</ele>
        <time>2017-07-18T08:38:05Z</time>
      </trkpt>
      <trkpt lat="47.30661" lon="5.42026">
        <ele>179.39999389648</ele>
        <time>2017-07-18T08:38:13Z</time>
      </trkpt>
      <trkpt lat="47.30677" lon="5.42048">
        <ele>179.39999389648</ele>
        <time>2017-07-18T08:38:17Z</time>
      </trkpt>
      <trkpt lat="47.30683" lon="5.42062">
        <ele>179.39999389648</ele>
        <time>2017-07-18T08:38:19Z</time>
      </trkpt>
      <trkpt lat="47.30687" lon="5.42069">
        <ele>179.39999389648</ele>
        <time>2017-07-18T08:38:20Z</time>
      </trkpt>
      <trkpt lat="47.30703" lon="5.42093">
        <ele>179.60000610352</ele>
        <time>2017-07-18T08:38:24Z</time>
      </trkpt>
      <trkpt lat="47.30733" lon="5.42133">
        <ele>179.80000305176</ele>
        <time>2017-07-18T08:38:31Z</time>
      </trkpt>
      <trkpt lat="47.30775" lon="5.42182">
        <ele>179.80000305176</ele>
        <time>2017-07-18T08:38:40Z</time>
      </trkpt>
      <trkpt lat="47.30803" lon="5.42227">
        <ele>179.80000305176</ele>
        <time>2017-07-18T08:38:47Z</time>
      </trkpt>
      <trkpt lat="47.30832" lon="5.42269">
        <ele>179.80000305176</ele>
        <time>2017-07-18T08:38:54Z</time>
      </trkpt>
      <trkpt lat="47.30852" lon="5.42288">
        <ele>179.80000305176</ele>
        <time>2017-07-18T08:38:58Z</time>
      </trkpt>
      <trkpt lat="47.30862" lon="5.42296">
        <ele>179.80000305176</ele>
        <time>2017-07-18T08:39:00Z</time>
      </trkpt>
      <trkpt lat="47.30899" lon="5.42323">
        <ele>179.60000610352</ele>
        <time>2017-07-18T08:39:07Z</time>
      </trkpt>
      <trkpt lat="47.3093" lon="5.42344">
        <ele>179.60000610352</ele>
        <time>2017-07-18T08:39:13Z</time>
      </trkpt>
      <trkpt lat="47.30968" lon="5.42364">
        <ele>179.80000305176</ele>
        <time>2017-07-18T08:39:20Z</time>
      </trkpt>
      <trkpt lat="47.31009" lon="5.42394">
        <ele>180</ele>
        <time>2017-07-18T08:39:28Z</time>
      </trkpt>
      <trkpt lat="47.31015" lon="5.42397">
        <ele>180</ele>
        <time>2017-07-18T08:39:29Z</time>
      </trkpt>
      <trkpt lat="47.31036" lon="5.42413">
        <ele>180</ele>
        <time>2017-07-18T08:39:33Z</time>
      </trkpt>
      <trkpt lat="47.31072" lon="5.42439">
        <ele>180</ele>
        <time>2017-07-18T08:39:40Z</time>
      </trkpt>
      <trkpt lat="47.31113" lon="5.42471">
        <ele>179.80000305176</ele>
        <time>2017-07-18T08:39:48Z</time>
      </trkpt>
      <trkpt lat="47.31145" lon="5.42499">
        <ele>179.60000610352</ele>
        <time>2017-07-18T08:39:55Z</time>
      </trkpt>
      <trkpt lat="47.31168" lon="5.42521">
        <ele>179.80000305176</ele>
        <time>2017-07-18T08:40:01Z</time>
      </trkpt>
      <trkpt lat="47.31178" lon="5.42544">
        <ele>179.80000305176</ele>
        <time>2017-07-18T08:40:05Z</time>
      </trkpt>
      <trkpt lat="47.31179" lon="5.42552">
        <ele>179.80000305176</ele>
        <time>2017-07-18T08:40:06Z</time>
      </trkpt>
      <trkpt lat="47.31183" lon="5.42573">
        <ele>179.80000305176</ele>
        <time>2017-07-18T08:40:09Z</time>
      </trkpt>
      <trkpt lat="47.31182" lon="5.42588">
        <ele>179.80000305176</ele>
        <time>2017-07-18T08:40:11Z</time>
      </trkpt>
      <trkpt lat="47.3118" lon="5.42608">
        <ele>179.80000305176</ele>
        <time>2017-07-18T08:40:14Z</time>
      </trkpt>
      <trkpt lat="47.3118" lon="5.42622">
        <ele>179.80000305176</ele>
        <time>2017-07-18T08:40:16Z</time>
      </trkpt>
      <trkpt lat="47.31181" lon="5.42653">
        <ele>180</ele>
        <time>2017-07-18T08:40:20Z</time>
      </trkpt>
      <trkpt lat="47.31182" lon="5.42669">
        <ele>180</ele>
        <time>2017-07-18T08:40:22Z</time>
      </trkpt>
      <trkpt lat="47.31189" lon="5.42725">
        <ele>179.80000305176</ele>
        <time>2017-07-18T08:40:29Z</time>
      </trkpt>
      <trkpt lat="47.31199" lon="5.42804">
        <ele>179.60000610352</ele>
        <time>2017-07-18T08:40:39Z</time>
      </trkpt>
      <trkpt lat="47.31207" lon="5.42868">
        <ele>179.60000610352</ele>
        <time>2017-07-18T08:40:47Z</time>
      </trkpt>
      <trkpt lat="47.31213" lon="5.42931">
        <ele>179.60000610352</ele>
        <time>2017-07-18T08:40:55Z</time>
      </trkpt>
      <trkpt lat="47.31218" lon="5.4298">
        <ele>179.60000610352</ele>
        <time>2017-07-18T08:41:01Z</time>
      </trkpt>
      <trkpt lat="47.31226" lon="5.43038">
        <ele>179.39999389648</ele>
        <time>2017-07-18T08:41:08Z</time>
      </trkpt>
      <trkpt lat="47.31236" lon="5.43122">
        <ele>179.60000610352</ele>
        <time>2017-07-18T08:41:18Z</time>
      </trkpt>
      <trkpt lat="47.3124" lon="5.43148">
        <ele>179.60000610352</ele>
        <time>2017-07-18T08:41:21Z</time>
      </trkpt>
      <trkpt lat="47.31247" lon="5.43181">
        <ele>179.80000305176</ele>
        <time>2017-07-18T08:41:25Z</time>
      </trkpt>
      <trkpt lat="47.31266" lon="5.43232">
        <ele>179.60000610352</ele>
        <time>2017-07-18T08:41:32Z</time>
      </trkpt>
      <trkpt lat="47.31293" lon="5.43278">
        <ele>179.60000610352</ele>
        <time>2017-07-18T08:41:39Z</time>
      </trkpt>
      <trkpt lat="47.31328" lon="5.4331">
        <ele>179.80000305176</ele>
        <time>2017-07-18T08:41:46Z</time>
      </trkpt>
      <trkpt lat="47.31363" lon="5.43325">
        <ele>179.39999389648</ele>
        <time>2017-07-18T08:41:52Z</time>
      </trkpt>
      <trkpt lat="47.31369" lon="5.43326">
        <ele>179.39999389648</ele>
        <time>2017-07-18T08:41:53Z</time>
      </trkpt>
      <trkpt lat="47.31403" lon="5.43322">
        <ele>179.39999389648</ele>
        <time>2017-07-18T08:41:59Z</time>
      </trkpt>
      <trkpt lat="47.31434" lon="5.43304">
        <ele>179.60000610352</ele>
        <time>2017-07-18T08:42:05Z</time>
      </trkpt>
      <trkpt lat="47.31466" lon="5.43269">
        <ele>179.80000305176</ele>
        <time>2017-07-18T08:42:12Z</time>
      </trkpt>
      <trkpt lat="47.31469" lon="5.43262">
        <ele>179.80000305176</ele>
        <time>2017-07-18T08:42:13Z</time>
      </trkpt>
      <trkpt lat="47.31482" lon="5.43233">
        <ele>179.80000305176</ele>
        <time>2017-07-18T08:42:17Z</time>
      </trkpt>
      <trkpt lat="47.31489" lon="5.43211">
        <ele>179.80000305176</ele>
        <time>2017-07-18T08:42:20Z</time>
      </trkpt>
      <trkpt lat="47.31496" lon="5.43197">
        <ele>179.80000305176</ele>
        <time>2017-07-18T08:42:22Z</time>
      </trkpt>
      <trkpt lat="47.31514" lon="5.43154">
        <ele>179.80000305176</ele>
        <time>2017-07-18T08:42:28Z</time>
      </trkpt>
      <trkpt lat="47.31534" lon="5.43103">
        <ele>179.80000305176</ele>
        <time>2017-07-18T08:42:35Z</time>
      </trkpt>
      <trkpt lat="47.31559" lon="5.43034">
        <ele>179.80000305176</ele>
        <time>2017-07-18T08:42:44Z</time>
      </trkpt>
      <trkpt lat="47.31586" lon="5.42977">
        <ele>179.80000305176</ele>
        <time>2017-07-18T08:42:52Z</time>
      </trkpt>
      <trkpt lat="47.31616" lon="5.42923">
        <ele>179.80000305176</ele>
        <time>2017-07-18T08:43:00Z</time>
      </trkpt>
      <trkpt lat="47.3165" lon="5.42873">
        <ele>180</ele>
        <time>2017-07-18T08:43:08Z</time>
      </trkpt>
      <trkpt lat="47.31682" lon="5.42829">
        <ele>180</ele>
        <time>2017-07-18T08:43:15Z</time>
      </trkpt>
      <trkpt lat="47.31721" lon="5.42771">
        <ele>180</ele>
        <time>2017-07-18T08:43:24Z</time>
      </trkpt>
      <trkpt lat="47.31751" lon="5.42728">
        <ele>179.80000305176</ele>
        <time>2017-07-18T08:43:31Z</time>
      </trkpt>
      <trkpt lat="47.31789" lon="5.42668">
        <ele>179.60000610352</ele>
        <time>2017-07-18T08:43:40Z</time>
      </trkpt>
      <trkpt lat="47.3183" lon="5.42608">
        <ele>179.60000610352</ele>
        <time>2017-07-18T08:43:49Z</time>
      </trkpt>
      <trkpt lat="47.31868" lon="5.4257">
        <ele>179.80000305176</ele>
        <time>2017-07-18T08:43:56Z</time>
      </trkpt>
      <trkpt lat="47.31897" lon="5.42559">
        <ele>180</ele>
        <time>2017-07-18T08:44:01Z</time>
      </trkpt>
      <trkpt lat="47.31928" lon="5.4256">
        <ele>179.80000305176</ele>
        <time>2017-07-18T08:44:06Z</time>
      </trkpt>
      <trkpt lat="47.31972" lon="5.42564">
        <ele>180</ele>
        <time>2017-07-18T08:44:13Z</time>
      </trkpt>
      <trkpt lat="47.32012" lon="5.42567">
        <ele>179.60000610352</ele>
        <time>2017-07-18T08:44:19Z</time>
      </trkpt>
      <trkpt lat="47.32062" lon="5.42577">
        <ele>179.39999389648</ele>
        <time>2017-07-18T08:44:27Z</time>
      </trkpt>
      <trkpt lat="47.32068" lon="5.4258">
        <ele>179.39999389648</ele>
        <time>2017-07-18T08:44:28Z</time>
      </trkpt>
      <trkpt lat="47.32083" lon="5.42585">
        <ele>179.39999389648</ele>
        <time>2017-07-18T08:44:31Z</time>
      </trkpt>
      <trkpt lat="47.32123" lon="5.426">
        <ele>179.39999389648</ele>
        <time>2017-07-18T08:44:38Z</time>
      </trkpt>
      <trkpt lat="47.3216" lon="5.42622">
        <ele>179.60000610352</ele>
        <time>2017-07-18T08:44:45Z</time>
      </trkpt>
      <trkpt lat="47.32176" lon="5.42641">
        <ele>179.39999389648</ele>
        <time>2017-07-18T08:44:50Z</time>
      </trkpt>
      <trkpt lat="47.32191" lon="5.42658">
        <ele>179.39999389648</ele>
        <time>2017-07-18T08:44:55Z</time>
      </trkpt>
      <trkpt lat="47.32197" lon="5.42666">
        <ele>179.60000610352</ele>
        <time>2017-07-18T08:44:57Z</time>
      </trkpt>
      <trkpt lat="47.32204" lon="5.42685">
        <ele>179.60000610352</ele>
        <time>2017-07-18T08:45:00Z</time>
      </trkpt>
      <trkpt lat="47.32226" lon="5.42726">
        <ele>179.80000305176</ele>
        <time>2017-07-18T08:45:07Z</time>
      </trkpt>
      <trkpt lat="47.32244" lon="5.42765">
        <ele>179.80000305176</ele>
        <time>2017-07-18T08:45:12Z</time>
      </trkpt>
      <trkpt lat="47.32247" lon="5.42773">
        <ele>179.80000305176</ele>
        <time>2017-07-18T08:45:13Z</time>
      </trkpt>
      <trkpt lat="47.32266" lon="5.42829">
        <ele>179.80000305176</ele>
        <time>2017-07-18T08:45:20Z</time>
      </trkpt>
      <trkpt lat="47.32275" lon="5.42878">
        <ele>179.60000610352</ele>
        <time>2017-07-18T08:45:26Z</time>
      </trkpt>
      <trkpt lat="47.32281" lon="5.42942">
        <ele>180.19999694824</ele>
        <time>2017-07-18T08:45:34Z</time>
      </trkpt>
      <trkpt lat="47.32285" lon="5.43008">
        <ele>180.19999694824</ele>
        <time>2017-07-18T08:45:42Z</time>
      </trkpt>
      <trkpt lat="47.32293" lon="5.43084">
        <ele>180.39999389648</ele>
        <time>2017-07-18T08:45:51Z</time>
      </trkpt>
      <trkpt lat="47.32306" lon="5.43163">
        <ele>180.19999694824</ele>
        <time>2017-07-18T08:46:01Z</time>
      </trkpt>
      <trkpt lat="47.3231" lon="5.43176">
        <ele>180.19999694824</ele>
        <time>2017-07-18T08:46:03Z</time>
      </trkpt>
      <trkpt lat="47.32314" lon="5.43199">
        <ele>180.60000610352</ele>
        <time>2017-07-18T08:46:07Z</time>
      </trkpt>
      <trkpt lat="47.32315" lon="5.43209">
        <ele>180.80000305176</ele>
        <time>2017-07-18T08:46:09Z</time>
      </trkpt>
      <trkpt lat="47.32318" lon="5.43229">
        <ele>181.80000305176</ele>
        <time>2017-07-18T08:46:13Z</time>
      </trkpt>
      <trkpt lat="47.32319" lon="5.43237">
        <ele>182.39999389648</ele>
        <time>2017-07-18T08:46:15Z</time>
      </trkpt>
      <trkpt lat="47.3232" lon="5.43243">
        <ele>183</ele>
        <time>2017-07-18T08:46:17Z</time>
      </trkpt>
      <trkpt lat="47.32321" lon="5.4326">
        <ele>184</ele>
        <time>2017-07-18T08:46:21Z</time>
      </trkpt>
      <trkpt lat="47.32322" lon="5.43266">
        <ele>184</ele>
        <time>2017-07-18T08:46:22Z</time>
      </trkpt>
      <trkpt lat="47.32324" lon="5.4328">
        <ele>184.19999694824</ele>
        <time>2017-07-18T08:46:24Z</time>
      </trkpt>
      <trkpt lat="47.32324" lon="5.43296">
        <ele>183.80000305176</ele>
        <time>2017-07-18T08:46:26Z</time>
      </trkpt>
      <trkpt lat="47.32325" lon="5.43305">
        <ele>183.60000610352</ele>
        <time>2017-07-18T08:46:27Z</time>
      </trkpt>
      <trkpt lat="47.32329" lon="5.4333">
        <ele>182.60000610352</ele>
        <time>2017-07-18T08:46:30Z</time>
      </trkpt>
      <trkpt lat="47.3233" lon="5.43338">
        <ele>182.39999389648</ele>
        <time>2017-07-18T08:46:31Z</time>
      </trkpt>
      <trkpt lat="47.32337" lon="5.43377">
        <ele>181.60000610352</ele>
        <time>2017-07-18T08:46:36Z</time>
      </trkpt>
      <trkpt lat="47.32349" lon="5.43401">
        <ele>181.19999694824</ele>
        <time>2017-07-18T08:46:40Z</time>
      </trkpt>
      <trkpt lat="47.32357" lon="5.43408">
        <ele>181.19999694824</ele>
        <time>2017-07-18T08:46:42Z</time>
      </trkpt>
      <trkpt lat="47.32362" lon="5.43411">
        <ele>181.19999694824</ele>
        <time>2017-07-18T08:46:44Z</time>
      </trkpt>
      <trkpt lat="47.3237" lon="5.4341">
        <ele>181</ele>
        <time>2017-07-18T08:46:49Z</time>
      </trkpt>
      <trkpt lat="47.32388" lon="5.43402">
        <ele>180.80000305176</ele>
        <time>2017-07-18T08:46:55Z</time>
      </trkpt>
      <trkpt lat="47.32392" lon="5.43401">
        <ele>180.80000305176</ele>
        <time>2017-07-18T08:46:56Z</time>
      </trkpt>
      <trkpt lat="47.32416" lon="5.43395">
        <ele>181</ele>
        <time>2017-07-18T08:47:00Z</time>
      </trkpt>
      <trkpt lat="47.32462" lon="5.43383">
        <ele>181</ele>
        <time>2017-07-18T08:47:08Z</time>
      </trkpt>
      <trkpt lat="47.32508" lon="5.4337">
        <ele>181.19999694824</ele>
        <time>2017-07-18T08:47:16Z</time>
      </trkpt>
      <trkpt lat="47.32566" lon="5.43354">
        <ele>181.19999694824</ele>
        <time>2017-07-18T08:47:26Z</time>
      </trkpt>
      <trkpt lat="47.32623" lon="5.43338">
        <ele>181.19999694824</ele>
        <time>2017-07-18T08:47:36Z</time>
      </trkpt>
      <trkpt lat="47.32669" lon="5.43324">
        <ele>181.19999694824</ele>
        <time>2017-07-18T08:47:44Z</time>
      </trkpt>
      <trkpt lat="47.32715" lon="5.43311">
        <ele>181.19999694824</ele>
        <time>2017-07-18T08:47:52Z</time>
      </trkpt>
      <trkpt lat="47.32756" lon="5.43299">
        <ele>181.19999694824</ele>
        <time>2017-07-18T08:47:59Z</time>
      </trkpt>
      <trkpt lat="47.32804" lon="5.43286">
        <ele>181.39999389648</ele>
        <time>2017-07-18T08:48:07Z</time>
      </trkpt>
      <trkpt lat="47.32851" lon="5.43272">
        <ele>181.19999694824</ele>
        <time>2017-07-18T08:48:15Z</time>
      </trkpt>
      <trkpt lat="47.32906" lon="5.43256">
        <ele>181.19999694824</ele>
        <time>2017-07-18T08:48:24Z</time>
      </trkpt>
      <trkpt lat="47.32952" lon="5.43244">
        <ele>180.80000305176</ele>
        <time>2017-07-18T08:48:32Z</time>
      </trkpt>
      <trkpt lat="47.3298" lon="5.43238">
        <ele>181</ele>
        <time>2017-07-18T08:48:37Z</time>
      </trkpt>
      <trkpt lat="47.32985" lon="5.43237">
        <ele>180.80000305176</ele>
        <time>2017-07-18T08:48:38Z</time>
      </trkpt>
      <trkpt lat="47.3299" lon="5.43237">
        <ele>180.80000305176</ele>
        <time>2017-07-18T08:48:39Z</time>
      </trkpt>
      <trkpt lat="47.33006" lon="5.4323">
        <ele>180.80000305176</ele>
        <time>2017-07-18T08:48:42Z</time>
      </trkpt>
      <trkpt lat="47.33023" lon="5.43223">
        <ele>181</ele>
        <time>2017-07-18T08:48:45Z</time>
      </trkpt>
      <trkpt lat="47.33033" lon="5.4322">
        <ele>181.19999694824</ele>
        <time>2017-07-18T08:48:47Z</time>
      </trkpt>
      <trkpt lat="47.33088" lon="5.43205">
        <ele>181.19999694824</ele>
        <time>2017-07-18T08:48:57Z</time>
      </trkpt>
      <trkpt lat="47.33134" lon="5.43191">
        <ele>181.39999389648</ele>
        <time>2017-07-18T08:49:05Z</time>
      </trkpt>
      <trkpt lat="47.33175" lon="5.43179">
        <ele>181.39999389648</ele>
        <time>2017-07-18T08:49:12Z</time>
      </trkpt>
      <trkpt lat="47.33217" lon="5.43166">
        <ele>181.19999694824</ele>
        <time>2017-07-18T08:49:19Z</time>
      </trkpt>
      <trkpt lat="47.33257" lon="5.43156">
        <ele>181.19999694824</ele>
        <time>2017-07-18T08:49:26Z</time>
      </trkpt>
      <trkpt lat="47.33306" lon="5.4314">
        <ele>181.19999694824</ele>
        <time>2017-07-18T08:49:35Z</time>
      </trkpt>
      <trkpt lat="47.33316" lon="5.43139">
        <ele>181.19999694824</ele>
        <time>2017-07-18T08:49:37Z</time>
      </trkpt>
      <trkpt lat="47.33325" lon="5.43143">
        <ele>181.19999694824</ele>
        <time>2017-07-18T08:49:39Z</time>
      </trkpt>
      <trkpt lat="47.33335" lon="5.43146">
        <ele>181.19999694824</ele>
        <time>2017-07-18T08:51:09Z</time>
      </trkpt>
      <trkpt lat="47.33338" lon="5.43147">
        <ele>181.19999694824</ele>
        <time>2017-07-18T08:51:12Z</time>
      </trkpt>
      <trkpt lat="47.33348" lon="5.43144">
        <ele>181.60000610352</ele>
        <time>2017-07-18T08:51:19Z</time>
      </trkpt>
      <trkpt lat="47.3336" lon="5.43137">
        <ele>182.39999389648</ele>
        <time>2017-07-18T08:51:24Z</time>
      </trkpt>
      <trkpt lat="47.33364" lon="5.43135">
        <ele>182.60000610352</ele>
        <time>2017-07-18T08:51:25Z</time>
      </trkpt>
      <trkpt lat="47.33385" lon="5.43126">
        <ele>183</ele>
        <time>2017-07-18T08:51:30Z</time>
      </trkpt>
      <trkpt lat="47.33417" lon="5.4311">
        <ele>183.19999694824</ele>
        <time>2017-07-18T08:51:37Z</time>
      </trkpt>
      <trkpt lat="47.33422" lon="5.43108">
        <ele>183.19999694824</ele>
        <time>2017-07-18T08:51:38Z</time>
      </trkpt>
      <trkpt lat="47.3344" lon="5.43103">
        <ele>183.19999694824</ele>
        <time>2017-07-18T08:51:42Z</time>
      </trkpt>
      <trkpt lat="47.33455" lon="5.43099">
        <ele>183.39999389648</ele>
        <time>2017-07-18T08:51:45Z</time>
      </trkpt>
      <trkpt lat="47.33476" lon="5.43094">
        <ele>183.39999389648</ele>
        <time>2017-07-18T08:51:49Z</time>
      </trkpt>
      <trkpt lat="47.33492" lon="5.43091">
        <ele>183.39999389648</ele>
        <time>2017-07-18T08:51:52Z</time>
      </trkpt>
      <trkpt lat="47.33503" lon="5.4309">
        <ele>183.39999389648</ele>
        <time>2017-07-18T08:51:54Z</time>
      </trkpt>
      <trkpt lat="47.33535" lon="5.43077">
        <ele>183.39999389648</ele>
        <time>2017-07-18T08:52:00Z</time>
      </trkpt>
      <trkpt lat="47.33546" lon="5.43073">
        <ele>183.60000610352</ele>
        <time>2017-07-18T08:52:02Z</time>
      </trkpt>
      <trkpt lat="47.33571" lon="5.43064">
        <ele>183.80000305176</ele>
        <time>2017-07-18T08:52:07Z</time>
      </trkpt>
      <trkpt lat="47.33593" lon="5.43056">
        <ele>184.60000610352</ele>
        <time>2017-07-18T08:52:12Z</time>
      </trkpt>
      <trkpt lat="47.33605" lon="5.43051">
        <ele>184.80000305176</ele>
        <time>2017-07-18T08:52:15Z</time>
      </trkpt>
      <trkpt lat="47.33634" lon="5.43042">
        <ele>185.60000610352</ele>
        <time>2017-07-18T08:52:22Z</time>
      </trkpt>
      <trkpt lat="47.33645" lon="5.4304">
        <ele>186</ele>
        <time>2017-07-18T08:52:25Z</time>
      </trkpt>
      <trkpt lat="47.33657" lon="5.4304">
        <ele>186.39999389648</ele>
        <time>2017-07-18T08:52:29Z</time>
      </trkpt>
      <trkpt lat="47.33659" lon="5.43043">
        <ele>186.60000610352</ele>
        <time>2017-07-18T08:52:30Z</time>
      </trkpt>
      <trkpt lat="47.33663" lon="5.43052">
        <ele>186.80000305176</ele>
        <time>2017-07-18T08:52:32Z</time>
      </trkpt>
      <trkpt lat="47.33665" lon="5.43063">
        <ele>187.39999389648</ele>
        <time>2017-07-18T08:52:34Z</time>
      </trkpt>
      <trkpt lat="47.33675" lon="5.4307">
        <ele>187.60000610352</ele>
        <time>2017-07-18T08:52:37Z</time>
      </trkpt>
      <trkpt lat="47.33684" lon="5.43066">
        <ele>187.60000610352</ele>
        <time>2017-07-18T08:52:39Z</time>
      </trkpt>
      <trkpt lat="47.337" lon="5.4306">
        <ele>187.19999694824</ele>
        <time>2017-07-18T08:52:42Z</time>
      </trkpt>
      <trkpt lat="47.33717" lon="5.43056">
        <ele>186.80000305176</ele>
        <time>2017-07-18T08:52:45Z</time>
      </trkpt>
      <trkpt lat="47.33728" lon="5.43056">
        <ele>186.39999389648</ele>
        <time>2017-07-18T08:52:47Z</time>
      </trkpt>
      <trkpt lat="47.33771" lon="5.43046">
        <ele>186.19999694824</ele>
        <time>2017-07-18T08:52:55Z</time>
      </trkpt>
      <trkpt lat="47.33822" lon="5.43027">
        <ele>186.19999694824</ele>
        <time>2017-07-18T08:53:04Z</time>
      </trkpt>
      <trkpt lat="47.33862" lon="5.43014">
        <ele>186.19999694824</ele>
        <time>2017-07-18T08:53:11Z</time>
      </trkpt>
      <trkpt lat="47.33915" lon="5.42997">
        <ele>186.19999694824</ele>
        <time>2017-07-18T08:53:20Z</time>
      </trkpt>
      <trkpt lat="47.33963" lon="5.42976">
        <ele>186.39999389648</ele>
        <time>2017-07-18T08:53:28Z</time>
      </trkpt>
      <trkpt lat="47.34005" lon="5.42955">
        <ele>186.19999694824</ele>
        <time>2017-07-18T08:53:35Z</time>
      </trkpt>
      <trkpt lat="47.34051" lon="5.42929">
        <ele>186.39999389648</ele>
        <time>2017-07-18T08:53:43Z</time>
      </trkpt>
      <trkpt lat="47.3409" lon="5.42907">
        <ele>186.39999389648</ele>
        <time>2017-07-18T08:53:50Z</time>
      </trkpt>
      <trkpt lat="47.34141" lon="5.42879">
        <ele>186.19999694824</ele>
        <time>2017-07-18T08:53:59Z</time>
      </trkpt>
      <trkpt lat="47.34193" lon="5.4285">
        <ele>186.39999389648</ele>
        <time>2017-07-18T08:54:08Z</time>
      </trkpt>
      <trkpt lat="47.34246" lon="5.42822">
        <ele>186.39999389648</ele>
        <time>2017-07-18T08:54:17Z</time>
      </trkpt>
      <trkpt lat="47.34252" lon="5.42819">
        <ele>186.39999389648</ele>
        <time>2017-07-18T08:54:18Z</time>
      </trkpt>
      <trkpt lat="47.34305" lon="5.42792">
        <ele>186.39999389648</ele>
        <time>2017-07-18T08:54:27Z</time>
      </trkpt>
      <trkpt lat="47.34311" lon="5.42789">
        <ele>186.39999389648</ele>
        <time>2017-07-18T08:54:28Z</time>
      </trkpt>
      <trkpt lat="47.34351" lon="5.42767">
        <ele>186.19999694824</ele>
        <time>2017-07-18T08:54:35Z</time>
      </trkpt>
      <trkpt lat="47.34402" lon="5.42739">
        <ele>186.39999389648</ele>
        <time>2017-07-18T08:54:44Z</time>
      </trkpt>
      <trkpt lat="47.34454" lon="5.4271">
        <ele>186.19999694824</ele>
        <time>2017-07-18T08:54:53Z</time>
      </trkpt>
      <trkpt lat="47.3446" lon="5.42707">
        <ele>186.19999694824</ele>
        <time>2017-07-18T08:54:54Z</time>
      </trkpt>
      <trkpt lat="47.34498" lon="5.42687">
        <ele>186.19999694824</ele>
        <time>2017-07-18T08:55:01Z</time>
      </trkpt>
      <trkpt lat="47.34532" lon="5.42668">
        <ele>186.19999694824</ele>
        <time>2017-07-18T08:55:07Z</time>
      </trkpt>
      <trkpt lat="47.34565" lon="5.42651">
        <ele>186.39999389648</ele>
        <time>2017-07-18T08:55:13Z</time>
      </trkpt>
      <trkpt lat="47.34571" lon="5.42647">
        <ele>186.39999389648</ele>
        <time>2017-07-18T08:55:14Z</time>
      </trkpt>
      <trkpt lat="47.34594" lon="5.42633">
        <ele>186.19999694824</ele>
        <time>2017-07-18T08:55:18Z</time>
      </trkpt>
      <trkpt lat="47.34642" lon="5.42609">
        <ele>186.19999694824</ele>
        <time>2017-07-18T08:55:26Z</time>
      </trkpt>
      <trkpt lat="47.34688" lon="5.42584">
        <ele>186.19999694824</ele>
        <time>2017-07-18T08:55:34Z</time>
      </trkpt>
      <trkpt lat="47.34735" lon="5.42562">
        <ele>186.39999389648</ele>
        <time>2017-07-18T08:55:42Z</time>
      </trkpt>
      <trkpt lat="47.34788" lon="5.42536">
        <ele>186.39999389648</ele>
        <time>2017-07-18T08:55:51Z</time>
      </trkpt>
      <trkpt lat="47.34829" lon="5.42515">
        <ele>186.39999389648</ele>
        <time>2017-07-18T08:55:58Z</time>
      </trkpt>
      <trkpt lat="47.34858" lon="5.42499">
        <ele>186.39999389648</ele>
        <time>2017-07-18T08:56:03Z</time>
      </trkpt>
      <trkpt lat="47.34904" lon="5.42475">
        <ele>186.39999389648</ele>
        <time>2017-07-18T08:56:11Z</time>
      </trkpt>
      <trkpt lat="47.34944" lon="5.42454">
        <ele>186.60000610352</ele>
        <time>2017-07-18T08:56:18Z</time>
      </trkpt>
      <trkpt lat="47.34972" lon="5.4244">
        <ele>186.60000610352</ele>
        <time>2017-07-18T08:56:23Z</time>
      </trkpt>
      <trkpt lat="47.3501" lon="5.42419">
        <ele>186.60000610352</ele>
        <time>2017-07-18T08:56:30Z</time>
      </trkpt>
      <trkpt lat="47.35016" lon="5.42414">
        <ele>186.60000610352</ele>
        <time>2017-07-18T08:56:31Z</time>
      </trkpt>
      <trkpt lat="47.35022" lon="5.42409">
        <ele>186.60000610352</ele>
        <time>2017-07-18T08:56:32Z</time>
      </trkpt>
      <trkpt lat="47.35034" lon="5.42402">
        <ele>186.60000610352</ele>
        <time>2017-07-18T08:56:34Z</time>
      </trkpt>
      <trkpt lat="47.35075" lon="5.42384">
        <ele>186.39999389648</ele>
        <time>2017-07-18T08:56:41Z</time>
      </trkpt>
      <trkpt lat="47.35115" lon="5.42364">
        <ele>186.60000610352</ele>
        <time>2017-07-18T08:56:48Z</time>
      </trkpt>
      <trkpt lat="47.35155" lon="5.42341">
        <ele>186.39999389648</ele>
        <time>2017-07-18T08:56:55Z</time>
      </trkpt>
      <trkpt lat="47.35194" lon="5.42315">
        <ele>186.60000610352</ele>
        <time>2017-07-18T08:57:02Z</time>
      </trkpt>
      <trkpt lat="47.35236" lon="5.42291">
        <ele>186.60000610352</ele>
        <time>2017-07-18T08:57:09Z</time>
      </trkpt>
      <trkpt lat="47.35284" lon="5.42264">
        <ele>186.80000305176</ele>
        <time>2017-07-18T08:57:17Z</time>
      </trkpt>
      <trkpt lat="47.35338" lon="5.42235">
        <ele>186.60000610352</ele>
        <time>2017-07-18T08:57:26Z</time>
      </trkpt>
      <trkpt lat="47.35344" lon="5.42232">
        <ele>186.60000610352</ele>
        <time>2017-07-18T08:57:27Z</time>
      </trkpt>
      <trkpt lat="47.35391" lon="5.42208">
        <ele>186.80000305176</ele>
        <time>2017-07-18T08:57:35Z</time>
      </trkpt>
      <trkpt lat="47.35431" lon="5.42186">
        <ele>186.80000305176</ele>
        <time>2017-07-18T08:57:42Z</time>
      </trkpt>
      <trkpt lat="47.35478" lon="5.42161">
        <ele>186.39999389648</ele>
        <time>2017-07-18T08:57:50Z</time>
      </trkpt>
      <trkpt lat="47.35532" lon="5.42134">
        <ele>186.60000610352</ele>
        <time>2017-07-18T08:57:59Z</time>
      </trkpt>
      <trkpt lat="47.35573" lon="5.42114">
        <ele>187</ele>
        <time>2017-07-18T08:58:06Z</time>
      </trkpt>
      <trkpt lat="47.35626" lon="5.42086">
        <ele>187</ele>
        <time>2017-07-18T08:58:15Z</time>
      </trkpt>
      <trkpt lat="47.35672" lon="5.4206">
        <ele>187.19999694824</ele>
        <time>2017-07-18T08:58:23Z</time>
      </trkpt>
      <trkpt lat="47.35724" lon="5.42032">
        <ele>187.19999694824</ele>
        <time>2017-07-18T08:58:32Z</time>
      </trkpt>
      <trkpt lat="47.35772" lon="5.42006">
        <ele>187</ele>
        <time>2017-07-18T08:58:40Z</time>
      </trkpt>
      <trkpt lat="47.35812" lon="5.41984">
        <ele>187.19999694824</ele>
        <time>2017-07-18T08:58:47Z</time>
      </trkpt>
      <trkpt lat="47.35858" lon="5.4196">
        <ele>187</ele>
        <time>2017-07-18T08:58:55Z</time>
      </trkpt>
      <trkpt lat="47.35891" lon="5.41942">
        <ele>187.19999694824</ele>
        <time>2017-07-18T08:59:01Z</time>
      </trkpt>
      <trkpt lat="47.3592" lon="5.41928">
        <ele>187.19999694824</ele>
        <time>2017-07-18T08:59:07Z</time>
      </trkpt>
      <trkpt lat="47.35928" lon="5.41923">
        <ele>187.19999694824</ele>
        <time>2017-07-18T08:59:09Z</time>
      </trkpt>
      <trkpt lat="47.35939" lon="5.41914">
        <ele>187.19999694824</ele>
        <time>2017-07-18T08:59:12Z</time>
      </trkpt>
      <trkpt lat="47.35942" lon="5.41911">
        <ele>187.39999389648</ele>
        <time>2017-07-18T08:59:13Z</time>
      </trkpt>
      <trkpt lat="47.35958" lon="5.41895">
        <ele>187.39999389648</ele>
        <time>2017-07-18T08:59:17Z</time>
      </trkpt>
      <trkpt lat="47.35963" lon="5.41892">
        <ele>187.39999389648</ele>
        <time>2017-07-18T08:59:18Z</time>
      </trkpt>
      <trkpt lat="47.35979" lon="5.41888">
        <ele>187.39999389648</ele>
        <time>2017-07-18T08:59:21Z</time>
      </trkpt>
      <trkpt lat="47.35984" lon="5.41885">
        <ele>187.39999389648</ele>
        <time>2017-07-18T08:59:22Z</time>
      </trkpt>
      <trkpt lat="47.35998" lon="5.41873">
        <ele>187.39999389648</ele>
        <time>2017-07-18T08:59:25Z</time>
      </trkpt>
      <trkpt lat="47.36023" lon="5.41851">
        <ele>187.80000305176</ele>
        <time>2017-07-18T08:59:30Z</time>
      </trkpt>
      <trkpt lat="47.36033" lon="5.41841">
        <ele>188</ele>
        <time>2017-07-18T08:59:32Z</time>
      </trkpt>
      <trkpt lat="47.36048" lon="5.41826">
        <ele>187.80000305176</ele>
        <time>2017-07-18T08:59:35Z</time>
      </trkpt>
      <trkpt lat="47.36062" lon="5.41813">
        <ele>187.60000610352</ele>
        <time>2017-07-18T08:59:38Z</time>
      </trkpt>
      <trkpt lat="47.36096" lon="5.41774">
        <ele>187.39999389648</ele>
        <time>2017-07-18T08:59:45Z</time>
      </trkpt>
      <trkpt lat="47.36116" lon="5.41751">
        <ele>187.39999389648</ele>
        <time>2017-07-18T08:59:49Z</time>
      </trkpt>
      <trkpt lat="47.36126" lon="5.41741">
        <ele>187.39999389648</ele>
        <time>2017-07-18T08:59:51Z</time>
      </trkpt>
      <trkpt lat="47.3617" lon="5.41688">
        <ele>187</ele>
        <time>2017-07-18T09:00:00Z</time>
      </trkpt>
      <trkpt lat="47.36198" lon="5.41654">
        <ele>187</ele>
        <time>2017-07-18T09:00:06Z</time>
      </trkpt>
      <trkpt lat="47.36233" lon="5.41616">
        <ele>187</ele>
        <time>2017-07-18T09:00:13Z</time>
      </trkpt>
      <trkpt lat="47.36268" lon="5.41576">
        <ele>187.19999694824</ele>
        <time>2017-07-18T09:00:20Z</time>
      </trkpt>
      <trkpt lat="47.36312" lon="5.41526">
        <ele>187.39999389648</ele>
        <time>2017-07-18T09:00:29Z</time>
      </trkpt>
      <trkpt lat="47.36355" lon="5.41477">
        <ele>187.60000610352</ele>
        <time>2017-07-18T09:00:38Z</time>
      </trkpt>
      <trkpt lat="47.36394" lon="5.41434">
        <ele>188.19999694824</ele>
        <time>2017-07-18T09:00:47Z</time>
      </trkpt>
      <trkpt lat="47.36417" lon="5.41409">
        <ele>188.80000305176</ele>
        <time>2017-07-18T09:00:53Z</time>
      </trkpt>
      <trkpt lat="47.36424" lon="5.41401">
        <ele>189.19999694824</ele>
        <time>2017-07-18T09:00:55Z</time>
      </trkpt>
      <trkpt lat="47.36442" lon="5.41378">
        <ele>190</ele>
        <time>2017-07-18T09:01:01Z</time>
      </trkpt>
      <trkpt lat="47.36457" lon="5.41354">
        <ele>190.80000305176</ele>
        <time>2017-07-18T09:01:07Z</time>
      </trkpt>
      <trkpt lat="47.36467" lon="5.4134">
        <ele>190.19999694824</ele>
        <time>2017-07-18T09:01:10Z</time>
      </trkpt>
      <trkpt lat="47.36476" lon="5.41331">
        <ele>189.80000305176</ele>
        <time>2017-07-18T09:01:12Z</time>
      </trkpt>
      <trkpt lat="47.3648" lon="5.41327">
        <ele>189.60000610352</ele>
        <time>2017-07-18T09:01:13Z</time>
      </trkpt>
      <trkpt lat="47.36498" lon="5.41309">
        <ele>189.39999389648</ele>
        <time>2017-07-18T09:01:17Z</time>
      </trkpt>
      <trkpt lat="47.36534" lon="5.41268">
        <ele>189.80000305176</ele>
        <time>2017-07-18T09:01:25Z</time>
      </trkpt>
      <trkpt lat="47.36562" lon="5.41235">
        <ele>189.80000305176</ele>
        <time>2017-07-18T09:01:31Z</time>
      </trkpt>
      <trkpt lat="47.36594" lon="5.41199">
        <ele>189.80000305176</ele>
        <time>2017-07-18T09:01:38Z</time>
      </trkpt>
      <trkpt lat="47.36632" lon="5.41155">
        <ele>190</ele>
        <time>2017-07-18T09:01:46Z</time>
      </trkpt>
      <trkpt lat="47.36667" lon="5.41114">
        <ele>190.19999694824</ele>
        <time>2017-07-18T09:01:53Z</time>
      </trkpt>
      <trkpt lat="47.36704" lon="5.41074">
        <ele>190.39999389648</ele>
        <time>2017-07-18T09:02:00Z</time>
      </trkpt>
      <trkpt lat="47.36747" lon="5.41024">
        <ele>190.19999694824</ele>
        <time>2017-07-18T09:02:08Z</time>
      </trkpt>
      <trkpt lat="47.36789" lon="5.40975">
        <ele>190.39999389648</ele>
        <time>2017-07-18T09:02:16Z</time>
      </trkpt>
      <trkpt lat="47.36831" lon="5.40923">
        <ele>190.39999389648</ele>
        <time>2017-07-18T09:02:24Z</time>
      </trkpt>
      <trkpt lat="47.36842" lon="5.4091">
        <ele>190.39999389648</ele>
        <time>2017-07-18T09:02:26Z</time>
      </trkpt>
      <trkpt lat="47.36884" lon="5.40862">
        <ele>190.60000610352</ele>
        <time>2017-07-18T09:02:34Z</time>
      </trkpt>
      <trkpt lat="47.36924" lon="5.40813">
        <ele>190.80000305176</ele>
        <time>2017-07-18T09:02:42Z</time>
      </trkpt>
      <trkpt lat="47.36965" lon="5.40766">
        <ele>190.80000305176</ele>
        <time>2017-07-18T09:02:50Z</time>
      </trkpt>
      <trkpt lat="47.37" lon="5.40723">
        <ele>190.80000305176</ele>
        <time>2017-07-18T09:02:57Z</time>
      </trkpt>
      <trkpt lat="47.37045" lon="5.40671">
        <ele>190.80000305176</ele>
        <time>2017-07-18T09:03:06Z</time>
      </trkpt>
      <trkpt lat="47.3705" lon="5.40665">
        <ele>190.80000305176</ele>
        <time>2017-07-18T09:03:07Z</time>
      </trkpt>
      <trkpt lat="47.3709" lon="5.4062">
        <ele>190.80000305176</ele>
        <time>2017-07-18T09:03:15Z</time>
      </trkpt>
      <trkpt lat="47.37126" lon="5.40578">
        <ele>190.80000305176</ele>
        <time>2017-07-18T09:03:22Z</time>
      </trkpt>
      <trkpt lat="47.37163" lon="5.40535">
        <ele>190.60000610352</ele>
        <time>2017-07-18T09:03:29Z</time>
      </trkpt>
      <trkpt lat="47.3721" lon="5.40481">
        <ele>190.80000305176</ele>
        <time>2017-07-18T09:03:38Z</time>
      </trkpt>
      <trkpt lat="47.37238" lon="5.40448">
        <ele>190.80000305176</ele>
        <time>2017-07-18T09:03:44Z</time>
      </trkpt>
      <trkpt lat="47.37276" lon="5.40405">
        <ele>190.80000305176</ele>
        <time>2017-07-18T09:03:52Z</time>
      </trkpt>
      <trkpt lat="47.37282" lon="5.40397">
        <ele>191</ele>
        <time>2017-07-18T09:03:55Z</time>
      </trkpt>
      <trkpt lat="47.37283" lon="5.40397">
        <ele>191</ele>
        <time>2017-07-18T09:03:56Z</time>
      </trkpt>
      <trkpt lat="47.37285" lon="5.40392">
        <ele>190.60000610352</ele>
        <time>2017-07-18T09:05:24Z</time>
      </trkpt>
      <trkpt lat="47.37286" lon="5.4039">
        <ele>190.60000610352</ele>
        <time>2017-07-18T09:05:25Z</time>
      </trkpt>
      <trkpt lat="47.37287" lon="5.40389">
        <ele>190.60000610352</ele>
        <time>2017-07-18T09:05:26Z</time>
      </trkpt>
      <trkpt lat="47.37292" lon="5.40382">
        <ele>190.80000305176</ele>
        <time>2017-07-18T09:05:29Z</time>
      </trkpt>
      <trkpt lat="47.37308" lon="5.40363">
        <ele>190.80000305176</ele>
        <time>2017-07-18T09:05:35Z</time>
      </trkpt>
      <trkpt lat="47.37319" lon="5.40352">
        <ele>190.80000305176</ele>
        <time>2017-07-18T09:05:38Z</time>
      </trkpt>
      <trkpt lat="47.37326" lon="5.40342">
        <ele>191</ele>
        <time>2017-07-18T09:05:40Z</time>
      </trkpt>
      <trkpt lat="47.37355" lon="5.40309">
        <ele>191.19999694824</ele>
        <time>2017-07-18T09:05:47Z</time>
      </trkpt>
      <trkpt lat="47.37364" lon="5.40299">
        <ele>191.19999694824</ele>
        <time>2017-07-18T09:05:49Z</time>
      </trkpt>
      <trkpt lat="47.37375" lon="5.40284">
        <ele>191.19999694824</ele>
        <time>2017-07-18T09:05:52Z</time>
      </trkpt>
      <trkpt lat="47.37397" lon="5.40261">
        <ele>191.39999389648</ele>
        <time>2017-07-18T09:05:57Z</time>
      </trkpt>
      <trkpt lat="47.37401" lon="5.40255">
        <ele>191.39999389648</ele>
        <time>2017-07-18T09:05:58Z</time>
      </trkpt>
      <trkpt lat="47.37433" lon="5.40219">
        <ele>191.19999694824</ele>
        <time>2017-07-18T09:06:05Z</time>
      </trkpt>
      <trkpt lat="47.37465" lon="5.40183">
        <ele>191.39999389648</ele>
        <time>2017-07-18T09:06:12Z</time>
      </trkpt>
      <trkpt lat="47.37497" lon="5.40147">
        <ele>191.60000610352</ele>
        <time>2017-07-18T09:06:19Z</time>
      </trkpt>
      <trkpt lat="47.37539" lon="5.40098">
        <ele>191.19999694824</ele>
        <time>2017-07-18T09:06:28Z</time>
      </trkpt>
      <trkpt lat="47.37573" lon="5.4006">
        <ele>191.39999389648</ele>
        <time>2017-07-18T09:06:35Z</time>
      </trkpt>
      <trkpt lat="47.37602" lon="5.40025">
        <ele>191.39999389648</ele>
        <time>2017-07-18T09:06:41Z</time>
      </trkpt>
      <trkpt lat="47.37635" lon="5.39987">
        <ele>191.39999389648</ele>
        <time>2017-07-18T09:06:48Z</time>
      </trkpt>
      <trkpt lat="47.37666" lon="5.39951">
        <ele>191.39999389648</ele>
        <time>2017-07-18T09:06:55Z</time>
      </trkpt>
      <trkpt lat="47.37708" lon="5.39904">
        <ele>191</ele>
        <time>2017-07-18T09:07:04Z</time>
      </trkpt>
      <trkpt lat="47.37742" lon="5.39865">
        <ele>191.19999694824</ele>
        <time>2017-07-18T09:07:12Z</time>
      </trkpt>
      <trkpt lat="47.37767" lon="5.39834">
        <ele>191.39999389648</ele>
        <time>2017-07-18T09:07:18Z</time>
      </trkpt>
      <trkpt lat="47.37783" lon="5.39815">
        <ele>191.80000305176</ele>
        <time>2017-07-18T09:07:22Z</time>
      </trkpt>
      <trkpt lat="47.3779" lon="5.39803">
        <ele>192</ele>
        <time>2017-07-18T09:07:24Z</time>
      </trkpt>
      <trkpt lat="47.37793" lon="5.39796">
        <ele>192.19999694824</ele>
        <time>2017-07-18T09:07:25Z</time>
      </trkpt>
      <trkpt lat="47.37801" lon="5.39786">
        <ele>192.39999389648</ele>
        <time>2017-07-18T09:07:27Z</time>
      </trkpt>
      <trkpt lat="47.37816" lon="5.39772">
        <ele>192.60000610352</ele>
        <time>2017-07-18T09:07:30Z</time>
      </trkpt>
      <trkpt lat="47.37848" lon="5.39737">
        <ele>192.80000305176</ele>
        <time>2017-07-18T09:07:37Z</time>
      </trkpt>
      <trkpt lat="47.37856" lon="5.39728">
        <ele>193</ele>
        <time>2017-07-18T09:07:40Z</time>
      </trkpt>
      <trkpt lat="47.37858" lon="5.39723">
        <ele>192.80000305176</ele>
        <time>2017-07-18T09:16:30Z</time>
      </trkpt>
      <trkpt lat="47.3786" lon="5.39722">
        <ele>193</ele>
        <time>2017-07-18T09:16:31Z</time>
      </trkpt>
      <trkpt lat="47.37869" lon="5.39713">
        <ele>193</ele>
        <time>2017-07-18T09:16:35Z</time>
      </trkpt>
      <trkpt lat="47.37874" lon="5.39707">
        <ele>193</ele>
        <time>2017-07-18T09:16:37Z</time>
      </trkpt>
      <trkpt lat="47.37879" lon="5.39701">
        <ele>193.19999694824</ele>
        <time>2017-07-18T09:16:39Z</time>
      </trkpt>
      <trkpt lat="47.37892" lon="5.39687">
        <ele>193.19999694824</ele>
        <time>2017-07-18T09:16:43Z</time>
      </trkpt>
      <trkpt lat="47.37916" lon="5.39657">
        <ele>193.19999694824</ele>
        <time>2017-07-18T09:16:50Z</time>
      </trkpt>
      <trkpt lat="47.3795" lon="5.39616">
        <ele>193.39999389648</ele>
        <time>2017-07-18T09:16:59Z</time>
      </trkpt>
      <trkpt lat="47.37989" lon="5.39572">
        <ele>193.39999389648</ele>
        <time>2017-07-18T09:17:08Z</time>
      </trkpt>
      <trkpt lat="47.38033" lon="5.3952">
        <ele>193.60000610352</ele>
        <time>2017-07-18T09:17:18Z</time>
      </trkpt>
      <trkpt lat="47.38064" lon="5.39483">
        <ele>193.60000610352</ele>
        <time>2017-07-18T09:17:25Z</time>
      </trkpt>
      <trkpt lat="47.38098" lon="5.39447">
        <ele>193.80000305176</ele>
        <time>2017-07-18T09:17:32Z</time>
      </trkpt>
      <trkpt lat="47.38139" lon="5.39413">
        <ele>193.60000610352</ele>
        <time>2017-07-18T09:17:40Z</time>
      </trkpt>
      <trkpt lat="47.38183" lon="5.39384">
        <ele>193.60000610352</ele>
        <time>2017-07-18T09:17:48Z</time>
      </trkpt>
      <trkpt lat="47.38217" lon="5.39369">
        <ele>193.60000610352</ele>
        <time>2017-07-18T09:17:54Z</time>
      </trkpt>
      <trkpt lat="47.38257" lon="5.39356">
        <ele>193.60000610352</ele>
        <time>2017-07-18T09:18:01Z</time>
      </trkpt>
      <trkpt lat="47.38304" lon="5.39344">
        <ele>193.80000305176</ele>
        <time>2017-07-18T09:18:09Z</time>
      </trkpt>
      <trkpt lat="47.38339" lon="5.39342">
        <ele>193.60000610352</ele>
        <time>2017-07-18T09:18:15Z</time>
      </trkpt>
      <trkpt lat="47.3838" lon="5.39337">
        <ele>193.39999389648</ele>
        <time>2017-07-18T09:18:22Z</time>
      </trkpt>
      <trkpt lat="47.38421" lon="5.39332">
        <ele>193.60000610352</ele>
        <time>2017-07-18T09:18:29Z</time>
      </trkpt>
      <trkpt lat="47.38475" lon="5.39325">
        <ele>193.60000610352</ele>
        <time>2017-07-18T09:18:38Z</time>
      </trkpt>
      <trkpt lat="47.38518" lon="5.39321">
        <ele>194</ele>
        <time>2017-07-18T09:18:45Z</time>
      </trkpt>
      <trkpt lat="47.38559" lon="5.39317">
        <ele>194</ele>
        <time>2017-07-18T09:18:52Z</time>
      </trkpt>
      <trkpt lat="47.38601" lon="5.39312">
        <ele>194</ele>
        <time>2017-07-18T09:18:59Z</time>
      </trkpt>
      <trkpt lat="47.38637" lon="5.39308">
        <ele>193.80000305176</ele>
        <time>2017-07-18T09:19:05Z</time>
      </trkpt>
      <trkpt lat="47.38678" lon="5.39302">
        <ele>193.80000305176</ele>
        <time>2017-07-18T09:19:12Z</time>
      </trkpt>
      <trkpt lat="47.38696" lon="5.39299">
        <ele>193.80000305176</ele>
        <time>2017-07-18T09:19:15Z</time>
      </trkpt>
      <trkpt lat="47.38708" lon="5.39298">
        <ele>193.80000305176</ele>
        <time>2017-07-18T09:19:17Z</time>
      </trkpt>
      <trkpt lat="47.38753" lon="5.39297">
        <ele>193.19999694824</ele>
        <time>2017-07-18T09:19:24Z</time>
      </trkpt>
      <trkpt lat="47.38802" lon="5.39306">
        <ele>193</ele>
        <time>2017-07-18T09:19:32Z</time>
      </trkpt>
      <trkpt lat="47.38836" lon="5.39324">
        <ele>193.19999694824</ele>
        <time>2017-07-18T09:19:38Z</time>
      </trkpt>
      <trkpt lat="47.38873" lon="5.39351">
        <ele>193.19999694824</ele>
        <time>2017-07-18T09:19:45Z</time>
      </trkpt>
      <trkpt lat="47.38915" lon="5.39388">
        <ele>193.39999389648</ele>
        <time>2017-07-18T09:19:53Z</time>
      </trkpt>
      <trkpt lat="47.38919" lon="5.39394">
        <ele>193.39999389648</ele>
        <time>2017-07-18T09:19:54Z</time>
      </trkpt>
      <trkpt lat="47.3893" lon="5.39414">
        <ele>193.39999389648</ele>
        <time>2017-07-18T09:19:57Z</time>
      </trkpt>
      <trkpt lat="47.38947" lon="5.39438">
        <ele>193.19999694824</ele>
        <time>2017-07-18T09:20:01Z</time>
      </trkpt>
      <trkpt lat="47.38956" lon="5.3945">
        <ele>193.19999694824</ele>
        <time>2017-07-18T09:20:03Z</time>
      </trkpt>
      <trkpt lat="47.38996" lon="5.39505">
        <ele>193.19999694824</ele>
        <time>2017-07-18T09:20:12Z</time>
      </trkpt>
      <trkpt lat="47.39032" lon="5.39553">
        <ele>193.39999389648</ele>
        <time>2017-07-18T09:20:20Z</time>
      </trkpt>
      <trkpt lat="47.39057" lon="5.39588">
        <ele>193.39999389648</ele>
        <time>2017-07-18T09:20:26Z</time>
      </trkpt>
      <trkpt lat="47.39094" lon="5.39635">
        <ele>193.19999694824</ele>
        <time>2017-07-18T09:20:34Z</time>
      </trkpt>
      <trkpt lat="47.39125" lon="5.39678">
        <ele>193.19999694824</ele>
        <time>2017-07-18T09:20:41Z</time>
      </trkpt>
      <trkpt lat="47.39161" lon="5.39726">
        <ele>193</ele>
        <time>2017-07-18T09:20:49Z</time>
      </trkpt>
      <trkpt lat="47.39203" lon="5.39777">
        <ele>193.19999694824</ele>
        <time>2017-07-18T09:20:58Z</time>
      </trkpt>
      <trkpt lat="47.39241" lon="5.39817">
        <ele>193.39999389648</ele>
        <time>2017-07-18T09:21:06Z</time>
      </trkpt>
      <trkpt lat="47.39271" lon="5.39845">
        <ele>193.39999389648</ele>
        <time>2017-07-18T09:21:13Z</time>
      </trkpt>
      <trkpt lat="47.39294" lon="5.39866">
        <ele>193.19999694824</ele>
        <time>2017-07-18T09:21:19Z</time>
      </trkpt>
      <trkpt lat="47.39328" lon="5.39893">
        <ele>193.39999389648</ele>
        <time>2017-07-18T09:21:26Z</time>
      </trkpt>
      <trkpt lat="47.39369" lon="5.39924">
        <ele>193.39999389648</ele>
        <time>2017-07-18T09:21:34Z</time>
      </trkpt>
      <trkpt lat="47.39419" lon="5.39954">
        <ele>193.39999389648</ele>
        <time>2017-07-18T09:21:43Z</time>
      </trkpt>
      <trkpt lat="47.39473" lon="5.3998">
        <ele>193.39999389648</ele>
        <time>2017-07-18T09:21:52Z</time>
      </trkpt>
      <trkpt lat="47.39523" lon="5.39999">
        <ele>193.39999389648</ele>
        <time>2017-07-18T09:22:00Z</time>
      </trkpt>
      <trkpt lat="47.39571" lon="5.40015">
        <ele>193.39999389648</ele>
        <time>2017-07-18T09:22:08Z</time>
      </trkpt>
      <trkpt lat="47.39619" lon="5.40025">
        <ele>193.39999389648</ele>
        <time>2017-07-18T09:22:16Z</time>
      </trkpt>
      <trkpt lat="47.39657" lon="5.40029">
        <ele>193.39999389648</ele>
        <time>2017-07-18T09:22:22Z</time>
      </trkpt>
      <trkpt lat="47.39701" lon="5.40031">
        <ele>193.60000610352</ele>
        <time>2017-07-18T09:22:29Z</time>
      </trkpt>
      <trkpt lat="47.39744" lon="5.4003">
        <ele>193.60000610352</ele>
        <time>2017-07-18T09:22:36Z</time>
      </trkpt>
      <trkpt lat="47.39788" lon="5.40026">
        <ele>193.80000305176</ele>
        <time>2017-07-18T09:22:43Z</time>
      </trkpt>
      <trkpt lat="47.398" lon="5.40023">
        <ele>193.80000305176</ele>
        <time>2017-07-18T09:22:45Z</time>
      </trkpt>
      <trkpt lat="47.39823" lon="5.40018">
        <ele>193.80000305176</ele>
        <time>2017-07-18T09:22:49Z</time>
      </trkpt>
      <trkpt lat="47.39879" lon="5.40007">
        <ele>194</ele>
        <time>2017-07-18T09:22:58Z</time>
      </trkpt>
      <trkpt lat="47.39885" lon="5.40006">
        <ele>194</ele>
        <time>2017-07-18T09:22:59Z</time>
      </trkpt>
      <trkpt lat="47.39928" lon="5.39998">
        <ele>194.19999694824</ele>
        <time>2017-07-18T09:23:06Z</time>
      </trkpt>
      <trkpt lat="47.39934" lon="5.39997">
        <ele>194.19999694824</ele>
        <time>2017-07-18T09:23:07Z</time>
      </trkpt>
      <trkpt lat="47.39977" lon="5.39989">
        <ele>194.19999694824</ele>
        <time>2017-07-18T09:23:14Z</time>
      </trkpt>
      <trkpt lat="47.40001" lon="5.39984">
        <ele>194.39999389648</ele>
        <time>2017-07-18T09:23:18Z</time>
      </trkpt>
      <trkpt lat="47.40013" lon="5.39984">
        <ele>194.39999389648</ele>
        <time>2017-07-18T09:23:20Z</time>
      </trkpt>
      <trkpt lat="47.40019" lon="5.39982">
        <ele>194.39999389648</ele>
        <time>2017-07-18T09:23:21Z</time>
      </trkpt>
      <trkpt lat="47.40049" lon="5.39976">
        <ele>194.60000610352</ele>
        <time>2017-07-18T09:23:26Z</time>
      </trkpt>
      <trkpt lat="47.40103" lon="5.39966">
        <ele>194.60000610352</ele>
        <time>2017-07-18T09:23:35Z</time>
      </trkpt>
      <trkpt lat="47.40144" lon="5.3996">
        <ele>195</ele>
        <time>2017-07-18T09:23:42Z</time>
      </trkpt>
      <trkpt lat="47.40161" lon="5.39956">
        <ele>195.19999694824</ele>
        <time>2017-07-18T09:23:46Z</time>
      </trkpt>
      <trkpt lat="47.40164" lon="5.39955">
        <ele>195.19999694824</ele>
        <time>2017-07-18T09:23:47Z</time>
      </trkpt>
      <trkpt lat="47.40174" lon="5.39956">
        <ele>196</ele>
        <time>2017-07-18T09:23:52Z</time>
      </trkpt>
      <trkpt lat="47.40175" lon="5.39955">
        <ele>196.19999694824</ele>
        <time>2017-07-18T09:23:53Z</time>
      </trkpt>
      <trkpt lat="47.40176" lon="5.39954">
        <ele>196.19999694824</ele>
        <time>2017-07-18T09:23:54Z</time>
      </trkpt>
      <trkpt lat="47.40177" lon="5.39951">
        <ele>196.80000305176</ele>
        <time>2017-07-18T09:24:01Z</time>
      </trkpt>
      <trkpt lat="47.40179" lon="5.3995">
        <ele>196.80000305176</ele>
        <time>2017-07-18T09:24:02Z</time>
      </trkpt>
      <trkpt lat="47.40185" lon="5.3995">
        <ele>196.80000305176</ele>
        <time>2017-07-18T09:24:05Z</time>
      </trkpt>
      <trkpt lat="47.40187" lon="5.39949">
        <ele>196.80000305176</ele>
        <time>2017-07-18T09:24:06Z</time>
      </trkpt>
      <trkpt lat="47.402" lon="5.39939">
        <ele>196.80000305176</ele>
        <time>2017-07-18T09:24:10Z</time>
      </trkpt>
      <trkpt lat="47.40208" lon="5.39935">
        <ele>196.80000305176</ele>
        <time>2017-07-18T09:24:12Z</time>
      </trkpt>
      <trkpt lat="47.40213" lon="5.39935">
        <ele>196.60000610352</ele>
        <time>2017-07-18T09:24:13Z</time>
      </trkpt>
      <trkpt lat="47.40218" lon="5.39934">
        <ele>196.39999389648</ele>
        <time>2017-07-18T09:24:14Z</time>
      </trkpt>
      <trkpt lat="47.40239" lon="5.39936">
        <ele>196.19999694824</ele>
        <time>2017-07-18T09:24:18Z</time>
      </trkpt>
      <trkpt lat="47.40249" lon="5.39936">
        <ele>196.19999694824</ele>
        <time>2017-07-18T09:24:20Z</time>
      </trkpt>
      <trkpt lat="47.40287" lon="5.3993">
        <ele>196.60000610352</ele>
        <time>2017-07-18T09:24:27Z</time>
      </trkpt>
      <trkpt lat="47.40332" lon="5.39917">
        <ele>196.60000610352</ele>
        <time>2017-07-18T09:24:35Z</time>
      </trkpt>
      <trkpt lat="47.40377" lon="5.39895">
        <ele>196.80000305176</ele>
        <time>2017-07-18T09:24:43Z</time>
      </trkpt>
      <trkpt lat="47.40422" lon="5.39865">
        <ele>196.80000305176</ele>
        <time>2017-07-18T09:24:51Z</time>
      </trkpt>
      <trkpt lat="47.40469" lon="5.39824">
        <ele>196.80000305176</ele>
        <time>2017-07-18T09:25:00Z</time>
      </trkpt>
      <trkpt lat="47.40502" lon="5.39783">
        <ele>196.60000610352</ele>
        <time>2017-07-18T09:25:07Z</time>
      </trkpt>
      <trkpt lat="47.40531" lon="5.39734">
        <ele>196.60000610352</ele>
        <time>2017-07-18T09:25:14Z</time>
      </trkpt>
      <trkpt lat="47.40563" lon="5.39669">
        <ele>196.60000610352</ele>
        <time>2017-07-18T09:25:23Z</time>
      </trkpt>
      <trkpt lat="47.40584" lon="5.39614">
        <ele>196.39999389648</ele>
        <time>2017-07-18T09:25:30Z</time>
      </trkpt>
      <trkpt lat="47.40605" lon="5.39538">
        <ele>196.39999389648</ele>
        <time>2017-07-18T09:25:39Z</time>
      </trkpt>
      <trkpt lat="47.40616" lon="5.39485">
        <ele>196.39999389648</ele>
        <time>2017-07-18T09:25:45Z</time>
      </trkpt>
      <trkpt lat="47.40623" lon="5.39427">
        <ele>196.60000610352</ele>
        <time>2017-07-18T09:25:51Z</time>
      </trkpt>
      <trkpt lat="47.40627" lon="5.3934">
        <ele>196.60000610352</ele>
        <time>2017-07-18T09:26:00Z</time>
      </trkpt>
      <trkpt lat="47.40623" lon="5.39275">
        <ele>196.39999389648</ele>
        <time>2017-07-18T09:26:07Z</time>
      </trkpt>
      <trkpt lat="47.40616" lon="5.39189">
        <ele>196.60000610352</ele>
        <time>2017-07-18T09:26:16Z</time>
      </trkpt>
      <trkpt lat="47.4061" lon="5.39105">
        <ele>196.60000610352</ele>
        <time>2017-07-18T09:26:25Z</time>
      </trkpt>
      <trkpt lat="47.40607" lon="5.39041">
        <ele>196.39999389648</ele>
        <time>2017-07-18T09:26:32Z</time>
      </trkpt>
      <trkpt lat="47.40601" lon="5.38975">
        <ele>196.39999389648</ele>
        <time>2017-07-18T09:26:39Z</time>
      </trkpt>
      <trkpt lat="47.40595" lon="5.38891">
        <ele>196.39999389648</ele>
        <time>2017-07-18T09:26:48Z</time>
      </trkpt>
      <trkpt lat="47.40588" lon="5.38819">
        <ele>196.39999389648</ele>
        <time>2017-07-18T09:26:56Z</time>
      </trkpt>
      <trkpt lat="47.40585" lon="5.38772">
        <ele>196.39999389648</ele>
        <time>2017-07-18T09:27:01Z</time>
      </trkpt>
      <trkpt lat="47.4058" lon="5.38716">
        <ele>196.19999694824</ele>
        <time>2017-07-18T09:27:07Z</time>
      </trkpt>
      <trkpt lat="47.40574" lon="5.38632">
        <ele>196.39999389648</ele>
        <time>2017-07-18T09:27:16Z</time>
      </trkpt>
      <trkpt lat="47.40567" lon="5.38551">
        <ele>196.60000610352</ele>
        <time>2017-07-18T09:27:25Z</time>
      </trkpt>
      <trkpt lat="47.40562" lon="5.3849">
        <ele>196.60000610352</ele>
        <time>2017-07-18T09:27:32Z</time>
      </trkpt>
      <trkpt lat="47.40561" lon="5.38481">
        <ele>196.60000610352</ele>
        <time>2017-07-18T09:27:33Z</time>
      </trkpt>
      <trkpt lat="47.40558" lon="5.38455">
        <ele>196.80000305176</ele>
        <time>2017-07-18T09:27:36Z</time>
      </trkpt>
      <trkpt lat="47.40558" lon="5.38446">
        <ele>196.80000305176</ele>
        <time>2017-07-18T09:27:37Z</time>
      </trkpt>
      <trkpt lat="47.40553" lon="5.38392">
        <ele>196.80000305176</ele>
        <time>2017-07-18T09:27:43Z</time>
      </trkpt>
      <trkpt lat="47.40551" lon="5.38347">
        <ele>196.80000305176</ele>
        <time>2017-07-18T09:27:48Z</time>
      </trkpt>
      <trkpt lat="47.40551" lon="5.38338">
        <ele>196.80000305176</ele>
        <time>2017-07-18T09:27:49Z</time>
      </trkpt>
      <trkpt lat="47.4055" lon="5.38264">
        <ele>196.80000305176</ele>
        <time>2017-07-18T09:27:57Z</time>
      </trkpt>
      <trkpt lat="47.4055" lon="5.38199">
        <ele>196.80000305176</ele>
        <time>2017-07-18T09:28:04Z</time>
      </trkpt>
      <trkpt lat="47.40555" lon="5.38126">
        <ele>196.80000305176</ele>
        <time>2017-07-18T09:28:12Z</time>
      </trkpt>
      <trkpt lat="47.40558" lon="5.38057">
        <ele>196.80000305176</ele>
        <time>2017-07-18T09:28:20Z</time>
      </trkpt>
      <trkpt lat="47.4056" lon="5.38023">
        <ele>196.80000305176</ele>
        <time>2017-07-18T09:28:24Z</time>
      </trkpt>
      <trkpt lat="47.40562" lon="5.38005">
        <ele>197</ele>
        <time>2017-07-18T09:28:26Z</time>
      </trkpt>
      <trkpt lat="47.40571" lon="5.37944">
        <ele>197</ele>
        <time>2017-07-18T09:28:33Z</time>
      </trkpt>
      <trkpt lat="47.40587" lon="5.37873">
        <ele>197</ele>
        <time>2017-07-18T09:28:41Z</time>
      </trkpt>
      <trkpt lat="47.40603" lon="5.37805">
        <ele>197</ele>
        <time>2017-07-18T09:28:49Z</time>
      </trkpt>
      <trkpt lat="47.40605" lon="5.37796">
        <ele>196.80000305176</ele>
        <time>2017-07-18T09:28:50Z</time>
      </trkpt>
      <trkpt lat="47.40622" lon="5.37749">
        <ele>196.60000610352</ele>
        <time>2017-07-18T09:28:56Z</time>
      </trkpt>
      <trkpt lat="47.40633" lon="5.3773">
        <ele>196.60000610352</ele>
        <time>2017-07-18T09:28:59Z</time>
      </trkpt>
      <trkpt lat="47.40639" lon="5.37709">
        <ele>196.60000610352</ele>
        <time>2017-07-18T09:29:02Z</time>
      </trkpt>
      <trkpt lat="47.40641" lon="5.37693">
        <ele>196.60000610352</ele>
        <time>2017-07-18T09:29:04Z</time>
      </trkpt>
      <trkpt lat="47.40643" lon="5.37667">
        <ele>196.60000610352</ele>
        <time>2017-07-18T09:29:07Z</time>
      </trkpt>
      <trkpt lat="47.40645" lon="5.37659">
        <ele>196.60000610352</ele>
        <time>2017-07-18T09:29:08Z</time>
      </trkpt>
      <trkpt lat="47.40649" lon="5.37643">
        <ele>196.39999389648</ele>
        <time>2017-07-18T09:29:10Z</time>
      </trkpt>
      <trkpt lat="47.40652" lon="5.37635">
        <ele>196.39999389648</ele>
        <time>2017-07-18T09:29:11Z</time>
      </trkpt>
      <trkpt lat="47.40674" lon="5.37592">
        <ele>196.39999389648</ele>
        <time>2017-07-18T09:29:17Z</time>
      </trkpt>
      <trkpt lat="47.40699" lon="5.3755">
        <ele>196.60000610352</ele>
        <time>2017-07-18T09:29:23Z</time>
      </trkpt>
      <trkpt lat="47.40726" lon="5.37499">
        <ele>197</ele>
        <time>2017-07-18T09:29:30Z</time>
      </trkpt>
      <trkpt lat="47.40766" lon="5.37453">
        <ele>196.80000305176</ele>
        <time>2017-07-18T09:29:38Z</time>
      </trkpt>
      <trkpt lat="47.40807" lon="5.37428">
        <ele>196.80000305176</ele>
        <time>2017-07-18T09:29:45Z</time>
      </trkpt>
      <trkpt lat="47.4085" lon="5.37409">
        <ele>197</ele>
        <time>2017-07-18T09:29:52Z</time>
      </trkpt>
      <trkpt lat="47.40888" lon="5.37397">
        <ele>197</ele>
        <time>2017-07-18T09:29:58Z</time>
      </trkpt>
      <trkpt lat="47.40932" lon="5.37381">
        <ele>197</ele>
        <time>2017-07-18T09:30:05Z</time>
      </trkpt>
      <trkpt lat="47.40975" lon="5.37366">
        <ele>197</ele>
        <time>2017-07-18T09:30:12Z</time>
      </trkpt>
      <trkpt lat="47.41025" lon="5.37348">
        <ele>197</ele>
        <time>2017-07-18T09:30:20Z</time>
      </trkpt>
      <trkpt lat="47.41077" lon="5.3733">
        <ele>196.80000305176</ele>
        <time>2017-07-18T09:30:28Z</time>
      </trkpt>
      <trkpt lat="47.41127" lon="5.37313">
        <ele>197</ele>
        <time>2017-07-18T09:30:36Z</time>
      </trkpt>
      <trkpt lat="47.41182" lon="5.37295">
        <ele>197.19999694824</ele>
        <time>2017-07-18T09:30:45Z</time>
      </trkpt>
      <trkpt lat="47.41214" lon="5.37284">
        <ele>197.39999389648</ele>
        <time>2017-07-18T09:30:50Z</time>
      </trkpt>
      <trkpt lat="47.41239" lon="5.37274">
        <ele>197.39999389648</ele>
        <time>2017-07-18T09:30:54Z</time>
      </trkpt>
      <trkpt lat="47.4129" lon="5.37256">
        <ele>197.39999389648</ele>
        <time>2017-07-18T09:31:02Z</time>
      </trkpt>
      <trkpt lat="47.41339" lon="5.37239">
        <ele>197.60000610352</ele>
        <time>2017-07-18T09:31:10Z</time>
      </trkpt>
      <trkpt lat="47.4139" lon="5.3722">
        <ele>197.39999389648</ele>
        <time>2017-07-18T09:31:18Z</time>
      </trkpt>
      <trkpt lat="47.41443" lon="5.37201">
        <ele>197.39999389648</ele>
        <time>2017-07-18T09:31:26Z</time>
      </trkpt>
      <trkpt lat="47.4145" lon="5.37199">
        <ele>197.19999694824</ele>
        <time>2017-07-18T09:31:27Z</time>
      </trkpt>
      <trkpt lat="47.41507" lon="5.37177">
        <ele>197.39999389648</ele>
        <time>2017-07-18T09:31:36Z</time>
      </trkpt>
      <trkpt lat="47.41545" lon="5.37165">
        <ele>197.60000610352</ele>
        <time>2017-07-18T09:31:42Z</time>
      </trkpt>
      <trkpt lat="47.41601" lon="5.37145">
        <ele>197.80000305176</ele>
        <time>2017-07-18T09:31:51Z</time>
      </trkpt>
      <trkpt lat="47.41646" lon="5.37129">
        <ele>198</ele>
        <time>2017-07-18T09:31:59Z</time>
      </trkpt>
      <trkpt lat="47.41652" lon="5.37128">
        <ele>197.80000305176</ele>
        <time>2017-07-18T09:32:00Z</time>
      </trkpt>
      <trkpt lat="47.41682" lon="5.37118">
        <ele>197.80000305176</ele>
        <time>2017-07-18T09:32:05Z</time>
      </trkpt>
      <trkpt lat="47.41738" lon="5.37098">
        <ele>197.80000305176</ele>
        <time>2017-07-18T09:32:14Z</time>
      </trkpt>
      <trkpt lat="47.41794" lon="5.37078">
        <ele>197.80000305176</ele>
        <time>2017-07-18T09:32:23Z</time>
      </trkpt>
      <trkpt lat="47.41807" lon="5.37072">
        <ele>197.80000305176</ele>
        <time>2017-07-18T09:32:25Z</time>
      </trkpt>
      <trkpt lat="47.4182" lon="5.37065">
        <ele>197.60000610352</ele>
        <time>2017-07-18T09:32:27Z</time>
      </trkpt>
      <trkpt lat="47.41833" lon="5.37062">
        <ele>197.39999389648</ele>
        <time>2017-07-18T09:32:29Z</time>
      </trkpt>
      <trkpt lat="47.41839" lon="5.37061">
        <ele>197.19999694824</ele>
        <time>2017-07-18T09:32:30Z</time>
      </trkpt>
      <trkpt lat="47.41857" lon="5.37058">
        <ele>197.19999694824</ele>
        <time>2017-07-18T09:32:33Z</time>
      </trkpt>
      <trkpt lat="47.41863" lon="5.37057">
        <ele>197.19999694824</ele>
        <time>2017-07-18T09:32:34Z</time>
      </trkpt>
      <trkpt lat="47.41896" lon="5.3704">
        <ele>198.19999694824</ele>
        <time>2017-07-18T09:32:40Z</time>
      </trkpt>
      <trkpt lat="47.41908" lon="5.37033">
        <ele>198.39999389648</ele>
        <time>2017-07-18T09:32:42Z</time>
      </trkpt>
      <trkpt lat="47.4192" lon="5.37026">
        <ele>198.39999389648</ele>
        <time>2017-07-18T09:32:44Z</time>
      </trkpt>
      <trkpt lat="47.41937" lon="5.37014">
        <ele>198.39999389648</ele>
        <time>2017-07-18T09:32:47Z</time>
      </trkpt>
      <trkpt lat="47.41969" lon="5.36984">
        <ele>198.39999389648</ele>
        <time>2017-07-18T09:32:53Z</time>
      </trkpt>
      <trkpt lat="47.42007" lon="5.36933">
        <ele>198.60000610352</ele>
        <time>2017-07-18T09:33:01Z</time>
      </trkpt>
      <trkpt lat="47.4204" lon="5.36879">
        <ele>198.80000305176</ele>
        <time>2017-07-18T09:33:09Z</time>
      </trkpt>
      <trkpt lat="47.4207" lon="5.36826">
        <ele>198.39999389648</ele>
        <time>2017-07-18T09:33:17Z</time>
      </trkpt>
      <trkpt lat="47.42105" lon="5.36766">
        <ele>198.39999389648</ele>
        <time>2017-07-18T09:33:26Z</time>
      </trkpt>
      <trkpt lat="47.42134" lon="5.36718">
        <ele>198.39999389648</ele>
        <time>2017-07-18T09:33:34Z</time>
      </trkpt>
      <trkpt lat="47.42137" lon="5.36713">
        <ele>198.60000610352</ele>
        <time>2017-07-18T09:33:35Z</time>
      </trkpt>
      <trkpt lat="47.42146" lon="5.36699">
        <ele>199.19999694824</ele>
        <time>2017-07-18T09:33:39Z</time>
      </trkpt>
      <trkpt lat="47.42147" lon="5.36697">
        <ele>199.39999389648</ele>
        <time>2017-07-18T09:33:40Z</time>
      </trkpt>
      <trkpt lat="47.42146" lon="5.36691">
        <ele>200</ele>
        <time>2017-07-18T09:33:43Z</time>
      </trkpt>
      <trkpt lat="47.42145" lon="5.3669">
        <ele>200.19999694824</ele>
        <time>2017-07-18T09:33:44Z</time>
      </trkpt>
      <trkpt lat="47.42144" lon="5.36689">
        <ele>200.39999389648</ele>
        <time>2017-07-18T09:33:45Z</time>
      </trkpt>
      <trkpt lat="47.42139" lon="5.36687">
        <ele>200.80000305176</ele>
        <time>2017-07-18T09:33:49Z</time>
      </trkpt>
      <trkpt lat="47.42135" lon="5.36681">
        <ele>200.80000305176</ele>
        <time>2017-07-18T09:33:54Z</time>
      </trkpt>
      <trkpt lat="47.42136" lon="5.36686">
        <ele>200.80000305176</ele>
        <time>2017-07-18T09:33:57Z</time>
      </trkpt>
      <trkpt lat="47.42138" lon="5.36687">
        <ele>200.80000305176</ele>
        <time>2017-07-18T09:33:58Z</time>
      </trkpt>
      <trkpt lat="47.42141" lon="5.3669">
        <ele>200.80000305176</ele>
        <time>2017-07-18T09:34:00Z</time>
      </trkpt>
      <trkpt lat="47.42145" lon="5.36688">
        <ele>200.80000305176</ele>
        <time>2017-07-18T09:34:02Z</time>
      </trkpt>
      <trkpt lat="47.42153" lon="5.36671">
        <ele>200.60000610352</ele>
        <time>2017-07-18T09:34:06Z</time>
      </trkpt>
      <trkpt lat="47.42159" lon="5.36658">
        <ele>200.39999389648</ele>
        <time>2017-07-18T09:34:08Z</time>
      </trkpt>
      <trkpt lat="47.42169" lon="5.3664">
        <ele>199.39999389648</ele>
        <time>2017-07-18T09:34:11Z</time>
      </trkpt>
      <trkpt lat="47.42173" lon="5.36634">
        <ele>199.19999694824</ele>
        <time>2017-07-18T09:34:12Z</time>
      </trkpt>
      <trkpt lat="47.42197" lon="5.366">
        <ele>199</ele>
        <time>2017-07-18T09:34:18Z</time>
      </trkpt>
      <trkpt lat="47.42227" lon="5.36547">
        <ele>199</ele>
        <time>2017-07-18T09:34:26Z</time>
      </trkpt>
      <trkpt lat="47.42259" lon="5.36489">
        <ele>199</ele>
        <time>2017-07-18T09:34:34Z</time>
      </trkpt>
      <trkpt lat="47.42287" lon="5.36446">
        <ele>199.19999694824</ele>
        <time>2017-07-18T09:34:40Z</time>
      </trkpt>
      <trkpt lat="47.42323" lon="5.36402">
        <ele>199.60000610352</ele>
        <time>2017-07-18T09:34:47Z</time>
      </trkpt>
      <trkpt lat="47.42354" lon="5.36366">
        <ele>199.60000610352</ele>
        <time>2017-07-18T09:34:53Z</time>
      </trkpt>
      <trkpt lat="47.42398" lon="5.36326">
        <ele>199.80000305176</ele>
        <time>2017-07-18T09:35:01Z</time>
      </trkpt>
      <trkpt lat="47.42432" lon="5.36301">
        <ele>199.80000305176</ele>
        <time>2017-07-18T09:35:07Z</time>
      </trkpt>
      <trkpt lat="47.42473" lon="5.36273">
        <ele>199.80000305176</ele>
        <time>2017-07-18T09:35:14Z</time>
      </trkpt>
      <trkpt lat="47.42525" lon="5.36237">
        <ele>200</ele>
        <time>2017-07-18T09:35:23Z</time>
      </trkpt>
      <trkpt lat="47.42572" lon="5.36206">
        <ele>199.80000305176</ele>
        <time>2017-07-18T09:35:31Z</time>
      </trkpt>
      <trkpt lat="47.42604" lon="5.36183">
        <ele>200</ele>
        <time>2017-07-18T09:35:37Z</time>
      </trkpt>
      <trkpt lat="47.42643" lon="5.36155">
        <ele>200</ele>
        <time>2017-07-18T09:35:44Z</time>
      </trkpt>
      <trkpt lat="47.42683" lon="5.36128">
        <ele>200</ele>
        <time>2017-07-18T09:35:51Z</time>
      </trkpt>
      <trkpt lat="47.42716" lon="5.36105">
        <ele>200</ele>
        <time>2017-07-18T09:35:57Z</time>
      </trkpt>
      <trkpt lat="47.42762" lon="5.36075">
        <ele>200</ele>
        <time>2017-07-18T09:36:05Z</time>
      </trkpt>
      <trkpt lat="47.42804" lon="5.36055">
        <ele>200</ele>
        <time>2017-07-18T09:36:12Z</time>
      </trkpt>
      <trkpt lat="47.42856" lon="5.36046">
        <ele>200</ele>
        <time>2017-07-18T09:36:20Z</time>
      </trkpt>
      <trkpt lat="47.42901" lon="5.3605">
        <ele>199.80000305176</ele>
        <time>2017-07-18T09:36:27Z</time>
      </trkpt>
      <trkpt lat="47.42944" lon="5.36066">
        <ele>199.80000305176</ele>
        <time>2017-07-18T09:36:34Z</time>
      </trkpt>
      <trkpt lat="47.42985" lon="5.36093">
        <ele>200.19999694824</ele>
        <time>2017-07-18T09:36:41Z</time>
      </trkpt>
      <trkpt lat="47.43018" lon="5.36125">
        <ele>200.19999694824</ele>
        <time>2017-07-18T09:36:47Z</time>
      </trkpt>
      <trkpt lat="47.43028" lon="5.36138">
        <ele>200.19999694824</ele>
        <time>2017-07-18T09:36:49Z</time>
      </trkpt>
      <trkpt lat="47.43057" lon="5.36183">
        <ele>200.39999389648</ele>
        <time>2017-07-18T09:36:56Z</time>
      </trkpt>
      <trkpt lat="47.43061" lon="5.3619">
        <ele>200.39999389648</ele>
        <time>2017-07-18T09:36:57Z</time>
      </trkpt>
      <trkpt lat="47.43082" lon="5.36234">
        <ele>200.39999389648</ele>
        <time>2017-07-18T09:37:03Z</time>
      </trkpt>
      <trkpt lat="47.43096" lon="5.36274">
        <ele>200.39999389648</ele>
        <time>2017-07-18T09:37:08Z</time>
      </trkpt>
      <trkpt lat="47.431" lon="5.3629">
        <ele>200.39999389648</ele>
        <time>2017-07-18T09:37:10Z</time>
      </trkpt>
      <trkpt lat="47.43121" lon="5.36365">
        <ele>200.39999389648</ele>
        <time>2017-07-18T09:37:19Z</time>
      </trkpt>
      <trkpt lat="47.43135" lon="5.36415">
        <ele>200.39999389648</ele>
        <time>2017-07-18T09:37:25Z</time>
      </trkpt>
      <trkpt lat="47.43151" lon="5.36474">
        <ele>200.39999389648</ele>
        <time>2017-07-18T09:37:32Z</time>
      </trkpt>
      <trkpt lat="47.43169" lon="5.36539">
        <ele>200.80000305176</ele>
        <time>2017-07-18T09:37:40Z</time>
      </trkpt>
      <trkpt lat="47.43172" lon="5.36547">
        <ele>200.80000305176</ele>
        <time>2017-07-18T09:37:41Z</time>
      </trkpt>
      <trkpt lat="47.43189" lon="5.36606">
        <ele>200.80000305176</ele>
        <time>2017-07-18T09:37:49Z</time>
      </trkpt>
      <trkpt lat="47.43201" lon="5.36652">
        <ele>200.39999389648</ele>
        <time>2017-07-18T09:37:55Z</time>
      </trkpt>
      <trkpt lat="47.43221" lon="5.36724">
        <ele>200.60000610352</ele>
        <time>2017-07-18T09:38:04Z</time>
      </trkpt>
      <trkpt lat="47.4323" lon="5.36756">
        <ele>200.39999389648</ele>
        <time>2017-07-18T09:38:08Z</time>
      </trkpt>
      <trkpt lat="47.43239" lon="5.36777">
        <ele>200.39999389648</ele>
        <time>2017-07-18T09:38:11Z</time>
      </trkpt>
      <trkpt lat="47.43248" lon="5.36799">
        <ele>200.39999389648</ele>
        <time>2017-07-18T09:38:14Z</time>
      </trkpt>
      <trkpt lat="47.43262" lon="5.36827">
        <ele>200.60000610352</ele>
        <time>2017-07-18T09:38:18Z</time>
      </trkpt>
      <trkpt lat="47.43284" lon="5.36865">
        <ele>200.80000305176</ele>
        <time>2017-07-18T09:38:24Z</time>
      </trkpt>
      <trkpt lat="47.43319" lon="5.36906">
        <ele>201</ele>
        <time>2017-07-18T09:38:32Z</time>
      </trkpt>
      <trkpt lat="47.43345" lon="5.36934">
        <ele>201</ele>
        <time>2017-07-18T09:38:39Z</time>
      </trkpt>
      <trkpt lat="47.43357" lon="5.36944">
        <ele>201.60000610352</ele>
        <time>2017-07-18T09:38:43Z</time>
      </trkpt>
      <trkpt lat="47.43362" lon="5.36949">
        <ele>202</ele>
        <time>2017-07-18T09:38:45Z</time>
      </trkpt>
      <trkpt lat="47.43373" lon="5.36958">
        <ele>202.80000305176</ele>
        <time>2017-07-18T09:38:49Z</time>
      </trkpt>
      <trkpt lat="47.43376" lon="5.3696">
        <ele>202.80000305176</ele>
        <time>2017-07-18T09:38:50Z</time>
      </trkpt>
      <trkpt lat="47.43383" lon="5.36966">
        <ele>203</ele>
        <time>2017-07-18T09:38:52Z</time>
      </trkpt>
      <trkpt lat="47.43396" lon="5.36975">
        <ele>203</ele>
        <time>2017-07-18T09:38:55Z</time>
      </trkpt>
      <trkpt lat="47.4342" lon="5.37002">
        <ele>202.19999694824</ele>
        <time>2017-07-18T09:39:01Z</time>
      </trkpt>
      <trkpt lat="47.4345" lon="5.37033">
        <ele>202.80000305176</ele>
        <time>2017-07-18T09:39:08Z</time>
      </trkpt>
      <trkpt lat="47.43478" lon="5.3706">
        <ele>203</ele>
        <time>2017-07-18T09:39:14Z</time>
      </trkpt>
      <trkpt lat="47.43511" lon="5.37092">
        <ele>203.39999389648</ele>
        <time>2017-07-18T09:39:21Z</time>
      </trkpt>
      <trkpt lat="47.43555" lon="5.37136">
        <ele>203.39999389648</ele>
        <time>2017-07-18T09:39:30Z</time>
      </trkpt>
      <trkpt lat="47.4359" lon="5.37167">
        <ele>203.60000610352</ele>
        <time>2017-07-18T09:39:37Z</time>
      </trkpt>
      <trkpt lat="47.43619" lon="5.37195">
        <ele>203.19999694824</ele>
        <time>2017-07-18T09:39:43Z</time>
      </trkpt>
      <trkpt lat="47.43624" lon="5.372">
        <ele>203</ele>
        <time>2017-07-18T09:39:44Z</time>
      </trkpt>
      <trkpt lat="47.43659" lon="5.37233">
        <ele>202.80000305176</ele>
        <time>2017-07-18T09:39:51Z</time>
      </trkpt>
      <trkpt lat="47.43689" lon="5.37261">
        <ele>202.80000305176</ele>
        <time>2017-07-18T09:39:57Z</time>
      </trkpt>
      <trkpt lat="47.43694" lon="5.37266">
        <ele>203</ele>
        <time>2017-07-18T09:39:58Z</time>
      </trkpt>
      <trkpt lat="47.43718" lon="5.37291">
        <ele>203</ele>
        <time>2017-07-18T09:40:03Z</time>
      </trkpt>
      <trkpt lat="47.43759" lon="5.37331">
        <ele>202.80000305176</ele>
        <time>2017-07-18T09:40:11Z</time>
      </trkpt>
      <trkpt lat="47.438" lon="5.37369">
        <ele>203</ele>
        <time>2017-07-18T09:40:19Z</time>
      </trkpt>
      <trkpt lat="47.43835" lon="5.37405">
        <ele>203</ele>
        <time>2017-07-18T09:40:27Z</time>
      </trkpt>
      <trkpt lat="47.43856" lon="5.37426">
        <ele>203.80000305176</ele>
        <time>2017-07-18T09:40:33Z</time>
      </trkpt>
      <trkpt lat="47.43859" lon="5.3743">
        <ele>204</ele>
        <time>2017-07-18T09:40:34Z</time>
      </trkpt>
      <trkpt lat="47.4387" lon="5.37443">
        <ele>204.80000305176</ele>
        <time>2017-07-18T09:40:38Z</time>
      </trkpt>
      <trkpt lat="47.43881" lon="5.3745">
        <ele>205.39999389648</ele>
        <time>2017-07-18T09:40:41Z</time>
      </trkpt>
      <trkpt lat="47.43888" lon="5.37453">
        <ele>205.80000305176</ele>
        <time>2017-07-18T09:40:43Z</time>
      </trkpt>
      <trkpt lat="47.43904" lon="5.37462">
        <ele>206.19999694824</ele>
        <time>2017-07-18T09:40:47Z</time>
      </trkpt>
      <trkpt lat="47.43912" lon="5.3747">
        <ele>206.19999694824</ele>
        <time>2017-07-18T09:40:49Z</time>
      </trkpt>
      <trkpt lat="47.43924" lon="5.37485">
        <ele>205.80000305176</ele>
        <time>2017-07-18T09:40:52Z</time>
      </trkpt>
      <trkpt lat="47.43955" lon="5.37515">
        <ele>205.80000305176</ele>
        <time>2017-07-18T09:40:59Z</time>
      </trkpt>
      <trkpt lat="47.43987" lon="5.37546">
        <ele>206</ele>
        <time>2017-07-18T09:41:06Z</time>
      </trkpt>
      <trkpt lat="47.44035" lon="5.37594">
        <ele>206.39999389648</ele>
        <time>2017-07-18T09:41:16Z</time>
      </trkpt>
      <trkpt lat="47.44074" lon="5.37633">
        <ele>206.19999694824</ele>
        <time>2017-07-18T09:41:24Z</time>
      </trkpt>
      <trkpt lat="47.44113" lon="5.37671">
        <ele>206.19999694824</ele>
        <time>2017-07-18T09:41:32Z</time>
      </trkpt>
      <trkpt lat="47.44159" lon="5.37714">
        <ele>206.19999694824</ele>
        <time>2017-07-18T09:41:41Z</time>
      </trkpt>
      <trkpt lat="47.44203" lon="5.37751">
        <ele>206.19999694824</ele>
        <time>2017-07-18T09:41:49Z</time>
      </trkpt>
      <trkpt lat="47.44247" lon="5.37779">
        <ele>206.39999389648</ele>
        <time>2017-07-18T09:41:57Z</time>
      </trkpt>
      <trkpt lat="47.44281" lon="5.37796">
        <ele>206.60000610352</ele>
        <time>2017-07-18T09:42:03Z</time>
      </trkpt>
      <trkpt lat="47.44328" lon="5.37814">
        <ele>206.39999389648</ele>
        <time>2017-07-18T09:42:11Z</time>
      </trkpt>
      <trkpt lat="47.44373" lon="5.37829">
        <ele>206.19999694824</ele>
        <time>2017-07-18T09:42:19Z</time>
      </trkpt>
      <trkpt lat="47.44426" lon="5.37847">
        <ele>206.19999694824</ele>
        <time>2017-07-18T09:42:28Z</time>
      </trkpt>
      <trkpt lat="47.44474" lon="5.37863">
        <ele>206.19999694824</ele>
        <time>2017-07-18T09:42:36Z</time>
      </trkpt>
      <trkpt lat="47.44516" lon="5.37878">
        <ele>206.19999694824</ele>
        <time>2017-07-18T09:42:43Z</time>
      </trkpt>
      <trkpt lat="47.44551" lon="5.3789">
        <ele>206.39999389648</ele>
        <time>2017-07-18T09:42:49Z</time>
      </trkpt>
      <trkpt lat="47.44603" lon="5.37908">
        <ele>206.19999694824</ele>
        <time>2017-07-18T09:42:58Z</time>
      </trkpt>
      <trkpt lat="47.44655" lon="5.37924">
        <ele>206.39999389648</ele>
        <time>2017-07-18T09:43:07Z</time>
      </trkpt>
      <trkpt lat="47.44704" lon="5.37934">
        <ele>206</ele>
        <time>2017-07-18T09:43:15Z</time>
      </trkpt>
      <trkpt lat="47.44753" lon="5.37936">
        <ele>206.19999694824</ele>
        <time>2017-07-18T09:43:23Z</time>
      </trkpt>
      <trkpt lat="47.44795" lon="5.37935">
        <ele>206.39999389648</ele>
        <time>2017-07-18T09:43:30Z</time>
      </trkpt>
      <trkpt lat="47.44842" lon="5.37926">
        <ele>206.39999389648</ele>
        <time>2017-07-18T09:43:38Z</time>
      </trkpt>
      <trkpt lat="47.44877" lon="5.37917">
        <ele>206.39999389648</ele>
        <time>2017-07-18T09:43:44Z</time>
      </trkpt>
      <trkpt lat="47.44906" lon="5.37908">
        <ele>206.39999389648</ele>
        <time>2017-07-18T09:43:49Z</time>
      </trkpt>
      <trkpt lat="47.4493" lon="5.37903">
        <ele>206.19999694824</ele>
        <time>2017-07-18T09:43:53Z</time>
      </trkpt>
      <trkpt lat="47.44935" lon="5.37901">
        <ele>206</ele>
        <time>2017-07-18T09:43:54Z</time>
      </trkpt>
      <trkpt lat="47.44958" lon="5.37895">
        <ele>206</ele>
        <time>2017-07-18T09:43:59Z</time>
      </trkpt>
      <trkpt lat="47.44992" lon="5.37885">
        <ele>206.19999694824</ele>
        <time>2017-07-18T09:44:06Z</time>
      </trkpt>
      <trkpt lat="47.45038" lon="5.37871">
        <ele>205.80000305176</ele>
        <time>2017-07-18T09:44:14Z</time>
      </trkpt>
      <trkpt lat="47.45044" lon="5.3787">
        <ele>205.80000305176</ele>
        <time>2017-07-18T09:44:15Z</time>
      </trkpt>
      <trkpt lat="47.45076" lon="5.37866">
        <ele>205.80000305176</ele>
        <time>2017-07-18T09:44:20Z</time>
      </trkpt>
      <trkpt lat="47.45124" lon="5.37852">
        <ele>205.80000305176</ele>
        <time>2017-07-18T09:44:28Z</time>
      </trkpt>
      <trkpt lat="47.45181" lon="5.37837">
        <ele>206</ele>
        <time>2017-07-18T09:44:37Z</time>
      </trkpt>
      <trkpt lat="47.45224" lon="5.37826">
        <ele>206</ele>
        <time>2017-07-18T09:44:44Z</time>
      </trkpt>
      <trkpt lat="47.45259" lon="5.37816">
        <ele>206</ele>
        <time>2017-07-18T09:44:50Z</time>
      </trkpt>
      <trkpt lat="47.45303" lon="5.37799">
        <ele>206.19999694824</ele>
        <time>2017-07-18T09:44:58Z</time>
      </trkpt>
      <trkpt lat="47.45362" lon="5.37793">
        <ele>206</ele>
        <time>2017-07-18T09:45:07Z</time>
      </trkpt>
      <trkpt lat="47.45414" lon="5.37795">
        <ele>205.80000305176</ele>
        <time>2017-07-18T09:45:15Z</time>
      </trkpt>
      <trkpt lat="47.45449" lon="5.37798">
        <ele>206</ele>
        <time>2017-07-18T09:45:21Z</time>
      </trkpt>
      <trkpt lat="47.45493" lon="5.37806">
        <ele>206</ele>
        <time>2017-07-18T09:45:28Z</time>
      </trkpt>
      <trkpt lat="47.45546" lon="5.37811">
        <ele>206</ele>
        <time>2017-07-18T09:45:36Z</time>
      </trkpt>
      <trkpt lat="47.45589" lon="5.37804">
        <ele>206.39999389648</ele>
        <time>2017-07-18T09:45:43Z</time>
      </trkpt>
      <trkpt lat="47.45621" lon="5.37792">
        <ele>206.39999389648</ele>
        <time>2017-07-18T09:45:49Z</time>
      </trkpt>
      <trkpt lat="47.45634" lon="5.37785">
        <ele>207</ele>
        <time>2017-07-18T09:45:52Z</time>
      </trkpt>
      <trkpt lat="47.45648" lon="5.37777">
        <ele>207.60000610352</ele>
        <time>2017-07-18T09:45:55Z</time>
      </trkpt>
      <trkpt lat="47.45684" lon="5.37746">
        <ele>207.39999389648</ele>
        <time>2017-07-18T09:46:02Z</time>
      </trkpt>
      <trkpt lat="47.4572" lon="5.37708">
        <ele>206.80000305176</ele>
        <time>2017-07-18T09:46:09Z</time>
      </trkpt>
      <trkpt lat="47.45752" lon="5.37676">
        <ele>207</ele>
        <time>2017-07-18T09:46:15Z</time>
      </trkpt>
      <trkpt lat="47.458" lon="5.37623">
        <ele>206.80000305176</ele>
        <time>2017-07-18T09:46:24Z</time>
      </trkpt>
      <trkpt lat="47.45849" lon="5.37571">
        <ele>207</ele>
        <time>2017-07-18T09:46:33Z</time>
      </trkpt>
      <trkpt lat="47.45884" lon="5.37534">
        <ele>206.80000305176</ele>
        <time>2017-07-18T09:46:40Z</time>
      </trkpt>
      <trkpt lat="47.45899" lon="5.37518">
        <ele>207</ele>
        <time>2017-07-18T09:46:43Z</time>
      </trkpt>
      <trkpt lat="47.45914" lon="5.37502">
        <ele>207</ele>
        <time>2017-07-18T09:46:46Z</time>
      </trkpt>
      <trkpt lat="47.45955" lon="5.3746">
        <ele>207</ele>
        <time>2017-07-18T09:46:54Z</time>
      </trkpt>
      <trkpt lat="47.45985" lon="5.37428">
        <ele>207.19999694824</ele>
        <time>2017-07-18T09:47:00Z</time>
      </trkpt>
      <trkpt lat="47.46026" lon="5.37384">
        <ele>207.19999694824</ele>
        <time>2017-07-18T09:47:08Z</time>
      </trkpt>
      <trkpt lat="47.46061" lon="5.37347">
        <ele>207.19999694824</ele>
        <time>2017-07-18T09:47:15Z</time>
      </trkpt>
      <trkpt lat="47.46097" lon="5.37311">
        <ele>207.19999694824</ele>
        <time>2017-07-18T09:47:22Z</time>
      </trkpt>
      <trkpt lat="47.4613" lon="5.37279">
        <ele>207.19999694824</ele>
        <time>2017-07-18T09:47:29Z</time>
      </trkpt>
      <trkpt lat="47.46144" lon="5.37266">
        <ele>208</ele>
        <time>2017-07-18T09:47:33Z</time>
      </trkpt>
      <trkpt lat="47.46147" lon="5.37262">
        <ele>208.19999694824</ele>
        <time>2017-07-18T09:47:34Z</time>
      </trkpt>
      <trkpt lat="47.46158" lon="5.37247">
        <ele>209.19999694824</ele>
        <time>2017-07-18T09:47:38Z</time>
      </trkpt>
      <trkpt lat="47.46172" lon="5.37224">
        <ele>210.19999694824</ele>
        <time>2017-07-18T09:47:43Z</time>
      </trkpt>
      <trkpt lat="47.46187" lon="5.37206">
        <ele>210.19999694824</ele>
        <time>2017-07-18T09:47:47Z</time>
      </trkpt>
      <trkpt lat="47.46196" lon="5.37198">
        <ele>209.80000305176</ele>
        <time>2017-07-18T09:47:49Z</time>
      </trkpt>
      <trkpt lat="47.4624" lon="5.37156">
        <ele>209.60000610352</ele>
        <time>2017-07-18T09:47:58Z</time>
      </trkpt>
      <trkpt lat="47.46277" lon="5.37126">
        <ele>209.60000610352</ele>
        <time>2017-07-18T09:48:05Z</time>
      </trkpt>
      <trkpt lat="47.4631" lon="5.37107">
        <ele>209.39999389648</ele>
        <time>2017-07-18T09:48:11Z</time>
      </trkpt>
      <trkpt lat="47.46355" lon="5.37093">
        <ele>209.80000305176</ele>
        <time>2017-07-18T09:48:19Z</time>
      </trkpt>
      <trkpt lat="47.46396" lon="5.37091">
        <ele>209.80000305176</ele>
        <time>2017-07-18T09:48:26Z</time>
      </trkpt>
      <trkpt lat="47.46433" lon="5.37096">
        <ele>209.60000610352</ele>
        <time>2017-07-18T09:48:32Z</time>
      </trkpt>
      <trkpt lat="47.46474" lon="5.37113">
        <ele>209.39999389648</ele>
        <time>2017-07-18T09:48:39Z</time>
      </trkpt>
      <trkpt lat="47.46515" lon="5.37138">
        <ele>209.39999389648</ele>
        <time>2017-07-18T09:48:46Z</time>
      </trkpt>
      <trkpt lat="47.46566" lon="5.37173">
        <ele>209.39999389648</ele>
        <time>2017-07-18T09:48:55Z</time>
      </trkpt>
      <trkpt lat="47.46603" lon="5.37198">
        <ele>209.60000610352</ele>
        <time>2017-07-18T09:49:02Z</time>
      </trkpt>
      <trkpt lat="47.46614" lon="5.37206">
        <ele>209.60000610352</ele>
        <time>2017-07-18T09:49:04Z</time>
      </trkpt>
      <trkpt lat="47.46637" lon="5.37222">
        <ele>209.60000610352</ele>
        <time>2017-07-18T09:49:08Z</time>
      </trkpt>
      <trkpt lat="47.4668" lon="5.37247">
        <ele>209.60000610352</ele>
        <time>2017-07-18T09:49:15Z</time>
      </trkpt>
      <trkpt lat="47.46716" lon="5.37263">
        <ele>209.60000610352</ele>
        <time>2017-07-18T09:49:21Z</time>
      </trkpt>
      <trkpt lat="47.46755" lon="5.37275">
        <ele>210</ele>
        <time>2017-07-18T09:49:28Z</time>
      </trkpt>
      <trkpt lat="47.46801" lon="5.37283">
        <ele>211.19999694824</ele>
        <time>2017-07-18T09:49:37Z</time>
      </trkpt>
      <trkpt lat="47.46807" lon="5.37283">
        <ele>211.39999389648</ele>
        <time>2017-07-18T09:49:38Z</time>
      </trkpt>
      <trkpt lat="47.46822" lon="5.37284">
        <ele>212</ele>
        <time>2017-07-18T09:49:41Z</time>
      </trkpt>
      <trkpt lat="47.4683" lon="5.37282">
        <ele>212.19999694824</ele>
        <time>2017-07-18T09:49:43Z</time>
      </trkpt>
      <trkpt lat="47.46838" lon="5.3728">
        <ele>212.39999389648</ele>
        <time>2017-07-18T09:49:45Z</time>
      </trkpt>
      <trkpt lat="47.46858" lon="5.37277">
        <ele>212.80000305176</ele>
        <time>2017-07-18T09:49:49Z</time>
      </trkpt>
      <trkpt lat="47.46893" lon="5.37283">
        <ele>212.19999694824</ele>
        <time>2017-07-18T09:49:55Z</time>
      </trkpt>
      <trkpt lat="47.46945" lon="5.37288">
        <ele>212.60000610352</ele>
        <time>2017-07-18T09:50:04Z</time>
      </trkpt>
      <trkpt lat="47.46979" lon="5.3729">
        <ele>213</ele>
        <time>2017-07-18T09:50:10Z</time>
      </trkpt>
      <trkpt lat="47.46984" lon="5.37291">
        <ele>213.19999694824</ele>
        <time>2017-07-18T09:50:11Z</time>
      </trkpt>
      <trkpt lat="47.47012" lon="5.37293">
        <ele>213.60000610352</ele>
        <time>2017-07-18T09:50:16Z</time>
      </trkpt>
      <trkpt lat="47.47018" lon="5.37294">
        <ele>213.60000610352</ele>
        <time>2017-07-18T09:50:17Z</time>
      </trkpt>
      <trkpt lat="47.47023" lon="5.37295">
        <ele>213.80000305176</ele>
        <time>2017-07-18T09:50:18Z</time>
      </trkpt>
      <trkpt lat="47.47045" lon="5.37297">
        <ele>214</ele>
        <time>2017-07-18T09:50:22Z</time>
      </trkpt>
      <trkpt lat="47.47097" lon="5.37302">
        <ele>214</ele>
        <time>2017-07-18T09:50:31Z</time>
      </trkpt>
      <trkpt lat="47.47139" lon="5.37307">
        <ele>213</ele>
        <time>2017-07-18T09:50:38Z</time>
      </trkpt>
      <trkpt lat="47.47151" lon="5.37311">
        <ele>212.60000610352</ele>
        <time>2017-07-18T09:50:40Z</time>
      </trkpt>
      <trkpt lat="47.47177" lon="5.37315">
        <ele>212.39999389648</ele>
        <time>2017-07-18T09:50:44Z</time>
      </trkpt>
      <trkpt lat="47.4722" lon="5.37321">
        <ele>212.19999694824</ele>
        <time>2017-07-18T09:50:51Z</time>
      </trkpt>
      <trkpt lat="47.47262" lon="5.37324">
        <ele>212.39999389648</ele>
        <time>2017-07-18T09:50:58Z</time>
      </trkpt>
      <trkpt lat="47.47312" lon="5.37328">
        <ele>212.39999389648</ele>
        <time>2017-07-18T09:51:06Z</time>
      </trkpt>
      <trkpt lat="47.47364" lon="5.37333">
        <ele>212.60000610352</ele>
        <time>2017-07-18T09:51:14Z</time>
      </trkpt>
      <trkpt lat="47.474" lon="5.37337">
        <ele>212.60000610352</ele>
        <time>2017-07-18T09:51:20Z</time>
      </trkpt>
      <trkpt lat="47.4745" lon="5.37344">
        <ele>212.60000610352</ele>
        <time>2017-07-18T09:51:28Z</time>
      </trkpt>
      <trkpt lat="47.47496" lon="5.37359">
        <ele>212.39999389648</ele>
        <time>2017-07-18T09:51:35Z</time>
      </trkpt>
      <trkpt lat="47.47541" lon="5.37387">
        <ele>212.19999694824</ele>
        <time>2017-07-18T09:51:42Z</time>
      </trkpt>
      <trkpt lat="47.47579" lon="5.37423">
        <ele>212.39999389648</ele>
        <time>2017-07-18T09:51:49Z</time>
      </trkpt>
      <trkpt lat="47.47613" lon="5.37469">
        <ele>212.60000610352</ele>
        <time>2017-07-18T09:51:56Z</time>
      </trkpt>
      <trkpt lat="47.47643" lon="5.3753">
        <ele>212.80000305176</ele>
        <time>2017-07-18T09:52:04Z</time>
      </trkpt>
      <trkpt lat="47.47662" lon="5.37581">
        <ele>212.60000610352</ele>
        <time>2017-07-18T09:52:10Z</time>
      </trkpt>
      <trkpt lat="47.47688" lon="5.37656">
        <ele>212.80000305176</ele>
        <time>2017-07-18T09:52:19Z</time>
      </trkpt>
      <trkpt lat="47.47691" lon="5.37665">
        <ele>212.80000305176</ele>
        <time>2017-07-18T09:52:20Z</time>
      </trkpt>
      <trkpt lat="47.47713" lon="5.37731">
        <ele>212.60000610352</ele>
        <time>2017-07-18T09:52:28Z</time>
      </trkpt>
      <trkpt lat="47.4773" lon="5.3778">
        <ele>212.39999389648</ele>
        <time>2017-07-18T09:52:34Z</time>
      </trkpt>
      <trkpt lat="47.47755" lon="5.37854">
        <ele>212.60000610352</ele>
        <time>2017-07-18T09:52:43Z</time>
      </trkpt>
      <trkpt lat="47.4778" lon="5.37926">
        <ele>212.39999389648</ele>
        <time>2017-07-18T09:52:52Z</time>
      </trkpt>
      <trkpt lat="47.47798" lon="5.37977">
        <ele>212.39999389648</ele>
        <time>2017-07-18T09:52:59Z</time>
      </trkpt>
      <trkpt lat="47.47814" lon="5.38023">
        <ele>212.19999694824</ele>
        <time>2017-07-18T09:53:05Z</time>
      </trkpt>
      <trkpt lat="47.47834" lon="5.3808">
        <ele>212.39999389648</ele>
        <time>2017-07-18T09:53:12Z</time>
      </trkpt>
      <trkpt lat="47.47859" lon="5.38154">
        <ele>212.60000610352</ele>
        <time>2017-07-18T09:53:21Z</time>
      </trkpt>
      <trkpt lat="47.47886" lon="5.38216">
        <ele>212.80000305176</ele>
        <time>2017-07-18T09:53:29Z</time>
      </trkpt>
      <trkpt lat="47.4791" lon="5.38255">
        <ele>212.80000305176</ele>
        <time>2017-07-18T09:53:35Z</time>
      </trkpt>
      <trkpt lat="47.47941" lon="5.38294">
        <ele>212.80000305176</ele>
        <time>2017-07-18T09:53:42Z</time>
      </trkpt>
      <trkpt lat="47.47981" lon="5.38328">
        <ele>213</ele>
        <time>2017-07-18T09:53:50Z</time>
      </trkpt>
      <trkpt lat="47.48009" lon="5.38345">
        <ele>212.80000305176</ele>
        <time>2017-07-18T09:53:55Z</time>
      </trkpt>
      <trkpt lat="47.48015" lon="5.38348">
        <ele>212.80000305176</ele>
        <time>2017-07-18T09:53:56Z</time>
      </trkpt>
      <trkpt lat="47.4802" lon="5.38352">
        <ele>212.80000305176</ele>
        <time>2017-07-18T09:53:57Z</time>
      </trkpt>
      <trkpt lat="47.48035" lon="5.38365">
        <ele>212.80000305176</ele>
        <time>2017-07-18T09:54:00Z</time>
      </trkpt>
      <trkpt lat="47.4807" lon="5.38391">
        <ele>213.60000610352</ele>
        <time>2017-07-18T09:54:07Z</time>
      </trkpt>
      <trkpt lat="47.48113" lon="5.3842">
        <ele>213.60000610352</ele>
        <time>2017-07-18T09:54:15Z</time>
      </trkpt>
      <trkpt lat="47.48148" lon="5.38444">
        <ele>213.19999694824</ele>
        <time>2017-07-18T09:54:21Z</time>
      </trkpt>
      <trkpt lat="47.48153" lon="5.38447">
        <ele>213.19999694824</ele>
        <time>2017-07-18T09:54:22Z</time>
      </trkpt>
      <trkpt lat="47.48198" lon="5.38478">
        <ele>213.19999694824</ele>
        <time>2017-07-18T09:54:30Z</time>
      </trkpt>
      <trkpt lat="47.48235" lon="5.38505">
        <ele>213.60000610352</ele>
        <time>2017-07-18T09:54:37Z</time>
      </trkpt>
      <trkpt lat="47.48279" lon="5.38534">
        <ele>213.39999389648</ele>
        <time>2017-07-18T09:54:45Z</time>
      </trkpt>
      <trkpt lat="47.48323" lon="5.38563">
        <ele>213</ele>
        <time>2017-07-18T09:54:54Z</time>
      </trkpt>
      <trkpt lat="47.48344" lon="5.38578">
        <ele>213.19999694824</ele>
        <time>2017-07-18T09:54:58Z</time>
      </trkpt>
      <trkpt lat="47.48349" lon="5.38581">
        <ele>213.19999694824</ele>
        <time>2017-07-18T09:54:59Z</time>
      </trkpt>
      <trkpt lat="47.48393" lon="5.3861">
        <ele>213.60000610352</ele>
        <time>2017-07-18T09:55:07Z</time>
      </trkpt>
      <trkpt lat="47.48446" lon="5.38646">
        <ele>213.39999389648</ele>
        <time>2017-07-18T09:55:16Z</time>
      </trkpt>
      <trkpt lat="47.48485" lon="5.38673">
        <ele>213.39999389648</ele>
        <time>2017-07-18T09:55:23Z</time>
      </trkpt>
      <trkpt lat="47.48531" lon="5.38703">
        <ele>213.39999389648</ele>
        <time>2017-07-18T09:55:31Z</time>
      </trkpt>
      <trkpt lat="47.48565" lon="5.38726">
        <ele>213.60000610352</ele>
        <time>2017-07-18T09:55:37Z</time>
      </trkpt>
      <trkpt lat="47.48609" lon="5.38754">
        <ele>213.60000610352</ele>
        <time>2017-07-18T09:55:45Z</time>
      </trkpt>
      <trkpt lat="47.48626" lon="5.38764">
        <ele>213.39999389648</ele>
        <time>2017-07-18T09:55:48Z</time>
      </trkpt>
      <trkpt lat="47.48644" lon="5.38771">
        <ele>213.39999389648</ele>
        <time>2017-07-18T09:55:51Z</time>
      </trkpt>
      <trkpt lat="47.48655" lon="5.38776">
        <ele>213.39999389648</ele>
        <time>2017-07-18T09:55:53Z</time>
      </trkpt>
      <trkpt lat="47.48673" lon="5.38779">
        <ele>213.39999389648</ele>
        <time>2017-07-18T09:55:56Z</time>
      </trkpt>
      <trkpt lat="47.4871" lon="5.38786">
        <ele>213.80000305176</ele>
        <time>2017-07-18T09:56:03Z</time>
      </trkpt>
      <trkpt lat="47.48727" lon="5.38789">
        <ele>214.60000610352</ele>
        <time>2017-07-18T09:56:07Z</time>
      </trkpt>
      <trkpt lat="47.48731" lon="5.38789">
        <ele>214.80000305176</ele>
        <time>2017-07-18T09:56:08Z</time>
      </trkpt>
      <trkpt lat="47.48735" lon="5.38788">
        <ele>215.19999694824</ele>
        <time>2017-07-18T09:56:09Z</time>
      </trkpt>
      <trkpt lat="47.48753" lon="5.38784">
        <ele>215.60000610352</ele>
        <time>2017-07-18T09:56:13Z</time>
      </trkpt>
      <trkpt lat="47.4878" lon="5.38792">
        <ele>215</ele>
        <time>2017-07-18T09:56:18Z</time>
      </trkpt>
      <trkpt lat="47.48813" lon="5.38799">
        <ele>215.19999694824</ele>
        <time>2017-07-18T09:56:24Z</time>
      </trkpt>
      <trkpt lat="47.48848" lon="5.38805">
        <ele>215.39999389648</ele>
        <time>2017-07-18T09:56:30Z</time>
      </trkpt>
      <trkpt lat="47.48896" lon="5.38815">
        <ele>215.60000610352</ele>
        <time>2017-07-18T09:56:38Z</time>
      </trkpt>
      <trkpt lat="47.48908" lon="5.38816">
        <ele>215.60000610352</ele>
        <time>2017-07-18T09:56:40Z</time>
      </trkpt>
      <trkpt lat="47.48938" lon="5.38822">
        <ele>215.60000610352</ele>
        <time>2017-07-18T09:56:45Z</time>
      </trkpt>
      <trkpt lat="47.48979" lon="5.38829">
        <ele>215.39999389648</ele>
        <time>2017-07-18T09:56:52Z</time>
      </trkpt>
      <trkpt lat="47.49025" lon="5.38836">
        <ele>215.60000610352</ele>
        <time>2017-07-18T09:56:59Z</time>
      </trkpt>
      <trkpt lat="47.49052" lon="5.38841">
        <ele>215.60000610352</ele>
        <time>2017-07-18T09:57:03Z</time>
      </trkpt>
      <trkpt lat="47.49073" lon="5.38845">
        <ele>215.39999389648</ele>
        <time>2017-07-18T09:57:06Z</time>
      </trkpt>
      <trkpt lat="47.49093" lon="5.38848">
        <ele>215.60000610352</ele>
        <time>2017-07-18T09:57:09Z</time>
      </trkpt>
      <trkpt lat="47.49112" lon="5.3885">
        <ele>215.60000610352</ele>
        <time>2017-07-18T09:57:12Z</time>
      </trkpt>
      <trkpt lat="47.4914" lon="5.38855">
        <ele>215.80000305176</ele>
        <time>2017-07-18T09:57:16Z</time>
      </trkpt>
      <trkpt lat="47.49179" lon="5.38863">
        <ele>216</ele>
        <time>2017-07-18T09:57:22Z</time>
      </trkpt>
      <trkpt lat="47.49219" lon="5.3887">
        <ele>215.80000305176</ele>
        <time>2017-07-18T09:57:28Z</time>
      </trkpt>
      <trkpt lat="47.49258" lon="5.38878">
        <ele>215.80000305176</ele>
        <time>2017-07-18T09:57:34Z</time>
      </trkpt>
      <trkpt lat="47.49307" lon="5.38886">
        <ele>215.80000305176</ele>
        <time>2017-07-18T09:57:42Z</time>
      </trkpt>
      <trkpt lat="47.49345" lon="5.38893">
        <ele>215.80000305176</ele>
        <time>2017-07-18T09:57:48Z</time>
      </trkpt>
      <trkpt lat="47.49403" lon="5.38903">
        <ele>215.60000610352</ele>
        <time>2017-07-18T09:57:56Z</time>
      </trkpt>
      <trkpt lat="47.49459" lon="5.38912">
        <ele>215.60000610352</ele>
        <time>2017-07-18T09:58:03Z</time>
      </trkpt>
      <trkpt lat="47.49509" lon="5.38921">
        <ele>215.60000610352</ele>
        <time>2017-07-18T09:58:10Z</time>
      </trkpt>
      <trkpt lat="47.4955" lon="5.38928">
        <ele>215.80000305176</ele>
        <time>2017-07-18T09:58:16Z</time>
      </trkpt>
      <trkpt lat="47.49607" lon="5.38937">
        <ele>216</ele>
        <time>2017-07-18T09:58:24Z</time>
      </trkpt>
      <trkpt lat="47.49665" lon="5.38946">
        <ele>215.80000305176</ele>
        <time>2017-07-18T09:58:32Z</time>
      </trkpt>
      <trkpt lat="47.49721" lon="5.38955">
        <ele>215.80000305176</ele>
        <time>2017-07-18T09:58:40Z</time>
      </trkpt>
      <trkpt lat="47.4978" lon="5.38965">
        <ele>215.80000305176</ele>
        <time>2017-07-18T09:58:48Z</time>
      </trkpt>
      <trkpt lat="47.49839" lon="5.38974">
        <ele>215.80000305176</ele>
        <time>2017-07-18T09:58:56Z</time>
      </trkpt>
      <trkpt lat="47.49889" lon="5.38983">
        <ele>215.80000305176</ele>
        <time>2017-07-18T09:59:03Z</time>
      </trkpt>
      <trkpt lat="47.49909" lon="5.38987">
        <ele>216</ele>
        <time>2017-07-18T09:59:06Z</time>
      </trkpt>
      <trkpt lat="47.49938" lon="5.38994">
        <ele>216</ele>
        <time>2017-07-18T09:59:10Z</time>
      </trkpt>
      <trkpt lat="47.4999" lon="5.3901">
        <ele>216</ele>
        <time>2017-07-18T09:59:17Z</time>
      </trkpt>
      <trkpt lat="47.49997" lon="5.39014">
        <ele>216</ele>
        <time>2017-07-18T09:59:18Z</time>
      </trkpt>
      <trkpt lat="47.50023" lon="5.39036">
        <ele>215.80000305176</ele>
        <time>2017-07-18T09:59:22Z</time>
      </trkpt>
      <trkpt lat="47.50067" lon="5.39074">
        <ele>215.80000305176</ele>
        <time>2017-07-18T09:59:29Z</time>
      </trkpt>
      <trkpt lat="47.50115" lon="5.39121">
        <ele>216.19999694824</ele>
        <time>2017-07-18T09:59:37Z</time>
      </trkpt>
      <trkpt lat="47.5012" lon="5.39127">
        <ele>216.19999694824</ele>
        <time>2017-07-18T09:59:38Z</time>
      </trkpt>
      <trkpt lat="47.5016" lon="5.39167">
        <ele>216.19999694824</ele>
        <time>2017-07-18T09:59:45Z</time>
      </trkpt>
      <trkpt lat="47.50198" lon="5.39203">
        <ele>216.39999389648</ele>
        <time>2017-07-18T09:59:52Z</time>
      </trkpt>
      <trkpt lat="47.50242" lon="5.39237">
        <ele>216.60000610352</ele>
        <time>2017-07-18T09:59:59Z</time>
      </trkpt>
      <trkpt lat="47.50261" lon="5.39251">
        <ele>216.60000610352</ele>
        <time>2017-07-18T10:00:02Z</time>
      </trkpt>
      <trkpt lat="47.5028" lon="5.39264">
        <ele>216.80000305176</ele>
        <time>2017-07-18T10:00:05Z</time>
      </trkpt>
      <trkpt lat="47.50324" lon="5.3929">
        <ele>217</ele>
        <time>2017-07-18T10:00:12Z</time>
      </trkpt>
      <trkpt lat="47.50377" lon="5.39315">
        <ele>217</ele>
        <time>2017-07-18T10:00:20Z</time>
      </trkpt>
      <trkpt lat="47.50421" lon="5.39335">
        <ele>217</ele>
        <time>2017-07-18T10:00:27Z</time>
      </trkpt>
      <trkpt lat="47.50454" lon="5.39348">
        <ele>217</ele>
        <time>2017-07-18T10:00:32Z</time>
      </trkpt>
      <trkpt lat="47.5046" lon="5.3935">
        <ele>217</ele>
        <time>2017-07-18T10:00:33Z</time>
      </trkpt>
      <trkpt lat="47.50507" lon="5.39364">
        <ele>217.19999694824</ele>
        <time>2017-07-18T10:00:40Z</time>
      </trkpt>
      <trkpt lat="47.50514" lon="5.39365">
        <ele>217.19999694824</ele>
        <time>2017-07-18T10:00:41Z</time>
      </trkpt>
      <trkpt lat="47.50563" lon="5.39373">
        <ele>217.60000610352</ele>
        <time>2017-07-18T10:00:48Z</time>
      </trkpt>
      <trkpt lat="47.50618" lon="5.39377">
        <ele>217.60000610352</ele>
        <time>2017-07-18T10:00:56Z</time>
      </trkpt>
      <trkpt lat="47.50675" lon="5.39382">
        <ele>217.60000610352</ele>
        <time>2017-07-18T10:01:05Z</time>
      </trkpt>
      <trkpt lat="47.50701" lon="5.39383">
        <ele>217.60000610352</ele>
        <time>2017-07-18T10:01:11Z</time>
      </trkpt>
      <trkpt lat="47.50704" lon="5.39383">
        <ele>217.80000305176</ele>
        <time>2017-07-18T10:01:12Z</time>
      </trkpt>
      <trkpt lat="47.50713" lon="5.39382">
        <ele>218.39999389648</ele>
        <time>2017-07-18T10:01:16Z</time>
      </trkpt>
      <trkpt lat="47.50719" lon="5.39379">
        <ele>218.80000305176</ele>
        <time>2017-07-18T10:01:19Z</time>
      </trkpt>
      <trkpt lat="47.50726" lon="5.39376">
        <ele>219</ele>
        <time>2017-07-18T10:01:21Z</time>
      </trkpt>
      <trkpt lat="47.50745" lon="5.39379">
        <ele>218.60000610352</ele>
        <time>2017-07-18T10:01:26Z</time>
      </trkpt>
      <trkpt lat="47.50763" lon="5.39384">
        <ele>218.39999389648</ele>
        <time>2017-07-18T10:01:31Z</time>
      </trkpt>
      <trkpt lat="47.50781" lon="5.39386">
        <ele>218.60000610352</ele>
        <time>2017-07-18T10:01:35Z</time>
      </trkpt>
      <trkpt lat="47.50792" lon="5.39388">
        <ele>218.80000305176</ele>
        <time>2017-07-18T10:01:37Z</time>
      </trkpt>
      <trkpt lat="47.50832" lon="5.39395">
        <ele>219</ele>
        <time>2017-07-18T10:01:44Z</time>
      </trkpt>
      <trkpt lat="47.50874" lon="5.39409">
        <ele>219.19999694824</ele>
        <time>2017-07-18T10:01:51Z</time>
      </trkpt>
      <trkpt lat="47.5092" lon="5.39432">
        <ele>219.19999694824</ele>
        <time>2017-07-18T10:01:59Z</time>
      </trkpt>
      <trkpt lat="47.50954" lon="5.39455">
        <ele>219.39999389648</ele>
        <time>2017-07-18T10:02:05Z</time>
      </trkpt>
      <trkpt lat="47.5096" lon="5.39458">
        <ele>219.39999389648</ele>
        <time>2017-07-18T10:02:06Z</time>
      </trkpt>
      <trkpt lat="47.50994" lon="5.39479">
        <ele>219.39999389648</ele>
        <time>2017-07-18T10:02:12Z</time>
      </trkpt>
      <trkpt lat="47.5104" lon="5.3951">
        <ele>219.60000610352</ele>
        <time>2017-07-18T10:02:20Z</time>
      </trkpt>
      <trkpt lat="47.51077" lon="5.39534">
        <ele>219.39999389648</ele>
        <time>2017-07-18T10:02:26Z</time>
      </trkpt>
      <trkpt lat="47.51127" lon="5.39566">
        <ele>219.39999389648</ele>
        <time>2017-07-18T10:02:34Z</time>
      </trkpt>
      <trkpt lat="47.51175" lon="5.39596">
        <ele>219.60000610352</ele>
        <time>2017-07-18T10:02:42Z</time>
      </trkpt>
      <trkpt lat="47.51216" lon="5.39622">
        <ele>219.39999389648</ele>
        <time>2017-07-18T10:02:49Z</time>
      </trkpt>
      <trkpt lat="47.51233" lon="5.39634">
        <ele>219.39999389648</ele>
        <time>2017-07-18T10:02:52Z</time>
      </trkpt>
      <trkpt lat="47.51257" lon="5.39649">
        <ele>219.39999389648</ele>
        <time>2017-07-18T10:02:56Z</time>
      </trkpt>
      <trkpt lat="47.51299" lon="5.39676">
        <ele>219.39999389648</ele>
        <time>2017-07-18T10:03:03Z</time>
      </trkpt>
      <trkpt lat="47.51347" lon="5.39708">
        <ele>219.19999694824</ele>
        <time>2017-07-18T10:03:11Z</time>
      </trkpt>
      <trkpt lat="47.51388" lon="5.39734">
        <ele>219.19999694824</ele>
        <time>2017-07-18T10:03:18Z</time>
      </trkpt>
      <trkpt lat="47.51433" lon="5.39761">
        <ele>219.19999694824</ele>
        <time>2017-07-18T10:03:26Z</time>
      </trkpt>
      <trkpt lat="47.51468" lon="5.39786">
        <ele>219.39999389648</ele>
        <time>2017-07-18T10:03:32Z</time>
      </trkpt>
      <trkpt lat="47.51513" lon="5.39818">
        <ele>219.39999389648</ele>
        <time>2017-07-18T10:03:39Z</time>
      </trkpt>
      <trkpt lat="47.51564" lon="5.39859">
        <ele>219.39999389648</ele>
        <time>2017-07-18T10:03:47Z</time>
      </trkpt>
      <trkpt lat="47.5157" lon="5.39864">
        <ele>219.39999389648</ele>
        <time>2017-07-18T10:03:48Z</time>
      </trkpt>
      <trkpt lat="47.5161" lon="5.39904">
        <ele>219.39999389648</ele>
        <time>2017-07-18T10:03:55Z</time>
      </trkpt>
      <trkpt lat="47.51657" lon="5.39957">
        <ele>219.60000610352</ele>
        <time>2017-07-18T10:04:04Z</time>
      </trkpt>
      <trkpt lat="47.51693" lon="5.39998">
        <ele>219.60000610352</ele>
        <time>2017-07-18T10:04:11Z</time>
      </trkpt>
      <trkpt lat="47.51708" lon="5.40014">
        <ele>219.80000305176</ele>
        <time>2017-07-18T10:04:14Z</time>
      </trkpt>
      <trkpt lat="47.51726" lon="5.40034">
        <ele>220.19999694824</ele>
        <time>2017-07-18T10:04:18Z</time>
      </trkpt>
      <trkpt lat="47.51753" lon="5.40063">
        <ele>221</ele>
        <time>2017-07-18T10:04:24Z</time>
      </trkpt>
      <trkpt lat="47.51758" lon="5.40067">
        <ele>221.19999694824</ele>
        <time>2017-07-18T10:04:25Z</time>
      </trkpt>
      <trkpt lat="47.51767" lon="5.40076">
        <ele>221.60000610352</ele>
        <time>2017-07-18T10:04:27Z</time>
      </trkpt>
      <trkpt lat="47.51786" lon="5.40095">
        <ele>222</ele>
        <time>2017-07-18T10:04:31Z</time>
      </trkpt>
      <trkpt lat="47.51798" lon="5.40113">
        <ele>222</ele>
        <time>2017-07-18T10:04:34Z</time>
      </trkpt>
      <trkpt lat="47.51803" lon="5.40118">
        <ele>222</ele>
        <time>2017-07-18T10:04:35Z</time>
      </trkpt>
      <trkpt lat="47.51812" lon="5.40129">
        <ele>222.19999694824</ele>
        <time>2017-07-18T10:04:37Z</time>
      </trkpt>
      <trkpt lat="47.51827" lon="5.40144">
        <ele>222.19999694824</ele>
        <time>2017-07-18T10:04:40Z</time>
      </trkpt>
      <trkpt lat="47.5186" lon="5.40184">
        <ele>222.39999389648</ele>
        <time>2017-07-18T10:04:47Z</time>
      </trkpt>
      <trkpt lat="47.51889" lon="5.40221">
        <ele>222.39999389648</ele>
        <time>2017-07-18T10:04:53Z</time>
      </trkpt>
      <trkpt lat="47.51915" lon="5.40263">
        <ele>222.39999389648</ele>
        <time>2017-07-18T10:04:59Z</time>
      </trkpt>
      <trkpt lat="47.51945" lon="5.40325">
        <ele>222.39999389648</ele>
        <time>2017-07-18T10:05:07Z</time>
      </trkpt>
      <trkpt lat="47.51968" lon="5.4039">
        <ele>222.80000305176</ele>
        <time>2017-07-18T10:05:15Z</time>
      </trkpt>
      <trkpt lat="47.51984" lon="5.40451">
        <ele>222.80000305176</ele>
        <time>2017-07-18T10:05:22Z</time>
      </trkpt>
      <trkpt lat="47.51999" lon="5.40504">
        <ele>222.60000610352</ele>
        <time>2017-07-18T10:05:28Z</time>
      </trkpt>
      <trkpt lat="47.52019" lon="5.40576">
        <ele>222.60000610352</ele>
        <time>2017-07-18T10:05:36Z</time>
      </trkpt>
      <trkpt lat="47.52046" lon="5.40643">
        <ele>222.60000610352</ele>
        <time>2017-07-18T10:05:44Z</time>
      </trkpt>
      <trkpt lat="47.52053" lon="5.40659">
        <ele>222.60000610352</ele>
        <time>2017-07-18T10:05:46Z</time>
      </trkpt>
      <trkpt lat="47.52081" lon="5.40714">
        <ele>222.39999389648</ele>
        <time>2017-07-18T10:05:53Z</time>
      </trkpt>
      <trkpt lat="47.52086" lon="5.40721">
        <ele>222.39999389648</ele>
        <time>2017-07-18T10:05:54Z</time>
      </trkpt>
      <trkpt lat="47.52103" lon="5.40749">
        <ele>222.60000610352</ele>
        <time>2017-07-18T10:05:58Z</time>
      </trkpt>
      <trkpt lat="47.52107" lon="5.40756">
        <ele>222.60000610352</ele>
        <time>2017-07-18T10:05:59Z</time>
      </trkpt>
      <trkpt lat="47.52127" lon="5.40781">
        <ele>222.80000305176</ele>
        <time>2017-07-18T10:06:03Z</time>
      </trkpt>
      <trkpt lat="47.52168" lon="5.40828">
        <ele>222.60000610352</ele>
        <time>2017-07-18T10:06:11Z</time>
      </trkpt>
      <trkpt lat="47.5221" lon="5.40868">
        <ele>222.60000610352</ele>
        <time>2017-07-18T10:06:19Z</time>
      </trkpt>
      <trkpt lat="47.52242" lon="5.40896">
        <ele>223</ele>
        <time>2017-07-18T10:06:26Z</time>
      </trkpt>
      <trkpt lat="47.52268" lon="5.40919">
        <ele>224.19999694824</ele>
        <time>2017-07-18T10:06:33Z</time>
      </trkpt>
      <trkpt lat="47.52292" lon="5.4094">
        <ele>225.19999694824</ele>
        <time>2017-07-18T10:06:39Z</time>
      </trkpt>
      <trkpt lat="47.52297" lon="5.40944">
        <ele>225.19999694824</ele>
        <time>2017-07-18T10:06:40Z</time>
      </trkpt>
      <trkpt lat="47.52329" lon="5.40973">
        <ele>225.39999389648</ele>
        <time>2017-07-18T10:06:47Z</time>
      </trkpt>
      <trkpt lat="47.52368" lon="5.41011">
        <ele>225.60000610352</ele>
        <time>2017-07-18T10:06:55Z</time>
      </trkpt>
      <trkpt lat="47.52414" lon="5.41055">
        <ele>225.60000610352</ele>
        <time>2017-07-18T10:07:04Z</time>
      </trkpt>
      <trkpt lat="47.52463" lon="5.411">
        <ele>226</ele>
        <time>2017-07-18T10:07:13Z</time>
      </trkpt>
      <trkpt lat="47.52509" lon="5.41146">
        <ele>225.80000305176</ele>
        <time>2017-07-18T10:07:22Z</time>
      </trkpt>
      <trkpt lat="47.52548" lon="5.4118">
        <ele>225.80000305176</ele>
        <time>2017-07-18T10:07:29Z</time>
      </trkpt>
      <trkpt lat="47.5259" lon="5.4122">
        <ele>226</ele>
        <time>2017-07-18T10:07:37Z</time>
      </trkpt>
      <trkpt lat="47.52627" lon="5.41255">
        <ele>226.19999694824</ele>
        <time>2017-07-18T10:07:44Z</time>
      </trkpt>
      <trkpt lat="47.52676" lon="5.41299">
        <ele>226</ele>
        <time>2017-07-18T10:07:53Z</time>
      </trkpt>
      <trkpt lat="47.52711" lon="5.41331">
        <ele>226.19999694824</ele>
        <time>2017-07-18T10:08:00Z</time>
      </trkpt>
      <trkpt lat="47.52731" lon="5.41352">
        <ele>227.19999694824</ele>
        <time>2017-07-18T10:08:06Z</time>
      </trkpt>
      <trkpt lat="47.52735" lon="5.41355">
        <ele>227.39999389648</ele>
        <time>2017-07-18T10:08:07Z</time>
      </trkpt>
      <trkpt lat="47.52753" lon="5.41371">
        <ele>228.39999389648</ele>
        <time>2017-07-18T10:08:12Z</time>
      </trkpt>
      <trkpt lat="47.52755" lon="5.41372">
        <ele>228.39999389648</ele>
        <time>2017-07-18T10:08:13Z</time>
      </trkpt>
      <trkpt lat="47.52759" lon="5.41376">
        <ele>229.39999389648</ele>
        <time>2017-07-18T10:08:27Z</time>
      </trkpt>
      <trkpt lat="47.52762" lon="5.41378">
        <ele>229.39999389648</ele>
        <time>2017-07-18T10:08:29Z</time>
      </trkpt>
      <trkpt lat="47.52776" lon="5.41383">
        <ele>229.39999389648</ele>
        <time>2017-07-18T10:08:33Z</time>
      </trkpt>
      <trkpt lat="47.5278" lon="5.41386">
        <ele>229.39999389648</ele>
        <time>2017-07-18T10:08:34Z</time>
      </trkpt>
      <trkpt lat="47.52793" lon="5.41399">
        <ele>229</ele>
        <time>2017-07-18T10:08:37Z</time>
      </trkpt>
      <trkpt lat="47.52801" lon="5.4141">
        <ele>228.80000305176</ele>
        <time>2017-07-18T10:08:39Z</time>
      </trkpt>
      <trkpt lat="47.52805" lon="5.41415">
        <ele>228.80000305176</ele>
        <time>2017-07-18T10:08:40Z</time>
      </trkpt>
      <trkpt lat="47.52814" lon="5.41424">
        <ele>228.80000305176</ele>
        <time>2017-07-18T10:08:42Z</time>
      </trkpt>
      <trkpt lat="47.52845" lon="5.41456">
        <ele>229.39999389648</ele>
        <time>2017-07-18T10:08:49Z</time>
      </trkpt>
      <trkpt lat="47.52879" lon="5.41487">
        <ele>229.60000610352</ele>
        <time>2017-07-18T10:08:56Z</time>
      </trkpt>
      <trkpt lat="47.52928" lon="5.41523">
        <ele>229.60000610352</ele>
        <time>2017-07-18T10:09:05Z</time>
      </trkpt>
      <trkpt lat="47.52972" lon="5.41551">
        <ele>229.60000610352</ele>
        <time>2017-07-18T10:09:13Z</time>
      </trkpt>
      <trkpt lat="47.53016" lon="5.41577">
        <ele>229.60000610352</ele>
        <time>2017-07-18T10:09:21Z</time>
      </trkpt>
      <trkpt lat="47.53051" lon="5.41598">
        <ele>229.60000610352</ele>
        <time>2017-07-18T10:09:27Z</time>
      </trkpt>
      <trkpt lat="47.53092" lon="5.41623">
        <ele>229.60000610352</ele>
        <time>2017-07-18T10:09:34Z</time>
      </trkpt>
      <trkpt lat="47.53147" lon="5.41657">
        <ele>229.60000610352</ele>
        <time>2017-07-18T10:09:43Z</time>
      </trkpt>
      <trkpt lat="47.53198" lon="5.41688">
        <ele>229.39999389648</ele>
        <time>2017-07-18T10:09:52Z</time>
      </trkpt>
      <trkpt lat="47.53252" lon="5.41726">
        <ele>229.39999389648</ele>
        <time>2017-07-18T10:10:02Z</time>
      </trkpt>
      <trkpt lat="47.53287" lon="5.41759">
        <ele>229.60000610352</ele>
        <time>2017-07-18T10:10:09Z</time>
      </trkpt>
      <trkpt lat="47.53322" lon="5.41799">
        <ele>229.60000610352</ele>
        <time>2017-07-18T10:10:16Z</time>
      </trkpt>
      <trkpt lat="47.53364" lon="5.41853">
        <ele>229.60000610352</ele>
        <time>2017-07-18T10:10:24Z</time>
      </trkpt>
      <trkpt lat="47.53401" lon="5.4191">
        <ele>229.60000610352</ele>
        <time>2017-07-18T10:10:32Z</time>
      </trkpt>
      <trkpt lat="47.53432" lon="5.41959">
        <ele>229.60000610352</ele>
        <time>2017-07-18T10:10:39Z</time>
      </trkpt>
      <trkpt lat="47.5347" lon="5.42015">
        <ele>229.80000305176</ele>
        <time>2017-07-18T10:10:47Z</time>
      </trkpt>
      <trkpt lat="47.53508" lon="5.42081">
        <ele>229.39999389648</ele>
        <time>2017-07-18T10:10:56Z</time>
      </trkpt>
      <trkpt lat="47.53512" lon="5.42088">
        <ele>229.60000610352</ele>
        <time>2017-07-18T10:10:57Z</time>
      </trkpt>
      <trkpt lat="47.53545" lon="5.42139">
        <ele>229.60000610352</ele>
        <time>2017-07-18T10:11:05Z</time>
      </trkpt>
      <trkpt lat="47.5358" lon="5.42193">
        <ele>229.60000610352</ele>
        <time>2017-07-18T10:11:13Z</time>
      </trkpt>
      <trkpt lat="47.53615" lon="5.42237">
        <ele>230.39999389648</ele>
        <time>2017-07-18T10:11:21Z</time>
      </trkpt>
      <trkpt lat="47.53618" lon="5.42242">
        <ele>230.39999389648</ele>
        <time>2017-07-18T10:11:22Z</time>
      </trkpt>
      <trkpt lat="47.5365" lon="5.42273">
        <ele>231</ele>
        <time>2017-07-18T10:11:29Z</time>
      </trkpt>
      <trkpt lat="47.53688" lon="5.42299">
        <ele>231</ele>
        <time>2017-07-18T10:11:36Z</time>
      </trkpt>
      <trkpt lat="47.5373" lon="5.42329">
        <ele>230.19999694824</ele>
        <time>2017-07-18T10:11:44Z</time>
      </trkpt>
      <trkpt lat="47.53779" lon="5.4237">
        <ele>229.60000610352</ele>
        <time>2017-07-18T10:11:53Z</time>
      </trkpt>
      <trkpt lat="47.53819" lon="5.4242">
        <ele>229.80000305176</ele>
        <time>2017-07-18T10:12:01Z</time>
      </trkpt>
      <trkpt lat="47.53856" lon="5.42481">
        <ele>229.80000305176</ele>
        <time>2017-07-18T10:12:10Z</time>
      </trkpt>
      <trkpt lat="47.53883" lon="5.42539">
        <ele>229.80000305176</ele>
        <time>2017-07-18T10:12:18Z</time>
      </trkpt>
      <trkpt lat="47.53903" lon="5.42581">
        <ele>229.60000610352</ele>
        <time>2017-07-18T10:12:24Z</time>
      </trkpt>
      <trkpt lat="47.53905" lon="5.42587">
        <ele>229.60000610352</ele>
        <time>2017-07-18T10:12:25Z</time>
      </trkpt>
      <trkpt lat="47.53921" lon="5.42612">
        <ele>229.39999389648</ele>
        <time>2017-07-18T10:12:31Z</time>
      </trkpt>
      <trkpt lat="47.53933" lon="5.42627">
        <ele>229.19999694824</ele>
        <time>2017-07-18T10:12:35Z</time>
      </trkpt>
      <trkpt lat="47.53935" lon="5.42633">
        <ele>229.19999694824</ele>
        <time>2017-07-18T10:12:36Z</time>
      </trkpt>
      <trkpt lat="47.53942" lon="5.42651">
        <ele>229</ele>
        <time>2017-07-18T10:12:39Z</time>
      </trkpt>
      <trkpt lat="47.5395" lon="5.42666">
        <ele>229</ele>
        <time>2017-07-18T10:12:42Z</time>
      </trkpt>
      <trkpt lat="47.53953" lon="5.42671">
        <ele>229.19999694824</ele>
        <time>2017-07-18T10:12:43Z</time>
      </trkpt>
      <trkpt lat="47.53955" lon="5.42687">
        <ele>229.39999389648</ele>
        <time>2017-07-18T10:12:46Z</time>
      </trkpt>
      <trkpt lat="47.53953" lon="5.42698">
        <ele>229.39999389648</ele>
        <time>2017-07-18T10:12:48Z</time>
      </trkpt>
      <trkpt lat="47.53949" lon="5.4271">
        <ele>229.39999389648</ele>
        <time>2017-07-18T10:12:51Z</time>
      </trkpt>
      <trkpt lat="47.53945" lon="5.42722">
        <ele>229.39999389648</ele>
        <time>2017-07-18T10:12:55Z</time>
      </trkpt>
      <trkpt lat="47.53951" lon="5.42745">
        <ele>229</ele>
        <time>2017-07-18T10:12:59Z</time>
      </trkpt>
      <trkpt lat="47.53952" lon="5.42754">
        <ele>228.80000305176</ele>
        <time>2017-07-18T10:13:00Z</time>
      </trkpt>
      <trkpt lat="47.53956" lon="5.42785">
        <ele>228.39999389648</ele>
        <time>2017-07-18T10:13:03Z</time>
      </trkpt>
      <trkpt lat="47.53958" lon="5.42796">
        <ele>228.19999694824</ele>
        <time>2017-07-18T10:13:04Z</time>
      </trkpt>
      <trkpt lat="47.53965" lon="5.4283">
        <ele>227</ele>
        <time>2017-07-18T10:13:07Z</time>
      </trkpt>
      <trkpt lat="47.53967" lon="5.42841">
        <ele>226.80000305176</ele>
        <time>2017-07-18T10:13:08Z</time>
      </trkpt>
      <trkpt lat="47.5397" lon="5.42862">
        <ele>226</ele>
        <time>2017-07-18T10:13:10Z</time>
      </trkpt>
      <trkpt lat="47.53975" lon="5.42891">
        <ele>225.19999694824</ele>
        <time>2017-07-18T10:13:13Z</time>
      </trkpt>
      <trkpt lat="47.53975" lon="5.429">
        <ele>225</ele>
        <time>2017-07-18T10:13:14Z</time>
      </trkpt>
      <trkpt lat="47.53974" lon="5.42928">
        <ele>225</ele>
        <time>2017-07-18T10:13:17Z</time>
      </trkpt>
      <trkpt lat="47.53977" lon="5.43003">
        <ele>225</ele>
        <time>2017-07-18T10:13:25Z</time>
      </trkpt>
      <trkpt lat="47.5398" lon="5.43039">
        <ele>224.80000305176</ele>
        <time>2017-07-18T10:13:29Z</time>
      </trkpt>
      <trkpt lat="47.5398" lon="5.43048">
        <ele>224.80000305176</ele>
        <time>2017-07-18T10:13:30Z</time>
      </trkpt>
      <trkpt lat="47.53981" lon="5.43073">
        <ele>225</ele>
        <time>2017-07-18T10:13:33Z</time>
      </trkpt>
      <trkpt lat="47.53983" lon="5.4312">
        <ele>225</ele>
        <time>2017-07-18T10:13:39Z</time>
      </trkpt>
      <trkpt lat="47.53979" lon="5.43152">
        <ele>225</ele>
        <time>2017-07-18T10:13:43Z</time>
      </trkpt>
      <trkpt lat="47.53972" lon="5.43201">
        <ele>224.80000305176</ele>
        <time>2017-07-18T10:13:49Z</time>
      </trkpt>
      <trkpt lat="47.53962" lon="5.43254">
        <ele>225</ele>
        <time>2017-07-18T10:13:56Z</time>
      </trkpt>
      <trkpt lat="47.53962" lon="5.43268">
        <ele>225</ele>
        <time>2017-07-18T10:13:58Z</time>
      </trkpt>
      <trkpt lat="47.53966" lon="5.43283">
        <ele>225.19999694824</ele>
        <time>2017-07-18T10:14:01Z</time>
      </trkpt>
      <trkpt lat="47.53977" lon="5.4329">
        <ele>225.19999694824</ele>
        <time>2017-07-18T10:14:04Z</time>
      </trkpt>
      <trkpt lat="47.5398" lon="5.43293">
        <ele>225.19999694824</ele>
        <time>2017-07-18T10:14:05Z</time>
      </trkpt>
      <trkpt lat="47.53992" lon="5.43301">
        <ele>225.39999389648</ele>
        <time>2017-07-18T10:14:09Z</time>
      </trkpt>
      <trkpt lat="47.5401" lon="5.4331">
        <ele>226</ele>
        <time>2017-07-18T10:14:15Z</time>
      </trkpt>
      <trkpt lat="47.54014" lon="5.43316">
        <ele>226</ele>
        <time>2017-07-18T10:14:17Z</time>
      </trkpt>
      <trkpt lat="47.54016" lon="5.43335">
        <ele>226.19999694824</ele>
        <time>2017-07-18T10:14:21Z</time>
      </trkpt>
      <trkpt lat="47.54012" lon="5.43365">
        <ele>226.39999389648</ele>
        <time>2017-07-18T10:14:26Z</time>
      </trkpt>
      <trkpt lat="47.54006" lon="5.43405">
        <ele>226.19999694824</ele>
        <time>2017-07-18T10:14:33Z</time>
      </trkpt>
      <trkpt lat="47.54001" lon="5.43433">
        <ele>226.19999694824</ele>
        <time>2017-07-18T10:14:39Z</time>
      </trkpt>
      <trkpt lat="47.53999" lon="5.43439">
        <ele>226.19999694824</ele>
        <time>2017-07-18T10:14:40Z</time>
      </trkpt>
      <trkpt lat="47.53994" lon="5.43477">
        <ele>226</ele>
        <time>2017-07-18T10:14:45Z</time>
      </trkpt>
      <trkpt lat="47.53985" lon="5.43529">
        <ele>225.39999389648</ele>
        <time>2017-07-18T10:14:51Z</time>
      </trkpt>
      <trkpt lat="47.53981" lon="5.43561">
        <ele>225.60000610352</ele>
        <time>2017-07-18T10:14:56Z</time>
      </trkpt>
      <trkpt lat="47.53979" lon="5.43571">
        <ele>225.80000305176</ele>
        <time>2017-07-18T10:15:00Z</time>
      </trkpt>
      <trkpt lat="47.53982" lon="5.43569">
        <ele>225.60000610352</ele>
        <time>2017-07-18T10:16:02Z</time>
      </trkpt>
      <trkpt lat="47.53982" lon="5.43564">
        <ele>225.80000305176</ele>
        <time>2017-07-18T10:16:03Z</time>
      </trkpt>
      <trkpt lat="47.53983" lon="5.43549">
        <ele>225.80000305176</ele>
        <time>2017-07-18T10:16:06Z</time>
      </trkpt>
      <trkpt lat="47.53984" lon="5.43534">
        <ele>225.80000305176</ele>
        <time>2017-07-18T10:16:08Z</time>
      </trkpt>
      <trkpt lat="47.53986" lon="5.43526">
        <ele>225.80000305176</ele>
        <time>2017-07-18T10:16:09Z</time>
      </trkpt>
      <trkpt lat="47.53993" lon="5.43495">
        <ele>225.60000610352</ele>
        <time>2017-07-18T10:16:12Z</time>
      </trkpt>
      <trkpt lat="47.53993" lon="5.43484">
        <ele>225.39999389648</ele>
        <time>2017-07-18T10:16:13Z</time>
      </trkpt>
      <trkpt lat="47.53994" lon="5.43453">
        <ele>225.19999694824</ele>
        <time>2017-07-18T10:16:16Z</time>
      </trkpt>
      <trkpt lat="47.53996" lon="5.43399">
        <ele>225.80000305176</ele>
        <time>2017-07-18T10:16:22Z</time>
      </trkpt>
      <trkpt lat="47.53996" lon="5.43392">
        <ele>226</ele>
        <time>2017-07-18T10:16:23Z</time>
      </trkpt>
      <trkpt lat="47.54004" lon="5.43361">
        <ele>226.39999389648</ele>
        <time>2017-07-18T10:16:27Z</time>
      </trkpt>
      <trkpt lat="47.54008" lon="5.43303">
        <ele>226.19999694824</ele>
        <time>2017-07-18T10:16:34Z</time>
      </trkpt>
      <trkpt lat="47.53997" lon="5.43287">
        <ele>226.19999694824</ele>
        <time>2017-07-18T10:16:37Z</time>
      </trkpt>
      <trkpt lat="47.53992" lon="5.43284">
        <ele>226.19999694824</ele>
        <time>2017-07-18T10:16:38Z</time>
      </trkpt>
      <trkpt lat="47.53987" lon="5.43279">
        <ele>226.19999694824</ele>
        <time>2017-07-18T10:16:39Z</time>
      </trkpt>
      <trkpt lat="47.53968" lon="5.43261">
        <ele>226</ele>
        <time>2017-07-18T10:16:43Z</time>
      </trkpt>
      <trkpt lat="47.53965" lon="5.43252">
        <ele>225.80000305176</ele>
        <time>2017-07-18T10:16:44Z</time>
      </trkpt>
      <trkpt lat="47.53965" lon="5.43233">
        <ele>225.60000610352</ele>
        <time>2017-07-18T10:16:46Z</time>
      </trkpt>
      <trkpt lat="47.5397" lon="5.43206">
        <ele>225.19999694824</ele>
        <time>2017-07-18T10:16:49Z</time>
      </trkpt>
      <trkpt lat="47.53977" lon="5.43169">
        <ele>225</ele>
        <time>2017-07-18T10:16:53Z</time>
      </trkpt>
      <trkpt lat="47.53979" lon="5.4315">
        <ele>224.80000305176</ele>
        <time>2017-07-18T10:16:55Z</time>
      </trkpt>
      <trkpt lat="47.53984" lon="5.43113">
        <ele>224.80000305176</ele>
        <time>2017-07-18T10:16:59Z</time>
      </trkpt>
      <trkpt lat="47.53984" lon="5.43095">
        <ele>224.80000305176</ele>
        <time>2017-07-18T10:17:01Z</time>
      </trkpt>
      <trkpt lat="47.53981" lon="5.43021">
        <ele>224.80000305176</ele>
        <time>2017-07-18T10:17:09Z</time>
      </trkpt>
      <trkpt lat="47.53978" lon="5.42955">
        <ele>224.60000610352</ele>
        <time>2017-07-18T10:17:16Z</time>
      </trkpt>
      <trkpt lat="47.53977" lon="5.42885">
        <ele>224.60000610352</ele>
        <time>2017-07-18T10:17:24Z</time>
      </trkpt>
      <trkpt lat="47.53969" lon="5.42832">
        <ele>224.60000610352</ele>
        <time>2017-07-18T10:17:30Z</time>
      </trkpt>
      <trkpt lat="47.53958" lon="5.42778">
        <ele>224.60000610352</ele>
        <time>2017-07-18T10:17:37Z</time>
      </trkpt>
      <trkpt lat="47.53952" lon="5.42753">
        <ele>225.60000610352</ele>
        <time>2017-07-18T10:17:42Z</time>
      </trkpt>
      <trkpt lat="47.53952" lon="5.42743">
        <ele>226</ele>
        <time>2017-07-18T10:17:44Z</time>
      </trkpt>
      <trkpt lat="47.5395" lon="5.42729">
        <ele>226.80000305176</ele>
        <time>2017-07-18T10:17:47Z</time>
      </trkpt>
      <trkpt lat="47.53948" lon="5.4272">
        <ele>227.19999694824</ele>
        <time>2017-07-18T10:17:49Z</time>
      </trkpt>
      <trkpt lat="47.53943" lon="5.42697">
        <ele>228.19999694824</ele>
        <time>2017-07-18T10:17:54Z</time>
      </trkpt>
      <trkpt lat="47.53942" lon="5.42692">
        <ele>228.60000610352</ele>
        <time>2017-07-18T10:17:55Z</time>
      </trkpt>
      <trkpt lat="47.53935" lon="5.42669">
        <ele>229.60000610352</ele>
        <time>2017-07-18T10:18:00Z</time>
      </trkpt>
      <trkpt lat="47.53928" lon="5.42646">
        <ele>230.60000610352</ele>
        <time>2017-07-18T10:18:05Z</time>
      </trkpt>
      <trkpt lat="47.53924" lon="5.42627">
        <ele>231.60000610352</ele>
        <time>2017-07-18T10:18:09Z</time>
      </trkpt>
      <trkpt lat="47.53924" lon="5.42622">
        <ele>231.80000305176</ele>
        <time>2017-07-18T10:18:10Z</time>
      </trkpt>
      <trkpt lat="47.53928" lon="5.42602">
        <ele>232.60000610352</ele>
        <time>2017-07-18T10:18:14Z</time>
      </trkpt>
      <trkpt lat="47.53929" lon="5.42596">
        <ele>232.80000305176</ele>
        <time>2017-07-18T10:18:15Z</time>
      </trkpt>
      <trkpt lat="47.5393" lon="5.42584">
        <ele>233</ele>
        <time>2017-07-18T10:18:17Z</time>
      </trkpt>
      <trkpt lat="47.53928" lon="5.42563">
        <ele>233</ele>
        <time>2017-07-18T10:18:20Z</time>
      </trkpt>
      <trkpt lat="47.53926" lon="5.42554">
        <ele>233</ele>
        <time>2017-07-18T10:18:21Z</time>
      </trkpt>
      <trkpt lat="47.53924" lon="5.42546">
        <ele>232.80000305176</ele>
        <time>2017-07-18T10:18:22Z</time>
      </trkpt>
      <trkpt lat="47.53915" lon="5.4252">
        <ele>232.19999694824</ele>
        <time>2017-07-18T10:18:25Z</time>
      </trkpt>
      <trkpt lat="47.53909" lon="5.425">
        <ele>231.60000610352</ele>
        <time>2017-07-18T10:18:27Z</time>
      </trkpt>
      <trkpt lat="47.53902" lon="5.42465">
        <ele>230.60000610352</ele>
        <time>2017-07-18T10:18:30Z</time>
      </trkpt>
      <trkpt lat="47.539" lon="5.4244">
        <ele>229.60000610352</ele>
        <time>2017-07-18T10:18:32Z</time>
      </trkpt>
      <trkpt lat="47.539" lon="5.42428">
        <ele>229.19999694824</ele>
        <time>2017-07-18T10:18:33Z</time>
      </trkpt>
      <trkpt lat="47.539" lon="5.42416">
        <ele>229</ele>
        <time>2017-07-18T10:18:34Z</time>
      </trkpt>
      <trkpt lat="47.53903" lon="5.42383">
        <ele>228.19999694824</ele>
        <time>2017-07-18T10:18:37Z</time>
      </trkpt>
      <trkpt lat="47.53905" lon="5.42363">
        <ele>228</ele>
        <time>2017-07-18T10:18:39Z</time>
      </trkpt>
      <trkpt lat="47.53911" lon="5.4232">
        <ele>228.39999389648</ele>
        <time>2017-07-18T10:18:44Z</time>
      </trkpt>
      <trkpt lat="47.53914" lon="5.42278">
        <ele>229.19999694824</ele>
        <time>2017-07-18T10:18:50Z</time>
      </trkpt>
      <trkpt lat="47.53914" lon="5.42272">
        <ele>229.39999389648</ele>
        <time>2017-07-18T10:18:51Z</time>
      </trkpt>
      <trkpt lat="47.53914" lon="5.42249">
        <ele>230.39999389648</ele>
        <time>2017-07-18T10:18:55Z</time>
      </trkpt>
      <trkpt lat="47.53913" lon="5.42233">
        <ele>231</ele>
        <time>2017-07-18T10:18:58Z</time>
      </trkpt>
      <trkpt lat="47.53912" lon="5.42223">
        <ele>231.39999389648</ele>
        <time>2017-07-18T10:19:00Z</time>
      </trkpt>
      <trkpt lat="47.53907" lon="5.42201">
        <ele>232.39999389648</ele>
        <time>2017-07-18T10:19:05Z</time>
      </trkpt>
      <trkpt lat="47.53906" lon="5.42196">
        <ele>232.60000610352</ele>
        <time>2017-07-18T10:19:06Z</time>
      </trkpt>
      <trkpt lat="47.53905" lon="5.42187">
        <ele>233.60000610352</ele>
        <time>2017-07-18T10:19:08Z</time>
      </trkpt>
      <trkpt lat="47.53902" lon="5.4218">
        <ele>234.19999694824</ele>
        <time>2017-07-18T10:19:11Z</time>
      </trkpt>
      <trkpt lat="47.53903" lon="5.42192">
        <ele>234.60000610352</ele>
        <time>2017-07-18T10:19:14Z</time>
      </trkpt>
      <trkpt lat="47.53906" lon="5.42203">
        <ele>234.60000610352</ele>
        <time>2017-07-18T10:19:16Z</time>
      </trkpt>
      <trkpt lat="47.53909" lon="5.42217">
        <ele>234.60000610352</ele>
        <time>2017-07-18T10:19:18Z</time>
      </trkpt>
      <trkpt lat="47.53913" lon="5.42243">
        <ele>234.19999694824</ele>
        <time>2017-07-18T10:19:21Z</time>
      </trkpt>
      <trkpt lat="47.53915" lon="5.42261">
        <ele>233.60000610352</ele>
        <time>2017-07-18T10:19:23Z</time>
      </trkpt>
      <trkpt lat="47.53916" lon="5.42269">
        <ele>233.39999389648</ele>
        <time>2017-07-18T10:19:24Z</time>
      </trkpt>
      <trkpt lat="47.53913" lon="5.42296">
        <ele>232.19999694824</ele>
        <time>2017-07-18T10:19:27Z</time>
      </trkpt>
      <trkpt lat="47.53911" lon="5.42325">
        <ele>231</ele>
        <time>2017-07-18T10:19:30Z</time>
      </trkpt>
      <trkpt lat="47.53908" lon="5.42351">
        <ele>230</ele>
        <time>2017-07-18T10:19:33Z</time>
      </trkpt>
      <trkpt lat="47.53907" lon="5.42359">
        <ele>229.80000305176</ele>
        <time>2017-07-18T10:19:34Z</time>
      </trkpt>
      <trkpt lat="47.53903" lon="5.42394">
        <ele>228.60000610352</ele>
        <time>2017-07-18T10:19:38Z</time>
      </trkpt>
      <trkpt lat="47.53901" lon="5.42422">
        <ele>228.39999389648</ele>
        <time>2017-07-18T10:19:41Z</time>
      </trkpt>
      <trkpt lat="47.53899" lon="5.42447">
        <ele>228</ele>
        <time>2017-07-18T10:19:44Z</time>
      </trkpt>
      <trkpt lat="47.539" lon="5.4246">
        <ele>227.80000305176</ele>
        <time>2017-07-18T10:19:46Z</time>
      </trkpt>
      <trkpt lat="47.539" lon="5.42466">
        <ele>227.60000610352</ele>
        <time>2017-07-18T10:19:47Z</time>
      </trkpt>
      <trkpt lat="47.53899" lon="5.42474">
        <ele>227.60000610352</ele>
        <time>2017-07-18T10:19:50Z</time>
      </trkpt>
      <trkpt lat="47.53898" lon="5.42476">
        <ele>227.60000610352</ele>
        <time>2017-07-18T10:19:51Z</time>
      </trkpt>
      <trkpt lat="47.53894" lon="5.42484">
        <ele>209</ele>
        <time>2017-07-18T11:34:57Z</time>
      </trkpt>
      <trkpt lat="47.53898" lon="5.4249">
        <ele>209</ele>
        <time>2017-07-18T11:35:09Z</time>
      </trkpt>
      <trkpt lat="47.53903" lon="5.42493">
        <ele>209</ele>
        <time>2017-07-18T11:35:12Z</time>
      </trkpt>
      <trkpt lat="47.53905" lon="5.42494">
        <ele>209</ele>
        <time>2017-07-18T11:35:13Z</time>
      </trkpt>
      <trkpt lat="47.53907" lon="5.42496">
        <ele>209</ele>
        <time>2017-07-18T11:35:15Z</time>
      </trkpt>
      <trkpt lat="47.53909" lon="5.42501">
        <ele>209</ele>
        <time>2017-07-18T11:35:17Z</time>
      </trkpt>
      <trkpt lat="47.53911" lon="5.42507">
        <ele>209.19999694824</ele>
        <time>2017-07-18T11:35:19Z</time>
      </trkpt>
      <trkpt lat="47.53912" lon="5.42516">
        <ele>209.39999389648</ele>
        <time>2017-07-18T11:35:22Z</time>
      </trkpt>
      <trkpt lat="47.53915" lon="5.42529">
        <ele>210</ele>
        <time>2017-07-18T11:35:26Z</time>
      </trkpt>
      <trkpt lat="47.53916" lon="5.42532">
        <ele>210.19999694824</ele>
        <time>2017-07-18T11:35:27Z</time>
      </trkpt>
      <trkpt lat="47.53921" lon="5.42548">
        <ele>210.80000305176</ele>
        <time>2017-07-18T11:35:33Z</time>
      </trkpt>
      <trkpt lat="47.53923" lon="5.42553">
        <ele>211</ele>
        <time>2017-07-18T11:35:35Z</time>
      </trkpt>
      <trkpt lat="47.53925" lon="5.42567">
        <ele>211.80000305176</ele>
        <time>2017-07-18T11:35:40Z</time>
      </trkpt>
      <trkpt lat="47.53928" lon="5.42573">
        <ele>212.19999694824</ele>
        <time>2017-07-18T11:35:42Z</time>
      </trkpt>
      <trkpt lat="47.53929" lon="5.42584">
        <ele>212.60000610352</ele>
        <time>2017-07-18T11:35:46Z</time>
      </trkpt>
      <trkpt lat="47.53928" lon="5.42595">
        <ele>213.19999694824</ele>
        <time>2017-07-18T11:35:50Z</time>
      </trkpt>
      <trkpt lat="47.53927" lon="5.42601">
        <ele>213.39999389648</ele>
        <time>2017-07-18T11:35:52Z</time>
      </trkpt>
      <trkpt lat="47.53923" lon="5.42626">
        <ele>213.80000305176</ele>
        <time>2017-07-18T11:35:58Z</time>
      </trkpt>
      <trkpt lat="47.53925" lon="5.42646">
        <ele>213.80000305176</ele>
        <time>2017-07-18T11:36:02Z</time>
      </trkpt>
      <trkpt lat="47.53927" lon="5.42652">
        <ele>213.80000305176</ele>
        <time>2017-07-18T11:36:03Z</time>
      </trkpt>
      <trkpt lat="47.53939" lon="5.42692">
        <ele>212.80000305176</ele>
        <time>2017-07-18T11:36:08Z</time>
      </trkpt>
      <trkpt lat="47.53944" lon="5.42721">
        <ele>212</ele>
        <time>2017-07-18T11:36:11Z</time>
      </trkpt>
      <trkpt lat="47.5395" lon="5.42754">
        <ele>211</ele>
        <time>2017-07-18T11:36:14Z</time>
      </trkpt>
      <trkpt lat="47.53951" lon="5.42766">
        <ele>210.60000610352</ele>
        <time>2017-07-18T11:36:15Z</time>
      </trkpt>
      <trkpt lat="47.53958" lon="5.42803">
        <ele>209.39999389648</ele>
        <time>2017-07-18T11:36:18Z</time>
      </trkpt>
      <trkpt lat="47.5396" lon="5.42816">
        <ele>209</ele>
        <time>2017-07-18T11:36:19Z</time>
      </trkpt>
      <trkpt lat="47.53964" lon="5.42842">
        <ele>208</ele>
        <time>2017-07-18T11:36:21Z</time>
      </trkpt>
      <trkpt lat="47.53969" lon="5.42866">
        <ele>207</ele>
        <time>2017-07-18T11:36:23Z</time>
      </trkpt>
      <trkpt lat="47.53972" lon="5.42889">
        <ele>206.19999694824</ele>
        <time>2017-07-18T11:36:25Z</time>
      </trkpt>
      <trkpt lat="47.53973" lon="5.42899">
        <ele>205.80000305176</ele>
        <time>2017-07-18T11:36:26Z</time>
      </trkpt>
      <trkpt lat="47.53974" lon="5.4294">
        <ele>205.60000610352</ele>
        <time>2017-07-18T11:36:30Z</time>
      </trkpt>
      <trkpt lat="47.53975" lon="5.43001">
        <ele>205.19999694824</ele>
        <time>2017-07-18T11:36:37Z</time>
      </trkpt>
      <trkpt lat="47.53979" lon="5.43048">
        <ele>205.39999389648</ele>
        <time>2017-07-18T11:36:43Z</time>
      </trkpt>
      <trkpt lat="47.53983" lon="5.431">
        <ele>205.39999389648</ele>
        <time>2017-07-18T11:36:50Z</time>
      </trkpt>
      <trkpt lat="47.53982" lon="5.43107">
        <ele>205.39999389648</ele>
        <time>2017-07-18T11:36:51Z</time>
      </trkpt>
      <trkpt lat="47.53978" lon="5.43152">
        <ele>205.39999389648</ele>
        <time>2017-07-18T11:36:57Z</time>
      </trkpt>
      <trkpt lat="47.53975" lon="5.43182">
        <ele>205.39999389648</ele>
        <time>2017-07-18T11:37:01Z</time>
      </trkpt>
      <trkpt lat="47.5397" lon="5.43209">
        <ele>205.39999389648</ele>
        <time>2017-07-18T11:37:05Z</time>
      </trkpt>
      <trkpt lat="47.53961" lon="5.43268">
        <ele>205.60000610352</ele>
        <time>2017-07-18T11:37:14Z</time>
      </trkpt>
      <trkpt lat="47.53962" lon="5.43274">
        <ele>205.60000610352</ele>
        <time>2017-07-18T11:37:15Z</time>
      </trkpt>
      <trkpt lat="47.53968" lon="5.43283">
        <ele>205.39999389648</ele>
        <time>2017-07-18T11:37:17Z</time>
      </trkpt>
      <trkpt lat="47.53975" lon="5.43291">
        <ele>205.39999389648</ele>
        <time>2017-07-18T11:37:19Z</time>
      </trkpt>
      <trkpt lat="47.53979" lon="5.43294">
        <ele>205.60000610352</ele>
        <time>2017-07-18T11:37:20Z</time>
      </trkpt>
      <trkpt lat="47.53986" lon="5.43297">
        <ele>205.80000305176</ele>
        <time>2017-07-18T11:37:22Z</time>
      </trkpt>
      <trkpt lat="47.54002" lon="5.43306">
        <ele>206.19999694824</ele>
        <time>2017-07-18T11:37:27Z</time>
      </trkpt>
      <trkpt lat="47.54011" lon="5.43317">
        <ele>206.39999389648</ele>
        <time>2017-07-18T11:37:30Z</time>
      </trkpt>
      <trkpt lat="47.54013" lon="5.43323">
        <ele>206.39999389648</ele>
        <time>2017-07-18T11:37:31Z</time>
      </trkpt>
      <trkpt lat="47.54014" lon="5.4335">
        <ele>206.60000610352</ele>
        <time>2017-07-18T11:37:35Z</time>
      </trkpt>
      <trkpt lat="47.54013" lon="5.43364">
        <ele>206.80000305176</ele>
        <time>2017-07-18T11:37:37Z</time>
      </trkpt>
      <trkpt lat="47.5401" lon="5.43383">
        <ele>207</ele>
        <time>2017-07-18T11:37:40Z</time>
      </trkpt>
      <trkpt lat="47.54008" lon="5.4339">
        <ele>207</ele>
        <time>2017-07-18T11:37:41Z</time>
      </trkpt>
      <trkpt lat="47.54006" lon="5.43404">
        <ele>206.80000305176</ele>
        <time>2017-07-18T11:37:43Z</time>
      </trkpt>
      <trkpt lat="47.54" lon="5.43437">
        <ele>206.80000305176</ele>
        <time>2017-07-18T11:37:48Z</time>
      </trkpt>
      <trkpt lat="47.53992" lon="5.43493">
        <ele>206.60000610352</ele>
        <time>2017-07-18T11:37:55Z</time>
      </trkpt>
      <trkpt lat="47.53991" lon="5.43501">
        <ele>206.60000610352</ele>
        <time>2017-07-18T11:37:56Z</time>
      </trkpt>
      <trkpt lat="47.53983" lon="5.4355">
        <ele>206.39999389648</ele>
        <time>2017-07-18T11:38:03Z</time>
      </trkpt>
      <trkpt lat="47.53978" lon="5.43583">
        <ele>206.80000305176</ele>
        <time>2017-07-18T11:38:09Z</time>
      </trkpt>
      <trkpt lat="47.53976" lon="5.4361">
        <ele>207</ele>
        <time>2017-07-18T11:38:13Z</time>
      </trkpt>
      <trkpt lat="47.53976" lon="5.43626">
        <ele>207</ele>
        <time>2017-07-18T11:38:15Z</time>
      </trkpt>
      <trkpt lat="47.53978" lon="5.43641">
        <ele>206.80000305176</ele>
        <time>2017-07-18T11:38:17Z</time>
      </trkpt>
      <trkpt lat="47.53984" lon="5.43662">
        <ele>206.39999389648</ele>
        <time>2017-07-18T11:38:20Z</time>
      </trkpt>
      <trkpt lat="47.53992" lon="5.4369">
        <ele>206.19999694824</ele>
        <time>2017-07-18T11:38:25Z</time>
      </trkpt>
      <trkpt lat="47.54002" lon="5.43709">
        <ele>206.39999389648</ele>
        <time>2017-07-18T11:38:30Z</time>
      </trkpt>
      <trkpt lat="47.54027" lon="5.43712">
        <ele>206.60000610352</ele>
        <time>2017-07-18T11:38:37Z</time>
      </trkpt>
      <trkpt lat="47.54052" lon="5.43717">
        <ele>206.60000610352</ele>
        <time>2017-07-18T11:38:43Z</time>
      </trkpt>
      <trkpt lat="47.54098" lon="5.43725">
        <ele>206.80000305176</ele>
        <time>2017-07-18T11:38:52Z</time>
      </trkpt>
      <trkpt lat="47.54114" lon="5.43727">
        <ele>206.80000305176</ele>
        <time>2017-07-18T11:38:55Z</time>
      </trkpt>
      <trkpt lat="47.54148" lon="5.43733">
        <ele>206.60000610352</ele>
        <time>2017-07-18T11:39:01Z</time>
      </trkpt>
      <trkpt lat="47.54204" lon="5.4374">
        <ele>206.39999389648</ele>
        <time>2017-07-18T11:39:11Z</time>
      </trkpt>
      <trkpt lat="47.54238" lon="5.43743">
        <ele>206.39999389648</ele>
        <time>2017-07-18T11:39:17Z</time>
      </trkpt>
      <trkpt lat="47.54244" lon="5.43743">
        <ele>206.39999389648</ele>
        <time>2017-07-18T11:39:18Z</time>
      </trkpt>
      <trkpt lat="47.54249" lon="5.43745">
        <ele>206.39999389648</ele>
        <time>2017-07-18T11:39:19Z</time>
      </trkpt>
      <trkpt lat="47.54266" lon="5.43748">
        <ele>206.60000610352</ele>
        <time>2017-07-18T11:39:22Z</time>
      </trkpt>
      <trkpt lat="47.54271" lon="5.43748">
        <ele>206.60000610352</ele>
        <time>2017-07-18T11:39:23Z</time>
      </trkpt>
      <trkpt lat="47.54303" lon="5.43752">
        <ele>206.80000305176</ele>
        <time>2017-07-18T11:39:29Z</time>
      </trkpt>
      <trkpt lat="47.54324" lon="5.43756">
        <ele>207</ele>
        <time>2017-07-18T11:39:33Z</time>
      </trkpt>
      <trkpt lat="47.54344" lon="5.43759">
        <ele>207.39999389648</ele>
        <time>2017-07-18T11:39:37Z</time>
      </trkpt>
      <trkpt lat="47.54367" lon="5.43762">
        <ele>208</ele>
        <time>2017-07-18T11:39:42Z</time>
      </trkpt>
      <trkpt lat="47.5438" lon="5.43762">
        <ele>208.39999389648</ele>
        <time>2017-07-18T11:39:45Z</time>
      </trkpt>
      <trkpt lat="47.54388" lon="5.43764">
        <ele>208.60000610352</ele>
        <time>2017-07-18T11:39:47Z</time>
      </trkpt>
      <trkpt lat="47.54404" lon="5.43766">
        <ele>209</ele>
        <time>2017-07-18T11:39:51Z</time>
      </trkpt>
      <trkpt lat="47.54428" lon="5.43769">
        <ele>210</ele>
        <time>2017-07-18T11:39:57Z</time>
      </trkpt>
      <trkpt lat="47.54439" lon="5.43772">
        <ele>210.19999694824</ele>
        <time>2017-07-18T11:40:00Z</time>
      </trkpt>
      <trkpt lat="47.54463" lon="5.43779">
        <ele>211.19999694824</ele>
        <time>2017-07-18T11:40:06Z</time>
      </trkpt>
      <trkpt lat="47.54471" lon="5.43782">
        <ele>211.60000610352</ele>
        <time>2017-07-18T11:40:08Z</time>
      </trkpt>
      <trkpt lat="47.54493" lon="5.43791">
        <ele>212.19999694824</ele>
        <time>2017-07-18T11:40:14Z</time>
      </trkpt>
      <trkpt lat="47.54505" lon="5.43797">
        <ele>212.60000610352</ele>
        <time>2017-07-18T11:40:17Z</time>
      </trkpt>
      <trkpt lat="47.54516" lon="5.43801">
        <ele>213</ele>
        <time>2017-07-18T11:40:20Z</time>
      </trkpt>
      <trkpt lat="47.54523" lon="5.43804">
        <ele>213.39999389648</ele>
        <time>2017-07-18T11:40:22Z</time>
      </trkpt>
      <trkpt lat="47.54532" lon="5.4381">
        <ele>213.80000305176</ele>
        <time>2017-07-18T11:40:25Z</time>
      </trkpt>
      <trkpt lat="47.54556" lon="5.43826">
        <ele>214.39999389648</ele>
        <time>2017-07-18T11:40:32Z</time>
      </trkpt>
      <trkpt lat="47.5456" lon="5.43829">
        <ele>214.39999389648</ele>
        <time>2017-07-18T11:40:33Z</time>
      </trkpt>
      <trkpt lat="47.54586" lon="5.43853">
        <ele>215</ele>
        <time>2017-07-18T11:40:41Z</time>
      </trkpt>
      <trkpt lat="47.5461" lon="5.43883">
        <ele>215.39999389648</ele>
        <time>2017-07-18T11:40:49Z</time>
      </trkpt>
      <trkpt lat="47.54639" lon="5.43934">
        <ele>215.80000305176</ele>
        <time>2017-07-18T11:41:00Z</time>
      </trkpt>
      <trkpt lat="47.54664" lon="5.43981">
        <ele>216.39999389648</ele>
        <time>2017-07-18T11:41:10Z</time>
      </trkpt>
      <trkpt lat="47.54667" lon="5.43986">
        <ele>216.39999389648</ele>
        <time>2017-07-18T11:41:11Z</time>
      </trkpt>
      <trkpt lat="47.54686" lon="5.44015">
        <ele>217</ele>
        <time>2017-07-18T11:41:18Z</time>
      </trkpt>
      <trkpt lat="47.54701" lon="5.44035">
        <ele>217.60000610352</ele>
        <time>2017-07-18T11:41:23Z</time>
      </trkpt>
      <trkpt lat="47.5471" lon="5.44045">
        <ele>218</ele>
        <time>2017-07-18T11:41:26Z</time>
      </trkpt>
      <trkpt lat="47.54729" lon="5.44066">
        <ele>218.39999389648</ele>
        <time>2017-07-18T11:41:32Z</time>
      </trkpt>
      <trkpt lat="47.54732" lon="5.44069">
        <ele>218.60000610352</ele>
        <time>2017-07-18T11:41:33Z</time>
      </trkpt>
      <trkpt lat="47.54755" lon="5.44091">
        <ele>219.60000610352</ele>
        <time>2017-07-18T11:41:40Z</time>
      </trkpt>
      <trkpt lat="47.54758" lon="5.44094">
        <ele>219.60000610352</ele>
        <time>2017-07-18T11:41:41Z</time>
      </trkpt>
      <trkpt lat="47.54783" lon="5.44117">
        <ele>220.39999389648</ele>
        <time>2017-07-18T11:41:49Z</time>
      </trkpt>
      <trkpt lat="47.54786" lon="5.44119">
        <ele>220.60000610352</ele>
        <time>2017-07-18T11:41:50Z</time>
      </trkpt>
      <trkpt lat="47.54807" lon="5.44139">
        <ele>221.80000305176</ele>
        <time>2017-07-18T11:41:57Z</time>
      </trkpt>
      <trkpt lat="47.5481" lon="5.44142">
        <ele>221.80000305176</ele>
        <time>2017-07-18T11:41:58Z</time>
      </trkpt>
      <trkpt lat="47.54827" lon="5.44159">
        <ele>222.80000305176</ele>
        <time>2017-07-18T11:42:04Z</time>
      </trkpt>
      <trkpt lat="47.54839" lon="5.44169">
        <ele>223.60000610352</ele>
        <time>2017-07-18T11:42:08Z</time>
      </trkpt>
      <trkpt lat="47.54845" lon="5.44174">
        <ele>223.80000305176</ele>
        <time>2017-07-18T11:42:10Z</time>
      </trkpt>
      <trkpt lat="47.54859" lon="5.44185">
        <ele>224.19999694824</ele>
        <time>2017-07-18T11:42:14Z</time>
      </trkpt>
      <trkpt lat="47.54867" lon="5.44191">
        <ele>224.39999389648</ele>
        <time>2017-07-18T11:42:16Z</time>
      </trkpt>
      <trkpt lat="47.54902" lon="5.44214">
        <ele>224.19999694824</ele>
        <time>2017-07-18T11:42:24Z</time>
      </trkpt>
      <trkpt lat="47.54934" lon="5.4423">
        <ele>223.60000610352</ele>
        <time>2017-07-18T11:42:31Z</time>
      </trkpt>
      <trkpt lat="47.54972" lon="5.44247">
        <ele>223.39999389648</ele>
        <time>2017-07-18T11:42:38Z</time>
      </trkpt>
      <trkpt lat="47.55019" lon="5.44266">
        <ele>223</ele>
        <time>2017-07-18T11:42:46Z</time>
      </trkpt>
      <trkpt lat="47.55042" lon="5.44277">
        <ele>222.80000305176</ele>
        <time>2017-07-18T11:42:50Z</time>
      </trkpt>
      <trkpt lat="47.55066" lon="5.44284">
        <ele>222.80000305176</ele>
        <time>2017-07-18T11:42:54Z</time>
      </trkpt>
      <trkpt lat="47.55103" lon="5.44299">
        <ele>223</ele>
        <time>2017-07-18T11:43:01Z</time>
      </trkpt>
      <trkpt lat="47.55131" lon="5.4431">
        <ele>223.80000305176</ele>
        <time>2017-07-18T11:43:07Z</time>
      </trkpt>
      <trkpt lat="47.55144" lon="5.44317">
        <ele>224</ele>
        <time>2017-07-18T11:43:10Z</time>
      </trkpt>
      <trkpt lat="47.55185" lon="5.44339">
        <ele>224.80000305176</ele>
        <time>2017-07-18T11:43:19Z</time>
      </trkpt>
      <trkpt lat="47.55239" lon="5.44371">
        <ele>224.39999389648</ele>
        <time>2017-07-18T11:43:30Z</time>
      </trkpt>
      <trkpt lat="47.55281" lon="5.44399">
        <ele>224.19999694824</ele>
        <time>2017-07-18T11:43:38Z</time>
      </trkpt>
      <trkpt lat="47.55331" lon="5.44429">
        <ele>223</ele>
        <time>2017-07-18T11:43:47Z</time>
      </trkpt>
      <trkpt lat="47.55343" lon="5.44436">
        <ele>222.80000305176</ele>
        <time>2017-07-18T11:43:49Z</time>
      </trkpt>
      <trkpt lat="47.55374" lon="5.44452">
        <ele>222</ele>
        <time>2017-07-18T11:43:54Z</time>
      </trkpt>
      <trkpt lat="47.55405" lon="5.4447">
        <ele>221.60000610352</ele>
        <time>2017-07-18T11:43:59Z</time>
      </trkpt>
      <trkpt lat="47.55423" lon="5.4448">
        <ele>221.19999694824</ele>
        <time>2017-07-18T11:44:02Z</time>
      </trkpt>
      <trkpt lat="47.55453" lon="5.44496">
        <ele>220.39999389648</ele>
        <time>2017-07-18T11:44:07Z</time>
      </trkpt>
      <trkpt lat="47.55476" lon="5.44509">
        <ele>220</ele>
        <time>2017-07-18T11:44:11Z</time>
      </trkpt>
      <trkpt lat="47.55505" lon="5.44521">
        <ele>219.60000610352</ele>
        <time>2017-07-18T11:44:16Z</time>
      </trkpt>
      <trkpt lat="47.55533" lon="5.44536">
        <ele>219.19999694824</ele>
        <time>2017-07-18T11:44:21Z</time>
      </trkpt>
      <trkpt lat="47.55549" lon="5.44545">
        <ele>219.19999694824</ele>
        <time>2017-07-18T11:44:24Z</time>
      </trkpt>
      <trkpt lat="47.55586" lon="5.44567">
        <ele>219.39999389648</ele>
        <time>2017-07-18T11:44:31Z</time>
      </trkpt>
      <trkpt lat="47.55631" lon="5.44594">
        <ele>220</ele>
        <time>2017-07-18T11:44:40Z</time>
      </trkpt>
      <trkpt lat="47.55649" lon="5.44606">
        <ele>220.39999389648</ele>
        <time>2017-07-18T11:44:44Z</time>
      </trkpt>
      <trkpt lat="47.55671" lon="5.44619">
        <ele>220.60000610352</ele>
        <time>2017-07-18T11:44:49Z</time>
      </trkpt>
      <trkpt lat="47.55706" lon="5.4464">
        <ele>221.39999389648</ele>
        <time>2017-07-18T11:44:57Z</time>
      </trkpt>
      <trkpt lat="47.55747" lon="5.44662">
        <ele>222</ele>
        <time>2017-07-18T11:45:06Z</time>
      </trkpt>
      <trkpt lat="47.55777" lon="5.44675">
        <ele>222.39999389648</ele>
        <time>2017-07-18T11:45:13Z</time>
      </trkpt>
      <trkpt lat="47.558" lon="5.44683">
        <ele>223.60000610352</ele>
        <time>2017-07-18T11:45:19Z</time>
      </trkpt>
      <trkpt lat="47.55806" lon="5.44687">
        <ele>223.80000305176</ele>
        <time>2017-07-18T11:45:21Z</time>
      </trkpt>
      <trkpt lat="47.55823" lon="5.44699">
        <ele>224.60000610352</ele>
        <time>2017-07-18T11:45:26Z</time>
      </trkpt>
      <trkpt lat="47.55829" lon="5.44704">
        <ele>224.80000305176</ele>
        <time>2017-07-18T11:45:28Z</time>
      </trkpt>
      <trkpt lat="47.55843" lon="5.44717">
        <ele>225.60000610352</ele>
        <time>2017-07-18T11:45:33Z</time>
      </trkpt>
      <trkpt lat="47.55849" lon="5.44724">
        <ele>226</ele>
        <time>2017-07-18T11:45:35Z</time>
      </trkpt>
      <trkpt lat="47.55868" lon="5.44745">
        <ele>226.80000305176</ele>
        <time>2017-07-18T11:45:42Z</time>
      </trkpt>
      <trkpt lat="47.55871" lon="5.44748">
        <ele>227</ele>
        <time>2017-07-18T11:45:43Z</time>
      </trkpt>
      <trkpt lat="47.55884" lon="5.44766">
        <ele>227.80000305176</ele>
        <time>2017-07-18T11:45:48Z</time>
      </trkpt>
      <trkpt lat="47.55889" lon="5.44774">
        <ele>228.19999694824</ele>
        <time>2017-07-18T11:45:50Z</time>
      </trkpt>
      <trkpt lat="47.55901" lon="5.44795">
        <ele>228.80000305176</ele>
        <time>2017-07-18T11:45:55Z</time>
      </trkpt>
      <trkpt lat="47.55908" lon="5.44806">
        <ele>229.39999389648</ele>
        <time>2017-07-18T11:45:58Z</time>
      </trkpt>
      <trkpt lat="47.55916" lon="5.44818">
        <ele>229.80000305176</ele>
        <time>2017-07-18T11:46:01Z</time>
      </trkpt>
      <trkpt lat="47.55931" lon="5.44842">
        <ele>230.80000305176</ele>
        <time>2017-07-18T11:46:07Z</time>
      </trkpt>
      <trkpt lat="47.55936" lon="5.44851">
        <ele>231</ele>
        <time>2017-07-18T11:46:09Z</time>
      </trkpt>
      <trkpt lat="47.55958" lon="5.44886">
        <ele>231.80000305176</ele>
        <time>2017-07-18T11:46:17Z</time>
      </trkpt>
      <trkpt lat="47.55989" lon="5.44924">
        <ele>232</ele>
        <time>2017-07-18T11:46:26Z</time>
      </trkpt>
      <trkpt lat="47.56008" lon="5.44943">
        <ele>232.39999389648</ele>
        <time>2017-07-18T11:46:31Z</time>
      </trkpt>
      <trkpt lat="47.56016" lon="5.44949">
        <ele>232.60000610352</ele>
        <time>2017-07-18T11:46:33Z</time>
      </trkpt>
      <trkpt lat="47.5605" lon="5.44971">
        <ele>233</ele>
        <time>2017-07-18T11:46:41Z</time>
      </trkpt>
      <trkpt lat="47.56083" lon="5.4499">
        <ele>233</ele>
        <time>2017-07-18T11:46:48Z</time>
      </trkpt>
      <trkpt lat="47.56128" lon="5.45017">
        <ele>232.60000610352</ele>
        <time>2017-07-18T11:46:57Z</time>
      </trkpt>
      <trkpt lat="47.56177" lon="5.45054">
        <ele>232</ele>
        <time>2017-07-18T11:47:06Z</time>
      </trkpt>
      <trkpt lat="47.5622" lon="5.45089">
        <ele>230.80000305176</ele>
        <time>2017-07-18T11:47:13Z</time>
      </trkpt>
      <trkpt lat="47.56227" lon="5.45094">
        <ele>230.60000610352</ele>
        <time>2017-07-18T11:47:14Z</time>
      </trkpt>
      <trkpt lat="47.56253" lon="5.45115">
        <ele>229.80000305176</ele>
        <time>2017-07-18T11:47:18Z</time>
      </trkpt>
      <trkpt lat="47.5628" lon="5.45138">
        <ele>228.80000305176</ele>
        <time>2017-07-18T11:47:22Z</time>
      </trkpt>
      <trkpt lat="47.56322" lon="5.45172">
        <ele>227.60000610352</ele>
        <time>2017-07-18T11:47:28Z</time>
      </trkpt>
      <trkpt lat="47.56335" lon="5.45184">
        <ele>227.39999389648</ele>
        <time>2017-07-18T11:47:30Z</time>
      </trkpt>
      <trkpt lat="47.56371" lon="5.45222">
        <ele>226.60000610352</ele>
        <time>2017-07-18T11:47:36Z</time>
      </trkpt>
      <trkpt lat="47.56382" lon="5.45235">
        <ele>225.80000305176</ele>
        <time>2017-07-18T11:47:38Z</time>
      </trkpt>
      <trkpt lat="47.56387" lon="5.45242">
        <ele>225.60000610352</ele>
        <time>2017-07-18T11:47:39Z</time>
      </trkpt>
      <trkpt lat="47.56423" lon="5.45288">
        <ele>225</ele>
        <time>2017-07-18T11:47:46Z</time>
      </trkpt>
      <trkpt lat="47.56454" lon="5.45328">
        <ele>224.60000610352</ele>
        <time>2017-07-18T11:47:52Z</time>
      </trkpt>
      <trkpt lat="47.56465" lon="5.45343">
        <ele>224.19999694824</ele>
        <time>2017-07-18T11:47:54Z</time>
      </trkpt>
      <trkpt lat="47.56495" lon="5.45379">
        <ele>223.39999389648</ele>
        <time>2017-07-18T11:47:59Z</time>
      </trkpt>
      <trkpt lat="47.56508" lon="5.45392">
        <ele>223</ele>
        <time>2017-07-18T11:48:01Z</time>
      </trkpt>
      <trkpt lat="47.5653" lon="5.45408">
        <ele>222</ele>
        <time>2017-07-18T11:48:04Z</time>
      </trkpt>
      <trkpt lat="47.56552" lon="5.45422">
        <ele>221.39999389648</ele>
        <time>2017-07-18T11:48:07Z</time>
      </trkpt>
      <trkpt lat="47.56559" lon="5.45426">
        <ele>220.80000305176</ele>
        <time>2017-07-18T11:48:08Z</time>
      </trkpt>
      <trkpt lat="47.56587" lon="5.45435">
        <ele>220.39999389648</ele>
        <time>2017-07-18T11:48:12Z</time>
      </trkpt>
      <trkpt lat="47.56642" lon="5.45451">
        <ele>220.39999389648</ele>
        <time>2017-07-18T11:48:21Z</time>
      </trkpt>
      <trkpt lat="47.56675" lon="5.45463">
        <ele>220.39999389648</ele>
        <time>2017-07-18T11:48:27Z</time>
      </trkpt>
      <trkpt lat="47.5672" lon="5.45487">
        <ele>219.80000305176</ele>
        <time>2017-07-18T11:48:35Z</time>
      </trkpt>
      <trkpt lat="47.56726" lon="5.45491">
        <ele>219.80000305176</ele>
        <time>2017-07-18T11:48:36Z</time>
      </trkpt>
      <trkpt lat="47.56758" lon="5.45519">
        <ele>218.80000305176</ele>
        <time>2017-07-18T11:48:41Z</time>
      </trkpt>
      <trkpt lat="47.56764" lon="5.45525">
        <ele>218.60000610352</ele>
        <time>2017-07-18T11:48:42Z</time>
      </trkpt>
      <trkpt lat="47.5679" lon="5.4556">
        <ele>218.39999389648</ele>
        <time>2017-07-18T11:48:47Z</time>
      </trkpt>
      <trkpt lat="47.56828" lon="5.45611">
        <ele>218.39999389648</ele>
        <time>2017-07-18T11:48:55Z</time>
      </trkpt>
      <trkpt lat="47.56855" lon="5.4565">
        <ele>218.60000610352</ele>
        <time>2017-07-18T11:49:02Z</time>
      </trkpt>
      <trkpt lat="47.56884" lon="5.45691">
        <ele>219.39999389648</ele>
        <time>2017-07-18T11:49:10Z</time>
      </trkpt>
      <trkpt lat="47.56894" lon="5.45705">
        <ele>219.60000610352</ele>
        <time>2017-07-18T11:49:13Z</time>
      </trkpt>
      <trkpt lat="47.56911" lon="5.45729">
        <ele>220.19999694824</ele>
        <time>2017-07-18T11:49:18Z</time>
      </trkpt>
      <trkpt lat="47.5693" lon="5.45756">
        <ele>220.60000610352</ele>
        <time>2017-07-18T11:49:23Z</time>
      </trkpt>
      <trkpt lat="47.56941" lon="5.45774">
        <ele>220.80000305176</ele>
        <time>2017-07-18T11:49:26Z</time>
      </trkpt>
      <trkpt lat="47.5696" lon="5.45805">
        <ele>220.80000305176</ele>
        <time>2017-07-18T11:49:32Z</time>
      </trkpt>
      <trkpt lat="47.56971" lon="5.45826">
        <ele>221</ele>
        <time>2017-07-18T11:49:36Z</time>
      </trkpt>
      <trkpt lat="47.56981" lon="5.45847">
        <ele>221</ele>
        <time>2017-07-18T11:49:40Z</time>
      </trkpt>
      <trkpt lat="47.57003" lon="5.45893">
        <ele>221.60000610352</ele>
        <time>2017-07-18T11:49:48Z</time>
      </trkpt>
      <trkpt lat="47.57023" lon="5.45933">
        <ele>221.39999389648</ele>
        <time>2017-07-18T11:49:54Z</time>
      </trkpt>
      <trkpt lat="47.57032" lon="5.45946">
        <ele>221</ele>
        <time>2017-07-18T11:49:56Z</time>
      </trkpt>
      <trkpt lat="47.57071" lon="5.45993">
        <ele>220.39999389648</ele>
        <time>2017-07-18T11:50:04Z</time>
      </trkpt>
      <trkpt lat="47.57111" lon="5.46024">
        <ele>220</ele>
        <time>2017-07-18T11:50:11Z</time>
      </trkpt>
      <trkpt lat="47.57149" lon="5.46046">
        <ele>220.19999694824</ele>
        <time>2017-07-18T11:50:18Z</time>
      </trkpt>
      <trkpt lat="47.57195" lon="5.4607">
        <ele>220.39999389648</ele>
        <time>2017-07-18T11:50:27Z</time>
      </trkpt>
      <trkpt lat="47.57234" lon="5.46078">
        <ele>220.19999694824</ele>
        <time>2017-07-18T11:50:34Z</time>
      </trkpt>
      <trkpt lat="47.5724" lon="5.46078">
        <ele>220.19999694824</ele>
        <time>2017-07-18T11:50:35Z</time>
      </trkpt>
      <trkpt lat="47.57256" lon="5.46077">
        <ele>220.19999694824</ele>
        <time>2017-07-18T11:50:38Z</time>
      </trkpt>
      <trkpt lat="47.57261" lon="5.46078">
        <ele>220.19999694824</ele>
        <time>2017-07-18T11:50:39Z</time>
      </trkpt>
      <trkpt lat="47.57299" lon="5.46084">
        <ele>219.80000305176</ele>
        <time>2017-07-18T11:50:46Z</time>
      </trkpt>
      <trkpt lat="47.5734" lon="5.461">
        <ele>220.19999694824</ele>
        <time>2017-07-18T11:50:54Z</time>
      </trkpt>
      <trkpt lat="47.57379" lon="5.46119">
        <ele>221</ele>
        <time>2017-07-18T11:51:02Z</time>
      </trkpt>
      <trkpt lat="47.57408" lon="5.46132">
        <ele>221.60000610352</ele>
        <time>2017-07-18T11:51:08Z</time>
      </trkpt>
      <trkpt lat="47.57417" lon="5.46135">
        <ele>221.60000610352</ele>
        <time>2017-07-18T11:51:10Z</time>
      </trkpt>
      <trkpt lat="47.57451" lon="5.4615">
        <ele>222</ele>
        <time>2017-07-18T11:51:17Z</time>
      </trkpt>
      <trkpt lat="47.57491" lon="5.46172">
        <ele>222</ele>
        <time>2017-07-18T11:51:25Z</time>
      </trkpt>
      <trkpt lat="47.57532" lon="5.46209">
        <ele>221.39999389648</ele>
        <time>2017-07-18T11:51:33Z</time>
      </trkpt>
      <trkpt lat="47.57563" lon="5.46252">
        <ele>221</ele>
        <time>2017-07-18T11:51:40Z</time>
      </trkpt>
      <trkpt lat="47.57576" lon="5.46275">
        <ele>220.60000610352</ele>
        <time>2017-07-18T11:51:43Z</time>
      </trkpt>
      <trkpt lat="47.57593" lon="5.46315">
        <ele>219.80000305176</ele>
        <time>2017-07-18T11:51:48Z</time>
      </trkpt>
      <trkpt lat="47.57603" lon="5.46341">
        <ele>219.39999389648</ele>
        <time>2017-07-18T11:51:51Z</time>
      </trkpt>
      <trkpt lat="47.57623" lon="5.46391">
        <ele>219.19999694824</ele>
        <time>2017-07-18T11:51:57Z</time>
      </trkpt>
      <trkpt lat="47.57653" lon="5.46447">
        <ele>218.60000610352</ele>
        <time>2017-07-18T11:52:04Z</time>
      </trkpt>
      <trkpt lat="47.57672" lon="5.46477">
        <ele>218.39999389648</ele>
        <time>2017-07-18T11:52:08Z</time>
      </trkpt>
      <trkpt lat="47.57692" lon="5.46502">
        <ele>218</ele>
        <time>2017-07-18T11:52:12Z</time>
      </trkpt>
      <trkpt lat="47.57736" lon="5.46542">
        <ele>217.60000610352</ele>
        <time>2017-07-18T11:52:20Z</time>
      </trkpt>
      <trkpt lat="47.57783" lon="5.46568">
        <ele>217.80000305176</ele>
        <time>2017-07-18T11:52:28Z</time>
      </trkpt>
      <trkpt lat="47.57832" lon="5.46582">
        <ele>218</ele>
        <time>2017-07-18T11:52:36Z</time>
      </trkpt>
      <trkpt lat="47.57879" lon="5.46593">
        <ele>218</ele>
        <time>2017-07-18T11:52:44Z</time>
      </trkpt>
      <trkpt lat="47.57927" lon="5.46604">
        <ele>218.19999694824</ele>
        <time>2017-07-18T11:52:52Z</time>
      </trkpt>
      <trkpt lat="47.57975" lon="5.46622">
        <ele>218.60000610352</ele>
        <time>2017-07-18T11:53:00Z</time>
      </trkpt>
      <trkpt lat="47.5802" lon="5.4665">
        <ele>218.80000305176</ele>
        <time>2017-07-18T11:53:08Z</time>
      </trkpt>
      <trkpt lat="47.58067" lon="5.46693">
        <ele>219</ele>
        <time>2017-07-18T11:53:17Z</time>
      </trkpt>
      <trkpt lat="47.58105" lon="5.46742">
        <ele>219.19999694824</ele>
        <time>2017-07-18T11:53:25Z</time>
      </trkpt>
      <trkpt lat="47.58136" lon="5.46799">
        <ele>219.19999694824</ele>
        <time>2017-07-18T11:53:33Z</time>
      </trkpt>
      <trkpt lat="47.58155" lon="5.46831">
        <ele>219.39999389648</ele>
        <time>2017-07-18T11:53:38Z</time>
      </trkpt>
      <trkpt lat="47.58163" lon="5.46842">
        <ele>219.39999389648</ele>
        <time>2017-07-18T11:53:40Z</time>
      </trkpt>
      <trkpt lat="47.58171" lon="5.46852">
        <ele>219.39999389648</ele>
        <time>2017-07-18T11:53:42Z</time>
      </trkpt>
      <trkpt lat="47.58186" lon="5.46869">
        <ele>220</ele>
        <time>2017-07-18T11:53:46Z</time>
      </trkpt>
      <trkpt lat="47.58208" lon="5.46887">
        <ele>220.39999389648</ele>
        <time>2017-07-18T11:53:51Z</time>
      </trkpt>
      <trkpt lat="47.58216" lon="5.46894">
        <ele>220.60000610352</ele>
        <time>2017-07-18T11:53:53Z</time>
      </trkpt>
      <trkpt lat="47.58255" lon="5.46925">
        <ele>220.80000305176</ele>
        <time>2017-07-18T11:54:01Z</time>
      </trkpt>
      <trkpt lat="47.58303" lon="5.4696">
        <ele>221</ele>
        <time>2017-07-18T11:54:10Z</time>
      </trkpt>
      <trkpt lat="47.58346" lon="5.46985">
        <ele>221.19999694824</ele>
        <time>2017-07-18T11:54:18Z</time>
      </trkpt>
      <trkpt lat="47.58367" lon="5.46997">
        <ele>221.39999389648</ele>
        <time>2017-07-18T11:54:22Z</time>
      </trkpt>
      <trkpt lat="47.58386" lon="5.47009">
        <ele>221.80000305176</ele>
        <time>2017-07-18T11:54:26Z</time>
      </trkpt>
      <trkpt lat="47.58414" lon="5.47023">
        <ele>222.60000610352</ele>
        <time>2017-07-18T11:54:32Z</time>
      </trkpt>
      <trkpt lat="47.58427" lon="5.47031">
        <ele>223</ele>
        <time>2017-07-18T11:54:35Z</time>
      </trkpt>
      <trkpt lat="47.58454" lon="5.47044">
        <ele>223.39999389648</ele>
        <time>2017-07-18T11:54:41Z</time>
      </trkpt>
      <trkpt lat="47.58468" lon="5.4705">
        <ele>223.80000305176</ele>
        <time>2017-07-18T11:54:44Z</time>
      </trkpt>
      <trkpt lat="47.58497" lon="5.47064">
        <ele>224.19999694824</ele>
        <time>2017-07-18T11:54:50Z</time>
      </trkpt>
      <trkpt lat="47.58536" lon="5.4708">
        <ele>224.80000305176</ele>
        <time>2017-07-18T11:54:58Z</time>
      </trkpt>
      <trkpt lat="47.58581" lon="5.47101">
        <ele>225.39999389648</ele>
        <time>2017-07-18T11:55:07Z</time>
      </trkpt>
      <trkpt lat="47.5862" lon="5.47121">
        <ele>225.80000305176</ele>
        <time>2017-07-18T11:55:15Z</time>
      </trkpt>
      <trkpt lat="47.58625" lon="5.47124">
        <ele>225.80000305176</ele>
        <time>2017-07-18T11:55:16Z</time>
      </trkpt>
      <trkpt lat="47.58665" lon="5.47157">
        <ele>226.60000610352</ele>
        <time>2017-07-18T11:55:25Z</time>
      </trkpt>
      <trkpt lat="47.58677" lon="5.47168">
        <ele>226.80000305176</ele>
        <time>2017-07-18T11:55:28Z</time>
      </trkpt>
      <trkpt lat="47.58706" lon="5.47195">
        <ele>227.60000610352</ele>
        <time>2017-07-18T11:55:35Z</time>
      </trkpt>
      <trkpt lat="47.58726" lon="5.47215">
        <ele>228</ele>
        <time>2017-07-18T11:55:40Z</time>
      </trkpt>
      <trkpt lat="47.58754" lon="5.47243">
        <ele>228.39999389648</ele>
        <time>2017-07-18T11:55:47Z</time>
      </trkpt>
      <trkpt lat="47.5879" lon="5.47277">
        <ele>228.60000610352</ele>
        <time>2017-07-18T11:55:55Z</time>
      </trkpt>
      <trkpt lat="47.58821" lon="5.47307">
        <ele>229</ele>
        <time>2017-07-18T11:56:02Z</time>
      </trkpt>
      <trkpt lat="47.58834" lon="5.47319">
        <ele>229</ele>
        <time>2017-07-18T11:56:05Z</time>
      </trkpt>
      <trkpt lat="47.58879" lon="5.47362">
        <ele>229.60000610352</ele>
        <time>2017-07-18T11:56:15Z</time>
      </trkpt>
      <trkpt lat="47.58925" lon="5.47408">
        <ele>229.60000610352</ele>
        <time>2017-07-18T11:56:25Z</time>
      </trkpt>
      <trkpt lat="47.58952" lon="5.47448">
        <ele>229.39999389648</ele>
        <time>2017-07-18T11:56:32Z</time>
      </trkpt>
      <trkpt lat="47.58969" lon="5.47486">
        <ele>229.80000305176</ele>
        <time>2017-07-18T11:56:38Z</time>
      </trkpt>
      <trkpt lat="47.58976" lon="5.47507">
        <ele>230</ele>
        <time>2017-07-18T11:56:41Z</time>
      </trkpt>
      <trkpt lat="47.58989" lon="5.47544">
        <ele>230</ele>
        <time>2017-07-18T11:56:46Z</time>
      </trkpt>
      <trkpt lat="47.59005" lon="5.47581">
        <ele>230.19999694824</ele>
        <time>2017-07-18T11:56:52Z</time>
      </trkpt>
      <trkpt lat="47.59007" lon="5.47587">
        <ele>230.19999694824</ele>
        <time>2017-07-18T11:56:53Z</time>
      </trkpt>
      <trkpt lat="47.5902" lon="5.47612">
        <ele>231</ele>
        <time>2017-07-18T11:56:58Z</time>
      </trkpt>
      <trkpt lat="47.59022" lon="5.47616">
        <ele>231.19999694824</ele>
        <time>2017-07-18T11:56:59Z</time>
      </trkpt>
      <trkpt lat="47.59036" lon="5.47644">
        <ele>232.19999694824</ele>
        <time>2017-07-18T11:57:06Z</time>
      </trkpt>
      <trkpt lat="47.5904" lon="5.47653">
        <ele>232.80000305176</ele>
        <time>2017-07-18T11:57:08Z</time>
      </trkpt>
      <trkpt lat="47.59046" lon="5.47666">
        <ele>233.39999389648</ele>
        <time>2017-07-18T11:57:11Z</time>
      </trkpt>
      <trkpt lat="47.59057" lon="5.47686">
        <ele>234.19999694824</ele>
        <time>2017-07-18T11:57:16Z</time>
      </trkpt>
      <trkpt lat="47.59061" lon="5.47695">
        <ele>234.39999389648</ele>
        <time>2017-07-18T11:57:18Z</time>
      </trkpt>
      <trkpt lat="47.59078" lon="5.47727">
        <ele>235.39999389648</ele>
        <time>2017-07-18T11:57:26Z</time>
      </trkpt>
      <trkpt lat="47.59093" lon="5.47758">
        <ele>236.39999389648</ele>
        <time>2017-07-18T11:57:34Z</time>
      </trkpt>
      <trkpt lat="47.59095" lon="5.47762">
        <ele>236.60000610352</ele>
        <time>2017-07-18T11:57:35Z</time>
      </trkpt>
      <trkpt lat="47.59105" lon="5.47781">
        <ele>237.19999694824</ele>
        <time>2017-07-18T11:57:40Z</time>
      </trkpt>
      <trkpt lat="47.59112" lon="5.47794">
        <ele>237.80000305176</ele>
        <time>2017-07-18T11:57:44Z</time>
      </trkpt>
      <trkpt lat="47.59115" lon="5.478">
        <ele>238</ele>
        <time>2017-07-18T11:57:46Z</time>
      </trkpt>
      <trkpt lat="47.59126" lon="5.47822">
        <ele>238.80000305176</ele>
        <time>2017-07-18T11:57:53Z</time>
      </trkpt>
      <trkpt lat="47.59137" lon="5.47842">
        <ele>240</ele>
        <time>2017-07-18T11:58:00Z</time>
      </trkpt>
      <trkpt lat="47.59138" lon="5.47845">
        <ele>240.19999694824</ele>
        <time>2017-07-18T11:58:01Z</time>
      </trkpt>
      <trkpt lat="47.59147" lon="5.4786">
        <ele>241</ele>
        <time>2017-07-18T11:58:07Z</time>
      </trkpt>
      <trkpt lat="47.59162" lon="5.47886">
        <ele>242.19999694824</ele>
        <time>2017-07-18T11:58:13Z</time>
      </trkpt>
      <trkpt lat="47.59173" lon="5.47907">
        <ele>243</ele>
        <time>2017-07-18T11:58:18Z</time>
      </trkpt>
      <trkpt lat="47.59178" lon="5.47916">
        <ele>243.39999389648</ele>
        <time>2017-07-18T11:58:20Z</time>
      </trkpt>
      <trkpt lat="47.59187" lon="5.47935">
        <ele>244</ele>
        <time>2017-07-18T11:58:24Z</time>
      </trkpt>
      <trkpt lat="47.59192" lon="5.47947">
        <ele>244.39999389648</ele>
        <time>2017-07-18T11:58:27Z</time>
      </trkpt>
      <trkpt lat="47.592" lon="5.47964">
        <ele>244.80000305176</ele>
        <time>2017-07-18T11:58:31Z</time>
      </trkpt>
      <trkpt lat="47.59217" lon="5.47996">
        <ele>245.39999389648</ele>
        <time>2017-07-18T11:58:38Z</time>
      </trkpt>
      <trkpt lat="47.59237" lon="5.48036">
        <ele>245.39999389648</ele>
        <time>2017-07-18T11:58:45Z</time>
      </trkpt>
      <trkpt lat="47.59253" lon="5.48071">
        <ele>244.80000305176</ele>
        <time>2017-07-18T11:58:51Z</time>
      </trkpt>
      <trkpt lat="47.59271" lon="5.48112">
        <ele>244.60000610352</ele>
        <time>2017-07-18T11:58:58Z</time>
      </trkpt>
      <trkpt lat="47.59293" lon="5.4815">
        <ele>244.39999389648</ele>
        <time>2017-07-18T11:59:03Z</time>
      </trkpt>
      <trkpt lat="47.59327" lon="5.48212">
        <ele>244</ele>
        <time>2017-07-18T11:59:11Z</time>
      </trkpt>
      <trkpt lat="47.59331" lon="5.48219">
        <ele>244</ele>
        <time>2017-07-18T11:59:12Z</time>
      </trkpt>
      <trkpt lat="47.59358" lon="5.48278">
        <ele>243.80000305176</ele>
        <time>2017-07-18T11:59:20Z</time>
      </trkpt>
      <trkpt lat="47.59384" lon="5.48341">
        <ele>244</ele>
        <time>2017-07-18T11:59:29Z</time>
      </trkpt>
      <trkpt lat="47.59412" lon="5.48409">
        <ele>245</ele>
        <time>2017-07-18T11:59:40Z</time>
      </trkpt>
      <trkpt lat="47.59429" lon="5.4845">
        <ele>244.80000305176</ele>
        <time>2017-07-18T11:59:47Z</time>
      </trkpt>
      <trkpt lat="47.59431" lon="5.48456">
        <ele>244.80000305176</ele>
        <time>2017-07-18T11:59:48Z</time>
      </trkpt>
      <trkpt lat="47.59448" lon="5.48499">
        <ele>245</ele>
        <time>2017-07-18T11:59:55Z</time>
      </trkpt>
      <trkpt lat="47.59451" lon="5.48504">
        <ele>245</ele>
        <time>2017-07-18T11:59:56Z</time>
      </trkpt>
      <trkpt lat="47.59467" lon="5.48548">
        <ele>245.39999389648</ele>
        <time>2017-07-18T12:00:03Z</time>
      </trkpt>
      <trkpt lat="47.5947" lon="5.48555">
        <ele>245.39999389648</ele>
        <time>2017-07-18T12:00:04Z</time>
      </trkpt>
      <trkpt lat="47.59492" lon="5.4861">
        <ele>246.19999694824</ele>
        <time>2017-07-18T12:00:13Z</time>
      </trkpt>
      <trkpt lat="47.59513" lon="5.48662">
        <ele>246.19999694824</ele>
        <time>2017-07-18T12:00:20Z</time>
      </trkpt>
      <trkpt lat="47.59539" lon="5.48725">
        <ele>244.60000610352</ele>
        <time>2017-07-18T12:00:27Z</time>
      </trkpt>
      <trkpt lat="47.59544" lon="5.48734">
        <ele>244.39999389648</ele>
        <time>2017-07-18T12:00:28Z</time>
      </trkpt>
      <trkpt lat="47.5956" lon="5.48762">
        <ele>243.80000305176</ele>
        <time>2017-07-18T12:00:31Z</time>
      </trkpt>
      <trkpt lat="47.59567" lon="5.4877">
        <ele>243.19999694824</ele>
        <time>2017-07-18T12:00:32Z</time>
      </trkpt>
      <trkpt lat="47.59589" lon="5.48791">
        <ele>242.39999389648</ele>
        <time>2017-07-18T12:00:35Z</time>
      </trkpt>
      <trkpt lat="47.59597" lon="5.48797">
        <ele>242</ele>
        <time>2017-07-18T12:00:36Z</time>
      </trkpt>
      <trkpt lat="47.59605" lon="5.48803">
        <ele>241.80000305176</ele>
        <time>2017-07-18T12:00:37Z</time>
      </trkpt>
      <trkpt lat="47.59622" lon="5.48812">
        <ele>241</ele>
        <time>2017-07-18T12:00:39Z</time>
      </trkpt>
      <trkpt lat="47.59639" lon="5.48817">
        <ele>240.39999389648</ele>
        <time>2017-07-18T12:00:41Z</time>
      </trkpt>
      <trkpt lat="47.59656" lon="5.48821">
        <ele>239.80000305176</ele>
        <time>2017-07-18T12:00:43Z</time>
      </trkpt>
      <trkpt lat="47.59695" lon="5.48828">
        <ele>239</ele>
        <time>2017-07-18T12:00:48Z</time>
      </trkpt>
      <trkpt lat="47.59702" lon="5.4883">
        <ele>238.80000305176</ele>
        <time>2017-07-18T12:00:49Z</time>
      </trkpt>
      <trkpt lat="47.59736" lon="5.48836">
        <ele>238.39999389648</ele>
        <time>2017-07-18T12:00:54Z</time>
      </trkpt>
      <trkpt lat="47.59785" lon="5.48853">
        <ele>239.19999694824</ele>
        <time>2017-07-18T12:01:02Z</time>
      </trkpt>
      <trkpt lat="47.59829" lon="5.48881">
        <ele>239.60000610352</ele>
        <time>2017-07-18T12:01:10Z</time>
      </trkpt>
      <trkpt lat="47.59834" lon="5.48885">
        <ele>239.60000610352</ele>
        <time>2017-07-18T12:01:11Z</time>
      </trkpt>
      <trkpt lat="47.59847" lon="5.48901">
        <ele>239.80000305176</ele>
        <time>2017-07-18T12:01:14Z</time>
      </trkpt>
      <trkpt lat="47.59852" lon="5.48906">
        <ele>239.80000305176</ele>
        <time>2017-07-18T12:01:15Z</time>
      </trkpt>
      <trkpt lat="47.59872" lon="5.48933">
        <ele>240.19999694824</ele>
        <time>2017-07-18T12:01:20Z</time>
      </trkpt>
      <trkpt lat="47.59893" lon="5.48966">
        <ele>240.80000305176</ele>
        <time>2017-07-18T12:01:26Z</time>
      </trkpt>
      <trkpt lat="47.599" lon="5.48977">
        <ele>241</ele>
        <time>2017-07-18T12:01:28Z</time>
      </trkpt>
      <trkpt lat="47.59918" lon="5.49015">
        <ele>242</ele>
        <time>2017-07-18T12:01:35Z</time>
      </trkpt>
      <trkpt lat="47.59921" lon="5.49019">
        <ele>242</ele>
        <time>2017-07-18T12:01:36Z</time>
      </trkpt>
      <trkpt lat="47.59937" lon="5.49053">
        <ele>243</ele>
        <time>2017-07-18T12:01:43Z</time>
      </trkpt>
      <trkpt lat="47.59952" lon="5.49085">
        <ele>244</ele>
        <time>2017-07-18T12:01:50Z</time>
      </trkpt>
      <trkpt lat="47.59954" lon="5.49089">
        <ele>244.19999694824</ele>
        <time>2017-07-18T12:01:51Z</time>
      </trkpt>
      <trkpt lat="47.59974" lon="5.49129">
        <ele>244.60000610352</ele>
        <time>2017-07-18T12:02:00Z</time>
      </trkpt>
      <trkpt lat="47.59983" lon="5.49147">
        <ele>245.19999694824</ele>
        <time>2017-07-18T12:02:04Z</time>
      </trkpt>
      <trkpt lat="47.59994" lon="5.49169">
        <ele>246</ele>
        <time>2017-07-18T12:02:09Z</time>
      </trkpt>
      <trkpt lat="47.59997" lon="5.49173">
        <ele>246.19999694824</ele>
        <time>2017-07-18T12:02:10Z</time>
      </trkpt>
      <trkpt lat="47.60012" lon="5.492">
        <ele>247</ele>
        <time>2017-07-18T12:02:16Z</time>
      </trkpt>
      <trkpt lat="47.60017" lon="5.49208">
        <ele>247.19999694824</ele>
        <time>2017-07-18T12:02:18Z</time>
      </trkpt>
      <trkpt lat="47.60037" lon="5.49236">
        <ele>247.80000305176</ele>
        <time>2017-07-18T12:02:25Z</time>
      </trkpt>
      <trkpt lat="47.60051" lon="5.49255">
        <ele>248.39999389648</ele>
        <time>2017-07-18T12:02:30Z</time>
      </trkpt>
      <trkpt lat="47.60062" lon="5.49271">
        <ele>249</ele>
        <time>2017-07-18T12:02:34Z</time>
      </trkpt>
      <trkpt lat="47.60075" lon="5.49285">
        <ele>249.39999389648</ele>
        <time>2017-07-18T12:02:38Z</time>
      </trkpt>
      <trkpt lat="47.60082" lon="5.49292">
        <ele>249.60000610352</ele>
        <time>2017-07-18T12:02:40Z</time>
      </trkpt>
      <trkpt lat="47.60116" lon="5.49325">
        <ele>249.80000305176</ele>
        <time>2017-07-18T12:02:48Z</time>
      </trkpt>
      <trkpt lat="47.60146" lon="5.49355">
        <ele>249.19999694824</ele>
        <time>2017-07-18T12:02:54Z</time>
      </trkpt>
      <trkpt lat="47.60187" lon="5.49394">
        <ele>248.60000610352</ele>
        <time>2017-07-18T12:03:02Z</time>
      </trkpt>
      <trkpt lat="47.60198" lon="5.49404">
        <ele>248.39999389648</ele>
        <time>2017-07-18T12:03:04Z</time>
      </trkpt>
      <trkpt lat="47.60231" lon="5.49436">
        <ele>247.80000305176</ele>
        <time>2017-07-18T12:03:10Z</time>
      </trkpt>
      <trkpt lat="47.60266" lon="5.49473">
        <ele>247.19999694824</ele>
        <time>2017-07-18T12:03:16Z</time>
      </trkpt>
      <trkpt lat="47.60272" lon="5.49479">
        <ele>247.19999694824</ele>
        <time>2017-07-18T12:03:17Z</time>
      </trkpt>
      <trkpt lat="47.60303" lon="5.49515">
        <ele>246.19999694824</ele>
        <time>2017-07-18T12:03:22Z</time>
      </trkpt>
      <trkpt lat="47.60316" lon="5.49529">
        <ele>245.80000305176</ele>
        <time>2017-07-18T12:03:24Z</time>
      </trkpt>
      <trkpt lat="47.60358" lon="5.49582">
        <ele>245.19999694824</ele>
        <time>2017-07-18T12:03:31Z</time>
      </trkpt>
      <trkpt lat="47.6037" lon="5.49597">
        <ele>245</ele>
        <time>2017-07-18T12:03:33Z</time>
      </trkpt>
      <trkpt lat="47.60412" lon="5.49653">
        <ele>244.19999694824</ele>
        <time>2017-07-18T12:03:40Z</time>
      </trkpt>
      <trkpt lat="47.60429" lon="5.49678">
        <ele>244</ele>
        <time>2017-07-18T12:03:43Z</time>
      </trkpt>
      <trkpt lat="47.60471" lon="5.49743">
        <ele>243.39999389648</ele>
        <time>2017-07-18T12:03:51Z</time>
      </trkpt>
      <trkpt lat="47.60476" lon="5.49751">
        <ele>243.19999694824</ele>
        <time>2017-07-18T12:03:52Z</time>
      </trkpt>
      <trkpt lat="47.60513" lon="5.49816">
        <ele>243.39999389648</ele>
        <time>2017-07-18T12:04:00Z</time>
      </trkpt>
      <trkpt lat="47.60518" lon="5.49824">
        <ele>243.39999389648</ele>
        <time>2017-07-18T12:04:01Z</time>
      </trkpt>
      <trkpt lat="47.60553" lon="5.49887">
        <ele>242.80000305176</ele>
        <time>2017-07-18T12:04:09Z</time>
      </trkpt>
      <trkpt lat="47.60557" lon="5.49895">
        <ele>242.80000305176</ele>
        <time>2017-07-18T12:04:10Z</time>
      </trkpt>
      <trkpt lat="47.60593" lon="5.49957">
        <ele>242.80000305176</ele>
        <time>2017-07-18T12:04:18Z</time>
      </trkpt>
      <trkpt lat="47.60605" lon="5.49981">
        <ele>243</ele>
        <time>2017-07-18T12:04:21Z</time>
      </trkpt>
      <trkpt lat="47.60639" lon="5.50042">
        <ele>242.80000305176</ele>
        <time>2017-07-18T12:04:29Z</time>
      </trkpt>
      <trkpt lat="47.60677" lon="5.50111">
        <ele>243</ele>
        <time>2017-07-18T12:04:38Z</time>
      </trkpt>
      <trkpt lat="47.60686" lon="5.50127">
        <ele>243</ele>
        <time>2017-07-18T12:04:40Z</time>
      </trkpt>
      <trkpt lat="47.60724" lon="5.50194">
        <ele>243</ele>
        <time>2017-07-18T12:04:49Z</time>
      </trkpt>
      <trkpt lat="47.60731" lon="5.50209">
        <ele>243</ele>
        <time>2017-07-18T12:04:51Z</time>
      </trkpt>
      <trkpt lat="47.60761" lon="5.50263">
        <ele>243.19999694824</ele>
        <time>2017-07-18T12:04:59Z</time>
      </trkpt>
      <trkpt lat="47.6079" lon="5.50315">
        <ele>243.60000610352</ele>
        <time>2017-07-18T12:05:07Z</time>
      </trkpt>
      <trkpt lat="47.60821" lon="5.50372">
        <ele>243.39999389648</ele>
        <time>2017-07-18T12:05:15Z</time>
      </trkpt>
      <trkpt lat="47.60859" lon="5.50441">
        <ele>242.80000305176</ele>
        <time>2017-07-18T12:05:24Z</time>
      </trkpt>
      <trkpt lat="47.60868" lon="5.50456">
        <ele>242.80000305176</ele>
        <time>2017-07-18T12:05:26Z</time>
      </trkpt>
      <trkpt lat="47.60898" lon="5.50512">
        <ele>242.19999694824</ele>
        <time>2017-07-18T12:05:33Z</time>
      </trkpt>
      <trkpt lat="47.6093" lon="5.50567">
        <ele>241.80000305176</ele>
        <time>2017-07-18T12:05:40Z</time>
      </trkpt>
      <trkpt lat="47.60935" lon="5.50574">
        <ele>241.80000305176</ele>
        <time>2017-07-18T12:05:41Z</time>
      </trkpt>
      <trkpt lat="47.60962" lon="5.50615">
        <ele>241.39999389648</ele>
        <time>2017-07-18T12:05:47Z</time>
      </trkpt>
      <trkpt lat="47.60989" lon="5.50652">
        <ele>240.80000305176</ele>
        <time>2017-07-18T12:05:53Z</time>
      </trkpt>
      <trkpt lat="47.60998" lon="5.50662">
        <ele>240.80000305176</ele>
        <time>2017-07-18T12:05:55Z</time>
      </trkpt>
      <trkpt lat="47.61009" lon="5.5068">
        <ele>240.60000610352</ele>
        <time>2017-07-18T12:05:58Z</time>
      </trkpt>
      <trkpt lat="47.61013" lon="5.50685">
        <ele>240.60000610352</ele>
        <time>2017-07-18T12:05:59Z</time>
      </trkpt>
      <trkpt lat="47.61026" lon="5.50698">
        <ele>240.19999694824</ele>
        <time>2017-07-18T12:06:02Z</time>
      </trkpt>
      <trkpt lat="47.61032" lon="5.5071">
        <ele>240.19999694824</ele>
        <time>2017-07-18T12:06:04Z</time>
      </trkpt>
      <trkpt lat="47.61043" lon="5.50724">
        <ele>240</ele>
        <time>2017-07-18T12:06:07Z</time>
      </trkpt>
      <trkpt lat="47.61048" lon="5.50729">
        <ele>240</ele>
        <time>2017-07-18T12:06:08Z</time>
      </trkpt>
      <trkpt lat="47.6106" lon="5.50746">
        <ele>239.80000305176</ele>
        <time>2017-07-18T12:06:11Z</time>
      </trkpt>
      <trkpt lat="47.61078" lon="5.5077">
        <ele>239.60000610352</ele>
        <time>2017-07-18T12:06:15Z</time>
      </trkpt>
      <trkpt lat="47.61117" lon="5.50823">
        <ele>238.80000305176</ele>
        <time>2017-07-18T12:06:23Z</time>
      </trkpt>
      <trkpt lat="47.61159" lon="5.5088">
        <ele>237.80000305176</ele>
        <time>2017-07-18T12:06:31Z</time>
      </trkpt>
      <trkpt lat="47.61165" lon="5.50886">
        <ele>237.60000610352</ele>
        <time>2017-07-18T12:06:32Z</time>
      </trkpt>
      <trkpt lat="47.61171" lon="5.50893">
        <ele>237.39999389648</ele>
        <time>2017-07-18T12:06:33Z</time>
      </trkpt>
      <trkpt lat="47.61194" lon="5.50921">
        <ele>236.39999389648</ele>
        <time>2017-07-18T12:06:37Z</time>
      </trkpt>
      <trkpt lat="47.61209" lon="5.50944">
        <ele>236</ele>
        <time>2017-07-18T12:06:40Z</time>
      </trkpt>
      <trkpt lat="47.61225" lon="5.5098">
        <ele>235.39999389648</ele>
        <time>2017-07-18T12:06:44Z</time>
      </trkpt>
      <trkpt lat="47.61233" lon="5.50997">
        <ele>235.19999694824</ele>
        <time>2017-07-18T12:06:46Z</time>
      </trkpt>
      <trkpt lat="47.61263" lon="5.51066">
        <ele>234.39999389648</ele>
        <time>2017-07-18T12:06:54Z</time>
      </trkpt>
      <trkpt lat="47.61267" lon="5.51074">
        <ele>234.39999389648</ele>
        <time>2017-07-18T12:06:55Z</time>
      </trkpt>
      <trkpt lat="47.61296" lon="5.51141">
        <ele>233.80000305176</ele>
        <time>2017-07-18T12:07:03Z</time>
      </trkpt>
      <trkpt lat="47.613" lon="5.5115">
        <ele>233.60000610352</ele>
        <time>2017-07-18T12:07:04Z</time>
      </trkpt>
      <trkpt lat="47.61307" lon="5.51166">
        <ele>233.39999389648</ele>
        <time>2017-07-18T12:07:06Z</time>
      </trkpt>
      <trkpt lat="47.61331" lon="5.51213">
        <ele>232.60000610352</ele>
        <time>2017-07-18T12:07:12Z</time>
      </trkpt>
      <trkpt lat="47.6134" lon="5.5123">
        <ele>232.19999694824</ele>
        <time>2017-07-18T12:07:14Z</time>
      </trkpt>
      <trkpt lat="47.61361" lon="5.51267">
        <ele>231.60000610352</ele>
        <time>2017-07-18T12:07:18Z</time>
      </trkpt>
      <trkpt lat="47.61366" lon="5.51277">
        <ele>231.19999694824</ele>
        <time>2017-07-18T12:07:19Z</time>
      </trkpt>
      <trkpt lat="47.61376" lon="5.51296">
        <ele>230</ele>
        <time>2017-07-18T12:07:21Z</time>
      </trkpt>
      <trkpt lat="47.61391" lon="5.51326">
        <ele>229.19999694824</ele>
        <time>2017-07-18T12:07:24Z</time>
      </trkpt>
      <trkpt lat="47.61396" lon="5.51335">
        <ele>229</ele>
        <time>2017-07-18T12:07:25Z</time>
      </trkpt>
      <trkpt lat="47.61417" lon="5.51369">
        <ele>227.80000305176</ele>
        <time>2017-07-18T12:07:29Z</time>
      </trkpt>
      <trkpt lat="47.61421" lon="5.51376">
        <ele>227.39999389648</ele>
        <time>2017-07-18T12:07:30Z</time>
      </trkpt>
      <trkpt lat="47.6143" lon="5.51391">
        <ele>226.39999389648</ele>
        <time>2017-07-18T12:07:32Z</time>
      </trkpt>
      <trkpt lat="47.61439" lon="5.51405">
        <ele>225.39999389648</ele>
        <time>2017-07-18T12:07:34Z</time>
      </trkpt>
      <trkpt lat="47.61449" lon="5.51423">
        <ele>224.60000610352</ele>
        <time>2017-07-18T12:07:37Z</time>
      </trkpt>
      <trkpt lat="47.61452" lon="5.51432">
        <ele>224</ele>
        <time>2017-07-18T12:07:39Z</time>
      </trkpt>
      <trkpt lat="47.61454" lon="5.51435">
        <ele>223.60000610352</ele>
        <time>2017-07-18T12:07:41Z</time>
      </trkpt>
      <trkpt lat="47.61452" lon="5.51439">
        <ele>222.39999389648</ele>
        <time>2017-07-18T12:07:53Z</time>
      </trkpt>
      <trkpt lat="47.61451" lon="5.5144">
        <ele>222.39999389648</ele>
        <time>2017-07-18T12:07:54Z</time>
      </trkpt>
      <trkpt lat="47.61453" lon="5.51439">
        <ele>222.39999389648</ele>
        <time>2017-07-18T12:08:07Z</time>
      </trkpt>
      <trkpt lat="47.61456" lon="5.51437">
        <ele>222.19999694824</ele>
        <time>2017-07-18T12:08:17Z</time>
      </trkpt>
      <trkpt lat="47.61463" lon="5.51432">
        <ele>222.19999694824</ele>
        <time>2017-07-18T12:08:20Z</time>
      </trkpt>
      <trkpt lat="47.61482" lon="5.51418">
        <ele>222</ele>
        <time>2017-07-18T12:08:26Z</time>
      </trkpt>
      <trkpt lat="47.61486" lon="5.51415">
        <ele>222</ele>
        <time>2017-07-18T12:08:27Z</time>
      </trkpt>
      <trkpt lat="47.61519" lon="5.51392">
        <ele>221.80000305176</ele>
        <time>2017-07-18T12:08:35Z</time>
      </trkpt>
      <trkpt lat="47.6154" lon="5.51379">
        <ele>221.80000305176</ele>
        <time>2017-07-18T12:08:41Z</time>
      </trkpt>
      <trkpt lat="47.61553" lon="5.5137">
        <ele>222.19999694824</ele>
        <time>2017-07-18T12:08:47Z</time>
      </trkpt>
      <trkpt lat="47.61568" lon="5.51361">
        <ele>222.80000305176</ele>
        <time>2017-07-18T12:10:19Z</time>
      </trkpt>
      <trkpt lat="47.61573" lon="5.51356">
        <ele>223</ele>
        <time>2017-07-18T12:10:22Z</time>
      </trkpt>
      <trkpt lat="47.61583" lon="5.51347">
        <ele>223.39999389648</ele>
        <time>2017-07-18T12:10:26Z</time>
      </trkpt>
      <trkpt lat="47.61593" lon="5.51341">
        <ele>224.19999694824</ele>
        <time>2017-07-18T12:10:30Z</time>
      </trkpt>
      <trkpt lat="47.61598" lon="5.51337">
        <ele>224.39999389648</ele>
        <time>2017-07-18T12:10:32Z</time>
      </trkpt>
      <trkpt lat="47.61611" lon="5.51323">
        <ele>225.60000610352</ele>
        <time>2017-07-18T12:10:37Z</time>
      </trkpt>
      <trkpt lat="47.61615" lon="5.51317">
        <ele>226</ele>
        <time>2017-07-18T12:10:39Z</time>
      </trkpt>
      <trkpt lat="47.61628" lon="5.51306">
        <ele>226.60000610352</ele>
        <time>2017-07-18T12:10:44Z</time>
      </trkpt>
      <trkpt lat="47.61638" lon="5.513">
        <ele>227.19999694824</ele>
        <time>2017-07-18T12:10:47Z</time>
      </trkpt>
      <trkpt lat="47.61663" lon="5.51285">
        <ele>227.60000610352</ele>
        <time>2017-07-18T12:10:54Z</time>
      </trkpt>
      <trkpt lat="47.6167" lon="5.51279">
        <ele>227.80000305176</ele>
        <time>2017-07-18T12:10:56Z</time>
      </trkpt>
      <trkpt lat="47.61687" lon="5.51266">
        <ele>228</ele>
        <time>2017-07-18T12:11:01Z</time>
      </trkpt>
      <trkpt lat="47.61697" lon="5.51247">
        <ele>227.80000305176</ele>
        <time>2017-07-18T12:11:06Z</time>
      </trkpt>
      <trkpt lat="47.61696" lon="5.51226">
        <ele>228.60000610352</ele>
        <time>2017-07-18T12:11:12Z</time>
      </trkpt>
      <trkpt lat="47.61696" lon="5.51223">
        <ele>228.80000305176</ele>
        <time>2017-07-18T12:11:13Z</time>
      </trkpt>
      <trkpt lat="47.61697" lon="5.51209">
        <ele>229.80000305176</ele>
        <time>2017-07-18T12:11:18Z</time>
      </trkpt>
      <trkpt lat="47.61698" lon="5.51206">
        <ele>230.19999694824</ele>
        <time>2017-07-18T12:11:19Z</time>
      </trkpt>
      <trkpt lat="47.617" lon="5.51196">
        <ele>231.19999694824</ele>
        <time>2017-07-18T12:11:23Z</time>
      </trkpt>
      <trkpt lat="47.617" lon="5.51191">
        <ele>231.60000610352</ele>
        <time>2017-07-18T12:11:25Z</time>
      </trkpt>
      <trkpt lat="47.61701" lon="5.51183">
        <ele>232</ele>
        <time>2017-07-18T12:11:28Z</time>
      </trkpt>
      <trkpt lat="47.61702" lon="5.51177">
        <ele>232.39999389648</ele>
        <time>2017-07-18T12:11:30Z</time>
      </trkpt>
      <trkpt lat="47.61702" lon="5.51174">
        <ele>232.60000610352</ele>
        <time>2017-07-18T12:11:31Z</time>
      </trkpt>
      <trkpt lat="47.61702" lon="5.51165">
        <ele>233</ele>
        <time>2017-07-18T12:11:34Z</time>
      </trkpt>
      <trkpt lat="47.61703" lon="5.51159">
        <ele>233.39999389648</ele>
        <time>2017-07-18T12:11:36Z</time>
      </trkpt>
      <trkpt lat="47.61703" lon="5.51154">
        <ele>233.80000305176</ele>
        <time>2017-07-18T12:11:38Z</time>
      </trkpt>
      <trkpt lat="47.61703" lon="5.5114">
        <ele>234.60000610352</ele>
        <time>2017-07-18T12:11:43Z</time>
      </trkpt>
      <trkpt lat="47.61702" lon="5.51138">
        <ele>234.80000305176</ele>
        <time>2017-07-18T12:11:44Z</time>
      </trkpt>
      <trkpt lat="47.61693" lon="5.51135">
        <ele>235.39999389648</ele>
        <time>2017-07-18T12:11:48Z</time>
      </trkpt>
      <trkpt lat="47.61692" lon="5.51134">
        <ele>235.60000610352</ele>
        <time>2017-07-18T12:11:49Z</time>
      </trkpt>
      <trkpt lat="47.61688" lon="5.51131">
        <ele>236</ele>
        <time>2017-07-18T12:11:52Z</time>
      </trkpt>
      <trkpt lat="47.61688" lon="5.5113">
        <ele>236.19999694824</ele>
        <time>2017-07-18T12:11:53Z</time>
      </trkpt>
      <trkpt lat="47.61685" lon="5.51128">
        <ele>236.80000305176</ele>
        <time>2017-07-18T12:11:56Z</time>
      </trkpt>
      <trkpt lat="47.61681" lon="5.51143">
        <ele>239.60000610352</ele>
        <time>2017-07-18T12:32:38Z</time>
      </trkpt>
      <trkpt lat="47.61691" lon="5.51143">
        <ele>239.19999694824</ele>
        <time>2017-07-18T12:33:27Z</time>
      </trkpt>
      <trkpt lat="47.61696" lon="5.51145">
        <ele>239.19999694824</ele>
        <time>2017-07-18T12:33:30Z</time>
      </trkpt>
      <trkpt lat="47.61698" lon="5.51165">
        <ele>238.80000305176</ele>
        <time>2017-07-18T12:33:34Z</time>
      </trkpt>
      <trkpt lat="47.61698" lon="5.51174">
        <ele>238.39999389648</ele>
        <time>2017-07-18T12:33:35Z</time>
      </trkpt>
      <trkpt lat="47.61698" lon="5.51202">
        <ele>237.39999389648</ele>
        <time>2017-07-18T12:33:38Z</time>
      </trkpt>
      <trkpt lat="47.61698" lon="5.51228">
        <ele>236.19999694824</ele>
        <time>2017-07-18T12:33:41Z</time>
      </trkpt>
      <trkpt lat="47.61697" lon="5.51248">
        <ele>234.80000305176</ele>
        <time>2017-07-18T12:33:44Z</time>
      </trkpt>
      <trkpt lat="47.61697" lon="5.51257">
        <ele>233.60000610352</ele>
        <time>2017-07-18T12:33:46Z</time>
      </trkpt>
      <trkpt lat="47.61697" lon="5.51265">
        <ele>232.39999389648</ele>
        <time>2017-07-18T12:33:48Z</time>
      </trkpt>
      <trkpt lat="47.61696" lon="5.51268">
        <ele>232</ele>
        <time>2017-07-18T12:33:49Z</time>
      </trkpt>
      <trkpt lat="47.61695" lon="5.51271">
        <ele>230</ele>
        <time>2017-07-18T12:33:59Z</time>
      </trkpt>
      <trkpt lat="47.61695" lon="5.51274">
        <ele>230</ele>
        <time>2017-07-18T12:34:00Z</time>
      </trkpt>
      <trkpt lat="47.61693" lon="5.51276">
        <ele>230</ele>
        <time>2017-07-18T12:34:01Z</time>
      </trkpt>
      <trkpt lat="47.61688" lon="5.51277">
        <ele>230</ele>
        <time>2017-07-18T12:34:03Z</time>
      </trkpt>
      <trkpt lat="47.61682" lon="5.5128">
        <ele>230</ele>
        <time>2017-07-18T12:34:05Z</time>
      </trkpt>
      <trkpt lat="47.61675" lon="5.51284">
        <ele>230.19999694824</ele>
        <time>2017-07-18T12:34:07Z</time>
      </trkpt>
      <trkpt lat="47.61655" lon="5.51295">
        <ele>230.39999389648</ele>
        <time>2017-07-18T12:34:14Z</time>
      </trkpt>
      <trkpt lat="47.61651" lon="5.51301">
        <ele>230.60000610352</ele>
        <time>2017-07-18T12:34:17Z</time>
      </trkpt>
      <trkpt lat="47.61652" lon="5.51303">
        <ele>230.60000610352</ele>
        <time>2017-07-18T12:34:18Z</time>
      </trkpt>
      <trkpt lat="47.61657" lon="5.5131">
        <ele>230</ele>
        <time>2017-07-18T12:34:23Z</time>
      </trkpt>
      <trkpt lat="47.61657" lon="5.51325">
        <ele>229.80000305176</ele>
        <time>2017-07-18T12:34:28Z</time>
      </trkpt>
      <trkpt lat="47.61656" lon="5.51366">
        <ele>230</ele>
        <time>2017-07-18T12:34:36Z</time>
      </trkpt>
      <trkpt lat="47.61652" lon="5.51394">
        <ele>230</ele>
        <time>2017-07-18T12:34:42Z</time>
      </trkpt>
      <trkpt lat="47.61649" lon="5.51401">
        <ele>229.60000610352</ele>
        <time>2017-07-18T12:34:46Z</time>
      </trkpt>
      <trkpt lat="47.61646" lon="5.51402">
        <ele>229.60000610352</ele>
        <time>2017-07-18T12:34:47Z</time>
      </trkpt>
      <trkpt lat="47.61639" lon="5.51404">
        <ele>229.39999389648</ele>
        <time>2017-07-18T12:34:50Z</time>
      </trkpt>
      <trkpt lat="47.61637" lon="5.51405">
        <ele>229.39999389648</ele>
        <time>2017-07-18T12:34:51Z</time>
      </trkpt>
      <trkpt lat="47.61632" lon="5.51408">
        <ele>229</ele>
        <time>2017-07-18T12:34:55Z</time>
      </trkpt>
      <trkpt lat="47.61631" lon="5.51405">
        <ele>229</ele>
        <time>2017-07-18T12:34:56Z</time>
      </trkpt>
      <trkpt lat="47.6163" lon="5.51402">
        <ele>228.80000305176</ele>
        <time>2017-07-18T12:34:57Z</time>
      </trkpt>
      <trkpt lat="47.6163" lon="5.51394">
        <ele>228.80000305176</ele>
        <time>2017-07-18T12:34:59Z</time>
      </trkpt>
      <trkpt lat="47.61627" lon="5.51371">
        <ele>229</ele>
        <time>2017-07-18T12:35:04Z</time>
      </trkpt>
      <trkpt lat="47.61626" lon="5.51367">
        <ele>229</ele>
        <time>2017-07-18T12:35:05Z</time>
      </trkpt>
      <trkpt lat="47.61623" lon="5.51342">
        <ele>229.19999694824</ele>
        <time>2017-07-18T12:35:11Z</time>
      </trkpt>
      <trkpt lat="47.61622" lon="5.51334">
        <ele>229</ele>
        <time>2017-07-18T12:35:15Z</time>
      </trkpt>
      <trkpt lat="47.61621" lon="5.51334">
        <ele>228.60000610352</ele>
        <time>2017-07-18T12:35:16Z</time>
      </trkpt>
      <trkpt lat="47.61607" lon="5.51334">
        <ele>228.19999694824</ele>
        <time>2017-07-18T12:35:21Z</time>
      </trkpt>
      <trkpt lat="47.61592" lon="5.51344">
        <ele>227.80000305176</ele>
        <time>2017-07-18T12:35:25Z</time>
      </trkpt>
      <trkpt lat="47.6157" lon="5.51358">
        <ele>227</ele>
        <time>2017-07-18T12:35:30Z</time>
      </trkpt>
      <trkpt lat="47.61567" lon="5.5136">
        <ele>226.80000305176</ele>
        <time>2017-07-18T12:35:31Z</time>
      </trkpt>
      <trkpt lat="47.61558" lon="5.51364">
        <ele>225.60000610352</ele>
        <time>2017-07-18T12:35:35Z</time>
      </trkpt>
      <trkpt lat="47.61557" lon="5.51366">
        <ele>225.39999389648</ele>
        <time>2017-07-18T12:35:36Z</time>
      </trkpt>
      <trkpt lat="47.61559" lon="5.51377">
        <ele>224.60000610352</ele>
        <time>2017-07-18T12:35:39Z</time>
      </trkpt>
      <trkpt lat="47.61559" lon="5.51382">
        <ele>224.39999389648</ele>
        <time>2017-07-18T12:35:40Z</time>
      </trkpt>
      <trkpt lat="47.61552" lon="5.51387">
        <ele>224.19999694824</ele>
        <time>2017-07-18T12:35:42Z</time>
      </trkpt>
      <trkpt lat="47.61537" lon="5.51396">
        <ele>223.60000610352</ele>
        <time>2017-07-18T12:35:45Z</time>
      </trkpt>
      <trkpt lat="47.61532" lon="5.51399">
        <ele>223.19999694824</ele>
        <time>2017-07-18T12:35:46Z</time>
      </trkpt>
      <trkpt lat="47.61525" lon="5.51412">
        <ele>222</ele>
        <time>2017-07-18T12:35:49Z</time>
      </trkpt>
      <trkpt lat="47.61525" lon="5.51419">
        <ele>221.60000610352</ele>
        <time>2017-07-18T12:35:50Z</time>
      </trkpt>
      <trkpt lat="47.61526" lon="5.51435">
        <ele>220.80000305176</ele>
        <time>2017-07-18T12:35:52Z</time>
      </trkpt>
      <trkpt lat="47.61526" lon="5.51452">
        <ele>219.80000305176</ele>
        <time>2017-07-18T12:35:54Z</time>
      </trkpt>
      <trkpt lat="47.61527" lon="5.51478">
        <ele>218.60000610352</ele>
        <time>2017-07-18T12:35:57Z</time>
      </trkpt>
      <trkpt lat="47.61526" lon="5.51491">
        <ele>217.80000305176</ele>
        <time>2017-07-18T12:35:59Z</time>
      </trkpt>
      <trkpt lat="47.61527" lon="5.51497">
        <ele>217.19999694824</ele>
        <time>2017-07-18T12:36:00Z</time>
      </trkpt>
      <trkpt lat="47.61527" lon="5.51507">
        <ele>216.19999694824</ele>
        <time>2017-07-18T12:36:02Z</time>
      </trkpt>
      <trkpt lat="47.61526" lon="5.51518">
        <ele>215.19999694824</ele>
        <time>2017-07-18T12:36:04Z</time>
      </trkpt>
      <trkpt lat="47.61531" lon="5.5154">
        <ele>213.80000305176</ele>
        <time>2017-07-18T12:36:08Z</time>
      </trkpt>
      <trkpt lat="47.61536" lon="5.51545">
        <ele>213.39999389648</ele>
        <time>2017-07-18T12:36:09Z</time>
      </trkpt>
      <trkpt lat="47.61543" lon="5.51558">
        <ele>212.80000305176</ele>
        <time>2017-07-18T12:36:11Z</time>
      </trkpt>
      <trkpt lat="47.61552" lon="5.51571">
        <ele>212.19999694824</ele>
        <time>2017-07-18T12:36:14Z</time>
      </trkpt>
      <trkpt lat="47.61553" lon="5.51573">
        <ele>211.80000305176</ele>
        <time>2017-07-18T12:36:15Z</time>
      </trkpt>
      <trkpt lat="47.61554" lon="5.51574">
        <ele>211.60000610352</ele>
        <time>2017-07-18T12:36:16Z</time>
      </trkpt>
      <trkpt lat="47.61556" lon="5.51577">
        <ele>209.60000610352</ele>
        <time>2017-07-18T12:36:27Z</time>
      </trkpt>
      <trkpt lat="47.61555" lon="5.51579">
        <ele>209.60000610352</ele>
        <time>2017-07-18T12:36:29Z</time>
      </trkpt>
      <trkpt lat="47.61556" lon="5.51584">
        <ele>209.60000610352</ele>
        <time>2017-07-18T12:36:30Z</time>
      </trkpt>
      <trkpt lat="47.61565" lon="5.51611">
        <ele>209.39999389648</ele>
        <time>2017-07-18T12:36:34Z</time>
      </trkpt>
      <trkpt lat="47.61577" lon="5.51657">
        <ele>208.60000610352</ele>
        <time>2017-07-18T12:36:39Z</time>
      </trkpt>
      <trkpt lat="47.61592" lon="5.51694">
        <ele>207.39999389648</ele>
        <time>2017-07-18T12:36:43Z</time>
      </trkpt>
      <trkpt lat="47.61595" lon="5.51703">
        <ele>207</ele>
        <time>2017-07-18T12:36:44Z</time>
      </trkpt>
      <trkpt lat="47.61606" lon="5.51726">
        <ele>206.19999694824</ele>
        <time>2017-07-18T12:36:47Z</time>
      </trkpt>
      <trkpt lat="47.61617" lon="5.51747">
        <ele>206</ele>
        <time>2017-07-18T12:36:50Z</time>
      </trkpt>
      <trkpt lat="47.61633" lon="5.51782">
        <ele>205.60000610352</ele>
        <time>2017-07-18T12:36:55Z</time>
      </trkpt>
      <trkpt lat="47.61642" lon="5.5179">
        <ele>205.39999389648</ele>
        <time>2017-07-18T12:36:57Z</time>
      </trkpt>
      <trkpt lat="47.61657" lon="5.51787">
        <ele>205.19999694824</ele>
        <time>2017-07-18T12:37:00Z</time>
      </trkpt>
      <trkpt lat="47.61662" lon="5.51786">
        <ele>205.19999694824</ele>
        <time>2017-07-18T12:37:01Z</time>
      </trkpt>
      <trkpt lat="47.61681" lon="5.51782">
        <ele>205.19999694824</ele>
        <time>2017-07-18T12:37:05Z</time>
      </trkpt>
      <trkpt lat="47.61691" lon="5.51779">
        <ele>205.19999694824</ele>
        <time>2017-07-18T12:37:07Z</time>
      </trkpt>
      <trkpt lat="47.61696" lon="5.51778">
        <ele>205.19999694824</ele>
        <time>2017-07-18T12:37:08Z</time>
      </trkpt>
      <trkpt lat="47.61737" lon="5.51774">
        <ele>205.80000305176</ele>
        <time>2017-07-18T12:37:16Z</time>
      </trkpt>
      <trkpt lat="47.61773" lon="5.51778">
        <ele>206</ele>
        <time>2017-07-18T12:37:23Z</time>
      </trkpt>
      <trkpt lat="47.61783" lon="5.5178">
        <ele>206.19999694824</ele>
        <time>2017-07-18T12:37:25Z</time>
      </trkpt>
      <trkpt lat="47.61807" lon="5.51784">
        <ele>206.19999694824</ele>
        <time>2017-07-18T12:37:30Z</time>
      </trkpt>
      <trkpt lat="47.6183" lon="5.51787">
        <ele>207</ele>
        <time>2017-07-18T12:37:35Z</time>
      </trkpt>
      <trkpt lat="47.61835" lon="5.51789">
        <ele>207.19999694824</ele>
        <time>2017-07-18T12:37:36Z</time>
      </trkpt>
      <trkpt lat="47.61849" lon="5.51791">
        <ele>207.19999694824</ele>
        <time>2017-07-18T12:37:39Z</time>
      </trkpt>
      <trkpt lat="47.61862" lon="5.51794">
        <ele>207.80000305176</ele>
        <time>2017-07-18T12:37:42Z</time>
      </trkpt>
      <trkpt lat="47.61866" lon="5.51796">
        <ele>207.80000305176</ele>
        <time>2017-07-18T12:37:43Z</time>
      </trkpt>
      <trkpt lat="47.61879" lon="5.51803">
        <ele>208.19999694824</ele>
        <time>2017-07-18T12:37:46Z</time>
      </trkpt>
      <trkpt lat="47.61883" lon="5.51805">
        <ele>208.39999389648</ele>
        <time>2017-07-18T12:37:47Z</time>
      </trkpt>
      <trkpt lat="47.61912" lon="5.51824">
        <ele>209</ele>
        <time>2017-07-18T12:37:54Z</time>
      </trkpt>
      <trkpt lat="47.61923" lon="5.51832">
        <ele>209.19999694824</ele>
        <time>2017-07-18T12:37:57Z</time>
      </trkpt>
      <trkpt lat="47.61927" lon="5.51834">
        <ele>209.19999694824</ele>
        <time>2017-07-18T12:37:58Z</time>
      </trkpt>
      <trkpt lat="47.61935" lon="5.51838">
        <ele>209.39999389648</ele>
        <time>2017-07-18T12:38:00Z</time>
      </trkpt>
      <trkpt lat="47.61954" lon="5.51844">
        <ele>209.80000305176</ele>
        <time>2017-07-18T12:38:04Z</time>
      </trkpt>
      <trkpt lat="47.61964" lon="5.51846">
        <ele>209.60000610352</ele>
        <time>2017-07-18T12:38:06Z</time>
      </trkpt>
      <trkpt lat="47.61996" lon="5.51852">
        <ele>209.19999694824</ele>
        <time>2017-07-18T12:38:12Z</time>
      </trkpt>
      <trkpt lat="47.62002" lon="5.51855">
        <ele>209</ele>
        <time>2017-07-18T12:38:13Z</time>
      </trkpt>
      <trkpt lat="47.62039" lon="5.51876">
        <ele>208.60000610352</ele>
        <time>2017-07-18T12:38:20Z</time>
      </trkpt>
      <trkpt lat="47.62084" lon="5.5191">
        <ele>208.39999389648</ele>
        <time>2017-07-18T12:38:29Z</time>
      </trkpt>
      <trkpt lat="47.62125" lon="5.51937">
        <ele>208.19999694824</ele>
        <time>2017-07-18T12:38:37Z</time>
      </trkpt>
      <trkpt lat="47.62169" lon="5.51962">
        <ele>208</ele>
        <time>2017-07-18T12:38:45Z</time>
      </trkpt>
      <trkpt lat="47.62217" lon="5.51987">
        <ele>208.19999694824</ele>
        <time>2017-07-18T12:38:54Z</time>
      </trkpt>
      <trkpt lat="47.62254" lon="5.51996">
        <ele>208</ele>
        <time>2017-07-18T12:39:01Z</time>
      </trkpt>
      <trkpt lat="47.62295" lon="5.51995">
        <ele>207.80000305176</ele>
        <time>2017-07-18T12:39:09Z</time>
      </trkpt>
      <trkpt lat="47.62325" lon="5.51996">
        <ele>208.60000610352</ele>
        <time>2017-07-18T12:39:16Z</time>
      </trkpt>
      <trkpt lat="47.62345" lon="5.51997">
        <ele>209.39999389648</ele>
        <time>2017-07-18T12:39:21Z</time>
      </trkpt>
      <trkpt lat="47.62353" lon="5.51998">
        <ele>209.60000610352</ele>
        <time>2017-07-18T12:39:23Z</time>
      </trkpt>
      <trkpt lat="47.62376" lon="5.51998">
        <ele>210.39999389648</ele>
        <time>2017-07-18T12:39:29Z</time>
      </trkpt>
      <trkpt lat="47.62384" lon="5.51999">
        <ele>210.80000305176</ele>
        <time>2017-07-18T12:39:31Z</time>
      </trkpt>
      <trkpt lat="47.62403" lon="5.51999">
        <ele>211.39999389648</ele>
        <time>2017-07-18T12:39:36Z</time>
      </trkpt>
      <trkpt lat="47.62419" lon="5.52">
        <ele>212</ele>
        <time>2017-07-18T12:39:40Z</time>
      </trkpt>
      <trkpt lat="47.6244" lon="5.52008">
        <ele>212.39999389648</ele>
        <time>2017-07-18T12:39:45Z</time>
      </trkpt>
      <trkpt lat="47.62448" lon="5.52014">
        <ele>212.80000305176</ele>
        <time>2017-07-18T12:39:47Z</time>
      </trkpt>
      <trkpt lat="47.62473" lon="5.52037">
        <ele>213.39999389648</ele>
        <time>2017-07-18T12:39:54Z</time>
      </trkpt>
      <trkpt lat="47.62477" lon="5.5204">
        <ele>213.39999389648</ele>
        <time>2017-07-18T12:39:55Z</time>
      </trkpt>
      <trkpt lat="47.62495" lon="5.52058">
        <ele>213.39999389648</ele>
        <time>2017-07-18T12:40:00Z</time>
      </trkpt>
      <trkpt lat="47.6251" lon="5.52072">
        <ele>213.60000610352</ele>
        <time>2017-07-18T12:40:04Z</time>
      </trkpt>
      <trkpt lat="47.62523" lon="5.52084">
        <ele>213.80000305176</ele>
        <time>2017-07-18T12:40:08Z</time>
      </trkpt>
      <trkpt lat="47.62543" lon="5.52104">
        <ele>214.39999389648</ele>
        <time>2017-07-18T12:40:14Z</time>
      </trkpt>
      <trkpt lat="47.62546" lon="5.52108">
        <ele>214.60000610352</ele>
        <time>2017-07-18T12:40:15Z</time>
      </trkpt>
      <trkpt lat="47.62562" lon="5.52133">
        <ele>215.19999694824</ele>
        <time>2017-07-18T12:40:21Z</time>
      </trkpt>
      <trkpt lat="47.6257" lon="5.52151">
        <ele>215.60000610352</ele>
        <time>2017-07-18T12:40:25Z</time>
      </trkpt>
      <trkpt lat="47.62575" lon="5.5216">
        <ele>216</ele>
        <time>2017-07-18T12:40:27Z</time>
      </trkpt>
      <trkpt lat="47.62585" lon="5.52188">
        <ele>216.80000305176</ele>
        <time>2017-07-18T12:40:33Z</time>
      </trkpt>
      <trkpt lat="47.62587" lon="5.52193">
        <ele>216.80000305176</ele>
        <time>2017-07-18T12:40:34Z</time>
      </trkpt>
      <trkpt lat="47.62601" lon="5.52223">
        <ele>217.80000305176</ele>
        <time>2017-07-18T12:40:41Z</time>
      </trkpt>
      <trkpt lat="47.62616" lon="5.52248">
        <ele>218.39999389648</ele>
        <time>2017-07-18T12:40:47Z</time>
      </trkpt>
      <trkpt lat="47.62628" lon="5.52268">
        <ele>218.80000305176</ele>
        <time>2017-07-18T12:40:52Z</time>
      </trkpt>
      <trkpt lat="47.62634" lon="5.52276">
        <ele>219.19999694824</ele>
        <time>2017-07-18T12:40:54Z</time>
      </trkpt>
      <trkpt lat="47.62655" lon="5.52303">
        <ele>219.60000610352</ele>
        <time>2017-07-18T12:41:01Z</time>
      </trkpt>
      <trkpt lat="47.62665" lon="5.52312">
        <ele>220</ele>
        <time>2017-07-18T12:41:04Z</time>
      </trkpt>
      <trkpt lat="47.62682" lon="5.52329">
        <ele>220.39999389648</ele>
        <time>2017-07-18T12:41:09Z</time>
      </trkpt>
      <trkpt lat="47.62714" lon="5.52355">
        <ele>220.80000305176</ele>
        <time>2017-07-18T12:41:17Z</time>
      </trkpt>
      <trkpt lat="47.6273" lon="5.52369">
        <ele>221</ele>
        <time>2017-07-18T12:41:21Z</time>
      </trkpt>
      <trkpt lat="47.62763" lon="5.52397">
        <ele>221.60000610352</ele>
        <time>2017-07-18T12:41:29Z</time>
      </trkpt>
      <trkpt lat="47.6279" lon="5.52419">
        <ele>222</ele>
        <time>2017-07-18T12:41:36Z</time>
      </trkpt>
      <trkpt lat="47.62797" lon="5.52426">
        <ele>222.39999389648</ele>
        <time>2017-07-18T12:41:38Z</time>
      </trkpt>
      <trkpt lat="47.62812" lon="5.52438">
        <ele>223</ele>
        <time>2017-07-18T12:41:42Z</time>
      </trkpt>
      <trkpt lat="47.62823" lon="5.52448">
        <ele>223.39999389648</ele>
        <time>2017-07-18T12:41:45Z</time>
      </trkpt>
      <trkpt lat="47.62856" lon="5.52476">
        <ele>223.60000610352</ele>
        <time>2017-07-18T12:41:54Z</time>
      </trkpt>
      <trkpt lat="47.62871" lon="5.52488">
        <ele>224</ele>
        <time>2017-07-18T12:41:58Z</time>
      </trkpt>
      <trkpt lat="47.62884" lon="5.525">
        <ele>224.60000610352</ele>
        <time>2017-07-18T12:42:02Z</time>
      </trkpt>
      <trkpt lat="47.62898" lon="5.52512">
        <ele>225</ele>
        <time>2017-07-18T12:42:06Z</time>
      </trkpt>
      <trkpt lat="47.62905" lon="5.52517">
        <ele>225.39999389648</ele>
        <time>2017-07-18T12:42:08Z</time>
      </trkpt>
      <trkpt lat="47.62921" lon="5.52532">
        <ele>226</ele>
        <time>2017-07-18T12:42:13Z</time>
      </trkpt>
      <trkpt lat="47.62931" lon="5.5254">
        <ele>226.39999389648</ele>
        <time>2017-07-18T12:42:16Z</time>
      </trkpt>
      <trkpt lat="47.6295" lon="5.52557">
        <ele>227.19999694824</ele>
        <time>2017-07-18T12:42:22Z</time>
      </trkpt>
      <trkpt lat="47.62957" lon="5.52563">
        <ele>227.19999694824</ele>
        <time>2017-07-18T12:42:24Z</time>
      </trkpt>
      <trkpt lat="47.62978" lon="5.52583">
        <ele>228.19999694824</ele>
        <time>2017-07-18T12:42:31Z</time>
      </trkpt>
      <trkpt lat="47.62982" lon="5.52586">
        <ele>228.39999389648</ele>
        <time>2017-07-18T12:42:32Z</time>
      </trkpt>
      <trkpt lat="47.62999" lon="5.52605">
        <ele>229.39999389648</ele>
        <time>2017-07-18T12:42:38Z</time>
      </trkpt>
      <trkpt lat="47.63016" lon="5.52623">
        <ele>230.39999389648</ele>
        <time>2017-07-18T12:42:45Z</time>
      </trkpt>
      <trkpt lat="47.63018" lon="5.52626">
        <ele>230.60000610352</ele>
        <time>2017-07-18T12:42:46Z</time>
      </trkpt>
      <trkpt lat="47.6303" lon="5.52641">
        <ele>231.39999389648</ele>
        <time>2017-07-18T12:42:51Z</time>
      </trkpt>
      <trkpt lat="47.63032" lon="5.52645">
        <ele>231.80000305176</ele>
        <time>2017-07-18T12:42:52Z</time>
      </trkpt>
      <trkpt lat="47.63047" lon="5.5267">
        <ele>232.60000610352</ele>
        <time>2017-07-18T12:42:59Z</time>
      </trkpt>
      <trkpt lat="47.63061" lon="5.52701">
        <ele>233</ele>
        <time>2017-07-18T12:43:05Z</time>
      </trkpt>
      <trkpt lat="47.63064" lon="5.52707">
        <ele>233</ele>
        <time>2017-07-18T12:43:06Z</time>
      </trkpt>
      <trkpt lat="47.63079" lon="5.52753">
        <ele>232.60000610352</ele>
        <time>2017-07-18T12:43:12Z</time>
      </trkpt>
      <trkpt lat="47.63095" lon="5.5281">
        <ele>231.39999389648</ele>
        <time>2017-07-18T12:43:18Z</time>
      </trkpt>
      <trkpt lat="47.63111" lon="5.52851">
        <ele>230.19999694824</ele>
        <time>2017-07-18T12:43:22Z</time>
      </trkpt>
      <trkpt lat="47.63117" lon="5.5286">
        <ele>230</ele>
        <time>2017-07-18T12:43:23Z</time>
      </trkpt>
      <trkpt lat="47.63132" lon="5.52888">
        <ele>229</ele>
        <time>2017-07-18T12:43:26Z</time>
      </trkpt>
      <trkpt lat="47.63151" lon="5.52912">
        <ele>228.19999694824</ele>
        <time>2017-07-18T12:43:29Z</time>
      </trkpt>
      <trkpt lat="47.63157" lon="5.5292">
        <ele>228</ele>
        <time>2017-07-18T12:43:30Z</time>
      </trkpt>
      <trkpt lat="47.63189" lon="5.52949">
        <ele>227.60000610352</ele>
        <time>2017-07-18T12:43:35Z</time>
      </trkpt>
      <trkpt lat="47.63225" lon="5.52985">
        <ele>227.39999389648</ele>
        <time>2017-07-18T12:43:42Z</time>
      </trkpt>
      <trkpt lat="47.63268" lon="5.53027">
        <ele>227</ele>
        <time>2017-07-18T12:43:50Z</time>
      </trkpt>
      <trkpt lat="47.63274" lon="5.53031">
        <ele>227</ele>
        <time>2017-07-18T12:43:51Z</time>
      </trkpt>
      <trkpt lat="47.63314" lon="5.53056">
        <ele>226.19999694824</ele>
        <time>2017-07-18T12:43:57Z</time>
      </trkpt>
      <trkpt lat="47.63329" lon="5.53062">
        <ele>225.80000305176</ele>
        <time>2017-07-18T12:43:59Z</time>
      </trkpt>
      <trkpt lat="47.63359" lon="5.53074">
        <ele>225.19999694824</ele>
        <time>2017-07-18T12:44:03Z</time>
      </trkpt>
      <trkpt lat="47.63374" lon="5.5308">
        <ele>224.60000610352</ele>
        <time>2017-07-18T12:44:05Z</time>
      </trkpt>
      <trkpt lat="47.63403" lon="5.53097">
        <ele>224</ele>
        <time>2017-07-18T12:44:09Z</time>
      </trkpt>
      <trkpt lat="47.63432" lon="5.53121">
        <ele>223.80000305176</ele>
        <time>2017-07-18T12:44:14Z</time>
      </trkpt>
      <trkpt lat="47.63452" lon="5.53141">
        <ele>224.39999389648</ele>
        <time>2017-07-18T12:44:19Z</time>
      </trkpt>
      <trkpt lat="47.63474" lon="5.53162">
        <ele>225.80000305176</ele>
        <time>2017-07-18T12:44:25Z</time>
      </trkpt>
      <trkpt lat="47.63481" lon="5.53168">
        <ele>226.19999694824</ele>
        <time>2017-07-18T12:44:27Z</time>
      </trkpt>
      <trkpt lat="47.63488" lon="5.53174">
        <ele>226.80000305176</ele>
        <time>2017-07-18T12:44:29Z</time>
      </trkpt>
      <trkpt lat="47.63512" lon="5.53199">
        <ele>228</ele>
        <time>2017-07-18T12:44:36Z</time>
      </trkpt>
      <trkpt lat="47.63544" lon="5.53236">
        <ele>228.80000305176</ele>
        <time>2017-07-18T12:44:45Z</time>
      </trkpt>
      <trkpt lat="47.63555" lon="5.5325">
        <ele>229</ele>
        <time>2017-07-18T12:44:48Z</time>
      </trkpt>
      <trkpt lat="47.63575" lon="5.53271">
        <ele>229.19999694824</ele>
        <time>2017-07-18T12:44:53Z</time>
      </trkpt>
      <trkpt lat="47.6361" lon="5.53292">
        <ele>229.19999694824</ele>
        <time>2017-07-18T12:45:00Z</time>
      </trkpt>
      <trkpt lat="47.63659" lon="5.53315">
        <ele>229</ele>
        <time>2017-07-18T12:45:09Z</time>
      </trkpt>
      <trkpt lat="47.63713" lon="5.53329">
        <ele>228.60000610352</ele>
        <time>2017-07-18T12:45:18Z</time>
      </trkpt>
      <trkpt lat="47.63742" lon="5.53334">
        <ele>227.80000305176</ele>
        <time>2017-07-18T12:45:22Z</time>
      </trkpt>
      <trkpt lat="47.6378" lon="5.53343">
        <ele>227.60000610352</ele>
        <time>2017-07-18T12:45:28Z</time>
      </trkpt>
      <trkpt lat="47.63812" lon="5.53353">
        <ele>227.80000305176</ele>
        <time>2017-07-18T12:45:34Z</time>
      </trkpt>
      <trkpt lat="47.63834" lon="5.53363">
        <ele>229</ele>
        <time>2017-07-18T12:45:40Z</time>
      </trkpt>
      <trkpt lat="47.63837" lon="5.53365">
        <ele>229.39999389648</ele>
        <time>2017-07-18T12:45:41Z</time>
      </trkpt>
      <trkpt lat="47.63845" lon="5.53371">
        <ele>230</ele>
        <time>2017-07-18T12:45:44Z</time>
      </trkpt>
      <trkpt lat="47.63857" lon="5.53382">
        <ele>231.19999694824</ele>
        <time>2017-07-18T12:45:49Z</time>
      </trkpt>
      <trkpt lat="47.63871" lon="5.53394">
        <ele>232.19999694824</ele>
        <time>2017-07-18T12:45:54Z</time>
      </trkpt>
      <trkpt lat="47.63876" lon="5.53399">
        <ele>232.60000610352</ele>
        <time>2017-07-18T12:45:56Z</time>
      </trkpt>
      <trkpt lat="47.63896" lon="5.53417">
        <ele>233.39999389648</ele>
        <time>2017-07-18T12:46:03Z</time>
      </trkpt>
      <trkpt lat="47.63906" lon="5.53424">
        <ele>233.80000305176</ele>
        <time>2017-07-18T12:46:06Z</time>
      </trkpt>
      <trkpt lat="47.63918" lon="5.53434">
        <ele>234.39999389648</ele>
        <time>2017-07-18T12:46:10Z</time>
      </trkpt>
      <trkpt lat="47.63933" lon="5.53447">
        <ele>235</ele>
        <time>2017-07-18T12:46:15Z</time>
      </trkpt>
      <trkpt lat="47.63955" lon="5.53467">
        <ele>235.60000610352</ele>
        <time>2017-07-18T12:46:22Z</time>
      </trkpt>
      <trkpt lat="47.63958" lon="5.5347">
        <ele>235.60000610352</ele>
        <time>2017-07-18T12:46:23Z</time>
      </trkpt>
      <trkpt lat="47.63985" lon="5.53494">
        <ele>236.39999389648</ele>
        <time>2017-07-18T12:46:31Z</time>
      </trkpt>
      <trkpt lat="47.64013" lon="5.53521">
        <ele>236.39999389648</ele>
        <time>2017-07-18T12:46:38Z</time>
      </trkpt>
      <trkpt lat="47.64054" lon="5.53557">
        <ele>236</ele>
        <time>2017-07-18T12:46:46Z</time>
      </trkpt>
      <trkpt lat="47.641" lon="5.53599">
        <ele>235</ele>
        <time>2017-07-18T12:46:54Z</time>
      </trkpt>
      <trkpt lat="47.64112" lon="5.53609">
        <ele>234.80000305176</ele>
        <time>2017-07-18T12:46:56Z</time>
      </trkpt>
      <trkpt lat="47.64132" lon="5.53628">
        <ele>234.60000610352</ele>
        <time>2017-07-18T12:47:00Z</time>
      </trkpt>
      <trkpt lat="47.64145" lon="5.5364">
        <ele>234.60000610352</ele>
        <time>2017-07-18T12:47:03Z</time>
      </trkpt>
      <trkpt lat="47.64166" lon="5.53658">
        <ele>235.80000305176</ele>
        <time>2017-07-18T12:47:09Z</time>
      </trkpt>
      <trkpt lat="47.64182" lon="5.53675">
        <ele>236.80000305176</ele>
        <time>2017-07-18T12:47:14Z</time>
      </trkpt>
      <trkpt lat="47.64194" lon="5.53685">
        <ele>237.19999694824</ele>
        <time>2017-07-18T12:47:17Z</time>
      </trkpt>
      <trkpt lat="47.64229" lon="5.53716">
        <ele>237.60000610352</ele>
        <time>2017-07-18T12:47:25Z</time>
      </trkpt>
      <trkpt lat="47.64267" lon="5.53747">
        <ele>237.60000610352</ele>
        <time>2017-07-18T12:47:33Z</time>
      </trkpt>
      <trkpt lat="47.64301" lon="5.53767">
        <ele>237.80000305176</ele>
        <time>2017-07-18T12:47:40Z</time>
      </trkpt>
      <trkpt lat="47.64338" lon="5.53786">
        <ele>238.60000610352</ele>
        <time>2017-07-18T12:47:48Z</time>
      </trkpt>
      <trkpt lat="47.64348" lon="5.53791">
        <ele>238.80000305176</ele>
        <time>2017-07-18T12:47:50Z</time>
      </trkpt>
      <trkpt lat="47.6438" lon="5.53804">
        <ele>239.39999389648</ele>
        <time>2017-07-18T12:47:57Z</time>
      </trkpt>
      <trkpt lat="47.64393" lon="5.5381">
        <ele>239.80000305176</ele>
        <time>2017-07-18T12:48:00Z</time>
      </trkpt>
      <trkpt lat="47.64412" lon="5.53818">
        <ele>240.19999694824</ele>
        <time>2017-07-18T12:48:04Z</time>
      </trkpt>
      <trkpt lat="47.64453" lon="5.53832">
        <ele>240.39999389648</ele>
        <time>2017-07-18T12:48:12Z</time>
      </trkpt>
      <trkpt lat="47.6449" lon="5.5385">
        <ele>240.80000305176</ele>
        <time>2017-07-18T12:48:19Z</time>
      </trkpt>
      <trkpt lat="47.645" lon="5.53856">
        <ele>240.80000305176</ele>
        <time>2017-07-18T12:48:21Z</time>
      </trkpt>
      <trkpt lat="47.64529" lon="5.53874">
        <ele>241.19999694824</ele>
        <time>2017-07-18T12:48:27Z</time>
      </trkpt>
      <trkpt lat="47.64574" lon="5.539">
        <ele>241.80000305176</ele>
        <time>2017-07-18T12:48:36Z</time>
      </trkpt>
      <trkpt lat="47.64615" lon="5.53921">
        <ele>243</ele>
        <time>2017-07-18T12:48:45Z</time>
      </trkpt>
      <trkpt lat="47.64652" lon="5.53939">
        <ele>244</ele>
        <time>2017-07-18T12:48:53Z</time>
      </trkpt>
      <trkpt lat="47.64656" lon="5.53942">
        <ele>244</ele>
        <time>2017-07-18T12:48:54Z</time>
      </trkpt>
      <trkpt lat="47.64661" lon="5.53944">
        <ele>244.19999694824</ele>
        <time>2017-07-18T12:48:55Z</time>
      </trkpt>
      <trkpt lat="47.64683" lon="5.53952">
        <ele>244.60000610352</ele>
        <time>2017-07-18T12:49:00Z</time>
      </trkpt>
      <trkpt lat="47.64702" lon="5.53957">
        <ele>245.19999694824</ele>
        <time>2017-07-18T12:49:04Z</time>
      </trkpt>
      <trkpt lat="47.64723" lon="5.53962">
        <ele>245.60000610352</ele>
        <time>2017-07-18T12:49:09Z</time>
      </trkpt>
      <trkpt lat="47.64737" lon="5.53969">
        <ele>246.39999389648</ele>
        <time>2017-07-18T12:49:13Z</time>
      </trkpt>
      <trkpt lat="47.64744" lon="5.53971">
        <ele>246.80000305176</ele>
        <time>2017-07-18T12:49:15Z</time>
      </trkpt>
      <trkpt lat="47.64751" lon="5.53973">
        <ele>247.39999389648</ele>
        <time>2017-07-18T12:49:17Z</time>
      </trkpt>
      <trkpt lat="47.64763" lon="5.53978">
        <ele>248.39999389648</ele>
        <time>2017-07-18T12:49:21Z</time>
      </trkpt>
      <trkpt lat="47.64773" lon="5.53982">
        <ele>249</ele>
        <time>2017-07-18T12:49:24Z</time>
      </trkpt>
      <trkpt lat="47.64783" lon="5.53987">
        <ele>249.60000610352</ele>
        <time>2017-07-18T12:49:27Z</time>
      </trkpt>
      <trkpt lat="47.64796" lon="5.53994">
        <ele>250.19999694824</ele>
        <time>2017-07-18T12:49:31Z</time>
      </trkpt>
      <trkpt lat="47.64806" lon="5.53999">
        <ele>250.60000610352</ele>
        <time>2017-07-18T12:49:34Z</time>
      </trkpt>
      <trkpt lat="47.64824" lon="5.54009">
        <ele>251.19999694824</ele>
        <time>2017-07-18T12:49:39Z</time>
      </trkpt>
      <trkpt lat="47.64835" lon="5.54015">
        <ele>251.80000305176</ele>
        <time>2017-07-18T12:49:42Z</time>
      </trkpt>
      <trkpt lat="47.64853" lon="5.54026">
        <ele>252</ele>
        <time>2017-07-18T12:49:47Z</time>
      </trkpt>
      <trkpt lat="47.64886" lon="5.54051">
        <ele>252.60000610352</ele>
        <time>2017-07-18T12:49:56Z</time>
      </trkpt>
      <trkpt lat="47.64894" lon="5.54058">
        <ele>252.80000305176</ele>
        <time>2017-07-18T12:49:58Z</time>
      </trkpt>
      <trkpt lat="47.64917" lon="5.54077">
        <ele>253.19999694824</ele>
        <time>2017-07-18T12:50:04Z</time>
      </trkpt>
      <trkpt lat="47.64949" lon="5.54103">
        <ele>253.19999694824</ele>
        <time>2017-07-18T12:50:12Z</time>
      </trkpt>
      <trkpt lat="47.64983" lon="5.5413">
        <ele>253.60000610352</ele>
        <time>2017-07-18T12:50:20Z</time>
      </trkpt>
      <trkpt lat="47.65025" lon="5.54161">
        <ele>253.19999694824</ele>
        <time>2017-07-18T12:50:29Z</time>
      </trkpt>
      <trkpt lat="47.65054" lon="5.54181">
        <ele>252.80000305176</ele>
        <time>2017-07-18T12:50:35Z</time>
      </trkpt>
      <trkpt lat="47.65087" lon="5.542">
        <ele>253.39999389648</ele>
        <time>2017-07-18T12:50:42Z</time>
      </trkpt>
      <trkpt lat="47.65108" lon="5.54209">
        <ele>254</ele>
        <time>2017-07-18T12:50:47Z</time>
      </trkpt>
      <trkpt lat="47.65119" lon="5.54213">
        <ele>254.39999389648</ele>
        <time>2017-07-18T12:50:50Z</time>
      </trkpt>
      <trkpt lat="47.65126" lon="5.54215">
        <ele>255</ele>
        <time>2017-07-18T12:50:52Z</time>
      </trkpt>
      <trkpt lat="47.6514" lon="5.54223">
        <ele>255.60000610352</ele>
        <time>2017-07-18T12:50:56Z</time>
      </trkpt>
      <trkpt lat="47.6515" lon="5.54228">
        <ele>256</ele>
        <time>2017-07-18T12:50:59Z</time>
      </trkpt>
      <trkpt lat="47.65166" lon="5.54234">
        <ele>256.79998779297</ele>
        <time>2017-07-18T12:51:04Z</time>
      </trkpt>
      <trkpt lat="47.65176" lon="5.54238">
        <ele>257.20001220703</ele>
        <time>2017-07-18T12:51:07Z</time>
      </trkpt>
      <trkpt lat="47.65189" lon="5.54243">
        <ele>257.60000610352</ele>
        <time>2017-07-18T12:51:11Z</time>
      </trkpt>
      <trkpt lat="47.65211" lon="5.54252">
        <ele>258</ele>
        <time>2017-07-18T12:51:18Z</time>
      </trkpt>
      <trkpt lat="47.65222" lon="5.54255">
        <ele>258.20001220703</ele>
        <time>2017-07-18T12:51:21Z</time>
      </trkpt>
      <trkpt lat="47.65237" lon="5.54259">
        <ele>258.39999389648</ele>
        <time>2017-07-18T12:51:25Z</time>
      </trkpt>
      <trkpt lat="47.65259" lon="5.54264">
        <ele>259</ele>
        <time>2017-07-18T12:51:31Z</time>
      </trkpt>
      <trkpt lat="47.65263" lon="5.54264">
        <ele>259.20001220703</ele>
        <time>2017-07-18T12:51:32Z</time>
      </trkpt>
      <trkpt lat="47.65282" lon="5.54267">
        <ele>260</ele>
        <time>2017-07-18T12:51:38Z</time>
      </trkpt>
      <trkpt lat="47.65291" lon="5.54267">
        <ele>260.39999389648</ele>
        <time>2017-07-18T12:51:41Z</time>
      </trkpt>
      <trkpt lat="47.653" lon="5.54268">
        <ele>261</ele>
        <time>2017-07-18T12:51:44Z</time>
      </trkpt>
      <trkpt lat="47.65306" lon="5.54269">
        <ele>261.39999389648</ele>
        <time>2017-07-18T12:51:46Z</time>
      </trkpt>
      <trkpt lat="47.6532" lon="5.5427">
        <ele>262.20001220703</ele>
        <time>2017-07-18T12:51:51Z</time>
      </trkpt>
      <trkpt lat="47.65326" lon="5.5427">
        <ele>262.60000610352</ele>
        <time>2017-07-18T12:51:53Z</time>
      </trkpt>
      <trkpt lat="47.65346" lon="5.54276">
        <ele>263.79998779297</ele>
        <time>2017-07-18T12:52:00Z</time>
      </trkpt>
      <trkpt lat="47.65361" lon="5.54283">
        <ele>264.79998779297</ele>
        <time>2017-07-18T12:52:05Z</time>
      </trkpt>
      <trkpt lat="47.65367" lon="5.54285">
        <ele>265</ele>
        <time>2017-07-18T12:52:07Z</time>
      </trkpt>
      <trkpt lat="47.65384" lon="5.54293">
        <ele>265.79998779297</ele>
        <time>2017-07-18T12:52:13Z</time>
      </trkpt>
      <trkpt lat="47.65389" lon="5.54295">
        <ele>266.20001220703</ele>
        <time>2017-07-18T12:52:15Z</time>
      </trkpt>
      <trkpt lat="47.65405" lon="5.543">
        <ele>266.79998779297</ele>
        <time>2017-07-18T12:52:20Z</time>
      </trkpt>
      <trkpt lat="47.65415" lon="5.54303">
        <ele>267.39999389648</ele>
        <time>2017-07-18T12:52:23Z</time>
      </trkpt>
      <trkpt lat="47.65424" lon="5.54305">
        <ele>268</ele>
        <time>2017-07-18T12:52:26Z</time>
      </trkpt>
      <trkpt lat="47.65433" lon="5.5431">
        <ele>268.60000610352</ele>
        <time>2017-07-18T12:52:29Z</time>
      </trkpt>
      <trkpt lat="47.65443" lon="5.54314">
        <ele>269</ele>
        <time>2017-07-18T12:52:32Z</time>
      </trkpt>
      <trkpt lat="47.65455" lon="5.54319">
        <ele>269.39999389648</ele>
        <time>2017-07-18T12:52:36Z</time>
      </trkpt>
      <trkpt lat="47.65468" lon="5.54324">
        <ele>270</ele>
        <time>2017-07-18T12:52:40Z</time>
      </trkpt>
      <trkpt lat="47.65484" lon="5.54331">
        <ele>270.60000610352</ele>
        <time>2017-07-18T12:52:45Z</time>
      </trkpt>
      <trkpt lat="47.65493" lon="5.54334">
        <ele>271.20001220703</ele>
        <time>2017-07-18T12:52:48Z</time>
      </trkpt>
      <trkpt lat="47.65509" lon="5.54341">
        <ele>271.79998779297</ele>
        <time>2017-07-18T12:52:53Z</time>
      </trkpt>
      <trkpt lat="47.65523" lon="5.54347">
        <ele>272.39999389648</ele>
        <time>2017-07-18T12:52:57Z</time>
      </trkpt>
      <trkpt lat="47.65538" lon="5.54352">
        <ele>272.60000610352</ele>
        <time>2017-07-18T12:53:01Z</time>
      </trkpt>
      <trkpt lat="47.65571" lon="5.54364">
        <ele>273</ele>
        <time>2017-07-18T12:53:10Z</time>
      </trkpt>
      <trkpt lat="47.65586" lon="5.5437">
        <ele>273.39999389648</ele>
        <time>2017-07-18T12:53:14Z</time>
      </trkpt>
      <trkpt lat="47.65603" lon="5.54377">
        <ele>274</ele>
        <time>2017-07-18T12:53:19Z</time>
      </trkpt>
      <trkpt lat="47.65627" lon="5.54384">
        <ele>274.39999389648</ele>
        <time>2017-07-18T12:53:25Z</time>
      </trkpt>
      <trkpt lat="47.65641" lon="5.54387">
        <ele>274.39999389648</ele>
        <time>2017-07-18T12:53:28Z</time>
      </trkpt>
      <trkpt lat="47.65651" lon="5.54389">
        <ele>274.39999389648</ele>
        <time>2017-07-18T12:53:30Z</time>
      </trkpt>
      <trkpt lat="47.65677" lon="5.54393">
        <ele>274.20001220703</ele>
        <time>2017-07-18T12:53:35Z</time>
      </trkpt>
      <trkpt lat="47.65717" lon="5.54402">
        <ele>273.39999389648</ele>
        <time>2017-07-18T12:53:42Z</time>
      </trkpt>
      <trkpt lat="47.6575" lon="5.54408">
        <ele>272</ele>
        <time>2017-07-18T12:53:47Z</time>
      </trkpt>
      <trkpt lat="47.65764" lon="5.5441">
        <ele>271.39999389648</ele>
        <time>2017-07-18T12:53:49Z</time>
      </trkpt>
      <trkpt lat="47.65772" lon="5.54411">
        <ele>271</ele>
        <time>2017-07-18T12:53:50Z</time>
      </trkpt>
      <trkpt lat="47.6581" lon="5.54417">
        <ele>269.79998779297</ele>
        <time>2017-07-18T12:53:55Z</time>
      </trkpt>
      <trkpt lat="47.65834" lon="5.54422">
        <ele>269</ele>
        <time>2017-07-18T12:53:58Z</time>
      </trkpt>
      <trkpt lat="47.65842" lon="5.54424">
        <ele>268.79998779297</ele>
        <time>2017-07-18T12:53:59Z</time>
      </trkpt>
      <trkpt lat="47.65875" lon="5.54434">
        <ele>267.39999389648</ele>
        <time>2017-07-18T12:54:03Z</time>
      </trkpt>
      <trkpt lat="47.65892" lon="5.5444">
        <ele>266.60000610352</ele>
        <time>2017-07-18T12:54:05Z</time>
      </trkpt>
      <trkpt lat="47.659" lon="5.54444">
        <ele>266.39999389648</ele>
        <time>2017-07-18T12:54:06Z</time>
      </trkpt>
      <trkpt lat="47.65935" lon="5.54458">
        <ele>265</ele>
        <time>2017-07-18T12:54:10Z</time>
      </trkpt>
      <trkpt lat="47.65952" lon="5.54468">
        <ele>264.39999389648</ele>
        <time>2017-07-18T12:54:12Z</time>
      </trkpt>
      <trkpt lat="47.65968" lon="5.54479">
        <ele>264</ele>
        <time>2017-07-18T12:54:14Z</time>
      </trkpt>
      <trkpt lat="47.66003" lon="5.54503">
        <ele>262.60000610352</ele>
        <time>2017-07-18T12:54:18Z</time>
      </trkpt>
      <trkpt lat="47.66011" lon="5.54509">
        <ele>262.20001220703</ele>
        <time>2017-07-18T12:54:19Z</time>
      </trkpt>
      <trkpt lat="47.66019" lon="5.54516">
        <ele>261.60000610352</ele>
        <time>2017-07-18T12:54:20Z</time>
      </trkpt>
      <trkpt lat="47.66051" lon="5.54544">
        <ele>260.20001220703</ele>
        <time>2017-07-18T12:54:24Z</time>
      </trkpt>
      <trkpt lat="47.66066" lon="5.54559">
        <ele>259.60000610352</ele>
        <time>2017-07-18T12:54:26Z</time>
      </trkpt>
      <trkpt lat="47.6608" lon="5.54573">
        <ele>259.20001220703</ele>
        <time>2017-07-18T12:54:28Z</time>
      </trkpt>
      <trkpt lat="47.66098" lon="5.54595">
        <ele>258</ele>
        <time>2017-07-18T12:54:31Z</time>
      </trkpt>
      <trkpt lat="47.66104" lon="5.54602">
        <ele>257.79998779297</ele>
        <time>2017-07-18T12:54:32Z</time>
      </trkpt>
      <trkpt lat="47.66133" lon="5.54637">
        <ele>257.60000610352</ele>
        <time>2017-07-18T12:54:37Z</time>
      </trkpt>
      <trkpt lat="47.66138" lon="5.54643">
        <ele>257.60000610352</ele>
        <time>2017-07-18T12:54:38Z</time>
      </trkpt>
      <trkpt lat="47.66174" lon="5.54686">
        <ele>257.60000610352</ele>
        <time>2017-07-18T12:54:45Z</time>
      </trkpt>
      <trkpt lat="47.66215" lon="5.54733">
        <ele>257.39999389648</ele>
        <time>2017-07-18T12:54:53Z</time>
      </trkpt>
      <trkpt lat="47.66258" lon="5.54774">
        <ele>257.60000610352</ele>
        <time>2017-07-18T12:55:01Z</time>
      </trkpt>
      <trkpt lat="47.66297" lon="5.54805">
        <ele>257.39999389648</ele>
        <time>2017-07-18T12:55:08Z</time>
      </trkpt>
      <trkpt lat="47.66339" lon="5.5484">
        <ele>257.20001220703</ele>
        <time>2017-07-18T12:55:16Z</time>
      </trkpt>
      <trkpt lat="47.66388" lon="5.5488">
        <ele>257.20001220703</ele>
        <time>2017-07-18T12:55:25Z</time>
      </trkpt>
      <trkpt lat="47.66394" lon="5.54885">
        <ele>257</ele>
        <time>2017-07-18T12:55:26Z</time>
      </trkpt>
      <trkpt lat="47.66406" lon="5.54893">
        <ele>257</ele>
        <time>2017-07-18T12:55:28Z</time>
      </trkpt>
      <trkpt lat="47.66445" lon="5.54924">
        <ele>257.20001220703</ele>
        <time>2017-07-18T12:55:35Z</time>
      </trkpt>
      <trkpt lat="47.66476" lon="5.5495">
        <ele>257.39999389648</ele>
        <time>2017-07-18T12:55:41Z</time>
      </trkpt>
      <trkpt lat="47.66525" lon="5.54989">
        <ele>257.39999389648</ele>
        <time>2017-07-18T12:55:50Z</time>
      </trkpt>
      <trkpt lat="47.66531" lon="5.54993">
        <ele>257.39999389648</ele>
        <time>2017-07-18T12:55:51Z</time>
      </trkpt>
      <trkpt lat="47.66562" lon="5.55019">
        <ele>257.60000610352</ele>
        <time>2017-07-18T12:55:57Z</time>
      </trkpt>
      <trkpt lat="47.66602" lon="5.55052">
        <ele>257.60000610352</ele>
        <time>2017-07-18T12:56:05Z</time>
      </trkpt>
      <trkpt lat="47.66632" lon="5.55075">
        <ele>257.79998779297</ele>
        <time>2017-07-18T12:56:11Z</time>
      </trkpt>
      <trkpt lat="47.66637" lon="5.55079">
        <ele>257.79998779297</ele>
        <time>2017-07-18T12:56:12Z</time>
      </trkpt>
      <trkpt lat="47.66662" lon="5.55098">
        <ele>258</ele>
        <time>2017-07-18T12:56:17Z</time>
      </trkpt>
      <trkpt lat="47.66671" lon="5.55107">
        <ele>258</ele>
        <time>2017-07-18T12:56:19Z</time>
      </trkpt>
      <trkpt lat="47.6671" lon="5.55138">
        <ele>258.20001220703</ele>
        <time>2017-07-18T12:56:27Z</time>
      </trkpt>
      <trkpt lat="47.66758" lon="5.55177">
        <ele>258</ele>
        <time>2017-07-18T12:56:36Z</time>
      </trkpt>
      <trkpt lat="47.66763" lon="5.55182">
        <ele>258</ele>
        <time>2017-07-18T12:56:37Z</time>
      </trkpt>
      <trkpt lat="47.66811" lon="5.5522">
        <ele>257.60000610352</ele>
        <time>2017-07-18T12:56:46Z</time>
      </trkpt>
      <trkpt lat="47.66845" lon="5.55248">
        <ele>258.20001220703</ele>
        <time>2017-07-18T12:56:53Z</time>
      </trkpt>
      <trkpt lat="47.66881" lon="5.55276">
        <ele>259</ele>
        <time>2017-07-18T12:57:01Z</time>
      </trkpt>
      <trkpt lat="47.66907" lon="5.55296">
        <ele>259.79998779297</ele>
        <time>2017-07-18T12:57:07Z</time>
      </trkpt>
      <trkpt lat="47.66911" lon="5.553">
        <ele>259.79998779297</ele>
        <time>2017-07-18T12:57:08Z</time>
      </trkpt>
      <trkpt lat="47.6692" lon="5.55307">
        <ele>260.20001220703</ele>
        <time>2017-07-18T12:57:10Z</time>
      </trkpt>
      <trkpt lat="47.66944" lon="5.55328">
        <ele>260.79998779297</ele>
        <time>2017-07-18T12:57:16Z</time>
      </trkpt>
      <trkpt lat="47.66953" lon="5.55335">
        <ele>261.20001220703</ele>
        <time>2017-07-18T12:57:18Z</time>
      </trkpt>
      <trkpt lat="47.66975" lon="5.55354">
        <ele>261.79998779297</ele>
        <time>2017-07-18T12:57:23Z</time>
      </trkpt>
      <trkpt lat="47.66998" lon="5.55372">
        <ele>262.20001220703</ele>
        <time>2017-07-18T12:57:28Z</time>
      </trkpt>
      <trkpt lat="47.67013" lon="5.55383">
        <ele>262.39999389648</ele>
        <time>2017-07-18T12:57:31Z</time>
      </trkpt>
      <trkpt lat="47.67046" lon="5.5541">
        <ele>262.39999389648</ele>
        <time>2017-07-18T12:57:38Z</time>
      </trkpt>
      <trkpt lat="47.67085" lon="5.55443">
        <ele>262.39999389648</ele>
        <time>2017-07-18T12:57:46Z</time>
      </trkpt>
      <trkpt lat="47.67118" lon="5.55469">
        <ele>262.39999389648</ele>
        <time>2017-07-18T12:57:53Z</time>
      </trkpt>
      <trkpt lat="47.67155" lon="5.55499">
        <ele>262.60000610352</ele>
        <time>2017-07-18T12:58:01Z</time>
      </trkpt>
      <trkpt lat="47.67198" lon="5.55533">
        <ele>263</ele>
        <time>2017-07-18T12:58:10Z</time>
      </trkpt>
      <trkpt lat="47.67233" lon="5.5556">
        <ele>263</ele>
        <time>2017-07-18T12:58:17Z</time>
      </trkpt>
      <trkpt lat="47.6728" lon="5.556">
        <ele>262.79998779297</ele>
        <time>2017-07-18T12:58:26Z</time>
      </trkpt>
      <trkpt lat="47.67286" lon="5.55605">
        <ele>262.79998779297</ele>
        <time>2017-07-18T12:58:27Z</time>
      </trkpt>
      <trkpt lat="47.67326" lon="5.55636">
        <ele>262.60000610352</ele>
        <time>2017-07-18T12:58:34Z</time>
      </trkpt>
      <trkpt lat="47.67373" lon="5.55673">
        <ele>261.60000610352</ele>
        <time>2017-07-18T12:58:42Z</time>
      </trkpt>
      <trkpt lat="47.67412" lon="5.55708">
        <ele>261.39999389648</ele>
        <time>2017-07-18T12:58:49Z</time>
      </trkpt>
      <trkpt lat="47.67456" lon="5.55743">
        <ele>261.39999389648</ele>
        <time>2017-07-18T12:58:57Z</time>
      </trkpt>
      <trkpt lat="47.67492" lon="5.55771">
        <ele>261.79998779297</ele>
        <time>2017-07-18T12:59:04Z</time>
      </trkpt>
      <trkpt lat="47.67527" lon="5.558">
        <ele>262.39999389648</ele>
        <time>2017-07-18T12:59:11Z</time>
      </trkpt>
      <trkpt lat="47.67574" lon="5.55838">
        <ele>263.20001220703</ele>
        <time>2017-07-18T12:59:21Z</time>
      </trkpt>
      <trkpt lat="47.67588" lon="5.55849">
        <ele>263.39999389648</ele>
        <time>2017-07-18T12:59:24Z</time>
      </trkpt>
      <trkpt lat="47.67613" lon="5.55868">
        <ele>264</ele>
        <time>2017-07-18T12:59:30Z</time>
      </trkpt>
      <trkpt lat="47.67626" lon="5.55878">
        <ele>264.39999389648</ele>
        <time>2017-07-18T12:59:33Z</time>
      </trkpt>
      <trkpt lat="47.67641" lon="5.55891">
        <ele>264.60000610352</ele>
        <time>2017-07-18T12:59:37Z</time>
      </trkpt>
      <trkpt lat="47.67645" lon="5.55894">
        <ele>264.79998779297</ele>
        <time>2017-07-18T12:59:38Z</time>
      </trkpt>
      <trkpt lat="47.6766" lon="5.55907">
        <ele>265.79998779297</ele>
        <time>2017-07-18T12:59:42Z</time>
      </trkpt>
      <trkpt lat="47.67672" lon="5.55916">
        <ele>266.20001220703</ele>
        <time>2017-07-18T12:59:45Z</time>
      </trkpt>
      <trkpt lat="47.67693" lon="5.55934">
        <ele>266.79998779297</ele>
        <time>2017-07-18T12:59:51Z</time>
      </trkpt>
      <trkpt lat="47.67699" lon="5.55939">
        <ele>267</ele>
        <time>2017-07-18T12:59:53Z</time>
      </trkpt>
      <trkpt lat="47.67718" lon="5.55955">
        <ele>267.79998779297</ele>
        <time>2017-07-18T12:59:59Z</time>
      </trkpt>
      <trkpt lat="47.67725" lon="5.55959">
        <ele>268</ele>
        <time>2017-07-18T13:00:01Z</time>
      </trkpt>
      <trkpt lat="47.67744" lon="5.55975">
        <ele>268.60000610352</ele>
        <time>2017-07-18T13:00:07Z</time>
      </trkpt>
      <trkpt lat="47.6775" lon="5.5598">
        <ele>269</ele>
        <time>2017-07-18T13:00:09Z</time>
      </trkpt>
      <trkpt lat="47.67764" lon="5.5599">
        <ele>269.39999389648</ele>
        <time>2017-07-18T13:00:13Z</time>
      </trkpt>
      <trkpt lat="47.67795" lon="5.56017">
        <ele>269.60000610352</ele>
        <time>2017-07-18T13:00:22Z</time>
      </trkpt>
      <trkpt lat="47.67821" lon="5.56038">
        <ele>270</ele>
        <time>2017-07-18T13:00:29Z</time>
      </trkpt>
      <trkpt lat="47.6785" lon="5.56061">
        <ele>269.79998779297</ele>
        <time>2017-07-18T13:00:35Z</time>
      </trkpt>
      <trkpt lat="47.67889" lon="5.56093">
        <ele>268.79998779297</ele>
        <time>2017-07-18T13:00:42Z</time>
      </trkpt>
      <trkpt lat="47.67923" lon="5.56121">
        <ele>268</ele>
        <time>2017-07-18T13:00:48Z</time>
      </trkpt>
      <trkpt lat="47.67971" lon="5.56159">
        <ele>267.60000610352</ele>
        <time>2017-07-18T13:00:56Z</time>
      </trkpt>
      <trkpt lat="47.68006" lon="5.56188">
        <ele>267.39999389648</ele>
        <time>2017-07-18T13:01:03Z</time>
      </trkpt>
      <trkpt lat="47.68039" lon="5.56215">
        <ele>268</ele>
        <time>2017-07-18T13:01:11Z</time>
      </trkpt>
      <trkpt lat="47.68068" lon="5.56239">
        <ele>269</ele>
        <time>2017-07-18T13:01:19Z</time>
      </trkpt>
      <trkpt lat="47.68097" lon="5.56262">
        <ele>269.79998779297</ele>
        <time>2017-07-18T13:01:27Z</time>
      </trkpt>
      <trkpt lat="47.68107" lon="5.56271">
        <ele>270.20001220703</ele>
        <time>2017-07-18T13:01:30Z</time>
      </trkpt>
      <trkpt lat="47.68124" lon="5.56285">
        <ele>270.60000610352</ele>
        <time>2017-07-18T13:01:35Z</time>
      </trkpt>
      <trkpt lat="47.68147" lon="5.56303">
        <ele>271.20001220703</ele>
        <time>2017-07-18T13:01:41Z</time>
      </trkpt>
      <trkpt lat="47.6815" lon="5.56307">
        <ele>271.60000610352</ele>
        <time>2017-07-18T13:01:42Z</time>
      </trkpt>
      <trkpt lat="47.68166" lon="5.56319">
        <ele>272.20001220703</ele>
        <time>2017-07-18T13:01:46Z</time>
      </trkpt>
      <trkpt lat="47.68177" lon="5.56329">
        <ele>272.39999389648</ele>
        <time>2017-07-18T13:01:49Z</time>
      </trkpt>
      <trkpt lat="47.68205" lon="5.56351">
        <ele>272.79998779297</ele>
        <time>2017-07-18T13:01:56Z</time>
      </trkpt>
      <trkpt lat="47.68237" lon="5.56377">
        <ele>273.20001220703</ele>
        <time>2017-07-18T13:02:04Z</time>
      </trkpt>
      <trkpt lat="47.68241" lon="5.56381">
        <ele>273.20001220703</ele>
        <time>2017-07-18T13:02:05Z</time>
      </trkpt>
      <trkpt lat="47.6827" lon="5.56405">
        <ele>274</ele>
        <time>2017-07-18T13:02:12Z</time>
      </trkpt>
      <trkpt lat="47.68295" lon="5.56428">
        <ele>274</ele>
        <time>2017-07-18T13:02:18Z</time>
      </trkpt>
      <trkpt lat="47.68304" lon="5.56437">
        <ele>274</ele>
        <time>2017-07-18T13:02:20Z</time>
      </trkpt>
      <trkpt lat="47.68335" lon="5.56467">
        <ele>274.20001220703</ele>
        <time>2017-07-18T13:02:27Z</time>
      </trkpt>
      <trkpt lat="47.6834" lon="5.56471">
        <ele>274.20001220703</ele>
        <time>2017-07-18T13:02:28Z</time>
      </trkpt>
      <trkpt lat="47.68383" lon="5.56512">
        <ele>274.79998779297</ele>
        <time>2017-07-18T13:02:38Z</time>
      </trkpt>
      <trkpt lat="47.68406" lon="5.56531">
        <ele>275.20001220703</ele>
        <time>2017-07-18T13:02:43Z</time>
      </trkpt>
      <trkpt lat="47.68419" lon="5.56543">
        <ele>275.20001220703</ele>
        <time>2017-07-18T13:02:46Z</time>
      </trkpt>
      <trkpt lat="47.68437" lon="5.56559">
        <ele>275.39999389648</ele>
        <time>2017-07-18T13:02:50Z</time>
      </trkpt>
      <trkpt lat="47.68456" lon="5.56577">
        <ele>275.60000610352</ele>
        <time>2017-07-18T13:02:54Z</time>
      </trkpt>
      <trkpt lat="47.68492" lon="5.56611">
        <ele>275.60000610352</ele>
        <time>2017-07-18T13:03:01Z</time>
      </trkpt>
      <trkpt lat="47.68536" lon="5.5665">
        <ele>275</ele>
        <time>2017-07-18T13:03:08Z</time>
      </trkpt>
      <trkpt lat="47.68563" lon="5.56676">
        <ele>273.79998779297</ele>
        <time>2017-07-18T13:03:12Z</time>
      </trkpt>
      <trkpt lat="47.68584" lon="5.56695">
        <ele>272.79998779297</ele>
        <time>2017-07-18T13:03:15Z</time>
      </trkpt>
      <trkpt lat="47.68591" lon="5.56701">
        <ele>272.60000610352</ele>
        <time>2017-07-18T13:03:16Z</time>
      </trkpt>
      <trkpt lat="47.68628" lon="5.56735">
        <ele>272.39999389648</ele>
        <time>2017-07-18T13:03:22Z</time>
      </trkpt>
      <trkpt lat="47.68673" lon="5.56776">
        <ele>272.79998779297</ele>
        <time>2017-07-18T13:03:30Z</time>
      </trkpt>
      <trkpt lat="47.68723" lon="5.56822">
        <ele>272.79998779297</ele>
        <time>2017-07-18T13:03:39Z</time>
      </trkpt>
      <trkpt lat="47.68774" lon="5.56868">
        <ele>272.79998779297</ele>
        <time>2017-07-18T13:03:48Z</time>
      </trkpt>
      <trkpt lat="47.68823" lon="5.56913">
        <ele>273.39999389648</ele>
        <time>2017-07-18T13:03:57Z</time>
      </trkpt>
      <trkpt lat="47.68863" lon="5.5695">
        <ele>273.79998779297</ele>
        <time>2017-07-18T13:04:05Z</time>
      </trkpt>
      <trkpt lat="47.68868" lon="5.56954">
        <ele>273.79998779297</ele>
        <time>2017-07-18T13:04:06Z</time>
      </trkpt>
      <trkpt lat="47.68901" lon="5.56985">
        <ele>274.60000610352</ele>
        <time>2017-07-18T13:04:13Z</time>
      </trkpt>
      <trkpt lat="47.68936" lon="5.57017">
        <ele>274.79998779297</ele>
        <time>2017-07-18T13:04:20Z</time>
      </trkpt>
      <trkpt lat="47.68976" lon="5.57054">
        <ele>275</ele>
        <time>2017-07-18T13:04:28Z</time>
      </trkpt>
      <trkpt lat="47.6899" lon="5.57068">
        <ele>275.20001220703</ele>
        <time>2017-07-18T13:04:31Z</time>
      </trkpt>
      <trkpt lat="47.6903" lon="5.57105">
        <ele>275.20001220703</ele>
        <time>2017-07-18T13:04:39Z</time>
      </trkpt>
      <trkpt lat="47.69076" lon="5.57146">
        <ele>275.79998779297</ele>
        <time>2017-07-18T13:04:48Z</time>
      </trkpt>
      <trkpt lat="47.69091" lon="5.5716">
        <ele>276</ele>
        <time>2017-07-18T13:04:51Z</time>
      </trkpt>
      <trkpt lat="47.69111" lon="5.57178">
        <ele>276.20001220703</ele>
        <time>2017-07-18T13:04:55Z</time>
      </trkpt>
      <trkpt lat="47.69149" lon="5.57212">
        <ele>276.60000610352</ele>
        <time>2017-07-18T13:05:03Z</time>
      </trkpt>
      <trkpt lat="47.69167" lon="5.57229">
        <ele>277</ele>
        <time>2017-07-18T13:05:07Z</time>
      </trkpt>
      <trkpt lat="47.69186" lon="5.57246">
        <ele>277.39999389648</ele>
        <time>2017-07-18T13:05:11Z</time>
      </trkpt>
      <trkpt lat="47.69218" lon="5.57277">
        <ele>278.20001220703</ele>
        <time>2017-07-18T13:05:18Z</time>
      </trkpt>
      <trkpt lat="47.69228" lon="5.57284">
        <ele>278.39999389648</ele>
        <time>2017-07-18T13:05:20Z</time>
      </trkpt>
      <trkpt lat="47.69261" lon="5.57315">
        <ele>278.60000610352</ele>
        <time>2017-07-18T13:05:27Z</time>
      </trkpt>
      <trkpt lat="47.69303" lon="5.57354">
        <ele>279</ele>
        <time>2017-07-18T13:05:36Z</time>
      </trkpt>
      <trkpt lat="47.69314" lon="5.57364">
        <ele>279.20001220703</ele>
        <time>2017-07-18T13:05:38Z</time>
      </trkpt>
      <trkpt lat="47.69351" lon="5.57399">
        <ele>279</ele>
        <time>2017-07-18T13:05:45Z</time>
      </trkpt>
      <trkpt lat="47.69388" lon="5.57433">
        <ele>278.79998779297</ele>
        <time>2017-07-18T13:05:52Z</time>
      </trkpt>
      <trkpt lat="47.69421" lon="5.57462">
        <ele>279.60000610352</ele>
        <time>2017-07-18T13:05:59Z</time>
      </trkpt>
      <trkpt lat="47.69442" lon="5.57481">
        <ele>280.20001220703</ele>
        <time>2017-07-18T13:06:04Z</time>
      </trkpt>
      <trkpt lat="47.69446" lon="5.57485">
        <ele>280.39999389648</ele>
        <time>2017-07-18T13:06:05Z</time>
      </trkpt>
      <trkpt lat="47.69481" lon="5.57517">
        <ele>281</ele>
        <time>2017-07-18T13:06:13Z</time>
      </trkpt>
      <trkpt lat="47.69513" lon="5.57547">
        <ele>281</ele>
        <time>2017-07-18T13:06:19Z</time>
      </trkpt>
      <trkpt lat="47.69558" lon="5.57589">
        <ele>280</ele>
        <time>2017-07-18T13:06:27Z</time>
      </trkpt>
      <trkpt lat="47.69599" lon="5.57626">
        <ele>279.79998779297</ele>
        <time>2017-07-18T13:06:35Z</time>
      </trkpt>
      <trkpt lat="47.69631" lon="5.57656">
        <ele>280.20001220703</ele>
        <time>2017-07-18T13:06:42Z</time>
      </trkpt>
      <trkpt lat="47.69672" lon="5.57693">
        <ele>281</ele>
        <time>2017-07-18T13:06:50Z</time>
      </trkpt>
      <trkpt lat="47.69711" lon="5.57729">
        <ele>280.60000610352</ele>
        <time>2017-07-18T13:06:57Z</time>
      </trkpt>
      <trkpt lat="47.69748" lon="5.57762">
        <ele>280.39999389648</ele>
        <time>2017-07-18T13:07:04Z</time>
      </trkpt>
      <trkpt lat="47.69786" lon="5.57796">
        <ele>281</ele>
        <time>2017-07-18T13:07:12Z</time>
      </trkpt>
      <trkpt lat="47.69795" lon="5.57805">
        <ele>281.39999389648</ele>
        <time>2017-07-18T13:07:14Z</time>
      </trkpt>
      <trkpt lat="47.69808" lon="5.57817">
        <ele>282</ele>
        <time>2017-07-18T13:07:17Z</time>
      </trkpt>
      <trkpt lat="47.69813" lon="5.5782">
        <ele>282.20001220703</ele>
        <time>2017-07-18T13:07:18Z</time>
      </trkpt>
      <trkpt lat="47.69817" lon="5.57825">
        <ele>282.39999389648</ele>
        <time>2017-07-18T13:07:19Z</time>
      </trkpt>
      <trkpt lat="47.69825" lon="5.57833">
        <ele>282.79998779297</ele>
        <time>2017-07-18T13:07:21Z</time>
      </trkpt>
      <trkpt lat="47.69835" lon="5.5784">
        <ele>283</ele>
        <time>2017-07-18T13:07:23Z</time>
      </trkpt>
      <trkpt lat="47.69852" lon="5.57858">
        <ele>283.60000610352</ele>
        <time>2017-07-18T13:07:27Z</time>
      </trkpt>
      <trkpt lat="47.69865" lon="5.57869">
        <ele>283.79998779297</ele>
        <time>2017-07-18T13:07:30Z</time>
      </trkpt>
      <trkpt lat="47.69895" lon="5.57897">
        <ele>284.60000610352</ele>
        <time>2017-07-18T13:07:37Z</time>
      </trkpt>
      <trkpt lat="47.69925" lon="5.57924">
        <ele>285.60000610352</ele>
        <time>2017-07-18T13:07:44Z</time>
      </trkpt>
      <trkpt lat="47.69929" lon="5.57928">
        <ele>285.60000610352</ele>
        <time>2017-07-18T13:07:45Z</time>
      </trkpt>
      <trkpt lat="47.69966" lon="5.57963">
        <ele>286</ele>
        <time>2017-07-18T13:07:53Z</time>
      </trkpt>
      <trkpt lat="47.69997" lon="5.57991">
        <ele>286.39999389648</ele>
        <time>2017-07-18T13:08:00Z</time>
      </trkpt>
      <trkpt lat="47.7001" lon="5.58004">
        <ele>286.60000610352</ele>
        <time>2017-07-18T13:08:03Z</time>
      </trkpt>
      <trkpt lat="47.70043" lon="5.58033">
        <ele>287.20001220703</ele>
        <time>2017-07-18T13:08:10Z</time>
      </trkpt>
      <trkpt lat="47.70086" lon="5.58072">
        <ele>287.39999389648</ele>
        <time>2017-07-18T13:08:19Z</time>
      </trkpt>
      <trkpt lat="47.70125" lon="5.5811">
        <ele>286.60000610352</ele>
        <time>2017-07-18T13:08:27Z</time>
      </trkpt>
      <trkpt lat="47.7016" lon="5.58141">
        <ele>287.20001220703</ele>
        <time>2017-07-18T13:08:34Z</time>
      </trkpt>
      <trkpt lat="47.70175" lon="5.58155">
        <ele>287.39999389648</ele>
        <time>2017-07-18T13:08:37Z</time>
      </trkpt>
      <trkpt lat="47.70185" lon="5.58165">
        <ele>287.60000610352</ele>
        <time>2017-07-18T13:08:39Z</time>
      </trkpt>
      <trkpt lat="47.70213" lon="5.5819">
        <ele>287.60000610352</ele>
        <time>2017-07-18T13:08:45Z</time>
      </trkpt>
      <trkpt lat="47.70222" lon="5.58197">
        <ele>287.79998779297</ele>
        <time>2017-07-18T13:08:47Z</time>
      </trkpt>
      <trkpt lat="47.70249" lon="5.58212">
        <ele>288</ele>
        <time>2017-07-18T13:08:52Z</time>
      </trkpt>
      <trkpt lat="47.70255" lon="5.58213">
        <ele>288</ele>
        <time>2017-07-18T13:08:53Z</time>
      </trkpt>
      <trkpt lat="47.7028" lon="5.58213">
        <ele>287.60000610352</ele>
        <time>2017-07-18T13:08:57Z</time>
      </trkpt>
      <trkpt lat="47.70332" lon="5.58206">
        <ele>287</ele>
        <time>2017-07-18T13:09:05Z</time>
      </trkpt>
      <trkpt lat="47.70363" lon="5.58206">
        <ele>286.60000610352</ele>
        <time>2017-07-18T13:09:09Z</time>
      </trkpt>
      <trkpt lat="47.70372" lon="5.58208">
        <ele>286.60000610352</ele>
        <time>2017-07-18T13:09:10Z</time>
      </trkpt>
      <trkpt lat="47.704" lon="5.58218">
        <ele>285.60000610352</ele>
        <time>2017-07-18T13:09:13Z</time>
      </trkpt>
      <trkpt lat="47.70409" lon="5.58223">
        <ele>285</ele>
        <time>2017-07-18T13:09:14Z</time>
      </trkpt>
      <trkpt lat="47.70426" lon="5.58235">
        <ele>284.20001220703</ele>
        <time>2017-07-18T13:09:16Z</time>
      </trkpt>
      <trkpt lat="47.70442" lon="5.5825">
        <ele>283.79998779297</ele>
        <time>2017-07-18T13:09:18Z</time>
      </trkpt>
      <trkpt lat="47.70477" lon="5.58287">
        <ele>283.60000610352</ele>
        <time>2017-07-18T13:09:23Z</time>
      </trkpt>
      <trkpt lat="47.70511" lon="5.58322">
        <ele>284.60000610352</ele>
        <time>2017-07-18T13:09:29Z</time>
      </trkpt>
      <trkpt lat="47.7053" lon="5.58342">
        <ele>285.39999389648</ele>
        <time>2017-07-18T13:09:33Z</time>
      </trkpt>
      <trkpt lat="47.70543" lon="5.58357">
        <ele>286</ele>
        <time>2017-07-18T13:09:36Z</time>
      </trkpt>
      <trkpt lat="47.70552" lon="5.58366">
        <ele>286.39999389648</ele>
        <time>2017-07-18T13:09:38Z</time>
      </trkpt>
      <trkpt lat="47.70578" lon="5.58393">
        <ele>287.39999389648</ele>
        <time>2017-07-18T13:09:44Z</time>
      </trkpt>
      <trkpt lat="47.70583" lon="5.58398">
        <ele>287.60000610352</ele>
        <time>2017-07-18T13:09:45Z</time>
      </trkpt>
      <trkpt lat="47.70606" lon="5.5842">
        <ele>288</ele>
        <time>2017-07-18T13:09:50Z</time>
      </trkpt>
      <trkpt lat="47.70642" lon="5.58459">
        <ele>287.39999389648</ele>
        <time>2017-07-18T13:09:57Z</time>
      </trkpt>
      <trkpt lat="47.70683" lon="5.585">
        <ele>287</ele>
        <time>2017-07-18T13:10:04Z</time>
      </trkpt>
      <trkpt lat="47.70713" lon="5.5853">
        <ele>287</ele>
        <time>2017-07-18T13:10:10Z</time>
      </trkpt>
      <trkpt lat="47.70736" lon="5.58553">
        <ele>288</ele>
        <time>2017-07-18T13:10:16Z</time>
      </trkpt>
      <trkpt lat="47.70745" lon="5.58562">
        <ele>288.60000610352</ele>
        <time>2017-07-18T13:10:19Z</time>
      </trkpt>
      <trkpt lat="47.70754" lon="5.58571">
        <ele>289.39999389648</ele>
        <time>2017-07-18T13:10:22Z</time>
      </trkpt>
      <trkpt lat="47.70763" lon="5.5858">
        <ele>289.79998779297</ele>
        <time>2017-07-18T13:10:25Z</time>
      </trkpt>
      <trkpt lat="47.70773" lon="5.58592">
        <ele>290.39999389648</ele>
        <time>2017-07-18T13:10:29Z</time>
      </trkpt>
      <trkpt lat="47.70779" lon="5.58597">
        <ele>291</ele>
        <time>2017-07-18T13:10:31Z</time>
      </trkpt>
      <trkpt lat="47.70794" lon="5.58613">
        <ele>291.79998779297</ele>
        <time>2017-07-18T13:10:36Z</time>
      </trkpt>
      <trkpt lat="47.70797" lon="5.58616">
        <ele>292</ele>
        <time>2017-07-18T13:10:37Z</time>
      </trkpt>
      <trkpt lat="47.70811" lon="5.58631">
        <ele>293</ele>
        <time>2017-07-18T13:10:42Z</time>
      </trkpt>
      <trkpt lat="47.70823" lon="5.58642">
        <ele>293.79998779297</ele>
        <time>2017-07-18T13:10:46Z</time>
      </trkpt>
      <trkpt lat="47.70825" lon="5.58645">
        <ele>294.20001220703</ele>
        <time>2017-07-18T13:10:47Z</time>
      </trkpt>
      <trkpt lat="47.70839" lon="5.58658">
        <ele>295.20001220703</ele>
        <time>2017-07-18T13:10:53Z</time>
      </trkpt>
      <trkpt lat="47.70853" lon="5.58673">
        <ele>296.39999389648</ele>
        <time>2017-07-18T13:10:59Z</time>
      </trkpt>
      <trkpt lat="47.70855" lon="5.58675">
        <ele>296.60000610352</ele>
        <time>2017-07-18T13:11:00Z</time>
      </trkpt>
      <trkpt lat="47.70863" lon="5.58686">
        <ele>297.60000610352</ele>
        <time>2017-07-18T13:11:04Z</time>
      </trkpt>
      <trkpt lat="47.70873" lon="5.58694">
        <ele>298.20001220703</ele>
        <time>2017-07-18T13:11:08Z</time>
      </trkpt>
      <trkpt lat="47.70877" lon="5.587">
        <ele>298.60000610352</ele>
        <time>2017-07-18T13:11:10Z</time>
      </trkpt>
      <trkpt lat="47.70889" lon="5.58711">
        <ele>299.39999389648</ele>
        <time>2017-07-18T13:11:15Z</time>
      </trkpt>
      <trkpt lat="47.70894" lon="5.58716">
        <ele>299.60000610352</ele>
        <time>2017-07-18T13:11:17Z</time>
      </trkpt>
      <trkpt lat="47.70909" lon="5.58731">
        <ele>300.79998779297</ele>
        <time>2017-07-18T13:11:23Z</time>
      </trkpt>
      <trkpt lat="47.70922" lon="5.58746">
        <ele>301.60000610352</ele>
        <time>2017-07-18T13:11:28Z</time>
      </trkpt>
      <trkpt lat="47.7093" lon="5.58754">
        <ele>302</ele>
        <time>2017-07-18T13:11:31Z</time>
      </trkpt>
      <trkpt lat="47.70941" lon="5.58765">
        <ele>302.60000610352</ele>
        <time>2017-07-18T13:11:35Z</time>
      </trkpt>
      <trkpt lat="47.70955" lon="5.5878">
        <ele>303</ele>
        <time>2017-07-18T13:11:40Z</time>
      </trkpt>
      <trkpt lat="47.70967" lon="5.58794">
        <ele>303.39999389648</ele>
        <time>2017-07-18T13:11:44Z</time>
      </trkpt>
      <trkpt lat="47.70988" lon="5.5882">
        <ele>304</ele>
        <time>2017-07-18T13:11:51Z</time>
      </trkpt>
      <trkpt lat="47.71011" lon="5.58857">
        <ele>304.39999389648</ele>
        <time>2017-07-18T13:11:59Z</time>
      </trkpt>
      <trkpt lat="47.71028" lon="5.58896">
        <ele>304.79998779297</ele>
        <time>2017-07-18T13:12:06Z</time>
      </trkpt>
      <trkpt lat="47.7105" lon="5.58945">
        <ele>304.79998779297</ele>
        <time>2017-07-18T13:12:14Z</time>
      </trkpt>
      <trkpt lat="47.71077" lon="5.59004">
        <ele>304.20001220703</ele>
        <time>2017-07-18T13:12:22Z</time>
      </trkpt>
      <trkpt lat="47.71099" lon="5.59048">
        <ele>303</ele>
        <time>2017-07-18T13:12:27Z</time>
      </trkpt>
      <trkpt lat="47.71104" lon="5.59059">
        <ele>302.79998779297</ele>
        <time>2017-07-18T13:12:28Z</time>
      </trkpt>
      <trkpt lat="47.71119" lon="5.59092">
        <ele>301.79998779297</ele>
        <time>2017-07-18T13:12:31Z</time>
      </trkpt>
      <trkpt lat="47.7113" lon="5.59116">
        <ele>300.20001220703</ele>
        <time>2017-07-18T13:12:33Z</time>
      </trkpt>
      <trkpt lat="47.71136" lon="5.59128">
        <ele>299.79998779297</ele>
        <time>2017-07-18T13:12:34Z</time>
      </trkpt>
      <trkpt lat="47.71141" lon="5.5914">
        <ele>299.20001220703</ele>
        <time>2017-07-18T13:12:35Z</time>
      </trkpt>
      <trkpt lat="47.71153" lon="5.59165">
        <ele>298</ele>
        <time>2017-07-18T13:12:37Z</time>
      </trkpt>
      <trkpt lat="47.71164" lon="5.5919">
        <ele>296.79998779297</ele>
        <time>2017-07-18T13:12:39Z</time>
      </trkpt>
      <trkpt lat="47.71176" lon="5.59215">
        <ele>295.60000610352</ele>
        <time>2017-07-18T13:12:41Z</time>
      </trkpt>
      <trkpt lat="47.71187" lon="5.5924">
        <ele>294.60000610352</ele>
        <time>2017-07-18T13:12:43Z</time>
      </trkpt>
      <trkpt lat="47.71204" lon="5.59277">
        <ele>293.20001220703</ele>
        <time>2017-07-18T13:12:46Z</time>
      </trkpt>
      <trkpt lat="47.7122" lon="5.59313">
        <ele>292</ele>
        <time>2017-07-18T13:12:49Z</time>
      </trkpt>
      <trkpt lat="47.71237" lon="5.5935">
        <ele>290.60000610352</ele>
        <time>2017-07-18T13:12:52Z</time>
      </trkpt>
      <trkpt lat="47.71243" lon="5.59362">
        <ele>290</ele>
        <time>2017-07-18T13:12:53Z</time>
      </trkpt>
      <trkpt lat="47.71254" lon="5.59386">
        <ele>289.20001220703</ele>
        <time>2017-07-18T13:12:55Z</time>
      </trkpt>
      <trkpt lat="47.71265" lon="5.5941">
        <ele>287.79998779297</ele>
        <time>2017-07-18T13:12:57Z</time>
      </trkpt>
      <trkpt lat="47.71283" lon="5.59447">
        <ele>286.39999389648</ele>
        <time>2017-07-18T13:13:00Z</time>
      </trkpt>
      <trkpt lat="47.71295" lon="5.59471">
        <ele>285.20001220703</ele>
        <time>2017-07-18T13:13:02Z</time>
      </trkpt>
      <trkpt lat="47.713" lon="5.59483">
        <ele>284.79998779297</ele>
        <time>2017-07-18T13:13:03Z</time>
      </trkpt>
      <trkpt lat="47.71311" lon="5.59507">
        <ele>283.79998779297</ele>
        <time>2017-07-18T13:13:05Z</time>
      </trkpt>
      <trkpt lat="47.71336" lon="5.59563">
        <ele>283</ele>
        <time>2017-07-18T13:13:10Z</time>
      </trkpt>
      <trkpt lat="47.71341" lon="5.59577">
        <ele>282.79998779297</ele>
        <time>2017-07-18T13:13:11Z</time>
      </trkpt>
      <trkpt lat="47.71355" lon="5.59621">
        <ele>282</ele>
        <time>2017-07-18T13:13:14Z</time>
      </trkpt>
      <trkpt lat="47.71361" lon="5.59636">
        <ele>281.60000610352</ele>
        <time>2017-07-18T13:13:15Z</time>
      </trkpt>
      <trkpt lat="47.71371" lon="5.59669">
        <ele>280.20001220703</ele>
        <time>2017-07-18T13:13:17Z</time>
      </trkpt>
      <trkpt lat="47.71381" lon="5.59702">
        <ele>278.60000610352</ele>
        <time>2017-07-18T13:13:19Z</time>
      </trkpt>
      <trkpt lat="47.71386" lon="5.59719">
        <ele>276.60000610352</ele>
        <time>2017-07-18T13:13:20Z</time>
      </trkpt>
      <trkpt lat="47.71392" lon="5.59736">
        <ele>275.60000610352</ele>
        <time>2017-07-18T13:13:21Z</time>
      </trkpt>
      <trkpt lat="47.71397" lon="5.59753">
        <ele>274.60000610352</ele>
        <time>2017-07-18T13:13:22Z</time>
      </trkpt>
      <trkpt lat="47.71402" lon="5.5977">
        <ele>273.60000610352</ele>
        <time>2017-07-18T13:13:23Z</time>
      </trkpt>
      <trkpt lat="47.71407" lon="5.59787">
        <ele>272.60000610352</ele>
        <time>2017-07-18T13:13:24Z</time>
      </trkpt>
      <trkpt lat="47.71412" lon="5.59803">
        <ele>271.60000610352</ele>
        <time>2017-07-18T13:13:25Z</time>
      </trkpt>
      <trkpt lat="47.71422" lon="5.59836">
        <ele>269.79998779297</ele>
        <time>2017-07-18T13:13:27Z</time>
      </trkpt>
      <trkpt lat="47.71432" lon="5.59868">
        <ele>268.20001220703</ele>
        <time>2017-07-18T13:13:29Z</time>
      </trkpt>
      <trkpt lat="47.71441" lon="5.599">
        <ele>266.79998779297</ele>
        <time>2017-07-18T13:13:31Z</time>
      </trkpt>
      <trkpt lat="47.71455" lon="5.59944">
        <ele>265.60000610352</ele>
        <time>2017-07-18T13:13:34Z</time>
      </trkpt>
      <trkpt lat="47.71473" lon="5.60004">
        <ele>265.60000610352</ele>
        <time>2017-07-18T13:13:39Z</time>
      </trkpt>
      <trkpt lat="47.71486" lon="5.60044">
        <ele>266.60000610352</ele>
        <time>2017-07-18T13:13:43Z</time>
      </trkpt>
      <trkpt lat="47.71489" lon="5.60053">
        <ele>267.20001220703</ele>
        <time>2017-07-18T13:13:44Z</time>
      </trkpt>
      <trkpt lat="47.71498" lon="5.60077">
        <ele>267.79998779297</ele>
        <time>2017-07-18T13:13:47Z</time>
      </trkpt>
      <trkpt lat="47.71504" lon="5.60091">
        <ele>268.20001220703</ele>
        <time>2017-07-18T13:13:49Z</time>
      </trkpt>
      <trkpt lat="47.71514" lon="5.60109">
        <ele>268.79998779297</ele>
        <time>2017-07-18T13:13:52Z</time>
      </trkpt>
      <trkpt lat="47.71525" lon="5.60123">
        <ele>269.39999389648</ele>
        <time>2017-07-18T13:13:55Z</time>
      </trkpt>
      <trkpt lat="47.71533" lon="5.60136">
        <ele>270</ele>
        <time>2017-07-18T13:13:58Z</time>
      </trkpt>
      <trkpt lat="47.71541" lon="5.60143">
        <ele>270.60000610352</ele>
        <time>2017-07-18T13:14:01Z</time>
      </trkpt>
      <trkpt lat="47.71551" lon="5.60151">
        <ele>271</ele>
        <time>2017-07-18T13:14:06Z</time>
      </trkpt>
      <trkpt lat="47.71553" lon="5.60151">
        <ele>271</ele>
        <time>2017-07-18T13:14:07Z</time>
      </trkpt>
      <trkpt lat="47.71555" lon="5.60152">
        <ele>271</ele>
        <time>2017-07-18T13:14:08Z</time>
      </trkpt>
      <trkpt lat="47.71561" lon="5.60156">
        <ele>271.20001220703</ele>
        <time>2017-07-18T13:14:12Z</time>
      </trkpt>
      <trkpt lat="47.71564" lon="5.6016">
        <ele>271.39999389648</ele>
        <time>2017-07-18T13:14:54Z</time>
      </trkpt>
      <trkpt lat="47.71565" lon="5.60161">
        <ele>271.39999389648</ele>
        <time>2017-07-18T13:14:55Z</time>
      </trkpt>
      <trkpt lat="47.7157" lon="5.60173">
        <ele>271.60000610352</ele>
        <time>2017-07-18T13:14:59Z</time>
      </trkpt>
      <trkpt lat="47.71575" lon="5.60181">
        <ele>271.60000610352</ele>
        <time>2017-07-18T13:15:02Z</time>
      </trkpt>
      <trkpt lat="47.71583" lon="5.60187">
        <ele>271.79998779297</ele>
        <time>2017-07-18T13:15:05Z</time>
      </trkpt>
      <trkpt lat="47.71595" lon="5.602">
        <ele>272.20001220703</ele>
        <time>2017-07-18T13:15:09Z</time>
      </trkpt>
      <trkpt lat="47.71598" lon="5.60204">
        <ele>272.20001220703</ele>
        <time>2017-07-18T13:15:10Z</time>
      </trkpt>
      <trkpt lat="47.71601" lon="5.60207">
        <ele>272.39999389648</ele>
        <time>2017-07-18T13:15:11Z</time>
      </trkpt>
      <trkpt lat="47.71618" lon="5.60225">
        <ele>273</ele>
        <time>2017-07-18T13:15:16Z</time>
      </trkpt>
      <trkpt lat="47.71621" lon="5.60227">
        <ele>273.20001220703</ele>
        <time>2017-07-18T13:15:17Z</time>
      </trkpt>
      <trkpt lat="47.71639" lon="5.60246">
        <ele>274</ele>
        <time>2017-07-18T13:15:23Z</time>
      </trkpt>
      <trkpt lat="47.71642" lon="5.60249">
        <ele>274.20001220703</ele>
        <time>2017-07-18T13:15:24Z</time>
      </trkpt>
      <trkpt lat="47.71658" lon="5.60262">
        <ele>275</ele>
        <time>2017-07-18T13:15:29Z</time>
      </trkpt>
      <trkpt lat="47.71668" lon="5.60269">
        <ele>275.39999389648</ele>
        <time>2017-07-18T13:15:32Z</time>
      </trkpt>
      <trkpt lat="47.71684" lon="5.60284">
        <ele>275.60000610352</ele>
        <time>2017-07-18T13:15:36Z</time>
      </trkpt>
      <trkpt lat="47.71707" lon="5.60298">
        <ele>275.39999389648</ele>
        <time>2017-07-18T13:15:40Z</time>
      </trkpt>
      <trkpt lat="47.71734" lon="5.60316">
        <ele>274.20001220703</ele>
        <time>2017-07-18T13:15:44Z</time>
      </trkpt>
      <trkpt lat="47.71748" lon="5.60324">
        <ele>273.39999389648</ele>
        <time>2017-07-18T13:15:46Z</time>
      </trkpt>
      <trkpt lat="47.71762" lon="5.60334">
        <ele>272.79998779297</ele>
        <time>2017-07-18T13:15:48Z</time>
      </trkpt>
      <trkpt lat="47.71794" lon="5.60355">
        <ele>272</ele>
        <time>2017-07-18T13:15:53Z</time>
      </trkpt>
      <trkpt lat="47.71835" lon="5.6038">
        <ele>272</ele>
        <time>2017-07-18T13:16:00Z</time>
      </trkpt>
      <trkpt lat="47.71884" lon="5.60412">
        <ele>271.60000610352</ele>
        <time>2017-07-18T13:16:08Z</time>
      </trkpt>
      <trkpt lat="47.71891" lon="5.60416">
        <ele>271.39999389648</ele>
        <time>2017-07-18T13:16:09Z</time>
      </trkpt>
      <trkpt lat="47.71931" lon="5.60439">
        <ele>270.60000610352</ele>
        <time>2017-07-18T13:16:15Z</time>
      </trkpt>
      <trkpt lat="47.7195" lon="5.60451">
        <ele>270.20001220703</ele>
        <time>2017-07-18T13:16:18Z</time>
      </trkpt>
      <trkpt lat="47.71989" lon="5.60486">
        <ele>269.60000610352</ele>
        <time>2017-07-18T13:16:25Z</time>
      </trkpt>
      <trkpt lat="47.71994" lon="5.6049">
        <ele>269.60000610352</ele>
        <time>2017-07-18T13:16:26Z</time>
      </trkpt>
      <trkpt lat="47.72023" lon="5.60517">
        <ele>269</ele>
        <time>2017-07-18T13:16:32Z</time>
      </trkpt>
      <trkpt lat="47.72058" lon="5.60551">
        <ele>269</ele>
        <time>2017-07-18T13:16:40Z</time>
      </trkpt>
      <trkpt lat="47.72083" lon="5.60574">
        <ele>269.39999389648</ele>
        <time>2017-07-18T13:16:47Z</time>
      </trkpt>
      <trkpt lat="47.72096" lon="5.60587">
        <ele>269.39999389648</ele>
        <time>2017-07-18T13:16:52Z</time>
      </trkpt>
      <trkpt lat="47.72101" lon="5.60602">
        <ele>269.60000610352</ele>
        <time>2017-07-18T13:16:57Z</time>
      </trkpt>
      <trkpt lat="47.721" lon="5.60606">
        <ele>269.60000610352</ele>
        <time>2017-07-18T13:16:58Z</time>
      </trkpt>
      <trkpt lat="47.721" lon="5.60617">
        <ele>269.60000610352</ele>
        <time>2017-07-18T13:17:01Z</time>
      </trkpt>
      <trkpt lat="47.72103" lon="5.60617">
        <ele>269.60000610352</ele>
        <time>2017-07-18T13:17:02Z</time>
      </trkpt>
      <trkpt lat="47.7211" lon="5.60612">
        <ele>269.60000610352</ele>
        <time>2017-07-18T13:17:06Z</time>
      </trkpt>
      <trkpt lat="47.72108" lon="5.60605">
        <ele>269.39999389648</ele>
        <time>2017-07-18T13:17:21Z</time>
      </trkpt>
      <trkpt lat="47.72106" lon="5.60605">
        <ele>269.39999389648</ele>
        <time>2017-07-18T13:17:22Z</time>
      </trkpt>
      <trkpt lat="47.72102" lon="5.60613">
        <ele>269.39999389648</ele>
        <time>2017-07-18T13:17:25Z</time>
      </trkpt>
      <trkpt lat="47.72098" lon="5.6063">
        <ele>269.39999389648</ele>
        <time>2017-07-18T13:17:29Z</time>
      </trkpt>
      <trkpt lat="47.72094" lon="5.6067">
        <ele>270</ele>
        <time>2017-07-18T13:17:37Z</time>
      </trkpt>
      <trkpt lat="47.72091" lon="5.60697">
        <ele>270</ele>
        <time>2017-07-18T13:17:43Z</time>
      </trkpt>
      <trkpt lat="47.72088" lon="5.60717">
        <ele>270.60000610352</ele>
        <time>2017-07-18T13:17:48Z</time>
      </trkpt>
      <trkpt lat="47.72086" lon="5.60723">
        <ele>271</ele>
        <time>2017-07-18T13:17:50Z</time>
      </trkpt>
      <trkpt lat="47.72082" lon="5.60731">
        <ele>271.39999389648</ele>
        <time>2017-07-18T13:18:08Z</time>
      </trkpt>
      <trkpt lat="47.72084" lon="5.60734">
        <ele>271.39999389648</ele>
        <time>2017-07-18T13:18:09Z</time>
      </trkpt>
      <trkpt lat="47.72088" lon="5.60732">
        <ele>271.39999389648</ele>
        <time>2017-07-18T13:18:11Z</time>
      </trkpt>
      <trkpt lat="47.721" lon="5.60729">
        <ele>271.20001220703</ele>
        <time>2017-07-18T13:18:15Z</time>
      </trkpt>
      <trkpt lat="47.72103" lon="5.60729">
        <ele>271.20001220703</ele>
        <time>2017-07-18T13:18:16Z</time>
      </trkpt>
      <trkpt lat="47.72113" lon="5.60735">
        <ele>271.39999389648</ele>
        <time>2017-07-18T13:18:21Z</time>
      </trkpt>
      <trkpt lat="47.72107" lon="5.60735">
        <ele>273.20001220703</ele>
        <time>2017-07-18T13:26:55Z</time>
      </trkpt>
      <trkpt lat="47.72104" lon="5.60736">
        <ele>273.20001220703</ele>
        <time>2017-07-18T13:26:56Z</time>
      </trkpt>
      <trkpt lat="47.72092" lon="5.60731">
        <ele>272.79998779297</ele>
        <time>2017-07-18T13:27:00Z</time>
      </trkpt>
      <trkpt lat="47.72092" lon="5.60711">
        <ele>272.39999389648</ele>
        <time>2017-07-18T13:27:03Z</time>
      </trkpt>
      <trkpt lat="47.72093" lon="5.60697">
        <ele>272.20001220703</ele>
        <time>2017-07-18T13:27:05Z</time>
      </trkpt>
      <trkpt lat="47.72096" lon="5.60668">
        <ele>271.60000610352</ele>
        <time>2017-07-18T13:27:09Z</time>
      </trkpt>
      <trkpt lat="47.72099" lon="5.60631">
        <ele>271</ele>
        <time>2017-07-18T13:27:14Z</time>
      </trkpt>
      <trkpt lat="47.72101" lon="5.60617">
        <ele>271</ele>
        <time>2017-07-18T13:27:16Z</time>
      </trkpt>
      <trkpt lat="47.72103" lon="5.60611">
        <ele>270.79998779297</ele>
        <time>2017-07-18T13:27:17Z</time>
      </trkpt>
      <trkpt lat="47.72111" lon="5.60596">
        <ele>270.79998779297</ele>
        <time>2017-07-18T13:27:20Z</time>
      </trkpt>
      <trkpt lat="47.72121" lon="5.606">
        <ele>270.79998779297</ele>
        <time>2017-07-18T13:27:23Z</time>
      </trkpt>
      <trkpt lat="47.72132" lon="5.60611">
        <ele>271</ele>
        <time>2017-07-18T13:27:26Z</time>
      </trkpt>
      <trkpt lat="47.72141" lon="5.60619">
        <ele>271.39999389648</ele>
        <time>2017-07-18T13:27:29Z</time>
      </trkpt>
      <trkpt lat="47.72159" lon="5.60633">
        <ele>272.20001220703</ele>
        <time>2017-07-18T13:27:36Z</time>
      </trkpt>
      <trkpt lat="47.72179" lon="5.6065">
        <ele>273.39999389648</ele>
        <time>2017-07-18T13:27:44Z</time>
      </trkpt>
      <trkpt lat="47.72193" lon="5.60661">
        <ele>274.20001220703</ele>
        <time>2017-07-18T13:27:50Z</time>
      </trkpt>
      <trkpt lat="47.72198" lon="5.60666">
        <ele>274.39999389648</ele>
        <time>2017-07-18T13:27:52Z</time>
      </trkpt>
      <trkpt lat="47.72218" lon="5.60682">
        <ele>274.79998779297</ele>
        <time>2017-07-18T13:28:00Z</time>
      </trkpt>
      <trkpt lat="47.72228" lon="5.60691">
        <ele>275.39999389648</ele>
        <time>2017-07-18T13:28:04Z</time>
      </trkpt>
      <trkpt lat="47.72242" lon="5.60701">
        <ele>275.79998779297</ele>
        <time>2017-07-18T13:28:09Z</time>
      </trkpt>
      <trkpt lat="47.72255" lon="5.60712">
        <ele>276.39999389648</ele>
        <time>2017-07-18T13:28:14Z</time>
      </trkpt>
      <trkpt lat="47.72263" lon="5.60718">
        <ele>276.79998779297</ele>
        <time>2017-07-18T13:28:17Z</time>
      </trkpt>
      <trkpt lat="47.72282" lon="5.60734">
        <ele>277.39999389648</ele>
        <time>2017-07-18T13:28:24Z</time>
      </trkpt>
      <trkpt lat="47.72285" lon="5.60737">
        <ele>277.60000610352</ele>
        <time>2017-07-18T13:28:25Z</time>
      </trkpt>
      <trkpt lat="47.72306" lon="5.60753">
        <ele>278.39999389648</ele>
        <time>2017-07-18T13:28:33Z</time>
      </trkpt>
      <trkpt lat="47.72311" lon="5.60757">
        <ele>278.60000610352</ele>
        <time>2017-07-18T13:28:35Z</time>
      </trkpt>
      <trkpt lat="47.72325" lon="5.6077">
        <ele>279</ele>
        <time>2017-07-18T13:28:41Z</time>
      </trkpt>
      <trkpt lat="47.72336" lon="5.60778">
        <ele>279.60000610352</ele>
        <time>2017-07-18T13:28:45Z</time>
      </trkpt>
      <trkpt lat="47.72346" lon="5.60787">
        <ele>280.20001220703</ele>
        <time>2017-07-18T13:28:49Z</time>
      </trkpt>
      <trkpt lat="47.72354" lon="5.60793">
        <ele>280.79998779297</ele>
        <time>2017-07-18T13:28:52Z</time>
      </trkpt>
      <trkpt lat="47.72367" lon="5.60804">
        <ele>281.39999389648</ele>
        <time>2017-07-18T13:28:57Z</time>
      </trkpt>
      <trkpt lat="47.72375" lon="5.60811">
        <ele>281.79998779297</ele>
        <time>2017-07-18T13:29:00Z</time>
      </trkpt>
      <trkpt lat="47.7239" lon="5.60823">
        <ele>282.60000610352</ele>
        <time>2017-07-18T13:29:06Z</time>
      </trkpt>
      <trkpt lat="47.72392" lon="5.60825">
        <ele>282.79998779297</ele>
        <time>2017-07-18T13:29:07Z</time>
      </trkpt>
      <trkpt lat="47.72407" lon="5.60837">
        <ele>283.39999389648</ele>
        <time>2017-07-18T13:29:13Z</time>
      </trkpt>
      <trkpt lat="47.72414" lon="5.60844">
        <ele>283.79998779297</ele>
        <time>2017-07-18T13:29:16Z</time>
      </trkpt>
      <trkpt lat="47.7243" lon="5.60857">
        <ele>284.60000610352</ele>
        <time>2017-07-18T13:29:22Z</time>
      </trkpt>
      <trkpt lat="47.72433" lon="5.60858">
        <ele>284.79998779297</ele>
        <time>2017-07-18T13:29:23Z</time>
      </trkpt>
      <trkpt lat="47.72451" lon="5.60872">
        <ele>286</ele>
        <time>2017-07-18T13:29:30Z</time>
      </trkpt>
      <trkpt lat="47.72471" lon="5.60889">
        <ele>287</ele>
        <time>2017-07-18T13:29:38Z</time>
      </trkpt>
      <trkpt lat="47.72492" lon="5.60908">
        <ele>288.20001220703</ele>
        <time>2017-07-18T13:29:46Z</time>
      </trkpt>
      <trkpt lat="47.72516" lon="5.60929">
        <ele>288.79998779297</ele>
        <time>2017-07-18T13:29:55Z</time>
      </trkpt>
      <trkpt lat="47.72527" lon="5.60938">
        <ele>289.20001220703</ele>
        <time>2017-07-18T13:29:59Z</time>
      </trkpt>
      <trkpt lat="47.72541" lon="5.60948">
        <ele>289.39999389648</ele>
        <time>2017-07-18T13:30:04Z</time>
      </trkpt>
      <trkpt lat="47.72558" lon="5.60961">
        <ele>290.20001220703</ele>
        <time>2017-07-18T13:30:10Z</time>
      </trkpt>
      <trkpt lat="47.72562" lon="5.60962">
        <ele>290.39999389648</ele>
        <time>2017-07-18T13:30:11Z</time>
      </trkpt>
      <trkpt lat="47.72594" lon="5.60978">
        <ele>290.79998779297</ele>
        <time>2017-07-18T13:30:20Z</time>
      </trkpt>
      <trkpt lat="47.72627" lon="5.60992">
        <ele>290.39999389648</ele>
        <time>2017-07-18T13:30:27Z</time>
      </trkpt>
      <trkpt lat="47.72662" lon="5.61007">
        <ele>289.39999389648</ele>
        <time>2017-07-18T13:30:33Z</time>
      </trkpt>
      <trkpt lat="47.72676" lon="5.61012">
        <ele>289</ele>
        <time>2017-07-18T13:30:35Z</time>
      </trkpt>
      <trkpt lat="47.72706" lon="5.61024">
        <ele>287.60000610352</ele>
        <time>2017-07-18T13:30:39Z</time>
      </trkpt>
      <trkpt lat="47.72729" lon="5.61034">
        <ele>286.60000610352</ele>
        <time>2017-07-18T13:30:42Z</time>
      </trkpt>
      <trkpt lat="47.72753" lon="5.61044">
        <ele>285.60000610352</ele>
        <time>2017-07-18T13:30:45Z</time>
      </trkpt>
      <trkpt lat="47.72775" lon="5.61054">
        <ele>284.79998779297</ele>
        <time>2017-07-18T13:30:48Z</time>
      </trkpt>
      <trkpt lat="47.72782" lon="5.61057">
        <ele>284.39999389648</ele>
        <time>2017-07-18T13:30:49Z</time>
      </trkpt>
      <trkpt lat="47.72822" lon="5.61075">
        <ele>283.60000610352</ele>
        <time>2017-07-18T13:30:55Z</time>
      </trkpt>
      <trkpt lat="47.72872" lon="5.61096">
        <ele>283.60000610352</ele>
        <time>2017-07-18T13:31:03Z</time>
      </trkpt>
      <trkpt lat="47.72912" lon="5.61113">
        <ele>284</ele>
        <time>2017-07-18T13:31:10Z</time>
      </trkpt>
      <trkpt lat="47.72946" lon="5.61128">
        <ele>284.60000610352</ele>
        <time>2017-07-18T13:31:17Z</time>
      </trkpt>
      <trkpt lat="47.72964" lon="5.61137">
        <ele>285.60000610352</ele>
        <time>2017-07-18T13:31:22Z</time>
      </trkpt>
      <trkpt lat="47.72968" lon="5.61138">
        <ele>285.79998779297</ele>
        <time>2017-07-18T13:31:23Z</time>
      </trkpt>
      <trkpt lat="47.72983" lon="5.61145">
        <ele>286.60000610352</ele>
        <time>2017-07-18T13:31:28Z</time>
      </trkpt>
      <trkpt lat="47.72989" lon="5.61148">
        <ele>286.79998779297</ele>
        <time>2017-07-18T13:31:30Z</time>
      </trkpt>
      <trkpt lat="47.73009" lon="5.61156">
        <ele>287.79998779297</ele>
        <time>2017-07-18T13:31:36Z</time>
      </trkpt>
      <trkpt lat="47.73015" lon="5.6116">
        <ele>288</ele>
        <time>2017-07-18T13:31:38Z</time>
      </trkpt>
      <trkpt lat="47.73042" lon="5.61171">
        <ele>288.60000610352</ele>
        <time>2017-07-18T13:31:46Z</time>
      </trkpt>
      <trkpt lat="47.73049" lon="5.61175">
        <ele>288.79998779297</ele>
        <time>2017-07-18T13:31:48Z</time>
      </trkpt>
      <trkpt lat="47.73071" lon="5.61184">
        <ele>289.20001220703</ele>
        <time>2017-07-18T13:31:54Z</time>
      </trkpt>
      <trkpt lat="47.73093" lon="5.61194">
        <ele>289.79998779297</ele>
        <time>2017-07-18T13:32:00Z</time>
      </trkpt>
      <trkpt lat="47.73107" lon="5.612">
        <ele>290.20001220703</ele>
        <time>2017-07-18T13:32:04Z</time>
      </trkpt>
      <trkpt lat="47.73128" lon="5.61207">
        <ele>291</ele>
        <time>2017-07-18T13:32:10Z</time>
      </trkpt>
      <trkpt lat="47.73138" lon="5.61212">
        <ele>291.39999389648</ele>
        <time>2017-07-18T13:32:13Z</time>
      </trkpt>
      <trkpt lat="47.73155" lon="5.61219">
        <ele>292</ele>
        <time>2017-07-18T13:32:18Z</time>
      </trkpt>
      <trkpt lat="47.73162" lon="5.61222">
        <ele>292.20001220703</ele>
        <time>2017-07-18T13:32:20Z</time>
      </trkpt>
      <trkpt lat="47.73182" lon="5.61232">
        <ele>293</ele>
        <time>2017-07-18T13:32:26Z</time>
      </trkpt>
      <trkpt lat="47.73185" lon="5.61233">
        <ele>293</ele>
        <time>2017-07-18T13:32:27Z</time>
      </trkpt>
      <trkpt lat="47.73205" lon="5.61241">
        <ele>294</ele>
        <time>2017-07-18T13:32:33Z</time>
      </trkpt>
      <trkpt lat="47.73208" lon="5.61243">
        <ele>294.20001220703</ele>
        <time>2017-07-18T13:32:34Z</time>
      </trkpt>
      <trkpt lat="47.73232" lon="5.61253">
        <ele>295.20001220703</ele>
        <time>2017-07-18T13:32:41Z</time>
      </trkpt>
      <trkpt lat="47.73246" lon="5.61259">
        <ele>295.60000610352</ele>
        <time>2017-07-18T13:32:45Z</time>
      </trkpt>
      <trkpt lat="47.73266" lon="5.61267">
        <ele>296.39999389648</ele>
        <time>2017-07-18T13:32:51Z</time>
      </trkpt>
      <trkpt lat="47.73281" lon="5.61274">
        <ele>296.79998779297</ele>
        <time>2017-07-18T13:32:55Z</time>
      </trkpt>
      <trkpt lat="47.73299" lon="5.61282">
        <ele>297.39999389648</ele>
        <time>2017-07-18T13:33:00Z</time>
      </trkpt>
      <trkpt lat="47.73311" lon="5.61287">
        <ele>297.79998779297</ele>
        <time>2017-07-18T13:33:03Z</time>
      </trkpt>
      <trkpt lat="47.73342" lon="5.613">
        <ele>298.39999389648</ele>
        <time>2017-07-18T13:33:11Z</time>
      </trkpt>
      <trkpt lat="47.73346" lon="5.61303">
        <ele>298.60000610352</ele>
        <time>2017-07-18T13:33:12Z</time>
      </trkpt>
      <trkpt lat="47.73378" lon="5.61315">
        <ele>298.79998779297</ele>
        <time>2017-07-18T13:33:19Z</time>
      </trkpt>
      <trkpt lat="47.73417" lon="5.61332">
        <ele>298.60000610352</ele>
        <time>2017-07-18T13:33:27Z</time>
      </trkpt>
      <trkpt lat="47.73471" lon="5.61356">
        <ele>298.20001220703</ele>
        <time>2017-07-18T13:33:37Z</time>
      </trkpt>
      <trkpt lat="47.7352" lon="5.61376">
        <ele>298</ele>
        <time>2017-07-18T13:33:46Z</time>
      </trkpt>
      <trkpt lat="47.73564" lon="5.61395">
        <ele>298.60000610352</ele>
        <time>2017-07-18T13:33:55Z</time>
      </trkpt>
      <trkpt lat="47.73604" lon="5.61412">
        <ele>298</ele>
        <time>2017-07-18T13:34:03Z</time>
      </trkpt>
      <trkpt lat="47.73644" lon="5.61429">
        <ele>298.20001220703</ele>
        <time>2017-07-18T13:34:10Z</time>
      </trkpt>
      <trkpt lat="47.73675" lon="5.61441">
        <ele>297.39999389648</ele>
        <time>2017-07-18T13:34:15Z</time>
      </trkpt>
      <trkpt lat="47.73706" lon="5.61455">
        <ele>296.39999389648</ele>
        <time>2017-07-18T13:34:20Z</time>
      </trkpt>
      <trkpt lat="47.73718" lon="5.6146">
        <ele>296.20001220703</ele>
        <time>2017-07-18T13:34:22Z</time>
      </trkpt>
      <trkpt lat="47.7376" lon="5.61478">
        <ele>295.39999389648</ele>
        <time>2017-07-18T13:34:29Z</time>
      </trkpt>
      <trkpt lat="47.73814" lon="5.61502">
        <ele>295.20001220703</ele>
        <time>2017-07-18T13:34:38Z</time>
      </trkpt>
      <trkpt lat="47.73838" lon="5.61511">
        <ele>295.60000610352</ele>
        <time>2017-07-18T13:34:42Z</time>
      </trkpt>
      <trkpt lat="47.7386" lon="5.61521">
        <ele>295.79998779297</ele>
        <time>2017-07-18T13:34:46Z</time>
      </trkpt>
      <trkpt lat="47.73894" lon="5.61537">
        <ele>296.79998779297</ele>
        <time>2017-07-18T13:34:53Z</time>
      </trkpt>
      <trkpt lat="47.73907" lon="5.61542">
        <ele>297.20001220703</ele>
        <time>2017-07-18T13:34:56Z</time>
      </trkpt>
      <trkpt lat="47.73923" lon="5.61549">
        <ele>298</ele>
        <time>2017-07-18T13:35:00Z</time>
      </trkpt>
      <trkpt lat="47.73934" lon="5.61554">
        <ele>298.39999389648</ele>
        <time>2017-07-18T13:35:03Z</time>
      </trkpt>
      <trkpt lat="47.73948" lon="5.61561">
        <ele>299</ele>
        <time>2017-07-18T13:35:07Z</time>
      </trkpt>
      <trkpt lat="47.73964" lon="5.61566">
        <ele>299.39999389648</ele>
        <time>2017-07-18T13:35:12Z</time>
      </trkpt>
      <trkpt lat="47.7397" lon="5.61567">
        <ele>299.79998779297</ele>
        <time>2017-07-18T13:35:14Z</time>
      </trkpt>
      <trkpt lat="47.73981" lon="5.61574">
        <ele>300.60000610352</ele>
        <time>2017-07-18T13:35:18Z</time>
      </trkpt>
      <trkpt lat="47.73987" lon="5.61577">
        <ele>300.79998779297</ele>
        <time>2017-07-18T13:35:20Z</time>
      </trkpt>
      <trkpt lat="47.74001" lon="5.61582">
        <ele>301.60000610352</ele>
        <time>2017-07-18T13:35:25Z</time>
      </trkpt>
      <trkpt lat="47.74007" lon="5.61586">
        <ele>302.20001220703</ele>
        <time>2017-07-18T13:35:28Z</time>
      </trkpt>
      <trkpt lat="47.74013" lon="5.61589">
        <ele>302.79998779297</ele>
        <time>2017-07-18T13:35:31Z</time>
      </trkpt>
      <trkpt lat="47.74022" lon="5.61592">
        <ele>303.39999389648</ele>
        <time>2017-07-18T13:35:35Z</time>
      </trkpt>
      <trkpt lat="47.74029" lon="5.61594">
        <ele>303.79998779297</ele>
        <time>2017-07-18T13:35:38Z</time>
      </trkpt>
      <trkpt lat="47.74041" lon="5.616">
        <ele>304.60000610352</ele>
        <time>2017-07-18T13:35:43Z</time>
      </trkpt>
      <trkpt lat="47.74043" lon="5.61601">
        <ele>304.79998779297</ele>
        <time>2017-07-18T13:35:44Z</time>
      </trkpt>
      <trkpt lat="47.74055" lon="5.61606">
        <ele>306</ele>
        <time>2017-07-18T13:35:49Z</time>
      </trkpt>
      <trkpt lat="47.74063" lon="5.6161">
        <ele>306.39999389648</ele>
        <time>2017-07-18T13:35:52Z</time>
      </trkpt>
      <trkpt lat="47.7407" lon="5.61613">
        <ele>307</ele>
        <time>2017-07-18T13:35:55Z</time>
      </trkpt>
      <trkpt lat="47.74083" lon="5.61618">
        <ele>307.60000610352</ele>
        <time>2017-07-18T13:36:00Z</time>
      </trkpt>
      <trkpt lat="47.74087" lon="5.61621">
        <ele>308</ele>
        <time>2017-07-18T13:36:02Z</time>
      </trkpt>
      <trkpt lat="47.74097" lon="5.61625">
        <ele>308.79998779297</ele>
        <time>2017-07-18T13:36:06Z</time>
      </trkpt>
      <trkpt lat="47.74102" lon="5.61628">
        <ele>309.20001220703</ele>
        <time>2017-07-18T13:36:08Z</time>
      </trkpt>
      <trkpt lat="47.74113" lon="5.61633">
        <ele>310.20001220703</ele>
        <time>2017-07-18T13:36:13Z</time>
      </trkpt>
      <trkpt lat="47.74115" lon="5.61633">
        <ele>310.39999389648</ele>
        <time>2017-07-18T13:36:14Z</time>
      </trkpt>
      <trkpt lat="47.74127" lon="5.61638">
        <ele>311.39999389648</ele>
        <time>2017-07-18T13:36:20Z</time>
      </trkpt>
      <trkpt lat="47.74129" lon="5.61639">
        <ele>311.60000610352</ele>
        <time>2017-07-18T13:36:21Z</time>
      </trkpt>
      <trkpt lat="47.74131" lon="5.6164">
        <ele>311.79998779297</ele>
        <time>2017-07-18T13:36:22Z</time>
      </trkpt>
      <trkpt lat="47.74139" lon="5.61644">
        <ele>312.39999389648</ele>
        <time>2017-07-18T13:36:26Z</time>
      </trkpt>
      <trkpt lat="47.74151" lon="5.61649">
        <ele>313.60000610352</ele>
        <time>2017-07-18T13:36:32Z</time>
      </trkpt>
      <trkpt lat="47.74155" lon="5.6165">
        <ele>313.79998779297</ele>
        <time>2017-07-18T13:36:34Z</time>
      </trkpt>
      <trkpt lat="47.74167" lon="5.61655">
        <ele>314.60000610352</ele>
        <time>2017-07-18T13:36:40Z</time>
      </trkpt>
      <trkpt lat="47.74169" lon="5.61656">
        <ele>314.79998779297</ele>
        <time>2017-07-18T13:36:41Z</time>
      </trkpt>
      <trkpt lat="47.74178" lon="5.6166">
        <ele>315.79998779297</ele>
        <time>2017-07-18T13:36:46Z</time>
      </trkpt>
      <trkpt lat="47.74182" lon="5.61662">
        <ele>316.20001220703</ele>
        <time>2017-07-18T13:36:48Z</time>
      </trkpt>
      <trkpt lat="47.7419" lon="5.61665">
        <ele>317</ele>
        <time>2017-07-18T13:36:52Z</time>
      </trkpt>
      <trkpt lat="47.74204" lon="5.61671">
        <ele>318</ele>
        <time>2017-07-18T13:36:59Z</time>
      </trkpt>
      <trkpt lat="47.74218" lon="5.61677">
        <ele>319</ele>
        <time>2017-07-18T13:37:06Z</time>
      </trkpt>
      <trkpt lat="47.74235" lon="5.61686">
        <ele>320</ele>
        <time>2017-07-18T13:37:14Z</time>
      </trkpt>
      <trkpt lat="47.74254" lon="5.61694">
        <ele>321</ele>
        <time>2017-07-18T13:37:22Z</time>
      </trkpt>
      <trkpt lat="47.74278" lon="5.61705">
        <ele>322</ele>
        <time>2017-07-18T13:37:31Z</time>
      </trkpt>
      <trkpt lat="47.74281" lon="5.61706">
        <ele>322.20001220703</ele>
        <time>2017-07-18T13:37:32Z</time>
      </trkpt>
      <trkpt lat="47.74297" lon="5.61711">
        <ele>322.79998779297</ele>
        <time>2017-07-18T13:37:38Z</time>
      </trkpt>
      <trkpt lat="47.74306" lon="5.61715">
        <ele>323.20001220703</ele>
        <time>2017-07-18T13:37:41Z</time>
      </trkpt>
      <trkpt lat="47.7432" lon="5.61722">
        <ele>324</ele>
        <time>2017-07-18T13:37:46Z</time>
      </trkpt>
      <trkpt lat="47.74326" lon="5.61725">
        <ele>324.20001220703</ele>
        <time>2017-07-18T13:37:48Z</time>
      </trkpt>
      <trkpt lat="47.74346" lon="5.61733">
        <ele>325.20001220703</ele>
        <time>2017-07-18T13:37:55Z</time>
      </trkpt>
      <trkpt lat="47.74349" lon="5.61735">
        <ele>325.39999389648</ele>
        <time>2017-07-18T13:37:56Z</time>
      </trkpt>
      <trkpt lat="47.74378" lon="5.61748">
        <ele>326.39999389648</ele>
        <time>2017-07-18T13:38:05Z</time>
      </trkpt>
      <trkpt lat="47.74381" lon="5.61749">
        <ele>326.60000610352</ele>
        <time>2017-07-18T13:38:06Z</time>
      </trkpt>
      <trkpt lat="47.74404" lon="5.61758">
        <ele>327.20001220703</ele>
        <time>2017-07-18T13:38:13Z</time>
      </trkpt>
      <trkpt lat="47.74417" lon="5.61765">
        <ele>327.60000610352</ele>
        <time>2017-07-18T13:38:17Z</time>
      </trkpt>
      <trkpt lat="47.7443" lon="5.61769">
        <ele>327.79998779297</ele>
        <time>2017-07-18T13:38:21Z</time>
      </trkpt>
      <trkpt lat="47.74445" lon="5.61776">
        <ele>328.60000610352</ele>
        <time>2017-07-18T13:38:26Z</time>
      </trkpt>
      <trkpt lat="47.74458" lon="5.61782">
        <ele>329.20001220703</ele>
        <time>2017-07-18T13:38:30Z</time>
      </trkpt>
      <trkpt lat="47.74468" lon="5.61787">
        <ele>329.60000610352</ele>
        <time>2017-07-18T13:38:33Z</time>
      </trkpt>
      <trkpt lat="47.74477" lon="5.61789">
        <ele>330.20001220703</ele>
        <time>2017-07-18T13:38:36Z</time>
      </trkpt>
      <trkpt lat="47.74487" lon="5.61794">
        <ele>330.60000610352</ele>
        <time>2017-07-18T13:38:39Z</time>
      </trkpt>
      <trkpt lat="47.745" lon="5.618">
        <ele>331.39999389648</ele>
        <time>2017-07-18T13:38:43Z</time>
      </trkpt>
      <trkpt lat="47.74509" lon="5.61803">
        <ele>331.79998779297</ele>
        <time>2017-07-18T13:38:46Z</time>
      </trkpt>
      <trkpt lat="47.74521" lon="5.61809">
        <ele>332.39999389648</ele>
        <time>2017-07-18T13:38:50Z</time>
      </trkpt>
      <trkpt lat="47.7453" lon="5.61813">
        <ele>333</ele>
        <time>2017-07-18T13:38:53Z</time>
      </trkpt>
      <trkpt lat="47.74546" lon="5.61819">
        <ele>333.60000610352</ele>
        <time>2017-07-18T13:38:58Z</time>
      </trkpt>
      <trkpt lat="47.74555" lon="5.61824">
        <ele>334.20001220703</ele>
        <time>2017-07-18T13:39:01Z</time>
      </trkpt>
      <trkpt lat="47.74568" lon="5.61829">
        <ele>334.60000610352</ele>
        <time>2017-07-18T13:39:05Z</time>
      </trkpt>
      <trkpt lat="47.74576" lon="5.61832">
        <ele>335.20001220703</ele>
        <time>2017-07-18T13:39:08Z</time>
      </trkpt>
      <trkpt lat="47.74588" lon="5.61838">
        <ele>336</ele>
        <time>2017-07-18T13:39:12Z</time>
      </trkpt>
      <trkpt lat="47.74594" lon="5.61841">
        <ele>336.39999389648</ele>
        <time>2017-07-18T13:39:14Z</time>
      </trkpt>
      <trkpt lat="47.74614" lon="5.6185">
        <ele>337.39999389648</ele>
        <time>2017-07-18T13:39:21Z</time>
      </trkpt>
      <trkpt lat="47.74617" lon="5.61851">
        <ele>337.79998779297</ele>
        <time>2017-07-18T13:39:22Z</time>
      </trkpt>
      <trkpt lat="47.74636" lon="5.61858">
        <ele>338.60000610352</ele>
        <time>2017-07-18T13:39:28Z</time>
      </trkpt>
      <trkpt lat="47.74642" lon="5.61862">
        <ele>338.79998779297</ele>
        <time>2017-07-18T13:39:30Z</time>
      </trkpt>
      <trkpt lat="47.74657" lon="5.61869">
        <ele>339.39999389648</ele>
        <time>2017-07-18T13:39:35Z</time>
      </trkpt>
      <trkpt lat="47.7466" lon="5.61871">
        <ele>339.60000610352</ele>
        <time>2017-07-18T13:39:36Z</time>
      </trkpt>
      <trkpt lat="47.7467" lon="5.61875">
        <ele>340</ele>
        <time>2017-07-18T13:39:39Z</time>
      </trkpt>
      <trkpt lat="47.7469" lon="5.61884">
        <ele>340.60000610352</ele>
        <time>2017-07-18T13:39:45Z</time>
      </trkpt>
      <trkpt lat="47.74701" lon="5.61889">
        <ele>340.79998779297</ele>
        <time>2017-07-18T13:39:48Z</time>
      </trkpt>
      <trkpt lat="47.7473" lon="5.61904">
        <ele>341</ele>
        <time>2017-07-18T13:39:56Z</time>
      </trkpt>
      <trkpt lat="47.74759" lon="5.6192">
        <ele>341</ele>
        <time>2017-07-18T13:40:03Z</time>
      </trkpt>
      <trkpt lat="47.74787" lon="5.61933">
        <ele>340.79998779297</ele>
        <time>2017-07-18T13:40:09Z</time>
      </trkpt>
      <trkpt lat="47.74818" lon="5.61952">
        <ele>340.60000610352</ele>
        <time>2017-07-18T13:40:15Z</time>
      </trkpt>
      <trkpt lat="47.74855" lon="5.61977">
        <ele>339.39999389648</ele>
        <time>2017-07-18T13:40:21Z</time>
      </trkpt>
      <trkpt lat="47.74862" lon="5.61982">
        <ele>339.20001220703</ele>
        <time>2017-07-18T13:40:22Z</time>
      </trkpt>
      <trkpt lat="47.74891" lon="5.62004">
        <ele>338.20001220703</ele>
        <time>2017-07-18T13:40:26Z</time>
      </trkpt>
      <trkpt lat="47.74906" lon="5.62017">
        <ele>337.60000610352</ele>
        <time>2017-07-18T13:40:28Z</time>
      </trkpt>
      <trkpt lat="47.74922" lon="5.62031">
        <ele>337</ele>
        <time>2017-07-18T13:40:30Z</time>
      </trkpt>
      <trkpt lat="47.74954" lon="5.62061">
        <ele>335.20001220703</ele>
        <time>2017-07-18T13:40:34Z</time>
      </trkpt>
      <trkpt lat="47.74979" lon="5.62087">
        <ele>334</ele>
        <time>2017-07-18T13:40:37Z</time>
      </trkpt>
      <trkpt lat="47.74996" lon="5.62106">
        <ele>333</ele>
        <time>2017-07-18T13:40:39Z</time>
      </trkpt>
      <trkpt lat="47.75005" lon="5.62116">
        <ele>332.39999389648</ele>
        <time>2017-07-18T13:40:40Z</time>
      </trkpt>
      <trkpt lat="47.75022" lon="5.62137">
        <ele>331.20001220703</ele>
        <time>2017-07-18T13:40:42Z</time>
      </trkpt>
      <trkpt lat="47.75048" lon="5.6217">
        <ele>329.79998779297</ele>
        <time>2017-07-18T13:40:45Z</time>
      </trkpt>
      <trkpt lat="47.75056" lon="5.62182">
        <ele>329.39999389648</ele>
        <time>2017-07-18T13:40:46Z</time>
      </trkpt>
      <trkpt lat="47.75065" lon="5.62193">
        <ele>328.60000610352</ele>
        <time>2017-07-18T13:40:47Z</time>
      </trkpt>
      <trkpt lat="47.75082" lon="5.62216">
        <ele>327</ele>
        <time>2017-07-18T13:40:49Z</time>
      </trkpt>
      <trkpt lat="47.75099" lon="5.62239">
        <ele>325.60000610352</ele>
        <time>2017-07-18T13:40:51Z</time>
      </trkpt>
      <trkpt lat="47.75116" lon="5.6226">
        <ele>324.39999389648</ele>
        <time>2017-07-18T13:40:53Z</time>
      </trkpt>
      <trkpt lat="47.75146" lon="5.62301">
        <ele>323.20001220703</ele>
        <time>2017-07-18T13:40:57Z</time>
      </trkpt>
      <trkpt lat="47.75168" lon="5.6233">
        <ele>323</ele>
        <time>2017-07-18T13:41:00Z</time>
      </trkpt>
      <trkpt lat="47.75208" lon="5.62382">
        <ele>323</ele>
        <time>2017-07-18T13:41:06Z</time>
      </trkpt>
      <trkpt lat="47.75249" lon="5.62437">
        <ele>323.20001220703</ele>
        <time>2017-07-18T13:41:13Z</time>
      </trkpt>
      <trkpt lat="47.75255" lon="5.62444">
        <ele>323.20001220703</ele>
        <time>2017-07-18T13:41:14Z</time>
      </trkpt>
      <trkpt lat="47.75291" lon="5.62492">
        <ele>323.20001220703</ele>
        <time>2017-07-18T13:41:21Z</time>
      </trkpt>
      <trkpt lat="47.75334" lon="5.62548">
        <ele>323.20001220703</ele>
        <time>2017-07-18T13:41:30Z</time>
      </trkpt>
      <trkpt lat="47.75362" lon="5.62585">
        <ele>323</ele>
        <time>2017-07-18T13:41:36Z</time>
      </trkpt>
      <trkpt lat="47.75392" lon="5.62625">
        <ele>323.20001220703</ele>
        <time>2017-07-18T13:41:43Z</time>
      </trkpt>
      <trkpt lat="47.75411" lon="5.62651">
        <ele>323.20001220703</ele>
        <time>2017-07-18T13:41:48Z</time>
      </trkpt>
      <trkpt lat="47.75439" lon="5.62687">
        <ele>323.79998779297</ele>
        <time>2017-07-18T13:41:55Z</time>
      </trkpt>
      <trkpt lat="47.75465" lon="5.62722">
        <ele>324.39999389648</ele>
        <time>2017-07-18T13:42:02Z</time>
      </trkpt>
      <trkpt lat="47.75469" lon="5.62727">
        <ele>324.39999389648</ele>
        <time>2017-07-18T13:42:03Z</time>
      </trkpt>
      <trkpt lat="47.75507" lon="5.62776">
        <ele>325</ele>
        <time>2017-07-18T13:42:13Z</time>
      </trkpt>
      <trkpt lat="47.75529" lon="5.62805">
        <ele>325.39999389648</ele>
        <time>2017-07-18T13:42:19Z</time>
      </trkpt>
      <trkpt lat="47.75533" lon="5.6281">
        <ele>325.39999389648</ele>
        <time>2017-07-18T13:42:20Z</time>
      </trkpt>
      <trkpt lat="47.7554" lon="5.6282">
        <ele>325.60000610352</ele>
        <time>2017-07-18T13:42:22Z</time>
      </trkpt>
      <trkpt lat="47.75555" lon="5.62839">
        <ele>326</ele>
        <time>2017-07-18T13:42:26Z</time>
      </trkpt>
      <trkpt lat="47.75565" lon="5.62853">
        <ele>326.39999389648</ele>
        <time>2017-07-18T13:42:29Z</time>
      </trkpt>
      <trkpt lat="47.75569" lon="5.62858">
        <ele>326.60000610352</ele>
        <time>2017-07-18T13:42:30Z</time>
      </trkpt>
      <trkpt lat="47.7558" lon="5.62872">
        <ele>327</ele>
        <time>2017-07-18T13:42:33Z</time>
      </trkpt>
      <trkpt lat="47.75587" lon="5.62882">
        <ele>327.60000610352</ele>
        <time>2017-07-18T13:42:35Z</time>
      </trkpt>
      <trkpt lat="47.75606" lon="5.62906">
        <ele>328</ele>
        <time>2017-07-18T13:42:40Z</time>
      </trkpt>
      <trkpt lat="47.75624" lon="5.62932">
        <ele>328.60000610352</ele>
        <time>2017-07-18T13:42:45Z</time>
      </trkpt>
      <trkpt lat="47.75639" lon="5.6295">
        <ele>329.20001220703</ele>
        <time>2017-07-18T13:42:49Z</time>
      </trkpt>
      <trkpt lat="47.75657" lon="5.62973">
        <ele>329.79998779297</ele>
        <time>2017-07-18T13:42:54Z</time>
      </trkpt>
      <trkpt lat="47.75672" lon="5.62993">
        <ele>330.20001220703</ele>
        <time>2017-07-18T13:42:58Z</time>
      </trkpt>
      <trkpt lat="47.75702" lon="5.63034">
        <ele>330.60000610352</ele>
        <time>2017-07-18T13:43:06Z</time>
      </trkpt>
      <trkpt lat="47.75733" lon="5.63074">
        <ele>330.79998779297</ele>
        <time>2017-07-18T13:43:14Z</time>
      </trkpt>
      <trkpt lat="47.75737" lon="5.63079">
        <ele>330.79998779297</ele>
        <time>2017-07-18T13:43:15Z</time>
      </trkpt>
      <trkpt lat="47.75776" lon="5.63131">
        <ele>331.20001220703</ele>
        <time>2017-07-18T13:43:25Z</time>
      </trkpt>
      <trkpt lat="47.75812" lon="5.63178">
        <ele>331</ele>
        <time>2017-07-18T13:43:33Z</time>
      </trkpt>
      <trkpt lat="47.75853" lon="5.63233">
        <ele>330.20001220703</ele>
        <time>2017-07-18T13:43:41Z</time>
      </trkpt>
      <trkpt lat="47.75859" lon="5.6324">
        <ele>330.20001220703</ele>
        <time>2017-07-18T13:43:42Z</time>
      </trkpt>
      <trkpt lat="47.75876" lon="5.63262">
        <ele>329.60000610352</ele>
        <time>2017-07-18T13:43:45Z</time>
      </trkpt>
      <trkpt lat="47.75916" lon="5.63316">
        <ele>328.60000610352</ele>
        <time>2017-07-18T13:43:52Z</time>
      </trkpt>
      <trkpt lat="47.75922" lon="5.63323">
        <ele>328.60000610352</ele>
        <time>2017-07-18T13:43:53Z</time>
      </trkpt>
      <trkpt lat="47.75959" lon="5.63374">
        <ele>328</ele>
        <time>2017-07-18T13:44:00Z</time>
      </trkpt>
      <trkpt lat="47.76" lon="5.63427">
        <ele>328</ele>
        <time>2017-07-18T13:44:08Z</time>
      </trkpt>
      <trkpt lat="47.76005" lon="5.63434">
        <ele>328</ele>
        <time>2017-07-18T13:44:09Z</time>
      </trkpt>
      <trkpt lat="47.7605" lon="5.63489">
        <ele>328</ele>
        <time>2017-07-18T13:44:18Z</time>
      </trkpt>
      <trkpt lat="47.76055" lon="5.63495">
        <ele>328</ele>
        <time>2017-07-18T13:44:19Z</time>
      </trkpt>
      <trkpt lat="47.76092" lon="5.63539">
        <ele>328.60000610352</ele>
        <time>2017-07-18T13:44:27Z</time>
      </trkpt>
      <trkpt lat="47.76131" lon="5.63585">
        <ele>329.60000610352</ele>
        <time>2017-07-18T13:44:36Z</time>
      </trkpt>
      <trkpt lat="47.76135" lon="5.63591">
        <ele>329.79998779297</ele>
        <time>2017-07-18T13:44:37Z</time>
      </trkpt>
      <trkpt lat="47.76174" lon="5.63638">
        <ele>330.60000610352</ele>
        <time>2017-07-18T13:44:47Z</time>
      </trkpt>
      <trkpt lat="47.76178" lon="5.63642">
        <ele>330.60000610352</ele>
        <time>2017-07-18T13:44:48Z</time>
      </trkpt>
      <trkpt lat="47.76199" lon="5.63667">
        <ele>331</ele>
        <time>2017-07-18T13:44:53Z</time>
      </trkpt>
      <trkpt lat="47.76234" lon="5.63711">
        <ele>331.20001220703</ele>
        <time>2017-07-18T13:45:01Z</time>
      </trkpt>
      <trkpt lat="47.76281" lon="5.63766">
        <ele>331</ele>
        <time>2017-07-18T13:45:11Z</time>
      </trkpt>
      <trkpt lat="47.76295" lon="5.63783">
        <ele>330.79998779297</ele>
        <time>2017-07-18T13:45:14Z</time>
      </trkpt>
      <trkpt lat="47.76339" lon="5.63835">
        <ele>330.60000610352</ele>
        <time>2017-07-18T13:45:23Z</time>
      </trkpt>
      <trkpt lat="47.7635" lon="5.63848">
        <ele>330.39999389648</ele>
        <time>2017-07-18T13:45:25Z</time>
      </trkpt>
      <trkpt lat="47.76387" lon="5.63891">
        <ele>330</ele>
        <time>2017-07-18T13:45:32Z</time>
      </trkpt>
      <trkpt lat="47.76406" lon="5.63914">
        <ele>329.60000610352</ele>
        <time>2017-07-18T13:45:36Z</time>
      </trkpt>
      <trkpt lat="47.76414" lon="5.63924">
        <ele>329.60000610352</ele>
        <time>2017-07-18T13:45:38Z</time>
      </trkpt>
      <trkpt lat="47.76439" lon="5.63954">
        <ele>330.79998779297</ele>
        <time>2017-07-18T13:45:45Z</time>
      </trkpt>
      <trkpt lat="47.76461" lon="5.6398">
        <ele>332</ele>
        <time>2017-07-18T13:45:51Z</time>
      </trkpt>
      <trkpt lat="47.76465" lon="5.63985">
        <ele>332</ele>
        <time>2017-07-18T13:45:52Z</time>
      </trkpt>
      <trkpt lat="47.76493" lon="5.64018">
        <ele>333</ele>
        <time>2017-07-18T13:45:59Z</time>
      </trkpt>
      <trkpt lat="47.76501" lon="5.64027">
        <ele>333.20001220703</ele>
        <time>2017-07-18T13:46:01Z</time>
      </trkpt>
      <trkpt lat="47.7654" lon="5.64075">
        <ele>333.39999389648</ele>
        <time>2017-07-18T13:46:10Z</time>
      </trkpt>
      <trkpt lat="47.76582" lon="5.64126">
        <ele>333.39999389648</ele>
        <time>2017-07-18T13:46:19Z</time>
      </trkpt>
      <trkpt lat="47.76625" lon="5.64177">
        <ele>333.20001220703</ele>
        <time>2017-07-18T13:46:28Z</time>
      </trkpt>
      <trkpt lat="47.76668" lon="5.64229">
        <ele>333.39999389648</ele>
        <time>2017-07-18T13:46:37Z</time>
      </trkpt>
      <trkpt lat="47.76707" lon="5.64276">
        <ele>333.20001220703</ele>
        <time>2017-07-18T13:46:45Z</time>
      </trkpt>
      <trkpt lat="47.76747" lon="5.64322">
        <ele>333.20001220703</ele>
        <time>2017-07-18T13:46:53Z</time>
      </trkpt>
      <trkpt lat="47.76757" lon="5.64334">
        <ele>333.20001220703</ele>
        <time>2017-07-18T13:46:55Z</time>
      </trkpt>
      <trkpt lat="47.76776" lon="5.64358">
        <ele>333.20001220703</ele>
        <time>2017-07-18T13:46:59Z</time>
      </trkpt>
      <trkpt lat="47.76819" lon="5.64409">
        <ele>333</ele>
        <time>2017-07-18T13:47:08Z</time>
      </trkpt>
      <trkpt lat="47.76862" lon="5.6446">
        <ele>333</ele>
        <time>2017-07-18T13:47:17Z</time>
      </trkpt>
      <trkpt lat="47.76907" lon="5.64513">
        <ele>333.20001220703</ele>
        <time>2017-07-18T13:47:26Z</time>
      </trkpt>
      <trkpt lat="47.76945" lon="5.64559">
        <ele>333.39999389648</ele>
        <time>2017-07-18T13:47:34Z</time>
      </trkpt>
      <trkpt lat="47.76992" lon="5.64615">
        <ele>333.79998779297</ele>
        <time>2017-07-18T13:47:44Z</time>
      </trkpt>
      <trkpt lat="47.76996" lon="5.64621">
        <ele>333.79998779297</ele>
        <time>2017-07-18T13:47:45Z</time>
      </trkpt>
      <trkpt lat="47.77006" lon="5.64632">
        <ele>334</ele>
        <time>2017-07-18T13:47:47Z</time>
      </trkpt>
      <trkpt lat="47.77039" lon="5.64671">
        <ele>334.20001220703</ele>
        <time>2017-07-18T13:47:54Z</time>
      </trkpt>
      <trkpt lat="47.7708" lon="5.64721">
        <ele>334.60000610352</ele>
        <time>2017-07-18T13:48:03Z</time>
      </trkpt>
      <trkpt lat="47.7711" lon="5.64758">
        <ele>334.79998779297</ele>
        <time>2017-07-18T13:48:10Z</time>
      </trkpt>
      <trkpt lat="47.77123" lon="5.64774">
        <ele>335</ele>
        <time>2017-07-18T13:48:13Z</time>
      </trkpt>
      <trkpt lat="47.77148" lon="5.64802">
        <ele>335.39999389648</ele>
        <time>2017-07-18T13:48:19Z</time>
      </trkpt>
      <trkpt lat="47.7717" lon="5.6483">
        <ele>336.20001220703</ele>
        <time>2017-07-18T13:48:25Z</time>
      </trkpt>
      <trkpt lat="47.77174" lon="5.64835">
        <ele>336.20001220703</ele>
        <time>2017-07-18T13:48:26Z</time>
      </trkpt>
      <trkpt lat="47.77209" lon="5.64876">
        <ele>337.39999389648</ele>
        <time>2017-07-18T13:48:35Z</time>
      </trkpt>
      <trkpt lat="47.77217" lon="5.64886">
        <ele>337.39999389648</ele>
        <time>2017-07-18T13:48:37Z</time>
      </trkpt>
      <trkpt lat="47.77221" lon="5.6489">
        <ele>337.60000610352</ele>
        <time>2017-07-18T13:48:38Z</time>
      </trkpt>
      <trkpt lat="47.77258" lon="5.64935">
        <ele>338</ele>
        <time>2017-07-18T13:48:47Z</time>
      </trkpt>
      <trkpt lat="47.77289" lon="5.64971">
        <ele>338.39999389648</ele>
        <time>2017-07-18T13:48:54Z</time>
      </trkpt>
      <trkpt lat="47.77302" lon="5.64988">
        <ele>338.60000610352</ele>
        <time>2017-07-18T13:48:57Z</time>
      </trkpt>
      <trkpt lat="47.77342" lon="5.65036">
        <ele>339</ele>
        <time>2017-07-18T13:49:06Z</time>
      </trkpt>
      <trkpt lat="47.77359" lon="5.65056">
        <ele>339.39999389648</ele>
        <time>2017-07-18T13:49:10Z</time>
      </trkpt>
      <trkpt lat="47.77382" lon="5.65084">
        <ele>339.79998779297</ele>
        <time>2017-07-18T13:49:16Z</time>
      </trkpt>
      <trkpt lat="47.77411" lon="5.6512">
        <ele>340.60000610352</ele>
        <time>2017-07-18T13:49:24Z</time>
      </trkpt>
      <trkpt lat="47.77442" lon="5.65157">
        <ele>341.60000610352</ele>
        <time>2017-07-18T13:49:33Z</time>
      </trkpt>
      <trkpt lat="47.77445" lon="5.65161">
        <ele>341.79998779297</ele>
        <time>2017-07-18T13:49:34Z</time>
      </trkpt>
      <trkpt lat="47.77473" lon="5.65194">
        <ele>342.60000610352</ele>
        <time>2017-07-18T13:49:42Z</time>
      </trkpt>
      <trkpt lat="47.77499" lon="5.65225">
        <ele>343.39999389648</ele>
        <time>2017-07-18T13:49:50Z</time>
      </trkpt>
      <trkpt lat="47.77508" lon="5.65236">
        <ele>343.79998779297</ele>
        <time>2017-07-18T13:49:53Z</time>
      </trkpt>
      <trkpt lat="47.77517" lon="5.65246">
        <ele>344</ele>
        <time>2017-07-18T13:49:56Z</time>
      </trkpt>
      <trkpt lat="47.77533" lon="5.65266">
        <ele>344.60000610352</ele>
        <time>2017-07-18T13:50:02Z</time>
      </trkpt>
      <trkpt lat="47.77536" lon="5.65269">
        <ele>344.79998779297</ele>
        <time>2017-07-18T13:50:03Z</time>
      </trkpt>
      <trkpt lat="47.77548" lon="5.65284">
        <ele>345.60000610352</ele>
        <time>2017-07-18T13:50:08Z</time>
      </trkpt>
      <trkpt lat="47.77553" lon="5.65289">
        <ele>345.79998779297</ele>
        <time>2017-07-18T13:50:10Z</time>
      </trkpt>
      <trkpt lat="47.77568" lon="5.65309">
        <ele>346.39999389648</ele>
        <time>2017-07-18T13:50:16Z</time>
      </trkpt>
      <trkpt lat="47.77578" lon="5.65322">
        <ele>346.79998779297</ele>
        <time>2017-07-18T13:50:20Z</time>
      </trkpt>
      <trkpt lat="47.77588" lon="5.65335">
        <ele>347.20001220703</ele>
        <time>2017-07-18T13:50:24Z</time>
      </trkpt>
      <trkpt lat="47.77601" lon="5.6535">
        <ele>347.39999389648</ele>
        <time>2017-07-18T13:50:30Z</time>
      </trkpt>
      <trkpt lat="47.77602" lon="5.65355">
        <ele>347.39999389648</ele>
        <time>2017-07-18T13:50:33Z</time>
      </trkpt>
      <trkpt lat="47.77601" lon="5.65359">
        <ele>347.39999389648</ele>
        <time>2017-07-18T13:50:35Z</time>
      </trkpt>
      <trkpt lat="47.77599" lon="5.65365">
        <ele>347.39999389648</ele>
        <time>2017-07-18T13:50:37Z</time>
      </trkpt>
      <trkpt lat="47.77597" lon="5.65373">
        <ele>347.20001220703</ele>
        <time>2017-07-18T13:50:39Z</time>
      </trkpt>
      <trkpt lat="47.77584" lon="5.65402">
        <ele>347.39999389648</ele>
        <time>2017-07-18T13:50:45Z</time>
      </trkpt>
      <trkpt lat="47.7758" lon="5.65412">
        <ele>347.60000610352</ele>
        <time>2017-07-18T13:50:47Z</time>
      </trkpt>
      <trkpt lat="47.7757" lon="5.65432">
        <ele>347.39999389648</ele>
        <time>2017-07-18T13:50:51Z</time>
      </trkpt>
      <trkpt lat="47.77548" lon="5.65472">
        <ele>347.79998779297</ele>
        <time>2017-07-18T13:50:59Z</time>
      </trkpt>
      <trkpt lat="47.77522" lon="5.65512">
        <ele>347.79998779297</ele>
        <time>2017-07-18T13:51:07Z</time>
      </trkpt>
      <trkpt lat="47.77496" lon="5.65547">
        <ele>348</ele>
        <time>2017-07-18T13:51:14Z</time>
      </trkpt>
      <trkpt lat="47.77467" lon="5.65586">
        <ele>347.79998779297</ele>
        <time>2017-07-18T13:51:21Z</time>
      </trkpt>
      <trkpt lat="47.77446" lon="5.65614">
        <ele>347.60000610352</ele>
        <time>2017-07-18T13:51:26Z</time>
      </trkpt>
      <trkpt lat="47.77442" lon="5.65619">
        <ele>347.60000610352</ele>
        <time>2017-07-18T13:51:27Z</time>
      </trkpt>
      <trkpt lat="47.77415" lon="5.65658">
        <ele>347.60000610352</ele>
        <time>2017-07-18T13:51:34Z</time>
      </trkpt>
      <trkpt lat="47.77411" lon="5.65663">
        <ele>347.60000610352</ele>
        <time>2017-07-18T13:51:35Z</time>
      </trkpt>
      <trkpt lat="47.77398" lon="5.65687">
        <ele>347.39999389648</ele>
        <time>2017-07-18T13:51:39Z</time>
      </trkpt>
      <trkpt lat="47.77383" lon="5.65728">
        <ele>347.39999389648</ele>
        <time>2017-07-18T13:51:45Z</time>
      </trkpt>
      <trkpt lat="47.77368" lon="5.65793">
        <ele>347.60000610352</ele>
        <time>2017-07-18T13:51:54Z</time>
      </trkpt>
      <trkpt lat="47.77356" lon="5.65861">
        <ele>347.79998779297</ele>
        <time>2017-07-18T13:52:03Z</time>
      </trkpt>
      <trkpt lat="47.77341" lon="5.65946">
        <ele>347.79998779297</ele>
        <time>2017-07-18T13:52:14Z</time>
      </trkpt>
      <trkpt lat="47.77331" lon="5.66005">
        <ele>347.79998779297</ele>
        <time>2017-07-18T13:52:22Z</time>
      </trkpt>
      <trkpt lat="47.77321" lon="5.66056">
        <ele>348</ele>
        <time>2017-07-18T13:52:29Z</time>
      </trkpt>
      <trkpt lat="47.77313" lon="5.66099">
        <ele>348.39999389648</ele>
        <time>2017-07-18T13:52:35Z</time>
      </trkpt>
      <trkpt lat="47.77306" lon="5.66141">
        <ele>348.79998779297</ele>
        <time>2017-07-18T13:52:41Z</time>
      </trkpt>
      <trkpt lat="47.77302" lon="5.66161">
        <ele>349</ele>
        <time>2017-07-18T13:52:44Z</time>
      </trkpt>
      <trkpt lat="47.77291" lon="5.66227">
        <ele>349.60000610352</ele>
        <time>2017-07-18T13:52:54Z</time>
      </trkpt>
      <trkpt lat="47.77288" lon="5.6624">
        <ele>349.79998779297</ele>
        <time>2017-07-18T13:52:56Z</time>
      </trkpt>
      <trkpt lat="47.77283" lon="5.66272">
        <ele>350.20001220703</ele>
        <time>2017-07-18T13:53:01Z</time>
      </trkpt>
      <trkpt lat="47.77276" lon="5.66323">
        <ele>350.79998779297</ele>
        <time>2017-07-18T13:53:09Z</time>
      </trkpt>
      <trkpt lat="47.77275" lon="5.6633">
        <ele>351</ele>
        <time>2017-07-18T13:53:10Z</time>
      </trkpt>
      <trkpt lat="47.77272" lon="5.6637">
        <ele>351.20001220703</ele>
        <time>2017-07-18T13:53:16Z</time>
      </trkpt>
      <trkpt lat="47.77267" lon="5.66423">
        <ele>351.60000610352</ele>
        <time>2017-07-18T13:53:24Z</time>
      </trkpt>
      <trkpt lat="47.77264" lon="5.6646">
        <ele>352</ele>
        <time>2017-07-18T13:53:30Z</time>
      </trkpt>
      <trkpt lat="47.77263" lon="5.66478">
        <ele>352.20001220703</ele>
        <time>2017-07-18T13:53:33Z</time>
      </trkpt>
      <trkpt lat="47.77259" lon="5.66509">
        <ele>352.79998779297</ele>
        <time>2017-07-18T13:53:38Z</time>
      </trkpt>
      <trkpt lat="47.77259" lon="5.66516">
        <ele>353</ele>
        <time>2017-07-18T13:53:39Z</time>
      </trkpt>
      <trkpt lat="47.77259" lon="5.66522">
        <ele>353.20001220703</ele>
        <time>2017-07-18T13:53:40Z</time>
      </trkpt>
      <trkpt lat="47.77256" lon="5.66554">
        <ele>354</ele>
        <time>2017-07-18T13:53:45Z</time>
      </trkpt>
      <trkpt lat="47.77257" lon="5.6656">
        <ele>354</ele>
        <time>2017-07-18T13:53:46Z</time>
      </trkpt>
      <trkpt lat="47.77255" lon="5.66589">
        <ele>355.20001220703</ele>
        <time>2017-07-18T13:53:51Z</time>
      </trkpt>
      <trkpt lat="47.77254" lon="5.666">
        <ele>355.39999389648</ele>
        <time>2017-07-18T13:53:53Z</time>
      </trkpt>
      <trkpt lat="47.77257" lon="5.66631">
        <ele>356.20001220703</ele>
        <time>2017-07-18T13:53:59Z</time>
      </trkpt>
      <trkpt lat="47.7726" lon="5.66634">
        <ele>356.20001220703</ele>
        <time>2017-07-18T13:54:00Z</time>
      </trkpt>
      <trkpt lat="47.77274" lon="5.66642">
        <ele>356.39999389648</ele>
        <time>2017-07-18T13:54:03Z</time>
      </trkpt>
      <trkpt lat="47.77295" lon="5.66649">
        <ele>356.20001220703</ele>
        <time>2017-07-18T13:54:07Z</time>
      </trkpt>
      <trkpt lat="47.773" lon="5.66652">
        <ele>356</ele>
        <time>2017-07-18T13:54:08Z</time>
      </trkpt>
      <trkpt lat="47.77328" lon="5.66669">
        <ele>355.20001220703</ele>
        <time>2017-07-18T13:54:14Z</time>
      </trkpt>
      <trkpt lat="47.77333" lon="5.66671">
        <ele>355.20001220703</ele>
        <time>2017-07-18T13:54:15Z</time>
      </trkpt>
      <trkpt lat="47.77367" lon="5.66695">
        <ele>354.79998779297</ele>
        <time>2017-07-18T13:54:22Z</time>
      </trkpt>
      <trkpt lat="47.77383" lon="5.66705">
        <ele>354.20001220703</ele>
        <time>2017-07-18T13:54:25Z</time>
      </trkpt>
      <trkpt lat="47.77407" lon="5.66718">
        <ele>353.79998779297</ele>
        <time>2017-07-18T13:54:29Z</time>
      </trkpt>
      <trkpt lat="47.7744" lon="5.66734">
        <ele>353.20001220703</ele>
        <time>2017-07-18T13:54:34Z</time>
      </trkpt>
      <trkpt lat="47.77454" lon="5.66738">
        <ele>352.79998779297</ele>
        <time>2017-07-18T13:54:36Z</time>
      </trkpt>
      <trkpt lat="47.77461" lon="5.6674">
        <ele>352.60000610352</ele>
        <time>2017-07-18T13:54:37Z</time>
      </trkpt>
      <trkpt lat="47.77483" lon="5.66738">
        <ele>352.20001220703</ele>
        <time>2017-07-18T13:54:40Z</time>
      </trkpt>
      <trkpt lat="47.77491" lon="5.66736">
        <ele>352</ele>
        <time>2017-07-18T13:54:41Z</time>
      </trkpt>
      <trkpt lat="47.77513" lon="5.66728">
        <ele>351.39999389648</ele>
        <time>2017-07-18T13:54:44Z</time>
      </trkpt>
      <trkpt lat="47.77527" lon="5.66721">
        <ele>351.20001220703</ele>
        <time>2017-07-18T13:54:46Z</time>
      </trkpt>
      <trkpt lat="47.77534" lon="5.66719">
        <ele>351</ele>
        <time>2017-07-18T13:54:47Z</time>
      </trkpt>
      <trkpt lat="47.77547" lon="5.66718">
        <ele>350.79998779297</ele>
        <time>2017-07-18T13:54:49Z</time>
      </trkpt>
      <trkpt lat="47.77554" lon="5.66717">
        <ele>350.60000610352</ele>
        <time>2017-07-18T13:54:50Z</time>
      </trkpt>
      <trkpt lat="47.77588" lon="5.66723">
        <ele>350.60000610352</ele>
        <time>2017-07-18T13:54:55Z</time>
      </trkpt>
      <trkpt lat="47.77643" lon="5.66745">
        <ele>351.20001220703</ele>
        <time>2017-07-18T13:55:04Z</time>
      </trkpt>
      <trkpt lat="47.77688" lon="5.66764">
        <ele>351.60000610352</ele>
        <time>2017-07-18T13:55:12Z</time>
      </trkpt>
      <trkpt lat="47.77713" lon="5.66776">
        <ele>352</ele>
        <time>2017-07-18T13:55:17Z</time>
      </trkpt>
      <trkpt lat="47.77739" lon="5.66788">
        <ele>352.39999389648</ele>
        <time>2017-07-18T13:55:22Z</time>
      </trkpt>
      <trkpt lat="47.77778" lon="5.66812">
        <ele>353</ele>
        <time>2017-07-18T13:55:29Z</time>
      </trkpt>
      <trkpt lat="47.77822" lon="5.66843">
        <ele>352.79998779297</ele>
        <time>2017-07-18T13:55:37Z</time>
      </trkpt>
      <trkpt lat="47.77872" lon="5.66879">
        <ele>352.79998779297</ele>
        <time>2017-07-18T13:55:46Z</time>
      </trkpt>
      <trkpt lat="47.77888" lon="5.66891">
        <ele>352.79998779297</ele>
        <time>2017-07-18T13:55:49Z</time>
      </trkpt>
      <trkpt lat="47.77923" lon="5.66917">
        <ele>352.20001220703</ele>
        <time>2017-07-18T13:55:55Z</time>
      </trkpt>
      <trkpt lat="47.77937" lon="5.66931">
        <ele>351.60000610352</ele>
        <time>2017-07-18T13:55:59Z</time>
      </trkpt>
      <trkpt lat="47.7794" lon="5.66933">
        <ele>349.60000610352</ele>
        <time>2017-07-18T13:56:12Z</time>
      </trkpt>
      <trkpt lat="47.77942" lon="5.66934">
        <ele>349.79998779297</ele>
        <time>2017-07-18T13:56:13Z</time>
      </trkpt>
      <trkpt lat="47.77956" lon="5.66944">
        <ele>349.39999389648</ele>
        <time>2017-07-18T13:56:19Z</time>
      </trkpt>
      <trkpt lat="47.77974" lon="5.66958">
        <ele>349</ele>
        <time>2017-07-18T13:56:26Z</time>
      </trkpt>
      <trkpt lat="47.77977" lon="5.66959">
        <ele>348</ele>
        <time>2017-07-18T13:56:34Z</time>
      </trkpt>
      <trkpt lat="47.77981" lon="5.66962">
        <ele>348.39999389648</ele>
        <time>2017-07-18T13:56:36Z</time>
      </trkpt>
      <trkpt lat="47.78001" lon="5.66976">
        <ele>348.20001220703</ele>
        <time>2017-07-18T13:56:43Z</time>
      </trkpt>
      <trkpt lat="47.78011" lon="5.66987">
        <ele>348.20001220703</ele>
        <time>2017-07-18T13:56:46Z</time>
      </trkpt>
      <trkpt lat="47.78026" lon="5.67003">
        <ele>348</ele>
        <time>2017-07-18T13:56:50Z</time>
      </trkpt>
      <trkpt lat="47.78052" lon="5.67038">
        <ele>347.20001220703</ele>
        <time>2017-07-18T13:56:57Z</time>
      </trkpt>
      <trkpt lat="47.78056" lon="5.67043">
        <ele>347</ele>
        <time>2017-07-18T13:56:58Z</time>
      </trkpt>
      <trkpt lat="47.7808" lon="5.67071">
        <ele>346.60000610352</ele>
        <time>2017-07-18T13:57:04Z</time>
      </trkpt>
      <trkpt lat="47.78089" lon="5.67083">
        <ele>346.39999389648</ele>
        <time>2017-07-18T13:57:08Z</time>
      </trkpt>
      <trkpt lat="47.7809" lon="5.67085">
        <ele>345.79998779297</ele>
        <time>2017-07-18T13:57:15Z</time>
      </trkpt>
      <trkpt lat="47.78092" lon="5.67089">
        <ele>345.79998779297</ele>
        <time>2017-07-18T13:57:17Z</time>
      </trkpt>
      <trkpt lat="47.78102" lon="5.67099">
        <ele>345.79998779297</ele>
        <time>2017-07-18T13:57:21Z</time>
      </trkpt>
      <trkpt lat="47.78105" lon="5.67101">
        <ele>345.79998779297</ele>
        <time>2017-07-18T13:57:22Z</time>
      </trkpt>
      <trkpt lat="47.78123" lon="5.67124">
        <ele>345.60000610352</ele>
        <time>2017-07-18T13:57:28Z</time>
      </trkpt>
      <trkpt lat="47.7814" lon="5.67148">
        <ele>344.39999389648</ele>
        <time>2017-07-18T13:57:42Z</time>
      </trkpt>
      <trkpt lat="47.78141" lon="5.6715">
        <ele>344.79998779297</ele>
        <time>2017-07-18T13:57:43Z</time>
      </trkpt>
      <trkpt lat="47.78145" lon="5.67152">
        <ele>345.79998779297</ele>
        <time>2017-07-18T13:57:45Z</time>
      </trkpt>
      <trkpt lat="47.78155" lon="5.67166">
        <ele>345</ele>
        <time>2017-07-18T13:57:50Z</time>
      </trkpt>
      <trkpt lat="47.78166" lon="5.67179">
        <ele>345</ele>
        <time>2017-07-18T13:57:54Z</time>
      </trkpt>
      <trkpt lat="47.78171" lon="5.67185">
        <ele>345</ele>
        <time>2017-07-18T13:57:56Z</time>
      </trkpt>
      <trkpt lat="47.78195" lon="5.67213">
        <ele>345.20001220703</ele>
        <time>2017-07-18T13:58:06Z</time>
      </trkpt>
      <trkpt lat="47.78217" lon="5.67241">
        <ele>345.39999389648</ele>
        <time>2017-07-18T13:58:13Z</time>
      </trkpt>
      <trkpt lat="47.78223" lon="5.67251">
        <ele>345.39999389648</ele>
        <time>2017-07-18T13:58:15Z</time>
      </trkpt>
      <trkpt lat="47.78231" lon="5.67267">
        <ele>345.39999389648</ele>
        <time>2017-07-18T13:58:18Z</time>
      </trkpt>
      <trkpt lat="47.78233" lon="5.67273">
        <ele>345</ele>
        <time>2017-07-18T13:58:27Z</time>
      </trkpt>
      <trkpt lat="47.7824" lon="5.6729">
        <ele>345.20001220703</ele>
        <time>2017-07-18T13:58:32Z</time>
      </trkpt>
      <trkpt lat="47.78246" lon="5.67313">
        <ele>345.60000610352</ele>
        <time>2017-07-18T13:58:37Z</time>
      </trkpt>
      <trkpt lat="47.7825" lon="5.67354">
        <ele>345.60000610352</ele>
        <time>2017-07-18T13:58:44Z</time>
      </trkpt>
      <trkpt lat="47.7825" lon="5.67406">
        <ele>345.20001220703</ele>
        <time>2017-07-18T13:58:51Z</time>
      </trkpt>
      <trkpt lat="47.78251" lon="5.67439">
        <ele>344.79998779297</ele>
        <time>2017-07-18T13:58:55Z</time>
      </trkpt>
      <trkpt lat="47.78252" lon="5.67456">
        <ele>344.60000610352</ele>
        <time>2017-07-18T13:58:57Z</time>
      </trkpt>
      <trkpt lat="47.78255" lon="5.67474">
        <ele>344.20001220703</ele>
        <time>2017-07-18T13:58:59Z</time>
      </trkpt>
      <trkpt lat="47.78259" lon="5.67493">
        <ele>343.60000610352</ele>
        <time>2017-07-18T13:59:01Z</time>
      </trkpt>
      <trkpt lat="47.7827" lon="5.67528">
        <ele>342.79998779297</ele>
        <time>2017-07-18T13:59:05Z</time>
      </trkpt>
      <trkpt lat="47.78274" lon="5.67536">
        <ele>342.60000610352</ele>
        <time>2017-07-18T13:59:06Z</time>
      </trkpt>
      <trkpt lat="47.78291" lon="5.67569">
        <ele>341.79998779297</ele>
        <time>2017-07-18T13:59:10Z</time>
      </trkpt>
      <trkpt lat="47.78301" lon="5.67586">
        <ele>341.39999389648</ele>
        <time>2017-07-18T13:59:12Z</time>
      </trkpt>
      <trkpt lat="47.78323" lon="5.67619">
        <ele>340.60000610352</ele>
        <time>2017-07-18T13:59:16Z</time>
      </trkpt>
      <trkpt lat="47.78328" lon="5.67628">
        <ele>340.39999389648</ele>
        <time>2017-07-18T13:59:17Z</time>
      </trkpt>
      <trkpt lat="47.78333" lon="5.67638">
        <ele>340.20001220703</ele>
        <time>2017-07-18T13:59:18Z</time>
      </trkpt>
      <trkpt lat="47.78343" lon="5.67658">
        <ele>339.60000610352</ele>
        <time>2017-07-18T13:59:20Z</time>
      </trkpt>
      <trkpt lat="47.78348" lon="5.67669">
        <ele>339.39999389648</ele>
        <time>2017-07-18T13:59:21Z</time>
      </trkpt>
      <trkpt lat="47.78361" lon="5.67703">
        <ele>338.20001220703</ele>
        <time>2017-07-18T13:59:24Z</time>
      </trkpt>
      <trkpt lat="47.78371" lon="5.67724">
        <ele>337.20001220703</ele>
        <time>2017-07-18T13:59:26Z</time>
      </trkpt>
      <trkpt lat="47.78375" lon="5.67734">
        <ele>337</ele>
        <time>2017-07-18T13:59:27Z</time>
      </trkpt>
      <trkpt lat="47.78388" lon="5.67768">
        <ele>336.79998779297</ele>
        <time>2017-07-18T13:59:31Z</time>
      </trkpt>
      <trkpt lat="47.78403" lon="5.67801">
        <ele>338</ele>
        <time>2017-07-18T13:59:36Z</time>
      </trkpt>
      <trkpt lat="47.78406" lon="5.67806">
        <ele>338.20001220703</ele>
        <time>2017-07-18T13:59:37Z</time>
      </trkpt>
      <trkpt lat="47.78415" lon="5.67828">
        <ele>339.39999389648</ele>
        <time>2017-07-18T13:59:41Z</time>
      </trkpt>
      <trkpt lat="47.78416" lon="5.67833">
        <ele>339.79998779297</ele>
        <time>2017-07-18T13:59:42Z</time>
      </trkpt>
      <trkpt lat="47.78422" lon="5.67851">
        <ele>340.60000610352</ele>
        <time>2017-07-18T13:59:45Z</time>
      </trkpt>
      <trkpt lat="47.78426" lon="5.67863">
        <ele>341</ele>
        <time>2017-07-18T13:59:47Z</time>
      </trkpt>
      <trkpt lat="47.78431" lon="5.67875">
        <ele>341.60000610352</ele>
        <time>2017-07-18T13:59:49Z</time>
      </trkpt>
      <trkpt lat="47.78433" lon="5.6788">
        <ele>341.79998779297</ele>
        <time>2017-07-18T13:59:50Z</time>
      </trkpt>
      <trkpt lat="47.7845" lon="5.67925">
        <ele>342.39999389648</ele>
        <time>2017-07-18T13:59:58Z</time>
      </trkpt>
      <trkpt lat="47.7846" lon="5.67953">
        <ele>342.79998779297</ele>
        <time>2017-07-18T14:00:03Z</time>
      </trkpt>
      <trkpt lat="47.78466" lon="5.67969">
        <ele>343</ele>
        <time>2017-07-18T14:00:06Z</time>
      </trkpt>
      <trkpt lat="47.78485" lon="5.68019">
        <ele>342.79998779297</ele>
        <time>2017-07-18T14:00:14Z</time>
      </trkpt>
      <trkpt lat="47.78505" lon="5.68077">
        <ele>342.60000610352</ele>
        <time>2017-07-18T14:00:22Z</time>
      </trkpt>
      <trkpt lat="47.78527" lon="5.68133">
        <ele>342.79998779297</ele>
        <time>2017-07-18T14:00:30Z</time>
      </trkpt>
      <trkpt lat="47.78543" lon="5.6818">
        <ele>343.79998779297</ele>
        <time>2017-07-18T14:00:38Z</time>
      </trkpt>
      <trkpt lat="47.78546" lon="5.68185">
        <ele>344</ele>
        <time>2017-07-18T14:00:39Z</time>
      </trkpt>
      <trkpt lat="47.78559" lon="5.68225">
        <ele>344.79998779297</ele>
        <time>2017-07-18T14:00:46Z</time>
      </trkpt>
      <trkpt lat="47.78566" lon="5.68242">
        <ele>345.20001220703</ele>
        <time>2017-07-18T14:00:49Z</time>
      </trkpt>
      <trkpt lat="47.78579" lon="5.68278">
        <ele>345.79998779297</ele>
        <time>2017-07-18T14:00:55Z</time>
      </trkpt>
      <trkpt lat="47.78589" lon="5.68303">
        <ele>346.20001220703</ele>
        <time>2017-07-18T14:00:59Z</time>
      </trkpt>
      <trkpt lat="47.78602" lon="5.68338">
        <ele>346.20001220703</ele>
        <time>2017-07-18T14:01:04Z</time>
      </trkpt>
      <trkpt lat="47.78619" lon="5.68376">
        <ele>345.79998779297</ele>
        <time>2017-07-18T14:01:09Z</time>
      </trkpt>
      <trkpt lat="47.7863" lon="5.68401">
        <ele>345.39999389648</ele>
        <time>2017-07-18T14:01:12Z</time>
      </trkpt>
      <trkpt lat="47.78638" lon="5.6842">
        <ele>345</ele>
        <time>2017-07-18T14:01:14Z</time>
      </trkpt>
      <trkpt lat="47.78657" lon="5.68461">
        <ele>344.39999389648</ele>
        <time>2017-07-18T14:01:18Z</time>
      </trkpt>
      <trkpt lat="47.78667" lon="5.68483">
        <ele>344</ele>
        <time>2017-07-18T14:01:20Z</time>
      </trkpt>
      <trkpt lat="47.78686" lon="5.68528">
        <ele>342.60000610352</ele>
        <time>2017-07-18T14:01:24Z</time>
      </trkpt>
      <trkpt lat="47.78691" lon="5.68539">
        <ele>342</ele>
        <time>2017-07-18T14:01:25Z</time>
      </trkpt>
      <trkpt lat="47.78701" lon="5.68562">
        <ele>341.60000610352</ele>
        <time>2017-07-18T14:01:27Z</time>
      </trkpt>
      <trkpt lat="47.78726" lon="5.68617">
        <ele>340.39999389648</ele>
        <time>2017-07-18T14:01:32Z</time>
      </trkpt>
      <trkpt lat="47.7873" lon="5.68627">
        <ele>340.39999389648</ele>
        <time>2017-07-18T14:01:33Z</time>
      </trkpt>
      <trkpt lat="47.78761" lon="5.68695">
        <ele>340.20001220703</ele>
        <time>2017-07-18T14:01:40Z</time>
      </trkpt>
      <trkpt lat="47.78789" lon="5.68758">
        <ele>339.39999389648</ele>
        <time>2017-07-18T14:01:47Z</time>
      </trkpt>
      <trkpt lat="47.78793" lon="5.68767">
        <ele>339.20001220703</ele>
        <time>2017-07-18T14:01:48Z</time>
      </trkpt>
      <trkpt lat="47.78816" lon="5.68817">
        <ele>338.20001220703</ele>
        <time>2017-07-18T14:01:54Z</time>
      </trkpt>
      <trkpt lat="47.7883" lon="5.6885">
        <ele>338.20001220703</ele>
        <time>2017-07-18T14:01:58Z</time>
      </trkpt>
      <trkpt lat="47.78861" lon="5.68918">
        <ele>338</ele>
        <time>2017-07-18T14:02:07Z</time>
      </trkpt>
      <trkpt lat="47.78893" lon="5.68988">
        <ele>337.60000610352</ele>
        <time>2017-07-18T14:02:16Z</time>
      </trkpt>
      <trkpt lat="47.78921" lon="5.6905">
        <ele>337.39999389648</ele>
        <time>2017-07-18T14:02:24Z</time>
      </trkpt>
      <trkpt lat="47.78949" lon="5.69113">
        <ele>337.20001220703</ele>
        <time>2017-07-18T14:02:32Z</time>
      </trkpt>
      <trkpt lat="47.78952" lon="5.69121">
        <ele>337.20001220703</ele>
        <time>2017-07-18T14:02:33Z</time>
      </trkpt>
      <trkpt lat="47.78981" lon="5.69185">
        <ele>336.79998779297</ele>
        <time>2017-07-18T14:02:41Z</time>
      </trkpt>
      <trkpt lat="47.79015" lon="5.69257">
        <ele>336.39999389648</ele>
        <time>2017-07-18T14:02:50Z</time>
      </trkpt>
      <trkpt lat="47.79044" lon="5.69303">
        <ele>336.20001220703</ele>
        <time>2017-07-18T14:02:56Z</time>
      </trkpt>
      <trkpt lat="47.79058" lon="5.69327">
        <ele>336</ele>
        <time>2017-07-18T14:02:59Z</time>
      </trkpt>
      <trkpt lat="47.79098" lon="5.69391">
        <ele>335.20001220703</ele>
        <time>2017-07-18T14:03:07Z</time>
      </trkpt>
      <trkpt lat="47.79104" lon="5.69399">
        <ele>335</ele>
        <time>2017-07-18T14:03:08Z</time>
      </trkpt>
      <trkpt lat="47.79124" lon="5.69433">
        <ele>334</ele>
        <time>2017-07-18T14:03:12Z</time>
      </trkpt>
      <trkpt lat="47.79157" lon="5.69487">
        <ele>332.79998779297</ele>
        <time>2017-07-18T14:03:18Z</time>
      </trkpt>
      <trkpt lat="47.79179" lon="5.69522">
        <ele>331.79998779297</ele>
        <time>2017-07-18T14:03:22Z</time>
      </trkpt>
      <trkpt lat="47.79202" lon="5.69557">
        <ele>330.79998779297</ele>
        <time>2017-07-18T14:03:26Z</time>
      </trkpt>
      <trkpt lat="47.79207" lon="5.69566">
        <ele>330.79998779297</ele>
        <time>2017-07-18T14:03:27Z</time>
      </trkpt>
      <trkpt lat="47.79245" lon="5.69628">
        <ele>329.79998779297</ele>
        <time>2017-07-18T14:03:34Z</time>
      </trkpt>
      <trkpt lat="47.7925" lon="5.69637">
        <ele>329.79998779297</ele>
        <time>2017-07-18T14:03:35Z</time>
      </trkpt>
      <trkpt lat="47.79283" lon="5.69694">
        <ele>329.39999389648</ele>
        <time>2017-07-18T14:03:42Z</time>
      </trkpt>
      <trkpt lat="47.79312" lon="5.69741">
        <ele>329.20001220703</ele>
        <time>2017-07-18T14:03:48Z</time>
      </trkpt>
      <trkpt lat="47.79316" lon="5.6975">
        <ele>329.20001220703</ele>
        <time>2017-07-18T14:03:49Z</time>
      </trkpt>
      <trkpt lat="47.79344" lon="5.69796">
        <ele>329.20001220703</ele>
        <time>2017-07-18T14:03:55Z</time>
      </trkpt>
      <trkpt lat="47.7937" lon="5.69839">
        <ele>329.60000610352</ele>
        <time>2017-07-18T14:04:01Z</time>
      </trkpt>
      <trkpt lat="47.79401" lon="5.69897">
        <ele>330</ele>
        <time>2017-07-18T14:04:09Z</time>
      </trkpt>
      <trkpt lat="47.79424" lon="5.69949">
        <ele>330.20001220703</ele>
        <time>2017-07-18T14:04:16Z</time>
      </trkpt>
      <trkpt lat="47.79443" lon="5.69993">
        <ele>330</ele>
        <time>2017-07-18T14:04:22Z</time>
      </trkpt>
      <trkpt lat="47.79469" lon="5.70045">
        <ele>329.20001220703</ele>
        <time>2017-07-18T14:04:29Z</time>
      </trkpt>
      <trkpt lat="47.79484" lon="5.7007">
        <ele>328.60000610352</ele>
        <time>2017-07-18T14:04:32Z</time>
      </trkpt>
      <trkpt lat="47.79502" lon="5.70092">
        <ele>327.60000610352</ele>
        <time>2017-07-18T14:04:35Z</time>
      </trkpt>
      <trkpt lat="47.7952" lon="5.70116">
        <ele>326.39999389648</ele>
        <time>2017-07-18T14:04:38Z</time>
      </trkpt>
      <trkpt lat="47.7953" lon="5.70134">
        <ele>326.20001220703</ele>
        <time>2017-07-18T14:04:40Z</time>
      </trkpt>
      <trkpt lat="47.79534" lon="5.70144">
        <ele>326.20001220703</ele>
        <time>2017-07-18T14:04:41Z</time>
      </trkpt>
      <trkpt lat="47.79539" lon="5.70152">
        <ele>326</ele>
        <time>2017-07-18T14:04:42Z</time>
      </trkpt>
      <trkpt lat="47.79548" lon="5.70171">
        <ele>325.60000610352</ele>
        <time>2017-07-18T14:04:44Z</time>
      </trkpt>
      <trkpt lat="47.79552" lon="5.70181">
        <ele>325.39999389648</ele>
        <time>2017-07-18T14:04:45Z</time>
      </trkpt>
      <trkpt lat="47.7958" lon="5.70246">
        <ele>324.79998779297</ele>
        <time>2017-07-18T14:04:52Z</time>
      </trkpt>
      <trkpt lat="47.79584" lon="5.70255">
        <ele>324.79998779297</ele>
        <time>2017-07-18T14:04:53Z</time>
      </trkpt>
      <trkpt lat="47.79607" lon="5.70297">
        <ele>324.60000610352</ele>
        <time>2017-07-18T14:04:58Z</time>
      </trkpt>
      <trkpt lat="47.79629" lon="5.70337">
        <ele>324.39999389648</ele>
        <time>2017-07-18T14:05:03Z</time>
      </trkpt>
      <trkpt lat="47.79642" lon="5.70359">
        <ele>324.20001220703</ele>
        <time>2017-07-18T14:05:06Z</time>
      </trkpt>
      <trkpt lat="47.79664" lon="5.70401">
        <ele>323.79998779297</ele>
        <time>2017-07-18T14:05:12Z</time>
      </trkpt>
      <trkpt lat="47.79683" lon="5.70425">
        <ele>323.60000610352</ele>
        <time>2017-07-18T14:05:17Z</time>
      </trkpt>
      <trkpt lat="47.79686" lon="5.7043">
        <ele>323.60000610352</ele>
        <time>2017-07-18T14:05:18Z</time>
      </trkpt>
      <trkpt lat="47.79699" lon="5.70448">
        <ele>323.79998779297</ele>
        <time>2017-07-18T14:05:23Z</time>
      </trkpt>
      <trkpt lat="47.79707" lon="5.70458">
        <ele>324</ele>
        <time>2017-07-18T14:05:27Z</time>
      </trkpt>
      <trkpt lat="47.79708" lon="5.7046">
        <ele>324</ele>
        <time>2017-07-18T14:05:28Z</time>
      </trkpt>
      <trkpt lat="47.79715" lon="5.70479">
        <ele>324.20001220703</ele>
        <time>2017-07-18T14:05:33Z</time>
      </trkpt>
      <trkpt lat="47.79726" lon="5.70508">
        <ele>324.79998779297</ele>
        <time>2017-07-18T14:05:39Z</time>
      </trkpt>
      <trkpt lat="47.7973" lon="5.70528">
        <ele>325</ele>
        <time>2017-07-18T14:05:42Z</time>
      </trkpt>
      <trkpt lat="47.79733" lon="5.70542">
        <ele>325</ele>
        <time>2017-07-18T14:05:44Z</time>
      </trkpt>
      <trkpt lat="47.79737" lon="5.70568">
        <ele>325.39999389648</ele>
        <time>2017-07-18T14:05:48Z</time>
      </trkpt>
      <trkpt lat="47.79743" lon="5.70599">
        <ele>325.79998779297</ele>
        <time>2017-07-18T14:05:53Z</time>
      </trkpt>
      <trkpt lat="47.79747" lon="5.70632">
        <ele>326</ele>
        <time>2017-07-18T14:06:00Z</time>
      </trkpt>
      <trkpt lat="47.79748" lon="5.70647">
        <ele>326</ele>
        <time>2017-07-18T14:06:05Z</time>
      </trkpt>
      <trkpt lat="47.79755" lon="5.70649">
        <ele>326</ele>
        <time>2017-07-18T14:09:09Z</time>
      </trkpt>
      <trkpt lat="47.79757" lon="5.70649">
        <ele>326</ele>
        <time>2017-07-18T14:09:11Z</time>
      </trkpt>
      <trkpt lat="47.79759" lon="5.70653">
        <ele>325.60000610352</ele>
        <time>2017-07-18T14:09:18Z</time>
      </trkpt>
      <trkpt lat="47.7976" lon="5.70655">
        <ele>325.60000610352</ele>
        <time>2017-07-18T14:09:19Z</time>
      </trkpt>
      <trkpt lat="47.79768" lon="5.70661">
        <ele>325.79998779297</ele>
        <time>2017-07-18T14:09:23Z</time>
      </trkpt>
      <trkpt lat="47.79778" lon="5.70679">
        <ele>326.20001220703</ele>
        <time>2017-07-18T14:09:28Z</time>
      </trkpt>
      <trkpt lat="47.79791" lon="5.707">
        <ele>326.39999389648</ele>
        <time>2017-07-18T14:09:33Z</time>
      </trkpt>
      <trkpt lat="47.79801" lon="5.70713">
        <ele>326.39999389648</ele>
        <time>2017-07-18T14:09:36Z</time>
      </trkpt>
      <trkpt lat="47.79815" lon="5.70734">
        <ele>326.39999389648</ele>
        <time>2017-07-18T14:09:40Z</time>
      </trkpt>
      <trkpt lat="47.79846" lon="5.70781">
        <ele>326</ele>
        <time>2017-07-18T14:09:48Z</time>
      </trkpt>
      <trkpt lat="47.79854" lon="5.70793">
        <ele>325.79998779297</ele>
        <time>2017-07-18T14:09:50Z</time>
      </trkpt>
      <trkpt lat="47.79866" lon="5.70811">
        <ele>325.39999389648</ele>
        <time>2017-07-18T14:09:53Z</time>
      </trkpt>
      <trkpt lat="47.79871" lon="5.70817">
        <ele>325.39999389648</ele>
        <time>2017-07-18T14:09:54Z</time>
      </trkpt>
      <trkpt lat="47.79903" lon="5.70867">
        <ele>325.39999389648</ele>
        <time>2017-07-18T14:10:02Z</time>
      </trkpt>
      <trkpt lat="47.79935" lon="5.70915">
        <ele>326</ele>
        <time>2017-07-18T14:10:11Z</time>
      </trkpt>
      <trkpt lat="47.79953" lon="5.70942">
        <ele>326.39999389648</ele>
        <time>2017-07-18T14:10:16Z</time>
      </trkpt>
      <trkpt lat="47.7996" lon="5.70952">
        <ele>326.60000610352</ele>
        <time>2017-07-18T14:10:18Z</time>
      </trkpt>
      <trkpt lat="47.79963" lon="5.70958">
        <ele>326.79998779297</ele>
        <time>2017-07-18T14:10:19Z</time>
      </trkpt>
      <trkpt lat="47.79979" lon="5.70987">
        <ele>327.20001220703</ele>
        <time>2017-07-18T14:10:24Z</time>
      </trkpt>
      <trkpt lat="47.79999" lon="5.71032">
        <ele>327.39999389648</ele>
        <time>2017-07-18T14:10:31Z</time>
      </trkpt>
      <trkpt lat="47.80021" lon="5.71096">
        <ele>326.79998779297</ele>
        <time>2017-07-18T14:10:39Z</time>
      </trkpt>
      <trkpt lat="47.80039" lon="5.71151">
        <ele>325.20001220703</ele>
        <time>2017-07-18T14:10:45Z</time>
      </trkpt>
      <trkpt lat="47.80045" lon="5.71171">
        <ele>324.79998779297</ele>
        <time>2017-07-18T14:10:47Z</time>
      </trkpt>
      <trkpt lat="47.80054" lon="5.712">
        <ele>324.20001220703</ele>
        <time>2017-07-18T14:10:50Z</time>
      </trkpt>
      <trkpt lat="47.80068" lon="5.71247">
        <ele>323.60000610352</ele>
        <time>2017-07-18T14:10:55Z</time>
      </trkpt>
      <trkpt lat="47.80081" lon="5.71292">
        <ele>323.20001220703</ele>
        <time>2017-07-18T14:11:00Z</time>
      </trkpt>
      <trkpt lat="47.80096" lon="5.71345">
        <ele>323.20001220703</ele>
        <time>2017-07-18T14:11:06Z</time>
      </trkpt>
      <trkpt lat="47.80117" lon="5.71427">
        <ele>323</ele>
        <time>2017-07-18T14:11:16Z</time>
      </trkpt>
      <trkpt lat="47.80129" lon="5.71485">
        <ele>323.60000610352</ele>
        <time>2017-07-18T14:11:24Z</time>
      </trkpt>
      <trkpt lat="47.80139" lon="5.71534">
        <ele>324.20001220703</ele>
        <time>2017-07-18T14:11:31Z</time>
      </trkpt>
      <trkpt lat="47.80144" lon="5.71553">
        <ele>324.39999389648</ele>
        <time>2017-07-18T14:11:34Z</time>
      </trkpt>
      <trkpt lat="47.80153" lon="5.716">
        <ele>325.20001220703</ele>
        <time>2017-07-18T14:11:41Z</time>
      </trkpt>
      <trkpt lat="47.80156" lon="5.71614">
        <ele>325.39999389648</ele>
        <time>2017-07-18T14:11:43Z</time>
      </trkpt>
      <trkpt lat="47.8017" lon="5.71683">
        <ele>325.79998779297</ele>
        <time>2017-07-18T14:11:52Z</time>
      </trkpt>
      <trkpt lat="47.80184" lon="5.7175">
        <ele>325.39999389648</ele>
        <time>2017-07-18T14:12:00Z</time>
      </trkpt>
      <trkpt lat="47.80198" lon="5.71816">
        <ele>325.20001220703</ele>
        <time>2017-07-18T14:12:08Z</time>
      </trkpt>
      <trkpt lat="47.80211" lon="5.71881">
        <ele>324.20001220703</ele>
        <time>2017-07-18T14:12:16Z</time>
      </trkpt>
      <trkpt lat="47.80224" lon="5.71939">
        <ele>323.20001220703</ele>
        <time>2017-07-18T14:12:23Z</time>
      </trkpt>
      <trkpt lat="47.80226" lon="5.71948">
        <ele>323</ele>
        <time>2017-07-18T14:12:24Z</time>
      </trkpt>
      <trkpt lat="47.80235" lon="5.71988">
        <ele>322</ele>
        <time>2017-07-18T14:12:28Z</time>
      </trkpt>
      <trkpt lat="47.8024" lon="5.72008">
        <ele>321.60000610352</ele>
        <time>2017-07-18T14:12:30Z</time>
      </trkpt>
      <trkpt lat="47.80245" lon="5.72031">
        <ele>321</ele>
        <time>2017-07-18T14:12:32Z</time>
      </trkpt>
      <trkpt lat="47.80254" lon="5.72067">
        <ele>319.79998779297</ele>
        <time>2017-07-18T14:12:35Z</time>
      </trkpt>
      <trkpt lat="47.80259" lon="5.72091">
        <ele>319.20001220703</ele>
        <time>2017-07-18T14:12:37Z</time>
      </trkpt>
      <trkpt lat="47.80262" lon="5.72103">
        <ele>318.39999389648</ele>
        <time>2017-07-18T14:12:38Z</time>
      </trkpt>
      <trkpt lat="47.8027" lon="5.72138">
        <ele>317.39999389648</ele>
        <time>2017-07-18T14:12:41Z</time>
      </trkpt>
      <trkpt lat="47.80278" lon="5.72173">
        <ele>316.39999389648</ele>
        <time>2017-07-18T14:12:44Z</time>
      </trkpt>
      <trkpt lat="47.80284" lon="5.72197">
        <ele>315.79998779297</ele>
        <time>2017-07-18T14:12:46Z</time>
      </trkpt>
      <trkpt lat="47.80294" lon="5.72233">
        <ele>315.20001220703</ele>
        <time>2017-07-18T14:12:49Z</time>
      </trkpt>
      <trkpt lat="47.80302" lon="5.7227">
        <ele>314.20001220703</ele>
        <time>2017-07-18T14:12:52Z</time>
      </trkpt>
      <trkpt lat="47.80306" lon="5.72282">
        <ele>313.79998779297</ele>
        <time>2017-07-18T14:12:53Z</time>
      </trkpt>
      <trkpt lat="47.80314" lon="5.72319">
        <ele>312.60000610352</ele>
        <time>2017-07-18T14:12:56Z</time>
      </trkpt>
      <trkpt lat="47.80319" lon="5.72343">
        <ele>312</ele>
        <time>2017-07-18T14:12:58Z</time>
      </trkpt>
      <trkpt lat="47.80322" lon="5.72355">
        <ele>311.60000610352</ele>
        <time>2017-07-18T14:12:59Z</time>
      </trkpt>
      <trkpt lat="47.8033" lon="5.72391">
        <ele>310.39999389648</ele>
        <time>2017-07-18T14:13:02Z</time>
      </trkpt>
      <trkpt lat="47.80345" lon="5.72451">
        <ele>309.39999389648</ele>
        <time>2017-07-18T14:13:07Z</time>
      </trkpt>
      <trkpt lat="47.8035" lon="5.72475">
        <ele>309</ele>
        <time>2017-07-18T14:13:09Z</time>
      </trkpt>
      <trkpt lat="47.80356" lon="5.72499">
        <ele>308.20001220703</ele>
        <time>2017-07-18T14:13:11Z</time>
      </trkpt>
      <trkpt lat="47.80364" lon="5.72534">
        <ele>307.20001220703</ele>
        <time>2017-07-18T14:13:14Z</time>
      </trkpt>
      <trkpt lat="47.80374" lon="5.72577">
        <ele>306.39999389648</ele>
        <time>2017-07-18T14:13:18Z</time>
      </trkpt>
      <trkpt lat="47.80376" lon="5.72588">
        <ele>306.20001220703</ele>
        <time>2017-07-18T14:13:19Z</time>
      </trkpt>
      <trkpt lat="47.80393" lon="5.72663">
        <ele>305</ele>
        <time>2017-07-18T14:13:26Z</time>
      </trkpt>
      <trkpt lat="47.80396" lon="5.72673">
        <ele>304.79998779297</ele>
        <time>2017-07-18T14:13:27Z</time>
      </trkpt>
      <trkpt lat="47.80409" lon="5.72743">
        <ele>304</ele>
        <time>2017-07-18T14:13:34Z</time>
      </trkpt>
      <trkpt lat="47.8041" lon="5.72752">
        <ele>303.79998779297</ele>
        <time>2017-07-18T14:13:35Z</time>
      </trkpt>
      <trkpt lat="47.80413" lon="5.72804">
        <ele>304.20001220703</ele>
        <time>2017-07-18T14:13:41Z</time>
      </trkpt>
      <trkpt lat="47.80416" lon="5.72861">
        <ele>304.79998779297</ele>
        <time>2017-07-18T14:13:49Z</time>
      </trkpt>
      <trkpt lat="47.80422" lon="5.72909">
        <ele>304.79998779297</ele>
        <time>2017-07-18T14:13:56Z</time>
      </trkpt>
      <trkpt lat="47.80429" lon="5.7295">
        <ele>305</ele>
        <time>2017-07-18T14:14:02Z</time>
      </trkpt>
      <trkpt lat="47.8043" lon="5.72957">
        <ele>305</ele>
        <time>2017-07-18T14:14:03Z</time>
      </trkpt>
      <trkpt lat="47.8044" lon="5.73007">
        <ele>305.39999389648</ele>
        <time>2017-07-18T14:14:10Z</time>
      </trkpt>
      <trkpt lat="47.80454" lon="5.73073">
        <ele>304.79998779297</ele>
        <time>2017-07-18T14:14:18Z</time>
      </trkpt>
      <trkpt lat="47.8046" lon="5.73102">
        <ele>304</ele>
        <time>2017-07-18T14:14:21Z</time>
      </trkpt>
      <trkpt lat="47.80467" lon="5.73133">
        <ele>303</ele>
        <time>2017-07-18T14:14:24Z</time>
      </trkpt>
      <trkpt lat="47.80469" lon="5.73145">
        <ele>302.60000610352</ele>
        <time>2017-07-18T14:14:25Z</time>
      </trkpt>
      <trkpt lat="47.80482" lon="5.73193">
        <ele>301.39999389648</ele>
        <time>2017-07-18T14:14:29Z</time>
      </trkpt>
      <trkpt lat="47.80485" lon="5.73205">
        <ele>301</ele>
        <time>2017-07-18T14:14:30Z</time>
      </trkpt>
      <trkpt lat="47.80492" lon="5.73231">
        <ele>300</ele>
        <time>2017-07-18T14:14:32Z</time>
      </trkpt>
      <trkpt lat="47.80505" lon="5.73267">
        <ele>298.79998779297</ele>
        <time>2017-07-18T14:14:35Z</time>
      </trkpt>
      <trkpt lat="47.80513" lon="5.7329">
        <ele>298</ele>
        <time>2017-07-18T14:14:37Z</time>
      </trkpt>
      <trkpt lat="47.80517" lon="5.73301">
        <ele>297.79998779297</ele>
        <time>2017-07-18T14:14:38Z</time>
      </trkpt>
      <trkpt lat="47.80535" lon="5.73342">
        <ele>296.60000610352</ele>
        <time>2017-07-18T14:14:42Z</time>
      </trkpt>
      <trkpt lat="47.8054" lon="5.73352">
        <ele>296.60000610352</ele>
        <time>2017-07-18T14:14:43Z</time>
      </trkpt>
      <trkpt lat="47.80563" lon="5.73402">
        <ele>295.60000610352</ele>
        <time>2017-07-18T14:14:48Z</time>
      </trkpt>
      <trkpt lat="47.80575" lon="5.73431">
        <ele>295.20001220703</ele>
        <time>2017-07-18T14:14:51Z</time>
      </trkpt>
      <trkpt lat="47.80592" lon="5.7347">
        <ele>294.39999389648</ele>
        <time>2017-07-18T14:14:55Z</time>
      </trkpt>
      <trkpt lat="47.80612" lon="5.73517">
        <ele>293.79998779297</ele>
        <time>2017-07-18T14:15:00Z</time>
      </trkpt>
      <trkpt lat="47.80627" lon="5.73554">
        <ele>293.39999389648</ele>
        <time>2017-07-18T14:15:04Z</time>
      </trkpt>
      <trkpt lat="47.80645" lon="5.736">
        <ele>292.79998779297</ele>
        <time>2017-07-18T14:15:09Z</time>
      </trkpt>
      <trkpt lat="47.80656" lon="5.73627">
        <ele>292.39999389648</ele>
        <time>2017-07-18T14:15:12Z</time>
      </trkpt>
      <trkpt lat="47.80676" lon="5.73679">
        <ele>292</ele>
        <time>2017-07-18T14:15:18Z</time>
      </trkpt>
      <trkpt lat="47.80705" lon="5.73757">
        <ele>291.60000610352</ele>
        <time>2017-07-18T14:15:27Z</time>
      </trkpt>
      <trkpt lat="47.80708" lon="5.73766">
        <ele>291.39999389648</ele>
        <time>2017-07-18T14:15:28Z</time>
      </trkpt>
      <trkpt lat="47.80712" lon="5.73775">
        <ele>291.39999389648</ele>
        <time>2017-07-18T14:15:29Z</time>
      </trkpt>
      <trkpt lat="47.80733" lon="5.73831">
        <ele>290.79998779297</ele>
        <time>2017-07-18T14:15:35Z</time>
      </trkpt>
      <trkpt lat="47.80744" lon="5.73861">
        <ele>290.39999389648</ele>
        <time>2017-07-18T14:15:38Z</time>
      </trkpt>
      <trkpt lat="47.80764" lon="5.73913">
        <ele>289.39999389648</ele>
        <time>2017-07-18T14:15:43Z</time>
      </trkpt>
      <trkpt lat="47.80769" lon="5.73924">
        <ele>289.20001220703</ele>
        <time>2017-07-18T14:15:44Z</time>
      </trkpt>
      <trkpt lat="47.80792" lon="5.73978">
        <ele>288</ele>
        <time>2017-07-18T14:15:49Z</time>
      </trkpt>
      <trkpt lat="47.80796" lon="5.73988">
        <ele>287.79998779297</ele>
        <time>2017-07-18T14:15:50Z</time>
      </trkpt>
      <trkpt lat="47.80807" lon="5.74006">
        <ele>287</ele>
        <time>2017-07-18T14:15:52Z</time>
      </trkpt>
      <trkpt lat="47.80823" lon="5.74033">
        <ele>286.39999389648</ele>
        <time>2017-07-18T14:15:55Z</time>
      </trkpt>
      <trkpt lat="47.80867" lon="5.74097">
        <ele>286</ele>
        <time>2017-07-18T14:16:03Z</time>
      </trkpt>
      <trkpt lat="47.80877" lon="5.74113">
        <ele>285.79998779297</ele>
        <time>2017-07-18T14:16:05Z</time>
      </trkpt>
      <trkpt lat="47.80882" lon="5.7412">
        <ele>285.79998779297</ele>
        <time>2017-07-18T14:16:06Z</time>
      </trkpt>
      <trkpt lat="47.80924" lon="5.74181">
        <ele>285.39999389648</ele>
        <time>2017-07-18T14:16:14Z</time>
      </trkpt>
      <trkpt lat="47.8093" lon="5.74189">
        <ele>285.20001220703</ele>
        <time>2017-07-18T14:16:15Z</time>
      </trkpt>
      <trkpt lat="47.80946" lon="5.74213">
        <ele>284.79998779297</ele>
        <time>2017-07-18T14:16:18Z</time>
      </trkpt>
      <trkpt lat="47.80968" lon="5.74245">
        <ele>284.39999389648</ele>
        <time>2017-07-18T14:16:22Z</time>
      </trkpt>
      <trkpt lat="47.8101" lon="5.74307">
        <ele>284.39999389648</ele>
        <time>2017-07-18T14:16:30Z</time>
      </trkpt>
      <trkpt lat="47.8105" lon="5.74366">
        <ele>284.39999389648</ele>
        <time>2017-07-18T14:16:38Z</time>
      </trkpt>
      <trkpt lat="47.8106" lon="5.74381">
        <ele>284.39999389648</ele>
        <time>2017-07-18T14:16:40Z</time>
      </trkpt>
      <trkpt lat="47.81103" lon="5.74443">
        <ele>284.39999389648</ele>
        <time>2017-07-18T14:16:49Z</time>
      </trkpt>
      <trkpt lat="47.81107" lon="5.7445">
        <ele>284.39999389648</ele>
        <time>2017-07-18T14:16:50Z</time>
      </trkpt>
      <trkpt lat="47.81144" lon="5.74502">
        <ele>284.79998779297</ele>
        <time>2017-07-18T14:16:58Z</time>
      </trkpt>
      <trkpt lat="47.81175" lon="5.74548">
        <ele>285.20001220703</ele>
        <time>2017-07-18T14:17:05Z</time>
      </trkpt>
      <trkpt lat="47.81206" lon="5.74602">
        <ele>285.20001220703</ele>
        <time>2017-07-18T14:17:12Z</time>
      </trkpt>
      <trkpt lat="47.81209" lon="5.74612">
        <ele>285.20001220703</ele>
        <time>2017-07-18T14:17:13Z</time>
      </trkpt>
      <trkpt lat="47.81221" lon="5.74651">
        <ele>285</ele>
        <time>2017-07-18T14:17:17Z</time>
      </trkpt>
      <trkpt lat="47.81237" lon="5.74713">
        <ele>284.39999389648</ele>
        <time>2017-07-18T14:17:23Z</time>
      </trkpt>
      <trkpt lat="47.81248" lon="5.74755">
        <ele>283.60000610352</ele>
        <time>2017-07-18T14:17:27Z</time>
      </trkpt>
      <trkpt lat="47.81261" lon="5.7481">
        <ele>283</ele>
        <time>2017-07-18T14:17:32Z</time>
      </trkpt>
      <trkpt lat="47.81268" lon="5.74845">
        <ele>282.60000610352</ele>
        <time>2017-07-18T14:17:35Z</time>
      </trkpt>
      <trkpt lat="47.81279" lon="5.7489">
        <ele>281.79998779297</ele>
        <time>2017-07-18T14:17:39Z</time>
      </trkpt>
      <trkpt lat="47.81281" lon="5.74901">
        <ele>281.60000610352</ele>
        <time>2017-07-18T14:17:40Z</time>
      </trkpt>
      <trkpt lat="47.81294" lon="5.74981">
        <ele>280.79998779297</ele>
        <time>2017-07-18T14:17:47Z</time>
      </trkpt>
      <trkpt lat="47.81295" lon="5.75016">
        <ele>280.20001220703</ele>
        <time>2017-07-18T14:17:50Z</time>
      </trkpt>
      <trkpt lat="47.81296" lon="5.75062">
        <ele>279.20001220703</ele>
        <time>2017-07-18T14:17:54Z</time>
      </trkpt>
      <trkpt lat="47.813" lon="5.75138">
        <ele>278.39999389648</ele>
        <time>2017-07-18T14:18:01Z</time>
      </trkpt>
      <trkpt lat="47.81301" lon="5.7515">
        <ele>278.20001220703</ele>
        <time>2017-07-18T14:18:02Z</time>
      </trkpt>
      <trkpt lat="47.8131" lon="5.75208">
        <ele>277</ele>
        <time>2017-07-18T14:18:07Z</time>
      </trkpt>
      <trkpt lat="47.81312" lon="5.7522">
        <ele>276.60000610352</ele>
        <time>2017-07-18T14:18:08Z</time>
      </trkpt>
      <trkpt lat="47.81318" lon="5.75255">
        <ele>275.79998779297</ele>
        <time>2017-07-18T14:18:11Z</time>
      </trkpt>
      <trkpt lat="47.81326" lon="5.75301">
        <ele>274.39999389648</ele>
        <time>2017-07-18T14:18:15Z</time>
      </trkpt>
      <trkpt lat="47.81327" lon="5.75312">
        <ele>274.20001220703</ele>
        <time>2017-07-18T14:18:16Z</time>
      </trkpt>
      <trkpt lat="47.81336" lon="5.75364">
        <ele>273.39999389648</ele>
        <time>2017-07-18T14:18:21Z</time>
      </trkpt>
      <trkpt lat="47.8134" lon="5.75389">
        <ele>273</ele>
        <time>2017-07-18T14:18:24Z</time>
      </trkpt>
      <trkpt lat="47.81345" lon="5.75416">
        <ele>272.20001220703</ele>
        <time>2017-07-18T14:18:28Z</time>
      </trkpt>
      <trkpt lat="47.81347" lon="5.75424">
        <ele>272</ele>
        <time>2017-07-18T14:18:29Z</time>
      </trkpt>
      <trkpt lat="47.81356" lon="5.7548">
        <ele>271.20001220703</ele>
        <time>2017-07-18T14:18:35Z</time>
      </trkpt>
      <trkpt lat="47.81365" lon="5.75532">
        <ele>270</ele>
        <time>2017-07-18T14:18:40Z</time>
      </trkpt>
      <trkpt lat="47.81366" lon="5.75543">
        <ele>269.79998779297</ele>
        <time>2017-07-18T14:18:41Z</time>
      </trkpt>
      <trkpt lat="47.81374" lon="5.7559">
        <ele>268.60000610352</ele>
        <time>2017-07-18T14:18:45Z</time>
      </trkpt>
      <trkpt lat="47.81379" lon="5.75614">
        <ele>268</ele>
        <time>2017-07-18T14:18:47Z</time>
      </trkpt>
      <trkpt lat="47.81381" lon="5.75626">
        <ele>267.60000610352</ele>
        <time>2017-07-18T14:18:48Z</time>
      </trkpt>
      <trkpt lat="47.81387" lon="5.75665">
        <ele>266.39999389648</ele>
        <time>2017-07-18T14:18:51Z</time>
      </trkpt>
      <trkpt lat="47.81389" lon="5.7569">
        <ele>265.39999389648</ele>
        <time>2017-07-18T14:18:53Z</time>
      </trkpt>
      <trkpt lat="47.81391" lon="5.75702">
        <ele>264.79998779297</ele>
        <time>2017-07-18T14:18:54Z</time>
      </trkpt>
      <trkpt lat="47.81392" lon="5.75727">
        <ele>263.79998779297</ele>
        <time>2017-07-18T14:18:56Z</time>
      </trkpt>
      <trkpt lat="47.81393" lon="5.75753">
        <ele>262.79998779297</ele>
        <time>2017-07-18T14:18:58Z</time>
      </trkpt>
      <trkpt lat="47.81391" lon="5.75766">
        <ele>262.20001220703</ele>
        <time>2017-07-18T14:18:59Z</time>
      </trkpt>
      <trkpt lat="47.81388" lon="5.75778">
        <ele>261.79998779297</ele>
        <time>2017-07-18T14:19:00Z</time>
      </trkpt>
      <trkpt lat="47.81379" lon="5.75801">
        <ele>261</ele>
        <time>2017-07-18T14:19:02Z</time>
      </trkpt>
      <trkpt lat="47.81375" lon="5.75812">
        <ele>260.20001220703</ele>
        <time>2017-07-18T14:19:03Z</time>
      </trkpt>
      <trkpt lat="47.81359" lon="5.75845">
        <ele>258.79998779297</ele>
        <time>2017-07-18T14:19:06Z</time>
      </trkpt>
      <trkpt lat="47.81343" lon="5.75879">
        <ele>257.39999389648</ele>
        <time>2017-07-18T14:19:09Z</time>
      </trkpt>
      <trkpt lat="47.81332" lon="5.75901">
        <ele>256.39999389648</ele>
        <time>2017-07-18T14:19:11Z</time>
      </trkpt>
      <trkpt lat="47.81314" lon="5.75931">
        <ele>254.80000305176</ele>
        <time>2017-07-18T14:19:14Z</time>
      </trkpt>
      <trkpt lat="47.81304" lon="5.75952">
        <ele>253.60000610352</ele>
        <time>2017-07-18T14:19:16Z</time>
      </trkpt>
      <trkpt lat="47.81292" lon="5.75972">
        <ele>252.39999389648</ele>
        <time>2017-07-18T14:19:18Z</time>
      </trkpt>
      <trkpt lat="47.81287" lon="5.75983">
        <ele>251.80000305176</ele>
        <time>2017-07-18T14:19:19Z</time>
      </trkpt>
      <trkpt lat="47.81282" lon="5.75995">
        <ele>251.19999694824</ele>
        <time>2017-07-18T14:19:20Z</time>
      </trkpt>
      <trkpt lat="47.81272" lon="5.76015">
        <ele>250.19999694824</ele>
        <time>2017-07-18T14:19:22Z</time>
      </trkpt>
      <trkpt lat="47.81264" lon="5.76034">
        <ele>249.39999389648</ele>
        <time>2017-07-18T14:19:24Z</time>
      </trkpt>
      <trkpt lat="47.81261" lon="5.76042">
        <ele>248.80000305176</ele>
        <time>2017-07-18T14:19:25Z</time>
      </trkpt>
      <trkpt lat="47.81256" lon="5.76052">
        <ele>247.80000305176</ele>
        <time>2017-07-18T14:19:27Z</time>
      </trkpt>
      <trkpt lat="47.81257" lon="5.7606">
        <ele>247.19999694824</ele>
        <time>2017-07-18T14:19:29Z</time>
      </trkpt>
      <trkpt lat="47.81258" lon="5.76063">
        <ele>247</ele>
        <time>2017-07-18T14:19:30Z</time>
      </trkpt>
      <trkpt lat="47.81265" lon="5.7607">
        <ele>246.80000305176</ele>
        <time>2017-07-18T14:19:33Z</time>
      </trkpt>
      <trkpt lat="47.81269" lon="5.76073">
        <ele>246.80000305176</ele>
        <time>2017-07-18T14:19:34Z</time>
      </trkpt>
      <trkpt lat="47.8129" lon="5.76084">
        <ele>246.39999389648</ele>
        <time>2017-07-18T14:19:39Z</time>
      </trkpt>
      <trkpt lat="47.81314" lon="5.76101">
        <ele>245.60000610352</ele>
        <time>2017-07-18T14:19:44Z</time>
      </trkpt>
      <trkpt lat="47.81324" lon="5.76108">
        <ele>245.19999694824</ele>
        <time>2017-07-18T14:19:46Z</time>
      </trkpt>
      <trkpt lat="47.81344" lon="5.76125">
        <ele>244.60000610352</ele>
        <time>2017-07-18T14:19:50Z</time>
      </trkpt>
      <trkpt lat="47.81349" lon="5.76129">
        <ele>244.19999694824</ele>
        <time>2017-07-18T14:19:51Z</time>
      </trkpt>
      <trkpt lat="47.81354" lon="5.76132">
        <ele>244.19999694824</ele>
        <time>2017-07-18T14:19:52Z</time>
      </trkpt>
      <trkpt lat="47.81366" lon="5.76142">
        <ele>243.60000610352</ele>
        <time>2017-07-18T14:19:55Z</time>
      </trkpt>
      <trkpt lat="47.81371" lon="5.76151">
        <ele>243</ele>
        <time>2017-07-18T14:19:57Z</time>
      </trkpt>
      <trkpt lat="47.81375" lon="5.76158">
        <ele>242.60000610352</ele>
        <time>2017-07-18T14:19:59Z</time>
      </trkpt>
      <trkpt lat="47.81378" lon="5.76162">
        <ele>242.39999389648</ele>
        <time>2017-07-18T14:20:00Z</time>
      </trkpt>
      <trkpt lat="47.81393" lon="5.76184">
        <ele>242</ele>
        <time>2017-07-18T14:20:05Z</time>
      </trkpt>
      <trkpt lat="47.81414" lon="5.76212">
        <ele>242</ele>
        <time>2017-07-18T14:20:11Z</time>
      </trkpt>
      <trkpt lat="47.81443" lon="5.76246">
        <ele>242.19999694824</ele>
        <time>2017-07-18T14:20:19Z</time>
      </trkpt>
      <trkpt lat="47.81462" lon="5.76271">
        <ele>242.19999694824</ele>
        <time>2017-07-18T14:20:25Z</time>
      </trkpt>
      <trkpt lat="47.81481" lon="5.76298">
        <ele>242</ele>
        <time>2017-07-18T14:20:32Z</time>
      </trkpt>
      <trkpt lat="47.81489" lon="5.76302">
        <ele>242</ele>
        <time>2017-07-18T14:20:36Z</time>
      </trkpt>
      <trkpt lat="47.815" lon="5.76289">
        <ele>242</ele>
        <time>2017-07-18T14:20:41Z</time>
      </trkpt>
      <trkpt lat="47.8151" lon="5.76278">
        <ele>241.60000610352</ele>
        <time>2017-07-18T14:20:44Z</time>
      </trkpt>
      <trkpt lat="47.81516" lon="5.76277">
        <ele>241.39999389648</ele>
        <time>2017-07-18T14:20:45Z</time>
      </trkpt>
      <trkpt lat="47.81526" lon="5.76273">
        <ele>240.39999389648</ele>
        <time>2017-07-18T14:20:47Z</time>
      </trkpt>
      <trkpt lat="47.81528" lon="5.7627">
        <ele>240</ele>
        <time>2017-07-18T14:20:48Z</time>
      </trkpt>
      <trkpt lat="47.81529" lon="5.76269">
        <ele>239.39999389648</ele>
        <time>2017-07-18T14:20:49Z</time>
      </trkpt>
      <trkpt lat="47.81531" lon="5.76269">
        <ele>238.60000610352</ele>
        <time>2017-07-18T14:20:51Z</time>
      </trkpt>
      <trkpt lat="47.81535" lon="5.7627">
        <ele>237.80000305176</ele>
        <time>2017-07-18T14:21:22Z</time>
      </trkpt>
      <trkpt lat="47.81541" lon="5.76271">
        <ele>237.80000305176</ele>
        <time>2017-07-18T14:21:24Z</time>
      </trkpt>
      <trkpt lat="47.81553" lon="5.76275">
        <ele>237.60000610352</ele>
        <time>2017-07-18T14:21:27Z</time>
      </trkpt>
      <trkpt lat="47.8157" lon="5.76279">
        <ele>237.19999694824</ele>
        <time>2017-07-18T14:21:30Z</time>
      </trkpt>
      <trkpt lat="47.81588" lon="5.76284">
        <ele>236.39999389648</ele>
        <time>2017-07-18T14:21:33Z</time>
      </trkpt>
      <trkpt lat="47.8161" lon="5.76288">
        <ele>235.80000305176</ele>
        <time>2017-07-18T14:21:36Z</time>
      </trkpt>
      <trkpt lat="47.81624" lon="5.76291">
        <ele>235.39999389648</ele>
        <time>2017-07-18T14:21:38Z</time>
      </trkpt>
      <trkpt lat="47.81655" lon="5.76294">
        <ele>234.19999694824</ele>
        <time>2017-07-18T14:21:42Z</time>
      </trkpt>
      <trkpt lat="47.81688" lon="5.76294">
        <ele>232.80000305176</ele>
        <time>2017-07-18T14:21:46Z</time>
      </trkpt>
      <trkpt lat="47.81704" lon="5.76297">
        <ele>232.39999389648</ele>
        <time>2017-07-18T14:21:48Z</time>
      </trkpt>
      <trkpt lat="47.81727" lon="5.76304">
        <ele>231.60000610352</ele>
        <time>2017-07-18T14:21:51Z</time>
      </trkpt>
      <trkpt lat="47.81732" lon="5.76307">
        <ele>231.39999389648</ele>
        <time>2017-07-18T14:21:52Z</time>
      </trkpt>
      <trkpt lat="47.81738" lon="5.76309">
        <ele>231.19999694824</ele>
        <time>2017-07-18T14:21:53Z</time>
      </trkpt>
      <trkpt lat="47.81754" lon="5.76317">
        <ele>230.39999389648</ele>
        <time>2017-07-18T14:21:56Z</time>
      </trkpt>
      <trkpt lat="47.8178" lon="5.76331">
        <ele>229.60000610352</ele>
        <time>2017-07-18T14:22:01Z</time>
      </trkpt>
      <trkpt lat="47.81791" lon="5.76336">
        <ele>229.39999389648</ele>
        <time>2017-07-18T14:22:03Z</time>
      </trkpt>
      <trkpt lat="47.81805" lon="5.76341">
        <ele>229.19999694824</ele>
        <time>2017-07-18T14:22:06Z</time>
      </trkpt>
      <trkpt lat="47.8182" lon="5.76348">
        <ele>229</ele>
        <time>2017-07-18T14:22:09Z</time>
      </trkpt>
      <trkpt lat="47.81837" lon="5.76354">
        <ele>229</ele>
        <time>2017-07-18T14:22:12Z</time>
      </trkpt>
      <trkpt lat="47.81855" lon="5.76359">
        <ele>228.39999389648</ele>
        <time>2017-07-18T14:22:15Z</time>
      </trkpt>
      <trkpt lat="47.81868" lon="5.7636">
        <ele>228</ele>
        <time>2017-07-18T14:22:17Z</time>
      </trkpt>
      <trkpt lat="47.81893" lon="5.76359">
        <ele>227.39999389648</ele>
        <time>2017-07-18T14:22:21Z</time>
      </trkpt>
      <trkpt lat="47.81913" lon="5.7636">
        <ele>227</ele>
        <time>2017-07-18T14:22:24Z</time>
      </trkpt>
      <trkpt lat="47.81954" lon="5.76359">
        <ele>226.19999694824</ele>
        <time>2017-07-18T14:22:30Z</time>
      </trkpt>
      <trkpt lat="47.81973" lon="5.7636">
        <ele>226</ele>
        <time>2017-07-18T14:22:33Z</time>
      </trkpt>
      <trkpt lat="47.8203" lon="5.7636">
        <ele>225.39999389648</ele>
        <time>2017-07-18T14:22:42Z</time>
      </trkpt>
      <trkpt lat="47.82036" lon="5.7636">
        <ele>225.39999389648</ele>
        <time>2017-07-18T14:22:43Z</time>
      </trkpt>
      <trkpt lat="47.8208" lon="5.76367">
        <ele>225.39999389648</ele>
        <time>2017-07-18T14:22:50Z</time>
      </trkpt>
      <trkpt lat="47.82112" lon="5.76386">
        <ele>225.60000610352</ele>
        <time>2017-07-18T14:22:56Z</time>
      </trkpt>
      <trkpt lat="47.82117" lon="5.76391">
        <ele>225.39999389648</ele>
        <time>2017-07-18T14:22:57Z</time>
      </trkpt>
      <trkpt lat="47.82141" lon="5.76416">
        <ele>225.60000610352</ele>
        <time>2017-07-18T14:23:02Z</time>
      </trkpt>
      <trkpt lat="47.8217" lon="5.76449">
        <ele>225.60000610352</ele>
        <time>2017-07-18T14:23:08Z</time>
      </trkpt>
      <trkpt lat="47.82179" lon="5.76462">
        <ele>225.39999389648</ele>
        <time>2017-07-18T14:23:10Z</time>
      </trkpt>
      <trkpt lat="47.82194" lon="5.76481">
        <ele>225.19999694824</ele>
        <time>2017-07-18T14:23:13Z</time>
      </trkpt>
      <trkpt lat="47.82208" lon="5.76502">
        <ele>225</ele>
        <time>2017-07-18T14:23:16Z</time>
      </trkpt>
      <trkpt lat="47.82231" lon="5.76538">
        <ele>224.60000610352</ele>
        <time>2017-07-18T14:23:21Z</time>
      </trkpt>
      <trkpt lat="47.82241" lon="5.76553">
        <ele>224.60000610352</ele>
        <time>2017-07-18T14:23:23Z</time>
      </trkpt>
      <trkpt lat="47.82275" lon="5.76617">
        <ele>224.39999389648</ele>
        <time>2017-07-18T14:23:31Z</time>
      </trkpt>
      <trkpt lat="47.82301" lon="5.76676">
        <ele>224.19999694824</ele>
        <time>2017-07-18T14:23:38Z</time>
      </trkpt>
      <trkpt lat="47.82304" lon="5.76684">
        <ele>224.19999694824</ele>
        <time>2017-07-18T14:23:39Z</time>
      </trkpt>
      <trkpt lat="47.82329" lon="5.7675">
        <ele>224.19999694824</ele>
        <time>2017-07-18T14:23:47Z</time>
      </trkpt>
      <trkpt lat="47.82345" lon="5.76804">
        <ele>224.19999694824</ele>
        <time>2017-07-18T14:23:54Z</time>
      </trkpt>
      <trkpt lat="47.8236" lon="5.76864">
        <ele>224.39999389648</ele>
        <time>2017-07-18T14:24:02Z</time>
      </trkpt>
      <trkpt lat="47.82382" lon="5.76918">
        <ele>224.60000610352</ele>
        <time>2017-07-18T14:24:10Z</time>
      </trkpt>
      <trkpt lat="47.8241" lon="5.76962">
        <ele>224.80000305176</ele>
        <time>2017-07-18T14:24:18Z</time>
      </trkpt>
      <trkpt lat="47.82434" lon="5.76989">
        <ele>225.19999694824</ele>
        <time>2017-07-18T14:24:24Z</time>
      </trkpt>
      <trkpt lat="47.82438" lon="5.76993">
        <ele>225.19999694824</ele>
        <time>2017-07-18T14:24:25Z</time>
      </trkpt>
      <trkpt lat="47.82461" lon="5.7701">
        <ele>225.60000610352</ele>
        <time>2017-07-18T14:24:30Z</time>
      </trkpt>
      <trkpt lat="47.82489" lon="5.77029">
        <ele>225.80000305176</ele>
        <time>2017-07-18T14:24:36Z</time>
      </trkpt>
      <trkpt lat="47.82494" lon="5.77032">
        <ele>226</ele>
        <time>2017-07-18T14:24:37Z</time>
      </trkpt>
      <trkpt lat="47.82508" lon="5.7704">
        <ele>226.39999389648</ele>
        <time>2017-07-18T14:24:40Z</time>
      </trkpt>
      <trkpt lat="47.82517" lon="5.77047">
        <ele>226.60000610352</ele>
        <time>2017-07-18T14:24:42Z</time>
      </trkpt>
      <trkpt lat="47.82549" lon="5.77071">
        <ele>227</ele>
        <time>2017-07-18T14:24:49Z</time>
      </trkpt>
      <trkpt lat="47.82578" lon="5.77093">
        <ele>227.39999389648</ele>
        <time>2017-07-18T14:24:56Z</time>
      </trkpt>
      <trkpt lat="47.82582" lon="5.77097">
        <ele>227.39999389648</ele>
        <time>2017-07-18T14:24:57Z</time>
      </trkpt>
      <trkpt lat="47.82608" lon="5.77126">
        <ele>227.80000305176</ele>
        <time>2017-07-18T14:25:03Z</time>
      </trkpt>
      <trkpt lat="47.82628" lon="5.77156">
        <ele>227.80000305176</ele>
        <time>2017-07-18T14:25:08Z</time>
      </trkpt>
      <trkpt lat="47.82657" lon="5.77206">
        <ele>227.60000610352</ele>
        <time>2017-07-18T14:25:15Z</time>
      </trkpt>
      <trkpt lat="47.82679" lon="5.77253">
        <ele>227</ele>
        <time>2017-07-18T14:25:21Z</time>
      </trkpt>
      <trkpt lat="47.82693" lon="5.77306">
        <ele>226.19999694824</ele>
        <time>2017-07-18T14:25:27Z</time>
      </trkpt>
      <trkpt lat="47.82695" lon="5.77315">
        <ele>226.19999694824</ele>
        <time>2017-07-18T14:25:28Z</time>
      </trkpt>
      <trkpt lat="47.82709" lon="5.77362">
        <ele>225.39999389648</ele>
        <time>2017-07-18T14:25:33Z</time>
      </trkpt>
      <trkpt lat="47.82713" lon="5.77372">
        <ele>225.19999694824</ele>
        <time>2017-07-18T14:25:34Z</time>
      </trkpt>
      <trkpt lat="47.82717" lon="5.77381">
        <ele>224.80000305176</ele>
        <time>2017-07-18T14:25:35Z</time>
      </trkpt>
      <trkpt lat="47.82731" lon="5.77407">
        <ele>223.80000305176</ele>
        <time>2017-07-18T14:25:38Z</time>
      </trkpt>
      <trkpt lat="47.82751" lon="5.77438">
        <ele>222.80000305176</ele>
        <time>2017-07-18T14:25:42Z</time>
      </trkpt>
      <trkpt lat="47.82793" lon="5.77491">
        <ele>222</ele>
        <time>2017-07-18T14:25:50Z</time>
      </trkpt>
      <trkpt lat="47.82826" lon="5.77518">
        <ele>221.80000305176</ele>
        <time>2017-07-18T14:25:56Z</time>
      </trkpt>
      <trkpt lat="47.82832" lon="5.77521">
        <ele>221.80000305176</ele>
        <time>2017-07-18T14:25:57Z</time>
      </trkpt>
      <trkpt lat="47.82859" lon="5.7754">
        <ele>221.60000610352</ele>
        <time>2017-07-18T14:26:02Z</time>
      </trkpt>
      <trkpt lat="47.82871" lon="5.77543">
        <ele>221.60000610352</ele>
        <time>2017-07-18T14:26:04Z</time>
      </trkpt>
      <trkpt lat="47.82887" lon="5.77542">
        <ele>221.39999389648</ele>
        <time>2017-07-18T14:26:07Z</time>
      </trkpt>
      <trkpt lat="47.82893" lon="5.77542">
        <ele>221.39999389648</ele>
        <time>2017-07-18T14:26:08Z</time>
      </trkpt>
      <trkpt lat="47.82908" lon="5.77552">
        <ele>221.39999389648</ele>
        <time>2017-07-18T14:26:11Z</time>
      </trkpt>
      <trkpt lat="47.82919" lon="5.77573">
        <ele>221.19999694824</ele>
        <time>2017-07-18T14:26:14Z</time>
      </trkpt>
      <trkpt lat="47.82927" lon="5.77587">
        <ele>221.19999694824</ele>
        <time>2017-07-18T14:26:16Z</time>
      </trkpt>
      <trkpt lat="47.82966" lon="5.77651">
        <ele>220.80000305176</ele>
        <time>2017-07-18T14:26:25Z</time>
      </trkpt>
      <trkpt lat="47.83009" lon="5.77714">
        <ele>220</ele>
        <time>2017-07-18T14:26:34Z</time>
      </trkpt>
      <trkpt lat="47.83013" lon="5.77722">
        <ele>220</ele>
        <time>2017-07-18T14:26:35Z</time>
      </trkpt>
      <trkpt lat="47.83047" lon="5.7777">
        <ele>219.80000305176</ele>
        <time>2017-07-18T14:26:42Z</time>
      </trkpt>
      <trkpt lat="47.83052" lon="5.77777">
        <ele>219.80000305176</ele>
        <time>2017-07-18T14:26:43Z</time>
      </trkpt>
      <trkpt lat="47.83093" lon="5.77834">
        <ele>219.80000305176</ele>
        <time>2017-07-18T14:26:52Z</time>
      </trkpt>
      <trkpt lat="47.83126" lon="5.77881">
        <ele>220.19999694824</ele>
        <time>2017-07-18T14:27:00Z</time>
      </trkpt>
      <trkpt lat="47.83157" lon="5.77926">
        <ele>220.80000305176</ele>
        <time>2017-07-18T14:27:08Z</time>
      </trkpt>
      <trkpt lat="47.83199" lon="5.77987">
        <ele>221.19999694824</ele>
        <time>2017-07-18T14:27:19Z</time>
      </trkpt>
      <trkpt lat="47.83229" lon="5.78036">
        <ele>221.39999389648</ele>
        <time>2017-07-18T14:27:27Z</time>
      </trkpt>
      <trkpt lat="47.83261" lon="5.78091">
        <ele>221.39999389648</ele>
        <time>2017-07-18T14:27:36Z</time>
      </trkpt>
      <trkpt lat="47.83282" lon="5.78121">
        <ele>221.39999389648</ele>
        <time>2017-07-18T14:27:42Z</time>
      </trkpt>
      <trkpt lat="47.83284" lon="5.78128">
        <ele>221.39999389648</ele>
        <time>2017-07-18T14:27:43Z</time>
      </trkpt>
      <trkpt lat="47.83287" lon="5.78149">
        <ele>221.39999389648</ele>
        <time>2017-07-18T14:27:46Z</time>
      </trkpt>
      <trkpt lat="47.83287" lon="5.78156">
        <ele>221.39999389648</ele>
        <time>2017-07-18T14:27:47Z</time>
      </trkpt>
      <trkpt lat="47.8329" lon="5.78179">
        <ele>221.39999389648</ele>
        <time>2017-07-18T14:27:50Z</time>
      </trkpt>
      <trkpt lat="47.83295" lon="5.78193">
        <ele>221.60000610352</ele>
        <time>2017-07-18T14:27:52Z</time>
      </trkpt>
      <trkpt lat="47.83309" lon="5.78221">
        <ele>221.39999389648</ele>
        <time>2017-07-18T14:27:56Z</time>
      </trkpt>
      <trkpt lat="47.83313" lon="5.78228">
        <ele>221.39999389648</ele>
        <time>2017-07-18T14:27:57Z</time>
      </trkpt>
      <trkpt lat="47.83349" lon="5.78288">
        <ele>220.80000305176</ele>
        <time>2017-07-18T14:28:05Z</time>
      </trkpt>
      <trkpt lat="47.83383" lon="5.78338">
        <ele>220.60000610352</ele>
        <time>2017-07-18T14:28:12Z</time>
      </trkpt>
      <trkpt lat="47.83425" lon="5.78391">
        <ele>220</ele>
        <time>2017-07-18T14:28:20Z</time>
      </trkpt>
      <trkpt lat="47.83452" lon="5.78422">
        <ele>219.80000305176</ele>
        <time>2017-07-18T14:28:25Z</time>
      </trkpt>
      <trkpt lat="47.83473" lon="5.78449">
        <ele>219.39999389648</ele>
        <time>2017-07-18T14:28:29Z</time>
      </trkpt>
      <trkpt lat="47.83513" lon="5.78505">
        <ele>219.19999694824</ele>
        <time>2017-07-18T14:28:37Z</time>
      </trkpt>
      <trkpt lat="47.83542" lon="5.78556">
        <ele>219.39999389648</ele>
        <time>2017-07-18T14:28:44Z</time>
      </trkpt>
      <trkpt lat="47.83567" lon="5.78609">
        <ele>219.60000610352</ele>
        <time>2017-07-18T14:28:51Z</time>
      </trkpt>
      <trkpt lat="47.83584" lon="5.78649">
        <ele>219.60000610352</ele>
        <time>2017-07-18T14:28:56Z</time>
      </trkpt>
      <trkpt lat="47.8359" lon="5.78665">
        <ele>219.39999389648</ele>
        <time>2017-07-18T14:28:58Z</time>
      </trkpt>
      <trkpt lat="47.83616" lon="5.7873">
        <ele>219</ele>
        <time>2017-07-18T14:29:06Z</time>
      </trkpt>
      <trkpt lat="47.83639" lon="5.78805">
        <ele>218.80000305176</ele>
        <time>2017-07-18T14:29:15Z</time>
      </trkpt>
      <trkpt lat="47.83641" lon="5.78813">
        <ele>218.80000305176</ele>
        <time>2017-07-18T14:29:16Z</time>
      </trkpt>
      <trkpt lat="47.83652" lon="5.78864">
        <ele>218.80000305176</ele>
        <time>2017-07-18T14:29:22Z</time>
      </trkpt>
      <trkpt lat="47.8366" lon="5.78905">
        <ele>218.60000610352</ele>
        <time>2017-07-18T14:29:27Z</time>
      </trkpt>
      <trkpt lat="47.83669" lon="5.78953">
        <ele>219.19999694824</ele>
        <time>2017-07-18T14:29:34Z</time>
      </trkpt>
      <trkpt lat="47.83672" lon="5.78973">
        <ele>219.80000305176</ele>
        <time>2017-07-18T14:29:38Z</time>
      </trkpt>
      <trkpt lat="47.83672" lon="5.78982">
        <ele>220.19999694824</ele>
        <time>2017-07-18T14:29:40Z</time>
      </trkpt>
      <trkpt lat="47.83666" lon="5.79005">
        <ele>220.39999389648</ele>
        <time>2017-07-18T14:29:45Z</time>
      </trkpt>
      <trkpt lat="47.8366" lon="5.79017">
        <ele>220.80000305176</ele>
        <time>2017-07-18T14:29:48Z</time>
      </trkpt>
      <trkpt lat="47.83657" lon="5.79024">
        <ele>221.19999694824</ele>
        <time>2017-07-18T14:29:50Z</time>
      </trkpt>
      <trkpt lat="47.83657" lon="5.79031">
        <ele>220.80000305176</ele>
        <time>2017-07-18T14:30:40Z</time>
      </trkpt>
      <trkpt lat="47.83657" lon="5.79033">
        <ele>220.80000305176</ele>
        <time>2017-07-18T14:30:41Z</time>
      </trkpt>
      <trkpt lat="47.83658" lon="5.79036">
        <ele>220.80000305176</ele>
        <time>2017-07-18T14:30:42Z</time>
      </trkpt>
      <trkpt lat="47.83664" lon="5.79049">
        <ele>220.80000305176</ele>
        <time>2017-07-18T14:30:45Z</time>
      </trkpt>
      <trkpt lat="47.83666" lon="5.79054">
        <ele>220.80000305176</ele>
        <time>2017-07-18T14:30:46Z</time>
      </trkpt>
      <trkpt lat="47.83678" lon="5.79086">
        <ele>220.39999389648</ele>
        <time>2017-07-18T14:30:51Z</time>
      </trkpt>
      <trkpt lat="47.83688" lon="5.79125">
        <ele>219.80000305176</ele>
        <time>2017-07-18T14:30:56Z</time>
      </trkpt>
      <trkpt lat="47.83688" lon="5.79134">
        <ele>219.80000305176</ele>
        <time>2017-07-18T14:30:57Z</time>
      </trkpt>
      <trkpt lat="47.83688" lon="5.7915">
        <ele>219.80000305176</ele>
        <time>2017-07-18T14:30:59Z</time>
      </trkpt>
      <trkpt lat="47.83687" lon="5.79165">
        <ele>219.60000610352</ele>
        <time>2017-07-18T14:31:01Z</time>
      </trkpt>
      <trkpt lat="47.83677" lon="5.79224">
        <ele>220</ele>
        <time>2017-07-18T14:31:09Z</time>
      </trkpt>
      <trkpt lat="47.83674" lon="5.79251">
        <ele>220.19999694824</ele>
        <time>2017-07-18T14:31:13Z</time>
      </trkpt>
      <trkpt lat="47.83674" lon="5.79272">
        <ele>220.39999389648</ele>
        <time>2017-07-18T14:31:16Z</time>
      </trkpt>
      <trkpt lat="47.83673" lon="5.79301">
        <ele>220.80000305176</ele>
        <time>2017-07-18T14:31:20Z</time>
      </trkpt>
      <trkpt lat="47.83674" lon="5.7932">
        <ele>221</ele>
        <time>2017-07-18T14:31:23Z</time>
      </trkpt>
      <trkpt lat="47.83675" lon="5.79366">
        <ele>220.80000305176</ele>
        <time>2017-07-18T14:31:30Z</time>
      </trkpt>
      <trkpt lat="47.83676" lon="5.79411">
        <ele>221</ele>
        <time>2017-07-18T14:31:37Z</time>
      </trkpt>
      <trkpt lat="47.83675" lon="5.79425">
        <ele>221</ele>
        <time>2017-07-18T14:31:39Z</time>
      </trkpt>
      <trkpt lat="47.8367" lon="5.79444">
        <ele>221</ele>
        <time>2017-07-18T14:31:42Z</time>
      </trkpt>
      <trkpt lat="47.8366" lon="5.79478">
        <ele>221</ele>
        <time>2017-07-18T14:31:48Z</time>
      </trkpt>
      <trkpt lat="47.83656" lon="5.79489">
        <ele>221.39999389648</ele>
        <time>2017-07-18T14:31:52Z</time>
      </trkpt>
      <trkpt lat="47.83656" lon="5.79492">
        <ele>221.60000610352</ele>
        <time>2017-07-18T14:31:54Z</time>
      </trkpt>
      <trkpt lat="47.83659" lon="5.79489">
        <ele>221.60000610352</ele>
        <time>2017-07-18T14:31:56Z</time>
      </trkpt>
      <trkpt lat="47.83657" lon="5.79482">
        <ele>221.60000610352</ele>
        <time>2017-07-18T14:31:59Z</time>
      </trkpt>
      <trkpt lat="47.83656" lon="5.79479">
        <ele>221.39999389648</ele>
        <time>2017-07-18T14:32:00Z</time>
      </trkpt>
      <trkpt lat="47.83652" lon="5.79474">
        <ele>221.39999389648</ele>
        <time>2017-07-18T14:32:03Z</time>
      </trkpt>
      <trkpt lat="47.83648" lon="5.79473">
        <ele>221.60000610352</ele>
        <time>2017-07-18T14:32:05Z</time>
      </trkpt>
      <trkpt lat="47.83644" lon="5.79468">
        <ele>222</ele>
        <time>2017-07-18T14:32:08Z</time>
      </trkpt>
      <trkpt lat="47.8364" lon="5.79467">
        <ele>222.19999694824</ele>
        <time>2017-07-18T14:32:10Z</time>
      </trkpt>
      <trkpt lat="47.83635" lon="5.79464">
        <ele>222.60000610352</ele>
        <time>2017-07-18T14:32:13Z</time>
      </trkpt>
      <trkpt lat="47.83632" lon="5.79466">
        <ele>222.80000305176</ele>
        <time>2017-07-18T14:32:15Z</time>
      </trkpt>
      <trkpt lat="47.8363" lon="5.79467">
        <ele>223.19999694824</ele>
        <time>2017-07-18T14:32:16Z</time>
      </trkpt>
      <trkpt lat="47.83624" lon="5.79468">
        <ele>224</ele>
        <time>2017-07-18T14:32:20Z</time>
      </trkpt>
      <trkpt lat="47.83623" lon="5.79468">
        <ele>224.19999694824</ele>
        <time>2017-07-18T14:32:21Z</time>
      </trkpt>
      <trkpt lat="47.83621" lon="5.79468">
        <ele>224.39999389648</ele>
        <time>2017-07-18T14:32:22Z</time>
      </trkpt>
      <trkpt lat="47.8362" lon="5.79466">
        <ele>225.19999694824</ele>
        <time>2017-07-18T14:32:40Z</time>
      </trkpt>
      <trkpt lat="47.83629" lon="5.79466">
        <ele>225.19999694824</ele>
        <time>2017-07-18T14:32:43Z</time>
      </trkpt>
      <trkpt lat="47.83645" lon="5.79474">
        <ele>224.60000610352</ele>
        <time>2017-07-18T14:32:47Z</time>
      </trkpt>
      <trkpt lat="47.83654" lon="5.7948">
        <ele>223</ele>
        <time>2017-07-18T14:32:51Z</time>
      </trkpt>
      <trkpt lat="47.8366" lon="5.79482">
        <ele>221.80000305176</ele>
        <time>2017-07-18T14:32:55Z</time>
      </trkpt>
      <trkpt lat="47.83661" lon="5.79481">
        <ele>221.80000305176</ele>
        <time>2017-07-18T14:32:56Z</time>
      </trkpt>
      <trkpt lat="47.83663" lon="5.79476">
        <ele>221.39999389648</ele>
        <time>2017-07-18T14:32:58Z</time>
      </trkpt>
      <trkpt lat="47.83666" lon="5.79465">
        <ele>221</ele>
        <time>2017-07-18T14:33:03Z</time>
      </trkpt>
      <trkpt lat="47.83665" lon="5.79465">
        <ele>220.60000610352</ele>
        <time>2017-07-18T14:33:12Z</time>
      </trkpt>
      <trkpt lat="47.83663" lon="5.79467">
        <ele>220.80000305176</ele>
        <time>2017-07-18T14:33:13Z</time>
      </trkpt>
      <trkpt lat="47.8366" lon="5.79484">
        <ele>220.80000305176</ele>
        <time>2017-07-18T14:33:18Z</time>
      </trkpt>
      <trkpt lat="47.83654" lon="5.79506">
        <ele>221.19999694824</ele>
        <time>2017-07-18T14:33:24Z</time>
      </trkpt>
      <trkpt lat="47.83653" lon="5.79529">
        <ele>221.39999389648</ele>
        <time>2017-07-18T14:33:28Z</time>
      </trkpt>
      <trkpt lat="47.83652" lon="5.79541">
        <ele>221.39999389648</ele>
        <time>2017-07-18T14:33:30Z</time>
      </trkpt>
      <trkpt lat="47.83654" lon="5.7958">
        <ele>221.19999694824</ele>
        <time>2017-07-18T14:33:37Z</time>
      </trkpt>
      <trkpt lat="47.83662" lon="5.79608">
        <ele>220.60000610352</ele>
        <time>2017-07-18T14:33:43Z</time>
      </trkpt>
      <trkpt lat="47.83666" lon="5.79628">
        <ele>219.80000305176</ele>
        <time>2017-07-18T14:33:48Z</time>
      </trkpt>
      <trkpt lat="47.83664" lon="5.7963">
        <ele>219.80000305176</ele>
        <time>2017-07-18T14:33:49Z</time>
      </trkpt>
      <trkpt lat="47.83656" lon="5.79636">
        <ele>219.39999389648</ele>
        <time>2017-07-18T14:33:52Z</time>
      </trkpt>
      <trkpt lat="47.83644" lon="5.7965">
        <ele>219.39999389648</ele>
        <time>2017-07-18T14:33:56Z</time>
      </trkpt>
      <trkpt lat="47.83641" lon="5.79654">
        <ele>219.60000610352</ele>
        <time>2017-07-18T14:33:57Z</time>
      </trkpt>
      <trkpt lat="47.83625" lon="5.79677">
        <ele>220</ele>
        <time>2017-07-18T14:34:03Z</time>
      </trkpt>
      <trkpt lat="47.83607" lon="5.79706">
        <ele>220.60000610352</ele>
        <time>2017-07-18T14:34:11Z</time>
      </trkpt>
      <trkpt lat="47.83602" lon="5.79711">
        <ele>220.80000305176</ele>
        <time>2017-07-18T14:34:14Z</time>
      </trkpt>
      <trkpt lat="47.83599" lon="5.79709">
        <ele>220.60000610352</ele>
        <time>2017-07-18T14:34:16Z</time>
      </trkpt>
      <trkpt lat="47.83597" lon="5.79706">
        <ele>220.80000305176</ele>
        <time>2017-07-18T14:34:18Z</time>
      </trkpt>
      <trkpt lat="47.83591" lon="5.79707">
        <ele>220.80000305176</ele>
        <time>2017-07-18T14:35:14Z</time>
      </trkpt>
      <trkpt lat="47.83593" lon="5.79719">
        <ele>220.80000305176</ele>
        <time>2017-07-18T14:35:18Z</time>
      </trkpt>
      <trkpt lat="47.83592" lon="5.79732">
        <ele>220.80000305176</ele>
        <time>2017-07-18T14:35:23Z</time>
      </trkpt>
      <trkpt lat="47.83588" lon="5.79741">
        <ele>220.80000305176</ele>
        <time>2017-07-18T14:35:26Z</time>
      </trkpt>
      <trkpt lat="47.83584" lon="5.79748">
        <ele>220.80000305176</ele>
        <time>2017-07-18T14:35:28Z</time>
      </trkpt>
      <trkpt lat="47.83574" lon="5.79765">
        <ele>221.19999694824</ele>
        <time>2017-07-18T14:35:33Z</time>
      </trkpt>
      <trkpt lat="47.83568" lon="5.79774">
        <ele>221.39999389648</ele>
        <time>2017-07-18T14:35:36Z</time>
      </trkpt>
      <trkpt lat="47.83561" lon="5.79786">
        <ele>221.80000305176</ele>
        <time>2017-07-18T14:35:40Z</time>
      </trkpt>
      <trkpt lat="47.83557" lon="5.79796">
        <ele>222</ele>
        <time>2017-07-18T14:35:43Z</time>
      </trkpt>
      <trkpt lat="47.83546" lon="5.79804">
        <ele>222.60000610352</ele>
        <time>2017-07-18T14:35:48Z</time>
      </trkpt>
      <trkpt lat="47.83538" lon="5.79803">
        <ele>222.80000305176</ele>
        <time>2017-07-18T14:35:51Z</time>
      </trkpt>
      <trkpt lat="47.83532" lon="5.79801">
        <ele>223</ele>
        <time>2017-07-18T14:35:53Z</time>
      </trkpt>
      <trkpt lat="47.83518" lon="5.79797">
        <ele>223.19999694824</ele>
        <time>2017-07-18T14:35:58Z</time>
      </trkpt>
      <trkpt lat="47.8351" lon="5.79796">
        <ele>223.39999389648</ele>
        <time>2017-07-18T14:36:02Z</time>
      </trkpt>
      <trkpt lat="47.83509" lon="5.79797">
        <ele>223.39999389648</ele>
        <time>2017-07-18T14:36:03Z</time>
      </trkpt>
      <trkpt lat="47.83509" lon="5.79798">
        <ele>223.60000610352</ele>
        <time>2017-07-18T14:36:05Z</time>
      </trkpt>
      <trkpt lat="47.83511" lon="5.79798">
        <ele>223.60000610352</ele>
        <time>2017-07-18T14:36:06Z</time>
      </trkpt>
      <trkpt lat="47.83523" lon="5.79799">
        <ele>223.60000610352</ele>
        <time>2017-07-18T14:36:10Z</time>
      </trkpt>
      <trkpt lat="47.83537" lon="5.79808">
        <ele>223.39999389648</ele>
        <time>2017-07-18T14:36:14Z</time>
      </trkpt>
      <trkpt lat="47.83542" lon="5.79815">
        <ele>223.39999389648</ele>
        <time>2017-07-18T14:36:16Z</time>
      </trkpt>
      <trkpt lat="47.83543" lon="5.79823">
        <ele>223.39999389648</ele>
        <time>2017-07-18T14:36:18Z</time>
      </trkpt>
      <trkpt lat="47.83542" lon="5.79829">
        <ele>223.39999389648</ele>
        <time>2017-07-18T14:36:20Z</time>
      </trkpt>
      <trkpt lat="47.83543" lon="5.7984">
        <ele>224</ele>
        <time>2017-07-18T14:36:24Z</time>
      </trkpt>
      <trkpt lat="47.83543" lon="5.79842">
        <ele>224</ele>
        <time>2017-07-18T14:36:25Z</time>
      </trkpt>
      <trkpt lat="47.8354" lon="5.79845">
        <ele>224.39999389648</ele>
        <time>2017-07-18T14:36:30Z</time>
      </trkpt>
      <trkpt lat="47.83538" lon="5.79842">
        <ele>224.39999389648</ele>
        <time>2017-07-18T14:36:32Z</time>
      </trkpt>
      <trkpt lat="47.83533" lon="5.79841">
        <ele>224.60000610352</ele>
        <time>2017-07-18T14:36:34Z</time>
      </trkpt>
      <trkpt lat="47.83528" lon="5.79845">
        <ele>224.60000610352</ele>
        <time>2017-07-18T14:36:36Z</time>
      </trkpt>
      <trkpt lat="47.83524" lon="5.79849">
        <ele>224.60000610352</ele>
        <time>2017-07-18T14:36:38Z</time>
      </trkpt>
      <trkpt lat="47.83518" lon="5.79856">
        <ele>224.80000305176</ele>
        <time>2017-07-18T14:36:43Z</time>
      </trkpt>
      <trkpt lat="47.83518" lon="5.79857">
        <ele>225</ele>
        <time>2017-07-18T14:36:44Z</time>
      </trkpt>
      <trkpt lat="47.83516" lon="5.79862">
        <ele>225.19999694824</ele>
        <time>2017-07-18T14:36:47Z</time>
      </trkpt>
      <trkpt lat="47.83515" lon="5.79863">
        <ele>225.19999694824</ele>
        <time>2017-07-18T14:36:48Z</time>
      </trkpt>
      <trkpt lat="47.83516" lon="5.79863">
        <ele>225.39999389648</ele>
        <time>2017-07-18T14:36:53Z</time>
      </trkpt>
      <trkpt lat="47.83517" lon="5.79859">
        <ele>225.39999389648</ele>
        <time>2017-07-18T14:36:54Z</time>
      </trkpt>
      <trkpt lat="47.83529" lon="5.79842">
        <ele>225.19999694824</ele>
        <time>2017-07-18T14:36:59Z</time>
      </trkpt>
      <trkpt lat="47.8354" lon="5.7984">
        <ele>224.60000610352</ele>
        <time>2017-07-18T14:37:03Z</time>
      </trkpt>
      <trkpt lat="47.83542" lon="5.79842">
        <ele>224.60000610352</ele>
        <time>2017-07-18T14:37:04Z</time>
      </trkpt>
      <trkpt lat="47.83543" lon="5.79848">
        <ele>224.39999389648</ele>
        <time>2017-07-18T14:37:06Z</time>
      </trkpt>
      <trkpt lat="47.83543" lon="5.79852">
        <ele>224.60000610352</ele>
        <time>2017-07-18T14:37:08Z</time>
      </trkpt>
      <trkpt lat="47.83541" lon="5.7985">
        <ele>224.80000305176</ele>
        <time>2017-07-18T14:37:10Z</time>
      </trkpt>
      <trkpt lat="47.83541" lon="5.79844">
        <ele>225</ele>
        <time>2017-07-18T14:37:12Z</time>
      </trkpt>
      <trkpt lat="47.8354" lon="5.79837">
        <ele>225</ele>
        <time>2017-07-18T14:37:14Z</time>
      </trkpt>
      <trkpt lat="47.83544" lon="5.79831">
        <ele>223.80000305176</ele>
        <time>2017-07-18T14:40:18Z</time>
      </trkpt>
      <trkpt lat="47.83541" lon="5.79833">
        <ele>223.80000305176</ele>
        <time>2017-07-18T14:40:20Z</time>
      </trkpt>
      <trkpt lat="47.83534" lon="5.79837">
        <ele>224</ele>
        <time>2017-07-18T14:40:23Z</time>
      </trkpt>
      <trkpt lat="47.83529" lon="5.79842">
        <ele>224.19999694824</ele>
        <time>2017-07-18T14:40:25Z</time>
      </trkpt>
      <trkpt lat="47.83513" lon="5.79861">
        <ele>225</ele>
        <time>2017-07-18T14:40:32Z</time>
      </trkpt>
      <trkpt lat="47.83511" lon="5.79864">
        <ele>225</ele>
        <time>2017-07-18T14:40:33Z</time>
      </trkpt>
      <trkpt lat="47.83499" lon="5.79884">
        <ele>225.60000610352</ele>
        <time>2017-07-18T14:40:40Z</time>
      </trkpt>
      <trkpt lat="47.83495" lon="5.79892">
        <ele>226</ele>
        <time>2017-07-18T14:40:44Z</time>
      </trkpt>
      <trkpt lat="47.83492" lon="5.79897">
        <ele>226.39999389648</ele>
        <time>2017-07-18T14:40:46Z</time>
      </trkpt>
      <trkpt lat="47.83484" lon="5.79912">
        <ele>227.19999694824</ele>
        <time>2017-07-18T14:40:52Z</time>
      </trkpt>
      <trkpt lat="47.8348" lon="5.7992">
        <ele>227.60000610352</ele>
        <time>2017-07-18T14:40:55Z</time>
      </trkpt>
      <trkpt lat="47.83474" lon="5.79934">
        <ele>228.19999694824</ele>
        <time>2017-07-18T14:41:00Z</time>
      </trkpt>
      <trkpt lat="47.83469" lon="5.79942">
        <ele>228.60000610352</ele>
        <time>2017-07-18T14:41:03Z</time>
      </trkpt>
      <trkpt lat="47.83462" lon="5.79957">
        <ele>229.39999389648</ele>
        <time>2017-07-18T14:41:08Z</time>
      </trkpt>
      <trkpt lat="47.83449" lon="5.79981">
        <ele>230.39999389648</ele>
        <time>2017-07-18T14:41:17Z</time>
      </trkpt>
      <trkpt lat="47.83436" lon="5.80004">
        <ele>231.39999389648</ele>
        <time>2017-07-18T14:41:26Z</time>
      </trkpt>
      <trkpt lat="47.83423" lon="5.80019">
        <ele>232.39999389648</ele>
        <time>2017-07-18T14:41:33Z</time>
      </trkpt>
      <trkpt lat="47.83421" lon="5.80021">
        <ele>232.60000610352</ele>
        <time>2017-07-18T14:41:34Z</time>
      </trkpt>
      <trkpt lat="47.83408" lon="5.80029">
        <ele>233.39999389648</ele>
        <time>2017-07-18T14:41:40Z</time>
      </trkpt>
      <trkpt lat="47.83403" lon="5.80031">
        <ele>233.60000610352</ele>
        <time>2017-07-18T14:41:42Z</time>
      </trkpt>
      <trkpt lat="47.83391" lon="5.80035">
        <ele>234.19999694824</ele>
        <time>2017-07-18T14:41:47Z</time>
      </trkpt>
      <trkpt lat="47.83381" lon="5.80038">
        <ele>234.60000610352</ele>
        <time>2017-07-18T14:41:51Z</time>
      </trkpt>
      <trkpt lat="47.83372" lon="5.8004">
        <ele>235.19999694824</ele>
        <time>2017-07-18T14:41:55Z</time>
      </trkpt>
      <trkpt lat="47.83359" lon="5.80044">
        <ele>235.80000305176</ele>
        <time>2017-07-18T14:42:00Z</time>
      </trkpt>
      <trkpt lat="47.83355" lon="5.80047">
        <ele>236</ele>
        <time>2017-07-18T14:42:02Z</time>
      </trkpt>
      <trkpt lat="47.83339" lon="5.80053">
        <ele>236.60000610352</ele>
        <time>2017-07-18T14:42:09Z</time>
      </trkpt>
      <trkpt lat="47.83334" lon="5.80056">
        <ele>236.80000305176</ele>
        <time>2017-07-18T14:42:11Z</time>
      </trkpt>
      <trkpt lat="47.83321" lon="5.80067">
        <ele>237.19999694824</ele>
        <time>2017-07-18T14:42:17Z</time>
      </trkpt>
      <trkpt lat="47.83315" lon="5.80074">
        <ele>237.80000305176</ele>
        <time>2017-07-18T14:42:20Z</time>
      </trkpt>
      <trkpt lat="47.83303" lon="5.80089">
        <ele>238.60000610352</ele>
        <time>2017-07-18T14:42:26Z</time>
      </trkpt>
      <trkpt lat="47.83299" lon="5.80092">
        <ele>238.80000305176</ele>
        <time>2017-07-18T14:42:28Z</time>
      </trkpt>
      <trkpt lat="47.83289" lon="5.80102">
        <ele>239.39999389648</ele>
        <time>2017-07-18T14:42:33Z</time>
      </trkpt>
      <trkpt lat="47.83283" lon="5.80108">
        <ele>240</ele>
        <time>2017-07-18T14:42:36Z</time>
      </trkpt>
      <trkpt lat="47.83273" lon="5.80119">
        <ele>240.80000305176</ele>
        <time>2017-07-18T14:42:41Z</time>
      </trkpt>
      <trkpt lat="47.83269" lon="5.80122">
        <ele>241</ele>
        <time>2017-07-18T14:42:43Z</time>
      </trkpt>
      <trkpt lat="47.83254" lon="5.80137">
        <ele>242</ele>
        <time>2017-07-18T14:42:50Z</time>
      </trkpt>
      <trkpt lat="47.8324" lon="5.80152">
        <ele>243.19999694824</ele>
        <time>2017-07-18T14:42:57Z</time>
      </trkpt>
      <trkpt lat="47.83237" lon="5.80157">
        <ele>243.39999389648</ele>
        <time>2017-07-18T14:42:59Z</time>
      </trkpt>
      <trkpt lat="47.83233" lon="5.80161">
        <ele>243.39999389648</ele>
        <time>2017-07-18T14:43:01Z</time>
      </trkpt>
      <trkpt lat="47.83224" lon="5.80171">
        <ele>244.19999694824</ele>
        <time>2017-07-18T14:43:06Z</time>
      </trkpt>
      <trkpt lat="47.83222" lon="5.80172">
        <ele>244.39999389648</ele>
        <time>2017-07-18T14:43:07Z</time>
      </trkpt>
      <trkpt lat="47.83209" lon="5.80186">
        <ele>245.19999694824</ele>
        <time>2017-07-18T14:43:14Z</time>
      </trkpt>
      <trkpt lat="47.83206" lon="5.80188">
        <ele>245.39999389648</ele>
        <time>2017-07-18T14:43:15Z</time>
      </trkpt>
      <trkpt lat="47.83193" lon="5.80204">
        <ele>246</ele>
        <time>2017-07-18T14:43:22Z</time>
      </trkpt>
      <trkpt lat="47.83188" lon="5.80209">
        <ele>246.39999389648</ele>
        <time>2017-07-18T14:43:24Z</time>
      </trkpt>
      <trkpt lat="47.83178" lon="5.80219">
        <ele>247</ele>
        <time>2017-07-18T14:43:29Z</time>
      </trkpt>
      <trkpt lat="47.83168" lon="5.80227">
        <ele>247.60000610352</ele>
        <time>2017-07-18T14:43:33Z</time>
      </trkpt>
      <trkpt lat="47.83161" lon="5.80233">
        <ele>247.80000305176</ele>
        <time>2017-07-18T14:43:36Z</time>
      </trkpt>
      <trkpt lat="47.83152" lon="5.8024">
        <ele>248.60000610352</ele>
        <time>2017-07-18T14:43:40Z</time>
      </trkpt>
      <trkpt lat="47.83145" lon="5.80245">
        <ele>249</ele>
        <time>2017-07-18T14:43:43Z</time>
      </trkpt>
      <trkpt lat="47.83135" lon="5.80254">
        <ele>249.60000610352</ele>
        <time>2017-07-18T14:43:47Z</time>
      </trkpt>
      <trkpt lat="47.83121" lon="5.80263">
        <ele>250.19999694824</ele>
        <time>2017-07-18T14:43:53Z</time>
      </trkpt>
      <trkpt lat="47.83118" lon="5.80265">
        <ele>250.60000610352</ele>
        <time>2017-07-18T14:43:54Z</time>
      </trkpt>
      <trkpt lat="47.83104" lon="5.80277">
        <ele>251.39999389648</ele>
        <time>2017-07-18T14:44:00Z</time>
      </trkpt>
      <trkpt lat="47.83099" lon="5.80281">
        <ele>251.60000610352</ele>
        <time>2017-07-18T14:44:02Z</time>
      </trkpt>
      <trkpt lat="47.83087" lon="5.8029">
        <ele>252.19999694824</ele>
        <time>2017-07-18T14:44:07Z</time>
      </trkpt>
      <trkpt lat="47.83085" lon="5.80293">
        <ele>252.19999694824</ele>
        <time>2017-07-18T14:44:08Z</time>
      </trkpt>
      <trkpt lat="47.83078" lon="5.803">
        <ele>252.60000610352</ele>
        <time>2017-07-18T14:44:11Z</time>
      </trkpt>
      <trkpt lat="47.83064" lon="5.80318">
        <ele>253.80000305176</ele>
        <time>2017-07-18T14:44:18Z</time>
      </trkpt>
      <trkpt lat="47.8305" lon="5.80337">
        <ele>254.60000610352</ele>
        <time>2017-07-18T14:44:25Z</time>
      </trkpt>
      <trkpt lat="47.83047" lon="5.80343">
        <ele>255</ele>
        <time>2017-07-18T14:44:27Z</time>
      </trkpt>
      <trkpt lat="47.83036" lon="5.80363">
        <ele>255.60000610352</ele>
        <time>2017-07-18T14:44:34Z</time>
      </trkpt>
      <trkpt lat="47.83031" lon="5.80372">
        <ele>256</ele>
        <time>2017-07-18T14:44:37Z</time>
      </trkpt>
      <trkpt lat="47.83022" lon="5.80395">
        <ele>257</ele>
        <time>2017-07-18T14:44:44Z</time>
      </trkpt>
      <trkpt lat="47.83008" lon="5.80421">
        <ele>257.79998779297</ele>
        <time>2017-07-18T14:44:53Z</time>
      </trkpt>
      <trkpt lat="47.83005" lon="5.80427">
        <ele>258</ele>
        <time>2017-07-18T14:44:55Z</time>
      </trkpt>
      <trkpt lat="47.82996" lon="5.8044">
        <ele>259</ele>
        <time>2017-07-18T14:45:00Z</time>
      </trkpt>
      <trkpt lat="47.82992" lon="5.80444">
        <ele>259.20001220703</ele>
        <time>2017-07-18T14:45:02Z</time>
      </trkpt>
      <trkpt lat="47.82981" lon="5.80454">
        <ele>260</ele>
        <time>2017-07-18T14:45:07Z</time>
      </trkpt>
      <trkpt lat="47.82977" lon="5.80458">
        <ele>260.20001220703</ele>
        <time>2017-07-18T14:45:09Z</time>
      </trkpt>
      <trkpt lat="47.82966" lon="5.80468">
        <ele>260.79998779297</ele>
        <time>2017-07-18T14:45:14Z</time>
      </trkpt>
      <trkpt lat="47.82958" lon="5.80475">
        <ele>261.39999389648</ele>
        <time>2017-07-18T14:45:18Z</time>
      </trkpt>
      <trkpt lat="47.82951" lon="5.80481">
        <ele>261.79998779297</ele>
        <time>2017-07-18T14:45:21Z</time>
      </trkpt>
      <trkpt lat="47.82937" lon="5.80495">
        <ele>262.39999389648</ele>
        <time>2017-07-18T14:45:27Z</time>
      </trkpt>
      <trkpt lat="47.82935" lon="5.80497">
        <ele>262.39999389648</ele>
        <time>2017-07-18T14:45:28Z</time>
      </trkpt>
      <trkpt lat="47.82924" lon="5.80516">
        <ele>263.60000610352</ele>
        <time>2017-07-18T14:45:34Z</time>
      </trkpt>
      <trkpt lat="47.82922" lon="5.80519">
        <ele>263.60000610352</ele>
        <time>2017-07-18T14:45:35Z</time>
      </trkpt>
      <trkpt lat="47.82911" lon="5.80549">
        <ele>264.60000610352</ele>
        <time>2017-07-18T14:45:43Z</time>
      </trkpt>
      <trkpt lat="47.82907" lon="5.80577">
        <ele>265.60000610352</ele>
        <time>2017-07-18T14:45:50Z</time>
      </trkpt>
      <trkpt lat="47.82906" lon="5.80584">
        <ele>266</ele>
        <time>2017-07-18T14:45:52Z</time>
      </trkpt>
      <trkpt lat="47.82907" lon="5.80599">
        <ele>266.79998779297</ele>
        <time>2017-07-18T14:45:56Z</time>
      </trkpt>
      <trkpt lat="47.82909" lon="5.80614">
        <ele>267.20001220703</ele>
        <time>2017-07-18T14:46:00Z</time>
      </trkpt>
      <trkpt lat="47.8291" lon="5.8063">
        <ele>267.79998779297</ele>
        <time>2017-07-18T14:46:04Z</time>
      </trkpt>
      <trkpt lat="47.82912" lon="5.80642">
        <ele>268.20001220703</ele>
        <time>2017-07-18T14:46:07Z</time>
      </trkpt>
      <trkpt lat="47.82918" lon="5.80661">
        <ele>268.79998779297</ele>
        <time>2017-07-18T14:46:12Z</time>
      </trkpt>
      <trkpt lat="47.82919" lon="5.80664">
        <ele>268.79998779297</ele>
        <time>2017-07-18T14:46:13Z</time>
      </trkpt>
      <trkpt lat="47.82921" lon="5.80672">
        <ele>269.20001220703</ele>
        <time>2017-07-18T14:46:15Z</time>
      </trkpt>
      <trkpt lat="47.82927" lon="5.80685">
        <ele>270</ele>
        <time>2017-07-18T14:46:19Z</time>
      </trkpt>
      <trkpt lat="47.82932" lon="5.80695">
        <ele>270.39999389648</ele>
        <time>2017-07-18T14:46:22Z</time>
      </trkpt>
      <trkpt lat="47.82944" lon="5.80716">
        <ele>271</ele>
        <time>2017-07-18T14:46:29Z</time>
      </trkpt>
      <trkpt lat="47.82949" lon="5.80725">
        <ele>271.39999389648</ele>
        <time>2017-07-18T14:46:32Z</time>
      </trkpt>
      <trkpt lat="47.82964" lon="5.80742">
        <ele>272.20001220703</ele>
        <time>2017-07-18T14:46:39Z</time>
      </trkpt>
      <trkpt lat="47.8298" lon="5.80756">
        <ele>273.20001220703</ele>
        <time>2017-07-18T14:46:46Z</time>
      </trkpt>
      <trkpt lat="47.82996" lon="5.80764">
        <ele>274</ele>
        <time>2017-07-18T14:46:52Z</time>
      </trkpt>
      <trkpt lat="47.83002" lon="5.80766">
        <ele>274.20001220703</ele>
        <time>2017-07-18T14:46:54Z</time>
      </trkpt>
      <trkpt lat="47.83015" lon="5.80769">
        <ele>275</ele>
        <time>2017-07-18T14:46:59Z</time>
      </trkpt>
      <trkpt lat="47.83028" lon="5.80773">
        <ele>275.39999389648</ele>
        <time>2017-07-18T14:47:04Z</time>
      </trkpt>
      <trkpt lat="47.83038" lon="5.80775">
        <ele>276</ele>
        <time>2017-07-18T14:47:08Z</time>
      </trkpt>
      <trkpt lat="47.83048" lon="5.80778">
        <ele>276.60000610352</ele>
        <time>2017-07-18T14:47:12Z</time>
      </trkpt>
      <trkpt lat="47.83053" lon="5.80781">
        <ele>276.79998779297</ele>
        <time>2017-07-18T14:47:14Z</time>
      </trkpt>
      <trkpt lat="47.83072" lon="5.80786">
        <ele>277.60000610352</ele>
        <time>2017-07-18T14:47:21Z</time>
      </trkpt>
      <trkpt lat="47.83078" lon="5.80787">
        <ele>278</ele>
        <time>2017-07-18T14:47:23Z</time>
      </trkpt>
      <trkpt lat="47.83095" lon="5.80791">
        <ele>278.60000610352</ele>
        <time>2017-07-18T14:47:29Z</time>
      </trkpt>
      <trkpt lat="47.83097" lon="5.80792">
        <ele>278.79998779297</ele>
        <time>2017-07-18T14:47:30Z</time>
      </trkpt>
      <trkpt lat="47.83114" lon="5.80795">
        <ele>279.79998779297</ele>
        <time>2017-07-18T14:47:36Z</time>
      </trkpt>
      <trkpt lat="47.83122" lon="5.80797">
        <ele>280.20001220703</ele>
        <time>2017-07-18T14:47:39Z</time>
      </trkpt>
      <trkpt lat="47.83135" lon="5.80801">
        <ele>280.79998779297</ele>
        <time>2017-07-18T14:47:44Z</time>
      </trkpt>
      <trkpt lat="47.83141" lon="5.80802">
        <ele>281</ele>
        <time>2017-07-18T14:47:46Z</time>
      </trkpt>
      <trkpt lat="47.83161" lon="5.80807">
        <ele>281.79998779297</ele>
        <time>2017-07-18T14:47:53Z</time>
      </trkpt>
      <trkpt lat="47.83179" lon="5.80812">
        <ele>282.79998779297</ele>
        <time>2017-07-18T14:47:59Z</time>
      </trkpt>
      <trkpt lat="47.83182" lon="5.80812">
        <ele>283</ele>
        <time>2017-07-18T14:48:00Z</time>
      </trkpt>
      <trkpt lat="47.83202" lon="5.80819">
        <ele>283.79998779297</ele>
        <time>2017-07-18T14:48:07Z</time>
      </trkpt>
      <trkpt lat="47.83205" lon="5.80819">
        <ele>284</ele>
        <time>2017-07-18T14:48:08Z</time>
      </trkpt>
      <trkpt lat="47.83228" lon="5.80825">
        <ele>285.20001220703</ele>
        <time>2017-07-18T14:48:16Z</time>
      </trkpt>
      <trkpt lat="47.83251" lon="5.8083">
        <ele>286.20001220703</ele>
        <time>2017-07-18T14:48:24Z</time>
      </trkpt>
      <trkpt lat="47.83255" lon="5.80831">
        <ele>286.39999389648</ele>
        <time>2017-07-18T14:48:25Z</time>
      </trkpt>
      <trkpt lat="47.83276" lon="5.80839">
        <ele>287.20001220703</ele>
        <time>2017-07-18T14:48:32Z</time>
      </trkpt>
      <trkpt lat="47.83298" lon="5.80844">
        <ele>288.20001220703</ele>
        <time>2017-07-18T14:48:39Z</time>
      </trkpt>
      <trkpt lat="47.83301" lon="5.80845">
        <ele>288.39999389648</ele>
        <time>2017-07-18T14:48:40Z</time>
      </trkpt>
      <trkpt lat="47.83322" lon="5.80849">
        <ele>289.39999389648</ele>
        <time>2017-07-18T14:48:47Z</time>
      </trkpt>
      <trkpt lat="47.83345" lon="5.80856">
        <ele>290.60000610352</ele>
        <time>2017-07-18T14:48:55Z</time>
      </trkpt>
      <trkpt lat="47.83366" lon="5.80862">
        <ele>291.60000610352</ele>
        <time>2017-07-18T14:49:02Z</time>
      </trkpt>
      <trkpt lat="47.83387" lon="5.80867">
        <ele>292.60000610352</ele>
        <time>2017-07-18T14:49:09Z</time>
      </trkpt>
      <trkpt lat="47.8339" lon="5.80868">
        <ele>292.79998779297</ele>
        <time>2017-07-18T14:49:10Z</time>
      </trkpt>
      <trkpt lat="47.83409" lon="5.80872">
        <ele>293.79998779297</ele>
        <time>2017-07-18T14:49:16Z</time>
      </trkpt>
      <trkpt lat="47.83415" lon="5.80874">
        <ele>294</ele>
        <time>2017-07-18T14:49:18Z</time>
      </trkpt>
      <trkpt lat="47.83437" lon="5.8088">
        <ele>294.79998779297</ele>
        <time>2017-07-18T14:49:25Z</time>
      </trkpt>
      <trkpt lat="47.83465" lon="5.80887">
        <ele>295.60000610352</ele>
        <time>2017-07-18T14:49:33Z</time>
      </trkpt>
      <trkpt lat="47.83469" lon="5.80888">
        <ele>295.79998779297</ele>
        <time>2017-07-18T14:49:34Z</time>
      </trkpt>
      <trkpt lat="47.835" lon="5.80895">
        <ele>296</ele>
        <time>2017-07-18T14:49:42Z</time>
      </trkpt>
      <trkpt lat="47.8353" lon="5.80904">
        <ele>296.20001220703</ele>
        <time>2017-07-18T14:49:49Z</time>
      </trkpt>
      <trkpt lat="47.8357" lon="5.80917">
        <ele>296.20001220703</ele>
        <time>2017-07-18T14:49:58Z</time>
      </trkpt>
      <trkpt lat="47.8358" lon="5.80921">
        <ele>296.39999389648</ele>
        <time>2017-07-18T14:50:00Z</time>
      </trkpt>
      <trkpt lat="47.83591" lon="5.80932">
        <ele>296.39999389648</ele>
        <time>2017-07-18T14:50:03Z</time>
      </trkpt>
      <trkpt lat="47.83599" lon="5.8095">
        <ele>296.79998779297</ele>
        <time>2017-07-18T14:50:06Z</time>
      </trkpt>
      <trkpt lat="47.83601" lon="5.80956">
        <ele>296.79998779297</ele>
        <time>2017-07-18T14:50:07Z</time>
      </trkpt>
      <trkpt lat="47.83604" lon="5.80969">
        <ele>296.79998779297</ele>
        <time>2017-07-18T14:50:09Z</time>
      </trkpt>
      <trkpt lat="47.83611" lon="5.81002">
        <ele>297.20001220703</ele>
        <time>2017-07-18T14:50:14Z</time>
      </trkpt>
      <trkpt lat="47.83624" lon="5.81055">
        <ele>297.20001220703</ele>
        <time>2017-07-18T14:50:22Z</time>
      </trkpt>
      <trkpt lat="47.83639" lon="5.81114">
        <ele>297.39999389648</ele>
        <time>2017-07-18T14:50:31Z</time>
      </trkpt>
      <trkpt lat="47.83644" lon="5.81132">
        <ele>297.79998779297</ele>
        <time>2017-07-18T14:50:34Z</time>
      </trkpt>
      <trkpt lat="47.8365" lon="5.81152">
        <ele>298</ele>
        <time>2017-07-18T14:50:37Z</time>
      </trkpt>
      <trkpt lat="47.83655" lon="5.81164">
        <ele>298</ele>
        <time>2017-07-18T14:50:39Z</time>
      </trkpt>
      <trkpt lat="47.83675" lon="5.81205">
        <ele>298.20001220703</ele>
        <time>2017-07-18T14:50:46Z</time>
      </trkpt>
      <trkpt lat="47.83696" lon="5.81246">
        <ele>298.39999389648</ele>
        <time>2017-07-18T14:50:53Z</time>
      </trkpt>
      <trkpt lat="47.83722" lon="5.81298">
        <ele>298.79998779297</ele>
        <time>2017-07-18T14:51:02Z</time>
      </trkpt>
      <trkpt lat="47.83747" lon="5.81347">
        <ele>299.39999389648</ele>
        <time>2017-07-18T14:51:11Z</time>
      </trkpt>
      <trkpt lat="47.8375" lon="5.81352">
        <ele>299.39999389648</ele>
        <time>2017-07-18T14:51:12Z</time>
      </trkpt>
      <trkpt lat="47.83762" lon="5.81373">
        <ele>299.79998779297</ele>
        <time>2017-07-18T14:51:16Z</time>
      </trkpt>
      <trkpt lat="47.83769" lon="5.81388">
        <ele>300</ele>
        <time>2017-07-18T14:51:19Z</time>
      </trkpt>
      <trkpt lat="47.83787" lon="5.81426">
        <ele>300.79998779297</ele>
        <time>2017-07-18T14:51:26Z</time>
      </trkpt>
      <trkpt lat="47.83789" lon="5.81433">
        <ele>301</ele>
        <time>2017-07-18T14:51:27Z</time>
      </trkpt>
      <trkpt lat="47.838" lon="5.81464">
        <ele>301.79998779297</ele>
        <time>2017-07-18T14:51:32Z</time>
      </trkpt>
      <trkpt lat="47.83802" lon="5.81471">
        <ele>302</ele>
        <time>2017-07-18T14:51:33Z</time>
      </trkpt>
      <trkpt lat="47.83816" lon="5.81514">
        <ele>302.39999389648</ele>
        <time>2017-07-18T14:51:40Z</time>
      </trkpt>
      <trkpt lat="47.83832" lon="5.81566">
        <ele>302.60000610352</ele>
        <time>2017-07-18T14:51:48Z</time>
      </trkpt>
      <trkpt lat="47.83852" lon="5.81623">
        <ele>302.60000610352</ele>
        <time>2017-07-18T14:51:56Z</time>
      </trkpt>
      <trkpt lat="47.83855" lon="5.81631">
        <ele>302.60000610352</ele>
        <time>2017-07-18T14:51:57Z</time>
      </trkpt>
      <trkpt lat="47.83878" lon="5.81705">
        <ele>301.60000610352</ele>
        <time>2017-07-18T14:52:06Z</time>
      </trkpt>
      <trkpt lat="47.83898" lon="5.81761">
        <ele>301.60000610352</ele>
        <time>2017-07-18T14:52:13Z</time>
      </trkpt>
      <trkpt lat="47.83918" lon="5.81817">
        <ele>301.60000610352</ele>
        <time>2017-07-18T14:52:21Z</time>
      </trkpt>
      <trkpt lat="47.83941" lon="5.81876">
        <ele>302.60000610352</ele>
        <time>2017-07-18T14:52:30Z</time>
      </trkpt>
      <trkpt lat="47.83946" lon="5.81889">
        <ele>302.79998779297</ele>
        <time>2017-07-18T14:52:32Z</time>
      </trkpt>
      <trkpt lat="47.83952" lon="5.81903">
        <ele>303</ele>
        <time>2017-07-18T14:52:34Z</time>
      </trkpt>
      <trkpt lat="47.8397" lon="5.81948">
        <ele>303.39999389648</ele>
        <time>2017-07-18T14:52:41Z</time>
      </trkpt>
      <trkpt lat="47.83991" lon="5.82002">
        <ele>304</ele>
        <time>2017-07-18T14:52:49Z</time>
      </trkpt>
      <trkpt lat="47.83993" lon="5.82009">
        <ele>304</ele>
        <time>2017-07-18T14:52:50Z</time>
      </trkpt>
      <trkpt lat="47.8401" lon="5.8205">
        <ele>304.20001220703</ele>
        <time>2017-07-18T14:52:57Z</time>
      </trkpt>
      <trkpt lat="47.84022" lon="5.82086">
        <ele>304.39999389648</ele>
        <time>2017-07-18T14:53:04Z</time>
      </trkpt>
      <trkpt lat="47.84023" lon="5.82091">
        <ele>304.39999389648</ele>
        <time>2017-07-18T14:53:05Z</time>
      </trkpt>
      <trkpt lat="47.8403" lon="5.82114">
        <ele>305</ele>
        <time>2017-07-18T14:53:09Z</time>
      </trkpt>
      <trkpt lat="47.84032" lon="5.8212">
        <ele>305</ele>
        <time>2017-07-18T14:53:10Z</time>
      </trkpt>
      <trkpt lat="47.84034" lon="5.82132">
        <ele>305</ele>
        <time>2017-07-18T14:53:12Z</time>
      </trkpt>
      <trkpt lat="47.84039" lon="5.82151">
        <ele>305</ele>
        <time>2017-07-18T14:53:15Z</time>
      </trkpt>
      <trkpt lat="47.8405" lon="5.82192">
        <ele>305</ele>
        <time>2017-07-18T14:53:21Z</time>
      </trkpt>
      <trkpt lat="47.84056" lon="5.82245">
        <ele>304.39999389648</ele>
        <time>2017-07-18T14:53:27Z</time>
      </trkpt>
      <trkpt lat="47.84059" lon="5.82274">
        <ele>303.79998779297</ele>
        <time>2017-07-18T14:53:30Z</time>
      </trkpt>
      <trkpt lat="47.84062" lon="5.82304">
        <ele>302.79998779297</ele>
        <time>2017-07-18T14:53:33Z</time>
      </trkpt>
      <trkpt lat="47.84065" lon="5.82337">
        <ele>301.60000610352</ele>
        <time>2017-07-18T14:53:37Z</time>
      </trkpt>
      <trkpt lat="47.84066" lon="5.82354">
        <ele>300.20001220703</ele>
        <time>2017-07-18T14:53:41Z</time>
      </trkpt>
      <trkpt lat="47.84067" lon="5.82362">
        <ele>298.79998779297</ele>
        <time>2017-07-18T14:54:14Z</time>
      </trkpt>
      <trkpt lat="47.84067" lon="5.82366">
        <ele>298.60000610352</ele>
        <time>2017-07-18T14:54:15Z</time>
      </trkpt>
      <trkpt lat="47.8407" lon="5.82387">
        <ele>298.60000610352</ele>
        <time>2017-07-18T14:54:19Z</time>
      </trkpt>
      <trkpt lat="47.8407" lon="5.82394">
        <ele>298.39999389648</ele>
        <time>2017-07-18T14:54:20Z</time>
      </trkpt>
      <trkpt lat="47.84074" lon="5.82419">
        <ele>298</ele>
        <time>2017-07-18T14:54:23Z</time>
      </trkpt>
      <trkpt lat="47.84078" lon="5.82436">
        <ele>297.60000610352</ele>
        <time>2017-07-18T14:54:25Z</time>
      </trkpt>
      <trkpt lat="47.84084" lon="5.8248">
        <ele>297.20001220703</ele>
        <time>2017-07-18T14:54:30Z</time>
      </trkpt>
      <trkpt lat="47.84088" lon="5.82508">
        <ele>296.39999389648</ele>
        <time>2017-07-18T14:54:33Z</time>
      </trkpt>
      <trkpt lat="47.84089" lon="5.82517">
        <ele>296.20001220703</ele>
        <time>2017-07-18T14:54:34Z</time>
      </trkpt>
      <trkpt lat="47.84093" lon="5.82547">
        <ele>295.20001220703</ele>
        <time>2017-07-18T14:54:37Z</time>
      </trkpt>
      <trkpt lat="47.84104" lon="5.82614">
        <ele>294</ele>
        <time>2017-07-18T14:54:43Z</time>
      </trkpt>
      <trkpt lat="47.84105" lon="5.82626">
        <ele>293.20001220703</ele>
        <time>2017-07-18T14:54:44Z</time>
      </trkpt>
      <trkpt lat="47.84107" lon="5.82638">
        <ele>293</ele>
        <time>2017-07-18T14:54:45Z</time>
      </trkpt>
      <trkpt lat="47.84113" lon="5.82676">
        <ele>291.79998779297</ele>
        <time>2017-07-18T14:54:48Z</time>
      </trkpt>
      <trkpt lat="47.84118" lon="5.82715">
        <ele>290.79998779297</ele>
        <time>2017-07-18T14:54:51Z</time>
      </trkpt>
      <trkpt lat="47.84122" lon="5.82752">
        <ele>289.60000610352</ele>
        <time>2017-07-18T14:54:54Z</time>
      </trkpt>
      <trkpt lat="47.84129" lon="5.82802">
        <ele>288.39999389648</ele>
        <time>2017-07-18T14:54:58Z</time>
      </trkpt>
      <trkpt lat="47.84131" lon="5.82814">
        <ele>288</ele>
        <time>2017-07-18T14:54:59Z</time>
      </trkpt>
      <trkpt lat="47.84136" lon="5.8285">
        <ele>287</ele>
        <time>2017-07-18T14:55:02Z</time>
      </trkpt>
      <trkpt lat="47.84142" lon="5.82887">
        <ele>285.79998779297</ele>
        <time>2017-07-18T14:55:05Z</time>
      </trkpt>
      <trkpt lat="47.84144" lon="5.829">
        <ele>285.60000610352</ele>
        <time>2017-07-18T14:55:06Z</time>
      </trkpt>
      <trkpt lat="47.84148" lon="5.82925">
        <ele>284.79998779297</ele>
        <time>2017-07-18T14:55:08Z</time>
      </trkpt>
      <trkpt lat="47.84157" lon="5.82975">
        <ele>283.60000610352</ele>
        <time>2017-07-18T14:55:12Z</time>
      </trkpt>
      <trkpt lat="47.84161" lon="5.82998">
        <ele>283.20001220703</ele>
        <time>2017-07-18T14:55:14Z</time>
      </trkpt>
      <trkpt lat="47.84173" lon="5.83075">
        <ele>283</ele>
        <time>2017-07-18T14:55:21Z</time>
      </trkpt>
      <trkpt lat="47.84181" lon="5.83131">
        <ele>283</ele>
        <time>2017-07-18T14:55:27Z</time>
      </trkpt>
      <trkpt lat="47.84193" lon="5.83212">
        <ele>282.79998779297</ele>
        <time>2017-07-18T14:55:36Z</time>
      </trkpt>
      <trkpt lat="47.84194" lon="5.83221">
        <ele>282.79998779297</ele>
        <time>2017-07-18T14:55:37Z</time>
      </trkpt>
      <trkpt lat="47.84205" lon="5.83303">
        <ele>283.20001220703</ele>
        <time>2017-07-18T14:55:47Z</time>
      </trkpt>
      <trkpt lat="47.84212" lon="5.83355">
        <ele>283.60000610352</ele>
        <time>2017-07-18T14:55:54Z</time>
      </trkpt>
      <trkpt lat="47.84221" lon="5.83419">
        <ele>284</ele>
        <time>2017-07-18T14:56:03Z</time>
      </trkpt>
      <trkpt lat="47.84231" lon="5.83485">
        <ele>284.39999389648</ele>
        <time>2017-07-18T14:56:12Z</time>
      </trkpt>
      <trkpt lat="47.8424" lon="5.83554">
        <ele>283.79998779297</ele>
        <time>2017-07-18T14:56:20Z</time>
      </trkpt>
      <trkpt lat="47.84242" lon="5.83573">
        <ele>283.60000610352</ele>
        <time>2017-07-18T14:56:22Z</time>
      </trkpt>
      <trkpt lat="47.84244" lon="5.83614">
        <ele>282.60000610352</ele>
        <time>2017-07-18T14:56:26Z</time>
      </trkpt>
      <trkpt lat="47.84244" lon="5.83625">
        <ele>282.39999389648</ele>
        <time>2017-07-18T14:56:27Z</time>
      </trkpt>
      <trkpt lat="47.84238" lon="5.83676">
        <ele>281.39999389648</ele>
        <time>2017-07-18T14:56:32Z</time>
      </trkpt>
      <trkpt lat="47.84235" lon="5.83696">
        <ele>281.20001220703</ele>
        <time>2017-07-18T14:56:34Z</time>
      </trkpt>
      <trkpt lat="47.84233" lon="5.83736">
        <ele>280.79998779297</ele>
        <time>2017-07-18T14:56:38Z</time>
      </trkpt>
      <trkpt lat="47.84231" lon="5.83755">
        <ele>280.60000610352</ele>
        <time>2017-07-18T14:56:40Z</time>
      </trkpt>
      <trkpt lat="47.84231" lon="5.83805">
        <ele>280.39999389648</ele>
        <time>2017-07-18T14:56:45Z</time>
      </trkpt>
      <trkpt lat="47.84231" lon="5.83816">
        <ele>280.20001220703</ele>
        <time>2017-07-18T14:56:46Z</time>
      </trkpt>
      <trkpt lat="47.84238" lon="5.83861">
        <ele>279</ele>
        <time>2017-07-18T14:56:50Z</time>
      </trkpt>
      <trkpt lat="47.84246" lon="5.83898">
        <ele>277.79998779297</ele>
        <time>2017-07-18T14:56:53Z</time>
      </trkpt>
      <trkpt lat="47.8425" lon="5.83924">
        <ele>277.20001220703</ele>
        <time>2017-07-18T14:56:55Z</time>
      </trkpt>
      <trkpt lat="47.84251" lon="5.83937">
        <ele>276.79998779297</ele>
        <time>2017-07-18T14:56:56Z</time>
      </trkpt>
      <trkpt lat="47.84251" lon="5.83978">
        <ele>275.60000610352</ele>
        <time>2017-07-18T14:56:59Z</time>
      </trkpt>
      <trkpt lat="47.84251" lon="5.84021">
        <ele>274.39999389648</ele>
        <time>2017-07-18T14:57:02Z</time>
      </trkpt>
      <trkpt lat="47.84252" lon="5.84065">
        <ele>273.20001220703</ele>
        <time>2017-07-18T14:57:05Z</time>
      </trkpt>
      <trkpt lat="47.84254" lon="5.84096">
        <ele>272.20001220703</ele>
        <time>2017-07-18T14:57:07Z</time>
      </trkpt>
      <trkpt lat="47.84255" lon="5.84112">
        <ele>271</ele>
        <time>2017-07-18T14:57:08Z</time>
      </trkpt>
      <trkpt lat="47.84258" lon="5.84142">
        <ele>269.60000610352</ele>
        <time>2017-07-18T14:57:10Z</time>
      </trkpt>
      <trkpt lat="47.8426" lon="5.84172">
        <ele>268.60000610352</ele>
        <time>2017-07-18T14:57:12Z</time>
      </trkpt>
      <trkpt lat="47.84262" lon="5.84187">
        <ele>268.20001220703</ele>
        <time>2017-07-18T14:57:13Z</time>
      </trkpt>
      <trkpt lat="47.84264" lon="5.84216">
        <ele>267.20001220703</ele>
        <time>2017-07-18T14:57:15Z</time>
      </trkpt>
      <trkpt lat="47.84267" lon="5.84259">
        <ele>266</ele>
        <time>2017-07-18T14:57:18Z</time>
      </trkpt>
      <trkpt lat="47.84269" lon="5.84302">
        <ele>265.20001220703</ele>
        <time>2017-07-18T14:57:21Z</time>
      </trkpt>
      <trkpt lat="47.8427" lon="5.84316">
        <ele>264.79998779297</ele>
        <time>2017-07-18T14:57:22Z</time>
      </trkpt>
      <trkpt lat="47.84271" lon="5.84375">
        <ele>263.60000610352</ele>
        <time>2017-07-18T14:57:26Z</time>
      </trkpt>
      <trkpt lat="47.84271" lon="5.84404">
        <ele>263</ele>
        <time>2017-07-18T14:57:28Z</time>
      </trkpt>
      <trkpt lat="47.84271" lon="5.84418">
        <ele>262.60000610352</ele>
        <time>2017-07-18T14:57:29Z</time>
      </trkpt>
      <trkpt lat="47.8427" lon="5.84462">
        <ele>260.39999389648</ele>
        <time>2017-07-18T14:57:32Z</time>
      </trkpt>
      <trkpt lat="47.8427" lon="5.84505">
        <ele>259.20001220703</ele>
        <time>2017-07-18T14:57:35Z</time>
      </trkpt>
      <trkpt lat="47.8427" lon="5.84548">
        <ele>257.79998779297</ele>
        <time>2017-07-18T14:57:38Z</time>
      </trkpt>
      <trkpt lat="47.84269" lon="5.84591">
        <ele>256.39999389648</ele>
        <time>2017-07-18T14:57:41Z</time>
      </trkpt>
      <trkpt lat="47.84269" lon="5.84632">
        <ele>255.39999389648</ele>
        <time>2017-07-18T14:57:44Z</time>
      </trkpt>
      <trkpt lat="47.84269" lon="5.84672">
        <ele>254.39999389648</ele>
        <time>2017-07-18T14:57:47Z</time>
      </trkpt>
      <trkpt lat="47.84269" lon="5.84685">
        <ele>254</ele>
        <time>2017-07-18T14:57:48Z</time>
      </trkpt>
      <trkpt lat="47.84269" lon="5.84724">
        <ele>253.19999694824</ele>
        <time>2017-07-18T14:57:51Z</time>
      </trkpt>
      <trkpt lat="47.84269" lon="5.84762">
        <ele>252.19999694824</ele>
        <time>2017-07-18T14:57:54Z</time>
      </trkpt>
      <trkpt lat="47.84269" lon="5.84775">
        <ele>251.80000305176</ele>
        <time>2017-07-18T14:57:55Z</time>
      </trkpt>
      <trkpt lat="47.84268" lon="5.84801">
        <ele>250.60000610352</ele>
        <time>2017-07-18T14:57:57Z</time>
      </trkpt>
      <trkpt lat="47.84268" lon="5.84837">
        <ele>249.60000610352</ele>
        <time>2017-07-18T14:58:00Z</time>
      </trkpt>
      <trkpt lat="47.84265" lon="5.84873">
        <ele>248.80000305176</ele>
        <time>2017-07-18T14:58:03Z</time>
      </trkpt>
      <trkpt lat="47.84264" lon="5.84884">
        <ele>248.39999389648</ele>
        <time>2017-07-18T14:58:04Z</time>
      </trkpt>
      <trkpt lat="47.84254" lon="5.84928">
        <ele>247.39999389648</ele>
        <time>2017-07-18T14:58:08Z</time>
      </trkpt>
      <trkpt lat="47.84236" lon="5.84966">
        <ele>246</ele>
        <time>2017-07-18T14:58:12Z</time>
      </trkpt>
      <trkpt lat="47.84225" lon="5.84982">
        <ele>245.60000610352</ele>
        <time>2017-07-18T14:58:14Z</time>
      </trkpt>
      <trkpt lat="47.84208" lon="5.85003">
        <ele>245</ele>
        <time>2017-07-18T14:58:17Z</time>
      </trkpt>
      <trkpt lat="47.84179" lon="5.85035">
        <ele>243.80000305176</ele>
        <time>2017-07-18T14:58:22Z</time>
      </trkpt>
      <trkpt lat="47.84168" lon="5.85048">
        <ele>243.60000610352</ele>
        <time>2017-07-18T14:58:24Z</time>
      </trkpt>
      <trkpt lat="47.84132" lon="5.85088">
        <ele>243.19999694824</ele>
        <time>2017-07-18T14:58:31Z</time>
      </trkpt>
      <trkpt lat="47.84115" lon="5.85109">
        <ele>243.80000305176</ele>
        <time>2017-07-18T14:58:36Z</time>
      </trkpt>
      <trkpt lat="47.841" lon="5.85127">
        <ele>245.19999694824</ele>
        <time>2017-07-18T14:58:42Z</time>
      </trkpt>
      <trkpt lat="47.84098" lon="5.85131">
        <ele>245.39999389648</ele>
        <time>2017-07-18T14:58:43Z</time>
      </trkpt>
      <trkpt lat="47.84091" lon="5.85148">
        <ele>246.19999694824</ele>
        <time>2017-07-18T14:58:47Z</time>
      </trkpt>
      <trkpt lat="47.84088" lon="5.85159">
        <ele>246.39999389648</ele>
        <time>2017-07-18T14:58:49Z</time>
      </trkpt>
      <trkpt lat="47.84088" lon="5.85165">
        <ele>246.39999389648</ele>
        <time>2017-07-18T14:58:50Z</time>
      </trkpt>
      <trkpt lat="47.84091" lon="5.85193">
        <ele>246.39999389648</ele>
        <time>2017-07-18T14:58:54Z</time>
      </trkpt>
      <trkpt lat="47.84092" lon="5.852">
        <ele>246.39999389648</ele>
        <time>2017-07-18T14:58:55Z</time>
      </trkpt>
      <trkpt lat="47.84101" lon="5.85241">
        <ele>245.39999389648</ele>
        <time>2017-07-18T14:59:00Z</time>
      </trkpt>
      <trkpt lat="47.84107" lon="5.85257">
        <ele>245</ele>
        <time>2017-07-18T14:59:02Z</time>
      </trkpt>
      <trkpt lat="47.84117" lon="5.85278">
        <ele>244.60000610352</ele>
        <time>2017-07-18T14:59:05Z</time>
      </trkpt>
      <trkpt lat="47.84123" lon="5.85294">
        <ele>244</ele>
        <time>2017-07-18T14:59:08Z</time>
      </trkpt>
      <trkpt lat="47.84125" lon="5.85298">
        <ele>243.60000610352</ele>
        <time>2017-07-18T14:59:09Z</time>
      </trkpt>
      <trkpt lat="47.84129" lon="5.85306">
        <ele>243</ele>
        <time>2017-07-18T14:59:11Z</time>
      </trkpt>
      <trkpt lat="47.84133" lon="5.85322">
        <ele>241.80000305176</ele>
        <time>2017-07-18T14:59:16Z</time>
      </trkpt>
      <trkpt lat="47.84131" lon="5.85326">
        <ele>241.19999694824</ele>
        <time>2017-07-18T14:59:19Z</time>
      </trkpt>
      <trkpt lat="47.84128" lon="5.85327">
        <ele>240.80000305176</ele>
        <time>2017-07-18T14:59:21Z</time>
      </trkpt>
      <trkpt lat="47.84137" lon="5.85324">
        <ele>240.39999389648</ele>
        <time>2017-07-18T15:02:49Z</time>
      </trkpt>
      <trkpt lat="47.84138" lon="5.85326">
        <ele>240.39999389648</ele>
        <time>2017-07-18T15:02:50Z</time>
      </trkpt>
      <trkpt lat="47.84143" lon="5.8534">
        <ele>240</ele>
        <time>2017-07-18T15:02:53Z</time>
      </trkpt>
      <trkpt lat="47.84145" lon="5.85346">
        <ele>239.80000305176</ele>
        <time>2017-07-18T15:02:54Z</time>
      </trkpt>
      <trkpt lat="47.84147" lon="5.85352">
        <ele>239.80000305176</ele>
        <time>2017-07-18T15:02:55Z</time>
      </trkpt>
      <trkpt lat="47.84155" lon="5.85368">
        <ele>239.19999694824</ele>
        <time>2017-07-18T15:02:58Z</time>
      </trkpt>
      <trkpt lat="47.84157" lon="5.85375">
        <ele>239</ele>
        <time>2017-07-18T15:02:59Z</time>
      </trkpt>
      <trkpt lat="47.84159" lon="5.85382">
        <ele>238.60000610352</ele>
        <time>2017-07-18T15:03:00Z</time>
      </trkpt>
      <trkpt lat="47.84168" lon="5.85403">
        <ele>237.60000610352</ele>
        <time>2017-07-18T15:03:03Z</time>
      </trkpt>
      <trkpt lat="47.84172" lon="5.85411">
        <ele>237.19999694824</ele>
        <time>2017-07-18T15:03:04Z</time>
      </trkpt>
      <trkpt lat="47.84181" lon="5.85427">
        <ele>236.39999389648</ele>
        <time>2017-07-18T15:03:06Z</time>
      </trkpt>
      <trkpt lat="47.84187" lon="5.85433">
        <ele>235.80000305176</ele>
        <time>2017-07-18T15:03:07Z</time>
      </trkpt>
      <trkpt lat="47.842" lon="5.85443">
        <ele>234.60000610352</ele>
        <time>2017-07-18T15:03:09Z</time>
      </trkpt>
      <trkpt lat="47.84206" lon="5.85447">
        <ele>234.19999694824</ele>
        <time>2017-07-18T15:03:10Z</time>
      </trkpt>
      <trkpt lat="47.84212" lon="5.8545">
        <ele>233.80000305176</ele>
        <time>2017-07-18T15:03:11Z</time>
      </trkpt>
      <trkpt lat="47.84218" lon="5.85453">
        <ele>233.39999389648</ele>
        <time>2017-07-18T15:03:12Z</time>
      </trkpt>
      <trkpt lat="47.84227" lon="5.85456">
        <ele>233.19999694824</ele>
        <time>2017-07-18T15:03:14Z</time>
      </trkpt>
      <trkpt lat="47.84231" lon="5.85457">
        <ele>233.19999694824</ele>
        <time>2017-07-18T15:03:15Z</time>
      </trkpt>
      <trkpt lat="47.8424" lon="5.85461">
        <ele>234</ele>
        <time>2017-07-18T15:03:19Z</time>
      </trkpt>
      <trkpt lat="47.84241" lon="5.85465">
        <ele>234.19999694824</ele>
        <time>2017-07-18T15:03:21Z</time>
      </trkpt>
      <trkpt lat="47.84239" lon="5.8547">
        <ele>234.60000610352</ele>
        <time>2017-07-18T15:03:24Z</time>
      </trkpt>
      <trkpt lat="47.84231" lon="5.85477">
        <ele>235</ele>
        <time>2017-07-18T15:03:27Z</time>
      </trkpt>
      <trkpt lat="47.84226" lon="5.85481">
        <ele>235.19999694824</ele>
        <time>2017-07-18T15:03:29Z</time>
      </trkpt>
      <trkpt lat="47.84214" lon="5.85496">
        <ele>235</ele>
        <time>2017-07-18T15:03:34Z</time>
      </trkpt>
      <trkpt lat="47.842" lon="5.85515">
        <ele>234.60000610352</ele>
        <time>2017-07-18T15:03:39Z</time>
      </trkpt>
      <trkpt lat="47.84178" lon="5.85549">
        <ele>233.80000305176</ele>
        <time>2017-07-18T15:03:46Z</time>
      </trkpt>
      <trkpt lat="47.84174" lon="5.85553">
        <ele>233.60000610352</ele>
        <time>2017-07-18T15:03:47Z</time>
      </trkpt>
      <trkpt lat="47.8417" lon="5.85558">
        <ele>233.39999389648</ele>
        <time>2017-07-18T15:03:48Z</time>
      </trkpt>
      <trkpt lat="47.84166" lon="5.85561">
        <ele>233.39999389648</ele>
        <time>2017-07-18T15:03:49Z</time>
      </trkpt>
      <trkpt lat="47.84156" lon="5.85569">
        <ele>232.80000305176</ele>
        <time>2017-07-18T15:03:51Z</time>
      </trkpt>
      <trkpt lat="47.84146" lon="5.85578">
        <ele>232.19999694824</ele>
        <time>2017-07-18T15:03:53Z</time>
      </trkpt>
      <trkpt lat="47.84141" lon="5.85582">
        <ele>232</ele>
        <time>2017-07-18T15:03:54Z</time>
      </trkpt>
      <trkpt lat="47.84129" lon="5.85593">
        <ele>231.19999694824</ele>
        <time>2017-07-18T15:03:57Z</time>
      </trkpt>
      <trkpt lat="47.84116" lon="5.85609">
        <ele>230.19999694824</ele>
        <time>2017-07-18T15:04:00Z</time>
      </trkpt>
      <trkpt lat="47.84112" lon="5.85614">
        <ele>230</ele>
        <time>2017-07-18T15:04:01Z</time>
      </trkpt>
      <trkpt lat="47.84109" lon="5.85618">
        <ele>229.60000610352</ele>
        <time>2017-07-18T15:04:02Z</time>
      </trkpt>
      <trkpt lat="47.84105" lon="5.85627">
        <ele>229</ele>
        <time>2017-07-18T15:04:04Z</time>
      </trkpt>
      <trkpt lat="47.84105" lon="5.85632">
        <ele>228.60000610352</ele>
        <time>2017-07-18T15:04:05Z</time>
      </trkpt>
      <trkpt lat="47.84106" lon="5.85648">
        <ele>227.60000610352</ele>
        <time>2017-07-18T15:04:08Z</time>
      </trkpt>
      <trkpt lat="47.84107" lon="5.85657">
        <ele>227.19999694824</ele>
        <time>2017-07-18T15:04:10Z</time>
      </trkpt>
      <trkpt lat="47.84108" lon="5.85667">
        <ele>226.60000610352</ele>
        <time>2017-07-18T15:04:14Z</time>
      </trkpt>
      <trkpt lat="47.84106" lon="5.85668">
        <ele>226.39999389648</ele>
        <time>2017-07-18T15:04:15Z</time>
      </trkpt>
      <trkpt lat="47.84104" lon="5.85666">
        <ele>226.39999389648</ele>
        <time>2017-07-18T15:04:17Z</time>
      </trkpt>
      <trkpt lat="47.84106" lon="5.85657">
        <ele>226</ele>
        <time>2017-07-18T15:04:33Z</time>
      </trkpt>
      <trkpt lat="47.84108" lon="5.85661">
        <ele>226.19999694824</ele>
        <time>2017-07-18T15:04:35Z</time>
      </trkpt>
      <trkpt lat="47.84106" lon="5.85667">
        <ele>226.19999694824</ele>
        <time>2017-07-18T15:04:37Z</time>
      </trkpt>
      <trkpt lat="47.84104" lon="5.85674">
        <ele>226.19999694824</ele>
        <time>2017-07-18T15:04:39Z</time>
      </trkpt>
      <trkpt lat="47.84095" lon="5.85693">
        <ele>226</ele>
        <time>2017-07-18T15:04:43Z</time>
      </trkpt>
      <trkpt lat="47.84094" lon="5.85698">
        <ele>226</ele>
        <time>2017-07-18T15:04:44Z</time>
      </trkpt>
      <trkpt lat="47.84092" lon="5.85708">
        <ele>225.60000610352</ele>
        <time>2017-07-18T15:04:46Z</time>
      </trkpt>
      <trkpt lat="47.8409" lon="5.85731">
        <ele>224.80000305176</ele>
        <time>2017-07-18T15:04:50Z</time>
      </trkpt>
      <trkpt lat="47.84089" lon="5.85745">
        <ele>224.39999389648</ele>
        <time>2017-07-18T15:04:52Z</time>
      </trkpt>
      <trkpt lat="47.84087" lon="5.85764">
        <ele>223.80000305176</ele>
        <time>2017-07-18T15:04:56Z</time>
      </trkpt>
      <trkpt lat="47.84085" lon="5.85786">
        <ele>223.39999389648</ele>
        <time>2017-07-18T15:05:02Z</time>
      </trkpt>
      <trkpt lat="47.84084" lon="5.85788">
        <ele>223.39999389648</ele>
        <time>2017-07-18T15:05:03Z</time>
      </trkpt>
      <trkpt lat="47.84083" lon="5.85797">
        <ele>223.39999389648</ele>
        <time>2017-07-18T15:05:07Z</time>
      </trkpt>
      <trkpt lat="47.84084" lon="5.85801">
        <ele>223.19999694824</ele>
        <time>2017-07-18T15:05:09Z</time>
      </trkpt>
      <trkpt lat="47.84086" lon="5.85796">
        <ele>223.19999694824</ele>
        <time>2017-07-18T15:05:13Z</time>
      </trkpt>
      <trkpt lat="47.84085" lon="5.85785">
        <ele>223.19999694824</ele>
        <time>2017-07-18T15:05:17Z</time>
      </trkpt>
      <trkpt lat="47.84085" lon="5.85783">
        <ele>223.19999694824</ele>
        <time>2017-07-18T15:05:18Z</time>
      </trkpt>
      <trkpt lat="47.84083" lon="5.8577">
        <ele>223.19999694824</ele>
        <time>2017-07-18T15:05:23Z</time>
      </trkpt>
      <trkpt lat="47.8408" lon="5.85762">
        <ele>223.19999694824</ele>
        <time>2017-07-18T15:05:28Z</time>
      </trkpt>
      <trkpt lat="47.84083" lon="5.85768">
        <ele>223.39999389648</ele>
        <time>2017-07-18T15:05:54Z</time>
      </trkpt>
      <trkpt lat="47.84085" lon="5.8577">
        <ele>223.19999694824</ele>
        <time>2017-07-18T15:05:55Z</time>
      </trkpt>
      <trkpt lat="47.8409" lon="5.8578">
        <ele>223</ele>
        <time>2017-07-18T15:05:59Z</time>
      </trkpt>
      <trkpt lat="47.84092" lon="5.85785">
        <ele>223.19999694824</ele>
        <time>2017-07-18T15:06:02Z</time>
      </trkpt>
      <trkpt lat="47.84095" lon="5.85789">
        <ele>223.19999694824</ele>
        <time>2017-07-18T15:06:04Z</time>
      </trkpt>
      <trkpt lat="47.84102" lon="5.85799">
        <ele>223.39999389648</ele>
        <time>2017-07-18T15:06:07Z</time>
      </trkpt>
      <trkpt lat="47.84108" lon="5.85805">
        <ele>223.39999389648</ele>
        <time>2017-07-18T15:06:09Z</time>
      </trkpt>
      <trkpt lat="47.84113" lon="5.8581">
        <ele>223.39999389648</ele>
        <time>2017-07-18T15:06:12Z</time>
      </trkpt>
      <trkpt lat="47.84113" lon="5.85807">
        <ele>223.39999389648</ele>
        <time>2017-07-18T15:06:13Z</time>
      </trkpt>
      <trkpt lat="47.84107" lon="5.858">
        <ele>223.19999694824</ele>
        <time>2017-07-18T15:06:17Z</time>
      </trkpt>
      <trkpt lat="47.84105" lon="5.85797">
        <ele>223</ele>
        <time>2017-07-18T15:08:03Z</time>
      </trkpt>
      <trkpt lat="47.84103" lon="5.85795">
        <ele>223</ele>
        <time>2017-07-18T15:08:04Z</time>
      </trkpt>
      <trkpt lat="47.84098" lon="5.85786">
        <ele>223</ele>
        <time>2017-07-18T15:08:07Z</time>
      </trkpt>
      <trkpt lat="47.84097" lon="5.85777">
        <ele>223.19999694824</ele>
        <time>2017-07-18T15:08:09Z</time>
      </trkpt>
      <trkpt lat="47.84095" lon="5.85736">
        <ele>223.39999389648</ele>
        <time>2017-07-18T15:08:16Z</time>
      </trkpt>
      <trkpt lat="47.84099" lon="5.857">
        <ele>224</ele>
        <time>2017-07-18T15:08:23Z</time>
      </trkpt>
      <trkpt lat="47.84102" lon="5.85688">
        <ele>224.60000610352</ele>
        <time>2017-07-18T15:08:26Z</time>
      </trkpt>
      <trkpt lat="47.84106" lon="5.85678">
        <ele>225</ele>
        <time>2017-07-18T15:08:29Z</time>
      </trkpt>
      <trkpt lat="47.84109" lon="5.85669">
        <ele>225.60000610352</ele>
        <time>2017-07-18T15:08:32Z</time>
      </trkpt>
      <trkpt lat="47.84111" lon="5.85658">
        <ele>226</ele>
        <time>2017-07-18T15:08:35Z</time>
      </trkpt>
      <trkpt lat="47.84112" lon="5.85638">
        <ele>226.60000610352</ele>
        <time>2017-07-18T15:08:40Z</time>
      </trkpt>
      <trkpt lat="47.84112" lon="5.85634">
        <ele>226.80000305176</ele>
        <time>2017-07-18T15:08:41Z</time>
      </trkpt>
      <trkpt lat="47.84119" lon="5.85613">
        <ele>227.39999389648</ele>
        <time>2017-07-18T15:08:47Z</time>
      </trkpt>
      <trkpt lat="47.84122" lon="5.85607">
        <ele>227.80000305176</ele>
        <time>2017-07-18T15:08:49Z</time>
      </trkpt>
      <trkpt lat="47.8413" lon="5.85598">
        <ele>228.19999694824</ele>
        <time>2017-07-18T15:08:53Z</time>
      </trkpt>
      <trkpt lat="47.84134" lon="5.85584">
        <ele>228.80000305176</ele>
        <time>2017-07-18T15:08:57Z</time>
      </trkpt>
      <trkpt lat="47.84135" lon="5.85581">
        <ele>228.80000305176</ele>
        <time>2017-07-18T15:08:58Z</time>
      </trkpt>
      <trkpt lat="47.84134" lon="5.85555">
        <ele>229.39999389648</ele>
        <time>2017-07-18T15:09:04Z</time>
      </trkpt>
      <trkpt lat="47.84129" lon="5.8552">
        <ele>229.19999694824</ele>
        <time>2017-07-18T15:09:11Z</time>
      </trkpt>
      <trkpt lat="47.84121" lon="5.85506">
        <ele>229.19999694824</ele>
        <time>2017-07-18T15:09:15Z</time>
      </trkpt>
      <trkpt lat="47.84114" lon="5.85493">
        <ele>229.80000305176</ele>
        <time>2017-07-18T15:09:19Z</time>
      </trkpt>
      <trkpt lat="47.84109" lon="5.85485">
        <ele>230.60000610352</ele>
        <time>2017-07-18T15:09:22Z</time>
      </trkpt>
      <trkpt lat="47.84106" lon="5.8548">
        <ele>231</ele>
        <time>2017-07-18T15:09:24Z</time>
      </trkpt>
      <trkpt lat="47.84097" lon="5.85465">
        <ele>231.80000305176</ele>
        <time>2017-07-18T15:09:29Z</time>
      </trkpt>
      <trkpt lat="47.84095" lon="5.85461">
        <ele>232</ele>
        <time>2017-07-18T15:09:30Z</time>
      </trkpt>
      <trkpt lat="47.84087" lon="5.85448">
        <ele>233.19999694824</ele>
        <time>2017-07-18T15:09:35Z</time>
      </trkpt>
      <trkpt lat="47.84085" lon="5.85444">
        <ele>233.39999389648</ele>
        <time>2017-07-18T15:09:36Z</time>
      </trkpt>
      <trkpt lat="47.8408" lon="5.85431">
        <ele>234.19999694824</ele>
        <time>2017-07-18T15:09:40Z</time>
      </trkpt>
      <trkpt lat="47.84075" lon="5.85422">
        <ele>234.80000305176</ele>
        <time>2017-07-18T15:09:43Z</time>
      </trkpt>
      <trkpt lat="47.84072" lon="5.85412">
        <ele>235.39999389648</ele>
        <time>2017-07-18T15:09:46Z</time>
      </trkpt>
      <trkpt lat="47.84068" lon="5.85403">
        <ele>235.80000305176</ele>
        <time>2017-07-18T15:09:49Z</time>
      </trkpt>
      <trkpt lat="47.84066" lon="5.854">
        <ele>236</ele>
        <time>2017-07-18T15:09:50Z</time>
      </trkpt>
      <trkpt lat="47.84061" lon="5.85391">
        <ele>236.39999389648</ele>
        <time>2017-07-18T15:09:53Z</time>
      </trkpt>
      <trkpt lat="47.84055" lon="5.85374">
        <ele>237</ele>
        <time>2017-07-18T15:09:58Z</time>
      </trkpt>
      <trkpt lat="47.84054" lon="5.85362">
        <ele>237.39999389648</ele>
        <time>2017-07-18T15:10:03Z</time>
      </trkpt>
      <trkpt lat="47.84051" lon="5.85357">
        <ele>237.80000305176</ele>
        <time>2017-07-18T15:10:06Z</time>
      </trkpt>
      <trkpt lat="47.84048" lon="5.85353">
        <ele>238</ele>
        <time>2017-07-18T15:10:09Z</time>
      </trkpt>
      <trkpt lat="47.84048" lon="5.85349">
        <ele>238</ele>
        <time>2017-07-18T15:10:12Z</time>
      </trkpt>
      <trkpt lat="47.84049" lon="5.85342">
        <ele>238.19999694824</ele>
        <time>2017-07-18T15:10:15Z</time>
      </trkpt>
      <trkpt lat="47.84056" lon="5.85332">
        <ele>238.19999694824</ele>
        <time>2017-07-18T15:10:20Z</time>
      </trkpt>
      <trkpt lat="47.84057" lon="5.8533">
        <ele>238.19999694824</ele>
        <time>2017-07-18T15:10:21Z</time>
      </trkpt>
      <trkpt lat="47.84058" lon="5.85329">
        <ele>238.60000610352</ele>
        <time>2017-07-18T15:10:22Z</time>
      </trkpt>
      <trkpt lat="47.8406" lon="5.85321">
        <ele>239</ele>
        <time>2017-07-18T15:10:26Z</time>
      </trkpt>
      <trkpt lat="47.84064" lon="5.85311">
        <ele>250</ele>
        <time>2017-07-19T05:52:09Z</time>
      </trkpt>
      <trkpt lat="47.84062" lon="5.85319">
        <ele>250</ele>
        <time>2017-07-19T05:53:19Z</time>
      </trkpt>
      <trkpt lat="47.8406" lon="5.85326">
        <ele>249.80000305176</ele>
        <time>2017-07-19T05:53:21Z</time>
      </trkpt>
      <trkpt lat="47.84058" lon="5.85346">
        <ele>249</ele>
        <time>2017-07-19T05:53:27Z</time>
      </trkpt>
      <trkpt lat="47.84057" lon="5.85349">
        <ele>249</ele>
        <time>2017-07-19T05:53:28Z</time>
      </trkpt>
      <trkpt lat="47.84055" lon="5.85355">
        <ele>248.80000305176</ele>
        <time>2017-07-19T05:53:30Z</time>
      </trkpt>
      <trkpt lat="47.84057" lon="5.85361">
        <ele>248.39999389648</ele>
        <time>2017-07-19T05:53:33Z</time>
      </trkpt>
      <trkpt lat="47.84057" lon="5.85365">
        <ele>248.39999389648</ele>
        <time>2017-07-19T05:53:34Z</time>
      </trkpt>
      <trkpt lat="47.84062" lon="5.85389">
        <ele>248</ele>
        <time>2017-07-19T05:53:39Z</time>
      </trkpt>
      <trkpt lat="47.8407" lon="5.85403">
        <ele>247.80000305176</ele>
        <time>2017-07-19T05:53:42Z</time>
      </trkpt>
      <trkpt lat="47.84075" lon="5.85415">
        <ele>247.60000610352</ele>
        <time>2017-07-19T05:53:44Z</time>
      </trkpt>
      <trkpt lat="47.84089" lon="5.85444">
        <ele>246.80000305176</ele>
        <time>2017-07-19T05:53:48Z</time>
      </trkpt>
      <trkpt lat="47.84093" lon="5.85452">
        <ele>246.60000610352</ele>
        <time>2017-07-19T05:53:49Z</time>
      </trkpt>
      <trkpt lat="47.84106" lon="5.85477">
        <ele>245.60000610352</ele>
        <time>2017-07-19T05:53:52Z</time>
      </trkpt>
      <trkpt lat="47.84115" lon="5.85493">
        <ele>244.60000610352</ele>
        <time>2017-07-19T05:53:54Z</time>
      </trkpt>
      <trkpt lat="47.84119" lon="5.855">
        <ele>244.19999694824</ele>
        <time>2017-07-19T05:53:55Z</time>
      </trkpt>
      <trkpt lat="47.84128" lon="5.85515">
        <ele>242.80000305176</ele>
        <time>2017-07-19T05:53:58Z</time>
      </trkpt>
      <trkpt lat="47.84131" lon="5.85526">
        <ele>241.60000610352</ele>
        <time>2017-07-19T05:54:00Z</time>
      </trkpt>
      <trkpt lat="47.84131" lon="5.85532">
        <ele>241.19999694824</ele>
        <time>2017-07-19T05:54:01Z</time>
      </trkpt>
      <trkpt lat="47.84131" lon="5.85539">
        <ele>240.60000610352</ele>
        <time>2017-07-19T05:54:02Z</time>
      </trkpt>
      <trkpt lat="47.84131" lon="5.85545">
        <ele>240.19999694824</ele>
        <time>2017-07-19T05:54:03Z</time>
      </trkpt>
      <trkpt lat="47.84132" lon="5.85551">
        <ele>240</ele>
        <time>2017-07-19T05:54:04Z</time>
      </trkpt>
      <trkpt lat="47.84135" lon="5.85568">
        <ele>239.39999389648</ele>
        <time>2017-07-19T05:54:07Z</time>
      </trkpt>
      <trkpt lat="47.84136" lon="5.85586">
        <ele>239.39999389648</ele>
        <time>2017-07-19T05:54:12Z</time>
      </trkpt>
      <trkpt lat="47.84126" lon="5.85602">
        <ele>239.39999389648</ele>
        <time>2017-07-19T05:54:16Z</time>
      </trkpt>
      <trkpt lat="47.84123" lon="5.85606">
        <ele>239.39999389648</ele>
        <time>2017-07-19T05:54:17Z</time>
      </trkpt>
      <trkpt lat="47.84117" lon="5.85618">
        <ele>239.19999694824</ele>
        <time>2017-07-19T05:54:19Z</time>
      </trkpt>
      <trkpt lat="47.84114" lon="5.85633">
        <ele>239</ele>
        <time>2017-07-19T05:54:21Z</time>
      </trkpt>
      <trkpt lat="47.84112" lon="5.85659">
        <ele>238.19999694824</ele>
        <time>2017-07-19T05:54:24Z</time>
      </trkpt>
      <trkpt lat="47.8411" lon="5.85666">
        <ele>238</ele>
        <time>2017-07-19T05:54:25Z</time>
      </trkpt>
      <trkpt lat="47.84105" lon="5.85678">
        <ele>237.60000610352</ele>
        <time>2017-07-19T05:54:27Z</time>
      </trkpt>
      <trkpt lat="47.841" lon="5.85694">
        <ele>237</ele>
        <time>2017-07-19T05:54:29Z</time>
      </trkpt>
      <trkpt lat="47.84099" lon="5.85703">
        <ele>236.80000305176</ele>
        <time>2017-07-19T05:54:30Z</time>
      </trkpt>
      <trkpt lat="47.84096" lon="5.85733">
        <ele>236</ele>
        <time>2017-07-19T05:54:33Z</time>
      </trkpt>
      <trkpt lat="47.84094" lon="5.85763">
        <ele>234.80000305176</ele>
        <time>2017-07-19T05:54:36Z</time>
      </trkpt>
      <trkpt lat="47.84094" lon="5.85772">
        <ele>234.39999389648</ele>
        <time>2017-07-19T05:54:37Z</time>
      </trkpt>
      <trkpt lat="47.84099" lon="5.85789">
        <ele>234</ele>
        <time>2017-07-19T05:54:39Z</time>
      </trkpt>
      <trkpt lat="47.84108" lon="5.85801">
        <ele>233.80000305176</ele>
        <time>2017-07-19T05:54:41Z</time>
      </trkpt>
      <trkpt lat="47.84112" lon="5.85807">
        <ele>233.80000305176</ele>
        <time>2017-07-19T05:54:42Z</time>
      </trkpt>
      <trkpt lat="47.8414" lon="5.85846">
        <ele>233.19999694824</ele>
        <time>2017-07-19T05:54:49Z</time>
      </trkpt>
      <trkpt lat="47.84153" lon="5.85862">
        <ele>232.80000305176</ele>
        <time>2017-07-19T05:54:52Z</time>
      </trkpt>
      <trkpt lat="47.84161" lon="5.85874">
        <ele>232.60000610352</ele>
        <time>2017-07-19T05:54:54Z</time>
      </trkpt>
      <trkpt lat="47.84164" lon="5.8588">
        <ele>232.60000610352</ele>
        <time>2017-07-19T05:54:55Z</time>
      </trkpt>
      <trkpt lat="47.84167" lon="5.85887">
        <ele>232.39999389648</ele>
        <time>2017-07-19T05:54:56Z</time>
      </trkpt>
      <trkpt lat="47.84176" lon="5.85917">
        <ele>232.19999694824</ele>
        <time>2017-07-19T05:55:00Z</time>
      </trkpt>
      <trkpt lat="47.84191" lon="5.85975">
        <ele>231.80000305176</ele>
        <time>2017-07-19T05:55:07Z</time>
      </trkpt>
      <trkpt lat="47.84193" lon="5.85984">
        <ele>231.60000610352</ele>
        <time>2017-07-19T05:55:08Z</time>
      </trkpt>
      <trkpt lat="47.84201" lon="5.86041">
        <ele>230.80000305176</ele>
        <time>2017-07-19T05:55:14Z</time>
      </trkpt>
      <trkpt lat="47.84202" lon="5.8606">
        <ele>230.60000610352</ele>
        <time>2017-07-19T05:55:16Z</time>
      </trkpt>
      <trkpt lat="47.84207" lon="5.86117">
        <ele>230</ele>
        <time>2017-07-19T05:55:22Z</time>
      </trkpt>
      <trkpt lat="47.8422" lon="5.86161">
        <ele>229.60000610352</ele>
        <time>2017-07-19T05:55:27Z</time>
      </trkpt>
      <trkpt lat="47.84223" lon="5.8617">
        <ele>229.39999389648</ele>
        <time>2017-07-19T05:55:28Z</time>
      </trkpt>
      <trkpt lat="47.84246" lon="5.86248">
        <ele>228.60000610352</ele>
        <time>2017-07-19T05:55:37Z</time>
      </trkpt>
      <trkpt lat="47.84259" lon="5.8629">
        <ele>228.39999389648</ele>
        <time>2017-07-19T05:55:42Z</time>
      </trkpt>
      <trkpt lat="47.84264" lon="5.86307">
        <ele>228.39999389648</ele>
        <time>2017-07-19T05:55:44Z</time>
      </trkpt>
      <trkpt lat="47.84277" lon="5.86355">
        <ele>228.19999694824</ele>
        <time>2017-07-19T05:55:50Z</time>
      </trkpt>
      <trkpt lat="47.84285" lon="5.86416">
        <ele>227.80000305176</ele>
        <time>2017-07-19T05:55:57Z</time>
      </trkpt>
      <trkpt lat="47.84292" lon="5.86449">
        <ele>227.39999389648</ele>
        <time>2017-07-19T05:56:01Z</time>
      </trkpt>
      <trkpt lat="47.84298" lon="5.86465">
        <ele>227.39999389648</ele>
        <time>2017-07-19T05:56:03Z</time>
      </trkpt>
      <trkpt lat="47.8432" lon="5.86527">
        <ele>227</ele>
        <time>2017-07-19T05:56:11Z</time>
      </trkpt>
      <trkpt lat="47.84323" lon="5.86534">
        <ele>226.80000305176</ele>
        <time>2017-07-19T05:56:12Z</time>
      </trkpt>
      <trkpt lat="47.84338" lon="5.86573">
        <ele>226.60000610352</ele>
        <time>2017-07-19T05:56:17Z</time>
      </trkpt>
      <trkpt lat="47.84347" lon="5.86606">
        <ele>226.39999389648</ele>
        <time>2017-07-19T05:56:21Z</time>
      </trkpt>
      <trkpt lat="47.84349" lon="5.86615">
        <ele>226.39999389648</ele>
        <time>2017-07-19T05:56:22Z</time>
      </trkpt>
      <trkpt lat="47.8435" lon="5.86623">
        <ele>226.39999389648</ele>
        <time>2017-07-19T05:56:23Z</time>
      </trkpt>
      <trkpt lat="47.8436" lon="5.86689">
        <ele>225.80000305176</ele>
        <time>2017-07-19T05:56:31Z</time>
      </trkpt>
      <trkpt lat="47.8437" lon="5.86759">
        <ele>225.60000610352</ele>
        <time>2017-07-19T05:56:40Z</time>
      </trkpt>
      <trkpt lat="47.84375" lon="5.86781">
        <ele>225.39999389648</ele>
        <time>2017-07-19T05:56:43Z</time>
      </trkpt>
      <trkpt lat="47.84379" lon="5.86795">
        <ele>225.19999694824</ele>
        <time>2017-07-19T05:56:45Z</time>
      </trkpt>
      <trkpt lat="47.84382" lon="5.868">
        <ele>225.19999694824</ele>
        <time>2017-07-19T05:56:46Z</time>
      </trkpt>
      <trkpt lat="47.84388" lon="5.86809">
        <ele>225</ele>
        <time>2017-07-19T05:56:49Z</time>
      </trkpt>
      <trkpt lat="47.84388" lon="5.86813">
        <ele>225</ele>
        <time>2017-07-19T05:56:51Z</time>
      </trkpt>
      <trkpt lat="47.84386" lon="5.86817">
        <ele>224.80000305176</ele>
        <time>2017-07-19T05:56:53Z</time>
      </trkpt>
      <trkpt lat="47.84387" lon="5.86815">
        <ele>207.39999389648</ele>
        <time>2017-07-19T06:03:02Z</time>
      </trkpt>
      <trkpt lat="47.8439" lon="5.86814">
        <ele>207.39999389648</ele>
        <time>2017-07-19T06:03:09Z</time>
      </trkpt>
      <trkpt lat="47.84394" lon="5.86819">
        <ele>207.60000610352</ele>
        <time>2017-07-19T06:03:16Z</time>
      </trkpt>
      <trkpt lat="47.84403" lon="5.8683">
        <ele>207.80000305176</ele>
        <time>2017-07-19T06:03:21Z</time>
      </trkpt>
      <trkpt lat="47.84406" lon="5.86833">
        <ele>207.80000305176</ele>
        <time>2017-07-19T06:03:22Z</time>
      </trkpt>
      <trkpt lat="47.84423" lon="5.86853">
        <ele>208</ele>
        <time>2017-07-19T06:03:28Z</time>
      </trkpt>
      <trkpt lat="47.84445" lon="5.8688">
        <ele>208.19999694824</ele>
        <time>2017-07-19T06:03:35Z</time>
      </trkpt>
      <trkpt lat="47.8446" lon="5.86895">
        <ele>208.19999694824</ele>
        <time>2017-07-19T06:03:39Z</time>
      </trkpt>
      <trkpt lat="47.8447" lon="5.86909">
        <ele>208.19999694824</ele>
        <time>2017-07-19T06:03:42Z</time>
      </trkpt>
      <trkpt lat="47.84474" lon="5.86913">
        <ele>208.19999694824</ele>
        <time>2017-07-19T06:03:43Z</time>
      </trkpt>
      <trkpt lat="47.84503" lon="5.86946">
        <ele>208.39999389648</ele>
        <time>2017-07-19T06:03:51Z</time>
      </trkpt>
      <trkpt lat="47.8453" lon="5.86974">
        <ele>208.19999694824</ele>
        <time>2017-07-19T06:03:58Z</time>
      </trkpt>
      <trkpt lat="47.84559" lon="5.87005">
        <ele>208.60000610352</ele>
        <time>2017-07-19T06:04:06Z</time>
      </trkpt>
      <trkpt lat="47.8457" lon="5.87018">
        <ele>208.60000610352</ele>
        <time>2017-07-19T06:04:09Z</time>
      </trkpt>
      <trkpt lat="47.84604" lon="5.87058">
        <ele>208.39999389648</ele>
        <time>2017-07-19T06:04:18Z</time>
      </trkpt>
      <trkpt lat="47.84644" lon="5.87107">
        <ele>208.39999389648</ele>
        <time>2017-07-19T06:04:28Z</time>
      </trkpt>
      <trkpt lat="47.84676" lon="5.87147">
        <ele>208.19999694824</ele>
        <time>2017-07-19T06:04:36Z</time>
      </trkpt>
      <trkpt lat="47.84711" lon="5.8719">
        <ele>208.39999389648</ele>
        <time>2017-07-19T06:04:45Z</time>
      </trkpt>
      <trkpt lat="47.84747" lon="5.87236">
        <ele>208.60000610352</ele>
        <time>2017-07-19T06:04:54Z</time>
      </trkpt>
      <trkpt lat="47.84783" lon="5.87284">
        <ele>208.39999389648</ele>
        <time>2017-07-19T06:05:03Z</time>
      </trkpt>
      <trkpt lat="47.8482" lon="5.87334">
        <ele>208.39999389648</ele>
        <time>2017-07-19T06:05:12Z</time>
      </trkpt>
      <trkpt lat="47.84853" lon="5.8738">
        <ele>208.60000610352</ele>
        <time>2017-07-19T06:05:21Z</time>
      </trkpt>
      <trkpt lat="47.84861" lon="5.8739">
        <ele>208.80000305176</ele>
        <time>2017-07-19T06:05:23Z</time>
      </trkpt>
      <trkpt lat="47.84879" lon="5.87416">
        <ele>208.80000305176</ele>
        <time>2017-07-19T06:05:28Z</time>
      </trkpt>
      <trkpt lat="47.84907" lon="5.87457">
        <ele>209.19999694824</ele>
        <time>2017-07-19T06:05:36Z</time>
      </trkpt>
      <trkpt lat="47.84942" lon="5.87512">
        <ele>209.39999389648</ele>
        <time>2017-07-19T06:05:46Z</time>
      </trkpt>
      <trkpt lat="47.84967" lon="5.87546">
        <ele>209.39999389648</ele>
        <time>2017-07-19T06:05:53Z</time>
      </trkpt>
      <trkpt lat="47.84971" lon="5.8755">
        <ele>209.60000610352</ele>
        <time>2017-07-19T06:05:54Z</time>
      </trkpt>
      <trkpt lat="47.84993" lon="5.87573">
        <ele>210.19999694824</ele>
        <time>2017-07-19T06:06:00Z</time>
      </trkpt>
      <trkpt lat="47.85003" lon="5.87583">
        <ele>210.60000610352</ele>
        <time>2017-07-19T06:06:03Z</time>
      </trkpt>
      <trkpt lat="47.85006" lon="5.87586">
        <ele>210.60000610352</ele>
        <time>2017-07-19T06:06:04Z</time>
      </trkpt>
      <trkpt lat="47.85017" lon="5.87595">
        <ele>211</ele>
        <time>2017-07-19T06:06:07Z</time>
      </trkpt>
      <trkpt lat="47.85037" lon="5.87612">
        <ele>211.80000305176</ele>
        <time>2017-07-19T06:06:13Z</time>
      </trkpt>
      <trkpt lat="47.85044" lon="5.87617">
        <ele>212</ele>
        <time>2017-07-19T06:06:15Z</time>
      </trkpt>
      <trkpt lat="47.85062" lon="5.87629">
        <ele>212.80000305176</ele>
        <time>2017-07-19T06:06:20Z</time>
      </trkpt>
      <trkpt lat="47.85075" lon="5.87635">
        <ele>213</ele>
        <time>2017-07-19T06:06:23Z</time>
      </trkpt>
      <trkpt lat="47.85079" lon="5.87636">
        <ele>213.19999694824</ele>
        <time>2017-07-19T06:06:24Z</time>
      </trkpt>
      <trkpt lat="47.85098" lon="5.87629">
        <ele>213</ele>
        <time>2017-07-19T06:06:28Z</time>
      </trkpt>
      <trkpt lat="47.85112" lon="5.87611">
        <ele>213</ele>
        <time>2017-07-19T06:06:32Z</time>
      </trkpt>
      <trkpt lat="47.85142" lon="5.87564">
        <ele>213</ele>
        <time>2017-07-19T06:06:41Z</time>
      </trkpt>
      <trkpt lat="47.85164" lon="5.87523">
        <ele>212.39999389648</ele>
        <time>2017-07-19T06:06:47Z</time>
      </trkpt>
      <trkpt lat="47.85174" lon="5.87501">
        <ele>211.60000610352</ele>
        <time>2017-07-19T06:06:50Z</time>
      </trkpt>
      <trkpt lat="47.85183" lon="5.87479">
        <ele>211</ele>
        <time>2017-07-19T06:06:53Z</time>
      </trkpt>
      <trkpt lat="47.85198" lon="5.87454">
        <ele>210.60000610352</ele>
        <time>2017-07-19T06:06:57Z</time>
      </trkpt>
      <trkpt lat="47.85201" lon="5.87446">
        <ele>210.39999389648</ele>
        <time>2017-07-19T06:06:58Z</time>
      </trkpt>
      <trkpt lat="47.85204" lon="5.87439">
        <ele>210.39999389648</ele>
        <time>2017-07-19T06:06:59Z</time>
      </trkpt>
      <trkpt lat="47.85227" lon="5.87392">
        <ele>210.39999389648</ele>
        <time>2017-07-19T06:07:06Z</time>
      </trkpt>
      <trkpt lat="47.85235" lon="5.87382">
        <ele>210.39999389648</ele>
        <time>2017-07-19T06:07:08Z</time>
      </trkpt>
      <trkpt lat="47.85243" lon="5.87379">
        <ele>210.60000610352</ele>
        <time>2017-07-19T06:07:10Z</time>
      </trkpt>
      <trkpt lat="47.85258" lon="5.87383">
        <ele>211</ele>
        <time>2017-07-19T06:07:14Z</time>
      </trkpt>
      <trkpt lat="47.85271" lon="5.87387">
        <ele>211.80000305176</ele>
        <time>2017-07-19T06:07:18Z</time>
      </trkpt>
      <trkpt lat="47.85276" lon="5.87389">
        <ele>211.80000305176</ele>
        <time>2017-07-19T06:07:19Z</time>
      </trkpt>
      <trkpt lat="47.85303" lon="5.87401">
        <ele>211.39999389648</ele>
        <time>2017-07-19T06:07:24Z</time>
      </trkpt>
      <trkpt lat="47.85321" lon="5.87409">
        <ele>210.39999389648</ele>
        <time>2017-07-19T06:07:27Z</time>
      </trkpt>
      <trkpt lat="47.85353" lon="5.87423">
        <ele>209.60000610352</ele>
        <time>2017-07-19T06:07:32Z</time>
      </trkpt>
      <trkpt lat="47.85365" lon="5.87427">
        <ele>209.39999389648</ele>
        <time>2017-07-19T06:07:34Z</time>
      </trkpt>
      <trkpt lat="47.85377" lon="5.87432">
        <ele>209.19999694824</ele>
        <time>2017-07-19T06:07:36Z</time>
      </trkpt>
      <trkpt lat="47.85394" lon="5.87439">
        <ele>209</ele>
        <time>2017-07-19T06:07:39Z</time>
      </trkpt>
      <trkpt lat="47.85423" lon="5.87449">
        <ele>209.19999694824</ele>
        <time>2017-07-19T06:07:45Z</time>
      </trkpt>
      <trkpt lat="47.85439" lon="5.87456">
        <ele>209.39999389648</ele>
        <time>2017-07-19T06:07:50Z</time>
      </trkpt>
      <trkpt lat="47.85461" lon="5.87469">
        <ele>210.39999389648</ele>
        <time>2017-07-19T06:07:56Z</time>
      </trkpt>
      <trkpt lat="47.85466" lon="5.87474">
        <ele>210.39999389648</ele>
        <time>2017-07-19T06:07:57Z</time>
      </trkpt>
      <trkpt lat="47.85477" lon="5.87495">
        <ele>210.19999694824</ele>
        <time>2017-07-19T06:08:00Z</time>
      </trkpt>
      <trkpt lat="47.85481" lon="5.87502">
        <ele>209.60000610352</ele>
        <time>2017-07-19T06:08:01Z</time>
      </trkpt>
      <trkpt lat="47.85484" lon="5.87508">
        <ele>209.39999389648</ele>
        <time>2017-07-19T06:08:02Z</time>
      </trkpt>
      <trkpt lat="47.85501" lon="5.8754">
        <ele>208.60000610352</ele>
        <time>2017-07-19T06:08:07Z</time>
      </trkpt>
      <trkpt lat="47.85527" lon="5.87597">
        <ele>208.39999389648</ele>
        <time>2017-07-19T06:08:16Z</time>
      </trkpt>
      <trkpt lat="47.8553" lon="5.87603">
        <ele>208.60000610352</ele>
        <time>2017-07-19T06:08:17Z</time>
      </trkpt>
      <trkpt lat="47.85547" lon="5.87629">
        <ele>208.60000610352</ele>
        <time>2017-07-19T06:08:22Z</time>
      </trkpt>
      <trkpt lat="47.85555" lon="5.87637">
        <ele>208.80000305176</ele>
        <time>2017-07-19T06:08:24Z</time>
      </trkpt>
      <trkpt lat="47.85582" lon="5.87657">
        <ele>209.60000610352</ele>
        <time>2017-07-19T06:08:32Z</time>
      </trkpt>
      <trkpt lat="47.85598" lon="5.8767">
        <ele>210.39999389648</ele>
        <time>2017-07-19T06:08:38Z</time>
      </trkpt>
      <trkpt lat="47.856" lon="5.87673">
        <ele>210.60000610352</ele>
        <time>2017-07-19T06:08:39Z</time>
      </trkpt>
      <trkpt lat="47.85609" lon="5.87682">
        <ele>211.39999389648</ele>
        <time>2017-07-19T06:08:43Z</time>
      </trkpt>
      <trkpt lat="47.85617" lon="5.8769">
        <ele>212.19999694824</ele>
        <time>2017-07-19T06:08:47Z</time>
      </trkpt>
      <trkpt lat="47.85621" lon="5.87695">
        <ele>213</ele>
        <time>2017-07-19T06:08:49Z</time>
      </trkpt>
      <trkpt lat="47.85628" lon="5.87708">
        <ele>214</ele>
        <time>2017-07-19T06:08:54Z</time>
      </trkpt>
      <trkpt lat="47.85634" lon="5.87724">
        <ele>215</ele>
        <time>2017-07-19T06:08:59Z</time>
      </trkpt>
      <trkpt lat="47.85639" lon="5.87732">
        <ele>215.60000610352</ele>
        <time>2017-07-19T06:09:02Z</time>
      </trkpt>
      <trkpt lat="47.85644" lon="5.87744">
        <ele>216.19999694824</ele>
        <time>2017-07-19T06:09:06Z</time>
      </trkpt>
      <trkpt lat="47.85648" lon="5.87752">
        <ele>216.80000305176</ele>
        <time>2017-07-19T06:09:09Z</time>
      </trkpt>
      <trkpt lat="47.85653" lon="5.8776">
        <ele>217.19999694824</ele>
        <time>2017-07-19T06:09:12Z</time>
      </trkpt>
      <trkpt lat="47.85662" lon="5.8777">
        <ele>218.39999389648</ele>
        <time>2017-07-19T06:09:17Z</time>
      </trkpt>
      <trkpt lat="47.85673" lon="5.87781">
        <ele>219.39999389648</ele>
        <time>2017-07-19T06:09:23Z</time>
      </trkpt>
      <trkpt lat="47.85675" lon="5.87783">
        <ele>219.60000610352</ele>
        <time>2017-07-19T06:09:24Z</time>
      </trkpt>
      <trkpt lat="47.8568" lon="5.87789">
        <ele>220</ele>
        <time>2017-07-19T06:09:27Z</time>
      </trkpt>
      <trkpt lat="47.85684" lon="5.87791">
        <ele>220.19999694824</ele>
        <time>2017-07-19T06:09:29Z</time>
      </trkpt>
      <trkpt lat="47.85688" lon="5.87795">
        <ele>220.60000610352</ele>
        <time>2017-07-19T06:09:31Z</time>
      </trkpt>
      <trkpt lat="47.85697" lon="5.87803">
        <ele>221.60000610352</ele>
        <time>2017-07-19T06:09:36Z</time>
      </trkpt>
      <trkpt lat="47.85703" lon="5.87807">
        <ele>222.19999694824</ele>
        <time>2017-07-19T06:09:39Z</time>
      </trkpt>
      <trkpt lat="47.85711" lon="5.87813">
        <ele>222.80000305176</ele>
        <time>2017-07-19T06:09:43Z</time>
      </trkpt>
      <trkpt lat="47.85717" lon="5.87818">
        <ele>223.19999694824</ele>
        <time>2017-07-19T06:09:46Z</time>
      </trkpt>
      <trkpt lat="47.85725" lon="5.87823">
        <ele>223.80000305176</ele>
        <time>2017-07-19T06:09:50Z</time>
      </trkpt>
      <trkpt lat="47.85729" lon="5.87826">
        <ele>224.19999694824</ele>
        <time>2017-07-19T06:09:52Z</time>
      </trkpt>
      <trkpt lat="47.85738" lon="5.87834">
        <ele>224.80000305176</ele>
        <time>2017-07-19T06:09:57Z</time>
      </trkpt>
      <trkpt lat="47.85742" lon="5.87838">
        <ele>225.19999694824</ele>
        <time>2017-07-19T06:09:59Z</time>
      </trkpt>
      <trkpt lat="47.85754" lon="5.87846">
        <ele>226</ele>
        <time>2017-07-19T06:10:05Z</time>
      </trkpt>
      <trkpt lat="47.85756" lon="5.87847">
        <ele>226.19999694824</ele>
        <time>2017-07-19T06:10:06Z</time>
      </trkpt>
      <trkpt lat="47.85766" lon="5.87854">
        <ele>227.19999694824</ele>
        <time>2017-07-19T06:10:11Z</time>
      </trkpt>
      <trkpt lat="47.85768" lon="5.87855">
        <ele>227.19999694824</ele>
        <time>2017-07-19T06:10:12Z</time>
      </trkpt>
      <trkpt lat="47.85784" lon="5.87865">
        <ele>228.19999694824</ele>
        <time>2017-07-19T06:10:19Z</time>
      </trkpt>
      <trkpt lat="47.85798" lon="5.87878">
        <ele>229</ele>
        <time>2017-07-19T06:10:26Z</time>
      </trkpt>
      <trkpt lat="47.85799" lon="5.87881">
        <ele>229.19999694824</ele>
        <time>2017-07-19T06:10:27Z</time>
      </trkpt>
      <trkpt lat="47.85806" lon="5.87902">
        <ele>230</ele>
        <time>2017-07-19T06:10:33Z</time>
      </trkpt>
      <trkpt lat="47.85807" lon="5.87912">
        <ele>230.39999389648</ele>
        <time>2017-07-19T06:10:35Z</time>
      </trkpt>
      <trkpt lat="47.85811" lon="5.87928">
        <ele>230.60000610352</ele>
        <time>2017-07-19T06:10:39Z</time>
      </trkpt>
      <trkpt lat="47.85819" lon="5.87958">
        <ele>231</ele>
        <time>2017-07-19T06:10:46Z</time>
      </trkpt>
      <trkpt lat="47.8583" lon="5.87998">
        <ele>231.19999694824</ele>
        <time>2017-07-19T06:10:53Z</time>
      </trkpt>
      <trkpt lat="47.85843" lon="5.88045">
        <ele>230.60000610352</ele>
        <time>2017-07-19T06:11:00Z</time>
      </trkpt>
      <trkpt lat="47.85855" lon="5.88096">
        <ele>230.19999694824</ele>
        <time>2017-07-19T06:11:07Z</time>
      </trkpt>
      <trkpt lat="47.85868" lon="5.88149">
        <ele>229.39999389648</ele>
        <time>2017-07-19T06:11:14Z</time>
      </trkpt>
      <trkpt lat="47.85871" lon="5.88164">
        <ele>229.19999694824</ele>
        <time>2017-07-19T06:11:16Z</time>
      </trkpt>
      <trkpt lat="47.85873" lon="5.88171">
        <ele>229.19999694824</ele>
        <time>2017-07-19T06:11:17Z</time>
      </trkpt>
      <trkpt lat="47.85874" lon="5.88194">
        <ele>229.19999694824</ele>
        <time>2017-07-19T06:11:20Z</time>
      </trkpt>
      <trkpt lat="47.85869" lon="5.88225">
        <ele>228.60000610352</ele>
        <time>2017-07-19T06:11:24Z</time>
      </trkpt>
      <trkpt lat="47.85873" lon="5.8824">
        <ele>228.19999694824</ele>
        <time>2017-07-19T06:11:26Z</time>
      </trkpt>
      <trkpt lat="47.85877" lon="5.88245">
        <ele>228</ele>
        <time>2017-07-19T06:11:27Z</time>
      </trkpt>
      <trkpt lat="47.85886" lon="5.88255">
        <ele>227.80000305176</ele>
        <time>2017-07-19T06:11:29Z</time>
      </trkpt>
      <trkpt lat="47.85904" lon="5.88272">
        <ele>227.39999389648</ele>
        <time>2017-07-19T06:11:33Z</time>
      </trkpt>
      <trkpt lat="47.85933" lon="5.88304">
        <ele>227.60000610352</ele>
        <time>2017-07-19T06:11:40Z</time>
      </trkpt>
      <trkpt lat="47.85962" lon="5.88343">
        <ele>227.60000610352</ele>
        <time>2017-07-19T06:11:47Z</time>
      </trkpt>
      <trkpt lat="47.8598" lon="5.88368">
        <ele>227.19999694824</ele>
        <time>2017-07-19T06:11:51Z</time>
      </trkpt>
      <trkpt lat="47.85989" lon="5.8838">
        <ele>227</ele>
        <time>2017-07-19T06:11:53Z</time>
      </trkpt>
      <trkpt lat="47.86019" lon="5.8842">
        <ele>226.80000305176</ele>
        <time>2017-07-19T06:12:00Z</time>
      </trkpt>
      <trkpt lat="47.86036" lon="5.88447">
        <ele>227.19999694824</ele>
        <time>2017-07-19T06:12:05Z</time>
      </trkpt>
      <trkpt lat="47.86041" lon="5.88458">
        <ele>227.39999389648</ele>
        <time>2017-07-19T06:12:07Z</time>
      </trkpt>
      <trkpt lat="47.86043" lon="5.88464">
        <ele>227.60000610352</ele>
        <time>2017-07-19T06:12:08Z</time>
      </trkpt>
      <trkpt lat="47.86053" lon="5.8849">
        <ele>228</ele>
        <time>2017-07-19T06:12:13Z</time>
      </trkpt>
      <trkpt lat="47.86049" lon="5.88507">
        <ele>228</ele>
        <time>2017-07-19T06:12:16Z</time>
      </trkpt>
      <trkpt lat="47.86046" lon="5.88512">
        <ele>228</ele>
        <time>2017-07-19T06:12:17Z</time>
      </trkpt>
      <trkpt lat="47.86034" lon="5.88528">
        <ele>227.80000305176</ele>
        <time>2017-07-19T06:12:20Z</time>
      </trkpt>
      <trkpt lat="47.86008" lon="5.88558">
        <ele>226.60000610352</ele>
        <time>2017-07-19T06:12:25Z</time>
      </trkpt>
      <trkpt lat="47.86002" lon="5.88565">
        <ele>225.80000305176</ele>
        <time>2017-07-19T06:12:26Z</time>
      </trkpt>
      <trkpt lat="47.85984" lon="5.88582">
        <ele>224.80000305176</ele>
        <time>2017-07-19T06:12:29Z</time>
      </trkpt>
      <trkpt lat="47.85971" lon="5.88593">
        <ele>224</ele>
        <time>2017-07-19T06:12:31Z</time>
      </trkpt>
      <trkpt lat="47.85965" lon="5.88596">
        <ele>223.39999389648</ele>
        <time>2017-07-19T06:12:32Z</time>
      </trkpt>
      <trkpt lat="47.85946" lon="5.88606">
        <ele>222</ele>
        <time>2017-07-19T06:12:35Z</time>
      </trkpt>
      <trkpt lat="47.85939" lon="5.88609">
        <ele>221.39999389648</ele>
        <time>2017-07-19T06:12:36Z</time>
      </trkpt>
      <trkpt lat="47.85933" lon="5.88612">
        <ele>221</ele>
        <time>2017-07-19T06:12:37Z</time>
      </trkpt>
      <trkpt lat="47.85915" lon="5.88619">
        <ele>219.80000305176</ele>
        <time>2017-07-19T06:12:40Z</time>
      </trkpt>
      <trkpt lat="47.85899" lon="5.88626">
        <ele>218.60000610352</ele>
        <time>2017-07-19T06:12:43Z</time>
      </trkpt>
      <trkpt lat="47.85882" lon="5.88635">
        <ele>217.39999389648</ele>
        <time>2017-07-19T06:12:46Z</time>
      </trkpt>
      <trkpt lat="47.85866" lon="5.88643">
        <ele>216.80000305176</ele>
        <time>2017-07-19T06:12:49Z</time>
      </trkpt>
      <trkpt lat="47.85861" lon="5.88645">
        <ele>216.19999694824</ele>
        <time>2017-07-19T06:12:50Z</time>
      </trkpt>
      <trkpt lat="47.85848" lon="5.88651">
        <ele>215.60000610352</ele>
        <time>2017-07-19T06:12:53Z</time>
      </trkpt>
      <trkpt lat="47.85839" lon="5.88655">
        <ele>215</ele>
        <time>2017-07-19T06:12:55Z</time>
      </trkpt>
      <trkpt lat="47.85833" lon="5.8866">
        <ele>214.80000305176</ele>
        <time>2017-07-19T06:12:57Z</time>
      </trkpt>
      <trkpt lat="47.85825" lon="5.88666">
        <ele>214.60000610352</ele>
        <time>2017-07-19T06:13:00Z</time>
      </trkpt>
      <trkpt lat="47.85809" lon="5.88674">
        <ele>214</ele>
        <time>2017-07-19T06:13:05Z</time>
      </trkpt>
      <trkpt lat="47.858" lon="5.88678">
        <ele>213.80000305176</ele>
        <time>2017-07-19T06:13:08Z</time>
      </trkpt>
      <trkpt lat="47.85785" lon="5.88686">
        <ele>213.39999389648</ele>
        <time>2017-07-19T06:13:15Z</time>
      </trkpt>
      <trkpt lat="47.85783" lon="5.88689">
        <ele>213.19999694824</ele>
        <time>2017-07-19T06:13:17Z</time>
      </trkpt>
      <trkpt lat="47.85785" lon="5.88692">
        <ele>213</ele>
        <time>2017-07-19T06:13:19Z</time>
      </trkpt>
      <trkpt lat="47.85793" lon="5.88687">
        <ele>213</ele>
        <time>2017-07-19T06:13:22Z</time>
      </trkpt>
      <trkpt lat="47.85796" lon="5.88685">
        <ele>213</ele>
        <time>2017-07-19T06:13:23Z</time>
      </trkpt>
      <trkpt lat="47.85817" lon="5.88674">
        <ele>213</ele>
        <time>2017-07-19T06:13:28Z</time>
      </trkpt>
      <trkpt lat="47.85826" lon="5.88669">
        <ele>213.19999694824</ele>
        <time>2017-07-19T06:13:30Z</time>
      </trkpt>
      <trkpt lat="47.85849" lon="5.88656">
        <ele>213.60000610352</ele>
        <time>2017-07-19T06:13:35Z</time>
      </trkpt>
      <trkpt lat="47.85878" lon="5.88641">
        <ele>214.60000610352</ele>
        <time>2017-07-19T06:13:42Z</time>
      </trkpt>
      <trkpt lat="47.8588" lon="5.88641">
        <ele>214.60000610352</ele>
        <time>2017-07-19T06:13:43Z</time>
      </trkpt>
      <trkpt lat="47.85883" lon="5.88647">
        <ele>214.80000305176</ele>
        <time>2017-07-19T06:13:45Z</time>
      </trkpt>
      <trkpt lat="47.85883" lon="5.88653">
        <ele>215</ele>
        <time>2017-07-19T06:13:47Z</time>
      </trkpt>
      <trkpt lat="47.85885" lon="5.88659">
        <ele>215</ele>
        <time>2017-07-19T06:13:49Z</time>
      </trkpt>
      <trkpt lat="47.85887" lon="5.88666">
        <ele>215.19999694824</ele>
        <time>2017-07-19T06:13:51Z</time>
      </trkpt>
      <trkpt lat="47.85891" lon="5.88683">
        <ele>215.39999389648</ele>
        <time>2017-07-19T06:13:55Z</time>
      </trkpt>
      <trkpt lat="47.85891" lon="5.88687">
        <ele>216</ele>
        <time>2017-07-19T06:16:47Z</time>
      </trkpt>
      <trkpt lat="47.85895" lon="5.88702">
        <ele>216</ele>
        <time>2017-07-19T06:16:51Z</time>
      </trkpt>
      <trkpt lat="47.85899" lon="5.88712">
        <ele>216</ele>
        <time>2017-07-19T06:16:53Z</time>
      </trkpt>
      <trkpt lat="47.85908" lon="5.88736">
        <ele>216</ele>
        <time>2017-07-19T06:16:57Z</time>
      </trkpt>
      <trkpt lat="47.85928" lon="5.8878">
        <ele>216.19999694824</ele>
        <time>2017-07-19T06:17:04Z</time>
      </trkpt>
      <trkpt lat="47.85943" lon="5.88812">
        <ele>215.39999389648</ele>
        <time>2017-07-19T06:17:09Z</time>
      </trkpt>
      <trkpt lat="47.85946" lon="5.88818">
        <ele>215.39999389648</ele>
        <time>2017-07-19T06:17:10Z</time>
      </trkpt>
      <trkpt lat="47.85964" lon="5.88859">
        <ele>215.19999694824</ele>
        <time>2017-07-19T06:17:16Z</time>
      </trkpt>
      <trkpt lat="47.85968" lon="5.88865">
        <ele>215.19999694824</ele>
        <time>2017-07-19T06:17:17Z</time>
      </trkpt>
      <trkpt lat="47.85977" lon="5.88884">
        <ele>215</ele>
        <time>2017-07-19T06:17:20Z</time>
      </trkpt>
      <trkpt lat="47.8598" lon="5.88891">
        <ele>215</ele>
        <time>2017-07-19T06:17:21Z</time>
      </trkpt>
      <trkpt lat="47.85983" lon="5.88898">
        <ele>215</ele>
        <time>2017-07-19T06:17:22Z</time>
      </trkpt>
      <trkpt lat="47.85987" lon="5.88928">
        <ele>214.80000305176</ele>
        <time>2017-07-19T06:17:26Z</time>
      </trkpt>
      <trkpt lat="47.85983" lon="5.88952">
        <ele>215</ele>
        <time>2017-07-19T06:17:29Z</time>
      </trkpt>
      <trkpt lat="47.85979" lon="5.88968">
        <ele>215</ele>
        <time>2017-07-19T06:17:31Z</time>
      </trkpt>
      <trkpt lat="47.85964" lon="5.88994">
        <ele>215</ele>
        <time>2017-07-19T06:17:35Z</time>
      </trkpt>
      <trkpt lat="47.85961" lon="5.89">
        <ele>215</ele>
        <time>2017-07-19T06:17:36Z</time>
      </trkpt>
      <trkpt lat="47.85956" lon="5.89005">
        <ele>215</ele>
        <time>2017-07-19T06:17:37Z</time>
      </trkpt>
      <trkpt lat="47.85939" lon="5.89026">
        <ele>215</ele>
        <time>2017-07-19T06:17:41Z</time>
      </trkpt>
      <trkpt lat="47.85912" lon="5.89052">
        <ele>215</ele>
        <time>2017-07-19T06:17:47Z</time>
      </trkpt>
      <trkpt lat="47.85907" lon="5.89055">
        <ele>215</ele>
        <time>2017-07-19T06:17:48Z</time>
      </trkpt>
      <trkpt lat="47.85874" lon="5.89065">
        <ele>214.80000305176</ele>
        <time>2017-07-19T06:17:54Z</time>
      </trkpt>
      <trkpt lat="47.85863" lon="5.89067">
        <ele>214.60000610352</ele>
        <time>2017-07-19T06:17:56Z</time>
      </trkpt>
      <trkpt lat="47.85843" lon="5.89071">
        <ele>214.60000610352</ele>
        <time>2017-07-19T06:18:00Z</time>
      </trkpt>
      <trkpt lat="47.85816" lon="5.8909">
        <ele>214.39999389648</ele>
        <time>2017-07-19T06:18:06Z</time>
      </trkpt>
      <trkpt lat="47.85795" lon="5.89121">
        <ele>214.39999389648</ele>
        <time>2017-07-19T06:18:12Z</time>
      </trkpt>
      <trkpt lat="47.85792" lon="5.89126">
        <ele>214.39999389648</ele>
        <time>2017-07-19T06:18:13Z</time>
      </trkpt>
      <trkpt lat="47.85773" lon="5.89181">
        <ele>214.60000610352</ele>
        <time>2017-07-19T06:18:22Z</time>
      </trkpt>
      <trkpt lat="47.85769" lon="5.892">
        <ele>214.80000305176</ele>
        <time>2017-07-19T06:18:25Z</time>
      </trkpt>
      <trkpt lat="47.85767" lon="5.89225">
        <ele>215</ele>
        <time>2017-07-19T06:18:29Z</time>
      </trkpt>
      <trkpt lat="47.85762" lon="5.8928">
        <ele>215.39999389648</ele>
        <time>2017-07-19T06:18:38Z</time>
      </trkpt>
      <trkpt lat="47.85756" lon="5.89309">
        <ele>216.19999694824</ele>
        <time>2017-07-19T06:18:44Z</time>
      </trkpt>
      <trkpt lat="47.85747" lon="5.89331">
        <ele>217.39999389648</ele>
        <time>2017-07-19T06:18:50Z</time>
      </trkpt>
      <trkpt lat="47.85744" lon="5.89338">
        <ele>217.80000305176</ele>
        <time>2017-07-19T06:18:52Z</time>
      </trkpt>
      <trkpt lat="47.85741" lon="5.89348">
        <ele>218.39999389648</ele>
        <time>2017-07-19T06:18:55Z</time>
      </trkpt>
      <trkpt lat="47.85738" lon="5.89358">
        <ele>219</ele>
        <time>2017-07-19T06:18:58Z</time>
      </trkpt>
      <trkpt lat="47.85735" lon="5.89364">
        <ele>219.60000610352</ele>
        <time>2017-07-19T06:19:00Z</time>
      </trkpt>
      <trkpt lat="47.85731" lon="5.89381">
        <ele>220.60000610352</ele>
        <time>2017-07-19T06:19:05Z</time>
      </trkpt>
      <trkpt lat="47.85729" lon="5.89399">
        <ele>222</ele>
        <time>2017-07-19T06:19:10Z</time>
      </trkpt>
      <trkpt lat="47.85729" lon="5.89409">
        <ele>222.60000610352</ele>
        <time>2017-07-19T06:19:13Z</time>
      </trkpt>
      <trkpt lat="47.85729" lon="5.89417">
        <ele>223</ele>
        <time>2017-07-19T06:19:15Z</time>
      </trkpt>
      <trkpt lat="47.8573" lon="5.89434">
        <ele>223.80000305176</ele>
        <time>2017-07-19T06:19:20Z</time>
      </trkpt>
      <trkpt lat="47.8573" lon="5.89442">
        <ele>224</ele>
        <time>2017-07-19T06:19:22Z</time>
      </trkpt>
      <trkpt lat="47.85732" lon="5.89457">
        <ele>224.60000610352</ele>
        <time>2017-07-19T06:19:26Z</time>
      </trkpt>
      <trkpt lat="47.85733" lon="5.89468">
        <ele>225.19999694824</ele>
        <time>2017-07-19T06:19:29Z</time>
      </trkpt>
      <trkpt lat="47.85738" lon="5.89495">
        <ele>226</ele>
        <time>2017-07-19T06:19:36Z</time>
      </trkpt>
      <trkpt lat="47.85738" lon="5.89498">
        <ele>226.19999694824</ele>
        <time>2017-07-19T06:19:37Z</time>
      </trkpt>
      <trkpt lat="47.85741" lon="5.89525">
        <ele>226.80000305176</ele>
        <time>2017-07-19T06:19:44Z</time>
      </trkpt>
      <trkpt lat="47.85741" lon="5.89536">
        <ele>227.19999694824</ele>
        <time>2017-07-19T06:19:47Z</time>
      </trkpt>
      <trkpt lat="47.85736" lon="5.89557">
        <ele>228</ele>
        <time>2017-07-19T06:19:53Z</time>
      </trkpt>
      <trkpt lat="47.85735" lon="5.89561">
        <ele>228.19999694824</ele>
        <time>2017-07-19T06:19:54Z</time>
      </trkpt>
      <trkpt lat="47.8573" lon="5.89575">
        <ele>229</ele>
        <time>2017-07-19T06:19:59Z</time>
      </trkpt>
      <trkpt lat="47.85729" lon="5.89578">
        <ele>229.39999389648</ele>
        <time>2017-07-19T06:20:00Z</time>
      </trkpt>
      <trkpt lat="47.85724" lon="5.89588">
        <ele>230.39999389648</ele>
        <time>2017-07-19T06:20:04Z</time>
      </trkpt>
      <trkpt lat="47.85723" lon="5.8959">
        <ele>230.60000610352</ele>
        <time>2017-07-19T06:20:05Z</time>
      </trkpt>
      <trkpt lat="47.85719" lon="5.896">
        <ele>231.39999389648</ele>
        <time>2017-07-19T06:20:09Z</time>
      </trkpt>
      <trkpt lat="47.85715" lon="5.89612">
        <ele>232.39999389648</ele>
        <time>2017-07-19T06:20:14Z</time>
      </trkpt>
      <trkpt lat="47.85714" lon="5.89614">
        <ele>232.60000610352</ele>
        <time>2017-07-19T06:20:15Z</time>
      </trkpt>
      <trkpt lat="47.8571" lon="5.89625">
        <ele>233.39999389648</ele>
        <time>2017-07-19T06:20:19Z</time>
      </trkpt>
      <trkpt lat="47.85707" lon="5.89633">
        <ele>234</ele>
        <time>2017-07-19T06:20:22Z</time>
      </trkpt>
      <trkpt lat="47.85703" lon="5.8964">
        <ele>234.60000610352</ele>
        <time>2017-07-19T06:20:25Z</time>
      </trkpt>
      <trkpt lat="47.85698" lon="5.89651">
        <ele>235.80000305176</ele>
        <time>2017-07-19T06:20:29Z</time>
      </trkpt>
      <trkpt lat="47.85697" lon="5.89654">
        <ele>236</ele>
        <time>2017-07-19T06:20:30Z</time>
      </trkpt>
      <trkpt lat="47.85689" lon="5.89672">
        <ele>236.80000305176</ele>
        <time>2017-07-19T06:20:36Z</time>
      </trkpt>
      <trkpt lat="47.85686" lon="5.89678">
        <ele>237</ele>
        <time>2017-07-19T06:20:38Z</time>
      </trkpt>
      <trkpt lat="47.85677" lon="5.89698">
        <ele>237.60000610352</ele>
        <time>2017-07-19T06:20:44Z</time>
      </trkpt>
      <trkpt lat="47.85668" lon="5.89717">
        <ele>237.80000305176</ele>
        <time>2017-07-19T06:20:49Z</time>
      </trkpt>
      <trkpt lat="47.8565" lon="5.89745">
        <ele>237.39999389648</ele>
        <time>2017-07-19T06:20:55Z</time>
      </trkpt>
      <trkpt lat="47.85631" lon="5.89776">
        <ele>236.60000610352</ele>
        <time>2017-07-19T06:21:00Z</time>
      </trkpt>
      <trkpt lat="47.85628" lon="5.89783">
        <ele>236.39999389648</ele>
        <time>2017-07-19T06:21:01Z</time>
      </trkpt>
      <trkpt lat="47.85618" lon="5.89808">
        <ele>235.80000305176</ele>
        <time>2017-07-19T06:21:04Z</time>
      </trkpt>
      <trkpt lat="47.85614" lon="5.89827">
        <ele>235.19999694824</ele>
        <time>2017-07-19T06:21:06Z</time>
      </trkpt>
      <trkpt lat="47.85611" lon="5.89847">
        <ele>234.80000305176</ele>
        <time>2017-07-19T06:21:08Z</time>
      </trkpt>
      <trkpt lat="47.85603" lon="5.8989">
        <ele>233.60000610352</ele>
        <time>2017-07-19T06:21:12Z</time>
      </trkpt>
      <trkpt lat="47.85599" lon="5.89912">
        <ele>232.80000305176</ele>
        <time>2017-07-19T06:21:14Z</time>
      </trkpt>
      <trkpt lat="47.85597" lon="5.89924">
        <ele>232.39999389648</ele>
        <time>2017-07-19T06:21:15Z</time>
      </trkpt>
      <trkpt lat="47.8559" lon="5.89961">
        <ele>231.39999389648</ele>
        <time>2017-07-19T06:21:18Z</time>
      </trkpt>
      <trkpt lat="47.85585" lon="5.89987">
        <ele>230.60000610352</ele>
        <time>2017-07-19T06:21:20Z</time>
      </trkpt>
      <trkpt lat="47.85583" lon="5.90001">
        <ele>230</ele>
        <time>2017-07-19T06:21:21Z</time>
      </trkpt>
      <trkpt lat="47.85578" lon="5.90028">
        <ele>229</ele>
        <time>2017-07-19T06:21:23Z</time>
      </trkpt>
      <trkpt lat="47.85573" lon="5.90056">
        <ele>227.80000305176</ele>
        <time>2017-07-19T06:21:25Z</time>
      </trkpt>
      <trkpt lat="47.85568" lon="5.90083">
        <ele>226.80000305176</ele>
        <time>2017-07-19T06:21:27Z</time>
      </trkpt>
      <trkpt lat="47.85566" lon="5.90097">
        <ele>226.19999694824</ele>
        <time>2017-07-19T06:21:28Z</time>
      </trkpt>
      <trkpt lat="47.85564" lon="5.9011">
        <ele>225.60000610352</ele>
        <time>2017-07-19T06:21:29Z</time>
      </trkpt>
      <trkpt lat="47.85559" lon="5.90149">
        <ele>224.39999389648</ele>
        <time>2017-07-19T06:21:32Z</time>
      </trkpt>
      <trkpt lat="47.85558" lon="5.90174">
        <ele>223.80000305176</ele>
        <time>2017-07-19T06:21:34Z</time>
      </trkpt>
      <trkpt lat="47.85559" lon="5.90198">
        <ele>223.19999694824</ele>
        <time>2017-07-19T06:21:36Z</time>
      </trkpt>
      <trkpt lat="47.85563" lon="5.90245">
        <ele>222.19999694824</ele>
        <time>2017-07-19T06:21:40Z</time>
      </trkpt>
      <trkpt lat="47.85566" lon="5.90269">
        <ele>222</ele>
        <time>2017-07-19T06:21:42Z</time>
      </trkpt>
      <trkpt lat="47.8558" lon="5.90338">
        <ele>221.19999694824</ele>
        <time>2017-07-19T06:21:48Z</time>
      </trkpt>
      <trkpt lat="47.85587" lon="5.90359">
        <ele>221</ele>
        <time>2017-07-19T06:21:50Z</time>
      </trkpt>
      <trkpt lat="47.85601" lon="5.90388">
        <ele>220.80000305176</ele>
        <time>2017-07-19T06:21:53Z</time>
      </trkpt>
      <trkpt lat="47.85629" lon="5.90441">
        <ele>219.80000305176</ele>
        <time>2017-07-19T06:21:59Z</time>
      </trkpt>
      <trkpt lat="47.85647" lon="5.90476">
        <ele>219.60000610352</ele>
        <time>2017-07-19T06:22:03Z</time>
      </trkpt>
      <trkpt lat="47.85679" lon="5.9054">
        <ele>219.80000305176</ele>
        <time>2017-07-19T06:22:11Z</time>
      </trkpt>
      <trkpt lat="47.85702" lon="5.90588">
        <ele>220.19999694824</ele>
        <time>2017-07-19T06:22:18Z</time>
      </trkpt>
      <trkpt lat="47.85718" lon="5.9062">
        <ele>221</ele>
        <time>2017-07-19T06:22:23Z</time>
      </trkpt>
      <trkpt lat="47.85724" lon="5.90633">
        <ele>221.19999694824</ele>
        <time>2017-07-19T06:22:25Z</time>
      </trkpt>
      <trkpt lat="47.85744" lon="5.90669">
        <ele>222</ele>
        <time>2017-07-19T06:22:31Z</time>
      </trkpt>
      <trkpt lat="47.85754" lon="5.90684">
        <ele>222.60000610352</ele>
        <time>2017-07-19T06:22:34Z</time>
      </trkpt>
      <trkpt lat="47.85765" lon="5.90699">
        <ele>223.19999694824</ele>
        <time>2017-07-19T06:22:37Z</time>
      </trkpt>
      <trkpt lat="47.85786" lon="5.90724">
        <ele>223.39999389648</ele>
        <time>2017-07-19T06:22:42Z</time>
      </trkpt>
      <trkpt lat="47.85812" lon="5.90755">
        <ele>223</ele>
        <time>2017-07-19T06:22:48Z</time>
      </trkpt>
      <trkpt lat="47.85844" lon="5.90796">
        <ele>223</ele>
        <time>2017-07-19T06:22:56Z</time>
      </trkpt>
      <trkpt lat="47.85855" lon="5.90819">
        <ele>223.39999389648</ele>
        <time>2017-07-19T06:23:01Z</time>
      </trkpt>
      <trkpt lat="47.85857" lon="5.90852">
        <ele>223.39999389648</ele>
        <time>2017-07-19T06:23:06Z</time>
      </trkpt>
      <trkpt lat="47.85861" lon="5.90912">
        <ele>223.19999694824</ele>
        <time>2017-07-19T06:23:13Z</time>
      </trkpt>
      <trkpt lat="47.85867" lon="5.90991">
        <ele>222</ele>
        <time>2017-07-19T06:23:21Z</time>
      </trkpt>
      <trkpt lat="47.85867" lon="5.91064">
        <ele>221.19999694824</ele>
        <time>2017-07-19T06:23:28Z</time>
      </trkpt>
      <trkpt lat="47.85867" lon="5.91075">
        <ele>221</ele>
        <time>2017-07-19T06:23:29Z</time>
      </trkpt>
      <trkpt lat="47.85861" lon="5.9113">
        <ele>219.80000305176</ele>
        <time>2017-07-19T06:23:34Z</time>
      </trkpt>
      <trkpt lat="47.85854" lon="5.91185">
        <ele>218.80000305176</ele>
        <time>2017-07-19T06:23:39Z</time>
      </trkpt>
      <trkpt lat="47.85851" lon="5.91214">
        <ele>218.39999389648</ele>
        <time>2017-07-19T06:23:42Z</time>
      </trkpt>
      <trkpt lat="47.85846" lon="5.91263">
        <ele>218.80000305176</ele>
        <time>2017-07-19T06:23:48Z</time>
      </trkpt>
      <trkpt lat="47.85845" lon="5.91283">
        <ele>219.19999694824</ele>
        <time>2017-07-19T06:23:51Z</time>
      </trkpt>
      <trkpt lat="47.85846" lon="5.91303">
        <ele>219.60000610352</ele>
        <time>2017-07-19T06:23:54Z</time>
      </trkpt>
      <trkpt lat="47.85847" lon="5.9131">
        <ele>219.80000305176</ele>
        <time>2017-07-19T06:23:55Z</time>
      </trkpt>
      <trkpt lat="47.85848" lon="5.91317">
        <ele>220</ele>
        <time>2017-07-19T06:23:56Z</time>
      </trkpt>
      <trkpt lat="47.85855" lon="5.91336">
        <ele>220.19999694824</ele>
        <time>2017-07-19T06:23:59Z</time>
      </trkpt>
      <trkpt lat="47.85872" lon="5.91373">
        <ele>220.60000610352</ele>
        <time>2017-07-19T06:24:05Z</time>
      </trkpt>
      <trkpt lat="47.85904" lon="5.91442">
        <ele>220.39999389648</ele>
        <time>2017-07-19T06:24:15Z</time>
      </trkpt>
      <trkpt lat="47.85936" lon="5.91508">
        <ele>219.60000610352</ele>
        <time>2017-07-19T06:24:24Z</time>
      </trkpt>
      <trkpt lat="47.85956" lon="5.91549">
        <ele>218.80000305176</ele>
        <time>2017-07-19T06:24:29Z</time>
      </trkpt>
      <trkpt lat="47.85976" lon="5.91591">
        <ele>218</ele>
        <time>2017-07-19T06:24:34Z</time>
      </trkpt>
      <trkpt lat="47.85985" lon="5.91607">
        <ele>217.60000610352</ele>
        <time>2017-07-19T06:24:36Z</time>
      </trkpt>
      <trkpt lat="47.86012" lon="5.91647">
        <ele>216.39999389648</ele>
        <time>2017-07-19T06:24:41Z</time>
      </trkpt>
      <trkpt lat="47.86034" lon="5.91677">
        <ele>215.19999694824</ele>
        <time>2017-07-19T06:24:45Z</time>
      </trkpt>
      <trkpt lat="47.86055" lon="5.91706">
        <ele>214.39999389648</ele>
        <time>2017-07-19T06:24:49Z</time>
      </trkpt>
      <trkpt lat="47.86067" lon="5.9172">
        <ele>214</ele>
        <time>2017-07-19T06:24:51Z</time>
      </trkpt>
      <trkpt lat="47.86096" lon="5.91754">
        <ele>213.19999694824</ele>
        <time>2017-07-19T06:24:56Z</time>
      </trkpt>
      <trkpt lat="47.86102" lon="5.9176">
        <ele>213</ele>
        <time>2017-07-19T06:24:57Z</time>
      </trkpt>
      <trkpt lat="47.86135" lon="5.91795">
        <ele>211.80000305176</ele>
        <time>2017-07-19T06:25:02Z</time>
      </trkpt>
      <trkpt lat="47.86142" lon="5.91803">
        <ele>211.60000610352</ele>
        <time>2017-07-19T06:25:03Z</time>
      </trkpt>
      <trkpt lat="47.86164" lon="5.91838">
        <ele>210.60000610352</ele>
        <time>2017-07-19T06:25:07Z</time>
      </trkpt>
      <trkpt lat="47.86168" lon="5.91847">
        <ele>210.39999389648</ele>
        <time>2017-07-19T06:25:08Z</time>
      </trkpt>
      <trkpt lat="47.86172" lon="5.91878">
        <ele>209.80000305176</ele>
        <time>2017-07-19T06:25:11Z</time>
      </trkpt>
      <trkpt lat="47.86173" lon="5.91888">
        <ele>209.60000610352</ele>
        <time>2017-07-19T06:25:12Z</time>
      </trkpt>
      <trkpt lat="47.86174" lon="5.91898">
        <ele>209.60000610352</ele>
        <time>2017-07-19T06:25:13Z</time>
      </trkpt>
      <trkpt lat="47.86173" lon="5.91935">
        <ele>209.60000610352</ele>
        <time>2017-07-19T06:25:17Z</time>
      </trkpt>
      <trkpt lat="47.8617" lon="5.91979">
        <ele>210</ele>
        <time>2017-07-19T06:25:23Z</time>
      </trkpt>
      <trkpt lat="47.86168" lon="5.91992">
        <ele>209.80000305176</ele>
        <time>2017-07-19T06:25:27Z</time>
      </trkpt>
      <trkpt lat="47.86168" lon="5.92002">
        <ele>209.60000610352</ele>
        <time>2017-07-19T06:25:30Z</time>
      </trkpt>
      <trkpt lat="47.86171" lon="5.92009">
        <ele>209.39999389648</ele>
        <time>2017-07-19T06:25:32Z</time>
      </trkpt>
      <trkpt lat="47.86187" lon="5.92034">
        <ele>209.60000610352</ele>
        <time>2017-07-19T06:25:39Z</time>
      </trkpt>
      <trkpt lat="47.86201" lon="5.92058">
        <ele>210.39999389648</ele>
        <time>2017-07-19T06:25:45Z</time>
      </trkpt>
      <trkpt lat="47.86209" lon="5.9207">
        <ele>210.60000610352</ele>
        <time>2017-07-19T06:25:48Z</time>
      </trkpt>
      <trkpt lat="47.86222" lon="5.92089">
        <ele>211.60000610352</ele>
        <time>2017-07-19T06:25:53Z</time>
      </trkpt>
      <trkpt lat="47.86227" lon="5.92097">
        <ele>211.80000305176</ele>
        <time>2017-07-19T06:25:55Z</time>
      </trkpt>
      <trkpt lat="47.86236" lon="5.92113">
        <ele>212.39999389648</ele>
        <time>2017-07-19T06:25:59Z</time>
      </trkpt>
      <trkpt lat="47.86238" lon="5.92117">
        <ele>212.60000610352</ele>
        <time>2017-07-19T06:26:00Z</time>
      </trkpt>
      <trkpt lat="47.86242" lon="5.92126">
        <ele>213</ele>
        <time>2017-07-19T06:26:02Z</time>
      </trkpt>
      <trkpt lat="47.8625" lon="5.92139">
        <ele>213.60000610352</ele>
        <time>2017-07-19T06:26:05Z</time>
      </trkpt>
      <trkpt lat="47.8626" lon="5.92158">
        <ele>213.60000610352</ele>
        <time>2017-07-19T06:26:09Z</time>
      </trkpt>
      <trkpt lat="47.86264" lon="5.92169">
        <ele>213.60000610352</ele>
        <time>2017-07-19T06:26:11Z</time>
      </trkpt>
      <trkpt lat="47.86263" lon="5.92175">
        <ele>213.60000610352</ele>
        <time>2017-07-19T06:26:12Z</time>
      </trkpt>
      <trkpt lat="47.86251" lon="5.92201">
        <ele>213.19999694824</ele>
        <time>2017-07-19T06:26:16Z</time>
      </trkpt>
      <trkpt lat="47.86223" lon="5.92267">
        <ele>212</ele>
        <time>2017-07-19T06:26:25Z</time>
      </trkpt>
      <trkpt lat="47.8622" lon="5.92274">
        <ele>211.80000305176</ele>
        <time>2017-07-19T06:26:26Z</time>
      </trkpt>
      <trkpt lat="47.86214" lon="5.92287">
        <ele>211.19999694824</ele>
        <time>2017-07-19T06:26:28Z</time>
      </trkpt>
      <trkpt lat="47.86213" lon="5.92297">
        <ele>210.80000305176</ele>
        <time>2017-07-19T06:26:30Z</time>
      </trkpt>
      <trkpt lat="47.86214" lon="5.923">
        <ele>210.60000610352</ele>
        <time>2017-07-19T06:26:31Z</time>
      </trkpt>
      <trkpt lat="47.86217" lon="5.92306">
        <ele>210.39999389648</ele>
        <time>2017-07-19T06:26:33Z</time>
      </trkpt>
      <trkpt lat="47.86219" lon="5.92309">
        <ele>210.39999389648</ele>
        <time>2017-07-19T06:26:34Z</time>
      </trkpt>
      <trkpt lat="47.86232" lon="5.92328">
        <ele>210.19999694824</ele>
        <time>2017-07-19T06:26:39Z</time>
      </trkpt>
      <trkpt lat="47.86242" lon="5.9234">
        <ele>210.39999389648</ele>
        <time>2017-07-19T06:26:42Z</time>
      </trkpt>
      <trkpt lat="47.86249" lon="5.9235">
        <ele>210.39999389648</ele>
        <time>2017-07-19T06:26:44Z</time>
      </trkpt>
      <trkpt lat="47.86282" lon="5.92388">
        <ele>210.80000305176</ele>
        <time>2017-07-19T06:26:52Z</time>
      </trkpt>
      <trkpt lat="47.86323" lon="5.92437">
        <ele>211.39999389648</ele>
        <time>2017-07-19T06:27:02Z</time>
      </trkpt>
      <trkpt lat="47.86331" lon="5.92447">
        <ele>211.60000610352</ele>
        <time>2017-07-19T06:27:04Z</time>
      </trkpt>
      <trkpt lat="47.86354" lon="5.92476">
        <ele>212.19999694824</ele>
        <time>2017-07-19T06:27:10Z</time>
      </trkpt>
      <trkpt lat="47.86385" lon="5.92513">
        <ele>212.80000305176</ele>
        <time>2017-07-19T06:27:18Z</time>
      </trkpt>
      <trkpt lat="47.86417" lon="5.92552">
        <ele>213.39999389648</ele>
        <time>2017-07-19T06:27:26Z</time>
      </trkpt>
      <trkpt lat="47.86458" lon="5.92602">
        <ele>213.80000305176</ele>
        <time>2017-07-19T06:27:36Z</time>
      </trkpt>
      <trkpt lat="47.86462" lon="5.92607">
        <ele>213.80000305176</ele>
        <time>2017-07-19T06:27:37Z</time>
      </trkpt>
      <trkpt lat="47.86495" lon="5.92647">
        <ele>214.19999694824</ele>
        <time>2017-07-19T06:27:45Z</time>
      </trkpt>
      <trkpt lat="47.86534" lon="5.92695">
        <ele>214.39999389648</ele>
        <time>2017-07-19T06:27:54Z</time>
      </trkpt>
      <trkpt lat="47.86574" lon="5.92741">
        <ele>213.80000305176</ele>
        <time>2017-07-19T06:28:02Z</time>
      </trkpt>
      <trkpt lat="47.86616" lon="5.92793">
        <ele>213.19999694824</ele>
        <time>2017-07-19T06:28:10Z</time>
      </trkpt>
      <trkpt lat="47.86632" lon="5.92812">
        <ele>212.80000305176</ele>
        <time>2017-07-19T06:28:13Z</time>
      </trkpt>
      <trkpt lat="47.86638" lon="5.92819">
        <ele>212.80000305176</ele>
        <time>2017-07-19T06:28:14Z</time>
      </trkpt>
      <trkpt lat="47.86683" lon="5.92872">
        <ele>211.80000305176</ele>
        <time>2017-07-19T06:28:22Z</time>
      </trkpt>
      <trkpt lat="47.86688" lon="5.92879">
        <ele>211.60000610352</ele>
        <time>2017-07-19T06:28:23Z</time>
      </trkpt>
      <trkpt lat="47.86732" lon="5.92932">
        <ele>211</ele>
        <time>2017-07-19T06:28:31Z</time>
      </trkpt>
      <trkpt lat="47.86737" lon="5.92938">
        <ele>210.80000305176</ele>
        <time>2017-07-19T06:28:32Z</time>
      </trkpt>
      <trkpt lat="47.8677" lon="5.92977">
        <ele>211.60000610352</ele>
        <time>2017-07-19T06:28:39Z</time>
      </trkpt>
      <trkpt lat="47.86796" lon="5.93009">
        <ele>212.80000305176</ele>
        <time>2017-07-19T06:28:45Z</time>
      </trkpt>
      <trkpt lat="47.86809" lon="5.93025">
        <ele>213.39999389648</ele>
        <time>2017-07-19T06:28:48Z</time>
      </trkpt>
      <trkpt lat="47.86822" lon="5.93041">
        <ele>214.19999694824</ele>
        <time>2017-07-19T06:28:51Z</time>
      </trkpt>
      <trkpt lat="47.8684" lon="5.93063">
        <ele>214.80000305176</ele>
        <time>2017-07-19T06:28:55Z</time>
      </trkpt>
      <trkpt lat="47.86883" lon="5.93114">
        <ele>214.80000305176</ele>
        <time>2017-07-19T06:29:04Z</time>
      </trkpt>
      <trkpt lat="47.86888" lon="5.9312">
        <ele>214.80000305176</ele>
        <time>2017-07-19T06:29:05Z</time>
      </trkpt>
      <trkpt lat="47.86933" lon="5.93175">
        <ele>214.60000610352</ele>
        <time>2017-07-19T06:29:14Z</time>
      </trkpt>
      <trkpt lat="47.86938" lon="5.93181">
        <ele>214.60000610352</ele>
        <time>2017-07-19T06:29:15Z</time>
      </trkpt>
      <trkpt lat="47.86983" lon="5.93235">
        <ele>214.60000610352</ele>
        <time>2017-07-19T06:29:24Z</time>
      </trkpt>
      <trkpt lat="47.86987" lon="5.93241">
        <ele>214.60000610352</ele>
        <time>2017-07-19T06:29:25Z</time>
      </trkpt>
      <trkpt lat="47.87027" lon="5.93289">
        <ele>214.60000610352</ele>
        <time>2017-07-19T06:29:33Z</time>
      </trkpt>
      <trkpt lat="47.87072" lon="5.93343">
        <ele>214.60000610352</ele>
        <time>2017-07-19T06:29:42Z</time>
      </trkpt>
      <trkpt lat="47.87118" lon="5.93399">
        <ele>214.39999389648</ele>
        <time>2017-07-19T06:29:51Z</time>
      </trkpt>
      <trkpt lat="47.87158" lon="5.93454">
        <ele>214.39999389648</ele>
        <time>2017-07-19T06:29:59Z</time>
      </trkpt>
      <trkpt lat="47.87189" lon="5.93509">
        <ele>214.19999694824</ele>
        <time>2017-07-19T06:30:06Z</time>
      </trkpt>
      <trkpt lat="47.87216" lon="5.93568">
        <ele>214</ele>
        <time>2017-07-19T06:30:13Z</time>
      </trkpt>
      <trkpt lat="47.87234" lon="5.93623">
        <ele>213.60000610352</ele>
        <time>2017-07-19T06:30:19Z</time>
      </trkpt>
      <trkpt lat="47.87254" lon="5.93702">
        <ele>213.19999694824</ele>
        <time>2017-07-19T06:30:27Z</time>
      </trkpt>
      <trkpt lat="47.87256" lon="5.93712">
        <ele>213.19999694824</ele>
        <time>2017-07-19T06:30:28Z</time>
      </trkpt>
      <trkpt lat="47.87274" lon="5.93793">
        <ele>212.60000610352</ele>
        <time>2017-07-19T06:30:36Z</time>
      </trkpt>
      <trkpt lat="47.87286" lon="5.93855">
        <ele>212</ele>
        <time>2017-07-19T06:30:42Z</time>
      </trkpt>
      <trkpt lat="47.8729" lon="5.93875">
        <ele>212</ele>
        <time>2017-07-19T06:30:44Z</time>
      </trkpt>
      <trkpt lat="47.8731" lon="5.93953">
        <ele>211.60000610352</ele>
        <time>2017-07-19T06:30:52Z</time>
      </trkpt>
      <trkpt lat="47.87313" lon="5.93963">
        <ele>211.39999389648</ele>
        <time>2017-07-19T06:30:53Z</time>
      </trkpt>
      <trkpt lat="47.87332" lon="5.94016">
        <ele>211.19999694824</ele>
        <time>2017-07-19T06:30:59Z</time>
      </trkpt>
      <trkpt lat="47.87365" lon="5.94082">
        <ele>211</ele>
        <time>2017-07-19T06:31:07Z</time>
      </trkpt>
      <trkpt lat="47.8737" lon="5.9409">
        <ele>211</ele>
        <time>2017-07-19T06:31:08Z</time>
      </trkpt>
      <trkpt lat="47.87407" lon="5.94151">
        <ele>210.80000305176</ele>
        <time>2017-07-19T06:31:16Z</time>
      </trkpt>
      <trkpt lat="47.87445" lon="5.9421">
        <ele>210.80000305176</ele>
        <time>2017-07-19T06:31:24Z</time>
      </trkpt>
      <trkpt lat="47.87478" lon="5.94262">
        <ele>210.60000610352</ele>
        <time>2017-07-19T06:31:31Z</time>
      </trkpt>
      <trkpt lat="47.87517" lon="5.94321">
        <ele>210.60000610352</ele>
        <time>2017-07-19T06:31:39Z</time>
      </trkpt>
      <trkpt lat="47.87555" lon="5.9438">
        <ele>210.39999389648</ele>
        <time>2017-07-19T06:31:47Z</time>
      </trkpt>
      <trkpt lat="47.8756" lon="5.94387">
        <ele>210.39999389648</ele>
        <time>2017-07-19T06:31:48Z</time>
      </trkpt>
      <trkpt lat="47.87598" lon="5.94446">
        <ele>210.39999389648</ele>
        <time>2017-07-19T06:31:56Z</time>
      </trkpt>
      <trkpt lat="47.87612" lon="5.94467">
        <ele>210.60000610352</ele>
        <time>2017-07-19T06:31:59Z</time>
      </trkpt>
      <trkpt lat="47.87654" lon="5.94518">
        <ele>210.60000610352</ele>
        <time>2017-07-19T06:32:07Z</time>
      </trkpt>
      <trkpt lat="47.8766" lon="5.94524">
        <ele>210.60000610352</ele>
        <time>2017-07-19T06:32:08Z</time>
      </trkpt>
      <trkpt lat="47.87701" lon="5.9456">
        <ele>210.60000610352</ele>
        <time>2017-07-19T06:32:15Z</time>
      </trkpt>
      <trkpt lat="47.87752" lon="5.9459">
        <ele>210.39999389648</ele>
        <time>2017-07-19T06:32:23Z</time>
      </trkpt>
      <trkpt lat="47.87805" lon="5.94609">
        <ele>210.19999694824</ele>
        <time>2017-07-19T06:32:31Z</time>
      </trkpt>
      <trkpt lat="47.87812" lon="5.94611">
        <ele>210.19999694824</ele>
        <time>2017-07-19T06:32:32Z</time>
      </trkpt>
      <trkpt lat="47.87853" lon="5.9462">
        <ele>210</ele>
        <time>2017-07-19T06:32:38Z</time>
      </trkpt>
      <trkpt lat="47.87866" lon="5.94622">
        <ele>210</ele>
        <time>2017-07-19T06:32:40Z</time>
      </trkpt>
      <trkpt lat="47.87921" lon="5.94632">
        <ele>210</ele>
        <time>2017-07-19T06:32:48Z</time>
      </trkpt>
      <trkpt lat="47.87967" lon="5.94643">
        <ele>210</ele>
        <time>2017-07-19T06:32:55Z</time>
      </trkpt>
      <trkpt lat="47.88023" lon="5.94668">
        <ele>209.80000305176</ele>
        <time>2017-07-19T06:33:04Z</time>
      </trkpt>
      <trkpt lat="47.88076" lon="5.947">
        <ele>209.60000610352</ele>
        <time>2017-07-19T06:33:13Z</time>
      </trkpt>
      <trkpt lat="47.88108" lon="5.94721">
        <ele>209.80000305176</ele>
        <time>2017-07-19T06:33:19Z</time>
      </trkpt>
      <trkpt lat="47.88145" lon="5.94745">
        <ele>210.80000305176</ele>
        <time>2017-07-19T06:33:27Z</time>
      </trkpt>
      <trkpt lat="47.88153" lon="5.94751">
        <ele>211.19999694824</ele>
        <time>2017-07-19T06:33:29Z</time>
      </trkpt>
      <trkpt lat="47.88181" lon="5.94772">
        <ele>212.19999694824</ele>
        <time>2017-07-19T06:33:36Z</time>
      </trkpt>
      <trkpt lat="47.88203" lon="5.94792">
        <ele>213.19999694824</ele>
        <time>2017-07-19T06:33:42Z</time>
      </trkpt>
      <trkpt lat="47.88217" lon="5.94805">
        <ele>214</ele>
        <time>2017-07-19T06:33:46Z</time>
      </trkpt>
      <trkpt lat="47.88223" lon="5.94812">
        <ele>214.39999389648</ele>
        <time>2017-07-19T06:33:48Z</time>
      </trkpt>
      <trkpt lat="47.88242" lon="5.94835">
        <ele>215.19999694824</ele>
        <time>2017-07-19T06:33:54Z</time>
      </trkpt>
      <trkpt lat="47.88249" lon="5.94843">
        <ele>215.39999389648</ele>
        <time>2017-07-19T06:33:56Z</time>
      </trkpt>
      <trkpt lat="47.88266" lon="5.94867">
        <ele>216.19999694824</ele>
        <time>2017-07-19T06:34:02Z</time>
      </trkpt>
      <trkpt lat="47.88269" lon="5.9487">
        <ele>216.39999389648</ele>
        <time>2017-07-19T06:34:03Z</time>
      </trkpt>
      <trkpt lat="47.88284" lon="5.94895">
        <ele>217.39999389648</ele>
        <time>2017-07-19T06:34:09Z</time>
      </trkpt>
      <trkpt lat="47.88291" lon="5.94907">
        <ele>217.80000305176</ele>
        <time>2017-07-19T06:34:12Z</time>
      </trkpt>
      <trkpt lat="47.88302" lon="5.94927">
        <ele>218.60000610352</ele>
        <time>2017-07-19T06:34:17Z</time>
      </trkpt>
      <trkpt lat="47.88313" lon="5.94949">
        <ele>219.19999694824</ele>
        <time>2017-07-19T06:34:22Z</time>
      </trkpt>
      <trkpt lat="47.8832" lon="5.94963">
        <ele>219.60000610352</ele>
        <time>2017-07-19T06:34:25Z</time>
      </trkpt>
      <trkpt lat="47.88334" lon="5.94988">
        <ele>220.39999389648</ele>
        <time>2017-07-19T06:34:31Z</time>
      </trkpt>
      <trkpt lat="47.88336" lon="5.94993">
        <ele>220.60000610352</ele>
        <time>2017-07-19T06:34:32Z</time>
      </trkpt>
      <trkpt lat="47.88354" lon="5.95027">
        <ele>221.80000305176</ele>
        <time>2017-07-19T06:34:40Z</time>
      </trkpt>
      <trkpt lat="47.8837" lon="5.95058">
        <ele>222.80000305176</ele>
        <time>2017-07-19T06:34:47Z</time>
      </trkpt>
      <trkpt lat="47.88373" lon="5.95062">
        <ele>222.80000305176</ele>
        <time>2017-07-19T06:34:48Z</time>
      </trkpt>
      <trkpt lat="47.88384" lon="5.95082">
        <ele>223.60000610352</ele>
        <time>2017-07-19T06:34:53Z</time>
      </trkpt>
      <trkpt lat="47.88391" lon="5.95095">
        <ele>224</ele>
        <time>2017-07-19T06:34:56Z</time>
      </trkpt>
      <trkpt lat="47.88401" lon="5.95111">
        <ele>224.39999389648</ele>
        <time>2017-07-19T06:35:00Z</time>
      </trkpt>
      <trkpt lat="47.88413" lon="5.95132">
        <ele>225</ele>
        <time>2017-07-19T06:35:05Z</time>
      </trkpt>
      <trkpt lat="47.88426" lon="5.95152">
        <ele>225.80000305176</ele>
        <time>2017-07-19T06:35:10Z</time>
      </trkpt>
      <trkpt lat="47.88432" lon="5.95159">
        <ele>226</ele>
        <time>2017-07-19T06:35:12Z</time>
      </trkpt>
      <trkpt lat="47.88445" lon="5.95178">
        <ele>226.80000305176</ele>
        <time>2017-07-19T06:35:17Z</time>
      </trkpt>
      <trkpt lat="47.88451" lon="5.95185">
        <ele>227.19999694824</ele>
        <time>2017-07-19T06:35:19Z</time>
      </trkpt>
      <trkpt lat="47.88467" lon="5.95207">
        <ele>228.39999389648</ele>
        <time>2017-07-19T06:35:25Z</time>
      </trkpt>
      <trkpt lat="47.88485" lon="5.95226">
        <ele>229.39999389648</ele>
        <time>2017-07-19T06:35:31Z</time>
      </trkpt>
      <trkpt lat="47.88488" lon="5.95229">
        <ele>229.60000610352</ele>
        <time>2017-07-19T06:35:32Z</time>
      </trkpt>
      <trkpt lat="47.88508" lon="5.95246">
        <ele>230.39999389648</ele>
        <time>2017-07-19T06:35:38Z</time>
      </trkpt>
      <trkpt lat="47.88511" lon="5.95249">
        <ele>230.60000610352</ele>
        <time>2017-07-19T06:35:39Z</time>
      </trkpt>
      <trkpt lat="47.88531" lon="5.95266">
        <ele>231.39999389648</ele>
        <time>2017-07-19T06:35:45Z</time>
      </trkpt>
      <trkpt lat="47.88538" lon="5.95271">
        <ele>231.80000305176</ele>
        <time>2017-07-19T06:35:47Z</time>
      </trkpt>
      <trkpt lat="47.88563" lon="5.95287">
        <ele>232.39999389648</ele>
        <time>2017-07-19T06:35:54Z</time>
      </trkpt>
      <trkpt lat="47.88574" lon="5.95294">
        <ele>232.80000305176</ele>
        <time>2017-07-19T06:35:57Z</time>
      </trkpt>
      <trkpt lat="47.88605" lon="5.95311">
        <ele>233.60000610352</ele>
        <time>2017-07-19T06:36:05Z</time>
      </trkpt>
      <trkpt lat="47.88632" lon="5.95324">
        <ele>234.39999389648</ele>
        <time>2017-07-19T06:36:12Z</time>
      </trkpt>
      <trkpt lat="47.88635" lon="5.95325">
        <ele>234.60000610352</ele>
        <time>2017-07-19T06:36:13Z</time>
      </trkpt>
      <trkpt lat="47.88665" lon="5.95342">
        <ele>235.39999389648</ele>
        <time>2017-07-19T06:36:21Z</time>
      </trkpt>
      <trkpt lat="47.88669" lon="5.95344">
        <ele>235.60000610352</ele>
        <time>2017-07-19T06:36:22Z</time>
      </trkpt>
      <trkpt lat="47.88697" lon="5.95357">
        <ele>236.39999389648</ele>
        <time>2017-07-19T06:36:29Z</time>
      </trkpt>
      <trkpt lat="47.88705" lon="5.9536">
        <ele>236.80000305176</ele>
        <time>2017-07-19T06:36:31Z</time>
      </trkpt>
      <trkpt lat="47.88736" lon="5.95377">
        <ele>237.19999694824</ele>
        <time>2017-07-19T06:36:39Z</time>
      </trkpt>
      <trkpt lat="47.88748" lon="5.95382">
        <ele>237.80000305176</ele>
        <time>2017-07-19T06:36:42Z</time>
      </trkpt>
      <trkpt lat="47.88772" lon="5.95395">
        <ele>238.39999389648</ele>
        <time>2017-07-19T06:36:48Z</time>
      </trkpt>
      <trkpt lat="47.88787" lon="5.95404">
        <ele>238.80000305176</ele>
        <time>2017-07-19T06:36:52Z</time>
      </trkpt>
      <trkpt lat="47.88808" lon="5.95417">
        <ele>239.60000610352</ele>
        <time>2017-07-19T06:36:58Z</time>
      </trkpt>
      <trkpt lat="47.88814" lon="5.95422">
        <ele>240</ele>
        <time>2017-07-19T06:37:00Z</time>
      </trkpt>
      <trkpt lat="47.88827" lon="5.95433">
        <ele>240.60000610352</ele>
        <time>2017-07-19T06:37:04Z</time>
      </trkpt>
      <trkpt lat="47.88833" lon="5.95439">
        <ele>241</ele>
        <time>2017-07-19T06:37:06Z</time>
      </trkpt>
      <trkpt lat="47.88846" lon="5.95457">
        <ele>241.80000305176</ele>
        <time>2017-07-19T06:37:11Z</time>
      </trkpt>
      <trkpt lat="47.88851" lon="5.95464">
        <ele>242.19999694824</ele>
        <time>2017-07-19T06:37:13Z</time>
      </trkpt>
      <trkpt lat="47.88861" lon="5.95486">
        <ele>243.19999694824</ele>
        <time>2017-07-19T06:37:18Z</time>
      </trkpt>
      <trkpt lat="47.88863" lon="5.95491">
        <ele>243.39999389648</ele>
        <time>2017-07-19T06:37:19Z</time>
      </trkpt>
      <trkpt lat="47.88873" lon="5.95519">
        <ele>244.39999389648</ele>
        <time>2017-07-19T06:37:25Z</time>
      </trkpt>
      <trkpt lat="47.88881" lon="5.95538">
        <ele>245</ele>
        <time>2017-07-19T06:37:29Z</time>
      </trkpt>
      <trkpt lat="47.88886" lon="5.95553">
        <ele>245.39999389648</ele>
        <time>2017-07-19T06:37:32Z</time>
      </trkpt>
      <trkpt lat="47.88896" lon="5.95579">
        <ele>246.19999694824</ele>
        <time>2017-07-19T06:37:37Z</time>
      </trkpt>
      <trkpt lat="47.889" lon="5.9559">
        <ele>246.39999389648</ele>
        <time>2017-07-19T06:37:39Z</time>
      </trkpt>
      <trkpt lat="47.88914" lon="5.95627">
        <ele>247.19999694824</ele>
        <time>2017-07-19T06:37:45Z</time>
      </trkpt>
      <trkpt lat="47.88935" lon="5.95669">
        <ele>247.19999694824</ele>
        <time>2017-07-19T06:37:52Z</time>
      </trkpt>
      <trkpt lat="47.8897" lon="5.95717">
        <ele>247.19999694824</ele>
        <time>2017-07-19T06:38:01Z</time>
      </trkpt>
      <trkpt lat="47.89002" lon="5.95758">
        <ele>246.60000610352</ele>
        <time>2017-07-19T06:38:08Z</time>
      </trkpt>
      <trkpt lat="47.89043" lon="5.95809">
        <ele>246.39999389648</ele>
        <time>2017-07-19T06:38:17Z</time>
      </trkpt>
      <trkpt lat="47.89075" lon="5.95847">
        <ele>246.39999389648</ele>
        <time>2017-07-19T06:38:24Z</time>
      </trkpt>
      <trkpt lat="47.89116" lon="5.95888">
        <ele>246.19999694824</ele>
        <time>2017-07-19T06:38:32Z</time>
      </trkpt>
      <trkpt lat="47.89169" lon="5.95927">
        <ele>245.80000305176</ele>
        <time>2017-07-19T06:38:41Z</time>
      </trkpt>
      <trkpt lat="47.89204" lon="5.95953">
        <ele>245.80000305176</ele>
        <time>2017-07-19T06:38:47Z</time>
      </trkpt>
      <trkpt lat="47.89258" lon="5.9599">
        <ele>245.39999389648</ele>
        <time>2017-07-19T06:38:56Z</time>
      </trkpt>
      <trkpt lat="47.89269" lon="5.95997">
        <ele>245.39999389648</ele>
        <time>2017-07-19T06:38:58Z</time>
      </trkpt>
      <trkpt lat="47.89293" lon="5.96006">
        <ele>245.39999389648</ele>
        <time>2017-07-19T06:39:02Z</time>
      </trkpt>
      <trkpt lat="47.89305" lon="5.9601">
        <ele>245.39999389648</ele>
        <time>2017-07-19T06:39:04Z</time>
      </trkpt>
      <trkpt lat="47.89362" lon="5.9602">
        <ele>245</ele>
        <time>2017-07-19T06:39:13Z</time>
      </trkpt>
      <trkpt lat="47.89399" lon="5.96031">
        <ele>244.80000305176</ele>
        <time>2017-07-19T06:39:19Z</time>
      </trkpt>
      <trkpt lat="47.89435" lon="5.96052">
        <ele>244.60000610352</ele>
        <time>2017-07-19T06:39:25Z</time>
      </trkpt>
      <trkpt lat="47.89471" lon="5.96087">
        <ele>244.60000610352</ele>
        <time>2017-07-19T06:39:31Z</time>
      </trkpt>
      <trkpt lat="47.89486" lon="5.96106">
        <ele>244.60000610352</ele>
        <time>2017-07-19T06:39:34Z</time>
      </trkpt>
      <trkpt lat="47.895" lon="5.9613">
        <ele>244.60000610352</ele>
        <time>2017-07-19T06:39:37Z</time>
      </trkpt>
      <trkpt lat="47.89525" lon="5.96189">
        <ele>244.39999389648</ele>
        <time>2017-07-19T06:39:44Z</time>
      </trkpt>
      <trkpt lat="47.89528" lon="5.96198">
        <ele>244.39999389648</ele>
        <time>2017-07-19T06:39:45Z</time>
      </trkpt>
      <trkpt lat="47.89554" lon="5.96271">
        <ele>243.80000305176</ele>
        <time>2017-07-19T06:39:53Z</time>
      </trkpt>
      <trkpt lat="47.89557" lon="5.9628">
        <ele>243.80000305176</ele>
        <time>2017-07-19T06:39:54Z</time>
      </trkpt>
      <trkpt lat="47.89576" lon="5.96331">
        <ele>243.60000610352</ele>
        <time>2017-07-19T06:40:00Z</time>
      </trkpt>
      <trkpt lat="47.89582" lon="5.96346">
        <ele>243.60000610352</ele>
        <time>2017-07-19T06:40:02Z</time>
      </trkpt>
      <trkpt lat="47.896" lon="5.96396">
        <ele>243.39999389648</ele>
        <time>2017-07-19T06:40:09Z</time>
      </trkpt>
      <trkpt lat="47.89607" lon="5.96411">
        <ele>243.39999389648</ele>
        <time>2017-07-19T06:40:11Z</time>
      </trkpt>
      <trkpt lat="47.89625" lon="5.96446">
        <ele>243.39999389648</ele>
        <time>2017-07-19T06:40:16Z</time>
      </trkpt>
      <trkpt lat="47.89656" lon="5.9649">
        <ele>243.39999389648</ele>
        <time>2017-07-19T06:40:23Z</time>
      </trkpt>
      <trkpt lat="47.89693" lon="5.96526">
        <ele>243.19999694824</ele>
        <time>2017-07-19T06:40:30Z</time>
      </trkpt>
      <trkpt lat="47.89737" lon="5.96564">
        <ele>242.80000305176</ele>
        <time>2017-07-19T06:40:38Z</time>
      </trkpt>
      <trkpt lat="47.89772" lon="5.96593">
        <ele>242.39999389648</ele>
        <time>2017-07-19T06:40:44Z</time>
      </trkpt>
      <trkpt lat="47.89785" lon="5.96604">
        <ele>242.19999694824</ele>
        <time>2017-07-19T06:40:46Z</time>
      </trkpt>
      <trkpt lat="47.89818" lon="5.9663">
        <ele>241.19999694824</ele>
        <time>2017-07-19T06:40:51Z</time>
      </trkpt>
      <trkpt lat="47.89831" lon="5.96641">
        <ele>240.60000610352</ele>
        <time>2017-07-19T06:40:53Z</time>
      </trkpt>
      <trkpt lat="47.89845" lon="5.96652">
        <ele>240</ele>
        <time>2017-07-19T06:40:55Z</time>
      </trkpt>
      <trkpt lat="47.89863" lon="5.9667">
        <ele>239.19999694824</ele>
        <time>2017-07-19T06:40:58Z</time>
      </trkpt>
      <trkpt lat="47.89865" lon="5.96671">
        <ele>238.80000305176</ele>
        <time>2017-07-19T06:40:59Z</time>
      </trkpt>
      <trkpt lat="47.89866" lon="5.96673">
        <ele>238.60000610352</ele>
        <time>2017-07-19T06:41:00Z</time>
      </trkpt>
      <trkpt lat="47.89868" lon="5.96674">
        <ele>237</ele>
        <time>2017-07-19T06:41:50Z</time>
      </trkpt>
      <trkpt lat="47.89869" lon="5.96675">
        <ele>237</ele>
        <time>2017-07-19T06:41:51Z</time>
      </trkpt>
      <trkpt lat="47.8988" lon="5.96685">
        <ele>236.80000305176</ele>
        <time>2017-07-19T06:41:55Z</time>
      </trkpt>
      <trkpt lat="47.899" lon="5.96697">
        <ele>236.60000610352</ele>
        <time>2017-07-19T06:41:59Z</time>
      </trkpt>
      <trkpt lat="47.89905" lon="5.96702">
        <ele>236.60000610352</ele>
        <time>2017-07-19T06:42:00Z</time>
      </trkpt>
      <trkpt lat="47.89929" lon="5.9672">
        <ele>235.80000305176</ele>
        <time>2017-07-19T06:42:04Z</time>
      </trkpt>
      <trkpt lat="47.89948" lon="5.96737">
        <ele>235.19999694824</ele>
        <time>2017-07-19T06:42:07Z</time>
      </trkpt>
      <trkpt lat="47.89969" lon="5.96753">
        <ele>234.60000610352</ele>
        <time>2017-07-19T06:42:10Z</time>
      </trkpt>
      <trkpt lat="47.89998" lon="5.96776">
        <ele>233.80000305176</ele>
        <time>2017-07-19T06:42:14Z</time>
      </trkpt>
      <trkpt lat="47.90006" lon="5.96781">
        <ele>233.60000610352</ele>
        <time>2017-07-19T06:42:15Z</time>
      </trkpt>
      <trkpt lat="47.90041" lon="5.96809">
        <ele>232.39999389648</ele>
        <time>2017-07-19T06:42:20Z</time>
      </trkpt>
      <trkpt lat="47.90054" lon="5.9682">
        <ele>232.19999694824</ele>
        <time>2017-07-19T06:42:22Z</time>
      </trkpt>
      <trkpt lat="47.90106" lon="5.96863">
        <ele>231.80000305176</ele>
        <time>2017-07-19T06:42:30Z</time>
      </trkpt>
      <trkpt lat="47.90151" lon="5.96908">
        <ele>231.60000610352</ele>
        <time>2017-07-19T06:42:38Z</time>
      </trkpt>
      <trkpt lat="47.90166" lon="5.96927">
        <ele>231.39999389648</ele>
        <time>2017-07-19T06:42:41Z</time>
      </trkpt>
      <trkpt lat="47.9018" lon="5.96949">
        <ele>231.39999389648</ele>
        <time>2017-07-19T06:42:44Z</time>
      </trkpt>
      <trkpt lat="47.90198" lon="5.96986">
        <ele>231.39999389648</ele>
        <time>2017-07-19T06:42:49Z</time>
      </trkpt>
      <trkpt lat="47.90228" lon="5.97038">
        <ele>231.80000305176</ele>
        <time>2017-07-19T06:42:57Z</time>
      </trkpt>
      <trkpt lat="47.90256" lon="5.97062">
        <ele>232.39999389648</ele>
        <time>2017-07-19T06:43:03Z</time>
      </trkpt>
      <trkpt lat="47.90301" lon="5.97087">
        <ele>233</ele>
        <time>2017-07-19T06:43:12Z</time>
      </trkpt>
      <trkpt lat="47.90321" lon="5.97099">
        <ele>233.39999389648</ele>
        <time>2017-07-19T06:43:16Z</time>
      </trkpt>
      <trkpt lat="47.90336" lon="5.9711">
        <ele>233.80000305176</ele>
        <time>2017-07-19T06:43:19Z</time>
      </trkpt>
      <trkpt lat="47.90341" lon="5.97115">
        <ele>233.80000305176</ele>
        <time>2017-07-19T06:43:20Z</time>
      </trkpt>
      <trkpt lat="47.90358" lon="5.97135">
        <ele>234</ele>
        <time>2017-07-19T06:43:24Z</time>
      </trkpt>
      <trkpt lat="47.90374" lon="5.97167">
        <ele>234.60000610352</ele>
        <time>2017-07-19T06:43:29Z</time>
      </trkpt>
      <trkpt lat="47.90378" lon="5.97173">
        <ele>234.60000610352</ele>
        <time>2017-07-19T06:43:30Z</time>
      </trkpt>
      <trkpt lat="47.90404" lon="5.97225">
        <ele>235.39999389648</ele>
        <time>2017-07-19T06:43:38Z</time>
      </trkpt>
      <trkpt lat="47.90433" lon="5.97266">
        <ele>235.39999389648</ele>
        <time>2017-07-19T06:43:45Z</time>
      </trkpt>
      <trkpt lat="47.90465" lon="5.97287">
        <ele>235.39999389648</ele>
        <time>2017-07-19T06:43:51Z</time>
      </trkpt>
      <trkpt lat="47.90513" lon="5.97297">
        <ele>234.80000305176</ele>
        <time>2017-07-19T06:43:59Z</time>
      </trkpt>
      <trkpt lat="47.90559" lon="5.97312">
        <ele>233.60000610352</ele>
        <time>2017-07-19T06:44:06Z</time>
      </trkpt>
      <trkpt lat="47.90566" lon="5.97316">
        <ele>233.39999389648</ele>
        <time>2017-07-19T06:44:07Z</time>
      </trkpt>
      <trkpt lat="47.90586" lon="5.97328">
        <ele>232.19999694824</ele>
        <time>2017-07-19T06:44:10Z</time>
      </trkpt>
      <trkpt lat="47.90607" lon="5.97341">
        <ele>231.39999389648</ele>
        <time>2017-07-19T06:44:13Z</time>
      </trkpt>
      <trkpt lat="47.90614" lon="5.97346">
        <ele>231.19999694824</ele>
        <time>2017-07-19T06:44:14Z</time>
      </trkpt>
      <trkpt lat="47.90663" lon="5.97381">
        <ele>230.60000610352</ele>
        <time>2017-07-19T06:44:21Z</time>
      </trkpt>
      <trkpt lat="47.9067" lon="5.97388">
        <ele>230.60000610352</ele>
        <time>2017-07-19T06:44:22Z</time>
      </trkpt>
      <trkpt lat="47.90688" lon="5.97409">
        <ele>230.39999389648</ele>
        <time>2017-07-19T06:44:25Z</time>
      </trkpt>
      <trkpt lat="47.90699" lon="5.97427">
        <ele>230.19999694824</ele>
        <time>2017-07-19T06:44:27Z</time>
      </trkpt>
      <trkpt lat="47.9072" lon="5.97476">
        <ele>229.60000610352</ele>
        <time>2017-07-19T06:44:32Z</time>
      </trkpt>
      <trkpt lat="47.90748" lon="5.97542">
        <ele>229.19999694824</ele>
        <time>2017-07-19T06:44:39Z</time>
      </trkpt>
      <trkpt lat="47.90753" lon="5.9755">
        <ele>229.19999694824</ele>
        <time>2017-07-19T06:44:40Z</time>
      </trkpt>
      <trkpt lat="47.90777" lon="5.97578">
        <ele>228.80000305176</ele>
        <time>2017-07-19T06:44:44Z</time>
      </trkpt>
      <trkpt lat="47.90812" lon="5.976">
        <ele>228.19999694824</ele>
        <time>2017-07-19T06:44:49Z</time>
      </trkpt>
      <trkpt lat="47.90819" lon="5.97604">
        <ele>228.19999694824</ele>
        <time>2017-07-19T06:44:50Z</time>
      </trkpt>
      <trkpt lat="47.90855" lon="5.97626">
        <ele>227.60000610352</ele>
        <time>2017-07-19T06:44:55Z</time>
      </trkpt>
      <trkpt lat="47.90881" lon="5.97645">
        <ele>227</ele>
        <time>2017-07-19T06:44:59Z</time>
      </trkpt>
      <trkpt lat="47.90899" lon="5.97663">
        <ele>226.60000610352</ele>
        <time>2017-07-19T06:45:02Z</time>
      </trkpt>
      <trkpt lat="47.90934" lon="5.97704">
        <ele>226.19999694824</ele>
        <time>2017-07-19T06:45:08Z</time>
      </trkpt>
      <trkpt lat="47.90959" lon="5.97733">
        <ele>226</ele>
        <time>2017-07-19T06:45:12Z</time>
      </trkpt>
      <trkpt lat="47.90983" lon="5.97762">
        <ele>225.60000610352</ele>
        <time>2017-07-19T06:45:16Z</time>
      </trkpt>
      <trkpt lat="47.91021" lon="5.97804">
        <ele>225</ele>
        <time>2017-07-19T06:45:22Z</time>
      </trkpt>
      <trkpt lat="47.91034" lon="5.97819">
        <ele>224.80000305176</ele>
        <time>2017-07-19T06:45:24Z</time>
      </trkpt>
      <trkpt lat="47.91078" lon="5.97871">
        <ele>224.19999694824</ele>
        <time>2017-07-19T06:45:31Z</time>
      </trkpt>
      <trkpt lat="47.91085" lon="5.97878">
        <ele>224</ele>
        <time>2017-07-19T06:45:32Z</time>
      </trkpt>
      <trkpt lat="47.91091" lon="5.97886">
        <ele>223.80000305176</ele>
        <time>2017-07-19T06:45:33Z</time>
      </trkpt>
      <trkpt lat="47.91135" lon="5.97937">
        <ele>223</ele>
        <time>2017-07-19T06:45:40Z</time>
      </trkpt>
      <trkpt lat="47.91154" lon="5.9796">
        <ele>222.80000305176</ele>
        <time>2017-07-19T06:45:43Z</time>
      </trkpt>
      <trkpt lat="47.91175" lon="5.97996">
        <ele>222.60000610352</ele>
        <time>2017-07-19T06:45:47Z</time>
      </trkpt>
      <trkpt lat="47.91193" lon="5.98035">
        <ele>222</ele>
        <time>2017-07-19T06:45:51Z</time>
      </trkpt>
      <trkpt lat="47.912" lon="5.98055">
        <ele>222</ele>
        <time>2017-07-19T06:45:53Z</time>
      </trkpt>
      <trkpt lat="47.91205" lon="5.98077">
        <ele>221.80000305176</ele>
        <time>2017-07-19T06:45:55Z</time>
      </trkpt>
      <trkpt lat="47.9121" lon="5.98111">
        <ele>221.80000305176</ele>
        <time>2017-07-19T06:45:58Z</time>
      </trkpt>
      <trkpt lat="47.91213" lon="5.98176">
        <ele>221.60000610352</ele>
        <time>2017-07-19T06:46:04Z</time>
      </trkpt>
      <trkpt lat="47.91205" lon="5.98249">
        <ele>221.19999694824</ele>
        <time>2017-07-19T06:46:11Z</time>
      </trkpt>
      <trkpt lat="47.91194" lon="5.9833">
        <ele>221.19999694824</ele>
        <time>2017-07-19T06:46:19Z</time>
      </trkpt>
      <trkpt lat="47.91193" lon="5.9834">
        <ele>221.19999694824</ele>
        <time>2017-07-19T06:46:20Z</time>
      </trkpt>
      <trkpt lat="47.91181" lon="5.98418">
        <ele>221</ele>
        <time>2017-07-19T06:46:28Z</time>
      </trkpt>
      <trkpt lat="47.91168" lon="5.98506">
        <ele>221</ele>
        <time>2017-07-19T06:46:37Z</time>
      </trkpt>
      <trkpt lat="47.91156" lon="5.98592">
        <ele>221</ele>
        <time>2017-07-19T06:46:46Z</time>
      </trkpt>
      <trkpt lat="47.91155" lon="5.98658">
        <ele>221</ele>
        <time>2017-07-19T06:46:53Z</time>
      </trkpt>
      <trkpt lat="47.91163" lon="5.98695">
        <ele>220.80000305176</ele>
        <time>2017-07-19T06:46:57Z</time>
      </trkpt>
      <trkpt lat="47.91167" lon="5.98703">
        <ele>220.80000305176</ele>
        <time>2017-07-19T06:46:58Z</time>
      </trkpt>
      <trkpt lat="47.91175" lon="5.98721">
        <ele>220.80000305176</ele>
        <time>2017-07-19T06:47:00Z</time>
      </trkpt>
      <trkpt lat="47.91186" lon="5.98738">
        <ele>220.39999389648</ele>
        <time>2017-07-19T06:47:02Z</time>
      </trkpt>
      <trkpt lat="47.91207" lon="5.98758">
        <ele>219.60000610352</ele>
        <time>2017-07-19T06:47:05Z</time>
      </trkpt>
      <trkpt lat="47.91214" lon="5.98763">
        <ele>219.39999389648</ele>
        <time>2017-07-19T06:47:06Z</time>
      </trkpt>
      <trkpt lat="47.91238" lon="5.98773">
        <ele>218.39999389648</ele>
        <time>2017-07-19T06:47:09Z</time>
      </trkpt>
      <trkpt lat="47.91246" lon="5.98775">
        <ele>218</ele>
        <time>2017-07-19T06:47:10Z</time>
      </trkpt>
      <trkpt lat="47.9127" lon="5.98779">
        <ele>217.39999389648</ele>
        <time>2017-07-19T06:47:13Z</time>
      </trkpt>
      <trkpt lat="47.913" lon="5.98785">
        <ele>217</ele>
        <time>2017-07-19T06:47:17Z</time>
      </trkpt>
      <trkpt lat="47.91345" lon="5.98795">
        <ele>216.39999389648</ele>
        <time>2017-07-19T06:47:23Z</time>
      </trkpt>
      <trkpt lat="47.91369" lon="5.988">
        <ele>215.60000610352</ele>
        <time>2017-07-19T06:47:26Z</time>
      </trkpt>
      <trkpt lat="47.91385" lon="5.98802">
        <ele>215</ele>
        <time>2017-07-19T06:47:28Z</time>
      </trkpt>
      <trkpt lat="47.91423" lon="5.98811">
        <ele>214</ele>
        <time>2017-07-19T06:47:33Z</time>
      </trkpt>
      <trkpt lat="47.91473" lon="5.98822">
        <ele>213.19999694824</ele>
        <time>2017-07-19T06:47:40Z</time>
      </trkpt>
      <trkpt lat="47.91494" lon="5.98825">
        <ele>213</ele>
        <time>2017-07-19T06:47:43Z</time>
      </trkpt>
      <trkpt lat="47.91528" lon="5.98829">
        <ele>212.80000305176</ele>
        <time>2017-07-19T06:47:48Z</time>
      </trkpt>
      <trkpt lat="47.91584" lon="5.98831">
        <ele>212.60000610352</ele>
        <time>2017-07-19T06:47:57Z</time>
      </trkpt>
      <trkpt lat="47.91624" lon="5.98832">
        <ele>212.80000305176</ele>
        <time>2017-07-19T06:48:04Z</time>
      </trkpt>
      <trkpt lat="47.91678" lon="5.98839">
        <ele>212.80000305176</ele>
        <time>2017-07-19T06:48:13Z</time>
      </trkpt>
      <trkpt lat="47.91718" lon="5.98848">
        <ele>212.80000305176</ele>
        <time>2017-07-19T06:48:20Z</time>
      </trkpt>
      <trkpt lat="47.91731" lon="5.98862">
        <ele>212.80000305176</ele>
        <time>2017-07-19T06:48:24Z</time>
      </trkpt>
      <trkpt lat="47.91736" lon="5.98873">
        <ele>213</ele>
        <time>2017-07-19T06:48:26Z</time>
      </trkpt>
      <trkpt lat="47.91744" lon="5.98893">
        <ele>213</ele>
        <time>2017-07-19T06:48:29Z</time>
      </trkpt>
      <trkpt lat="47.91769" lon="5.98949">
        <ele>213.19999694824</ele>
        <time>2017-07-19T06:48:37Z</time>
      </trkpt>
      <trkpt lat="47.91775" lon="5.98965">
        <ele>213.19999694824</ele>
        <time>2017-07-19T06:48:39Z</time>
      </trkpt>
      <trkpt lat="47.91781" lon="5.98992">
        <ele>213</ele>
        <time>2017-07-19T06:48:42Z</time>
      </trkpt>
      <trkpt lat="47.9179" lon="5.99027">
        <ele>213.19999694824</ele>
        <time>2017-07-19T06:48:46Z</time>
      </trkpt>
      <trkpt lat="47.91801" lon="5.99071">
        <ele>213.39999389648</ele>
        <time>2017-07-19T06:48:51Z</time>
      </trkpt>
      <trkpt lat="47.91814" lon="5.99134">
        <ele>213.39999389648</ele>
        <time>2017-07-19T06:48:58Z</time>
      </trkpt>
      <trkpt lat="47.91829" lon="5.99202">
        <ele>213.39999389648</ele>
        <time>2017-07-19T06:49:06Z</time>
      </trkpt>
      <trkpt lat="47.91834" lon="5.99249">
        <ele>213.39999389648</ele>
        <time>2017-07-19T06:49:11Z</time>
      </trkpt>
      <trkpt lat="47.91826" lon="5.99276">
        <ele>213.39999389648</ele>
        <time>2017-07-19T06:49:14Z</time>
      </trkpt>
      <trkpt lat="47.91812" lon="5.99297">
        <ele>213.19999694824</ele>
        <time>2017-07-19T06:49:17Z</time>
      </trkpt>
      <trkpt lat="47.91808" lon="5.99305">
        <ele>213.19999694824</ele>
        <time>2017-07-19T06:49:18Z</time>
      </trkpt>
      <trkpt lat="47.91775" lon="5.99364">
        <ele>213.19999694824</ele>
        <time>2017-07-19T06:49:26Z</time>
      </trkpt>
      <trkpt lat="47.91751" lon="5.99412">
        <ele>212.80000305176</ele>
        <time>2017-07-19T06:49:33Z</time>
      </trkpt>
      <trkpt lat="47.91747" lon="5.99433">
        <ele>212.60000610352</ele>
        <time>2017-07-19T06:49:36Z</time>
      </trkpt>
      <trkpt lat="47.91751" lon="5.99439">
        <ele>212.39999389648</ele>
        <time>2017-07-19T06:49:37Z</time>
      </trkpt>
      <trkpt lat="47.91765" lon="5.99446">
        <ele>212.39999389648</ele>
        <time>2017-07-19T06:49:40Z</time>
      </trkpt>
      <trkpt lat="47.91775" lon="5.99453">
        <ele>212.39999389648</ele>
        <time>2017-07-19T06:49:42Z</time>
      </trkpt>
      <trkpt lat="47.9179" lon="5.99462">
        <ele>212.39999389648</ele>
        <time>2017-07-19T06:49:45Z</time>
      </trkpt>
      <trkpt lat="47.9181" lon="5.99474">
        <ele>212.60000610352</ele>
        <time>2017-07-19T06:49:49Z</time>
      </trkpt>
      <trkpt lat="47.91821" lon="5.99478">
        <ele>212.80000305176</ele>
        <time>2017-07-19T06:49:51Z</time>
      </trkpt>
      <trkpt lat="47.91832" lon="5.99481">
        <ele>213</ele>
        <time>2017-07-19T06:49:53Z</time>
      </trkpt>
      <trkpt lat="47.91837" lon="5.99485">
        <ele>213</ele>
        <time>2017-07-19T06:49:54Z</time>
      </trkpt>
      <trkpt lat="47.91848" lon="5.99489">
        <ele>213</ele>
        <time>2017-07-19T06:49:56Z</time>
      </trkpt>
      <trkpt lat="47.91864" lon="5.99495">
        <ele>213.19999694824</ele>
        <time>2017-07-19T06:49:59Z</time>
      </trkpt>
      <trkpt lat="47.91881" lon="5.99503">
        <ele>213.39999389648</ele>
        <time>2017-07-19T06:50:02Z</time>
      </trkpt>
      <trkpt lat="47.91927" lon="5.99531">
        <ele>213.19999694824</ele>
        <time>2017-07-19T06:50:10Z</time>
      </trkpt>
      <trkpt lat="47.91966" lon="5.99566">
        <ele>212.80000305176</ele>
        <time>2017-07-19T06:50:17Z</time>
      </trkpt>
      <trkpt lat="47.91995" lon="5.99598">
        <ele>212.80000305176</ele>
        <time>2017-07-19T06:50:23Z</time>
      </trkpt>
      <trkpt lat="47.92032" lon="5.99632">
        <ele>213.19999694824</ele>
        <time>2017-07-19T06:50:30Z</time>
      </trkpt>
      <trkpt lat="47.92079" lon="5.99676">
        <ele>213.19999694824</ele>
        <time>2017-07-19T06:50:39Z</time>
      </trkpt>
      <trkpt lat="47.92126" lon="5.99719">
        <ele>213.39999389648</ele>
        <time>2017-07-19T06:50:48Z</time>
      </trkpt>
      <trkpt lat="47.92173" lon="5.99762">
        <ele>213.39999389648</ele>
        <time>2017-07-19T06:50:57Z</time>
      </trkpt>
      <trkpt lat="47.92215" lon="5.99802">
        <ele>213.39999389648</ele>
        <time>2017-07-19T06:51:05Z</time>
      </trkpt>
      <trkpt lat="47.92251" lon="5.99835">
        <ele>213.60000610352</ele>
        <time>2017-07-19T06:51:12Z</time>
      </trkpt>
      <trkpt lat="47.92294" lon="5.99873">
        <ele>213.80000305176</ele>
        <time>2017-07-19T06:51:20Z</time>
      </trkpt>
      <trkpt lat="47.92338" lon="5.99914">
        <ele>214</ele>
        <time>2017-07-19T06:51:28Z</time>
      </trkpt>
      <trkpt lat="47.92344" lon="5.99919">
        <ele>214</ele>
        <time>2017-07-19T06:51:29Z</time>
      </trkpt>
      <trkpt lat="47.92377" lon="5.9995">
        <ele>214.19999694824</ele>
        <time>2017-07-19T06:51:35Z</time>
      </trkpt>
      <trkpt lat="47.92421" lon="5.99992">
        <ele>214.39999389648</ele>
        <time>2017-07-19T06:51:43Z</time>
      </trkpt>
      <trkpt lat="47.92465" lon="6.00032">
        <ele>214.80000305176</ele>
        <time>2017-07-19T06:51:51Z</time>
      </trkpt>
      <trkpt lat="47.92504" lon="6.00066">
        <ele>215</ele>
        <time>2017-07-19T06:51:58Z</time>
      </trkpt>
      <trkpt lat="47.92542" lon="6.00102">
        <ele>215</ele>
        <time>2017-07-19T06:52:05Z</time>
      </trkpt>
      <trkpt lat="47.92584" lon="6.00138">
        <ele>215</ele>
        <time>2017-07-19T06:52:13Z</time>
      </trkpt>
      <trkpt lat="47.92589" lon="6.00142">
        <ele>215</ele>
        <time>2017-07-19T06:52:14Z</time>
      </trkpt>
      <trkpt lat="47.92594" lon="6.00145">
        <ele>215.19999694824</ele>
        <time>2017-07-19T06:52:15Z</time>
      </trkpt>
      <trkpt lat="47.9261" lon="6.00154">
        <ele>215.19999694824</ele>
        <time>2017-07-19T06:52:18Z</time>
      </trkpt>
      <trkpt lat="47.92634" lon="6.00181">
        <ele>215.19999694824</ele>
        <time>2017-07-19T06:52:23Z</time>
      </trkpt>
      <trkpt lat="47.92668" lon="6.0022">
        <ele>215.60000610352</ele>
        <time>2017-07-19T06:52:31Z</time>
      </trkpt>
      <trkpt lat="47.92672" lon="6.00223">
        <ele>215.60000610352</ele>
        <time>2017-07-19T06:52:32Z</time>
      </trkpt>
      <trkpt lat="47.92685" lon="6.00236">
        <ele>215.60000610352</ele>
        <time>2017-07-19T06:52:36Z</time>
      </trkpt>
      <trkpt lat="47.9269" lon="6.00239">
        <ele>215.80000305176</ele>
        <time>2017-07-19T06:53:25Z</time>
      </trkpt>
      <trkpt lat="47.92696" lon="6.00243">
        <ele>215.80000305176</ele>
        <time>2017-07-19T06:53:28Z</time>
      </trkpt>
      <trkpt lat="47.92713" lon="6.0026">
        <ele>216</ele>
        <time>2017-07-19T06:53:34Z</time>
      </trkpt>
      <trkpt lat="47.92729" lon="6.00273">
        <ele>216</ele>
        <time>2017-07-19T06:53:40Z</time>
      </trkpt>
      <trkpt lat="47.92734" lon="6.00278">
        <ele>216.39999389648</ele>
        <time>2017-07-19T06:53:42Z</time>
      </trkpt>
      <trkpt lat="47.92753" lon="6.00297">
        <ele>216.39999389648</ele>
        <time>2017-07-19T06:53:48Z</time>
      </trkpt>
      <trkpt lat="47.92764" lon="6.00307">
        <ele>216.39999389648</ele>
        <time>2017-07-19T06:53:51Z</time>
      </trkpt>
      <trkpt lat="47.92779" lon="6.0032">
        <ele>216.60000610352</ele>
        <time>2017-07-19T06:53:55Z</time>
      </trkpt>
      <trkpt lat="47.92799" lon="6.00338">
        <ele>216.80000305176</ele>
        <time>2017-07-19T06:54:01Z</time>
      </trkpt>
      <trkpt lat="47.92834" lon="6.00369">
        <ele>217</ele>
        <time>2017-07-19T06:54:10Z</time>
      </trkpt>
      <trkpt lat="47.92849" lon="6.00382">
        <ele>217.19999694824</ele>
        <time>2017-07-19T06:54:14Z</time>
      </trkpt>
      <trkpt lat="47.92865" lon="6.00396">
        <ele>217.39999389648</ele>
        <time>2017-07-19T06:54:18Z</time>
      </trkpt>
      <trkpt lat="47.92895" lon="6.00419">
        <ele>217.39999389648</ele>
        <time>2017-07-19T06:54:25Z</time>
      </trkpt>
      <trkpt lat="47.9293" lon="6.00436">
        <ele>217.60000610352</ele>
        <time>2017-07-19T06:54:32Z</time>
      </trkpt>
      <trkpt lat="47.92967" lon="6.00446">
        <ele>218</ele>
        <time>2017-07-19T06:54:39Z</time>
      </trkpt>
      <trkpt lat="47.93018" lon="6.00447">
        <ele>218.19999694824</ele>
        <time>2017-07-19T06:54:48Z</time>
      </trkpt>
      <trkpt lat="47.93069" lon="6.00433">
        <ele>218.39999389648</ele>
        <time>2017-07-19T06:54:57Z</time>
      </trkpt>
      <trkpt lat="47.93106" lon="6.00413">
        <ele>218.60000610352</ele>
        <time>2017-07-19T06:55:04Z</time>
      </trkpt>
      <trkpt lat="47.93144" lon="6.00382">
        <ele>218.80000305176</ele>
        <time>2017-07-19T06:55:12Z</time>
      </trkpt>
      <trkpt lat="47.93157" lon="6.00369">
        <ele>219.19999694824</ele>
        <time>2017-07-19T06:55:15Z</time>
      </trkpt>
      <trkpt lat="47.93192" lon="6.00332">
        <ele>219.80000305176</ele>
        <time>2017-07-19T06:55:23Z</time>
      </trkpt>
      <trkpt lat="47.93222" lon="6.00297">
        <ele>220</ele>
        <time>2017-07-19T06:55:31Z</time>
      </trkpt>
      <trkpt lat="47.93226" lon="6.00293">
        <ele>220.19999694824</ele>
        <time>2017-07-19T06:55:32Z</time>
      </trkpt>
      <trkpt lat="47.93249" lon="6.0027">
        <ele>220.80000305176</ele>
        <time>2017-07-19T06:55:38Z</time>
      </trkpt>
      <trkpt lat="47.93277" lon="6.00243">
        <ele>221.39999389648</ele>
        <time>2017-07-19T06:55:45Z</time>
      </trkpt>
      <trkpt lat="47.93281" lon="6.00239">
        <ele>221.39999389648</ele>
        <time>2017-07-19T06:55:46Z</time>
      </trkpt>
      <trkpt lat="47.93313" lon="6.00224">
        <ele>222</ele>
        <time>2017-07-19T06:55:53Z</time>
      </trkpt>
      <trkpt lat="47.93327" lon="6.00223">
        <ele>222.19999694824</ele>
        <time>2017-07-19T06:55:56Z</time>
      </trkpt>
      <trkpt lat="47.93331" lon="6.00226">
        <ele>222.39999389648</ele>
        <time>2017-07-19T06:55:57Z</time>
      </trkpt>
      <trkpt lat="47.93336" lon="6.00229">
        <ele>222.39999389648</ele>
        <time>2017-07-19T06:55:58Z</time>
      </trkpt>
      <trkpt lat="47.93348" lon="6.00238">
        <ele>223</ele>
        <time>2017-07-19T06:56:01Z</time>
      </trkpt>
      <trkpt lat="47.93365" lon="6.00255">
        <ele>223.39999389648</ele>
        <time>2017-07-19T06:56:05Z</time>
      </trkpt>
      <trkpt lat="47.93384" lon="6.00274">
        <ele>224.19999694824</ele>
        <time>2017-07-19T06:56:10Z</time>
      </trkpt>
      <trkpt lat="47.93391" lon="6.00282">
        <ele>224.60000610352</ele>
        <time>2017-07-19T06:56:12Z</time>
      </trkpt>
      <trkpt lat="47.93395" lon="6.00286">
        <ele>224.60000610352</ele>
        <time>2017-07-19T06:56:13Z</time>
      </trkpt>
      <trkpt lat="47.93424" lon="6.00318">
        <ele>225.39999389648</ele>
        <time>2017-07-19T06:56:21Z</time>
      </trkpt>
      <trkpt lat="47.93434" lon="6.00329">
        <ele>225.60000610352</ele>
        <time>2017-07-19T06:56:24Z</time>
      </trkpt>
      <trkpt lat="47.93461" lon="6.00356">
        <ele>226</ele>
        <time>2017-07-19T06:56:31Z</time>
      </trkpt>
      <trkpt lat="47.93485" lon="6.00378">
        <ele>226.39999389648</ele>
        <time>2017-07-19T06:56:37Z</time>
      </trkpt>
      <trkpt lat="47.9349" lon="6.0038">
        <ele>226.39999389648</ele>
        <time>2017-07-19T06:56:38Z</time>
      </trkpt>
      <trkpt lat="47.9351" lon="6.00386">
        <ele>226.60000610352</ele>
        <time>2017-07-19T06:56:42Z</time>
      </trkpt>
      <trkpt lat="47.93515" lon="6.00386">
        <ele>226.60000610352</ele>
        <time>2017-07-19T06:56:43Z</time>
      </trkpt>
      <trkpt lat="47.93531" lon="6.0038">
        <ele>226.39999389648</ele>
        <time>2017-07-19T06:56:46Z</time>
      </trkpt>
      <trkpt lat="47.93542" lon="6.00375">
        <ele>226.39999389648</ele>
        <time>2017-07-19T06:56:48Z</time>
      </trkpt>
      <trkpt lat="47.93547" lon="6.00374">
        <ele>226.19999694824</ele>
        <time>2017-07-19T06:56:49Z</time>
      </trkpt>
      <trkpt lat="47.93552" lon="6.00374">
        <ele>226.19999694824</ele>
        <time>2017-07-19T06:56:50Z</time>
      </trkpt>
      <trkpt lat="47.9356" lon="6.00384">
        <ele>226</ele>
        <time>2017-07-19T06:56:52Z</time>
      </trkpt>
      <trkpt lat="47.93561" lon="6.00391">
        <ele>226</ele>
        <time>2017-07-19T06:56:53Z</time>
      </trkpt>
      <trkpt lat="47.9356" lon="6.00399">
        <ele>226</ele>
        <time>2017-07-19T06:56:54Z</time>
      </trkpt>
      <trkpt lat="47.93557" lon="6.00412">
        <ele>225.80000305176</ele>
        <time>2017-07-19T06:56:56Z</time>
      </trkpt>
      <trkpt lat="47.93554" lon="6.00431">
        <ele>226</ele>
        <time>2017-07-19T06:56:59Z</time>
      </trkpt>
      <trkpt lat="47.93552" lon="6.00447">
        <ele>226.60000610352</ele>
        <time>2017-07-19T06:57:02Z</time>
      </trkpt>
      <trkpt lat="47.93551" lon="6.00452">
        <ele>226.60000610352</ele>
        <time>2017-07-19T06:57:03Z</time>
      </trkpt>
      <trkpt lat="47.93547" lon="6.00475">
        <ele>227.60000610352</ele>
        <time>2017-07-19T06:57:08Z</time>
      </trkpt>
      <trkpt lat="47.93545" lon="6.00483">
        <ele>228</ele>
        <time>2017-07-19T06:57:10Z</time>
      </trkpt>
      <trkpt lat="47.93541" lon="6.00498">
        <ele>228.80000305176</ele>
        <time>2017-07-19T06:57:14Z</time>
      </trkpt>
      <trkpt lat="47.93539" lon="6.00509">
        <ele>229.39999389648</ele>
        <time>2017-07-19T06:57:17Z</time>
      </trkpt>
      <trkpt lat="47.93538" lon="6.00522">
        <ele>229.80000305176</ele>
        <time>2017-07-19T06:57:20Z</time>
      </trkpt>
      <trkpt lat="47.93536" lon="6.00543">
        <ele>230.80000305176</ele>
        <time>2017-07-19T06:57:25Z</time>
      </trkpt>
      <trkpt lat="47.93535" lon="6.00547">
        <ele>230.80000305176</ele>
        <time>2017-07-19T06:57:26Z</time>
      </trkpt>
      <trkpt lat="47.93532" lon="6.00572">
        <ele>232</ele>
        <time>2017-07-19T06:57:32Z</time>
      </trkpt>
      <trkpt lat="47.93531" lon="6.00576">
        <ele>232.19999694824</ele>
        <time>2017-07-19T06:57:33Z</time>
      </trkpt>
      <trkpt lat="47.93527" lon="6.00598">
        <ele>233.19999694824</ele>
        <time>2017-07-19T06:57:39Z</time>
      </trkpt>
      <trkpt lat="47.93526" lon="6.00601">
        <ele>233.39999389648</ele>
        <time>2017-07-19T06:57:40Z</time>
      </trkpt>
      <trkpt lat="47.93526" lon="6.00615">
        <ele>234.19999694824</ele>
        <time>2017-07-19T06:57:44Z</time>
      </trkpt>
      <trkpt lat="47.93526" lon="6.00619">
        <ele>234.60000610352</ele>
        <time>2017-07-19T06:57:45Z</time>
      </trkpt>
      <trkpt lat="47.93524" lon="6.00634">
        <ele>235.19999694824</ele>
        <time>2017-07-19T06:57:49Z</time>
      </trkpt>
      <trkpt lat="47.93521" lon="6.00644">
        <ele>235.80000305176</ele>
        <time>2017-07-19T06:57:52Z</time>
      </trkpt>
      <trkpt lat="47.93519" lon="6.00651">
        <ele>236.39999389648</ele>
        <time>2017-07-19T06:57:54Z</time>
      </trkpt>
      <trkpt lat="47.93517" lon="6.00666">
        <ele>237.19999694824</ele>
        <time>2017-07-19T06:57:59Z</time>
      </trkpt>
      <trkpt lat="47.93517" lon="6.00674">
        <ele>237.39999389648</ele>
        <time>2017-07-19T06:58:01Z</time>
      </trkpt>
      <trkpt lat="47.93516" lon="6.00687">
        <ele>238.60000610352</ele>
        <time>2017-07-19T06:58:04Z</time>
      </trkpt>
      <trkpt lat="47.93511" lon="6.00713">
        <ele>239.60000610352</ele>
        <time>2017-07-19T06:58:10Z</time>
      </trkpt>
      <trkpt lat="47.93509" lon="6.00717">
        <ele>239.80000305176</ele>
        <time>2017-07-19T06:58:11Z</time>
      </trkpt>
      <trkpt lat="47.93502" lon="6.0074">
        <ele>240.80000305176</ele>
        <time>2017-07-19T06:58:17Z</time>
      </trkpt>
      <trkpt lat="47.93497" lon="6.00766">
        <ele>241.60000610352</ele>
        <time>2017-07-19T06:58:23Z</time>
      </trkpt>
      <trkpt lat="47.93498" lon="6.00776">
        <ele>242</ele>
        <time>2017-07-19T06:58:25Z</time>
      </trkpt>
      <trkpt lat="47.93496" lon="6.00807">
        <ele>243</ele>
        <time>2017-07-19T06:58:32Z</time>
      </trkpt>
      <trkpt lat="47.93491" lon="6.00838">
        <ele>244.19999694824</ele>
        <time>2017-07-19T06:58:39Z</time>
      </trkpt>
      <trkpt lat="47.9349" lon="6.00844">
        <ele>244.19999694824</ele>
        <time>2017-07-19T06:58:40Z</time>
      </trkpt>
      <trkpt lat="47.93485" lon="6.0089">
        <ele>245</ele>
        <time>2017-07-19T06:58:48Z</time>
      </trkpt>
      <trkpt lat="47.93481" lon="6.00907">
        <ele>245.19999694824</ele>
        <time>2017-07-19T06:58:51Z</time>
      </trkpt>
      <trkpt lat="47.93477" lon="6.00925">
        <ele>245.39999389648</ele>
        <time>2017-07-19T06:58:54Z</time>
      </trkpt>
      <trkpt lat="47.93473" lon="6.00969">
        <ele>246</ele>
        <time>2017-07-19T06:59:01Z</time>
      </trkpt>
      <trkpt lat="47.93461" lon="6.0101">
        <ele>246.19999694824</ele>
        <time>2017-07-19T06:59:08Z</time>
      </trkpt>
      <trkpt lat="47.9345" lon="6.01045">
        <ele>246.19999694824</ele>
        <time>2017-07-19T06:59:14Z</time>
      </trkpt>
      <trkpt lat="47.93445" lon="6.01071">
        <ele>246.19999694824</ele>
        <time>2017-07-19T06:59:18Z</time>
      </trkpt>
      <trkpt lat="47.93442" lon="6.01083">
        <ele>246.19999694824</ele>
        <time>2017-07-19T06:59:20Z</time>
      </trkpt>
      <trkpt lat="47.93425" lon="6.01129">
        <ele>246</ele>
        <time>2017-07-19T06:59:27Z</time>
      </trkpt>
      <trkpt lat="47.93415" lon="6.01154">
        <ele>245.80000305176</ele>
        <time>2017-07-19T06:59:31Z</time>
      </trkpt>
      <trkpt lat="47.93412" lon="6.01176">
        <ele>245.39999389648</ele>
        <time>2017-07-19T06:59:34Z</time>
      </trkpt>
      <trkpt lat="47.93401" lon="6.01221">
        <ele>245.19999694824</ele>
        <time>2017-07-19T06:59:40Z</time>
      </trkpt>
      <trkpt lat="47.93382" lon="6.013">
        <ele>244.39999389648</ele>
        <time>2017-07-19T06:59:50Z</time>
      </trkpt>
      <trkpt lat="47.93367" lon="6.01361">
        <ele>244.19999694824</ele>
        <time>2017-07-19T06:59:57Z</time>
      </trkpt>
      <trkpt lat="47.93349" lon="6.01439">
        <ele>243</ele>
        <time>2017-07-19T07:00:05Z</time>
      </trkpt>
      <trkpt lat="47.93342" lon="6.01473">
        <ele>242</ele>
        <time>2017-07-19T07:00:08Z</time>
      </trkpt>
      <trkpt lat="47.93336" lon="6.01508">
        <ele>240.80000305176</ele>
        <time>2017-07-19T07:00:11Z</time>
      </trkpt>
      <trkpt lat="47.93326" lon="6.01558">
        <ele>239.60000610352</ele>
        <time>2017-07-19T07:00:15Z</time>
      </trkpt>
      <trkpt lat="47.93324" lon="6.01571">
        <ele>239.19999694824</ele>
        <time>2017-07-19T07:00:16Z</time>
      </trkpt>
      <trkpt lat="47.9332" lon="6.01599">
        <ele>238.19999694824</ele>
        <time>2017-07-19T07:00:18Z</time>
      </trkpt>
      <trkpt lat="47.93313" lon="6.0164">
        <ele>236.80000305176</ele>
        <time>2017-07-19T07:00:21Z</time>
      </trkpt>
      <trkpt lat="47.93308" lon="6.01667">
        <ele>236</ele>
        <time>2017-07-19T07:00:23Z</time>
      </trkpt>
      <trkpt lat="47.93305" lon="6.0168">
        <ele>235.80000305176</ele>
        <time>2017-07-19T07:00:24Z</time>
      </trkpt>
      <trkpt lat="47.93294" lon="6.01728">
        <ele>234.39999389648</ele>
        <time>2017-07-19T07:00:28Z</time>
      </trkpt>
      <trkpt lat="47.93291" lon="6.0174">
        <ele>234.19999694824</ele>
        <time>2017-07-19T07:00:29Z</time>
      </trkpt>
      <trkpt lat="47.9329" lon="6.01787">
        <ele>233.39999389648</ele>
        <time>2017-07-19T07:00:33Z</time>
      </trkpt>
      <trkpt lat="47.9329" lon="6.01798">
        <ele>233.39999389648</ele>
        <time>2017-07-19T07:00:34Z</time>
      </trkpt>
      <trkpt lat="47.93289" lon="6.01845">
        <ele>234</ele>
        <time>2017-07-19T07:00:39Z</time>
      </trkpt>
      <trkpt lat="47.93288" lon="6.01873">
        <ele>234.39999389648</ele>
        <time>2017-07-19T07:00:42Z</time>
      </trkpt>
      <trkpt lat="47.93287" lon="6.01892">
        <ele>234.60000610352</ele>
        <time>2017-07-19T07:00:44Z</time>
      </trkpt>
      <trkpt lat="47.93285" lon="6.01913">
        <ele>234.60000610352</ele>
        <time>2017-07-19T07:00:46Z</time>
      </trkpt>
      <trkpt lat="47.93279" lon="6.01993">
        <ele>233.60000610352</ele>
        <time>2017-07-19T07:00:53Z</time>
      </trkpt>
      <trkpt lat="47.93278" lon="6.02005">
        <ele>233.19999694824</ele>
        <time>2017-07-19T07:00:54Z</time>
      </trkpt>
      <trkpt lat="47.93276" lon="6.02044">
        <ele>232.19999694824</ele>
        <time>2017-07-19T07:00:57Z</time>
      </trkpt>
      <trkpt lat="47.93275" lon="6.02072">
        <ele>231</ele>
        <time>2017-07-19T07:00:59Z</time>
      </trkpt>
      <trkpt lat="47.93276" lon="6.02102">
        <ele>230</ele>
        <time>2017-07-19T07:01:01Z</time>
      </trkpt>
      <trkpt lat="47.93277" lon="6.02131">
        <ele>228.80000305176</ele>
        <time>2017-07-19T07:01:03Z</time>
      </trkpt>
      <trkpt lat="47.93278" lon="6.02159">
        <ele>227.60000610352</ele>
        <time>2017-07-19T07:01:05Z</time>
      </trkpt>
      <trkpt lat="47.93278" lon="6.02199">
        <ele>226.60000610352</ele>
        <time>2017-07-19T07:01:08Z</time>
      </trkpt>
      <trkpt lat="47.93278" lon="6.02248">
        <ele>225.60000610352</ele>
        <time>2017-07-19T07:01:12Z</time>
      </trkpt>
      <trkpt lat="47.93278" lon="6.02272">
        <ele>225.39999389648</ele>
        <time>2017-07-19T07:01:14Z</time>
      </trkpt>
      <trkpt lat="47.93277" lon="6.02308">
        <ele>225</ele>
        <time>2017-07-19T07:01:17Z</time>
      </trkpt>
      <trkpt lat="47.93273" lon="6.02331">
        <ele>224.80000305176</ele>
        <time>2017-07-19T07:01:19Z</time>
      </trkpt>
      <trkpt lat="47.93264" lon="6.02365">
        <ele>224.19999694824</ele>
        <time>2017-07-19T07:01:22Z</time>
      </trkpt>
      <trkpt lat="47.93255" lon="6.02397">
        <ele>223.39999389648</ele>
        <time>2017-07-19T07:01:25Z</time>
      </trkpt>
      <trkpt lat="47.93249" lon="6.02418">
        <ele>223</ele>
        <time>2017-07-19T07:01:27Z</time>
      </trkpt>
      <trkpt lat="47.93229" lon="6.02477">
        <ele>222</ele>
        <time>2017-07-19T07:01:33Z</time>
      </trkpt>
      <trkpt lat="47.93226" lon="6.02487">
        <ele>221.80000305176</ele>
        <time>2017-07-19T07:01:34Z</time>
      </trkpt>
      <trkpt lat="47.93203" lon="6.02544">
        <ele>221.19999694824</ele>
        <time>2017-07-19T07:01:40Z</time>
      </trkpt>
      <trkpt lat="47.9319" lon="6.02553">
        <ele>220.80000305176</ele>
        <time>2017-07-19T07:01:42Z</time>
      </trkpt>
      <trkpt lat="47.93183" lon="6.02555">
        <ele>220.60000610352</ele>
        <time>2017-07-19T07:01:43Z</time>
      </trkpt>
      <trkpt lat="47.93176" lon="6.02557">
        <ele>220.39999389648</ele>
        <time>2017-07-19T07:01:44Z</time>
      </trkpt>
      <trkpt lat="47.9317" lon="6.0256">
        <ele>220.19999694824</ele>
        <time>2017-07-19T07:01:45Z</time>
      </trkpt>
      <trkpt lat="47.93161" lon="6.0257">
        <ele>220</ele>
        <time>2017-07-19T07:01:47Z</time>
      </trkpt>
      <trkpt lat="47.93159" lon="6.02589">
        <ele>219.60000610352</ele>
        <time>2017-07-19T07:01:49Z</time>
      </trkpt>
      <trkpt lat="47.93159" lon="6.02599">
        <ele>219.60000610352</ele>
        <time>2017-07-19T07:01:50Z</time>
      </trkpt>
      <trkpt lat="47.9316" lon="6.02609">
        <ele>219.60000610352</ele>
        <time>2017-07-19T07:01:51Z</time>
      </trkpt>
      <trkpt lat="47.93159" lon="6.02637">
        <ele>219.39999389648</ele>
        <time>2017-07-19T07:01:54Z</time>
      </trkpt>
      <trkpt lat="47.93155" lon="6.02654">
        <ele>219.19999694824</ele>
        <time>2017-07-19T07:01:56Z</time>
      </trkpt>
      <trkpt lat="47.93132" lon="6.02702">
        <ele>219</ele>
        <time>2017-07-19T07:02:02Z</time>
      </trkpt>
      <trkpt lat="47.9311" lon="6.02743">
        <ele>218.60000610352</ele>
        <time>2017-07-19T07:02:07Z</time>
      </trkpt>
      <trkpt lat="47.93102" lon="6.0276">
        <ele>218.60000610352</ele>
        <time>2017-07-19T07:02:09Z</time>
      </trkpt>
      <trkpt lat="47.9309" lon="6.02784">
        <ele>218.19999694824</ele>
        <time>2017-07-19T07:02:12Z</time>
      </trkpt>
      <trkpt lat="47.93085" lon="6.02802">
        <ele>218</ele>
        <time>2017-07-19T07:02:14Z</time>
      </trkpt>
      <trkpt lat="47.9308" lon="6.0283">
        <ele>217.80000305176</ele>
        <time>2017-07-19T07:02:17Z</time>
      </trkpt>
      <trkpt lat="47.9308" lon="6.02847">
        <ele>217.80000305176</ele>
        <time>2017-07-19T07:02:19Z</time>
      </trkpt>
      <trkpt lat="47.93083" lon="6.02893">
        <ele>217.60000610352</ele>
        <time>2017-07-19T07:02:25Z</time>
      </trkpt>
      <trkpt lat="47.93083" lon="6.02899">
        <ele>217.60000610352</ele>
        <time>2017-07-19T07:02:26Z</time>
      </trkpt>
      <trkpt lat="47.93087" lon="6.02919">
        <ele>217.60000610352</ele>
        <time>2017-07-19T07:02:30Z</time>
      </trkpt>
      <trkpt lat="47.93092" lon="6.02929">
        <ele>217.80000305176</ele>
        <time>2017-07-19T07:02:34Z</time>
      </trkpt>
      <trkpt lat="47.93093" lon="6.02931">
        <ele>217.80000305176</ele>
        <time>2017-07-19T07:02:55Z</time>
      </trkpt>
      <trkpt lat="47.93095" lon="6.02933">
        <ele>217.80000305176</ele>
        <time>2017-07-19T07:02:56Z</time>
      </trkpt>
      <trkpt lat="47.93098" lon="6.02943">
        <ele>217.80000305176</ele>
        <time>2017-07-19T07:02:59Z</time>
      </trkpt>
      <trkpt lat="47.931" lon="6.02951">
        <ele>217.80000305176</ele>
        <time>2017-07-19T07:03:01Z</time>
      </trkpt>
      <trkpt lat="47.93109" lon="6.02981">
        <ele>218</ele>
        <time>2017-07-19T07:03:07Z</time>
      </trkpt>
      <trkpt lat="47.93112" lon="6.02989">
        <ele>218.19999694824</ele>
        <time>2017-07-19T07:03:10Z</time>
      </trkpt>
      <trkpt lat="47.93108" lon="6.02983">
        <ele>218.19999694824</ele>
        <time>2017-07-19T07:03:13Z</time>
      </trkpt>
      <trkpt lat="47.93104" lon="6.02973">
        <ele>218.19999694824</ele>
        <time>2017-07-19T07:03:17Z</time>
      </trkpt>
      <trkpt lat="47.93103" lon="6.02973">
        <ele>218.19999694824</ele>
        <time>2017-07-19T07:03:43Z</time>
      </trkpt>
      <trkpt lat="47.931" lon="6.02974">
        <ele>218.19999694824</ele>
        <time>2017-07-19T07:03:45Z</time>
      </trkpt>
      <trkpt lat="47.93097" lon="6.02976">
        <ele>218.19999694824</ele>
        <time>2017-07-19T07:03:47Z</time>
      </trkpt>
      <trkpt lat="47.93093" lon="6.02974">
        <ele>218.19999694824</ele>
        <time>2017-07-19T07:03:49Z</time>
      </trkpt>
      <trkpt lat="47.93075" lon="6.02972">
        <ele>218.39999389648</ele>
        <time>2017-07-19T07:03:56Z</time>
      </trkpt>
      <trkpt lat="47.9307" lon="6.02975">
        <ele>218.60000610352</ele>
        <time>2017-07-19T07:03:58Z</time>
      </trkpt>
      <trkpt lat="47.93062" lon="6.02983">
        <ele>219.19999694824</ele>
        <time>2017-07-19T07:04:02Z</time>
      </trkpt>
      <trkpt lat="47.93059" lon="6.02994">
        <ele>219.39999389648</ele>
        <time>2017-07-19T07:04:05Z</time>
      </trkpt>
      <trkpt lat="47.9306" lon="6.02999">
        <ele>219.39999389648</ele>
        <time>2017-07-19T07:04:06Z</time>
      </trkpt>
      <trkpt lat="47.93068" lon="6.03013">
        <ele>219.39999389648</ele>
        <time>2017-07-19T07:04:09Z</time>
      </trkpt>
      <trkpt lat="47.93071" lon="6.03019">
        <ele>219.19999694824</ele>
        <time>2017-07-19T07:04:10Z</time>
      </trkpt>
      <trkpt lat="47.93088" lon="6.03053">
        <ele>219</ele>
        <time>2017-07-19T07:04:16Z</time>
      </trkpt>
      <trkpt lat="47.93099" lon="6.03077">
        <ele>219</ele>
        <time>2017-07-19T07:04:20Z</time>
      </trkpt>
      <trkpt lat="47.93104" lon="6.03089">
        <ele>219</ele>
        <time>2017-07-19T07:04:22Z</time>
      </trkpt>
      <trkpt lat="47.93127" lon="6.03138">
        <ele>219.19999694824</ele>
        <time>2017-07-19T07:04:30Z</time>
      </trkpt>
      <trkpt lat="47.93153" lon="6.03193">
        <ele>219.19999694824</ele>
        <time>2017-07-19T07:04:39Z</time>
      </trkpt>
      <trkpt lat="47.93175" lon="6.03243">
        <ele>219.19999694824</ele>
        <time>2017-07-19T07:04:47Z</time>
      </trkpt>
      <trkpt lat="47.93196" lon="6.03288">
        <ele>219.19999694824</ele>
        <time>2017-07-19T07:04:54Z</time>
      </trkpt>
      <trkpt lat="47.9322" lon="6.03343">
        <ele>219</ele>
        <time>2017-07-19T07:05:02Z</time>
      </trkpt>
      <trkpt lat="47.93236" lon="6.03377">
        <ele>219</ele>
        <time>2017-07-19T07:05:07Z</time>
      </trkpt>
      <trkpt lat="47.93245" lon="6.03396">
        <ele>218.80000305176</ele>
        <time>2017-07-19T07:05:10Z</time>
      </trkpt>
      <trkpt lat="47.93266" lon="6.03445">
        <ele>218.80000305176</ele>
        <time>2017-07-19T07:05:17Z</time>
      </trkpt>
      <trkpt lat="47.93292" lon="6.0351">
        <ele>218.80000305176</ele>
        <time>2017-07-19T07:05:26Z</time>
      </trkpt>
      <trkpt lat="47.93309" lon="6.03563">
        <ele>218.80000305176</ele>
        <time>2017-07-19T07:05:33Z</time>
      </trkpt>
      <trkpt lat="47.93324" lon="6.03618">
        <ele>218.80000305176</ele>
        <time>2017-07-19T07:05:40Z</time>
      </trkpt>
      <trkpt lat="47.93335" lon="6.03674">
        <ele>218.80000305176</ele>
        <time>2017-07-19T07:05:47Z</time>
      </trkpt>
      <trkpt lat="47.93343" lon="6.03727">
        <ele>218.80000305176</ele>
        <time>2017-07-19T07:05:54Z</time>
      </trkpt>
      <trkpt lat="47.93351" lon="6.03788">
        <ele>218.80000305176</ele>
        <time>2017-07-19T07:06:02Z</time>
      </trkpt>
      <trkpt lat="47.93358" lon="6.03834">
        <ele>218.80000305176</ele>
        <time>2017-07-19T07:06:09Z</time>
      </trkpt>
      <trkpt lat="47.93364" lon="6.03883">
        <ele>218.80000305176</ele>
        <time>2017-07-19T07:06:16Z</time>
      </trkpt>
      <trkpt lat="47.93366" lon="6.03898">
        <ele>219</ele>
        <time>2017-07-19T07:06:18Z</time>
      </trkpt>
      <trkpt lat="47.93375" lon="6.03963">
        <ele>219</ele>
        <time>2017-07-19T07:06:27Z</time>
      </trkpt>
      <trkpt lat="47.93389" lon="6.04019">
        <ele>219.19999694824</ele>
        <time>2017-07-19T07:06:35Z</time>
      </trkpt>
      <trkpt lat="47.93408" lon="6.04074">
        <ele>219.19999694824</ele>
        <time>2017-07-19T07:06:43Z</time>
      </trkpt>
      <trkpt lat="47.93411" lon="6.04081">
        <ele>219.19999694824</ele>
        <time>2017-07-19T07:06:44Z</time>
      </trkpt>
      <trkpt lat="47.93432" lon="6.04125">
        <ele>219.39999389648</ele>
        <time>2017-07-19T07:06:51Z</time>
      </trkpt>
      <trkpt lat="47.93463" lon="6.0417">
        <ele>219.39999389648</ele>
        <time>2017-07-19T07:06:59Z</time>
      </trkpt>
      <trkpt lat="47.93489" lon="6.042">
        <ele>219.60000610352</ele>
        <time>2017-07-19T07:07:06Z</time>
      </trkpt>
      <trkpt lat="47.93506" lon="6.04218">
        <ele>219.80000305176</ele>
        <time>2017-07-19T07:07:11Z</time>
      </trkpt>
      <trkpt lat="47.93512" lon="6.04224">
        <ele>220</ele>
        <time>2017-07-19T07:07:13Z</time>
      </trkpt>
      <trkpt lat="47.93528" lon="6.04238">
        <ele>220.80000305176</ele>
        <time>2017-07-19T07:07:18Z</time>
      </trkpt>
      <trkpt lat="47.93531" lon="6.04242">
        <ele>221</ele>
        <time>2017-07-19T07:07:19Z</time>
      </trkpt>
      <trkpt lat="47.93556" lon="6.04269">
        <ele>221.60000610352</ele>
        <time>2017-07-19T07:07:26Z</time>
      </trkpt>
      <trkpt lat="47.93584" lon="6.043">
        <ele>221.60000610352</ele>
        <time>2017-07-19T07:07:33Z</time>
      </trkpt>
      <trkpt lat="47.93621" lon="6.0434">
        <ele>221.80000305176</ele>
        <time>2017-07-19T07:07:42Z</time>
      </trkpt>
      <trkpt lat="47.93637" lon="6.04358">
        <ele>222</ele>
        <time>2017-07-19T07:07:46Z</time>
      </trkpt>
      <trkpt lat="47.93649" lon="6.04371">
        <ele>222</ele>
        <time>2017-07-19T07:07:49Z</time>
      </trkpt>
      <trkpt lat="47.9368" lon="6.04403">
        <ele>222</ele>
        <time>2017-07-19T07:07:56Z</time>
      </trkpt>
      <trkpt lat="47.93715" lon="6.04441">
        <ele>222</ele>
        <time>2017-07-19T07:08:04Z</time>
      </trkpt>
      <trkpt lat="47.9375" lon="6.04479">
        <ele>221.80000305176</ele>
        <time>2017-07-19T07:08:12Z</time>
      </trkpt>
      <trkpt lat="47.93783" lon="6.04516">
        <ele>222</ele>
        <time>2017-07-19T07:08:20Z</time>
      </trkpt>
      <trkpt lat="47.93811" lon="6.04545">
        <ele>222</ele>
        <time>2017-07-19T07:08:27Z</time>
      </trkpt>
      <trkpt lat="47.93841" lon="6.04577">
        <ele>222</ele>
        <time>2017-07-19T07:08:34Z</time>
      </trkpt>
      <trkpt lat="47.93872" lon="6.04606">
        <ele>222</ele>
        <time>2017-07-19T07:08:41Z</time>
      </trkpt>
      <trkpt lat="47.93882" lon="6.04613">
        <ele>222</ele>
        <time>2017-07-19T07:08:43Z</time>
      </trkpt>
      <trkpt lat="47.93902" lon="6.04625">
        <ele>222</ele>
        <time>2017-07-19T07:08:47Z</time>
      </trkpt>
      <trkpt lat="47.93938" lon="6.04643">
        <ele>222</ele>
        <time>2017-07-19T07:08:54Z</time>
      </trkpt>
      <trkpt lat="47.9398" lon="6.04653">
        <ele>222</ele>
        <time>2017-07-19T07:09:02Z</time>
      </trkpt>
      <trkpt lat="47.94024" lon="6.04651">
        <ele>222</ele>
        <time>2017-07-19T07:09:10Z</time>
      </trkpt>
      <trkpt lat="47.94045" lon="6.04649">
        <ele>222</ele>
        <time>2017-07-19T07:09:14Z</time>
      </trkpt>
      <trkpt lat="47.94056" lon="6.04646">
        <ele>222</ele>
        <time>2017-07-19T07:09:16Z</time>
      </trkpt>
      <trkpt lat="47.94112" lon="6.04636">
        <ele>222</ele>
        <time>2017-07-19T07:09:26Z</time>
      </trkpt>
      <trkpt lat="47.94145" lon="6.0463">
        <ele>222</ele>
        <time>2017-07-19T07:09:32Z</time>
      </trkpt>
      <trkpt lat="47.94188" lon="6.04623">
        <ele>222</ele>
        <time>2017-07-19T07:09:40Z</time>
      </trkpt>
      <trkpt lat="47.94228" lon="6.04615">
        <ele>222</ele>
        <time>2017-07-19T07:09:47Z</time>
      </trkpt>
      <trkpt lat="47.94262" lon="6.04609">
        <ele>222</ele>
        <time>2017-07-19T07:09:53Z</time>
      </trkpt>
      <trkpt lat="47.94307" lon="6.04602">
        <ele>222</ele>
        <time>2017-07-19T07:10:01Z</time>
      </trkpt>
      <trkpt lat="47.9435" lon="6.04595">
        <ele>222</ele>
        <time>2017-07-19T07:10:09Z</time>
      </trkpt>
      <trkpt lat="47.9438" lon="6.0459">
        <ele>221.80000305176</ele>
        <time>2017-07-19T07:10:15Z</time>
      </trkpt>
      <trkpt lat="47.94404" lon="6.04586">
        <ele>222</ele>
        <time>2017-07-19T07:10:20Z</time>
      </trkpt>
      <trkpt lat="47.94409" lon="6.04585">
        <ele>222</ele>
        <time>2017-07-19T07:10:21Z</time>
      </trkpt>
      <trkpt lat="47.94425" lon="6.04582">
        <ele>222</ele>
        <time>2017-07-19T07:10:24Z</time>
      </trkpt>
      <trkpt lat="47.94435" lon="6.04581">
        <ele>222</ele>
        <time>2017-07-19T07:10:26Z</time>
      </trkpt>
      <trkpt lat="47.9444" lon="6.0458">
        <ele>222</ele>
        <time>2017-07-19T07:10:27Z</time>
      </trkpt>
      <trkpt lat="47.94454" lon="6.04579">
        <ele>222</ele>
        <time>2017-07-19T07:10:30Z</time>
      </trkpt>
      <trkpt lat="47.94458" lon="6.04579">
        <ele>222</ele>
        <time>2017-07-19T07:10:31Z</time>
      </trkpt>
      <trkpt lat="47.94476" lon="6.04576">
        <ele>222</ele>
        <time>2017-07-19T07:10:36Z</time>
      </trkpt>
      <trkpt lat="47.94479" lon="6.04575">
        <ele>221.80000305176</ele>
        <time>2017-07-19T07:10:57Z</time>
      </trkpt>
      <trkpt lat="47.94492" lon="6.04571">
        <ele>221.80000305176</ele>
        <time>2017-07-19T07:11:02Z</time>
      </trkpt>
      <trkpt lat="47.94504" lon="6.04569">
        <ele>222</ele>
        <time>2017-07-19T07:11:05Z</time>
      </trkpt>
      <trkpt lat="47.94513" lon="6.04569">
        <ele>222</ele>
        <time>2017-07-19T07:11:07Z</time>
      </trkpt>
      <trkpt lat="47.94532" lon="6.04568">
        <ele>222</ele>
        <time>2017-07-19T07:11:11Z</time>
      </trkpt>
      <trkpt lat="47.94542" lon="6.04568">
        <ele>222.19999694824</ele>
        <time>2017-07-19T07:11:13Z</time>
      </trkpt>
      <trkpt lat="47.94573" lon="6.04569">
        <ele>222.19999694824</ele>
        <time>2017-07-19T07:11:19Z</time>
      </trkpt>
      <trkpt lat="47.94611" lon="6.04568">
        <ele>222.39999389648</ele>
        <time>2017-07-19T07:11:26Z</time>
      </trkpt>
      <trkpt lat="47.94637" lon="6.04568">
        <ele>222.39999389648</ele>
        <time>2017-07-19T07:11:31Z</time>
      </trkpt>
      <trkpt lat="47.94671" lon="6.04571">
        <ele>222.39999389648</ele>
        <time>2017-07-19T07:11:37Z</time>
      </trkpt>
      <trkpt lat="47.94707" lon="6.04576">
        <ele>222.19999694824</ele>
        <time>2017-07-19T07:11:43Z</time>
      </trkpt>
      <trkpt lat="47.94719" lon="6.04579">
        <ele>222.19999694824</ele>
        <time>2017-07-19T07:11:45Z</time>
      </trkpt>
      <trkpt lat="47.94743" lon="6.04583">
        <ele>222.19999694824</ele>
        <time>2017-07-19T07:11:49Z</time>
      </trkpt>
      <trkpt lat="47.94783" lon="6.04594">
        <ele>222.19999694824</ele>
        <time>2017-07-19T07:11:56Z</time>
      </trkpt>
      <trkpt lat="47.94806" lon="6.046">
        <ele>222.19999694824</ele>
        <time>2017-07-19T07:12:00Z</time>
      </trkpt>
      <trkpt lat="47.94816" lon="6.04603">
        <ele>222.19999694824</ele>
        <time>2017-07-19T07:12:02Z</time>
      </trkpt>
      <trkpt lat="47.94852" lon="6.0461">
        <ele>222.39999389648</ele>
        <time>2017-07-19T07:12:08Z</time>
      </trkpt>
      <trkpt lat="47.94886" lon="6.04619">
        <ele>222.19999694824</ele>
        <time>2017-07-19T07:12:14Z</time>
      </trkpt>
      <trkpt lat="47.94921" lon="6.04627">
        <ele>222.19999694824</ele>
        <time>2017-07-19T07:12:20Z</time>
      </trkpt>
      <trkpt lat="47.94956" lon="6.04634">
        <ele>222.39999389648</ele>
        <time>2017-07-19T07:12:26Z</time>
      </trkpt>
      <trkpt lat="47.94967" lon="6.04636">
        <ele>222.19999694824</ele>
        <time>2017-07-19T07:12:28Z</time>
      </trkpt>
      <trkpt lat="47.94987" lon="6.04638">
        <ele>222.19999694824</ele>
        <time>2017-07-19T07:12:32Z</time>
      </trkpt>
      <trkpt lat="47.95017" lon="6.04653">
        <ele>222.39999389648</ele>
        <time>2017-07-19T07:12:38Z</time>
      </trkpt>
      <trkpt lat="47.95021" lon="6.04656">
        <ele>222.39999389648</ele>
        <time>2017-07-19T07:12:39Z</time>
      </trkpt>
      <trkpt lat="47.95041" lon="6.04673">
        <ele>222.39999389648</ele>
        <time>2017-07-19T07:12:43Z</time>
      </trkpt>
      <trkpt lat="47.95047" lon="6.04677">
        <ele>222.39999389648</ele>
        <time>2017-07-19T07:12:44Z</time>
      </trkpt>
      <trkpt lat="47.95067" lon="6.04699">
        <ele>222.19999694824</ele>
        <time>2017-07-19T07:12:48Z</time>
      </trkpt>
      <trkpt lat="47.95096" lon="6.04737">
        <ele>222.19999694824</ele>
        <time>2017-07-19T07:12:54Z</time>
      </trkpt>
      <trkpt lat="47.951" lon="6.04744">
        <ele>222.19999694824</ele>
        <time>2017-07-19T07:12:55Z</time>
      </trkpt>
      <trkpt lat="47.95119" lon="6.04784">
        <ele>222.19999694824</ele>
        <time>2017-07-19T07:13:00Z</time>
      </trkpt>
      <trkpt lat="47.95133" lon="6.04833">
        <ele>222.19999694824</ele>
        <time>2017-07-19T07:13:06Z</time>
      </trkpt>
      <trkpt lat="47.95148" lon="6.04891">
        <ele>222.19999694824</ele>
        <time>2017-07-19T07:13:13Z</time>
      </trkpt>
      <trkpt lat="47.95165" lon="6.04952">
        <ele>222.19999694824</ele>
        <time>2017-07-19T07:13:20Z</time>
      </trkpt>
      <trkpt lat="47.95172" lon="6.04978">
        <ele>222.19999694824</ele>
        <time>2017-07-19T07:13:23Z</time>
      </trkpt>
      <trkpt lat="47.9518" lon="6.05004">
        <ele>222</ele>
        <time>2017-07-19T07:13:26Z</time>
      </trkpt>
      <trkpt lat="47.95195" lon="6.05057">
        <ele>222.19999694824</ele>
        <time>2017-07-19T07:13:32Z</time>
      </trkpt>
      <trkpt lat="47.95204" lon="6.05094">
        <ele>222</ele>
        <time>2017-07-19T07:13:36Z</time>
      </trkpt>
      <trkpt lat="47.95209" lon="6.05122">
        <ele>222</ele>
        <time>2017-07-19T07:13:39Z</time>
      </trkpt>
      <trkpt lat="47.95213" lon="6.05177">
        <ele>222</ele>
        <time>2017-07-19T07:13:45Z</time>
      </trkpt>
      <trkpt lat="47.9521" lon="6.05229">
        <ele>222.19999694824</ele>
        <time>2017-07-19T07:13:51Z</time>
      </trkpt>
      <trkpt lat="47.952" lon="6.05291">
        <ele>222.19999694824</ele>
        <time>2017-07-19T07:13:58Z</time>
      </trkpt>
      <trkpt lat="47.95189" lon="6.05352">
        <ele>222</ele>
        <time>2017-07-19T07:14:05Z</time>
      </trkpt>
      <trkpt lat="47.9518" lon="6.05401">
        <ele>222.19999694824</ele>
        <time>2017-07-19T07:14:11Z</time>
      </trkpt>
      <trkpt lat="47.95174" lon="6.05425">
        <ele>222.19999694824</ele>
        <time>2017-07-19T07:14:14Z</time>
      </trkpt>
      <trkpt lat="47.95172" lon="6.0544">
        <ele>222.19999694824</ele>
        <time>2017-07-19T07:14:16Z</time>
      </trkpt>
      <trkpt lat="47.9517" lon="6.05455">
        <ele>222.60000610352</ele>
        <time>2017-07-19T07:14:18Z</time>
      </trkpt>
      <trkpt lat="47.95169" lon="6.05468">
        <ele>223</ele>
        <time>2017-07-19T07:14:20Z</time>
      </trkpt>
      <trkpt lat="47.95168" lon="6.05475">
        <ele>223.19999694824</ele>
        <time>2017-07-19T07:14:21Z</time>
      </trkpt>
      <trkpt lat="47.95168" lon="6.05483">
        <ele>223.39999389648</ele>
        <time>2017-07-19T07:14:22Z</time>
      </trkpt>
      <trkpt lat="47.95167" lon="6.05506">
        <ele>224</ele>
        <time>2017-07-19T07:14:25Z</time>
      </trkpt>
      <trkpt lat="47.95167" lon="6.05533">
        <ele>224.19999694824</ele>
        <time>2017-07-19T07:14:28Z</time>
      </trkpt>
      <trkpt lat="47.95167" lon="6.05561">
        <ele>224</ele>
        <time>2017-07-19T07:14:31Z</time>
      </trkpt>
      <trkpt lat="47.95168" lon="6.05581">
        <ele>223.60000610352</ele>
        <time>2017-07-19T07:14:33Z</time>
      </trkpt>
      <trkpt lat="47.95168" lon="6.05601">
        <ele>222.80000305176</ele>
        <time>2017-07-19T07:14:35Z</time>
      </trkpt>
      <trkpt lat="47.95168" lon="6.05658">
        <ele>222.39999389648</ele>
        <time>2017-07-19T07:14:41Z</time>
      </trkpt>
      <trkpt lat="47.9517" lon="6.05717">
        <ele>222.39999389648</ele>
        <time>2017-07-19T07:14:47Z</time>
      </trkpt>
      <trkpt lat="47.95171" lon="6.05727">
        <ele>222.39999389648</ele>
        <time>2017-07-19T07:14:48Z</time>
      </trkpt>
      <trkpt lat="47.95177" lon="6.05775">
        <ele>222.19999694824</ele>
        <time>2017-07-19T07:14:53Z</time>
      </trkpt>
      <trkpt lat="47.95188" lon="6.0586">
        <ele>222.19999694824</ele>
        <time>2017-07-19T07:15:02Z</time>
      </trkpt>
      <trkpt lat="47.95199" lon="6.05916">
        <ele>222.19999694824</ele>
        <time>2017-07-19T07:15:08Z</time>
      </trkpt>
      <trkpt lat="47.95211" lon="6.05968">
        <ele>222.19999694824</ele>
        <time>2017-07-19T07:15:14Z</time>
      </trkpt>
      <trkpt lat="47.95214" lon="6.05977">
        <ele>222.19999694824</ele>
        <time>2017-07-19T07:15:15Z</time>
      </trkpt>
      <trkpt lat="47.95233" lon="6.06046">
        <ele>222.39999389648</ele>
        <time>2017-07-19T07:15:23Z</time>
      </trkpt>
      <trkpt lat="47.95253" lon="6.06108">
        <ele>222.39999389648</ele>
        <time>2017-07-19T07:15:30Z</time>
      </trkpt>
      <trkpt lat="47.95277" lon="6.06177">
        <ele>222.39999389648</ele>
        <time>2017-07-19T07:15:38Z</time>
      </trkpt>
      <trkpt lat="47.953" lon="6.06245">
        <ele>222.39999389648</ele>
        <time>2017-07-19T07:15:46Z</time>
      </trkpt>
      <trkpt lat="47.95316" lon="6.06297">
        <ele>222.39999389648</ele>
        <time>2017-07-19T07:15:52Z</time>
      </trkpt>
      <trkpt lat="47.95342" lon="6.06377">
        <ele>222.39999389648</ele>
        <time>2017-07-19T07:16:01Z</time>
      </trkpt>
      <trkpt lat="47.95368" lon="6.06454">
        <ele>222.39999389648</ele>
        <time>2017-07-19T07:16:10Z</time>
      </trkpt>
      <trkpt lat="47.95393" lon="6.06531">
        <ele>222.60000610352</ele>
        <time>2017-07-19T07:16:19Z</time>
      </trkpt>
      <trkpt lat="47.9542" lon="6.06611">
        <ele>222.60000610352</ele>
        <time>2017-07-19T07:16:28Z</time>
      </trkpt>
      <trkpt lat="47.95438" lon="6.06671">
        <ele>222.39999389648</ele>
        <time>2017-07-19T07:16:35Z</time>
      </trkpt>
      <trkpt lat="47.95458" lon="6.0675">
        <ele>222.60000610352</ele>
        <time>2017-07-19T07:16:44Z</time>
      </trkpt>
      <trkpt lat="47.95471" lon="6.06813">
        <ele>222.80000305176</ele>
        <time>2017-07-19T07:16:51Z</time>
      </trkpt>
      <trkpt lat="47.95481" lon="6.06888">
        <ele>223</ele>
        <time>2017-07-19T07:16:59Z</time>
      </trkpt>
      <trkpt lat="47.95491" lon="6.06964">
        <ele>223</ele>
        <time>2017-07-19T07:17:07Z</time>
      </trkpt>
      <trkpt lat="47.95497" lon="6.07039">
        <ele>222.80000305176</ele>
        <time>2017-07-19T07:17:15Z</time>
      </trkpt>
      <trkpt lat="47.95502" lon="6.07124">
        <ele>223</ele>
        <time>2017-07-19T07:17:24Z</time>
      </trkpt>
      <trkpt lat="47.95508" lon="6.07209">
        <ele>223</ele>
        <time>2017-07-19T07:17:33Z</time>
      </trkpt>
      <trkpt lat="47.95512" lon="6.07282">
        <ele>223.19999694824</ele>
        <time>2017-07-19T07:17:41Z</time>
      </trkpt>
      <trkpt lat="47.95517" lon="6.07344">
        <ele>223.39999389648</ele>
        <time>2017-07-19T07:17:48Z</time>
      </trkpt>
      <trkpt lat="47.9552" lon="6.074">
        <ele>223.80000305176</ele>
        <time>2017-07-19T07:17:55Z</time>
      </trkpt>
      <trkpt lat="47.95525" lon="6.07454">
        <ele>224.39999389648</ele>
        <time>2017-07-19T07:18:02Z</time>
      </trkpt>
      <trkpt lat="47.95528" lon="6.07515">
        <ele>224.39999389648</ele>
        <time>2017-07-19T07:18:09Z</time>
      </trkpt>
      <trkpt lat="47.95531" lon="6.07577">
        <ele>224.60000610352</ele>
        <time>2017-07-19T07:18:16Z</time>
      </trkpt>
      <trkpt lat="47.95535" lon="6.07603">
        <ele>224.60000610352</ele>
        <time>2017-07-19T07:18:19Z</time>
      </trkpt>
      <trkpt lat="47.9554" lon="6.07628">
        <ele>224.60000610352</ele>
        <time>2017-07-19T07:18:22Z</time>
      </trkpt>
      <trkpt lat="47.95549" lon="6.07662">
        <ele>224.60000610352</ele>
        <time>2017-07-19T07:18:26Z</time>
      </trkpt>
      <trkpt lat="47.95557" lon="6.07687">
        <ele>224.60000610352</ele>
        <time>2017-07-19T07:18:29Z</time>
      </trkpt>
      <trkpt lat="47.95581" lon="6.0774">
        <ele>224.60000610352</ele>
        <time>2017-07-19T07:18:36Z</time>
      </trkpt>
      <trkpt lat="47.95612" lon="6.07788">
        <ele>224.60000610352</ele>
        <time>2017-07-19T07:18:43Z</time>
      </trkpt>
      <trkpt lat="47.95651" lon="6.07834">
        <ele>224.80000305176</ele>
        <time>2017-07-19T07:18:51Z</time>
      </trkpt>
      <trkpt lat="47.95693" lon="6.07878">
        <ele>224.80000305176</ele>
        <time>2017-07-19T07:18:59Z</time>
      </trkpt>
      <trkpt lat="47.95704" lon="6.07889">
        <ele>225</ele>
        <time>2017-07-19T07:19:01Z</time>
      </trkpt>
      <trkpt lat="47.95737" lon="6.07922">
        <ele>225</ele>
        <time>2017-07-19T07:19:07Z</time>
      </trkpt>
      <trkpt lat="47.95786" lon="6.07971">
        <ele>225</ele>
        <time>2017-07-19T07:19:16Z</time>
      </trkpt>
      <trkpt lat="47.95833" lon="6.08019">
        <ele>225</ele>
        <time>2017-07-19T07:19:25Z</time>
      </trkpt>
      <trkpt lat="47.95838" lon="6.08025">
        <ele>225</ele>
        <time>2017-07-19T07:19:26Z</time>
      </trkpt>
      <trkpt lat="47.95885" lon="6.08073">
        <ele>225.19999694824</ele>
        <time>2017-07-19T07:19:36Z</time>
      </trkpt>
      <trkpt lat="47.95891" lon="6.08078">
        <ele>225.19999694824</ele>
        <time>2017-07-19T07:19:37Z</time>
      </trkpt>
      <trkpt lat="47.95932" lon="6.08121">
        <ele>225.39999389648</ele>
        <time>2017-07-19T07:19:45Z</time>
      </trkpt>
      <trkpt lat="47.95972" lon="6.08163">
        <ele>225.39999389648</ele>
        <time>2017-07-19T07:19:53Z</time>
      </trkpt>
      <trkpt lat="47.9601" lon="6.08204">
        <ele>225.19999694824</ele>
        <time>2017-07-19T07:20:00Z</time>
      </trkpt>
      <trkpt lat="47.96044" lon="6.08249">
        <ele>225</ele>
        <time>2017-07-19T07:20:07Z</time>
      </trkpt>
      <trkpt lat="47.96068" lon="6.08294">
        <ele>225.19999694824</ele>
        <time>2017-07-19T07:20:13Z</time>
      </trkpt>
      <trkpt lat="47.96094" lon="6.08359">
        <ele>225.19999694824</ele>
        <time>2017-07-19T07:20:21Z</time>
      </trkpt>
      <trkpt lat="47.96116" lon="6.08436">
        <ele>225.19999694824</ele>
        <time>2017-07-19T07:20:30Z</time>
      </trkpt>
      <trkpt lat="47.96127" lon="6.08489">
        <ele>225.19999694824</ele>
        <time>2017-07-19T07:20:36Z</time>
      </trkpt>
      <trkpt lat="47.96135" lon="6.08551">
        <ele>225.39999389648</ele>
        <time>2017-07-19T07:20:43Z</time>
      </trkpt>
      <trkpt lat="47.9614" lon="6.08602">
        <ele>225.39999389648</ele>
        <time>2017-07-19T07:20:50Z</time>
      </trkpt>
      <trkpt lat="47.96145" lon="6.08646">
        <ele>225.39999389648</ele>
        <time>2017-07-19T07:20:57Z</time>
      </trkpt>
      <trkpt lat="47.96148" lon="6.08664">
        <ele>225.60000610352</ele>
        <time>2017-07-19T07:21:02Z</time>
      </trkpt>
      <trkpt lat="47.96148" lon="6.08678">
        <ele>225.60000610352</ele>
        <time>2017-07-19T07:21:44Z</time>
      </trkpt>
      <trkpt lat="47.96148" lon="6.08686">
        <ele>225.60000610352</ele>
        <time>2017-07-19T07:21:46Z</time>
      </trkpt>
      <trkpt lat="47.96149" lon="6.08713">
        <ele>225.60000610352</ele>
        <time>2017-07-19T07:21:51Z</time>
      </trkpt>
      <trkpt lat="47.96149" lon="6.08727">
        <ele>225.80000305176</ele>
        <time>2017-07-19T07:21:53Z</time>
      </trkpt>
      <trkpt lat="47.9615" lon="6.08742">
        <ele>225.80000305176</ele>
        <time>2017-07-19T07:21:55Z</time>
      </trkpt>
      <trkpt lat="47.9615" lon="6.08749">
        <ele>225.80000305176</ele>
        <time>2017-07-19T07:21:56Z</time>
      </trkpt>
      <trkpt lat="47.96152" lon="6.08781">
        <ele>226</ele>
        <time>2017-07-19T07:22:00Z</time>
      </trkpt>
      <trkpt lat="47.96153" lon="6.08789">
        <ele>226</ele>
        <time>2017-07-19T07:22:01Z</time>
      </trkpt>
      <trkpt lat="47.96155" lon="6.08805">
        <ele>226</ele>
        <time>2017-07-19T07:22:03Z</time>
      </trkpt>
      <trkpt lat="47.96159" lon="6.08872">
        <ele>226</ele>
        <time>2017-07-19T07:22:11Z</time>
      </trkpt>
      <trkpt lat="47.96162" lon="6.08942">
        <ele>226</ele>
        <time>2017-07-19T07:22:19Z</time>
      </trkpt>
      <trkpt lat="47.96162" lon="6.0901">
        <ele>226.19999694824</ele>
        <time>2017-07-19T07:22:27Z</time>
      </trkpt>
      <trkpt lat="47.9616" lon="6.09087">
        <ele>226.60000610352</ele>
        <time>2017-07-19T07:22:36Z</time>
      </trkpt>
      <trkpt lat="47.96155" lon="6.09157">
        <ele>226.80000305176</ele>
        <time>2017-07-19T07:22:44Z</time>
      </trkpt>
      <trkpt lat="47.96148" lon="6.09237">
        <ele>226.80000305176</ele>
        <time>2017-07-19T07:22:53Z</time>
      </trkpt>
      <trkpt lat="47.96139" lon="6.09324">
        <ele>226.60000610352</ele>
        <time>2017-07-19T07:23:03Z</time>
      </trkpt>
      <trkpt lat="47.96137" lon="6.09333">
        <ele>226.60000610352</ele>
        <time>2017-07-19T07:23:04Z</time>
      </trkpt>
      <trkpt lat="47.96127" lon="6.0942">
        <ele>226.60000610352</ele>
        <time>2017-07-19T07:23:14Z</time>
      </trkpt>
      <trkpt lat="47.96121" lon="6.09482">
        <ele>226.60000610352</ele>
        <time>2017-07-19T07:23:21Z</time>
      </trkpt>
      <trkpt lat="47.96116" lon="6.0953">
        <ele>226.80000305176</ele>
        <time>2017-07-19T07:23:27Z</time>
      </trkpt>
      <trkpt lat="47.96115" lon="6.09544">
        <ele>227</ele>
        <time>2017-07-19T07:23:29Z</time>
      </trkpt>
      <trkpt lat="47.96113" lon="6.09573">
        <ele>227.60000610352</ele>
        <time>2017-07-19T07:23:33Z</time>
      </trkpt>
      <trkpt lat="47.96106" lon="6.09631">
        <ele>228</ele>
        <time>2017-07-19T07:23:40Z</time>
      </trkpt>
      <trkpt lat="47.96103" lon="6.09648">
        <ele>228</ele>
        <time>2017-07-19T07:23:42Z</time>
      </trkpt>
      <trkpt lat="47.96096" lon="6.09701">
        <ele>228.19999694824</ele>
        <time>2017-07-19T07:23:48Z</time>
      </trkpt>
      <trkpt lat="47.96088" lon="6.09772">
        <ele>228.19999694824</ele>
        <time>2017-07-19T07:23:56Z</time>
      </trkpt>
      <trkpt lat="47.96077" lon="6.09843">
        <ele>228</ele>
        <time>2017-07-19T07:24:04Z</time>
      </trkpt>
      <trkpt lat="47.96061" lon="6.09904">
        <ele>227.80000305176</ele>
        <time>2017-07-19T07:24:11Z</time>
      </trkpt>
      <trkpt lat="47.96043" lon="6.09962">
        <ele>228</ele>
        <time>2017-07-19T07:24:18Z</time>
      </trkpt>
      <trkpt lat="47.96021" lon="6.10037">
        <ele>228</ele>
        <time>2017-07-19T07:24:27Z</time>
      </trkpt>
      <trkpt lat="47.96" lon="6.10103">
        <ele>228</ele>
        <time>2017-07-19T07:24:35Z</time>
      </trkpt>
      <trkpt lat="47.95984" lon="6.10159">
        <ele>228.19999694824</ele>
        <time>2017-07-19T07:24:43Z</time>
      </trkpt>
      <trkpt lat="47.95979" lon="6.10177">
        <ele>229.19999694824</ele>
        <time>2017-07-19T07:24:47Z</time>
      </trkpt>
      <trkpt lat="47.95978" lon="6.10182">
        <ele>229.60000610352</ele>
        <time>2017-07-19T07:24:48Z</time>
      </trkpt>
      <trkpt lat="47.95975" lon="6.10193">
        <ele>230.19999694824</ele>
        <time>2017-07-19T07:24:50Z</time>
      </trkpt>
      <trkpt lat="47.95973" lon="6.10199">
        <ele>230.39999389648</ele>
        <time>2017-07-19T07:24:51Z</time>
      </trkpt>
      <trkpt lat="47.9597" lon="6.10212">
        <ele>230.60000610352</ele>
        <time>2017-07-19T07:24:53Z</time>
      </trkpt>
      <trkpt lat="47.95963" lon="6.10232">
        <ele>230.80000305176</ele>
        <time>2017-07-19T07:24:56Z</time>
      </trkpt>
      <trkpt lat="47.95956" lon="6.10253">
        <ele>230.80000305176</ele>
        <time>2017-07-19T07:24:59Z</time>
      </trkpt>
      <trkpt lat="47.95939" lon="6.10307">
        <ele>231</ele>
        <time>2017-07-19T07:25:06Z</time>
      </trkpt>
      <trkpt lat="47.95927" lon="6.10366">
        <ele>230.80000305176</ele>
        <time>2017-07-19T07:25:13Z</time>
      </trkpt>
      <trkpt lat="47.9592" lon="6.10417">
        <ele>230.80000305176</ele>
        <time>2017-07-19T07:25:19Z</time>
      </trkpt>
      <trkpt lat="47.95912" lon="6.10477">
        <ele>231</ele>
        <time>2017-07-19T07:25:26Z</time>
      </trkpt>
      <trkpt lat="47.95904" lon="6.1055">
        <ele>231.19999694824</ele>
        <time>2017-07-19T07:25:34Z</time>
      </trkpt>
      <trkpt lat="47.95898" lon="6.10613">
        <ele>231</ele>
        <time>2017-07-19T07:25:41Z</time>
      </trkpt>
      <trkpt lat="47.95889" lon="6.10687">
        <ele>230.80000305176</ele>
        <time>2017-07-19T07:25:49Z</time>
      </trkpt>
      <trkpt lat="47.95884" lon="6.10751">
        <ele>231</ele>
        <time>2017-07-19T07:25:56Z</time>
      </trkpt>
      <trkpt lat="47.95888" lon="6.10817">
        <ele>231</ele>
        <time>2017-07-19T07:26:03Z</time>
      </trkpt>
      <trkpt lat="47.95898" lon="6.1089">
        <ele>231</ele>
        <time>2017-07-19T07:26:11Z</time>
      </trkpt>
      <trkpt lat="47.95909" lon="6.10974">
        <ele>231</ele>
        <time>2017-07-19T07:26:20Z</time>
      </trkpt>
      <trkpt lat="47.95921" lon="6.11057">
        <ele>230.80000305176</ele>
        <time>2017-07-19T07:26:29Z</time>
      </trkpt>
      <trkpt lat="47.95931" lon="6.1113">
        <ele>231</ele>
        <time>2017-07-19T07:26:37Z</time>
      </trkpt>
      <trkpt lat="47.95942" lon="6.11194">
        <ele>230.80000305176</ele>
        <time>2017-07-19T07:26:44Z</time>
      </trkpt>
      <trkpt lat="47.9595" lon="6.11277">
        <ele>230.80000305176</ele>
        <time>2017-07-19T07:26:53Z</time>
      </trkpt>
      <trkpt lat="47.95951" lon="6.11305">
        <ele>230.80000305176</ele>
        <time>2017-07-19T07:26:56Z</time>
      </trkpt>
      <trkpt lat="47.95952" lon="6.11324">
        <ele>230.80000305176</ele>
        <time>2017-07-19T07:26:58Z</time>
      </trkpt>
      <trkpt lat="47.95954" lon="6.11399">
        <ele>230.80000305176</ele>
        <time>2017-07-19T07:27:06Z</time>
      </trkpt>
      <trkpt lat="47.95957" lon="6.11483">
        <ele>230.80000305176</ele>
        <time>2017-07-19T07:27:15Z</time>
      </trkpt>
      <trkpt lat="47.95959" lon="6.11565">
        <ele>231</ele>
        <time>2017-07-19T07:27:24Z</time>
      </trkpt>
      <trkpt lat="47.95959" lon="6.11574">
        <ele>231</ele>
        <time>2017-07-19T07:27:25Z</time>
      </trkpt>
      <trkpt lat="47.95961" lon="6.11639">
        <ele>231</ele>
        <time>2017-07-19T07:27:32Z</time>
      </trkpt>
      <trkpt lat="47.9596" lon="6.11714">
        <ele>230.80000305176</ele>
        <time>2017-07-19T07:27:40Z</time>
      </trkpt>
      <trkpt lat="47.95958" lon="6.11787">
        <ele>230.80000305176</ele>
        <time>2017-07-19T07:27:48Z</time>
      </trkpt>
      <trkpt lat="47.95955" lon="6.11833">
        <ele>231</ele>
        <time>2017-07-19T07:27:53Z</time>
      </trkpt>
      <trkpt lat="47.95952" lon="6.11861">
        <ele>230.80000305176</ele>
        <time>2017-07-19T07:27:56Z</time>
      </trkpt>
      <trkpt lat="47.95945" lon="6.11917">
        <ele>230.80000305176</ele>
        <time>2017-07-19T07:28:02Z</time>
      </trkpt>
      <trkpt lat="47.95933" lon="6.11988">
        <ele>230.80000305176</ele>
        <time>2017-07-19T07:28:10Z</time>
      </trkpt>
      <trkpt lat="47.95924" lon="6.12041">
        <ele>230.80000305176</ele>
        <time>2017-07-19T07:28:16Z</time>
      </trkpt>
      <trkpt lat="47.95912" lon="6.12106">
        <ele>230.80000305176</ele>
        <time>2017-07-19T07:28:23Z</time>
      </trkpt>
      <trkpt lat="47.95905" lon="6.12141">
        <ele>230.80000305176</ele>
        <time>2017-07-19T07:28:27Z</time>
      </trkpt>
      <trkpt lat="47.959" lon="6.12158">
        <ele>230.80000305176</ele>
        <time>2017-07-19T07:28:29Z</time>
      </trkpt>
      <trkpt lat="47.95884" lon="6.12218">
        <ele>231</ele>
        <time>2017-07-19T07:28:36Z</time>
      </trkpt>
      <trkpt lat="47.95863" lon="6.12294">
        <ele>231</ele>
        <time>2017-07-19T07:28:45Z</time>
      </trkpt>
      <trkpt lat="47.95848" lon="6.12353">
        <ele>231</ele>
        <time>2017-07-19T07:28:52Z</time>
      </trkpt>
      <trkpt lat="47.95835" lon="6.12433">
        <ele>231</ele>
        <time>2017-07-19T07:29:01Z</time>
      </trkpt>
      <trkpt lat="47.9583" lon="6.12469">
        <ele>231</ele>
        <time>2017-07-19T07:29:05Z</time>
      </trkpt>
      <trkpt lat="47.95824" lon="6.12494">
        <ele>231</ele>
        <time>2017-07-19T07:29:08Z</time>
      </trkpt>
      <trkpt lat="47.95821" lon="6.12512">
        <ele>231</ele>
        <time>2017-07-19T07:29:10Z</time>
      </trkpt>
      <trkpt lat="47.95817" lon="6.12538">
        <ele>231</ele>
        <time>2017-07-19T07:29:13Z</time>
      </trkpt>
      <trkpt lat="47.95808" lon="6.12595">
        <ele>231.39999389648</ele>
        <time>2017-07-19T07:29:20Z</time>
      </trkpt>
      <trkpt lat="47.95801" lon="6.12637">
        <ele>231.80000305176</ele>
        <time>2017-07-19T07:29:25Z</time>
      </trkpt>
      <trkpt lat="47.95789" lon="6.12693">
        <ele>231.80000305176</ele>
        <time>2017-07-19T07:29:32Z</time>
      </trkpt>
      <trkpt lat="47.95782" lon="6.12763">
        <ele>231.39999389648</ele>
        <time>2017-07-19T07:29:41Z</time>
      </trkpt>
      <trkpt lat="47.9578" lon="6.12791">
        <ele>231.39999389648</ele>
        <time>2017-07-19T07:29:45Z</time>
      </trkpt>
      <trkpt lat="47.95779" lon="6.12803">
        <ele>231.60000610352</ele>
        <time>2017-07-19T07:29:47Z</time>
      </trkpt>
      <trkpt lat="47.95777" lon="6.12824">
        <ele>232.60000610352</ele>
        <time>2017-07-19T07:29:52Z</time>
      </trkpt>
      <trkpt lat="47.95779" lon="6.12827">
        <ele>232.80000305176</ele>
        <time>2017-07-19T07:29:53Z</time>
      </trkpt>
      <trkpt lat="47.95787" lon="6.12839">
        <ele>233.60000610352</ele>
        <time>2017-07-19T07:29:57Z</time>
      </trkpt>
      <trkpt lat="47.95791" lon="6.12845">
        <ele>234</ele>
        <time>2017-07-19T07:29:59Z</time>
      </trkpt>
      <trkpt lat="47.95801" lon="6.12855">
        <ele>234.60000610352</ele>
        <time>2017-07-19T07:30:03Z</time>
      </trkpt>
      <trkpt lat="47.95807" lon="6.12858">
        <ele>235</ele>
        <time>2017-07-19T07:30:05Z</time>
      </trkpt>
      <trkpt lat="47.95823" lon="6.12863">
        <ele>235.80000305176</ele>
        <time>2017-07-19T07:30:10Z</time>
      </trkpt>
      <trkpt lat="47.95826" lon="6.12864">
        <ele>236</ele>
        <time>2017-07-19T07:30:11Z</time>
      </trkpt>
      <trkpt lat="47.95838" lon="6.12867">
        <ele>236.80000305176</ele>
        <time>2017-07-19T07:30:15Z</time>
      </trkpt>
      <trkpt lat="47.95843" lon="6.12868">
        <ele>237.19999694824</ele>
        <time>2017-07-19T07:30:17Z</time>
      </trkpt>
      <trkpt lat="47.95859" lon="6.12877">
        <ele>237.39999389648</ele>
        <time>2017-07-19T07:30:23Z</time>
      </trkpt>
      <trkpt lat="47.95862" lon="6.12889">
        <ele>237.39999389648</ele>
        <time>2017-07-19T07:30:25Z</time>
      </trkpt>
      <trkpt lat="47.95864" lon="6.12903">
        <ele>237.39999389648</ele>
        <time>2017-07-19T07:30:27Z</time>
      </trkpt>
      <trkpt lat="47.95869" lon="6.1296">
        <ele>237</ele>
        <time>2017-07-19T07:30:35Z</time>
      </trkpt>
      <trkpt lat="47.95879" lon="6.13001">
        <ele>237.19999694824</ele>
        <time>2017-07-19T07:30:41Z</time>
      </trkpt>
      <trkpt lat="47.95882" lon="6.13007">
        <ele>237.19999694824</ele>
        <time>2017-07-19T07:30:42Z</time>
      </trkpt>
      <trkpt lat="47.95911" lon="6.13056">
        <ele>237.80000305176</ele>
        <time>2017-07-19T07:30:51Z</time>
      </trkpt>
      <trkpt lat="47.95914" lon="6.13061">
        <ele>237.80000305176</ele>
        <time>2017-07-19T07:30:52Z</time>
      </trkpt>
      <trkpt lat="47.95926" lon="6.13082">
        <ele>238.19999694824</ele>
        <time>2017-07-19T07:30:56Z</time>
      </trkpt>
      <trkpt lat="47.95931" lon="6.13092">
        <ele>238.39999389648</ele>
        <time>2017-07-19T07:30:58Z</time>
      </trkpt>
      <trkpt lat="47.95942" lon="6.1311">
        <ele>239</ele>
        <time>2017-07-19T07:31:02Z</time>
      </trkpt>
      <trkpt lat="47.95953" lon="6.13128">
        <ele>239.39999389648</ele>
        <time>2017-07-19T07:31:06Z</time>
      </trkpt>
      <trkpt lat="47.95968" lon="6.13155">
        <ele>240.19999694824</ele>
        <time>2017-07-19T07:31:12Z</time>
      </trkpt>
      <trkpt lat="47.9597" lon="6.13159">
        <ele>240.19999694824</ele>
        <time>2017-07-19T07:31:13Z</time>
      </trkpt>
      <trkpt lat="47.9599" lon="6.13193">
        <ele>241.19999694824</ele>
        <time>2017-07-19T07:31:21Z</time>
      </trkpt>
      <trkpt lat="47.96007" lon="6.13221">
        <ele>242.19999694824</ele>
        <time>2017-07-19T07:31:28Z</time>
      </trkpt>
      <trkpt lat="47.96009" lon="6.13225">
        <ele>242.39999389648</ele>
        <time>2017-07-19T07:31:29Z</time>
      </trkpt>
      <trkpt lat="47.96023" lon="6.13248">
        <ele>243.39999389648</ele>
        <time>2017-07-19T07:31:35Z</time>
      </trkpt>
      <trkpt lat="47.96034" lon="6.13266">
        <ele>244.39999389648</ele>
        <time>2017-07-19T07:31:40Z</time>
      </trkpt>
      <trkpt lat="47.96048" lon="6.1329">
        <ele>245.39999389648</ele>
        <time>2017-07-19T07:31:46Z</time>
      </trkpt>
      <trkpt lat="47.96058" lon="6.1331">
        <ele>246.39999389648</ele>
        <time>2017-07-19T07:31:51Z</time>
      </trkpt>
      <trkpt lat="47.96063" lon="6.13316">
        <ele>246.80000305176</ele>
        <time>2017-07-19T07:31:53Z</time>
      </trkpt>
      <trkpt lat="47.96072" lon="6.13331">
        <ele>247.39999389648</ele>
        <time>2017-07-19T07:31:57Z</time>
      </trkpt>
      <trkpt lat="47.96079" lon="6.13343">
        <ele>248</ele>
        <time>2017-07-19T07:32:00Z</time>
      </trkpt>
      <trkpt lat="47.96086" lon="6.13354">
        <ele>248.60000610352</ele>
        <time>2017-07-19T07:32:03Z</time>
      </trkpt>
      <trkpt lat="47.96097" lon="6.13373">
        <ele>249.39999389648</ele>
        <time>2017-07-19T07:32:08Z</time>
      </trkpt>
      <trkpt lat="47.96099" lon="6.13376">
        <ele>249.60000610352</ele>
        <time>2017-07-19T07:32:09Z</time>
      </trkpt>
      <trkpt lat="47.96112" lon="6.13398">
        <ele>250.60000610352</ele>
        <time>2017-07-19T07:32:15Z</time>
      </trkpt>
      <trkpt lat="47.96128" lon="6.13426">
        <ele>251.80000305176</ele>
        <time>2017-07-19T07:32:22Z</time>
      </trkpt>
      <trkpt lat="47.96147" lon="6.13455">
        <ele>252.80000305176</ele>
        <time>2017-07-19T07:32:30Z</time>
      </trkpt>
      <trkpt lat="47.96149" lon="6.13459">
        <ele>253</ele>
        <time>2017-07-19T07:32:31Z</time>
      </trkpt>
      <trkpt lat="47.9616" lon="6.1348">
        <ele>254</ele>
        <time>2017-07-19T07:32:36Z</time>
      </trkpt>
      <trkpt lat="47.96166" lon="6.13487">
        <ele>254.39999389648</ele>
        <time>2017-07-19T07:32:38Z</time>
      </trkpt>
      <trkpt lat="47.96173" lon="6.13499">
        <ele>255</ele>
        <time>2017-07-19T07:32:41Z</time>
      </trkpt>
      <trkpt lat="47.96183" lon="6.13515">
        <ele>255.60000610352</ele>
        <time>2017-07-19T07:32:45Z</time>
      </trkpt>
      <trkpt lat="47.96189" lon="6.13528">
        <ele>256</ele>
        <time>2017-07-19T07:32:48Z</time>
      </trkpt>
      <trkpt lat="47.96199" lon="6.13544">
        <ele>256.60000610352</ele>
        <time>2017-07-19T07:32:52Z</time>
      </trkpt>
      <trkpt lat="47.96206" lon="6.13556">
        <ele>257.20001220703</ele>
        <time>2017-07-19T07:32:55Z</time>
      </trkpt>
      <trkpt lat="47.9622" lon="6.13579">
        <ele>258.20001220703</ele>
        <time>2017-07-19T07:33:01Z</time>
      </trkpt>
      <trkpt lat="47.96231" lon="6.13598">
        <ele>259.20001220703</ele>
        <time>2017-07-19T07:33:06Z</time>
      </trkpt>
      <trkpt lat="47.96246" lon="6.1362">
        <ele>260.20001220703</ele>
        <time>2017-07-19T07:33:12Z</time>
      </trkpt>
      <trkpt lat="47.96248" lon="6.13623">
        <ele>260.20001220703</ele>
        <time>2017-07-19T07:33:13Z</time>
      </trkpt>
      <trkpt lat="47.96264" lon="6.13653">
        <ele>261.20001220703</ele>
        <time>2017-07-19T07:33:20Z</time>
      </trkpt>
      <trkpt lat="47.96269" lon="6.13661">
        <ele>261.39999389648</ele>
        <time>2017-07-19T07:33:22Z</time>
      </trkpt>
      <trkpt lat="47.96284" lon="6.13686">
        <ele>262.20001220703</ele>
        <time>2017-07-19T07:33:28Z</time>
      </trkpt>
      <trkpt lat="47.96292" lon="6.13698">
        <ele>262.39999389648</ele>
        <time>2017-07-19T07:33:31Z</time>
      </trkpt>
      <trkpt lat="47.96305" lon="6.13719">
        <ele>263</ele>
        <time>2017-07-19T07:33:36Z</time>
      </trkpt>
      <trkpt lat="47.96323" lon="6.13746">
        <ele>263.39999389648</ele>
        <time>2017-07-19T07:33:42Z</time>
      </trkpt>
      <trkpt lat="47.96332" lon="6.13758">
        <ele>263.60000610352</ele>
        <time>2017-07-19T07:33:45Z</time>
      </trkpt>
      <trkpt lat="47.96352" lon="6.13784">
        <ele>263.79998779297</ele>
        <time>2017-07-19T07:33:51Z</time>
      </trkpt>
      <trkpt lat="47.96359" lon="6.13793">
        <ele>264</ele>
        <time>2017-07-19T07:33:53Z</time>
      </trkpt>
      <trkpt lat="47.9639" lon="6.13832">
        <ele>264.20001220703</ele>
        <time>2017-07-19T07:34:01Z</time>
      </trkpt>
      <trkpt lat="47.96427" lon="6.13878">
        <ele>264.20001220703</ele>
        <time>2017-07-19T07:34:10Z</time>
      </trkpt>
      <trkpt lat="47.96457" lon="6.13916">
        <ele>264.39999389648</ele>
        <time>2017-07-19T07:34:17Z</time>
      </trkpt>
      <trkpt lat="47.96502" lon="6.13973">
        <ele>264.39999389648</ele>
        <time>2017-07-19T07:34:27Z</time>
      </trkpt>
      <trkpt lat="47.96536" lon="6.14015">
        <ele>264.20001220703</ele>
        <time>2017-07-19T07:34:34Z</time>
      </trkpt>
      <trkpt lat="47.9658" lon="6.14069">
        <ele>264</ele>
        <time>2017-07-19T07:34:43Z</time>
      </trkpt>
      <trkpt lat="47.96613" lon="6.14111">
        <ele>263.60000610352</ele>
        <time>2017-07-19T07:34:50Z</time>
      </trkpt>
      <trkpt lat="47.96635" lon="6.14137">
        <ele>263.79998779297</ele>
        <time>2017-07-19T07:34:55Z</time>
      </trkpt>
      <trkpt lat="47.96652" lon="6.14158">
        <ele>264.60000610352</ele>
        <time>2017-07-19T07:34:59Z</time>
      </trkpt>
      <trkpt lat="47.96664" lon="6.14174">
        <ele>265.20001220703</ele>
        <time>2017-07-19T07:35:02Z</time>
      </trkpt>
      <trkpt lat="47.96677" lon="6.1419">
        <ele>265.60000610352</ele>
        <time>2017-07-19T07:35:05Z</time>
      </trkpt>
      <trkpt lat="47.96698" lon="6.14216">
        <ele>266</ele>
        <time>2017-07-19T07:35:10Z</time>
      </trkpt>
      <trkpt lat="47.96736" lon="6.1426">
        <ele>265.60000610352</ele>
        <time>2017-07-19T07:35:18Z</time>
      </trkpt>
      <trkpt lat="47.96766" lon="6.14293">
        <ele>265.39999389648</ele>
        <time>2017-07-19T07:35:24Z</time>
      </trkpt>
      <trkpt lat="47.96777" lon="6.14306">
        <ele>265.20001220703</ele>
        <time>2017-07-19T07:35:26Z</time>
      </trkpt>
      <trkpt lat="47.96817" lon="6.14356">
        <ele>264.39999389648</ele>
        <time>2017-07-19T07:35:34Z</time>
      </trkpt>
      <trkpt lat="47.96828" lon="6.1437">
        <ele>264.20001220703</ele>
        <time>2017-07-19T07:35:36Z</time>
      </trkpt>
      <trkpt lat="47.96863" lon="6.14419">
        <ele>263.20001220703</ele>
        <time>2017-07-19T07:35:42Z</time>
      </trkpt>
      <trkpt lat="47.96868" lon="6.14428">
        <ele>262.79998779297</ele>
        <time>2017-07-19T07:35:43Z</time>
      </trkpt>
      <trkpt lat="47.9688" lon="6.14444">
        <ele>262.20001220703</ele>
        <time>2017-07-19T07:35:45Z</time>
      </trkpt>
      <trkpt lat="47.96901" lon="6.14475">
        <ele>261.39999389648</ele>
        <time>2017-07-19T07:35:49Z</time>
      </trkpt>
      <trkpt lat="47.96935" lon="6.14507">
        <ele>261.20001220703</ele>
        <time>2017-07-19T07:35:55Z</time>
      </trkpt>
      <trkpt lat="47.96951" lon="6.14518">
        <ele>261.39999389648</ele>
        <time>2017-07-19T07:35:58Z</time>
      </trkpt>
      <trkpt lat="47.96961" lon="6.14525">
        <ele>261.79998779297</ele>
        <time>2017-07-19T07:36:00Z</time>
      </trkpt>
      <trkpt lat="47.96987" lon="6.14543">
        <ele>262.79998779297</ele>
        <time>2017-07-19T07:36:06Z</time>
      </trkpt>
      <trkpt lat="47.96995" lon="6.14547">
        <ele>263.39999389648</ele>
        <time>2017-07-19T07:36:08Z</time>
      </trkpt>
      <trkpt lat="47.97016" lon="6.14559">
        <ele>264.39999389648</ele>
        <time>2017-07-19T07:36:13Z</time>
      </trkpt>
      <trkpt lat="47.97024" lon="6.14564">
        <ele>265.20001220703</ele>
        <time>2017-07-19T07:36:15Z</time>
      </trkpt>
      <trkpt lat="47.97028" lon="6.14566">
        <ele>265.39999389648</ele>
        <time>2017-07-19T07:36:16Z</time>
      </trkpt>
      <trkpt lat="47.97043" lon="6.14575">
        <ele>266.39999389648</ele>
        <time>2017-07-19T07:36:20Z</time>
      </trkpt>
      <trkpt lat="47.97058" lon="6.14583">
        <ele>267.39999389648</ele>
        <time>2017-07-19T07:36:24Z</time>
      </trkpt>
      <trkpt lat="47.97062" lon="6.14585">
        <ele>267.60000610352</ele>
        <time>2017-07-19T07:36:25Z</time>
      </trkpt>
      <trkpt lat="47.97075" lon="6.1459">
        <ele>268.20001220703</ele>
        <time>2017-07-19T07:36:28Z</time>
      </trkpt>
      <trkpt lat="47.97083" lon="6.14595">
        <ele>268.60000610352</ele>
        <time>2017-07-19T07:36:30Z</time>
      </trkpt>
      <trkpt lat="47.97087" lon="6.14596">
        <ele>268.79998779297</ele>
        <time>2017-07-19T07:36:31Z</time>
      </trkpt>
      <trkpt lat="47.97091" lon="6.14599">
        <ele>268.79998779297</ele>
        <time>2017-07-19T07:36:32Z</time>
      </trkpt>
      <trkpt lat="47.97115" lon="6.14608">
        <ele>269.60000610352</ele>
        <time>2017-07-19T07:36:38Z</time>
      </trkpt>
      <trkpt lat="47.97119" lon="6.1461">
        <ele>270</ele>
        <time>2017-07-19T07:36:39Z</time>
      </trkpt>
      <trkpt lat="47.97143" lon="6.14622">
        <ele>271</ele>
        <time>2017-07-19T07:36:46Z</time>
      </trkpt>
      <trkpt lat="47.97168" lon="6.14634">
        <ele>272</ele>
        <time>2017-07-19T07:36:53Z</time>
      </trkpt>
      <trkpt lat="47.97175" lon="6.14637">
        <ele>272.39999389648</ele>
        <time>2017-07-19T07:36:55Z</time>
      </trkpt>
      <trkpt lat="47.97199" lon="6.14647">
        <ele>273.20001220703</ele>
        <time>2017-07-19T07:37:01Z</time>
      </trkpt>
      <trkpt lat="47.97203" lon="6.14649">
        <ele>273.20001220703</ele>
        <time>2017-07-19T07:37:02Z</time>
      </trkpt>
      <trkpt lat="47.97237" lon="6.14666">
        <ele>273.60000610352</ele>
        <time>2017-07-19T07:37:10Z</time>
      </trkpt>
      <trkpt lat="47.97282" lon="6.14686">
        <ele>273.79998779297</ele>
        <time>2017-07-19T07:37:19Z</time>
      </trkpt>
      <trkpt lat="47.97328" lon="6.14707">
        <ele>274</ele>
        <time>2017-07-19T07:37:28Z</time>
      </trkpt>
      <trkpt lat="47.97333" lon="6.14709">
        <ele>274.20001220703</ele>
        <time>2017-07-19T07:37:29Z</time>
      </trkpt>
      <trkpt lat="47.97367" lon="6.14724">
        <ele>274.60000610352</ele>
        <time>2017-07-19T07:37:36Z</time>
      </trkpt>
      <trkpt lat="47.97407" lon="6.14742">
        <ele>275</ele>
        <time>2017-07-19T07:37:44Z</time>
      </trkpt>
      <trkpt lat="47.97444" lon="6.14757">
        <ele>274.39999389648</ele>
        <time>2017-07-19T07:37:50Z</time>
      </trkpt>
      <trkpt lat="47.97481" lon="6.14772">
        <ele>272.79998779297</ele>
        <time>2017-07-19T07:37:55Z</time>
      </trkpt>
      <trkpt lat="47.97489" lon="6.14776">
        <ele>272.39999389648</ele>
        <time>2017-07-19T07:37:56Z</time>
      </trkpt>
      <trkpt lat="47.97505" lon="6.14784">
        <ele>271.79998779297</ele>
        <time>2017-07-19T07:37:58Z</time>
      </trkpt>
      <trkpt lat="47.97521" lon="6.14797">
        <ele>271</ele>
        <time>2017-07-19T07:38:00Z</time>
      </trkpt>
      <trkpt lat="47.97528" lon="6.14805">
        <ele>270.60000610352</ele>
        <time>2017-07-19T07:38:01Z</time>
      </trkpt>
      <trkpt lat="47.97542" lon="6.14824">
        <ele>270.20001220703</ele>
        <time>2017-07-19T07:38:03Z</time>
      </trkpt>
      <trkpt lat="47.97554" lon="6.14845">
        <ele>269.20001220703</ele>
        <time>2017-07-19T07:38:05Z</time>
      </trkpt>
      <trkpt lat="47.97565" lon="6.14882">
        <ele>267.79998779297</ele>
        <time>2017-07-19T07:38:08Z</time>
      </trkpt>
      <trkpt lat="47.97567" lon="6.14894">
        <ele>267.39999389648</ele>
        <time>2017-07-19T07:38:09Z</time>
      </trkpt>
      <trkpt lat="47.9757" lon="6.14921">
        <ele>266.79998779297</ele>
        <time>2017-07-19T07:38:11Z</time>
      </trkpt>
      <trkpt lat="47.97571" lon="6.14946">
        <ele>266.39999389648</ele>
        <time>2017-07-19T07:38:13Z</time>
      </trkpt>
      <trkpt lat="47.97568" lon="6.14971">
        <ele>265.79998779297</ele>
        <time>2017-07-19T07:38:15Z</time>
      </trkpt>
      <trkpt lat="47.97564" lon="6.14996">
        <ele>265.39999389648</ele>
        <time>2017-07-19T07:38:17Z</time>
      </trkpt>
      <trkpt lat="47.97562" lon="6.15008">
        <ele>265.39999389648</ele>
        <time>2017-07-19T07:38:18Z</time>
      </trkpt>
      <trkpt lat="47.97551" lon="6.1506">
        <ele>265.20001220703</ele>
        <time>2017-07-19T07:38:23Z</time>
      </trkpt>
      <trkpt lat="47.97548" lon="6.15085">
        <ele>265.39999389648</ele>
        <time>2017-07-19T07:38:26Z</time>
      </trkpt>
      <trkpt lat="47.97544" lon="6.15101">
        <ele>265.60000610352</ele>
        <time>2017-07-19T07:38:28Z</time>
      </trkpt>
      <trkpt lat="47.97541" lon="6.15116">
        <ele>266.20001220703</ele>
        <time>2017-07-19T07:38:30Z</time>
      </trkpt>
      <trkpt lat="47.97539" lon="6.15138">
        <ele>266.79998779297</ele>
        <time>2017-07-19T07:38:33Z</time>
      </trkpt>
      <trkpt lat="47.97539" lon="6.15145">
        <ele>267</ele>
        <time>2017-07-19T07:38:34Z</time>
      </trkpt>
      <trkpt lat="47.97536" lon="6.15215">
        <ele>267.79998779297</ele>
        <time>2017-07-19T07:38:43Z</time>
      </trkpt>
      <trkpt lat="47.97536" lon="6.1523">
        <ele>268</ele>
        <time>2017-07-19T07:38:45Z</time>
      </trkpt>
      <trkpt lat="47.97537" lon="6.15294">
        <ele>268.20001220703</ele>
        <time>2017-07-19T07:38:53Z</time>
      </trkpt>
      <trkpt lat="47.97537" lon="6.1536">
        <ele>268.20001220703</ele>
        <time>2017-07-19T07:39:01Z</time>
      </trkpt>
      <trkpt lat="47.97539" lon="6.15426">
        <ele>267.39999389648</ele>
        <time>2017-07-19T07:39:09Z</time>
      </trkpt>
      <trkpt lat="47.97544" lon="6.15477">
        <ele>266.79998779297</ele>
        <time>2017-07-19T07:39:14Z</time>
      </trkpt>
      <trkpt lat="47.97545" lon="6.15487">
        <ele>266.39999389648</ele>
        <time>2017-07-19T07:39:15Z</time>
      </trkpt>
      <trkpt lat="47.97555" lon="6.15531">
        <ele>265.60000610352</ele>
        <time>2017-07-19T07:39:19Z</time>
      </trkpt>
      <trkpt lat="47.97559" lon="6.15552">
        <ele>265</ele>
        <time>2017-07-19T07:39:21Z</time>
      </trkpt>
      <trkpt lat="47.97563" lon="6.15572">
        <ele>264.39999389648</ele>
        <time>2017-07-19T07:39:23Z</time>
      </trkpt>
      <trkpt lat="47.97571" lon="6.1561">
        <ele>263.60000610352</ele>
        <time>2017-07-19T07:39:27Z</time>
      </trkpt>
      <trkpt lat="47.97574" lon="6.15629">
        <ele>263.39999389648</ele>
        <time>2017-07-19T07:39:29Z</time>
      </trkpt>
      <trkpt lat="47.97575" lon="6.15638">
        <ele>263.39999389648</ele>
        <time>2017-07-19T07:39:30Z</time>
      </trkpt>
      <trkpt lat="47.97574" lon="6.15658">
        <ele>263.20001220703</ele>
        <time>2017-07-19T07:39:32Z</time>
      </trkpt>
      <trkpt lat="47.97571" lon="6.15667">
        <ele>263.20001220703</ele>
        <time>2017-07-19T07:39:33Z</time>
      </trkpt>
      <trkpt lat="47.97566" lon="6.15674">
        <ele>263.20001220703</ele>
        <time>2017-07-19T07:39:34Z</time>
      </trkpt>
      <trkpt lat="47.97557" lon="6.1569">
        <ele>263.20001220703</ele>
        <time>2017-07-19T07:39:36Z</time>
      </trkpt>
      <trkpt lat="47.97551" lon="6.15709">
        <ele>263</ele>
        <time>2017-07-19T07:39:38Z</time>
      </trkpt>
      <trkpt lat="47.97541" lon="6.15746">
        <ele>263</ele>
        <time>2017-07-19T07:39:42Z</time>
      </trkpt>
      <trkpt lat="47.97539" lon="6.15765">
        <ele>262.79998779297</ele>
        <time>2017-07-19T07:39:44Z</time>
      </trkpt>
      <trkpt lat="47.97536" lon="6.15822">
        <ele>262.79998779297</ele>
        <time>2017-07-19T07:39:50Z</time>
      </trkpt>
      <trkpt lat="47.97534" lon="6.15883">
        <ele>263</ele>
        <time>2017-07-19T07:39:57Z</time>
      </trkpt>
      <trkpt lat="47.97531" lon="6.15952">
        <ele>263.60000610352</ele>
        <time>2017-07-19T07:40:05Z</time>
      </trkpt>
      <trkpt lat="47.97528" lon="6.16019">
        <ele>262.20001220703</ele>
        <time>2017-07-19T07:40:12Z</time>
      </trkpt>
      <trkpt lat="47.97528" lon="6.16038">
        <ele>262</ele>
        <time>2017-07-19T07:40:14Z</time>
      </trkpt>
      <trkpt lat="47.97532" lon="6.1608">
        <ele>261</ele>
        <time>2017-07-19T07:40:18Z</time>
      </trkpt>
      <trkpt lat="47.97534" lon="6.16092">
        <ele>260.79998779297</ele>
        <time>2017-07-19T07:40:19Z</time>
      </trkpt>
      <trkpt lat="47.97534" lon="6.16128">
        <ele>260</ele>
        <time>2017-07-19T07:40:22Z</time>
      </trkpt>
      <trkpt lat="47.97532" lon="6.16153">
        <ele>259</ele>
        <time>2017-07-19T07:40:24Z</time>
      </trkpt>
      <trkpt lat="47.97529" lon="6.16189">
        <ele>257.79998779297</ele>
        <time>2017-07-19T07:40:27Z</time>
      </trkpt>
      <trkpt lat="47.97532" lon="6.16201">
        <ele>257.39999389648</ele>
        <time>2017-07-19T07:40:28Z</time>
      </trkpt>
      <trkpt lat="47.97548" lon="6.16226">
        <ele>256.79998779297</ele>
        <time>2017-07-19T07:40:31Z</time>
      </trkpt>
      <trkpt lat="47.97554" lon="6.16234">
        <ele>256.60000610352</ele>
        <time>2017-07-19T07:40:32Z</time>
      </trkpt>
      <trkpt lat="47.97579" lon="6.16274">
        <ele>255.60000610352</ele>
        <time>2017-07-19T07:40:37Z</time>
      </trkpt>
      <trkpt lat="47.97584" lon="6.16283">
        <ele>255.39999389648</ele>
        <time>2017-07-19T07:40:38Z</time>
      </trkpt>
      <trkpt lat="47.97594" lon="6.16302">
        <ele>255</ele>
        <time>2017-07-19T07:40:40Z</time>
      </trkpt>
      <trkpt lat="47.97603" lon="6.16322">
        <ele>254.60000610352</ele>
        <time>2017-07-19T07:40:42Z</time>
      </trkpt>
      <trkpt lat="47.97608" lon="6.16332">
        <ele>254.19999694824</ele>
        <time>2017-07-19T07:40:43Z</time>
      </trkpt>
      <trkpt lat="47.97624" lon="6.1636">
        <ele>253.19999694824</ele>
        <time>2017-07-19T07:40:46Z</time>
      </trkpt>
      <trkpt lat="47.97639" lon="6.16391">
        <ele>252.19999694824</ele>
        <time>2017-07-19T07:40:49Z</time>
      </trkpt>
      <trkpt lat="47.97645" lon="6.16401">
        <ele>251.80000305176</ele>
        <time>2017-07-19T07:40:50Z</time>
      </trkpt>
      <trkpt lat="47.97656" lon="6.16423">
        <ele>251</ele>
        <time>2017-07-19T07:40:52Z</time>
      </trkpt>
      <trkpt lat="47.97674" lon="6.16459">
        <ele>249.80000305176</ele>
        <time>2017-07-19T07:40:55Z</time>
      </trkpt>
      <trkpt lat="47.97678" lon="6.16474">
        <ele>249.19999694824</ele>
        <time>2017-07-19T07:40:56Z</time>
      </trkpt>
      <trkpt lat="47.97681" lon="6.16489">
        <ele>248.60000610352</ele>
        <time>2017-07-19T07:40:57Z</time>
      </trkpt>
      <trkpt lat="47.97685" lon="6.16519">
        <ele>247.19999694824</ele>
        <time>2017-07-19T07:40:59Z</time>
      </trkpt>
      <trkpt lat="47.97686" lon="6.16547">
        <ele>245.80000305176</ele>
        <time>2017-07-19T07:41:01Z</time>
      </trkpt>
      <trkpt lat="47.97686" lon="6.16573">
        <ele>244.39999389648</ele>
        <time>2017-07-19T07:41:03Z</time>
      </trkpt>
      <trkpt lat="47.97686" lon="6.16627">
        <ele>244</ele>
        <time>2017-07-19T07:41:08Z</time>
      </trkpt>
      <trkpt lat="47.97686" lon="6.16666">
        <ele>245</ele>
        <time>2017-07-19T07:41:13Z</time>
      </trkpt>
      <trkpt lat="47.97685" lon="6.16679">
        <ele>245.39999389648</ele>
        <time>2017-07-19T07:41:15Z</time>
      </trkpt>
      <trkpt lat="47.97683" lon="6.16701">
        <ele>246.60000610352</ele>
        <time>2017-07-19T07:41:19Z</time>
      </trkpt>
      <trkpt lat="47.97681" lon="6.16719">
        <ele>247.80000305176</ele>
        <time>2017-07-19T07:41:23Z</time>
      </trkpt>
      <trkpt lat="47.97678" lon="6.16732">
        <ele>248.60000610352</ele>
        <time>2017-07-19T07:41:26Z</time>
      </trkpt>
      <trkpt lat="47.97678" lon="6.16736">
        <ele>249.19999694824</ele>
        <time>2017-07-19T07:41:27Z</time>
      </trkpt>
      <trkpt lat="47.97675" lon="6.16755">
        <ele>250.39999389648</ele>
        <time>2017-07-19T07:41:31Z</time>
      </trkpt>
      <trkpt lat="47.97674" lon="6.16764">
        <ele>251.19999694824</ele>
        <time>2017-07-19T07:41:33Z</time>
      </trkpt>
      <trkpt lat="47.97673" lon="6.16772">
        <ele>251.80000305176</ele>
        <time>2017-07-19T07:41:35Z</time>
      </trkpt>
      <trkpt lat="47.97669" lon="6.16794">
        <ele>253</ele>
        <time>2017-07-19T07:41:40Z</time>
      </trkpt>
      <trkpt lat="47.97669" lon="6.16798">
        <ele>253.39999389648</ele>
        <time>2017-07-19T07:41:41Z</time>
      </trkpt>
      <trkpt lat="47.97667" lon="6.16812">
        <ele>254.19999694824</ele>
        <time>2017-07-19T07:41:44Z</time>
      </trkpt>
      <trkpt lat="47.97664" lon="6.16837">
        <ele>255.19999694824</ele>
        <time>2017-07-19T07:41:50Z</time>
      </trkpt>
      <trkpt lat="47.97661" lon="6.16856">
        <ele>256.39999389648</ele>
        <time>2017-07-19T07:41:55Z</time>
      </trkpt>
      <trkpt lat="47.9766" lon="6.16864">
        <ele>256.60000610352</ele>
        <time>2017-07-19T07:41:57Z</time>
      </trkpt>
      <trkpt lat="47.97657" lon="6.1689">
        <ele>257.39999389648</ele>
        <time>2017-07-19T07:42:04Z</time>
      </trkpt>
      <trkpt lat="47.97653" lon="6.16915">
        <ele>258</ele>
        <time>2017-07-19T07:42:11Z</time>
      </trkpt>
      <trkpt lat="47.97651" lon="6.16926">
        <ele>258.39999389648</ele>
        <time>2017-07-19T07:42:14Z</time>
      </trkpt>
      <trkpt lat="47.97647" lon="6.16951">
        <ele>259.39999389648</ele>
        <time>2017-07-19T07:42:21Z</time>
      </trkpt>
      <trkpt lat="47.97646" lon="6.16954">
        <ele>259.60000610352</ele>
        <time>2017-07-19T07:42:22Z</time>
      </trkpt>
      <trkpt lat="47.97642" lon="6.16974">
        <ele>260.39999389648</ele>
        <time>2017-07-19T07:42:27Z</time>
      </trkpt>
      <trkpt lat="47.97639" lon="6.16986">
        <ele>260.60000610352</ele>
        <time>2017-07-19T07:42:30Z</time>
      </trkpt>
      <trkpt lat="47.97637" lon="6.16998">
        <ele>260.79998779297</ele>
        <time>2017-07-19T07:42:33Z</time>
      </trkpt>
      <trkpt lat="47.97631" lon="6.1702">
        <ele>261.79998779297</ele>
        <time>2017-07-19T07:42:39Z</time>
      </trkpt>
      <trkpt lat="47.97628" lon="6.17028">
        <ele>262.20001220703</ele>
        <time>2017-07-19T07:42:41Z</time>
      </trkpt>
      <trkpt lat="47.97622" lon="6.17051">
        <ele>263</ele>
        <time>2017-07-19T07:42:47Z</time>
      </trkpt>
      <trkpt lat="47.97612" lon="6.17072">
        <ele>263.79998779297</ele>
        <time>2017-07-19T07:42:53Z</time>
      </trkpt>
      <trkpt lat="47.97611" lon="6.17075">
        <ele>264</ele>
        <time>2017-07-19T07:42:54Z</time>
      </trkpt>
      <trkpt lat="47.97604" lon="6.17095">
        <ele>265</ele>
        <time>2017-07-19T07:43:00Z</time>
      </trkpt>
      <trkpt lat="47.97601" lon="6.171">
        <ele>265.39999389648</ele>
        <time>2017-07-19T07:43:02Z</time>
      </trkpt>
      <trkpt lat="47.97597" lon="6.17113">
        <ele>266.20001220703</ele>
        <time>2017-07-19T07:43:06Z</time>
      </trkpt>
      <trkpt lat="47.97594" lon="6.17122">
        <ele>266.79998779297</ele>
        <time>2017-07-19T07:43:09Z</time>
      </trkpt>
      <trkpt lat="47.97591" lon="6.17127">
        <ele>267.20001220703</ele>
        <time>2017-07-19T07:43:11Z</time>
      </trkpt>
      <trkpt lat="47.97583" lon="6.17145">
        <ele>268.39999389648</ele>
        <time>2017-07-19T07:43:17Z</time>
      </trkpt>
      <trkpt lat="47.97578" lon="6.1716">
        <ele>269.60000610352</ele>
        <time>2017-07-19T07:43:22Z</time>
      </trkpt>
      <trkpt lat="47.97575" lon="6.17165">
        <ele>270</ele>
        <time>2017-07-19T07:43:24Z</time>
      </trkpt>
      <trkpt lat="47.9757" lon="6.17172">
        <ele>270.79998779297</ele>
        <time>2017-07-19T07:43:27Z</time>
      </trkpt>
      <trkpt lat="47.97564" lon="6.17181">
        <ele>271.79998779297</ele>
        <time>2017-07-19T07:43:31Z</time>
      </trkpt>
      <trkpt lat="47.97563" lon="6.17183">
        <ele>272</ele>
        <time>2017-07-19T07:43:32Z</time>
      </trkpt>
      <trkpt lat="47.97555" lon="6.17193">
        <ele>273</ele>
        <time>2017-07-19T07:43:37Z</time>
      </trkpt>
      <trkpt lat="47.97553" lon="6.17195">
        <ele>273.20001220703</ele>
        <time>2017-07-19T07:43:38Z</time>
      </trkpt>
      <trkpt lat="47.9754" lon="6.17206">
        <ele>274.20001220703</ele>
        <time>2017-07-19T07:43:44Z</time>
      </trkpt>
      <trkpt lat="47.97538" lon="6.17209">
        <ele>274.39999389648</ele>
        <time>2017-07-19T07:43:45Z</time>
      </trkpt>
      <trkpt lat="47.97525" lon="6.17221">
        <ele>275.39999389648</ele>
        <time>2017-07-19T07:43:51Z</time>
      </trkpt>
      <trkpt lat="47.97517" lon="6.17231">
        <ele>276</ele>
        <time>2017-07-19T07:43:55Z</time>
      </trkpt>
      <trkpt lat="47.97512" lon="6.17235">
        <ele>276.39999389648</ele>
        <time>2017-07-19T07:43:57Z</time>
      </trkpt>
      <trkpt lat="47.97496" lon="6.17253">
        <ele>277.20001220703</ele>
        <time>2017-07-19T07:44:04Z</time>
      </trkpt>
      <trkpt lat="47.97494" lon="6.17255">
        <ele>277.39999389648</ele>
        <time>2017-07-19T07:44:05Z</time>
      </trkpt>
      <trkpt lat="47.97477" lon="6.17274">
        <ele>278.20001220703</ele>
        <time>2017-07-19T07:44:12Z</time>
      </trkpt>
      <trkpt lat="47.9747" lon="6.17284">
        <ele>278.60000610352</ele>
        <time>2017-07-19T07:44:15Z</time>
      </trkpt>
      <trkpt lat="47.97457" lon="6.17297">
        <ele>279</ele>
        <time>2017-07-19T07:44:20Z</time>
      </trkpt>
      <trkpt lat="47.97445" lon="6.17313">
        <ele>279.60000610352</ele>
        <time>2017-07-19T07:44:25Z</time>
      </trkpt>
      <trkpt lat="47.97432" lon="6.1733">
        <ele>280</ele>
        <time>2017-07-19T07:44:30Z</time>
      </trkpt>
      <trkpt lat="47.97426" lon="6.17339">
        <ele>280.20001220703</ele>
        <time>2017-07-19T07:44:32Z</time>
      </trkpt>
      <trkpt lat="47.97415" lon="6.17361">
        <ele>280.20001220703</ele>
        <time>2017-07-19T07:44:36Z</time>
      </trkpt>
      <trkpt lat="47.97388" lon="6.17409">
        <ele>279.39999389648</ele>
        <time>2017-07-19T07:44:43Z</time>
      </trkpt>
      <trkpt lat="47.97374" lon="6.17442">
        <ele>278.39999389648</ele>
        <time>2017-07-19T07:44:47Z</time>
      </trkpt>
      <trkpt lat="47.97363" lon="6.17469">
        <ele>277.39999389648</ele>
        <time>2017-07-19T07:44:50Z</time>
      </trkpt>
      <trkpt lat="47.97359" lon="6.17478">
        <ele>277.20001220703</ele>
        <time>2017-07-19T07:44:51Z</time>
      </trkpt>
      <trkpt lat="47.97351" lon="6.17507">
        <ele>276.20001220703</ele>
        <time>2017-07-19T07:44:54Z</time>
      </trkpt>
      <trkpt lat="47.97349" lon="6.17518">
        <ele>276</ele>
        <time>2017-07-19T07:44:55Z</time>
      </trkpt>
      <trkpt lat="47.97348" lon="6.17529">
        <ele>275.79998779297</ele>
        <time>2017-07-19T07:44:56Z</time>
      </trkpt>
      <trkpt lat="47.97342" lon="6.17573">
        <ele>274.79998779297</ele>
        <time>2017-07-19T07:45:00Z</time>
      </trkpt>
      <trkpt lat="47.97339" lon="6.17584">
        <ele>274.39999389648</ele>
        <time>2017-07-19T07:45:01Z</time>
      </trkpt>
      <trkpt lat="47.97333" lon="6.17606">
        <ele>273.60000610352</ele>
        <time>2017-07-19T07:45:03Z</time>
      </trkpt>
      <trkpt lat="47.97332" lon="6.17618">
        <ele>273.20001220703</ele>
        <time>2017-07-19T07:45:04Z</time>
      </trkpt>
      <trkpt lat="47.97333" lon="6.1764">
        <ele>272.39999389648</ele>
        <time>2017-07-19T07:45:06Z</time>
      </trkpt>
      <trkpt lat="47.97335" lon="6.17698">
        <ele>271.79998779297</ele>
        <time>2017-07-19T07:45:12Z</time>
      </trkpt>
      <trkpt lat="47.97332" lon="6.17762">
        <ele>272</ele>
        <time>2017-07-19T07:45:19Z</time>
      </trkpt>
      <trkpt lat="47.9733" lon="6.17772">
        <ele>272</ele>
        <time>2017-07-19T07:45:20Z</time>
      </trkpt>
      <trkpt lat="47.97322" lon="6.17813">
        <ele>272</ele>
        <time>2017-07-19T07:45:25Z</time>
      </trkpt>
      <trkpt lat="47.9732" lon="6.1782">
        <ele>272</ele>
        <time>2017-07-19T07:45:26Z</time>
      </trkpt>
      <trkpt lat="47.97312" lon="6.17847">
        <ele>272.79998779297</ele>
        <time>2017-07-19T07:45:30Z</time>
      </trkpt>
      <trkpt lat="47.97309" lon="6.17862">
        <ele>273.20001220703</ele>
        <time>2017-07-19T07:45:32Z</time>
      </trkpt>
      <trkpt lat="47.97306" lon="6.17877">
        <ele>273.60000610352</ele>
        <time>2017-07-19T07:45:34Z</time>
      </trkpt>
      <trkpt lat="47.97305" lon="6.17884">
        <ele>273.60000610352</ele>
        <time>2017-07-19T07:45:35Z</time>
      </trkpt>
      <trkpt lat="47.97294" lon="6.17948">
        <ele>274.60000610352</ele>
        <time>2017-07-19T07:45:43Z</time>
      </trkpt>
      <trkpt lat="47.97293" lon="6.17956">
        <ele>274.79998779297</ele>
        <time>2017-07-19T07:45:44Z</time>
      </trkpt>
      <trkpt lat="47.97285" lon="6.18036">
        <ele>275.20001220703</ele>
        <time>2017-07-19T07:45:54Z</time>
      </trkpt>
      <trkpt lat="47.97283" lon="6.18066">
        <ele>275.20001220703</ele>
        <time>2017-07-19T07:45:58Z</time>
      </trkpt>
      <trkpt lat="47.97281" lon="6.18091">
        <ele>275</ele>
        <time>2017-07-19T07:46:01Z</time>
      </trkpt>
      <trkpt lat="47.97276" lon="6.18155">
        <ele>274</ele>
        <time>2017-07-19T07:46:08Z</time>
      </trkpt>
      <trkpt lat="47.97272" lon="6.18197">
        <ele>273.60000610352</ele>
        <time>2017-07-19T07:46:13Z</time>
      </trkpt>
      <trkpt lat="47.97269" lon="6.18232">
        <ele>273.20001220703</ele>
        <time>2017-07-19T07:46:17Z</time>
      </trkpt>
      <trkpt lat="47.97261" lon="6.18288">
        <ele>272.60000610352</ele>
        <time>2017-07-19T07:46:23Z</time>
      </trkpt>
      <trkpt lat="47.97259" lon="6.18298">
        <ele>272.39999389648</ele>
        <time>2017-07-19T07:46:24Z</time>
      </trkpt>
      <trkpt lat="47.97249" lon="6.18325">
        <ele>272</ele>
        <time>2017-07-19T07:46:27Z</time>
      </trkpt>
      <trkpt lat="47.97227" lon="6.18378">
        <ele>271.39999389648</ele>
        <time>2017-07-19T07:46:33Z</time>
      </trkpt>
      <trkpt lat="47.97219" lon="6.18397">
        <ele>271.20001220703</ele>
        <time>2017-07-19T07:46:35Z</time>
      </trkpt>
      <trkpt lat="47.97199" lon="6.18443">
        <ele>270.20001220703</ele>
        <time>2017-07-19T07:46:40Z</time>
      </trkpt>
      <trkpt lat="47.97192" lon="6.18462">
        <ele>269.79998779297</ele>
        <time>2017-07-19T07:46:42Z</time>
      </trkpt>
      <trkpt lat="47.97176" lon="6.185">
        <ele>269.20001220703</ele>
        <time>2017-07-19T07:46:46Z</time>
      </trkpt>
      <trkpt lat="47.97155" lon="6.18547">
        <ele>268.39999389648</ele>
        <time>2017-07-19T07:46:51Z</time>
      </trkpt>
      <trkpt lat="47.97148" lon="6.18566">
        <ele>268</ele>
        <time>2017-07-19T07:46:53Z</time>
      </trkpt>
      <trkpt lat="47.97128" lon="6.18611">
        <ele>267.60000610352</ele>
        <time>2017-07-19T07:46:58Z</time>
      </trkpt>
      <trkpt lat="47.9711" lon="6.18656">
        <ele>267</ele>
        <time>2017-07-19T07:47:03Z</time>
      </trkpt>
      <trkpt lat="47.971" lon="6.18682">
        <ele>266.79998779297</ele>
        <time>2017-07-19T07:47:06Z</time>
      </trkpt>
      <trkpt lat="47.97086" lon="6.18735">
        <ele>266</ele>
        <time>2017-07-19T07:47:12Z</time>
      </trkpt>
      <trkpt lat="47.97084" lon="6.18744">
        <ele>265.79998779297</ele>
        <time>2017-07-19T07:47:13Z</time>
      </trkpt>
      <trkpt lat="47.97072" lon="6.1879">
        <ele>264.79998779297</ele>
        <time>2017-07-19T07:47:18Z</time>
      </trkpt>
      <trkpt lat="47.97069" lon="6.18799">
        <ele>264.60000610352</ele>
        <time>2017-07-19T07:47:19Z</time>
      </trkpt>
      <trkpt lat="47.97051" lon="6.18867">
        <ele>263.60000610352</ele>
        <time>2017-07-19T07:47:26Z</time>
      </trkpt>
      <trkpt lat="47.97042" lon="6.18897">
        <ele>263</ele>
        <time>2017-07-19T07:47:29Z</time>
      </trkpt>
      <trkpt lat="47.97037" lon="6.18917">
        <ele>262.60000610352</ele>
        <time>2017-07-19T07:47:31Z</time>
      </trkpt>
      <trkpt lat="47.97027" lon="6.18967">
        <ele>261.39999389648</ele>
        <time>2017-07-19T07:47:36Z</time>
      </trkpt>
      <trkpt lat="47.97021" lon="6.19028">
        <ele>260.39999389648</ele>
        <time>2017-07-19T07:47:42Z</time>
      </trkpt>
      <trkpt lat="47.97021" lon="6.19038">
        <ele>260.20001220703</ele>
        <time>2017-07-19T07:47:43Z</time>
      </trkpt>
      <trkpt lat="47.97022" lon="6.19089">
        <ele>259.39999389648</ele>
        <time>2017-07-19T07:47:48Z</time>
      </trkpt>
      <trkpt lat="47.97023" lon="6.1911">
        <ele>259.20001220703</ele>
        <time>2017-07-19T07:47:50Z</time>
      </trkpt>
      <trkpt lat="47.97025" lon="6.19141">
        <ele>258.39999389648</ele>
        <time>2017-07-19T07:47:53Z</time>
      </trkpt>
      <trkpt lat="47.97029" lon="6.19171">
        <ele>257.79998779297</ele>
        <time>2017-07-19T07:47:56Z</time>
      </trkpt>
      <trkpt lat="47.97036" lon="6.19201">
        <ele>257.20001220703</ele>
        <time>2017-07-19T07:47:59Z</time>
      </trkpt>
      <trkpt lat="47.97038" lon="6.19211">
        <ele>256.79998779297</ele>
        <time>2017-07-19T07:48:00Z</time>
      </trkpt>
      <trkpt lat="47.97044" lon="6.1923">
        <ele>256.39999389648</ele>
        <time>2017-07-19T07:48:02Z</time>
      </trkpt>
      <trkpt lat="47.97057" lon="6.19267">
        <ele>256.20001220703</ele>
        <time>2017-07-19T07:48:06Z</time>
      </trkpt>
      <trkpt lat="47.97061" lon="6.19276">
        <ele>256</ele>
        <time>2017-07-19T07:48:07Z</time>
      </trkpt>
      <trkpt lat="47.9707" lon="6.19294">
        <ele>255.60000610352</ele>
        <time>2017-07-19T07:48:09Z</time>
      </trkpt>
      <trkpt lat="47.97088" lon="6.19328">
        <ele>255</ele>
        <time>2017-07-19T07:48:13Z</time>
      </trkpt>
      <trkpt lat="47.97104" lon="6.19353">
        <ele>254.19999694824</ele>
        <time>2017-07-19T07:48:16Z</time>
      </trkpt>
      <trkpt lat="47.97116" lon="6.19368">
        <ele>253.80000305176</ele>
        <time>2017-07-19T07:48:18Z</time>
      </trkpt>
      <trkpt lat="47.9714" lon="6.19399">
        <ele>252.60000610352</ele>
        <time>2017-07-19T07:48:22Z</time>
      </trkpt>
      <trkpt lat="47.97158" lon="6.1942">
        <ele>251.60000610352</ele>
        <time>2017-07-19T07:48:25Z</time>
      </trkpt>
      <trkpt lat="47.97165" lon="6.19427">
        <ele>251.39999389648</ele>
        <time>2017-07-19T07:48:26Z</time>
      </trkpt>
      <trkpt lat="47.97196" lon="6.19463">
        <ele>250.19999694824</ele>
        <time>2017-07-19T07:48:31Z</time>
      </trkpt>
      <trkpt lat="47.97203" lon="6.1947">
        <ele>250</ele>
        <time>2017-07-19T07:48:32Z</time>
      </trkpt>
      <trkpt lat="47.97228" lon="6.19498">
        <ele>249.19999694824</ele>
        <time>2017-07-19T07:48:36Z</time>
      </trkpt>
      <trkpt lat="47.97253" lon="6.19525">
        <ele>248</ele>
        <time>2017-07-19T07:48:40Z</time>
      </trkpt>
      <trkpt lat="47.9726" lon="6.19532">
        <ele>247.80000305176</ele>
        <time>2017-07-19T07:48:41Z</time>
      </trkpt>
      <trkpt lat="47.97274" lon="6.19549">
        <ele>247.39999389648</ele>
        <time>2017-07-19T07:48:44Z</time>
      </trkpt>
      <trkpt lat="47.97276" lon="6.19553">
        <ele>247.39999389648</ele>
        <time>2017-07-19T07:48:45Z</time>
      </trkpt>
      <trkpt lat="47.97278" lon="6.19565">
        <ele>247.80000305176</ele>
        <time>2017-07-19T07:49:02Z</time>
      </trkpt>
      <trkpt lat="47.97277" lon="6.19572">
        <ele>247.80000305176</ele>
        <time>2017-07-19T07:49:05Z</time>
      </trkpt>
      <trkpt lat="47.9727" lon="6.19585">
        <ele>247.80000305176</ele>
        <time>2017-07-19T07:49:10Z</time>
      </trkpt>
      <trkpt lat="47.97268" lon="6.19589">
        <ele>247.80000305176</ele>
        <time>2017-07-19T07:49:11Z</time>
      </trkpt>
      <trkpt lat="47.9726" lon="6.1961">
        <ele>247.80000305176</ele>
        <time>2017-07-19T07:49:16Z</time>
      </trkpt>
      <trkpt lat="47.97256" lon="6.19632">
        <ele>247.19999694824</ele>
        <time>2017-07-19T07:49:21Z</time>
      </trkpt>
      <trkpt lat="47.97256" lon="6.1964">
        <ele>246.80000305176</ele>
        <time>2017-07-19T07:49:23Z</time>
      </trkpt>
      <trkpt lat="47.97257" lon="6.19643">
        <ele>246.80000305176</ele>
        <time>2017-07-19T07:49:24Z</time>
      </trkpt>
      <trkpt lat="47.97259" lon="6.19646">
        <ele>246.60000610352</ele>
        <time>2017-07-19T07:49:25Z</time>
      </trkpt>
      <trkpt lat="47.97267" lon="6.19654">
        <ele>245.80000305176</ele>
        <time>2017-07-19T07:49:28Z</time>
      </trkpt>
      <trkpt lat="47.97275" lon="6.19659">
        <ele>245.60000610352</ele>
        <time>2017-07-19T07:49:30Z</time>
      </trkpt>
      <trkpt lat="47.97285" lon="6.1967">
        <ele>245.19999694824</ele>
        <time>2017-07-19T07:49:33Z</time>
      </trkpt>
      <trkpt lat="47.97295" lon="6.1968">
        <ele>245</ele>
        <time>2017-07-19T07:49:36Z</time>
      </trkpt>
      <trkpt lat="47.97299" lon="6.19683">
        <ele>244.80000305176</ele>
        <time>2017-07-19T07:49:37Z</time>
      </trkpt>
      <trkpt lat="47.97313" lon="6.19696">
        <ele>244.19999694824</ele>
        <time>2017-07-19T07:49:42Z</time>
      </trkpt>
      <trkpt lat="47.97326" lon="6.19714">
        <ele>244.39999389648</ele>
        <time>2017-07-19T07:49:48Z</time>
      </trkpt>
      <trkpt lat="47.97339" lon="6.19733">
        <ele>244.60000610352</ele>
        <time>2017-07-19T07:49:54Z</time>
      </trkpt>
      <trkpt lat="47.97352" lon="6.19759">
        <ele>244.60000610352</ele>
        <time>2017-07-19T07:50:01Z</time>
      </trkpt>
      <trkpt lat="47.97358" lon="6.19786">
        <ele>245</ele>
        <time>2017-07-19T07:50:07Z</time>
      </trkpt>
      <trkpt lat="47.97364" lon="6.19817">
        <ele>245.80000305176</ele>
        <time>2017-07-19T07:50:15Z</time>
      </trkpt>
      <trkpt lat="47.97366" lon="6.19824">
        <ele>245.80000305176</ele>
        <time>2017-07-19T07:50:17Z</time>
      </trkpt>
      <trkpt lat="47.97376" lon="6.19845">
        <ele>246</ele>
        <time>2017-07-19T07:50:23Z</time>
      </trkpt>
      <trkpt lat="47.97386" lon="6.19869">
        <ele>246.80000305176</ele>
        <time>2017-07-19T07:50:30Z</time>
      </trkpt>
      <trkpt lat="47.97396" lon="6.19893">
        <ele>246.80000305176</ele>
        <time>2017-07-19T07:50:36Z</time>
      </trkpt>
      <trkpt lat="47.97397" lon="6.19898">
        <ele>247</ele>
        <time>2017-07-19T07:50:37Z</time>
      </trkpt>
      <trkpt lat="47.97403" lon="6.19924">
        <ele>247</ele>
        <time>2017-07-19T07:50:43Z</time>
      </trkpt>
      <trkpt lat="47.97414" lon="6.19952">
        <ele>247.39999389648</ele>
        <time>2017-07-19T07:50:51Z</time>
      </trkpt>
      <trkpt lat="47.97422" lon="6.19975">
        <ele>248</ele>
        <time>2017-07-19T07:50:57Z</time>
      </trkpt>
      <trkpt lat="47.97436" lon="6.20008">
        <ele>248</ele>
        <time>2017-07-19T07:51:05Z</time>
      </trkpt>
      <trkpt lat="47.9745" lon="6.20035">
        <ele>247.39999389648</ele>
        <time>2017-07-19T07:51:12Z</time>
      </trkpt>
      <trkpt lat="47.97466" lon="6.2006">
        <ele>246.80000305176</ele>
        <time>2017-07-19T07:51:19Z</time>
      </trkpt>
      <trkpt lat="47.97478" lon="6.2008">
        <ele>246</ele>
        <time>2017-07-19T07:51:27Z</time>
      </trkpt>
      <trkpt lat="47.97482" lon="6.20081">
        <ele>246</ele>
        <time>2017-07-19T07:51:29Z</time>
      </trkpt>
      <trkpt lat="47.97487" lon="6.20078">
        <ele>246.19999694824</ele>
        <time>2017-07-19T07:51:32Z</time>
      </trkpt>
      <trkpt lat="47.97493" lon="6.20073">
        <ele>246.39999389648</ele>
        <time>2017-07-19T07:51:35Z</time>
      </trkpt>
      <trkpt lat="47.975" lon="6.20065">
        <ele>246.39999389648</ele>
        <time>2017-07-19T07:51:39Z</time>
      </trkpt>
      <trkpt lat="47.97503" lon="6.20063">
        <ele>246.60000610352</ele>
        <time>2017-07-19T07:51:41Z</time>
      </trkpt>
      <trkpt lat="47.97507" lon="6.20061">
        <ele>246.80000305176</ele>
        <time>2017-07-19T07:51:44Z</time>
      </trkpt>
      <trkpt lat="47.97509" lon="6.20059">
        <ele>247.39999389648</ele>
        <time>2017-07-19T07:52:00Z</time>
      </trkpt>
      <trkpt lat="47.9751" lon="6.20059">
        <ele>247.39999389648</ele>
        <time>2017-07-19T07:52:01Z</time>
      </trkpt>
      <trkpt lat="47.9752" lon="6.20051">
        <ele>247.60000610352</ele>
        <time>2017-07-19T07:52:06Z</time>
      </trkpt>
      <trkpt lat="47.97535" lon="6.20044">
        <ele>247.19999694824</ele>
        <time>2017-07-19T07:52:11Z</time>
      </trkpt>
      <trkpt lat="47.97545" lon="6.20046">
        <ele>246.39999389648</ele>
        <time>2017-07-19T07:52:16Z</time>
      </trkpt>
      <trkpt lat="47.97557" lon="6.20057">
        <ele>246</ele>
        <time>2017-07-19T07:52:21Z</time>
      </trkpt>
      <trkpt lat="47.97578" lon="6.20069">
        <ele>246.39999389648</ele>
        <time>2017-07-19T07:52:27Z</time>
      </trkpt>
      <trkpt lat="47.97603" lon="6.20086">
        <ele>247.80000305176</ele>
        <time>2017-07-19T07:52:36Z</time>
      </trkpt>
      <trkpt lat="47.97604" lon="6.20086">
        <ele>248</ele>
        <time>2017-07-19T07:52:37Z</time>
      </trkpt>
      <trkpt lat="47.97606" lon="6.20087">
        <ele>248.80000305176</ele>
        <time>2017-07-19T07:52:52Z</time>
      </trkpt>
      <trkpt lat="47.97607" lon="6.20089">
        <ele>248.80000305176</ele>
        <time>2017-07-19T07:52:53Z</time>
      </trkpt>
      <trkpt lat="47.97615" lon="6.20093">
        <ele>249</ele>
        <time>2017-07-19T07:52:57Z</time>
      </trkpt>
      <trkpt lat="47.97618" lon="6.20094">
        <ele>249.19999694824</ele>
        <time>2017-07-19T07:52:58Z</time>
      </trkpt>
      <trkpt lat="47.97629" lon="6.20103">
        <ele>249.80000305176</ele>
        <time>2017-07-19T07:53:04Z</time>
      </trkpt>
      <trkpt lat="47.97631" lon="6.20105">
        <ele>250.19999694824</ele>
        <time>2017-07-19T07:53:05Z</time>
      </trkpt>
      <trkpt lat="47.97641" lon="6.20113">
        <ele>251</ele>
        <time>2017-07-19T07:53:10Z</time>
      </trkpt>
      <trkpt lat="47.97645" lon="6.20116">
        <ele>251.19999694824</ele>
        <time>2017-07-19T07:53:12Z</time>
      </trkpt>
      <trkpt lat="47.97652" lon="6.20126">
        <ele>251.80000305176</ele>
        <time>2017-07-19T07:53:16Z</time>
      </trkpt>
      <trkpt lat="47.97657" lon="6.20135">
        <ele>252.39999389648</ele>
        <time>2017-07-19T07:53:19Z</time>
      </trkpt>
      <trkpt lat="47.97662" lon="6.20143">
        <ele>252.80000305176</ele>
        <time>2017-07-19T07:53:22Z</time>
      </trkpt>
      <trkpt lat="47.97665" lon="6.20148">
        <ele>253.60000610352</ele>
        <time>2017-07-19T07:53:45Z</time>
      </trkpt>
      <trkpt lat="47.97666" lon="6.2015">
        <ele>253.60000610352</ele>
        <time>2017-07-19T07:53:46Z</time>
      </trkpt>
      <trkpt lat="47.97675" lon="6.20156">
        <ele>253.60000610352</ele>
        <time>2017-07-19T07:53:50Z</time>
      </trkpt>
      <trkpt lat="47.97676" lon="6.2016">
        <ele>253.80000305176</ele>
        <time>2017-07-19T07:53:51Z</time>
      </trkpt>
      <trkpt lat="47.97682" lon="6.20167">
        <ele>254.19999694824</ele>
        <time>2017-07-19T07:53:54Z</time>
      </trkpt>
      <trkpt lat="47.97689" lon="6.20173">
        <ele>254.60000610352</ele>
        <time>2017-07-19T07:53:57Z</time>
      </trkpt>
      <trkpt lat="47.97697" lon="6.20182">
        <ele>255.19999694824</ele>
        <time>2017-07-19T07:54:01Z</time>
      </trkpt>
      <trkpt lat="47.97702" lon="6.20187">
        <ele>255.60000610352</ele>
        <time>2017-07-19T07:54:03Z</time>
      </trkpt>
      <trkpt lat="47.97713" lon="6.20199">
        <ele>256.60000610352</ele>
        <time>2017-07-19T07:54:09Z</time>
      </trkpt>
      <trkpt lat="47.97715" lon="6.20202">
        <ele>256.79998779297</ele>
        <time>2017-07-19T07:54:10Z</time>
      </trkpt>
      <trkpt lat="47.97723" lon="6.20215">
        <ele>257.79998779297</ele>
        <time>2017-07-19T07:54:15Z</time>
      </trkpt>
      <trkpt lat="47.97724" lon="6.20218">
        <ele>258</ele>
        <time>2017-07-19T07:54:16Z</time>
      </trkpt>
      <trkpt lat="47.97732" lon="6.20233">
        <ele>259</ele>
        <time>2017-07-19T07:54:21Z</time>
      </trkpt>
      <trkpt lat="47.97735" lon="6.20239">
        <ele>259.20001220703</ele>
        <time>2017-07-19T07:54:23Z</time>
      </trkpt>
      <trkpt lat="47.97746" lon="6.20253">
        <ele>260</ele>
        <time>2017-07-19T07:54:29Z</time>
      </trkpt>
      <trkpt lat="47.97748" lon="6.20256">
        <ele>260.20001220703</ele>
        <time>2017-07-19T07:54:30Z</time>
      </trkpt>
      <trkpt lat="47.97757" lon="6.20273">
        <ele>261.20001220703</ele>
        <time>2017-07-19T07:54:36Z</time>
      </trkpt>
      <trkpt lat="47.97767" lon="6.20289">
        <ele>262.20001220703</ele>
        <time>2017-07-19T07:54:42Z</time>
      </trkpt>
      <trkpt lat="47.97778" lon="6.2031">
        <ele>263.39999389648</ele>
        <time>2017-07-19T07:54:49Z</time>
      </trkpt>
      <trkpt lat="47.9778" lon="6.20313">
        <ele>263.60000610352</ele>
        <time>2017-07-19T07:54:50Z</time>
      </trkpt>
      <trkpt lat="47.97789" lon="6.20329">
        <ele>264.60000610352</ele>
        <time>2017-07-19T07:54:56Z</time>
      </trkpt>
      <trkpt lat="47.97799" lon="6.20349">
        <ele>265.60000610352</ele>
        <time>2017-07-19T07:55:03Z</time>
      </trkpt>
      <trkpt lat="47.97807" lon="6.20363">
        <ele>266.60000610352</ele>
        <time>2017-07-19T07:55:08Z</time>
      </trkpt>
      <trkpt lat="47.97812" lon="6.20376">
        <ele>267.20001220703</ele>
        <time>2017-07-19T07:55:12Z</time>
      </trkpt>
      <trkpt lat="47.97816" lon="6.20387">
        <ele>267.60000610352</ele>
        <time>2017-07-19T07:55:15Z</time>
      </trkpt>
      <trkpt lat="47.97822" lon="6.20404">
        <ele>268.39999389648</ele>
        <time>2017-07-19T07:55:20Z</time>
      </trkpt>
      <trkpt lat="47.97826" lon="6.20414">
        <ele>268.79998779297</ele>
        <time>2017-07-19T07:55:23Z</time>
      </trkpt>
      <trkpt lat="47.97831" lon="6.20427">
        <ele>269.39999389648</ele>
        <time>2017-07-19T07:55:27Z</time>
      </trkpt>
      <trkpt lat="47.97832" lon="6.2043">
        <ele>269.79998779297</ele>
        <time>2017-07-19T07:55:28Z</time>
      </trkpt>
      <trkpt lat="47.97841" lon="6.20452">
        <ele>270.79998779297</ele>
        <time>2017-07-19T07:55:35Z</time>
      </trkpt>
      <trkpt lat="47.97842" lon="6.20456">
        <ele>271</ele>
        <time>2017-07-19T07:55:36Z</time>
      </trkpt>
      <trkpt lat="47.97846" lon="6.20475">
        <ele>272</ele>
        <time>2017-07-19T07:55:41Z</time>
      </trkpt>
      <trkpt lat="47.97847" lon="6.20479">
        <ele>272</ele>
        <time>2017-07-19T07:55:42Z</time>
      </trkpt>
      <trkpt lat="47.97857" lon="6.20496">
        <ele>273</ele>
        <time>2017-07-19T07:55:48Z</time>
      </trkpt>
      <trkpt lat="47.97859" lon="6.20499">
        <ele>273</ele>
        <time>2017-07-19T07:55:49Z</time>
      </trkpt>
      <trkpt lat="47.97866" lon="6.20515">
        <ele>274.20001220703</ele>
        <time>2017-07-19T07:55:54Z</time>
      </trkpt>
      <trkpt lat="47.97868" lon="6.20518">
        <ele>274.20001220703</ele>
        <time>2017-07-19T07:55:55Z</time>
      </trkpt>
      <trkpt lat="47.97873" lon="6.20529">
        <ele>275</ele>
        <time>2017-07-19T07:56:00Z</time>
      </trkpt>
      <trkpt lat="47.97873" lon="6.20527">
        <ele>275.60000610352</ele>
        <time>2017-07-19T07:56:14Z</time>
      </trkpt>
      <trkpt lat="47.97869" lon="6.20524">
        <ele>275.60000610352</ele>
        <time>2017-07-19T07:56:16Z</time>
      </trkpt>
      <trkpt lat="47.97864" lon="6.20517">
        <ele>275.60000610352</ele>
        <time>2017-07-19T07:56:19Z</time>
      </trkpt>
      <trkpt lat="47.97861" lon="6.20513">
        <ele>275.39999389648</ele>
        <time>2017-07-19T07:56:21Z</time>
      </trkpt>
      <trkpt lat="47.97859" lon="6.20506">
        <ele>274.60000610352</ele>
        <time>2017-07-19T07:57:45Z</time>
      </trkpt>
      <trkpt lat="47.97858" lon="6.20503">
        <ele>274.60000610352</ele>
        <time>2017-07-19T07:57:46Z</time>
      </trkpt>
      <trkpt lat="47.97848" lon="6.2048">
        <ele>274.39999389648</ele>
        <time>2017-07-19T07:57:51Z</time>
      </trkpt>
      <trkpt lat="47.97845" lon="6.20474">
        <ele>274.20001220703</ele>
        <time>2017-07-19T07:57:52Z</time>
      </trkpt>
      <trkpt lat="47.97843" lon="6.20466">
        <ele>274.20001220703</ele>
        <time>2017-07-19T07:57:53Z</time>
      </trkpt>
      <trkpt lat="47.97839" lon="6.20451">
        <ele>273.79998779297</ele>
        <time>2017-07-19T07:57:55Z</time>
      </trkpt>
      <trkpt lat="47.97832" lon="6.2043">
        <ele>273</ele>
        <time>2017-07-19T07:57:58Z</time>
      </trkpt>
      <trkpt lat="47.9782" lon="6.20399">
        <ele>271.79998779297</ele>
        <time>2017-07-19T07:58:02Z</time>
      </trkpt>
      <trkpt lat="47.97809" lon="6.20373">
        <ele>270.79998779297</ele>
        <time>2017-07-19T07:58:05Z</time>
      </trkpt>
      <trkpt lat="47.97801" lon="6.20354">
        <ele>270.20001220703</ele>
        <time>2017-07-19T07:58:07Z</time>
      </trkpt>
      <trkpt lat="47.97797" lon="6.20345">
        <ele>269.79998779297</ele>
        <time>2017-07-19T07:58:08Z</time>
      </trkpt>
      <trkpt lat="47.97784" lon="6.20319">
        <ele>268.60000610352</ele>
        <time>2017-07-19T07:58:11Z</time>
      </trkpt>
      <trkpt lat="47.97779" lon="6.2031">
        <ele>268.20001220703</ele>
        <time>2017-07-19T07:58:12Z</time>
      </trkpt>
      <trkpt lat="47.97772" lon="6.20296">
        <ele>267.39999389648</ele>
        <time>2017-07-19T07:58:14Z</time>
      </trkpt>
      <trkpt lat="47.97767" lon="6.2029">
        <ele>266.39999389648</ele>
        <time>2017-07-19T07:58:15Z</time>
      </trkpt>
      <trkpt lat="47.97763" lon="6.20283">
        <ele>265.79998779297</ele>
        <time>2017-07-19T07:58:16Z</time>
      </trkpt>
      <trkpt lat="47.97751" lon="6.20261">
        <ele>264.39999389648</ele>
        <time>2017-07-19T07:58:19Z</time>
      </trkpt>
      <trkpt lat="47.97741" lon="6.20245">
        <ele>263.79998779297</ele>
        <time>2017-07-19T07:58:21Z</time>
      </trkpt>
      <trkpt lat="47.97736" lon="6.20237">
        <ele>263.39999389648</ele>
        <time>2017-07-19T07:58:22Z</time>
      </trkpt>
      <trkpt lat="47.97723" lon="6.20217">
        <ele>262</ele>
        <time>2017-07-19T07:58:25Z</time>
      </trkpt>
      <trkpt lat="47.97718" lon="6.20211">
        <ele>261.60000610352</ele>
        <time>2017-07-19T07:58:26Z</time>
      </trkpt>
      <trkpt lat="47.97708" lon="6.20198">
        <ele>260.60000610352</ele>
        <time>2017-07-19T07:58:28Z</time>
      </trkpt>
      <trkpt lat="47.97694" lon="6.20179">
        <ele>259.39999389648</ele>
        <time>2017-07-19T07:58:31Z</time>
      </trkpt>
      <trkpt lat="47.97689" lon="6.20174">
        <ele>259</ele>
        <time>2017-07-19T07:58:32Z</time>
      </trkpt>
      <trkpt lat="47.97681" lon="6.20164">
        <ele>258.20001220703</ele>
        <time>2017-07-19T07:58:34Z</time>
      </trkpt>
      <trkpt lat="47.97673" lon="6.20153">
        <ele>257</ele>
        <time>2017-07-19T07:58:37Z</time>
      </trkpt>
      <trkpt lat="47.97669" lon="6.2015">
        <ele>256</ele>
        <time>2017-07-19T07:58:39Z</time>
      </trkpt>
      <trkpt lat="47.97668" lon="6.20154">
        <ele>255.39999389648</ele>
        <time>2017-07-19T07:58:41Z</time>
      </trkpt>
      <trkpt lat="47.97669" lon="6.20158">
        <ele>254.19999694824</ele>
        <time>2017-07-19T07:58:49Z</time>
      </trkpt>
      <trkpt lat="47.9767" lon="6.20161">
        <ele>254.19999694824</ele>
        <time>2017-07-19T07:58:50Z</time>
      </trkpt>
      <trkpt lat="47.97679" lon="6.20178">
        <ele>254</ele>
        <time>2017-07-19T07:58:54Z</time>
      </trkpt>
      <trkpt lat="47.97686" lon="6.20188">
        <ele>253.80000305176</ele>
        <time>2017-07-19T07:58:56Z</time>
      </trkpt>
      <trkpt lat="47.97699" lon="6.20212">
        <ele>253</ele>
        <time>2017-07-19T07:59:00Z</time>
      </trkpt>
      <trkpt lat="47.97706" lon="6.20226">
        <ele>252.39999389648</ele>
        <time>2017-07-19T07:59:02Z</time>
      </trkpt>
      <trkpt lat="47.97714" lon="6.20242">
        <ele>252</ele>
        <time>2017-07-19T07:59:04Z</time>
      </trkpt>
      <trkpt lat="47.9772" lon="6.20259">
        <ele>251.80000305176</ele>
        <time>2017-07-19T07:59:06Z</time>
      </trkpt>
      <trkpt lat="47.97731" lon="6.20296">
        <ele>251.19999694824</ele>
        <time>2017-07-19T07:59:10Z</time>
      </trkpt>
      <trkpt lat="47.97734" lon="6.20311">
        <ele>250.80000305176</ele>
        <time>2017-07-19T07:59:12Z</time>
      </trkpt>
      <trkpt lat="47.97738" lon="6.20325">
        <ele>250.39999389648</ele>
        <time>2017-07-19T07:59:14Z</time>
      </trkpt>
      <trkpt lat="47.9774" lon="6.2033">
        <ele>250.19999694824</ele>
        <time>2017-07-19T07:59:15Z</time>
      </trkpt>
      <trkpt lat="47.97743" lon="6.20339">
        <ele>249.80000305176</ele>
        <time>2017-07-19T07:59:17Z</time>
      </trkpt>
      <trkpt lat="47.97745" lon="6.20343">
        <ele>249.60000610352</ele>
        <time>2017-07-19T08:01:16Z</time>
      </trkpt>
      <trkpt lat="47.97747" lon="6.20344">
        <ele>249.60000610352</ele>
        <time>2017-07-19T08:01:17Z</time>
      </trkpt>
      <trkpt lat="47.9775" lon="6.20352">
        <ele>249.60000610352</ele>
        <time>2017-07-19T08:01:20Z</time>
      </trkpt>
      <trkpt lat="47.97761" lon="6.2038">
        <ele>249.39999389648</ele>
        <time>2017-07-19T08:01:26Z</time>
      </trkpt>
      <trkpt lat="47.97764" lon="6.20391">
        <ele>249.39999389648</ele>
        <time>2017-07-19T08:01:28Z</time>
      </trkpt>
      <trkpt lat="47.97768" lon="6.20403">
        <ele>249.39999389648</ele>
        <time>2017-07-19T08:01:30Z</time>
      </trkpt>
      <trkpt lat="47.97772" lon="6.20414">
        <ele>249.60000610352</ele>
        <time>2017-07-19T08:01:32Z</time>
      </trkpt>
      <trkpt lat="47.97776" lon="6.20427">
        <ele>249.60000610352</ele>
        <time>2017-07-19T08:01:34Z</time>
      </trkpt>
      <trkpt lat="47.97783" lon="6.20446">
        <ele>249.80000305176</ele>
        <time>2017-07-19T08:01:37Z</time>
      </trkpt>
      <trkpt lat="47.978" lon="6.20488">
        <ele>249.80000305176</ele>
        <time>2017-07-19T08:01:44Z</time>
      </trkpt>
      <trkpt lat="47.97808" lon="6.20513">
        <ele>250.19999694824</ele>
        <time>2017-07-19T08:01:48Z</time>
      </trkpt>
      <trkpt lat="47.97814" lon="6.2054">
        <ele>250.39999389648</ele>
        <time>2017-07-19T08:01:52Z</time>
      </trkpt>
      <trkpt lat="47.97819" lon="6.20596">
        <ele>250.39999389648</ele>
        <time>2017-07-19T08:01:59Z</time>
      </trkpt>
      <trkpt lat="47.97825" lon="6.20665">
        <ele>249.80000305176</ele>
        <time>2017-07-19T08:02:07Z</time>
      </trkpt>
      <trkpt lat="47.97827" lon="6.20699">
        <ele>249.80000305176</ele>
        <time>2017-07-19T08:02:11Z</time>
      </trkpt>
      <trkpt lat="47.97828" lon="6.20724">
        <ele>249.60000610352</ele>
        <time>2017-07-19T08:02:14Z</time>
      </trkpt>
      <trkpt lat="47.97828" lon="6.2074">
        <ele>249.39999389648</ele>
        <time>2017-07-19T08:02:16Z</time>
      </trkpt>
      <trkpt lat="47.97824" lon="6.20765">
        <ele>249.39999389648</ele>
        <time>2017-07-19T08:02:19Z</time>
      </trkpt>
      <trkpt lat="47.97824" lon="6.20782">
        <ele>249.39999389648</ele>
        <time>2017-07-19T08:02:21Z</time>
      </trkpt>
      <trkpt lat="47.97823" lon="6.20814">
        <ele>249.39999389648</ele>
        <time>2017-07-19T08:02:25Z</time>
      </trkpt>
      <trkpt lat="47.97817" lon="6.20879">
        <ele>249.19999694824</ele>
        <time>2017-07-19T08:02:33Z</time>
      </trkpt>
      <trkpt lat="47.97815" lon="6.20894">
        <ele>249.19999694824</ele>
        <time>2017-07-19T08:02:35Z</time>
      </trkpt>
      <trkpt lat="47.9781" lon="6.20926">
        <ele>249</ele>
        <time>2017-07-19T08:02:39Z</time>
      </trkpt>
      <trkpt lat="47.97809" lon="6.20934">
        <ele>249.19999694824</ele>
        <time>2017-07-19T08:02:40Z</time>
      </trkpt>
      <trkpt lat="47.97798" lon="6.20989">
        <ele>249.19999694824</ele>
        <time>2017-07-19T08:02:47Z</time>
      </trkpt>
      <trkpt lat="47.97792" lon="6.21011">
        <ele>249.19999694824</ele>
        <time>2017-07-19T08:02:50Z</time>
      </trkpt>
      <trkpt lat="47.97789" lon="6.21027">
        <ele>249.19999694824</ele>
        <time>2017-07-19T08:02:52Z</time>
      </trkpt>
      <trkpt lat="47.97785" lon="6.21043">
        <ele>249.19999694824</ele>
        <time>2017-07-19T08:02:54Z</time>
      </trkpt>
      <trkpt lat="47.97774" lon="6.21097">
        <ele>249.39999389648</ele>
        <time>2017-07-19T08:03:01Z</time>
      </trkpt>
      <trkpt lat="47.97767" lon="6.21154">
        <ele>249.39999389648</ele>
        <time>2017-07-19T08:03:08Z</time>
      </trkpt>
      <trkpt lat="47.97768" lon="6.21213">
        <ele>249.39999389648</ele>
        <time>2017-07-19T08:03:15Z</time>
      </trkpt>
      <trkpt lat="47.97769" lon="6.21238">
        <ele>249.39999389648</ele>
        <time>2017-07-19T08:03:18Z</time>
      </trkpt>
      <trkpt lat="47.97774" lon="6.21264">
        <ele>249.39999389648</ele>
        <time>2017-07-19T08:03:21Z</time>
      </trkpt>
      <trkpt lat="47.97779" lon="6.21288">
        <ele>249.60000610352</ele>
        <time>2017-07-19T08:03:24Z</time>
      </trkpt>
      <trkpt lat="47.97785" lon="6.21312">
        <ele>249.60000610352</ele>
        <time>2017-07-19T08:03:27Z</time>
      </trkpt>
      <trkpt lat="47.97793" lon="6.21341">
        <ele>249.60000610352</ele>
        <time>2017-07-19T08:03:31Z</time>
      </trkpt>
      <trkpt lat="47.97795" lon="6.21347">
        <ele>249.80000305176</ele>
        <time>2017-07-19T08:03:32Z</time>
      </trkpt>
      <trkpt lat="47.97803" lon="6.21373">
        <ele>250.19999694824</ele>
        <time>2017-07-19T08:03:37Z</time>
      </trkpt>
      <trkpt lat="47.97809" lon="6.21396">
        <ele>251.19999694824</ele>
        <time>2017-07-19T08:03:41Z</time>
      </trkpt>
      <trkpt lat="47.97811" lon="6.21402">
        <ele>251.39999389648</ele>
        <time>2017-07-19T08:03:42Z</time>
      </trkpt>
      <trkpt lat="47.97819" lon="6.21428">
        <ele>251.60000610352</ele>
        <time>2017-07-19T08:03:46Z</time>
      </trkpt>
      <trkpt lat="47.97823" lon="6.21441">
        <ele>251.80000305176</ele>
        <time>2017-07-19T08:03:48Z</time>
      </trkpt>
      <trkpt lat="47.97828" lon="6.21454">
        <ele>251.60000610352</ele>
        <time>2017-07-19T08:03:50Z</time>
      </trkpt>
      <trkpt lat="47.97838" lon="6.21479">
        <ele>251.60000610352</ele>
        <time>2017-07-19T08:03:54Z</time>
      </trkpt>
      <trkpt lat="47.97854" lon="6.21515">
        <ele>251.60000610352</ele>
        <time>2017-07-19T08:04:00Z</time>
      </trkpt>
      <trkpt lat="47.97867" lon="6.21544">
        <ele>251.60000610352</ele>
        <time>2017-07-19T08:04:05Z</time>
      </trkpt>
      <trkpt lat="47.97873" lon="6.21557">
        <ele>251.39999389648</ele>
        <time>2017-07-19T08:04:18Z</time>
      </trkpt>
      <trkpt lat="47.97877" lon="6.21565">
        <ele>251.39999389648</ele>
        <time>2017-07-19T08:04:21Z</time>
      </trkpt>
      <trkpt lat="47.97886" lon="6.2158">
        <ele>251.60000610352</ele>
        <time>2017-07-19T08:04:25Z</time>
      </trkpt>
      <trkpt lat="47.97889" lon="6.21584">
        <ele>251.60000610352</ele>
        <time>2017-07-19T08:04:26Z</time>
      </trkpt>
      <trkpt lat="47.97904" lon="6.21602">
        <ele>251.60000610352</ele>
        <time>2017-07-19T08:04:30Z</time>
      </trkpt>
      <trkpt lat="47.97935" lon="6.21628">
        <ele>252</ele>
        <time>2017-07-19T08:04:37Z</time>
      </trkpt>
      <trkpt lat="47.97951" lon="6.21633">
        <ele>252.19999694824</ele>
        <time>2017-07-19T08:04:40Z</time>
      </trkpt>
      <trkpt lat="47.97962" lon="6.21634">
        <ele>252.19999694824</ele>
        <time>2017-07-19T08:04:42Z</time>
      </trkpt>
      <trkpt lat="47.97984" lon="6.21637">
        <ele>252.19999694824</ele>
        <time>2017-07-19T08:04:46Z</time>
      </trkpt>
      <trkpt lat="47.9799" lon="6.21639">
        <ele>252.19999694824</ele>
        <time>2017-07-19T08:04:47Z</time>
      </trkpt>
      <trkpt lat="47.9803" lon="6.21659">
        <ele>252.19999694824</ele>
        <time>2017-07-19T08:04:54Z</time>
      </trkpt>
      <trkpt lat="47.98074" lon="6.21689">
        <ele>252</ele>
        <time>2017-07-19T08:05:02Z</time>
      </trkpt>
      <trkpt lat="47.98115" lon="6.21727">
        <ele>252.39999389648</ele>
        <time>2017-07-19T08:05:10Z</time>
      </trkpt>
      <trkpt lat="47.9812" lon="6.21733">
        <ele>252.39999389648</ele>
        <time>2017-07-19T08:05:11Z</time>
      </trkpt>
      <trkpt lat="47.98146" lon="6.21773">
        <ele>252.39999389648</ele>
        <time>2017-07-19T08:05:17Z</time>
      </trkpt>
      <trkpt lat="47.98176" lon="6.21828">
        <ele>252.39999389648</ele>
        <time>2017-07-19T08:05:25Z</time>
      </trkpt>
      <trkpt lat="47.98193" lon="6.21873">
        <ele>252.80000305176</ele>
        <time>2017-07-19T08:05:32Z</time>
      </trkpt>
      <trkpt lat="47.98197" lon="6.2189">
        <ele>253.39999389648</ele>
        <time>2017-07-19T08:05:35Z</time>
      </trkpt>
      <trkpt lat="47.98199" lon="6.21896">
        <ele>253.60000610352</ele>
        <time>2017-07-19T08:05:36Z</time>
      </trkpt>
      <trkpt lat="47.98201" lon="6.21908">
        <ele>254</ele>
        <time>2017-07-19T08:05:38Z</time>
      </trkpt>
      <trkpt lat="47.98203" lon="6.21915">
        <ele>254.19999694824</ele>
        <time>2017-07-19T08:05:39Z</time>
      </trkpt>
      <trkpt lat="47.98207" lon="6.21927">
        <ele>254.39999389648</ele>
        <time>2017-07-19T08:05:41Z</time>
      </trkpt>
      <trkpt lat="47.98212" lon="6.21939">
        <ele>254.60000610352</ele>
        <time>2017-07-19T08:05:43Z</time>
      </trkpt>
      <trkpt lat="47.98214" lon="6.21945">
        <ele>254.80000305176</ele>
        <time>2017-07-19T08:05:44Z</time>
      </trkpt>
      <trkpt lat="47.98229" lon="6.21977">
        <ele>255</ele>
        <time>2017-07-19T08:05:49Z</time>
      </trkpt>
      <trkpt lat="47.98232" lon="6.21984">
        <ele>255</ele>
        <time>2017-07-19T08:05:50Z</time>
      </trkpt>
      <trkpt lat="47.98243" lon="6.22019">
        <ele>255</ele>
        <time>2017-07-19T08:05:55Z</time>
      </trkpt>
      <trkpt lat="47.98253" lon="6.22064">
        <ele>255.19999694824</ele>
        <time>2017-07-19T08:06:01Z</time>
      </trkpt>
      <trkpt lat="47.98254" lon="6.22073">
        <ele>255.19999694824</ele>
        <time>2017-07-19T08:06:02Z</time>
      </trkpt>
      <trkpt lat="47.98253" lon="6.22105">
        <ele>255.39999389648</ele>
        <time>2017-07-19T08:06:06Z</time>
      </trkpt>
      <trkpt lat="47.9825" lon="6.2213">
        <ele>255.19999694824</ele>
        <time>2017-07-19T08:06:09Z</time>
      </trkpt>
      <trkpt lat="47.98245" lon="6.22155">
        <ele>255.19999694824</ele>
        <time>2017-07-19T08:06:12Z</time>
      </trkpt>
      <trkpt lat="47.98236" lon="6.22212">
        <ele>255</ele>
        <time>2017-07-19T08:06:19Z</time>
      </trkpt>
      <trkpt lat="47.98229" lon="6.22275">
        <ele>255.19999694824</ele>
        <time>2017-07-19T08:06:26Z</time>
      </trkpt>
      <trkpt lat="47.98225" lon="6.22349">
        <ele>255.39999389648</ele>
        <time>2017-07-19T08:06:34Z</time>
      </trkpt>
      <trkpt lat="47.98229" lon="6.22386">
        <ele>255.39999389648</ele>
        <time>2017-07-19T08:06:38Z</time>
      </trkpt>
      <trkpt lat="47.98233" lon="6.22404">
        <ele>255.39999389648</ele>
        <time>2017-07-19T08:06:40Z</time>
      </trkpt>
      <trkpt lat="47.98242" lon="6.2243">
        <ele>255.39999389648</ele>
        <time>2017-07-19T08:06:43Z</time>
      </trkpt>
      <trkpt lat="47.98252" lon="6.22454">
        <ele>255.19999694824</ele>
        <time>2017-07-19T08:06:46Z</time>
      </trkpt>
      <trkpt lat="47.98278" lon="6.22492">
        <ele>255.19999694824</ele>
        <time>2017-07-19T08:06:52Z</time>
      </trkpt>
      <trkpt lat="47.98292" lon="6.22505">
        <ele>255.19999694824</ele>
        <time>2017-07-19T08:06:55Z</time>
      </trkpt>
      <trkpt lat="47.98303" lon="6.22512">
        <ele>255.19999694824</ele>
        <time>2017-07-19T08:06:57Z</time>
      </trkpt>
      <trkpt lat="47.98348" lon="6.22535">
        <ele>255.39999389648</ele>
        <time>2017-07-19T08:07:05Z</time>
      </trkpt>
      <trkpt lat="47.98382" lon="6.22553">
        <ele>255.39999389648</ele>
        <time>2017-07-19T08:07:11Z</time>
      </trkpt>
      <trkpt lat="47.98399" lon="6.22562">
        <ele>255.39999389648</ele>
        <time>2017-07-19T08:07:14Z</time>
      </trkpt>
      <trkpt lat="47.98429" lon="6.22576">
        <ele>255.60000610352</ele>
        <time>2017-07-19T08:07:19Z</time>
      </trkpt>
      <trkpt lat="47.98474" lon="6.22598">
        <ele>255.39999389648</ele>
        <time>2017-07-19T08:07:27Z</time>
      </trkpt>
      <trkpt lat="47.98514" lon="6.22618">
        <ele>255.39999389648</ele>
        <time>2017-07-19T08:07:34Z</time>
      </trkpt>
      <trkpt lat="47.9856" lon="6.22641">
        <ele>255.60000610352</ele>
        <time>2017-07-19T08:07:43Z</time>
      </trkpt>
      <trkpt lat="47.98604" lon="6.22665">
        <ele>255.39999389648</ele>
        <time>2017-07-19T08:07:51Z</time>
      </trkpt>
      <trkpt lat="47.98648" lon="6.22688">
        <ele>255.39999389648</ele>
        <time>2017-07-19T08:07:59Z</time>
      </trkpt>
      <trkpt lat="47.98687" lon="6.22707">
        <ele>255.19999694824</ele>
        <time>2017-07-19T08:08:06Z</time>
      </trkpt>
      <trkpt lat="47.98722" lon="6.2272">
        <ele>255.39999389648</ele>
        <time>2017-07-19T08:08:12Z</time>
      </trkpt>
      <trkpt lat="47.9874" lon="6.22727">
        <ele>255.39999389648</ele>
        <time>2017-07-19T08:08:15Z</time>
      </trkpt>
      <trkpt lat="47.98753" lon="6.22729">
        <ele>255.39999389648</ele>
        <time>2017-07-19T08:08:17Z</time>
      </trkpt>
      <trkpt lat="47.98796" lon="6.2274">
        <ele>255.19999694824</ele>
        <time>2017-07-19T08:08:24Z</time>
      </trkpt>
      <trkpt lat="47.98821" lon="6.22746">
        <ele>255.19999694824</ele>
        <time>2017-07-19T08:08:28Z</time>
      </trkpt>
      <trkpt lat="47.98845" lon="6.22753">
        <ele>255.19999694824</ele>
        <time>2017-07-19T08:08:32Z</time>
      </trkpt>
      <trkpt lat="47.9888" lon="6.22762">
        <ele>255.19999694824</ele>
        <time>2017-07-19T08:08:38Z</time>
      </trkpt>
      <trkpt lat="47.9891" lon="6.22766">
        <ele>255.19999694824</ele>
        <time>2017-07-19T08:08:43Z</time>
      </trkpt>
      <trkpt lat="47.98916" lon="6.22765">
        <ele>255.19999694824</ele>
        <time>2017-07-19T08:08:44Z</time>
      </trkpt>
      <trkpt lat="47.98957" lon="6.22756">
        <ele>255.39999389648</ele>
        <time>2017-07-19T08:08:51Z</time>
      </trkpt>
      <trkpt lat="47.98998" lon="6.22739">
        <ele>255.39999389648</ele>
        <time>2017-07-19T08:08:58Z</time>
      </trkpt>
      <trkpt lat="47.99004" lon="6.22735">
        <ele>255.39999389648</ele>
        <time>2017-07-19T08:08:59Z</time>
      </trkpt>
      <trkpt lat="47.9903" lon="6.22717">
        <ele>255.60000610352</ele>
        <time>2017-07-19T08:09:04Z</time>
      </trkpt>
      <trkpt lat="47.99066" lon="6.22686">
        <ele>255.60000610352</ele>
        <time>2017-07-19T08:09:11Z</time>
      </trkpt>
      <trkpt lat="47.99104" lon="6.22648">
        <ele>255.39999389648</ele>
        <time>2017-07-19T08:09:19Z</time>
      </trkpt>
      <trkpt lat="47.99133" lon="6.22627">
        <ele>255.60000610352</ele>
        <time>2017-07-19T08:09:25Z</time>
      </trkpt>
      <trkpt lat="47.99157" lon="6.2262">
        <ele>255.80000305176</ele>
        <time>2017-07-19T08:09:30Z</time>
      </trkpt>
      <trkpt lat="47.99162" lon="6.22619">
        <ele>256</ele>
        <time>2017-07-19T08:09:31Z</time>
      </trkpt>
      <trkpt lat="47.99177" lon="6.22619">
        <ele>256</ele>
        <time>2017-07-19T08:09:34Z</time>
      </trkpt>
      <trkpt lat="47.99191" lon="6.22624">
        <ele>256.39999389648</ele>
        <time>2017-07-19T08:09:37Z</time>
      </trkpt>
      <trkpt lat="47.99206" lon="6.2263">
        <ele>256.39999389648</ele>
        <time>2017-07-19T08:09:40Z</time>
      </trkpt>
      <trkpt lat="47.99224" lon="6.22643">
        <ele>256.79998779297</ele>
        <time>2017-07-19T08:09:44Z</time>
      </trkpt>
      <trkpt lat="47.9924" lon="6.2266">
        <ele>257</ele>
        <time>2017-07-19T08:09:48Z</time>
      </trkpt>
      <trkpt lat="47.99247" lon="6.2267">
        <ele>257.20001220703</ele>
        <time>2017-07-19T08:09:50Z</time>
      </trkpt>
      <trkpt lat="47.99258" lon="6.22687">
        <ele>257.39999389648</ele>
        <time>2017-07-19T08:09:55Z</time>
      </trkpt>
      <trkpt lat="47.9926" lon="6.22689">
        <ele>257.39999389648</ele>
        <time>2017-07-19T08:09:56Z</time>
      </trkpt>
      <trkpt lat="47.99262" lon="6.22695">
        <ele>257.60000610352</ele>
        <time>2017-07-19T08:09:58Z</time>
      </trkpt>
      <trkpt lat="47.99264" lon="6.227">
        <ele>257.60000610352</ele>
        <time>2017-07-19T08:09:59Z</time>
      </trkpt>
      <trkpt lat="47.99276" lon="6.22719">
        <ele>257.60000610352</ele>
        <time>2017-07-19T08:10:03Z</time>
      </trkpt>
      <trkpt lat="47.9928" lon="6.22724">
        <ele>257.60000610352</ele>
        <time>2017-07-19T08:10:04Z</time>
      </trkpt>
      <trkpt lat="47.99306" lon="6.2276">
        <ele>257.79998779297</ele>
        <time>2017-07-19T08:10:11Z</time>
      </trkpt>
      <trkpt lat="47.99338" lon="6.22805">
        <ele>258</ele>
        <time>2017-07-19T08:10:19Z</time>
      </trkpt>
      <trkpt lat="47.9938" lon="6.22852">
        <ele>258.20001220703</ele>
        <time>2017-07-19T08:10:28Z</time>
      </trkpt>
      <trkpt lat="47.99385" lon="6.22856">
        <ele>258.20001220703</ele>
        <time>2017-07-19T08:10:29Z</time>
      </trkpt>
      <trkpt lat="47.99407" lon="6.22868">
        <ele>258.39999389648</ele>
        <time>2017-07-19T08:10:33Z</time>
      </trkpt>
      <trkpt lat="47.99418" lon="6.22871">
        <ele>258.39999389648</ele>
        <time>2017-07-19T08:10:35Z</time>
      </trkpt>
      <trkpt lat="47.99423" lon="6.22873">
        <ele>258.60000610352</ele>
        <time>2017-07-19T08:10:36Z</time>
      </trkpt>
      <trkpt lat="47.99434" lon="6.22876">
        <ele>258.79998779297</ele>
        <time>2017-07-19T08:10:38Z</time>
      </trkpt>
      <trkpt lat="47.99476" lon="6.22888">
        <ele>259.39999389648</ele>
        <time>2017-07-19T08:10:46Z</time>
      </trkpt>
      <trkpt lat="47.99492" lon="6.22896">
        <ele>259.39999389648</ele>
        <time>2017-07-19T08:10:49Z</time>
      </trkpt>
      <trkpt lat="47.99503" lon="6.22903">
        <ele>259.39999389648</ele>
        <time>2017-07-19T08:10:51Z</time>
      </trkpt>
      <trkpt lat="47.99536" lon="6.22932">
        <ele>259.39999389648</ele>
        <time>2017-07-19T08:10:57Z</time>
      </trkpt>
      <trkpt lat="47.99559" lon="6.22965">
        <ele>259.39999389648</ele>
        <time>2017-07-19T08:11:02Z</time>
      </trkpt>
      <trkpt lat="47.99581" lon="6.23012">
        <ele>259.20001220703</ele>
        <time>2017-07-19T08:11:08Z</time>
      </trkpt>
      <trkpt lat="47.99603" lon="6.23079">
        <ele>259.20001220703</ele>
        <time>2017-07-19T08:11:16Z</time>
      </trkpt>
      <trkpt lat="47.99615" lon="6.2314">
        <ele>259.20001220703</ele>
        <time>2017-07-19T08:11:23Z</time>
      </trkpt>
      <trkpt lat="47.99617" lon="6.2315">
        <ele>259.20001220703</ele>
        <time>2017-07-19T08:11:24Z</time>
      </trkpt>
      <trkpt lat="47.99622" lon="6.23177">
        <ele>259.39999389648</ele>
        <time>2017-07-19T08:11:27Z</time>
      </trkpt>
      <trkpt lat="47.99626" lon="6.23204">
        <ele>259.60000610352</ele>
        <time>2017-07-19T08:11:30Z</time>
      </trkpt>
      <trkpt lat="47.99633" lon="6.2323">
        <ele>259.60000610352</ele>
        <time>2017-07-19T08:11:33Z</time>
      </trkpt>
      <trkpt lat="47.99636" lon="6.23238">
        <ele>259.39999389648</ele>
        <time>2017-07-19T08:11:34Z</time>
      </trkpt>
      <trkpt lat="47.99651" lon="6.23252">
        <ele>259.39999389648</ele>
        <time>2017-07-19T08:11:37Z</time>
      </trkpt>
      <trkpt lat="47.99668" lon="6.23246">
        <ele>259.39999389648</ele>
        <time>2017-07-19T08:11:40Z</time>
      </trkpt>
      <trkpt lat="47.99677" lon="6.23233">
        <ele>259.39999389648</ele>
        <time>2017-07-19T08:11:42Z</time>
      </trkpt>
      <trkpt lat="47.99687" lon="6.2322">
        <ele>259.60000610352</ele>
        <time>2017-07-19T08:11:44Z</time>
      </trkpt>
      <trkpt lat="47.9972" lon="6.23175">
        <ele>259.79998779297</ele>
        <time>2017-07-19T08:11:51Z</time>
      </trkpt>
      <trkpt lat="47.9974" lon="6.23154">
        <ele>259.79998779297</ele>
        <time>2017-07-19T08:11:55Z</time>
      </trkpt>
      <trkpt lat="47.99751" lon="6.23145">
        <ele>259.79998779297</ele>
        <time>2017-07-19T08:11:57Z</time>
      </trkpt>
      <trkpt lat="47.99767" lon="6.23131">
        <ele>259.79998779297</ele>
        <time>2017-07-19T08:12:00Z</time>
      </trkpt>
      <trkpt lat="47.99779" lon="6.23126">
        <ele>259.79998779297</ele>
        <time>2017-07-19T08:12:02Z</time>
      </trkpt>
      <trkpt lat="47.99804" lon="6.23125">
        <ele>259.79998779297</ele>
        <time>2017-07-19T08:12:06Z</time>
      </trkpt>
      <trkpt lat="47.99816" lon="6.23129">
        <ele>259.79998779297</ele>
        <time>2017-07-19T08:12:08Z</time>
      </trkpt>
      <trkpt lat="47.99822" lon="6.23133">
        <ele>259.79998779297</ele>
        <time>2017-07-19T08:12:09Z</time>
      </trkpt>
      <trkpt lat="47.99834" lon="6.23141">
        <ele>259.79998779297</ele>
        <time>2017-07-19T08:12:11Z</time>
      </trkpt>
      <trkpt lat="47.99839" lon="6.23146">
        <ele>259.79998779297</ele>
        <time>2017-07-19T08:12:12Z</time>
      </trkpt>
      <trkpt lat="47.99859" lon="6.23169">
        <ele>259.79998779297</ele>
        <time>2017-07-19T08:12:16Z</time>
      </trkpt>
      <trkpt lat="47.99886" lon="6.23199">
        <ele>259.79998779297</ele>
        <time>2017-07-19T08:12:22Z</time>
      </trkpt>
      <trkpt lat="47.99892" lon="6.23219">
        <ele>260.20001220703</ele>
        <time>2017-07-19T08:12:26Z</time>
      </trkpt>
      <trkpt lat="47.99891" lon="6.23223">
        <ele>260.39999389648</ele>
        <time>2017-07-19T08:12:27Z</time>
      </trkpt>
      <trkpt lat="47.99889" lon="6.23226">
        <ele>260.60000610352</ele>
        <time>2017-07-19T08:12:28Z</time>
      </trkpt>
      <trkpt lat="47.99887" lon="6.23228">
        <ele>260.79998779297</ele>
        <time>2017-07-19T08:12:29Z</time>
      </trkpt>
      <trkpt lat="47.99882" lon="6.2324">
        <ele>261.60000610352</ele>
        <time>2017-07-19T08:12:32Z</time>
      </trkpt>
      <trkpt lat="47.99883" lon="6.23246">
        <ele>261.60000610352</ele>
        <time>2017-07-19T08:12:33Z</time>
      </trkpt>
      <trkpt lat="47.99893" lon="6.23257">
        <ele>261.79998779297</ele>
        <time>2017-07-19T08:12:36Z</time>
      </trkpt>
      <trkpt lat="47.99897" lon="6.2326">
        <ele>261.79998779297</ele>
        <time>2017-07-19T08:12:37Z</time>
      </trkpt>
      <trkpt lat="47.99902" lon="6.23264">
        <ele>261.60000610352</ele>
        <time>2017-07-19T08:12:38Z</time>
      </trkpt>
      <trkpt lat="47.99914" lon="6.23278">
        <ele>261.39999389648</ele>
        <time>2017-07-19T08:12:41Z</time>
      </trkpt>
      <trkpt lat="47.99949" lon="6.23318">
        <ele>261.39999389648</ele>
        <time>2017-07-19T08:12:49Z</time>
      </trkpt>
      <trkpt lat="47.99977" lon="6.23348">
        <ele>261.20001220703</ele>
        <time>2017-07-19T08:12:55Z</time>
      </trkpt>
      <trkpt lat="47.99991" lon="6.23362">
        <ele>261.20001220703</ele>
        <time>2017-07-19T08:12:58Z</time>
      </trkpt>
      <trkpt lat="48.00006" lon="6.23372">
        <ele>261.20001220703</ele>
        <time>2017-07-19T08:13:01Z</time>
      </trkpt>
      <trkpt lat="48.00043" lon="6.23395">
        <ele>261.39999389648</ele>
        <time>2017-07-19T08:13:08Z</time>
      </trkpt>
      <trkpt lat="48.00049" lon="6.23398">
        <ele>261.39999389648</ele>
        <time>2017-07-19T08:13:09Z</time>
      </trkpt>
      <trkpt lat="48.00073" lon="6.23405">
        <ele>261.39999389648</ele>
        <time>2017-07-19T08:13:13Z</time>
      </trkpt>
      <trkpt lat="48.00085" lon="6.23407">
        <ele>261.39999389648</ele>
        <time>2017-07-19T08:13:15Z</time>
      </trkpt>
      <trkpt lat="48.00109" lon="6.2341">
        <ele>261.39999389648</ele>
        <time>2017-07-19T08:13:19Z</time>
      </trkpt>
      <trkpt lat="48.00146" lon="6.2341">
        <ele>261.39999389648</ele>
        <time>2017-07-19T08:13:25Z</time>
      </trkpt>
      <trkpt lat="48.00175" lon="6.23409">
        <ele>261.39999389648</ele>
        <time>2017-07-19T08:13:30Z</time>
      </trkpt>
      <trkpt lat="48.00205" lon="6.23409">
        <ele>261.39999389648</ele>
        <time>2017-07-19T08:13:36Z</time>
      </trkpt>
      <trkpt lat="48.0021" lon="6.23409">
        <ele>261.39999389648</ele>
        <time>2017-07-19T08:13:37Z</time>
      </trkpt>
      <trkpt lat="48.00233" lon="6.23409">
        <ele>261.39999389648</ele>
        <time>2017-07-19T08:13:41Z</time>
      </trkpt>
      <trkpt lat="48.00275" lon="6.23406">
        <ele>261.39999389648</ele>
        <time>2017-07-19T08:13:48Z</time>
      </trkpt>
      <trkpt lat="48.00327" lon="6.23403">
        <ele>261.79998779297</ele>
        <time>2017-07-19T08:13:57Z</time>
      </trkpt>
      <trkpt lat="48.00375" lon="6.23397">
        <ele>261.79998779297</ele>
        <time>2017-07-19T08:14:05Z</time>
      </trkpt>
      <trkpt lat="48.00403" lon="6.23387">
        <ele>262.39999389648</ele>
        <time>2017-07-19T08:14:11Z</time>
      </trkpt>
      <trkpt lat="48.00407" lon="6.23386">
        <ele>262.79998779297</ele>
        <time>2017-07-19T08:14:12Z</time>
      </trkpt>
      <trkpt lat="48.00424" lon="6.23382">
        <ele>264</ele>
        <time>2017-07-19T08:14:16Z</time>
      </trkpt>
      <trkpt lat="48.00428" lon="6.23382">
        <ele>264</ele>
        <time>2017-07-19T08:14:17Z</time>
      </trkpt>
      <trkpt lat="48.00446" lon="6.23382">
        <ele>264.39999389648</ele>
        <time>2017-07-19T08:14:21Z</time>
      </trkpt>
      <trkpt lat="48.00456" lon="6.23383">
        <ele>264.39999389648</ele>
        <time>2017-07-19T08:14:23Z</time>
      </trkpt>
      <trkpt lat="48.00494" lon="6.23384">
        <ele>264.39999389648</ele>
        <time>2017-07-19T08:14:30Z</time>
      </trkpt>
      <trkpt lat="48.00534" lon="6.23392">
        <ele>264.39999389648</ele>
        <time>2017-07-19T08:14:37Z</time>
      </trkpt>
      <trkpt lat="48.00575" lon="6.23409">
        <ele>264.39999389648</ele>
        <time>2017-07-19T08:14:44Z</time>
      </trkpt>
      <trkpt lat="48.00614" lon="6.23432">
        <ele>264.39999389648</ele>
        <time>2017-07-19T08:14:51Z</time>
      </trkpt>
      <trkpt lat="48.00664" lon="6.23468">
        <ele>264.60000610352</ele>
        <time>2017-07-19T08:15:00Z</time>
      </trkpt>
      <trkpt lat="48.00698" lon="6.23493">
        <ele>264.39999389648</ele>
        <time>2017-07-19T08:15:06Z</time>
      </trkpt>
      <trkpt lat="48.00738" lon="6.23529">
        <ele>264.39999389648</ele>
        <time>2017-07-19T08:15:13Z</time>
      </trkpt>
      <trkpt lat="48.00773" lon="6.23572">
        <ele>264.39999389648</ele>
        <time>2017-07-19T08:15:20Z</time>
      </trkpt>
      <trkpt lat="48.00806" lon="6.23619">
        <ele>264.39999389648</ele>
        <time>2017-07-19T08:15:27Z</time>
      </trkpt>
      <trkpt lat="48.00846" lon="6.23675">
        <ele>264.60000610352</ele>
        <time>2017-07-19T08:15:36Z</time>
      </trkpt>
      <trkpt lat="48.00886" lon="6.23729">
        <ele>264.60000610352</ele>
        <time>2017-07-19T08:15:45Z</time>
      </trkpt>
      <trkpt lat="48.00923" lon="6.23787">
        <ele>264.79998779297</ele>
        <time>2017-07-19T08:15:54Z</time>
      </trkpt>
      <trkpt lat="48.00936" lon="6.23808">
        <ele>264.79998779297</ele>
        <time>2017-07-19T08:15:57Z</time>
      </trkpt>
      <trkpt lat="48.00949" lon="6.23828">
        <ele>264.79998779297</ele>
        <time>2017-07-19T08:16:00Z</time>
      </trkpt>
      <trkpt lat="48.00982" lon="6.2387">
        <ele>264.79998779297</ele>
        <time>2017-07-19T08:16:07Z</time>
      </trkpt>
      <trkpt lat="48.00987" lon="6.23874">
        <ele>264.79998779297</ele>
        <time>2017-07-19T08:16:08Z</time>
      </trkpt>
      <trkpt lat="48.01006" lon="6.23882">
        <ele>264.79998779297</ele>
        <time>2017-07-19T08:16:11Z</time>
      </trkpt>
      <trkpt lat="48.01019" lon="6.23885">
        <ele>264.79998779297</ele>
        <time>2017-07-19T08:16:13Z</time>
      </trkpt>
      <trkpt lat="48.01038" lon="6.23884">
        <ele>264.79998779297</ele>
        <time>2017-07-19T08:16:16Z</time>
      </trkpt>
      <trkpt lat="48.01077" lon="6.23876">
        <ele>265</ele>
        <time>2017-07-19T08:16:22Z</time>
      </trkpt>
      <trkpt lat="48.01089" lon="6.23873">
        <ele>265</ele>
        <time>2017-07-19T08:16:24Z</time>
      </trkpt>
      <trkpt lat="48.01121" lon="6.23869">
        <ele>264.79998779297</ele>
        <time>2017-07-19T08:16:29Z</time>
      </trkpt>
      <trkpt lat="48.01165" lon="6.2386">
        <ele>265</ele>
        <time>2017-07-19T08:16:36Z</time>
      </trkpt>
      <trkpt lat="48.01171" lon="6.2386">
        <ele>265</ele>
        <time>2017-07-19T08:16:37Z</time>
      </trkpt>
      <trkpt lat="48.01195" lon="6.23857">
        <ele>265</ele>
        <time>2017-07-19T08:16:41Z</time>
      </trkpt>
      <trkpt lat="48.01231" lon="6.23858">
        <ele>265.20001220703</ele>
        <time>2017-07-19T08:16:47Z</time>
      </trkpt>
      <trkpt lat="48.01264" lon="6.23866">
        <ele>265.60000610352</ele>
        <time>2017-07-19T08:16:53Z</time>
      </trkpt>
      <trkpt lat="48.01287" lon="6.23873">
        <ele>266</ele>
        <time>2017-07-19T08:16:58Z</time>
      </trkpt>
      <trkpt lat="48.01295" lon="6.23876">
        <ele>266.39999389648</ele>
        <time>2017-07-19T08:17:00Z</time>
      </trkpt>
      <trkpt lat="48.0132" lon="6.23883">
        <ele>267.20001220703</ele>
        <time>2017-07-19T08:17:06Z</time>
      </trkpt>
      <trkpt lat="48.01329" lon="6.23887">
        <ele>267.39999389648</ele>
        <time>2017-07-19T08:17:08Z</time>
      </trkpt>
      <trkpt lat="48.01362" lon="6.23904">
        <ele>267.79998779297</ele>
        <time>2017-07-19T08:17:15Z</time>
      </trkpt>
      <trkpt lat="48.01402" lon="6.2393">
        <ele>268</ele>
        <time>2017-07-19T08:17:23Z</time>
      </trkpt>
      <trkpt lat="48.01427" lon="6.23945">
        <ele>268.20001220703</ele>
        <time>2017-07-19T08:17:28Z</time>
      </trkpt>
      <trkpt lat="48.01448" lon="6.23957">
        <ele>268.20001220703</ele>
        <time>2017-07-19T08:17:32Z</time>
      </trkpt>
      <trkpt lat="48.01486" lon="6.2397">
        <ele>268.20001220703</ele>
        <time>2017-07-19T08:17:39Z</time>
      </trkpt>
      <trkpt lat="48.01524" lon="6.23983">
        <ele>268</ele>
        <time>2017-07-19T08:17:46Z</time>
      </trkpt>
      <trkpt lat="48.01556" lon="6.24002">
        <ele>268</ele>
        <time>2017-07-19T08:17:52Z</time>
      </trkpt>
      <trkpt lat="48.01577" lon="6.2403">
        <ele>268</ele>
        <time>2017-07-19T08:17:57Z</time>
      </trkpt>
      <trkpt lat="48.01605" lon="6.2406">
        <ele>268</ele>
        <time>2017-07-19T08:18:03Z</time>
      </trkpt>
      <trkpt lat="48.01635" lon="6.24089">
        <ele>268.20001220703</ele>
        <time>2017-07-19T08:18:09Z</time>
      </trkpt>
      <trkpt lat="48.0167" lon="6.24125">
        <ele>268.20001220703</ele>
        <time>2017-07-19T08:18:16Z</time>
      </trkpt>
      <trkpt lat="48.01711" lon="6.24165">
        <ele>268.39999389648</ele>
        <time>2017-07-19T08:18:24Z</time>
      </trkpt>
      <trkpt lat="48.01756" lon="6.24208">
        <ele>268.20001220703</ele>
        <time>2017-07-19T08:18:32Z</time>
      </trkpt>
      <trkpt lat="48.01801" lon="6.24253">
        <ele>268.20001220703</ele>
        <time>2017-07-19T08:18:40Z</time>
      </trkpt>
      <trkpt lat="48.01835" lon="6.24284">
        <ele>268.39999389648</ele>
        <time>2017-07-19T08:18:46Z</time>
      </trkpt>
      <trkpt lat="48.01875" lon="6.24304">
        <ele>268.60000610352</ele>
        <time>2017-07-19T08:18:52Z</time>
      </trkpt>
      <trkpt lat="48.01922" lon="6.24315">
        <ele>268.60000610352</ele>
        <time>2017-07-19T08:18:59Z</time>
      </trkpt>
      <trkpt lat="48.01955" lon="6.24319">
        <ele>268.79998779297</ele>
        <time>2017-07-19T08:19:04Z</time>
      </trkpt>
      <trkpt lat="48.01961" lon="6.2432">
        <ele>268.79998779297</ele>
        <time>2017-07-19T08:19:05Z</time>
      </trkpt>
      <trkpt lat="48.02002" lon="6.24323">
        <ele>269.20001220703</ele>
        <time>2017-07-19T08:19:11Z</time>
      </trkpt>
      <trkpt lat="48.02009" lon="6.24323">
        <ele>269.20001220703</ele>
        <time>2017-07-19T08:19:12Z</time>
      </trkpt>
      <trkpt lat="48.02059" lon="6.24336">
        <ele>269.60000610352</ele>
        <time>2017-07-19T08:19:20Z</time>
      </trkpt>
      <trkpt lat="48.02065" lon="6.24339">
        <ele>269.60000610352</ele>
        <time>2017-07-19T08:19:21Z</time>
      </trkpt>
      <trkpt lat="48.02088" lon="6.24357">
        <ele>269.60000610352</ele>
        <time>2017-07-19T08:19:25Z</time>
      </trkpt>
      <trkpt lat="48.02117" lon="6.24397">
        <ele>269.79998779297</ele>
        <time>2017-07-19T08:19:31Z</time>
      </trkpt>
      <trkpt lat="48.02124" lon="6.24413">
        <ele>269.79998779297</ele>
        <time>2017-07-19T08:19:33Z</time>
      </trkpt>
      <trkpt lat="48.0214" lon="6.24453">
        <ele>269.79998779297</ele>
        <time>2017-07-19T08:19:38Z</time>
      </trkpt>
      <trkpt lat="48.02168" lon="6.24528">
        <ele>269.79998779297</ele>
        <time>2017-07-19T08:19:47Z</time>
      </trkpt>
      <trkpt lat="48.02171" lon="6.24535">
        <ele>269.79998779297</ele>
        <time>2017-07-19T08:19:48Z</time>
      </trkpt>
      <trkpt lat="48.02191" lon="6.24584">
        <ele>270</ele>
        <time>2017-07-19T08:19:55Z</time>
      </trkpt>
      <trkpt lat="48.02196" lon="6.24594">
        <ele>270.39999389648</ele>
        <time>2017-07-19T08:19:57Z</time>
      </trkpt>
      <trkpt lat="48.02203" lon="6.2461">
        <ele>271.20001220703</ele>
        <time>2017-07-19T08:20:00Z</time>
      </trkpt>
      <trkpt lat="48.02206" lon="6.24616">
        <ele>271.39999389648</ele>
        <time>2017-07-19T08:20:01Z</time>
      </trkpt>
      <trkpt lat="48.02211" lon="6.24629">
        <ele>271.60000610352</ele>
        <time>2017-07-19T08:20:03Z</time>
      </trkpt>
      <trkpt lat="48.0222" lon="6.24648">
        <ele>272</ele>
        <time>2017-07-19T08:20:06Z</time>
      </trkpt>
      <trkpt lat="48.02233" lon="6.24685">
        <ele>272</ele>
        <time>2017-07-19T08:20:12Z</time>
      </trkpt>
      <trkpt lat="48.02236" lon="6.24691">
        <ele>272</ele>
        <time>2017-07-19T08:20:13Z</time>
      </trkpt>
      <trkpt lat="48.02251" lon="6.24723">
        <ele>272</ele>
        <time>2017-07-19T08:20:18Z</time>
      </trkpt>
      <trkpt lat="48.02273" lon="6.24775">
        <ele>271.79998779297</ele>
        <time>2017-07-19T08:20:25Z</time>
      </trkpt>
      <trkpt lat="48.02276" lon="6.24783">
        <ele>271.79998779297</ele>
        <time>2017-07-19T08:20:26Z</time>
      </trkpt>
      <trkpt lat="48.02297" lon="6.24838">
        <ele>272</ele>
        <time>2017-07-19T08:20:33Z</time>
      </trkpt>
      <trkpt lat="48.02315" lon="6.249">
        <ele>271.79998779297</ele>
        <time>2017-07-19T08:20:40Z</time>
      </trkpt>
      <trkpt lat="48.02325" lon="6.24965">
        <ele>272</ele>
        <time>2017-07-19T08:20:47Z</time>
      </trkpt>
      <trkpt lat="48.02327" lon="6.25034">
        <ele>271.79998779297</ele>
        <time>2017-07-19T08:20:54Z</time>
      </trkpt>
      <trkpt lat="48.02324" lon="6.25053">
        <ele>271.79998779297</ele>
        <time>2017-07-19T08:20:56Z</time>
      </trkpt>
      <trkpt lat="48.02319" lon="6.25071">
        <ele>271.79998779297</ele>
        <time>2017-07-19T08:20:58Z</time>
      </trkpt>
      <trkpt lat="48.0231" lon="6.25097">
        <ele>272</ele>
        <time>2017-07-19T08:21:01Z</time>
      </trkpt>
      <trkpt lat="48.02307" lon="6.25105">
        <ele>272</ele>
        <time>2017-07-19T08:21:02Z</time>
      </trkpt>
      <trkpt lat="48.02304" lon="6.25114">
        <ele>272</ele>
        <time>2017-07-19T08:21:03Z</time>
      </trkpt>
      <trkpt lat="48.02281" lon="6.2516">
        <ele>272</ele>
        <time>2017-07-19T08:21:09Z</time>
      </trkpt>
      <trkpt lat="48.02253" lon="6.25201">
        <ele>272.20001220703</ele>
        <time>2017-07-19T08:21:15Z</time>
      </trkpt>
      <trkpt lat="48.02224" lon="6.2524">
        <ele>272.20001220703</ele>
        <time>2017-07-19T08:21:21Z</time>
      </trkpt>
      <trkpt lat="48.02187" lon="6.25299">
        <ele>272.20001220703</ele>
        <time>2017-07-19T08:21:29Z</time>
      </trkpt>
      <trkpt lat="48.02173" lon="6.25331">
        <ele>272.20001220703</ele>
        <time>2017-07-19T08:21:33Z</time>
      </trkpt>
      <trkpt lat="48.02166" lon="6.25358">
        <ele>272.20001220703</ele>
        <time>2017-07-19T08:21:36Z</time>
      </trkpt>
      <trkpt lat="48.02164" lon="6.25376">
        <ele>272.39999389648</ele>
        <time>2017-07-19T08:21:38Z</time>
      </trkpt>
      <trkpt lat="48.02168" lon="6.25394">
        <ele>272.60000610352</ele>
        <time>2017-07-19T08:21:40Z</time>
      </trkpt>
      <trkpt lat="48.02174" lon="6.2541">
        <ele>272.60000610352</ele>
        <time>2017-07-19T08:21:42Z</time>
      </trkpt>
      <trkpt lat="48.02181" lon="6.25426">
        <ele>272.60000610352</ele>
        <time>2017-07-19T08:21:44Z</time>
      </trkpt>
      <trkpt lat="48.02204" lon="6.25473">
        <ele>272.60000610352</ele>
        <time>2017-07-19T08:21:50Z</time>
      </trkpt>
      <trkpt lat="48.02231" lon="6.25527">
        <ele>272.60000610352</ele>
        <time>2017-07-19T08:21:57Z</time>
      </trkpt>
      <trkpt lat="48.02242" lon="6.25551">
        <ele>272.39999389648</ele>
        <time>2017-07-19T08:22:00Z</time>
      </trkpt>
      <trkpt lat="48.02249" lon="6.25566">
        <ele>272.39999389648</ele>
        <time>2017-07-19T08:22:02Z</time>
      </trkpt>
      <trkpt lat="48.02277" lon="6.25628">
        <ele>272.60000610352</ele>
        <time>2017-07-19T08:22:10Z</time>
      </trkpt>
      <trkpt lat="48.02301" lon="6.25682">
        <ele>272.60000610352</ele>
        <time>2017-07-19T08:22:17Z</time>
      </trkpt>
      <trkpt lat="48.02305" lon="6.2569">
        <ele>272.60000610352</ele>
        <time>2017-07-19T08:22:18Z</time>
      </trkpt>
      <trkpt lat="48.02337" lon="6.25756">
        <ele>272.79998779297</ele>
        <time>2017-07-19T08:22:27Z</time>
      </trkpt>
      <trkpt lat="48.02364" lon="6.25816">
        <ele>272.79998779297</ele>
        <time>2017-07-19T08:22:35Z</time>
      </trkpt>
      <trkpt lat="48.02395" lon="6.25882">
        <ele>273.20001220703</ele>
        <time>2017-07-19T08:22:44Z</time>
      </trkpt>
      <trkpt lat="48.02404" lon="6.25901">
        <ele>273.39999389648</ele>
        <time>2017-07-19T08:22:47Z</time>
      </trkpt>
      <trkpt lat="48.02411" lon="6.25917">
        <ele>273.79998779297</ele>
        <time>2017-07-19T08:22:50Z</time>
      </trkpt>
      <trkpt lat="48.0242" lon="6.25933">
        <ele>274.60000610352</ele>
        <time>2017-07-19T08:22:53Z</time>
      </trkpt>
      <trkpt lat="48.02423" lon="6.25939">
        <ele>274.79998779297</ele>
        <time>2017-07-19T08:22:54Z</time>
      </trkpt>
      <trkpt lat="48.02425" lon="6.25944">
        <ele>275</ele>
        <time>2017-07-19T08:22:55Z</time>
      </trkpt>
      <trkpt lat="48.02445" lon="6.25986">
        <ele>275.39999389648</ele>
        <time>2017-07-19T08:23:02Z</time>
      </trkpt>
      <trkpt lat="48.0247" lon="6.26042">
        <ele>275.60000610352</ele>
        <time>2017-07-19T08:23:10Z</time>
      </trkpt>
      <trkpt lat="48.02489" lon="6.26082">
        <ele>275.60000610352</ele>
        <time>2017-07-19T08:23:16Z</time>
      </trkpt>
      <trkpt lat="48.02492" lon="6.26089">
        <ele>275.79998779297</ele>
        <time>2017-07-19T08:23:17Z</time>
      </trkpt>
      <trkpt lat="48.0252" lon="6.26146">
        <ele>276</ele>
        <time>2017-07-19T08:23:25Z</time>
      </trkpt>
      <trkpt lat="48.02541" lon="6.26179">
        <ele>276</ele>
        <time>2017-07-19T08:23:30Z</time>
      </trkpt>
      <trkpt lat="48.02546" lon="6.26182">
        <ele>276</ele>
        <time>2017-07-19T08:23:31Z</time>
      </trkpt>
      <trkpt lat="48.02572" lon="6.26185">
        <ele>276</ele>
        <time>2017-07-19T08:23:35Z</time>
      </trkpt>
      <trkpt lat="48.02578" lon="6.26185">
        <ele>276</ele>
        <time>2017-07-19T08:23:36Z</time>
      </trkpt>
      <trkpt lat="48.02585" lon="6.26184">
        <ele>275.79998779297</ele>
        <time>2017-07-19T08:23:37Z</time>
      </trkpt>
      <trkpt lat="48.02597" lon="6.2618">
        <ele>275.79998779297</ele>
        <time>2017-07-19T08:23:39Z</time>
      </trkpt>
      <trkpt lat="48.02602" lon="6.26177">
        <ele>275.79998779297</ele>
        <time>2017-07-19T08:23:40Z</time>
      </trkpt>
      <trkpt lat="48.02613" lon="6.26172">
        <ele>275.79998779297</ele>
        <time>2017-07-19T08:23:42Z</time>
      </trkpt>
      <trkpt lat="48.0263" lon="6.26164">
        <ele>275.79998779297</ele>
        <time>2017-07-19T08:23:45Z</time>
      </trkpt>
      <trkpt lat="48.02673" lon="6.26148">
        <ele>276</ele>
        <time>2017-07-19T08:23:52Z</time>
      </trkpt>
      <trkpt lat="48.02723" lon="6.26128">
        <ele>276.20001220703</ele>
        <time>2017-07-19T08:24:00Z</time>
      </trkpt>
      <trkpt lat="48.02773" lon="6.26109">
        <ele>276.20001220703</ele>
        <time>2017-07-19T08:24:08Z</time>
      </trkpt>
      <trkpt lat="48.02816" lon="6.26098">
        <ele>276.20001220703</ele>
        <time>2017-07-19T08:24:15Z</time>
      </trkpt>
      <trkpt lat="48.0286" lon="6.26092">
        <ele>276.39999389648</ele>
        <time>2017-07-19T08:24:22Z</time>
      </trkpt>
      <trkpt lat="48.02887" lon="6.26094">
        <ele>276.60000610352</ele>
        <time>2017-07-19T08:24:27Z</time>
      </trkpt>
      <trkpt lat="48.02893" lon="6.26096">
        <ele>276.60000610352</ele>
        <time>2017-07-19T08:24:28Z</time>
      </trkpt>
      <trkpt lat="48.02899" lon="6.26097">
        <ele>276.79998779297</ele>
        <time>2017-07-19T08:24:29Z</time>
      </trkpt>
      <trkpt lat="48.02924" lon="6.26104">
        <ele>276.79998779297</ele>
        <time>2017-07-19T08:24:33Z</time>
      </trkpt>
      <trkpt lat="48.02963" lon="6.26121">
        <ele>277.20001220703</ele>
        <time>2017-07-19T08:24:40Z</time>
      </trkpt>
      <trkpt lat="48.03005" lon="6.26149">
        <ele>277.20001220703</ele>
        <time>2017-07-19T08:24:48Z</time>
      </trkpt>
      <trkpt lat="48.03041" lon="6.26181">
        <ele>277.39999389648</ele>
        <time>2017-07-19T08:24:55Z</time>
      </trkpt>
      <trkpt lat="48.03082" lon="6.26218">
        <ele>277.39999389648</ele>
        <time>2017-07-19T08:25:03Z</time>
      </trkpt>
      <trkpt lat="48.03109" lon="6.2624">
        <ele>277.39999389648</ele>
        <time>2017-07-19T08:25:09Z</time>
      </trkpt>
      <trkpt lat="48.03116" lon="6.26245">
        <ele>277.79998779297</ele>
        <time>2017-07-19T08:25:11Z</time>
      </trkpt>
      <trkpt lat="48.03131" lon="6.26254">
        <ele>278.79998779297</ele>
        <time>2017-07-19T08:25:15Z</time>
      </trkpt>
      <trkpt lat="48.03161" lon="6.26281">
        <ele>279.20001220703</ele>
        <time>2017-07-19T08:25:22Z</time>
      </trkpt>
      <trkpt lat="48.03195" lon="6.26311">
        <ele>279.60000610352</ele>
        <time>2017-07-19T08:25:29Z</time>
      </trkpt>
      <trkpt lat="48.03231" lon="6.26344">
        <ele>279.60000610352</ele>
        <time>2017-07-19T08:25:36Z</time>
      </trkpt>
      <trkpt lat="48.03276" lon="6.26382">
        <ele>279.60000610352</ele>
        <time>2017-07-19T08:25:44Z</time>
      </trkpt>
      <trkpt lat="48.03313" lon="6.26417">
        <ele>279.79998779297</ele>
        <time>2017-07-19T08:25:51Z</time>
      </trkpt>
      <trkpt lat="48.03335" lon="6.26436">
        <ele>279.79998779297</ele>
        <time>2017-07-19T08:25:55Z</time>
      </trkpt>
      <trkpt lat="48.03363" lon="6.26461">
        <ele>279.79998779297</ele>
        <time>2017-07-19T08:26:00Z</time>
      </trkpt>
      <trkpt lat="48.03402" lon="6.26496">
        <ele>279.79998779297</ele>
        <time>2017-07-19T08:26:07Z</time>
      </trkpt>
      <trkpt lat="48.0344" lon="6.26531">
        <ele>279.60000610352</ele>
        <time>2017-07-19T08:26:14Z</time>
      </trkpt>
      <trkpt lat="48.0348" lon="6.26566">
        <ele>279.79998779297</ele>
        <time>2017-07-19T08:26:21Z</time>
      </trkpt>
      <trkpt lat="48.03521" lon="6.26594">
        <ele>279.79998779297</ele>
        <time>2017-07-19T08:26:28Z</time>
      </trkpt>
      <trkpt lat="48.03547" lon="6.26601">
        <ele>280</ele>
        <time>2017-07-19T08:26:32Z</time>
      </trkpt>
      <trkpt lat="48.03553" lon="6.266">
        <ele>280.20001220703</ele>
        <time>2017-07-19T08:26:33Z</time>
      </trkpt>
      <trkpt lat="48.03571" lon="6.26589">
        <ele>280</ele>
        <time>2017-07-19T08:26:36Z</time>
      </trkpt>
      <trkpt lat="48.03587" lon="6.26558">
        <ele>279.79998779297</ele>
        <time>2017-07-19T08:26:40Z</time>
      </trkpt>
      <trkpt lat="48.03591" lon="6.2655">
        <ele>279.79998779297</ele>
        <time>2017-07-19T08:26:41Z</time>
      </trkpt>
      <trkpt lat="48.03614" lon="6.26503">
        <ele>279.79998779297</ele>
        <time>2017-07-19T08:26:47Z</time>
      </trkpt>
      <trkpt lat="48.0364" lon="6.26456">
        <ele>279.79998779297</ele>
        <time>2017-07-19T08:26:53Z</time>
      </trkpt>
      <trkpt lat="48.03677" lon="6.2639">
        <ele>279.60000610352</ele>
        <time>2017-07-19T08:27:02Z</time>
      </trkpt>
      <trkpt lat="48.03703" lon="6.26346">
        <ele>279.79998779297</ele>
        <time>2017-07-19T08:27:08Z</time>
      </trkpt>
      <trkpt lat="48.03742" lon="6.26277">
        <ele>280</ele>
        <time>2017-07-19T08:27:17Z</time>
      </trkpt>
      <trkpt lat="48.0375" lon="6.26262">
        <ele>280</ele>
        <time>2017-07-19T08:27:19Z</time>
      </trkpt>
      <trkpt lat="48.03779" lon="6.26211">
        <ele>280.39999389648</ele>
        <time>2017-07-19T08:27:26Z</time>
      </trkpt>
      <trkpt lat="48.0379" lon="6.2619">
        <ele>281</ele>
        <time>2017-07-19T08:27:30Z</time>
      </trkpt>
      <trkpt lat="48.03792" lon="6.26185">
        <ele>281.39999389648</ele>
        <time>2017-07-19T08:27:31Z</time>
      </trkpt>
      <trkpt lat="48.03795" lon="6.26175">
        <ele>282</ele>
        <time>2017-07-19T08:27:33Z</time>
      </trkpt>
      <trkpt lat="48.03802" lon="6.26159">
        <ele>282.79998779297</ele>
        <time>2017-07-19T08:27:37Z</time>
      </trkpt>
      <trkpt lat="48.03812" lon="6.26147">
        <ele>282.79998779297</ele>
        <time>2017-07-19T08:27:40Z</time>
      </trkpt>
      <trkpt lat="48.03815" lon="6.26141">
        <ele>282.79998779297</ele>
        <time>2017-07-19T08:27:41Z</time>
      </trkpt>
      <trkpt lat="48.03835" lon="6.26106">
        <ele>283</ele>
        <time>2017-07-19T08:27:47Z</time>
      </trkpt>
      <trkpt lat="48.03861" lon="6.26061">
        <ele>283.39999389648</ele>
        <time>2017-07-19T08:27:54Z</time>
      </trkpt>
      <trkpt lat="48.03888" lon="6.26011">
        <ele>283.60000610352</ele>
        <time>2017-07-19T08:28:02Z</time>
      </trkpt>
      <trkpt lat="48.03914" lon="6.25966">
        <ele>283.60000610352</ele>
        <time>2017-07-19T08:28:09Z</time>
      </trkpt>
      <trkpt lat="48.0394" lon="6.25919">
        <ele>283.60000610352</ele>
        <time>2017-07-19T08:28:16Z</time>
      </trkpt>
      <trkpt lat="48.03972" lon="6.25864">
        <ele>283.60000610352</ele>
        <time>2017-07-19T08:28:24Z</time>
      </trkpt>
      <trkpt lat="48.04002" lon="6.25829">
        <ele>283.60000610352</ele>
        <time>2017-07-19T08:28:30Z</time>
      </trkpt>
      <trkpt lat="48.04037" lon="6.25809">
        <ele>283.79998779297</ele>
        <time>2017-07-19T08:28:36Z</time>
      </trkpt>
      <trkpt lat="48.04069" lon="6.25805">
        <ele>283.79998779297</ele>
        <time>2017-07-19T08:28:41Z</time>
      </trkpt>
      <trkpt lat="48.04107" lon="6.25812">
        <ele>283.79998779297</ele>
        <time>2017-07-19T08:28:47Z</time>
      </trkpt>
      <trkpt lat="48.04157" lon="6.25826">
        <ele>283.79998779297</ele>
        <time>2017-07-19T08:28:55Z</time>
      </trkpt>
      <trkpt lat="48.04198" lon="6.25855">
        <ele>283.60000610352</ele>
        <time>2017-07-19T08:29:02Z</time>
      </trkpt>
      <trkpt lat="48.04239" lon="6.259">
        <ele>283.60000610352</ele>
        <time>2017-07-19T08:29:10Z</time>
      </trkpt>
      <trkpt lat="48.04283" lon="6.2595">
        <ele>283.60000610352</ele>
        <time>2017-07-19T08:29:19Z</time>
      </trkpt>
      <trkpt lat="48.0432" lon="6.25988">
        <ele>283.39999389648</ele>
        <time>2017-07-19T08:29:26Z</time>
      </trkpt>
      <trkpt lat="48.04347" lon="6.2602">
        <ele>283</ele>
        <time>2017-07-19T08:29:32Z</time>
      </trkpt>
      <trkpt lat="48.04375" lon="6.26055">
        <ele>283</ele>
        <time>2017-07-19T08:29:38Z</time>
      </trkpt>
      <trkpt lat="48.04378" lon="6.26062">
        <ele>283</ele>
        <time>2017-07-19T08:29:39Z</time>
      </trkpt>
      <trkpt lat="48.04393" lon="6.26093">
        <ele>282.79998779297</ele>
        <time>2017-07-19T08:29:43Z</time>
      </trkpt>
      <trkpt lat="48.04411" lon="6.26144">
        <ele>283</ele>
        <time>2017-07-19T08:29:49Z</time>
      </trkpt>
      <trkpt lat="48.04413" lon="6.26154">
        <ele>283</ele>
        <time>2017-07-19T08:29:50Z</time>
      </trkpt>
      <trkpt lat="48.04415" lon="6.26172">
        <ele>283</ele>
        <time>2017-07-19T08:29:52Z</time>
      </trkpt>
      <trkpt lat="48.04418" lon="6.26207">
        <ele>283</ele>
        <time>2017-07-19T08:29:56Z</time>
      </trkpt>
      <trkpt lat="48.04426" lon="6.26257">
        <ele>283</ele>
        <time>2017-07-19T08:30:02Z</time>
      </trkpt>
      <trkpt lat="48.04432" lon="6.263">
        <ele>283</ele>
        <time>2017-07-19T08:30:07Z</time>
      </trkpt>
      <trkpt lat="48.04435" lon="6.26317">
        <ele>283</ele>
        <time>2017-07-19T08:30:09Z</time>
      </trkpt>
      <trkpt lat="48.04446" lon="6.26386">
        <ele>283.20001220703</ele>
        <time>2017-07-19T08:30:17Z</time>
      </trkpt>
      <trkpt lat="48.04452" lon="6.26445">
        <ele>283.39999389648</ele>
        <time>2017-07-19T08:30:24Z</time>
      </trkpt>
      <trkpt lat="48.04454" lon="6.26458">
        <ele>283.60000610352</ele>
        <time>2017-07-19T08:30:26Z</time>
      </trkpt>
      <trkpt lat="48.04456" lon="6.26468">
        <ele>283.79998779297</ele>
        <time>2017-07-19T08:30:28Z</time>
      </trkpt>
      <trkpt lat="48.04456" lon="6.26472">
        <ele>284</ele>
        <time>2017-07-19T08:30:29Z</time>
      </trkpt>
      <trkpt lat="48.04459" lon="6.26486">
        <ele>285.20001220703</ele>
        <time>2017-07-19T08:30:32Z</time>
      </trkpt>
      <trkpt lat="48.0446" lon="6.26492">
        <ele>285.39999389648</ele>
        <time>2017-07-19T08:30:33Z</time>
      </trkpt>
      <trkpt lat="48.04461" lon="6.26498">
        <ele>285.60000610352</ele>
        <time>2017-07-19T08:30:34Z</time>
      </trkpt>
      <trkpt lat="48.04467" lon="6.26526">
        <ele>285.79998779297</ele>
        <time>2017-07-19T08:30:38Z</time>
      </trkpt>
      <trkpt lat="48.04467" lon="6.26533">
        <ele>285.79998779297</ele>
        <time>2017-07-19T08:30:39Z</time>
      </trkpt>
      <trkpt lat="48.04469" lon="6.26549">
        <ele>285.60000610352</ele>
        <time>2017-07-19T08:30:41Z</time>
      </trkpt>
      <trkpt lat="48.0447" lon="6.26557">
        <ele>285.60000610352</ele>
        <time>2017-07-19T08:30:42Z</time>
      </trkpt>
      <trkpt lat="48.04477" lon="6.26608">
        <ele>285.60000610352</ele>
        <time>2017-07-19T08:30:48Z</time>
      </trkpt>
      <trkpt lat="48.04491" lon="6.26677">
        <ele>285.79998779297</ele>
        <time>2017-07-19T08:30:56Z</time>
      </trkpt>
      <trkpt lat="48.04513" lon="6.26743">
        <ele>286</ele>
        <time>2017-07-19T08:31:04Z</time>
      </trkpt>
      <trkpt lat="48.0452" lon="6.26759">
        <ele>286.20001220703</ele>
        <time>2017-07-19T08:31:06Z</time>
      </trkpt>
      <trkpt lat="48.04544" lon="6.26804">
        <ele>286.20001220703</ele>
        <time>2017-07-19T08:31:12Z</time>
      </trkpt>
      <trkpt lat="48.04584" lon="6.26872">
        <ele>286.20001220703</ele>
        <time>2017-07-19T08:31:21Z</time>
      </trkpt>
      <trkpt lat="48.0462" lon="6.2693">
        <ele>286.20001220703</ele>
        <time>2017-07-19T08:31:29Z</time>
      </trkpt>
      <trkpt lat="48.04654" lon="6.26989">
        <ele>286.20001220703</ele>
        <time>2017-07-19T08:31:37Z</time>
      </trkpt>
      <trkpt lat="48.04681" lon="6.27043">
        <ele>286.39999389648</ele>
        <time>2017-07-19T08:31:44Z</time>
      </trkpt>
      <trkpt lat="48.04711" lon="6.27109">
        <ele>286.39999389648</ele>
        <time>2017-07-19T08:31:52Z</time>
      </trkpt>
      <trkpt lat="48.04742" lon="6.27175">
        <ele>286.79998779297</ele>
        <time>2017-07-19T08:32:00Z</time>
      </trkpt>
      <trkpt lat="48.04775" lon="6.27246">
        <ele>286.79998779297</ele>
        <time>2017-07-19T08:32:09Z</time>
      </trkpt>
      <trkpt lat="48.04778" lon="6.27254">
        <ele>286.79998779297</ele>
        <time>2017-07-19T08:32:10Z</time>
      </trkpt>
      <trkpt lat="48.0481" lon="6.27326">
        <ele>286.79998779297</ele>
        <time>2017-07-19T08:32:19Z</time>
      </trkpt>
      <trkpt lat="48.04814" lon="6.27334">
        <ele>286.79998779297</ele>
        <time>2017-07-19T08:32:20Z</time>
      </trkpt>
      <trkpt lat="48.04842" lon="6.2739">
        <ele>287</ele>
        <time>2017-07-19T08:32:28Z</time>
      </trkpt>
      <trkpt lat="48.04862" lon="6.27412">
        <ele>287.20001220703</ele>
        <time>2017-07-19T08:32:32Z</time>
      </trkpt>
      <trkpt lat="48.04874" lon="6.27419">
        <ele>287.20001220703</ele>
        <time>2017-07-19T08:32:34Z</time>
      </trkpt>
      <trkpt lat="48.049" lon="6.27428">
        <ele>287.20001220703</ele>
        <time>2017-07-19T08:32:38Z</time>
      </trkpt>
      <trkpt lat="48.04906" lon="6.27429">
        <ele>287.20001220703</ele>
        <time>2017-07-19T08:32:39Z</time>
      </trkpt>
      <trkpt lat="48.04927" lon="6.27427">
        <ele>287</ele>
        <time>2017-07-19T08:32:42Z</time>
      </trkpt>
      <trkpt lat="48.04939" lon="6.27424">
        <ele>287.20001220703</ele>
        <time>2017-07-19T08:32:44Z</time>
      </trkpt>
      <trkpt lat="48.04951" lon="6.27418">
        <ele>287.20001220703</ele>
        <time>2017-07-19T08:32:46Z</time>
      </trkpt>
      <trkpt lat="48.04992" lon="6.27399">
        <ele>287.39999389648</ele>
        <time>2017-07-19T08:32:53Z</time>
      </trkpt>
      <trkpt lat="48.05028" lon="6.27383">
        <ele>287.39999389648</ele>
        <time>2017-07-19T08:33:00Z</time>
      </trkpt>
      <trkpt lat="48.05047" lon="6.27373">
        <ele>287.39999389648</ele>
        <time>2017-07-19T08:33:06Z</time>
      </trkpt>
      <trkpt lat="48.05051" lon="6.27372">
        <ele>287.20001220703</ele>
        <time>2017-07-19T08:33:24Z</time>
      </trkpt>
      <trkpt lat="48.05056" lon="6.27371">
        <ele>287.20001220703</ele>
        <time>2017-07-19T08:33:27Z</time>
      </trkpt>
      <trkpt lat="48.05068" lon="6.27366">
        <ele>287.20001220703</ele>
        <time>2017-07-19T08:33:32Z</time>
      </trkpt>
      <trkpt lat="48.05088" lon="6.2736">
        <ele>287</ele>
        <time>2017-07-19T08:33:38Z</time>
      </trkpt>
      <trkpt lat="48.05111" lon="6.27353">
        <ele>287.20001220703</ele>
        <time>2017-07-19T08:33:43Z</time>
      </trkpt>
      <trkpt lat="48.05148" lon="6.27344">
        <ele>287.60000610352</ele>
        <time>2017-07-19T08:33:50Z</time>
      </trkpt>
      <trkpt lat="48.05153" lon="6.27344">
        <ele>287.60000610352</ele>
        <time>2017-07-19T08:33:51Z</time>
      </trkpt>
      <trkpt lat="48.05201" lon="6.27346">
        <ele>287.79998779297</ele>
        <time>2017-07-19T08:34:00Z</time>
      </trkpt>
      <trkpt lat="48.05235" lon="6.27347">
        <ele>288</ele>
        <time>2017-07-19T08:34:07Z</time>
      </trkpt>
      <trkpt lat="48.05242" lon="6.27346">
        <ele>288.20001220703</ele>
        <time>2017-07-19T08:34:09Z</time>
      </trkpt>
      <trkpt lat="48.05263" lon="6.27347">
        <ele>288.60000610352</ele>
        <time>2017-07-19T08:34:15Z</time>
      </trkpt>
      <trkpt lat="48.05276" lon="6.27349">
        <ele>288.79998779297</ele>
        <time>2017-07-19T08:34:18Z</time>
      </trkpt>
      <trkpt lat="48.0529" lon="6.2735">
        <ele>288.79998779297</ele>
        <time>2017-07-19T08:34:21Z</time>
      </trkpt>
      <trkpt lat="48.05295" lon="6.27351">
        <ele>289</ele>
        <time>2017-07-19T08:34:22Z</time>
      </trkpt>
      <trkpt lat="48.05322" lon="6.27354">
        <ele>289.20001220703</ele>
        <time>2017-07-19T08:34:27Z</time>
      </trkpt>
      <trkpt lat="48.05345" lon="6.27358">
        <ele>289.20001220703</ele>
        <time>2017-07-19T08:34:31Z</time>
      </trkpt>
      <trkpt lat="48.05351" lon="6.27359">
        <ele>289.39999389648</ele>
        <time>2017-07-19T08:34:32Z</time>
      </trkpt>
      <trkpt lat="48.05362" lon="6.27361">
        <ele>289.60000610352</ele>
        <time>2017-07-19T08:34:34Z</time>
      </trkpt>
      <trkpt lat="48.05419" lon="6.27375">
        <ele>289.20001220703</ele>
        <time>2017-07-19T08:34:44Z</time>
      </trkpt>
      <trkpt lat="48.05425" lon="6.27376">
        <ele>289</ele>
        <time>2017-07-19T08:34:45Z</time>
      </trkpt>
      <trkpt lat="48.05456" lon="6.27383">
        <ele>288.39999389648</ele>
        <time>2017-07-19T08:34:51Z</time>
      </trkpt>
      <trkpt lat="48.05497" lon="6.27393">
        <ele>288.20001220703</ele>
        <time>2017-07-19T08:34:58Z</time>
      </trkpt>
      <trkpt lat="48.05526" lon="6.27399">
        <ele>288.79998779297</ele>
        <time>2017-07-19T08:35:03Z</time>
      </trkpt>
      <trkpt lat="48.05566" lon="6.27407">
        <ele>289.39999389648</ele>
        <time>2017-07-19T08:35:10Z</time>
      </trkpt>
      <trkpt lat="48.05578" lon="6.2741">
        <ele>289.39999389648</ele>
        <time>2017-07-19T08:35:12Z</time>
      </trkpt>
      <trkpt lat="48.05602" lon="6.27416">
        <ele>289.39999389648</ele>
        <time>2017-07-19T08:35:16Z</time>
      </trkpt>
      <trkpt lat="48.05651" lon="6.27428">
        <ele>289.20001220703</ele>
        <time>2017-07-19T08:35:24Z</time>
      </trkpt>
      <trkpt lat="48.05688" lon="6.27436">
        <ele>290.20001220703</ele>
        <time>2017-07-19T08:35:30Z</time>
      </trkpt>
      <trkpt lat="48.05699" lon="6.27438">
        <ele>290.20001220703</ele>
        <time>2017-07-19T08:35:32Z</time>
      </trkpt>
      <trkpt lat="48.05729" lon="6.27445">
        <ele>290</ele>
        <time>2017-07-19T08:35:37Z</time>
      </trkpt>
      <trkpt lat="48.05763" lon="6.27454">
        <ele>290</ele>
        <time>2017-07-19T08:35:43Z</time>
      </trkpt>
      <trkpt lat="48.0581" lon="6.27466">
        <ele>289.79998779297</ele>
        <time>2017-07-19T08:35:51Z</time>
      </trkpt>
      <trkpt lat="48.05859" lon="6.27476">
        <ele>290</ele>
        <time>2017-07-19T08:35:59Z</time>
      </trkpt>
      <trkpt lat="48.05902" lon="6.27487">
        <ele>290.20001220703</ele>
        <time>2017-07-19T08:36:06Z</time>
      </trkpt>
      <trkpt lat="48.05941" lon="6.27496">
        <ele>289.79998779297</ele>
        <time>2017-07-19T08:36:13Z</time>
      </trkpt>
      <trkpt lat="48.05972" lon="6.27501">
        <ele>290.79998779297</ele>
        <time>2017-07-19T08:36:19Z</time>
      </trkpt>
      <trkpt lat="48.0602" lon="6.2751">
        <ele>291.20001220703</ele>
        <time>2017-07-19T08:36:27Z</time>
      </trkpt>
      <trkpt lat="48.06032" lon="6.27513">
        <ele>291.39999389648</ele>
        <time>2017-07-19T08:36:29Z</time>
      </trkpt>
      <trkpt lat="48.06065" lon="6.27519">
        <ele>291.60000610352</ele>
        <time>2017-07-19T08:36:34Z</time>
      </trkpt>
      <trkpt lat="48.0612" lon="6.27516">
        <ele>291.39999389648</ele>
        <time>2017-07-19T08:36:42Z</time>
      </trkpt>
      <trkpt lat="48.06176" lon="6.27509">
        <ele>291.79998779297</ele>
        <time>2017-07-19T08:36:50Z</time>
      </trkpt>
      <trkpt lat="48.06233" lon="6.27502">
        <ele>292.20001220703</ele>
        <time>2017-07-19T08:36:58Z</time>
      </trkpt>
      <trkpt lat="48.0624" lon="6.27501">
        <ele>292.20001220703</ele>
        <time>2017-07-19T08:36:59Z</time>
      </trkpt>
      <trkpt lat="48.06282" lon="6.27495">
        <ele>292.39999389648</ele>
        <time>2017-07-19T08:37:05Z</time>
      </trkpt>
      <trkpt lat="48.06303" lon="6.27493">
        <ele>292.39999389648</ele>
        <time>2017-07-19T08:37:08Z</time>
      </trkpt>
      <trkpt lat="48.06343" lon="6.27489">
        <ele>292.20001220703</ele>
        <time>2017-07-19T08:37:14Z</time>
      </trkpt>
      <trkpt lat="48.06384" lon="6.27491">
        <ele>292.20001220703</ele>
        <time>2017-07-19T08:37:20Z</time>
      </trkpt>
      <trkpt lat="48.06431" lon="6.27502">
        <ele>292</ele>
        <time>2017-07-19T08:37:27Z</time>
      </trkpt>
      <trkpt lat="48.06474" lon="6.27523">
        <ele>291.79998779297</ele>
        <time>2017-07-19T08:37:34Z</time>
      </trkpt>
      <trkpt lat="48.06498" lon="6.27541">
        <ele>292.20001220703</ele>
        <time>2017-07-19T08:37:39Z</time>
      </trkpt>
      <trkpt lat="48.06501" lon="6.27544">
        <ele>292.20001220703</ele>
        <time>2017-07-19T08:37:42Z</time>
      </trkpt>
      <trkpt lat="48.06504" lon="6.27546">
        <ele>292.20001220703</ele>
        <time>2017-07-19T08:37:53Z</time>
      </trkpt>
      <trkpt lat="48.06505" lon="6.27548">
        <ele>292.20001220703</ele>
        <time>2017-07-19T08:37:54Z</time>
      </trkpt>
      <trkpt lat="48.06508" lon="6.2755">
        <ele>293</ele>
        <time>2017-07-19T08:38:23Z</time>
      </trkpt>
      <trkpt lat="48.06509" lon="6.27551">
        <ele>293</ele>
        <time>2017-07-19T08:38:24Z</time>
      </trkpt>
      <trkpt lat="48.06517" lon="6.27562">
        <ele>293</ele>
        <time>2017-07-19T08:38:28Z</time>
      </trkpt>
      <trkpt lat="48.06528" lon="6.27585">
        <ele>293</ele>
        <time>2017-07-19T08:38:33Z</time>
      </trkpt>
      <trkpt lat="48.06544" lon="6.27621">
        <ele>293</ele>
        <time>2017-07-19T08:38:39Z</time>
      </trkpt>
      <trkpt lat="48.06553" lon="6.27647">
        <ele>293</ele>
        <time>2017-07-19T08:38:43Z</time>
      </trkpt>
      <trkpt lat="48.06562" lon="6.27669">
        <ele>293.20001220703</ele>
        <time>2017-07-19T08:38:47Z</time>
      </trkpt>
      <trkpt lat="48.06566" lon="6.27678">
        <ele>293.39999389648</ele>
        <time>2017-07-19T08:38:49Z</time>
      </trkpt>
      <trkpt lat="48.06569" lon="6.27689">
        <ele>293.79998779297</ele>
        <time>2017-07-19T08:38:52Z</time>
      </trkpt>
      <trkpt lat="48.06579" lon="6.27704">
        <ele>294.39999389648</ele>
        <time>2017-07-19T08:38:56Z</time>
      </trkpt>
      <trkpt lat="48.06582" lon="6.27709">
        <ele>294.39999389648</ele>
        <time>2017-07-19T08:38:57Z</time>
      </trkpt>
      <trkpt lat="48.06589" lon="6.27729">
        <ele>294.39999389648</ele>
        <time>2017-07-19T08:39:00Z</time>
      </trkpt>
      <trkpt lat="48.06602" lon="6.27772">
        <ele>294.60000610352</ele>
        <time>2017-07-19T08:39:06Z</time>
      </trkpt>
      <trkpt lat="48.0661" lon="6.27793">
        <ele>294.79998779297</ele>
        <time>2017-07-19T08:39:09Z</time>
      </trkpt>
      <trkpt lat="48.06634" lon="6.27861">
        <ele>294.79998779297</ele>
        <time>2017-07-19T08:39:18Z</time>
      </trkpt>
      <trkpt lat="48.06654" lon="6.27916">
        <ele>294.79998779297</ele>
        <time>2017-07-19T08:39:25Z</time>
      </trkpt>
      <trkpt lat="48.06681" lon="6.27992">
        <ele>295.20001220703</ele>
        <time>2017-07-19T08:39:34Z</time>
      </trkpt>
      <trkpt lat="48.06704" lon="6.28049">
        <ele>295.20001220703</ele>
        <time>2017-07-19T08:39:41Z</time>
      </trkpt>
      <trkpt lat="48.06736" lon="6.28108">
        <ele>295.39999389648</ele>
        <time>2017-07-19T08:39:49Z</time>
      </trkpt>
      <trkpt lat="48.06762" lon="6.28147">
        <ele>295.39999389648</ele>
        <time>2017-07-19T08:39:55Z</time>
      </trkpt>
      <trkpt lat="48.06772" lon="6.28159">
        <ele>295.39999389648</ele>
        <time>2017-07-19T08:39:57Z</time>
      </trkpt>
      <trkpt lat="48.06792" lon="6.28181">
        <ele>295.39999389648</ele>
        <time>2017-07-19T08:40:01Z</time>
      </trkpt>
      <trkpt lat="48.06832" lon="6.28218">
        <ele>295</ele>
        <time>2017-07-19T08:40:08Z</time>
      </trkpt>
      <trkpt lat="48.06881" lon="6.28257">
        <ele>295</ele>
        <time>2017-07-19T08:40:16Z</time>
      </trkpt>
      <trkpt lat="48.06899" lon="6.28271">
        <ele>295.20001220703</ele>
        <time>2017-07-19T08:40:19Z</time>
      </trkpt>
      <trkpt lat="48.06934" lon="6.283">
        <ele>295.20001220703</ele>
        <time>2017-07-19T08:40:25Z</time>
      </trkpt>
      <trkpt lat="48.06977" lon="6.28346">
        <ele>295.20001220703</ele>
        <time>2017-07-19T08:40:33Z</time>
      </trkpt>
      <trkpt lat="48.07007" lon="6.28391">
        <ele>295.20001220703</ele>
        <time>2017-07-19T08:40:40Z</time>
      </trkpt>
      <trkpt lat="48.07021" lon="6.28411">
        <ele>295.39999389648</ele>
        <time>2017-07-19T08:40:43Z</time>
      </trkpt>
      <trkpt lat="48.07034" lon="6.2843">
        <ele>295.39999389648</ele>
        <time>2017-07-19T08:40:46Z</time>
      </trkpt>
      <trkpt lat="48.07042" lon="6.28443">
        <ele>295.39999389648</ele>
        <time>2017-07-19T08:40:48Z</time>
      </trkpt>
      <trkpt lat="48.07063" lon="6.28475">
        <ele>295.39999389648</ele>
        <time>2017-07-19T08:40:53Z</time>
      </trkpt>
      <trkpt lat="48.07104" lon="6.28537">
        <ele>295.39999389648</ele>
        <time>2017-07-19T08:41:02Z</time>
      </trkpt>
      <trkpt lat="48.07121" lon="6.28563">
        <ele>295.60000610352</ele>
        <time>2017-07-19T08:41:06Z</time>
      </trkpt>
      <trkpt lat="48.0714" lon="6.2859">
        <ele>295.60000610352</ele>
        <time>2017-07-19T08:41:10Z</time>
      </trkpt>
      <trkpt lat="48.07161" lon="6.2862">
        <ele>295.60000610352</ele>
        <time>2017-07-19T08:41:15Z</time>
      </trkpt>
      <trkpt lat="48.07176" lon="6.2864">
        <ele>296.60000610352</ele>
        <time>2017-07-19T08:41:19Z</time>
      </trkpt>
      <trkpt lat="48.07192" lon="6.28663">
        <ele>297.39999389648</ele>
        <time>2017-07-19T08:41:23Z</time>
      </trkpt>
      <trkpt lat="48.07207" lon="6.28687">
        <ele>297.79998779297</ele>
        <time>2017-07-19T08:41:27Z</time>
      </trkpt>
      <trkpt lat="48.07215" lon="6.28699">
        <ele>297.79998779297</ele>
        <time>2017-07-19T08:41:29Z</time>
      </trkpt>
      <trkpt lat="48.07223" lon="6.28711">
        <ele>297.79998779297</ele>
        <time>2017-07-19T08:41:31Z</time>
      </trkpt>
      <trkpt lat="48.07256" lon="6.28762">
        <ele>297.79998779297</ele>
        <time>2017-07-19T08:41:39Z</time>
      </trkpt>
      <trkpt lat="48.07274" lon="6.28798">
        <ele>298.39999389648</ele>
        <time>2017-07-19T08:41:44Z</time>
      </trkpt>
      <trkpt lat="48.07281" lon="6.28815">
        <ele>298.39999389648</ele>
        <time>2017-07-19T08:41:46Z</time>
      </trkpt>
      <trkpt lat="48.07305" lon="6.28886">
        <ele>298</ele>
        <time>2017-07-19T08:41:54Z</time>
      </trkpt>
      <trkpt lat="48.07326" lon="6.2895">
        <ele>298.20001220703</ele>
        <time>2017-07-19T08:42:01Z</time>
      </trkpt>
      <trkpt lat="48.0735" lon="6.29026">
        <ele>298</ele>
        <time>2017-07-19T08:42:09Z</time>
      </trkpt>
      <trkpt lat="48.07375" lon="6.29101">
        <ele>298.20001220703</ele>
        <time>2017-07-19T08:42:17Z</time>
      </trkpt>
      <trkpt lat="48.07383" lon="6.29129">
        <ele>298.39999389648</ele>
        <time>2017-07-19T08:42:20Z</time>
      </trkpt>
      <trkpt lat="48.07392" lon="6.29156">
        <ele>298.20001220703</ele>
        <time>2017-07-19T08:42:23Z</time>
      </trkpt>
      <trkpt lat="48.07413" lon="6.2922">
        <ele>298</ele>
        <time>2017-07-19T08:42:30Z</time>
      </trkpt>
      <trkpt lat="48.0744" lon="6.29289">
        <ele>298.20001220703</ele>
        <time>2017-07-19T08:42:38Z</time>
      </trkpt>
      <trkpt lat="48.07464" lon="6.29321">
        <ele>298.60000610352</ele>
        <time>2017-07-19T08:42:43Z</time>
      </trkpt>
      <trkpt lat="48.07498" lon="6.29346">
        <ele>298.39999389648</ele>
        <time>2017-07-19T08:42:49Z</time>
      </trkpt>
      <trkpt lat="48.0753" lon="6.29353">
        <ele>298.39999389648</ele>
        <time>2017-07-19T08:42:54Z</time>
      </trkpt>
      <trkpt lat="48.07576" lon="6.29361">
        <ele>298.79998779297</ele>
        <time>2017-07-19T08:43:01Z</time>
      </trkpt>
      <trkpt lat="48.07582" lon="6.29361">
        <ele>298.79998779297</ele>
        <time>2017-07-19T08:43:02Z</time>
      </trkpt>
      <trkpt lat="48.0762" lon="6.29367">
        <ele>298.60000610352</ele>
        <time>2017-07-19T08:43:08Z</time>
      </trkpt>
      <trkpt lat="48.07658" lon="6.29373">
        <ele>298.79998779297</ele>
        <time>2017-07-19T08:43:14Z</time>
      </trkpt>
      <trkpt lat="48.07707" lon="6.29382">
        <ele>298.79998779297</ele>
        <time>2017-07-19T08:43:22Z</time>
      </trkpt>
      <trkpt lat="48.07761" lon="6.29392">
        <ele>298.39999389648</ele>
        <time>2017-07-19T08:43:31Z</time>
      </trkpt>
      <trkpt lat="48.07809" lon="6.29403">
        <ele>298.79998779297</ele>
        <time>2017-07-19T08:43:39Z</time>
      </trkpt>
      <trkpt lat="48.0785" lon="6.2942">
        <ele>299</ele>
        <time>2017-07-19T08:43:46Z</time>
      </trkpt>
      <trkpt lat="48.07889" lon="6.29447">
        <ele>298.79998779297</ele>
        <time>2017-07-19T08:43:53Z</time>
      </trkpt>
      <trkpt lat="48.07924" lon="6.29483">
        <ele>298.79998779297</ele>
        <time>2017-07-19T08:44:00Z</time>
      </trkpt>
      <trkpt lat="48.07955" lon="6.29528">
        <ele>298.79998779297</ele>
        <time>2017-07-19T08:44:07Z</time>
      </trkpt>
      <trkpt lat="48.07982" lon="6.29575">
        <ele>298.79998779297</ele>
        <time>2017-07-19T08:44:14Z</time>
      </trkpt>
      <trkpt lat="48.07999" lon="6.29601">
        <ele>299.20001220703</ele>
        <time>2017-07-19T08:44:19Z</time>
      </trkpt>
      <trkpt lat="48.08011" lon="6.29621">
        <ele>299.79998779297</ele>
        <time>2017-07-19T08:44:23Z</time>
      </trkpt>
      <trkpt lat="48.08017" lon="6.29634">
        <ele>300</ele>
        <time>2017-07-19T08:44:25Z</time>
      </trkpt>
      <trkpt lat="48.08041" lon="6.29678">
        <ele>300.39999389648</ele>
        <time>2017-07-19T08:44:32Z</time>
      </trkpt>
      <trkpt lat="48.08067" lon="6.29724">
        <ele>300.60000610352</ele>
        <time>2017-07-19T08:44:39Z</time>
      </trkpt>
      <trkpt lat="48.08098" lon="6.29778">
        <ele>300.39999389648</ele>
        <time>2017-07-19T08:44:47Z</time>
      </trkpt>
      <trkpt lat="48.08126" lon="6.29828">
        <ele>300.20001220703</ele>
        <time>2017-07-19T08:44:54Z</time>
      </trkpt>
      <trkpt lat="48.08142" lon="6.29857">
        <ele>300.20001220703</ele>
        <time>2017-07-19T08:44:58Z</time>
      </trkpt>
      <trkpt lat="48.08154" lon="6.29879">
        <ele>300.20001220703</ele>
        <time>2017-07-19T08:45:01Z</time>
      </trkpt>
      <trkpt lat="48.08192" lon="6.29946">
        <ele>300.20001220703</ele>
        <time>2017-07-19T08:45:10Z</time>
      </trkpt>
      <trkpt lat="48.08229" lon="6.30014">
        <ele>300.20001220703</ele>
        <time>2017-07-19T08:45:19Z</time>
      </trkpt>
      <trkpt lat="48.08233" lon="6.30021">
        <ele>300.20001220703</ele>
        <time>2017-07-19T08:45:20Z</time>
      </trkpt>
      <trkpt lat="48.08255" lon="6.30061">
        <ele>300.39999389648</ele>
        <time>2017-07-19T08:45:26Z</time>
      </trkpt>
      <trkpt lat="48.08269" lon="6.30087">
        <ele>300.60000610352</ele>
        <time>2017-07-19T08:45:30Z</time>
      </trkpt>
      <trkpt lat="48.0828" lon="6.30107">
        <ele>300.79998779297</ele>
        <time>2017-07-19T08:45:33Z</time>
      </trkpt>
      <trkpt lat="48.08309" lon="6.30159">
        <ele>300.79998779297</ele>
        <time>2017-07-19T08:45:41Z</time>
      </trkpt>
      <trkpt lat="48.08324" lon="6.30185">
        <ele>300.79998779297</ele>
        <time>2017-07-19T08:45:45Z</time>
      </trkpt>
      <trkpt lat="48.08334" lon="6.30203">
        <ele>300.79998779297</ele>
        <time>2017-07-19T08:45:48Z</time>
      </trkpt>
      <trkpt lat="48.08344" lon="6.30219">
        <ele>300.79998779297</ele>
        <time>2017-07-19T08:45:51Z</time>
      </trkpt>
      <trkpt lat="48.08353" lon="6.30235">
        <ele>300.79998779297</ele>
        <time>2017-07-19T08:45:54Z</time>
      </trkpt>
      <trkpt lat="48.08372" lon="6.30272">
        <ele>301.20001220703</ele>
        <time>2017-07-19T08:46:01Z</time>
      </trkpt>
      <trkpt lat="48.08392" lon="6.30308">
        <ele>301.39999389648</ele>
        <time>2017-07-19T08:46:08Z</time>
      </trkpt>
      <trkpt lat="48.08429" lon="6.30364">
        <ele>301.60000610352</ele>
        <time>2017-07-19T08:46:19Z</time>
      </trkpt>
      <trkpt lat="48.08455" lon="6.30399">
        <ele>301.39999389648</ele>
        <time>2017-07-19T08:46:27Z</time>
      </trkpt>
      <trkpt lat="48.08459" lon="6.30411">
        <ele>302</ele>
        <time>2017-07-19T08:46:31Z</time>
      </trkpt>
      <trkpt lat="48.08462" lon="6.30414">
        <ele>302.60000610352</ele>
        <time>2017-07-19T08:46:34Z</time>
      </trkpt>
      <trkpt lat="48.08463" lon="6.30413">
        <ele>302.60000610352</ele>
        <time>2017-07-19T08:46:35Z</time>
      </trkpt>
      <trkpt lat="48.0847" lon="6.30411">
        <ele>302.20001220703</ele>
        <time>2017-07-19T08:47:26Z</time>
      </trkpt>
      <trkpt lat="48.08474" lon="6.30415">
        <ele>302.20001220703</ele>
        <time>2017-07-19T08:47:28Z</time>
      </trkpt>
      <trkpt lat="48.08483" lon="6.30427">
        <ele>302</ele>
        <time>2017-07-19T08:47:32Z</time>
      </trkpt>
      <trkpt lat="48.08489" lon="6.30433">
        <ele>301.79998779297</ele>
        <time>2017-07-19T08:47:34Z</time>
      </trkpt>
      <trkpt lat="48.08497" lon="6.30448">
        <ele>301.79998779297</ele>
        <time>2017-07-19T08:47:39Z</time>
      </trkpt>
      <trkpt lat="48.08507" lon="6.3045">
        <ele>302.39999389648</ele>
        <time>2017-07-19T09:01:26Z</time>
      </trkpt>
      <trkpt lat="48.08512" lon="6.3046">
        <ele>302.39999389648</ele>
        <time>2017-07-19T09:01:30Z</time>
      </trkpt>
      <trkpt lat="48.08514" lon="6.30462">
        <ele>302.39999389648</ele>
        <time>2017-07-19T09:01:31Z</time>
      </trkpt>
      <trkpt lat="48.08528" lon="6.30482">
        <ele>302.39999389648</ele>
        <time>2017-07-19T09:01:37Z</time>
      </trkpt>
      <trkpt lat="48.0855" lon="6.30509">
        <ele>302.39999389648</ele>
        <time>2017-07-19T09:01:44Z</time>
      </trkpt>
      <trkpt lat="48.08577" lon="6.30543">
        <ele>302.60000610352</ele>
        <time>2017-07-19T09:01:52Z</time>
      </trkpt>
      <trkpt lat="48.0861" lon="6.30583">
        <ele>302.79998779297</ele>
        <time>2017-07-19T09:02:01Z</time>
      </trkpt>
      <trkpt lat="48.08631" lon="6.30605">
        <ele>303</ele>
        <time>2017-07-19T09:02:06Z</time>
      </trkpt>
      <trkpt lat="48.08643" lon="6.30616">
        <ele>303</ele>
        <time>2017-07-19T09:02:09Z</time>
      </trkpt>
      <trkpt lat="48.0867" lon="6.30637">
        <ele>302.79998779297</ele>
        <time>2017-07-19T09:02:15Z</time>
      </trkpt>
      <trkpt lat="48.08709" lon="6.30664">
        <ele>302.79998779297</ele>
        <time>2017-07-19T09:02:23Z</time>
      </trkpt>
      <trkpt lat="48.08744" lon="6.30689">
        <ele>302.60000610352</ele>
        <time>2017-07-19T09:02:30Z</time>
      </trkpt>
      <trkpt lat="48.08779" lon="6.30713">
        <ele>302.79998779297</ele>
        <time>2017-07-19T09:02:37Z</time>
      </trkpt>
      <trkpt lat="48.08814" lon="6.30739">
        <ele>303</ele>
        <time>2017-07-19T09:02:44Z</time>
      </trkpt>
      <trkpt lat="48.08849" lon="6.30765">
        <ele>302.79998779297</ele>
        <time>2017-07-19T09:02:51Z</time>
      </trkpt>
      <trkpt lat="48.0886" lon="6.30772">
        <ele>302.60000610352</ele>
        <time>2017-07-19T09:02:53Z</time>
      </trkpt>
      <trkpt lat="48.0889" lon="6.30796">
        <ele>302.79998779297</ele>
        <time>2017-07-19T09:02:59Z</time>
      </trkpt>
      <trkpt lat="48.08923" lon="6.30832">
        <ele>302.60000610352</ele>
        <time>2017-07-19T09:03:06Z</time>
      </trkpt>
      <trkpt lat="48.08957" lon="6.30876">
        <ele>302.79998779297</ele>
        <time>2017-07-19T09:03:14Z</time>
      </trkpt>
      <trkpt lat="48.08961" lon="6.30881">
        <ele>302.79998779297</ele>
        <time>2017-07-19T09:03:15Z</time>
      </trkpt>
      <trkpt lat="48.08971" lon="6.30893">
        <ele>303</ele>
        <time>2017-07-19T09:03:18Z</time>
      </trkpt>
      <trkpt lat="48.08985" lon="6.30908">
        <ele>304.20001220703</ele>
        <time>2017-07-19T09:03:23Z</time>
      </trkpt>
      <trkpt lat="48.08998" lon="6.30924">
        <ele>304.60000610352</ele>
        <time>2017-07-19T09:03:27Z</time>
      </trkpt>
      <trkpt lat="48.09005" lon="6.30933">
        <ele>304.79998779297</ele>
        <time>2017-07-19T09:03:29Z</time>
      </trkpt>
      <trkpt lat="48.0903" lon="6.30967">
        <ele>305</ele>
        <time>2017-07-19T09:03:36Z</time>
      </trkpt>
      <trkpt lat="48.09061" lon="6.31006">
        <ele>305</ele>
        <time>2017-07-19T09:03:44Z</time>
      </trkpt>
      <trkpt lat="48.09093" lon="6.31047">
        <ele>305</ele>
        <time>2017-07-19T09:03:52Z</time>
      </trkpt>
      <trkpt lat="48.0911" lon="6.31067">
        <ele>305.20001220703</ele>
        <time>2017-07-19T09:03:56Z</time>
      </trkpt>
      <trkpt lat="48.09122" lon="6.31083">
        <ele>305.20001220703</ele>
        <time>2017-07-19T09:03:59Z</time>
      </trkpt>
      <trkpt lat="48.09158" lon="6.31129">
        <ele>305.20001220703</ele>
        <time>2017-07-19T09:04:07Z</time>
      </trkpt>
      <trkpt lat="48.09188" lon="6.31167">
        <ele>305.20001220703</ele>
        <time>2017-07-19T09:04:14Z</time>
      </trkpt>
      <trkpt lat="48.09215" lon="6.31213">
        <ele>305</ele>
        <time>2017-07-19T09:04:21Z</time>
      </trkpt>
      <trkpt lat="48.09232" lon="6.31249">
        <ele>305</ele>
        <time>2017-07-19T09:04:26Z</time>
      </trkpt>
      <trkpt lat="48.09237" lon="6.31264">
        <ele>305</ele>
        <time>2017-07-19T09:04:28Z</time>
      </trkpt>
      <trkpt lat="48.09257" lon="6.31327">
        <ele>304.79998779297</ele>
        <time>2017-07-19T09:04:36Z</time>
      </trkpt>
      <trkpt lat="48.09276" lon="6.31389">
        <ele>304.79998779297</ele>
        <time>2017-07-19T09:04:44Z</time>
      </trkpt>
      <trkpt lat="48.09285" lon="6.31421">
        <ele>304.79998779297</ele>
        <time>2017-07-19T09:04:48Z</time>
      </trkpt>
      <trkpt lat="48.09292" lon="6.31445">
        <ele>304.79998779297</ele>
        <time>2017-07-19T09:04:51Z</time>
      </trkpt>
      <trkpt lat="48.09306" lon="6.31491">
        <ele>305</ele>
        <time>2017-07-19T09:04:57Z</time>
      </trkpt>
      <trkpt lat="48.09322" lon="6.31546">
        <ele>304.79998779297</ele>
        <time>2017-07-19T09:05:04Z</time>
      </trkpt>
      <trkpt lat="48.09334" lon="6.31585">
        <ele>304.60000610352</ele>
        <time>2017-07-19T09:05:09Z</time>
      </trkpt>
      <trkpt lat="48.0934" lon="6.316">
        <ele>304.60000610352</ele>
        <time>2017-07-19T09:05:11Z</time>
      </trkpt>
      <trkpt lat="48.09351" lon="6.31619">
        <ele>304.79998779297</ele>
        <time>2017-07-19T09:05:14Z</time>
      </trkpt>
      <trkpt lat="48.09364" lon="6.31638">
        <ele>305</ele>
        <time>2017-07-19T09:05:17Z</time>
      </trkpt>
      <trkpt lat="48.0939" lon="6.31661">
        <ele>305.20001220703</ele>
        <time>2017-07-19T09:05:22Z</time>
      </trkpt>
      <trkpt lat="48.09395" lon="6.31664">
        <ele>305.20001220703</ele>
        <time>2017-07-19T09:05:23Z</time>
      </trkpt>
      <trkpt lat="48.09423" lon="6.31676">
        <ele>305.39999389648</ele>
        <time>2017-07-19T09:05:28Z</time>
      </trkpt>
      <trkpt lat="48.09435" lon="6.31678">
        <ele>305.39999389648</ele>
        <time>2017-07-19T09:05:30Z</time>
      </trkpt>
      <trkpt lat="48.09451" lon="6.31679">
        <ele>305.60000610352</ele>
        <time>2017-07-19T09:05:33Z</time>
      </trkpt>
      <trkpt lat="48.09489" lon="6.31675">
        <ele>305.79998779297</ele>
        <time>2017-07-19T09:05:40Z</time>
      </trkpt>
      <trkpt lat="48.09515" lon="6.31672">
        <ele>305.79998779297</ele>
        <time>2017-07-19T09:05:45Z</time>
      </trkpt>
      <trkpt lat="48.09546" lon="6.31667">
        <ele>306</ele>
        <time>2017-07-19T09:05:51Z</time>
      </trkpt>
      <trkpt lat="48.09576" lon="6.31663">
        <ele>306.20001220703</ele>
        <time>2017-07-19T09:05:57Z</time>
      </trkpt>
      <trkpt lat="48.09585" lon="6.31661">
        <ele>306.39999389648</ele>
        <time>2017-07-19T09:05:59Z</time>
      </trkpt>
      <trkpt lat="48.09602" lon="6.31657">
        <ele>307.20001220703</ele>
        <time>2017-07-19T09:06:04Z</time>
      </trkpt>
      <trkpt lat="48.09606" lon="6.31654">
        <ele>307.39999389648</ele>
        <time>2017-07-19T09:06:05Z</time>
      </trkpt>
      <trkpt lat="48.09613" lon="6.3165">
        <ele>307.60000610352</ele>
        <time>2017-07-19T09:06:07Z</time>
      </trkpt>
      <trkpt lat="48.09628" lon="6.31647">
        <ele>307.79998779297</ele>
        <time>2017-07-19T09:06:10Z</time>
      </trkpt>
      <trkpt lat="48.09659" lon="6.31645">
        <ele>307.79998779297</ele>
        <time>2017-07-19T09:06:16Z</time>
      </trkpt>
      <trkpt lat="48.09692" lon="6.31641">
        <ele>307.60000610352</ele>
        <time>2017-07-19T09:06:22Z</time>
      </trkpt>
      <trkpt lat="48.09725" lon="6.31637">
        <ele>307.60000610352</ele>
        <time>2017-07-19T09:06:28Z</time>
      </trkpt>
      <trkpt lat="48.09757" lon="6.31633">
        <ele>307.60000610352</ele>
        <time>2017-07-19T09:06:34Z</time>
      </trkpt>
      <trkpt lat="48.09763" lon="6.31633">
        <ele>307.60000610352</ele>
        <time>2017-07-19T09:06:35Z</time>
      </trkpt>
      <trkpt lat="48.09791" lon="6.31629">
        <ele>307.79998779297</ele>
        <time>2017-07-19T09:06:40Z</time>
      </trkpt>
      <trkpt lat="48.09825" lon="6.31623">
        <ele>308</ele>
        <time>2017-07-19T09:06:46Z</time>
      </trkpt>
      <trkpt lat="48.09865" lon="6.31619">
        <ele>308</ele>
        <time>2017-07-19T09:06:53Z</time>
      </trkpt>
      <trkpt lat="48.09903" lon="6.31614">
        <ele>308</ele>
        <time>2017-07-19T09:07:00Z</time>
      </trkpt>
      <trkpt lat="48.0995" lon="6.31609">
        <ele>308</ele>
        <time>2017-07-19T09:07:08Z</time>
      </trkpt>
      <trkpt lat="48.09998" lon="6.31603">
        <ele>308</ele>
        <time>2017-07-19T09:07:16Z</time>
      </trkpt>
      <trkpt lat="48.10022" lon="6.31599">
        <ele>308</ele>
        <time>2017-07-19T09:07:20Z</time>
      </trkpt>
      <trkpt lat="48.10039" lon="6.31597">
        <ele>308.20001220703</ele>
        <time>2017-07-19T09:07:23Z</time>
      </trkpt>
      <trkpt lat="48.10045" lon="6.31597">
        <ele>308.39999389648</ele>
        <time>2017-07-19T09:07:24Z</time>
      </trkpt>
      <trkpt lat="48.10076" lon="6.31592">
        <ele>308.60000610352</ele>
        <time>2017-07-19T09:07:30Z</time>
      </trkpt>
      <trkpt lat="48.10099" lon="6.31585">
        <ele>309.39999389648</ele>
        <time>2017-07-19T09:07:35Z</time>
      </trkpt>
      <trkpt lat="48.10103" lon="6.31583">
        <ele>309.79998779297</ele>
        <time>2017-07-19T09:07:36Z</time>
      </trkpt>
      <trkpt lat="48.10115" lon="6.3158">
        <ele>310.39999389648</ele>
        <time>2017-07-19T09:07:39Z</time>
      </trkpt>
      <trkpt lat="48.10129" lon="6.31578">
        <ele>310.79998779297</ele>
        <time>2017-07-19T09:07:42Z</time>
      </trkpt>
      <trkpt lat="48.10165" lon="6.31575">
        <ele>310.79998779297</ele>
        <time>2017-07-19T09:07:49Z</time>
      </trkpt>
      <trkpt lat="48.10176" lon="6.31573">
        <ele>310.79998779297</ele>
        <time>2017-07-19T09:07:51Z</time>
      </trkpt>
      <trkpt lat="48.10199" lon="6.31569">
        <ele>310.79998779297</ele>
        <time>2017-07-19T09:07:55Z</time>
      </trkpt>
      <trkpt lat="48.10226" lon="6.3156">
        <ele>310.79998779297</ele>
        <time>2017-07-19T09:08:00Z</time>
      </trkpt>
      <trkpt lat="48.10231" lon="6.31558">
        <ele>310.79998779297</ele>
        <time>2017-07-19T09:08:01Z</time>
      </trkpt>
      <trkpt lat="48.10266" lon="6.31538">
        <ele>311</ele>
        <time>2017-07-19T09:08:08Z</time>
      </trkpt>
      <trkpt lat="48.10272" lon="6.31537">
        <ele>311</ele>
        <time>2017-07-19T09:08:09Z</time>
      </trkpt>
      <trkpt lat="48.10288" lon="6.3153">
        <ele>311</ele>
        <time>2017-07-19T09:08:12Z</time>
      </trkpt>
      <trkpt lat="48.10326" lon="6.3151">
        <ele>311</ele>
        <time>2017-07-19T09:08:19Z</time>
      </trkpt>
      <trkpt lat="48.1036" lon="6.31489">
        <ele>310.79998779297</ele>
        <time>2017-07-19T09:08:25Z</time>
      </trkpt>
      <trkpt lat="48.10397" lon="6.3147">
        <ele>310.79998779297</ele>
        <time>2017-07-19T09:08:32Z</time>
      </trkpt>
      <trkpt lat="48.10431" lon="6.31458">
        <ele>311.39999389648</ele>
        <time>2017-07-19T09:08:39Z</time>
      </trkpt>
      <trkpt lat="48.10437" lon="6.31457">
        <ele>311.60000610352</ele>
        <time>2017-07-19T09:08:40Z</time>
      </trkpt>
      <trkpt lat="48.10457" lon="6.31455">
        <ele>311.79998779297</ele>
        <time>2017-07-19T09:08:44Z</time>
      </trkpt>
      <trkpt lat="48.10463" lon="6.31456">
        <ele>311.79998779297</ele>
        <time>2017-07-19T09:08:45Z</time>
      </trkpt>
      <trkpt lat="48.10503" lon="6.31465">
        <ele>311.79998779297</ele>
        <time>2017-07-19T09:08:52Z</time>
      </trkpt>
      <trkpt lat="48.10532" lon="6.3148">
        <ele>311.79998779297</ele>
        <time>2017-07-19T09:08:57Z</time>
      </trkpt>
      <trkpt lat="48.10542" lon="6.31489">
        <ele>311.79998779297</ele>
        <time>2017-07-19T09:08:59Z</time>
      </trkpt>
      <trkpt lat="48.10559" lon="6.31503">
        <ele>311.60000610352</ele>
        <time>2017-07-19T09:09:02Z</time>
      </trkpt>
      <trkpt lat="48.10574" lon="6.31518">
        <ele>311.60000610352</ele>
        <time>2017-07-19T09:09:05Z</time>
      </trkpt>
      <trkpt lat="48.10614" lon="6.31558">
        <ele>311.60000610352</ele>
        <time>2017-07-19T09:09:13Z</time>
      </trkpt>
      <trkpt lat="48.10629" lon="6.31571">
        <ele>312</ele>
        <time>2017-07-19T09:09:17Z</time>
      </trkpt>
      <trkpt lat="48.10632" lon="6.31574">
        <ele>312.39999389648</ele>
        <time>2017-07-19T09:09:18Z</time>
      </trkpt>
      <trkpt lat="48.10636" lon="6.31577">
        <ele>312.60000610352</ele>
        <time>2017-07-19T09:09:19Z</time>
      </trkpt>
      <trkpt lat="48.10651" lon="6.31592">
        <ele>313.39999389648</ele>
        <time>2017-07-19T09:09:23Z</time>
      </trkpt>
      <trkpt lat="48.10677" lon="6.31622">
        <ele>313.60000610352</ele>
        <time>2017-07-19T09:09:29Z</time>
      </trkpt>
      <trkpt lat="48.10681" lon="6.31627">
        <ele>313.60000610352</ele>
        <time>2017-07-19T09:09:30Z</time>
      </trkpt>
      <trkpt lat="48.10715" lon="6.31663">
        <ele>313.60000610352</ele>
        <time>2017-07-19T09:09:37Z</time>
      </trkpt>
      <trkpt lat="48.10745" lon="6.31694">
        <ele>314</ele>
        <time>2017-07-19T09:09:43Z</time>
      </trkpt>
      <trkpt lat="48.10773" lon="6.31732">
        <ele>313.60000610352</ele>
        <time>2017-07-19T09:09:49Z</time>
      </trkpt>
      <trkpt lat="48.10777" lon="6.3174">
        <ele>313.60000610352</ele>
        <time>2017-07-19T09:09:50Z</time>
      </trkpt>
      <trkpt lat="48.10789" lon="6.31772">
        <ele>313.60000610352</ele>
        <time>2017-07-19T09:09:54Z</time>
      </trkpt>
      <trkpt lat="48.10792" lon="6.31781">
        <ele>313.60000610352</ele>
        <time>2017-07-19T09:09:55Z</time>
      </trkpt>
      <trkpt lat="48.10798" lon="6.31817">
        <ele>313.79998779297</ele>
        <time>2017-07-19T09:09:59Z</time>
      </trkpt>
      <trkpt lat="48.10799" lon="6.31874">
        <ele>313.79998779297</ele>
        <time>2017-07-19T09:10:05Z</time>
      </trkpt>
      <trkpt lat="48.1079" lon="6.31929">
        <ele>313.79998779297</ele>
        <time>2017-07-19T09:10:11Z</time>
      </trkpt>
      <trkpt lat="48.1078" lon="6.31994">
        <ele>314</ele>
        <time>2017-07-19T09:10:18Z</time>
      </trkpt>
      <trkpt lat="48.10776" lon="6.3207">
        <ele>314.20001220703</ele>
        <time>2017-07-19T09:10:26Z</time>
      </trkpt>
      <trkpt lat="48.10777" lon="6.32146">
        <ele>314</ele>
        <time>2017-07-19T09:10:34Z</time>
      </trkpt>
      <trkpt lat="48.1078" lon="6.3221">
        <ele>313.60000610352</ele>
        <time>2017-07-19T09:10:41Z</time>
      </trkpt>
      <trkpt lat="48.10782" lon="6.32255">
        <ele>314</ele>
        <time>2017-07-19T09:10:47Z</time>
      </trkpt>
      <trkpt lat="48.10784" lon="6.32266">
        <ele>314.79998779297</ele>
        <time>2017-07-19T09:10:50Z</time>
      </trkpt>
      <trkpt lat="48.10784" lon="6.32268">
        <ele>315.20001220703</ele>
        <time>2017-07-19T09:10:51Z</time>
      </trkpt>
      <trkpt lat="48.10786" lon="6.32274">
        <ele>316</ele>
        <time>2017-07-19T09:10:53Z</time>
      </trkpt>
      <trkpt lat="48.1079" lon="6.32291">
        <ele>316.39999389648</ele>
        <time>2017-07-19T09:10:56Z</time>
      </trkpt>
      <trkpt lat="48.10797" lon="6.32322">
        <ele>316</ele>
        <time>2017-07-19T09:11:00Z</time>
      </trkpt>
      <trkpt lat="48.108" lon="6.32331">
        <ele>315.79998779297</ele>
        <time>2017-07-19T09:11:01Z</time>
      </trkpt>
      <trkpt lat="48.10808" lon="6.32369">
        <ele>314.79998779297</ele>
        <time>2017-07-19T09:11:05Z</time>
      </trkpt>
      <trkpt lat="48.10811" lon="6.32387">
        <ele>314.60000610352</ele>
        <time>2017-07-19T09:11:07Z</time>
      </trkpt>
      <trkpt lat="48.10824" lon="6.32466">
        <ele>314.39999389648</ele>
        <time>2017-07-19T09:11:16Z</time>
      </trkpt>
      <trkpt lat="48.10829" lon="6.32502">
        <ele>314.39999389648</ele>
        <time>2017-07-19T09:11:20Z</time>
      </trkpt>
      <trkpt lat="48.10833" lon="6.3252">
        <ele>314.39999389648</ele>
        <time>2017-07-19T09:11:22Z</time>
      </trkpt>
      <trkpt lat="48.10844" lon="6.32554">
        <ele>314.60000610352</ele>
        <time>2017-07-19T09:11:26Z</time>
      </trkpt>
      <trkpt lat="48.10852" lon="6.32568">
        <ele>314.60000610352</ele>
        <time>2017-07-19T09:11:28Z</time>
      </trkpt>
      <trkpt lat="48.10873" lon="6.32589">
        <ele>314.60000610352</ele>
        <time>2017-07-19T09:11:32Z</time>
      </trkpt>
      <trkpt lat="48.10879" lon="6.32593">
        <ele>314.60000610352</ele>
        <time>2017-07-19T09:11:33Z</time>
      </trkpt>
      <trkpt lat="48.10909" lon="6.32608">
        <ele>314.79998779297</ele>
        <time>2017-07-19T09:11:38Z</time>
      </trkpt>
      <trkpt lat="48.10941" lon="6.32621">
        <ele>315.20001220703</ele>
        <time>2017-07-19T09:11:44Z</time>
      </trkpt>
      <trkpt lat="48.1096" lon="6.32626">
        <ele>316</ele>
        <time>2017-07-19T09:11:48Z</time>
      </trkpt>
      <trkpt lat="48.10965" lon="6.32627">
        <ele>316.20001220703</ele>
        <time>2017-07-19T09:11:49Z</time>
      </trkpt>
      <trkpt lat="48.10984" lon="6.32642">
        <ele>316.60000610352</ele>
        <time>2017-07-19T09:11:53Z</time>
      </trkpt>
      <trkpt lat="48.1099" lon="6.32644">
        <ele>316.60000610352</ele>
        <time>2017-07-19T09:11:54Z</time>
      </trkpt>
      <trkpt lat="48.11022" lon="6.32661">
        <ele>316.79998779297</ele>
        <time>2017-07-19T09:12:00Z</time>
      </trkpt>
      <trkpt lat="48.11063" lon="6.32682">
        <ele>317</ele>
        <time>2017-07-19T09:12:07Z</time>
      </trkpt>
      <trkpt lat="48.11108" lon="6.32703">
        <ele>317.20001220703</ele>
        <time>2017-07-19T09:12:15Z</time>
      </trkpt>
      <trkpt lat="48.11121" lon="6.32707">
        <ele>317.20001220703</ele>
        <time>2017-07-19T09:12:17Z</time>
      </trkpt>
      <trkpt lat="48.1114" lon="6.32711">
        <ele>317</ele>
        <time>2017-07-19T09:12:20Z</time>
      </trkpt>
      <trkpt lat="48.11191" lon="6.32721">
        <ele>317</ele>
        <time>2017-07-19T09:12:28Z</time>
      </trkpt>
      <trkpt lat="48.11228" lon="6.32731">
        <ele>316.79998779297</ele>
        <time>2017-07-19T09:12:34Z</time>
      </trkpt>
      <trkpt lat="48.11239" lon="6.32739">
        <ele>316.79998779297</ele>
        <time>2017-07-19T09:12:36Z</time>
      </trkpt>
      <trkpt lat="48.11255" lon="6.32751">
        <ele>317</ele>
        <time>2017-07-19T09:12:39Z</time>
      </trkpt>
      <trkpt lat="48.11282" lon="6.32785">
        <ele>317.39999389648</ele>
        <time>2017-07-19T09:12:45Z</time>
      </trkpt>
      <trkpt lat="48.11294" lon="6.32806">
        <ele>317.60000610352</ele>
        <time>2017-07-19T09:12:48Z</time>
      </trkpt>
      <trkpt lat="48.11303" lon="6.32828">
        <ele>317.60000610352</ele>
        <time>2017-07-19T09:12:51Z</time>
      </trkpt>
      <trkpt lat="48.11318" lon="6.32867">
        <ele>317.79998779297</ele>
        <time>2017-07-19T09:12:57Z</time>
      </trkpt>
      <trkpt lat="48.1132" lon="6.32872">
        <ele>318</ele>
        <time>2017-07-19T09:12:58Z</time>
      </trkpt>
      <trkpt lat="48.11322" lon="6.32877">
        <ele>318.20001220703</ele>
        <time>2017-07-19T09:12:59Z</time>
      </trkpt>
      <trkpt lat="48.11332" lon="6.32899">
        <ele>319</ele>
        <time>2017-07-19T09:13:03Z</time>
      </trkpt>
      <trkpt lat="48.11338" lon="6.32911">
        <ele>319.39999389648</ele>
        <time>2017-07-19T09:13:05Z</time>
      </trkpt>
      <trkpt lat="48.11344" lon="6.32931">
        <ele>319.79998779297</ele>
        <time>2017-07-19T09:13:08Z</time>
      </trkpt>
      <trkpt lat="48.11348" lon="6.32945">
        <ele>320</ele>
        <time>2017-07-19T09:13:10Z</time>
      </trkpt>
      <trkpt lat="48.11352" lon="6.32959">
        <ele>320</ele>
        <time>2017-07-19T09:13:12Z</time>
      </trkpt>
      <trkpt lat="48.11357" lon="6.32973">
        <ele>320.20001220703</ele>
        <time>2017-07-19T09:13:14Z</time>
      </trkpt>
      <trkpt lat="48.11381" lon="6.3304">
        <ele>320.20001220703</ele>
        <time>2017-07-19T09:13:23Z</time>
      </trkpt>
      <trkpt lat="48.11404" lon="6.3308">
        <ele>320.20001220703</ele>
        <time>2017-07-19T09:13:29Z</time>
      </trkpt>
      <trkpt lat="48.11426" lon="6.33097">
        <ele>320</ele>
        <time>2017-07-19T09:13:33Z</time>
      </trkpt>
      <trkpt lat="48.11454" lon="6.33111">
        <ele>320</ele>
        <time>2017-07-19T09:13:38Z</time>
      </trkpt>
      <trkpt lat="48.11461" lon="6.33113">
        <ele>320</ele>
        <time>2017-07-19T09:13:39Z</time>
      </trkpt>
      <trkpt lat="48.11504" lon="6.33123">
        <ele>319.79998779297</ele>
        <time>2017-07-19T09:13:46Z</time>
      </trkpt>
      <trkpt lat="48.11542" lon="6.33133">
        <ele>320.20001220703</ele>
        <time>2017-07-19T09:13:53Z</time>
      </trkpt>
      <trkpt lat="48.11564" lon="6.33138">
        <ele>321.20001220703</ele>
        <time>2017-07-19T09:13:58Z</time>
      </trkpt>
      <trkpt lat="48.11569" lon="6.3314">
        <ele>321.39999389648</ele>
        <time>2017-07-19T09:13:59Z</time>
      </trkpt>
      <trkpt lat="48.11583" lon="6.33142">
        <ele>322</ele>
        <time>2017-07-19T09:14:02Z</time>
      </trkpt>
      <trkpt lat="48.11597" lon="6.33143">
        <ele>322.20001220703</ele>
        <time>2017-07-19T09:14:05Z</time>
      </trkpt>
      <trkpt lat="48.11628" lon="6.33159">
        <ele>322.60000610352</ele>
        <time>2017-07-19T09:14:11Z</time>
      </trkpt>
      <trkpt lat="48.11651" lon="6.33173">
        <ele>322.79998779297</ele>
        <time>2017-07-19T09:14:17Z</time>
      </trkpt>
      <trkpt lat="48.11658" lon="6.33176">
        <ele>323</ele>
        <time>2017-07-19T09:14:27Z</time>
      </trkpt>
      <trkpt lat="48.11666" lon="6.33178">
        <ele>323</ele>
        <time>2017-07-19T09:14:30Z</time>
      </trkpt>
      <trkpt lat="48.11686" lon="6.33185">
        <ele>323.39999389648</ele>
        <time>2017-07-19T09:14:35Z</time>
      </trkpt>
      <trkpt lat="48.1169" lon="6.33186">
        <ele>323.39999389648</ele>
        <time>2017-07-19T09:14:36Z</time>
      </trkpt>
      <trkpt lat="48.11718" lon="6.3319">
        <ele>323.79998779297</ele>
        <time>2017-07-19T09:14:42Z</time>
      </trkpt>
      <trkpt lat="48.11758" lon="6.33187">
        <ele>324.39999389648</ele>
        <time>2017-07-19T09:14:50Z</time>
      </trkpt>
      <trkpt lat="48.11762" lon="6.33185">
        <ele>324.39999389648</ele>
        <time>2017-07-19T09:14:51Z</time>
      </trkpt>
      <trkpt lat="48.11797" lon="6.33167">
        <ele>325.20001220703</ele>
        <time>2017-07-19T09:14:58Z</time>
      </trkpt>
      <trkpt lat="48.1183" lon="6.33146">
        <ele>325.39999389648</ele>
        <time>2017-07-19T09:15:05Z</time>
      </trkpt>
      <trkpt lat="48.11856" lon="6.3314">
        <ele>326</ele>
        <time>2017-07-19T09:15:10Z</time>
      </trkpt>
      <trkpt lat="48.11862" lon="6.3314">
        <ele>326</ele>
        <time>2017-07-19T09:15:11Z</time>
      </trkpt>
      <trkpt lat="48.11893" lon="6.33136">
        <ele>326.60000610352</ele>
        <time>2017-07-19T09:15:17Z</time>
      </trkpt>
      <trkpt lat="48.11928" lon="6.33131">
        <ele>326.60000610352</ele>
        <time>2017-07-19T09:15:24Z</time>
      </trkpt>
      <trkpt lat="48.11965" lon="6.33128">
        <ele>327</ele>
        <time>2017-07-19T09:15:31Z</time>
      </trkpt>
      <trkpt lat="48.11981" lon="6.33127">
        <ele>327.60000610352</ele>
        <time>2017-07-19T09:15:34Z</time>
      </trkpt>
      <trkpt lat="48.12006" lon="6.33123">
        <ele>328</ele>
        <time>2017-07-19T09:15:39Z</time>
      </trkpt>
      <trkpt lat="48.12047" lon="6.33114">
        <ele>328.39999389648</ele>
        <time>2017-07-19T09:15:47Z</time>
      </trkpt>
      <trkpt lat="48.12058" lon="6.33112">
        <ele>328.60000610352</ele>
        <time>2017-07-19T09:15:49Z</time>
      </trkpt>
      <trkpt lat="48.12074" lon="6.3311">
        <ele>328.79998779297</ele>
        <time>2017-07-19T09:15:52Z</time>
      </trkpt>
      <trkpt lat="48.12079" lon="6.33111">
        <ele>328.79998779297</ele>
        <time>2017-07-19T09:15:53Z</time>
      </trkpt>
      <trkpt lat="48.12111" lon="6.33116">
        <ele>329.20001220703</ele>
        <time>2017-07-19T09:15:59Z</time>
      </trkpt>
      <trkpt lat="48.12123" lon="6.33116">
        <ele>329.39999389648</ele>
        <time>2017-07-19T09:16:01Z</time>
      </trkpt>
      <trkpt lat="48.12139" lon="6.33113">
        <ele>329.60000610352</ele>
        <time>2017-07-19T09:16:04Z</time>
      </trkpt>
      <trkpt lat="48.12149" lon="6.33111">
        <ele>329.60000610352</ele>
        <time>2017-07-19T09:16:06Z</time>
      </trkpt>
      <trkpt lat="48.12173" lon="6.33098">
        <ele>330</ele>
        <time>2017-07-19T09:16:11Z</time>
      </trkpt>
      <trkpt lat="48.12217" lon="6.33071">
        <ele>330.39999389648</ele>
        <time>2017-07-19T09:16:20Z</time>
      </trkpt>
      <trkpt lat="48.12253" lon="6.33058">
        <ele>330.60000610352</ele>
        <time>2017-07-19T09:16:27Z</time>
      </trkpt>
      <trkpt lat="48.12259" lon="6.33057">
        <ele>330.79998779297</ele>
        <time>2017-07-19T09:16:28Z</time>
      </trkpt>
      <trkpt lat="48.12299" lon="6.33057">
        <ele>331.20001220703</ele>
        <time>2017-07-19T09:16:36Z</time>
      </trkpt>
      <trkpt lat="48.12339" lon="6.33052">
        <ele>331.60000610352</ele>
        <time>2017-07-19T09:16:44Z</time>
      </trkpt>
      <trkpt lat="48.12357" lon="6.33054">
        <ele>331.60000610352</ele>
        <time>2017-07-19T09:16:47Z</time>
      </trkpt>
      <trkpt lat="48.12367" lon="6.3306">
        <ele>331.60000610352</ele>
        <time>2017-07-19T09:16:49Z</time>
      </trkpt>
      <trkpt lat="48.12378" lon="6.33064">
        <ele>331.79998779297</ele>
        <time>2017-07-19T09:16:51Z</time>
      </trkpt>
      <trkpt lat="48.12405" lon="6.33074">
        <ele>332</ele>
        <time>2017-07-19T09:16:56Z</time>
      </trkpt>
      <trkpt lat="48.12438" lon="6.33079">
        <ele>332.20001220703</ele>
        <time>2017-07-19T09:17:02Z</time>
      </trkpt>
      <trkpt lat="48.12443" lon="6.33079">
        <ele>332.20001220703</ele>
        <time>2017-07-19T09:17:03Z</time>
      </trkpt>
      <trkpt lat="48.12478" lon="6.33069">
        <ele>332.39999389648</ele>
        <time>2017-07-19T09:17:09Z</time>
      </trkpt>
      <trkpt lat="48.12484" lon="6.33065">
        <ele>332.39999389648</ele>
        <time>2017-07-19T09:17:10Z</time>
      </trkpt>
      <trkpt lat="48.12505" lon="6.33049">
        <ele>332.39999389648</ele>
        <time>2017-07-19T09:17:14Z</time>
      </trkpt>
      <trkpt lat="48.1253" lon="6.33027">
        <ele>332.79998779297</ele>
        <time>2017-07-19T09:17:19Z</time>
      </trkpt>
      <trkpt lat="48.1255" lon="6.3301">
        <ele>332.79998779297</ele>
        <time>2017-07-19T09:17:23Z</time>
      </trkpt>
      <trkpt lat="48.12585" lon="6.32983">
        <ele>333</ele>
        <time>2017-07-19T09:17:30Z</time>
      </trkpt>
      <trkpt lat="48.12618" lon="6.32972">
        <ele>333.60000610352</ele>
        <time>2017-07-19T09:17:36Z</time>
      </trkpt>
      <trkpt lat="48.12638" lon="6.32965">
        <ele>333.79998779297</ele>
        <time>2017-07-19T09:17:40Z</time>
      </trkpt>
      <trkpt lat="48.12644" lon="6.32964">
        <ele>333.79998779297</ele>
        <time>2017-07-19T09:17:41Z</time>
      </trkpt>
      <trkpt lat="48.12649" lon="6.32962">
        <ele>333.79998779297</ele>
        <time>2017-07-19T09:17:42Z</time>
      </trkpt>
      <trkpt lat="48.12696" lon="6.32949">
        <ele>334.20001220703</ele>
        <time>2017-07-19T09:17:51Z</time>
      </trkpt>
      <trkpt lat="48.1273" lon="6.32944">
        <ele>334.20001220703</ele>
        <time>2017-07-19T09:17:58Z</time>
      </trkpt>
      <trkpt lat="48.12754" lon="6.32936">
        <ele>334.20001220703</ele>
        <time>2017-07-19T09:18:04Z</time>
      </trkpt>
      <trkpt lat="48.12786" lon="6.32929">
        <ele>334.39999389648</ele>
        <time>2017-07-19T09:18:12Z</time>
      </trkpt>
      <trkpt lat="48.12809" lon="6.32931">
        <ele>334.79998779297</ele>
        <time>2017-07-19T09:18:16Z</time>
      </trkpt>
      <trkpt lat="48.12827" lon="6.32933">
        <ele>335</ele>
        <time>2017-07-19T09:18:19Z</time>
      </trkpt>
      <trkpt lat="48.12862" lon="6.32945">
        <ele>335.39999389648</ele>
        <time>2017-07-19T09:18:25Z</time>
      </trkpt>
      <trkpt lat="48.12907" lon="6.3296">
        <ele>335.60000610352</ele>
        <time>2017-07-19T09:18:33Z</time>
      </trkpt>
      <trkpt lat="48.12943" lon="6.3296">
        <ele>335.60000610352</ele>
        <time>2017-07-19T09:18:39Z</time>
      </trkpt>
      <trkpt lat="48.12979" lon="6.32944">
        <ele>335.39999389648</ele>
        <time>2017-07-19T09:18:45Z</time>
      </trkpt>
      <trkpt lat="48.13004" lon="6.32918">
        <ele>335.39999389648</ele>
        <time>2017-07-19T09:18:50Z</time>
      </trkpt>
      <trkpt lat="48.13008" lon="6.32912">
        <ele>335.39999389648</ele>
        <time>2017-07-19T09:18:51Z</time>
      </trkpt>
      <trkpt lat="48.13026" lon="6.32875">
        <ele>335.60000610352</ele>
        <time>2017-07-19T09:18:56Z</time>
      </trkpt>
      <trkpt lat="48.13029" lon="6.32867">
        <ele>335.60000610352</ele>
        <time>2017-07-19T09:18:57Z</time>
      </trkpt>
      <trkpt lat="48.13036" lon="6.32851">
        <ele>335.60000610352</ele>
        <time>2017-07-19T09:18:59Z</time>
      </trkpt>
      <trkpt lat="48.13052" lon="6.32824">
        <ele>335.60000610352</ele>
        <time>2017-07-19T09:19:03Z</time>
      </trkpt>
      <trkpt lat="48.13082" lon="6.32795">
        <ele>335.79998779297</ele>
        <time>2017-07-19T09:19:09Z</time>
      </trkpt>
      <trkpt lat="48.13115" lon="6.32778">
        <ele>335.79998779297</ele>
        <time>2017-07-19T09:19:15Z</time>
      </trkpt>
      <trkpt lat="48.1315" lon="6.32764">
        <ele>336</ele>
        <time>2017-07-19T09:19:21Z</time>
      </trkpt>
      <trkpt lat="48.13191" lon="6.3275">
        <ele>336</ele>
        <time>2017-07-19T09:19:28Z</time>
      </trkpt>
      <trkpt lat="48.13244" lon="6.32727">
        <ele>335.60000610352</ele>
        <time>2017-07-19T09:19:37Z</time>
      </trkpt>
      <trkpt lat="48.1328" lon="6.32712">
        <ele>335.60000610352</ele>
        <time>2017-07-19T09:19:43Z</time>
      </trkpt>
      <trkpt lat="48.13319" lon="6.32688">
        <ele>335.60000610352</ele>
        <time>2017-07-19T09:19:50Z</time>
      </trkpt>
      <trkpt lat="48.13324" lon="6.32683">
        <ele>335.60000610352</ele>
        <time>2017-07-19T09:19:51Z</time>
      </trkpt>
      <trkpt lat="48.13355" lon="6.32654">
        <ele>335.79998779297</ele>
        <time>2017-07-19T09:19:57Z</time>
      </trkpt>
      <trkpt lat="48.13394" lon="6.32612">
        <ele>335.79998779297</ele>
        <time>2017-07-19T09:20:05Z</time>
      </trkpt>
      <trkpt lat="48.13434" lon="6.32577">
        <ele>335.79998779297</ele>
        <time>2017-07-19T09:20:13Z</time>
      </trkpt>
      <trkpt lat="48.13448" lon="6.32563">
        <ele>336</ele>
        <time>2017-07-19T09:20:17Z</time>
      </trkpt>
      <trkpt lat="48.13459" lon="6.32552">
        <ele>337.20001220703</ele>
        <time>2017-07-19T09:20:21Z</time>
      </trkpt>
      <trkpt lat="48.13465" lon="6.32542">
        <ele>337.79998779297</ele>
        <time>2017-07-19T09:20:24Z</time>
      </trkpt>
      <trkpt lat="48.13471" lon="6.32535">
        <ele>338</ele>
        <time>2017-07-19T09:20:28Z</time>
      </trkpt>
      <trkpt lat="48.13485" lon="6.32526">
        <ele>337.79998779297</ele>
        <time>2017-07-19T09:20:33Z</time>
      </trkpt>
      <trkpt lat="48.13517" lon="6.32498">
        <ele>338</ele>
        <time>2017-07-19T09:20:41Z</time>
      </trkpt>
      <trkpt lat="48.13525" lon="6.32491">
        <ele>338.20001220703</ele>
        <time>2017-07-19T09:20:43Z</time>
      </trkpt>
      <trkpt lat="48.13543" lon="6.32475">
        <ele>338.39999389648</ele>
        <time>2017-07-19T09:20:47Z</time>
      </trkpt>
      <trkpt lat="48.13578" lon="6.3245">
        <ele>338.39999389648</ele>
        <time>2017-07-19T09:20:54Z</time>
      </trkpt>
      <trkpt lat="48.13583" lon="6.32448">
        <ele>338.39999389648</ele>
        <time>2017-07-19T09:20:55Z</time>
      </trkpt>
      <trkpt lat="48.13598" lon="6.32441">
        <ele>338.39999389648</ele>
        <time>2017-07-19T09:20:58Z</time>
      </trkpt>
      <trkpt lat="48.13612" lon="6.3244">
        <ele>338.39999389648</ele>
        <time>2017-07-19T09:21:01Z</time>
      </trkpt>
      <trkpt lat="48.13645" lon="6.32444">
        <ele>338.60000610352</ele>
        <time>2017-07-19T09:21:08Z</time>
      </trkpt>
      <trkpt lat="48.13665" lon="6.32451">
        <ele>338.79998779297</ele>
        <time>2017-07-19T09:21:12Z</time>
      </trkpt>
      <trkpt lat="48.13675" lon="6.32456">
        <ele>338.79998779297</ele>
        <time>2017-07-19T09:21:14Z</time>
      </trkpt>
      <trkpt lat="48.1371" lon="6.32477">
        <ele>338.79998779297</ele>
        <time>2017-07-19T09:21:21Z</time>
      </trkpt>
      <trkpt lat="48.13751" lon="6.32496">
        <ele>339</ele>
        <time>2017-07-19T09:21:29Z</time>
      </trkpt>
      <trkpt lat="48.13788" lon="6.32497">
        <ele>338.39999389648</ele>
        <time>2017-07-19T09:21:36Z</time>
      </trkpt>
      <trkpt lat="48.13794" lon="6.32496">
        <ele>338.39999389648</ele>
        <time>2017-07-19T09:21:37Z</time>
      </trkpt>
      <trkpt lat="48.13816" lon="6.32487">
        <ele>338.39999389648</ele>
        <time>2017-07-19T09:21:41Z</time>
      </trkpt>
      <trkpt lat="48.13853" lon="6.32468">
        <ele>338.39999389648</ele>
        <time>2017-07-19T09:21:48Z</time>
      </trkpt>
      <trkpt lat="48.13881" lon="6.32459">
        <ele>338.79998779297</ele>
        <time>2017-07-19T09:21:54Z</time>
      </trkpt>
      <trkpt lat="48.13894" lon="6.32454">
        <ele>339.39999389648</ele>
        <time>2017-07-19T09:21:58Z</time>
      </trkpt>
      <trkpt lat="48.139" lon="6.32452">
        <ele>339.79998779297</ele>
        <time>2017-07-19T09:22:00Z</time>
      </trkpt>
      <trkpt lat="48.13907" lon="6.32446">
        <ele>340.60000610352</ele>
        <time>2017-07-19T09:22:03Z</time>
      </trkpt>
      <trkpt lat="48.13916" lon="6.32437">
        <ele>341.39999389648</ele>
        <time>2017-07-19T09:22:06Z</time>
      </trkpt>
      <trkpt lat="48.13939" lon="6.32422">
        <ele>341</ele>
        <time>2017-07-19T09:22:12Z</time>
      </trkpt>
      <trkpt lat="48.13953" lon="6.32413">
        <ele>340.60000610352</ele>
        <time>2017-07-19T09:22:15Z</time>
      </trkpt>
      <trkpt lat="48.13963" lon="6.32412">
        <ele>340.60000610352</ele>
        <time>2017-07-19T09:22:17Z</time>
      </trkpt>
      <trkpt lat="48.13968" lon="6.32411">
        <ele>340.60000610352</ele>
        <time>2017-07-19T09:22:18Z</time>
      </trkpt>
      <trkpt lat="48.13984" lon="6.32403">
        <ele>340.79998779297</ele>
        <time>2017-07-19T09:22:21Z</time>
      </trkpt>
      <trkpt lat="48.14022" lon="6.32384">
        <ele>341.20001220703</ele>
        <time>2017-07-19T09:22:28Z</time>
      </trkpt>
      <trkpt lat="48.14062" lon="6.32363">
        <ele>341.20001220703</ele>
        <time>2017-07-19T09:22:35Z</time>
      </trkpt>
      <trkpt lat="48.141" lon="6.32345">
        <ele>341.39999389648</ele>
        <time>2017-07-19T09:22:42Z</time>
      </trkpt>
      <trkpt lat="48.14135" lon="6.32327">
        <ele>341.60000610352</ele>
        <time>2017-07-19T09:22:48Z</time>
      </trkpt>
      <trkpt lat="48.14141" lon="6.32324">
        <ele>341.60000610352</ele>
        <time>2017-07-19T09:22:49Z</time>
      </trkpt>
      <trkpt lat="48.14176" lon="6.32306">
        <ele>341.60000610352</ele>
        <time>2017-07-19T09:22:55Z</time>
      </trkpt>
      <trkpt lat="48.14214" lon="6.32287">
        <ele>341.60000610352</ele>
        <time>2017-07-19T09:23:02Z</time>
      </trkpt>
      <trkpt lat="48.1426" lon="6.32265">
        <ele>341.60000610352</ele>
        <time>2017-07-19T09:23:10Z</time>
      </trkpt>
      <trkpt lat="48.14301" lon="6.32245">
        <ele>341.79998779297</ele>
        <time>2017-07-19T09:23:17Z</time>
      </trkpt>
      <trkpt lat="48.14349" lon="6.32218">
        <ele>342</ele>
        <time>2017-07-19T09:23:25Z</time>
      </trkpt>
      <trkpt lat="48.14399" lon="6.32195">
        <ele>342.20001220703</ele>
        <time>2017-07-19T09:23:33Z</time>
      </trkpt>
      <trkpt lat="48.14435" lon="6.32177">
        <ele>342</ele>
        <time>2017-07-19T09:23:39Z</time>
      </trkpt>
      <trkpt lat="48.14472" lon="6.32159">
        <ele>342</ele>
        <time>2017-07-19T09:23:45Z</time>
      </trkpt>
      <trkpt lat="48.14483" lon="6.32153">
        <ele>342</ele>
        <time>2017-07-19T09:23:47Z</time>
      </trkpt>
      <trkpt lat="48.145" lon="6.32145">
        <ele>342</ele>
        <time>2017-07-19T09:23:50Z</time>
      </trkpt>
      <trkpt lat="48.14538" lon="6.32129">
        <ele>342</ele>
        <time>2017-07-19T09:23:56Z</time>
      </trkpt>
      <trkpt lat="48.14573" lon="6.32112">
        <ele>342</ele>
        <time>2017-07-19T09:24:02Z</time>
      </trkpt>
      <trkpt lat="48.14611" lon="6.32092">
        <ele>341.79998779297</ele>
        <time>2017-07-19T09:24:08Z</time>
      </trkpt>
      <trkpt lat="48.1466" lon="6.32068">
        <ele>342</ele>
        <time>2017-07-19T09:24:16Z</time>
      </trkpt>
      <trkpt lat="48.14709" lon="6.32043">
        <ele>342</ele>
        <time>2017-07-19T09:24:24Z</time>
      </trkpt>
      <trkpt lat="48.1475" lon="6.32021">
        <ele>342.20001220703</ele>
        <time>2017-07-19T09:24:31Z</time>
      </trkpt>
      <trkpt lat="48.14791" lon="6.32001">
        <ele>342</ele>
        <time>2017-07-19T09:24:38Z</time>
      </trkpt>
      <trkpt lat="48.1484" lon="6.31976">
        <ele>342</ele>
        <time>2017-07-19T09:24:46Z</time>
      </trkpt>
      <trkpt lat="48.14885" lon="6.31942">
        <ele>342.20001220703</ele>
        <time>2017-07-19T09:24:54Z</time>
      </trkpt>
      <trkpt lat="48.1492" lon="6.31907">
        <ele>342.20001220703</ele>
        <time>2017-07-19T09:25:01Z</time>
      </trkpt>
      <trkpt lat="48.14946" lon="6.31873">
        <ele>342.39999389648</ele>
        <time>2017-07-19T09:25:07Z</time>
      </trkpt>
      <trkpt lat="48.14953" lon="6.31862">
        <ele>342.60000610352</ele>
        <time>2017-07-19T09:25:09Z</time>
      </trkpt>
      <trkpt lat="48.14964" lon="6.31845">
        <ele>343.39999389648</ele>
        <time>2017-07-19T09:25:12Z</time>
      </trkpt>
      <trkpt lat="48.14972" lon="6.31835">
        <ele>343.60000610352</ele>
        <time>2017-07-19T09:25:14Z</time>
      </trkpt>
      <trkpt lat="48.14994" lon="6.3181">
        <ele>344</ele>
        <time>2017-07-19T09:25:19Z</time>
      </trkpt>
      <trkpt lat="48.15023" lon="6.31778">
        <ele>344.20001220703</ele>
        <time>2017-07-19T09:25:25Z</time>
      </trkpt>
      <trkpt lat="48.1506" lon="6.3173">
        <ele>344.60000610352</ele>
        <time>2017-07-19T09:25:33Z</time>
      </trkpt>
      <trkpt lat="48.15088" lon="6.31681">
        <ele>344.39999389648</ele>
        <time>2017-07-19T09:25:40Z</time>
      </trkpt>
      <trkpt lat="48.15117" lon="6.31621">
        <ele>344.39999389648</ele>
        <time>2017-07-19T09:25:48Z</time>
      </trkpt>
      <trkpt lat="48.15147" lon="6.31561">
        <ele>344.39999389648</ele>
        <time>2017-07-19T09:25:56Z</time>
      </trkpt>
      <trkpt lat="48.15178" lon="6.315">
        <ele>344.60000610352</ele>
        <time>2017-07-19T09:26:04Z</time>
      </trkpt>
      <trkpt lat="48.15182" lon="6.31492">
        <ele>344.60000610352</ele>
        <time>2017-07-19T09:26:05Z</time>
      </trkpt>
      <trkpt lat="48.15209" lon="6.31438">
        <ele>344.60000610352</ele>
        <time>2017-07-19T09:26:12Z</time>
      </trkpt>
      <trkpt lat="48.15224" lon="6.31397">
        <ele>344.79998779297</ele>
        <time>2017-07-19T09:26:17Z</time>
      </trkpt>
      <trkpt lat="48.15243" lon="6.31354">
        <ele>344.60000610352</ele>
        <time>2017-07-19T09:26:23Z</time>
      </trkpt>
      <trkpt lat="48.15264" lon="6.3131">
        <ele>344.60000610352</ele>
        <time>2017-07-19T09:26:29Z</time>
      </trkpt>
      <trkpt lat="48.15289" lon="6.31255">
        <ele>345</ele>
        <time>2017-07-19T09:26:37Z</time>
      </trkpt>
      <trkpt lat="48.15291" lon="6.31249">
        <ele>345</ele>
        <time>2017-07-19T09:26:38Z</time>
      </trkpt>
      <trkpt lat="48.15297" lon="6.31238">
        <ele>345.20001220703</ele>
        <time>2017-07-19T09:26:41Z</time>
      </trkpt>
      <trkpt lat="48.153" lon="6.31235">
        <ele>345.79998779297</ele>
        <time>2017-07-19T09:26:43Z</time>
      </trkpt>
      <trkpt lat="48.15302" lon="6.31234">
        <ele>346</ele>
        <time>2017-07-19T09:26:44Z</time>
      </trkpt>
      <trkpt lat="48.15304" lon="6.31232">
        <ele>346.60000610352</ele>
        <time>2017-07-19T09:26:46Z</time>
      </trkpt>
      <trkpt lat="48.15305" lon="6.3123">
        <ele>346.79998779297</ele>
        <time>2017-07-19T09:26:47Z</time>
      </trkpt>
      <trkpt lat="48.15305" lon="6.31227">
        <ele>347.20001220703</ele>
        <time>2017-07-19T09:26:49Z</time>
      </trkpt>
      <trkpt lat="48.15306" lon="6.3122">
        <ele>347.39999389648</ele>
        <time>2017-07-19T09:26:52Z</time>
      </trkpt>
      <trkpt lat="48.15313" lon="6.31199">
        <ele>347.20001220703</ele>
        <time>2017-07-19T09:26:58Z</time>
      </trkpt>
      <trkpt lat="48.15326" lon="6.31176">
        <ele>347</ele>
        <time>2017-07-19T09:27:04Z</time>
      </trkpt>
      <trkpt lat="48.15345" lon="6.31139">
        <ele>347.20001220703</ele>
        <time>2017-07-19T09:27:11Z</time>
      </trkpt>
      <trkpt lat="48.15366" lon="6.31097">
        <ele>347.20001220703</ele>
        <time>2017-07-19T09:27:18Z</time>
      </trkpt>
      <trkpt lat="48.15378" lon="6.31075">
        <ele>347.20001220703</ele>
        <time>2017-07-19T09:27:23Z</time>
      </trkpt>
      <trkpt lat="48.15384" lon="6.31064">
        <ele>347</ele>
        <time>2017-07-19T09:27:39Z</time>
      </trkpt>
      <trkpt lat="48.15385" lon="6.31063">
        <ele>347</ele>
        <time>2017-07-19T09:27:40Z</time>
      </trkpt>
      <trkpt lat="48.15389" lon="6.31054">
        <ele>347.20001220703</ele>
        <time>2017-07-19T09:27:43Z</time>
      </trkpt>
      <trkpt lat="48.15396" lon="6.31044">
        <ele>347.20001220703</ele>
        <time>2017-07-19T09:27:46Z</time>
      </trkpt>
      <trkpt lat="48.15405" lon="6.31031">
        <ele>347.20001220703</ele>
        <time>2017-07-19T09:27:49Z</time>
      </trkpt>
      <trkpt lat="48.15415" lon="6.31018">
        <ele>347.20001220703</ele>
        <time>2017-07-19T09:27:52Z</time>
      </trkpt>
      <trkpt lat="48.15423" lon="6.31009">
        <ele>347.39999389648</ele>
        <time>2017-07-19T09:27:54Z</time>
      </trkpt>
      <trkpt lat="48.15453" lon="6.30978">
        <ele>347.39999389648</ele>
        <time>2017-07-19T09:28:01Z</time>
      </trkpt>
      <trkpt lat="48.15492" lon="6.30947">
        <ele>347.39999389648</ele>
        <time>2017-07-19T09:28:09Z</time>
      </trkpt>
      <trkpt lat="48.15536" lon="6.30921">
        <ele>347.20001220703</ele>
        <time>2017-07-19T09:28:17Z</time>
      </trkpt>
      <trkpt lat="48.15577" lon="6.309">
        <ele>347.60000610352</ele>
        <time>2017-07-19T09:28:24Z</time>
      </trkpt>
      <trkpt lat="48.15626" lon="6.30877">
        <ele>347.60000610352</ele>
        <time>2017-07-19T09:28:32Z</time>
      </trkpt>
      <trkpt lat="48.15669" lon="6.30856">
        <ele>347.79998779297</ele>
        <time>2017-07-19T09:28:39Z</time>
      </trkpt>
      <trkpt lat="48.15693" lon="6.30843">
        <ele>348</ele>
        <time>2017-07-19T09:28:43Z</time>
      </trkpt>
      <trkpt lat="48.15718" lon="6.30831">
        <ele>348</ele>
        <time>2017-07-19T09:28:47Z</time>
      </trkpt>
      <trkpt lat="48.15759" lon="6.3081">
        <ele>348.20001220703</ele>
        <time>2017-07-19T09:28:54Z</time>
      </trkpt>
      <trkpt lat="48.15795" lon="6.30793">
        <ele>348.20001220703</ele>
        <time>2017-07-19T09:29:00Z</time>
      </trkpt>
      <trkpt lat="48.15841" lon="6.3077">
        <ele>348.20001220703</ele>
        <time>2017-07-19T09:29:08Z</time>
      </trkpt>
      <trkpt lat="48.15889" lon="6.30746">
        <ele>348.20001220703</ele>
        <time>2017-07-19T09:29:16Z</time>
      </trkpt>
      <trkpt lat="48.15925" lon="6.30727">
        <ele>348</ele>
        <time>2017-07-19T09:29:22Z</time>
      </trkpt>
      <trkpt lat="48.15981" lon="6.30698">
        <ele>348.20001220703</ele>
        <time>2017-07-19T09:29:31Z</time>
      </trkpt>
      <trkpt lat="48.15987" lon="6.30694">
        <ele>348.20001220703</ele>
        <time>2017-07-19T09:29:32Z</time>
      </trkpt>
      <trkpt lat="48.16039" lon="6.30666">
        <ele>348</ele>
        <time>2017-07-19T09:29:40Z</time>
      </trkpt>
      <trkpt lat="48.16046" lon="6.30663">
        <ele>348</ele>
        <time>2017-07-19T09:29:41Z</time>
      </trkpt>
      <trkpt lat="48.16086" lon="6.30643">
        <ele>348.20001220703</ele>
        <time>2017-07-19T09:29:47Z</time>
      </trkpt>
      <trkpt lat="48.16138" lon="6.30618">
        <ele>348.20001220703</ele>
        <time>2017-07-19T09:29:55Z</time>
      </trkpt>
      <trkpt lat="48.16157" lon="6.30608">
        <ele>348</ele>
        <time>2017-07-19T09:29:58Z</time>
      </trkpt>
      <trkpt lat="48.16201" lon="6.30585">
        <ele>347.79998779297</ele>
        <time>2017-07-19T09:30:05Z</time>
      </trkpt>
      <trkpt lat="48.16258" lon="6.30558">
        <ele>348.20001220703</ele>
        <time>2017-07-19T09:30:14Z</time>
      </trkpt>
      <trkpt lat="48.16264" lon="6.30555">
        <ele>348.20001220703</ele>
        <time>2017-07-19T09:30:15Z</time>
      </trkpt>
      <trkpt lat="48.16309" lon="6.30535">
        <ele>348.39999389648</ele>
        <time>2017-07-19T09:30:23Z</time>
      </trkpt>
      <trkpt lat="48.16325" lon="6.30528">
        <ele>349</ele>
        <time>2017-07-19T09:30:27Z</time>
      </trkpt>
      <trkpt lat="48.16327" lon="6.30527">
        <ele>349.20001220703</ele>
        <time>2017-07-19T09:30:28Z</time>
      </trkpt>
      <trkpt lat="48.16331" lon="6.30525">
        <ele>349.60000610352</ele>
        <time>2017-07-19T09:30:30Z</time>
      </trkpt>
      <trkpt lat="48.16332" lon="6.30519">
        <ele>350.20001220703</ele>
        <time>2017-07-19T09:30:32Z</time>
      </trkpt>
      <trkpt lat="48.16328" lon="6.30507">
        <ele>351</ele>
        <time>2017-07-19T09:30:35Z</time>
      </trkpt>
      <trkpt lat="48.16327" lon="6.30502">
        <ele>351.20001220703</ele>
        <time>2017-07-19T09:30:36Z</time>
      </trkpt>
      <trkpt lat="48.16326" lon="6.30498">
        <ele>351.39999389648</ele>
        <time>2017-07-19T09:30:37Z</time>
      </trkpt>
      <trkpt lat="48.16319" lon="6.30464">
        <ele>351.79998779297</ele>
        <time>2017-07-19T09:30:43Z</time>
      </trkpt>
      <trkpt lat="48.16316" lon="6.30458">
        <ele>351.79998779297</ele>
        <time>2017-07-19T09:30:44Z</time>
      </trkpt>
      <trkpt lat="48.16299" lon="6.30423">
        <ele>350.60000610352</ele>
        <time>2017-07-19T09:30:50Z</time>
      </trkpt>
      <trkpt lat="48.16293" lon="6.30412">
        <ele>350.20001220703</ele>
        <time>2017-07-19T09:30:52Z</time>
      </trkpt>
      <trkpt lat="48.16276" lon="6.30384">
        <ele>349.20001220703</ele>
        <time>2017-07-19T09:30:57Z</time>
      </trkpt>
      <trkpt lat="48.16269" lon="6.30374">
        <ele>349</ele>
        <time>2017-07-19T09:30:59Z</time>
      </trkpt>
      <trkpt lat="48.16249" lon="6.30348">
        <ele>348.20001220703</ele>
        <time>2017-07-19T09:31:05Z</time>
      </trkpt>
      <trkpt lat="48.16248" lon="6.30346">
        <ele>348.20001220703</ele>
        <time>2017-07-19T09:31:06Z</time>
      </trkpt>
      <trkpt lat="48.16246" lon="6.30346">
        <ele>348</ele>
        <time>2017-07-19T09:31:07Z</time>
      </trkpt>
      <trkpt lat="48.16246" lon="6.30348">
        <ele>348</ele>
        <time>2017-07-19T09:31:08Z</time>
      </trkpt>
      <trkpt lat="48.16243" lon="6.3036">
        <ele>347.39999389648</ele>
        <time>2017-07-19T09:31:12Z</time>
      </trkpt>
      <trkpt lat="48.16244" lon="6.30374">
        <ele>347.20001220703</ele>
        <time>2017-07-19T09:31:16Z</time>
      </trkpt>
      <trkpt lat="48.16247" lon="6.30382">
        <ele>347.20001220703</ele>
        <time>2017-07-19T09:31:18Z</time>
      </trkpt>
      <trkpt lat="48.16252" lon="6.30399">
        <ele>347</ele>
        <time>2017-07-19T09:31:22Z</time>
      </trkpt>
      <trkpt lat="48.16256" lon="6.30414">
        <ele>347</ele>
        <time>2017-07-19T09:31:27Z</time>
      </trkpt>
      <trkpt lat="48.1626" lon="6.30401">
        <ele>348.20001220703</ele>
        <time>2017-07-19T09:40:49Z</time>
      </trkpt>
      <trkpt lat="48.16259" lon="6.30403">
        <ele>348</ele>
        <time>2017-07-19T09:40:59Z</time>
      </trkpt>
      <trkpt lat="48.16254" lon="6.304">
        <ele>348</ele>
        <time>2017-07-19T09:41:01Z</time>
      </trkpt>
      <trkpt lat="48.16243" lon="6.30388">
        <ele>348</ele>
        <time>2017-07-19T09:41:06Z</time>
      </trkpt>
      <trkpt lat="48.16241" lon="6.30376">
        <ele>347.79998779297</ele>
        <time>2017-07-19T09:41:11Z</time>
      </trkpt>
      <trkpt lat="48.16244" lon="6.30358">
        <ele>347.79998779297</ele>
        <time>2017-07-19T09:41:18Z</time>
      </trkpt>
      <trkpt lat="48.16248" lon="6.30347">
        <ele>348.20001220703</ele>
        <time>2017-07-19T09:41:23Z</time>
      </trkpt>
      <trkpt lat="48.16256" lon="6.30357">
        <ele>348.39999389648</ele>
        <time>2017-07-19T09:41:27Z</time>
      </trkpt>
      <trkpt lat="48.16264" lon="6.30364">
        <ele>348.60000610352</ele>
        <time>2017-07-19T09:41:32Z</time>
      </trkpt>
      <trkpt lat="48.16271" lon="6.30374">
        <ele>348.60000610352</ele>
        <time>2017-07-19T09:41:36Z</time>
      </trkpt>
      <trkpt lat="48.16286" lon="6.30399">
        <ele>348.79998779297</ele>
        <time>2017-07-19T09:41:43Z</time>
      </trkpt>
      <trkpt lat="48.16303" lon="6.30431">
        <ele>349</ele>
        <time>2017-07-19T09:41:51Z</time>
      </trkpt>
      <trkpt lat="48.16311" lon="6.30447">
        <ele>349.39999389648</ele>
        <time>2017-07-19T09:41:55Z</time>
      </trkpt>
      <trkpt lat="48.1632" lon="6.30468">
        <ele>350.20001220703</ele>
        <time>2017-07-19T09:42:00Z</time>
      </trkpt>
      <trkpt lat="48.16324" lon="6.30476">
        <ele>350.39999389648</ele>
        <time>2017-07-19T09:42:02Z</time>
      </trkpt>
      <trkpt lat="48.1633" lon="6.30492">
        <ele>351.39999389648</ele>
        <time>2017-07-19T09:42:06Z</time>
      </trkpt>
      <trkpt lat="48.16332" lon="6.30497">
        <ele>351.60000610352</ele>
        <time>2017-07-19T09:42:07Z</time>
      </trkpt>
      <trkpt lat="48.16339" lon="6.30539">
        <ele>352.39999389648</ele>
        <time>2017-07-19T09:42:15Z</time>
      </trkpt>
      <trkpt lat="48.16342" lon="6.30581">
        <ele>351.60000610352</ele>
        <time>2017-07-19T09:42:21Z</time>
      </trkpt>
      <trkpt lat="48.1635" lon="6.30639">
        <ele>350.39999389648</ele>
        <time>2017-07-19T09:42:28Z</time>
      </trkpt>
      <trkpt lat="48.16364" lon="6.30702">
        <ele>349.60000610352</ele>
        <time>2017-07-19T09:42:36Z</time>
      </trkpt>
      <trkpt lat="48.16377" lon="6.30754">
        <ele>349.39999389648</ele>
        <time>2017-07-19T09:42:43Z</time>
      </trkpt>
      <trkpt lat="48.16385" lon="6.30796">
        <ele>349.79998779297</ele>
        <time>2017-07-19T09:42:50Z</time>
      </trkpt>
      <trkpt lat="48.16388" lon="6.30812">
        <ele>350</ele>
        <time>2017-07-19T09:42:55Z</time>
      </trkpt>
      <trkpt lat="48.16389" lon="6.30816">
        <ele>350.20001220703</ele>
        <time>2017-07-19T09:42:58Z</time>
      </trkpt>
      <trkpt lat="48.16387" lon="6.30816">
        <ele>350.39999389648</ele>
        <time>2017-07-19T09:43:01Z</time>
      </trkpt>
      <trkpt lat="48.16387" lon="6.30809">
        <ele>350.60000610352</ele>
        <time>2017-07-19T09:43:03Z</time>
      </trkpt>
      <trkpt lat="48.16384" lon="6.30789">
        <ele>350.60000610352</ele>
        <time>2017-07-19T09:43:09Z</time>
      </trkpt>
      <trkpt lat="48.16383" lon="6.3078">
        <ele>349.79998779297</ele>
        <time>2017-07-19T09:45:43Z</time>
      </trkpt>
      <trkpt lat="48.16394" lon="6.30768">
        <ele>349.79998779297</ele>
        <time>2017-07-19T09:45:48Z</time>
      </trkpt>
      <trkpt lat="48.16405" lon="6.30756">
        <ele>349.60000610352</ele>
        <time>2017-07-19T09:45:51Z</time>
      </trkpt>
      <trkpt lat="48.16408" lon="6.30751">
        <ele>349.60000610352</ele>
        <time>2017-07-19T09:45:52Z</time>
      </trkpt>
      <trkpt lat="48.16411" lon="6.30747">
        <ele>349.39999389648</ele>
        <time>2017-07-19T09:45:53Z</time>
      </trkpt>
      <trkpt lat="48.16414" lon="6.30743">
        <ele>349.39999389648</ele>
        <time>2017-07-19T09:45:54Z</time>
      </trkpt>
      <trkpt lat="48.16431" lon="6.30722">
        <ele>349.20001220703</ele>
        <time>2017-07-19T09:45:59Z</time>
      </trkpt>
      <trkpt lat="48.16449" lon="6.30702">
        <ele>349</ele>
        <time>2017-07-19T09:46:03Z</time>
      </trkpt>
      <trkpt lat="48.16461" lon="6.30687">
        <ele>349</ele>
        <time>2017-07-19T09:46:06Z</time>
      </trkpt>
      <trkpt lat="48.16464" lon="6.30681">
        <ele>349</ele>
        <time>2017-07-19T09:46:07Z</time>
      </trkpt>
      <trkpt lat="48.1648" lon="6.30654">
        <ele>349</ele>
        <time>2017-07-19T09:46:12Z</time>
      </trkpt>
      <trkpt lat="48.16484" lon="6.3065">
        <ele>349</ele>
        <time>2017-07-19T09:46:13Z</time>
      </trkpt>
      <trkpt lat="48.16506" lon="6.3062">
        <ele>349.20001220703</ele>
        <time>2017-07-19T09:46:19Z</time>
      </trkpt>
      <trkpt lat="48.16526" lon="6.30592">
        <ele>349.39999389648</ele>
        <time>2017-07-19T09:46:25Z</time>
      </trkpt>
      <trkpt lat="48.16553" lon="6.30558">
        <ele>349.79998779297</ele>
        <time>2017-07-19T09:46:32Z</time>
      </trkpt>
      <trkpt lat="48.16581" lon="6.30525">
        <ele>349.79998779297</ele>
        <time>2017-07-19T09:46:39Z</time>
      </trkpt>
      <trkpt lat="48.1661" lon="6.30491">
        <ele>350.20001220703</ele>
        <time>2017-07-19T09:46:46Z</time>
      </trkpt>
      <trkpt lat="48.16627" lon="6.3047">
        <ele>350.39999389648</ele>
        <time>2017-07-19T09:46:50Z</time>
      </trkpt>
      <trkpt lat="48.16647" lon="6.30446">
        <ele>350.39999389648</ele>
        <time>2017-07-19T09:46:55Z</time>
      </trkpt>
      <trkpt lat="48.16687" lon="6.30406">
        <ele>350</ele>
        <time>2017-07-19T09:47:04Z</time>
      </trkpt>
      <trkpt lat="48.16724" lon="6.30373">
        <ele>350</ele>
        <time>2017-07-19T09:47:12Z</time>
      </trkpt>
      <trkpt lat="48.16738" lon="6.30363">
        <ele>350</ele>
        <time>2017-07-19T09:47:15Z</time>
      </trkpt>
      <trkpt lat="48.16751" lon="6.30352">
        <ele>350.20001220703</ele>
        <time>2017-07-19T09:47:18Z</time>
      </trkpt>
      <trkpt lat="48.16755" lon="6.30349">
        <ele>350.39999389648</ele>
        <time>2017-07-19T09:47:19Z</time>
      </trkpt>
      <trkpt lat="48.16774" lon="6.30339">
        <ele>351.20001220703</ele>
        <time>2017-07-19T09:47:24Z</time>
      </trkpt>
      <trkpt lat="48.16778" lon="6.30339">
        <ele>351.39999389648</ele>
        <time>2017-07-19T09:47:25Z</time>
      </trkpt>
      <trkpt lat="48.16792" lon="6.30332">
        <ele>351.79998779297</ele>
        <time>2017-07-19T09:47:29Z</time>
      </trkpt>
      <trkpt lat="48.16804" lon="6.30324">
        <ele>352.39999389648</ele>
        <time>2017-07-19T09:47:33Z</time>
      </trkpt>
      <trkpt lat="48.16807" lon="6.30315">
        <ele>352.79998779297</ele>
        <time>2017-07-19T09:47:35Z</time>
      </trkpt>
      <trkpt lat="48.16807" lon="6.303">
        <ele>353.60000610352</ele>
        <time>2017-07-19T09:47:39Z</time>
      </trkpt>
      <trkpt lat="48.1681" lon="6.30288">
        <ele>354.20001220703</ele>
        <time>2017-07-19T09:47:42Z</time>
      </trkpt>
      <trkpt lat="48.16813" lon="6.30286">
        <ele>354.20001220703</ele>
        <time>2017-07-19T09:47:43Z</time>
      </trkpt>
      <trkpt lat="48.16827" lon="6.30287">
        <ele>354.20001220703</ele>
        <time>2017-07-19T09:47:46Z</time>
      </trkpt>
      <trkpt lat="48.16848" lon="6.30285">
        <ele>353.39999389648</ele>
        <time>2017-07-19T09:47:50Z</time>
      </trkpt>
      <trkpt lat="48.16859" lon="6.30283">
        <ele>353.39999389648</ele>
        <time>2017-07-19T09:47:52Z</time>
      </trkpt>
      <trkpt lat="48.16898" lon="6.30277">
        <ele>354</ele>
        <time>2017-07-19T09:48:00Z</time>
      </trkpt>
      <trkpt lat="48.16932" lon="6.30275">
        <ele>354.60000610352</ele>
        <time>2017-07-19T09:48:07Z</time>
      </trkpt>
      <trkpt lat="48.16942" lon="6.30275">
        <ele>354.79998779297</ele>
        <time>2017-07-19T09:48:09Z</time>
      </trkpt>
      <trkpt lat="48.16973" lon="6.30272">
        <ele>354.60000610352</ele>
        <time>2017-07-19T09:48:15Z</time>
      </trkpt>
      <trkpt lat="48.17008" lon="6.30268">
        <ele>354.60000610352</ele>
        <time>2017-07-19T09:48:22Z</time>
      </trkpt>
      <trkpt lat="48.17059" lon="6.3027">
        <ele>354.79998779297</ele>
        <time>2017-07-19T09:48:31Z</time>
      </trkpt>
      <trkpt lat="48.17081" lon="6.30275">
        <ele>354.79998779297</ele>
        <time>2017-07-19T09:48:35Z</time>
      </trkpt>
      <trkpt lat="48.17098" lon="6.30281">
        <ele>354.79998779297</ele>
        <time>2017-07-19T09:48:38Z</time>
      </trkpt>
      <trkpt lat="48.17136" lon="6.303">
        <ele>354.79998779297</ele>
        <time>2017-07-19T09:48:45Z</time>
      </trkpt>
      <trkpt lat="48.17177" lon="6.30322">
        <ele>355</ele>
        <time>2017-07-19T09:48:52Z</time>
      </trkpt>
      <trkpt lat="48.17205" lon="6.30344">
        <ele>354.79998779297</ele>
        <time>2017-07-19T09:48:57Z</time>
      </trkpt>
      <trkpt lat="48.17211" lon="6.3035">
        <ele>354.60000610352</ele>
        <time>2017-07-19T09:48:58Z</time>
      </trkpt>
      <trkpt lat="48.17218" lon="6.30355">
        <ele>354.60000610352</ele>
        <time>2017-07-19T09:48:59Z</time>
      </trkpt>
      <trkpt lat="48.17237" lon="6.30363">
        <ele>353.79998779297</ele>
        <time>2017-07-19T09:49:02Z</time>
      </trkpt>
      <trkpt lat="48.17248" lon="6.30373">
        <ele>353.79998779297</ele>
        <time>2017-07-19T09:49:04Z</time>
      </trkpt>
      <trkpt lat="48.17265" lon="6.30388">
        <ele>353.79998779297</ele>
        <time>2017-07-19T09:49:07Z</time>
      </trkpt>
      <trkpt lat="48.173" lon="6.30433">
        <ele>354</ele>
        <time>2017-07-19T09:49:14Z</time>
      </trkpt>
      <trkpt lat="48.17327" lon="6.30487">
        <ele>354</ele>
        <time>2017-07-19T09:49:21Z</time>
      </trkpt>
      <trkpt lat="48.17334" lon="6.30503">
        <ele>354.20001220703</ele>
        <time>2017-07-19T09:49:23Z</time>
      </trkpt>
      <trkpt lat="48.1735" lon="6.30547">
        <ele>354</ele>
        <time>2017-07-19T09:49:28Z</time>
      </trkpt>
      <trkpt lat="48.17362" lon="6.306">
        <ele>354.20001220703</ele>
        <time>2017-07-19T09:49:34Z</time>
      </trkpt>
      <trkpt lat="48.17378" lon="6.3068">
        <ele>354.39999389648</ele>
        <time>2017-07-19T09:49:43Z</time>
      </trkpt>
      <trkpt lat="48.1738" lon="6.3073">
        <ele>354.79998779297</ele>
        <time>2017-07-19T09:49:49Z</time>
      </trkpt>
      <trkpt lat="48.17378" lon="6.30793">
        <ele>355.79998779297</ele>
        <time>2017-07-19T09:49:57Z</time>
      </trkpt>
      <trkpt lat="48.17377" lon="6.30817">
        <ele>356</ele>
        <time>2017-07-19T09:50:00Z</time>
      </trkpt>
      <trkpt lat="48.17376" lon="6.30881">
        <ele>356.20001220703</ele>
        <time>2017-07-19T09:50:08Z</time>
      </trkpt>
      <trkpt lat="48.17377" lon="6.30929">
        <ele>356.79998779297</ele>
        <time>2017-07-19T09:50:14Z</time>
      </trkpt>
      <trkpt lat="48.17378" lon="6.30945">
        <ele>357</ele>
        <time>2017-07-19T09:50:16Z</time>
      </trkpt>
      <trkpt lat="48.17382" lon="6.31014">
        <ele>357.60000610352</ele>
        <time>2017-07-19T09:50:25Z</time>
      </trkpt>
      <trkpt lat="48.17386" lon="6.31051">
        <ele>357.79998779297</ele>
        <time>2017-07-19T09:50:30Z</time>
      </trkpt>
      <trkpt lat="48.17391" lon="6.31079">
        <ele>358.20001220703</ele>
        <time>2017-07-19T09:50:34Z</time>
      </trkpt>
      <trkpt lat="48.17395" lon="6.31093">
        <ele>358.39999389648</ele>
        <time>2017-07-19T09:50:36Z</time>
      </trkpt>
      <trkpt lat="48.17399" lon="6.31115">
        <ele>358.79998779297</ele>
        <time>2017-07-19T09:50:39Z</time>
      </trkpt>
      <trkpt lat="48.17402" lon="6.31122">
        <ele>358.79998779297</ele>
        <time>2017-07-19T09:50:40Z</time>
      </trkpt>
      <trkpt lat="48.17407" lon="6.31135">
        <ele>359</ele>
        <time>2017-07-19T09:50:42Z</time>
      </trkpt>
      <trkpt lat="48.17411" lon="6.31149">
        <ele>359.20001220703</ele>
        <time>2017-07-19T09:50:44Z</time>
      </trkpt>
      <trkpt lat="48.17421" lon="6.31176">
        <ele>359.39999389648</ele>
        <time>2017-07-19T09:50:48Z</time>
      </trkpt>
      <trkpt lat="48.17438" lon="6.31227">
        <ele>359.60000610352</ele>
        <time>2017-07-19T09:50:55Z</time>
      </trkpt>
      <trkpt lat="48.17462" lon="6.31291">
        <ele>359.39999389648</ele>
        <time>2017-07-19T09:51:03Z</time>
      </trkpt>
      <trkpt lat="48.17491" lon="6.3136">
        <ele>358.60000610352</ele>
        <time>2017-07-19T09:51:11Z</time>
      </trkpt>
      <trkpt lat="48.17505" lon="6.31385">
        <ele>358.39999389648</ele>
        <time>2017-07-19T09:51:14Z</time>
      </trkpt>
      <trkpt lat="48.17521" lon="6.31406">
        <ele>357.79998779297</ele>
        <time>2017-07-19T09:51:17Z</time>
      </trkpt>
      <trkpt lat="48.17527" lon="6.31412">
        <ele>357.79998779297</ele>
        <time>2017-07-19T09:51:18Z</time>
      </trkpt>
      <trkpt lat="48.17551" lon="6.3144">
        <ele>357.39999389648</ele>
        <time>2017-07-19T09:51:22Z</time>
      </trkpt>
      <trkpt lat="48.17563" lon="6.31452">
        <ele>357.20001220703</ele>
        <time>2017-07-19T09:51:24Z</time>
      </trkpt>
      <trkpt lat="48.17582" lon="6.31473">
        <ele>356.60000610352</ele>
        <time>2017-07-19T09:51:27Z</time>
      </trkpt>
      <trkpt lat="48.17607" lon="6.31499">
        <ele>356.20001220703</ele>
        <time>2017-07-19T09:51:31Z</time>
      </trkpt>
      <trkpt lat="48.17647" lon="6.31553">
        <ele>355.60000610352</ele>
        <time>2017-07-19T09:51:38Z</time>
      </trkpt>
      <trkpt lat="48.17671" lon="6.31599">
        <ele>354.79998779297</ele>
        <time>2017-07-19T09:51:43Z</time>
      </trkpt>
      <trkpt lat="48.17681" lon="6.31616">
        <ele>354.60000610352</ele>
        <time>2017-07-19T09:51:45Z</time>
      </trkpt>
      <trkpt lat="48.17697" lon="6.31654">
        <ele>354.20001220703</ele>
        <time>2017-07-19T09:51:49Z</time>
      </trkpt>
      <trkpt lat="48.17706" lon="6.31681">
        <ele>354.20001220703</ele>
        <time>2017-07-19T09:51:52Z</time>
      </trkpt>
      <trkpt lat="48.17713" lon="6.31706">
        <ele>354.20001220703</ele>
        <time>2017-07-19T09:51:55Z</time>
      </trkpt>
      <trkpt lat="48.17723" lon="6.31747">
        <ele>354.39999389648</ele>
        <time>2017-07-19T09:52:00Z</time>
      </trkpt>
      <trkpt lat="48.17726" lon="6.31762">
        <ele>354.39999389648</ele>
        <time>2017-07-19T09:52:02Z</time>
      </trkpt>
      <trkpt lat="48.17734" lon="6.31816">
        <ele>353.79998779297</ele>
        <time>2017-07-19T09:52:09Z</time>
      </trkpt>
      <trkpt lat="48.17735" lon="6.31838">
        <ele>353.60000610352</ele>
        <time>2017-07-19T09:52:12Z</time>
      </trkpt>
      <trkpt lat="48.17741" lon="6.31877">
        <ele>354</ele>
        <time>2017-07-19T09:52:17Z</time>
      </trkpt>
      <trkpt lat="48.17757" lon="6.31938">
        <ele>354</ele>
        <time>2017-07-19T09:52:25Z</time>
      </trkpt>
      <trkpt lat="48.17785" lon="6.32003">
        <ele>354</ele>
        <time>2017-07-19T09:52:33Z</time>
      </trkpt>
      <trkpt lat="48.17823" lon="6.3208">
        <ele>354</ele>
        <time>2017-07-19T09:52:41Z</time>
      </trkpt>
      <trkpt lat="48.17843" lon="6.32132">
        <ele>353.39999389648</ele>
        <time>2017-07-19T09:52:46Z</time>
      </trkpt>
      <trkpt lat="48.17847" lon="6.32152">
        <ele>353.20001220703</ele>
        <time>2017-07-19T09:52:48Z</time>
      </trkpt>
      <trkpt lat="48.17849" lon="6.32172">
        <ele>353</ele>
        <time>2017-07-19T09:52:50Z</time>
      </trkpt>
      <trkpt lat="48.17848" lon="6.322">
        <ele>352.39999389648</ele>
        <time>2017-07-19T09:52:53Z</time>
      </trkpt>
      <trkpt lat="48.17836" lon="6.32265">
        <ele>352.20001220703</ele>
        <time>2017-07-19T09:53:00Z</time>
      </trkpt>
      <trkpt lat="48.17816" lon="6.32315">
        <ele>353.20001220703</ele>
        <time>2017-07-19T09:53:06Z</time>
      </trkpt>
      <trkpt lat="48.17794" lon="6.3236">
        <ele>353.20001220703</ele>
        <time>2017-07-19T09:53:12Z</time>
      </trkpt>
      <trkpt lat="48.17764" lon="6.32409">
        <ele>353.39999389648</ele>
        <time>2017-07-19T09:53:19Z</time>
      </trkpt>
      <trkpt lat="48.1776" lon="6.32416">
        <ele>353.39999389648</ele>
        <time>2017-07-19T09:53:20Z</time>
      </trkpt>
      <trkpt lat="48.17733" lon="6.32464">
        <ele>353.39999389648</ele>
        <time>2017-07-19T09:53:27Z</time>
      </trkpt>
      <trkpt lat="48.17696" lon="6.32527">
        <ele>353.60000610352</ele>
        <time>2017-07-19T09:53:36Z</time>
      </trkpt>
      <trkpt lat="48.17669" lon="6.32573">
        <ele>353.79998779297</ele>
        <time>2017-07-19T09:53:43Z</time>
      </trkpt>
      <trkpt lat="48.17642" lon="6.32621">
        <ele>354</ele>
        <time>2017-07-19T09:53:50Z</time>
      </trkpt>
      <trkpt lat="48.17617" lon="6.32669">
        <ele>354</ele>
        <time>2017-07-19T09:53:57Z</time>
      </trkpt>
      <trkpt lat="48.17583" lon="6.32723">
        <ele>353.79998779297</ele>
        <time>2017-07-19T09:54:05Z</time>
      </trkpt>
      <trkpt lat="48.17557" lon="6.32769">
        <ele>353.60000610352</ele>
        <time>2017-07-19T09:54:12Z</time>
      </trkpt>
      <trkpt lat="48.17521" lon="6.32828">
        <ele>353.39999389648</ele>
        <time>2017-07-19T09:54:21Z</time>
      </trkpt>
      <trkpt lat="48.17501" lon="6.32872">
        <ele>353.79998779297</ele>
        <time>2017-07-19T09:54:27Z</time>
      </trkpt>
      <trkpt lat="48.17498" lon="6.3288">
        <ele>354</ele>
        <time>2017-07-19T09:54:28Z</time>
      </trkpt>
      <trkpt lat="48.1748" lon="6.32938">
        <ele>353.79998779297</ele>
        <time>2017-07-19T09:54:35Z</time>
      </trkpt>
      <trkpt lat="48.17468" lon="6.33001">
        <ele>353.20001220703</ele>
        <time>2017-07-19T09:54:42Z</time>
      </trkpt>
      <trkpt lat="48.17456" lon="6.33069">
        <ele>353.20001220703</ele>
        <time>2017-07-19T09:54:50Z</time>
      </trkpt>
      <trkpt lat="48.17449" lon="6.33132">
        <ele>353.79998779297</ele>
        <time>2017-07-19T09:54:57Z</time>
      </trkpt>
      <trkpt lat="48.1745" lon="6.33188">
        <ele>354.20001220703</ele>
        <time>2017-07-19T09:55:03Z</time>
      </trkpt>
      <trkpt lat="48.17457" lon="6.33256">
        <ele>354</ele>
        <time>2017-07-19T09:55:10Z</time>
      </trkpt>
      <trkpt lat="48.17472" lon="6.3333">
        <ele>353.60000610352</ele>
        <time>2017-07-19T09:55:18Z</time>
      </trkpt>
      <trkpt lat="48.17484" lon="6.33408">
        <ele>353.79998779297</ele>
        <time>2017-07-19T09:55:26Z</time>
      </trkpt>
      <trkpt lat="48.17478" lon="6.33483">
        <ele>354</ele>
        <time>2017-07-19T09:55:34Z</time>
      </trkpt>
      <trkpt lat="48.17475" lon="6.33491">
        <ele>354</ele>
        <time>2017-07-19T09:55:35Z</time>
      </trkpt>
      <trkpt lat="48.17467" lon="6.33515">
        <ele>354</ele>
        <time>2017-07-19T09:55:38Z</time>
      </trkpt>
      <trkpt lat="48.17447" lon="6.33583">
        <ele>354</ele>
        <time>2017-07-19T09:55:46Z</time>
      </trkpt>
      <trkpt lat="48.17443" lon="6.33619">
        <ele>353.79998779297</ele>
        <time>2017-07-19T09:55:50Z</time>
      </trkpt>
      <trkpt lat="48.17444" lon="6.33647">
        <ele>353.60000610352</ele>
        <time>2017-07-19T09:55:53Z</time>
      </trkpt>
      <trkpt lat="48.17446" lon="6.33665">
        <ele>353.60000610352</ele>
        <time>2017-07-19T09:55:55Z</time>
      </trkpt>
      <trkpt lat="48.1745" lon="6.33692">
        <ele>353.60000610352</ele>
        <time>2017-07-19T09:55:58Z</time>
      </trkpt>
      <trkpt lat="48.17464" lon="6.33741">
        <ele>353.79998779297</ele>
        <time>2017-07-19T09:56:04Z</time>
      </trkpt>
      <trkpt lat="48.17479" lon="6.33803">
        <ele>354</ele>
        <time>2017-07-19T09:56:11Z</time>
      </trkpt>
      <trkpt lat="48.17486" lon="6.33873">
        <ele>353.39999389648</ele>
        <time>2017-07-19T09:56:18Z</time>
      </trkpt>
      <trkpt lat="48.17489" lon="6.33935">
        <ele>353.60000610352</ele>
        <time>2017-07-19T09:56:24Z</time>
      </trkpt>
      <trkpt lat="48.17491" lon="6.33991">
        <ele>353</ele>
        <time>2017-07-19T09:56:30Z</time>
      </trkpt>
      <trkpt lat="48.17488" lon="6.34062">
        <ele>353.39999389648</ele>
        <time>2017-07-19T09:56:38Z</time>
      </trkpt>
      <trkpt lat="48.1748" lon="6.34131">
        <ele>353.79998779297</ele>
        <time>2017-07-19T09:56:46Z</time>
      </trkpt>
      <trkpt lat="48.17476" lon="6.34148">
        <ele>353.60000610352</ele>
        <time>2017-07-19T09:56:48Z</time>
      </trkpt>
      <trkpt lat="48.1747" lon="6.34174">
        <ele>353.60000610352</ele>
        <time>2017-07-19T09:56:51Z</time>
      </trkpt>
      <trkpt lat="48.17445" lon="6.34251">
        <ele>353.79998779297</ele>
        <time>2017-07-19T09:57:00Z</time>
      </trkpt>
      <trkpt lat="48.17429" lon="6.34301">
        <ele>354</ele>
        <time>2017-07-19T09:57:06Z</time>
      </trkpt>
      <trkpt lat="48.17406" lon="6.34373">
        <ele>354.20001220703</ele>
        <time>2017-07-19T09:57:15Z</time>
      </trkpt>
      <trkpt lat="48.1739" lon="6.34428">
        <ele>354.39999389648</ele>
        <time>2017-07-19T09:57:22Z</time>
      </trkpt>
      <trkpt lat="48.17373" lon="6.34473">
        <ele>354.20001220703</ele>
        <time>2017-07-19T09:57:28Z</time>
      </trkpt>
      <trkpt lat="48.17367" lon="6.34487">
        <ele>354</ele>
        <time>2017-07-19T09:57:30Z</time>
      </trkpt>
      <trkpt lat="48.17342" lon="6.34533">
        <ele>354</ele>
        <time>2017-07-19T09:57:37Z</time>
      </trkpt>
      <trkpt lat="48.17323" lon="6.34562">
        <ele>354</ele>
        <time>2017-07-19T09:57:42Z</time>
      </trkpt>
      <trkpt lat="48.17291" lon="6.34605">
        <ele>353.79998779297</ele>
        <time>2017-07-19T09:57:50Z</time>
      </trkpt>
      <trkpt lat="48.1726" lon="6.34654">
        <ele>353.39999389648</ele>
        <time>2017-07-19T09:57:58Z</time>
      </trkpt>
      <trkpt lat="48.17239" lon="6.34694">
        <ele>353.60000610352</ele>
        <time>2017-07-19T09:58:04Z</time>
      </trkpt>
      <trkpt lat="48.17214" lon="6.34744">
        <ele>354</ele>
        <time>2017-07-19T09:58:11Z</time>
      </trkpt>
      <trkpt lat="48.17194" lon="6.34786">
        <ele>354</ele>
        <time>2017-07-19T09:58:17Z</time>
      </trkpt>
      <trkpt lat="48.17167" lon="6.34842">
        <ele>354</ele>
        <time>2017-07-19T09:58:25Z</time>
      </trkpt>
      <trkpt lat="48.17148" lon="6.34881">
        <ele>354</ele>
        <time>2017-07-19T09:58:31Z</time>
      </trkpt>
      <trkpt lat="48.17122" lon="6.34932">
        <ele>353.79998779297</ele>
        <time>2017-07-19T09:58:39Z</time>
      </trkpt>
      <trkpt lat="48.17104" lon="6.34969">
        <ele>353.79998779297</ele>
        <time>2017-07-19T09:58:45Z</time>
      </trkpt>
      <trkpt lat="48.17086" lon="6.35005">
        <ele>353.79998779297</ele>
        <time>2017-07-19T09:58:51Z</time>
      </trkpt>
      <trkpt lat="48.17066" lon="6.35044">
        <ele>353.39999389648</ele>
        <time>2017-07-19T09:58:57Z</time>
      </trkpt>
      <trkpt lat="48.17043" lon="6.3509">
        <ele>353.39999389648</ele>
        <time>2017-07-19T09:59:04Z</time>
      </trkpt>
      <trkpt lat="48.17037" lon="6.35102">
        <ele>353.39999389648</ele>
        <time>2017-07-19T09:59:06Z</time>
      </trkpt>
      <trkpt lat="48.17026" lon="6.35126">
        <ele>353.60000610352</ele>
        <time>2017-07-19T09:59:10Z</time>
      </trkpt>
      <trkpt lat="48.17012" lon="6.35154">
        <ele>353.79998779297</ele>
        <time>2017-07-19T09:59:16Z</time>
      </trkpt>
      <trkpt lat="48.16991" lon="6.35196">
        <ele>354</ele>
        <time>2017-07-19T09:59:24Z</time>
      </trkpt>
      <trkpt lat="48.16988" lon="6.35202">
        <ele>354</ele>
        <time>2017-07-19T09:59:25Z</time>
      </trkpt>
      <trkpt lat="48.1698" lon="6.35226">
        <ele>354</ele>
        <time>2017-07-19T09:59:29Z</time>
      </trkpt>
      <trkpt lat="48.16968" lon="6.35283">
        <ele>353.79998779297</ele>
        <time>2017-07-19T09:59:37Z</time>
      </trkpt>
      <trkpt lat="48.16967" lon="6.35313">
        <ele>353.60000610352</ele>
        <time>2017-07-19T09:59:41Z</time>
      </trkpt>
      <trkpt lat="48.16968" lon="6.35328">
        <ele>353.60000610352</ele>
        <time>2017-07-19T09:59:43Z</time>
      </trkpt>
      <trkpt lat="48.16973" lon="6.35366">
        <ele>353.39999389648</ele>
        <time>2017-07-19T09:59:48Z</time>
      </trkpt>
      <trkpt lat="48.16975" lon="6.35373">
        <ele>353.39999389648</ele>
        <time>2017-07-19T09:59:49Z</time>
      </trkpt>
      <trkpt lat="48.1698" lon="6.35394">
        <ele>353.20001220703</ele>
        <time>2017-07-19T09:59:52Z</time>
      </trkpt>
      <trkpt lat="48.16985" lon="6.35408">
        <ele>353.20001220703</ele>
        <time>2017-07-19T09:59:54Z</time>
      </trkpt>
      <trkpt lat="48.17006" lon="6.35451">
        <ele>353.20001220703</ele>
        <time>2017-07-19T10:00:00Z</time>
      </trkpt>
      <trkpt lat="48.17032" lon="6.35491">
        <ele>353.20001220703</ele>
        <time>2017-07-19T10:00:06Z</time>
      </trkpt>
      <trkpt lat="48.17064" lon="6.35544">
        <ele>353.20001220703</ele>
        <time>2017-07-19T10:00:14Z</time>
      </trkpt>
      <trkpt lat="48.17068" lon="6.35549">
        <ele>353.20001220703</ele>
        <time>2017-07-19T10:00:15Z</time>
      </trkpt>
      <trkpt lat="48.17084" lon="6.35573">
        <ele>353</ele>
        <time>2017-07-19T10:00:19Z</time>
      </trkpt>
      <trkpt lat="48.17088" lon="6.35578">
        <ele>353</ele>
        <time>2017-07-19T10:00:20Z</time>
      </trkpt>
      <trkpt lat="48.17101" lon="6.35586">
        <ele>353</ele>
        <time>2017-07-19T10:00:23Z</time>
      </trkpt>
      <trkpt lat="48.17125" lon="6.35585">
        <ele>353.39999389648</ele>
        <time>2017-07-19T10:00:27Z</time>
      </trkpt>
      <trkpt lat="48.17131" lon="6.35584">
        <ele>353.39999389648</ele>
        <time>2017-07-19T10:00:28Z</time>
      </trkpt>
      <trkpt lat="48.17168" lon="6.35572">
        <ele>353.79998779297</ele>
        <time>2017-07-19T10:00:34Z</time>
      </trkpt>
      <trkpt lat="48.17211" lon="6.35563">
        <ele>354</ele>
        <time>2017-07-19T10:00:41Z</time>
      </trkpt>
      <trkpt lat="48.17252" lon="6.35551">
        <ele>354</ele>
        <time>2017-07-19T10:00:48Z</time>
      </trkpt>
      <trkpt lat="48.17299" lon="6.35537">
        <ele>353.79998779297</ele>
        <time>2017-07-19T10:00:55Z</time>
      </trkpt>
      <trkpt lat="48.17346" lon="6.35526">
        <ele>353.79998779297</ele>
        <time>2017-07-19T10:01:02Z</time>
      </trkpt>
      <trkpt lat="48.17392" lon="6.35514">
        <ele>353.39999389648</ele>
        <time>2017-07-19T10:01:09Z</time>
      </trkpt>
      <trkpt lat="48.17436" lon="6.35501">
        <ele>353.39999389648</ele>
        <time>2017-07-19T10:01:16Z</time>
      </trkpt>
      <trkpt lat="48.17475" lon="6.35492">
        <ele>353.60000610352</ele>
        <time>2017-07-19T10:01:22Z</time>
      </trkpt>
      <trkpt lat="48.17495" lon="6.35493">
        <ele>353.60000610352</ele>
        <time>2017-07-19T10:01:25Z</time>
      </trkpt>
      <trkpt lat="48.17515" lon="6.35497">
        <ele>353.60000610352</ele>
        <time>2017-07-19T10:01:28Z</time>
      </trkpt>
      <trkpt lat="48.1756" lon="6.35522">
        <ele>353.60000610352</ele>
        <time>2017-07-19T10:01:35Z</time>
      </trkpt>
      <trkpt lat="48.17584" lon="6.35551">
        <ele>353.60000610352</ele>
        <time>2017-07-19T10:01:40Z</time>
      </trkpt>
      <trkpt lat="48.17605" lon="6.35588">
        <ele>353.60000610352</ele>
        <time>2017-07-19T10:01:45Z</time>
      </trkpt>
      <trkpt lat="48.17618" lon="6.35622">
        <ele>353.60000610352</ele>
        <time>2017-07-19T10:01:49Z</time>
      </trkpt>
      <trkpt lat="48.17622" lon="6.35639">
        <ele>353.60000610352</ele>
        <time>2017-07-19T10:01:51Z</time>
      </trkpt>
      <trkpt lat="48.17629" lon="6.35689">
        <ele>353.20001220703</ele>
        <time>2017-07-19T10:01:56Z</time>
      </trkpt>
      <trkpt lat="48.17627" lon="6.35749">
        <ele>353.20001220703</ele>
        <time>2017-07-19T10:02:02Z</time>
      </trkpt>
      <trkpt lat="48.17613" lon="6.35818">
        <ele>353.39999389648</ele>
        <time>2017-07-19T10:02:09Z</time>
      </trkpt>
      <trkpt lat="48.17596" lon="6.35902">
        <ele>353.39999389648</ele>
        <time>2017-07-19T10:02:18Z</time>
      </trkpt>
      <trkpt lat="48.17583" lon="6.35971">
        <ele>353.20001220703</ele>
        <time>2017-07-19T10:02:26Z</time>
      </trkpt>
      <trkpt lat="48.17571" lon="6.36031">
        <ele>353.39999389648</ele>
        <time>2017-07-19T10:02:33Z</time>
      </trkpt>
      <trkpt lat="48.17559" lon="6.36098">
        <ele>353.39999389648</ele>
        <time>2017-07-19T10:02:41Z</time>
      </trkpt>
      <trkpt lat="48.17548" lon="6.36186">
        <ele>353.20001220703</ele>
        <time>2017-07-19T10:02:51Z</time>
      </trkpt>
      <trkpt lat="48.17545" lon="6.3624">
        <ele>353.20001220703</ele>
        <time>2017-07-19T10:02:58Z</time>
      </trkpt>
      <trkpt lat="48.17548" lon="6.363">
        <ele>353.39999389648</ele>
        <time>2017-07-19T10:03:06Z</time>
      </trkpt>
      <trkpt lat="48.1755" lon="6.36361">
        <ele>352.79998779297</ele>
        <time>2017-07-19T10:03:13Z</time>
      </trkpt>
      <trkpt lat="48.17559" lon="6.36428">
        <ele>352.79998779297</ele>
        <time>2017-07-19T10:03:20Z</time>
      </trkpt>
      <trkpt lat="48.17577" lon="6.36482">
        <ele>352.79998779297</ele>
        <time>2017-07-19T10:03:26Z</time>
      </trkpt>
      <trkpt lat="48.17601" lon="6.36528">
        <ele>352.39999389648</ele>
        <time>2017-07-19T10:03:32Z</time>
      </trkpt>
      <trkpt lat="48.17609" lon="6.36541">
        <ele>352.39999389648</ele>
        <time>2017-07-19T10:03:34Z</time>
      </trkpt>
      <trkpt lat="48.17629" lon="6.36563">
        <ele>352.20001220703</ele>
        <time>2017-07-19T10:03:38Z</time>
      </trkpt>
      <trkpt lat="48.17673" lon="6.36606">
        <ele>352.60000610352</ele>
        <time>2017-07-19T10:03:46Z</time>
      </trkpt>
      <trkpt lat="48.17718" lon="6.3665">
        <ele>352.79998779297</ele>
        <time>2017-07-19T10:03:54Z</time>
      </trkpt>
      <trkpt lat="48.17728" lon="6.36661">
        <ele>352.79998779297</ele>
        <time>2017-07-19T10:03:56Z</time>
      </trkpt>
      <trkpt lat="48.17764" lon="6.36704">
        <ele>352.79998779297</ele>
        <time>2017-07-19T10:04:03Z</time>
      </trkpt>
      <trkpt lat="48.17789" lon="6.36749">
        <ele>352.60000610352</ele>
        <time>2017-07-19T10:04:09Z</time>
      </trkpt>
      <trkpt lat="48.17807" lon="6.36803">
        <ele>352.60000610352</ele>
        <time>2017-07-19T10:04:15Z</time>
      </trkpt>
      <trkpt lat="48.1781" lon="6.36813">
        <ele>352.60000610352</ele>
        <time>2017-07-19T10:04:16Z</time>
      </trkpt>
      <trkpt lat="48.17817" lon="6.36854">
        <ele>352.60000610352</ele>
        <time>2017-07-19T10:04:20Z</time>
      </trkpt>
      <trkpt lat="48.1782" lon="6.36908">
        <ele>352.79998779297</ele>
        <time>2017-07-19T10:04:25Z</time>
      </trkpt>
      <trkpt lat="48.17814" lon="6.36971">
        <ele>352.79998779297</ele>
        <time>2017-07-19T10:04:31Z</time>
      </trkpt>
      <trkpt lat="48.17799" lon="6.37045">
        <ele>353</ele>
        <time>2017-07-19T10:04:39Z</time>
      </trkpt>
      <trkpt lat="48.17781" lon="6.37125">
        <ele>352.60000610352</ele>
        <time>2017-07-19T10:04:48Z</time>
      </trkpt>
      <trkpt lat="48.17777" lon="6.37143">
        <ele>352.60000610352</ele>
        <time>2017-07-19T10:04:50Z</time>
      </trkpt>
      <trkpt lat="48.17763" lon="6.37208">
        <ele>352.39999389648</ele>
        <time>2017-07-19T10:04:57Z</time>
      </trkpt>
      <trkpt lat="48.17758" lon="6.37226">
        <ele>352.39999389648</ele>
        <time>2017-07-19T10:04:59Z</time>
      </trkpt>
      <trkpt lat="48.17755" lon="6.37255">
        <ele>352.39999389648</ele>
        <time>2017-07-19T10:05:02Z</time>
      </trkpt>
      <trkpt lat="48.17752" lon="6.37294">
        <ele>352.39999389648</ele>
        <time>2017-07-19T10:05:06Z</time>
      </trkpt>
      <trkpt lat="48.17752" lon="6.37314">
        <ele>352.39999389648</ele>
        <time>2017-07-19T10:05:08Z</time>
      </trkpt>
      <trkpt lat="48.17754" lon="6.37342">
        <ele>352.60000610352</ele>
        <time>2017-07-19T10:05:11Z</time>
      </trkpt>
      <trkpt lat="48.17759" lon="6.3737">
        <ele>352.60000610352</ele>
        <time>2017-07-19T10:05:14Z</time>
      </trkpt>
      <trkpt lat="48.17764" lon="6.37396">
        <ele>352.79998779297</ele>
        <time>2017-07-19T10:05:17Z</time>
      </trkpt>
      <trkpt lat="48.1777" lon="6.37411">
        <ele>352.79998779297</ele>
        <time>2017-07-19T10:05:19Z</time>
      </trkpt>
      <trkpt lat="48.17794" lon="6.37462">
        <ele>353.20001220703</ele>
        <time>2017-07-19T10:05:26Z</time>
      </trkpt>
      <trkpt lat="48.17822" lon="6.37503">
        <ele>353</ele>
        <time>2017-07-19T10:05:32Z</time>
      </trkpt>
      <trkpt lat="48.17864" lon="6.3756">
        <ele>353</ele>
        <time>2017-07-19T10:05:41Z</time>
      </trkpt>
      <trkpt lat="48.17873" lon="6.37573">
        <ele>353</ele>
        <time>2017-07-19T10:05:43Z</time>
      </trkpt>
      <trkpt lat="48.17885" lon="6.37596">
        <ele>352.79998779297</ele>
        <time>2017-07-19T10:05:46Z</time>
      </trkpt>
      <trkpt lat="48.17906" lon="6.37643">
        <ele>352.79998779297</ele>
        <time>2017-07-19T10:05:52Z</time>
      </trkpt>
      <trkpt lat="48.17917" lon="6.37688">
        <ele>352.79998779297</ele>
        <time>2017-07-19T10:05:57Z</time>
      </trkpt>
      <trkpt lat="48.17921" lon="6.37716">
        <ele>352.79998779297</ele>
        <time>2017-07-19T10:06:00Z</time>
      </trkpt>
      <trkpt lat="48.17923" lon="6.37735">
        <ele>352.79998779297</ele>
        <time>2017-07-19T10:06:02Z</time>
      </trkpt>
      <trkpt lat="48.17924" lon="6.37801">
        <ele>352.79998779297</ele>
        <time>2017-07-19T10:06:09Z</time>
      </trkpt>
      <trkpt lat="48.17916" lon="6.37852">
        <ele>352.60000610352</ele>
        <time>2017-07-19T10:06:15Z</time>
      </trkpt>
      <trkpt lat="48.17904" lon="6.37897">
        <ele>352.60000610352</ele>
        <time>2017-07-19T10:06:22Z</time>
      </trkpt>
      <trkpt lat="48.1789" lon="6.37946">
        <ele>352.60000610352</ele>
        <time>2017-07-19T10:06:31Z</time>
      </trkpt>
      <trkpt lat="48.17886" lon="6.37958">
        <ele>352.60000610352</ele>
        <time>2017-07-19T10:06:36Z</time>
      </trkpt>
      <trkpt lat="48.17878" lon="6.37982">
        <ele>352.60000610352</ele>
        <time>2017-07-19T10:06:42Z</time>
      </trkpt>
      <trkpt lat="48.17866" lon="6.3802">
        <ele>352.79998779297</ele>
        <time>2017-07-19T10:06:48Z</time>
      </trkpt>
      <trkpt lat="48.17852" lon="6.3807">
        <ele>353</ele>
        <time>2017-07-19T10:06:55Z</time>
      </trkpt>
      <trkpt lat="48.17836" lon="6.38124">
        <ele>353.20001220703</ele>
        <time>2017-07-19T10:07:02Z</time>
      </trkpt>
      <trkpt lat="48.17826" lon="6.38184">
        <ele>353.20001220703</ele>
        <time>2017-07-19T10:07:09Z</time>
      </trkpt>
      <trkpt lat="48.17823" lon="6.38219">
        <ele>353</ele>
        <time>2017-07-19T10:07:13Z</time>
      </trkpt>
      <trkpt lat="48.17822" lon="6.38236">
        <ele>353</ele>
        <time>2017-07-19T10:07:15Z</time>
      </trkpt>
      <trkpt lat="48.17824" lon="6.38299">
        <ele>352.60000610352</ele>
        <time>2017-07-19T10:07:22Z</time>
      </trkpt>
      <trkpt lat="48.17824" lon="6.38316">
        <ele>352.60000610352</ele>
        <time>2017-07-19T10:07:24Z</time>
      </trkpt>
      <trkpt lat="48.17829" lon="6.38343">
        <ele>352.60000610352</ele>
        <time>2017-07-19T10:07:27Z</time>
      </trkpt>
      <trkpt lat="48.17844" lon="6.38402">
        <ele>352.39999389648</ele>
        <time>2017-07-19T10:07:34Z</time>
      </trkpt>
      <trkpt lat="48.1786" lon="6.38458">
        <ele>352.60000610352</ele>
        <time>2017-07-19T10:07:41Z</time>
      </trkpt>
      <trkpt lat="48.17877" lon="6.38501">
        <ele>352.60000610352</ele>
        <time>2017-07-19T10:07:48Z</time>
      </trkpt>
      <trkpt lat="48.17899" lon="6.38538">
        <ele>352.39999389648</ele>
        <time>2017-07-19T10:07:55Z</time>
      </trkpt>
      <trkpt lat="48.17921" lon="6.38573">
        <ele>352.20001220703</ele>
        <time>2017-07-19T10:08:02Z</time>
      </trkpt>
      <trkpt lat="48.17943" lon="6.38599">
        <ele>352.20001220703</ele>
        <time>2017-07-19T10:08:08Z</time>
      </trkpt>
      <trkpt lat="48.1797" lon="6.38636">
        <ele>352.20001220703</ele>
        <time>2017-07-19T10:08:15Z</time>
      </trkpt>
      <trkpt lat="48.17991" lon="6.38666">
        <ele>352.20001220703</ele>
        <time>2017-07-19T10:08:21Z</time>
      </trkpt>
      <trkpt lat="48.18013" lon="6.38693">
        <ele>353.39999389648</ele>
        <time>2017-07-19T10:08:28Z</time>
      </trkpt>
      <trkpt lat="48.18015" lon="6.38697">
        <ele>353.39999389648</ele>
        <time>2017-07-19T10:08:29Z</time>
      </trkpt>
      <trkpt lat="48.18023" lon="6.38703">
        <ele>353.60000610352</ele>
        <time>2017-07-19T10:08:33Z</time>
      </trkpt>
      <trkpt lat="48.1802" lon="6.38718">
        <ele>357.60000610352</ele>
        <time>2017-07-19T11:32:39Z</time>
      </trkpt>
      <trkpt lat="48.18025" lon="6.38717">
        <ele>357.79998779297</ele>
        <time>2017-07-19T11:32:52Z</time>
      </trkpt>
      <trkpt lat="48.18029" lon="6.38722">
        <ele>357.79998779297</ele>
        <time>2017-07-19T11:32:55Z</time>
      </trkpt>
      <trkpt lat="48.18041" lon="6.38735">
        <ele>357.79998779297</ele>
        <time>2017-07-19T11:33:00Z</time>
      </trkpt>
      <trkpt lat="48.18065" lon="6.38767">
        <ele>357.39999389648</ele>
        <time>2017-07-19T11:33:09Z</time>
      </trkpt>
      <trkpt lat="48.18088" lon="6.38803">
        <ele>357</ele>
        <time>2017-07-19T11:33:16Z</time>
      </trkpt>
      <trkpt lat="48.18092" lon="6.38809">
        <ele>356.79998779297</ele>
        <time>2017-07-19T11:33:17Z</time>
      </trkpt>
      <trkpt lat="48.18098" lon="6.38821">
        <ele>356.60000610352</ele>
        <time>2017-07-19T11:33:19Z</time>
      </trkpt>
      <trkpt lat="48.18104" lon="6.38832">
        <ele>356.39999389648</ele>
        <time>2017-07-19T11:33:21Z</time>
      </trkpt>
      <trkpt lat="48.18122" lon="6.38877">
        <ele>356.39999389648</ele>
        <time>2017-07-19T11:33:28Z</time>
      </trkpt>
      <trkpt lat="48.18139" lon="6.38921">
        <ele>356.79998779297</ele>
        <time>2017-07-19T11:33:35Z</time>
      </trkpt>
      <trkpt lat="48.18159" lon="6.38979">
        <ele>356.79998779297</ele>
        <time>2017-07-19T11:33:44Z</time>
      </trkpt>
      <trkpt lat="48.18175" lon="6.39015">
        <ele>356.60000610352</ele>
        <time>2017-07-19T11:33:50Z</time>
      </trkpt>
      <trkpt lat="48.18198" lon="6.39043">
        <ele>356.79998779297</ele>
        <time>2017-07-19T11:33:56Z</time>
      </trkpt>
      <trkpt lat="48.18215" lon="6.39057">
        <ele>357</ele>
        <time>2017-07-19T11:34:00Z</time>
      </trkpt>
      <trkpt lat="48.18224" lon="6.39061">
        <ele>357</ele>
        <time>2017-07-19T11:34:02Z</time>
      </trkpt>
      <trkpt lat="48.18238" lon="6.39067">
        <ele>357</ele>
        <time>2017-07-19T11:34:05Z</time>
      </trkpt>
      <trkpt lat="48.18252" lon="6.39068">
        <ele>357</ele>
        <time>2017-07-19T11:34:08Z</time>
      </trkpt>
      <trkpt lat="48.18267" lon="6.39067">
        <ele>357.20001220703</ele>
        <time>2017-07-19T11:34:11Z</time>
      </trkpt>
      <trkpt lat="48.18277" lon="6.39064">
        <ele>357.20001220703</ele>
        <time>2017-07-19T11:34:13Z</time>
      </trkpt>
      <trkpt lat="48.18282" lon="6.39061">
        <ele>357.20001220703</ele>
        <time>2017-07-19T11:34:14Z</time>
      </trkpt>
      <trkpt lat="48.183" lon="6.39052">
        <ele>357.20001220703</ele>
        <time>2017-07-19T11:34:18Z</time>
      </trkpt>
      <trkpt lat="48.1831" lon="6.39045">
        <ele>357.20001220703</ele>
        <time>2017-07-19T11:34:20Z</time>
      </trkpt>
      <trkpt lat="48.18329" lon="6.39033">
        <ele>357.20001220703</ele>
        <time>2017-07-19T11:34:24Z</time>
      </trkpt>
      <trkpt lat="48.18339" lon="6.39028">
        <ele>357.20001220703</ele>
        <time>2017-07-19T11:34:26Z</time>
      </trkpt>
      <trkpt lat="48.18376" lon="6.39006">
        <ele>357.20001220703</ele>
        <time>2017-07-19T11:34:34Z</time>
      </trkpt>
      <trkpt lat="48.18409" lon="6.38985">
        <ele>357.20001220703</ele>
        <time>2017-07-19T11:34:41Z</time>
      </trkpt>
      <trkpt lat="48.18452" lon="6.38959">
        <ele>357.20001220703</ele>
        <time>2017-07-19T11:34:50Z</time>
      </trkpt>
      <trkpt lat="48.18494" lon="6.38935">
        <ele>357.20001220703</ele>
        <time>2017-07-19T11:34:59Z</time>
      </trkpt>
      <trkpt lat="48.18536" lon="6.3891">
        <ele>357.20001220703</ele>
        <time>2017-07-19T11:35:08Z</time>
      </trkpt>
      <trkpt lat="48.18578" lon="6.38889">
        <ele>357.20001220703</ele>
        <time>2017-07-19T11:35:17Z</time>
      </trkpt>
      <trkpt lat="48.18602" lon="6.38881">
        <ele>357.20001220703</ele>
        <time>2017-07-19T11:35:22Z</time>
      </trkpt>
      <trkpt lat="48.18612" lon="6.38879">
        <ele>357</ele>
        <time>2017-07-19T11:35:24Z</time>
      </trkpt>
      <trkpt lat="48.18645" lon="6.38878">
        <ele>356.79998779297</ele>
        <time>2017-07-19T11:35:30Z</time>
      </trkpt>
      <trkpt lat="48.18682" lon="6.38889">
        <ele>356.60000610352</ele>
        <time>2017-07-19T11:35:37Z</time>
      </trkpt>
      <trkpt lat="48.18718" lon="6.38911">
        <ele>356.79998779297</ele>
        <time>2017-07-19T11:35:44Z</time>
      </trkpt>
      <trkpt lat="48.18752" lon="6.38939">
        <ele>357</ele>
        <time>2017-07-19T11:35:51Z</time>
      </trkpt>
      <trkpt lat="48.18762" lon="6.38947">
        <ele>356.79998779297</ele>
        <time>2017-07-19T11:35:53Z</time>
      </trkpt>
      <trkpt lat="48.18771" lon="6.38961">
        <ele>356.79998779297</ele>
        <time>2017-07-19T11:35:56Z</time>
      </trkpt>
      <trkpt lat="48.18781" lon="6.38978">
        <ele>357.79998779297</ele>
        <time>2017-07-19T11:36:00Z</time>
      </trkpt>
      <trkpt lat="48.18788" lon="6.38992">
        <ele>358.20001220703</ele>
        <time>2017-07-19T11:36:03Z</time>
      </trkpt>
      <trkpt lat="48.188" lon="6.39016">
        <ele>358.79998779297</ele>
        <time>2017-07-19T11:36:08Z</time>
      </trkpt>
      <trkpt lat="48.18805" lon="6.39026">
        <ele>358.79998779297</ele>
        <time>2017-07-19T11:36:10Z</time>
      </trkpt>
      <trkpt lat="48.18816" lon="6.39054">
        <ele>359.39999389648</ele>
        <time>2017-07-19T11:36:15Z</time>
      </trkpt>
      <trkpt lat="48.18827" lon="6.39094">
        <ele>359.20001220703</ele>
        <time>2017-07-19T11:36:20Z</time>
      </trkpt>
      <trkpt lat="48.18841" lon="6.3914">
        <ele>357.60000610352</ele>
        <time>2017-07-19T11:36:25Z</time>
      </trkpt>
      <trkpt lat="48.18843" lon="6.39149">
        <ele>357.39999389648</ele>
        <time>2017-07-19T11:36:26Z</time>
      </trkpt>
      <trkpt lat="48.18872" lon="6.39224">
        <ele>357</ele>
        <time>2017-07-19T11:36:35Z</time>
      </trkpt>
      <trkpt lat="48.18888" lon="6.39279">
        <ele>357.20001220703</ele>
        <time>2017-07-19T11:36:42Z</time>
      </trkpt>
      <trkpt lat="48.18902" lon="6.39344">
        <ele>357</ele>
        <time>2017-07-19T11:36:50Z</time>
      </trkpt>
      <trkpt lat="48.1891" lon="6.39395">
        <ele>357.20001220703</ele>
        <time>2017-07-19T11:36:56Z</time>
      </trkpt>
      <trkpt lat="48.18912" lon="6.39411">
        <ele>357.20001220703</ele>
        <time>2017-07-19T11:36:58Z</time>
      </trkpt>
      <trkpt lat="48.1892" lon="6.39468">
        <ele>357.20001220703</ele>
        <time>2017-07-19T11:37:05Z</time>
      </trkpt>
      <trkpt lat="48.18928" lon="6.39534">
        <ele>357.20001220703</ele>
        <time>2017-07-19T11:37:13Z</time>
      </trkpt>
      <trkpt lat="48.18935" lon="6.39593">
        <ele>357.20001220703</ele>
        <time>2017-07-19T11:37:20Z</time>
      </trkpt>
      <trkpt lat="48.18936" lon="6.39601">
        <ele>357.20001220703</ele>
        <time>2017-07-19T11:37:21Z</time>
      </trkpt>
      <trkpt lat="48.18945" lon="6.39665">
        <ele>357.20001220703</ele>
        <time>2017-07-19T11:37:29Z</time>
      </trkpt>
      <trkpt lat="48.18957" lon="6.39736">
        <ele>357.39999389648</ele>
        <time>2017-07-19T11:37:38Z</time>
      </trkpt>
      <trkpt lat="48.1896" lon="6.3975">
        <ele>357.39999389648</ele>
        <time>2017-07-19T11:37:40Z</time>
      </trkpt>
      <trkpt lat="48.18963" lon="6.39771">
        <ele>357.39999389648</ele>
        <time>2017-07-19T11:37:43Z</time>
      </trkpt>
      <trkpt lat="48.18968" lon="6.39799">
        <ele>357.60000610352</ele>
        <time>2017-07-19T11:37:47Z</time>
      </trkpt>
      <trkpt lat="48.18974" lon="6.39835">
        <ele>357.79998779297</ele>
        <time>2017-07-19T11:37:52Z</time>
      </trkpt>
      <trkpt lat="48.18983" lon="6.39901">
        <ele>357.79998779297</ele>
        <time>2017-07-19T11:38:00Z</time>
      </trkpt>
      <trkpt lat="48.18992" lon="6.39969">
        <ele>357.79998779297</ele>
        <time>2017-07-19T11:38:08Z</time>
      </trkpt>
      <trkpt lat="48.19" lon="6.40038">
        <ele>358</ele>
        <time>2017-07-19T11:38:16Z</time>
      </trkpt>
      <trkpt lat="48.19005" lon="6.40097">
        <ele>358.20001220703</ele>
        <time>2017-07-19T11:38:23Z</time>
      </trkpt>
      <trkpt lat="48.19016" lon="6.40151">
        <ele>358.39999389648</ele>
        <time>2017-07-19T11:38:30Z</time>
      </trkpt>
      <trkpt lat="48.19036" lon="6.40198">
        <ele>357.60000610352</ele>
        <time>2017-07-19T11:38:36Z</time>
      </trkpt>
      <trkpt lat="48.19045" lon="6.4021">
        <ele>357.20001220703</ele>
        <time>2017-07-19T11:38:38Z</time>
      </trkpt>
      <trkpt lat="48.19054" lon="6.4022">
        <ele>356.79998779297</ele>
        <time>2017-07-19T11:38:40Z</time>
      </trkpt>
      <trkpt lat="48.19069" lon="6.40232">
        <ele>356.60000610352</ele>
        <time>2017-07-19T11:38:43Z</time>
      </trkpt>
      <trkpt lat="48.19085" lon="6.4024">
        <ele>356.79998779297</ele>
        <time>2017-07-19T11:38:46Z</time>
      </trkpt>
      <trkpt lat="48.19115" lon="6.40261">
        <ele>357.20001220703</ele>
        <time>2017-07-19T11:38:53Z</time>
      </trkpt>
      <trkpt lat="48.19119" lon="6.40265">
        <ele>357.20001220703</ele>
        <time>2017-07-19T11:38:54Z</time>
      </trkpt>
      <trkpt lat="48.19131" lon="6.4028">
        <ele>357.60000610352</ele>
        <time>2017-07-19T11:38:57Z</time>
      </trkpt>
      <trkpt lat="48.19134" lon="6.40287">
        <ele>357.79998779297</ele>
        <time>2017-07-19T11:38:58Z</time>
      </trkpt>
      <trkpt lat="48.19149" lon="6.4033">
        <ele>357.60000610352</ele>
        <time>2017-07-19T11:39:04Z</time>
      </trkpt>
      <trkpt lat="48.19152" lon="6.40355">
        <ele>357.60000610352</ele>
        <time>2017-07-19T11:39:07Z</time>
      </trkpt>
      <trkpt lat="48.19153" lon="6.40387">
        <ele>357.39999389648</ele>
        <time>2017-07-19T11:39:11Z</time>
      </trkpt>
      <trkpt lat="48.19152" lon="6.40442">
        <ele>357.39999389648</ele>
        <time>2017-07-19T11:39:18Z</time>
      </trkpt>
      <trkpt lat="48.1915" lon="6.40501">
        <ele>357.39999389648</ele>
        <time>2017-07-19T11:39:26Z</time>
      </trkpt>
      <trkpt lat="48.1915" lon="6.40561">
        <ele>357.60000610352</ele>
        <time>2017-07-19T11:39:33Z</time>
      </trkpt>
      <trkpt lat="48.19157" lon="6.40631">
        <ele>357.60000610352</ele>
        <time>2017-07-19T11:39:41Z</time>
      </trkpt>
      <trkpt lat="48.19168" lon="6.40702">
        <ele>358.20001220703</ele>
        <time>2017-07-19T11:39:49Z</time>
      </trkpt>
      <trkpt lat="48.19178" lon="6.40772">
        <ele>358.20001220703</ele>
        <time>2017-07-19T11:39:57Z</time>
      </trkpt>
      <trkpt lat="48.19191" lon="6.40848">
        <ele>358.20001220703</ele>
        <time>2017-07-19T11:40:06Z</time>
      </trkpt>
      <trkpt lat="48.19203" lon="6.40896">
        <ele>357.60000610352</ele>
        <time>2017-07-19T11:40:11Z</time>
      </trkpt>
      <trkpt lat="48.19222" lon="6.40947">
        <ele>357</ele>
        <time>2017-07-19T11:40:17Z</time>
      </trkpt>
      <trkpt lat="48.19249" lon="6.41019">
        <ele>357.20001220703</ele>
        <time>2017-07-19T11:40:26Z</time>
      </trkpt>
      <trkpt lat="48.19256" lon="6.41032">
        <ele>357.20001220703</ele>
        <time>2017-07-19T11:40:28Z</time>
      </trkpt>
      <trkpt lat="48.19264" lon="6.4104">
        <ele>357.20001220703</ele>
        <time>2017-07-19T11:40:30Z</time>
      </trkpt>
      <trkpt lat="48.19274" lon="6.41062">
        <ele>357.39999389648</ele>
        <time>2017-07-19T11:40:34Z</time>
      </trkpt>
      <trkpt lat="48.19287" lon="6.41099">
        <ele>357.39999389648</ele>
        <time>2017-07-19T11:40:38Z</time>
      </trkpt>
      <trkpt lat="48.19299" lon="6.41128">
        <ele>356.39999389648</ele>
        <time>2017-07-19T11:40:41Z</time>
      </trkpt>
      <trkpt lat="48.1931" lon="6.41155">
        <ele>355.20001220703</ele>
        <time>2017-07-19T11:40:44Z</time>
      </trkpt>
      <trkpt lat="48.19317" lon="6.41173">
        <ele>355</ele>
        <time>2017-07-19T11:40:46Z</time>
      </trkpt>
      <trkpt lat="48.19323" lon="6.41191">
        <ele>354.60000610352</ele>
        <time>2017-07-19T11:40:48Z</time>
      </trkpt>
      <trkpt lat="48.19325" lon="6.41211">
        <ele>354.39999389648</ele>
        <time>2017-07-19T11:40:50Z</time>
      </trkpt>
      <trkpt lat="48.19323" lon="6.41242">
        <ele>354.39999389648</ele>
        <time>2017-07-19T11:40:53Z</time>
      </trkpt>
      <trkpt lat="48.19321" lon="6.41262">
        <ele>354.20001220703</ele>
        <time>2017-07-19T11:40:55Z</time>
      </trkpt>
      <trkpt lat="48.19313" lon="6.4132">
        <ele>354</ele>
        <time>2017-07-19T11:41:01Z</time>
      </trkpt>
      <trkpt lat="48.19305" lon="6.41391">
        <ele>353.79998779297</ele>
        <time>2017-07-19T11:41:08Z</time>
      </trkpt>
      <trkpt lat="48.193" lon="6.41427">
        <ele>353</ele>
        <time>2017-07-19T11:41:11Z</time>
      </trkpt>
      <trkpt lat="48.19297" lon="6.41451">
        <ele>352.20001220703</ele>
        <time>2017-07-19T11:41:13Z</time>
      </trkpt>
      <trkpt lat="48.19295" lon="6.41463">
        <ele>352</ele>
        <time>2017-07-19T11:41:14Z</time>
      </trkpt>
      <trkpt lat="48.19286" lon="6.41509">
        <ele>351.20001220703</ele>
        <time>2017-07-19T11:41:18Z</time>
      </trkpt>
      <trkpt lat="48.19281" lon="6.41542">
        <ele>351.20001220703</ele>
        <time>2017-07-19T11:41:21Z</time>
      </trkpt>
      <trkpt lat="48.1928" lon="6.41574">
        <ele>351.20001220703</ele>
        <time>2017-07-19T11:41:24Z</time>
      </trkpt>
      <trkpt lat="48.19277" lon="6.41598">
        <ele>351</ele>
        <time>2017-07-19T11:41:26Z</time>
      </trkpt>
      <trkpt lat="48.19275" lon="6.4161">
        <ele>350.79998779297</ele>
        <time>2017-07-19T11:41:27Z</time>
      </trkpt>
      <trkpt lat="48.19273" lon="6.41622">
        <ele>350.60000610352</ele>
        <time>2017-07-19T11:41:28Z</time>
      </trkpt>
      <trkpt lat="48.19272" lon="6.41646">
        <ele>350</ele>
        <time>2017-07-19T11:41:30Z</time>
      </trkpt>
      <trkpt lat="48.19274" lon="6.41657">
        <ele>349.60000610352</ele>
        <time>2017-07-19T11:41:31Z</time>
      </trkpt>
      <trkpt lat="48.19277" lon="6.41668">
        <ele>349.20001220703</ele>
        <time>2017-07-19T11:41:32Z</time>
      </trkpt>
      <trkpt lat="48.19285" lon="6.41687">
        <ele>348.60000610352</ele>
        <time>2017-07-19T11:41:34Z</time>
      </trkpt>
      <trkpt lat="48.19288" lon="6.41696">
        <ele>348.20001220703</ele>
        <time>2017-07-19T11:41:35Z</time>
      </trkpt>
      <trkpt lat="48.19295" lon="6.41715">
        <ele>348.20001220703</ele>
        <time>2017-07-19T11:41:37Z</time>
      </trkpt>
      <trkpt lat="48.19313" lon="6.41758">
        <ele>348.20001220703</ele>
        <time>2017-07-19T11:41:42Z</time>
      </trkpt>
      <trkpt lat="48.19322" lon="6.41774">
        <ele>348.20001220703</ele>
        <time>2017-07-19T11:41:44Z</time>
      </trkpt>
      <trkpt lat="48.19342" lon="6.41823">
        <ele>347.79998779297</ele>
        <time>2017-07-19T11:41:49Z</time>
      </trkpt>
      <trkpt lat="48.19357" lon="6.41851">
        <ele>347.20001220703</ele>
        <time>2017-07-19T11:41:52Z</time>
      </trkpt>
      <trkpt lat="48.19364" lon="6.41857">
        <ele>346.79998779297</ele>
        <time>2017-07-19T11:41:53Z</time>
      </trkpt>
      <trkpt lat="48.1939" lon="6.41873">
        <ele>346</ele>
        <time>2017-07-19T11:41:57Z</time>
      </trkpt>
      <trkpt lat="48.19396" lon="6.41877">
        <ele>346</ele>
        <time>2017-07-19T11:41:58Z</time>
      </trkpt>
      <trkpt lat="48.19429" lon="6.41899">
        <ele>345.79998779297</ele>
        <time>2017-07-19T11:42:04Z</time>
      </trkpt>
      <trkpt lat="48.19434" lon="6.41901">
        <ele>345.60000610352</ele>
        <time>2017-07-19T11:42:05Z</time>
      </trkpt>
      <trkpt lat="48.19442" lon="6.419">
        <ele>345.60000610352</ele>
        <time>2017-07-19T11:42:07Z</time>
      </trkpt>
      <trkpt lat="48.19448" lon="6.41901">
        <ele>345.60000610352</ele>
        <time>2017-07-19T11:42:10Z</time>
      </trkpt>
      <trkpt lat="48.19454" lon="6.41906">
        <ele>345.60000610352</ele>
        <time>2017-07-19T11:42:12Z</time>
      </trkpt>
      <trkpt lat="48.19463" lon="6.41915">
        <ele>345.60000610352</ele>
        <time>2017-07-19T11:42:14Z</time>
      </trkpt>
      <trkpt lat="48.19488" lon="6.41935">
        <ele>345.20001220703</ele>
        <time>2017-07-19T11:42:18Z</time>
      </trkpt>
      <trkpt lat="48.19494" lon="6.41939">
        <ele>344.79998779297</ele>
        <time>2017-07-19T11:42:19Z</time>
      </trkpt>
      <trkpt lat="48.19513" lon="6.41951">
        <ele>343.60000610352</ele>
        <time>2017-07-19T11:42:22Z</time>
      </trkpt>
      <trkpt lat="48.19538" lon="6.41968">
        <ele>343.20001220703</ele>
        <time>2017-07-19T11:42:26Z</time>
      </trkpt>
      <trkpt lat="48.19544" lon="6.41972">
        <ele>343</ele>
        <time>2017-07-19T11:42:27Z</time>
      </trkpt>
      <trkpt lat="48.1959" lon="6.41997">
        <ele>342.79998779297</ele>
        <time>2017-07-19T11:42:34Z</time>
      </trkpt>
      <trkpt lat="48.19597" lon="6.42002">
        <ele>342.79998779297</ele>
        <time>2017-07-19T11:42:35Z</time>
      </trkpt>
      <trkpt lat="48.19619" lon="6.42018">
        <ele>342.60000610352</ele>
        <time>2017-07-19T11:42:38Z</time>
      </trkpt>
      <trkpt lat="48.1964" lon="6.42031">
        <ele>341.39999389648</ele>
        <time>2017-07-19T11:42:41Z</time>
      </trkpt>
      <trkpt lat="48.19659" lon="6.42043">
        <ele>340.39999389648</ele>
        <time>2017-07-19T11:42:44Z</time>
      </trkpt>
      <trkpt lat="48.19665" lon="6.42047">
        <ele>340.20001220703</ele>
        <time>2017-07-19T11:42:45Z</time>
      </trkpt>
      <trkpt lat="48.19699" lon="6.42071">
        <ele>339.79998779297</ele>
        <time>2017-07-19T11:42:51Z</time>
      </trkpt>
      <trkpt lat="48.19735" lon="6.42089">
        <ele>339.60000610352</ele>
        <time>2017-07-19T11:42:57Z</time>
      </trkpt>
      <trkpt lat="48.19763" lon="6.42108">
        <ele>339</ele>
        <time>2017-07-19T11:43:01Z</time>
      </trkpt>
      <trkpt lat="48.1977" lon="6.42115">
        <ele>338.79998779297</ele>
        <time>2017-07-19T11:43:02Z</time>
      </trkpt>
      <trkpt lat="48.1978" lon="6.42129">
        <ele>338</ele>
        <time>2017-07-19T11:43:04Z</time>
      </trkpt>
      <trkpt lat="48.19788" lon="6.42145">
        <ele>337.60000610352</ele>
        <time>2017-07-19T11:43:06Z</time>
      </trkpt>
      <trkpt lat="48.19809" lon="6.42193">
        <ele>336.79998779297</ele>
        <time>2017-07-19T11:43:12Z</time>
      </trkpt>
      <trkpt lat="48.19813" lon="6.42201">
        <ele>336.60000610352</ele>
        <time>2017-07-19T11:43:13Z</time>
      </trkpt>
      <trkpt lat="48.19842" lon="6.42262">
        <ele>336.20001220703</ele>
        <time>2017-07-19T11:43:21Z</time>
      </trkpt>
      <trkpt lat="48.19857" lon="6.42301">
        <ele>336.39999389648</ele>
        <time>2017-07-19T11:43:25Z</time>
      </trkpt>
      <trkpt lat="48.19871" lon="6.42329">
        <ele>335.39999389648</ele>
        <time>2017-07-19T11:43:28Z</time>
      </trkpt>
      <trkpt lat="48.19883" lon="6.42356">
        <ele>334.60000610352</ele>
        <time>2017-07-19T11:43:31Z</time>
      </trkpt>
      <trkpt lat="48.199" lon="6.42391">
        <ele>334.39999389648</ele>
        <time>2017-07-19T11:43:35Z</time>
      </trkpt>
      <trkpt lat="48.19907" lon="6.42408">
        <ele>334.39999389648</ele>
        <time>2017-07-19T11:43:37Z</time>
      </trkpt>
      <trkpt lat="48.19914" lon="6.42426">
        <ele>334.20001220703</ele>
        <time>2017-07-19T11:43:39Z</time>
      </trkpt>
      <trkpt lat="48.19942" lon="6.42496">
        <ele>334</ele>
        <time>2017-07-19T11:43:47Z</time>
      </trkpt>
      <trkpt lat="48.19945" lon="6.42504">
        <ele>334</ele>
        <time>2017-07-19T11:43:48Z</time>
      </trkpt>
      <trkpt lat="48.19964" lon="6.42559">
        <ele>333.79998779297</ele>
        <time>2017-07-19T11:43:55Z</time>
      </trkpt>
      <trkpt lat="48.19967" lon="6.42566">
        <ele>333.79998779297</ele>
        <time>2017-07-19T11:43:56Z</time>
      </trkpt>
      <trkpt lat="48.19983" lon="6.42601">
        <ele>333.79998779297</ele>
        <time>2017-07-19T11:44:01Z</time>
      </trkpt>
      <trkpt lat="48.19985" lon="6.42609">
        <ele>333.60000610352</ele>
        <time>2017-07-19T11:44:02Z</time>
      </trkpt>
      <trkpt lat="48.19995" lon="6.42639">
        <ele>333.60000610352</ele>
        <time>2017-07-19T11:44:05Z</time>
      </trkpt>
      <trkpt lat="48.19999" lon="6.42649">
        <ele>333.39999389648</ele>
        <time>2017-07-19T11:44:06Z</time>
      </trkpt>
      <trkpt lat="48.20015" lon="6.42685">
        <ele>332.20001220703</ele>
        <time>2017-07-19T11:44:10Z</time>
      </trkpt>
      <trkpt lat="48.2002" lon="6.42694">
        <ele>332</ele>
        <time>2017-07-19T11:44:11Z</time>
      </trkpt>
      <trkpt lat="48.20034" lon="6.42716">
        <ele>331.60000610352</ele>
        <time>2017-07-19T11:44:14Z</time>
      </trkpt>
      <trkpt lat="48.20045" lon="6.42728">
        <ele>331.39999389648</ele>
        <time>2017-07-19T11:44:16Z</time>
      </trkpt>
      <trkpt lat="48.20075" lon="6.42759">
        <ele>331.39999389648</ele>
        <time>2017-07-19T11:44:22Z</time>
      </trkpt>
      <trkpt lat="48.20094" lon="6.4278">
        <ele>331.20001220703</ele>
        <time>2017-07-19T11:44:26Z</time>
      </trkpt>
      <trkpt lat="48.20109" lon="6.42795">
        <ele>331.20001220703</ele>
        <time>2017-07-19T11:44:29Z</time>
      </trkpt>
      <trkpt lat="48.20134" lon="6.4282">
        <ele>331</ele>
        <time>2017-07-19T11:44:34Z</time>
      </trkpt>
      <trkpt lat="48.20143" lon="6.42823">
        <ele>330.79998779297</ele>
        <time>2017-07-19T11:44:36Z</time>
      </trkpt>
      <trkpt lat="48.20147" lon="6.42828">
        <ele>330.60000610352</ele>
        <time>2017-07-19T11:44:39Z</time>
      </trkpt>
      <trkpt lat="48.20161" lon="6.42848">
        <ele>331</ele>
        <time>2017-07-19T11:44:45Z</time>
      </trkpt>
      <trkpt lat="48.20183" lon="6.42873">
        <ele>330</ele>
        <time>2017-07-19T11:44:49Z</time>
      </trkpt>
      <trkpt lat="48.20201" lon="6.42893">
        <ele>329</ele>
        <time>2017-07-19T11:44:52Z</time>
      </trkpt>
      <trkpt lat="48.2023" lon="6.42925">
        <ele>328.39999389648</ele>
        <time>2017-07-19T11:44:57Z</time>
      </trkpt>
      <trkpt lat="48.20265" lon="6.4296">
        <ele>328.20001220703</ele>
        <time>2017-07-19T11:45:03Z</time>
      </trkpt>
      <trkpt lat="48.2031" lon="6.43005">
        <ele>328.39999389648</ele>
        <time>2017-07-19T11:45:11Z</time>
      </trkpt>
      <trkpt lat="48.20358" lon="6.4305">
        <ele>328.20001220703</ele>
        <time>2017-07-19T11:45:20Z</time>
      </trkpt>
      <trkpt lat="48.20405" lon="6.43091">
        <ele>328.20001220703</ele>
        <time>2017-07-19T11:45:29Z</time>
      </trkpt>
      <trkpt lat="48.20411" lon="6.43096">
        <ele>328.20001220703</ele>
        <time>2017-07-19T11:45:30Z</time>
      </trkpt>
      <trkpt lat="48.20427" lon="6.43109">
        <ele>328</ele>
        <time>2017-07-19T11:45:33Z</time>
      </trkpt>
      <trkpt lat="48.20439" lon="6.43114">
        <ele>328</ele>
        <time>2017-07-19T11:45:35Z</time>
      </trkpt>
      <trkpt lat="48.20473" lon="6.43134">
        <ele>328.20001220703</ele>
        <time>2017-07-19T11:45:41Z</time>
      </trkpt>
      <trkpt lat="48.20484" lon="6.43142">
        <ele>328.20001220703</ele>
        <time>2017-07-19T11:45:43Z</time>
      </trkpt>
      <trkpt lat="48.20499" lon="6.43158">
        <ele>328.20001220703</ele>
        <time>2017-07-19T11:45:46Z</time>
      </trkpt>
      <trkpt lat="48.20509" lon="6.43168">
        <ele>328.20001220703</ele>
        <time>2017-07-19T11:45:48Z</time>
      </trkpt>
      <trkpt lat="48.20523" lon="6.43185">
        <ele>328</ele>
        <time>2017-07-19T11:45:51Z</time>
      </trkpt>
      <trkpt lat="48.20542" lon="6.43216">
        <ele>327.79998779297</ele>
        <time>2017-07-19T11:45:56Z</time>
      </trkpt>
      <trkpt lat="48.20544" lon="6.43223">
        <ele>327.79998779297</ele>
        <time>2017-07-19T11:45:57Z</time>
      </trkpt>
      <trkpt lat="48.20551" lon="6.43236">
        <ele>327.79998779297</ele>
        <time>2017-07-19T11:45:59Z</time>
      </trkpt>
      <trkpt lat="48.20558" lon="6.4325">
        <ele>327.60000610352</ele>
        <time>2017-07-19T11:46:01Z</time>
      </trkpt>
      <trkpt lat="48.20572" lon="6.4326">
        <ele>327.60000610352</ele>
        <time>2017-07-19T11:46:04Z</time>
      </trkpt>
      <trkpt lat="48.20587" lon="6.43277">
        <ele>327.39999389648</ele>
        <time>2017-07-19T11:46:07Z</time>
      </trkpt>
      <trkpt lat="48.20592" lon="6.43285">
        <ele>327.39999389648</ele>
        <time>2017-07-19T11:46:08Z</time>
      </trkpt>
      <trkpt lat="48.20598" lon="6.43292">
        <ele>327.39999389648</ele>
        <time>2017-07-19T11:46:09Z</time>
      </trkpt>
      <trkpt lat="48.20609" lon="6.43306">
        <ele>327.20001220703</ele>
        <time>2017-07-19T11:46:11Z</time>
      </trkpt>
      <trkpt lat="48.20615" lon="6.43314">
        <ele>326.79998779297</ele>
        <time>2017-07-19T11:46:12Z</time>
      </trkpt>
      <trkpt lat="48.20642" lon="6.43348">
        <ele>325.79998779297</ele>
        <time>2017-07-19T11:46:17Z</time>
      </trkpt>
      <trkpt lat="48.20647" lon="6.43355">
        <ele>325.60000610352</ele>
        <time>2017-07-19T11:46:18Z</time>
      </trkpt>
      <trkpt lat="48.2068" lon="6.43401">
        <ele>325.39999389648</ele>
        <time>2017-07-19T11:46:25Z</time>
      </trkpt>
      <trkpt lat="48.20723" lon="6.43463">
        <ele>325</ele>
        <time>2017-07-19T11:46:34Z</time>
      </trkpt>
      <trkpt lat="48.20728" lon="6.43469">
        <ele>325</ele>
        <time>2017-07-19T11:46:35Z</time>
      </trkpt>
      <trkpt lat="48.20744" lon="6.4349">
        <ele>324.79998779297</ele>
        <time>2017-07-19T11:46:38Z</time>
      </trkpt>
      <trkpt lat="48.2076" lon="6.43516">
        <ele>324.60000610352</ele>
        <time>2017-07-19T11:46:41Z</time>
      </trkpt>
      <trkpt lat="48.20784" lon="6.43553">
        <ele>323.39999389648</ele>
        <time>2017-07-19T11:46:45Z</time>
      </trkpt>
      <trkpt lat="48.20793" lon="6.43574">
        <ele>322.79998779297</ele>
        <time>2017-07-19T11:46:47Z</time>
      </trkpt>
      <trkpt lat="48.20798" lon="6.43585">
        <ele>322.39999389648</ele>
        <time>2017-07-19T11:46:48Z</time>
      </trkpt>
      <trkpt lat="48.20805" lon="6.43607">
        <ele>322.20001220703</ele>
        <time>2017-07-19T11:46:50Z</time>
      </trkpt>
      <trkpt lat="48.20815" lon="6.4364">
        <ele>322</ele>
        <time>2017-07-19T11:46:53Z</time>
      </trkpt>
      <trkpt lat="48.2084" lon="6.43712">
        <ele>321.60000610352</ele>
        <time>2017-07-19T11:47:00Z</time>
      </trkpt>
      <trkpt lat="48.20853" lon="6.43759">
        <ele>321.20001220703</ele>
        <time>2017-07-19T11:47:04Z</time>
      </trkpt>
      <trkpt lat="48.20869" lon="6.43811">
        <ele>320.20001220703</ele>
        <time>2017-07-19T11:47:09Z</time>
      </trkpt>
      <trkpt lat="48.20874" lon="6.4383">
        <ele>319.60000610352</ele>
        <time>2017-07-19T11:47:11Z</time>
      </trkpt>
      <trkpt lat="48.20884" lon="6.43861">
        <ele>319</ele>
        <time>2017-07-19T11:47:14Z</time>
      </trkpt>
      <trkpt lat="48.20891" lon="6.43881">
        <ele>318.79998779297</ele>
        <time>2017-07-19T11:47:17Z</time>
      </trkpt>
      <trkpt lat="48.20892" lon="6.43885">
        <ele>318.60000610352</ele>
        <time>2017-07-19T11:47:30Z</time>
      </trkpt>
      <trkpt lat="48.20894" lon="6.43886">
        <ele>318.60000610352</ele>
        <time>2017-07-19T11:47:32Z</time>
      </trkpt>
      <trkpt lat="48.20894" lon="6.43883">
        <ele>318.60000610352</ele>
        <time>2017-07-19T11:47:33Z</time>
      </trkpt>
      <trkpt lat="48.20891" lon="6.43876">
        <ele>318.79998779297</ele>
        <time>2017-07-19T11:47:37Z</time>
      </trkpt>
      <trkpt lat="48.20887" lon="6.4387">
        <ele>318.60000610352</ele>
        <time>2017-07-19T11:47:42Z</time>
      </trkpt>
      <trkpt lat="48.20887" lon="6.43879">
        <ele>318.60000610352</ele>
        <time>2017-07-19T11:47:45Z</time>
      </trkpt>
      <trkpt lat="48.20891" lon="6.43893">
        <ele>318.79998779297</ele>
        <time>2017-07-19T11:47:51Z</time>
      </trkpt>
      <trkpt lat="48.20885" lon="6.43888">
        <ele>320.20001220703</ele>
        <time>2017-07-19T11:48:03Z</time>
      </trkpt>
      <trkpt lat="48.20882" lon="6.43889">
        <ele>320.20001220703</ele>
        <time>2017-07-19T11:48:05Z</time>
      </trkpt>
      <trkpt lat="48.20879" lon="6.43891">
        <ele>320.39999389648</ele>
        <time>2017-07-19T11:48:07Z</time>
      </trkpt>
      <trkpt lat="48.20875" lon="6.43899">
        <ele>320.39999389648</ele>
        <time>2017-07-19T11:48:10Z</time>
      </trkpt>
      <trkpt lat="48.20879" lon="6.43915">
        <ele>320</ele>
        <time>2017-07-19T11:48:13Z</time>
      </trkpt>
      <trkpt lat="48.2088" lon="6.43933">
        <ele>319</ele>
        <time>2017-07-19T11:48:16Z</time>
      </trkpt>
      <trkpt lat="48.2088" lon="6.43939">
        <ele>318.79998779297</ele>
        <time>2017-07-19T11:48:17Z</time>
      </trkpt>
      <trkpt lat="48.2088" lon="6.43955">
        <ele>318</ele>
        <time>2017-07-19T11:48:20Z</time>
      </trkpt>
      <trkpt lat="48.20882" lon="6.43963">
        <ele>317.79998779297</ele>
        <time>2017-07-19T11:48:22Z</time>
      </trkpt>
      <trkpt lat="48.20883" lon="6.43972">
        <ele>317.79998779297</ele>
        <time>2017-07-19T11:48:24Z</time>
      </trkpt>
      <trkpt lat="48.2088" lon="6.43986">
        <ele>317.79998779297</ele>
        <time>2017-07-19T11:48:27Z</time>
      </trkpt>
      <trkpt lat="48.20875" lon="6.43994">
        <ele>316.39999389648</ele>
        <time>2017-07-19T11:49:01Z</time>
      </trkpt>
      <trkpt lat="48.20872" lon="6.43999">
        <ele>316.39999389648</ele>
        <time>2017-07-19T11:49:03Z</time>
      </trkpt>
      <trkpt lat="48.20856" lon="6.44028">
        <ele>316.79998779297</ele>
        <time>2017-07-19T11:49:10Z</time>
      </trkpt>
      <trkpt lat="48.20841" lon="6.44059">
        <ele>317</ele>
        <time>2017-07-19T11:49:16Z</time>
      </trkpt>
      <trkpt lat="48.20829" lon="6.44093">
        <ele>317</ele>
        <time>2017-07-19T11:49:23Z</time>
      </trkpt>
      <trkpt lat="48.20825" lon="6.4412">
        <ele>317</ele>
        <time>2017-07-19T11:49:29Z</time>
      </trkpt>
      <trkpt lat="48.20821" lon="6.44152">
        <ele>317.20001220703</ele>
        <time>2017-07-19T11:49:36Z</time>
      </trkpt>
      <trkpt lat="48.2082" lon="6.44154">
        <ele>317.20001220703</ele>
        <time>2017-07-19T11:49:37Z</time>
      </trkpt>
      <trkpt lat="48.20817" lon="6.44154">
        <ele>317.20001220703</ele>
        <time>2017-07-19T11:49:39Z</time>
      </trkpt>
      <trkpt lat="48.20802" lon="6.44154">
        <ele>317</ele>
        <time>2017-07-19T11:49:45Z</time>
      </trkpt>
      <trkpt lat="48.20785" lon="6.44154">
        <ele>316.39999389648</ele>
        <time>2017-07-19T11:49:49Z</time>
      </trkpt>
      <trkpt lat="48.20772" lon="6.44157">
        <ele>315.39999389648</ele>
        <time>2017-07-19T11:49:52Z</time>
      </trkpt>
      <trkpt lat="48.20769" lon="6.44157">
        <ele>315</ele>
        <time>2017-07-19T11:49:53Z</time>
      </trkpt>
      <trkpt lat="48.20764" lon="6.44163">
        <ele>314</ele>
        <time>2017-07-19T11:49:56Z</time>
      </trkpt>
      <trkpt lat="48.20765" lon="6.44163">
        <ele>313.60000610352</ele>
        <time>2017-07-19T11:49:57Z</time>
      </trkpt>
      <trkpt lat="48.20768" lon="6.44163">
        <ele>313</ele>
        <time>2017-07-19T11:49:59Z</time>
      </trkpt>
      <trkpt lat="48.20777" lon="6.44163">
        <ele>312.20001220703</ele>
        <time>2017-07-19T11:50:02Z</time>
      </trkpt>
      <trkpt lat="48.20796" lon="6.44163">
        <ele>312.20001220703</ele>
        <time>2017-07-19T11:50:07Z</time>
      </trkpt>
      <trkpt lat="48.20824" lon="6.44167">
        <ele>312.20001220703</ele>
        <time>2017-07-19T11:50:14Z</time>
      </trkpt>
      <trkpt lat="48.20855" lon="6.44179">
        <ele>312.39999389648</ele>
        <time>2017-07-19T11:50:20Z</time>
      </trkpt>
      <trkpt lat="48.2088" lon="6.44188">
        <ele>313</ele>
        <time>2017-07-19T11:50:26Z</time>
      </trkpt>
      <trkpt lat="48.20907" lon="6.44197">
        <ele>312.79998779297</ele>
        <time>2017-07-19T11:50:33Z</time>
      </trkpt>
      <trkpt lat="48.20926" lon="6.44204">
        <ele>312.39999389648</ele>
        <time>2017-07-19T11:50:39Z</time>
      </trkpt>
      <trkpt lat="48.20925" lon="6.44205">
        <ele>312.20001220703</ele>
        <time>2017-07-19T11:51:08Z</time>
      </trkpt>
      <trkpt lat="48.20923" lon="6.44205">
        <ele>312.20001220703</ele>
        <time>2017-07-19T11:51:09Z</time>
      </trkpt>
      <trkpt lat="48.20906" lon="6.44205">
        <ele>312.20001220703</ele>
        <time>2017-07-19T11:51:14Z</time>
      </trkpt>
      <trkpt lat="48.20889" lon="6.44203">
        <ele>312.39999389648</ele>
        <time>2017-07-19T11:51:18Z</time>
      </trkpt>
      <trkpt lat="48.20886" lon="6.44202">
        <ele>312.60000610352</ele>
        <time>2017-07-19T11:51:19Z</time>
      </trkpt>
      <trkpt lat="48.20866" lon="6.44197">
        <ele>313</ele>
        <time>2017-07-19T11:51:24Z</time>
      </trkpt>
      <trkpt lat="48.20858" lon="6.4419">
        <ele>313</ele>
        <time>2017-07-19T11:51:26Z</time>
      </trkpt>
      <trkpt lat="48.20854" lon="6.44186">
        <ele>313</ele>
        <time>2017-07-19T11:51:27Z</time>
      </trkpt>
      <trkpt lat="48.20843" lon="6.44177">
        <ele>313.20001220703</ele>
        <time>2017-07-19T11:51:31Z</time>
      </trkpt>
      <trkpt lat="48.20833" lon="6.44168">
        <ele>314.39999389648</ele>
        <time>2017-07-19T11:51:36Z</time>
      </trkpt>
      <trkpt lat="48.20831" lon="6.44166">
        <ele>314.60000610352</ele>
        <time>2017-07-19T11:51:37Z</time>
      </trkpt>
      <trkpt lat="48.20827" lon="6.4416">
        <ele>315.39999389648</ele>
        <time>2017-07-19T11:51:40Z</time>
      </trkpt>
      <trkpt lat="48.20824" lon="6.4416">
        <ele>315.79998779297</ele>
        <time>2017-07-19T11:51:42Z</time>
      </trkpt>
      <trkpt lat="48.20823" lon="6.44163">
        <ele>316.20001220703</ele>
        <time>2017-07-19T11:51:43Z</time>
      </trkpt>
      <trkpt lat="48.20822" lon="6.44172">
        <ele>316.60000610352</ele>
        <time>2017-07-19T11:51:45Z</time>
      </trkpt>
      <trkpt lat="48.20822" lon="6.44176">
        <ele>316.60000610352</ele>
        <time>2017-07-19T11:51:46Z</time>
      </trkpt>
      <trkpt lat="48.20822" lon="6.44181">
        <ele>316.79998779297</ele>
        <time>2017-07-19T11:51:47Z</time>
      </trkpt>
      <trkpt lat="48.20815" lon="6.44225">
        <ele>317.20001220703</ele>
        <time>2017-07-19T11:51:55Z</time>
      </trkpt>
      <trkpt lat="48.20807" lon="6.44279">
        <ele>317.39999389648</ele>
        <time>2017-07-19T11:52:04Z</time>
      </trkpt>
      <trkpt lat="48.20803" lon="6.44306">
        <ele>317.20001220703</ele>
        <time>2017-07-19T11:52:10Z</time>
      </trkpt>
      <trkpt lat="48.20811" lon="6.44321">
        <ele>317.20001220703</ele>
        <time>2017-07-19T11:52:14Z</time>
      </trkpt>
      <trkpt lat="48.20827" lon="6.44341">
        <ele>317</ele>
        <time>2017-07-19T11:52:18Z</time>
      </trkpt>
      <trkpt lat="48.20841" lon="6.44362">
        <ele>316.20001220703</ele>
        <time>2017-07-19T11:52:21Z</time>
      </trkpt>
      <trkpt lat="48.20843" lon="6.44371">
        <ele>315.79998779297</ele>
        <time>2017-07-19T11:52:22Z</time>
      </trkpt>
      <trkpt lat="48.20844" lon="6.44382">
        <ele>315.39999389648</ele>
        <time>2017-07-19T11:52:23Z</time>
      </trkpt>
      <trkpt lat="48.20837" lon="6.44399">
        <ele>314</ele>
        <time>2017-07-19T11:52:25Z</time>
      </trkpt>
      <trkpt lat="48.20828" lon="6.44423">
        <ele>313.20001220703</ele>
        <time>2017-07-19T11:52:28Z</time>
      </trkpt>
      <trkpt lat="48.20824" lon="6.4443">
        <ele>313</ele>
        <time>2017-07-19T11:52:29Z</time>
      </trkpt>
      <trkpt lat="48.20821" lon="6.44436">
        <ele>313</ele>
        <time>2017-07-19T11:52:30Z</time>
      </trkpt>
      <trkpt lat="48.20818" lon="6.44442">
        <ele>313</ele>
        <time>2017-07-19T11:52:31Z</time>
      </trkpt>
      <trkpt lat="48.20804" lon="6.44475">
        <ele>313.20001220703</ele>
        <time>2017-07-19T11:52:36Z</time>
      </trkpt>
      <trkpt lat="48.20791" lon="6.44506">
        <ele>313.20001220703</ele>
        <time>2017-07-19T11:52:41Z</time>
      </trkpt>
      <trkpt lat="48.20788" lon="6.44512">
        <ele>313.20001220703</ele>
        <time>2017-07-19T11:52:42Z</time>
      </trkpt>
      <trkpt lat="48.20779" lon="6.44529">
        <ele>313</ele>
        <time>2017-07-19T11:52:45Z</time>
      </trkpt>
      <trkpt lat="48.20768" lon="6.44543">
        <ele>313</ele>
        <time>2017-07-19T11:52:48Z</time>
      </trkpt>
      <trkpt lat="48.20766" lon="6.44548">
        <ele>313</ele>
        <time>2017-07-19T11:52:49Z</time>
      </trkpt>
      <trkpt lat="48.20756" lon="6.4456">
        <ele>313.20001220703</ele>
        <time>2017-07-19T11:52:52Z</time>
      </trkpt>
      <trkpt lat="48.20745" lon="6.44566">
        <ele>313.60000610352</ele>
        <time>2017-07-19T11:52:55Z</time>
      </trkpt>
      <trkpt lat="48.20742" lon="6.44569">
        <ele>313.79998779297</ele>
        <time>2017-07-19T11:52:56Z</time>
      </trkpt>
      <trkpt lat="48.20732" lon="6.44581">
        <ele>314.20001220703</ele>
        <time>2017-07-19T11:52:59Z</time>
      </trkpt>
      <trkpt lat="48.20718" lon="6.44597">
        <ele>314.60000610352</ele>
        <time>2017-07-19T11:53:03Z</time>
      </trkpt>
      <trkpt lat="48.20712" lon="6.44623">
        <ele>314.60000610352</ele>
        <time>2017-07-19T11:53:07Z</time>
      </trkpt>
      <trkpt lat="48.20722" lon="6.44648">
        <ele>314.60000610352</ele>
        <time>2017-07-19T11:53:11Z</time>
      </trkpt>
      <trkpt lat="48.20739" lon="6.44695">
        <ele>314.79998779297</ele>
        <time>2017-07-19T11:53:18Z</time>
      </trkpt>
      <trkpt lat="48.2076" lon="6.44755">
        <ele>314.79998779297</ele>
        <time>2017-07-19T11:53:26Z</time>
      </trkpt>
      <trkpt lat="48.20782" lon="6.44817">
        <ele>314.60000610352</ele>
        <time>2017-07-19T11:53:34Z</time>
      </trkpt>
      <trkpt lat="48.20787" lon="6.44833">
        <ele>314.39999389648</ele>
        <time>2017-07-19T11:53:36Z</time>
      </trkpt>
      <trkpt lat="48.20798" lon="6.44864">
        <ele>314.20001220703</ele>
        <time>2017-07-19T11:53:40Z</time>
      </trkpt>
      <trkpt lat="48.20816" lon="6.44916">
        <ele>314.39999389648</ele>
        <time>2017-07-19T11:53:47Z</time>
      </trkpt>
      <trkpt lat="48.20839" lon="6.44986">
        <ele>315</ele>
        <time>2017-07-19T11:53:56Z</time>
      </trkpt>
      <trkpt lat="48.20844" lon="6.45002">
        <ele>315.20001220703</ele>
        <time>2017-07-19T11:53:58Z</time>
      </trkpt>
      <trkpt lat="48.2086" lon="6.4505">
        <ele>315.39999389648</ele>
        <time>2017-07-19T11:54:04Z</time>
      </trkpt>
      <trkpt lat="48.20877" lon="6.45095">
        <ele>316.20001220703</ele>
        <time>2017-07-19T11:54:10Z</time>
      </trkpt>
      <trkpt lat="48.20881" lon="6.4511">
        <ele>316.39999389648</ele>
        <time>2017-07-19T11:54:12Z</time>
      </trkpt>
      <trkpt lat="48.2089" lon="6.45139">
        <ele>317</ele>
        <time>2017-07-19T11:54:16Z</time>
      </trkpt>
      <trkpt lat="48.20896" lon="6.4516">
        <ele>317</ele>
        <time>2017-07-19T11:54:19Z</time>
      </trkpt>
      <trkpt lat="48.20903" lon="6.4518">
        <ele>317.20001220703</ele>
        <time>2017-07-19T11:54:22Z</time>
      </trkpt>
      <trkpt lat="48.20912" lon="6.45209">
        <ele>317.60000610352</ele>
        <time>2017-07-19T11:54:26Z</time>
      </trkpt>
      <trkpt lat="48.20921" lon="6.45234">
        <ele>317.60000610352</ele>
        <time>2017-07-19T11:54:30Z</time>
      </trkpt>
      <trkpt lat="48.20923" lon="6.45245">
        <ele>317.79998779297</ele>
        <time>2017-07-19T11:54:32Z</time>
      </trkpt>
      <trkpt lat="48.20924" lon="6.4525">
        <ele>317.79998779297</ele>
        <time>2017-07-19T11:54:33Z</time>
      </trkpt>
      <trkpt lat="48.20932" lon="6.45266">
        <ele>318</ele>
        <time>2017-07-19T11:54:37Z</time>
      </trkpt>
      <trkpt lat="48.2094" lon="6.45271">
        <ele>318</ele>
        <time>2017-07-19T11:54:39Z</time>
      </trkpt>
      <trkpt lat="48.2095" lon="6.45272">
        <ele>318.20001220703</ele>
        <time>2017-07-19T11:54:41Z</time>
      </trkpt>
      <trkpt lat="48.20955" lon="6.45272">
        <ele>318.20001220703</ele>
        <time>2017-07-19T11:54:42Z</time>
      </trkpt>
      <trkpt lat="48.20965" lon="6.45274">
        <ele>318.39999389648</ele>
        <time>2017-07-19T11:54:44Z</time>
      </trkpt>
      <trkpt lat="48.20982" lon="6.45278">
        <ele>318.39999389648</ele>
        <time>2017-07-19T11:54:47Z</time>
      </trkpt>
      <trkpt lat="48.21027" lon="6.45289">
        <ele>317.79998779297</ele>
        <time>2017-07-19T11:54:55Z</time>
      </trkpt>
      <trkpt lat="48.21065" lon="6.45299">
        <ele>317.20001220703</ele>
        <time>2017-07-19T11:55:02Z</time>
      </trkpt>
      <trkpt lat="48.21071" lon="6.453">
        <ele>317.20001220703</ele>
        <time>2017-07-19T11:55:03Z</time>
      </trkpt>
      <trkpt lat="48.21117" lon="6.45312">
        <ele>316.20001220703</ele>
        <time>2017-07-19T11:55:11Z</time>
      </trkpt>
      <trkpt lat="48.21123" lon="6.45314">
        <ele>316.20001220703</ele>
        <time>2017-07-19T11:55:12Z</time>
      </trkpt>
      <trkpt lat="48.21129" lon="6.45315">
        <ele>316.20001220703</ele>
        <time>2017-07-19T11:55:13Z</time>
      </trkpt>
      <trkpt lat="48.21148" lon="6.4532">
        <ele>316</ele>
        <time>2017-07-19T11:55:16Z</time>
      </trkpt>
      <trkpt lat="48.21204" lon="6.45333">
        <ele>316</ele>
        <time>2017-07-19T11:55:25Z</time>
      </trkpt>
      <trkpt lat="48.2121" lon="6.45334">
        <ele>316</ele>
        <time>2017-07-19T11:55:26Z</time>
      </trkpt>
      <trkpt lat="48.21258" lon="6.45347">
        <ele>315.60000610352</ele>
        <time>2017-07-19T11:55:34Z</time>
      </trkpt>
      <trkpt lat="48.21289" lon="6.45347">
        <ele>315</ele>
        <time>2017-07-19T11:55:39Z</time>
      </trkpt>
      <trkpt lat="48.21295" lon="6.45346">
        <ele>315</ele>
        <time>2017-07-19T11:55:40Z</time>
      </trkpt>
      <trkpt lat="48.2133" lon="6.45338">
        <ele>315</ele>
        <time>2017-07-19T11:55:46Z</time>
      </trkpt>
      <trkpt lat="48.2137" lon="6.45327">
        <ele>314.79998779297</ele>
        <time>2017-07-19T11:55:53Z</time>
      </trkpt>
      <trkpt lat="48.21398" lon="6.4532">
        <ele>314.60000610352</ele>
        <time>2017-07-19T11:55:58Z</time>
      </trkpt>
      <trkpt lat="48.21404" lon="6.4532">
        <ele>314.60000610352</ele>
        <time>2017-07-19T11:55:59Z</time>
      </trkpt>
      <trkpt lat="48.21445" lon="6.45326">
        <ele>314.20001220703</ele>
        <time>2017-07-19T11:56:06Z</time>
      </trkpt>
      <trkpt lat="48.21497" lon="6.45337">
        <ele>314.20001220703</ele>
        <time>2017-07-19T11:56:14Z</time>
      </trkpt>
      <trkpt lat="48.21554" lon="6.45339">
        <ele>314.20001220703</ele>
        <time>2017-07-19T11:56:23Z</time>
      </trkpt>
      <trkpt lat="48.21567" lon="6.45339">
        <ele>314</ele>
        <time>2017-07-19T11:56:25Z</time>
      </trkpt>
      <trkpt lat="48.216" lon="6.45339">
        <ele>314</ele>
        <time>2017-07-19T11:56:30Z</time>
      </trkpt>
      <trkpt lat="48.21658" lon="6.45338">
        <ele>314</ele>
        <time>2017-07-19T11:56:39Z</time>
      </trkpt>
      <trkpt lat="48.21665" lon="6.45337">
        <ele>314</ele>
        <time>2017-07-19T11:56:40Z</time>
      </trkpt>
      <trkpt lat="48.21715" lon="6.45341">
        <ele>313.79998779297</ele>
        <time>2017-07-19T11:56:48Z</time>
      </trkpt>
      <trkpt lat="48.21752" lon="6.45354">
        <ele>313.39999389648</ele>
        <time>2017-07-19T11:56:54Z</time>
      </trkpt>
      <trkpt lat="48.21758" lon="6.45358">
        <ele>313.39999389648</ele>
        <time>2017-07-19T11:56:55Z</time>
      </trkpt>
      <trkpt lat="48.21794" lon="6.45383">
        <ele>313</ele>
        <time>2017-07-19T11:57:01Z</time>
      </trkpt>
      <trkpt lat="48.218" lon="6.45387">
        <ele>313</ele>
        <time>2017-07-19T11:57:02Z</time>
      </trkpt>
      <trkpt lat="48.21824" lon="6.45407">
        <ele>313.20001220703</ele>
        <time>2017-07-19T11:57:06Z</time>
      </trkpt>
      <trkpt lat="48.21837" lon="6.45416">
        <ele>313.39999389648</ele>
        <time>2017-07-19T11:57:08Z</time>
      </trkpt>
      <trkpt lat="48.21877" lon="6.45448">
        <ele>313.60000610352</ele>
        <time>2017-07-19T11:57:15Z</time>
      </trkpt>
      <trkpt lat="48.21922" lon="6.45483">
        <ele>313.39999389648</ele>
        <time>2017-07-19T11:57:23Z</time>
      </trkpt>
      <trkpt lat="48.21961" lon="6.45511">
        <ele>313.60000610352</ele>
        <time>2017-07-19T11:57:30Z</time>
      </trkpt>
      <trkpt lat="48.21995" lon="6.45527">
        <ele>314</ele>
        <time>2017-07-19T11:57:36Z</time>
      </trkpt>
      <trkpt lat="48.22001" lon="6.45529">
        <ele>314</ele>
        <time>2017-07-19T11:57:37Z</time>
      </trkpt>
      <trkpt lat="48.22047" lon="6.45545">
        <ele>314.60000610352</ele>
        <time>2017-07-19T11:57:45Z</time>
      </trkpt>
      <trkpt lat="48.22094" lon="6.45558">
        <ele>314.79998779297</ele>
        <time>2017-07-19T11:57:53Z</time>
      </trkpt>
      <trkpt lat="48.22149" lon="6.45573">
        <ele>314.60000610352</ele>
        <time>2017-07-19T11:58:02Z</time>
      </trkpt>
      <trkpt lat="48.22155" lon="6.45574">
        <ele>314.60000610352</ele>
        <time>2017-07-19T11:58:03Z</time>
      </trkpt>
      <trkpt lat="48.22204" lon="6.45583">
        <ele>314.20001220703</ele>
        <time>2017-07-19T11:58:11Z</time>
      </trkpt>
      <trkpt lat="48.22261" lon="6.45581">
        <ele>314.20001220703</ele>
        <time>2017-07-19T11:58:20Z</time>
      </trkpt>
      <trkpt lat="48.22305" lon="6.45574">
        <ele>314</ele>
        <time>2017-07-19T11:58:27Z</time>
      </trkpt>
      <trkpt lat="48.22342" lon="6.45571">
        <ele>313.20001220703</ele>
        <time>2017-07-19T11:58:33Z</time>
      </trkpt>
      <trkpt lat="48.22348" lon="6.45575">
        <ele>313.20001220703</ele>
        <time>2017-07-19T11:58:34Z</time>
      </trkpt>
      <trkpt lat="48.2237" lon="6.45596">
        <ele>313</ele>
        <time>2017-07-19T11:58:38Z</time>
      </trkpt>
      <trkpt lat="48.22404" lon="6.45639">
        <ele>312.39999389648</ele>
        <time>2017-07-19T11:58:45Z</time>
      </trkpt>
      <trkpt lat="48.22434" lon="6.45678">
        <ele>312</ele>
        <time>2017-07-19T11:58:52Z</time>
      </trkpt>
      <trkpt lat="48.22455" lon="6.45694">
        <ele>312</ele>
        <time>2017-07-19T11:58:57Z</time>
      </trkpt>
      <trkpt lat="48.2248" lon="6.45714">
        <ele>312.39999389648</ele>
        <time>2017-07-19T11:59:04Z</time>
      </trkpt>
      <trkpt lat="48.22486" lon="6.45719">
        <ele>312.39999389648</ele>
        <time>2017-07-19T11:59:07Z</time>
      </trkpt>
      <trkpt lat="48.22487" lon="6.45715">
        <ele>312.39999389648</ele>
        <time>2017-07-19T11:59:08Z</time>
      </trkpt>
      <trkpt lat="48.22483" lon="6.45709">
        <ele>312.20001220703</ele>
        <time>2017-07-19T11:59:11Z</time>
      </trkpt>
      <trkpt lat="48.22481" lon="6.45707">
        <ele>312.20001220703</ele>
        <time>2017-07-19T11:59:12Z</time>
      </trkpt>
      <trkpt lat="48.22467" lon="6.45697">
        <ele>312.20001220703</ele>
        <time>2017-07-19T11:59:16Z</time>
      </trkpt>
      <trkpt lat="48.22457" lon="6.45689">
        <ele>312</ele>
        <time>2017-07-19T11:59:19Z</time>
      </trkpt>
      <trkpt lat="48.22446" lon="6.4568">
        <ele>311.79998779297</ele>
        <time>2017-07-19T11:59:23Z</time>
      </trkpt>
      <trkpt lat="48.2243" lon="6.45671">
        <ele>312</ele>
        <time>2017-07-19T11:59:28Z</time>
      </trkpt>
      <trkpt lat="48.22418" lon="6.45669">
        <ele>312</ele>
        <time>2017-07-19T11:59:32Z</time>
      </trkpt>
      <trkpt lat="48.22416" lon="6.45673">
        <ele>312</ele>
        <time>2017-07-19T11:59:33Z</time>
      </trkpt>
      <trkpt lat="48.22409" lon="6.45695">
        <ele>312</ele>
        <time>2017-07-19T11:59:37Z</time>
      </trkpt>
      <trkpt lat="48.22395" lon="6.45721">
        <ele>311.60000610352</ele>
        <time>2017-07-19T11:59:44Z</time>
      </trkpt>
      <trkpt lat="48.22387" lon="6.45739">
        <ele>311.79998779297</ele>
        <time>2017-07-19T11:59:50Z</time>
      </trkpt>
      <trkpt lat="48.22375" lon="6.45769">
        <ele>312.20001220703</ele>
        <time>2017-07-19T11:59:57Z</time>
      </trkpt>
      <trkpt lat="48.2236" lon="6.45804">
        <ele>312.20001220703</ele>
        <time>2017-07-19T12:00:04Z</time>
      </trkpt>
      <trkpt lat="48.22357" lon="6.45828">
        <ele>312.39999389648</ele>
        <time>2017-07-19T12:00:09Z</time>
      </trkpt>
      <trkpt lat="48.22368" lon="6.45846">
        <ele>312.60000610352</ele>
        <time>2017-07-19T12:00:13Z</time>
      </trkpt>
      <trkpt lat="48.22389" lon="6.45885">
        <ele>312.39999389648</ele>
        <time>2017-07-19T12:00:20Z</time>
      </trkpt>
      <trkpt lat="48.22403" lon="6.45913">
        <ele>312</ele>
        <time>2017-07-19T12:00:26Z</time>
      </trkpt>
      <trkpt lat="48.22401" lon="6.45914">
        <ele>312</ele>
        <time>2017-07-19T12:00:27Z</time>
      </trkpt>
      <trkpt lat="48.22397" lon="6.45911">
        <ele>312</ele>
        <time>2017-07-19T12:00:29Z</time>
      </trkpt>
      <trkpt lat="48.22393" lon="6.45898">
        <ele>311.79998779297</ele>
        <time>2017-07-19T12:00:33Z</time>
      </trkpt>
      <trkpt lat="48.22383" lon="6.45899">
        <ele>311.79998779297</ele>
        <time>2017-07-19T12:00:37Z</time>
      </trkpt>
      <trkpt lat="48.22378" lon="6.45914">
        <ele>311.79998779297</ele>
        <time>2017-07-19T12:00:41Z</time>
      </trkpt>
      <trkpt lat="48.22374" lon="6.45916">
        <ele>312.20001220703</ele>
        <time>2017-07-19T12:00:56Z</time>
      </trkpt>
      <trkpt lat="48.22366" lon="6.45906">
        <ele>312.20001220703</ele>
        <time>2017-07-19T12:02:05Z</time>
      </trkpt>
      <trkpt lat="48.22366" lon="6.45911">
        <ele>312.20001220703</ele>
        <time>2017-07-19T12:02:07Z</time>
      </trkpt>
      <trkpt lat="48.2236" lon="6.4592">
        <ele>312.39999389648</ele>
        <time>2017-07-19T12:02:12Z</time>
      </trkpt>
      <trkpt lat="48.22357" lon="6.45927">
        <ele>313</ele>
        <time>2017-07-19T12:02:15Z</time>
      </trkpt>
      <trkpt lat="48.22353" lon="6.45937">
        <ele>313.60000610352</ele>
        <time>2017-07-19T12:02:18Z</time>
      </trkpt>
      <trkpt lat="48.22346" lon="6.45962">
        <ele>313.79998779297</ele>
        <time>2017-07-19T12:02:23Z</time>
      </trkpt>
      <trkpt lat="48.22346" lon="6.45975">
        <ele>313.79998779297</ele>
        <time>2017-07-19T12:02:26Z</time>
      </trkpt>
      <trkpt lat="48.22347" lon="6.45981">
        <ele>313.79998779297</ele>
        <time>2017-07-19T12:02:28Z</time>
      </trkpt>
      <trkpt lat="48.22346" lon="6.46008">
        <ele>313.79998779297</ele>
        <time>2017-07-19T12:02:34Z</time>
      </trkpt>
      <trkpt lat="48.2234" lon="6.46032">
        <ele>314</ele>
        <time>2017-07-19T12:02:39Z</time>
      </trkpt>
      <trkpt lat="48.22341" lon="6.46037">
        <ele>314</ele>
        <time>2017-07-19T12:02:40Z</time>
      </trkpt>
      <trkpt lat="48.22346" lon="6.46063">
        <ele>313.79998779297</ele>
        <time>2017-07-19T12:02:44Z</time>
      </trkpt>
      <trkpt lat="48.22348" lon="6.46078">
        <ele>313.39999389648</ele>
        <time>2017-07-19T12:02:46Z</time>
      </trkpt>
      <trkpt lat="48.22352" lon="6.46102">
        <ele>312.79998779297</ele>
        <time>2017-07-19T12:02:49Z</time>
      </trkpt>
      <trkpt lat="48.22356" lon="6.46132">
        <ele>312.39999389648</ele>
        <time>2017-07-19T12:02:53Z</time>
      </trkpt>
      <trkpt lat="48.22362" lon="6.4617">
        <ele>312.20001220703</ele>
        <time>2017-07-19T12:02:59Z</time>
      </trkpt>
      <trkpt lat="48.22371" lon="6.46225">
        <ele>312.79998779297</ele>
        <time>2017-07-19T12:03:07Z</time>
      </trkpt>
      <trkpt lat="48.22379" lon="6.4627">
        <ele>313.39999389648</ele>
        <time>2017-07-19T12:03:14Z</time>
      </trkpt>
      <trkpt lat="48.22382" lon="6.46281">
        <ele>313.60000610352</ele>
        <time>2017-07-19T12:03:16Z</time>
      </trkpt>
      <trkpt lat="48.22386" lon="6.46292">
        <ele>314</ele>
        <time>2017-07-19T12:03:18Z</time>
      </trkpt>
      <trkpt lat="48.22391" lon="6.46313">
        <ele>314.39999389648</ele>
        <time>2017-07-19T12:03:22Z</time>
      </trkpt>
      <trkpt lat="48.22402" lon="6.46348">
        <ele>314.79998779297</ele>
        <time>2017-07-19T12:03:29Z</time>
      </trkpt>
      <trkpt lat="48.22406" lon="6.46367">
        <ele>315.20001220703</ele>
        <time>2017-07-19T12:03:33Z</time>
      </trkpt>
      <trkpt lat="48.22407" lon="6.46374">
        <ele>315.39999389648</ele>
        <time>2017-07-19T12:03:35Z</time>
      </trkpt>
      <trkpt lat="48.22411" lon="6.4638">
        <ele>316.20001220703</ele>
        <time>2017-07-19T12:03:39Z</time>
      </trkpt>
      <trkpt lat="48.22415" lon="6.46392">
        <ele>316.79998779297</ele>
        <time>2017-07-19T12:03:44Z</time>
      </trkpt>
      <trkpt lat="48.22421" lon="6.46391">
        <ele>317</ele>
        <time>2017-07-19T12:03:46Z</time>
      </trkpt>
      <trkpt lat="48.22426" lon="6.46387">
        <ele>317.20001220703</ele>
        <time>2017-07-19T12:03:48Z</time>
      </trkpt>
      <trkpt lat="48.22434" lon="6.46376">
        <ele>318</ele>
        <time>2017-07-19T12:03:52Z</time>
      </trkpt>
      <trkpt lat="48.22435" lon="6.46377">
        <ele>317.79998779297</ele>
        <time>2017-07-19T12:06:01Z</time>
      </trkpt>
      <trkpt lat="48.22426" lon="6.46382">
        <ele>317.79998779297</ele>
        <time>2017-07-19T12:06:05Z</time>
      </trkpt>
      <trkpt lat="48.22417" lon="6.46404">
        <ele>317.39999389648</ele>
        <time>2017-07-19T12:06:11Z</time>
      </trkpt>
      <trkpt lat="48.22418" lon="6.46422">
        <ele>317.60000610352</ele>
        <time>2017-07-19T12:06:15Z</time>
      </trkpt>
      <trkpt lat="48.2242" lon="6.46426">
        <ele>317.60000610352</ele>
        <time>2017-07-19T12:06:16Z</time>
      </trkpt>
      <trkpt lat="48.22428" lon="6.46448">
        <ele>318.39999389648</ele>
        <time>2017-07-19T12:06:23Z</time>
      </trkpt>
      <trkpt lat="48.22436" lon="6.46464">
        <ele>319.39999389648</ele>
        <time>2017-07-19T12:06:29Z</time>
      </trkpt>
      <trkpt lat="48.22438" lon="6.46466">
        <ele>319.60000610352</ele>
        <time>2017-07-19T12:06:30Z</time>
      </trkpt>
      <trkpt lat="48.22446" lon="6.46476">
        <ele>320.39999389648</ele>
        <time>2017-07-19T12:06:35Z</time>
      </trkpt>
      <trkpt lat="48.22449" lon="6.4648">
        <ele>320.60000610352</ele>
        <time>2017-07-19T12:06:37Z</time>
      </trkpt>
      <trkpt lat="48.22456" lon="6.46484">
        <ele>321.39999389648</ele>
        <time>2017-07-19T12:06:41Z</time>
      </trkpt>
      <trkpt lat="48.22461" lon="6.46485">
        <ele>321.79998779297</ele>
        <time>2017-07-19T12:06:43Z</time>
      </trkpt>
      <trkpt lat="48.22473" lon="6.46484">
        <ele>322.39999389648</ele>
        <time>2017-07-19T12:06:48Z</time>
      </trkpt>
      <trkpt lat="48.22477" lon="6.46486">
        <ele>322.79998779297</ele>
        <time>2017-07-19T12:06:50Z</time>
      </trkpt>
      <trkpt lat="48.22486" lon="6.46489">
        <ele>323.39999389648</ele>
        <time>2017-07-19T12:06:54Z</time>
      </trkpt>
      <trkpt lat="48.22494" lon="6.46492">
        <ele>324</ele>
        <time>2017-07-19T12:06:57Z</time>
      </trkpt>
      <trkpt lat="48.22504" lon="6.46494">
        <ele>325</ele>
        <time>2017-07-19T12:07:02Z</time>
      </trkpt>
      <trkpt lat="48.22506" lon="6.46494">
        <ele>325</ele>
        <time>2017-07-19T12:07:03Z</time>
      </trkpt>
      <trkpt lat="48.22522" lon="6.46496">
        <ele>326.20001220703</ele>
        <time>2017-07-19T12:07:10Z</time>
      </trkpt>
      <trkpt lat="48.22538" lon="6.46491">
        <ele>327.20001220703</ele>
        <time>2017-07-19T12:07:17Z</time>
      </trkpt>
      <trkpt lat="48.2254" lon="6.4649">
        <ele>327.39999389648</ele>
        <time>2017-07-19T12:07:18Z</time>
      </trkpt>
      <trkpt lat="48.22553" lon="6.4648">
        <ele>328.39999389648</ele>
        <time>2017-07-19T12:07:25Z</time>
      </trkpt>
      <trkpt lat="48.22562" lon="6.46466">
        <ele>329.20001220703</ele>
        <time>2017-07-19T12:07:31Z</time>
      </trkpt>
      <trkpt lat="48.22563" lon="6.46463">
        <ele>329.39999389648</ele>
        <time>2017-07-19T12:07:32Z</time>
      </trkpt>
      <trkpt lat="48.22575" lon="6.46449">
        <ele>330.39999389648</ele>
        <time>2017-07-19T12:07:39Z</time>
      </trkpt>
      <trkpt lat="48.22583" lon="6.46441">
        <ele>331</ele>
        <time>2017-07-19T12:07:44Z</time>
      </trkpt>
      <trkpt lat="48.22585" lon="6.46441">
        <ele>331.20001220703</ele>
        <time>2017-07-19T12:07:45Z</time>
      </trkpt>
      <trkpt lat="48.22587" lon="6.4644">
        <ele>331.39999389648</ele>
        <time>2017-07-19T12:07:46Z</time>
      </trkpt>
      <trkpt lat="48.22594" lon="6.4644">
        <ele>332</ele>
        <time>2017-07-19T12:07:50Z</time>
      </trkpt>
      <trkpt lat="48.22598" lon="6.46438">
        <ele>332.39999389648</ele>
        <time>2017-07-19T12:07:52Z</time>
      </trkpt>
      <trkpt lat="48.22601" lon="6.46438">
        <ele>332.60000610352</ele>
        <time>2017-07-19T12:07:53Z</time>
      </trkpt>
      <trkpt lat="48.22605" lon="6.4644">
        <ele>332.79998779297</ele>
        <time>2017-07-19T12:07:55Z</time>
      </trkpt>
      <trkpt lat="48.22612" lon="6.46449">
        <ele>333.79998779297</ele>
        <time>2017-07-19T12:08:00Z</time>
      </trkpt>
      <trkpt lat="48.22613" lon="6.46452">
        <ele>334</ele>
        <time>2017-07-19T12:08:01Z</time>
      </trkpt>
      <trkpt lat="48.22616" lon="6.46472">
        <ele>334.79998779297</ele>
        <time>2017-07-19T12:08:08Z</time>
      </trkpt>
      <trkpt lat="48.22621" lon="6.46488">
        <ele>335.79998779297</ele>
        <time>2017-07-19T12:08:14Z</time>
      </trkpt>
      <trkpt lat="48.22621" lon="6.4649">
        <ele>335.79998779297</ele>
        <time>2017-07-19T12:08:15Z</time>
      </trkpt>
      <trkpt lat="48.22626" lon="6.46508">
        <ele>336.79998779297</ele>
        <time>2017-07-19T12:08:22Z</time>
      </trkpt>
      <trkpt lat="48.22627" lon="6.46511">
        <ele>337</ele>
        <time>2017-07-19T12:08:23Z</time>
      </trkpt>
      <trkpt lat="48.22632" lon="6.46528">
        <ele>338.20001220703</ele>
        <time>2017-07-19T12:08:30Z</time>
      </trkpt>
      <trkpt lat="48.22636" lon="6.46543">
        <ele>339.20001220703</ele>
        <time>2017-07-19T12:08:36Z</time>
      </trkpt>
      <trkpt lat="48.2264" lon="6.46557">
        <ele>340.20001220703</ele>
        <time>2017-07-19T12:08:42Z</time>
      </trkpt>
      <trkpt lat="48.22645" lon="6.46571">
        <ele>341.39999389648</ele>
        <time>2017-07-19T12:08:48Z</time>
      </trkpt>
      <trkpt lat="48.22645" lon="6.46573">
        <ele>341.60000610352</ele>
        <time>2017-07-19T12:08:49Z</time>
      </trkpt>
      <trkpt lat="48.22648" lon="6.46586">
        <ele>342.60000610352</ele>
        <time>2017-07-19T12:08:54Z</time>
      </trkpt>
      <trkpt lat="48.2265" lon="6.46597">
        <ele>343</ele>
        <time>2017-07-19T12:08:58Z</time>
      </trkpt>
      <trkpt lat="48.22653" lon="6.46609">
        <ele>343.60000610352</ele>
        <time>2017-07-19T12:09:03Z</time>
      </trkpt>
      <trkpt lat="48.22655" lon="6.46627">
        <ele>344.60000610352</ele>
        <time>2017-07-19T12:09:10Z</time>
      </trkpt>
      <trkpt lat="48.22656" lon="6.46641">
        <ele>345.60000610352</ele>
        <time>2017-07-19T12:09:15Z</time>
      </trkpt>
      <trkpt lat="48.22656" lon="6.46652">
        <ele>346.39999389648</ele>
        <time>2017-07-19T12:09:19Z</time>
      </trkpt>
      <trkpt lat="48.22657" lon="6.46661">
        <ele>346.79998779297</ele>
        <time>2017-07-19T12:09:22Z</time>
      </trkpt>
      <trkpt lat="48.22657" lon="6.46663">
        <ele>347</ele>
        <time>2017-07-19T12:09:23Z</time>
      </trkpt>
      <trkpt lat="48.22657" lon="6.46669">
        <ele>347.20001220703</ele>
        <time>2017-07-19T12:09:25Z</time>
      </trkpt>
      <trkpt lat="48.22657" lon="6.46686">
        <ele>347.79998779297</ele>
        <time>2017-07-19T12:09:31Z</time>
      </trkpt>
      <trkpt lat="48.22657" lon="6.46697">
        <ele>348.79998779297</ele>
        <time>2017-07-19T12:09:35Z</time>
      </trkpt>
      <trkpt lat="48.22657" lon="6.467">
        <ele>349</ele>
        <time>2017-07-19T12:09:36Z</time>
      </trkpt>
      <trkpt lat="48.22659" lon="6.46723">
        <ele>349.79998779297</ele>
        <time>2017-07-19T12:09:43Z</time>
      </trkpt>
      <trkpt lat="48.22659" lon="6.46729">
        <ele>350.20001220703</ele>
        <time>2017-07-19T12:09:45Z</time>
      </trkpt>
      <trkpt lat="48.2266" lon="6.46749">
        <ele>351.20001220703</ele>
        <time>2017-07-19T12:09:51Z</time>
      </trkpt>
      <trkpt lat="48.2266" lon="6.46752">
        <ele>351.20001220703</ele>
        <time>2017-07-19T12:09:52Z</time>
      </trkpt>
      <trkpt lat="48.22661" lon="6.46771">
        <ele>352.20001220703</ele>
        <time>2017-07-19T12:09:58Z</time>
      </trkpt>
      <trkpt lat="48.22663" lon="6.4678">
        <ele>352.79998779297</ele>
        <time>2017-07-19T12:10:01Z</time>
      </trkpt>
      <trkpt lat="48.22665" lon="6.4679">
        <ele>353.20001220703</ele>
        <time>2017-07-19T12:10:04Z</time>
      </trkpt>
      <trkpt lat="48.22669" lon="6.46811">
        <ele>354.39999389648</ele>
        <time>2017-07-19T12:10:11Z</time>
      </trkpt>
      <trkpt lat="48.22674" lon="6.46831">
        <ele>355.39999389648</ele>
        <time>2017-07-19T12:10:18Z</time>
      </trkpt>
      <trkpt lat="48.22677" lon="6.4685">
        <ele>356.79998779297</ele>
        <time>2017-07-19T12:10:24Z</time>
      </trkpt>
      <trkpt lat="48.22683" lon="6.46873">
        <ele>357.79998779297</ele>
        <time>2017-07-19T12:10:31Z</time>
      </trkpt>
      <trkpt lat="48.22683" lon="6.46876">
        <ele>357.79998779297</ele>
        <time>2017-07-19T12:10:32Z</time>
      </trkpt>
      <trkpt lat="48.22686" lon="6.46903">
        <ele>358.79998779297</ele>
        <time>2017-07-19T12:10:40Z</time>
      </trkpt>
      <trkpt lat="48.22688" lon="6.46928">
        <ele>359.60000610352</ele>
        <time>2017-07-19T12:10:47Z</time>
      </trkpt>
      <trkpt lat="48.22689" lon="6.46932">
        <ele>360</ele>
        <time>2017-07-19T12:10:48Z</time>
      </trkpt>
      <trkpt lat="48.22694" lon="6.46961">
        <ele>360.60000610352</ele>
        <time>2017-07-19T12:10:54Z</time>
      </trkpt>
      <trkpt lat="48.22698" lon="6.46982">
        <ele>361</ele>
        <time>2017-07-19T12:10:59Z</time>
      </trkpt>
      <trkpt lat="48.227" lon="6.46989">
        <ele>361.20001220703</ele>
        <time>2017-07-19T12:11:01Z</time>
      </trkpt>
      <trkpt lat="48.22704" lon="6.47002">
        <ele>361.79998779297</ele>
        <time>2017-07-19T12:11:26Z</time>
      </trkpt>
      <trkpt lat="48.22705" lon="6.47009">
        <ele>361.79998779297</ele>
        <time>2017-07-19T12:11:28Z</time>
      </trkpt>
      <trkpt lat="48.22711" lon="6.47032">
        <ele>361.79998779297</ele>
        <time>2017-07-19T12:11:33Z</time>
      </trkpt>
      <trkpt lat="48.22722" lon="6.4707">
        <ele>362</ele>
        <time>2017-07-19T12:11:40Z</time>
      </trkpt>
      <trkpt lat="48.22729" lon="6.47086">
        <ele>361.79998779297</ele>
        <time>2017-07-19T12:11:43Z</time>
      </trkpt>
      <trkpt lat="48.22735" lon="6.47104">
        <ele>361.79998779297</ele>
        <time>2017-07-19T12:11:46Z</time>
      </trkpt>
      <trkpt lat="48.22752" lon="6.47135">
        <ele>361.60000610352</ele>
        <time>2017-07-19T12:11:52Z</time>
      </trkpt>
      <trkpt lat="48.22761" lon="6.47155">
        <ele>361.39999389648</ele>
        <time>2017-07-19T12:11:56Z</time>
      </trkpt>
      <trkpt lat="48.22767" lon="6.47166">
        <ele>361.39999389648</ele>
        <time>2017-07-19T12:11:58Z</time>
      </trkpt>
      <trkpt lat="48.22788" lon="6.47206">
        <ele>361.79998779297</ele>
        <time>2017-07-19T12:12:05Z</time>
      </trkpt>
      <trkpt lat="48.22809" lon="6.47248">
        <ele>362</ele>
        <time>2017-07-19T12:12:12Z</time>
      </trkpt>
      <trkpt lat="48.22815" lon="6.4726">
        <ele>362</ele>
        <time>2017-07-19T12:12:14Z</time>
      </trkpt>
      <trkpt lat="48.22823" lon="6.47278">
        <ele>362.20001220703</ele>
        <time>2017-07-19T12:12:17Z</time>
      </trkpt>
      <trkpt lat="48.2283" lon="6.473">
        <ele>362.60000610352</ele>
        <time>2017-07-19T12:12:20Z</time>
      </trkpt>
      <trkpt lat="48.22833" lon="6.47306">
        <ele>362.60000610352</ele>
        <time>2017-07-19T12:12:21Z</time>
      </trkpt>
      <trkpt lat="48.22844" lon="6.47341">
        <ele>363.20001220703</ele>
        <time>2017-07-19T12:12:26Z</time>
      </trkpt>
      <trkpt lat="48.22862" lon="6.47394">
        <ele>363.60000610352</ele>
        <time>2017-07-19T12:12:34Z</time>
      </trkpt>
      <trkpt lat="48.2287" lon="6.47418">
        <ele>364.20001220703</ele>
        <time>2017-07-19T12:12:38Z</time>
      </trkpt>
      <trkpt lat="48.2288" lon="6.47446">
        <ele>364.79998779297</ele>
        <time>2017-07-19T12:12:43Z</time>
      </trkpt>
      <trkpt lat="48.22886" lon="6.47463">
        <ele>365.20001220703</ele>
        <time>2017-07-19T12:12:46Z</time>
      </trkpt>
      <trkpt lat="48.2289" lon="6.47475">
        <ele>365.79998779297</ele>
        <time>2017-07-19T12:12:48Z</time>
      </trkpt>
      <trkpt lat="48.22893" lon="6.47486">
        <ele>366.20001220703</ele>
        <time>2017-07-19T12:12:50Z</time>
      </trkpt>
      <trkpt lat="48.22895" lon="6.47492">
        <ele>366.39999389648</ele>
        <time>2017-07-19T12:12:51Z</time>
      </trkpt>
      <trkpt lat="48.22906" lon="6.47524">
        <ele>367.39999389648</ele>
        <time>2017-07-19T12:12:57Z</time>
      </trkpt>
      <trkpt lat="48.22907" lon="6.47529">
        <ele>367.79998779297</ele>
        <time>2017-07-19T12:12:58Z</time>
      </trkpt>
      <trkpt lat="48.22914" lon="6.4755">
        <ele>368.60000610352</ele>
        <time>2017-07-19T12:13:02Z</time>
      </trkpt>
      <trkpt lat="48.2292" lon="6.47572">
        <ele>369.60000610352</ele>
        <time>2017-07-19T12:13:06Z</time>
      </trkpt>
      <trkpt lat="48.22921" lon="6.47578">
        <ele>369.79998779297</ele>
        <time>2017-07-19T12:13:07Z</time>
      </trkpt>
      <trkpt lat="48.22928" lon="6.47613">
        <ele>370.60000610352</ele>
        <time>2017-07-19T12:13:13Z</time>
      </trkpt>
      <trkpt lat="48.22934" lon="6.47638">
        <ele>370.79998779297</ele>
        <time>2017-07-19T12:13:17Z</time>
      </trkpt>
      <trkpt lat="48.22938" lon="6.4766">
        <ele>370.79998779297</ele>
        <time>2017-07-19T12:13:20Z</time>
      </trkpt>
      <trkpt lat="48.22947" lon="6.47715">
        <ele>370.60000610352</ele>
        <time>2017-07-19T12:13:27Z</time>
      </trkpt>
      <trkpt lat="48.22957" lon="6.47781">
        <ele>369.79998779297</ele>
        <time>2017-07-19T12:13:34Z</time>
      </trkpt>
      <trkpt lat="48.22964" lon="6.47822">
        <ele>368.60000610352</ele>
        <time>2017-07-19T12:13:38Z</time>
      </trkpt>
      <trkpt lat="48.22968" lon="6.47843">
        <ele>368.20001220703</ele>
        <time>2017-07-19T12:13:40Z</time>
      </trkpt>
      <trkpt lat="48.22972" lon="6.47853">
        <ele>368</ele>
        <time>2017-07-19T12:13:41Z</time>
      </trkpt>
      <trkpt lat="48.2298" lon="6.47872">
        <ele>367.39999389648</ele>
        <time>2017-07-19T12:13:43Z</time>
      </trkpt>
      <trkpt lat="48.2299" lon="6.4789">
        <ele>367</ele>
        <time>2017-07-19T12:13:45Z</time>
      </trkpt>
      <trkpt lat="48.22995" lon="6.47898">
        <ele>366.60000610352</ele>
        <time>2017-07-19T12:13:46Z</time>
      </trkpt>
      <trkpt lat="48.23006" lon="6.47913">
        <ele>366.39999389648</ele>
        <time>2017-07-19T12:13:48Z</time>
      </trkpt>
      <trkpt lat="48.23038" lon="6.4797">
        <ele>366</ele>
        <time>2017-07-19T12:13:55Z</time>
      </trkpt>
      <trkpt lat="48.23054" lon="6.48025">
        <ele>366.20001220703</ele>
        <time>2017-07-19T12:14:01Z</time>
      </trkpt>
      <trkpt lat="48.23068" lon="6.48083">
        <ele>367.20001220703</ele>
        <time>2017-07-19T12:14:08Z</time>
      </trkpt>
      <trkpt lat="48.23073" lon="6.48106">
        <ele>367.39999389648</ele>
        <time>2017-07-19T12:14:11Z</time>
      </trkpt>
      <trkpt lat="48.23081" lon="6.48134">
        <ele>367.79998779297</ele>
        <time>2017-07-19T12:14:15Z</time>
      </trkpt>
      <trkpt lat="48.23085" lon="6.48148">
        <ele>368.20001220703</ele>
        <time>2017-07-19T12:14:17Z</time>
      </trkpt>
      <trkpt lat="48.2309" lon="6.48161">
        <ele>368.39999389648</ele>
        <time>2017-07-19T12:14:19Z</time>
      </trkpt>
      <trkpt lat="48.23096" lon="6.48174">
        <ele>368.60000610352</ele>
        <time>2017-07-19T12:14:21Z</time>
      </trkpt>
      <trkpt lat="48.23108" lon="6.48199">
        <ele>369.60000610352</ele>
        <time>2017-07-19T12:14:25Z</time>
      </trkpt>
      <trkpt lat="48.23114" lon="6.48211">
        <ele>369.79998779297</ele>
        <time>2017-07-19T12:14:27Z</time>
      </trkpt>
      <trkpt lat="48.23129" lon="6.48241">
        <ele>370.39999389648</ele>
        <time>2017-07-19T12:14:32Z</time>
      </trkpt>
      <trkpt lat="48.23135" lon="6.48252">
        <ele>370.60000610352</ele>
        <time>2017-07-19T12:14:34Z</time>
      </trkpt>
      <trkpt lat="48.23141" lon="6.48264">
        <ele>370.79998779297</ele>
        <time>2017-07-19T12:14:36Z</time>
      </trkpt>
      <trkpt lat="48.23163" lon="6.48312">
        <ele>371.39999389648</ele>
        <time>2017-07-19T12:14:44Z</time>
      </trkpt>
      <trkpt lat="48.23169" lon="6.48325">
        <ele>371.79998779297</ele>
        <time>2017-07-19T12:14:46Z</time>
      </trkpt>
      <trkpt lat="48.23186" lon="6.48362">
        <ele>372.20001220703</ele>
        <time>2017-07-19T12:14:52Z</time>
      </trkpt>
      <trkpt lat="48.23202" lon="6.48403">
        <ele>372.79998779297</ele>
        <time>2017-07-19T12:14:58Z</time>
      </trkpt>
      <trkpt lat="48.23221" lon="6.48456">
        <ele>372.39999389648</ele>
        <time>2017-07-19T12:15:04Z</time>
      </trkpt>
      <trkpt lat="48.23233" lon="6.48489">
        <ele>371.79998779297</ele>
        <time>2017-07-19T12:15:07Z</time>
      </trkpt>
      <trkpt lat="48.23241" lon="6.48513">
        <ele>371</ele>
        <time>2017-07-19T12:15:09Z</time>
      </trkpt>
      <trkpt lat="48.23245" lon="6.48527">
        <ele>370.60000610352</ele>
        <time>2017-07-19T12:15:10Z</time>
      </trkpt>
      <trkpt lat="48.23254" lon="6.48553">
        <ele>369.20001220703</ele>
        <time>2017-07-19T12:15:12Z</time>
      </trkpt>
      <trkpt lat="48.23264" lon="6.48579">
        <ele>368.20001220703</ele>
        <time>2017-07-19T12:15:14Z</time>
      </trkpt>
      <trkpt lat="48.2327" lon="6.48592">
        <ele>367.60000610352</ele>
        <time>2017-07-19T12:15:15Z</time>
      </trkpt>
      <trkpt lat="48.23282" lon="6.48615">
        <ele>366.79998779297</ele>
        <time>2017-07-19T12:15:17Z</time>
      </trkpt>
      <trkpt lat="48.233" lon="6.48644">
        <ele>365.79998779297</ele>
        <time>2017-07-19T12:15:20Z</time>
      </trkpt>
      <trkpt lat="48.23306" lon="6.48653">
        <ele>365.60000610352</ele>
        <time>2017-07-19T12:15:21Z</time>
      </trkpt>
      <trkpt lat="48.23333" lon="6.48694">
        <ele>365.39999389648</ele>
        <time>2017-07-19T12:15:26Z</time>
      </trkpt>
      <trkpt lat="48.23361" lon="6.48737">
        <ele>366.79998779297</ele>
        <time>2017-07-19T12:15:32Z</time>
      </trkpt>
      <trkpt lat="48.23369" lon="6.48751">
        <ele>367</ele>
        <time>2017-07-19T12:15:34Z</time>
      </trkpt>
      <trkpt lat="48.23395" lon="6.4879">
        <ele>367.79998779297</ele>
        <time>2017-07-19T12:15:40Z</time>
      </trkpt>
      <trkpt lat="48.23412" lon="6.48818">
        <ele>368.20001220703</ele>
        <time>2017-07-19T12:15:44Z</time>
      </trkpt>
      <trkpt lat="48.23449" lon="6.48878">
        <ele>368.39999389648</ele>
        <time>2017-07-19T12:15:53Z</time>
      </trkpt>
      <trkpt lat="48.23488" lon="6.48938">
        <ele>367.60000610352</ele>
        <time>2017-07-19T12:16:01Z</time>
      </trkpt>
      <trkpt lat="48.23514" lon="6.48967">
        <ele>366.39999389648</ele>
        <time>2017-07-19T12:16:05Z</time>
      </trkpt>
      <trkpt lat="48.23522" lon="6.48973">
        <ele>366.20001220703</ele>
        <time>2017-07-19T12:16:06Z</time>
      </trkpt>
      <trkpt lat="48.23547" lon="6.48991">
        <ele>365.20001220703</ele>
        <time>2017-07-19T12:16:09Z</time>
      </trkpt>
      <trkpt lat="48.23572" lon="6.49014">
        <ele>364</ele>
        <time>2017-07-19T12:16:12Z</time>
      </trkpt>
      <trkpt lat="48.23595" lon="6.49043">
        <ele>362.79998779297</ele>
        <time>2017-07-19T12:16:15Z</time>
      </trkpt>
      <trkpt lat="48.23602" lon="6.49054">
        <ele>362.39999389648</ele>
        <time>2017-07-19T12:16:16Z</time>
      </trkpt>
      <trkpt lat="48.23616" lon="6.49075">
        <ele>361.39999389648</ele>
        <time>2017-07-19T12:16:18Z</time>
      </trkpt>
      <trkpt lat="48.23635" lon="6.49106">
        <ele>360.39999389648</ele>
        <time>2017-07-19T12:16:21Z</time>
      </trkpt>
      <trkpt lat="48.23648" lon="6.49126">
        <ele>360</ele>
        <time>2017-07-19T12:16:23Z</time>
      </trkpt>
      <trkpt lat="48.23654" lon="6.49135">
        <ele>359.79998779297</ele>
        <time>2017-07-19T12:16:24Z</time>
      </trkpt>
      <trkpt lat="48.23678" lon="6.4918">
        <ele>359.60000610352</ele>
        <time>2017-07-19T12:16:29Z</time>
      </trkpt>
      <trkpt lat="48.23702" lon="6.49241">
        <ele>360.20001220703</ele>
        <time>2017-07-19T12:16:35Z</time>
      </trkpt>
      <trkpt lat="48.23708" lon="6.49251">
        <ele>360.20001220703</ele>
        <time>2017-07-19T12:16:36Z</time>
      </trkpt>
      <trkpt lat="48.23736" lon="6.49294">
        <ele>359.20001220703</ele>
        <time>2017-07-19T12:16:40Z</time>
      </trkpt>
      <trkpt lat="48.23744" lon="6.49305">
        <ele>358.60000610352</ele>
        <time>2017-07-19T12:16:41Z</time>
      </trkpt>
      <trkpt lat="48.23752" lon="6.49316">
        <ele>358</ele>
        <time>2017-07-19T12:16:42Z</time>
      </trkpt>
      <trkpt lat="48.23768" lon="6.4934">
        <ele>356.60000610352</ele>
        <time>2017-07-19T12:16:44Z</time>
      </trkpt>
      <trkpt lat="48.23785" lon="6.49364">
        <ele>355.20001220703</ele>
        <time>2017-07-19T12:16:46Z</time>
      </trkpt>
      <trkpt lat="48.23802" lon="6.4939">
        <ele>353.20001220703</ele>
        <time>2017-07-19T12:16:48Z</time>
      </trkpt>
      <trkpt lat="48.23819" lon="6.49415">
        <ele>351.79998779297</ele>
        <time>2017-07-19T12:16:50Z</time>
      </trkpt>
      <trkpt lat="48.23837" lon="6.49441">
        <ele>350.39999389648</ele>
        <time>2017-07-19T12:16:52Z</time>
      </trkpt>
      <trkpt lat="48.23855" lon="6.49467">
        <ele>349.20001220703</ele>
        <time>2017-07-19T12:16:54Z</time>
      </trkpt>
      <trkpt lat="48.23872" lon="6.49493">
        <ele>348</ele>
        <time>2017-07-19T12:16:56Z</time>
      </trkpt>
      <trkpt lat="48.23888" lon="6.49519">
        <ele>346.79998779297</ele>
        <time>2017-07-19T12:16:58Z</time>
      </trkpt>
      <trkpt lat="48.23913" lon="6.4956">
        <ele>345.39999389648</ele>
        <time>2017-07-19T12:17:01Z</time>
      </trkpt>
      <trkpt lat="48.23937" lon="6.49601">
        <ele>344.39999389648</ele>
        <time>2017-07-19T12:17:04Z</time>
      </trkpt>
      <trkpt lat="48.23945" lon="6.49614">
        <ele>344</ele>
        <time>2017-07-19T12:17:05Z</time>
      </trkpt>
      <trkpt lat="48.23961" lon="6.49641">
        <ele>343.20001220703</ele>
        <time>2017-07-19T12:17:07Z</time>
      </trkpt>
      <trkpt lat="48.23983" lon="6.49681">
        <ele>342</ele>
        <time>2017-07-19T12:17:10Z</time>
      </trkpt>
      <trkpt lat="48.23988" lon="6.49696">
        <ele>341.79998779297</ele>
        <time>2017-07-19T12:17:11Z</time>
      </trkpt>
      <trkpt lat="48.23996" lon="6.49727">
        <ele>341</ele>
        <time>2017-07-19T12:17:13Z</time>
      </trkpt>
      <trkpt lat="48.24004" lon="6.49757">
        <ele>340.60000610352</ele>
        <time>2017-07-19T12:17:15Z</time>
      </trkpt>
      <trkpt lat="48.24028" lon="6.4983">
        <ele>340.20001220703</ele>
        <time>2017-07-19T12:17:20Z</time>
      </trkpt>
      <trkpt lat="48.24034" lon="6.49843">
        <ele>340</ele>
        <time>2017-07-19T12:17:21Z</time>
      </trkpt>
      <trkpt lat="48.24066" lon="6.49922">
        <ele>339.20001220703</ele>
        <time>2017-07-19T12:17:27Z</time>
      </trkpt>
      <trkpt lat="48.24072" lon="6.49935">
        <ele>339</ele>
        <time>2017-07-19T12:17:28Z</time>
      </trkpt>
      <trkpt lat="48.24077" lon="6.49948">
        <ele>338.79998779297</ele>
        <time>2017-07-19T12:17:29Z</time>
      </trkpt>
      <trkpt lat="48.24099" lon="6.49999">
        <ele>337.79998779297</ele>
        <time>2017-07-19T12:17:33Z</time>
      </trkpt>
      <trkpt lat="48.24115" lon="6.50036">
        <ele>336.79998779297</ele>
        <time>2017-07-19T12:17:36Z</time>
      </trkpt>
      <trkpt lat="48.2412" lon="6.50048">
        <ele>336.60000610352</ele>
        <time>2017-07-19T12:17:37Z</time>
      </trkpt>
      <trkpt lat="48.24154" lon="6.50116">
        <ele>336</ele>
        <time>2017-07-19T12:17:43Z</time>
      </trkpt>
      <trkpt lat="48.2416" lon="6.50127">
        <ele>336</ele>
        <time>2017-07-19T12:17:44Z</time>
      </trkpt>
      <trkpt lat="48.24184" lon="6.50169">
        <ele>335.60000610352</ele>
        <time>2017-07-19T12:17:48Z</time>
      </trkpt>
      <trkpt lat="48.24209" lon="6.50208">
        <ele>335.20001220703</ele>
        <time>2017-07-19T12:17:52Z</time>
      </trkpt>
      <trkpt lat="48.2425" lon="6.50272">
        <ele>335</ele>
        <time>2017-07-19T12:17:59Z</time>
      </trkpt>
      <trkpt lat="48.24287" lon="6.5033">
        <ele>335.20001220703</ele>
        <time>2017-07-19T12:18:06Z</time>
      </trkpt>
      <trkpt lat="48.24291" lon="6.50338">
        <ele>335.20001220703</ele>
        <time>2017-07-19T12:18:07Z</time>
      </trkpt>
      <trkpt lat="48.243" lon="6.50362">
        <ele>335.60000610352</ele>
        <time>2017-07-19T12:18:10Z</time>
      </trkpt>
      <trkpt lat="48.24318" lon="6.50396">
        <ele>336</ele>
        <time>2017-07-19T12:18:15Z</time>
      </trkpt>
      <trkpt lat="48.2433" lon="6.50416">
        <ele>336</ele>
        <time>2017-07-19T12:18:18Z</time>
      </trkpt>
      <trkpt lat="48.24339" lon="6.50427">
        <ele>335.79998779297</ele>
        <time>2017-07-19T12:18:20Z</time>
      </trkpt>
      <trkpt lat="48.24369" lon="6.50456">
        <ele>335.20001220703</ele>
        <time>2017-07-19T12:18:25Z</time>
      </trkpt>
      <trkpt lat="48.2438" lon="6.50471">
        <ele>334.79998779297</ele>
        <time>2017-07-19T12:18:27Z</time>
      </trkpt>
      <trkpt lat="48.24384" lon="6.50481">
        <ele>334.60000610352</ele>
        <time>2017-07-19T12:18:28Z</time>
      </trkpt>
      <trkpt lat="48.24388" lon="6.50491">
        <ele>334.39999389648</ele>
        <time>2017-07-19T12:18:29Z</time>
      </trkpt>
      <trkpt lat="48.24397" lon="6.50509">
        <ele>334.20001220703</ele>
        <time>2017-07-19T12:18:31Z</time>
      </trkpt>
      <trkpt lat="48.24409" lon="6.50537">
        <ele>334.20001220703</ele>
        <time>2017-07-19T12:18:34Z</time>
      </trkpt>
      <trkpt lat="48.24412" lon="6.50577">
        <ele>334.39999389648</ele>
        <time>2017-07-19T12:18:38Z</time>
      </trkpt>
      <trkpt lat="48.24409" lon="6.50595">
        <ele>334.60000610352</ele>
        <time>2017-07-19T12:18:40Z</time>
      </trkpt>
      <trkpt lat="48.24408" lon="6.50614">
        <ele>335</ele>
        <time>2017-07-19T12:18:42Z</time>
      </trkpt>
      <trkpt lat="48.24409" lon="6.50623">
        <ele>335.20001220703</ele>
        <time>2017-07-19T12:18:43Z</time>
      </trkpt>
      <trkpt lat="48.24418" lon="6.50665">
        <ele>335.60000610352</ele>
        <time>2017-07-19T12:18:48Z</time>
      </trkpt>
      <trkpt lat="48.24423" lon="6.50695">
        <ele>335.39999389648</ele>
        <time>2017-07-19T12:18:51Z</time>
      </trkpt>
      <trkpt lat="48.2443" lon="6.50713">
        <ele>335</ele>
        <time>2017-07-19T12:18:53Z</time>
      </trkpt>
      <trkpt lat="48.2444" lon="6.50731">
        <ele>334.60000610352</ele>
        <time>2017-07-19T12:18:55Z</time>
      </trkpt>
      <trkpt lat="48.24451" lon="6.5075">
        <ele>334</ele>
        <time>2017-07-19T12:18:57Z</time>
      </trkpt>
      <trkpt lat="48.24457" lon="6.50758">
        <ele>333.60000610352</ele>
        <time>2017-07-19T12:18:58Z</time>
      </trkpt>
      <trkpt lat="48.24463" lon="6.50768">
        <ele>333.20001220703</ele>
        <time>2017-07-19T12:18:59Z</time>
      </trkpt>
      <trkpt lat="48.24467" lon="6.50779">
        <ele>333</ele>
        <time>2017-07-19T12:19:00Z</time>
      </trkpt>
      <trkpt lat="48.2447" lon="6.50791">
        <ele>332.60000610352</ele>
        <time>2017-07-19T12:19:01Z</time>
      </trkpt>
      <trkpt lat="48.2447" lon="6.50803">
        <ele>332.20001220703</ele>
        <time>2017-07-19T12:19:02Z</time>
      </trkpt>
      <trkpt lat="48.24468" lon="6.50815">
        <ele>332</ele>
        <time>2017-07-19T12:19:03Z</time>
      </trkpt>
      <trkpt lat="48.2446" lon="6.50836">
        <ele>331.39999389648</ele>
        <time>2017-07-19T12:19:05Z</time>
      </trkpt>
      <trkpt lat="48.24456" lon="6.50846">
        <ele>331.20001220703</ele>
        <time>2017-07-19T12:19:06Z</time>
      </trkpt>
      <trkpt lat="48.24432" lon="6.50911">
        <ele>331</ele>
        <time>2017-07-19T12:19:13Z</time>
      </trkpt>
      <trkpt lat="48.24415" lon="6.50965">
        <ele>331.60000610352</ele>
        <time>2017-07-19T12:19:20Z</time>
      </trkpt>
      <trkpt lat="48.24412" lon="6.50971">
        <ele>331.60000610352</ele>
        <time>2017-07-19T12:19:21Z</time>
      </trkpt>
      <trkpt lat="48.24404" lon="6.50982">
        <ele>332.20001220703</ele>
        <time>2017-07-19T12:19:24Z</time>
      </trkpt>
      <trkpt lat="48.24395" lon="6.50993">
        <ele>333.39999389648</ele>
        <time>2017-07-19T12:19:28Z</time>
      </trkpt>
      <trkpt lat="48.24391" lon="6.50997">
        <ele>334</ele>
        <time>2017-07-19T12:19:30Z</time>
      </trkpt>
      <trkpt lat="48.24389" lon="6.50999">
        <ele>334.39999389648</ele>
        <time>2017-07-19T12:19:31Z</time>
      </trkpt>
      <trkpt lat="48.24381" lon="6.51008">
        <ele>335.39999389648</ele>
        <time>2017-07-19T12:19:35Z</time>
      </trkpt>
      <trkpt lat="48.24374" lon="6.51016">
        <ele>336.20001220703</ele>
        <time>2017-07-19T12:19:39Z</time>
      </trkpt>
      <trkpt lat="48.24372" lon="6.51018">
        <ele>336.60000610352</ele>
        <time>2017-07-19T12:19:40Z</time>
      </trkpt>
      <trkpt lat="48.2436" lon="6.51031">
        <ele>337.60000610352</ele>
        <time>2017-07-19T12:19:46Z</time>
      </trkpt>
      <trkpt lat="48.24348" lon="6.51042">
        <ele>338.79998779297</ele>
        <time>2017-07-19T12:19:52Z</time>
      </trkpt>
      <trkpt lat="48.24342" lon="6.51048">
        <ele>339.39999389648</ele>
        <time>2017-07-19T12:19:55Z</time>
      </trkpt>
      <trkpt lat="48.24339" lon="6.51053">
        <ele>339.79998779297</ele>
        <time>2017-07-19T12:19:57Z</time>
      </trkpt>
      <trkpt lat="48.2433" lon="6.51062">
        <ele>340.79998779297</ele>
        <time>2017-07-19T12:20:02Z</time>
      </trkpt>
      <trkpt lat="48.24326" lon="6.51067">
        <ele>341.20001220703</ele>
        <time>2017-07-19T12:20:04Z</time>
      </trkpt>
      <trkpt lat="48.24317" lon="6.51075">
        <ele>341.79998779297</ele>
        <time>2017-07-19T12:20:08Z</time>
      </trkpt>
      <trkpt lat="48.24311" lon="6.51081">
        <ele>342.39999389648</ele>
        <time>2017-07-19T12:20:11Z</time>
      </trkpt>
      <trkpt lat="48.24305" lon="6.51086">
        <ele>343</ele>
        <time>2017-07-19T12:20:14Z</time>
      </trkpt>
      <trkpt lat="48.24298" lon="6.511">
        <ele>344</ele>
        <time>2017-07-19T12:20:19Z</time>
      </trkpt>
      <trkpt lat="48.24294" lon="6.51117">
        <ele>345.20001220703</ele>
        <time>2017-07-19T12:20:24Z</time>
      </trkpt>
      <trkpt lat="48.24294" lon="6.51125">
        <ele>345.60000610352</ele>
        <time>2017-07-19T12:20:26Z</time>
      </trkpt>
      <trkpt lat="48.24298" lon="6.51143">
        <ele>346.20001220703</ele>
        <time>2017-07-19T12:20:31Z</time>
      </trkpt>
      <trkpt lat="48.243" lon="6.51147">
        <ele>346.39999389648</ele>
        <time>2017-07-19T12:20:32Z</time>
      </trkpt>
      <trkpt lat="48.24321" lon="6.51177">
        <ele>346.60000610352</ele>
        <time>2017-07-19T12:20:41Z</time>
      </trkpt>
      <trkpt lat="48.24336" lon="6.51197">
        <ele>346.20001220703</ele>
        <time>2017-07-19T12:20:46Z</time>
      </trkpt>
      <trkpt lat="48.24339" lon="6.512">
        <ele>346</ele>
        <time>2017-07-19T12:20:47Z</time>
      </trkpt>
      <trkpt lat="48.24355" lon="6.5122">
        <ele>345.79998779297</ele>
        <time>2017-07-19T12:20:52Z</time>
      </trkpt>
      <trkpt lat="48.24362" lon="6.51229">
        <ele>345.60000610352</ele>
        <time>2017-07-19T12:20:54Z</time>
      </trkpt>
      <trkpt lat="48.24389" lon="6.51264">
        <ele>345.39999389648</ele>
        <time>2017-07-19T12:21:01Z</time>
      </trkpt>
      <trkpt lat="48.24415" lon="6.51304">
        <ele>345.39999389648</ele>
        <time>2017-07-19T12:21:07Z</time>
      </trkpt>
      <trkpt lat="48.24429" lon="6.51328">
        <ele>345.20001220703</ele>
        <time>2017-07-19T12:21:10Z</time>
      </trkpt>
      <trkpt lat="48.24448" lon="6.51362">
        <ele>344.39999389648</ele>
        <time>2017-07-19T12:21:14Z</time>
      </trkpt>
      <trkpt lat="48.24453" lon="6.51372">
        <ele>344.20001220703</ele>
        <time>2017-07-19T12:21:15Z</time>
      </trkpt>
      <trkpt lat="48.24478" lon="6.51418">
        <ele>343.39999389648</ele>
        <time>2017-07-19T12:21:20Z</time>
      </trkpt>
      <trkpt lat="48.24493" lon="6.51446">
        <ele>343.20001220703</ele>
        <time>2017-07-19T12:21:23Z</time>
      </trkpt>
      <trkpt lat="48.24514" lon="6.51494">
        <ele>342.60000610352</ele>
        <time>2017-07-19T12:21:28Z</time>
      </trkpt>
      <trkpt lat="48.24541" lon="6.51569">
        <ele>342.60000610352</ele>
        <time>2017-07-19T12:21:36Z</time>
      </trkpt>
      <trkpt lat="48.24547" lon="6.51586">
        <ele>342.60000610352</ele>
        <time>2017-07-19T12:21:38Z</time>
      </trkpt>
      <trkpt lat="48.24565" lon="6.51639">
        <ele>342.79998779297</ele>
        <time>2017-07-19T12:21:44Z</time>
      </trkpt>
      <trkpt lat="48.24588" lon="6.51711">
        <ele>342.60000610352</ele>
        <time>2017-07-19T12:21:52Z</time>
      </trkpt>
      <trkpt lat="48.24606" lon="6.51763">
        <ele>342.60000610352</ele>
        <time>2017-07-19T12:21:58Z</time>
      </trkpt>
      <trkpt lat="48.24625" lon="6.51813">
        <ele>343.20001220703</ele>
        <time>2017-07-19T12:22:04Z</time>
      </trkpt>
      <trkpt lat="48.24628" lon="6.51822">
        <ele>343.20001220703</ele>
        <time>2017-07-19T12:22:05Z</time>
      </trkpt>
      <trkpt lat="48.24638" lon="6.51847">
        <ele>343.39999389648</ele>
        <time>2017-07-19T12:22:08Z</time>
      </trkpt>
      <trkpt lat="48.24644" lon="6.51863">
        <ele>343.39999389648</ele>
        <time>2017-07-19T12:22:10Z</time>
      </trkpt>
      <trkpt lat="48.24659" lon="6.51913">
        <ele>344.20001220703</ele>
        <time>2017-07-19T12:22:16Z</time>
      </trkpt>
      <trkpt lat="48.24672" lon="6.51988">
        <ele>344.60000610352</ele>
        <time>2017-07-19T12:22:24Z</time>
      </trkpt>
      <trkpt lat="48.24679" lon="6.52031">
        <ele>344.39999389648</ele>
        <time>2017-07-19T12:22:28Z</time>
      </trkpt>
      <trkpt lat="48.24685" lon="6.52052">
        <ele>344.20001220703</ele>
        <time>2017-07-19T12:22:30Z</time>
      </trkpt>
      <trkpt lat="48.24707" lon="6.52114">
        <ele>343.20001220703</ele>
        <time>2017-07-19T12:22:36Z</time>
      </trkpt>
      <trkpt lat="48.24712" lon="6.52123">
        <ele>343</ele>
        <time>2017-07-19T12:22:37Z</time>
      </trkpt>
      <trkpt lat="48.24734" lon="6.52161">
        <ele>342</ele>
        <time>2017-07-19T12:22:41Z</time>
      </trkpt>
      <trkpt lat="48.24745" lon="6.52179">
        <ele>341.60000610352</ele>
        <time>2017-07-19T12:22:43Z</time>
      </trkpt>
      <trkpt lat="48.24762" lon="6.52208">
        <ele>341</ele>
        <time>2017-07-19T12:22:46Z</time>
      </trkpt>
      <trkpt lat="48.24785" lon="6.52246">
        <ele>339.79998779297</ele>
        <time>2017-07-19T12:22:50Z</time>
      </trkpt>
      <trkpt lat="48.24791" lon="6.52255">
        <ele>339.60000610352</ele>
        <time>2017-07-19T12:22:51Z</time>
      </trkpt>
      <trkpt lat="48.24821" lon="6.523">
        <ele>338.79998779297</ele>
        <time>2017-07-19T12:22:56Z</time>
      </trkpt>
      <trkpt lat="48.24847" lon="6.52336">
        <ele>338.20001220703</ele>
        <time>2017-07-19T12:23:00Z</time>
      </trkpt>
      <trkpt lat="48.24869" lon="6.52361">
        <ele>337.60000610352</ele>
        <time>2017-07-19T12:23:03Z</time>
      </trkpt>
      <trkpt lat="48.24892" lon="6.52386">
        <ele>336.39999389648</ele>
        <time>2017-07-19T12:23:06Z</time>
      </trkpt>
      <trkpt lat="48.24917" lon="6.5241">
        <ele>335.39999389648</ele>
        <time>2017-07-19T12:23:09Z</time>
      </trkpt>
      <trkpt lat="48.24933" lon="6.52429">
        <ele>334.60000610352</ele>
        <time>2017-07-19T12:23:11Z</time>
      </trkpt>
      <trkpt lat="48.24941" lon="6.52438">
        <ele>334.20001220703</ele>
        <time>2017-07-19T12:23:12Z</time>
      </trkpt>
      <trkpt lat="48.24948" lon="6.52448">
        <ele>333.39999389648</ele>
        <time>2017-07-19T12:23:13Z</time>
      </trkpt>
      <trkpt lat="48.24955" lon="6.52458">
        <ele>333</ele>
        <time>2017-07-19T12:23:14Z</time>
      </trkpt>
      <trkpt lat="48.24969" lon="6.52477">
        <ele>332.20001220703</ele>
        <time>2017-07-19T12:23:16Z</time>
      </trkpt>
      <trkpt lat="48.24976" lon="6.52486">
        <ele>332</ele>
        <time>2017-07-19T12:23:17Z</time>
      </trkpt>
      <trkpt lat="48.25009" lon="6.52535">
        <ele>331.20001220703</ele>
        <time>2017-07-19T12:23:22Z</time>
      </trkpt>
      <trkpt lat="48.25022" lon="6.52555">
        <ele>330.79998779297</ele>
        <time>2017-07-19T12:23:24Z</time>
      </trkpt>
      <trkpt lat="48.25053" lon="6.52604">
        <ele>330.20001220703</ele>
        <time>2017-07-19T12:23:29Z</time>
      </trkpt>
      <trkpt lat="48.25081" lon="6.52653">
        <ele>330</ele>
        <time>2017-07-19T12:23:34Z</time>
      </trkpt>
      <trkpt lat="48.25103" lon="6.52694">
        <ele>329.79998779297</ele>
        <time>2017-07-19T12:23:38Z</time>
      </trkpt>
      <trkpt lat="48.2514" lon="6.52762">
        <ele>329</ele>
        <time>2017-07-19T12:23:45Z</time>
      </trkpt>
      <trkpt lat="48.2515" lon="6.52783">
        <ele>328.79998779297</ele>
        <time>2017-07-19T12:23:47Z</time>
      </trkpt>
      <trkpt lat="48.25171" lon="6.52838">
        <ele>328.20001220703</ele>
        <time>2017-07-19T12:23:52Z</time>
      </trkpt>
      <trkpt lat="48.25195" lon="6.52919">
        <ele>327.79998779297</ele>
        <time>2017-07-19T12:23:59Z</time>
      </trkpt>
      <trkpt lat="48.25198" lon="6.5293">
        <ele>327.60000610352</ele>
        <time>2017-07-19T12:24:00Z</time>
      </trkpt>
      <trkpt lat="48.25224" lon="6.53002">
        <ele>327</ele>
        <time>2017-07-19T12:24:07Z</time>
      </trkpt>
      <trkpt lat="48.25232" lon="6.53021">
        <ele>327</ele>
        <time>2017-07-19T12:24:09Z</time>
      </trkpt>
      <trkpt lat="48.25242" lon="6.53037">
        <ele>326.79998779297</ele>
        <time>2017-07-19T12:24:11Z</time>
      </trkpt>
      <trkpt lat="48.25272" lon="6.53077">
        <ele>326.60000610352</ele>
        <time>2017-07-19T12:24:17Z</time>
      </trkpt>
      <trkpt lat="48.25278" lon="6.53083">
        <ele>326.60000610352</ele>
        <time>2017-07-19T12:24:18Z</time>
      </trkpt>
      <trkpt lat="48.25302" lon="6.53107">
        <ele>326.39999389648</ele>
        <time>2017-07-19T12:24:22Z</time>
      </trkpt>
      <trkpt lat="48.25334" lon="6.53153">
        <ele>325.79998779297</ele>
        <time>2017-07-19T12:24:28Z</time>
      </trkpt>
      <trkpt lat="48.25337" lon="6.53162">
        <ele>325.79998779297</ele>
        <time>2017-07-19T12:24:29Z</time>
      </trkpt>
      <trkpt lat="48.2534" lon="6.53172">
        <ele>325.60000610352</ele>
        <time>2017-07-19T12:24:30Z</time>
      </trkpt>
      <trkpt lat="48.25342" lon="6.53189">
        <ele>325.39999389648</ele>
        <time>2017-07-19T12:24:32Z</time>
      </trkpt>
      <trkpt lat="48.25341" lon="6.53198">
        <ele>325</ele>
        <time>2017-07-19T12:24:35Z</time>
      </trkpt>
      <trkpt lat="48.25341" lon="6.53199">
        <ele>324.60000610352</ele>
        <time>2017-07-19T12:24:46Z</time>
      </trkpt>
      <trkpt lat="48.2534" lon="6.53202">
        <ele>324.60000610352</ele>
        <time>2017-07-19T12:24:48Z</time>
      </trkpt>
      <trkpt lat="48.25347" lon="6.53217">
        <ele>324.60000610352</ele>
        <time>2017-07-19T12:24:52Z</time>
      </trkpt>
      <trkpt lat="48.25351" lon="6.5322">
        <ele>324.60000610352</ele>
        <time>2017-07-19T12:24:53Z</time>
      </trkpt>
      <trkpt lat="48.25369" lon="6.53235">
        <ele>324.60000610352</ele>
        <time>2017-07-19T12:24:57Z</time>
      </trkpt>
      <trkpt lat="48.25403" lon="6.53262">
        <ele>324.20001220703</ele>
        <time>2017-07-19T12:25:04Z</time>
      </trkpt>
      <trkpt lat="48.25438" lon="6.53294">
        <ele>323.79998779297</ele>
        <time>2017-07-19T12:25:10Z</time>
      </trkpt>
      <trkpt lat="48.2545" lon="6.53305">
        <ele>323.39999389648</ele>
        <time>2017-07-19T12:25:12Z</time>
      </trkpt>
      <trkpt lat="48.25485" lon="6.53324">
        <ele>323</ele>
        <time>2017-07-19T12:25:17Z</time>
      </trkpt>
      <trkpt lat="48.25507" lon="6.53332">
        <ele>322.39999389648</ele>
        <time>2017-07-19T12:25:20Z</time>
      </trkpt>
      <trkpt lat="48.25528" lon="6.53335">
        <ele>322</ele>
        <time>2017-07-19T12:25:23Z</time>
      </trkpt>
      <trkpt lat="48.25561" lon="6.53334">
        <ele>321.79998779297</ele>
        <time>2017-07-19T12:25:28Z</time>
      </trkpt>
      <trkpt lat="48.2561" lon="6.53331">
        <ele>321.39999389648</ele>
        <time>2017-07-19T12:25:35Z</time>
      </trkpt>
      <trkpt lat="48.25617" lon="6.53331">
        <ele>321.39999389648</ele>
        <time>2017-07-19T12:25:36Z</time>
      </trkpt>
      <trkpt lat="48.25646" lon="6.53338">
        <ele>320.79998779297</ele>
        <time>2017-07-19T12:25:40Z</time>
      </trkpt>
      <trkpt lat="48.25678" lon="6.53355">
        <ele>320.79998779297</ele>
        <time>2017-07-19T12:25:45Z</time>
      </trkpt>
      <trkpt lat="48.25711" lon="6.53391">
        <ele>320.79998779297</ele>
        <time>2017-07-19T12:25:51Z</time>
      </trkpt>
      <trkpt lat="48.25732" lon="6.5343">
        <ele>320.39999389648</ele>
        <time>2017-07-19T12:25:56Z</time>
      </trkpt>
      <trkpt lat="48.25749" lon="6.53477">
        <ele>321</ele>
        <time>2017-07-19T12:26:02Z</time>
      </trkpt>
      <trkpt lat="48.25764" lon="6.53523">
        <ele>321.79998779297</ele>
        <time>2017-07-19T12:26:09Z</time>
      </trkpt>
      <trkpt lat="48.25774" lon="6.53554">
        <ele>322.39999389648</ele>
        <time>2017-07-19T12:26:15Z</time>
      </trkpt>
      <trkpt lat="48.25775" lon="6.5356">
        <ele>322.39999389648</ele>
        <time>2017-07-19T12:26:16Z</time>
      </trkpt>
      <trkpt lat="48.25777" lon="6.53565">
        <ele>322.60000610352</ele>
        <time>2017-07-19T12:26:17Z</time>
      </trkpt>
      <trkpt lat="48.2579" lon="6.53606">
        <ele>323.20001220703</ele>
        <time>2017-07-19T12:26:24Z</time>
      </trkpt>
      <trkpt lat="48.25793" lon="6.53617">
        <ele>323.39999389648</ele>
        <time>2017-07-19T12:26:26Z</time>
      </trkpt>
      <trkpt lat="48.25806" lon="6.53659">
        <ele>324.20001220703</ele>
        <time>2017-07-19T12:26:33Z</time>
      </trkpt>
      <trkpt lat="48.25809" lon="6.53669">
        <ele>324.39999389648</ele>
        <time>2017-07-19T12:26:35Z</time>
      </trkpt>
      <trkpt lat="48.25814" lon="6.53687">
        <ele>325</ele>
        <time>2017-07-19T12:26:39Z</time>
      </trkpt>
      <trkpt lat="48.25816" lon="6.537">
        <ele>325.20001220703</ele>
        <time>2017-07-19T12:26:44Z</time>
      </trkpt>
      <trkpt lat="48.25818" lon="6.53708">
        <ele>324.60000610352</ele>
        <time>2017-07-19T12:34:46Z</time>
      </trkpt>
      <trkpt lat="48.25818" lon="6.53711">
        <ele>324.60000610352</ele>
        <time>2017-07-19T12:34:47Z</time>
      </trkpt>
      <trkpt lat="48.25818" lon="6.53734">
        <ele>324.60000610352</ele>
        <time>2017-07-19T12:34:52Z</time>
      </trkpt>
      <trkpt lat="48.25817" lon="6.53779">
        <ele>324.20001220703</ele>
        <time>2017-07-19T12:35:00Z</time>
      </trkpt>
      <trkpt lat="48.25813" lon="6.5381">
        <ele>323.60000610352</ele>
        <time>2017-07-19T12:35:05Z</time>
      </trkpt>
      <trkpt lat="48.25811" lon="6.53831">
        <ele>323.39999389648</ele>
        <time>2017-07-19T12:35:08Z</time>
      </trkpt>
      <trkpt lat="48.25804" lon="6.53887">
        <ele>322.79998779297</ele>
        <time>2017-07-19T12:35:15Z</time>
      </trkpt>
      <trkpt lat="48.25798" lon="6.53936">
        <ele>322.39999389648</ele>
        <time>2017-07-19T12:35:21Z</time>
      </trkpt>
      <trkpt lat="48.25795" lon="6.53967">
        <ele>321.79998779297</ele>
        <time>2017-07-19T12:35:25Z</time>
      </trkpt>
      <trkpt lat="48.25789" lon="6.54015">
        <ele>321.60000610352</ele>
        <time>2017-07-19T12:35:32Z</time>
      </trkpt>
      <trkpt lat="48.25782" lon="6.54072">
        <ele>322</ele>
        <time>2017-07-19T12:35:40Z</time>
      </trkpt>
      <trkpt lat="48.25776" lon="6.54126">
        <ele>322</ele>
        <time>2017-07-19T12:35:48Z</time>
      </trkpt>
      <trkpt lat="48.25768" lon="6.54193">
        <ele>322.20001220703</ele>
        <time>2017-07-19T12:35:58Z</time>
      </trkpt>
      <trkpt lat="48.25763" lon="6.54243">
        <ele>323</ele>
        <time>2017-07-19T12:36:06Z</time>
      </trkpt>
      <trkpt lat="48.25757" lon="6.54287">
        <ele>323.20001220703</ele>
        <time>2017-07-19T12:36:13Z</time>
      </trkpt>
      <trkpt lat="48.25752" lon="6.5431">
        <ele>323.20001220703</ele>
        <time>2017-07-19T12:36:18Z</time>
      </trkpt>
      <trkpt lat="48.25755" lon="6.54312">
        <ele>323.39999389648</ele>
        <time>2017-07-19T12:36:21Z</time>
      </trkpt>
      <trkpt lat="48.25753" lon="6.54309">
        <ele>323.79998779297</ele>
        <time>2017-07-19T12:36:36Z</time>
      </trkpt>
      <trkpt lat="48.25751" lon="6.5431">
        <ele>323.79998779297</ele>
        <time>2017-07-19T12:36:37Z</time>
      </trkpt>
      <trkpt lat="48.25748" lon="6.54323">
        <ele>323.60000610352</ele>
        <time>2017-07-19T12:36:40Z</time>
      </trkpt>
      <trkpt lat="48.2574" lon="6.54344">
        <ele>323.39999389648</ele>
        <time>2017-07-19T12:36:45Z</time>
      </trkpt>
      <trkpt lat="48.25728" lon="6.54368">
        <ele>323.39999389648</ele>
        <time>2017-07-19T12:36:50Z</time>
      </trkpt>
      <trkpt lat="48.25703" lon="6.54403">
        <ele>323.20001220703</ele>
        <time>2017-07-19T12:36:57Z</time>
      </trkpt>
      <trkpt lat="48.25672" lon="6.54436">
        <ele>323.20001220703</ele>
        <time>2017-07-19T12:37:04Z</time>
      </trkpt>
      <trkpt lat="48.25636" lon="6.54473">
        <ele>323</ele>
        <time>2017-07-19T12:37:12Z</time>
      </trkpt>
      <trkpt lat="48.25595" lon="6.54515">
        <ele>322.79998779297</ele>
        <time>2017-07-19T12:37:21Z</time>
      </trkpt>
      <trkpt lat="48.25559" lon="6.54552">
        <ele>322.60000610352</ele>
        <time>2017-07-19T12:37:29Z</time>
      </trkpt>
      <trkpt lat="48.25522" lon="6.54601">
        <ele>322.39999389648</ele>
        <time>2017-07-19T12:37:38Z</time>
      </trkpt>
      <trkpt lat="48.25518" lon="6.54608">
        <ele>322.39999389648</ele>
        <time>2017-07-19T12:37:39Z</time>
      </trkpt>
      <trkpt lat="48.25496" lon="6.54644">
        <ele>322.60000610352</ele>
        <time>2017-07-19T12:37:45Z</time>
      </trkpt>
      <trkpt lat="48.25466" lon="6.54697">
        <ele>322.39999389648</ele>
        <time>2017-07-19T12:37:54Z</time>
      </trkpt>
      <trkpt lat="48.25437" lon="6.54751">
        <ele>322.60000610352</ele>
        <time>2017-07-19T12:38:03Z</time>
      </trkpt>
      <trkpt lat="48.25403" lon="6.54824">
        <ele>322.60000610352</ele>
        <time>2017-07-19T12:38:14Z</time>
      </trkpt>
      <trkpt lat="48.25376" lon="6.54875">
        <ele>322.60000610352</ele>
        <time>2017-07-19T12:38:22Z</time>
      </trkpt>
      <trkpt lat="48.25353" lon="6.5493">
        <ele>322.79998779297</ele>
        <time>2017-07-19T12:38:30Z</time>
      </trkpt>
      <trkpt lat="48.25338" lon="6.54987">
        <ele>323.20001220703</ele>
        <time>2017-07-19T12:38:38Z</time>
      </trkpt>
      <trkpt lat="48.2533" lon="6.55035">
        <ele>323.79998779297</ele>
        <time>2017-07-19T12:38:45Z</time>
      </trkpt>
      <trkpt lat="48.25328" lon="6.55067">
        <ele>324.60000610352</ele>
        <time>2017-07-19T12:38:50Z</time>
      </trkpt>
      <trkpt lat="48.25327" lon="6.55085">
        <ele>325</ele>
        <time>2017-07-19T12:38:53Z</time>
      </trkpt>
      <trkpt lat="48.25326" lon="6.55104">
        <ele>325.60000610352</ele>
        <time>2017-07-19T12:38:56Z</time>
      </trkpt>
      <trkpt lat="48.25325" lon="6.5514">
        <ele>326.39999389648</ele>
        <time>2017-07-19T12:39:02Z</time>
      </trkpt>
      <trkpt lat="48.25325" lon="6.55146">
        <ele>326.60000610352</ele>
        <time>2017-07-19T12:39:03Z</time>
      </trkpt>
      <trkpt lat="48.25327" lon="6.55169">
        <ele>327.39999389648</ele>
        <time>2017-07-19T12:39:07Z</time>
      </trkpt>
      <trkpt lat="48.25329" lon="6.5518">
        <ele>327.60000610352</ele>
        <time>2017-07-19T12:39:09Z</time>
      </trkpt>
      <trkpt lat="48.25334" lon="6.5522">
        <ele>328.79998779297</ele>
        <time>2017-07-19T12:39:16Z</time>
      </trkpt>
      <trkpt lat="48.25339" lon="6.55256">
        <ele>329.79998779297</ele>
        <time>2017-07-19T12:39:22Z</time>
      </trkpt>
      <trkpt lat="48.2534" lon="6.55262">
        <ele>330</ele>
        <time>2017-07-19T12:39:23Z</time>
      </trkpt>
      <trkpt lat="48.25342" lon="6.55275">
        <ele>330.20001220703</ele>
        <time>2017-07-19T12:39:25Z</time>
      </trkpt>
      <trkpt lat="48.25346" lon="6.55303">
        <ele>330.79998779297</ele>
        <time>2017-07-19T12:39:30Z</time>
      </trkpt>
      <trkpt lat="48.25349" lon="6.55326">
        <ele>331.39999389648</ele>
        <time>2017-07-19T12:39:34Z</time>
      </trkpt>
      <trkpt lat="48.25351" lon="6.55355">
        <ele>332</ele>
        <time>2017-07-19T12:39:39Z</time>
      </trkpt>
      <trkpt lat="48.25352" lon="6.55366">
        <ele>332.20001220703</ele>
        <time>2017-07-19T12:39:41Z</time>
      </trkpt>
      <trkpt lat="48.25354" lon="6.554">
        <ele>333</ele>
        <time>2017-07-19T12:39:47Z</time>
      </trkpt>
      <trkpt lat="48.25354" lon="6.55412">
        <ele>333.20001220703</ele>
        <time>2017-07-19T12:39:49Z</time>
      </trkpt>
      <trkpt lat="48.25354" lon="6.55452">
        <ele>333.79998779297</ele>
        <time>2017-07-19T12:39:56Z</time>
      </trkpt>
      <trkpt lat="48.25353" lon="6.55471">
        <ele>334</ele>
        <time>2017-07-19T12:39:59Z</time>
      </trkpt>
      <trkpt lat="48.25353" lon="6.55498">
        <ele>334</ele>
        <time>2017-07-19T12:40:03Z</time>
      </trkpt>
      <trkpt lat="48.25356" lon="6.55559">
        <ele>333.79998779297</ele>
        <time>2017-07-19T12:40:11Z</time>
      </trkpt>
      <trkpt lat="48.25362" lon="6.55641">
        <ele>333</ele>
        <time>2017-07-19T12:40:21Z</time>
      </trkpt>
      <trkpt lat="48.25364" lon="6.55704">
        <ele>333</ele>
        <time>2017-07-19T12:40:29Z</time>
      </trkpt>
      <trkpt lat="48.25364" lon="6.55711">
        <ele>333</ele>
        <time>2017-07-19T12:40:30Z</time>
      </trkpt>
      <trkpt lat="48.25364" lon="6.55757">
        <ele>333</ele>
        <time>2017-07-19T12:40:36Z</time>
      </trkpt>
      <trkpt lat="48.25361" lon="6.55829">
        <ele>333.39999389648</ele>
        <time>2017-07-19T12:40:45Z</time>
      </trkpt>
      <trkpt lat="48.25354" lon="6.55911">
        <ele>333.60000610352</ele>
        <time>2017-07-19T12:40:55Z</time>
      </trkpt>
      <trkpt lat="48.25353" lon="6.55919">
        <ele>333.60000610352</ele>
        <time>2017-07-19T12:40:56Z</time>
      </trkpt>
      <trkpt lat="48.25341" lon="6.55981">
        <ele>333.60000610352</ele>
        <time>2017-07-19T12:41:04Z</time>
      </trkpt>
      <trkpt lat="48.25339" lon="6.5599">
        <ele>333.60000610352</ele>
        <time>2017-07-19T12:41:05Z</time>
      </trkpt>
      <trkpt lat="48.25332" lon="6.56021">
        <ele>333.60000610352</ele>
        <time>2017-07-19T12:41:09Z</time>
      </trkpt>
      <trkpt lat="48.25318" lon="6.56088">
        <ele>333.20001220703</ele>
        <time>2017-07-19T12:41:17Z</time>
      </trkpt>
      <trkpt lat="48.25308" lon="6.56156">
        <ele>332</ele>
        <time>2017-07-19T12:41:24Z</time>
      </trkpt>
      <trkpt lat="48.25307" lon="6.56166">
        <ele>331.79998779297</ele>
        <time>2017-07-19T12:41:25Z</time>
      </trkpt>
      <trkpt lat="48.25308" lon="6.56196">
        <ele>331.60000610352</ele>
        <time>2017-07-19T12:41:28Z</time>
      </trkpt>
      <trkpt lat="48.25309" lon="6.56206">
        <ele>331.39999389648</ele>
        <time>2017-07-19T12:41:29Z</time>
      </trkpt>
      <trkpt lat="48.25314" lon="6.56232">
        <ele>331.39999389648</ele>
        <time>2017-07-19T12:41:32Z</time>
      </trkpt>
      <trkpt lat="48.25315" lon="6.5624">
        <ele>331.39999389648</ele>
        <time>2017-07-19T12:41:33Z</time>
      </trkpt>
      <trkpt lat="48.25316" lon="6.56257">
        <ele>331.60000610352</ele>
        <time>2017-07-19T12:41:35Z</time>
      </trkpt>
      <trkpt lat="48.25316" lon="6.56312">
        <ele>332.20001220703</ele>
        <time>2017-07-19T12:41:42Z</time>
      </trkpt>
      <trkpt lat="48.25313" lon="6.56371">
        <ele>332.20001220703</ele>
        <time>2017-07-19T12:41:49Z</time>
      </trkpt>
      <trkpt lat="48.25313" lon="6.5643">
        <ele>331.79998779297</ele>
        <time>2017-07-19T12:41:56Z</time>
      </trkpt>
      <trkpt lat="48.25305" lon="6.56479">
        <ele>331.39999389648</ele>
        <time>2017-07-19T12:42:03Z</time>
      </trkpt>
      <trkpt lat="48.25302" lon="6.56486">
        <ele>331.20001220703</ele>
        <time>2017-07-19T12:42:04Z</time>
      </trkpt>
      <trkpt lat="48.25289" lon="6.56516">
        <ele>330.79998779297</ele>
        <time>2017-07-19T12:42:08Z</time>
      </trkpt>
      <trkpt lat="48.25285" lon="6.56525">
        <ele>330.79998779297</ele>
        <time>2017-07-19T12:42:09Z</time>
      </trkpt>
      <trkpt lat="48.25273" lon="6.56563">
        <ele>330</ele>
        <time>2017-07-19T12:42:13Z</time>
      </trkpt>
      <trkpt lat="48.25271" lon="6.56574">
        <ele>329.60000610352</ele>
        <time>2017-07-19T12:42:14Z</time>
      </trkpt>
      <trkpt lat="48.25266" lon="6.56617">
        <ele>328.79998779297</ele>
        <time>2017-07-19T12:42:18Z</time>
      </trkpt>
      <trkpt lat="48.25265" lon="6.56628">
        <ele>328.60000610352</ele>
        <time>2017-07-19T12:42:19Z</time>
      </trkpt>
      <trkpt lat="48.25257" lon="6.56679">
        <ele>328.39999389648</ele>
        <time>2017-07-19T12:42:24Z</time>
      </trkpt>
      <trkpt lat="48.25257" lon="6.56721">
        <ele>328.39999389648</ele>
        <time>2017-07-19T12:42:29Z</time>
      </trkpt>
      <trkpt lat="48.25267" lon="6.56746">
        <ele>328.39999389648</ele>
        <time>2017-07-19T12:42:33Z</time>
      </trkpt>
      <trkpt lat="48.2527" lon="6.56752">
        <ele>328.60000610352</ele>
        <time>2017-07-19T12:42:34Z</time>
      </trkpt>
      <trkpt lat="48.25278" lon="6.56769">
        <ele>328.60000610352</ele>
        <time>2017-07-19T12:42:37Z</time>
      </trkpt>
      <trkpt lat="48.25283" lon="6.56785">
        <ele>329</ele>
        <time>2017-07-19T12:42:40Z</time>
      </trkpt>
      <trkpt lat="48.25287" lon="6.56808">
        <ele>329.79998779297</ele>
        <time>2017-07-19T12:42:44Z</time>
      </trkpt>
      <trkpt lat="48.25291" lon="6.56819">
        <ele>330</ele>
        <time>2017-07-19T12:42:46Z</time>
      </trkpt>
      <trkpt lat="48.25292" lon="6.56824">
        <ele>330.20001220703</ele>
        <time>2017-07-19T12:42:47Z</time>
      </trkpt>
      <trkpt lat="48.25295" lon="6.56841">
        <ele>330.79998779297</ele>
        <time>2017-07-19T12:42:50Z</time>
      </trkpt>
      <trkpt lat="48.25297" lon="6.56852">
        <ele>331.39999389648</ele>
        <time>2017-07-19T12:42:52Z</time>
      </trkpt>
      <trkpt lat="48.25301" lon="6.56869">
        <ele>331.79998779297</ele>
        <time>2017-07-19T12:42:55Z</time>
      </trkpt>
      <trkpt lat="48.25302" lon="6.56875">
        <ele>332</ele>
        <time>2017-07-19T12:42:56Z</time>
      </trkpt>
      <trkpt lat="48.25304" lon="6.56886">
        <ele>332.20001220703</ele>
        <time>2017-07-19T12:42:58Z</time>
      </trkpt>
      <trkpt lat="48.25309" lon="6.56914">
        <ele>333.20001220703</ele>
        <time>2017-07-19T12:43:03Z</time>
      </trkpt>
      <trkpt lat="48.25312" lon="6.56931">
        <ele>333.60000610352</ele>
        <time>2017-07-19T12:43:06Z</time>
      </trkpt>
      <trkpt lat="48.2532" lon="6.56972">
        <ele>334.20001220703</ele>
        <time>2017-07-19T12:43:13Z</time>
      </trkpt>
      <trkpt lat="48.25322" lon="6.56978">
        <ele>334.20001220703</ele>
        <time>2017-07-19T12:43:14Z</time>
      </trkpt>
      <trkpt lat="48.25332" lon="6.57027">
        <ele>335</ele>
        <time>2017-07-19T12:43:22Z</time>
      </trkpt>
      <trkpt lat="48.25338" lon="6.57057">
        <ele>335.39999389648</ele>
        <time>2017-07-19T12:43:27Z</time>
      </trkpt>
      <trkpt lat="48.25345" lon="6.57094">
        <ele>335.79998779297</ele>
        <time>2017-07-19T12:43:33Z</time>
      </trkpt>
      <trkpt lat="48.25352" lon="6.5713">
        <ele>336.39999389648</ele>
        <time>2017-07-19T12:43:39Z</time>
      </trkpt>
      <trkpt lat="48.25353" lon="6.57142">
        <ele>336.60000610352</ele>
        <time>2017-07-19T12:43:41Z</time>
      </trkpt>
      <trkpt lat="48.25356" lon="6.57168">
        <ele>337.20001220703</ele>
        <time>2017-07-19T12:43:45Z</time>
      </trkpt>
      <trkpt lat="48.25356" lon="6.5718">
        <ele>337.39999389648</ele>
        <time>2017-07-19T12:43:47Z</time>
      </trkpt>
      <trkpt lat="48.25357" lon="6.57192">
        <ele>337.60000610352</ele>
        <time>2017-07-19T12:43:49Z</time>
      </trkpt>
      <trkpt lat="48.25357" lon="6.57198">
        <ele>337.79998779297</ele>
        <time>2017-07-19T12:43:50Z</time>
      </trkpt>
      <trkpt lat="48.25355" lon="6.57236">
        <ele>338.39999389648</ele>
        <time>2017-07-19T12:43:56Z</time>
      </trkpt>
      <trkpt lat="48.25354" lon="6.57289">
        <ele>339.20001220703</ele>
        <time>2017-07-19T12:44:04Z</time>
      </trkpt>
      <trkpt lat="48.25352" lon="6.57346">
        <ele>339.39999389648</ele>
        <time>2017-07-19T12:44:12Z</time>
      </trkpt>
      <trkpt lat="48.25351" lon="6.57362">
        <ele>339.60000610352</ele>
        <time>2017-07-19T12:44:14Z</time>
      </trkpt>
      <trkpt lat="48.25349" lon="6.57423">
        <ele>340</ele>
        <time>2017-07-19T12:44:22Z</time>
      </trkpt>
      <trkpt lat="48.25348" lon="6.57483">
        <ele>340</ele>
        <time>2017-07-19T12:44:30Z</time>
      </trkpt>
      <trkpt lat="48.25346" lon="6.57537">
        <ele>340</ele>
        <time>2017-07-19T12:44:37Z</time>
      </trkpt>
      <trkpt lat="48.25341" lon="6.57614">
        <ele>339.60000610352</ele>
        <time>2017-07-19T12:44:46Z</time>
      </trkpt>
      <trkpt lat="48.25332" lon="6.57697">
        <ele>338.60000610352</ele>
        <time>2017-07-19T12:44:55Z</time>
      </trkpt>
      <trkpt lat="48.25331" lon="6.57707">
        <ele>338.39999389648</ele>
        <time>2017-07-19T12:44:56Z</time>
      </trkpt>
      <trkpt lat="48.25325" lon="6.57776">
        <ele>337.39999389648</ele>
        <time>2017-07-19T12:45:03Z</time>
      </trkpt>
      <trkpt lat="48.25324" lon="6.57786">
        <ele>337.20001220703</ele>
        <time>2017-07-19T12:45:04Z</time>
      </trkpt>
      <trkpt lat="48.25322" lon="6.57833">
        <ele>336.20001220703</ele>
        <time>2017-07-19T12:45:08Z</time>
      </trkpt>
      <trkpt lat="48.25321" lon="6.57858">
        <ele>335.79998779297</ele>
        <time>2017-07-19T12:45:10Z</time>
      </trkpt>
      <trkpt lat="48.2532" lon="6.57884">
        <ele>335</ele>
        <time>2017-07-19T12:45:12Z</time>
      </trkpt>
      <trkpt lat="48.25318" lon="6.57924">
        <ele>333.79998779297</ele>
        <time>2017-07-19T12:45:15Z</time>
      </trkpt>
      <trkpt lat="48.25316" lon="6.57952">
        <ele>333.20001220703</ele>
        <time>2017-07-19T12:45:17Z</time>
      </trkpt>
      <trkpt lat="48.25315" lon="6.57981">
        <ele>332.39999389648</ele>
        <time>2017-07-19T12:45:19Z</time>
      </trkpt>
      <trkpt lat="48.25312" lon="6.58034">
        <ele>331.39999389648</ele>
        <time>2017-07-19T12:45:23Z</time>
      </trkpt>
      <trkpt lat="48.2531" lon="6.58073">
        <ele>331</ele>
        <time>2017-07-19T12:45:26Z</time>
      </trkpt>
      <trkpt lat="48.25306" lon="6.58158">
        <ele>330.79998779297</ele>
        <time>2017-07-19T12:45:33Z</time>
      </trkpt>
      <trkpt lat="48.25306" lon="6.58168">
        <ele>330.79998779297</ele>
        <time>2017-07-19T12:45:34Z</time>
      </trkpt>
      <trkpt lat="48.25304" lon="6.58225">
        <ele>331.60000610352</ele>
        <time>2017-07-19T12:45:40Z</time>
      </trkpt>
      <trkpt lat="48.25302" lon="6.5826">
        <ele>332.60000610352</ele>
        <time>2017-07-19T12:45:45Z</time>
      </trkpt>
      <trkpt lat="48.25302" lon="6.58267">
        <ele>332.79998779297</ele>
        <time>2017-07-19T12:45:46Z</time>
      </trkpt>
      <trkpt lat="48.253" lon="6.58295">
        <ele>333.60000610352</ele>
        <time>2017-07-19T12:45:50Z</time>
      </trkpt>
      <trkpt lat="48.25297" lon="6.58319">
        <ele>334.60000610352</ele>
        <time>2017-07-19T12:45:54Z</time>
      </trkpt>
      <trkpt lat="48.25296" lon="6.58326">
        <ele>334.79998779297</ele>
        <time>2017-07-19T12:45:55Z</time>
      </trkpt>
      <trkpt lat="48.25292" lon="6.58356">
        <ele>335.79998779297</ele>
        <time>2017-07-19T12:46:00Z</time>
      </trkpt>
      <trkpt lat="48.2529" lon="6.58362">
        <ele>336</ele>
        <time>2017-07-19T12:46:01Z</time>
      </trkpt>
      <trkpt lat="48.25282" lon="6.58385">
        <ele>336.60000610352</ele>
        <time>2017-07-19T12:46:05Z</time>
      </trkpt>
      <trkpt lat="48.25277" lon="6.58396">
        <ele>336.79998779297</ele>
        <time>2017-07-19T12:46:07Z</time>
      </trkpt>
      <trkpt lat="48.25258" lon="6.58441">
        <ele>337</ele>
        <time>2017-07-19T12:46:14Z</time>
      </trkpt>
      <trkpt lat="48.25242" lon="6.58491">
        <ele>336.20001220703</ele>
        <time>2017-07-19T12:46:20Z</time>
      </trkpt>
      <trkpt lat="48.25239" lon="6.58509">
        <ele>335.79998779297</ele>
        <time>2017-07-19T12:46:22Z</time>
      </trkpt>
      <trkpt lat="48.25234" lon="6.58545">
        <ele>335</ele>
        <time>2017-07-19T12:46:26Z</time>
      </trkpt>
      <trkpt lat="48.25233" lon="6.58554">
        <ele>334.79998779297</ele>
        <time>2017-07-19T12:46:27Z</time>
      </trkpt>
      <trkpt lat="48.25227" lon="6.58624">
        <ele>333.79998779297</ele>
        <time>2017-07-19T12:46:34Z</time>
      </trkpt>
      <trkpt lat="48.25226" lon="6.58634">
        <ele>333.60000610352</ele>
        <time>2017-07-19T12:46:35Z</time>
      </trkpt>
      <trkpt lat="48.25214" lon="6.5871">
        <ele>332.79998779297</ele>
        <time>2017-07-19T12:46:42Z</time>
      </trkpt>
      <trkpt lat="48.2521" lon="6.58732">
        <ele>332.60000610352</ele>
        <time>2017-07-19T12:46:44Z</time>
      </trkpt>
      <trkpt lat="48.25202" lon="6.58786">
        <ele>332</ele>
        <time>2017-07-19T12:46:49Z</time>
      </trkpt>
      <trkpt lat="48.25199" lon="6.58807">
        <ele>331.39999389648</ele>
        <time>2017-07-19T12:46:51Z</time>
      </trkpt>
      <trkpt lat="48.25193" lon="6.58861">
        <ele>331.20001220703</ele>
        <time>2017-07-19T12:46:56Z</time>
      </trkpt>
      <trkpt lat="48.25178" lon="6.58935">
        <ele>330.60000610352</ele>
        <time>2017-07-19T12:47:03Z</time>
      </trkpt>
      <trkpt lat="48.25169" lon="6.58964">
        <ele>330.39999389648</ele>
        <time>2017-07-19T12:47:06Z</time>
      </trkpt>
      <trkpt lat="48.25156" lon="6.59009">
        <ele>330</ele>
        <time>2017-07-19T12:47:11Z</time>
      </trkpt>
      <trkpt lat="48.25135" lon="6.59074">
        <ele>330</ele>
        <time>2017-07-19T12:47:19Z</time>
      </trkpt>
      <trkpt lat="48.25117" lon="6.59133">
        <ele>330.39999389648</ele>
        <time>2017-07-19T12:47:27Z</time>
      </trkpt>
      <trkpt lat="48.25104" lon="6.59179">
        <ele>331.39999389648</ele>
        <time>2017-07-19T12:47:34Z</time>
      </trkpt>
      <trkpt lat="48.25102" lon="6.59191">
        <ele>331.79998779297</ele>
        <time>2017-07-19T12:47:36Z</time>
      </trkpt>
      <trkpt lat="48.25096" lon="6.59214">
        <ele>332.60000610352</ele>
        <time>2017-07-19T12:47:40Z</time>
      </trkpt>
      <trkpt lat="48.25093" lon="6.59226">
        <ele>333</ele>
        <time>2017-07-19T12:47:42Z</time>
      </trkpt>
      <trkpt lat="48.25092" lon="6.59232">
        <ele>333.20001220703</ele>
        <time>2017-07-19T12:47:43Z</time>
      </trkpt>
      <trkpt lat="48.25087" lon="6.59256">
        <ele>333.79998779297</ele>
        <time>2017-07-19T12:47:47Z</time>
      </trkpt>
      <trkpt lat="48.25082" lon="6.59278">
        <ele>334.60000610352</ele>
        <time>2017-07-19T12:47:51Z</time>
      </trkpt>
      <trkpt lat="48.2508" lon="6.5929">
        <ele>334.79998779297</ele>
        <time>2017-07-19T12:47:53Z</time>
      </trkpt>
      <trkpt lat="48.25075" lon="6.59321">
        <ele>335.60000610352</ele>
        <time>2017-07-19T12:47:58Z</time>
      </trkpt>
      <trkpt lat="48.25073" lon="6.59332">
        <ele>336</ele>
        <time>2017-07-19T12:48:00Z</time>
      </trkpt>
      <trkpt lat="48.2507" lon="6.59355">
        <ele>337</ele>
        <time>2017-07-19T12:48:04Z</time>
      </trkpt>
      <trkpt lat="48.25068" lon="6.59366">
        <ele>337.20001220703</ele>
        <time>2017-07-19T12:48:06Z</time>
      </trkpt>
      <trkpt lat="48.25061" lon="6.59412">
        <ele>338</ele>
        <time>2017-07-19T12:48:14Z</time>
      </trkpt>
      <trkpt lat="48.2506" lon="6.59424">
        <ele>338.20001220703</ele>
        <time>2017-07-19T12:48:16Z</time>
      </trkpt>
      <trkpt lat="48.25056" lon="6.59465">
        <ele>338.79998779297</ele>
        <time>2017-07-19T12:48:23Z</time>
      </trkpt>
      <trkpt lat="48.25055" lon="6.59488">
        <ele>339.39999389648</ele>
        <time>2017-07-19T12:48:27Z</time>
      </trkpt>
      <trkpt lat="48.25055" lon="6.5951">
        <ele>339.79998779297</ele>
        <time>2017-07-19T12:48:31Z</time>
      </trkpt>
      <trkpt lat="48.25054" lon="6.5953">
        <ele>340.39999389648</ele>
        <time>2017-07-19T12:48:35Z</time>
      </trkpt>
      <trkpt lat="48.25052" lon="6.59545">
        <ele>341</ele>
        <time>2017-07-19T12:48:38Z</time>
      </trkpt>
      <trkpt lat="48.25051" lon="6.59555">
        <ele>341.39999389648</ele>
        <time>2017-07-19T12:48:40Z</time>
      </trkpt>
      <trkpt lat="48.25048" lon="6.59586">
        <ele>342.39999389648</ele>
        <time>2017-07-19T12:48:46Z</time>
      </trkpt>
      <trkpt lat="48.25048" lon="6.59591">
        <ele>342.60000610352</ele>
        <time>2017-07-19T12:48:47Z</time>
      </trkpt>
      <trkpt lat="48.25043" lon="6.59617">
        <ele>343.60000610352</ele>
        <time>2017-07-19T12:48:52Z</time>
      </trkpt>
      <trkpt lat="48.25042" lon="6.59622">
        <ele>343.79998779297</ele>
        <time>2017-07-19T12:48:53Z</time>
      </trkpt>
      <trkpt lat="48.25033" lon="6.59655">
        <ele>344.60000610352</ele>
        <time>2017-07-19T12:49:00Z</time>
      </trkpt>
      <trkpt lat="48.25031" lon="6.59665">
        <ele>344.79998779297</ele>
        <time>2017-07-19T12:49:02Z</time>
      </trkpt>
      <trkpt lat="48.25015" lon="6.59701">
        <ele>345.60000610352</ele>
        <time>2017-07-19T12:49:10Z</time>
      </trkpt>
      <trkpt lat="48.25012" lon="6.59705">
        <ele>345.79998779297</ele>
        <time>2017-07-19T12:49:11Z</time>
      </trkpt>
      <trkpt lat="48.25008" lon="6.59709">
        <ele>345.79998779297</ele>
        <time>2017-07-19T12:49:12Z</time>
      </trkpt>
      <trkpt lat="48.24991" lon="6.59724">
        <ele>345.60000610352</ele>
        <time>2017-07-19T12:49:16Z</time>
      </trkpt>
      <trkpt lat="48.24971" lon="6.59727">
        <ele>345.20001220703</ele>
        <time>2017-07-19T12:49:20Z</time>
      </trkpt>
      <trkpt lat="48.24954" lon="6.59728">
        <ele>344.60000610352</ele>
        <time>2017-07-19T12:49:23Z</time>
      </trkpt>
      <trkpt lat="48.24929" lon="6.59727">
        <ele>343.79998779297</ele>
        <time>2017-07-19T12:49:27Z</time>
      </trkpt>
      <trkpt lat="48.24923" lon="6.59726">
        <ele>343.39999389648</ele>
        <time>2017-07-19T12:49:28Z</time>
      </trkpt>
      <trkpt lat="48.2488" lon="6.59722">
        <ele>342.20001220703</ele>
        <time>2017-07-19T12:49:34Z</time>
      </trkpt>
      <trkpt lat="48.24848" lon="6.59719">
        <ele>341</ele>
        <time>2017-07-19T12:49:38Z</time>
      </trkpt>
      <trkpt lat="48.24831" lon="6.59717">
        <ele>339.79998779297</ele>
        <time>2017-07-19T12:49:40Z</time>
      </trkpt>
      <trkpt lat="48.24803" lon="6.59713">
        <ele>338.60000610352</ele>
        <time>2017-07-19T12:49:43Z</time>
      </trkpt>
      <trkpt lat="48.24784" lon="6.59715">
        <ele>337.79998779297</ele>
        <time>2017-07-19T12:49:45Z</time>
      </trkpt>
      <trkpt lat="48.24775" lon="6.59719">
        <ele>337.20001220703</ele>
        <time>2017-07-19T12:49:46Z</time>
      </trkpt>
      <trkpt lat="48.2476" lon="6.59734">
        <ele>336.20001220703</ele>
        <time>2017-07-19T12:49:48Z</time>
      </trkpt>
      <trkpt lat="48.24742" lon="6.59762">
        <ele>334.79998779297</ele>
        <time>2017-07-19T12:49:51Z</time>
      </trkpt>
      <trkpt lat="48.24738" lon="6.59772">
        <ele>334.60000610352</ele>
        <time>2017-07-19T12:49:52Z</time>
      </trkpt>
      <trkpt lat="48.24727" lon="6.59818">
        <ele>334</ele>
        <time>2017-07-19T12:49:56Z</time>
      </trkpt>
      <trkpt lat="48.24727" lon="6.5983">
        <ele>333.79998779297</ele>
        <time>2017-07-19T12:49:57Z</time>
      </trkpt>
      <trkpt lat="48.24728" lon="6.59865">
        <ele>333.60000610352</ele>
        <time>2017-07-19T12:50:00Z</time>
      </trkpt>
      <trkpt lat="48.24736" lon="6.59925">
        <ele>333.60000610352</ele>
        <time>2017-07-19T12:50:06Z</time>
      </trkpt>
      <trkpt lat="48.24749" lon="6.5997">
        <ele>333.60000610352</ele>
        <time>2017-07-19T12:50:11Z</time>
      </trkpt>
      <trkpt lat="48.24749" lon="6.60024">
        <ele>334.20001220703</ele>
        <time>2017-07-19T12:50:17Z</time>
      </trkpt>
      <trkpt lat="48.24745" lon="6.60073">
        <ele>334.60000610352</ele>
        <time>2017-07-19T12:50:23Z</time>
      </trkpt>
      <trkpt lat="48.24742" lon="6.6008">
        <ele>334.39999389648</ele>
        <time>2017-07-19T12:50:24Z</time>
      </trkpt>
      <trkpt lat="48.24735" lon="6.60097">
        <ele>334.20001220703</ele>
        <time>2017-07-19T12:50:27Z</time>
      </trkpt>
      <trkpt lat="48.24733" lon="6.60103">
        <ele>334</ele>
        <time>2017-07-19T12:50:28Z</time>
      </trkpt>
      <trkpt lat="48.24736" lon="6.60121">
        <ele>334</ele>
        <time>2017-07-19T12:50:31Z</time>
      </trkpt>
      <trkpt lat="48.24739" lon="6.6013">
        <ele>333.79998779297</ele>
        <time>2017-07-19T12:50:33Z</time>
      </trkpt>
      <trkpt lat="48.24741" lon="6.60148">
        <ele>333.79998779297</ele>
        <time>2017-07-19T12:50:37Z</time>
      </trkpt>
      <trkpt lat="48.24742" lon="6.6018">
        <ele>334.20001220703</ele>
        <time>2017-07-19T12:50:42Z</time>
      </trkpt>
      <trkpt lat="48.24742" lon="6.60202">
        <ele>334.39999389648</ele>
        <time>2017-07-19T12:50:45Z</time>
      </trkpt>
      <trkpt lat="48.24746" lon="6.60232">
        <ele>334.39999389648</ele>
        <time>2017-07-19T12:50:49Z</time>
      </trkpt>
      <trkpt lat="48.24749" lon="6.60244">
        <ele>334.39999389648</ele>
        <time>2017-07-19T12:50:51Z</time>
      </trkpt>
      <trkpt lat="48.24755" lon="6.6026">
        <ele>334.20001220703</ele>
        <time>2017-07-19T12:50:54Z</time>
      </trkpt>
      <trkpt lat="48.24765" lon="6.60295">
        <ele>334.39999389648</ele>
        <time>2017-07-19T12:51:01Z</time>
      </trkpt>
      <trkpt lat="48.24771" lon="6.60331">
        <ele>334.79998779297</ele>
        <time>2017-07-19T12:51:07Z</time>
      </trkpt>
      <trkpt lat="48.24772" lon="6.60337">
        <ele>335</ele>
        <time>2017-07-19T12:51:08Z</time>
      </trkpt>
      <trkpt lat="48.24778" lon="6.60383">
        <ele>335.39999389648</ele>
        <time>2017-07-19T12:51:15Z</time>
      </trkpt>
      <trkpt lat="48.24783" lon="6.6043">
        <ele>335.60000610352</ele>
        <time>2017-07-19T12:51:22Z</time>
      </trkpt>
      <trkpt lat="48.24787" lon="6.60483">
        <ele>335.20001220703</ele>
        <time>2017-07-19T12:51:31Z</time>
      </trkpt>
      <trkpt lat="48.24789" lon="6.60514">
        <ele>335.20001220703</ele>
        <time>2017-07-19T12:51:36Z</time>
      </trkpt>
      <trkpt lat="48.24788" lon="6.60538">
        <ele>335.39999389648</ele>
        <time>2017-07-19T12:51:40Z</time>
      </trkpt>
      <trkpt lat="48.24787" lon="6.60576">
        <ele>335.60000610352</ele>
        <time>2017-07-19T12:51:47Z</time>
      </trkpt>
      <trkpt lat="48.24786" lon="6.60629">
        <ele>335.60000610352</ele>
        <time>2017-07-19T12:51:55Z</time>
      </trkpt>
      <trkpt lat="48.24784" lon="6.60686">
        <ele>335.79998779297</ele>
        <time>2017-07-19T12:52:03Z</time>
      </trkpt>
      <trkpt lat="48.24784" lon="6.60693">
        <ele>335.79998779297</ele>
        <time>2017-07-19T12:52:04Z</time>
      </trkpt>
      <trkpt lat="48.24785" lon="6.60719">
        <ele>335.79998779297</ele>
        <time>2017-07-19T12:52:08Z</time>
      </trkpt>
      <trkpt lat="48.24785" lon="6.60732">
        <ele>335.79998779297</ele>
        <time>2017-07-19T12:52:10Z</time>
      </trkpt>
      <trkpt lat="48.24784" lon="6.60785">
        <ele>336</ele>
        <time>2017-07-19T12:52:17Z</time>
      </trkpt>
      <trkpt lat="48.24783" lon="6.60793">
        <ele>336</ele>
        <time>2017-07-19T12:52:18Z</time>
      </trkpt>
      <trkpt lat="48.24782" lon="6.60862">
        <ele>336.39999389648</ele>
        <time>2017-07-19T12:52:27Z</time>
      </trkpt>
      <trkpt lat="48.24781" lon="6.60906">
        <ele>337</ele>
        <time>2017-07-19T12:52:33Z</time>
      </trkpt>
      <trkpt lat="48.24781" lon="6.6092">
        <ele>337.39999389648</ele>
        <time>2017-07-19T12:52:35Z</time>
      </trkpt>
      <trkpt lat="48.2478" lon="6.60956">
        <ele>338.20001220703</ele>
        <time>2017-07-19T12:52:40Z</time>
      </trkpt>
      <trkpt lat="48.24779" lon="6.60985">
        <ele>338.60000610352</ele>
        <time>2017-07-19T12:52:44Z</time>
      </trkpt>
      <trkpt lat="48.24779" lon="6.61024">
        <ele>339.20001220703</ele>
        <time>2017-07-19T12:52:49Z</time>
      </trkpt>
      <trkpt lat="48.24778" lon="6.6104">
        <ele>339.39999389648</ele>
        <time>2017-07-19T12:52:51Z</time>
      </trkpt>
      <trkpt lat="48.24777" lon="6.61102">
        <ele>339.20001220703</ele>
        <time>2017-07-19T12:52:58Z</time>
      </trkpt>
      <trkpt lat="48.24777" lon="6.61186">
        <ele>338.60000610352</ele>
        <time>2017-07-19T12:53:07Z</time>
      </trkpt>
      <trkpt lat="48.24777" lon="6.61195">
        <ele>338.39999389648</ele>
        <time>2017-07-19T12:53:08Z</time>
      </trkpt>
      <trkpt lat="48.24777" lon="6.61214">
        <ele>338.20001220703</ele>
        <time>2017-07-19T12:53:10Z</time>
      </trkpt>
      <trkpt lat="48.24775" lon="6.61299">
        <ele>337.60000610352</ele>
        <time>2017-07-19T12:53:19Z</time>
      </trkpt>
      <trkpt lat="48.24774" lon="6.61382">
        <ele>337.39999389648</ele>
        <time>2017-07-19T12:53:28Z</time>
      </trkpt>
      <trkpt lat="48.24773" lon="6.61456">
        <ele>337.39999389648</ele>
        <time>2017-07-19T12:53:36Z</time>
      </trkpt>
      <trkpt lat="48.24772" lon="6.6154">
        <ele>337.20001220703</ele>
        <time>2017-07-19T12:53:45Z</time>
      </trkpt>
      <trkpt lat="48.24772" lon="6.61549">
        <ele>337.20001220703</ele>
        <time>2017-07-19T12:53:46Z</time>
      </trkpt>
      <trkpt lat="48.24771" lon="6.61633">
        <ele>337.20001220703</ele>
        <time>2017-07-19T12:53:55Z</time>
      </trkpt>
      <trkpt lat="48.2477" lon="6.61643">
        <ele>337.20001220703</ele>
        <time>2017-07-19T12:53:56Z</time>
      </trkpt>
      <trkpt lat="48.24769" lon="6.61724">
        <ele>337.60000610352</ele>
        <time>2017-07-19T12:54:05Z</time>
      </trkpt>
      <trkpt lat="48.24768" lon="6.61795">
        <ele>338.39999389648</ele>
        <time>2017-07-19T12:54:14Z</time>
      </trkpt>
      <trkpt lat="48.24766" lon="6.61858">
        <ele>339</ele>
        <time>2017-07-19T12:54:22Z</time>
      </trkpt>
      <trkpt lat="48.24765" lon="6.61918">
        <ele>339</ele>
        <time>2017-07-19T12:54:29Z</time>
      </trkpt>
      <trkpt lat="48.24764" lon="6.61997">
        <ele>338.79998779297</ele>
        <time>2017-07-19T12:54:38Z</time>
      </trkpt>
      <trkpt lat="48.24761" lon="6.62082">
        <ele>339</ele>
        <time>2017-07-19T12:54:48Z</time>
      </trkpt>
      <trkpt lat="48.2476" lon="6.62108">
        <ele>339.20001220703</ele>
        <time>2017-07-19T12:54:51Z</time>
      </trkpt>
      <trkpt lat="48.24756" lon="6.62141">
        <ele>339.39999389648</ele>
        <time>2017-07-19T12:54:55Z</time>
      </trkpt>
      <trkpt lat="48.24753" lon="6.62158">
        <ele>339.60000610352</ele>
        <time>2017-07-19T12:54:57Z</time>
      </trkpt>
      <trkpt lat="48.24748" lon="6.62191">
        <ele>340</ele>
        <time>2017-07-19T12:55:01Z</time>
      </trkpt>
      <trkpt lat="48.24737" lon="6.62267">
        <ele>340</ele>
        <time>2017-07-19T12:55:10Z</time>
      </trkpt>
      <trkpt lat="48.24728" lon="6.62324">
        <ele>340.20001220703</ele>
        <time>2017-07-19T12:55:18Z</time>
      </trkpt>
      <trkpt lat="48.24726" lon="6.62338">
        <ele>340.39999389648</ele>
        <time>2017-07-19T12:55:20Z</time>
      </trkpt>
      <trkpt lat="48.2472" lon="6.62376">
        <ele>340.79998779297</ele>
        <time>2017-07-19T12:55:25Z</time>
      </trkpt>
      <trkpt lat="48.24711" lon="6.62435">
        <ele>340.79998779297</ele>
        <time>2017-07-19T12:55:32Z</time>
      </trkpt>
      <trkpt lat="48.24698" lon="6.62522">
        <ele>340.60000610352</ele>
        <time>2017-07-19T12:55:42Z</time>
      </trkpt>
      <trkpt lat="48.24687" lon="6.62596">
        <ele>340.60000610352</ele>
        <time>2017-07-19T12:55:51Z</time>
      </trkpt>
      <trkpt lat="48.24677" lon="6.62658">
        <ele>341.20001220703</ele>
        <time>2017-07-19T12:55:59Z</time>
      </trkpt>
      <trkpt lat="48.24675" lon="6.62672">
        <ele>341.39999389648</ele>
        <time>2017-07-19T12:56:01Z</time>
      </trkpt>
      <trkpt lat="48.24667" lon="6.62714">
        <ele>342.60000610352</ele>
        <time>2017-07-19T12:56:07Z</time>
      </trkpt>
      <trkpt lat="48.24657" lon="6.62762">
        <ele>343.20001220703</ele>
        <time>2017-07-19T12:56:14Z</time>
      </trkpt>
      <trkpt lat="48.2465" lon="6.62795">
        <ele>343.60000610352</ele>
        <time>2017-07-19T12:56:19Z</time>
      </trkpt>
      <trkpt lat="48.24647" lon="6.62814">
        <ele>344</ele>
        <time>2017-07-19T12:56:22Z</time>
      </trkpt>
      <trkpt lat="48.24636" lon="6.62865">
        <ele>344.60000610352</ele>
        <time>2017-07-19T12:56:30Z</time>
      </trkpt>
      <trkpt lat="48.24625" lon="6.62913">
        <ele>345</ele>
        <time>2017-07-19T12:56:37Z</time>
      </trkpt>
      <trkpt lat="48.24611" lon="6.6298">
        <ele>345.60000610352</ele>
        <time>2017-07-19T12:56:46Z</time>
      </trkpt>
      <trkpt lat="48.24604" lon="6.6301">
        <ele>345.60000610352</ele>
        <time>2017-07-19T12:56:50Z</time>
      </trkpt>
      <trkpt lat="48.24593" lon="6.63062">
        <ele>346.20001220703</ele>
        <time>2017-07-19T12:56:57Z</time>
      </trkpt>
      <trkpt lat="48.2458" lon="6.63127">
        <ele>346.60000610352</ele>
        <time>2017-07-19T12:57:06Z</time>
      </trkpt>
      <trkpt lat="48.24573" lon="6.63163">
        <ele>346.79998779297</ele>
        <time>2017-07-19T12:57:11Z</time>
      </trkpt>
      <trkpt lat="48.24568" lon="6.63185">
        <ele>347</ele>
        <time>2017-07-19T12:57:14Z</time>
      </trkpt>
      <trkpt lat="48.24554" lon="6.63252">
        <ele>347.39999389648</ele>
        <time>2017-07-19T12:57:23Z</time>
      </trkpt>
      <trkpt lat="48.24543" lon="6.63305">
        <ele>347.79998779297</ele>
        <time>2017-07-19T12:57:30Z</time>
      </trkpt>
      <trkpt lat="48.24536" lon="6.63335">
        <ele>348</ele>
        <time>2017-07-19T12:57:34Z</time>
      </trkpt>
      <trkpt lat="48.24526" lon="6.63384">
        <ele>348.79998779297</ele>
        <time>2017-07-19T12:57:41Z</time>
      </trkpt>
      <trkpt lat="48.24522" lon="6.63404">
        <ele>349.20001220703</ele>
        <time>2017-07-19T12:57:44Z</time>
      </trkpt>
      <trkpt lat="48.24515" lon="6.63436">
        <ele>350</ele>
        <time>2017-07-19T12:57:49Z</time>
      </trkpt>
      <trkpt lat="48.2451" lon="6.63462">
        <ele>350.39999389648</ele>
        <time>2017-07-19T12:57:53Z</time>
      </trkpt>
      <trkpt lat="48.24504" lon="6.63487">
        <ele>351</ele>
        <time>2017-07-19T12:57:57Z</time>
      </trkpt>
      <trkpt lat="48.24499" lon="6.63514">
        <ele>351.39999389648</ele>
        <time>2017-07-19T12:58:01Z</time>
      </trkpt>
      <trkpt lat="48.24483" lon="6.63575">
        <ele>352</ele>
        <time>2017-07-19T12:58:10Z</time>
      </trkpt>
      <trkpt lat="48.24477" lon="6.63594">
        <ele>352</ele>
        <time>2017-07-19T12:58:13Z</time>
      </trkpt>
      <trkpt lat="48.24471" lon="6.63615">
        <ele>351.79998779297</ele>
        <time>2017-07-19T12:58:16Z</time>
      </trkpt>
      <trkpt lat="48.24468" lon="6.63622">
        <ele>351.79998779297</ele>
        <time>2017-07-19T12:58:17Z</time>
      </trkpt>
      <trkpt lat="48.24457" lon="6.63658">
        <ele>352</ele>
        <time>2017-07-19T12:58:22Z</time>
      </trkpt>
      <trkpt lat="48.24455" lon="6.63665">
        <ele>352</ele>
        <time>2017-07-19T12:58:23Z</time>
      </trkpt>
      <trkpt lat="48.24435" lon="6.63731">
        <ele>352.39999389648</ele>
        <time>2017-07-19T12:58:32Z</time>
      </trkpt>
      <trkpt lat="48.24421" lon="6.63785">
        <ele>352.39999389648</ele>
        <time>2017-07-19T12:58:39Z</time>
      </trkpt>
      <trkpt lat="48.24413" lon="6.63807">
        <ele>352.60000610352</ele>
        <time>2017-07-19T12:58:43Z</time>
      </trkpt>
      <trkpt lat="48.24415" lon="6.63813">
        <ele>352.20001220703</ele>
        <time>2017-07-19T12:58:46Z</time>
      </trkpt>
      <trkpt lat="48.24419" lon="6.63801">
        <ele>352</ele>
        <time>2017-07-19T12:58:49Z</time>
      </trkpt>
      <trkpt lat="48.24432" lon="6.63765">
        <ele>352.20001220703</ele>
        <time>2017-07-19T12:58:56Z</time>
      </trkpt>
      <trkpt lat="48.24434" lon="6.63753">
        <ele>352</ele>
        <time>2017-07-19T13:02:43Z</time>
      </trkpt>
      <trkpt lat="48.24435" lon="6.63759">
        <ele>351.79998779297</ele>
        <time>2017-07-19T13:05:05Z</time>
      </trkpt>
      <trkpt lat="48.24431" lon="6.63765">
        <ele>351.79998779297</ele>
        <time>2017-07-19T13:05:08Z</time>
      </trkpt>
      <trkpt lat="48.24421" lon="6.63784">
        <ele>351.79998779297</ele>
        <time>2017-07-19T13:05:13Z</time>
      </trkpt>
      <trkpt lat="48.24416" lon="6.63801">
        <ele>351.79998779297</ele>
        <time>2017-07-19T13:05:16Z</time>
      </trkpt>
      <trkpt lat="48.24409" lon="6.63825">
        <ele>351.79998779297</ele>
        <time>2017-07-19T13:05:20Z</time>
      </trkpt>
      <trkpt lat="48.24391" lon="6.63886">
        <ele>351.60000610352</ele>
        <time>2017-07-19T13:05:30Z</time>
      </trkpt>
      <trkpt lat="48.24385" lon="6.63904">
        <ele>351.79998779297</ele>
        <time>2017-07-19T13:05:33Z</time>
      </trkpt>
      <trkpt lat="48.2438" lon="6.63921">
        <ele>351.79998779297</ele>
        <time>2017-07-19T13:05:36Z</time>
      </trkpt>
      <trkpt lat="48.24366" lon="6.63965">
        <ele>352</ele>
        <time>2017-07-19T13:05:43Z</time>
      </trkpt>
      <trkpt lat="48.24347" lon="6.64023">
        <ele>352.39999389648</ele>
        <time>2017-07-19T13:05:52Z</time>
      </trkpt>
      <trkpt lat="48.24335" lon="6.6406">
        <ele>352.79998779297</ele>
        <time>2017-07-19T13:05:58Z</time>
      </trkpt>
      <trkpt lat="48.24331" lon="6.64072">
        <ele>353.20001220703</ele>
        <time>2017-07-19T13:06:00Z</time>
      </trkpt>
      <trkpt lat="48.24324" lon="6.64099">
        <ele>353.60000610352</ele>
        <time>2017-07-19T13:06:05Z</time>
      </trkpt>
      <trkpt lat="48.24318" lon="6.64115">
        <ele>353.79998779297</ele>
        <time>2017-07-19T13:06:46Z</time>
      </trkpt>
      <trkpt lat="48.24317" lon="6.6412">
        <ele>353.79998779297</ele>
        <time>2017-07-19T13:06:48Z</time>
      </trkpt>
      <trkpt lat="48.2431" lon="6.64143">
        <ele>354</ele>
        <time>2017-07-19T13:06:53Z</time>
      </trkpt>
      <trkpt lat="48.24304" lon="6.64166">
        <ele>354.20001220703</ele>
        <time>2017-07-19T13:06:57Z</time>
      </trkpt>
      <trkpt lat="48.24299" lon="6.64184">
        <ele>354.39999389648</ele>
        <time>2017-07-19T13:07:00Z</time>
      </trkpt>
      <trkpt lat="48.24286" lon="6.64229">
        <ele>354.79998779297</ele>
        <time>2017-07-19T13:07:07Z</time>
      </trkpt>
      <trkpt lat="48.24275" lon="6.64263">
        <ele>355.20001220703</ele>
        <time>2017-07-19T13:07:12Z</time>
      </trkpt>
      <trkpt lat="48.24262" lon="6.64304">
        <ele>355.60000610352</ele>
        <time>2017-07-19T13:07:18Z</time>
      </trkpt>
      <trkpt lat="48.2424" lon="6.64372">
        <ele>355.20001220703</ele>
        <time>2017-07-19T13:07:27Z</time>
      </trkpt>
      <trkpt lat="48.24219" lon="6.6443">
        <ele>355</ele>
        <time>2017-07-19T13:07:34Z</time>
      </trkpt>
      <trkpt lat="48.24198" lon="6.64487">
        <ele>354.39999389648</ele>
        <time>2017-07-19T13:07:41Z</time>
      </trkpt>
      <trkpt lat="48.24196" lon="6.64495">
        <ele>354.20001220703</ele>
        <time>2017-07-19T13:07:42Z</time>
      </trkpt>
      <trkpt lat="48.24177" lon="6.64547">
        <ele>353.39999389648</ele>
        <time>2017-07-19T13:07:49Z</time>
      </trkpt>
      <trkpt lat="48.24171" lon="6.64563">
        <ele>353.20001220703</ele>
        <time>2017-07-19T13:07:51Z</time>
      </trkpt>
      <trkpt lat="48.24153" lon="6.64612">
        <ele>352.60000610352</ele>
        <time>2017-07-19T13:07:57Z</time>
      </trkpt>
      <trkpt lat="48.24132" lon="6.64671">
        <ele>352.39999389648</ele>
        <time>2017-07-19T13:08:04Z</time>
      </trkpt>
      <trkpt lat="48.24105" lon="6.64741">
        <ele>352.39999389648</ele>
        <time>2017-07-19T13:08:13Z</time>
      </trkpt>
      <trkpt lat="48.24076" lon="6.64816">
        <ele>353</ele>
        <time>2017-07-19T13:08:23Z</time>
      </trkpt>
      <trkpt lat="48.24047" lon="6.64892">
        <ele>353</ele>
        <time>2017-07-19T13:08:33Z</time>
      </trkpt>
      <trkpt lat="48.24023" lon="6.6496">
        <ele>352.39999389648</ele>
        <time>2017-07-19T13:08:42Z</time>
      </trkpt>
      <trkpt lat="48.23998" lon="6.65026">
        <ele>352.79998779297</ele>
        <time>2017-07-19T13:08:51Z</time>
      </trkpt>
      <trkpt lat="48.23976" lon="6.65083">
        <ele>353.60000610352</ele>
        <time>2017-07-19T13:09:00Z</time>
      </trkpt>
      <trkpt lat="48.23968" lon="6.65107">
        <ele>354.20001220703</ele>
        <time>2017-07-19T13:09:05Z</time>
      </trkpt>
      <trkpt lat="48.23966" lon="6.65112">
        <ele>354.39999389648</ele>
        <time>2017-07-19T13:09:06Z</time>
      </trkpt>
      <trkpt lat="48.23958" lon="6.65134">
        <ele>355.20001220703</ele>
        <time>2017-07-19T13:09:11Z</time>
      </trkpt>
      <trkpt lat="48.23952" lon="6.65152">
        <ele>356</ele>
        <time>2017-07-19T13:09:15Z</time>
      </trkpt>
      <trkpt lat="48.2395" lon="6.65156">
        <ele>356.20001220703</ele>
        <time>2017-07-19T13:09:16Z</time>
      </trkpt>
      <trkpt lat="48.23943" lon="6.65183">
        <ele>357.39999389648</ele>
        <time>2017-07-19T13:09:22Z</time>
      </trkpt>
      <trkpt lat="48.23939" lon="6.65219">
        <ele>358.20001220703</ele>
        <time>2017-07-19T13:09:30Z</time>
      </trkpt>
      <trkpt lat="48.23938" lon="6.65227">
        <ele>358.39999389648</ele>
        <time>2017-07-19T13:09:32Z</time>
      </trkpt>
      <trkpt lat="48.2394" lon="6.65262">
        <ele>359.60000610352</ele>
        <time>2017-07-19T13:09:40Z</time>
      </trkpt>
      <trkpt lat="48.23941" lon="6.6527">
        <ele>360</ele>
        <time>2017-07-19T13:09:42Z</time>
      </trkpt>
      <trkpt lat="48.23942" lon="6.65285">
        <ele>360.60000610352</ele>
        <time>2017-07-19T13:09:46Z</time>
      </trkpt>
      <trkpt lat="48.23945" lon="6.65304">
        <ele>361.60000610352</ele>
        <time>2017-07-19T13:09:51Z</time>
      </trkpt>
      <trkpt lat="48.23945" lon="6.65308">
        <ele>361.79998779297</ele>
        <time>2017-07-19T13:09:52Z</time>
      </trkpt>
      <trkpt lat="48.23952" lon="6.65336">
        <ele>362.79998779297</ele>
        <time>2017-07-19T13:09:59Z</time>
      </trkpt>
      <trkpt lat="48.23953" lon="6.6534">
        <ele>363</ele>
        <time>2017-07-19T13:10:00Z</time>
      </trkpt>
      <trkpt lat="48.23954" lon="6.65344">
        <ele>363.20001220703</ele>
        <time>2017-07-19T13:10:01Z</time>
      </trkpt>
      <trkpt lat="48.23957" lon="6.6536">
        <ele>364</ele>
        <time>2017-07-19T13:10:05Z</time>
      </trkpt>
      <trkpt lat="48.23961" lon="6.65379">
        <ele>364.60000610352</ele>
        <time>2017-07-19T13:10:10Z</time>
      </trkpt>
      <trkpt lat="48.23963" lon="6.65392">
        <ele>365</ele>
        <time>2017-07-19T13:10:13Z</time>
      </trkpt>
      <trkpt lat="48.23964" lon="6.65417">
        <ele>365.79998779297</ele>
        <time>2017-07-19T13:10:19Z</time>
      </trkpt>
      <trkpt lat="48.23964" lon="6.65425">
        <ele>366</ele>
        <time>2017-07-19T13:10:21Z</time>
      </trkpt>
      <trkpt lat="48.23963" lon="6.6545">
        <ele>367.20001220703</ele>
        <time>2017-07-19T13:10:27Z</time>
      </trkpt>
      <trkpt lat="48.23961" lon="6.65489">
        <ele>368.39999389648</ele>
        <time>2017-07-19T13:10:36Z</time>
      </trkpt>
      <trkpt lat="48.23961" lon="6.65497">
        <ele>368.79998779297</ele>
        <time>2017-07-19T13:10:38Z</time>
      </trkpt>
      <trkpt lat="48.2396" lon="6.65515">
        <ele>369.39999389648</ele>
        <time>2017-07-19T13:10:42Z</time>
      </trkpt>
      <trkpt lat="48.2396" lon="6.65535">
        <ele>369.79998779297</ele>
        <time>2017-07-19T13:10:46Z</time>
      </trkpt>
      <trkpt lat="48.23958" lon="6.65568">
        <ele>370.39999389648</ele>
        <time>2017-07-19T13:10:52Z</time>
      </trkpt>
      <trkpt lat="48.23958" lon="6.65579">
        <ele>370.60000610352</ele>
        <time>2017-07-19T13:10:54Z</time>
      </trkpt>
      <trkpt lat="48.23957" lon="6.65632">
        <ele>371.39999389648</ele>
        <time>2017-07-19T13:11:03Z</time>
      </trkpt>
      <trkpt lat="48.23955" lon="6.65662">
        <ele>371.39999389648</ele>
        <time>2017-07-19T13:11:08Z</time>
      </trkpt>
      <trkpt lat="48.23953" lon="6.65701">
        <ele>371.79998779297</ele>
        <time>2017-07-19T13:11:14Z</time>
      </trkpt>
      <trkpt lat="48.23949" lon="6.65758">
        <ele>370.60000610352</ele>
        <time>2017-07-19T13:11:21Z</time>
      </trkpt>
      <trkpt lat="48.23949" lon="6.65767">
        <ele>370.39999389648</ele>
        <time>2017-07-19T13:11:22Z</time>
      </trkpt>
      <trkpt lat="48.23943" lon="6.65836">
        <ele>369.20001220703</ele>
        <time>2017-07-19T13:11:29Z</time>
      </trkpt>
      <trkpt lat="48.2394" lon="6.65877">
        <ele>368</ele>
        <time>2017-07-19T13:11:33Z</time>
      </trkpt>
      <trkpt lat="48.23936" lon="6.65929">
        <ele>367.39999389648</ele>
        <time>2017-07-19T13:11:38Z</time>
      </trkpt>
      <trkpt lat="48.23934" lon="6.65961">
        <ele>367</ele>
        <time>2017-07-19T13:11:41Z</time>
      </trkpt>
      <trkpt lat="48.23932" lon="6.66016">
        <ele>366</ele>
        <time>2017-07-19T13:11:46Z</time>
      </trkpt>
      <trkpt lat="48.23931" lon="6.66038">
        <ele>365.79998779297</ele>
        <time>2017-07-19T13:11:48Z</time>
      </trkpt>
      <trkpt lat="48.23933" lon="6.66094">
        <ele>365.20001220703</ele>
        <time>2017-07-19T13:11:53Z</time>
      </trkpt>
      <trkpt lat="48.23935" lon="6.6613">
        <ele>364.60000610352</ele>
        <time>2017-07-19T13:11:56Z</time>
      </trkpt>
      <trkpt lat="48.23936" lon="6.66182">
        <ele>363.39999389648</ele>
        <time>2017-07-19T13:12:00Z</time>
      </trkpt>
      <trkpt lat="48.23936" lon="6.66235">
        <ele>362</ele>
        <time>2017-07-19T13:12:04Z</time>
      </trkpt>
      <trkpt lat="48.23935" lon="6.66263">
        <ele>360.79998779297</ele>
        <time>2017-07-19T13:12:06Z</time>
      </trkpt>
      <trkpt lat="48.23932" lon="6.66306">
        <ele>359.60000610352</ele>
        <time>2017-07-19T13:12:09Z</time>
      </trkpt>
      <trkpt lat="48.2393" lon="6.66335">
        <ele>358.39999389648</ele>
        <time>2017-07-19T13:12:11Z</time>
      </trkpt>
      <trkpt lat="48.23927" lon="6.66364">
        <ele>357.39999389648</ele>
        <time>2017-07-19T13:12:13Z</time>
      </trkpt>
      <trkpt lat="48.23926" lon="6.66378">
        <ele>357.20001220703</ele>
        <time>2017-07-19T13:12:14Z</time>
      </trkpt>
      <trkpt lat="48.23923" lon="6.66434">
        <ele>356</ele>
        <time>2017-07-19T13:12:18Z</time>
      </trkpt>
      <trkpt lat="48.23922" lon="6.66447">
        <ele>355.79998779297</ele>
        <time>2017-07-19T13:12:19Z</time>
      </trkpt>
      <trkpt lat="48.23917" lon="6.66514">
        <ele>355</ele>
        <time>2017-07-19T13:12:24Z</time>
      </trkpt>
      <trkpt lat="48.23912" lon="6.66554">
        <ele>354.60000610352</ele>
        <time>2017-07-19T13:12:27Z</time>
      </trkpt>
      <trkpt lat="48.23902" lon="6.66643">
        <ele>354.20001220703</ele>
        <time>2017-07-19T13:12:34Z</time>
      </trkpt>
      <trkpt lat="48.23901" lon="6.66654">
        <ele>354.39999389648</ele>
        <time>2017-07-19T13:12:35Z</time>
      </trkpt>
      <trkpt lat="48.23899" lon="6.66704">
        <ele>355</ele>
        <time>2017-07-19T13:12:40Z</time>
      </trkpt>
      <trkpt lat="48.239" lon="6.66721">
        <ele>355.39999389648</ele>
        <time>2017-07-19T13:12:42Z</time>
      </trkpt>
      <trkpt lat="48.23901" lon="6.66736">
        <ele>356</ele>
        <time>2017-07-19T13:12:44Z</time>
      </trkpt>
      <trkpt lat="48.23902" lon="6.66743">
        <ele>356.39999389648</ele>
        <time>2017-07-19T13:12:45Z</time>
      </trkpt>
      <trkpt lat="48.23904" lon="6.66755">
        <ele>357</ele>
        <time>2017-07-19T13:12:47Z</time>
      </trkpt>
      <trkpt lat="48.23909" lon="6.66775">
        <ele>358.20001220703</ele>
        <time>2017-07-19T13:12:51Z</time>
      </trkpt>
      <trkpt lat="48.23913" lon="6.66787">
        <ele>359.39999389648</ele>
        <time>2017-07-19T13:12:54Z</time>
      </trkpt>
      <trkpt lat="48.23919" lon="6.66805">
        <ele>360.39999389648</ele>
        <time>2017-07-19T13:12:58Z</time>
      </trkpt>
      <trkpt lat="48.2392" lon="6.66809">
        <ele>360.60000610352</ele>
        <time>2017-07-19T13:12:59Z</time>
      </trkpt>
      <trkpt lat="48.23923" lon="6.66832">
        <ele>361.79998779297</ele>
        <time>2017-07-19T13:13:04Z</time>
      </trkpt>
      <trkpt lat="48.23924" lon="6.66837">
        <ele>362</ele>
        <time>2017-07-19T13:13:05Z</time>
      </trkpt>
      <trkpt lat="48.23927" lon="6.66855">
        <ele>362.79998779297</ele>
        <time>2017-07-19T13:13:09Z</time>
      </trkpt>
      <trkpt lat="48.2393" lon="6.66879">
        <ele>364</ele>
        <time>2017-07-19T13:13:14Z</time>
      </trkpt>
      <trkpt lat="48.23933" lon="6.66899">
        <ele>365</ele>
        <time>2017-07-19T13:13:19Z</time>
      </trkpt>
      <trkpt lat="48.23933" lon="6.66903">
        <ele>365.20001220703</ele>
        <time>2017-07-19T13:13:20Z</time>
      </trkpt>
      <trkpt lat="48.23936" lon="6.66918">
        <ele>366</ele>
        <time>2017-07-19T13:13:24Z</time>
      </trkpt>
      <trkpt lat="48.23939" lon="6.66929">
        <ele>366.79998779297</ele>
        <time>2017-07-19T13:13:27Z</time>
      </trkpt>
      <trkpt lat="48.23943" lon="6.66939">
        <ele>367</ele>
        <time>2017-07-19T13:13:30Z</time>
      </trkpt>
      <trkpt lat="48.2395" lon="6.66952">
        <ele>367.39999389648</ele>
        <time>2017-07-19T13:13:34Z</time>
      </trkpt>
      <trkpt lat="48.23956" lon="6.66966">
        <ele>368.20001220703</ele>
        <time>2017-07-19T13:13:39Z</time>
      </trkpt>
      <trkpt lat="48.23961" lon="6.6698">
        <ele>368.79998779297</ele>
        <time>2017-07-19T13:13:43Z</time>
      </trkpt>
      <trkpt lat="48.23964" lon="6.66987">
        <ele>369.20001220703</ele>
        <time>2017-07-19T13:13:45Z</time>
      </trkpt>
      <trkpt lat="48.23972" lon="6.67004">
        <ele>370</ele>
        <time>2017-07-19T13:13:50Z</time>
      </trkpt>
      <trkpt lat="48.23975" lon="6.67011">
        <ele>370.39999389648</ele>
        <time>2017-07-19T13:13:52Z</time>
      </trkpt>
      <trkpt lat="48.23983" lon="6.6703">
        <ele>371.20001220703</ele>
        <time>2017-07-19T13:13:57Z</time>
      </trkpt>
      <trkpt lat="48.23985" lon="6.67034">
        <ele>371.60000610352</ele>
        <time>2017-07-19T13:13:58Z</time>
      </trkpt>
      <trkpt lat="48.23995" lon="6.67062">
        <ele>372.20001220703</ele>
        <time>2017-07-19T13:14:05Z</time>
      </trkpt>
      <trkpt lat="48.23998" lon="6.6707">
        <ele>372.60000610352</ele>
        <time>2017-07-19T13:14:07Z</time>
      </trkpt>
      <trkpt lat="48.24002" lon="6.67091">
        <ele>373.39999389648</ele>
        <time>2017-07-19T13:14:12Z</time>
      </trkpt>
      <trkpt lat="48.24003" lon="6.671">
        <ele>373.79998779297</ele>
        <time>2017-07-19T13:14:14Z</time>
      </trkpt>
      <trkpt lat="48.24008" lon="6.67122">
        <ele>374.39999389648</ele>
        <time>2017-07-19T13:14:19Z</time>
      </trkpt>
      <trkpt lat="48.24009" lon="6.67136">
        <ele>374.79998779297</ele>
        <time>2017-07-19T13:14:22Z</time>
      </trkpt>
      <trkpt lat="48.24013" lon="6.67158">
        <ele>375.60000610352</ele>
        <time>2017-07-19T13:14:27Z</time>
      </trkpt>
      <trkpt lat="48.24014" lon="6.67167">
        <ele>375.79998779297</ele>
        <time>2017-07-19T13:14:29Z</time>
      </trkpt>
      <trkpt lat="48.24016" lon="6.67185">
        <ele>376.39999389648</ele>
        <time>2017-07-19T13:14:33Z</time>
      </trkpt>
      <trkpt lat="48.24019" lon="6.6721">
        <ele>376.79998779297</ele>
        <time>2017-07-19T13:14:38Z</time>
      </trkpt>
      <trkpt lat="48.24021" lon="6.67231">
        <ele>377.39999389648</ele>
        <time>2017-07-19T13:14:42Z</time>
      </trkpt>
      <trkpt lat="48.24025" lon="6.67284">
        <ele>377.79998779297</ele>
        <time>2017-07-19T13:14:51Z</time>
      </trkpt>
      <trkpt lat="48.24025" lon="6.6729">
        <ele>378</ele>
        <time>2017-07-19T13:14:52Z</time>
      </trkpt>
      <trkpt lat="48.24023" lon="6.67337">
        <ele>379</ele>
        <time>2017-07-19T13:15:00Z</time>
      </trkpt>
      <trkpt lat="48.24021" lon="6.67377">
        <ele>380</ele>
        <time>2017-07-19T13:15:07Z</time>
      </trkpt>
      <trkpt lat="48.24017" lon="6.67411">
        <ele>381</ele>
        <time>2017-07-19T13:15:13Z</time>
      </trkpt>
      <trkpt lat="48.24015" lon="6.67438">
        <ele>381.79998779297</ele>
        <time>2017-07-19T13:15:18Z</time>
      </trkpt>
      <trkpt lat="48.24013" lon="6.6746">
        <ele>382</ele>
        <time>2017-07-19T13:15:22Z</time>
      </trkpt>
      <trkpt lat="48.24012" lon="6.67471">
        <ele>382.20001220703</ele>
        <time>2017-07-19T13:15:24Z</time>
      </trkpt>
      <trkpt lat="48.24001" lon="6.67528">
        <ele>383.20001220703</ele>
        <time>2017-07-19T13:15:34Z</time>
      </trkpt>
      <trkpt lat="48.23991" lon="6.67583">
        <ele>383.60000610352</ele>
        <time>2017-07-19T13:15:43Z</time>
      </trkpt>
      <trkpt lat="48.2399" lon="6.67641">
        <ele>383.60000610352</ele>
        <time>2017-07-19T13:15:52Z</time>
      </trkpt>
      <trkpt lat="48.23992" lon="6.67692">
        <ele>383.60000610352</ele>
        <time>2017-07-19T13:16:00Z</time>
      </trkpt>
      <trkpt lat="48.23996" lon="6.6776">
        <ele>383.39999389648</ele>
        <time>2017-07-19T13:16:09Z</time>
      </trkpt>
      <trkpt lat="48.23998" lon="6.67816">
        <ele>382.79998779297</ele>
        <time>2017-07-19T13:16:15Z</time>
      </trkpt>
      <trkpt lat="48.24" lon="6.67847">
        <ele>382.20001220703</ele>
        <time>2017-07-19T13:16:18Z</time>
      </trkpt>
      <trkpt lat="48.24002" lon="6.6791">
        <ele>381</ele>
        <time>2017-07-19T13:16:24Z</time>
      </trkpt>
      <trkpt lat="48.24002" lon="6.67929">
        <ele>380.60000610352</ele>
        <time>2017-07-19T13:16:26Z</time>
      </trkpt>
      <trkpt lat="48.24002" lon="6.67958">
        <ele>380.39999389648</ele>
        <time>2017-07-19T13:16:29Z</time>
      </trkpt>
      <trkpt lat="48.24002" lon="6.67976">
        <ele>380.20001220703</ele>
        <time>2017-07-19T13:16:31Z</time>
      </trkpt>
      <trkpt lat="48.24" lon="6.68036">
        <ele>380</ele>
        <time>2017-07-19T13:16:38Z</time>
      </trkpt>
      <trkpt lat="48.23998" lon="6.68051">
        <ele>380</ele>
        <time>2017-07-19T13:16:41Z</time>
      </trkpt>
      <trkpt lat="48.23998" lon="6.68054">
        <ele>380</ele>
        <time>2017-07-19T13:16:42Z</time>
      </trkpt>
      <trkpt lat="48.23997" lon="6.6806">
        <ele>379.39999389648</ele>
        <time>2017-07-19T13:18:02Z</time>
      </trkpt>
      <trkpt lat="48.24" lon="6.68076">
        <ele>379.39999389648</ele>
        <time>2017-07-19T13:18:07Z</time>
      </trkpt>
      <trkpt lat="48.23999" lon="6.68107">
        <ele>379.60000610352</ele>
        <time>2017-07-19T13:18:13Z</time>
      </trkpt>
      <trkpt lat="48.23997" lon="6.68146">
        <ele>379.79998779297</ele>
        <time>2017-07-19T13:18:19Z</time>
      </trkpt>
      <trkpt lat="48.23996" lon="6.68153">
        <ele>379.79998779297</ele>
        <time>2017-07-19T13:18:20Z</time>
      </trkpt>
      <trkpt lat="48.23992" lon="6.68191">
        <ele>379.79998779297</ele>
        <time>2017-07-19T13:18:25Z</time>
      </trkpt>
      <trkpt lat="48.23982" lon="6.68239">
        <ele>379.20001220703</ele>
        <time>2017-07-19T13:18:31Z</time>
      </trkpt>
      <trkpt lat="48.23968" lon="6.68285">
        <ele>379</ele>
        <time>2017-07-19T13:18:37Z</time>
      </trkpt>
      <trkpt lat="48.23966" lon="6.68293">
        <ele>378.79998779297</ele>
        <time>2017-07-19T13:18:38Z</time>
      </trkpt>
      <trkpt lat="48.23957" lon="6.68341">
        <ele>378.79998779297</ele>
        <time>2017-07-19T13:18:44Z</time>
      </trkpt>
      <trkpt lat="48.23955" lon="6.68386">
        <ele>379</ele>
        <time>2017-07-19T13:18:50Z</time>
      </trkpt>
      <trkpt lat="48.23952" lon="6.6843">
        <ele>379.60000610352</ele>
        <time>2017-07-19T13:18:57Z</time>
      </trkpt>
      <trkpt lat="48.2395" lon="6.68441">
        <ele>380</ele>
        <time>2017-07-19T13:18:59Z</time>
      </trkpt>
      <trkpt lat="48.23942" lon="6.68467">
        <ele>380.79998779297</ele>
        <time>2017-07-19T13:19:04Z</time>
      </trkpt>
      <trkpt lat="48.23938" lon="6.68477">
        <ele>381</ele>
        <time>2017-07-19T13:19:06Z</time>
      </trkpt>
      <trkpt lat="48.23927" lon="6.68498">
        <ele>382.20001220703</ele>
        <time>2017-07-19T13:19:11Z</time>
      </trkpt>
      <trkpt lat="48.23914" lon="6.68517">
        <ele>383.20001220703</ele>
        <time>2017-07-19T13:19:16Z</time>
      </trkpt>
      <trkpt lat="48.23906" lon="6.68527">
        <ele>383.39999389648</ele>
        <time>2017-07-19T13:19:19Z</time>
      </trkpt>
      <trkpt lat="48.23893" lon="6.68542">
        <ele>384.20001220703</ele>
        <time>2017-07-19T13:19:24Z</time>
      </trkpt>
      <trkpt lat="48.2389" lon="6.68545">
        <ele>384.39999389648</ele>
        <time>2017-07-19T13:19:25Z</time>
      </trkpt>
      <trkpt lat="48.23876" lon="6.6856">
        <ele>385.39999389648</ele>
        <time>2017-07-19T13:19:31Z</time>
      </trkpt>
      <trkpt lat="48.23871" lon="6.68565">
        <ele>385.79998779297</ele>
        <time>2017-07-19T13:19:33Z</time>
      </trkpt>
      <trkpt lat="48.23861" lon="6.68572">
        <ele>386.60000610352</ele>
        <time>2017-07-19T13:19:37Z</time>
      </trkpt>
      <trkpt lat="48.23852" lon="6.68583">
        <ele>387.20001220703</ele>
        <time>2017-07-19T13:19:41Z</time>
      </trkpt>
      <trkpt lat="48.23847" lon="6.68588">
        <ele>387.79998779297</ele>
        <time>2017-07-19T13:19:43Z</time>
      </trkpt>
      <trkpt lat="48.23836" lon="6.68604">
        <ele>388.79998779297</ele>
        <time>2017-07-19T13:19:48Z</time>
      </trkpt>
      <trkpt lat="48.23834" lon="6.68607">
        <ele>389</ele>
        <time>2017-07-19T13:19:49Z</time>
      </trkpt>
      <trkpt lat="48.23826" lon="6.68624">
        <ele>389.79998779297</ele>
        <time>2017-07-19T13:19:54Z</time>
      </trkpt>
      <trkpt lat="48.2382" lon="6.68633">
        <ele>390</ele>
        <time>2017-07-19T13:19:57Z</time>
      </trkpt>
      <trkpt lat="48.23811" lon="6.68655">
        <ele>390.39999389648</ele>
        <time>2017-07-19T13:20:03Z</time>
      </trkpt>
      <trkpt lat="48.238" lon="6.68682">
        <ele>390.60000610352</ele>
        <time>2017-07-19T13:20:09Z</time>
      </trkpt>
      <trkpt lat="48.23794" lon="6.68712">
        <ele>390.79998779297</ele>
        <time>2017-07-19T13:20:14Z</time>
      </trkpt>
      <trkpt lat="48.23793" lon="6.68719">
        <ele>390.79998779297</ele>
        <time>2017-07-19T13:20:15Z</time>
      </trkpt>
      <trkpt lat="48.23784" lon="6.68789">
        <ele>390.60000610352</ele>
        <time>2017-07-19T13:20:25Z</time>
      </trkpt>
      <trkpt lat="48.23775" lon="6.68865">
        <ele>390.39999389648</ele>
        <time>2017-07-19T13:20:35Z</time>
      </trkpt>
      <trkpt lat="48.23768" lon="6.68936">
        <ele>390.39999389648</ele>
        <time>2017-07-19T13:20:44Z</time>
      </trkpt>
      <trkpt lat="48.23761" lon="6.68999">
        <ele>390.39999389648</ele>
        <time>2017-07-19T13:20:52Z</time>
      </trkpt>
      <trkpt lat="48.23754" lon="6.69043">
        <ele>390.20001220703</ele>
        <time>2017-07-19T13:20:58Z</time>
      </trkpt>
      <trkpt lat="48.23743" lon="6.69102">
        <ele>390.20001220703</ele>
        <time>2017-07-19T13:21:06Z</time>
      </trkpt>
      <trkpt lat="48.23735" lon="6.69151">
        <ele>390</ele>
        <time>2017-07-19T13:21:13Z</time>
      </trkpt>
      <trkpt lat="48.23728" lon="6.69209">
        <ele>390</ele>
        <time>2017-07-19T13:21:20Z</time>
      </trkpt>
      <trkpt lat="48.23721" lon="6.69258">
        <ele>388.79998779297</ele>
        <time>2017-07-19T13:21:25Z</time>
      </trkpt>
      <trkpt lat="48.23719" lon="6.6928">
        <ele>388.20001220703</ele>
        <time>2017-07-19T13:21:27Z</time>
      </trkpt>
      <trkpt lat="48.23716" lon="6.69304">
        <ele>387.60000610352</ele>
        <time>2017-07-19T13:21:29Z</time>
      </trkpt>
      <trkpt lat="48.23709" lon="6.69351">
        <ele>386.60000610352</ele>
        <time>2017-07-19T13:21:33Z</time>
      </trkpt>
      <trkpt lat="48.23707" lon="6.69362">
        <ele>386.20001220703</ele>
        <time>2017-07-19T13:21:34Z</time>
      </trkpt>
      <trkpt lat="48.23703" lon="6.69385">
        <ele>385.39999389648</ele>
        <time>2017-07-19T13:21:36Z</time>
      </trkpt>
      <trkpt lat="48.23689" lon="6.6945">
        <ele>384.20001220703</ele>
        <time>2017-07-19T13:21:42Z</time>
      </trkpt>
      <trkpt lat="48.23687" lon="6.69461">
        <ele>384.20001220703</ele>
        <time>2017-07-19T13:21:43Z</time>
      </trkpt>
      <trkpt lat="48.23669" lon="6.69543">
        <ele>383.60000610352</ele>
        <time>2017-07-19T13:21:51Z</time>
      </trkpt>
      <trkpt lat="48.23651" lon="6.69628">
        <ele>383.79998779297</ele>
        <time>2017-07-19T13:22:00Z</time>
      </trkpt>
      <trkpt lat="48.23649" lon="6.69637">
        <ele>383.79998779297</ele>
        <time>2017-07-19T13:22:01Z</time>
      </trkpt>
      <trkpt lat="48.23631" lon="6.69719">
        <ele>384</ele>
        <time>2017-07-19T13:22:10Z</time>
      </trkpt>
      <trkpt lat="48.23616" lon="6.69777">
        <ele>384</ele>
        <time>2017-07-19T13:22:17Z</time>
      </trkpt>
      <trkpt lat="48.23596" lon="6.69833">
        <ele>384.79998779297</ele>
        <time>2017-07-19T13:22:25Z</time>
      </trkpt>
      <trkpt lat="48.23573" lon="6.6988">
        <ele>385.20001220703</ele>
        <time>2017-07-19T13:22:33Z</time>
      </trkpt>
      <trkpt lat="48.23566" lon="6.69891">
        <ele>385.20001220703</ele>
        <time>2017-07-19T13:22:35Z</time>
      </trkpt>
      <trkpt lat="48.23549" lon="6.69919">
        <ele>385.60000610352</ele>
        <time>2017-07-19T13:22:40Z</time>
      </trkpt>
      <trkpt lat="48.23522" lon="6.69953">
        <ele>386.20001220703</ele>
        <time>2017-07-19T13:22:47Z</time>
      </trkpt>
      <trkpt lat="48.23518" lon="6.69958">
        <ele>386.39999389648</ele>
        <time>2017-07-19T13:22:48Z</time>
      </trkpt>
      <trkpt lat="48.23487" lon="6.69989">
        <ele>386.79998779297</ele>
        <time>2017-07-19T13:22:55Z</time>
      </trkpt>
      <trkpt lat="48.23451" lon="6.70022">
        <ele>387</ele>
        <time>2017-07-19T13:23:03Z</time>
      </trkpt>
      <trkpt lat="48.23421" lon="6.70051">
        <ele>387.20001220703</ele>
        <time>2017-07-19T13:23:10Z</time>
      </trkpt>
      <trkpt lat="48.23412" lon="6.70059">
        <ele>387.39999389648</ele>
        <time>2017-07-19T13:23:12Z</time>
      </trkpt>
      <trkpt lat="48.23388" lon="6.70087">
        <ele>387.79998779297</ele>
        <time>2017-07-19T13:23:18Z</time>
      </trkpt>
      <trkpt lat="48.2337" lon="6.70112">
        <ele>388.39999389648</ele>
        <time>2017-07-19T13:23:23Z</time>
      </trkpt>
      <trkpt lat="48.2336" lon="6.70129">
        <ele>388.79998779297</ele>
        <time>2017-07-19T13:23:26Z</time>
      </trkpt>
      <trkpt lat="48.23335" lon="6.70174">
        <ele>389.39999389648</ele>
        <time>2017-07-19T13:23:34Z</time>
      </trkpt>
      <trkpt lat="48.23332" lon="6.7018">
        <ele>389.60000610352</ele>
        <time>2017-07-19T13:23:35Z</time>
      </trkpt>
      <trkpt lat="48.23316" lon="6.70213">
        <ele>390.39999389648</ele>
        <time>2017-07-19T13:23:41Z</time>
      </trkpt>
      <trkpt lat="48.2331" lon="6.70224">
        <ele>390.79998779297</ele>
        <time>2017-07-19T13:23:43Z</time>
      </trkpt>
      <trkpt lat="48.233" lon="6.70246">
        <ele>391.60000610352</ele>
        <time>2017-07-19T13:23:47Z</time>
      </trkpt>
      <trkpt lat="48.23294" lon="6.70256">
        <ele>392.20001220703</ele>
        <time>2017-07-19T13:23:49Z</time>
      </trkpt>
      <trkpt lat="48.23292" lon="6.70261">
        <ele>392.39999389648</ele>
        <time>2017-07-19T13:23:50Z</time>
      </trkpt>
      <trkpt lat="48.23287" lon="6.7027">
        <ele>392.79998779297</ele>
        <time>2017-07-19T13:23:52Z</time>
      </trkpt>
      <trkpt lat="48.23273" lon="6.70293">
        <ele>393.79998779297</ele>
        <time>2017-07-19T13:23:57Z</time>
      </trkpt>
      <trkpt lat="48.2327" lon="6.70297">
        <ele>394</ele>
        <time>2017-07-19T13:23:58Z</time>
      </trkpt>
      <trkpt lat="48.2325" lon="6.70323">
        <ele>395</ele>
        <time>2017-07-19T13:24:04Z</time>
      </trkpt>
      <trkpt lat="48.23246" lon="6.70326">
        <ele>395.20001220703</ele>
        <time>2017-07-19T13:24:05Z</time>
      </trkpt>
      <trkpt lat="48.23224" lon="6.70348">
        <ele>395.60000610352</ele>
        <time>2017-07-19T13:24:11Z</time>
      </trkpt>
      <trkpt lat="48.2322" lon="6.70351">
        <ele>395.60000610352</ele>
        <time>2017-07-19T13:24:12Z</time>
      </trkpt>
      <trkpt lat="48.23196" lon="6.70368">
        <ele>396</ele>
        <time>2017-07-19T13:24:18Z</time>
      </trkpt>
      <trkpt lat="48.23188" lon="6.70374">
        <ele>396.20001220703</ele>
        <time>2017-07-19T13:24:20Z</time>
      </trkpt>
      <trkpt lat="48.23154" lon="6.70397">
        <ele>396.79998779297</ele>
        <time>2017-07-19T13:24:28Z</time>
      </trkpt>
      <trkpt lat="48.23111" lon="6.70428">
        <ele>397</ele>
        <time>2017-07-19T13:24:38Z</time>
      </trkpt>
      <trkpt lat="48.23077" lon="6.70455">
        <ele>397.60000610352</ele>
        <time>2017-07-19T13:24:46Z</time>
      </trkpt>
      <trkpt lat="48.23036" lon="6.70483">
        <ele>397.79998779297</ele>
        <time>2017-07-19T13:24:55Z</time>
      </trkpt>
      <trkpt lat="48.2301" lon="6.70504">
        <ele>398</ele>
        <time>2017-07-19T13:25:01Z</time>
      </trkpt>
      <trkpt lat="48.22996" lon="6.70514">
        <ele>398.20001220703</ele>
        <time>2017-07-19T13:25:04Z</time>
      </trkpt>
      <trkpt lat="48.22961" lon="6.70547">
        <ele>399</ele>
        <time>2017-07-19T13:25:13Z</time>
      </trkpt>
      <trkpt lat="48.22957" lon="6.70551">
        <ele>399.20001220703</ele>
        <time>2017-07-19T13:25:14Z</time>
      </trkpt>
      <trkpt lat="48.22941" lon="6.70568">
        <ele>399.60000610352</ele>
        <time>2017-07-19T13:25:19Z</time>
      </trkpt>
      <trkpt lat="48.22929" lon="6.70585">
        <ele>400.20001220703</ele>
        <time>2017-07-19T13:25:24Z</time>
      </trkpt>
      <trkpt lat="48.22922" lon="6.70595">
        <ele>400.60000610352</ele>
        <time>2017-07-19T13:25:27Z</time>
      </trkpt>
      <trkpt lat="48.2291" lon="6.70613">
        <ele>401.39999389648</ele>
        <time>2017-07-19T13:25:32Z</time>
      </trkpt>
      <trkpt lat="48.22903" lon="6.70625">
        <ele>402</ele>
        <time>2017-07-19T13:25:35Z</time>
      </trkpt>
      <trkpt lat="48.22898" lon="6.70632">
        <ele>402.39999389648</ele>
        <time>2017-07-19T13:25:37Z</time>
      </trkpt>
      <trkpt lat="48.22888" lon="6.70646">
        <ele>403.39999389648</ele>
        <time>2017-07-19T13:25:41Z</time>
      </trkpt>
      <trkpt lat="48.22886" lon="6.70649">
        <ele>403.60000610352</ele>
        <time>2017-07-19T13:25:42Z</time>
      </trkpt>
      <trkpt lat="48.22874" lon="6.70665">
        <ele>404.60000610352</ele>
        <time>2017-07-19T13:25:47Z</time>
      </trkpt>
      <trkpt lat="48.22869" lon="6.70672">
        <ele>405</ele>
        <time>2017-07-19T13:25:49Z</time>
      </trkpt>
      <trkpt lat="48.2286" lon="6.70687">
        <ele>405.79998779297</ele>
        <time>2017-07-19T13:25:53Z</time>
      </trkpt>
      <trkpt lat="48.22853" lon="6.70697">
        <ele>406.20001220703</ele>
        <time>2017-07-19T13:25:56Z</time>
      </trkpt>
      <trkpt lat="48.2284" lon="6.70716">
        <ele>406.79998779297</ele>
        <time>2017-07-19T13:26:01Z</time>
      </trkpt>
      <trkpt lat="48.22835" lon="6.70724">
        <ele>407</ele>
        <time>2017-07-19T13:26:03Z</time>
      </trkpt>
      <trkpt lat="48.22813" lon="6.70758">
        <ele>407.79998779297</ele>
        <time>2017-07-19T13:26:11Z</time>
      </trkpt>
      <trkpt lat="48.2281" lon="6.70761">
        <ele>407.79998779297</ele>
        <time>2017-07-19T13:26:12Z</time>
      </trkpt>
      <trkpt lat="48.22793" lon="6.70785">
        <ele>408.39999389648</ele>
        <time>2017-07-19T13:26:18Z</time>
      </trkpt>
      <trkpt lat="48.22782" lon="6.70799">
        <ele>409</ele>
        <time>2017-07-19T13:26:22Z</time>
      </trkpt>
      <trkpt lat="48.22769" lon="6.70818">
        <ele>409.60000610352</ele>
        <time>2017-07-19T13:26:27Z</time>
      </trkpt>
      <trkpt lat="48.22763" lon="6.70825">
        <ele>410</ele>
        <time>2017-07-19T13:26:29Z</time>
      </trkpt>
      <trkpt lat="48.22746" lon="6.70845">
        <ele>410.79998779297</ele>
        <time>2017-07-19T13:26:35Z</time>
      </trkpt>
      <trkpt lat="48.22743" lon="6.70849">
        <ele>411</ele>
        <time>2017-07-19T13:26:36Z</time>
      </trkpt>
      <trkpt lat="48.22726" lon="6.7087">
        <ele>411.79998779297</ele>
        <time>2017-07-19T13:26:42Z</time>
      </trkpt>
      <trkpt lat="48.22721" lon="6.70878">
        <ele>412</ele>
        <time>2017-07-19T13:26:44Z</time>
      </trkpt>
      <trkpt lat="48.22705" lon="6.70901">
        <ele>412.60000610352</ele>
        <time>2017-07-19T13:26:49Z</time>
      </trkpt>
      <trkpt lat="48.2268" lon="6.70933">
        <ele>412.60000610352</ele>
        <time>2017-07-19T13:26:56Z</time>
      </trkpt>
      <trkpt lat="48.22676" lon="6.70937">
        <ele>412.60000610352</ele>
        <time>2017-07-19T13:26:57Z</time>
      </trkpt>
      <trkpt lat="48.22645" lon="6.70976">
        <ele>412.60000610352</ele>
        <time>2017-07-19T13:27:05Z</time>
      </trkpt>
      <trkpt lat="48.22622" lon="6.71012">
        <ele>412.79998779297</ele>
        <time>2017-07-19T13:27:11Z</time>
      </trkpt>
      <trkpt lat="48.2259" lon="6.71066">
        <ele>411.79998779297</ele>
        <time>2017-07-19T13:27:18Z</time>
      </trkpt>
      <trkpt lat="48.22567" lon="6.71107">
        <ele>411</ele>
        <time>2017-07-19T13:27:23Z</time>
      </trkpt>
      <trkpt lat="48.22558" lon="6.71121">
        <ele>410.60000610352</ele>
        <time>2017-07-19T13:27:25Z</time>
      </trkpt>
      <trkpt lat="48.22533" lon="6.71163">
        <ele>410.39999389648</ele>
        <time>2017-07-19T13:27:31Z</time>
      </trkpt>
      <trkpt lat="48.22498" lon="6.71221">
        <ele>410.60000610352</ele>
        <time>2017-07-19T13:27:40Z</time>
      </trkpt>
      <trkpt lat="48.22469" lon="6.71271">
        <ele>410.79998779297</ele>
        <time>2017-07-19T13:27:48Z</time>
      </trkpt>
      <trkpt lat="48.22437" lon="6.71318">
        <ele>410.79998779297</ele>
        <time>2017-07-19T13:27:56Z</time>
      </trkpt>
      <trkpt lat="48.22405" lon="6.71371">
        <ele>410.79998779297</ele>
        <time>2017-07-19T13:28:04Z</time>
      </trkpt>
      <trkpt lat="48.22381" lon="6.71414">
        <ele>411</ele>
        <time>2017-07-19T13:28:11Z</time>
      </trkpt>
      <trkpt lat="48.22359" lon="6.71455">
        <ele>411.20001220703</ele>
        <time>2017-07-19T13:28:18Z</time>
      </trkpt>
      <trkpt lat="48.22343" lon="6.71495">
        <ele>411.20001220703</ele>
        <time>2017-07-19T13:28:25Z</time>
      </trkpt>
      <trkpt lat="48.2234" lon="6.715">
        <ele>411.20001220703</ele>
        <time>2017-07-19T13:28:26Z</time>
      </trkpt>
      <trkpt lat="48.22335" lon="6.71509">
        <ele>411.20001220703</ele>
        <time>2017-07-19T13:28:29Z</time>
      </trkpt>
      <trkpt lat="48.22332" lon="6.71528">
        <ele>411.39999389648</ele>
        <time>2017-07-19T13:28:35Z</time>
      </trkpt>
      <trkpt lat="48.22326" lon="6.71555">
        <ele>411.39999389648</ele>
        <time>2017-07-19T13:28:40Z</time>
      </trkpt>
      <trkpt lat="48.2232" lon="6.71588">
        <ele>412</ele>
        <time>2017-07-19T13:28:45Z</time>
      </trkpt>
      <trkpt lat="48.22314" lon="6.71614">
        <ele>412.60000610352</ele>
        <time>2017-07-19T13:28:49Z</time>
      </trkpt>
      <trkpt lat="48.2231" lon="6.71633">
        <ele>413</ele>
        <time>2017-07-19T13:28:52Z</time>
      </trkpt>
      <trkpt lat="48.22303" lon="6.71665">
        <ele>413.60000610352</ele>
        <time>2017-07-19T13:28:57Z</time>
      </trkpt>
      <trkpt lat="48.22299" lon="6.7169">
        <ele>414</ele>
        <time>2017-07-19T13:29:01Z</time>
      </trkpt>
      <trkpt lat="48.22297" lon="6.71696">
        <ele>414.20001220703</ele>
        <time>2017-07-19T13:29:02Z</time>
      </trkpt>
      <trkpt lat="48.22296" lon="6.71702">
        <ele>414.39999389648</ele>
        <time>2017-07-19T13:29:03Z</time>
      </trkpt>
      <trkpt lat="48.22294" lon="6.71708">
        <ele>414.79998779297</ele>
        <time>2017-07-19T13:29:04Z</time>
      </trkpt>
      <trkpt lat="48.2229" lon="6.71718">
        <ele>415</ele>
        <time>2017-07-19T13:29:06Z</time>
      </trkpt>
      <trkpt lat="48.22286" lon="6.71721">
        <ele>415.20001220703</ele>
        <time>2017-07-19T13:29:07Z</time>
      </trkpt>
      <trkpt lat="48.22283" lon="6.71726">
        <ele>415.20001220703</ele>
        <time>2017-07-19T13:29:08Z</time>
      </trkpt>
      <trkpt lat="48.2228" lon="6.71731">
        <ele>415.39999389648</ele>
        <time>2017-07-19T13:29:09Z</time>
      </trkpt>
      <trkpt lat="48.22273" lon="6.71747">
        <ele>415.79998779297</ele>
        <time>2017-07-19T13:29:12Z</time>
      </trkpt>
      <trkpt lat="48.22258" lon="6.71778">
        <ele>416</ele>
        <time>2017-07-19T13:29:18Z</time>
      </trkpt>
      <trkpt lat="48.22249" lon="6.71789">
        <ele>416.39999389648</ele>
        <time>2017-07-19T13:29:21Z</time>
      </trkpt>
      <trkpt lat="48.22233" lon="6.71792">
        <ele>416.79998779297</ele>
        <time>2017-07-19T13:29:25Z</time>
      </trkpt>
      <trkpt lat="48.22228" lon="6.71792">
        <ele>416.79998779297</ele>
        <time>2017-07-19T13:29:26Z</time>
      </trkpt>
      <trkpt lat="48.22205" lon="6.71783">
        <ele>417.20001220703</ele>
        <time>2017-07-19T13:29:32Z</time>
      </trkpt>
      <trkpt lat="48.22201" lon="6.71781">
        <ele>417.20001220703</ele>
        <time>2017-07-19T13:29:33Z</time>
      </trkpt>
      <trkpt lat="48.22179" lon="6.71772">
        <ele>418.20001220703</ele>
        <time>2017-07-19T13:29:39Z</time>
      </trkpt>
      <trkpt lat="48.22169" lon="6.71765">
        <ele>418.79998779297</ele>
        <time>2017-07-19T13:29:42Z</time>
      </trkpt>
      <trkpt lat="48.22159" lon="6.7176">
        <ele>419.20001220703</ele>
        <time>2017-07-19T13:29:45Z</time>
      </trkpt>
      <trkpt lat="48.22147" lon="6.71754">
        <ele>420</ele>
        <time>2017-07-19T13:29:49Z</time>
      </trkpt>
      <trkpt lat="48.22141" lon="6.71751">
        <ele>420.39999389648</ele>
        <time>2017-07-19T13:29:51Z</time>
      </trkpt>
      <trkpt lat="48.22123" lon="6.71742">
        <ele>420.79998779297</ele>
        <time>2017-07-19T13:29:57Z</time>
      </trkpt>
      <trkpt lat="48.22114" lon="6.71736">
        <ele>421.39999389648</ele>
        <time>2017-07-19T13:30:00Z</time>
      </trkpt>
      <trkpt lat="48.22099" lon="6.71729">
        <ele>422.39999389648</ele>
        <time>2017-07-19T13:30:05Z</time>
      </trkpt>
      <trkpt lat="48.22093" lon="6.71725">
        <ele>422.60000610352</ele>
        <time>2017-07-19T13:30:07Z</time>
      </trkpt>
      <trkpt lat="48.22081" lon="6.7172">
        <ele>423.79998779297</ele>
        <time>2017-07-19T13:30:11Z</time>
      </trkpt>
      <trkpt lat="48.22072" lon="6.71717">
        <ele>424.20001220703</ele>
        <time>2017-07-19T13:30:14Z</time>
      </trkpt>
      <trkpt lat="48.22063" lon="6.71711">
        <ele>424.79998779297</ele>
        <time>2017-07-19T13:30:17Z</time>
      </trkpt>
      <trkpt lat="48.22049" lon="6.71704">
        <ele>425.60000610352</ele>
        <time>2017-07-19T13:30:22Z</time>
      </trkpt>
      <trkpt lat="48.22046" lon="6.71703">
        <ele>426</ele>
        <time>2017-07-19T13:30:23Z</time>
      </trkpt>
      <trkpt lat="48.22031" lon="6.71696">
        <ele>427</ele>
        <time>2017-07-19T13:30:28Z</time>
      </trkpt>
      <trkpt lat="48.22015" lon="6.7169">
        <ele>427.79998779297</ele>
        <time>2017-07-19T13:30:33Z</time>
      </trkpt>
      <trkpt lat="48.22012" lon="6.71689">
        <ele>428.20001220703</ele>
        <time>2017-07-19T13:30:34Z</time>
      </trkpt>
      <trkpt lat="48.21993" lon="6.71682">
        <ele>429.20001220703</ele>
        <time>2017-07-19T13:30:40Z</time>
      </trkpt>
      <trkpt lat="48.2199" lon="6.71681">
        <ele>429.39999389648</ele>
        <time>2017-07-19T13:30:41Z</time>
      </trkpt>
      <trkpt lat="48.21969" lon="6.71676">
        <ele>430.20001220703</ele>
        <time>2017-07-19T13:30:48Z</time>
      </trkpt>
      <trkpt lat="48.21965" lon="6.71676">
        <ele>430.39999389648</ele>
        <time>2017-07-19T13:30:49Z</time>
      </trkpt>
      <trkpt lat="48.21946" lon="6.71673">
        <ele>431.39999389648</ele>
        <time>2017-07-19T13:30:55Z</time>
      </trkpt>
      <trkpt lat="48.21929" lon="6.7167">
        <ele>432.39999389648</ele>
        <time>2017-07-19T13:31:00Z</time>
      </trkpt>
      <trkpt lat="48.21919" lon="6.71669">
        <ele>432.79998779297</ele>
        <time>2017-07-19T13:31:03Z</time>
      </trkpt>
      <trkpt lat="48.21894" lon="6.71665">
        <ele>433.60000610352</ele>
        <time>2017-07-19T13:31:10Z</time>
      </trkpt>
      <trkpt lat="48.21887" lon="6.71663">
        <ele>433.60000610352</ele>
        <time>2017-07-19T13:31:12Z</time>
      </trkpt>
      <trkpt lat="48.2186" lon="6.71661">
        <ele>434.20001220703</ele>
        <time>2017-07-19T13:31:20Z</time>
      </trkpt>
      <trkpt lat="48.21853" lon="6.71659">
        <ele>434.60000610352</ele>
        <time>2017-07-19T13:31:22Z</time>
      </trkpt>
      <trkpt lat="48.21835" lon="6.71655">
        <ele>435.39999389648</ele>
        <time>2017-07-19T13:31:28Z</time>
      </trkpt>
      <trkpt lat="48.21828" lon="6.71653">
        <ele>435.60000610352</ele>
        <time>2017-07-19T13:31:30Z</time>
      </trkpt>
      <trkpt lat="48.21813" lon="6.71649">
        <ele>436</ele>
        <time>2017-07-19T13:31:35Z</time>
      </trkpt>
      <trkpt lat="48.21797" lon="6.71646">
        <ele>436.79998779297</ele>
        <time>2017-07-19T13:31:40Z</time>
      </trkpt>
      <trkpt lat="48.21788" lon="6.71645">
        <ele>437</ele>
        <time>2017-07-19T13:31:43Z</time>
      </trkpt>
      <trkpt lat="48.2176" lon="6.71638">
        <ele>437.39999389648</ele>
        <time>2017-07-19T13:31:51Z</time>
      </trkpt>
      <trkpt lat="48.2175" lon="6.71635">
        <ele>437.79998779297</ele>
        <time>2017-07-19T13:31:54Z</time>
      </trkpt>
      <trkpt lat="48.21729" lon="6.71629">
        <ele>438.60000610352</ele>
        <time>2017-07-19T13:32:00Z</time>
      </trkpt>
      <trkpt lat="48.21715" lon="6.71624">
        <ele>438.79998779297</ele>
        <time>2017-07-19T13:32:04Z</time>
      </trkpt>
      <trkpt lat="48.21705" lon="6.71619">
        <ele>439</ele>
        <time>2017-07-19T13:32:07Z</time>
      </trkpt>
      <trkpt lat="48.21677" lon="6.71605">
        <ele>440</ele>
        <time>2017-07-19T13:32:15Z</time>
      </trkpt>
      <trkpt lat="48.2165" lon="6.71588">
        <ele>441</ele>
        <time>2017-07-19T13:32:23Z</time>
      </trkpt>
      <trkpt lat="48.21644" lon="6.71584">
        <ele>441.20001220703</ele>
        <time>2017-07-19T13:32:25Z</time>
      </trkpt>
      <trkpt lat="48.21626" lon="6.71568">
        <ele>442</ele>
        <time>2017-07-19T13:32:31Z</time>
      </trkpt>
      <trkpt lat="48.21623" lon="6.71564">
        <ele>442</ele>
        <time>2017-07-19T13:32:32Z</time>
      </trkpt>
      <trkpt lat="48.21603" lon="6.71542">
        <ele>443</ele>
        <time>2017-07-19T13:32:39Z</time>
      </trkpt>
      <trkpt lat="48.216" lon="6.71539">
        <ele>443.20001220703</ele>
        <time>2017-07-19T13:32:40Z</time>
      </trkpt>
      <trkpt lat="48.21581" lon="6.71514">
        <ele>443.79998779297</ele>
        <time>2017-07-19T13:32:47Z</time>
      </trkpt>
      <trkpt lat="48.21561" lon="6.71486">
        <ele>444</ele>
        <time>2017-07-19T13:32:55Z</time>
      </trkpt>
      <trkpt lat="48.21558" lon="6.71482">
        <ele>444.20001220703</ele>
        <time>2017-07-19T13:32:56Z</time>
      </trkpt>
      <trkpt lat="48.21544" lon="6.7146">
        <ele>444.79998779297</ele>
        <time>2017-07-19T13:33:02Z</time>
      </trkpt>
      <trkpt lat="48.21537" lon="6.71448">
        <ele>445.20001220703</ele>
        <time>2017-07-19T13:33:05Z</time>
      </trkpt>
      <trkpt lat="48.21526" lon="6.71428">
        <ele>445.79998779297</ele>
        <time>2017-07-19T13:33:10Z</time>
      </trkpt>
      <trkpt lat="48.2151" lon="6.71407">
        <ele>446.20001220703</ele>
        <time>2017-07-19T13:33:16Z</time>
      </trkpt>
      <trkpt lat="48.21507" lon="6.71403">
        <ele>446.39999389648</ele>
        <time>2017-07-19T13:33:17Z</time>
      </trkpt>
      <trkpt lat="48.21484" lon="6.71387">
        <ele>447.20001220703</ele>
        <time>2017-07-19T13:33:24Z</time>
      </trkpt>
      <trkpt lat="48.2148" lon="6.71385">
        <ele>447.39999389648</ele>
        <time>2017-07-19T13:33:25Z</time>
      </trkpt>
      <trkpt lat="48.21456" lon="6.71371">
        <ele>448.20001220703</ele>
        <time>2017-07-19T13:33:33Z</time>
      </trkpt>
      <trkpt lat="48.21453" lon="6.71369">
        <ele>448.39999389648</ele>
        <time>2017-07-19T13:33:34Z</time>
      </trkpt>
      <trkpt lat="48.21436" lon="6.71358">
        <ele>449</ele>
        <time>2017-07-19T13:33:40Z</time>
      </trkpt>
      <trkpt lat="48.21428" lon="6.71353">
        <ele>449.39999389648</ele>
        <time>2017-07-19T13:33:43Z</time>
      </trkpt>
      <trkpt lat="48.21415" lon="6.71345">
        <ele>450</ele>
        <time>2017-07-19T13:33:47Z</time>
      </trkpt>
      <trkpt lat="48.21409" lon="6.71341">
        <ele>450.60000610352</ele>
        <time>2017-07-19T13:33:49Z</time>
      </trkpt>
      <trkpt lat="48.21393" lon="6.71331">
        <ele>451.20001220703</ele>
        <time>2017-07-19T13:33:54Z</time>
      </trkpt>
      <trkpt lat="48.21387" lon="6.71328">
        <ele>451.60000610352</ele>
        <time>2017-07-19T13:33:56Z</time>
      </trkpt>
      <trkpt lat="48.21364" lon="6.7132">
        <ele>452.79998779297</ele>
        <time>2017-07-19T13:34:03Z</time>
      </trkpt>
      <trkpt lat="48.21342" lon="6.71319">
        <ele>453.79998779297</ele>
        <time>2017-07-19T13:34:10Z</time>
      </trkpt>
      <trkpt lat="48.21325" lon="6.71318">
        <ele>454.79998779297</ele>
        <time>2017-07-19T13:34:16Z</time>
      </trkpt>
      <trkpt lat="48.21322" lon="6.71318">
        <ele>454.79998779297</ele>
        <time>2017-07-19T13:34:17Z</time>
      </trkpt>
      <trkpt lat="48.21301" lon="6.71318">
        <ele>455.79998779297</ele>
        <time>2017-07-19T13:34:24Z</time>
      </trkpt>
      <trkpt lat="48.21298" lon="6.71319">
        <ele>456</ele>
        <time>2017-07-19T13:34:25Z</time>
      </trkpt>
      <trkpt lat="48.21281" lon="6.71321">
        <ele>456.79998779297</ele>
        <time>2017-07-19T13:34:31Z</time>
      </trkpt>
      <trkpt lat="48.21276" lon="6.71321">
        <ele>457</ele>
        <time>2017-07-19T13:34:33Z</time>
      </trkpt>
      <trkpt lat="48.21263" lon="6.71323">
        <ele>457.79998779297</ele>
        <time>2017-07-19T13:34:38Z</time>
      </trkpt>
      <trkpt lat="48.21259" lon="6.71326">
        <ele>458</ele>
        <time>2017-07-19T13:34:40Z</time>
      </trkpt>
      <trkpt lat="48.21248" lon="6.71332">
        <ele>458.39999389648</ele>
        <time>2017-07-19T13:34:44Z</time>
      </trkpt>
      <trkpt lat="48.21239" lon="6.71344">
        <ele>459</ele>
        <time>2017-07-19T13:34:49Z</time>
      </trkpt>
      <trkpt lat="48.21235" lon="6.7135">
        <ele>459.39999389648</ele>
        <time>2017-07-19T13:34:51Z</time>
      </trkpt>
      <trkpt lat="48.21224" lon="6.71373">
        <ele>460.20001220703</ele>
        <time>2017-07-19T13:34:58Z</time>
      </trkpt>
      <trkpt lat="48.21217" lon="6.71389">
        <ele>461.20001220703</ele>
        <time>2017-07-19T13:35:03Z</time>
      </trkpt>
      <trkpt lat="48.21213" lon="6.71395">
        <ele>461.60000610352</ele>
        <time>2017-07-19T13:35:05Z</time>
      </trkpt>
      <trkpt lat="48.21206" lon="6.7141">
        <ele>462.20001220703</ele>
        <time>2017-07-19T13:35:09Z</time>
      </trkpt>
      <trkpt lat="48.212" lon="6.71421">
        <ele>462.60000610352</ele>
        <time>2017-07-19T13:35:12Z</time>
      </trkpt>
      <trkpt lat="48.21188" lon="6.71444">
        <ele>463.20001220703</ele>
        <time>2017-07-19T13:35:18Z</time>
      </trkpt>
      <trkpt lat="48.21181" lon="6.71457">
        <ele>463.20001220703</ele>
        <time>2017-07-19T13:35:21Z</time>
      </trkpt>
      <trkpt lat="48.2116" lon="6.71497">
        <ele>463.20001220703</ele>
        <time>2017-07-19T13:35:30Z</time>
      </trkpt>
      <trkpt lat="48.2114" lon="6.71535">
        <ele>463.20001220703</ele>
        <time>2017-07-19T13:35:38Z</time>
      </trkpt>
      <trkpt lat="48.21129" lon="6.71569">
        <ele>463.20001220703</ele>
        <time>2017-07-19T13:35:44Z</time>
      </trkpt>
      <trkpt lat="48.21118" lon="6.71617">
        <ele>464</ele>
        <time>2017-07-19T13:35:52Z</time>
      </trkpt>
      <trkpt lat="48.21115" lon="6.71629">
        <ele>464.20001220703</ele>
        <time>2017-07-19T13:35:54Z</time>
      </trkpt>
      <trkpt lat="48.21114" lon="6.7164">
        <ele>464.20001220703</ele>
        <time>2017-07-19T13:35:56Z</time>
      </trkpt>
      <trkpt lat="48.21113" lon="6.71646">
        <ele>464.39999389648</ele>
        <time>2017-07-19T13:35:57Z</time>
      </trkpt>
      <trkpt lat="48.21113" lon="6.71653">
        <ele>464.39999389648</ele>
        <time>2017-07-19T13:35:58Z</time>
      </trkpt>
      <trkpt lat="48.2111" lon="6.71702">
        <ele>464.79998779297</ele>
        <time>2017-07-19T13:36:06Z</time>
      </trkpt>
      <trkpt lat="48.21108" lon="6.71739">
        <ele>465.60000610352</ele>
        <time>2017-07-19T13:36:12Z</time>
      </trkpt>
      <trkpt lat="48.21106" lon="6.71758">
        <ele>465.79998779297</ele>
        <time>2017-07-19T13:36:15Z</time>
      </trkpt>
      <trkpt lat="48.21103" lon="6.71805">
        <ele>466.39999389648</ele>
        <time>2017-07-19T13:36:23Z</time>
      </trkpt>
      <trkpt lat="48.21103" lon="6.71811">
        <ele>466.60000610352</ele>
        <time>2017-07-19T13:36:24Z</time>
      </trkpt>
      <trkpt lat="48.21099" lon="6.71854">
        <ele>467</ele>
        <time>2017-07-19T13:36:31Z</time>
      </trkpt>
      <trkpt lat="48.21091" lon="6.71902">
        <ele>467.39999389648</ele>
        <time>2017-07-19T13:36:38Z</time>
      </trkpt>
      <trkpt lat="48.2108" lon="6.71954">
        <ele>467.39999389648</ele>
        <time>2017-07-19T13:36:46Z</time>
      </trkpt>
      <trkpt lat="48.21068" lon="6.71968">
        <ele>467.60000610352</ele>
        <time>2017-07-19T13:36:50Z</time>
      </trkpt>
      <trkpt lat="48.21044" lon="6.71992">
        <ele>467.20001220703</ele>
        <time>2017-07-19T13:36:57Z</time>
      </trkpt>
      <trkpt lat="48.21018" lon="6.72026">
        <ele>467</ele>
        <time>2017-07-19T13:37:03Z</time>
      </trkpt>
      <trkpt lat="48.20995" lon="6.72058">
        <ele>467</ele>
        <time>2017-07-19T13:37:09Z</time>
      </trkpt>
      <trkpt lat="48.20992" lon="6.72064">
        <ele>467</ele>
        <time>2017-07-19T13:37:12Z</time>
      </trkpt>
      <trkpt lat="48.20991" lon="6.72064">
        <ele>467.20001220703</ele>
        <time>2017-07-19T13:37:13Z</time>
      </trkpt>
      <trkpt lat="48.20985" lon="6.72072">
        <ele>467.39999389648</ele>
        <time>2017-07-19T13:37:18Z</time>
      </trkpt>
      <trkpt lat="48.20975" lon="6.72089">
        <ele>467.60000610352</ele>
        <time>2017-07-19T13:37:23Z</time>
      </trkpt>
      <trkpt lat="48.20972" lon="6.72093">
        <ele>467.79998779297</ele>
        <time>2017-07-19T13:37:24Z</time>
      </trkpt>
      <trkpt lat="48.20954" lon="6.72124">
        <ele>468.60000610352</ele>
        <time>2017-07-19T13:37:31Z</time>
      </trkpt>
      <trkpt lat="48.20952" lon="6.72127">
        <ele>468.79998779297</ele>
        <time>2017-07-19T13:37:32Z</time>
      </trkpt>
      <trkpt lat="48.20935" lon="6.72151">
        <ele>469.39999389648</ele>
        <time>2017-07-19T13:37:39Z</time>
      </trkpt>
      <trkpt lat="48.20923" lon="6.72164">
        <ele>469.20001220703</ele>
        <time>2017-07-19T13:37:45Z</time>
      </trkpt>
      <trkpt lat="48.20905" lon="6.7218">
        <ele>469.39999389648</ele>
        <time>2017-07-19T13:37:51Z</time>
      </trkpt>
      <trkpt lat="48.20887" lon="6.72192">
        <ele>469.60000610352</ele>
        <time>2017-07-19T13:37:57Z</time>
      </trkpt>
      <trkpt lat="48.20879" lon="6.72195">
        <ele>469.20001220703</ele>
        <time>2017-07-19T13:38:19Z</time>
      </trkpt>
      <trkpt lat="48.20864" lon="6.722">
        <ele>469.39999389648</ele>
        <time>2017-07-19T13:38:24Z</time>
      </trkpt>
      <trkpt lat="48.20834" lon="6.72211">
        <ele>469.20001220703</ele>
        <time>2017-07-19T13:38:31Z</time>
      </trkpt>
      <trkpt lat="48.208" lon="6.72216">
        <ele>469</ele>
        <time>2017-07-19T13:38:38Z</time>
      </trkpt>
      <trkpt lat="48.20762" lon="6.72211">
        <ele>468.20001220703</ele>
        <time>2017-07-19T13:38:45Z</time>
      </trkpt>
      <trkpt lat="48.20724" lon="6.72202">
        <ele>467.79998779297</ele>
        <time>2017-07-19T13:38:52Z</time>
      </trkpt>
      <trkpt lat="48.20713" lon="6.722">
        <ele>467.60000610352</ele>
        <time>2017-07-19T13:38:54Z</time>
      </trkpt>
      <trkpt lat="48.20679" lon="6.72188">
        <ele>467</ele>
        <time>2017-07-19T13:39:00Z</time>
      </trkpt>
      <trkpt lat="48.20666" lon="6.72185">
        <ele>466.60000610352</ele>
        <time>2017-07-19T13:39:02Z</time>
      </trkpt>
      <trkpt lat="48.20626" lon="6.72173">
        <ele>466</ele>
        <time>2017-07-19T13:39:08Z</time>
      </trkpt>
      <trkpt lat="48.20612" lon="6.72172">
        <ele>465.39999389648</ele>
        <time>2017-07-19T13:39:10Z</time>
      </trkpt>
      <trkpt lat="48.20597" lon="6.72176">
        <ele>465</ele>
        <time>2017-07-19T13:39:12Z</time>
      </trkpt>
      <trkpt lat="48.20581" lon="6.72183">
        <ele>464.20001220703</ele>
        <time>2017-07-19T13:39:14Z</time>
      </trkpt>
      <trkpt lat="48.20557" lon="6.72197">
        <ele>463.20001220703</ele>
        <time>2017-07-19T13:39:17Z</time>
      </trkpt>
      <trkpt lat="48.20549" lon="6.72202">
        <ele>462.60000610352</ele>
        <time>2017-07-19T13:39:18Z</time>
      </trkpt>
      <trkpt lat="48.20533" lon="6.72212">
        <ele>461.60000610352</ele>
        <time>2017-07-19T13:39:20Z</time>
      </trkpt>
      <trkpt lat="48.2051" lon="6.72225">
        <ele>460.60000610352</ele>
        <time>2017-07-19T13:39:23Z</time>
      </trkpt>
      <trkpt lat="48.20487" lon="6.72238">
        <ele>459.39999389648</ele>
        <time>2017-07-19T13:39:26Z</time>
      </trkpt>
      <trkpt lat="48.2048" lon="6.72242">
        <ele>459.20001220703</ele>
        <time>2017-07-19T13:39:27Z</time>
      </trkpt>
      <trkpt lat="48.20457" lon="6.72248">
        <ele>458.20001220703</ele>
        <time>2017-07-19T13:39:30Z</time>
      </trkpt>
      <trkpt lat="48.20449" lon="6.72249">
        <ele>458</ele>
        <time>2017-07-19T13:39:31Z</time>
      </trkpt>
      <trkpt lat="48.20442" lon="6.72249">
        <ele>457.79998779297</ele>
        <time>2017-07-19T13:39:32Z</time>
      </trkpt>
      <trkpt lat="48.20435" lon="6.72246">
        <ele>457.60000610352</ele>
        <time>2017-07-19T13:39:33Z</time>
      </trkpt>
      <trkpt lat="48.20421" lon="6.72244">
        <ele>457.20001220703</ele>
        <time>2017-07-19T13:39:35Z</time>
      </trkpt>
      <trkpt lat="48.20407" lon="6.72242">
        <ele>457</ele>
        <time>2017-07-19T13:39:37Z</time>
      </trkpt>
      <trkpt lat="48.20388" lon="6.72241">
        <ele>456.60000610352</ele>
        <time>2017-07-19T13:39:40Z</time>
      </trkpt>
      <trkpt lat="48.20377" lon="6.72245">
        <ele>456.39999389648</ele>
        <time>2017-07-19T13:39:42Z</time>
      </trkpt>
      <trkpt lat="48.20366" lon="6.72251">
        <ele>456.20001220703</ele>
        <time>2017-07-19T13:39:44Z</time>
      </trkpt>
      <trkpt lat="48.2036" lon="6.72255">
        <ele>456.20001220703</ele>
        <time>2017-07-19T13:39:45Z</time>
      </trkpt>
      <trkpt lat="48.20337" lon="6.72268">
        <ele>455.20001220703</ele>
        <time>2017-07-19T13:39:49Z</time>
      </trkpt>
      <trkpt lat="48.20332" lon="6.7227">
        <ele>455.20001220703</ele>
        <time>2017-07-19T13:39:50Z</time>
      </trkpt>
      <trkpt lat="48.20317" lon="6.72281">
        <ele>454.60000610352</ele>
        <time>2017-07-19T13:39:53Z</time>
      </trkpt>
      <trkpt lat="48.20314" lon="6.72289">
        <ele>454.39999389648</ele>
        <time>2017-07-19T13:39:54Z</time>
      </trkpt>
      <trkpt lat="48.20315" lon="6.72302">
        <ele>454</ele>
        <time>2017-07-19T13:39:56Z</time>
      </trkpt>
      <trkpt lat="48.20312" lon="6.72328">
        <ele>454</ele>
        <time>2017-07-19T13:40:01Z</time>
      </trkpt>
      <trkpt lat="48.20316" lon="6.72348">
        <ele>455.20001220703</ele>
        <time>2017-07-19T13:40:05Z</time>
      </trkpt>
      <trkpt lat="48.20317" lon="6.72352">
        <ele>455.39999389648</ele>
        <time>2017-07-19T13:40:06Z</time>
      </trkpt>
      <trkpt lat="48.20324" lon="6.72355">
        <ele>455.79998779297</ele>
        <time>2017-07-19T13:40:08Z</time>
      </trkpt>
      <trkpt lat="48.20326" lon="6.72355">
        <ele>456</ele>
        <time>2017-07-19T13:40:09Z</time>
      </trkpt>
      <trkpt lat="48.2033" lon="6.72356">
        <ele>456.39999389648</ele>
        <time>2017-07-19T13:40:10Z</time>
      </trkpt>
      <trkpt lat="48.20338" lon="6.72355">
        <ele>457.39999389648</ele>
        <time>2017-07-19T13:40:13Z</time>
      </trkpt>
      <trkpt lat="48.20342" lon="6.72352">
        <ele>457.60000610352</ele>
        <time>2017-07-19T13:40:15Z</time>
      </trkpt>
      <trkpt lat="48.20346" lon="6.72352">
        <ele>457.79998779297</ele>
        <time>2017-07-19T13:40:17Z</time>
      </trkpt>
      <trkpt lat="48.20349" lon="6.72353">
        <ele>457.79998779297</ele>
        <time>2017-07-19T13:40:20Z</time>
      </trkpt>
      <trkpt lat="48.20352" lon="6.72353">
        <ele>457.79998779297</ele>
        <time>2017-07-19T13:40:22Z</time>
      </trkpt>
      <trkpt lat="48.20356" lon="6.72353">
        <ele>457.79998779297</ele>
        <time>2017-07-19T13:40:25Z</time>
      </trkpt>
      <trkpt lat="48.20362" lon="6.72352">
        <ele>460.60000610352</ele>
        <time>2017-07-19T14:03:28Z</time>
      </trkpt>
      <trkpt lat="48.20359" lon="6.72351">
        <ele>460.60000610352</ele>
        <time>2017-07-19T14:04:05Z</time>
      </trkpt>
      <trkpt lat="48.20355" lon="6.72352">
        <ele>460.79998779297</ele>
        <time>2017-07-19T14:04:07Z</time>
      </trkpt>
      <trkpt lat="48.2034" lon="6.72354">
        <ele>460.60000610352</ele>
        <time>2017-07-19T14:04:12Z</time>
      </trkpt>
      <trkpt lat="48.20321" lon="6.72352">
        <ele>460.39999389648</ele>
        <time>2017-07-19T14:04:18Z</time>
      </trkpt>
      <trkpt lat="48.20317" lon="6.72343">
        <ele>460.20001220703</ele>
        <time>2017-07-19T14:04:20Z</time>
      </trkpt>
      <trkpt lat="48.20315" lon="6.72336">
        <ele>460.20001220703</ele>
        <time>2017-07-19T14:04:21Z</time>
      </trkpt>
      <trkpt lat="48.20316" lon="6.72306">
        <ele>459.39999389648</ele>
        <time>2017-07-19T14:04:25Z</time>
      </trkpt>
      <trkpt lat="48.20321" lon="6.72293">
        <ele>458.20001220703</ele>
        <time>2017-07-19T14:04:28Z</time>
      </trkpt>
      <trkpt lat="48.20322" lon="6.72282">
        <ele>457.39999389648</ele>
        <time>2017-07-19T14:04:31Z</time>
      </trkpt>
      <trkpt lat="48.20321" lon="6.72278">
        <ele>457</ele>
        <time>2017-07-19T14:04:32Z</time>
      </trkpt>
      <trkpt lat="48.20314" lon="6.72275">
        <ele>456.60000610352</ele>
        <time>2017-07-19T14:04:34Z</time>
      </trkpt>
      <trkpt lat="48.20303" lon="6.72279">
        <ele>456.20001220703</ele>
        <time>2017-07-19T14:04:37Z</time>
      </trkpt>
      <trkpt lat="48.20298" lon="6.72281">
        <ele>456</ele>
        <time>2017-07-19T14:04:38Z</time>
      </trkpt>
      <trkpt lat="48.20294" lon="6.72283">
        <ele>456</ele>
        <time>2017-07-19T14:04:39Z</time>
      </trkpt>
      <trkpt lat="48.20265" lon="6.72293">
        <ele>455</ele>
        <time>2017-07-19T14:04:45Z</time>
      </trkpt>
      <trkpt lat="48.20257" lon="6.72297">
        <ele>455</ele>
        <time>2017-07-19T14:04:47Z</time>
      </trkpt>
      <trkpt lat="48.20242" lon="6.72307">
        <ele>454.79998779297</ele>
        <time>2017-07-19T14:04:51Z</time>
      </trkpt>
      <trkpt lat="48.20222" lon="6.72325">
        <ele>454.79998779297</ele>
        <time>2017-07-19T14:04:56Z</time>
      </trkpt>
      <trkpt lat="48.20214" lon="6.72335">
        <ele>454.79998779297</ele>
        <time>2017-07-19T14:04:58Z</time>
      </trkpt>
      <trkpt lat="48.20187" lon="6.72366">
        <ele>454</ele>
        <time>2017-07-19T14:05:03Z</time>
      </trkpt>
      <trkpt lat="48.20181" lon="6.72373">
        <ele>453.79998779297</ele>
        <time>2017-07-19T14:05:04Z</time>
      </trkpt>
      <trkpt lat="48.20156" lon="6.72401">
        <ele>452.60000610352</ele>
        <time>2017-07-19T14:05:08Z</time>
      </trkpt>
      <trkpt lat="48.20143" lon="6.72416">
        <ele>452</ele>
        <time>2017-07-19T14:05:10Z</time>
      </trkpt>
      <trkpt lat="48.20137" lon="6.72424">
        <ele>451.60000610352</ele>
        <time>2017-07-19T14:05:11Z</time>
      </trkpt>
      <trkpt lat="48.20117" lon="6.72447">
        <ele>449.79998779297</ele>
        <time>2017-07-19T14:05:14Z</time>
      </trkpt>
      <trkpt lat="48.20097" lon="6.7247">
        <ele>448.60000610352</ele>
        <time>2017-07-19T14:05:17Z</time>
      </trkpt>
      <trkpt lat="48.20083" lon="6.72485">
        <ele>448</ele>
        <time>2017-07-19T14:05:19Z</time>
      </trkpt>
      <trkpt lat="48.2007" lon="6.72498">
        <ele>447.60000610352</ele>
        <time>2017-07-19T14:05:21Z</time>
      </trkpt>
      <trkpt lat="48.20037" lon="6.72532">
        <ele>446.39999389648</ele>
        <time>2017-07-19T14:05:26Z</time>
      </trkpt>
      <trkpt lat="48.2003" lon="6.72539">
        <ele>446.20001220703</ele>
        <time>2017-07-19T14:05:27Z</time>
      </trkpt>
      <trkpt lat="48.20012" lon="6.7256">
        <ele>445.20001220703</ele>
        <time>2017-07-19T14:05:30Z</time>
      </trkpt>
      <trkpt lat="48.19987" lon="6.72589">
        <ele>444.20001220703</ele>
        <time>2017-07-19T14:05:34Z</time>
      </trkpt>
      <trkpt lat="48.19964" lon="6.72618">
        <ele>443</ele>
        <time>2017-07-19T14:05:38Z</time>
      </trkpt>
      <trkpt lat="48.19954" lon="6.72632">
        <ele>442.79998779297</ele>
        <time>2017-07-19T14:05:40Z</time>
      </trkpt>
      <trkpt lat="48.19927" lon="6.7266">
        <ele>442.60000610352</ele>
        <time>2017-07-19T14:05:45Z</time>
      </trkpt>
      <trkpt lat="48.19921" lon="6.72663">
        <ele>442.39999389648</ele>
        <time>2017-07-19T14:05:46Z</time>
      </trkpt>
      <trkpt lat="48.19917" lon="6.72668">
        <ele>442.39999389648</ele>
        <time>2017-07-19T14:05:47Z</time>
      </trkpt>
      <trkpt lat="48.19911" lon="6.72683">
        <ele>442.20001220703</ele>
        <time>2017-07-19T14:05:49Z</time>
      </trkpt>
      <trkpt lat="48.19898" lon="6.72712">
        <ele>442</ele>
        <time>2017-07-19T14:05:53Z</time>
      </trkpt>
      <trkpt lat="48.19894" lon="6.72718">
        <ele>442</ele>
        <time>2017-07-19T14:05:54Z</time>
      </trkpt>
      <trkpt lat="48.19857" lon="6.72776">
        <ele>441.79998779297</ele>
        <time>2017-07-19T14:06:03Z</time>
      </trkpt>
      <trkpt lat="48.19844" lon="6.72805">
        <ele>442.20001220703</ele>
        <time>2017-07-19T14:06:08Z</time>
      </trkpt>
      <trkpt lat="48.19842" lon="6.7281">
        <ele>442.39999389648</ele>
        <time>2017-07-19T14:06:09Z</time>
      </trkpt>
      <trkpt lat="48.19835" lon="6.72827">
        <ele>443</ele>
        <time>2017-07-19T14:06:13Z</time>
      </trkpt>
      <trkpt lat="48.1983" lon="6.72839">
        <ele>443.60000610352</ele>
        <time>2017-07-19T14:06:16Z</time>
      </trkpt>
      <trkpt lat="48.19827" lon="6.72846">
        <ele>444.20001220703</ele>
        <time>2017-07-19T14:06:18Z</time>
      </trkpt>
      <trkpt lat="48.19818" lon="6.7287">
        <ele>445.20001220703</ele>
        <time>2017-07-19T14:06:24Z</time>
      </trkpt>
      <trkpt lat="48.19811" lon="6.72889">
        <ele>446.39999389648</ele>
        <time>2017-07-19T14:06:29Z</time>
      </trkpt>
      <trkpt lat="48.19808" lon="6.729">
        <ele>447.20001220703</ele>
        <time>2017-07-19T14:06:32Z</time>
      </trkpt>
      <trkpt lat="48.19805" lon="6.72907">
        <ele>447.60000610352</ele>
        <time>2017-07-19T14:06:34Z</time>
      </trkpt>
      <trkpt lat="48.198" lon="6.72921">
        <ele>448.39999389648</ele>
        <time>2017-07-19T14:06:38Z</time>
      </trkpt>
      <trkpt lat="48.19797" lon="6.72927">
        <ele>448.60000610352</ele>
        <time>2017-07-19T14:06:40Z</time>
      </trkpt>
      <trkpt lat="48.19792" lon="6.72945">
        <ele>449.39999389648</ele>
        <time>2017-07-19T14:06:45Z</time>
      </trkpt>
      <trkpt lat="48.19789" lon="6.72952">
        <ele>449.79998779297</ele>
        <time>2017-07-19T14:06:47Z</time>
      </trkpt>
      <trkpt lat="48.19783" lon="6.72977">
        <ele>450.79998779297</ele>
        <time>2017-07-19T14:06:54Z</time>
      </trkpt>
      <trkpt lat="48.19778" lon="6.72997">
        <ele>451.79998779297</ele>
        <time>2017-07-19T14:07:01Z</time>
      </trkpt>
      <trkpt lat="48.19778" lon="6.73">
        <ele>452.20001220703</ele>
        <time>2017-07-19T14:07:42Z</time>
      </trkpt>
      <trkpt lat="48.19778" lon="6.73005">
        <ele>452.20001220703</ele>
        <time>2017-07-19T14:07:44Z</time>
      </trkpt>
      <trkpt lat="48.19776" lon="6.73017">
        <ele>452.39999389648</ele>
        <time>2017-07-19T14:07:48Z</time>
      </trkpt>
      <trkpt lat="48.19775" lon="6.73025">
        <ele>452.39999389648</ele>
        <time>2017-07-19T14:07:50Z</time>
      </trkpt>
      <trkpt lat="48.19771" lon="6.73054">
        <ele>453</ele>
        <time>2017-07-19T14:07:56Z</time>
      </trkpt>
      <trkpt lat="48.19757" lon="6.73102">
        <ele>453.79998779297</ele>
        <time>2017-07-19T14:08:05Z</time>
      </trkpt>
      <trkpt lat="48.19755" lon="6.73107">
        <ele>454</ele>
        <time>2017-07-19T14:08:06Z</time>
      </trkpt>
      <trkpt lat="48.19743" lon="6.73139">
        <ele>454.39999389648</ele>
        <time>2017-07-19T14:08:12Z</time>
      </trkpt>
      <trkpt lat="48.19726" lon="6.73172">
        <ele>454.60000610352</ele>
        <time>2017-07-19T14:08:19Z</time>
      </trkpt>
      <trkpt lat="48.19714" lon="6.73196">
        <ele>455</ele>
        <time>2017-07-19T14:08:24Z</time>
      </trkpt>
      <trkpt lat="48.19708" lon="6.73209">
        <ele>455.20001220703</ele>
        <time>2017-07-19T14:08:27Z</time>
      </trkpt>
      <trkpt lat="48.19686" lon="6.73246">
        <ele>455.60000610352</ele>
        <time>2017-07-19T14:08:35Z</time>
      </trkpt>
      <trkpt lat="48.1966" lon="6.73284">
        <ele>455</ele>
        <time>2017-07-19T14:08:42Z</time>
      </trkpt>
      <trkpt lat="48.19628" lon="6.73325">
        <ele>454.79998779297</ele>
        <time>2017-07-19T14:08:49Z</time>
      </trkpt>
      <trkpt lat="48.19607" lon="6.73352">
        <ele>454</ele>
        <time>2017-07-19T14:08:53Z</time>
      </trkpt>
      <trkpt lat="48.19591" lon="6.73375">
        <ele>453.20001220703</ele>
        <time>2017-07-19T14:08:56Z</time>
      </trkpt>
      <trkpt lat="48.1958" lon="6.73389">
        <ele>452.79998779297</ele>
        <time>2017-07-19T14:08:58Z</time>
      </trkpt>
      <trkpt lat="48.19554" lon="6.73422">
        <ele>452.39999389648</ele>
        <time>2017-07-19T14:09:03Z</time>
      </trkpt>
      <trkpt lat="48.19522" lon="6.73457">
        <ele>452.79998779297</ele>
        <time>2017-07-19T14:09:10Z</time>
      </trkpt>
      <trkpt lat="48.19489" lon="6.73492">
        <ele>453</ele>
        <time>2017-07-19T14:09:18Z</time>
      </trkpt>
      <trkpt lat="48.19472" lon="6.73512">
        <ele>453.79998779297</ele>
        <time>2017-07-19T14:09:23Z</time>
      </trkpt>
      <trkpt lat="48.19465" lon="6.73519">
        <ele>454</ele>
        <time>2017-07-19T14:09:25Z</time>
      </trkpt>
      <trkpt lat="48.1945" lon="6.73536">
        <ele>455</ele>
        <time>2017-07-19T14:09:30Z</time>
      </trkpt>
      <trkpt lat="48.19445" lon="6.73543">
        <ele>455.60000610352</ele>
        <time>2017-07-19T14:09:32Z</time>
      </trkpt>
      <trkpt lat="48.19428" lon="6.73562">
        <ele>456.20001220703</ele>
        <time>2017-07-19T14:09:38Z</time>
      </trkpt>
      <trkpt lat="48.19418" lon="6.7357">
        <ele>456.20001220703</ele>
        <time>2017-07-19T14:09:41Z</time>
      </trkpt>
      <trkpt lat="48.19391" lon="6.73589">
        <ele>456.20001220703</ele>
        <time>2017-07-19T14:09:48Z</time>
      </trkpt>
      <trkpt lat="48.19351" lon="6.73617">
        <ele>456.60000610352</ele>
        <time>2017-07-19T14:09:58Z</time>
      </trkpt>
      <trkpt lat="48.19336" lon="6.73629">
        <ele>457.20001220703</ele>
        <time>2017-07-19T14:10:02Z</time>
      </trkpt>
      <trkpt lat="48.19313" lon="6.73645">
        <ele>457.79998779297</ele>
        <time>2017-07-19T14:10:08Z</time>
      </trkpt>
      <trkpt lat="48.19289" lon="6.73662">
        <ele>458.20001220703</ele>
        <time>2017-07-19T14:10:15Z</time>
      </trkpt>
      <trkpt lat="48.1926" lon="6.73685">
        <ele>459.20001220703</ele>
        <time>2017-07-19T14:10:24Z</time>
      </trkpt>
      <trkpt lat="48.19257" lon="6.73687">
        <ele>459.39999389648</ele>
        <time>2017-07-19T14:10:25Z</time>
      </trkpt>
      <trkpt lat="48.19237" lon="6.73707">
        <ele>460.39999389648</ele>
        <time>2017-07-19T14:10:32Z</time>
      </trkpt>
      <trkpt lat="48.19234" lon="6.7371">
        <ele>460.60000610352</ele>
        <time>2017-07-19T14:10:33Z</time>
      </trkpt>
      <trkpt lat="48.19216" lon="6.73731">
        <ele>461.39999389648</ele>
        <time>2017-07-19T14:10:40Z</time>
      </trkpt>
      <trkpt lat="48.19202" lon="6.73751">
        <ele>462.39999389648</ele>
        <time>2017-07-19T14:10:46Z</time>
      </trkpt>
      <trkpt lat="48.19197" lon="6.73759">
        <ele>462.79998779297</ele>
        <time>2017-07-19T14:10:48Z</time>
      </trkpt>
      <trkpt lat="48.19182" lon="6.73793">
        <ele>462.79998779297</ele>
        <time>2017-07-19T14:10:55Z</time>
      </trkpt>
      <trkpt lat="48.19167" lon="6.73834">
        <ele>462.60000610352</ele>
        <time>2017-07-19T14:11:03Z</time>
      </trkpt>
      <trkpt lat="48.19155" lon="6.73872">
        <ele>462.39999389648</ele>
        <time>2017-07-19T14:11:11Z</time>
      </trkpt>
      <trkpt lat="48.19146" lon="6.73912">
        <ele>462</ele>
        <time>2017-07-19T14:11:18Z</time>
      </trkpt>
      <trkpt lat="48.19138" lon="6.73943">
        <ele>461.79998779297</ele>
        <time>2017-07-19T14:11:23Z</time>
      </trkpt>
      <trkpt lat="48.19133" lon="6.73954">
        <ele>461.60000610352</ele>
        <time>2017-07-19T14:11:25Z</time>
      </trkpt>
      <trkpt lat="48.19116" lon="6.73981">
        <ele>461.60000610352</ele>
        <time>2017-07-19T14:11:31Z</time>
      </trkpt>
      <trkpt lat="48.19093" lon="6.73999">
        <ele>462</ele>
        <time>2017-07-19T14:11:38Z</time>
      </trkpt>
      <trkpt lat="48.19085" lon="6.74016">
        <ele>462.39999389648</ele>
        <time>2017-07-19T14:11:42Z</time>
      </trkpt>
      <trkpt lat="48.19088" lon="6.74038">
        <ele>462.79998779297</ele>
        <time>2017-07-19T14:11:47Z</time>
      </trkpt>
      <trkpt lat="48.19086" lon="6.7406">
        <ele>463.39999389648</ele>
        <time>2017-07-19T14:11:52Z</time>
      </trkpt>
      <trkpt lat="48.19086" lon="6.74064">
        <ele>463.60000610352</ele>
        <time>2017-07-19T14:11:53Z</time>
      </trkpt>
      <trkpt lat="48.19079" lon="6.74077">
        <ele>464.20001220703</ele>
        <time>2017-07-19T14:11:57Z</time>
      </trkpt>
      <trkpt lat="48.19077" lon="6.74079">
        <ele>464.79998779297</ele>
        <time>2017-07-19T14:11:58Z</time>
      </trkpt>
      <trkpt lat="48.19067" lon="6.7409">
        <ele>466</ele>
        <time>2017-07-19T14:12:03Z</time>
      </trkpt>
      <trkpt lat="48.19057" lon="6.741">
        <ele>466.79998779297</ele>
        <time>2017-07-19T14:12:08Z</time>
      </trkpt>
      <trkpt lat="48.19054" lon="6.74102">
        <ele>467</ele>
        <time>2017-07-19T14:12:09Z</time>
      </trkpt>
      <trkpt lat="48.19043" lon="6.74115">
        <ele>468.20001220703</ele>
        <time>2017-07-19T14:12:15Z</time>
      </trkpt>
      <trkpt lat="48.19029" lon="6.7413">
        <ele>469.20001220703</ele>
        <time>2017-07-19T14:12:22Z</time>
      </trkpt>
      <trkpt lat="48.19017" lon="6.74144">
        <ele>470.20001220703</ele>
        <time>2017-07-19T14:12:28Z</time>
      </trkpt>
      <trkpt lat="48.19013" lon="6.74149">
        <ele>470.60000610352</ele>
        <time>2017-07-19T14:12:30Z</time>
      </trkpt>
      <trkpt lat="48.19004" lon="6.74161">
        <ele>471.39999389648</ele>
        <time>2017-07-19T14:12:35Z</time>
      </trkpt>
      <trkpt lat="48.18993" lon="6.74177">
        <ele>472.20001220703</ele>
        <time>2017-07-19T14:12:41Z</time>
      </trkpt>
      <trkpt lat="48.18991" lon="6.7418">
        <ele>472.39999389648</ele>
        <time>2017-07-19T14:12:42Z</time>
      </trkpt>
      <trkpt lat="48.18983" lon="6.74192">
        <ele>473.39999389648</ele>
        <time>2017-07-19T14:12:47Z</time>
      </trkpt>
      <trkpt lat="48.18978" lon="6.74201">
        <ele>474</ele>
        <time>2017-07-19T14:12:50Z</time>
      </trkpt>
      <trkpt lat="48.18972" lon="6.74212">
        <ele>474.60000610352</ele>
        <time>2017-07-19T14:12:54Z</time>
      </trkpt>
      <trkpt lat="48.18967" lon="6.74221">
        <ele>475</ele>
        <time>2017-07-19T14:12:57Z</time>
      </trkpt>
      <trkpt lat="48.18959" lon="6.74235">
        <ele>475.60000610352</ele>
        <time>2017-07-19T14:13:02Z</time>
      </trkpt>
      <trkpt lat="48.18955" lon="6.74244">
        <ele>476</ele>
        <time>2017-07-19T14:13:05Z</time>
      </trkpt>
      <trkpt lat="48.1894" lon="6.7427">
        <ele>476.79998779297</ele>
        <time>2017-07-19T14:13:13Z</time>
      </trkpt>
      <trkpt lat="48.18925" lon="6.74297">
        <ele>477</ele>
        <time>2017-07-19T14:13:20Z</time>
      </trkpt>
      <trkpt lat="48.18905" lon="6.74337">
        <ele>477</ele>
        <time>2017-07-19T14:13:28Z</time>
      </trkpt>
      <trkpt lat="48.18902" lon="6.74344">
        <ele>477</ele>
        <time>2017-07-19T14:13:29Z</time>
      </trkpt>
      <trkpt lat="48.18894" lon="6.74375">
        <ele>476.60000610352</ele>
        <time>2017-07-19T14:13:33Z</time>
      </trkpt>
      <trkpt lat="48.18889" lon="6.74404">
        <ele>475.60000610352</ele>
        <time>2017-07-19T14:13:36Z</time>
      </trkpt>
      <trkpt lat="48.18887" lon="6.74427">
        <ele>475.20001220703</ele>
        <time>2017-07-19T14:13:38Z</time>
      </trkpt>
      <trkpt lat="48.18886" lon="6.74454">
        <ele>474.60000610352</ele>
        <time>2017-07-19T14:13:40Z</time>
      </trkpt>
      <trkpt lat="48.18885" lon="6.74483">
        <ele>473.79998779297</ele>
        <time>2017-07-19T14:13:42Z</time>
      </trkpt>
      <trkpt lat="48.18884" lon="6.74498">
        <ele>473.20001220703</ele>
        <time>2017-07-19T14:13:43Z</time>
      </trkpt>
      <trkpt lat="48.18882" lon="6.74527">
        <ele>472.20001220703</ele>
        <time>2017-07-19T14:13:45Z</time>
      </trkpt>
      <trkpt lat="48.18881" lon="6.74557">
        <ele>471</ele>
        <time>2017-07-19T14:13:47Z</time>
      </trkpt>
      <trkpt lat="48.1888" lon="6.74586">
        <ele>470</ele>
        <time>2017-07-19T14:13:49Z</time>
      </trkpt>
      <trkpt lat="48.1888" lon="6.746">
        <ele>469.60000610352</ele>
        <time>2017-07-19T14:13:50Z</time>
      </trkpt>
      <trkpt lat="48.18877" lon="6.74648">
        <ele>469</ele>
        <time>2017-07-19T14:13:54Z</time>
      </trkpt>
      <trkpt lat="48.18876" lon="6.74693">
        <ele>469.20001220703</ele>
        <time>2017-07-19T14:13:59Z</time>
      </trkpt>
      <trkpt lat="48.18875" lon="6.74728">
        <ele>470.20001220703</ele>
        <time>2017-07-19T14:14:04Z</time>
      </trkpt>
      <trkpt lat="48.18875" lon="6.74741">
        <ele>470.60000610352</ele>
        <time>2017-07-19T14:14:06Z</time>
      </trkpt>
      <trkpt lat="48.18874" lon="6.74774">
        <ele>471.39999389648</ele>
        <time>2017-07-19T14:14:11Z</time>
      </trkpt>
      <trkpt lat="48.18876" lon="6.74824">
        <ele>471.39999389648</ele>
        <time>2017-07-19T14:14:17Z</time>
      </trkpt>
      <trkpt lat="48.1888" lon="6.74892">
        <ele>470.39999389648</ele>
        <time>2017-07-19T14:14:24Z</time>
      </trkpt>
      <trkpt lat="48.18877" lon="6.74944">
        <ele>469.60000610352</ele>
        <time>2017-07-19T14:14:29Z</time>
      </trkpt>
      <trkpt lat="48.18874" lon="6.74954">
        <ele>469.39999389648</ele>
        <time>2017-07-19T14:14:30Z</time>
      </trkpt>
      <trkpt lat="48.18864" lon="6.74978">
        <ele>469.20001220703</ele>
        <time>2017-07-19T14:14:33Z</time>
      </trkpt>
      <trkpt lat="48.18861" lon="6.74985">
        <ele>469.20001220703</ele>
        <time>2017-07-19T14:14:34Z</time>
      </trkpt>
      <trkpt lat="48.18844" lon="6.75014">
        <ele>469.20001220703</ele>
        <time>2017-07-19T14:14:39Z</time>
      </trkpt>
      <trkpt lat="48.18825" lon="6.75058">
        <ele>470.20001220703</ele>
        <time>2017-07-19T14:14:46Z</time>
      </trkpt>
      <trkpt lat="48.18812" lon="6.75107">
        <ele>469.79998779297</ele>
        <time>2017-07-19T14:14:52Z</time>
      </trkpt>
      <trkpt lat="48.18799" lon="6.75166">
        <ele>469.39999389648</ele>
        <time>2017-07-19T14:15:00Z</time>
      </trkpt>
      <trkpt lat="48.18788" lon="6.75222">
        <ele>469.79998779297</ele>
        <time>2017-07-19T14:15:09Z</time>
      </trkpt>
      <trkpt lat="48.18784" lon="6.75241">
        <ele>470.60000610352</ele>
        <time>2017-07-19T14:15:12Z</time>
      </trkpt>
      <trkpt lat="48.18779" lon="6.75268">
        <ele>470.79998779297</ele>
        <time>2017-07-19T14:15:16Z</time>
      </trkpt>
      <trkpt lat="48.18768" lon="6.75327">
        <ele>471.60000610352</ele>
        <time>2017-07-19T14:15:25Z</time>
      </trkpt>
      <trkpt lat="48.18767" lon="6.75333">
        <ele>471.60000610352</ele>
        <time>2017-07-19T14:15:26Z</time>
      </trkpt>
      <trkpt lat="48.18761" lon="6.75362">
        <ele>472</ele>
        <time>2017-07-19T14:15:31Z</time>
      </trkpt>
      <trkpt lat="48.18761" lon="6.75368">
        <ele>472</ele>
        <time>2017-07-19T14:15:32Z</time>
      </trkpt>
      <trkpt lat="48.18759" lon="6.75407">
        <ele>471.60000610352</ele>
        <time>2017-07-19T14:15:37Z</time>
      </trkpt>
      <trkpt lat="48.1876" lon="6.75456">
        <ele>470.39999389648</ele>
        <time>2017-07-19T14:15:43Z</time>
      </trkpt>
      <trkpt lat="48.18761" lon="6.75464">
        <ele>470.20001220703</ele>
        <time>2017-07-19T14:15:44Z</time>
      </trkpt>
      <trkpt lat="48.1877" lon="6.75507">
        <ele>469.20001220703</ele>
        <time>2017-07-19T14:15:49Z</time>
      </trkpt>
      <trkpt lat="48.18772" lon="6.75517">
        <ele>469</ele>
        <time>2017-07-19T14:15:50Z</time>
      </trkpt>
      <trkpt lat="48.18783" lon="6.75556">
        <ele>468.20001220703</ele>
        <time>2017-07-19T14:15:54Z</time>
      </trkpt>
      <trkpt lat="48.1879" lon="6.75587">
        <ele>467.39999389648</ele>
        <time>2017-07-19T14:15:57Z</time>
      </trkpt>
      <trkpt lat="48.18793" lon="6.75608">
        <ele>466.79998779297</ele>
        <time>2017-07-19T14:15:59Z</time>
      </trkpt>
      <trkpt lat="48.18796" lon="6.75639">
        <ele>466.20001220703</ele>
        <time>2017-07-19T14:16:02Z</time>
      </trkpt>
      <trkpt lat="48.18796" lon="6.75658">
        <ele>465.60000610352</ele>
        <time>2017-07-19T14:16:04Z</time>
      </trkpt>
      <trkpt lat="48.18795" lon="6.75666">
        <ele>465.39999389648</ele>
        <time>2017-07-19T14:16:05Z</time>
      </trkpt>
      <trkpt lat="48.18794" lon="6.75679">
        <ele>465</ele>
        <time>2017-07-19T14:16:07Z</time>
      </trkpt>
      <trkpt lat="48.18793" lon="6.75687">
        <ele>464.60000610352</ele>
        <time>2017-07-19T14:16:10Z</time>
      </trkpt>
      <trkpt lat="48.18793" lon="6.75688">
        <ele>464.39999389648</ele>
        <time>2017-07-19T14:16:11Z</time>
      </trkpt>
      <trkpt lat="48.18793" lon="6.75688">
        <ele>464</ele>
        <time>2017-07-19T14:16:24Z</time>
      </trkpt>
      <trkpt lat="48.18791" lon="6.75686">
        <ele>464</ele>
        <time>2017-07-19T14:16:25Z</time>
      </trkpt>
      <trkpt lat="48.18781" lon="6.75689">
        <ele>464</ele>
        <time>2017-07-19T14:16:29Z</time>
      </trkpt>
      <trkpt lat="48.18765" lon="6.75692">
        <ele>463.60000610352</ele>
        <time>2017-07-19T14:16:36Z</time>
      </trkpt>
      <trkpt lat="48.18764" lon="6.75693">
        <ele>463.60000610352</ele>
        <time>2017-07-19T14:16:37Z</time>
      </trkpt>
      <trkpt lat="48.18765" lon="6.75696">
        <ele>463.60000610352</ele>
        <time>2017-07-19T14:16:39Z</time>
      </trkpt>
      <trkpt lat="48.18768" lon="6.75692">
        <ele>463.79998779297</ele>
        <time>2017-07-19T14:16:43Z</time>
      </trkpt>
      <trkpt lat="48.1877" lon="6.7569">
        <ele>463.60000610352</ele>
        <time>2017-07-19T14:16:56Z</time>
      </trkpt>
      <trkpt lat="48.18773" lon="6.75688">
        <ele>463.60000610352</ele>
        <time>2017-07-19T14:16:58Z</time>
      </trkpt>
      <trkpt lat="48.18786" lon="6.75684">
        <ele>463.79998779297</ele>
        <time>2017-07-19T14:17:03Z</time>
      </trkpt>
      <trkpt lat="48.18792" lon="6.75687">
        <ele>463.79998779297</ele>
        <time>2017-07-19T14:17:06Z</time>
      </trkpt>
      <trkpt lat="48.18793" lon="6.75694">
        <ele>463.79998779297</ele>
        <time>2017-07-19T14:17:08Z</time>
      </trkpt>
      <trkpt lat="48.1879" lon="6.75713">
        <ele>464.39999389648</ele>
        <time>2017-07-19T14:17:12Z</time>
      </trkpt>
      <trkpt lat="48.18783" lon="6.75757">
        <ele>465.20001220703</ele>
        <time>2017-07-19T14:17:20Z</time>
      </trkpt>
      <trkpt lat="48.18782" lon="6.75782">
        <ele>465.60000610352</ele>
        <time>2017-07-19T14:17:24Z</time>
      </trkpt>
      <trkpt lat="48.18781" lon="6.75794">
        <ele>466</ele>
        <time>2017-07-19T14:17:26Z</time>
      </trkpt>
      <trkpt lat="48.18781" lon="6.75818">
        <ele>466.79998779297</ele>
        <time>2017-07-19T14:17:30Z</time>
      </trkpt>
      <trkpt lat="48.1878" lon="6.75835">
        <ele>467</ele>
        <time>2017-07-19T14:17:33Z</time>
      </trkpt>
      <trkpt lat="48.1878" lon="6.75862">
        <ele>467.79998779297</ele>
        <time>2017-07-19T14:17:38Z</time>
      </trkpt>
      <trkpt lat="48.18779" lon="6.75884">
        <ele>468.39999389648</ele>
        <time>2017-07-19T14:17:42Z</time>
      </trkpt>
      <trkpt lat="48.18778" lon="6.75904">
        <ele>468.79998779297</ele>
        <time>2017-07-19T14:17:46Z</time>
      </trkpt>
      <trkpt lat="48.18778" lon="6.75924">
        <ele>469.60000610352</ele>
        <time>2017-07-19T14:17:50Z</time>
      </trkpt>
      <trkpt lat="48.18778" lon="6.75934">
        <ele>469.79998779297</ele>
        <time>2017-07-19T14:17:52Z</time>
      </trkpt>
      <trkpt lat="48.18778" lon="6.75964">
        <ele>470.60000610352</ele>
        <time>2017-07-19T14:17:58Z</time>
      </trkpt>
      <trkpt lat="48.18778" lon="6.75969">
        <ele>471</ele>
        <time>2017-07-19T14:17:59Z</time>
      </trkpt>
      <trkpt lat="48.18777" lon="6.76007">
        <ele>472</ele>
        <time>2017-07-19T14:18:06Z</time>
      </trkpt>
      <trkpt lat="48.18777" lon="6.76018">
        <ele>472.20001220703</ele>
        <time>2017-07-19T14:18:08Z</time>
      </trkpt>
      <trkpt lat="48.18781" lon="6.76053">
        <ele>472.60000610352</ele>
        <time>2017-07-19T14:18:14Z</time>
      </trkpt>
      <trkpt lat="48.18787" lon="6.76102">
        <ele>472.60000610352</ele>
        <time>2017-07-19T14:18:21Z</time>
      </trkpt>
      <trkpt lat="48.188" lon="6.7616">
        <ele>471.39999389648</ele>
        <time>2017-07-19T14:18:28Z</time>
      </trkpt>
      <trkpt lat="48.18807" lon="6.76188">
        <ele>471</ele>
        <time>2017-07-19T14:18:31Z</time>
      </trkpt>
      <trkpt lat="48.18819" lon="6.76237">
        <ele>470</ele>
        <time>2017-07-19T14:18:36Z</time>
      </trkpt>
      <trkpt lat="48.18821" lon="6.76247">
        <ele>469.79998779297</ele>
        <time>2017-07-19T14:18:37Z</time>
      </trkpt>
      <trkpt lat="48.18834" lon="6.76302">
        <ele>468.60000610352</ele>
        <time>2017-07-19T14:18:42Z</time>
      </trkpt>
      <trkpt lat="48.1884" lon="6.76326">
        <ele>468</ele>
        <time>2017-07-19T14:18:44Z</time>
      </trkpt>
      <trkpt lat="48.18851" lon="6.76366">
        <ele>466.60000610352</ele>
        <time>2017-07-19T14:18:47Z</time>
      </trkpt>
      <trkpt lat="48.18858" lon="6.76392">
        <ele>465.39999389648</ele>
        <time>2017-07-19T14:18:49Z</time>
      </trkpt>
      <trkpt lat="48.18861" lon="6.76405">
        <ele>465</ele>
        <time>2017-07-19T14:18:50Z</time>
      </trkpt>
      <trkpt lat="48.18874" lon="6.76462">
        <ele>464.79998779297</ele>
        <time>2017-07-19T14:18:55Z</time>
      </trkpt>
      <trkpt lat="48.18891" lon="6.76529">
        <ele>466</ele>
        <time>2017-07-19T14:19:02Z</time>
      </trkpt>
      <trkpt lat="48.189" lon="6.76563">
        <ele>466.60000610352</ele>
        <time>2017-07-19T14:19:06Z</time>
      </trkpt>
      <trkpt lat="48.18903" lon="6.76579">
        <ele>466.79998779297</ele>
        <time>2017-07-19T14:19:08Z</time>
      </trkpt>
      <trkpt lat="48.18905" lon="6.76587">
        <ele>467</ele>
        <time>2017-07-19T14:19:09Z</time>
      </trkpt>
      <trkpt lat="48.18908" lon="6.76603">
        <ele>467.79998779297</ele>
        <time>2017-07-19T14:19:11Z</time>
      </trkpt>
      <trkpt lat="48.18914" lon="6.76642">
        <ele>468.39999389648</ele>
        <time>2017-07-19T14:19:16Z</time>
      </trkpt>
      <trkpt lat="48.18916" lon="6.76664">
        <ele>468.79998779297</ele>
        <time>2017-07-19T14:19:19Z</time>
      </trkpt>
      <trkpt lat="48.18919" lon="6.76701">
        <ele>469.39999389648</ele>
        <time>2017-07-19T14:19:24Z</time>
      </trkpt>
      <trkpt lat="48.1892" lon="6.76755">
        <ele>469.79998779297</ele>
        <time>2017-07-19T14:19:31Z</time>
      </trkpt>
      <trkpt lat="48.1892" lon="6.76772">
        <ele>470</ele>
        <time>2017-07-19T14:19:33Z</time>
      </trkpt>
      <trkpt lat="48.18922" lon="6.76854">
        <ele>469.20001220703</ele>
        <time>2017-07-19T14:19:42Z</time>
      </trkpt>
      <trkpt lat="48.18923" lon="6.76884">
        <ele>468.60000610352</ele>
        <time>2017-07-19T14:19:45Z</time>
      </trkpt>
      <trkpt lat="48.18923" lon="6.76938">
        <ele>467.60000610352</ele>
        <time>2017-07-19T14:19:50Z</time>
      </trkpt>
      <trkpt lat="48.18923" lon="6.76949">
        <ele>467.39999389648</ele>
        <time>2017-07-19T14:19:51Z</time>
      </trkpt>
      <trkpt lat="48.18924" lon="6.76995">
        <ele>466.39999389648</ele>
        <time>2017-07-19T14:19:55Z</time>
      </trkpt>
      <trkpt lat="48.18926" lon="6.77034">
        <ele>465.39999389648</ele>
        <time>2017-07-19T14:19:58Z</time>
      </trkpt>
      <trkpt lat="48.18926" lon="6.77062">
        <ele>464</ele>
        <time>2017-07-19T14:20:00Z</time>
      </trkpt>
      <trkpt lat="48.18931" lon="6.77107">
        <ele>463</ele>
        <time>2017-07-19T14:20:03Z</time>
      </trkpt>
      <trkpt lat="48.18937" lon="6.77153">
        <ele>461.39999389648</ele>
        <time>2017-07-19T14:20:06Z</time>
      </trkpt>
      <trkpt lat="48.18942" lon="6.77183">
        <ele>460</ele>
        <time>2017-07-19T14:20:08Z</time>
      </trkpt>
      <trkpt lat="48.18944" lon="6.77199">
        <ele>459.20001220703</ele>
        <time>2017-07-19T14:20:09Z</time>
      </trkpt>
      <trkpt lat="48.18946" lon="6.77216">
        <ele>458.60000610352</ele>
        <time>2017-07-19T14:20:10Z</time>
      </trkpt>
      <trkpt lat="48.1895" lon="6.77249">
        <ele>457.20001220703</ele>
        <time>2017-07-19T14:20:12Z</time>
      </trkpt>
      <trkpt lat="48.18955" lon="6.77281">
        <ele>455.79998779297</ele>
        <time>2017-07-19T14:20:14Z</time>
      </trkpt>
      <trkpt lat="48.18957" lon="6.77297">
        <ele>455</ele>
        <time>2017-07-19T14:20:15Z</time>
      </trkpt>
      <trkpt lat="48.1896" lon="6.77312">
        <ele>454.39999389648</ele>
        <time>2017-07-19T14:20:16Z</time>
      </trkpt>
      <trkpt lat="48.18964" lon="6.77342">
        <ele>453.20001220703</ele>
        <time>2017-07-19T14:20:18Z</time>
      </trkpt>
      <trkpt lat="48.18967" lon="6.7737">
        <ele>452.20001220703</ele>
        <time>2017-07-19T14:20:20Z</time>
      </trkpt>
      <trkpt lat="48.18969" lon="6.77384">
        <ele>451.79998779297</ele>
        <time>2017-07-19T14:20:21Z</time>
      </trkpt>
      <trkpt lat="48.18973" lon="6.77411">
        <ele>450.79998779297</ele>
        <time>2017-07-19T14:20:23Z</time>
      </trkpt>
      <trkpt lat="48.18979" lon="6.77459">
        <ele>450.39999389648</ele>
        <time>2017-07-19T14:20:27Z</time>
      </trkpt>
      <trkpt lat="48.18983" lon="6.77492">
        <ele>450.20001220703</ele>
        <time>2017-07-19T14:20:31Z</time>
      </trkpt>
      <trkpt lat="48.18986" lon="6.77512">
        <ele>450</ele>
        <time>2017-07-19T14:20:35Z</time>
      </trkpt>
      <trkpt lat="48.18985" lon="6.77515">
        <ele>450</ele>
        <time>2017-07-19T14:20:36Z</time>
      </trkpt>
      <trkpt lat="48.18983" lon="6.7752">
        <ele>449.79998779297</ele>
        <time>2017-07-19T14:20:38Z</time>
      </trkpt>
      <trkpt lat="48.18981" lon="6.7752">
        <ele>449.60000610352</ele>
        <time>2017-07-19T14:20:39Z</time>
      </trkpt>
      <trkpt lat="48.18979" lon="6.77521">
        <ele>449.39999389648</ele>
        <time>2017-07-19T14:20:40Z</time>
      </trkpt>
      <trkpt lat="48.18986" lon="6.77628">
        <ele>460.60000610352</ele>
        <time>2017-07-20T05:38:19Z</time>
      </trkpt>
      <trkpt lat="48.1898" lon="6.77604">
        <ele>460.60000610352</ele>
        <time>2017-07-20T05:38:25Z</time>
      </trkpt>
      <trkpt lat="48.18971" lon="6.77578">
        <ele>460.60000610352</ele>
        <time>2017-07-20T05:38:32Z</time>
      </trkpt>
      <trkpt lat="48.18965" lon="6.77561">
        <ele>460.79998779297</ele>
        <time>2017-07-20T05:38:37Z</time>
      </trkpt>
      <trkpt lat="48.18963" lon="6.77538">
        <ele>461.39999389648</ele>
        <time>2017-07-20T05:38:43Z</time>
      </trkpt>
      <trkpt lat="48.18971" lon="6.77527">
        <ele>461.60000610352</ele>
        <time>2017-07-20T05:38:48Z</time>
      </trkpt>
      <trkpt lat="48.18983" lon="6.77516">
        <ele>462.20001220703</ele>
        <time>2017-07-20T05:38:55Z</time>
      </trkpt>
      <trkpt lat="48.18988" lon="6.77517">
        <ele>462.39999389648</ele>
        <time>2017-07-20T05:38:57Z</time>
      </trkpt>
      <trkpt lat="48.18993" lon="6.77521">
        <ele>462.39999389648</ele>
        <time>2017-07-20T05:38:59Z</time>
      </trkpt>
      <trkpt lat="48.18999" lon="6.77528">
        <ele>462.79998779297</ele>
        <time>2017-07-20T05:39:02Z</time>
      </trkpt>
      <trkpt lat="48.19004" lon="6.77538">
        <ele>463</ele>
        <time>2017-07-20T05:39:05Z</time>
      </trkpt>
      <trkpt lat="48.19023" lon="6.77578">
        <ele>463.20001220703</ele>
        <time>2017-07-20T05:39:14Z</time>
      </trkpt>
      <trkpt lat="48.19035" lon="6.77607">
        <ele>463.20001220703</ele>
        <time>2017-07-20T05:39:20Z</time>
      </trkpt>
      <trkpt lat="48.19054" lon="6.77649">
        <ele>463</ele>
        <time>2017-07-20T05:39:29Z</time>
      </trkpt>
      <trkpt lat="48.19069" lon="6.77681">
        <ele>462.79998779297</ele>
        <time>2017-07-20T05:39:37Z</time>
      </trkpt>
      <trkpt lat="48.19083" lon="6.77719">
        <ele>462.79998779297</ele>
        <time>2017-07-20T05:39:45Z</time>
      </trkpt>
      <trkpt lat="48.19083" lon="6.77753">
        <ele>463</ele>
        <time>2017-07-20T05:39:51Z</time>
      </trkpt>
      <trkpt lat="48.19082" lon="6.77759">
        <ele>463</ele>
        <time>2017-07-20T05:39:52Z</time>
      </trkpt>
      <trkpt lat="48.19073" lon="6.77786">
        <ele>463.20001220703</ele>
        <time>2017-07-20T05:39:57Z</time>
      </trkpt>
      <trkpt lat="48.1906" lon="6.77814">
        <ele>463.60000610352</ele>
        <time>2017-07-20T05:40:03Z</time>
      </trkpt>
      <trkpt lat="48.19048" lon="6.77836">
        <ele>463.79998779297</ele>
        <time>2017-07-20T05:40:08Z</time>
      </trkpt>
      <trkpt lat="48.19046" lon="6.7784">
        <ele>463.79998779297</ele>
        <time>2017-07-20T05:40:09Z</time>
      </trkpt>
      <trkpt lat="48.19032" lon="6.77871">
        <ele>464.39999389648</ele>
        <time>2017-07-20T05:40:15Z</time>
      </trkpt>
      <trkpt lat="48.19016" lon="6.77914">
        <ele>464</ele>
        <time>2017-07-20T05:40:21Z</time>
      </trkpt>
      <trkpt lat="48.19001" lon="6.77971">
        <ele>462.60000610352</ele>
        <time>2017-07-20T05:40:27Z</time>
      </trkpt>
      <trkpt lat="48.1899" lon="6.78013">
        <ele>461.39999389648</ele>
        <time>2017-07-20T05:40:31Z</time>
      </trkpt>
      <trkpt lat="48.1898" lon="6.78045">
        <ele>460.60000610352</ele>
        <time>2017-07-20T05:40:34Z</time>
      </trkpt>
      <trkpt lat="48.18976" lon="6.78054">
        <ele>460.20001220703</ele>
        <time>2017-07-20T05:40:35Z</time>
      </trkpt>
      <trkpt lat="48.18963" lon="6.78088">
        <ele>459.20001220703</ele>
        <time>2017-07-20T05:40:39Z</time>
      </trkpt>
      <trkpt lat="48.18946" lon="6.78134">
        <ele>459</ele>
        <time>2017-07-20T05:40:45Z</time>
      </trkpt>
      <trkpt lat="48.18927" lon="6.78185">
        <ele>459</ele>
        <time>2017-07-20T05:40:52Z</time>
      </trkpt>
      <trkpt lat="48.18924" lon="6.78193">
        <ele>458.79998779297</ele>
        <time>2017-07-20T05:40:53Z</time>
      </trkpt>
      <trkpt lat="48.18913" lon="6.7824">
        <ele>458</ele>
        <time>2017-07-20T05:40:58Z</time>
      </trkpt>
      <trkpt lat="48.18908" lon="6.7826">
        <ele>457.39999389648</ele>
        <time>2017-07-20T05:41:00Z</time>
      </trkpt>
      <trkpt lat="48.18902" lon="6.78288">
        <ele>457</ele>
        <time>2017-07-20T05:41:03Z</time>
      </trkpt>
      <trkpt lat="48.18893" lon="6.78323">
        <ele>456.79998779297</ele>
        <time>2017-07-20T05:41:07Z</time>
      </trkpt>
      <trkpt lat="48.18877" lon="6.7838">
        <ele>456.60000610352</ele>
        <time>2017-07-20T05:41:14Z</time>
      </trkpt>
      <trkpt lat="48.18863" lon="6.78434">
        <ele>457</ele>
        <time>2017-07-20T05:41:21Z</time>
      </trkpt>
      <trkpt lat="48.18855" lon="6.78495">
        <ele>457.79998779297</ele>
        <time>2017-07-20T05:41:29Z</time>
      </trkpt>
      <trkpt lat="48.18853" lon="6.78518">
        <ele>458</ele>
        <time>2017-07-20T05:41:32Z</time>
      </trkpt>
      <trkpt lat="48.18849" lon="6.78555">
        <ele>458</ele>
        <time>2017-07-20T05:41:37Z</time>
      </trkpt>
      <trkpt lat="48.18844" lon="6.78619">
        <ele>458.79998779297</ele>
        <time>2017-07-20T05:41:46Z</time>
      </trkpt>
      <trkpt lat="48.18845" lon="6.78646">
        <ele>459</ele>
        <time>2017-07-20T05:41:50Z</time>
      </trkpt>
      <trkpt lat="48.1885" lon="6.78667">
        <ele>459.39999389648</ele>
        <time>2017-07-20T05:41:53Z</time>
      </trkpt>
      <trkpt lat="48.18866" lon="6.78718">
        <ele>459.60000610352</ele>
        <time>2017-07-20T05:42:01Z</time>
      </trkpt>
      <trkpt lat="48.18885" lon="6.78766">
        <ele>460</ele>
        <time>2017-07-20T05:42:09Z</time>
      </trkpt>
      <trkpt lat="48.18888" lon="6.78772">
        <ele>460</ele>
        <time>2017-07-20T05:42:10Z</time>
      </trkpt>
      <trkpt lat="48.18909" lon="6.78827">
        <ele>460.79998779297</ele>
        <time>2017-07-20T05:42:19Z</time>
      </trkpt>
      <trkpt lat="48.18916" lon="6.78852">
        <ele>461.20001220703</ele>
        <time>2017-07-20T05:42:23Z</time>
      </trkpt>
      <trkpt lat="48.1892" lon="6.78872">
        <ele>461.39999389648</ele>
        <time>2017-07-20T05:42:26Z</time>
      </trkpt>
      <trkpt lat="48.18921" lon="6.78885">
        <ele>461.60000610352</ele>
        <time>2017-07-20T05:42:28Z</time>
      </trkpt>
      <trkpt lat="48.18924" lon="6.78912">
        <ele>461.79998779297</ele>
        <time>2017-07-20T05:42:32Z</time>
      </trkpt>
      <trkpt lat="48.18924" lon="6.78938">
        <ele>462.20001220703</ele>
        <time>2017-07-20T05:42:36Z</time>
      </trkpt>
      <trkpt lat="48.18924" lon="6.78969">
        <ele>462.60000610352</ele>
        <time>2017-07-20T05:42:41Z</time>
      </trkpt>
      <trkpt lat="48.18922" lon="6.78993">
        <ele>463</ele>
        <time>2017-07-20T05:42:45Z</time>
      </trkpt>
      <trkpt lat="48.18921" lon="6.79006">
        <ele>463.20001220703</ele>
        <time>2017-07-20T05:42:47Z</time>
      </trkpt>
      <trkpt lat="48.18918" lon="6.79031">
        <ele>463.20001220703</ele>
        <time>2017-07-20T05:42:51Z</time>
      </trkpt>
      <trkpt lat="48.18915" lon="6.79056">
        <ele>463.60000610352</ele>
        <time>2017-07-20T05:42:55Z</time>
      </trkpt>
      <trkpt lat="48.1891" lon="6.79103">
        <ele>463.79998779297</ele>
        <time>2017-07-20T05:43:02Z</time>
      </trkpt>
      <trkpt lat="48.18899" lon="6.79148">
        <ele>464</ele>
        <time>2017-07-20T05:43:09Z</time>
      </trkpt>
      <trkpt lat="48.18884" lon="6.79196">
        <ele>464</ele>
        <time>2017-07-20T05:43:17Z</time>
      </trkpt>
      <trkpt lat="48.18861" lon="6.7923">
        <ele>464</ele>
        <time>2017-07-20T05:43:23Z</time>
      </trkpt>
      <trkpt lat="48.18838" lon="6.79255">
        <ele>464.39999389648</ele>
        <time>2017-07-20T05:43:28Z</time>
      </trkpt>
      <trkpt lat="48.18829" lon="6.79262">
        <ele>464.39999389648</ele>
        <time>2017-07-20T05:43:30Z</time>
      </trkpt>
      <trkpt lat="48.18811" lon="6.79275">
        <ele>464.79998779297</ele>
        <time>2017-07-20T05:43:34Z</time>
      </trkpt>
      <trkpt lat="48.18803" lon="6.79281">
        <ele>465</ele>
        <time>2017-07-20T05:43:36Z</time>
      </trkpt>
      <trkpt lat="48.18766" lon="6.79307">
        <ele>465.39999389648</ele>
        <time>2017-07-20T05:43:45Z</time>
      </trkpt>
      <trkpt lat="48.18758" lon="6.79314">
        <ele>465.39999389648</ele>
        <time>2017-07-20T05:43:47Z</time>
      </trkpt>
      <trkpt lat="48.18746" lon="6.79325">
        <ele>465.39999389648</ele>
        <time>2017-07-20T05:43:50Z</time>
      </trkpt>
      <trkpt lat="48.18738" lon="6.79334">
        <ele>465.60000610352</ele>
        <time>2017-07-20T05:43:52Z</time>
      </trkpt>
      <trkpt lat="48.18714" lon="6.7937">
        <ele>466</ele>
        <time>2017-07-20T05:43:59Z</time>
      </trkpt>
      <trkpt lat="48.18689" lon="6.79407">
        <ele>466</ele>
        <time>2017-07-20T05:44:06Z</time>
      </trkpt>
      <trkpt lat="48.18686" lon="6.79412">
        <ele>466.20001220703</ele>
        <time>2017-07-20T05:44:07Z</time>
      </trkpt>
      <trkpt lat="48.18671" lon="6.79438">
        <ele>466.39999389648</ele>
        <time>2017-07-20T05:44:12Z</time>
      </trkpt>
      <trkpt lat="48.18658" lon="6.79457">
        <ele>466.79998779297</ele>
        <time>2017-07-20T05:44:16Z</time>
      </trkpt>
      <trkpt lat="48.18636" lon="6.79491">
        <ele>467.20001220703</ele>
        <time>2017-07-20T05:44:23Z</time>
      </trkpt>
      <trkpt lat="48.18627" lon="6.79507">
        <ele>467.39999389648</ele>
        <time>2017-07-20T05:44:26Z</time>
      </trkpt>
      <trkpt lat="48.18612" lon="6.79531">
        <ele>468</ele>
        <time>2017-07-20T05:44:31Z</time>
      </trkpt>
      <trkpt lat="48.1859" lon="6.79567">
        <ele>468.39999389648</ele>
        <time>2017-07-20T05:44:38Z</time>
      </trkpt>
      <trkpt lat="48.18587" lon="6.79572">
        <ele>468.39999389648</ele>
        <time>2017-07-20T05:44:39Z</time>
      </trkpt>
      <trkpt lat="48.18551" lon="6.79631">
        <ele>469</ele>
        <time>2017-07-20T05:44:51Z</time>
      </trkpt>
      <trkpt lat="48.18528" lon="6.79667">
        <ele>469.39999389648</ele>
        <time>2017-07-20T05:44:59Z</time>
      </trkpt>
      <trkpt lat="48.18509" lon="6.79699">
        <ele>469.39999389648</ele>
        <time>2017-07-20T05:45:06Z</time>
      </trkpt>
      <trkpt lat="48.18506" lon="6.79703">
        <ele>469.39999389648</ele>
        <time>2017-07-20T05:45:07Z</time>
      </trkpt>
      <trkpt lat="48.18492" lon="6.79725">
        <ele>469.60000610352</ele>
        <time>2017-07-20T05:45:12Z</time>
      </trkpt>
      <trkpt lat="48.18484" lon="6.79739">
        <ele>469.60000610352</ele>
        <time>2017-07-20T05:45:15Z</time>
      </trkpt>
      <trkpt lat="48.18472" lon="6.79757">
        <ele>469.79998779297</ele>
        <time>2017-07-20T05:45:19Z</time>
      </trkpt>
      <trkpt lat="48.18462" lon="6.79771">
        <ele>469.79998779297</ele>
        <time>2017-07-20T05:45:22Z</time>
      </trkpt>
      <trkpt lat="48.18454" lon="6.79778">
        <ele>469.79998779297</ele>
        <time>2017-07-20T05:45:24Z</time>
      </trkpt>
      <trkpt lat="48.18442" lon="6.79787">
        <ele>470</ele>
        <time>2017-07-20T05:45:27Z</time>
      </trkpt>
      <trkpt lat="48.18404" lon="6.79814">
        <ele>470.39999389648</ele>
        <time>2017-07-20T05:45:36Z</time>
      </trkpt>
      <trkpt lat="48.18395" lon="6.7982">
        <ele>470.60000610352</ele>
        <time>2017-07-20T05:45:38Z</time>
      </trkpt>
      <trkpt lat="48.18363" lon="6.79843">
        <ele>470.79998779297</ele>
        <time>2017-07-20T05:45:46Z</time>
      </trkpt>
      <trkpt lat="48.18331" lon="6.79864">
        <ele>471.20001220703</ele>
        <time>2017-07-20T05:45:54Z</time>
      </trkpt>
      <trkpt lat="48.18287" lon="6.79892">
        <ele>471.39999389648</ele>
        <time>2017-07-20T05:46:05Z</time>
      </trkpt>
      <trkpt lat="48.18283" lon="6.79895">
        <ele>471.60000610352</ele>
        <time>2017-07-20T05:46:06Z</time>
      </trkpt>
      <trkpt lat="48.18258" lon="6.79915">
        <ele>472.39999389648</ele>
        <time>2017-07-20T05:46:13Z</time>
      </trkpt>
      <trkpt lat="48.18255" lon="6.79919">
        <ele>472.39999389648</ele>
        <time>2017-07-20T05:46:14Z</time>
      </trkpt>
      <trkpt lat="48.18245" lon="6.79932">
        <ele>472.39999389648</ele>
        <time>2017-07-20T05:46:17Z</time>
      </trkpt>
      <trkpt lat="48.18236" lon="6.79954">
        <ele>472.20001220703</ele>
        <time>2017-07-20T05:46:21Z</time>
      </trkpt>
      <trkpt lat="48.18226" lon="6.7999">
        <ele>472.60000610352</ele>
        <time>2017-07-20T05:46:27Z</time>
      </trkpt>
      <trkpt lat="48.18223" lon="6.80002">
        <ele>472.79998779297</ele>
        <time>2017-07-20T05:46:29Z</time>
      </trkpt>
      <trkpt lat="48.18212" lon="6.80052">
        <ele>473.60000610352</ele>
        <time>2017-07-20T05:46:37Z</time>
      </trkpt>
      <trkpt lat="48.18211" lon="6.80059">
        <ele>473.79998779297</ele>
        <time>2017-07-20T05:46:38Z</time>
      </trkpt>
      <trkpt lat="48.18197" lon="6.80122">
        <ele>474.39999389648</ele>
        <time>2017-07-20T05:46:48Z</time>
      </trkpt>
      <trkpt lat="48.18184" lon="6.80179">
        <ele>474.60000610352</ele>
        <time>2017-07-20T05:46:57Z</time>
      </trkpt>
      <trkpt lat="48.18172" lon="6.8023">
        <ele>475.20001220703</ele>
        <time>2017-07-20T05:47:05Z</time>
      </trkpt>
      <trkpt lat="48.18158" lon="6.80289">
        <ele>475.79998779297</ele>
        <time>2017-07-20T05:47:14Z</time>
      </trkpt>
      <trkpt lat="48.18145" lon="6.8034">
        <ele>476.39999389648</ele>
        <time>2017-07-20T05:47:22Z</time>
      </trkpt>
      <trkpt lat="48.18138" lon="6.80364">
        <ele>476.79998779297</ele>
        <time>2017-07-20T05:47:26Z</time>
      </trkpt>
      <trkpt lat="48.18129" lon="6.80387">
        <ele>477.20001220703</ele>
        <time>2017-07-20T05:47:30Z</time>
      </trkpt>
      <trkpt lat="48.18108" lon="6.8044">
        <ele>477.60000610352</ele>
        <time>2017-07-20T05:47:39Z</time>
      </trkpt>
      <trkpt lat="48.18103" lon="6.80451">
        <ele>478</ele>
        <time>2017-07-20T05:47:41Z</time>
      </trkpt>
      <trkpt lat="48.18089" lon="6.80491">
        <ele>478.60000610352</ele>
        <time>2017-07-20T05:47:48Z</time>
      </trkpt>
      <trkpt lat="48.18085" lon="6.80502">
        <ele>478.79998779297</ele>
        <time>2017-07-20T05:47:50Z</time>
      </trkpt>
      <trkpt lat="48.18081" lon="6.80515">
        <ele>479</ele>
        <time>2017-07-20T05:47:52Z</time>
      </trkpt>
      <trkpt lat="48.18079" lon="6.80528">
        <ele>479.20001220703</ele>
        <time>2017-07-20T05:47:54Z</time>
      </trkpt>
      <trkpt lat="48.18075" lon="6.80557">
        <ele>479.20001220703</ele>
        <time>2017-07-20T05:47:58Z</time>
      </trkpt>
      <trkpt lat="48.18077" lon="6.80573">
        <ele>479</ele>
        <time>2017-07-20T05:48:00Z</time>
      </trkpt>
      <trkpt lat="48.1809" lon="6.80624">
        <ele>478</ele>
        <time>2017-07-20T05:48:07Z</time>
      </trkpt>
      <trkpt lat="48.18107" lon="6.80669">
        <ele>477.39999389648</ele>
        <time>2017-07-20T05:48:13Z</time>
      </trkpt>
      <trkpt lat="48.18108" lon="6.80677">
        <ele>477.20001220703</ele>
        <time>2017-07-20T05:48:14Z</time>
      </trkpt>
      <trkpt lat="48.1811" lon="6.80694">
        <ele>476.79998779297</ele>
        <time>2017-07-20T05:48:16Z</time>
      </trkpt>
      <trkpt lat="48.18111" lon="6.80719">
        <ele>476.60000610352</ele>
        <time>2017-07-20T05:48:19Z</time>
      </trkpt>
      <trkpt lat="48.18111" lon="6.80727">
        <ele>476.60000610352</ele>
        <time>2017-07-20T05:48:20Z</time>
      </trkpt>
      <trkpt lat="48.18109" lon="6.80784">
        <ele>477.39999389648</ele>
        <time>2017-07-20T05:48:28Z</time>
      </trkpt>
      <trkpt lat="48.18108" lon="6.80807">
        <ele>477.79998779297</ele>
        <time>2017-07-20T05:48:32Z</time>
      </trkpt>
      <trkpt lat="48.18106" lon="6.80824">
        <ele>478.20001220703</ele>
        <time>2017-07-20T05:48:35Z</time>
      </trkpt>
      <trkpt lat="48.18103" lon="6.8085">
        <ele>479</ele>
        <time>2017-07-20T05:48:40Z</time>
      </trkpt>
      <trkpt lat="48.18103" lon="6.80865">
        <ele>479.39999389648</ele>
        <time>2017-07-20T05:48:43Z</time>
      </trkpt>
      <trkpt lat="48.18103" lon="6.80885">
        <ele>480</ele>
        <time>2017-07-20T05:48:48Z</time>
      </trkpt>
      <trkpt lat="48.18103" lon="6.80896">
        <ele>480.60000610352</ele>
        <time>2017-07-20T05:48:51Z</time>
      </trkpt>
      <trkpt lat="48.18103" lon="6.80902">
        <ele>481</ele>
        <time>2017-07-20T05:48:53Z</time>
      </trkpt>
      <trkpt lat="48.18104" lon="6.80916">
        <ele>481.79998779297</ele>
        <time>2017-07-20T05:48:57Z</time>
      </trkpt>
      <trkpt lat="48.18104" lon="6.80922">
        <ele>482.20001220703</ele>
        <time>2017-07-20T05:48:59Z</time>
      </trkpt>
      <trkpt lat="48.18105" lon="6.80941">
        <ele>483.39999389648</ele>
        <time>2017-07-20T05:49:04Z</time>
      </trkpt>
      <trkpt lat="48.18106" lon="6.80962">
        <ele>484.20001220703</ele>
        <time>2017-07-20T05:49:10Z</time>
      </trkpt>
      <trkpt lat="48.18107" lon="6.80965">
        <ele>484.39999389648</ele>
        <time>2017-07-20T05:49:11Z</time>
      </trkpt>
      <trkpt lat="48.18106" lon="6.80985">
        <ele>485.39999389648</ele>
        <time>2017-07-20T05:49:17Z</time>
      </trkpt>
      <trkpt lat="48.18106" lon="6.80991">
        <ele>485.79998779297</ele>
        <time>2017-07-20T05:49:19Z</time>
      </trkpt>
      <trkpt lat="48.18106" lon="6.81003">
        <ele>486.39999389648</ele>
        <time>2017-07-20T05:49:23Z</time>
      </trkpt>
      <trkpt lat="48.18107" lon="6.81016">
        <ele>487.39999389648</ele>
        <time>2017-07-20T05:49:27Z</time>
      </trkpt>
      <trkpt lat="48.18106" lon="6.81019">
        <ele>487.60000610352</ele>
        <time>2017-07-20T05:49:28Z</time>
      </trkpt>
      <trkpt lat="48.18106" lon="6.81035">
        <ele>488.60000610352</ele>
        <time>2017-07-20T05:49:33Z</time>
      </trkpt>
      <trkpt lat="48.18106" lon="6.81038">
        <ele>488.79998779297</ele>
        <time>2017-07-20T05:49:34Z</time>
      </trkpt>
      <trkpt lat="48.18105" lon="6.81051">
        <ele>489.79998779297</ele>
        <time>2017-07-20T05:49:38Z</time>
      </trkpt>
      <trkpt lat="48.18104" lon="6.81064">
        <ele>490.60000610352</ele>
        <time>2017-07-20T05:49:42Z</time>
      </trkpt>
      <trkpt lat="48.18104" lon="6.81067">
        <ele>490.79998779297</ele>
        <time>2017-07-20T05:49:43Z</time>
      </trkpt>
      <trkpt lat="48.18104" lon="6.81082">
        <ele>492.20001220703</ele>
        <time>2017-07-20T05:49:48Z</time>
      </trkpt>
      <trkpt lat="48.18103" lon="6.81085">
        <ele>492.39999389648</ele>
        <time>2017-07-20T05:49:49Z</time>
      </trkpt>
      <trkpt lat="48.18102" lon="6.81097">
        <ele>493.20001220703</ele>
        <time>2017-07-20T05:49:53Z</time>
      </trkpt>
      <trkpt lat="48.18099" lon="6.81115">
        <ele>494.20001220703</ele>
        <time>2017-07-20T05:49:59Z</time>
      </trkpt>
      <trkpt lat="48.18098" lon="6.81118">
        <ele>494.39999389648</ele>
        <time>2017-07-20T05:50:00Z</time>
      </trkpt>
      <trkpt lat="48.18095" lon="6.81133">
        <ele>495.20001220703</ele>
        <time>2017-07-20T05:50:05Z</time>
      </trkpt>
      <trkpt lat="48.18092" lon="6.81148">
        <ele>496</ele>
        <time>2017-07-20T05:50:10Z</time>
      </trkpt>
      <trkpt lat="48.18091" lon="6.81151">
        <ele>496.20001220703</ele>
        <time>2017-07-20T05:50:11Z</time>
      </trkpt>
      <trkpt lat="48.18085" lon="6.8117">
        <ele>497.39999389648</ele>
        <time>2017-07-20T05:50:17Z</time>
      </trkpt>
      <trkpt lat="48.18083" lon="6.81176">
        <ele>497.60000610352</ele>
        <time>2017-07-20T05:50:19Z</time>
      </trkpt>
      <trkpt lat="48.18076" lon="6.81197">
        <ele>498.39999389648</ele>
        <time>2017-07-20T05:50:25Z</time>
      </trkpt>
      <trkpt lat="48.1807" lon="6.81212">
        <ele>499</ele>
        <time>2017-07-20T05:50:29Z</time>
      </trkpt>
      <trkpt lat="48.18063" lon="6.81235">
        <ele>499.39999389648</ele>
        <time>2017-07-20T05:50:34Z</time>
      </trkpt>
      <trkpt lat="48.18058" lon="6.8125">
        <ele>499.79998779297</ele>
        <time>2017-07-20T05:50:37Z</time>
      </trkpt>
      <trkpt lat="48.1805" lon="6.81282">
        <ele>499.79998779297</ele>
        <time>2017-07-20T05:50:43Z</time>
      </trkpt>
      <trkpt lat="48.18036" lon="6.81328">
        <ele>499.39999389648</ele>
        <time>2017-07-20T05:50:50Z</time>
      </trkpt>
      <trkpt lat="48.18017" lon="6.81377">
        <ele>499.20001220703</ele>
        <time>2017-07-20T05:50:58Z</time>
      </trkpt>
      <trkpt lat="48.18004" lon="6.81422">
        <ele>499.39999389648</ele>
        <time>2017-07-20T05:51:05Z</time>
      </trkpt>
      <trkpt lat="48.17994" lon="6.81477">
        <ele>498.79998779297</ele>
        <time>2017-07-20T05:51:12Z</time>
      </trkpt>
      <trkpt lat="48.17983" lon="6.81508">
        <ele>498.39999389648</ele>
        <time>2017-07-20T05:51:16Z</time>
      </trkpt>
      <trkpt lat="48.17977" lon="6.81522">
        <ele>498.20001220703</ele>
        <time>2017-07-20T05:51:18Z</time>
      </trkpt>
      <trkpt lat="48.17954" lon="6.81561">
        <ele>498.79998779297</ele>
        <time>2017-07-20T05:51:25Z</time>
      </trkpt>
      <trkpt lat="48.17941" lon="6.81581">
        <ele>499.39999389648</ele>
        <time>2017-07-20T05:51:30Z</time>
      </trkpt>
      <trkpt lat="48.1794" lon="6.81582">
        <ele>499.60000610352</ele>
        <time>2017-07-20T05:51:31Z</time>
      </trkpt>
      <trkpt lat="48.17938" lon="6.81587">
        <ele>499.60000610352</ele>
        <time>2017-07-20T05:52:07Z</time>
      </trkpt>
      <trkpt lat="48.17937" lon="6.8159">
        <ele>499.60000610352</ele>
        <time>2017-07-20T05:52:08Z</time>
      </trkpt>
      <trkpt lat="48.17928" lon="6.81607">
        <ele>499.39999389648</ele>
        <time>2017-07-20T05:52:14Z</time>
      </trkpt>
      <trkpt lat="48.17917" lon="6.8163">
        <ele>499.79998779297</ele>
        <time>2017-07-20T05:52:20Z</time>
      </trkpt>
      <trkpt lat="48.17907" lon="6.8166">
        <ele>500.39999389648</ele>
        <time>2017-07-20T05:52:27Z</time>
      </trkpt>
      <trkpt lat="48.17906" lon="6.81665">
        <ele>500.60000610352</ele>
        <time>2017-07-20T05:52:28Z</time>
      </trkpt>
      <trkpt lat="48.179" lon="6.81699">
        <ele>501.60000610352</ele>
        <time>2017-07-20T05:52:36Z</time>
      </trkpt>
      <trkpt lat="48.179" lon="6.81703">
        <ele>501.79998779297</ele>
        <time>2017-07-20T05:52:37Z</time>
      </trkpt>
      <trkpt lat="48.17895" lon="6.81729">
        <ele>503</ele>
        <time>2017-07-20T05:52:44Z</time>
      </trkpt>
      <trkpt lat="48.17888" lon="6.81748">
        <ele>504</ele>
        <time>2017-07-20T05:52:50Z</time>
      </trkpt>
      <trkpt lat="48.17883" lon="6.81762">
        <ele>505.20001220703</ele>
        <time>2017-07-20T05:52:55Z</time>
      </trkpt>
      <trkpt lat="48.17882" lon="6.81765">
        <ele>505.39999389648</ele>
        <time>2017-07-20T05:52:56Z</time>
      </trkpt>
      <trkpt lat="48.17879" lon="6.81774">
        <ele>506.20001220703</ele>
        <time>2017-07-20T05:52:59Z</time>
      </trkpt>
      <trkpt lat="48.17874" lon="6.81787">
        <ele>507.39999389648</ele>
        <time>2017-07-20T05:53:03Z</time>
      </trkpt>
      <trkpt lat="48.17871" lon="6.81793">
        <ele>507.79998779297</ele>
        <time>2017-07-20T05:53:05Z</time>
      </trkpt>
      <trkpt lat="48.17866" lon="6.81805">
        <ele>508.60000610352</ele>
        <time>2017-07-20T05:53:09Z</time>
      </trkpt>
      <trkpt lat="48.1786" lon="6.81817">
        <ele>509.39999389648</ele>
        <time>2017-07-20T05:53:13Z</time>
      </trkpt>
      <trkpt lat="48.17859" lon="6.8182">
        <ele>509.60000610352</ele>
        <time>2017-07-20T05:53:14Z</time>
      </trkpt>
      <trkpt lat="48.17851" lon="6.81841">
        <ele>510.60000610352</ele>
        <time>2017-07-20T05:53:20Z</time>
      </trkpt>
      <trkpt lat="48.1785" lon="6.81844">
        <ele>510.79998779297</ele>
        <time>2017-07-20T05:53:21Z</time>
      </trkpt>
      <trkpt lat="48.17844" lon="6.81863">
        <ele>511.60000610352</ele>
        <time>2017-07-20T05:53:26Z</time>
      </trkpt>
      <trkpt lat="48.1784" lon="6.81879">
        <ele>512.20001220703</ele>
        <time>2017-07-20T05:53:30Z</time>
      </trkpt>
      <trkpt lat="48.17833" lon="6.81904">
        <ele>512.79998779297</ele>
        <time>2017-07-20T05:53:36Z</time>
      </trkpt>
      <trkpt lat="48.1783" lon="6.81921">
        <ele>513.20001220703</ele>
        <time>2017-07-20T05:53:40Z</time>
      </trkpt>
      <trkpt lat="48.17826" lon="6.81937">
        <ele>513.79998779297</ele>
        <time>2017-07-20T05:53:44Z</time>
      </trkpt>
      <trkpt lat="48.17821" lon="6.81957">
        <ele>514.59997558594</ele>
        <time>2017-07-20T05:53:49Z</time>
      </trkpt>
      <trkpt lat="48.17819" lon="6.81966">
        <ele>515</ele>
        <time>2017-07-20T05:53:51Z</time>
      </trkpt>
      <trkpt lat="48.17814" lon="6.81995">
        <ele>516</ele>
        <time>2017-07-20T05:53:58Z</time>
      </trkpt>
      <trkpt lat="48.17813" lon="6.81999">
        <ele>516</ele>
        <time>2017-07-20T05:53:59Z</time>
      </trkpt>
      <trkpt lat="48.17807" lon="6.82024">
        <ele>517</ele>
        <time>2017-07-20T05:54:05Z</time>
      </trkpt>
      <trkpt lat="48.17806" lon="6.82032">
        <ele>517.20001220703</ele>
        <time>2017-07-20T05:54:07Z</time>
      </trkpt>
      <trkpt lat="48.17799" lon="6.82056">
        <ele>518.40002441406</ele>
        <time>2017-07-20T05:54:13Z</time>
      </trkpt>
      <trkpt lat="48.17798" lon="6.8206">
        <ele>518.59997558594</ele>
        <time>2017-07-20T05:54:14Z</time>
      </trkpt>
      <trkpt lat="48.17794" lon="6.82085">
        <ele>519.40002441406</ele>
        <time>2017-07-20T05:54:20Z</time>
      </trkpt>
      <trkpt lat="48.17792" lon="6.82093">
        <ele>519.79998779297</ele>
        <time>2017-07-20T05:54:22Z</time>
      </trkpt>
      <trkpt lat="48.17788" lon="6.82114">
        <ele>520.59997558594</ele>
        <time>2017-07-20T05:54:27Z</time>
      </trkpt>
      <trkpt lat="48.17785" lon="6.82128">
        <ele>521</ele>
        <time>2017-07-20T05:54:30Z</time>
      </trkpt>
      <trkpt lat="48.17779" lon="6.82165">
        <ele>521.59997558594</ele>
        <time>2017-07-20T05:54:37Z</time>
      </trkpt>
      <trkpt lat="48.17778" lon="6.8217">
        <ele>521.59997558594</ele>
        <time>2017-07-20T05:54:38Z</time>
      </trkpt>
      <trkpt lat="48.17773" lon="6.82212">
        <ele>522</ele>
        <time>2017-07-20T05:54:46Z</time>
      </trkpt>
      <trkpt lat="48.17771" lon="6.82248">
        <ele>522.40002441406</ele>
        <time>2017-07-20T05:54:52Z</time>
      </trkpt>
      <trkpt lat="48.1777" lon="6.82278">
        <ele>522.59997558594</ele>
        <time>2017-07-20T05:54:57Z</time>
      </trkpt>
      <trkpt lat="48.17769" lon="6.82296">
        <ele>522.79998779297</ele>
        <time>2017-07-20T05:55:00Z</time>
      </trkpt>
      <trkpt lat="48.17768" lon="6.82342">
        <ele>523.20001220703</ele>
        <time>2017-07-20T05:55:08Z</time>
      </trkpt>
      <trkpt lat="48.17766" lon="6.82357">
        <ele>523.59997558594</ele>
        <time>2017-07-20T05:55:11Z</time>
      </trkpt>
      <trkpt lat="48.17762" lon="6.82381">
        <ele>524.40002441406</ele>
        <time>2017-07-20T05:55:16Z</time>
      </trkpt>
      <trkpt lat="48.17762" lon="6.82389">
        <ele>524.59997558594</ele>
        <time>2017-07-20T05:55:18Z</time>
      </trkpt>
      <trkpt lat="48.17759" lon="6.82409">
        <ele>525.79998779297</ele>
        <time>2017-07-20T05:55:23Z</time>
      </trkpt>
      <trkpt lat="48.17759" lon="6.82413">
        <ele>526</ele>
        <time>2017-07-20T05:55:24Z</time>
      </trkpt>
      <trkpt lat="48.17759" lon="6.82427">
        <ele>526.79998779297</ele>
        <time>2017-07-20T05:55:28Z</time>
      </trkpt>
      <trkpt lat="48.17757" lon="6.82444">
        <ele>527.79998779297</ele>
        <time>2017-07-20T05:55:33Z</time>
      </trkpt>
      <trkpt lat="48.17755" lon="6.82461">
        <ele>529</ele>
        <time>2017-07-20T05:55:38Z</time>
      </trkpt>
      <trkpt lat="48.17754" lon="6.82478">
        <ele>530</ele>
        <time>2017-07-20T05:55:43Z</time>
      </trkpt>
      <trkpt lat="48.17754" lon="6.82481">
        <ele>530.20001220703</ele>
        <time>2017-07-20T05:55:44Z</time>
      </trkpt>
      <trkpt lat="48.17752" lon="6.82494">
        <ele>531.20001220703</ele>
        <time>2017-07-20T05:55:48Z</time>
      </trkpt>
      <trkpt lat="48.1775" lon="6.82511">
        <ele>532.20001220703</ele>
        <time>2017-07-20T05:55:53Z</time>
      </trkpt>
      <trkpt lat="48.17748" lon="6.82531">
        <ele>533.40002441406</ele>
        <time>2017-07-20T05:55:59Z</time>
      </trkpt>
      <trkpt lat="48.17747" lon="6.82545">
        <ele>534.20001220703</ele>
        <time>2017-07-20T05:56:03Z</time>
      </trkpt>
      <trkpt lat="48.17747" lon="6.82552">
        <ele>534.40002441406</ele>
        <time>2017-07-20T05:56:05Z</time>
      </trkpt>
      <trkpt lat="48.17744" lon="6.82569">
        <ele>535.59997558594</ele>
        <time>2017-07-20T05:56:10Z</time>
      </trkpt>
      <trkpt lat="48.17742" lon="6.82576">
        <ele>535.79998779297</ele>
        <time>2017-07-20T05:56:12Z</time>
      </trkpt>
      <trkpt lat="48.17734" lon="6.82603">
        <ele>536.59997558594</ele>
        <time>2017-07-20T05:56:19Z</time>
      </trkpt>
      <trkpt lat="48.17726" lon="6.82641">
        <ele>537.59997558594</ele>
        <time>2017-07-20T05:56:28Z</time>
      </trkpt>
      <trkpt lat="48.17725" lon="6.82645">
        <ele>537.59997558594</ele>
        <time>2017-07-20T05:56:29Z</time>
      </trkpt>
      <trkpt lat="48.17716" lon="6.82685">
        <ele>538.20001220703</ele>
        <time>2017-07-20T05:56:37Z</time>
      </trkpt>
      <trkpt lat="48.17707" lon="6.82725">
        <ele>538.40002441406</ele>
        <time>2017-07-20T05:56:44Z</time>
      </trkpt>
      <trkpt lat="48.17696" lon="6.82779">
        <ele>538.59997558594</ele>
        <time>2017-07-20T05:56:53Z</time>
      </trkpt>
      <trkpt lat="48.17693" lon="6.82791">
        <ele>538.59997558594</ele>
        <time>2017-07-20T05:56:55Z</time>
      </trkpt>
      <trkpt lat="48.17683" lon="6.82843">
        <ele>539</ele>
        <time>2017-07-20T05:57:04Z</time>
      </trkpt>
      <trkpt lat="48.17676" lon="6.82897">
        <ele>539.59997558594</ele>
        <time>2017-07-20T05:57:13Z</time>
      </trkpt>
      <trkpt lat="48.17675" lon="6.82903">
        <ele>539.59997558594</ele>
        <time>2017-07-20T05:57:14Z</time>
      </trkpt>
      <trkpt lat="48.17674" lon="6.82915">
        <ele>539.79998779297</ele>
        <time>2017-07-20T05:57:16Z</time>
      </trkpt>
      <trkpt lat="48.17669" lon="6.8294">
        <ele>539.79998779297</ele>
        <time>2017-07-20T05:57:20Z</time>
      </trkpt>
      <trkpt lat="48.17656" lon="6.82995">
        <ele>540.59997558594</ele>
        <time>2017-07-20T05:57:29Z</time>
      </trkpt>
      <trkpt lat="48.17653" lon="6.83006">
        <ele>540.59997558594</ele>
        <time>2017-07-20T05:57:31Z</time>
      </trkpt>
      <trkpt lat="48.1764" lon="6.83043">
        <ele>541.59997558594</ele>
        <time>2017-07-20T05:57:38Z</time>
      </trkpt>
      <trkpt lat="48.17638" lon="6.83048">
        <ele>541.79998779297</ele>
        <time>2017-07-20T05:57:39Z</time>
      </trkpt>
      <trkpt lat="48.17627" lon="6.83081">
        <ele>542.79998779297</ele>
        <time>2017-07-20T05:57:46Z</time>
      </trkpt>
      <trkpt lat="48.17625" lon="6.83085">
        <ele>542.79998779297</ele>
        <time>2017-07-20T05:57:47Z</time>
      </trkpt>
      <trkpt lat="48.17616" lon="6.83111">
        <ele>543.79998779297</ele>
        <time>2017-07-20T05:57:53Z</time>
      </trkpt>
      <trkpt lat="48.17612" lon="6.83123">
        <ele>544</ele>
        <time>2017-07-20T05:57:56Z</time>
      </trkpt>
      <trkpt lat="48.17604" lon="6.83154">
        <ele>544.79998779297</ele>
        <time>2017-07-20T05:58:03Z</time>
      </trkpt>
      <trkpt lat="48.17601" lon="6.83163">
        <ele>545</ele>
        <time>2017-07-20T05:58:05Z</time>
      </trkpt>
      <trkpt lat="48.17595" lon="6.83196">
        <ele>546</ele>
        <time>2017-07-20T05:58:12Z</time>
      </trkpt>
      <trkpt lat="48.17592" lon="6.83209">
        <ele>546.40002441406</ele>
        <time>2017-07-20T05:58:15Z</time>
      </trkpt>
      <trkpt lat="48.17586" lon="6.83235">
        <ele>547</ele>
        <time>2017-07-20T05:58:21Z</time>
      </trkpt>
      <trkpt lat="48.17581" lon="6.83253">
        <ele>547.40002441406</ele>
        <time>2017-07-20T05:58:25Z</time>
      </trkpt>
      <trkpt lat="48.17571" lon="6.83276">
        <ele>548.20001220703</ele>
        <time>2017-07-20T05:58:31Z</time>
      </trkpt>
      <trkpt lat="48.17569" lon="6.8328">
        <ele>548.40002441406</ele>
        <time>2017-07-20T05:58:32Z</time>
      </trkpt>
      <trkpt lat="48.17551" lon="6.83306">
        <ele>548.79998779297</ele>
        <time>2017-07-20T05:58:40Z</time>
      </trkpt>
      <trkpt lat="48.17544" lon="6.83316">
        <ele>549.20001220703</ele>
        <time>2017-07-20T05:58:43Z</time>
      </trkpt>
      <trkpt lat="48.17535" lon="6.83329">
        <ele>550.20001220703</ele>
        <time>2017-07-20T05:58:47Z</time>
      </trkpt>
      <trkpt lat="48.17532" lon="6.83332">
        <ele>550.40002441406</ele>
        <time>2017-07-20T05:58:48Z</time>
      </trkpt>
      <trkpt lat="48.17519" lon="6.83351">
        <ele>551</ele>
        <time>2017-07-20T05:58:54Z</time>
      </trkpt>
      <trkpt lat="48.17515" lon="6.83357">
        <ele>551.40002441406</ele>
        <time>2017-07-20T05:58:56Z</time>
      </trkpt>
      <trkpt lat="48.175" lon="6.83379">
        <ele>552.40002441406</ele>
        <time>2017-07-20T05:59:03Z</time>
      </trkpt>
      <trkpt lat="48.17497" lon="6.83382">
        <ele>552.40002441406</ele>
        <time>2017-07-20T05:59:04Z</time>
      </trkpt>
      <trkpt lat="48.17485" lon="6.83402">
        <ele>553</ele>
        <time>2017-07-20T05:59:10Z</time>
      </trkpt>
      <trkpt lat="48.17474" lon="6.83424">
        <ele>553.40002441406</ele>
        <time>2017-07-20T05:59:16Z</time>
      </trkpt>
      <trkpt lat="48.1747" lon="6.83431">
        <ele>553.79998779297</ele>
        <time>2017-07-20T05:59:18Z</time>
      </trkpt>
      <trkpt lat="48.17462" lon="6.83446">
        <ele>554.40002441406</ele>
        <time>2017-07-20T05:59:22Z</time>
      </trkpt>
      <trkpt lat="48.17454" lon="6.83462">
        <ele>555.20001220703</ele>
        <time>2017-07-20T05:59:26Z</time>
      </trkpt>
      <trkpt lat="48.17449" lon="6.83474">
        <ele>555.59997558594</ele>
        <time>2017-07-20T05:59:29Z</time>
      </trkpt>
      <trkpt lat="48.17442" lon="6.83494">
        <ele>556.20001220703</ele>
        <time>2017-07-20T05:59:34Z</time>
      </trkpt>
      <trkpt lat="48.17436" lon="6.83504">
        <ele>556.59997558594</ele>
        <time>2017-07-20T05:59:37Z</time>
      </trkpt>
      <trkpt lat="48.17433" lon="6.83516">
        <ele>557.20001220703</ele>
        <time>2017-07-20T05:59:40Z</time>
      </trkpt>
      <trkpt lat="48.17429" lon="6.83526">
        <ele>557.79998779297</ele>
        <time>2017-07-20T05:59:43Z</time>
      </trkpt>
      <trkpt lat="48.17421" lon="6.8355">
        <ele>558.79998779297</ele>
        <time>2017-07-20T05:59:50Z</time>
      </trkpt>
      <trkpt lat="48.17415" lon="6.8357">
        <ele>560</ele>
        <time>2017-07-20T05:59:56Z</time>
      </trkpt>
      <trkpt lat="48.17412" lon="6.8358">
        <ele>560.40002441406</ele>
        <time>2017-07-20T05:59:59Z</time>
      </trkpt>
      <trkpt lat="48.17408" lon="6.8359">
        <ele>561</ele>
        <time>2017-07-20T06:00:02Z</time>
      </trkpt>
      <trkpt lat="48.17404" lon="6.83602">
        <ele>562</ele>
        <time>2017-07-20T06:00:06Z</time>
      </trkpt>
      <trkpt lat="48.17403" lon="6.83605">
        <ele>562.20001220703</ele>
        <time>2017-07-20T06:00:07Z</time>
      </trkpt>
      <trkpt lat="48.17398" lon="6.8362">
        <ele>563.20001220703</ele>
        <time>2017-07-20T06:00:12Z</time>
      </trkpt>
      <trkpt lat="48.17396" lon="6.83626">
        <ele>563.79998779297</ele>
        <time>2017-07-20T06:00:14Z</time>
      </trkpt>
      <trkpt lat="48.17394" lon="6.83632">
        <ele>564.20001220703</ele>
        <time>2017-07-20T06:00:16Z</time>
      </trkpt>
      <trkpt lat="48.17389" lon="6.83646">
        <ele>565.40002441406</ele>
        <time>2017-07-20T06:00:21Z</time>
      </trkpt>
      <trkpt lat="48.17388" lon="6.83649">
        <ele>565.59997558594</ele>
        <time>2017-07-20T06:00:22Z</time>
      </trkpt>
      <trkpt lat="48.17385" lon="6.83662">
        <ele>566.40002441406</ele>
        <time>2017-07-20T06:00:26Z</time>
      </trkpt>
      <trkpt lat="48.17381" lon="6.8368">
        <ele>567.40002441406</ele>
        <time>2017-07-20T06:00:31Z</time>
      </trkpt>
      <trkpt lat="48.17379" lon="6.83684">
        <ele>567.59997558594</ele>
        <time>2017-07-20T06:00:32Z</time>
      </trkpt>
      <trkpt lat="48.17375" lon="6.83711">
        <ele>568.59997558594</ele>
        <time>2017-07-20T06:00:39Z</time>
      </trkpt>
      <trkpt lat="48.17374" lon="6.83715">
        <ele>568.59997558594</ele>
        <time>2017-07-20T06:00:40Z</time>
      </trkpt>
      <trkpt lat="48.1737" lon="6.83747">
        <ele>569.59997558594</ele>
        <time>2017-07-20T06:00:48Z</time>
      </trkpt>
      <trkpt lat="48.17369" lon="6.8375">
        <ele>569.79998779297</ele>
        <time>2017-07-20T06:00:49Z</time>
      </trkpt>
      <trkpt lat="48.17366" lon="6.83774">
        <ele>570.59997558594</ele>
        <time>2017-07-20T06:00:55Z</time>
      </trkpt>
      <trkpt lat="48.17363" lon="6.83797">
        <ele>572</ele>
        <time>2017-07-20T06:01:01Z</time>
      </trkpt>
      <trkpt lat="48.17362" lon="6.83802">
        <ele>572.20001220703</ele>
        <time>2017-07-20T06:01:02Z</time>
      </trkpt>
      <trkpt lat="48.17358" lon="6.83832">
        <ele>573</ele>
        <time>2017-07-20T06:01:09Z</time>
      </trkpt>
      <trkpt lat="48.17357" lon="6.83837">
        <ele>573.20001220703</ele>
        <time>2017-07-20T06:01:10Z</time>
      </trkpt>
      <trkpt lat="48.17352" lon="6.83872">
        <ele>573.59997558594</ele>
        <time>2017-07-20T06:01:17Z</time>
      </trkpt>
      <trkpt lat="48.17348" lon="6.83906">
        <ele>574</ele>
        <time>2017-07-20T06:01:23Z</time>
      </trkpt>
      <trkpt lat="48.17345" lon="6.83918">
        <ele>574</ele>
        <time>2017-07-20T06:01:25Z</time>
      </trkpt>
      <trkpt lat="48.17342" lon="6.83931">
        <ele>574.20001220703</ele>
        <time>2017-07-20T06:01:27Z</time>
      </trkpt>
      <trkpt lat="48.17339" lon="6.83942">
        <ele>574.20001220703</ele>
        <time>2017-07-20T06:01:29Z</time>
      </trkpt>
      <trkpt lat="48.17332" lon="6.8396">
        <ele>574.20001220703</ele>
        <time>2017-07-20T06:01:32Z</time>
      </trkpt>
      <trkpt lat="48.1731" lon="6.84021">
        <ele>574.79998779297</ele>
        <time>2017-07-20T06:01:42Z</time>
      </trkpt>
      <trkpt lat="48.17294" lon="6.84069">
        <ele>575.20001220703</ele>
        <time>2017-07-20T06:01:50Z</time>
      </trkpt>
      <trkpt lat="48.17293" lon="6.84075">
        <ele>575.40002441406</ele>
        <time>2017-07-20T06:01:51Z</time>
      </trkpt>
      <trkpt lat="48.1728" lon="6.8412">
        <ele>576.20001220703</ele>
        <time>2017-07-20T06:01:59Z</time>
      </trkpt>
      <trkpt lat="48.17271" lon="6.84153">
        <ele>577.40002441406</ele>
        <time>2017-07-20T06:02:05Z</time>
      </trkpt>
      <trkpt lat="48.17267" lon="6.8417">
        <ele>578.20001220703</ele>
        <time>2017-07-20T06:02:08Z</time>
      </trkpt>
      <trkpt lat="48.17261" lon="6.842">
        <ele>578.40002441406</ele>
        <time>2017-07-20T06:02:13Z</time>
      </trkpt>
      <trkpt lat="48.17259" lon="6.84211">
        <ele>578.40002441406</ele>
        <time>2017-07-20T06:02:15Z</time>
      </trkpt>
      <trkpt lat="48.17254" lon="6.84264">
        <ele>579.40002441406</ele>
        <time>2017-07-20T06:02:24Z</time>
      </trkpt>
      <trkpt lat="48.17253" lon="6.8427">
        <ele>579.40002441406</ele>
        <time>2017-07-20T06:02:25Z</time>
      </trkpt>
      <trkpt lat="48.17253" lon="6.84319">
        <ele>579.59997558594</ele>
        <time>2017-07-20T06:02:32Z</time>
      </trkpt>
      <trkpt lat="48.17258" lon="6.84374">
        <ele>580</ele>
        <time>2017-07-20T06:02:40Z</time>
      </trkpt>
      <trkpt lat="48.17268" lon="6.84432">
        <ele>580</ele>
        <time>2017-07-20T06:02:48Z</time>
      </trkpt>
      <trkpt lat="48.17273" lon="6.84488">
        <ele>579.79998779297</ele>
        <time>2017-07-20T06:02:55Z</time>
      </trkpt>
      <trkpt lat="48.17272" lon="6.84505">
        <ele>579.79998779297</ele>
        <time>2017-07-20T06:02:57Z</time>
      </trkpt>
      <trkpt lat="48.17268" lon="6.84535">
        <ele>579.59997558594</ele>
        <time>2017-07-20T06:03:01Z</time>
      </trkpt>
      <trkpt lat="48.17263" lon="6.84553">
        <ele>579.59997558594</ele>
        <time>2017-07-20T06:03:04Z</time>
      </trkpt>
      <trkpt lat="48.17258" lon="6.84565">
        <ele>579.59997558594</ele>
        <time>2017-07-20T06:03:06Z</time>
      </trkpt>
      <trkpt lat="48.17241" lon="6.84617">
        <ele>580</ele>
        <time>2017-07-20T06:03:14Z</time>
      </trkpt>
      <trkpt lat="48.17225" lon="6.84681">
        <ele>579.79998779297</ele>
        <time>2017-07-20T06:03:22Z</time>
      </trkpt>
      <trkpt lat="48.17222" lon="6.84738">
        <ele>578.59997558594</ele>
        <time>2017-07-20T06:03:28Z</time>
      </trkpt>
      <trkpt lat="48.17224" lon="6.84759">
        <ele>578.40002441406</ele>
        <time>2017-07-20T06:03:30Z</time>
      </trkpt>
      <trkpt lat="48.1723" lon="6.84812">
        <ele>577.79998779297</ele>
        <time>2017-07-20T06:03:35Z</time>
      </trkpt>
      <trkpt lat="48.17232" lon="6.84833">
        <ele>577.20001220703</ele>
        <time>2017-07-20T06:03:37Z</time>
      </trkpt>
      <trkpt lat="48.17233" lon="6.84879">
        <ele>576.40002441406</ele>
        <time>2017-07-20T06:03:41Z</time>
      </trkpt>
      <trkpt lat="48.17234" lon="6.8489">
        <ele>576.20001220703</ele>
        <time>2017-07-20T06:03:42Z</time>
      </trkpt>
      <trkpt lat="48.17235" lon="6.84961">
        <ele>575</ele>
        <time>2017-07-20T06:03:48Z</time>
      </trkpt>
      <trkpt lat="48.17236" lon="6.84973">
        <ele>574.79998779297</ele>
        <time>2017-07-20T06:03:49Z</time>
      </trkpt>
      <trkpt lat="48.17236" lon="6.85036">
        <ele>573.79998779297</ele>
        <time>2017-07-20T06:03:54Z</time>
      </trkpt>
      <trkpt lat="48.17236" lon="6.85063">
        <ele>573.20001220703</ele>
        <time>2017-07-20T06:03:56Z</time>
      </trkpt>
      <trkpt lat="48.17235" lon="6.85091">
        <ele>572.40002441406</ele>
        <time>2017-07-20T06:03:58Z</time>
      </trkpt>
      <trkpt lat="48.17235" lon="6.85134">
        <ele>571.40002441406</ele>
        <time>2017-07-20T06:04:01Z</time>
      </trkpt>
      <trkpt lat="48.17237" lon="6.85164">
        <ele>570.59997558594</ele>
        <time>2017-07-20T06:04:03Z</time>
      </trkpt>
      <trkpt lat="48.17238" lon="6.85179">
        <ele>570</ele>
        <time>2017-07-20T06:04:04Z</time>
      </trkpt>
      <trkpt lat="48.17243" lon="6.85207">
        <ele>569.20001220703</ele>
        <time>2017-07-20T06:04:06Z</time>
      </trkpt>
      <trkpt lat="48.17247" lon="6.85222">
        <ele>568.59997558594</ele>
        <time>2017-07-20T06:04:07Z</time>
      </trkpt>
      <trkpt lat="48.17255" lon="6.8525">
        <ele>567.59997558594</ele>
        <time>2017-07-20T06:04:09Z</time>
      </trkpt>
      <trkpt lat="48.1727" lon="6.85294">
        <ele>566.20001220703</ele>
        <time>2017-07-20T06:04:12Z</time>
      </trkpt>
      <trkpt lat="48.17282" lon="6.85325">
        <ele>564.79998779297</ele>
        <time>2017-07-20T06:04:14Z</time>
      </trkpt>
      <trkpt lat="48.17295" lon="6.85356">
        <ele>563.79998779297</ele>
        <time>2017-07-20T06:04:16Z</time>
      </trkpt>
      <trkpt lat="48.17308" lon="6.85389">
        <ele>562.40002441406</ele>
        <time>2017-07-20T06:04:18Z</time>
      </trkpt>
      <trkpt lat="48.17321" lon="6.85425">
        <ele>560.79998779297</ele>
        <time>2017-07-20T06:04:20Z</time>
      </trkpt>
      <trkpt lat="48.1733" lon="6.85465">
        <ele>559</ele>
        <time>2017-07-20T06:04:22Z</time>
      </trkpt>
      <trkpt lat="48.17335" lon="6.85506">
        <ele>557.20001220703</ele>
        <time>2017-07-20T06:04:24Z</time>
      </trkpt>
      <trkpt lat="48.17337" lon="6.85525">
        <ele>556.20001220703</ele>
        <time>2017-07-20T06:04:25Z</time>
      </trkpt>
      <trkpt lat="48.17337" lon="6.85562">
        <ele>554.20001220703</ele>
        <time>2017-07-20T06:04:27Z</time>
      </trkpt>
      <trkpt lat="48.17337" lon="6.85597">
        <ele>553</ele>
        <time>2017-07-20T06:04:29Z</time>
      </trkpt>
      <trkpt lat="48.17334" lon="6.85661">
        <ele>551.79998779297</ele>
        <time>2017-07-20T06:04:33Z</time>
      </trkpt>
      <trkpt lat="48.17333" lon="6.85676">
        <ele>551.59997558594</ele>
        <time>2017-07-20T06:04:34Z</time>
      </trkpt>
      <trkpt lat="48.17332" lon="6.85732">
        <ele>550.79998779297</ele>
        <time>2017-07-20T06:04:38Z</time>
      </trkpt>
      <trkpt lat="48.1733" lon="6.8576">
        <ele>550.59997558594</ele>
        <time>2017-07-20T06:04:40Z</time>
      </trkpt>
      <trkpt lat="48.17329" lon="6.85836">
        <ele>549.59997558594</ele>
        <time>2017-07-20T06:04:45Z</time>
      </trkpt>
      <trkpt lat="48.17329" lon="6.85852">
        <ele>549.20001220703</ele>
        <time>2017-07-20T06:04:46Z</time>
      </trkpt>
      <trkpt lat="48.17329" lon="6.85867">
        <ele>548.59997558594</ele>
        <time>2017-07-20T06:04:47Z</time>
      </trkpt>
      <trkpt lat="48.17328" lon="6.85912">
        <ele>547.40002441406</ele>
        <time>2017-07-20T06:04:50Z</time>
      </trkpt>
      <trkpt lat="48.17326" lon="6.85982">
        <ele>546.40002441406</ele>
        <time>2017-07-20T06:04:55Z</time>
      </trkpt>
      <trkpt lat="48.17326" lon="6.85996">
        <ele>546.40002441406</ele>
        <time>2017-07-20T06:04:56Z</time>
      </trkpt>
      <trkpt lat="48.17324" lon="6.86089">
        <ele>546.59997558594</ele>
        <time>2017-07-20T06:05:03Z</time>
      </trkpt>
      <trkpt lat="48.1733" lon="6.86169">
        <ele>545.20001220703</ele>
        <time>2017-07-20T06:05:09Z</time>
      </trkpt>
      <trkpt lat="48.17339" lon="6.86236">
        <ele>544.20001220703</ele>
        <time>2017-07-20T06:05:14Z</time>
      </trkpt>
      <trkpt lat="48.17348" lon="6.86288">
        <ele>543.59997558594</ele>
        <time>2017-07-20T06:05:18Z</time>
      </trkpt>
      <trkpt lat="48.17354" lon="6.86326">
        <ele>543.20001220703</ele>
        <time>2017-07-20T06:05:21Z</time>
      </trkpt>
      <trkpt lat="48.17367" lon="6.86406">
        <ele>542.40002441406</ele>
        <time>2017-07-20T06:05:27Z</time>
      </trkpt>
      <trkpt lat="48.17369" lon="6.8642">
        <ele>542</ele>
        <time>2017-07-20T06:05:28Z</time>
      </trkpt>
      <trkpt lat="48.17383" lon="6.86498">
        <ele>540.79998779297</ele>
        <time>2017-07-20T06:05:34Z</time>
      </trkpt>
      <trkpt lat="48.17385" lon="6.8651">
        <ele>540.59997558594</ele>
        <time>2017-07-20T06:05:35Z</time>
      </trkpt>
      <trkpt lat="48.17399" lon="6.86586">
        <ele>539.79998779297</ele>
        <time>2017-07-20T06:05:41Z</time>
      </trkpt>
      <trkpt lat="48.17407" lon="6.86625">
        <ele>539.20001220703</ele>
        <time>2017-07-20T06:05:44Z</time>
      </trkpt>
      <trkpt lat="48.17416" lon="6.86661">
        <ele>538.59997558594</ele>
        <time>2017-07-20T06:05:47Z</time>
      </trkpt>
      <trkpt lat="48.17427" lon="6.86707">
        <ele>537.79998779297</ele>
        <time>2017-07-20T06:05:51Z</time>
      </trkpt>
      <trkpt lat="48.1744" lon="6.86768">
        <ele>538.20001220703</ele>
        <time>2017-07-20T06:05:57Z</time>
      </trkpt>
      <trkpt lat="48.17443" lon="6.86832">
        <ele>538.59997558594</ele>
        <time>2017-07-20T06:06:03Z</time>
      </trkpt>
      <trkpt lat="48.17439" lon="6.86906">
        <ele>537.79998779297</ele>
        <time>2017-07-20T06:06:09Z</time>
      </trkpt>
      <trkpt lat="48.17436" lon="6.86933">
        <ele>537.40002441406</ele>
        <time>2017-07-20T06:06:11Z</time>
      </trkpt>
      <trkpt lat="48.17431" lon="6.86974">
        <ele>536</ele>
        <time>2017-07-20T06:06:14Z</time>
      </trkpt>
      <trkpt lat="48.17428" lon="6.86988">
        <ele>535.79998779297</ele>
        <time>2017-07-20T06:06:15Z</time>
      </trkpt>
      <trkpt lat="48.1742" lon="6.8703">
        <ele>534.59997558594</ele>
        <time>2017-07-20T06:06:18Z</time>
      </trkpt>
      <trkpt lat="48.17414" lon="6.87069">
        <ele>533.59997558594</ele>
        <time>2017-07-20T06:06:21Z</time>
      </trkpt>
      <trkpt lat="48.17408" lon="6.8713">
        <ele>532.79998779297</ele>
        <time>2017-07-20T06:06:26Z</time>
      </trkpt>
      <trkpt lat="48.17406" lon="6.87153">
        <ele>532.59997558594</ele>
        <time>2017-07-20T06:06:28Z</time>
      </trkpt>
      <trkpt lat="48.17404" lon="6.87163">
        <ele>532.40002441406</ele>
        <time>2017-07-20T06:06:29Z</time>
      </trkpt>
      <trkpt lat="48.17399" lon="6.87183">
        <ele>532.20001220703</ele>
        <time>2017-07-20T06:06:31Z</time>
      </trkpt>
      <trkpt lat="48.17387" lon="6.87216">
        <ele>532.20001220703</ele>
        <time>2017-07-20T06:06:35Z</time>
      </trkpt>
      <trkpt lat="48.17383" lon="6.87224">
        <ele>532.20001220703</ele>
        <time>2017-07-20T06:06:36Z</time>
      </trkpt>
      <trkpt lat="48.17375" lon="6.87238">
        <ele>532.40002441406</ele>
        <time>2017-07-20T06:06:38Z</time>
      </trkpt>
      <trkpt lat="48.17358" lon="6.87261">
        <ele>532.79998779297</ele>
        <time>2017-07-20T06:06:42Z</time>
      </trkpt>
      <trkpt lat="48.17332" lon="6.87297">
        <ele>533.40002441406</ele>
        <time>2017-07-20T06:06:49Z</time>
      </trkpt>
      <trkpt lat="48.17329" lon="6.87301">
        <ele>533.59997558594</ele>
        <time>2017-07-20T06:06:50Z</time>
      </trkpt>
      <trkpt lat="48.17323" lon="6.8732">
        <ele>534.40002441406</ele>
        <time>2017-07-20T06:06:54Z</time>
      </trkpt>
      <trkpt lat="48.17322" lon="6.87325">
        <ele>534.79998779297</ele>
        <time>2017-07-20T06:06:55Z</time>
      </trkpt>
      <trkpt lat="48.17318" lon="6.87352">
        <ele>536</ele>
        <time>2017-07-20T06:07:00Z</time>
      </trkpt>
      <trkpt lat="48.17315" lon="6.87363">
        <ele>536.59997558594</ele>
        <time>2017-07-20T06:07:02Z</time>
      </trkpt>
      <trkpt lat="48.17312" lon="6.87375">
        <ele>536.79998779297</ele>
        <time>2017-07-20T06:07:04Z</time>
      </trkpt>
      <trkpt lat="48.17311" lon="6.87381">
        <ele>537</ele>
        <time>2017-07-20T06:07:05Z</time>
      </trkpt>
      <trkpt lat="48.17309" lon="6.87386">
        <ele>537.20001220703</ele>
        <time>2017-07-20T06:07:06Z</time>
      </trkpt>
      <trkpt lat="48.17301" lon="6.87419">
        <ele>538.20001220703</ele>
        <time>2017-07-20T06:07:12Z</time>
      </trkpt>
      <trkpt lat="48.17299" lon="6.87431">
        <ele>538.40002441406</ele>
        <time>2017-07-20T06:07:14Z</time>
      </trkpt>
      <trkpt lat="48.17291" lon="6.87465">
        <ele>538.79998779297</ele>
        <time>2017-07-20T06:07:20Z</time>
      </trkpt>
      <trkpt lat="48.17284" lon="6.87496">
        <ele>539.20001220703</ele>
        <time>2017-07-20T06:07:25Z</time>
      </trkpt>
      <trkpt lat="48.17277" lon="6.87527">
        <ele>539.20001220703</ele>
        <time>2017-07-20T06:07:30Z</time>
      </trkpt>
      <trkpt lat="48.17264" lon="6.87585">
        <ele>539.59997558594</ele>
        <time>2017-07-20T06:07:39Z</time>
      </trkpt>
      <trkpt lat="48.17254" lon="6.87631">
        <ele>540.20001220703</ele>
        <time>2017-07-20T06:07:46Z</time>
      </trkpt>
      <trkpt lat="48.17247" lon="6.87656">
        <ele>540</ele>
        <time>2017-07-20T06:07:50Z</time>
      </trkpt>
      <trkpt lat="48.17238" lon="6.87683">
        <ele>540</ele>
        <time>2017-07-20T06:07:55Z</time>
      </trkpt>
      <trkpt lat="48.17219" lon="6.87723">
        <ele>539.79998779297</ele>
        <time>2017-07-20T06:08:04Z</time>
      </trkpt>
      <trkpt lat="48.17212" lon="6.87741">
        <ele>540.79998779297</ele>
        <time>2017-07-20T06:08:59Z</time>
      </trkpt>
      <trkpt lat="48.17212" lon="6.87747">
        <ele>541</ele>
        <time>2017-07-20T06:09:01Z</time>
      </trkpt>
      <trkpt lat="48.17211" lon="6.87763">
        <ele>541</ele>
        <time>2017-07-20T06:09:05Z</time>
      </trkpt>
      <trkpt lat="48.17212" lon="6.87768">
        <ele>541</ele>
        <time>2017-07-20T06:09:06Z</time>
      </trkpt>
      <trkpt lat="48.1722" lon="6.87803">
        <ele>540.59997558594</ele>
        <time>2017-07-20T06:09:12Z</time>
      </trkpt>
      <trkpt lat="48.17232" lon="6.87862">
        <ele>540.79998779297</ele>
        <time>2017-07-20T06:09:21Z</time>
      </trkpt>
      <trkpt lat="48.17243" lon="6.87921">
        <ele>541.20001220703</ele>
        <time>2017-07-20T06:09:30Z</time>
      </trkpt>
      <trkpt lat="48.17246" lon="6.87954">
        <ele>541.40002441406</ele>
        <time>2017-07-20T06:09:35Z</time>
      </trkpt>
      <trkpt lat="48.17248" lon="6.87966">
        <ele>541.59997558594</ele>
        <time>2017-07-20T06:09:37Z</time>
      </trkpt>
      <trkpt lat="48.17251" lon="6.88002">
        <ele>542.40002441406</ele>
        <time>2017-07-20T06:09:43Z</time>
      </trkpt>
      <trkpt lat="48.1725" lon="6.88008">
        <ele>542.40002441406</ele>
        <time>2017-07-20T06:09:44Z</time>
      </trkpt>
      <trkpt lat="48.17249" lon="6.88014">
        <ele>542.59997558594</ele>
        <time>2017-07-20T06:09:45Z</time>
      </trkpt>
      <trkpt lat="48.17245" lon="6.88032">
        <ele>542.79998779297</ele>
        <time>2017-07-20T06:09:48Z</time>
      </trkpt>
      <trkpt lat="48.17241" lon="6.88042">
        <ele>543.20001220703</ele>
        <time>2017-07-20T06:09:50Z</time>
      </trkpt>
      <trkpt lat="48.17232" lon="6.88055">
        <ele>543.40002441406</ele>
        <time>2017-07-20T06:09:53Z</time>
      </trkpt>
      <trkpt lat="48.17226" lon="6.88062">
        <ele>543.40002441406</ele>
        <time>2017-07-20T06:09:55Z</time>
      </trkpt>
      <trkpt lat="48.17213" lon="6.88077">
        <ele>543.79998779297</ele>
        <time>2017-07-20T06:09:59Z</time>
      </trkpt>
      <trkpt lat="48.17209" lon="6.8808">
        <ele>543.79998779297</ele>
        <time>2017-07-20T06:10:00Z</time>
      </trkpt>
      <trkpt lat="48.17194" lon="6.88095">
        <ele>544</ele>
        <time>2017-07-20T06:10:04Z</time>
      </trkpt>
      <trkpt lat="48.17187" lon="6.88103">
        <ele>544</ele>
        <time>2017-07-20T06:10:06Z</time>
      </trkpt>
      <trkpt lat="48.1717" lon="6.88118">
        <ele>544.20001220703</ele>
        <time>2017-07-20T06:10:10Z</time>
      </trkpt>
      <trkpt lat="48.17166" lon="6.88122">
        <ele>544.40002441406</ele>
        <time>2017-07-20T06:10:11Z</time>
      </trkpt>
      <trkpt lat="48.17159" lon="6.8813">
        <ele>544.40002441406</ele>
        <time>2017-07-20T06:10:13Z</time>
      </trkpt>
      <trkpt lat="48.17125" lon="6.88168">
        <ele>544</ele>
        <time>2017-07-20T06:10:22Z</time>
      </trkpt>
      <trkpt lat="48.17112" lon="6.88189">
        <ele>544.20001220703</ele>
        <time>2017-07-20T06:10:26Z</time>
      </trkpt>
      <trkpt lat="48.17106" lon="6.882">
        <ele>544.20001220703</ele>
        <time>2017-07-20T06:10:28Z</time>
      </trkpt>
      <trkpt lat="48.171" lon="6.88217">
        <ele>544.20001220703</ele>
        <time>2017-07-20T06:10:31Z</time>
      </trkpt>
      <trkpt lat="48.17095" lon="6.88229">
        <ele>544</ele>
        <time>2017-07-20T06:10:33Z</time>
      </trkpt>
      <trkpt lat="48.17093" lon="6.88236">
        <ele>544</ele>
        <time>2017-07-20T06:10:34Z</time>
      </trkpt>
      <trkpt lat="48.17075" lon="6.8829">
        <ele>545</ele>
        <time>2017-07-20T06:10:43Z</time>
      </trkpt>
      <trkpt lat="48.17056" lon="6.88342">
        <ele>545.20001220703</ele>
        <time>2017-07-20T06:10:52Z</time>
      </trkpt>
      <trkpt lat="48.17045" lon="6.88371">
        <ele>545.20001220703</ele>
        <time>2017-07-20T06:10:57Z</time>
      </trkpt>
      <trkpt lat="48.17042" lon="6.88376">
        <ele>545.20001220703</ele>
        <time>2017-07-20T06:10:58Z</time>
      </trkpt>
      <trkpt lat="48.17021" lon="6.8843">
        <ele>545.40002441406</ele>
        <time>2017-07-20T06:11:07Z</time>
      </trkpt>
      <trkpt lat="48.17007" lon="6.88467">
        <ele>545.40002441406</ele>
        <time>2017-07-20T06:11:13Z</time>
      </trkpt>
      <trkpt lat="48.16998" lon="6.8849">
        <ele>545.59997558594</ele>
        <time>2017-07-20T06:11:17Z</time>
      </trkpt>
      <trkpt lat="48.16979" lon="6.8854">
        <ele>545.79998779297</ele>
        <time>2017-07-20T06:11:26Z</time>
      </trkpt>
      <trkpt lat="48.16971" lon="6.88564">
        <ele>546.40002441406</ele>
        <time>2017-07-20T06:11:30Z</time>
      </trkpt>
      <trkpt lat="48.1696" lon="6.88593">
        <ele>547.20001220703</ele>
        <time>2017-07-20T06:11:35Z</time>
      </trkpt>
      <trkpt lat="48.16956" lon="6.88605">
        <ele>547.40002441406</ele>
        <time>2017-07-20T06:11:37Z</time>
      </trkpt>
      <trkpt lat="48.16945" lon="6.88632">
        <ele>547.79998779297</ele>
        <time>2017-07-20T06:11:42Z</time>
      </trkpt>
      <trkpt lat="48.16931" lon="6.88672">
        <ele>548.20001220703</ele>
        <time>2017-07-20T06:11:49Z</time>
      </trkpt>
      <trkpt lat="48.1692" lon="6.88701">
        <ele>548.59997558594</ele>
        <time>2017-07-20T06:11:54Z</time>
      </trkpt>
      <trkpt lat="48.16914" lon="6.88718">
        <ele>549</ele>
        <time>2017-07-20T06:11:57Z</time>
      </trkpt>
      <trkpt lat="48.16903" lon="6.88748">
        <ele>549.59997558594</ele>
        <time>2017-07-20T06:12:02Z</time>
      </trkpt>
      <trkpt lat="48.16897" lon="6.88765">
        <ele>549.79998779297</ele>
        <time>2017-07-20T06:12:05Z</time>
      </trkpt>
      <trkpt lat="48.16883" lon="6.88799">
        <ele>550</ele>
        <time>2017-07-20T06:12:11Z</time>
      </trkpt>
      <trkpt lat="48.16878" lon="6.88816">
        <ele>550.20001220703</ele>
        <time>2017-07-20T06:12:14Z</time>
      </trkpt>
      <trkpt lat="48.1687" lon="6.88839">
        <ele>550.79998779297</ele>
        <time>2017-07-20T06:12:18Z</time>
      </trkpt>
      <trkpt lat="48.16861" lon="6.88861">
        <ele>551.40002441406</ele>
        <time>2017-07-20T06:12:22Z</time>
      </trkpt>
      <trkpt lat="48.16857" lon="6.88872">
        <ele>551.79998779297</ele>
        <time>2017-07-20T06:12:24Z</time>
      </trkpt>
      <trkpt lat="48.16842" lon="6.88911">
        <ele>551.79998779297</ele>
        <time>2017-07-20T06:12:31Z</time>
      </trkpt>
      <trkpt lat="48.16827" lon="6.8895">
        <ele>551.79998779297</ele>
        <time>2017-07-20T06:12:38Z</time>
      </trkpt>
      <trkpt lat="48.16809" lon="6.89001">
        <ele>552.20001220703</ele>
        <time>2017-07-20T06:12:47Z</time>
      </trkpt>
      <trkpt lat="48.16804" lon="6.89012">
        <ele>552.40002441406</ele>
        <time>2017-07-20T06:12:49Z</time>
      </trkpt>
      <trkpt lat="48.16794" lon="6.89041">
        <ele>552.79998779297</ele>
        <time>2017-07-20T06:12:54Z</time>
      </trkpt>
      <trkpt lat="48.16775" lon="6.89091">
        <ele>553.79998779297</ele>
        <time>2017-07-20T06:13:03Z</time>
      </trkpt>
      <trkpt lat="48.16773" lon="6.89097">
        <ele>554</ele>
        <time>2017-07-20T06:13:04Z</time>
      </trkpt>
      <trkpt lat="48.1676" lon="6.8913">
        <ele>554.59997558594</ele>
        <time>2017-07-20T06:13:10Z</time>
      </trkpt>
      <trkpt lat="48.16753" lon="6.89146">
        <ele>555</ele>
        <time>2017-07-20T06:13:13Z</time>
      </trkpt>
      <trkpt lat="48.16742" lon="6.89172">
        <ele>555.79998779297</ele>
        <time>2017-07-20T06:13:18Z</time>
      </trkpt>
      <trkpt lat="48.16737" lon="6.89182">
        <ele>556.20001220703</ele>
        <time>2017-07-20T06:13:20Z</time>
      </trkpt>
      <trkpt lat="48.16727" lon="6.89205">
        <ele>556.59997558594</ele>
        <time>2017-07-20T06:13:25Z</time>
      </trkpt>
      <trkpt lat="48.16715" lon="6.89234">
        <ele>557.20001220703</ele>
        <time>2017-07-20T06:13:31Z</time>
      </trkpt>
      <trkpt lat="48.16713" lon="6.89238">
        <ele>557.40002441406</ele>
        <time>2017-07-20T06:13:32Z</time>
      </trkpt>
      <trkpt lat="48.16699" lon="6.89269">
        <ele>558.20001220703</ele>
        <time>2017-07-20T06:13:39Z</time>
      </trkpt>
      <trkpt lat="48.16691" lon="6.89287">
        <ele>558.20001220703</ele>
        <time>2017-07-20T06:13:43Z</time>
      </trkpt>
      <trkpt lat="48.16675" lon="6.89328">
        <ele>559</ele>
        <time>2017-07-20T06:13:52Z</time>
      </trkpt>
      <trkpt lat="48.16672" lon="6.89338">
        <ele>559.20001220703</ele>
        <time>2017-07-20T06:13:54Z</time>
      </trkpt>
      <trkpt lat="48.16665" lon="6.89366">
        <ele>559.40002441406</ele>
        <time>2017-07-20T06:14:00Z</time>
      </trkpt>
      <trkpt lat="48.16657" lon="6.89406">
        <ele>560.40002441406</ele>
        <time>2017-07-20T06:14:08Z</time>
      </trkpt>
      <trkpt lat="48.16651" lon="6.89435">
        <ele>561.79998779297</ele>
        <time>2017-07-20T06:14:14Z</time>
      </trkpt>
      <trkpt lat="48.1665" lon="6.8944">
        <ele>562</ele>
        <time>2017-07-20T06:14:15Z</time>
      </trkpt>
      <trkpt lat="48.16636" lon="6.89484">
        <ele>562.20001220703</ele>
        <time>2017-07-20T06:14:24Z</time>
      </trkpt>
      <trkpt lat="48.16623" lon="6.89516">
        <ele>562.59997558594</ele>
        <time>2017-07-20T06:14:31Z</time>
      </trkpt>
      <trkpt lat="48.16616" lon="6.89529">
        <ele>562.79998779297</ele>
        <time>2017-07-20T06:14:34Z</time>
      </trkpt>
      <trkpt lat="48.16603" lon="6.89555">
        <ele>563.59997558594</ele>
        <time>2017-07-20T06:14:40Z</time>
      </trkpt>
      <trkpt lat="48.16596" lon="6.89568">
        <ele>563.79998779297</ele>
        <time>2017-07-20T06:14:43Z</time>
      </trkpt>
      <trkpt lat="48.16586" lon="6.89586">
        <ele>564.20001220703</ele>
        <time>2017-07-20T06:14:47Z</time>
      </trkpt>
      <trkpt lat="48.16579" lon="6.896">
        <ele>565</ele>
        <time>2017-07-20T06:14:50Z</time>
      </trkpt>
      <trkpt lat="48.1657" lon="6.8962">
        <ele>566</ele>
        <time>2017-07-20T06:14:54Z</time>
      </trkpt>
      <trkpt lat="48.16568" lon="6.89625">
        <ele>566.20001220703</ele>
        <time>2017-07-20T06:14:55Z</time>
      </trkpt>
      <trkpt lat="48.16561" lon="6.89648">
        <ele>567.20001220703</ele>
        <time>2017-07-20T06:14:59Z</time>
      </trkpt>
      <trkpt lat="48.16558" lon="6.89667">
        <ele>567.59997558594</ele>
        <time>2017-07-20T06:15:02Z</time>
      </trkpt>
      <trkpt lat="48.16554" lon="6.89686">
        <ele>568.20001220703</ele>
        <time>2017-07-20T06:15:05Z</time>
      </trkpt>
      <trkpt lat="48.16548" lon="6.89709">
        <ele>568.59997558594</ele>
        <time>2017-07-20T06:15:09Z</time>
      </trkpt>
      <trkpt lat="48.16538" lon="6.89744">
        <ele>569.20001220703</ele>
        <time>2017-07-20T06:15:15Z</time>
      </trkpt>
      <trkpt lat="48.16537" lon="6.8975">
        <ele>569.40002441406</ele>
        <time>2017-07-20T06:15:16Z</time>
      </trkpt>
      <trkpt lat="48.16521" lon="6.8979">
        <ele>570</ele>
        <time>2017-07-20T06:15:24Z</time>
      </trkpt>
      <trkpt lat="48.16515" lon="6.89799">
        <ele>570.40002441406</ele>
        <time>2017-07-20T06:15:26Z</time>
      </trkpt>
      <trkpt lat="48.16498" lon="6.89826">
        <ele>571.40002441406</ele>
        <time>2017-07-20T06:15:32Z</time>
      </trkpt>
      <trkpt lat="48.16495" lon="6.8983">
        <ele>571.59997558594</ele>
        <time>2017-07-20T06:15:33Z</time>
      </trkpt>
      <trkpt lat="48.16473" lon="6.89857">
        <ele>572.40002441406</ele>
        <time>2017-07-20T06:15:40Z</time>
      </trkpt>
      <trkpt lat="48.16466" lon="6.89864">
        <ele>572.59997558594</ele>
        <time>2017-07-20T06:15:42Z</time>
      </trkpt>
      <trkpt lat="48.16445" lon="6.89893">
        <ele>573.20001220703</ele>
        <time>2017-07-20T06:15:49Z</time>
      </trkpt>
      <trkpt lat="48.1644" lon="6.89902">
        <ele>573.79998779297</ele>
        <time>2017-07-20T06:15:51Z</time>
      </trkpt>
      <trkpt lat="48.16425" lon="6.89931">
        <ele>574.40002441406</ele>
        <time>2017-07-20T06:15:57Z</time>
      </trkpt>
      <trkpt lat="48.16421" lon="6.89941">
        <ele>574.79998779297</ele>
        <time>2017-07-20T06:15:59Z</time>
      </trkpt>
      <trkpt lat="48.16412" lon="6.89968">
        <ele>575.20001220703</ele>
        <time>2017-07-20T06:16:04Z</time>
      </trkpt>
      <trkpt lat="48.16408" lon="6.89991">
        <ele>576</ele>
        <time>2017-07-20T06:16:08Z</time>
      </trkpt>
      <trkpt lat="48.16404" lon="6.90012">
        <ele>577</ele>
        <time>2017-07-20T06:16:12Z</time>
      </trkpt>
      <trkpt lat="48.16404" lon="6.90018">
        <ele>577</ele>
        <time>2017-07-20T06:16:13Z</time>
      </trkpt>
      <trkpt lat="48.16402" lon="6.90047">
        <ele>578.20001220703</ele>
        <time>2017-07-20T06:16:18Z</time>
      </trkpt>
      <trkpt lat="48.16401" lon="6.90065">
        <ele>579.20001220703</ele>
        <time>2017-07-20T06:16:21Z</time>
      </trkpt>
      <trkpt lat="48.164" lon="6.9007">
        <ele>579.59997558594</ele>
        <time>2017-07-20T06:16:22Z</time>
      </trkpt>
      <trkpt lat="48.16399" lon="6.90088">
        <ele>580.79998779297</ele>
        <time>2017-07-20T06:16:25Z</time>
      </trkpt>
      <trkpt lat="48.16398" lon="6.90106">
        <ele>581.59997558594</ele>
        <time>2017-07-20T06:16:28Z</time>
      </trkpt>
      <trkpt lat="48.16394" lon="6.90164">
        <ele>581.59997558594</ele>
        <time>2017-07-20T06:16:38Z</time>
      </trkpt>
      <trkpt lat="48.16389" lon="6.90226">
        <ele>581.79998779297</ele>
        <time>2017-07-20T06:16:48Z</time>
      </trkpt>
      <trkpt lat="48.16389" lon="6.90232">
        <ele>581.79998779297</ele>
        <time>2017-07-20T06:16:49Z</time>
      </trkpt>
      <trkpt lat="48.16386" lon="6.9028">
        <ele>582.79998779297</ele>
        <time>2017-07-20T06:16:57Z</time>
      </trkpt>
      <trkpt lat="48.16385" lon="6.90286">
        <ele>583</ele>
        <time>2017-07-20T06:16:58Z</time>
      </trkpt>
      <trkpt lat="48.16382" lon="6.90329">
        <ele>584</ele>
        <time>2017-07-20T06:17:05Z</time>
      </trkpt>
      <trkpt lat="48.16381" lon="6.90341">
        <ele>584.40002441406</ele>
        <time>2017-07-20T06:17:07Z</time>
      </trkpt>
      <trkpt lat="48.16379" lon="6.90378">
        <ele>585</ele>
        <time>2017-07-20T06:17:13Z</time>
      </trkpt>
      <trkpt lat="48.16377" lon="6.90396">
        <ele>585.40002441406</ele>
        <time>2017-07-20T06:17:16Z</time>
      </trkpt>
      <trkpt lat="48.16375" lon="6.90433">
        <ele>586.20001220703</ele>
        <time>2017-07-20T06:17:22Z</time>
      </trkpt>
      <trkpt lat="48.16372" lon="6.90464">
        <ele>587</ele>
        <time>2017-07-20T06:17:27Z</time>
      </trkpt>
      <trkpt lat="48.16371" lon="6.9047">
        <ele>587.20001220703</ele>
        <time>2017-07-20T06:17:28Z</time>
      </trkpt>
      <trkpt lat="48.16365" lon="6.90498">
        <ele>588.40002441406</ele>
        <time>2017-07-20T06:17:33Z</time>
      </trkpt>
      <trkpt lat="48.16363" lon="6.90504">
        <ele>588.59997558594</ele>
        <time>2017-07-20T06:17:34Z</time>
      </trkpt>
      <trkpt lat="48.16354" lon="6.90537">
        <ele>589.40002441406</ele>
        <time>2017-07-20T06:17:40Z</time>
      </trkpt>
      <trkpt lat="48.16349" lon="6.90554">
        <ele>589.79998779297</ele>
        <time>2017-07-20T06:17:43Z</time>
      </trkpt>
      <trkpt lat="48.16343" lon="6.90582">
        <ele>590.59997558594</ele>
        <time>2017-07-20T06:17:48Z</time>
      </trkpt>
      <trkpt lat="48.1634" lon="6.90593">
        <ele>591</ele>
        <time>2017-07-20T06:17:50Z</time>
      </trkpt>
      <trkpt lat="48.16336" lon="6.90623">
        <ele>591.79998779297</ele>
        <time>2017-07-20T06:17:55Z</time>
      </trkpt>
      <trkpt lat="48.16334" lon="6.90634">
        <ele>592</ele>
        <time>2017-07-20T06:17:57Z</time>
      </trkpt>
      <trkpt lat="48.16332" lon="6.90675">
        <ele>592.79998779297</ele>
        <time>2017-07-20T06:18:04Z</time>
      </trkpt>
      <trkpt lat="48.16331" lon="6.9068">
        <ele>593</ele>
        <time>2017-07-20T06:18:05Z</time>
      </trkpt>
      <trkpt lat="48.16334" lon="6.90722">
        <ele>593.79998779297</ele>
        <time>2017-07-20T06:18:12Z</time>
      </trkpt>
      <trkpt lat="48.16334" lon="6.90728">
        <ele>593.79998779297</ele>
        <time>2017-07-20T06:18:13Z</time>
      </trkpt>
      <trkpt lat="48.16343" lon="6.9078">
        <ele>594.79998779297</ele>
        <time>2017-07-20T06:18:22Z</time>
      </trkpt>
      <trkpt lat="48.16356" lon="6.90823">
        <ele>595.20001220703</ele>
        <time>2017-07-20T06:18:30Z</time>
      </trkpt>
      <trkpt lat="48.16364" lon="6.90838">
        <ele>595.59997558594</ele>
        <time>2017-07-20T06:18:33Z</time>
      </trkpt>
      <trkpt lat="48.16368" lon="6.90849">
        <ele>595.79998779297</ele>
        <time>2017-07-20T06:18:35Z</time>
      </trkpt>
      <trkpt lat="48.16371" lon="6.90854">
        <ele>595.79998779297</ele>
        <time>2017-07-20T06:18:36Z</time>
      </trkpt>
      <trkpt lat="48.16374" lon="6.90859">
        <ele>596</ele>
        <time>2017-07-20T06:18:37Z</time>
      </trkpt>
      <trkpt lat="48.16388" lon="6.90883">
        <ele>596.59997558594</ele>
        <time>2017-07-20T06:18:42Z</time>
      </trkpt>
      <trkpt lat="48.16394" lon="6.90893">
        <ele>596.79998779297</ele>
        <time>2017-07-20T06:18:44Z</time>
      </trkpt>
      <trkpt lat="48.16399" lon="6.90903">
        <ele>597</ele>
        <time>2017-07-20T06:18:46Z</time>
      </trkpt>
      <trkpt lat="48.16419" lon="6.90938">
        <ele>597.59997558594</ele>
        <time>2017-07-20T06:18:53Z</time>
      </trkpt>
      <trkpt lat="48.16426" lon="6.90955">
        <ele>598.20001220703</ele>
        <time>2017-07-20T06:18:56Z</time>
      </trkpt>
      <trkpt lat="48.16435" lon="6.90982">
        <ele>598.79998779297</ele>
        <time>2017-07-20T06:19:01Z</time>
      </trkpt>
      <trkpt lat="48.16439" lon="6.90993">
        <ele>599.20001220703</ele>
        <time>2017-07-20T06:19:03Z</time>
      </trkpt>
      <trkpt lat="48.16444" lon="6.91016">
        <ele>599.59997558594</ele>
        <time>2017-07-20T06:19:07Z</time>
      </trkpt>
      <trkpt lat="48.16448" lon="6.91032">
        <ele>600.20001220703</ele>
        <time>2017-07-20T06:19:10Z</time>
      </trkpt>
      <trkpt lat="48.1645" lon="6.91054">
        <ele>600.59997558594</ele>
        <time>2017-07-20T06:19:14Z</time>
      </trkpt>
      <trkpt lat="48.1645" lon="6.91075">
        <ele>601.40002441406</ele>
        <time>2017-07-20T06:19:18Z</time>
      </trkpt>
      <trkpt lat="48.1645" lon="6.91095">
        <ele>602.20001220703</ele>
        <time>2017-07-20T06:19:22Z</time>
      </trkpt>
      <trkpt lat="48.1645" lon="6.911">
        <ele>602.40002441406</ele>
        <time>2017-07-20T06:19:23Z</time>
      </trkpt>
      <trkpt lat="48.16448" lon="6.91123">
        <ele>603.59997558594</ele>
        <time>2017-07-20T06:19:28Z</time>
      </trkpt>
      <trkpt lat="48.16447" lon="6.91128">
        <ele>603.79998779297</ele>
        <time>2017-07-20T06:19:29Z</time>
      </trkpt>
      <trkpt lat="48.16444" lon="6.9115">
        <ele>604.59997558594</ele>
        <time>2017-07-20T06:19:34Z</time>
      </trkpt>
      <trkpt lat="48.16443" lon="6.91155">
        <ele>604.79998779297</ele>
        <time>2017-07-20T06:19:35Z</time>
      </trkpt>
      <trkpt lat="48.16437" lon="6.91187">
        <ele>605.79998779297</ele>
        <time>2017-07-20T06:19:42Z</time>
      </trkpt>
      <trkpt lat="48.16436" lon="6.91196">
        <ele>606.20001220703</ele>
        <time>2017-07-20T06:19:44Z</time>
      </trkpt>
      <trkpt lat="48.16433" lon="6.9121">
        <ele>606.79998779297</ele>
        <time>2017-07-20T06:19:47Z</time>
      </trkpt>
      <trkpt lat="48.1643" lon="6.91228">
        <ele>607.79998779297</ele>
        <time>2017-07-20T06:19:51Z</time>
      </trkpt>
      <trkpt lat="48.16428" lon="6.91236">
        <ele>608</ele>
        <time>2017-07-20T06:19:53Z</time>
      </trkpt>
      <trkpt lat="48.16424" lon="6.91257">
        <ele>609</ele>
        <time>2017-07-20T06:19:58Z</time>
      </trkpt>
      <trkpt lat="48.16422" lon="6.91266">
        <ele>609.40002441406</ele>
        <time>2017-07-20T06:20:00Z</time>
      </trkpt>
      <trkpt lat="48.16418" lon="6.91288">
        <ele>610.20001220703</ele>
        <time>2017-07-20T06:20:05Z</time>
      </trkpt>
      <trkpt lat="48.16415" lon="6.91301">
        <ele>610.59997558594</ele>
        <time>2017-07-20T06:20:08Z</time>
      </trkpt>
      <trkpt lat="48.16411" lon="6.91323">
        <ele>611.20001220703</ele>
        <time>2017-07-20T06:20:13Z</time>
      </trkpt>
      <trkpt lat="48.16409" lon="6.91337">
        <ele>611.79998779297</ele>
        <time>2017-07-20T06:20:16Z</time>
      </trkpt>
      <trkpt lat="48.16408" lon="6.91351">
        <ele>612.20001220703</ele>
        <time>2017-07-20T06:20:19Z</time>
      </trkpt>
      <trkpt lat="48.16407" lon="6.91381">
        <ele>612.79998779297</ele>
        <time>2017-07-20T06:20:25Z</time>
      </trkpt>
      <trkpt lat="48.1641" lon="6.91407">
        <ele>613.40002441406</ele>
        <time>2017-07-20T06:20:30Z</time>
      </trkpt>
      <trkpt lat="48.16413" lon="6.91421">
        <ele>613.59997558594</ele>
        <time>2017-07-20T06:20:33Z</time>
      </trkpt>
      <trkpt lat="48.16421" lon="6.91448">
        <ele>614.40002441406</ele>
        <time>2017-07-20T06:20:39Z</time>
      </trkpt>
      <trkpt lat="48.16423" lon="6.91452">
        <ele>614.59997558594</ele>
        <time>2017-07-20T06:20:40Z</time>
      </trkpt>
      <trkpt lat="48.16431" lon="6.91474">
        <ele>615.20001220703</ele>
        <time>2017-07-20T06:20:45Z</time>
      </trkpt>
      <trkpt lat="48.16435" lon="6.91482">
        <ele>615.40002441406</ele>
        <time>2017-07-20T06:20:47Z</time>
      </trkpt>
      <trkpt lat="48.16444" lon="6.915">
        <ele>616</ele>
        <time>2017-07-20T06:20:51Z</time>
      </trkpt>
      <trkpt lat="48.16457" lon="6.91526">
        <ele>616.59997558594</ele>
        <time>2017-07-20T06:20:57Z</time>
      </trkpt>
      <trkpt lat="48.16462" lon="6.91534">
        <ele>616.59997558594</ele>
        <time>2017-07-20T06:20:59Z</time>
      </trkpt>
      <trkpt lat="48.16476" lon="6.9156">
        <ele>617.59997558594</ele>
        <time>2017-07-20T06:21:05Z</time>
      </trkpt>
      <trkpt lat="48.16479" lon="6.91564">
        <ele>617.79998779297</ele>
        <time>2017-07-20T06:21:06Z</time>
      </trkpt>
      <trkpt lat="48.1649" lon="6.91584">
        <ele>618.59997558594</ele>
        <time>2017-07-20T06:21:11Z</time>
      </trkpt>
      <trkpt lat="48.16493" lon="6.91592">
        <ele>618.79998779297</ele>
        <time>2017-07-20T06:21:13Z</time>
      </trkpt>
      <trkpt lat="48.16502" lon="6.9161">
        <ele>619.40002441406</ele>
        <time>2017-07-20T06:21:18Z</time>
      </trkpt>
      <trkpt lat="48.16519" lon="6.91648">
        <ele>620</ele>
        <time>2017-07-20T06:21:27Z</time>
      </trkpt>
      <trkpt lat="48.16535" lon="6.9169">
        <ele>621</ele>
        <time>2017-07-20T06:21:35Z</time>
      </trkpt>
      <trkpt lat="48.16556" lon="6.9174">
        <ele>621</ele>
        <time>2017-07-20T06:21:43Z</time>
      </trkpt>
      <trkpt lat="48.16561" lon="6.91755">
        <ele>620.79998779297</ele>
        <time>2017-07-20T06:21:46Z</time>
      </trkpt>
      <trkpt lat="48.16562" lon="6.91757">
        <ele>620</ele>
        <time>2017-07-20T06:22:10Z</time>
      </trkpt>
      <trkpt lat="48.16562" lon="6.91749">
        <ele>620.20001220703</ele>
        <time>2017-07-20T06:22:13Z</time>
      </trkpt>
      <trkpt lat="48.16557" lon="6.91735">
        <ele>621.20001220703</ele>
        <time>2017-07-20T06:22:17Z</time>
      </trkpt>
      <trkpt lat="48.16554" lon="6.91727">
        <ele>621.40002441406</ele>
        <time>2017-07-20T06:22:19Z</time>
      </trkpt>
      <trkpt lat="48.16545" lon="6.91702">
        <ele>621.79998779297</ele>
        <time>2017-07-20T06:22:26Z</time>
      </trkpt>
      <trkpt lat="48.16544" lon="6.917">
        <ele>622</ele>
        <time>2017-07-20T06:22:27Z</time>
      </trkpt>
      <trkpt lat="48.16541" lon="6.91691">
        <ele>622.40002441406</ele>
        <time>2017-07-20T06:22:31Z</time>
      </trkpt>
      <trkpt lat="48.1654" lon="6.9169">
        <ele>622.40002441406</ele>
        <time>2017-07-20T06:22:32Z</time>
      </trkpt>
      <trkpt lat="48.16539" lon="6.91686">
        <ele>622.40002441406</ele>
        <time>2017-07-20T06:22:35Z</time>
      </trkpt>
      <trkpt lat="48.1654" lon="6.91686">
        <ele>622.40002441406</ele>
        <time>2017-07-20T06:22:37Z</time>
      </trkpt>
      <trkpt lat="48.16542" lon="6.91697">
        <ele>621.59997558594</ele>
        <time>2017-07-20T06:22:59Z</time>
      </trkpt>
      <trkpt lat="48.16542" lon="6.91705">
        <ele>621.40002441406</ele>
        <time>2017-07-20T06:23:01Z</time>
      </trkpt>
      <trkpt lat="48.16548" lon="6.91724">
        <ele>621.40002441406</ele>
        <time>2017-07-20T06:23:05Z</time>
      </trkpt>
      <trkpt lat="48.1655" lon="6.91729">
        <ele>621.40002441406</ele>
        <time>2017-07-20T06:23:06Z</time>
      </trkpt>
      <trkpt lat="48.16559" lon="6.91754">
        <ele>621.20001220703</ele>
        <time>2017-07-20T06:23:10Z</time>
      </trkpt>
      <trkpt lat="48.16566" lon="6.91767">
        <ele>620.79998779297</ele>
        <time>2017-07-20T06:23:12Z</time>
      </trkpt>
      <trkpt lat="48.1658" lon="6.91797">
        <ele>620.20001220703</ele>
        <time>2017-07-20T06:23:16Z</time>
      </trkpt>
      <trkpt lat="48.16587" lon="6.91814">
        <ele>619.79998779297</ele>
        <time>2017-07-20T06:23:18Z</time>
      </trkpt>
      <trkpt lat="48.16598" lon="6.9184">
        <ele>618.59997558594</ele>
        <time>2017-07-20T06:23:21Z</time>
      </trkpt>
      <trkpt lat="48.16601" lon="6.91846">
        <ele>618.40002441406</ele>
        <time>2017-07-20T06:23:22Z</time>
      </trkpt>
      <trkpt lat="48.16613" lon="6.91874">
        <ele>617.20001220703</ele>
        <time>2017-07-20T06:23:27Z</time>
      </trkpt>
      <trkpt lat="48.16614" lon="6.9188">
        <ele>617</ele>
        <time>2017-07-20T06:23:28Z</time>
      </trkpt>
      <trkpt lat="48.16614" lon="6.91896">
        <ele>616.59997558594</ele>
        <time>2017-07-20T06:23:31Z</time>
      </trkpt>
      <trkpt lat="48.16612" lon="6.91905">
        <ele>616.79998779297</ele>
        <time>2017-07-20T06:24:04Z</time>
      </trkpt>
      <trkpt lat="48.16614" lon="6.91911">
        <ele>616.79998779297</ele>
        <time>2017-07-20T06:24:06Z</time>
      </trkpt>
      <trkpt lat="48.16616" lon="6.91914">
        <ele>616.79998779297</ele>
        <time>2017-07-20T06:24:07Z</time>
      </trkpt>
      <trkpt lat="48.16623" lon="6.91917">
        <ele>616.59997558594</ele>
        <time>2017-07-20T06:24:09Z</time>
      </trkpt>
      <trkpt lat="48.16649" lon="6.91922">
        <ele>616</ele>
        <time>2017-07-20T06:24:14Z</time>
      </trkpt>
      <trkpt lat="48.16683" lon="6.91923">
        <ele>614.79998779297</ele>
        <time>2017-07-20T06:24:19Z</time>
      </trkpt>
      <trkpt lat="48.16691" lon="6.91923">
        <ele>614.59997558594</ele>
        <time>2017-07-20T06:24:20Z</time>
      </trkpt>
      <trkpt lat="48.16714" lon="6.91923">
        <ele>613.79998779297</ele>
        <time>2017-07-20T06:24:23Z</time>
      </trkpt>
      <trkpt lat="48.16748" lon="6.91922">
        <ele>612.79998779297</ele>
        <time>2017-07-20T06:24:27Z</time>
      </trkpt>
      <trkpt lat="48.16772" lon="6.91923">
        <ele>611.59997558594</ele>
        <time>2017-07-20T06:24:30Z</time>
      </trkpt>
      <trkpt lat="48.16786" lon="6.91927">
        <ele>611</ele>
        <time>2017-07-20T06:24:32Z</time>
      </trkpt>
      <trkpt lat="48.16792" lon="6.91928">
        <ele>610.59997558594</ele>
        <time>2017-07-20T06:24:33Z</time>
      </trkpt>
      <trkpt lat="48.16804" lon="6.91932">
        <ele>609.40002441406</ele>
        <time>2017-07-20T06:24:36Z</time>
      </trkpt>
      <trkpt lat="48.16803" lon="6.91934">
        <ele>607</ele>
        <time>2017-07-20T06:24:56Z</time>
      </trkpt>
      <trkpt lat="48.16796" lon="6.9193">
        <ele>607</ele>
        <time>2017-07-20T06:25:00Z</time>
      </trkpt>
      <trkpt lat="48.16788" lon="6.91925">
        <ele>607.40002441406</ele>
        <time>2017-07-20T06:25:04Z</time>
      </trkpt>
      <trkpt lat="48.16787" lon="6.91921">
        <ele>607.40002441406</ele>
        <time>2017-07-20T06:25:05Z</time>
      </trkpt>
      <trkpt lat="48.16784" lon="6.91919">
        <ele>607.59997558594</ele>
        <time>2017-07-20T06:25:06Z</time>
      </trkpt>
      <trkpt lat="48.16778" lon="6.91917">
        <ele>607.79998779297</ele>
        <time>2017-07-20T06:25:08Z</time>
      </trkpt>
      <trkpt lat="48.16772" lon="6.91916">
        <ele>608.20001220703</ele>
        <time>2017-07-20T06:25:10Z</time>
      </trkpt>
      <trkpt lat="48.16751" lon="6.91914">
        <ele>609.20001220703</ele>
        <time>2017-07-20T06:25:17Z</time>
      </trkpt>
      <trkpt lat="48.16725" lon="6.91917">
        <ele>610.40002441406</ele>
        <time>2017-07-20T06:25:26Z</time>
      </trkpt>
      <trkpt lat="48.16722" lon="6.91918">
        <ele>610.40002441406</ele>
        <time>2017-07-20T06:25:27Z</time>
      </trkpt>
      <trkpt lat="48.167" lon="6.9192">
        <ele>611.40002441406</ele>
        <time>2017-07-20T06:25:35Z</time>
      </trkpt>
      <trkpt lat="48.16694" lon="6.91921">
        <ele>611.59997558594</ele>
        <time>2017-07-20T06:25:37Z</time>
      </trkpt>
      <trkpt lat="48.16668" lon="6.91919">
        <ele>612.59997558594</ele>
        <time>2017-07-20T06:25:46Z</time>
      </trkpt>
      <trkpt lat="48.16652" lon="6.91917">
        <ele>613.59997558594</ele>
        <time>2017-07-20T06:25:52Z</time>
      </trkpt>
      <trkpt lat="48.16644" lon="6.91917">
        <ele>613.79998779297</ele>
        <time>2017-07-20T06:25:55Z</time>
      </trkpt>
      <trkpt lat="48.16627" lon="6.91913">
        <ele>614.59997558594</ele>
        <time>2017-07-20T06:26:02Z</time>
      </trkpt>
      <trkpt lat="48.16622" lon="6.91911">
        <ele>614.79998779297</ele>
        <time>2017-07-20T06:26:04Z</time>
      </trkpt>
      <trkpt lat="48.1661" lon="6.91906">
        <ele>615.79998779297</ele>
        <time>2017-07-20T06:26:09Z</time>
      </trkpt>
      <trkpt lat="48.16601" lon="6.91901">
        <ele>616.59997558594</ele>
        <time>2017-07-20T06:26:13Z</time>
      </trkpt>
      <trkpt lat="48.16597" lon="6.91899">
        <ele>617</ele>
        <time>2017-07-20T06:26:15Z</time>
      </trkpt>
      <trkpt lat="48.16588" lon="6.91893">
        <ele>618.20001220703</ele>
        <time>2017-07-20T06:26:19Z</time>
      </trkpt>
      <trkpt lat="48.16581" lon="6.9189">
        <ele>618.40002441406</ele>
        <time>2017-07-20T06:26:22Z</time>
      </trkpt>
      <trkpt lat="48.1657" lon="6.91884">
        <ele>619.20001220703</ele>
        <time>2017-07-20T06:26:27Z</time>
      </trkpt>
      <trkpt lat="48.16559" lon="6.91877">
        <ele>620</ele>
        <time>2017-07-20T06:26:32Z</time>
      </trkpt>
      <trkpt lat="48.16555" lon="6.91875">
        <ele>620.40002441406</ele>
        <time>2017-07-20T06:26:34Z</time>
      </trkpt>
      <trkpt lat="48.16545" lon="6.91868">
        <ele>621.40002441406</ele>
        <time>2017-07-20T06:26:39Z</time>
      </trkpt>
      <trkpt lat="48.16534" lon="6.91869">
        <ele>622.40002441406</ele>
        <time>2017-07-20T06:26:45Z</time>
      </trkpt>
      <trkpt lat="48.16528" lon="6.91882">
        <ele>622.20001220703</ele>
        <time>2017-07-20T06:26:51Z</time>
      </trkpt>
      <trkpt lat="48.16527" lon="6.91905">
        <ele>622.59997558594</ele>
        <time>2017-07-20T06:26:58Z</time>
      </trkpt>
      <trkpt lat="48.16529" lon="6.91936">
        <ele>622.40002441406</ele>
        <time>2017-07-20T06:27:06Z</time>
      </trkpt>
      <trkpt lat="48.16531" lon="6.91956">
        <ele>622</ele>
        <time>2017-07-20T06:27:13Z</time>
      </trkpt>
      <trkpt lat="48.16533" lon="6.91961">
        <ele>621.79998779297</ele>
        <time>2017-07-20T06:29:38Z</time>
      </trkpt>
      <trkpt lat="48.16535" lon="6.91967">
        <ele>621.59997558594</ele>
        <time>2017-07-20T06:29:40Z</time>
      </trkpt>
      <trkpt lat="48.16538" lon="6.91992">
        <ele>622.20001220703</ele>
        <time>2017-07-20T06:29:46Z</time>
      </trkpt>
      <trkpt lat="48.16538" lon="6.92001">
        <ele>622.40002441406</ele>
        <time>2017-07-20T06:29:50Z</time>
      </trkpt>
      <trkpt lat="48.1654" lon="6.92">
        <ele>622.59997558594</ele>
        <time>2017-07-20T06:30:12Z</time>
      </trkpt>
      <trkpt lat="48.16539" lon="6.91994">
        <ele>622.79998779297</ele>
        <time>2017-07-20T06:30:14Z</time>
      </trkpt>
      <trkpt lat="48.16545" lon="6.9199">
        <ele>623</ele>
        <time>2017-07-20T06:30:17Z</time>
      </trkpt>
      <trkpt lat="48.16554" lon="6.92">
        <ele>622.59997558594</ele>
        <time>2017-07-20T06:30:20Z</time>
      </trkpt>
      <trkpt lat="48.16571" lon="6.92023">
        <ele>622.59997558594</ele>
        <time>2017-07-20T06:30:26Z</time>
      </trkpt>
      <trkpt lat="48.16589" lon="6.92051">
        <ele>623</ele>
        <time>2017-07-20T06:30:33Z</time>
      </trkpt>
      <trkpt lat="48.16597" lon="6.92062">
        <ele>623.59997558594</ele>
        <time>2017-07-20T06:30:37Z</time>
      </trkpt>
      <trkpt lat="48.16602" lon="6.92067">
        <ele>624.20001220703</ele>
        <time>2017-07-20T06:30:39Z</time>
      </trkpt>
      <trkpt lat="48.16605" lon="6.92069">
        <ele>624.79998779297</ele>
        <time>2017-07-20T06:30:40Z</time>
      </trkpt>
      <trkpt lat="48.16615" lon="6.92082">
        <ele>626</ele>
        <time>2017-07-20T06:30:45Z</time>
      </trkpt>
      <trkpt lat="48.16625" lon="6.9209">
        <ele>627</ele>
        <time>2017-07-20T06:30:49Z</time>
      </trkpt>
      <trkpt lat="48.16631" lon="6.92096">
        <ele>627.79998779297</ele>
        <time>2017-07-20T06:30:52Z</time>
      </trkpt>
      <trkpt lat="48.16635" lon="6.921">
        <ele>628.20001220703</ele>
        <time>2017-07-20T06:30:54Z</time>
      </trkpt>
      <trkpt lat="48.16645" lon="6.92112">
        <ele>629.59997558594</ele>
        <time>2017-07-20T06:30:59Z</time>
      </trkpt>
      <trkpt lat="48.16656" lon="6.92127">
        <ele>631</ele>
        <time>2017-07-20T06:31:05Z</time>
      </trkpt>
      <trkpt lat="48.16663" lon="6.92139">
        <ele>632</ele>
        <time>2017-07-20T06:31:09Z</time>
      </trkpt>
      <trkpt lat="48.16665" lon="6.92146">
        <ele>632.59997558594</ele>
        <time>2017-07-20T06:31:11Z</time>
      </trkpt>
      <trkpt lat="48.16668" lon="6.92158">
        <ele>633</ele>
        <time>2017-07-20T06:31:14Z</time>
      </trkpt>
      <trkpt lat="48.16673" lon="6.92174">
        <ele>633.40002441406</ele>
        <time>2017-07-20T06:31:18Z</time>
      </trkpt>
      <trkpt lat="48.16682" lon="6.92199">
        <ele>634</ele>
        <time>2017-07-20T06:31:24Z</time>
      </trkpt>
      <trkpt lat="48.16686" lon="6.92208">
        <ele>634.20001220703</ele>
        <time>2017-07-20T06:31:26Z</time>
      </trkpt>
      <trkpt lat="48.16704" lon="6.92241">
        <ele>633.79998779297</ele>
        <time>2017-07-20T06:31:32Z</time>
      </trkpt>
      <trkpt lat="48.16724" lon="6.92276">
        <ele>633</ele>
        <time>2017-07-20T06:31:37Z</time>
      </trkpt>
      <trkpt lat="48.16728" lon="6.92284">
        <ele>632.79998779297</ele>
        <time>2017-07-20T06:31:38Z</time>
      </trkpt>
      <trkpt lat="48.16738" lon="6.92308">
        <ele>632</ele>
        <time>2017-07-20T06:31:41Z</time>
      </trkpt>
      <trkpt lat="48.16745" lon="6.92324">
        <ele>631.20001220703</ele>
        <time>2017-07-20T06:31:43Z</time>
      </trkpt>
      <trkpt lat="48.16748" lon="6.92332">
        <ele>630.79998779297</ele>
        <time>2017-07-20T06:31:44Z</time>
      </trkpt>
      <trkpt lat="48.16758" lon="6.92359">
        <ele>629.59997558594</ele>
        <time>2017-07-20T06:31:47Z</time>
      </trkpt>
      <trkpt lat="48.16762" lon="6.92368">
        <ele>629</ele>
        <time>2017-07-20T06:31:48Z</time>
      </trkpt>
      <trkpt lat="48.16768" lon="6.92386">
        <ele>628.20001220703</ele>
        <time>2017-07-20T06:31:50Z</time>
      </trkpt>
      <trkpt lat="48.16776" lon="6.92414">
        <ele>626.20001220703</ele>
        <time>2017-07-20T06:31:53Z</time>
      </trkpt>
      <trkpt lat="48.16778" lon="6.92424">
        <ele>625.79998779297</ele>
        <time>2017-07-20T06:31:54Z</time>
      </trkpt>
      <trkpt lat="48.1678" lon="6.92434">
        <ele>625.40002441406</ele>
        <time>2017-07-20T06:31:55Z</time>
      </trkpt>
      <trkpt lat="48.16781" lon="6.92446">
        <ele>624.79998779297</ele>
        <time>2017-07-20T06:31:56Z</time>
      </trkpt>
      <trkpt lat="48.16785" lon="6.92471">
        <ele>624</ele>
        <time>2017-07-20T06:31:58Z</time>
      </trkpt>
      <trkpt lat="48.16787" lon="6.92484">
        <ele>623.20001220703</ele>
        <time>2017-07-20T06:31:59Z</time>
      </trkpt>
      <trkpt lat="48.16791" lon="6.92513">
        <ele>621.79998779297</ele>
        <time>2017-07-20T06:32:01Z</time>
      </trkpt>
      <trkpt lat="48.16794" lon="6.92542">
        <ele>620.40002441406</ele>
        <time>2017-07-20T06:32:03Z</time>
      </trkpt>
      <trkpt lat="48.168" lon="6.92569">
        <ele>618.79998779297</ele>
        <time>2017-07-20T06:32:05Z</time>
      </trkpt>
      <trkpt lat="48.16808" lon="6.92597">
        <ele>617.40002441406</ele>
        <time>2017-07-20T06:32:07Z</time>
      </trkpt>
      <trkpt lat="48.16817" lon="6.92624">
        <ele>616.20001220703</ele>
        <time>2017-07-20T06:32:09Z</time>
      </trkpt>
      <trkpt lat="48.16826" lon="6.92651">
        <ele>615</ele>
        <time>2017-07-20T06:32:11Z</time>
      </trkpt>
      <trkpt lat="48.1684" lon="6.9269">
        <ele>613.79998779297</ele>
        <time>2017-07-20T06:32:14Z</time>
      </trkpt>
      <trkpt lat="48.16852" lon="6.92728">
        <ele>612.40002441406</ele>
        <time>2017-07-20T06:32:17Z</time>
      </trkpt>
      <trkpt lat="48.16862" lon="6.92762">
        <ele>611.59997558594</ele>
        <time>2017-07-20T06:32:20Z</time>
      </trkpt>
      <trkpt lat="48.16868" lon="6.92783">
        <ele>611.20001220703</ele>
        <time>2017-07-20T06:32:22Z</time>
      </trkpt>
      <trkpt lat="48.16878" lon="6.92826">
        <ele>610.79998779297</ele>
        <time>2017-07-20T06:32:26Z</time>
      </trkpt>
      <trkpt lat="48.16888" lon="6.9287">
        <ele>610.20001220703</ele>
        <time>2017-07-20T06:32:30Z</time>
      </trkpt>
      <trkpt lat="48.16898" lon="6.92916">
        <ele>609.40002441406</ele>
        <time>2017-07-20T06:32:34Z</time>
      </trkpt>
      <trkpt lat="48.169" lon="6.92928">
        <ele>609.20001220703</ele>
        <time>2017-07-20T06:32:35Z</time>
      </trkpt>
      <trkpt lat="48.16909" lon="6.92964">
        <ele>608</ele>
        <time>2017-07-20T06:32:38Z</time>
      </trkpt>
      <trkpt lat="48.16914" lon="6.92983">
        <ele>607.20001220703</ele>
        <time>2017-07-20T06:32:40Z</time>
      </trkpt>
      <trkpt lat="48.16916" lon="6.92992">
        <ele>606.40002441406</ele>
        <time>2017-07-20T06:32:41Z</time>
      </trkpt>
      <trkpt lat="48.16914" lon="6.93009">
        <ele>605.40002441406</ele>
        <time>2017-07-20T06:32:43Z</time>
      </trkpt>
      <trkpt lat="48.16906" lon="6.93019">
        <ele>604</ele>
        <time>2017-07-20T06:32:45Z</time>
      </trkpt>
      <trkpt lat="48.16902" lon="6.93021">
        <ele>603.40002441406</ele>
        <time>2017-07-20T06:32:46Z</time>
      </trkpt>
      <trkpt lat="48.16897" lon="6.93022">
        <ele>603</ele>
        <time>2017-07-20T06:32:47Z</time>
      </trkpt>
      <trkpt lat="48.16892" lon="6.93022">
        <ele>602.79998779297</ele>
        <time>2017-07-20T06:32:48Z</time>
      </trkpt>
      <trkpt lat="48.16879" lon="6.93026">
        <ele>602.59997558594</ele>
        <time>2017-07-20T06:32:51Z</time>
      </trkpt>
      <trkpt lat="48.1685" lon="6.93025">
        <ele>602.79998779297</ele>
        <time>2017-07-20T06:32:56Z</time>
      </trkpt>
      <trkpt lat="48.1683" lon="6.93027">
        <ele>602.59997558594</ele>
        <time>2017-07-20T06:32:59Z</time>
      </trkpt>
      <trkpt lat="48.16811" lon="6.93034">
        <ele>602</ele>
        <time>2017-07-20T06:33:02Z</time>
      </trkpt>
      <trkpt lat="48.16779" lon="6.93056">
        <ele>601.40002441406</ele>
        <time>2017-07-20T06:33:07Z</time>
      </trkpt>
      <trkpt lat="48.16766" lon="6.93068">
        <ele>600.79998779297</ele>
        <time>2017-07-20T06:33:09Z</time>
      </trkpt>
      <trkpt lat="48.16761" lon="6.93076">
        <ele>600.59997558594</ele>
        <time>2017-07-20T06:33:10Z</time>
      </trkpt>
      <trkpt lat="48.1675" lon="6.93093">
        <ele>600.20001220703</ele>
        <time>2017-07-20T06:33:12Z</time>
      </trkpt>
      <trkpt lat="48.16724" lon="6.93135">
        <ele>600</ele>
        <time>2017-07-20T06:33:18Z</time>
      </trkpt>
      <trkpt lat="48.16704" lon="6.93158">
        <ele>600.79998779297</ele>
        <time>2017-07-20T06:33:23Z</time>
      </trkpt>
      <trkpt lat="48.16687" lon="6.93172">
        <ele>601.79998779297</ele>
        <time>2017-07-20T06:33:28Z</time>
      </trkpt>
      <trkpt lat="48.16684" lon="6.93174">
        <ele>602.20001220703</ele>
        <time>2017-07-20T06:33:29Z</time>
      </trkpt>
      <trkpt lat="48.16669" lon="6.93184">
        <ele>603.20001220703</ele>
        <time>2017-07-20T06:33:34Z</time>
      </trkpt>
      <trkpt lat="48.16653" lon="6.93191">
        <ele>603.79998779297</ele>
        <time>2017-07-20T06:33:39Z</time>
      </trkpt>
      <trkpt lat="48.16644" lon="6.93195">
        <ele>604.20001220703</ele>
        <time>2017-07-20T06:33:42Z</time>
      </trkpt>
      <trkpt lat="48.16632" lon="6.93198">
        <ele>604.79998779297</ele>
        <time>2017-07-20T06:33:46Z</time>
      </trkpt>
      <trkpt lat="48.16623" lon="6.93199">
        <ele>605.20001220703</ele>
        <time>2017-07-20T06:33:49Z</time>
      </trkpt>
      <trkpt lat="48.16617" lon="6.93202">
        <ele>605.59997558594</ele>
        <time>2017-07-20T06:33:52Z</time>
      </trkpt>
      <trkpt lat="48.16609" lon="6.93207">
        <ele>606.40002441406</ele>
        <time>2017-07-20T06:33:55Z</time>
      </trkpt>
      <trkpt lat="48.16605" lon="6.93217">
        <ele>606.59997558594</ele>
        <time>2017-07-20T06:33:57Z</time>
      </trkpt>
      <trkpt lat="48.16604" lon="6.93245">
        <ele>607</ele>
        <time>2017-07-20T06:34:01Z</time>
      </trkpt>
      <trkpt lat="48.16606" lon="6.93265">
        <ele>607.40002441406</ele>
        <time>2017-07-20T06:34:04Z</time>
      </trkpt>
      <trkpt lat="48.16607" lon="6.93301">
        <ele>607.59997558594</ele>
        <time>2017-07-20T06:34:09Z</time>
      </trkpt>
      <trkpt lat="48.16599" lon="6.93337">
        <ele>607.59997558594</ele>
        <time>2017-07-20T06:34:14Z</time>
      </trkpt>
      <trkpt lat="48.16591" lon="6.93357">
        <ele>607.20001220703</ele>
        <time>2017-07-20T06:34:17Z</time>
      </trkpt>
      <trkpt lat="48.1658" lon="6.93374">
        <ele>607</ele>
        <time>2017-07-20T06:34:20Z</time>
      </trkpt>
      <trkpt lat="48.16558" lon="6.93396">
        <ele>606.59997558594</ele>
        <time>2017-07-20T06:34:25Z</time>
      </trkpt>
      <trkpt lat="48.16553" lon="6.93399">
        <ele>606.59997558594</ele>
        <time>2017-07-20T06:34:26Z</time>
      </trkpt>
      <trkpt lat="48.16533" lon="6.93417">
        <ele>606.40002441406</ele>
        <time>2017-07-20T06:34:30Z</time>
      </trkpt>
      <trkpt lat="48.16523" lon="6.9343">
        <ele>606</ele>
        <time>2017-07-20T06:34:32Z</time>
      </trkpt>
      <trkpt lat="48.1651" lon="6.93462">
        <ele>605.40002441406</ele>
        <time>2017-07-20T06:34:36Z</time>
      </trkpt>
      <trkpt lat="48.16507" lon="6.9347">
        <ele>605.40002441406</ele>
        <time>2017-07-20T06:34:37Z</time>
      </trkpt>
      <trkpt lat="48.16504" lon="6.93503">
        <ele>605</ele>
        <time>2017-07-20T06:34:41Z</time>
      </trkpt>
      <trkpt lat="48.16504" lon="6.93511">
        <ele>605</ele>
        <time>2017-07-20T06:34:42Z</time>
      </trkpt>
      <trkpt lat="48.16505" lon="6.9352">
        <ele>605</ele>
        <time>2017-07-20T06:34:43Z</time>
      </trkpt>
      <trkpt lat="48.1651" lon="6.93545">
        <ele>605</ele>
        <time>2017-07-20T06:34:46Z</time>
      </trkpt>
      <trkpt lat="48.16525" lon="6.93585">
        <ele>604.59997558594</ele>
        <time>2017-07-20T06:34:50Z</time>
      </trkpt>
      <trkpt lat="48.16534" lon="6.93608">
        <ele>604</ele>
        <time>2017-07-20T06:34:52Z</time>
      </trkpt>
      <trkpt lat="48.16541" lon="6.93634">
        <ele>603</ele>
        <time>2017-07-20T06:34:54Z</time>
      </trkpt>
      <trkpt lat="48.16542" lon="6.93648">
        <ele>602.40002441406</ele>
        <time>2017-07-20T06:34:55Z</time>
      </trkpt>
      <trkpt lat="48.16543" lon="6.93662">
        <ele>601.59997558594</ele>
        <time>2017-07-20T06:34:56Z</time>
      </trkpt>
      <trkpt lat="48.16545" lon="6.93688">
        <ele>600.59997558594</ele>
        <time>2017-07-20T06:34:58Z</time>
      </trkpt>
      <trkpt lat="48.16545" lon="6.93714">
        <ele>600</ele>
        <time>2017-07-20T06:35:00Z</time>
      </trkpt>
      <trkpt lat="48.16542" lon="6.93759">
        <ele>599.59997558594</ele>
        <time>2017-07-20T06:35:04Z</time>
      </trkpt>
      <trkpt lat="48.16541" lon="6.9377">
        <ele>599.59997558594</ele>
        <time>2017-07-20T06:35:05Z</time>
      </trkpt>
      <trkpt lat="48.1654" lon="6.9378">
        <ele>599.59997558594</ele>
        <time>2017-07-20T06:35:06Z</time>
      </trkpt>
      <trkpt lat="48.16532" lon="6.93811">
        <ele>599.40002441406</ele>
        <time>2017-07-20T06:35:09Z</time>
      </trkpt>
      <trkpt lat="48.16515" lon="6.93859">
        <ele>598.40002441406</ele>
        <time>2017-07-20T06:35:14Z</time>
      </trkpt>
      <trkpt lat="48.1651" lon="6.93867">
        <ele>598.20001220703</ele>
        <time>2017-07-20T06:35:15Z</time>
      </trkpt>
      <trkpt lat="48.16506" lon="6.93875">
        <ele>598</ele>
        <time>2017-07-20T06:35:16Z</time>
      </trkpt>
      <trkpt lat="48.16483" lon="6.93903">
        <ele>597.59997558594</ele>
        <time>2017-07-20T06:35:20Z</time>
      </trkpt>
      <trkpt lat="48.16477" lon="6.93908">
        <ele>597.40002441406</ele>
        <time>2017-07-20T06:35:21Z</time>
      </trkpt>
      <trkpt lat="48.16438" lon="6.93937">
        <ele>596.59997558594</ele>
        <time>2017-07-20T06:35:27Z</time>
      </trkpt>
      <trkpt lat="48.16405" lon="6.93958">
        <ele>597</ele>
        <time>2017-07-20T06:35:33Z</time>
      </trkpt>
      <trkpt lat="48.16365" lon="6.93979">
        <ele>597.79998779297</ele>
        <time>2017-07-20T06:35:41Z</time>
      </trkpt>
      <trkpt lat="48.1634" lon="6.93999">
        <ele>598.59997558594</ele>
        <time>2017-07-20T06:35:47Z</time>
      </trkpt>
      <trkpt lat="48.16331" lon="6.94004">
        <ele>598.79998779297</ele>
        <time>2017-07-20T06:35:49Z</time>
      </trkpt>
      <trkpt lat="48.16318" lon="6.94005">
        <ele>599.20001220703</ele>
        <time>2017-07-20T06:35:52Z</time>
      </trkpt>
      <trkpt lat="48.16314" lon="6.94006">
        <ele>599.59997558594</ele>
        <time>2017-07-20T06:35:53Z</time>
      </trkpt>
      <trkpt lat="48.16298" lon="6.94011">
        <ele>600.40002441406</ele>
        <time>2017-07-20T06:35:57Z</time>
      </trkpt>
      <trkpt lat="48.1629" lon="6.94014">
        <ele>600.79998779297</ele>
        <time>2017-07-20T06:35:59Z</time>
      </trkpt>
      <trkpt lat="48.16277" lon="6.94017">
        <ele>601.40002441406</ele>
        <time>2017-07-20T06:36:03Z</time>
      </trkpt>
      <trkpt lat="48.16271" lon="6.94018">
        <ele>601.79998779297</ele>
        <time>2017-07-20T06:36:05Z</time>
      </trkpt>
      <trkpt lat="48.16256" lon="6.94022">
        <ele>602.79998779297</ele>
        <time>2017-07-20T06:36:10Z</time>
      </trkpt>
      <trkpt lat="48.16241" lon="6.94031">
        <ele>604</ele>
        <time>2017-07-20T06:36:16Z</time>
      </trkpt>
      <trkpt lat="48.16234" lon="6.94041">
        <ele>604.79998779297</ele>
        <time>2017-07-20T06:36:20Z</time>
      </trkpt>
      <trkpt lat="48.16232" lon="6.94043">
        <ele>605</ele>
        <time>2017-07-20T06:36:21Z</time>
      </trkpt>
      <trkpt lat="48.1623" lon="6.94046">
        <ele>605.20001220703</ele>
        <time>2017-07-20T06:36:22Z</time>
      </trkpt>
      <trkpt lat="48.16221" lon="6.94061">
        <ele>606.20001220703</ele>
        <time>2017-07-20T06:36:27Z</time>
      </trkpt>
      <trkpt lat="48.16217" lon="6.94066">
        <ele>606.40002441406</ele>
        <time>2017-07-20T06:36:29Z</time>
      </trkpt>
      <trkpt lat="48.16209" lon="6.94078">
        <ele>607.20001220703</ele>
        <time>2017-07-20T06:36:34Z</time>
      </trkpt>
      <trkpt lat="48.16207" lon="6.9408">
        <ele>607.40002441406</ele>
        <time>2017-07-20T06:36:35Z</time>
      </trkpt>
      <trkpt lat="48.162" lon="6.94091">
        <ele>608.40002441406</ele>
        <time>2017-07-20T06:36:40Z</time>
      </trkpt>
      <trkpt lat="48.16197" lon="6.94096">
        <ele>609</ele>
        <time>2017-07-20T06:36:42Z</time>
      </trkpt>
      <trkpt lat="48.16194" lon="6.941">
        <ele>609.40002441406</ele>
        <time>2017-07-20T06:36:44Z</time>
      </trkpt>
      <trkpt lat="48.1619" lon="6.94113">
        <ele>610.59997558594</ele>
        <time>2017-07-20T06:36:49Z</time>
      </trkpt>
      <trkpt lat="48.16189" lon="6.94128">
        <ele>611.59997558594</ele>
        <time>2017-07-20T06:36:54Z</time>
      </trkpt>
      <trkpt lat="48.16186" lon="6.94136">
        <ele>612.40002441406</ele>
        <time>2017-07-20T06:36:57Z</time>
      </trkpt>
      <trkpt lat="48.16186" lon="6.94139">
        <ele>612.79998779297</ele>
        <time>2017-07-20T06:36:58Z</time>
      </trkpt>
      <trkpt lat="48.16186" lon="6.94141">
        <ele>612.79998779297</ele>
        <time>2017-07-20T06:36:59Z</time>
      </trkpt>
      <trkpt lat="48.16183" lon="6.94148">
        <ele>613.20001220703</ele>
        <time>2017-07-20T06:37:02Z</time>
      </trkpt>
      <trkpt lat="48.16179" lon="6.94154">
        <ele>614.40002441406</ele>
        <time>2017-07-20T06:37:05Z</time>
      </trkpt>
      <trkpt lat="48.16173" lon="6.94167">
        <ele>615.40002441406</ele>
        <time>2017-07-20T06:37:10Z</time>
      </trkpt>
      <trkpt lat="48.16172" lon="6.9417">
        <ele>615.59997558594</ele>
        <time>2017-07-20T06:37:11Z</time>
      </trkpt>
      <trkpt lat="48.16162" lon="6.94192">
        <ele>616.40002441406</ele>
        <time>2017-07-20T06:37:18Z</time>
      </trkpt>
      <trkpt lat="48.1615" lon="6.94222">
        <ele>616.59997558594</ele>
        <time>2017-07-20T06:37:24Z</time>
      </trkpt>
      <trkpt lat="48.16149" lon="6.94227">
        <ele>616.59997558594</ele>
        <time>2017-07-20T06:37:25Z</time>
      </trkpt>
      <trkpt lat="48.16146" lon="6.94257">
        <ele>617</ele>
        <time>2017-07-20T06:37:31Z</time>
      </trkpt>
      <trkpt lat="48.16146" lon="6.94275">
        <ele>617.79998779297</ele>
        <time>2017-07-20T06:37:35Z</time>
      </trkpt>
      <trkpt lat="48.16148" lon="6.94284">
        <ele>618</ele>
        <time>2017-07-20T06:37:37Z</time>
      </trkpt>
      <trkpt lat="48.16153" lon="6.94309">
        <ele>618.79998779297</ele>
        <time>2017-07-20T06:37:42Z</time>
      </trkpt>
      <trkpt lat="48.16156" lon="6.94327">
        <ele>619.20001220703</ele>
        <time>2017-07-20T06:37:45Z</time>
      </trkpt>
      <trkpt lat="48.16165" lon="6.94372">
        <ele>619.79998779297</ele>
        <time>2017-07-20T06:37:53Z</time>
      </trkpt>
      <trkpt lat="48.16167" lon="6.94385">
        <ele>619.79998779297</ele>
        <time>2017-07-20T06:37:55Z</time>
      </trkpt>
      <trkpt lat="48.1617" lon="6.94397">
        <ele>619.79998779297</ele>
        <time>2017-07-20T06:37:57Z</time>
      </trkpt>
      <trkpt lat="48.16176" lon="6.94407">
        <ele>620</ele>
        <time>2017-07-20T06:37:59Z</time>
      </trkpt>
      <trkpt lat="48.16192" lon="6.94416">
        <ele>620</ele>
        <time>2017-07-20T06:38:03Z</time>
      </trkpt>
      <trkpt lat="48.16202" lon="6.94419">
        <ele>619.79998779297</ele>
        <time>2017-07-20T06:38:05Z</time>
      </trkpt>
      <trkpt lat="48.16214" lon="6.94417">
        <ele>619.59997558594</ele>
        <time>2017-07-20T06:38:07Z</time>
      </trkpt>
      <trkpt lat="48.16228" lon="6.94418">
        <ele>619.40002441406</ele>
        <time>2017-07-20T06:38:09Z</time>
      </trkpt>
      <trkpt lat="48.16242" lon="6.94422">
        <ele>619.20001220703</ele>
        <time>2017-07-20T06:38:11Z</time>
      </trkpt>
      <trkpt lat="48.16258" lon="6.94425">
        <ele>618.59997558594</ele>
        <time>2017-07-20T06:38:13Z</time>
      </trkpt>
      <trkpt lat="48.16281" lon="6.94431">
        <ele>617.40002441406</ele>
        <time>2017-07-20T06:38:16Z</time>
      </trkpt>
      <trkpt lat="48.16288" lon="6.94434">
        <ele>616.59997558594</ele>
        <time>2017-07-20T06:38:17Z</time>
      </trkpt>
      <trkpt lat="48.16301" lon="6.94443">
        <ele>616.20001220703</ele>
        <time>2017-07-20T06:38:19Z</time>
      </trkpt>
      <trkpt lat="48.16306" lon="6.94448">
        <ele>616.20001220703</ele>
        <time>2017-07-20T06:38:20Z</time>
      </trkpt>
      <trkpt lat="48.16324" lon="6.94473">
        <ele>615.79998779297</ele>
        <time>2017-07-20T06:38:24Z</time>
      </trkpt>
      <trkpt lat="48.16345" lon="6.94507">
        <ele>616.20001220703</ele>
        <time>2017-07-20T06:38:30Z</time>
      </trkpt>
      <trkpt lat="48.16369" lon="6.94529">
        <ele>617.40002441406</ele>
        <time>2017-07-20T06:38:36Z</time>
      </trkpt>
      <trkpt lat="48.16373" lon="6.94532">
        <ele>617.59997558594</ele>
        <time>2017-07-20T06:38:37Z</time>
      </trkpt>
      <trkpt lat="48.16383" lon="6.94545">
        <ele>618.20001220703</ele>
        <time>2017-07-20T06:38:40Z</time>
      </trkpt>
      <trkpt lat="48.16387" lon="6.9455">
        <ele>618.40002441406</ele>
        <time>2017-07-20T06:38:41Z</time>
      </trkpt>
      <trkpt lat="48.16394" lon="6.94559">
        <ele>618.59997558594</ele>
        <time>2017-07-20T06:38:43Z</time>
      </trkpt>
      <trkpt lat="48.16418" lon="6.94586">
        <ele>619.40002441406</ele>
        <time>2017-07-20T06:38:49Z</time>
      </trkpt>
      <trkpt lat="48.16422" lon="6.9459">
        <ele>619.40002441406</ele>
        <time>2017-07-20T06:38:50Z</time>
      </trkpt>
      <trkpt lat="48.16434" lon="6.94603">
        <ele>619.79998779297</ele>
        <time>2017-07-20T06:38:53Z</time>
      </trkpt>
      <trkpt lat="48.16442" lon="6.94611">
        <ele>619.79998779297</ele>
        <time>2017-07-20T06:38:55Z</time>
      </trkpt>
      <trkpt lat="48.16445" lon="6.94617">
        <ele>619.79998779297</ele>
        <time>2017-07-20T06:38:56Z</time>
      </trkpt>
      <trkpt lat="48.16465" lon="6.94642">
        <ele>620.20001220703</ele>
        <time>2017-07-20T06:39:02Z</time>
      </trkpt>
      <trkpt lat="48.16468" lon="6.94647">
        <ele>620.40002441406</ele>
        <time>2017-07-20T06:39:03Z</time>
      </trkpt>
      <trkpt lat="48.16471" lon="6.94652">
        <ele>620.40002441406</ele>
        <time>2017-07-20T06:39:04Z</time>
      </trkpt>
      <trkpt lat="48.16477" lon="6.9466">
        <ele>620.79998779297</ele>
        <time>2017-07-20T06:39:06Z</time>
      </trkpt>
      <trkpt lat="48.1648" lon="6.94664">
        <ele>620.79998779297</ele>
        <time>2017-07-20T06:39:07Z</time>
      </trkpt>
      <trkpt lat="48.16492" lon="6.9468">
        <ele>621.20001220703</ele>
        <time>2017-07-20T06:39:11Z</time>
      </trkpt>
      <trkpt lat="48.16499" lon="6.94688">
        <ele>621.40002441406</ele>
        <time>2017-07-20T06:39:13Z</time>
      </trkpt>
      <trkpt lat="48.16505" lon="6.94696">
        <ele>621.59997558594</ele>
        <time>2017-07-20T06:39:15Z</time>
      </trkpt>
      <trkpt lat="48.16517" lon="6.94712">
        <ele>621.79998779297</ele>
        <time>2017-07-20T06:39:19Z</time>
      </trkpt>
      <trkpt lat="48.16537" lon="6.94745">
        <ele>622.40002441406</ele>
        <time>2017-07-20T06:39:26Z</time>
      </trkpt>
      <trkpt lat="48.16544" lon="6.9476">
        <ele>622.59997558594</ele>
        <time>2017-07-20T06:39:29Z</time>
      </trkpt>
      <trkpt lat="48.16555" lon="6.94783">
        <ele>623.40002441406</ele>
        <time>2017-07-20T06:39:34Z</time>
      </trkpt>
      <trkpt lat="48.16559" lon="6.94793">
        <ele>623.59997558594</ele>
        <time>2017-07-20T06:39:36Z</time>
      </trkpt>
      <trkpt lat="48.16572" lon="6.94814">
        <ele>624.59997558594</ele>
        <time>2017-07-20T06:39:41Z</time>
      </trkpt>
      <trkpt lat="48.16574" lon="6.94818">
        <ele>624.79998779297</ele>
        <time>2017-07-20T06:39:42Z</time>
      </trkpt>
      <trkpt lat="48.1659" lon="6.9484">
        <ele>625.79998779297</ele>
        <time>2017-07-20T06:39:47Z</time>
      </trkpt>
      <trkpt lat="48.16593" lon="6.94844">
        <ele>626</ele>
        <time>2017-07-20T06:39:48Z</time>
      </trkpt>
      <trkpt lat="48.16611" lon="6.94864">
        <ele>626.79998779297</ele>
        <time>2017-07-20T06:39:53Z</time>
      </trkpt>
      <trkpt lat="48.16628" lon="6.94879">
        <ele>626.59997558594</ele>
        <time>2017-07-20T06:39:57Z</time>
      </trkpt>
      <trkpt lat="48.16633" lon="6.94879">
        <ele>626.59997558594</ele>
        <time>2017-07-20T06:39:58Z</time>
      </trkpt>
      <trkpt lat="48.16654" lon="6.94881">
        <ele>626.59997558594</ele>
        <time>2017-07-20T06:40:03Z</time>
      </trkpt>
      <trkpt lat="48.16667" lon="6.94883">
        <ele>627</ele>
        <time>2017-07-20T06:40:07Z</time>
      </trkpt>
      <trkpt lat="48.16671" lon="6.94883">
        <ele>627.40002441406</ele>
        <time>2017-07-20T06:40:09Z</time>
      </trkpt>
      <trkpt lat="48.16678" lon="6.94885">
        <ele>627.20001220703</ele>
        <time>2017-07-20T06:41:04Z</time>
      </trkpt>
      <trkpt lat="48.1669" lon="6.94889">
        <ele>627</ele>
        <time>2017-07-20T06:41:10Z</time>
      </trkpt>
      <trkpt lat="48.16693" lon="6.94889">
        <ele>626.59997558594</ele>
        <time>2017-07-20T06:41:28Z</time>
      </trkpt>
      <trkpt lat="48.16696" lon="6.94889">
        <ele>626.79998779297</ele>
        <time>2017-07-20T06:41:29Z</time>
      </trkpt>
      <trkpt lat="48.16716" lon="6.9489">
        <ele>626.79998779297</ele>
        <time>2017-07-20T06:41:34Z</time>
      </trkpt>
      <trkpt lat="48.16751" lon="6.94887">
        <ele>626</ele>
        <time>2017-07-20T06:41:40Z</time>
      </trkpt>
      <trkpt lat="48.16787" lon="6.94881">
        <ele>625</ele>
        <time>2017-07-20T06:41:45Z</time>
      </trkpt>
      <trkpt lat="48.16814" lon="6.94883">
        <ele>623.79998779297</ele>
        <time>2017-07-20T06:41:48Z</time>
      </trkpt>
      <trkpt lat="48.16824" lon="6.94884">
        <ele>623.20001220703</ele>
        <time>2017-07-20T06:41:49Z</time>
      </trkpt>
      <trkpt lat="48.16835" lon="6.94883">
        <ele>622.59997558594</ele>
        <time>2017-07-20T06:41:50Z</time>
      </trkpt>
      <trkpt lat="48.16856" lon="6.94883">
        <ele>621</ele>
        <time>2017-07-20T06:41:52Z</time>
      </trkpt>
      <trkpt lat="48.16868" lon="6.94882">
        <ele>619</ele>
        <time>2017-07-20T06:41:53Z</time>
      </trkpt>
      <trkpt lat="48.1688" lon="6.94882">
        <ele>618.20001220703</ele>
        <time>2017-07-20T06:41:54Z</time>
      </trkpt>
      <trkpt lat="48.16892" lon="6.94883">
        <ele>617.20001220703</ele>
        <time>2017-07-20T06:41:55Z</time>
      </trkpt>
      <trkpt lat="48.16918" lon="6.94884">
        <ele>615.20001220703</ele>
        <time>2017-07-20T06:41:57Z</time>
      </trkpt>
      <trkpt lat="48.16931" lon="6.94884">
        <ele>614</ele>
        <time>2017-07-20T06:41:58Z</time>
      </trkpt>
      <trkpt lat="48.16944" lon="6.94884">
        <ele>613</ele>
        <time>2017-07-20T06:41:59Z</time>
      </trkpt>
      <trkpt lat="48.16957" lon="6.94885">
        <ele>612</ele>
        <time>2017-07-20T06:42:00Z</time>
      </trkpt>
      <trkpt lat="48.1697" lon="6.94886">
        <ele>611</ele>
        <time>2017-07-20T06:42:01Z</time>
      </trkpt>
      <trkpt lat="48.16996" lon="6.9489">
        <ele>609</ele>
        <time>2017-07-20T06:42:03Z</time>
      </trkpt>
      <trkpt lat="48.17021" lon="6.94899">
        <ele>607</ele>
        <time>2017-07-20T06:42:05Z</time>
      </trkpt>
      <trkpt lat="48.17046" lon="6.94908">
        <ele>605.20001220703</ele>
        <time>2017-07-20T06:42:07Z</time>
      </trkpt>
      <trkpt lat="48.17071" lon="6.94912">
        <ele>603.59997558594</ele>
        <time>2017-07-20T06:42:09Z</time>
      </trkpt>
      <trkpt lat="48.17083" lon="6.94911">
        <ele>603</ele>
        <time>2017-07-20T06:42:10Z</time>
      </trkpt>
      <trkpt lat="48.17095" lon="6.94909">
        <ele>602.20001220703</ele>
        <time>2017-07-20T06:42:11Z</time>
      </trkpt>
      <trkpt lat="48.1712" lon="6.94905">
        <ele>601</ele>
        <time>2017-07-20T06:42:13Z</time>
      </trkpt>
      <trkpt lat="48.17132" lon="6.94903">
        <ele>600.20001220703</ele>
        <time>2017-07-20T06:42:14Z</time>
      </trkpt>
      <trkpt lat="48.17144" lon="6.949">
        <ele>599.59997558594</ele>
        <time>2017-07-20T06:42:15Z</time>
      </trkpt>
      <trkpt lat="48.17169" lon="6.94893">
        <ele>597.40002441406</ele>
        <time>2017-07-20T06:42:17Z</time>
      </trkpt>
      <trkpt lat="48.17182" lon="6.94892">
        <ele>596.59997558594</ele>
        <time>2017-07-20T06:42:18Z</time>
      </trkpt>
      <trkpt lat="48.17194" lon="6.94895">
        <ele>595.79998779297</ele>
        <time>2017-07-20T06:42:19Z</time>
      </trkpt>
      <trkpt lat="48.17217" lon="6.94904">
        <ele>594.40002441406</ele>
        <time>2017-07-20T06:42:21Z</time>
      </trkpt>
      <trkpt lat="48.17229" lon="6.94911">
        <ele>594</ele>
        <time>2017-07-20T06:42:22Z</time>
      </trkpt>
      <trkpt lat="48.17239" lon="6.9492">
        <ele>593.59997558594</ele>
        <time>2017-07-20T06:42:23Z</time>
      </trkpt>
      <trkpt lat="48.1725" lon="6.9493">
        <ele>593</ele>
        <time>2017-07-20T06:42:24Z</time>
      </trkpt>
      <trkpt lat="48.1726" lon="6.9494">
        <ele>592.40002441406</ele>
        <time>2017-07-20T06:42:25Z</time>
      </trkpt>
      <trkpt lat="48.17268" lon="6.94952">
        <ele>591.79998779297</ele>
        <time>2017-07-20T06:42:26Z</time>
      </trkpt>
      <trkpt lat="48.17276" lon="6.94966">
        <ele>591.20001220703</ele>
        <time>2017-07-20T06:42:27Z</time>
      </trkpt>
      <trkpt lat="48.17282" lon="6.9498">
        <ele>590.59997558594</ele>
        <time>2017-07-20T06:42:28Z</time>
      </trkpt>
      <trkpt lat="48.17289" lon="6.94993">
        <ele>590.20001220703</ele>
        <time>2017-07-20T06:42:29Z</time>
      </trkpt>
      <trkpt lat="48.17303" lon="6.95018">
        <ele>589.40002441406</ele>
        <time>2017-07-20T06:42:31Z</time>
      </trkpt>
      <trkpt lat="48.17323" lon="6.95056">
        <ele>588.20001220703</ele>
        <time>2017-07-20T06:42:34Z</time>
      </trkpt>
      <trkpt lat="48.17338" lon="6.95081">
        <ele>587.40002441406</ele>
        <time>2017-07-20T06:42:36Z</time>
      </trkpt>
      <trkpt lat="48.17346" lon="6.95093">
        <ele>586.79998779297</ele>
        <time>2017-07-20T06:42:37Z</time>
      </trkpt>
      <trkpt lat="48.17362" lon="6.95118">
        <ele>585.79998779297</ele>
        <time>2017-07-20T06:42:39Z</time>
      </trkpt>
      <trkpt lat="48.17379" lon="6.95142">
        <ele>583.59997558594</ele>
        <time>2017-07-20T06:42:41Z</time>
      </trkpt>
      <trkpt lat="48.17388" lon="6.95153">
        <ele>582.79998779297</ele>
        <time>2017-07-20T06:42:42Z</time>
      </trkpt>
      <trkpt lat="48.17398" lon="6.95164">
        <ele>582.20001220703</ele>
        <time>2017-07-20T06:42:43Z</time>
      </trkpt>
      <trkpt lat="48.17418" lon="6.95185">
        <ele>580.79998779297</ele>
        <time>2017-07-20T06:42:45Z</time>
      </trkpt>
      <trkpt lat="48.17438" lon="6.95207">
        <ele>579</ele>
        <time>2017-07-20T06:42:47Z</time>
      </trkpt>
      <trkpt lat="48.17448" lon="6.95217">
        <ele>577.79998779297</ele>
        <time>2017-07-20T06:42:48Z</time>
      </trkpt>
      <trkpt lat="48.17456" lon="6.95229">
        <ele>576.59997558594</ele>
        <time>2017-07-20T06:42:49Z</time>
      </trkpt>
      <trkpt lat="48.17465" lon="6.9524">
        <ele>575.40002441406</ele>
        <time>2017-07-20T06:42:50Z</time>
      </trkpt>
      <trkpt lat="48.17476" lon="6.9525">
        <ele>574.40002441406</ele>
        <time>2017-07-20T06:42:51Z</time>
      </trkpt>
      <trkpt lat="48.17486" lon="6.9526">
        <ele>573.59997558594</ele>
        <time>2017-07-20T06:42:52Z</time>
      </trkpt>
      <trkpt lat="48.17507" lon="6.95278">
        <ele>571.79998779297</ele>
        <time>2017-07-20T06:42:54Z</time>
      </trkpt>
      <trkpt lat="48.17519" lon="6.95286">
        <ele>571</ele>
        <time>2017-07-20T06:42:55Z</time>
      </trkpt>
      <trkpt lat="48.1753" lon="6.95295">
        <ele>570.20001220703</ele>
        <time>2017-07-20T06:42:56Z</time>
      </trkpt>
      <trkpt lat="48.17553" lon="6.95307">
        <ele>568.79998779297</ele>
        <time>2017-07-20T06:42:58Z</time>
      </trkpt>
      <trkpt lat="48.17565" lon="6.95311">
        <ele>567.79998779297</ele>
        <time>2017-07-20T06:42:59Z</time>
      </trkpt>
      <trkpt lat="48.17577" lon="6.95316">
        <ele>567</ele>
        <time>2017-07-20T06:43:00Z</time>
      </trkpt>
      <trkpt lat="48.176" lon="6.95325">
        <ele>565.20001220703</ele>
        <time>2017-07-20T06:43:02Z</time>
      </trkpt>
      <trkpt lat="48.17612" lon="6.95327">
        <ele>564.40002441406</ele>
        <time>2017-07-20T06:43:03Z</time>
      </trkpt>
      <trkpt lat="48.17625" lon="6.95326">
        <ele>563.40002441406</ele>
        <time>2017-07-20T06:43:04Z</time>
      </trkpt>
      <trkpt lat="48.17637" lon="6.95324">
        <ele>561.59997558594</ele>
        <time>2017-07-20T06:43:05Z</time>
      </trkpt>
      <trkpt lat="48.17662" lon="6.95322">
        <ele>560</ele>
        <time>2017-07-20T06:43:07Z</time>
      </trkpt>
      <trkpt lat="48.17687" lon="6.95322">
        <ele>558</ele>
        <time>2017-07-20T06:43:09Z</time>
      </trkpt>
      <trkpt lat="48.17698" lon="6.95322">
        <ele>557</ele>
        <time>2017-07-20T06:43:10Z</time>
      </trkpt>
      <trkpt lat="48.17708" lon="6.95322">
        <ele>555.79998779297</ele>
        <time>2017-07-20T06:43:11Z</time>
      </trkpt>
      <trkpt lat="48.17718" lon="6.95322">
        <ele>554.79998779297</ele>
        <time>2017-07-20T06:43:12Z</time>
      </trkpt>
      <trkpt lat="48.17728" lon="6.95317">
        <ele>553.79998779297</ele>
        <time>2017-07-20T06:43:13Z</time>
      </trkpt>
      <trkpt lat="48.17737" lon="6.9531">
        <ele>552.79998779297</ele>
        <time>2017-07-20T06:43:14Z</time>
      </trkpt>
      <trkpt lat="48.17746" lon="6.953">
        <ele>551.79998779297</ele>
        <time>2017-07-20T06:43:15Z</time>
      </trkpt>
      <trkpt lat="48.17755" lon="6.95289">
        <ele>550.79998779297</ele>
        <time>2017-07-20T06:43:16Z</time>
      </trkpt>
      <trkpt lat="48.17764" lon="6.95276">
        <ele>549.59997558594</ele>
        <time>2017-07-20T06:43:17Z</time>
      </trkpt>
      <trkpt lat="48.17772" lon="6.95262">
        <ele>548.40002441406</ele>
        <time>2017-07-20T06:43:18Z</time>
      </trkpt>
      <trkpt lat="48.1778" lon="6.95248">
        <ele>547.40002441406</ele>
        <time>2017-07-20T06:43:19Z</time>
      </trkpt>
      <trkpt lat="48.17788" lon="6.95234">
        <ele>546.40002441406</ele>
        <time>2017-07-20T06:43:20Z</time>
      </trkpt>
      <trkpt lat="48.17797" lon="6.9522">
        <ele>545.40002441406</ele>
        <time>2017-07-20T06:43:21Z</time>
      </trkpt>
      <trkpt lat="48.17806" lon="6.95208">
        <ele>544.20001220703</ele>
        <time>2017-07-20T06:43:22Z</time>
      </trkpt>
      <trkpt lat="48.17816" lon="6.95197">
        <ele>543.20001220703</ele>
        <time>2017-07-20T06:43:23Z</time>
      </trkpt>
      <trkpt lat="48.17826" lon="6.95187">
        <ele>542.20001220703</ele>
        <time>2017-07-20T06:43:24Z</time>
      </trkpt>
      <trkpt lat="48.17836" lon="6.95179">
        <ele>541</ele>
        <time>2017-07-20T06:43:25Z</time>
      </trkpt>
      <trkpt lat="48.1785" lon="6.95176">
        <ele>539.59997558594</ele>
        <time>2017-07-20T06:43:26Z</time>
      </trkpt>
      <trkpt lat="48.17863" lon="6.95174">
        <ele>538.40002441406</ele>
        <time>2017-07-20T06:43:27Z</time>
      </trkpt>
      <trkpt lat="48.17877" lon="6.95171">
        <ele>537.20001220703</ele>
        <time>2017-07-20T06:43:28Z</time>
      </trkpt>
      <trkpt lat="48.17889" lon="6.9517">
        <ele>534.79998779297</ele>
        <time>2017-07-20T06:43:29Z</time>
      </trkpt>
      <trkpt lat="48.179" lon="6.95168">
        <ele>533.59997558594</ele>
        <time>2017-07-20T06:43:30Z</time>
      </trkpt>
      <trkpt lat="48.17911" lon="6.95168">
        <ele>532.59997558594</ele>
        <time>2017-07-20T06:43:31Z</time>
      </trkpt>
      <trkpt lat="48.17923" lon="6.9517">
        <ele>531.40002441406</ele>
        <time>2017-07-20T06:43:32Z</time>
      </trkpt>
      <trkpt lat="48.17934" lon="6.95177">
        <ele>530.20001220703</ele>
        <time>2017-07-20T06:43:33Z</time>
      </trkpt>
      <trkpt lat="48.17945" lon="6.95186">
        <ele>529</ele>
        <time>2017-07-20T06:43:34Z</time>
      </trkpt>
      <trkpt lat="48.17955" lon="6.95198">
        <ele>528</ele>
        <time>2017-07-20T06:43:35Z</time>
      </trkpt>
      <trkpt lat="48.17966" lon="6.9521">
        <ele>526.79998779297</ele>
        <time>2017-07-20T06:43:36Z</time>
      </trkpt>
      <trkpt lat="48.17976" lon="6.95221">
        <ele>525.79998779297</ele>
        <time>2017-07-20T06:43:37Z</time>
      </trkpt>
      <trkpt lat="48.17995" lon="6.95242">
        <ele>524</ele>
        <time>2017-07-20T06:43:39Z</time>
      </trkpt>
      <trkpt lat="48.18016" lon="6.95263">
        <ele>522</ele>
        <time>2017-07-20T06:43:41Z</time>
      </trkpt>
      <trkpt lat="48.18026" lon="6.95274">
        <ele>520.79998779297</ele>
        <time>2017-07-20T06:43:42Z</time>
      </trkpt>
      <trkpt lat="48.18037" lon="6.95286">
        <ele>519.59997558594</ele>
        <time>2017-07-20T06:43:43Z</time>
      </trkpt>
      <trkpt lat="48.18047" lon="6.95297">
        <ele>518.40002441406</ele>
        <time>2017-07-20T06:43:44Z</time>
      </trkpt>
      <trkpt lat="48.18065" lon="6.9532">
        <ele>516.59997558594</ele>
        <time>2017-07-20T06:43:46Z</time>
      </trkpt>
      <trkpt lat="48.18072" lon="6.95333">
        <ele>515.79998779297</ele>
        <time>2017-07-20T06:43:47Z</time>
      </trkpt>
      <trkpt lat="48.18079" lon="6.95347">
        <ele>514.59997558594</ele>
        <time>2017-07-20T06:43:48Z</time>
      </trkpt>
      <trkpt lat="48.18085" lon="6.95362">
        <ele>513.40002441406</ele>
        <time>2017-07-20T06:43:49Z</time>
      </trkpt>
      <trkpt lat="48.18091" lon="6.95377">
        <ele>512</ele>
        <time>2017-07-20T06:43:50Z</time>
      </trkpt>
      <trkpt lat="48.18098" lon="6.95391">
        <ele>510.79998779297</ele>
        <time>2017-07-20T06:43:51Z</time>
      </trkpt>
      <trkpt lat="48.18106" lon="6.95404">
        <ele>509.60000610352</ele>
        <time>2017-07-20T06:43:52Z</time>
      </trkpt>
      <trkpt lat="48.18113" lon="6.95419">
        <ele>508.60000610352</ele>
        <time>2017-07-20T06:43:53Z</time>
      </trkpt>
      <trkpt lat="48.18119" lon="6.95435">
        <ele>506.60000610352</ele>
        <time>2017-07-20T06:43:54Z</time>
      </trkpt>
      <trkpt lat="48.18125" lon="6.95452">
        <ele>505.60000610352</ele>
        <time>2017-07-20T06:43:55Z</time>
      </trkpt>
      <trkpt lat="48.18131" lon="6.95468">
        <ele>504.79998779297</ele>
        <time>2017-07-20T06:43:56Z</time>
      </trkpt>
      <trkpt lat="48.18142" lon="6.95502">
        <ele>502.79998779297</ele>
        <time>2017-07-20T06:43:58Z</time>
      </trkpt>
      <trkpt lat="48.18151" lon="6.95537">
        <ele>500.79998779297</ele>
        <time>2017-07-20T06:44:00Z</time>
      </trkpt>
      <trkpt lat="48.18155" lon="6.95554">
        <ele>499.79998779297</ele>
        <time>2017-07-20T06:44:01Z</time>
      </trkpt>
      <trkpt lat="48.18158" lon="6.95572">
        <ele>498.60000610352</ele>
        <time>2017-07-20T06:44:02Z</time>
      </trkpt>
      <trkpt lat="48.18161" lon="6.9559">
        <ele>497.60000610352</ele>
        <time>2017-07-20T06:44:03Z</time>
      </trkpt>
      <trkpt lat="48.18163" lon="6.95608">
        <ele>496.60000610352</ele>
        <time>2017-07-20T06:44:04Z</time>
      </trkpt>
      <trkpt lat="48.18165" lon="6.95625">
        <ele>495.60000610352</ele>
        <time>2017-07-20T06:44:05Z</time>
      </trkpt>
      <trkpt lat="48.18165" lon="6.95641">
        <ele>494.79998779297</ele>
        <time>2017-07-20T06:44:06Z</time>
      </trkpt>
      <trkpt lat="48.18169" lon="6.95673">
        <ele>493.20001220703</ele>
        <time>2017-07-20T06:44:08Z</time>
      </trkpt>
      <trkpt lat="48.18176" lon="6.95701">
        <ele>491.39999389648</ele>
        <time>2017-07-20T06:44:10Z</time>
      </trkpt>
      <trkpt lat="48.18182" lon="6.95715">
        <ele>490.39999389648</ele>
        <time>2017-07-20T06:44:11Z</time>
      </trkpt>
      <trkpt lat="48.18187" lon="6.95728">
        <ele>489.60000610352</ele>
        <time>2017-07-20T06:44:12Z</time>
      </trkpt>
      <trkpt lat="48.18199" lon="6.95755">
        <ele>488</ele>
        <time>2017-07-20T06:44:14Z</time>
      </trkpt>
      <trkpt lat="48.18212" lon="6.95778">
        <ele>486.20001220703</ele>
        <time>2017-07-20T06:44:16Z</time>
      </trkpt>
      <trkpt lat="48.18227" lon="6.95792">
        <ele>483.60000610352</ele>
        <time>2017-07-20T06:44:18Z</time>
      </trkpt>
      <trkpt lat="48.18236" lon="6.95795">
        <ele>482.79998779297</ele>
        <time>2017-07-20T06:44:19Z</time>
      </trkpt>
      <trkpt lat="48.18245" lon="6.95794">
        <ele>481.79998779297</ele>
        <time>2017-07-20T06:44:20Z</time>
      </trkpt>
      <trkpt lat="48.18255" lon="6.9579">
        <ele>481</ele>
        <time>2017-07-20T06:44:21Z</time>
      </trkpt>
      <trkpt lat="48.18264" lon="6.95784">
        <ele>480</ele>
        <time>2017-07-20T06:44:22Z</time>
      </trkpt>
      <trkpt lat="48.18283" lon="6.95769">
        <ele>478.39999389648</ele>
        <time>2017-07-20T06:44:24Z</time>
      </trkpt>
      <trkpt lat="48.18292" lon="6.9576">
        <ele>477.39999389648</ele>
        <time>2017-07-20T06:44:25Z</time>
      </trkpt>
      <trkpt lat="48.18301" lon="6.95751">
        <ele>476.60000610352</ele>
        <time>2017-07-20T06:44:26Z</time>
      </trkpt>
      <trkpt lat="48.18317" lon="6.95736">
        <ele>475.20001220703</ele>
        <time>2017-07-20T06:44:28Z</time>
      </trkpt>
      <trkpt lat="48.18323" lon="6.9573">
        <ele>474.39999389648</ele>
        <time>2017-07-20T06:44:29Z</time>
      </trkpt>
      <trkpt lat="48.18329" lon="6.95724">
        <ele>473.79998779297</ele>
        <time>2017-07-20T06:44:30Z</time>
      </trkpt>
      <trkpt lat="48.18335" lon="6.95719">
        <ele>473.20001220703</ele>
        <time>2017-07-20T06:44:31Z</time>
      </trkpt>
      <trkpt lat="48.18343" lon="6.95717">
        <ele>472.60000610352</ele>
        <time>2017-07-20T06:44:32Z</time>
      </trkpt>
      <trkpt lat="48.18351" lon="6.95716">
        <ele>471.79998779297</ele>
        <time>2017-07-20T06:44:33Z</time>
      </trkpt>
      <trkpt lat="48.18359" lon="6.95718">
        <ele>471</ele>
        <time>2017-07-20T06:44:34Z</time>
      </trkpt>
      <trkpt lat="48.18375" lon="6.95725">
        <ele>469.39999389648</ele>
        <time>2017-07-20T06:44:36Z</time>
      </trkpt>
      <trkpt lat="48.18383" lon="6.95728">
        <ele>468.79998779297</ele>
        <time>2017-07-20T06:44:37Z</time>
      </trkpt>
      <trkpt lat="48.18391" lon="6.95732">
        <ele>468.20001220703</ele>
        <time>2017-07-20T06:44:38Z</time>
      </trkpt>
      <trkpt lat="48.18413" lon="6.95746">
        <ele>466.79998779297</ele>
        <time>2017-07-20T06:44:41Z</time>
      </trkpt>
      <trkpt lat="48.18419" lon="6.95754">
        <ele>466.39999389648</ele>
        <time>2017-07-20T06:44:42Z</time>
      </trkpt>
      <trkpt lat="48.18435" lon="6.95779">
        <ele>465.79998779297</ele>
        <time>2017-07-20T06:44:45Z</time>
      </trkpt>
      <trkpt lat="48.18444" lon="6.95795">
        <ele>465.60000610352</ele>
        <time>2017-07-20T06:44:47Z</time>
      </trkpt>
      <trkpt lat="48.18459" lon="6.95816">
        <ele>465.39999389648</ele>
        <time>2017-07-20T06:44:50Z</time>
      </trkpt>
      <trkpt lat="48.18475" lon="6.95837">
        <ele>465.20001220703</ele>
        <time>2017-07-20T06:44:53Z</time>
      </trkpt>
      <trkpt lat="48.18486" lon="6.95848">
        <ele>465.20001220703</ele>
        <time>2017-07-20T06:44:55Z</time>
      </trkpt>
      <trkpt lat="48.18504" lon="6.95861">
        <ele>465</ele>
        <time>2017-07-20T06:44:58Z</time>
      </trkpt>
      <trkpt lat="48.18516" lon="6.95872">
        <ele>464.79998779297</ele>
        <time>2017-07-20T06:45:00Z</time>
      </trkpt>
      <trkpt lat="48.18529" lon="6.95881">
        <ele>464.39999389648</ele>
        <time>2017-07-20T06:45:02Z</time>
      </trkpt>
      <trkpt lat="48.18553" lon="6.959">
        <ele>463.39999389648</ele>
        <time>2017-07-20T06:45:06Z</time>
      </trkpt>
      <trkpt lat="48.18566" lon="6.95912">
        <ele>463</ele>
        <time>2017-07-20T06:45:09Z</time>
      </trkpt>
      <trkpt lat="48.18578" lon="6.95924">
        <ele>462.39999389648</ele>
        <time>2017-07-20T06:45:14Z</time>
      </trkpt>
      <trkpt lat="48.18579" lon="6.95927">
        <ele>462.39999389648</ele>
        <time>2017-07-20T06:45:15Z</time>
      </trkpt>
      <trkpt lat="48.18576" lon="6.95932">
        <ele>462.20001220703</ele>
        <time>2017-07-20T06:45:18Z</time>
      </trkpt>
      <trkpt lat="48.18575" lon="6.95935">
        <ele>462.39999389648</ele>
        <time>2017-07-20T06:45:37Z</time>
      </trkpt>
      <trkpt lat="48.18574" lon="6.95937">
        <ele>462.39999389648</ele>
        <time>2017-07-20T06:45:38Z</time>
      </trkpt>
      <trkpt lat="48.18567" lon="6.95955">
        <ele>462.39999389648</ele>
        <time>2017-07-20T06:45:44Z</time>
      </trkpt>
      <trkpt lat="48.18556" lon="6.95982">
        <ele>462.60000610352</ele>
        <time>2017-07-20T06:45:49Z</time>
      </trkpt>
      <trkpt lat="48.18538" lon="6.96027">
        <ele>463.20001220703</ele>
        <time>2017-07-20T06:45:56Z</time>
      </trkpt>
      <trkpt lat="48.18532" lon="6.96041">
        <ele>463.39999389648</ele>
        <time>2017-07-20T06:45:58Z</time>
      </trkpt>
      <trkpt lat="48.18519" lon="6.96078">
        <ele>464.20001220703</ele>
        <time>2017-07-20T06:46:03Z</time>
      </trkpt>
      <trkpt lat="48.18512" lon="6.96098">
        <ele>464.60000610352</ele>
        <time>2017-07-20T06:46:06Z</time>
      </trkpt>
      <trkpt lat="48.18498" lon="6.96136">
        <ele>465.39999389648</ele>
        <time>2017-07-20T06:46:12Z</time>
      </trkpt>
      <trkpt lat="48.18494" lon="6.96148">
        <ele>465.60000610352</ele>
        <time>2017-07-20T06:46:14Z</time>
      </trkpt>
      <trkpt lat="48.18486" lon="6.9618">
        <ele>466.20001220703</ele>
        <time>2017-07-20T06:46:19Z</time>
      </trkpt>
      <trkpt lat="48.18479" lon="6.96215">
        <ele>466.60000610352</ele>
        <time>2017-07-20T06:46:24Z</time>
      </trkpt>
      <trkpt lat="48.18478" lon="6.96229">
        <ele>466.79998779297</ele>
        <time>2017-07-20T06:46:26Z</time>
      </trkpt>
      <trkpt lat="48.1847" lon="6.96291">
        <ele>467</ele>
        <time>2017-07-20T06:46:35Z</time>
      </trkpt>
      <trkpt lat="48.18463" lon="6.96332">
        <ele>467.39999389648</ele>
        <time>2017-07-20T06:46:41Z</time>
      </trkpt>
      <trkpt lat="48.18459" lon="6.96362">
        <ele>467.79998779297</ele>
        <time>2017-07-20T06:46:45Z</time>
      </trkpt>
      <trkpt lat="48.18455" lon="6.96392">
        <ele>468.20001220703</ele>
        <time>2017-07-20T06:46:49Z</time>
      </trkpt>
      <trkpt lat="48.18449" lon="6.96435">
        <ele>468.60000610352</ele>
        <time>2017-07-20T06:46:55Z</time>
      </trkpt>
      <trkpt lat="48.18449" lon="6.96443">
        <ele>468.79998779297</ele>
        <time>2017-07-20T06:46:56Z</time>
      </trkpt>
      <trkpt lat="48.18442" lon="6.96486">
        <ele>469.39999389648</ele>
        <time>2017-07-20T06:47:02Z</time>
      </trkpt>
      <trkpt lat="48.18437" lon="6.96521">
        <ele>469.79998779297</ele>
        <time>2017-07-20T06:47:07Z</time>
      </trkpt>
      <trkpt lat="48.18433" lon="6.96549">
        <ele>470</ele>
        <time>2017-07-20T06:47:11Z</time>
      </trkpt>
      <trkpt lat="48.18426" lon="6.96596">
        <ele>470.60000610352</ele>
        <time>2017-07-20T06:47:18Z</time>
      </trkpt>
      <trkpt lat="48.18422" lon="6.96617">
        <ele>470.79998779297</ele>
        <time>2017-07-20T06:47:21Z</time>
      </trkpt>
      <trkpt lat="48.18419" lon="6.96639">
        <ele>470.79998779297</ele>
        <time>2017-07-20T06:47:24Z</time>
      </trkpt>
      <trkpt lat="48.18418" lon="6.96646">
        <ele>470.79998779297</ele>
        <time>2017-07-20T06:47:25Z</time>
      </trkpt>
      <trkpt lat="48.18412" lon="6.96692">
        <ele>471.20001220703</ele>
        <time>2017-07-20T06:47:31Z</time>
      </trkpt>
      <trkpt lat="48.18401" lon="6.9677">
        <ele>471.39999389648</ele>
        <time>2017-07-20T06:47:41Z</time>
      </trkpt>
      <trkpt lat="48.18395" lon="6.96818">
        <ele>471.39999389648</ele>
        <time>2017-07-20T06:47:47Z</time>
      </trkpt>
      <trkpt lat="48.1839" lon="6.96867">
        <ele>471.60000610352</ele>
        <time>2017-07-20T06:47:53Z</time>
      </trkpt>
      <trkpt lat="48.18386" lon="6.96946">
        <ele>471.39999389648</ele>
        <time>2017-07-20T06:48:02Z</time>
      </trkpt>
      <trkpt lat="48.18381" lon="6.97022">
        <ele>470.20001220703</ele>
        <time>2017-07-20T06:48:10Z</time>
      </trkpt>
      <trkpt lat="48.1838" lon="6.9705">
        <ele>469.79998779297</ele>
        <time>2017-07-20T06:48:13Z</time>
      </trkpt>
      <trkpt lat="48.18376" lon="6.97117">
        <ele>469.60000610352</ele>
        <time>2017-07-20T06:48:20Z</time>
      </trkpt>
      <trkpt lat="48.18372" lon="6.97185">
        <ele>470.20001220703</ele>
        <time>2017-07-20T06:48:28Z</time>
      </trkpt>
      <trkpt lat="48.18368" lon="6.97233">
        <ele>470.79998779297</ele>
        <time>2017-07-20T06:48:34Z</time>
      </trkpt>
      <trkpt lat="48.18366" lon="6.97272">
        <ele>471.20001220703</ele>
        <time>2017-07-20T06:48:39Z</time>
      </trkpt>
      <trkpt lat="48.18363" lon="6.97326">
        <ele>472</ele>
        <time>2017-07-20T06:48:46Z</time>
      </trkpt>
      <trkpt lat="48.18359" lon="6.97389">
        <ele>472.79998779297</ele>
        <time>2017-07-20T06:48:54Z</time>
      </trkpt>
      <trkpt lat="48.18355" lon="6.97452">
        <ele>473</ele>
        <time>2017-07-20T06:49:02Z</time>
      </trkpt>
      <trkpt lat="48.1835" lon="6.97521">
        <ele>474</ele>
        <time>2017-07-20T06:49:11Z</time>
      </trkpt>
      <trkpt lat="48.1835" lon="6.97528">
        <ele>474</ele>
        <time>2017-07-20T06:49:12Z</time>
      </trkpt>
      <trkpt lat="48.18346" lon="6.97603">
        <ele>474.79998779297</ele>
        <time>2017-07-20T06:49:22Z</time>
      </trkpt>
      <trkpt lat="48.18345" lon="6.97617">
        <ele>475.20001220703</ele>
        <time>2017-07-20T06:49:24Z</time>
      </trkpt>
      <trkpt lat="48.18345" lon="6.97668">
        <ele>476</ele>
        <time>2017-07-20T06:49:31Z</time>
      </trkpt>
      <trkpt lat="48.18346" lon="6.97683">
        <ele>476.20001220703</ele>
        <time>2017-07-20T06:49:33Z</time>
      </trkpt>
      <trkpt lat="48.18348" lon="6.97735">
        <ele>476.79998779297</ele>
        <time>2017-07-20T06:49:40Z</time>
      </trkpt>
      <trkpt lat="48.18352" lon="6.9777">
        <ele>477.39999389648</ele>
        <time>2017-07-20T06:49:45Z</time>
      </trkpt>
      <trkpt lat="48.18354" lon="6.9779">
        <ele>477.79998779297</ele>
        <time>2017-07-20T06:49:48Z</time>
      </trkpt>
      <trkpt lat="48.18359" lon="6.97837">
        <ele>478.39999389648</ele>
        <time>2017-07-20T06:49:55Z</time>
      </trkpt>
      <trkpt lat="48.1836" lon="6.97844">
        <ele>478.60000610352</ele>
        <time>2017-07-20T06:49:56Z</time>
      </trkpt>
      <trkpt lat="48.18368" lon="6.97914">
        <ele>479.20001220703</ele>
        <time>2017-07-20T06:50:06Z</time>
      </trkpt>
      <trkpt lat="48.18372" lon="6.97943">
        <ele>479.60000610352</ele>
        <time>2017-07-20T06:50:10Z</time>
      </trkpt>
      <trkpt lat="48.18375" lon="6.97973">
        <ele>479.79998779297</ele>
        <time>2017-07-20T06:50:14Z</time>
      </trkpt>
      <trkpt lat="48.18381" lon="6.98017">
        <ele>480.60000610352</ele>
        <time>2017-07-20T06:50:20Z</time>
      </trkpt>
      <trkpt lat="48.18383" lon="6.98031">
        <ele>480.79998779297</ele>
        <time>2017-07-20T06:50:22Z</time>
      </trkpt>
      <trkpt lat="48.1839" lon="6.98088">
        <ele>481.60000610352</ele>
        <time>2017-07-20T06:50:30Z</time>
      </trkpt>
      <trkpt lat="48.18391" lon="6.98095">
        <ele>481.79998779297</ele>
        <time>2017-07-20T06:50:31Z</time>
      </trkpt>
      <trkpt lat="48.18398" lon="6.98153">
        <ele>482.39999389648</ele>
        <time>2017-07-20T06:50:39Z</time>
      </trkpt>
      <trkpt lat="48.18402" lon="6.98182">
        <ele>482.60000610352</ele>
        <time>2017-07-20T06:50:43Z</time>
      </trkpt>
      <trkpt lat="48.18406" lon="6.98218">
        <ele>483</ele>
        <time>2017-07-20T06:50:48Z</time>
      </trkpt>
      <trkpt lat="48.18413" lon="6.98274">
        <ele>483.79998779297</ele>
        <time>2017-07-20T06:50:56Z</time>
      </trkpt>
      <trkpt lat="48.18415" lon="6.98289">
        <ele>484</ele>
        <time>2017-07-20T06:50:58Z</time>
      </trkpt>
      <trkpt lat="48.18423" lon="6.9836">
        <ele>484.79998779297</ele>
        <time>2017-07-20T06:51:08Z</time>
      </trkpt>
      <trkpt lat="48.18424" lon="6.98367">
        <ele>485</ele>
        <time>2017-07-20T06:51:09Z</time>
      </trkpt>
      <trkpt lat="48.18433" lon="6.9844">
        <ele>485.39999389648</ele>
        <time>2017-07-20T06:51:19Z</time>
      </trkpt>
      <trkpt lat="48.18439" lon="6.98477">
        <ele>485.79998779297</ele>
        <time>2017-07-20T06:51:24Z</time>
      </trkpt>
      <trkpt lat="48.18442" lon="6.98513">
        <ele>486.20001220703</ele>
        <time>2017-07-20T06:51:29Z</time>
      </trkpt>
      <trkpt lat="48.18446" lon="6.98557">
        <ele>486.79998779297</ele>
        <time>2017-07-20T06:51:35Z</time>
      </trkpt>
      <trkpt lat="48.18446" lon="6.98572">
        <ele>487</ele>
        <time>2017-07-20T06:51:37Z</time>
      </trkpt>
      <trkpt lat="48.18445" lon="6.98629">
        <ele>487.79998779297</ele>
        <time>2017-07-20T06:51:45Z</time>
      </trkpt>
      <trkpt lat="48.18445" lon="6.98637">
        <ele>487.79998779297</ele>
        <time>2017-07-20T06:51:46Z</time>
      </trkpt>
      <trkpt lat="48.18444" lon="6.98644">
        <ele>488</ele>
        <time>2017-07-20T06:51:47Z</time>
      </trkpt>
      <trkpt lat="48.18441" lon="6.98693">
        <ele>488.39999389648</ele>
        <time>2017-07-20T06:51:54Z</time>
      </trkpt>
      <trkpt lat="48.1844" lon="6.98701">
        <ele>488.60000610352</ele>
        <time>2017-07-20T06:51:55Z</time>
      </trkpt>
      <trkpt lat="48.18435" lon="6.98743">
        <ele>489</ele>
        <time>2017-07-20T06:52:01Z</time>
      </trkpt>
      <trkpt lat="48.18433" lon="6.98757">
        <ele>489.20001220703</ele>
        <time>2017-07-20T06:52:03Z</time>
      </trkpt>
      <trkpt lat="48.18423" lon="6.98821">
        <ele>489.79998779297</ele>
        <time>2017-07-20T06:52:12Z</time>
      </trkpt>
      <trkpt lat="48.18419" lon="6.98842">
        <ele>490.20001220703</ele>
        <time>2017-07-20T06:52:15Z</time>
      </trkpt>
      <trkpt lat="48.18418" lon="6.98879">
        <ele>490.60000610352</ele>
        <time>2017-07-20T06:52:20Z</time>
      </trkpt>
      <trkpt lat="48.1842" lon="6.9893">
        <ele>491.20001220703</ele>
        <time>2017-07-20T06:52:27Z</time>
      </trkpt>
      <trkpt lat="48.1843" lon="6.98979">
        <ele>491.60000610352</ele>
        <time>2017-07-20T06:52:34Z</time>
      </trkpt>
      <trkpt lat="48.18442" lon="6.99027">
        <ele>492.20001220703</ele>
        <time>2017-07-20T06:52:41Z</time>
      </trkpt>
      <trkpt lat="48.18443" lon="6.99034">
        <ele>492.20001220703</ele>
        <time>2017-07-20T06:52:42Z</time>
      </trkpt>
      <trkpt lat="48.18457" lon="6.9909">
        <ele>492.39999389648</ele>
        <time>2017-07-20T06:52:50Z</time>
      </trkpt>
      <trkpt lat="48.18473" lon="6.99154">
        <ele>493</ele>
        <time>2017-07-20T06:52:59Z</time>
      </trkpt>
      <trkpt lat="48.18479" lon="6.99181">
        <ele>493.39999389648</ele>
        <time>2017-07-20T06:53:03Z</time>
      </trkpt>
      <trkpt lat="48.18488" lon="6.99217">
        <ele>493.79998779297</ele>
        <time>2017-07-20T06:53:08Z</time>
      </trkpt>
      <trkpt lat="48.18501" lon="6.99282">
        <ele>494</ele>
        <time>2017-07-20T06:53:16Z</time>
      </trkpt>
      <trkpt lat="48.18502" lon="6.99334">
        <ele>494</ele>
        <time>2017-07-20T06:53:22Z</time>
      </trkpt>
      <trkpt lat="48.18492" lon="6.9939">
        <ele>494.20001220703</ele>
        <time>2017-07-20T06:53:29Z</time>
      </trkpt>
      <trkpt lat="48.18489" lon="6.99405">
        <ele>494.39999389648</ele>
        <time>2017-07-20T06:53:31Z</time>
      </trkpt>
      <trkpt lat="48.18474" lon="6.99465">
        <ele>495</ele>
        <time>2017-07-20T06:53:39Z</time>
      </trkpt>
      <trkpt lat="48.18467" lon="6.99496">
        <ele>495.39999389648</ele>
        <time>2017-07-20T06:53:43Z</time>
      </trkpt>
      <trkpt lat="48.18456" lon="6.99541">
        <ele>496</ele>
        <time>2017-07-20T06:53:49Z</time>
      </trkpt>
      <trkpt lat="48.18447" lon="6.99586">
        <ele>496.39999389648</ele>
        <time>2017-07-20T06:53:55Z</time>
      </trkpt>
      <trkpt lat="48.18444" lon="6.99608">
        <ele>496.79998779297</ele>
        <time>2017-07-20T06:53:58Z</time>
      </trkpt>
      <trkpt lat="48.1844" lon="6.99668">
        <ele>497.39999389648</ele>
        <time>2017-07-20T06:54:06Z</time>
      </trkpt>
      <trkpt lat="48.1844" lon="6.99683">
        <ele>497.39999389648</ele>
        <time>2017-07-20T06:54:08Z</time>
      </trkpt>
      <trkpt lat="48.18438" lon="6.99739">
        <ele>497.79998779297</ele>
        <time>2017-07-20T06:54:15Z</time>
      </trkpt>
      <trkpt lat="48.18433" lon="6.99822">
        <ele>498</ele>
        <time>2017-07-20T06:54:25Z</time>
      </trkpt>
      <trkpt lat="48.1843" lon="6.99889">
        <ele>498</ele>
        <time>2017-07-20T06:54:33Z</time>
      </trkpt>
      <trkpt lat="48.18425" lon="6.99954">
        <ele>498.39999389648</ele>
        <time>2017-07-20T06:54:41Z</time>
      </trkpt>
      <trkpt lat="48.18425" lon="6.99961">
        <ele>498.39999389648</ele>
        <time>2017-07-20T06:54:42Z</time>
      </trkpt>
      <trkpt lat="48.18423" lon="7.00007">
        <ele>499.20001220703</ele>
        <time>2017-07-20T06:54:48Z</time>
      </trkpt>
      <trkpt lat="48.18422" lon="7.00022">
        <ele>499.20001220703</ele>
        <time>2017-07-20T06:54:50Z</time>
      </trkpt>
      <trkpt lat="48.18421" lon="7.00036">
        <ele>499.39999389648</ele>
        <time>2017-07-20T06:54:52Z</time>
      </trkpt>
      <trkpt lat="48.18421" lon="7.00058">
        <ele>499.79998779297</ele>
        <time>2017-07-20T06:54:55Z</time>
      </trkpt>
      <trkpt lat="48.18419" lon="7.00102">
        <ele>500.60000610352</ele>
        <time>2017-07-20T06:55:01Z</time>
      </trkpt>
      <trkpt lat="48.18418" lon="7.00116">
        <ele>500.60000610352</ele>
        <time>2017-07-20T06:55:03Z</time>
      </trkpt>
      <trkpt lat="48.18416" lon="7.00185">
        <ele>501</ele>
        <time>2017-07-20T06:55:12Z</time>
      </trkpt>
      <trkpt lat="48.18404" lon="7.0023">
        <ele>501.20001220703</ele>
        <time>2017-07-20T06:55:18Z</time>
      </trkpt>
      <trkpt lat="48.184" lon="7.00236">
        <ele>501.20001220703</ele>
        <time>2017-07-20T06:55:19Z</time>
      </trkpt>
      <trkpt lat="48.18386" lon="7.00258">
        <ele>501.39999389648</ele>
        <time>2017-07-20T06:55:23Z</time>
      </trkpt>
      <trkpt lat="48.18383" lon="7.00263">
        <ele>501.60000610352</ele>
        <time>2017-07-20T06:55:24Z</time>
      </trkpt>
      <trkpt lat="48.18379" lon="7.00267">
        <ele>501.60000610352</ele>
        <time>2017-07-20T06:55:25Z</time>
      </trkpt>
      <trkpt lat="48.18368" lon="7.00278">
        <ele>501.79998779297</ele>
        <time>2017-07-20T06:55:28Z</time>
      </trkpt>
      <trkpt lat="48.18349" lon="7.00293">
        <ele>502.60000610352</ele>
        <time>2017-07-20T06:55:33Z</time>
      </trkpt>
      <trkpt lat="48.18342" lon="7.00299">
        <ele>503</ele>
        <time>2017-07-20T06:55:35Z</time>
      </trkpt>
      <trkpt lat="48.18312" lon="7.00326">
        <ele>503.79998779297</ele>
        <time>2017-07-20T06:55:44Z</time>
      </trkpt>
      <trkpt lat="48.18308" lon="7.00329">
        <ele>503.79998779297</ele>
        <time>2017-07-20T06:55:45Z</time>
      </trkpt>
      <trkpt lat="48.18284" lon="7.00347">
        <ele>505</ele>
        <time>2017-07-20T06:55:52Z</time>
      </trkpt>
      <trkpt lat="48.18268" lon="7.00361">
        <ele>505.39999389648</ele>
        <time>2017-07-20T06:55:57Z</time>
      </trkpt>
      <trkpt lat="48.18244" lon="7.00383">
        <ele>505.60000610352</ele>
        <time>2017-07-20T06:56:04Z</time>
      </trkpt>
      <trkpt lat="48.18229" lon="7.00396">
        <ele>506</ele>
        <time>2017-07-20T06:56:08Z</time>
      </trkpt>
      <trkpt lat="48.18215" lon="7.0041">
        <ele>506.20001220703</ele>
        <time>2017-07-20T06:56:12Z</time>
      </trkpt>
      <trkpt lat="48.18208" lon="7.00418">
        <ele>506.39999389648</ele>
        <time>2017-07-20T06:56:14Z</time>
      </trkpt>
      <trkpt lat="48.18199" lon="7.00429">
        <ele>507</ele>
        <time>2017-07-20T06:56:17Z</time>
      </trkpt>
      <trkpt lat="48.18195" lon="7.00432">
        <ele>507.20001220703</ele>
        <time>2017-07-20T06:56:18Z</time>
      </trkpt>
      <trkpt lat="48.18188" lon="7.00439">
        <ele>508.39999389648</ele>
        <time>2017-07-20T06:56:20Z</time>
      </trkpt>
      <trkpt lat="48.18182" lon="7.00445">
        <ele>508.79998779297</ele>
        <time>2017-07-20T06:56:22Z</time>
      </trkpt>
      <trkpt lat="48.18178" lon="7.00449">
        <ele>508.79998779297</ele>
        <time>2017-07-20T06:56:23Z</time>
      </trkpt>
      <trkpt lat="48.18148" lon="7.00476">
        <ele>508.39999389648</ele>
        <time>2017-07-20T06:56:31Z</time>
      </trkpt>
      <trkpt lat="48.18116" lon="7.00507">
        <ele>509.20001220703</ele>
        <time>2017-07-20T06:56:40Z</time>
      </trkpt>
      <trkpt lat="48.18105" lon="7.00519">
        <ele>509.39999389648</ele>
        <time>2017-07-20T06:56:43Z</time>
      </trkpt>
      <trkpt lat="48.18096" lon="7.00532">
        <ele>509.60000610352</ele>
        <time>2017-07-20T06:56:46Z</time>
      </trkpt>
      <trkpt lat="48.18093" lon="7.00536">
        <ele>509.79998779297</ele>
        <time>2017-07-20T06:56:47Z</time>
      </trkpt>
      <trkpt lat="48.18079" lon="7.00556">
        <ele>510.39999389648</ele>
        <time>2017-07-20T06:56:52Z</time>
      </trkpt>
      <trkpt lat="48.18071" lon="7.00569">
        <ele>510.79998779297</ele>
        <time>2017-07-20T06:56:55Z</time>
      </trkpt>
      <trkpt lat="48.18061" lon="7.00585">
        <ele>511.39999389648</ele>
        <time>2017-07-20T06:56:59Z</time>
      </trkpt>
      <trkpt lat="48.18057" lon="7.00593">
        <ele>511.79998779297</ele>
        <time>2017-07-20T06:57:01Z</time>
      </trkpt>
      <trkpt lat="48.18047" lon="7.00608">
        <ele>512.40002441406</ele>
        <time>2017-07-20T06:57:05Z</time>
      </trkpt>
      <trkpt lat="48.18039" lon="7.0062">
        <ele>513</ele>
        <time>2017-07-20T06:57:08Z</time>
      </trkpt>
      <trkpt lat="48.18032" lon="7.00632">
        <ele>513.40002441406</ele>
        <time>2017-07-20T06:57:11Z</time>
      </trkpt>
      <trkpt lat="48.18025" lon="7.00643">
        <ele>513.79998779297</ele>
        <time>2017-07-20T06:57:14Z</time>
      </trkpt>
      <trkpt lat="48.18008" lon="7.00668">
        <ele>514.59997558594</ele>
        <time>2017-07-20T06:57:20Z</time>
      </trkpt>
      <trkpt lat="48.18003" lon="7.00676">
        <ele>514.79998779297</ele>
        <time>2017-07-20T06:57:22Z</time>
      </trkpt>
      <trkpt lat="48.17982" lon="7.0071">
        <ele>515.59997558594</ele>
        <time>2017-07-20T06:57:30Z</time>
      </trkpt>
      <trkpt lat="48.17979" lon="7.00713">
        <ele>515.59997558594</ele>
        <time>2017-07-20T06:57:31Z</time>
      </trkpt>
      <trkpt lat="48.17953" lon="7.00739">
        <ele>516.20001220703</ele>
        <time>2017-07-20T06:57:39Z</time>
      </trkpt>
      <trkpt lat="48.17938" lon="7.00752">
        <ele>516.79998779297</ele>
        <time>2017-07-20T06:57:43Z</time>
      </trkpt>
      <trkpt lat="48.17925" lon="7.00764">
        <ele>517</ele>
        <time>2017-07-20T06:57:47Z</time>
      </trkpt>
      <trkpt lat="48.17897" lon="7.00786">
        <ele>517.59997558594</ele>
        <time>2017-07-20T06:57:55Z</time>
      </trkpt>
      <trkpt lat="48.17894" lon="7.00789">
        <ele>517.79998779297</ele>
        <time>2017-07-20T06:57:56Z</time>
      </trkpt>
      <trkpt lat="48.17869" lon="7.00811">
        <ele>519</ele>
        <time>2017-07-20T06:58:04Z</time>
      </trkpt>
      <trkpt lat="48.17865" lon="7.00814">
        <ele>519</ele>
        <time>2017-07-20T06:58:05Z</time>
      </trkpt>
      <trkpt lat="48.1784" lon="7.00834">
        <ele>519.59997558594</ele>
        <time>2017-07-20T06:58:12Z</time>
      </trkpt>
      <trkpt lat="48.17828" lon="7.00842">
        <ele>519.59997558594</ele>
        <time>2017-07-20T06:58:15Z</time>
      </trkpt>
      <trkpt lat="48.17817" lon="7.00851">
        <ele>519.79998779297</ele>
        <time>2017-07-20T06:58:18Z</time>
      </trkpt>
      <trkpt lat="48.17806" lon="7.0086">
        <ele>520</ele>
        <time>2017-07-20T06:58:21Z</time>
      </trkpt>
      <trkpt lat="48.17783" lon="7.00879">
        <ele>520.20001220703</ele>
        <time>2017-07-20T06:58:27Z</time>
      </trkpt>
      <trkpt lat="48.17751" lon="7.00903">
        <ele>520.59997558594</ele>
        <time>2017-07-20T06:58:35Z</time>
      </trkpt>
      <trkpt lat="48.17722" lon="7.00928">
        <ele>521</ele>
        <time>2017-07-20T06:58:42Z</time>
      </trkpt>
      <trkpt lat="48.17715" lon="7.00936">
        <ele>521.20001220703</ele>
        <time>2017-07-20T06:58:44Z</time>
      </trkpt>
      <trkpt lat="48.17687" lon="7.0097">
        <ele>522</ele>
        <time>2017-07-20T06:58:52Z</time>
      </trkpt>
      <trkpt lat="48.17683" lon="7.00974">
        <ele>522</ele>
        <time>2017-07-20T06:58:53Z</time>
      </trkpt>
      <trkpt lat="48.17662" lon="7.01006">
        <ele>522.20001220703</ele>
        <time>2017-07-20T06:59:00Z</time>
      </trkpt>
      <trkpt lat="48.17637" lon="7.01043">
        <ele>522.79998779297</ele>
        <time>2017-07-20T06:59:09Z</time>
      </trkpt>
      <trkpt lat="48.17631" lon="7.0105">
        <ele>523.20001220703</ele>
        <time>2017-07-20T06:59:11Z</time>
      </trkpt>
      <trkpt lat="48.17612" lon="7.01077">
        <ele>524</ele>
        <time>2017-07-20T06:59:18Z</time>
      </trkpt>
      <trkpt lat="48.17609" lon="7.0108">
        <ele>524.20001220703</ele>
        <time>2017-07-20T06:59:19Z</time>
      </trkpt>
      <trkpt lat="48.17589" lon="7.01109">
        <ele>525</ele>
        <time>2017-07-20T06:59:26Z</time>
      </trkpt>
      <trkpt lat="48.1758" lon="7.01119">
        <ele>525.20001220703</ele>
        <time>2017-07-20T06:59:29Z</time>
      </trkpt>
      <trkpt lat="48.17567" lon="7.01134">
        <ele>525.79998779297</ele>
        <time>2017-07-20T06:59:33Z</time>
      </trkpt>
      <trkpt lat="48.17553" lon="7.01146">
        <ele>526.20001220703</ele>
        <time>2017-07-20T06:59:37Z</time>
      </trkpt>
      <trkpt lat="48.17541" lon="7.01154">
        <ele>526.59997558594</ele>
        <time>2017-07-20T06:59:40Z</time>
      </trkpt>
      <trkpt lat="48.17515" lon="7.01166">
        <ele>527.20001220703</ele>
        <time>2017-07-20T06:59:46Z</time>
      </trkpt>
      <trkpt lat="48.17511" lon="7.01168">
        <ele>527.40002441406</ele>
        <time>2017-07-20T06:59:47Z</time>
      </trkpt>
      <trkpt lat="48.17498" lon="7.01173">
        <ele>528</ele>
        <time>2017-07-20T06:59:50Z</time>
      </trkpt>
      <trkpt lat="48.1748" lon="7.01183">
        <ele>528.20001220703</ele>
        <time>2017-07-20T06:59:54Z</time>
      </trkpt>
      <trkpt lat="48.1745" lon="7.01205">
        <ele>528</ele>
        <time>2017-07-20T07:00:00Z</time>
      </trkpt>
      <trkpt lat="48.1741" lon="7.01238">
        <ele>528</ele>
        <time>2017-07-20T07:00:08Z</time>
      </trkpt>
      <trkpt lat="48.17367" lon="7.01276">
        <ele>527.79998779297</ele>
        <time>2017-07-20T07:00:17Z</time>
      </trkpt>
      <trkpt lat="48.17329" lon="7.01309">
        <ele>528.20001220703</ele>
        <time>2017-07-20T07:00:25Z</time>
      </trkpt>
      <trkpt lat="48.173" lon="7.01344">
        <ele>528.79998779297</ele>
        <time>2017-07-20T07:00:32Z</time>
      </trkpt>
      <trkpt lat="48.17297" lon="7.0135">
        <ele>529</ele>
        <time>2017-07-20T07:00:33Z</time>
      </trkpt>
      <trkpt lat="48.17285" lon="7.01377">
        <ele>529</ele>
        <time>2017-07-20T07:00:37Z</time>
      </trkpt>
      <trkpt lat="48.17271" lon="7.0141">
        <ele>529.40002441406</ele>
        <time>2017-07-20T07:00:42Z</time>
      </trkpt>
      <trkpt lat="48.17269" lon="7.01415">
        <ele>529.40002441406</ele>
        <time>2017-07-20T07:00:43Z</time>
      </trkpt>
      <trkpt lat="48.17262" lon="7.0143">
        <ele>529.59997558594</ele>
        <time>2017-07-20T07:00:47Z</time>
      </trkpt>
      <trkpt lat="48.1726" lon="7.01433">
        <ele>529.79998779297</ele>
        <time>2017-07-20T07:00:48Z</time>
      </trkpt>
      <trkpt lat="48.17255" lon="7.01448">
        <ele>530</ele>
        <time>2017-07-20T07:00:52Z</time>
      </trkpt>
      <trkpt lat="48.17251" lon="7.01462">
        <ele>530.40002441406</ele>
        <time>2017-07-20T07:00:55Z</time>
      </trkpt>
      <trkpt lat="48.17246" lon="7.01475">
        <ele>530.79998779297</ele>
        <time>2017-07-20T07:00:58Z</time>
      </trkpt>
      <trkpt lat="48.17236" lon="7.015">
        <ele>531.40002441406</ele>
        <time>2017-07-20T07:01:03Z</time>
      </trkpt>
      <trkpt lat="48.1723" lon="7.01515">
        <ele>531.79998779297</ele>
        <time>2017-07-20T07:01:06Z</time>
      </trkpt>
      <trkpt lat="48.17213" lon="7.01557">
        <ele>532.20001220703</ele>
        <time>2017-07-20T07:01:14Z</time>
      </trkpt>
      <trkpt lat="48.17206" lon="7.01574">
        <ele>532.40002441406</ele>
        <time>2017-07-20T07:01:17Z</time>
      </trkpt>
      <trkpt lat="48.17199" lon="7.01597">
        <ele>532.40002441406</ele>
        <time>2017-07-20T07:01:21Z</time>
      </trkpt>
      <trkpt lat="48.17186" lon="7.0164">
        <ele>533.40002441406</ele>
        <time>2017-07-20T07:01:28Z</time>
      </trkpt>
      <trkpt lat="48.17183" lon="7.01652">
        <ele>533.59997558594</ele>
        <time>2017-07-20T07:01:30Z</time>
      </trkpt>
      <trkpt lat="48.17173" lon="7.0168">
        <ele>533.79998779297</ele>
        <time>2017-07-20T07:01:35Z</time>
      </trkpt>
      <trkpt lat="48.17168" lon="7.01691">
        <ele>534</ele>
        <time>2017-07-20T07:01:37Z</time>
      </trkpt>
      <trkpt lat="48.17164" lon="7.01702">
        <ele>534.20001220703</ele>
        <time>2017-07-20T07:01:39Z</time>
      </trkpt>
      <trkpt lat="48.1716" lon="7.0171">
        <ele>534.40002441406</ele>
        <time>2017-07-20T07:01:41Z</time>
      </trkpt>
      <trkpt lat="48.17151" lon="7.01724">
        <ele>535.59997558594</ele>
        <time>2017-07-20T07:01:45Z</time>
      </trkpt>
      <trkpt lat="48.17145" lon="7.01733">
        <ele>536.59997558594</ele>
        <time>2017-07-20T07:01:48Z</time>
      </trkpt>
      <trkpt lat="48.17143" lon="7.01737">
        <ele>536.79998779297</ele>
        <time>2017-07-20T07:01:49Z</time>
      </trkpt>
      <trkpt lat="48.17131" lon="7.01756">
        <ele>536</ele>
        <time>2017-07-20T07:01:55Z</time>
      </trkpt>
      <trkpt lat="48.17117" lon="7.01777">
        <ele>536.20001220703</ele>
        <time>2017-07-20T07:02:01Z</time>
      </trkpt>
      <trkpt lat="48.17102" lon="7.01803">
        <ele>537</ele>
        <time>2017-07-20T07:02:08Z</time>
      </trkpt>
      <trkpt lat="48.17093" lon="7.0184">
        <ele>537.59997558594</ele>
        <time>2017-07-20T07:02:16Z</time>
      </trkpt>
      <trkpt lat="48.1709" lon="7.01854">
        <ele>537.79998779297</ele>
        <time>2017-07-20T07:02:19Z</time>
      </trkpt>
      <trkpt lat="48.17085" lon="7.01883">
        <ele>538.40002441406</ele>
        <time>2017-07-20T07:02:25Z</time>
      </trkpt>
      <trkpt lat="48.17077" lon="7.0192">
        <ele>539</ele>
        <time>2017-07-20T07:02:33Z</time>
      </trkpt>
      <trkpt lat="48.17075" lon="7.01929">
        <ele>539</ele>
        <time>2017-07-20T07:02:35Z</time>
      </trkpt>
      <trkpt lat="48.17064" lon="7.01965">
        <ele>540</ele>
        <time>2017-07-20T07:02:43Z</time>
      </trkpt>
      <trkpt lat="48.17048" lon="7.01992">
        <ele>540.79998779297</ele>
        <time>2017-07-20T07:02:50Z</time>
      </trkpt>
      <trkpt lat="48.17043" lon="7.01999">
        <ele>541</ele>
        <time>2017-07-20T07:02:52Z</time>
      </trkpt>
      <trkpt lat="48.17032" lon="7.02016">
        <ele>541.79998779297</ele>
        <time>2017-07-20T07:02:57Z</time>
      </trkpt>
      <trkpt lat="48.17027" lon="7.02023">
        <ele>542</ele>
        <time>2017-07-20T07:02:59Z</time>
      </trkpt>
      <trkpt lat="48.17012" lon="7.02049">
        <ele>543</ele>
        <time>2017-07-20T07:03:06Z</time>
      </trkpt>
      <trkpt lat="48.1701" lon="7.02053">
        <ele>543.20001220703</ele>
        <time>2017-07-20T07:03:07Z</time>
      </trkpt>
      <trkpt lat="48.16997" lon="7.0208">
        <ele>544.40002441406</ele>
        <time>2017-07-20T07:03:14Z</time>
      </trkpt>
      <trkpt lat="48.16989" lon="7.02105">
        <ele>545.40002441406</ele>
        <time>2017-07-20T07:03:20Z</time>
      </trkpt>
      <trkpt lat="48.16985" lon="7.02118">
        <ele>546</ele>
        <time>2017-07-20T07:03:23Z</time>
      </trkpt>
      <trkpt lat="48.1698" lon="7.02134">
        <ele>546.40002441406</ele>
        <time>2017-07-20T07:03:27Z</time>
      </trkpt>
      <trkpt lat="48.16974" lon="7.02151">
        <ele>547.20001220703</ele>
        <time>2017-07-20T07:03:31Z</time>
      </trkpt>
      <trkpt lat="48.16971" lon="7.0216">
        <ele>547.59997558594</ele>
        <time>2017-07-20T07:03:33Z</time>
      </trkpt>
      <trkpt lat="48.16963" lon="7.02185">
        <ele>548.59997558594</ele>
        <time>2017-07-20T07:03:39Z</time>
      </trkpt>
      <trkpt lat="48.16961" lon="7.02189">
        <ele>548.79998779297</ele>
        <time>2017-07-20T07:03:40Z</time>
      </trkpt>
      <trkpt lat="48.16954" lon="7.02208">
        <ele>549.79998779297</ele>
        <time>2017-07-20T07:03:45Z</time>
      </trkpt>
      <trkpt lat="48.16951" lon="7.02222">
        <ele>550.20001220703</ele>
        <time>2017-07-20T07:03:48Z</time>
      </trkpt>
      <trkpt lat="48.16946" lon="7.0224">
        <ele>550.79998779297</ele>
        <time>2017-07-20T07:03:52Z</time>
      </trkpt>
      <trkpt lat="48.16941" lon="7.02262">
        <ele>551.59997558594</ele>
        <time>2017-07-20T07:03:57Z</time>
      </trkpt>
      <trkpt lat="48.16939" lon="7.0227">
        <ele>552</ele>
        <time>2017-07-20T07:03:59Z</time>
      </trkpt>
      <trkpt lat="48.16932" lon="7.02293">
        <ele>552.59997558594</ele>
        <time>2017-07-20T07:04:04Z</time>
      </trkpt>
      <trkpt lat="48.16925" lon="7.02318">
        <ele>553</ele>
        <time>2017-07-20T07:04:09Z</time>
      </trkpt>
      <trkpt lat="48.16922" lon="7.02328">
        <ele>553.20001220703</ele>
        <time>2017-07-20T07:04:11Z</time>
      </trkpt>
      <trkpt lat="48.16907" lon="7.02378">
        <ele>554</ele>
        <time>2017-07-20T07:04:21Z</time>
      </trkpt>
      <trkpt lat="48.16892" lon="7.02425">
        <ele>554.40002441406</ele>
        <time>2017-07-20T07:04:30Z</time>
      </trkpt>
      <trkpt lat="48.16879" lon="7.02475">
        <ele>555</ele>
        <time>2017-07-20T07:04:39Z</time>
      </trkpt>
      <trkpt lat="48.16867" lon="7.02521">
        <ele>556</ele>
        <time>2017-07-20T07:04:48Z</time>
      </trkpt>
      <trkpt lat="48.16866" lon="7.02525">
        <ele>556.20001220703</ele>
        <time>2017-07-20T07:04:49Z</time>
      </trkpt>
      <trkpt lat="48.16859" lon="7.02554">
        <ele>557</ele>
        <time>2017-07-20T07:04:55Z</time>
      </trkpt>
      <trkpt lat="48.16856" lon="7.02563">
        <ele>557.20001220703</ele>
        <time>2017-07-20T07:04:57Z</time>
      </trkpt>
      <trkpt lat="48.1685" lon="7.02589">
        <ele>558.20001220703</ele>
        <time>2017-07-20T07:05:03Z</time>
      </trkpt>
      <trkpt lat="48.16849" lon="7.02594">
        <ele>558.40002441406</ele>
        <time>2017-07-20T07:05:04Z</time>
      </trkpt>
      <trkpt lat="48.16841" lon="7.02618">
        <ele>559.40002441406</ele>
        <time>2017-07-20T07:05:10Z</time>
      </trkpt>
      <trkpt lat="48.16839" lon="7.02627">
        <ele>559.79998779297</ele>
        <time>2017-07-20T07:05:12Z</time>
      </trkpt>
      <trkpt lat="48.16835" lon="7.02644">
        <ele>560.59997558594</ele>
        <time>2017-07-20T07:05:16Z</time>
      </trkpt>
      <trkpt lat="48.16829" lon="7.02664">
        <ele>561</ele>
        <time>2017-07-20T07:05:21Z</time>
      </trkpt>
      <trkpt lat="48.16824" lon="7.02686">
        <ele>561.59997558594</ele>
        <time>2017-07-20T07:05:26Z</time>
      </trkpt>
      <trkpt lat="48.16819" lon="7.02702">
        <ele>561.79998779297</ele>
        <time>2017-07-20T07:05:30Z</time>
      </trkpt>
      <trkpt lat="48.16813" lon="7.02728">
        <ele>562.59997558594</ele>
        <time>2017-07-20T07:05:36Z</time>
      </trkpt>
      <trkpt lat="48.16812" lon="7.02733">
        <ele>562.79998779297</ele>
        <time>2017-07-20T07:05:37Z</time>
      </trkpt>
      <trkpt lat="48.16804" lon="7.02759">
        <ele>563.59997558594</ele>
        <time>2017-07-20T07:05:43Z</time>
      </trkpt>
      <trkpt lat="48.16803" lon="7.02763">
        <ele>563.79998779297</ele>
        <time>2017-07-20T07:05:44Z</time>
      </trkpt>
      <trkpt lat="48.16799" lon="7.02782">
        <ele>564.79998779297</ele>
        <time>2017-07-20T07:05:48Z</time>
      </trkpt>
      <trkpt lat="48.16794" lon="7.02804">
        <ele>565.40002441406</ele>
        <time>2017-07-20T07:05:53Z</time>
      </trkpt>
      <trkpt lat="48.16792" lon="7.02817">
        <ele>566</ele>
        <time>2017-07-20T07:05:56Z</time>
      </trkpt>
      <trkpt lat="48.16789" lon="7.02839">
        <ele>566.79998779297</ele>
        <time>2017-07-20T07:06:01Z</time>
      </trkpt>
      <trkpt lat="48.16789" lon="7.02843">
        <ele>567</ele>
        <time>2017-07-20T07:06:02Z</time>
      </trkpt>
      <trkpt lat="48.16787" lon="7.02865">
        <ele>567.79998779297</ele>
        <time>2017-07-20T07:06:07Z</time>
      </trkpt>
      <trkpt lat="48.16787" lon="7.02869">
        <ele>568</ele>
        <time>2017-07-20T07:06:08Z</time>
      </trkpt>
      <trkpt lat="48.16785" lon="7.029">
        <ele>569.20001220703</ele>
        <time>2017-07-20T07:06:15Z</time>
      </trkpt>
      <trkpt lat="48.16782" lon="7.02931">
        <ele>570.20001220703</ele>
        <time>2017-07-20T07:06:22Z</time>
      </trkpt>
      <trkpt lat="48.16781" lon="7.02935">
        <ele>570.20001220703</ele>
        <time>2017-07-20T07:06:23Z</time>
      </trkpt>
      <trkpt lat="48.1678" lon="7.02957">
        <ele>570.79998779297</ele>
        <time>2017-07-20T07:06:28Z</time>
      </trkpt>
      <trkpt lat="48.1678" lon="7.0297">
        <ele>571.20001220703</ele>
        <time>2017-07-20T07:06:31Z</time>
      </trkpt>
      <trkpt lat="48.16777" lon="7.02992">
        <ele>572.20001220703</ele>
        <time>2017-07-20T07:06:36Z</time>
      </trkpt>
      <trkpt lat="48.16777" lon="7.03001">
        <ele>572.40002441406</ele>
        <time>2017-07-20T07:06:38Z</time>
      </trkpt>
      <trkpt lat="48.16775" lon="7.03023">
        <ele>573.20001220703</ele>
        <time>2017-07-20T07:06:43Z</time>
      </trkpt>
      <trkpt lat="48.16775" lon="7.03028">
        <ele>573.59997558594</ele>
        <time>2017-07-20T07:06:44Z</time>
      </trkpt>
      <trkpt lat="48.16774" lon="7.03056">
        <ele>574.59997558594</ele>
        <time>2017-07-20T07:06:50Z</time>
      </trkpt>
      <trkpt lat="48.16772" lon="7.03087">
        <ele>575.79998779297</ele>
        <time>2017-07-20T07:06:57Z</time>
      </trkpt>
      <trkpt lat="48.16776" lon="7.03117">
        <ele>576.79998779297</ele>
        <time>2017-07-20T07:07:04Z</time>
      </trkpt>
      <trkpt lat="48.16787" lon="7.0315">
        <ele>577.79998779297</ele>
        <time>2017-07-20T07:07:12Z</time>
      </trkpt>
      <trkpt lat="48.16804" lon="7.03177">
        <ele>579</ele>
        <time>2017-07-20T07:07:20Z</time>
      </trkpt>
      <trkpt lat="48.16823" lon="7.03196">
        <ele>580</ele>
        <time>2017-07-20T07:07:28Z</time>
      </trkpt>
      <trkpt lat="48.16841" lon="7.03203">
        <ele>581</ele>
        <time>2017-07-20T07:07:34Z</time>
      </trkpt>
      <trkpt lat="48.16844" lon="7.03203">
        <ele>581.20001220703</ele>
        <time>2017-07-20T07:07:35Z</time>
      </trkpt>
      <trkpt lat="48.16866" lon="7.03201">
        <ele>582</ele>
        <time>2017-07-20T07:07:42Z</time>
      </trkpt>
      <trkpt lat="48.16869" lon="7.032">
        <ele>582.20001220703</ele>
        <time>2017-07-20T07:07:43Z</time>
      </trkpt>
      <trkpt lat="48.16885" lon="7.03191">
        <ele>583.20001220703</ele>
        <time>2017-07-20T07:07:49Z</time>
      </trkpt>
      <trkpt lat="48.16899" lon="7.03174">
        <ele>584.40002441406</ele>
        <time>2017-07-20T07:07:55Z</time>
      </trkpt>
      <trkpt lat="48.16902" lon="7.03171">
        <ele>584.40002441406</ele>
        <time>2017-07-20T07:07:56Z</time>
      </trkpt>
      <trkpt lat="48.16917" lon="7.03147">
        <ele>585.40002441406</ele>
        <time>2017-07-20T07:08:03Z</time>
      </trkpt>
      <trkpt lat="48.16919" lon="7.03144">
        <ele>585.40002441406</ele>
        <time>2017-07-20T07:08:04Z</time>
      </trkpt>
      <trkpt lat="48.16936" lon="7.03116">
        <ele>586.20001220703</ele>
        <time>2017-07-20T07:08:12Z</time>
      </trkpt>
      <trkpt lat="48.1694" lon="7.03109">
        <ele>586.40002441406</ele>
        <time>2017-07-20T07:08:14Z</time>
      </trkpt>
      <trkpt lat="48.16953" lon="7.03089">
        <ele>587.59997558594</ele>
        <time>2017-07-20T07:08:20Z</time>
      </trkpt>
      <trkpt lat="48.16959" lon="7.03079">
        <ele>588.20001220703</ele>
        <time>2017-07-20T07:08:23Z</time>
      </trkpt>
      <trkpt lat="48.16967" lon="7.03064">
        <ele>588.59997558594</ele>
        <time>2017-07-20T07:08:27Z</time>
      </trkpt>
      <trkpt lat="48.16977" lon="7.03047">
        <ele>588.79998779297</ele>
        <time>2017-07-20T07:08:32Z</time>
      </trkpt>
      <trkpt lat="48.16991" lon="7.03024">
        <ele>589.59997558594</ele>
        <time>2017-07-20T07:08:39Z</time>
      </trkpt>
      <trkpt lat="48.16993" lon="7.03021">
        <ele>589.79998779297</ele>
        <time>2017-07-20T07:08:40Z</time>
      </trkpt>
      <trkpt lat="48.17002" lon="7.03004">
        <ele>590.79998779297</ele>
        <time>2017-07-20T07:08:45Z</time>
      </trkpt>
      <trkpt lat="48.17009" lon="7.02991">
        <ele>591.79998779297</ele>
        <time>2017-07-20T07:08:49Z</time>
      </trkpt>
      <trkpt lat="48.17011" lon="7.02988">
        <ele>592</ele>
        <time>2017-07-20T07:08:50Z</time>
      </trkpt>
      <trkpt lat="48.17024" lon="7.02966">
        <ele>593</ele>
        <time>2017-07-20T07:08:57Z</time>
      </trkpt>
      <trkpt lat="48.17036" lon="7.02945">
        <ele>594</ele>
        <time>2017-07-20T07:09:04Z</time>
      </trkpt>
      <trkpt lat="48.17046" lon="7.0293">
        <ele>595</ele>
        <time>2017-07-20T07:09:09Z</time>
      </trkpt>
      <trkpt lat="48.17054" lon="7.02914">
        <ele>595.59997558594</ele>
        <time>2017-07-20T07:09:14Z</time>
      </trkpt>
      <trkpt lat="48.1706" lon="7.02906">
        <ele>596.20001220703</ele>
        <time>2017-07-20T07:09:17Z</time>
      </trkpt>
      <trkpt lat="48.17065" lon="7.02897">
        <ele>596.59997558594</ele>
        <time>2017-07-20T07:09:20Z</time>
      </trkpt>
      <trkpt lat="48.17071" lon="7.02889">
        <ele>597.20001220703</ele>
        <time>2017-07-20T07:09:23Z</time>
      </trkpt>
      <trkpt lat="48.17079" lon="7.02874">
        <ele>597.79998779297</ele>
        <time>2017-07-20T07:09:28Z</time>
      </trkpt>
      <trkpt lat="48.17085" lon="7.02865">
        <ele>598.20001220703</ele>
        <time>2017-07-20T07:09:31Z</time>
      </trkpt>
      <trkpt lat="48.17094" lon="7.0285">
        <ele>599</ele>
        <time>2017-07-20T07:09:36Z</time>
      </trkpt>
      <trkpt lat="48.17096" lon="7.02847">
        <ele>599.20001220703</ele>
        <time>2017-07-20T07:09:37Z</time>
      </trkpt>
      <trkpt lat="48.17107" lon="7.02828">
        <ele>599.79998779297</ele>
        <time>2017-07-20T07:09:43Z</time>
      </trkpt>
      <trkpt lat="48.17114" lon="7.02817">
        <ele>600.20001220703</ele>
        <time>2017-07-20T07:09:47Z</time>
      </trkpt>
      <trkpt lat="48.17122" lon="7.02806">
        <ele>600.79998779297</ele>
        <time>2017-07-20T07:09:51Z</time>
      </trkpt>
      <trkpt lat="48.17133" lon="7.02792">
        <ele>601.40002441406</ele>
        <time>2017-07-20T07:09:56Z</time>
      </trkpt>
      <trkpt lat="48.17143" lon="7.02778">
        <ele>602.20001220703</ele>
        <time>2017-07-20T07:10:01Z</time>
      </trkpt>
      <trkpt lat="48.17147" lon="7.02772">
        <ele>602.40002441406</ele>
        <time>2017-07-20T07:10:03Z</time>
      </trkpt>
      <trkpt lat="48.17158" lon="7.02758">
        <ele>603</ele>
        <time>2017-07-20T07:10:08Z</time>
      </trkpt>
      <trkpt lat="48.17166" lon="7.02747">
        <ele>603.40002441406</ele>
        <time>2017-07-20T07:10:12Z</time>
      </trkpt>
      <trkpt lat="48.17173" lon="7.02738">
        <ele>604</ele>
        <time>2017-07-20T07:10:15Z</time>
      </trkpt>
      <trkpt lat="48.17181" lon="7.02727">
        <ele>604.40002441406</ele>
        <time>2017-07-20T07:10:19Z</time>
      </trkpt>
      <trkpt lat="48.17191" lon="7.02713">
        <ele>605.59997558594</ele>
        <time>2017-07-20T07:10:24Z</time>
      </trkpt>
      <trkpt lat="48.17203" lon="7.02697">
        <ele>606.59997558594</ele>
        <time>2017-07-20T07:10:30Z</time>
      </trkpt>
      <trkpt lat="48.17209" lon="7.02689">
        <ele>607</ele>
        <time>2017-07-20T07:10:33Z</time>
      </trkpt>
      <trkpt lat="48.17221" lon="7.02673">
        <ele>607.59997558594</ele>
        <time>2017-07-20T07:10:39Z</time>
      </trkpt>
      <trkpt lat="48.17225" lon="7.02667">
        <ele>608</ele>
        <time>2017-07-20T07:10:41Z</time>
      </trkpt>
      <trkpt lat="48.17234" lon="7.02652">
        <ele>608.79998779297</ele>
        <time>2017-07-20T07:10:46Z</time>
      </trkpt>
      <trkpt lat="48.17244" lon="7.02638">
        <ele>609.40002441406</ele>
        <time>2017-07-20T07:10:51Z</time>
      </trkpt>
      <trkpt lat="48.17252" lon="7.02625">
        <ele>609.79998779297</ele>
        <time>2017-07-20T07:10:55Z</time>
      </trkpt>
      <trkpt lat="48.17259" lon="7.02618">
        <ele>610.20001220703</ele>
        <time>2017-07-20T07:10:58Z</time>
      </trkpt>
      <trkpt lat="48.17272" lon="7.02598">
        <ele>610.79998779297</ele>
        <time>2017-07-20T07:11:04Z</time>
      </trkpt>
      <trkpt lat="48.17286" lon="7.02579">
        <ele>612</ele>
        <time>2017-07-20T07:11:10Z</time>
      </trkpt>
      <trkpt lat="48.17288" lon="7.02576">
        <ele>612.40002441406</ele>
        <time>2017-07-20T07:11:11Z</time>
      </trkpt>
      <trkpt lat="48.17296" lon="7.02568">
        <ele>613.20001220703</ele>
        <time>2017-07-20T07:11:14Z</time>
      </trkpt>
      <trkpt lat="48.17304" lon="7.02554">
        <ele>614</ele>
        <time>2017-07-20T07:11:18Z</time>
      </trkpt>
      <trkpt lat="48.17306" lon="7.0255">
        <ele>614.20001220703</ele>
        <time>2017-07-20T07:11:19Z</time>
      </trkpt>
      <trkpt lat="48.17317" lon="7.02533">
        <ele>615.20001220703</ele>
        <time>2017-07-20T07:11:24Z</time>
      </trkpt>
      <trkpt lat="48.17325" lon="7.02524">
        <ele>615.59997558594</ele>
        <time>2017-07-20T07:11:27Z</time>
      </trkpt>
      <trkpt lat="48.17334" lon="7.02512">
        <ele>616.40002441406</ele>
        <time>2017-07-20T07:11:31Z</time>
      </trkpt>
      <trkpt lat="48.1734" lon="7.02503">
        <ele>617.40002441406</ele>
        <time>2017-07-20T07:11:34Z</time>
      </trkpt>
      <trkpt lat="48.17351" lon="7.02489">
        <ele>618.40002441406</ele>
        <time>2017-07-20T07:11:39Z</time>
      </trkpt>
      <trkpt lat="48.17353" lon="7.02487">
        <ele>618.79998779297</ele>
        <time>2017-07-20T07:11:40Z</time>
      </trkpt>
      <trkpt lat="48.17363" lon="7.02476">
        <ele>619.59997558594</ele>
        <time>2017-07-20T07:11:44Z</time>
      </trkpt>
      <trkpt lat="48.17376" lon="7.02461">
        <ele>620.59997558594</ele>
        <time>2017-07-20T07:11:50Z</time>
      </trkpt>
      <trkpt lat="48.17393" lon="7.02446">
        <ele>621.59997558594</ele>
        <time>2017-07-20T07:11:57Z</time>
      </trkpt>
      <trkpt lat="48.17395" lon="7.02445">
        <ele>621.79998779297</ele>
        <time>2017-07-20T07:11:58Z</time>
      </trkpt>
      <trkpt lat="48.17412" lon="7.02437">
        <ele>622.79998779297</ele>
        <time>2017-07-20T07:12:04Z</time>
      </trkpt>
      <trkpt lat="48.17414" lon="7.02436">
        <ele>622.79998779297</ele>
        <time>2017-07-20T07:12:05Z</time>
      </trkpt>
      <trkpt lat="48.17429" lon="7.0243">
        <ele>623.79998779297</ele>
        <time>2017-07-20T07:12:10Z</time>
      </trkpt>
      <trkpt lat="48.17435" lon="7.02428">
        <ele>624.20001220703</ele>
        <time>2017-07-20T07:12:12Z</time>
      </trkpt>
      <trkpt lat="48.17444" lon="7.02424">
        <ele>624.79998779297</ele>
        <time>2017-07-20T07:12:15Z</time>
      </trkpt>
      <trkpt lat="48.17459" lon="7.0242">
        <ele>625.40002441406</ele>
        <time>2017-07-20T07:12:20Z</time>
      </trkpt>
      <trkpt lat="48.17467" lon="7.02416">
        <ele>625.79998779297</ele>
        <time>2017-07-20T07:12:23Z</time>
      </trkpt>
      <trkpt lat="48.17478" lon="7.02413">
        <ele>626.59997558594</ele>
        <time>2017-07-20T07:12:27Z</time>
      </trkpt>
      <trkpt lat="48.17484" lon="7.02411">
        <ele>627</ele>
        <time>2017-07-20T07:12:29Z</time>
      </trkpt>
      <trkpt lat="48.17501" lon="7.02406">
        <ele>627.79998779297</ele>
        <time>2017-07-20T07:12:35Z</time>
      </trkpt>
      <trkpt lat="48.17503" lon="7.02405">
        <ele>628</ele>
        <time>2017-07-20T07:12:36Z</time>
      </trkpt>
      <trkpt lat="48.17521" lon="7.024">
        <ele>629.20001220703</ele>
        <time>2017-07-20T07:12:42Z</time>
      </trkpt>
      <trkpt lat="48.17535" lon="7.02399">
        <ele>630.20001220703</ele>
        <time>2017-07-20T07:12:47Z</time>
      </trkpt>
      <trkpt lat="48.17544" lon="7.02399">
        <ele>630.59997558594</ele>
        <time>2017-07-20T07:12:50Z</time>
      </trkpt>
      <trkpt lat="48.17558" lon="7.02399">
        <ele>631.20001220703</ele>
        <time>2017-07-20T07:12:55Z</time>
      </trkpt>
      <trkpt lat="48.17563" lon="7.024">
        <ele>631.59997558594</ele>
        <time>2017-07-20T07:12:57Z</time>
      </trkpt>
      <trkpt lat="48.17574" lon="7.02402">
        <ele>632.40002441406</ele>
        <time>2017-07-20T07:13:01Z</time>
      </trkpt>
      <trkpt lat="48.17582" lon="7.02404">
        <ele>632.79998779297</ele>
        <time>2017-07-20T07:13:04Z</time>
      </trkpt>
      <trkpt lat="48.17593" lon="7.02409">
        <ele>633.59997558594</ele>
        <time>2017-07-20T07:13:08Z</time>
      </trkpt>
      <trkpt lat="48.17603" lon="7.02415">
        <ele>634.40002441406</ele>
        <time>2017-07-20T07:13:12Z</time>
      </trkpt>
      <trkpt lat="48.17608" lon="7.02419">
        <ele>634.79998779297</ele>
        <time>2017-07-20T07:13:14Z</time>
      </trkpt>
      <trkpt lat="48.17619" lon="7.02427">
        <ele>635.59997558594</ele>
        <time>2017-07-20T07:13:18Z</time>
      </trkpt>
      <trkpt lat="48.17624" lon="7.02431">
        <ele>635.79998779297</ele>
        <time>2017-07-20T07:13:20Z</time>
      </trkpt>
      <trkpt lat="48.17635" lon="7.02441">
        <ele>636.59997558594</ele>
        <time>2017-07-20T07:13:25Z</time>
      </trkpt>
      <trkpt lat="48.1764" lon="7.02445">
        <ele>637</ele>
        <time>2017-07-20T07:13:27Z</time>
      </trkpt>
      <trkpt lat="48.17652" lon="7.02455">
        <ele>638</ele>
        <time>2017-07-20T07:13:32Z</time>
      </trkpt>
      <trkpt lat="48.17655" lon="7.02456">
        <ele>638</ele>
        <time>2017-07-20T07:13:33Z</time>
      </trkpt>
      <trkpt lat="48.1767" lon="7.02468">
        <ele>639.20001220703</ele>
        <time>2017-07-20T07:13:39Z</time>
      </trkpt>
      <trkpt lat="48.17688" lon="7.0248">
        <ele>640.40002441406</ele>
        <time>2017-07-20T07:13:46Z</time>
      </trkpt>
      <trkpt lat="48.17705" lon="7.0249">
        <ele>641.40002441406</ele>
        <time>2017-07-20T07:13:53Z</time>
      </trkpt>
      <trkpt lat="48.17711" lon="7.02492">
        <ele>642</ele>
        <time>2017-07-20T07:13:55Z</time>
      </trkpt>
      <trkpt lat="48.17721" lon="7.02493">
        <ele>642.59997558594</ele>
        <time>2017-07-20T07:13:58Z</time>
      </trkpt>
      <trkpt lat="48.1773" lon="7.02494">
        <ele>643.20001220703</ele>
        <time>2017-07-20T07:14:01Z</time>
      </trkpt>
      <trkpt lat="48.17739" lon="7.02496">
        <ele>643.59997558594</ele>
        <time>2017-07-20T07:14:04Z</time>
      </trkpt>
      <trkpt lat="48.17753" lon="7.02496">
        <ele>644.59997558594</ele>
        <time>2017-07-20T07:14:09Z</time>
      </trkpt>
      <trkpt lat="48.17757" lon="7.02496">
        <ele>644.79998779297</ele>
        <time>2017-07-20T07:14:10Z</time>
      </trkpt>
      <trkpt lat="48.17774" lon="7.02495">
        <ele>645.79998779297</ele>
        <time>2017-07-20T07:14:16Z</time>
      </trkpt>
      <trkpt lat="48.1778" lon="7.02494">
        <ele>646</ele>
        <time>2017-07-20T07:14:18Z</time>
      </trkpt>
      <trkpt lat="48.17794" lon="7.02492">
        <ele>646.79998779297</ele>
        <time>2017-07-20T07:14:23Z</time>
      </trkpt>
      <trkpt lat="48.17811" lon="7.02487">
        <ele>647.59997558594</ele>
        <time>2017-07-20T07:14:29Z</time>
      </trkpt>
      <trkpt lat="48.17817" lon="7.02485">
        <ele>647.79998779297</ele>
        <time>2017-07-20T07:14:31Z</time>
      </trkpt>
      <trkpt lat="48.17834" lon="7.02477">
        <ele>648.59997558594</ele>
        <time>2017-07-20T07:14:37Z</time>
      </trkpt>
      <trkpt lat="48.17837" lon="7.02476">
        <ele>649</ele>
        <time>2017-07-20T07:14:38Z</time>
      </trkpt>
      <trkpt lat="48.17854" lon="7.02465">
        <ele>650</ele>
        <time>2017-07-20T07:14:44Z</time>
      </trkpt>
      <trkpt lat="48.17856" lon="7.02463">
        <ele>650.20001220703</ele>
        <time>2017-07-20T07:14:45Z</time>
      </trkpt>
      <trkpt lat="48.17876" lon="7.02451">
        <ele>651</ele>
        <time>2017-07-20T07:14:52Z</time>
      </trkpt>
      <trkpt lat="48.17895" lon="7.02438">
        <ele>652.20001220703</ele>
        <time>2017-07-20T07:14:59Z</time>
      </trkpt>
      <trkpt lat="48.17915" lon="7.02423">
        <ele>653.40002441406</ele>
        <time>2017-07-20T07:15:06Z</time>
      </trkpt>
      <trkpt lat="48.17926" lon="7.02415">
        <ele>654.40002441406</ele>
        <time>2017-07-20T07:15:10Z</time>
      </trkpt>
      <trkpt lat="48.17936" lon="7.02406">
        <ele>655.20001220703</ele>
        <time>2017-07-20T07:15:14Z</time>
      </trkpt>
      <trkpt lat="48.17943" lon="7.02397">
        <ele>655.59997558594</ele>
        <time>2017-07-20T07:15:17Z</time>
      </trkpt>
      <trkpt lat="48.17953" lon="7.02377">
        <ele>656.59997558594</ele>
        <time>2017-07-20T07:15:22Z</time>
      </trkpt>
      <trkpt lat="48.17955" lon="7.02373">
        <ele>656.59997558594</ele>
        <time>2017-07-20T07:15:23Z</time>
      </trkpt>
      <trkpt lat="48.17973" lon="7.02345">
        <ele>657.59997558594</ele>
        <time>2017-07-20T07:15:31Z</time>
      </trkpt>
      <trkpt lat="48.17976" lon="7.02343">
        <ele>657.59997558594</ele>
        <time>2017-07-20T07:15:32Z</time>
      </trkpt>
      <trkpt lat="48.17991" lon="7.0234">
        <ele>658.20001220703</ele>
        <time>2017-07-20T07:15:37Z</time>
      </trkpt>
      <trkpt lat="48.18" lon="7.02346">
        <ele>658.79998779297</ele>
        <time>2017-07-20T07:15:40Z</time>
      </trkpt>
      <trkpt lat="48.18007" lon="7.02355">
        <ele>659.20001220703</ele>
        <time>2017-07-20T07:15:43Z</time>
      </trkpt>
      <trkpt lat="48.18011" lon="7.02369">
        <ele>659.79998779297</ele>
        <time>2017-07-20T07:15:46Z</time>
      </trkpt>
      <trkpt lat="48.18014" lon="7.02382">
        <ele>660.20001220703</ele>
        <time>2017-07-20T07:15:49Z</time>
      </trkpt>
      <trkpt lat="48.18011" lon="7.02395">
        <ele>660.79998779297</ele>
        <time>2017-07-20T07:15:52Z</time>
      </trkpt>
      <trkpt lat="48.18009" lon="7.02404">
        <ele>661.20001220703</ele>
        <time>2017-07-20T07:15:54Z</time>
      </trkpt>
      <trkpt lat="48.18003" lon="7.02414">
        <ele>662</ele>
        <time>2017-07-20T07:15:57Z</time>
      </trkpt>
      <trkpt lat="48.17999" lon="7.02419">
        <ele>662.40002441406</ele>
        <time>2017-07-20T07:15:59Z</time>
      </trkpt>
      <trkpt lat="48.17991" lon="7.02423">
        <ele>663</ele>
        <time>2017-07-20T07:16:02Z</time>
      </trkpt>
      <trkpt lat="48.17982" lon="7.02425">
        <ele>663.79998779297</ele>
        <time>2017-07-20T07:16:05Z</time>
      </trkpt>
      <trkpt lat="48.17976" lon="7.02428">
        <ele>664.20001220703</ele>
        <time>2017-07-20T07:16:07Z</time>
      </trkpt>
      <trkpt lat="48.17971" lon="7.0243">
        <ele>664.59997558594</ele>
        <time>2017-07-20T07:16:09Z</time>
      </trkpt>
      <trkpt lat="48.17966" lon="7.02432">
        <ele>665.20001220703</ele>
        <time>2017-07-20T07:16:11Z</time>
      </trkpt>
      <trkpt lat="48.17947" lon="7.02443">
        <ele>666.20001220703</ele>
        <time>2017-07-20T07:16:18Z</time>
      </trkpt>
      <trkpt lat="48.17945" lon="7.02446">
        <ele>666.40002441406</ele>
        <time>2017-07-20T07:16:19Z</time>
      </trkpt>
      <trkpt lat="48.17927" lon="7.02469">
        <ele>666.79998779297</ele>
        <time>2017-07-20T07:16:27Z</time>
      </trkpt>
      <trkpt lat="48.17915" lon="7.0249">
        <ele>666.59997558594</ele>
        <time>2017-07-20T07:16:34Z</time>
      </trkpt>
      <trkpt lat="48.17901" lon="7.02506">
        <ele>667.40002441406</ele>
        <time>2017-07-20T07:16:40Z</time>
      </trkpt>
      <trkpt lat="48.17898" lon="7.02511">
        <ele>667.40002441406</ele>
        <time>2017-07-20T07:16:42Z</time>
      </trkpt>
      <trkpt lat="48.17881" lon="7.02535">
        <ele>668.40002441406</ele>
        <time>2017-07-20T07:16:50Z</time>
      </trkpt>
      <trkpt lat="48.1787" lon="7.02555">
        <ele>669.59997558594</ele>
        <time>2017-07-20T07:16:56Z</time>
      </trkpt>
      <trkpt lat="48.17868" lon="7.02559">
        <ele>669.79998779297</ele>
        <time>2017-07-20T07:16:57Z</time>
      </trkpt>
      <trkpt lat="48.17854" lon="7.02581">
        <ele>670.79998779297</ele>
        <time>2017-07-20T07:17:04Z</time>
      </trkpt>
      <trkpt lat="48.1785" lon="7.02587">
        <ele>671</ele>
        <time>2017-07-20T07:17:06Z</time>
      </trkpt>
      <trkpt lat="48.17842" lon="7.02595">
        <ele>672</ele>
        <time>2017-07-20T07:17:09Z</time>
      </trkpt>
      <trkpt lat="48.17832" lon="7.02605">
        <ele>673</ele>
        <time>2017-07-20T07:17:13Z</time>
      </trkpt>
      <trkpt lat="48.1781" lon="7.02624">
        <ele>674.20001220703</ele>
        <time>2017-07-20T07:17:22Z</time>
      </trkpt>
      <trkpt lat="48.1779" lon="7.02634">
        <ele>675.20001220703</ele>
        <time>2017-07-20T07:17:30Z</time>
      </trkpt>
      <trkpt lat="48.17783" lon="7.02637">
        <ele>675.40002441406</ele>
        <time>2017-07-20T07:17:32Z</time>
      </trkpt>
      <trkpt lat="48.1777" lon="7.02641">
        <ele>676.20001220703</ele>
        <time>2017-07-20T07:17:37Z</time>
      </trkpt>
      <trkpt lat="48.17762" lon="7.02644">
        <ele>677</ele>
        <time>2017-07-20T07:17:40Z</time>
      </trkpt>
      <trkpt lat="48.1776" lon="7.02646">
        <ele>677.40002441406</ele>
        <time>2017-07-20T07:17:41Z</time>
      </trkpt>
      <trkpt lat="48.17744" lon="7.02653">
        <ele>678.40002441406</ele>
        <time>2017-07-20T07:17:47Z</time>
      </trkpt>
      <trkpt lat="48.17738" lon="7.02655">
        <ele>678.40002441406</ele>
        <time>2017-07-20T07:17:49Z</time>
      </trkpt>
      <trkpt lat="48.17722" lon="7.02663">
        <ele>678.79998779297</ele>
        <time>2017-07-20T07:17:55Z</time>
      </trkpt>
      <trkpt lat="48.17706" lon="7.0267">
        <ele>679.59997558594</ele>
        <time>2017-07-20T07:18:01Z</time>
      </trkpt>
      <trkpt lat="48.177" lon="7.02672">
        <ele>680.20001220703</ele>
        <time>2017-07-20T07:18:03Z</time>
      </trkpt>
      <trkpt lat="48.17686" lon="7.02678">
        <ele>680.79998779297</ele>
        <time>2017-07-20T07:18:08Z</time>
      </trkpt>
      <trkpt lat="48.17681" lon="7.0268">
        <ele>681</ele>
        <time>2017-07-20T07:18:10Z</time>
      </trkpt>
      <trkpt lat="48.1767" lon="7.02684">
        <ele>681.79998779297</ele>
        <time>2017-07-20T07:18:14Z</time>
      </trkpt>
      <trkpt lat="48.17659" lon="7.02687">
        <ele>682.40002441406</ele>
        <time>2017-07-20T07:18:18Z</time>
      </trkpt>
      <trkpt lat="48.1765" lon="7.02689">
        <ele>683.20001220703</ele>
        <time>2017-07-20T07:18:21Z</time>
      </trkpt>
      <trkpt lat="48.17642" lon="7.0269">
        <ele>683.79998779297</ele>
        <time>2017-07-20T07:18:24Z</time>
      </trkpt>
      <trkpt lat="48.17636" lon="7.02692">
        <ele>684.20001220703</ele>
        <time>2017-07-20T07:18:26Z</time>
      </trkpt>
      <trkpt lat="48.1762" lon="7.02694">
        <ele>685</ele>
        <time>2017-07-20T07:18:32Z</time>
      </trkpt>
      <trkpt lat="48.17617" lon="7.02694">
        <ele>685.20001220703</ele>
        <time>2017-07-20T07:18:33Z</time>
      </trkpt>
      <trkpt lat="48.17599" lon="7.02694">
        <ele>686.20001220703</ele>
        <time>2017-07-20T07:18:39Z</time>
      </trkpt>
      <trkpt lat="48.17596" lon="7.02694">
        <ele>686.40002441406</ele>
        <time>2017-07-20T07:18:40Z</time>
      </trkpt>
      <trkpt lat="48.17586" lon="7.02694">
        <ele>687.20001220703</ele>
        <time>2017-07-20T07:18:44Z</time>
      </trkpt>
      <trkpt lat="48.17578" lon="7.02693">
        <ele>688</ele>
        <time>2017-07-20T07:18:47Z</time>
      </trkpt>
      <trkpt lat="48.17576" lon="7.02693">
        <ele>688.20001220703</ele>
        <time>2017-07-20T07:18:48Z</time>
      </trkpt>
      <trkpt lat="48.17562" lon="7.02693">
        <ele>689</ele>
        <time>2017-07-20T07:18:53Z</time>
      </trkpt>
      <trkpt lat="48.17555" lon="7.02695">
        <ele>689.40002441406</ele>
        <time>2017-07-20T07:18:56Z</time>
      </trkpt>
      <trkpt lat="48.17542" lon="7.02698">
        <ele>689.79998779297</ele>
        <time>2017-07-20T07:19:01Z</time>
      </trkpt>
      <trkpt lat="48.17531" lon="7.02703">
        <ele>690.59997558594</ele>
        <time>2017-07-20T07:19:06Z</time>
      </trkpt>
      <trkpt lat="48.17526" lon="7.02706">
        <ele>690.79998779297</ele>
        <time>2017-07-20T07:19:08Z</time>
      </trkpt>
      <trkpt lat="48.17513" lon="7.02715">
        <ele>691.59997558594</ele>
        <time>2017-07-20T07:19:14Z</time>
      </trkpt>
      <trkpt lat="48.17507" lon="7.02721">
        <ele>692</ele>
        <time>2017-07-20T07:19:17Z</time>
      </trkpt>
      <trkpt lat="48.17495" lon="7.02734">
        <ele>692.79998779297</ele>
        <time>2017-07-20T07:19:23Z</time>
      </trkpt>
      <trkpt lat="48.17484" lon="7.02749">
        <ele>693.40002441406</ele>
        <time>2017-07-20T07:19:29Z</time>
      </trkpt>
      <trkpt lat="48.17478" lon="7.02756">
        <ele>693.79998779297</ele>
        <time>2017-07-20T07:19:32Z</time>
      </trkpt>
      <trkpt lat="48.17472" lon="7.02769">
        <ele>694.40002441406</ele>
        <time>2017-07-20T07:19:36Z</time>
      </trkpt>
      <trkpt lat="48.17468" lon="7.02783">
        <ele>695</ele>
        <time>2017-07-20T07:19:40Z</time>
      </trkpt>
      <trkpt lat="48.17464" lon="7.02793">
        <ele>695.20001220703</ele>
        <time>2017-07-20T07:19:43Z</time>
      </trkpt>
      <trkpt lat="48.17457" lon="7.02812">
        <ele>696</ele>
        <time>2017-07-20T07:19:49Z</time>
      </trkpt>
      <trkpt lat="48.17441" lon="7.02837">
        <ele>697.20001220703</ele>
        <time>2017-07-20T07:19:57Z</time>
      </trkpt>
      <trkpt lat="48.17433" lon="7.02851">
        <ele>698</ele>
        <time>2017-07-20T07:20:02Z</time>
      </trkpt>
      <trkpt lat="48.17427" lon="7.02859">
        <ele>698.40002441406</ele>
        <time>2017-07-20T07:20:05Z</time>
      </trkpt>
      <trkpt lat="48.17423" lon="7.02864">
        <ele>698.59997558594</ele>
        <time>2017-07-20T07:20:07Z</time>
      </trkpt>
      <trkpt lat="48.17413" lon="7.02883">
        <ele>699.40002441406</ele>
        <time>2017-07-20T07:20:13Z</time>
      </trkpt>
      <trkpt lat="48.17412" lon="7.02885">
        <ele>699.59997558594</ele>
        <time>2017-07-20T07:20:14Z</time>
      </trkpt>
      <trkpt lat="48.17402" lon="7.02902">
        <ele>700.40002441406</ele>
        <time>2017-07-20T07:20:20Z</time>
      </trkpt>
      <trkpt lat="48.174" lon="7.02905">
        <ele>700.79998779297</ele>
        <time>2017-07-20T07:20:21Z</time>
      </trkpt>
      <trkpt lat="48.1739" lon="7.02922">
        <ele>701.59997558594</ele>
        <time>2017-07-20T07:20:27Z</time>
      </trkpt>
      <trkpt lat="48.17377" lon="7.02942">
        <ele>702.59997558594</ele>
        <time>2017-07-20T07:20:34Z</time>
      </trkpt>
      <trkpt lat="48.17375" lon="7.02945">
        <ele>702.59997558594</ele>
        <time>2017-07-20T07:20:35Z</time>
      </trkpt>
      <trkpt lat="48.17364" lon="7.02964">
        <ele>703.59997558594</ele>
        <time>2017-07-20T07:20:41Z</time>
      </trkpt>
      <trkpt lat="48.17358" lon="7.02972">
        <ele>704</ele>
        <time>2017-07-20T07:20:44Z</time>
      </trkpt>
      <trkpt lat="48.17351" lon="7.02984">
        <ele>704.79998779297</ele>
        <time>2017-07-20T07:20:48Z</time>
      </trkpt>
      <trkpt lat="48.17344" lon="7.02996">
        <ele>705.40002441406</ele>
        <time>2017-07-20T07:20:52Z</time>
      </trkpt>
      <trkpt lat="48.17339" lon="7.03005">
        <ele>705.79998779297</ele>
        <time>2017-07-20T07:20:55Z</time>
      </trkpt>
      <trkpt lat="48.17331" lon="7.03022">
        <ele>706.59997558594</ele>
        <time>2017-07-20T07:21:00Z</time>
      </trkpt>
      <trkpt lat="48.17327" lon="7.03027">
        <ele>707</ele>
        <time>2017-07-20T07:21:02Z</time>
      </trkpt>
      <trkpt lat="48.17321" lon="7.03046">
        <ele>707.59997558594</ele>
        <time>2017-07-20T07:21:07Z</time>
      </trkpt>
      <trkpt lat="48.17318" lon="7.03053">
        <ele>708</ele>
        <time>2017-07-20T07:21:09Z</time>
      </trkpt>
      <trkpt lat="48.17309" lon="7.03083">
        <ele>709</ele>
        <time>2017-07-20T07:21:17Z</time>
      </trkpt>
      <trkpt lat="48.17304" lon="7.03107">
        <ele>710.20001220703</ele>
        <time>2017-07-20T07:21:23Z</time>
      </trkpt>
      <trkpt lat="48.17303" lon="7.03116">
        <ele>710.40002441406</ele>
        <time>2017-07-20T07:21:25Z</time>
      </trkpt>
      <trkpt lat="48.17301" lon="7.03133">
        <ele>711.20001220703</ele>
        <time>2017-07-20T07:21:29Z</time>
      </trkpt>
      <trkpt lat="48.173" lon="7.03141">
        <ele>711.59997558594</ele>
        <time>2017-07-20T07:21:31Z</time>
      </trkpt>
      <trkpt lat="48.17299" lon="7.03154">
        <ele>712.40002441406</ele>
        <time>2017-07-20T07:21:34Z</time>
      </trkpt>
      <trkpt lat="48.173" lon="7.03175">
        <ele>713.40002441406</ele>
        <time>2017-07-20T07:21:39Z</time>
      </trkpt>
      <trkpt lat="48.173" lon="7.03204">
        <ele>714.40002441406</ele>
        <time>2017-07-20T07:21:46Z</time>
      </trkpt>
      <trkpt lat="48.17301" lon="7.03216">
        <ele>715</ele>
        <time>2017-07-20T07:21:49Z</time>
      </trkpt>
      <trkpt lat="48.17301" lon="7.03232">
        <ele>715.59997558594</ele>
        <time>2017-07-20T07:21:53Z</time>
      </trkpt>
      <trkpt lat="48.173" lon="7.03244">
        <ele>715.79998779297</ele>
        <time>2017-07-20T07:21:56Z</time>
      </trkpt>
      <trkpt lat="48.173" lon="7.03256">
        <ele>716.59997558594</ele>
        <time>2017-07-20T07:21:59Z</time>
      </trkpt>
      <trkpt lat="48.173" lon="7.03271">
        <ele>717.20001220703</ele>
        <time>2017-07-20T07:22:03Z</time>
      </trkpt>
      <trkpt lat="48.17301" lon="7.03284">
        <ele>717.59997558594</ele>
        <time>2017-07-20T07:22:06Z</time>
      </trkpt>
      <trkpt lat="48.17302" lon="7.0331">
        <ele>718.59997558594</ele>
        <time>2017-07-20T07:22:12Z</time>
      </trkpt>
      <trkpt lat="48.17302" lon="7.03314">
        <ele>718.79998779297</ele>
        <time>2017-07-20T07:22:13Z</time>
      </trkpt>
      <trkpt lat="48.17304" lon="7.03338">
        <ele>719.59997558594</ele>
        <time>2017-07-20T07:22:19Z</time>
      </trkpt>
      <trkpt lat="48.17304" lon="7.03342">
        <ele>719.79998779297</ele>
        <time>2017-07-20T07:22:20Z</time>
      </trkpt>
      <trkpt lat="48.17309" lon="7.03365">
        <ele>720.79998779297</ele>
        <time>2017-07-20T07:22:26Z</time>
      </trkpt>
      <trkpt lat="48.17316" lon="7.03391">
        <ele>721.79998779297</ele>
        <time>2017-07-20T07:22:33Z</time>
      </trkpt>
      <trkpt lat="48.17317" lon="7.03395">
        <ele>722</ele>
        <time>2017-07-20T07:22:34Z</time>
      </trkpt>
      <trkpt lat="48.17324" lon="7.03415">
        <ele>723</ele>
        <time>2017-07-20T07:22:40Z</time>
      </trkpt>
      <trkpt lat="48.17325" lon="7.03418">
        <ele>723.20001220703</ele>
        <time>2017-07-20T07:22:41Z</time>
      </trkpt>
      <trkpt lat="48.17326" lon="7.03421">
        <ele>724.40002441406</ele>
        <time>2017-07-20T07:23:21Z</time>
      </trkpt>
      <trkpt lat="48.17328" lon="7.03424">
        <ele>724.40002441406</ele>
        <time>2017-07-20T07:23:22Z</time>
      </trkpt>
      <trkpt lat="48.17338" lon="7.03438">
        <ele>724.79998779297</ele>
        <time>2017-07-20T07:23:28Z</time>
      </trkpt>
      <trkpt lat="48.17347" lon="7.03457">
        <ele>725.59997558594</ele>
        <time>2017-07-20T07:23:34Z</time>
      </trkpt>
      <trkpt lat="48.1736" lon="7.03476">
        <ele>726.59997558594</ele>
        <time>2017-07-20T07:23:41Z</time>
      </trkpt>
      <trkpt lat="48.17362" lon="7.03479">
        <ele>726.79998779297</ele>
        <time>2017-07-20T07:23:42Z</time>
      </trkpt>
      <trkpt lat="48.17376" lon="7.03491">
        <ele>727.79998779297</ele>
        <time>2017-07-20T07:23:48Z</time>
      </trkpt>
      <trkpt lat="48.17378" lon="7.03494">
        <ele>727.79998779297</ele>
        <time>2017-07-20T07:23:49Z</time>
      </trkpt>
      <trkpt lat="48.17389" lon="7.03505">
        <ele>728.79998779297</ele>
        <time>2017-07-20T07:23:55Z</time>
      </trkpt>
      <trkpt lat="48.17405" lon="7.03518">
        <ele>729.79998779297</ele>
        <time>2017-07-20T07:24:02Z</time>
      </trkpt>
      <trkpt lat="48.17418" lon="7.03531">
        <ele>730.59997558594</ele>
        <time>2017-07-20T07:24:09Z</time>
      </trkpt>
      <trkpt lat="48.1742" lon="7.03534">
        <ele>730.79998779297</ele>
        <time>2017-07-20T07:24:10Z</time>
      </trkpt>
      <trkpt lat="48.17429" lon="7.03543">
        <ele>731.40002441406</ele>
        <time>2017-07-20T07:24:14Z</time>
      </trkpt>
      <trkpt lat="48.17435" lon="7.03549">
        <ele>731.79998779297</ele>
        <time>2017-07-20T07:24:17Z</time>
      </trkpt>
      <trkpt lat="48.17442" lon="7.03558">
        <ele>732.40002441406</ele>
        <time>2017-07-20T07:24:21Z</time>
      </trkpt>
      <trkpt lat="48.17449" lon="7.03568">
        <ele>733</ele>
        <time>2017-07-20T07:24:25Z</time>
      </trkpt>
      <trkpt lat="48.17454" lon="7.03573">
        <ele>733.40002441406</ele>
        <time>2017-07-20T07:24:27Z</time>
      </trkpt>
      <trkpt lat="48.17463" lon="7.03587">
        <ele>734</ele>
        <time>2017-07-20T07:24:32Z</time>
      </trkpt>
      <trkpt lat="48.17467" lon="7.03592">
        <ele>734.40002441406</ele>
        <time>2017-07-20T07:24:34Z</time>
      </trkpt>
      <trkpt lat="48.17476" lon="7.0361">
        <ele>735.20001220703</ele>
        <time>2017-07-20T07:24:40Z</time>
      </trkpt>
      <trkpt lat="48.17484" lon="7.03629">
        <ele>736.20001220703</ele>
        <time>2017-07-20T07:24:46Z</time>
      </trkpt>
      <trkpt lat="48.17486" lon="7.03637">
        <ele>736.40002441406</ele>
        <time>2017-07-20T07:24:48Z</time>
      </trkpt>
      <trkpt lat="48.17492" lon="7.03657">
        <ele>737.40002441406</ele>
        <time>2017-07-20T07:24:54Z</time>
      </trkpt>
      <trkpt lat="48.17493" lon="7.03664">
        <ele>737.59997558594</ele>
        <time>2017-07-20T07:24:56Z</time>
      </trkpt>
      <trkpt lat="48.17497" lon="7.03682">
        <ele>738.20001220703</ele>
        <time>2017-07-20T07:25:01Z</time>
      </trkpt>
      <trkpt lat="48.17498" lon="7.03689">
        <ele>738.40002441406</ele>
        <time>2017-07-20T07:25:03Z</time>
      </trkpt>
      <trkpt lat="48.17501" lon="7.03703">
        <ele>739</ele>
        <time>2017-07-20T07:25:07Z</time>
      </trkpt>
      <trkpt lat="48.17502" lon="7.03715">
        <ele>739.59997558594</ele>
        <time>2017-07-20T07:25:10Z</time>
      </trkpt>
      <trkpt lat="48.17504" lon="7.0373">
        <ele>740</ele>
        <time>2017-07-20T07:25:14Z</time>
      </trkpt>
      <trkpt lat="48.17507" lon="7.03748">
        <ele>740.59997558594</ele>
        <time>2017-07-20T07:25:19Z</time>
      </trkpt>
      <trkpt lat="48.17509" lon="7.0376">
        <ele>741</ele>
        <time>2017-07-20T07:25:22Z</time>
      </trkpt>
      <trkpt lat="48.17509" lon="7.03776">
        <ele>741.59997558594</ele>
        <time>2017-07-20T07:25:26Z</time>
      </trkpt>
      <trkpt lat="48.17509" lon="7.03788">
        <ele>742.20001220703</ele>
        <time>2017-07-20T07:25:29Z</time>
      </trkpt>
      <trkpt lat="48.17509" lon="7.03807">
        <ele>742.79998779297</ele>
        <time>2017-07-20T07:25:34Z</time>
      </trkpt>
      <trkpt lat="48.17508" lon="7.03815">
        <ele>743.20001220703</ele>
        <time>2017-07-20T07:25:36Z</time>
      </trkpt>
      <trkpt lat="48.17506" lon="7.03838">
        <ele>743.79998779297</ele>
        <time>2017-07-20T07:25:42Z</time>
      </trkpt>
      <trkpt lat="48.17506" lon="7.03846">
        <ele>744.20001220703</ele>
        <time>2017-07-20T07:25:44Z</time>
      </trkpt>
      <trkpt lat="48.17505" lon="7.03861">
        <ele>745</ele>
        <time>2017-07-20T07:25:48Z</time>
      </trkpt>
      <trkpt lat="48.17503" lon="7.03876">
        <ele>745.40002441406</ele>
        <time>2017-07-20T07:25:52Z</time>
      </trkpt>
      <trkpt lat="48.17499" lon="7.03894">
        <ele>746</ele>
        <time>2017-07-20T07:25:57Z</time>
      </trkpt>
      <trkpt lat="48.17497" lon="7.03902">
        <ele>746.20001220703</ele>
        <time>2017-07-20T07:25:59Z</time>
      </trkpt>
      <trkpt lat="48.17492" lon="7.03919">
        <ele>747</ele>
        <time>2017-07-20T07:26:04Z</time>
      </trkpt>
      <trkpt lat="48.17481" lon="7.0394">
        <ele>748</ele>
        <time>2017-07-20T07:26:11Z</time>
      </trkpt>
      <trkpt lat="48.17468" lon="7.03958">
        <ele>749.20001220703</ele>
        <time>2017-07-20T07:26:18Z</time>
      </trkpt>
      <trkpt lat="48.17466" lon="7.0396">
        <ele>749.40002441406</ele>
        <time>2017-07-20T07:26:19Z</time>
      </trkpt>
      <trkpt lat="48.17456" lon="7.03967">
        <ele>750.20001220703</ele>
        <time>2017-07-20T07:26:23Z</time>
      </trkpt>
      <trkpt lat="48.1745" lon="7.03972">
        <ele>750.79998779297</ele>
        <time>2017-07-20T07:26:26Z</time>
      </trkpt>
      <trkpt lat="48.17446" lon="7.03973">
        <ele>751.20001220703</ele>
        <time>2017-07-20T07:26:28Z</time>
      </trkpt>
      <trkpt lat="48.17434" lon="7.03976">
        <ele>752.40002441406</ele>
        <time>2017-07-20T07:26:33Z</time>
      </trkpt>
      <trkpt lat="48.17432" lon="7.03975">
        <ele>752.40002441406</ele>
        <time>2017-07-20T07:26:34Z</time>
      </trkpt>
      <trkpt lat="48.17415" lon="7.03974">
        <ele>753.40002441406</ele>
        <time>2017-07-20T07:26:41Z</time>
      </trkpt>
      <trkpt lat="48.17413" lon="7.03974">
        <ele>753.59997558594</ele>
        <time>2017-07-20T07:26:42Z</time>
      </trkpt>
      <trkpt lat="48.17399" lon="7.03974">
        <ele>754.40002441406</ele>
        <time>2017-07-20T07:26:48Z</time>
      </trkpt>
      <trkpt lat="48.17397" lon="7.03973">
        <ele>754.59997558594</ele>
        <time>2017-07-20T07:26:49Z</time>
      </trkpt>
      <trkpt lat="48.1738" lon="7.03972">
        <ele>755.59997558594</ele>
        <time>2017-07-20T07:26:56Z</time>
      </trkpt>
      <trkpt lat="48.17366" lon="7.0397">
        <ele>756.40002441406</ele>
        <time>2017-07-20T07:27:02Z</time>
      </trkpt>
      <trkpt lat="48.17363" lon="7.0397">
        <ele>756.59997558594</ele>
        <time>2017-07-20T07:27:03Z</time>
      </trkpt>
      <trkpt lat="48.1735" lon="7.0397">
        <ele>757.40002441406</ele>
        <time>2017-07-20T07:27:09Z</time>
      </trkpt>
      <trkpt lat="48.17348" lon="7.0397">
        <ele>757.59997558594</ele>
        <time>2017-07-20T07:27:10Z</time>
      </trkpt>
      <trkpt lat="48.17335" lon="7.03972">
        <ele>758.40002441406</ele>
        <time>2017-07-20T07:27:16Z</time>
      </trkpt>
      <trkpt lat="48.17329" lon="7.03972">
        <ele>758.59997558594</ele>
        <time>2017-07-20T07:27:18Z</time>
      </trkpt>
      <trkpt lat="48.1732" lon="7.03973">
        <ele>759.20001220703</ele>
        <time>2017-07-20T07:27:22Z</time>
      </trkpt>
      <trkpt lat="48.17312" lon="7.03976">
        <ele>759.79998779297</ele>
        <time>2017-07-20T07:27:26Z</time>
      </trkpt>
      <trkpt lat="48.17308" lon="7.03977">
        <ele>760</ele>
        <time>2017-07-20T07:27:28Z</time>
      </trkpt>
      <trkpt lat="48.17295" lon="7.03979">
        <ele>761</ele>
        <time>2017-07-20T07:27:34Z</time>
      </trkpt>
      <trkpt lat="48.17289" lon="7.03982">
        <ele>761.40002441406</ele>
        <time>2017-07-20T07:27:37Z</time>
      </trkpt>
      <trkpt lat="48.17279" lon="7.03987">
        <ele>762</ele>
        <time>2017-07-20T07:27:42Z</time>
      </trkpt>
      <trkpt lat="48.17275" lon="7.03989">
        <ele>762.40002441406</ele>
        <time>2017-07-20T07:27:44Z</time>
      </trkpt>
      <trkpt lat="48.17266" lon="7.03992">
        <ele>763</ele>
        <time>2017-07-20T07:27:49Z</time>
      </trkpt>
      <trkpt lat="48.17263" lon="7.03993">
        <ele>763.20001220703</ele>
        <time>2017-07-20T07:27:50Z</time>
      </trkpt>
      <trkpt lat="48.17249" lon="7.04">
        <ele>764</ele>
        <time>2017-07-20T07:27:56Z</time>
      </trkpt>
      <trkpt lat="48.17247" lon="7.04001">
        <ele>764.20001220703</ele>
        <time>2017-07-20T07:27:57Z</time>
      </trkpt>
      <trkpt lat="48.1723" lon="7.0401">
        <ele>765.20001220703</ele>
        <time>2017-07-20T07:28:04Z</time>
      </trkpt>
      <trkpt lat="48.17228" lon="7.04012">
        <ele>765.40002441406</ele>
        <time>2017-07-20T07:28:05Z</time>
      </trkpt>
      <trkpt lat="48.1721" lon="7.04021">
        <ele>766.40002441406</ele>
        <time>2017-07-20T07:28:12Z</time>
      </trkpt>
      <trkpt lat="48.17197" lon="7.04031">
        <ele>767</ele>
        <time>2017-07-20T07:28:17Z</time>
      </trkpt>
      <trkpt lat="48.17189" lon="7.04039">
        <ele>767.59997558594</ele>
        <time>2017-07-20T07:28:20Z</time>
      </trkpt>
      <trkpt lat="48.17176" lon="7.04053">
        <ele>768.40002441406</ele>
        <time>2017-07-20T07:28:25Z</time>
      </trkpt>
      <trkpt lat="48.17174" lon="7.04056">
        <ele>768.59997558594</ele>
        <time>2017-07-20T07:28:26Z</time>
      </trkpt>
      <trkpt lat="48.1716" lon="7.04072">
        <ele>769.40002441406</ele>
        <time>2017-07-20T07:28:32Z</time>
      </trkpt>
      <trkpt lat="48.17156" lon="7.04079">
        <ele>769.59997558594</ele>
        <time>2017-07-20T07:28:34Z</time>
      </trkpt>
      <trkpt lat="48.17148" lon="7.0409">
        <ele>770</ele>
        <time>2017-07-20T07:28:38Z</time>
      </trkpt>
      <trkpt lat="48.17142" lon="7.04098">
        <ele>770.59997558594</ele>
        <time>2017-07-20T07:28:41Z</time>
      </trkpt>
      <trkpt lat="48.17132" lon="7.04112">
        <ele>771.59997558594</ele>
        <time>2017-07-20T07:28:46Z</time>
      </trkpt>
      <trkpt lat="48.1713" lon="7.04114">
        <ele>771.79998779297</ele>
        <time>2017-07-20T07:28:47Z</time>
      </trkpt>
      <trkpt lat="48.17116" lon="7.04134">
        <ele>772.79998779297</ele>
        <time>2017-07-20T07:28:54Z</time>
      </trkpt>
      <trkpt lat="48.17104" lon="7.04158">
        <ele>773.79998779297</ele>
        <time>2017-07-20T07:29:01Z</time>
      </trkpt>
      <trkpt lat="48.17101" lon="7.04165">
        <ele>774.20001220703</ele>
        <time>2017-07-20T07:29:03Z</time>
      </trkpt>
      <trkpt lat="48.17091" lon="7.04186">
        <ele>775</ele>
        <time>2017-07-20T07:29:09Z</time>
      </trkpt>
      <trkpt lat="48.17084" lon="7.04206">
        <ele>776</ele>
        <time>2017-07-20T07:29:14Z</time>
      </trkpt>
      <trkpt lat="48.1708" lon="7.04218">
        <ele>776.40002441406</ele>
        <time>2017-07-20T07:29:17Z</time>
      </trkpt>
      <trkpt lat="48.17075" lon="7.04232">
        <ele>777</ele>
        <time>2017-07-20T07:29:21Z</time>
      </trkpt>
      <trkpt lat="48.17073" lon="7.0424">
        <ele>777.40002441406</ele>
        <time>2017-07-20T07:29:23Z</time>
      </trkpt>
      <trkpt lat="48.17067" lon="7.04259">
        <ele>778.20001220703</ele>
        <time>2017-07-20T07:29:28Z</time>
      </trkpt>
      <trkpt lat="48.17064" lon="7.04267">
        <ele>778.59997558594</ele>
        <time>2017-07-20T07:29:30Z</time>
      </trkpt>
      <trkpt lat="48.1706" lon="7.04286">
        <ele>779.40002441406</ele>
        <time>2017-07-20T07:29:35Z</time>
      </trkpt>
      <trkpt lat="48.17058" lon="7.04295">
        <ele>779.79998779297</ele>
        <time>2017-07-20T07:29:37Z</time>
      </trkpt>
      <trkpt lat="48.17052" lon="7.04319">
        <ele>780.59997558594</ele>
        <time>2017-07-20T07:29:43Z</time>
      </trkpt>
      <trkpt lat="48.1705" lon="7.04331">
        <ele>781</ele>
        <time>2017-07-20T07:29:46Z</time>
      </trkpt>
      <trkpt lat="48.17046" lon="7.04351">
        <ele>781.59997558594</ele>
        <time>2017-07-20T07:29:51Z</time>
      </trkpt>
      <trkpt lat="48.17043" lon="7.04371">
        <ele>782.40002441406</ele>
        <time>2017-07-20T07:29:56Z</time>
      </trkpt>
      <trkpt lat="48.17041" lon="7.04383">
        <ele>783</ele>
        <time>2017-07-20T07:29:59Z</time>
      </trkpt>
      <trkpt lat="48.17038" lon="7.044">
        <ele>783.40002441406</ele>
        <time>2017-07-20T07:30:03Z</time>
      </trkpt>
      <trkpt lat="48.17035" lon="7.04416">
        <ele>784</ele>
        <time>2017-07-20T07:30:07Z</time>
      </trkpt>
      <trkpt lat="48.1703" lon="7.04436">
        <ele>784.79998779297</ele>
        <time>2017-07-20T07:30:12Z</time>
      </trkpt>
      <trkpt lat="48.17029" lon="7.04444">
        <ele>785</ele>
        <time>2017-07-20T07:30:14Z</time>
      </trkpt>
      <trkpt lat="48.17024" lon="7.04468">
        <ele>785.79998779297</ele>
        <time>2017-07-20T07:30:20Z</time>
      </trkpt>
      <trkpt lat="48.17023" lon="7.04477">
        <ele>786.20001220703</ele>
        <time>2017-07-20T07:30:22Z</time>
      </trkpt>
      <trkpt lat="48.17019" lon="7.04502">
        <ele>787.20001220703</ele>
        <time>2017-07-20T07:30:28Z</time>
      </trkpt>
      <trkpt lat="48.17015" lon="7.04527">
        <ele>788.40002441406</ele>
        <time>2017-07-20T07:30:34Z</time>
      </trkpt>
      <trkpt lat="48.17014" lon="7.04536">
        <ele>788.59997558594</ele>
        <time>2017-07-20T07:30:36Z</time>
      </trkpt>
      <trkpt lat="48.17009" lon="7.04565">
        <ele>789.40002441406</ele>
        <time>2017-07-20T07:30:43Z</time>
      </trkpt>
      <trkpt lat="48.17006" lon="7.04577">
        <ele>789.79998779297</ele>
        <time>2017-07-20T07:30:46Z</time>
      </trkpt>
      <trkpt lat="48.17003" lon="7.04589">
        <ele>790.40002441406</ele>
        <time>2017-07-20T07:30:49Z</time>
      </trkpt>
      <trkpt lat="48.16997" lon="7.0461">
        <ele>791.40002441406</ele>
        <time>2017-07-20T07:30:54Z</time>
      </trkpt>
      <trkpt lat="48.16996" lon="7.04614">
        <ele>791.40002441406</ele>
        <time>2017-07-20T07:30:55Z</time>
      </trkpt>
      <trkpt lat="48.16987" lon="7.04639">
        <ele>792.40002441406</ele>
        <time>2017-07-20T07:31:01Z</time>
      </trkpt>
      <trkpt lat="48.16985" lon="7.04643">
        <ele>792.59997558594</ele>
        <time>2017-07-20T07:31:02Z</time>
      </trkpt>
      <trkpt lat="48.16978" lon="7.04667">
        <ele>793.59997558594</ele>
        <time>2017-07-20T07:31:08Z</time>
      </trkpt>
      <trkpt lat="48.16976" lon="7.04671">
        <ele>793.79998779297</ele>
        <time>2017-07-20T07:31:09Z</time>
      </trkpt>
      <trkpt lat="48.16969" lon="7.0469">
        <ele>794.79998779297</ele>
        <time>2017-07-20T07:31:14Z</time>
      </trkpt>
      <trkpt lat="48.16963" lon="7.04708">
        <ele>795.40002441406</ele>
        <time>2017-07-20T07:31:19Z</time>
      </trkpt>
      <trkpt lat="48.1696" lon="7.04715">
        <ele>795.79998779297</ele>
        <time>2017-07-20T07:31:21Z</time>
      </trkpt>
      <trkpt lat="48.16949" lon="7.0474">
        <ele>796.79998779297</ele>
        <time>2017-07-20T07:31:28Z</time>
      </trkpt>
      <trkpt lat="48.16938" lon="7.04763">
        <ele>798</ele>
        <time>2017-07-20T07:31:35Z</time>
      </trkpt>
      <trkpt lat="48.16937" lon="7.04767">
        <ele>798.20001220703</ele>
        <time>2017-07-20T07:31:36Z</time>
      </trkpt>
      <trkpt lat="48.16927" lon="7.04789">
        <ele>799</ele>
        <time>2017-07-20T07:31:42Z</time>
      </trkpt>
      <trkpt lat="48.16919" lon="7.04804">
        <ele>799.79998779297</ele>
        <time>2017-07-20T07:31:46Z</time>
      </trkpt>
      <trkpt lat="48.16917" lon="7.04812">
        <ele>800</ele>
        <time>2017-07-20T07:31:48Z</time>
      </trkpt>
      <trkpt lat="48.1691" lon="7.04831">
        <ele>800.79998779297</ele>
        <time>2017-07-20T07:31:53Z</time>
      </trkpt>
      <trkpt lat="48.16906" lon="7.04839">
        <ele>801.20001220703</ele>
        <time>2017-07-20T07:31:55Z</time>
      </trkpt>
      <trkpt lat="48.16896" lon="7.0486">
        <ele>802.40002441406</ele>
        <time>2017-07-20T07:32:01Z</time>
      </trkpt>
      <trkpt lat="48.16894" lon="7.04863">
        <ele>802.59997558594</ele>
        <time>2017-07-20T07:32:02Z</time>
      </trkpt>
      <trkpt lat="48.16885" lon="7.04882">
        <ele>803.40002441406</ele>
        <time>2017-07-20T07:32:07Z</time>
      </trkpt>
      <trkpt lat="48.1688" lon="7.04893">
        <ele>803.79998779297</ele>
        <time>2017-07-20T07:32:10Z</time>
      </trkpt>
      <trkpt lat="48.16874" lon="7.04904">
        <ele>804.40002441406</ele>
        <time>2017-07-20T07:32:13Z</time>
      </trkpt>
      <trkpt lat="48.16866" lon="7.04922">
        <ele>805.20001220703</ele>
        <time>2017-07-20T07:32:18Z</time>
      </trkpt>
      <trkpt lat="48.16863" lon="7.04929">
        <ele>805.40002441406</ele>
        <time>2017-07-20T07:32:20Z</time>
      </trkpt>
      <trkpt lat="48.16854" lon="7.04947">
        <ele>806.40002441406</ele>
        <time>2017-07-20T07:32:25Z</time>
      </trkpt>
      <trkpt lat="48.16852" lon="7.0495">
        <ele>806.59997558594</ele>
        <time>2017-07-20T07:32:26Z</time>
      </trkpt>
      <trkpt lat="48.16842" lon="7.04971">
        <ele>807.59997558594</ele>
        <time>2017-07-20T07:32:32Z</time>
      </trkpt>
      <trkpt lat="48.16841" lon="7.04975">
        <ele>807.59997558594</ele>
        <time>2017-07-20T07:32:33Z</time>
      </trkpt>
      <trkpt lat="48.16831" lon="7.04995">
        <ele>808.59997558594</ele>
        <time>2017-07-20T07:32:39Z</time>
      </trkpt>
      <trkpt lat="48.16829" lon="7.05002">
        <ele>809</ele>
        <time>2017-07-20T07:32:41Z</time>
      </trkpt>
      <trkpt lat="48.16821" lon="7.05021">
        <ele>809.79998779297</ele>
        <time>2017-07-20T07:32:46Z</time>
      </trkpt>
      <trkpt lat="48.16819" lon="7.05029">
        <ele>810.40002441406</ele>
        <time>2017-07-20T07:32:48Z</time>
      </trkpt>
      <trkpt lat="48.16816" lon="7.0504">
        <ele>810.79998779297</ele>
        <time>2017-07-20T07:32:51Z</time>
      </trkpt>
      <trkpt lat="48.16811" lon="7.0506">
        <ele>811.59997558594</ele>
        <time>2017-07-20T07:32:56Z</time>
      </trkpt>
      <trkpt lat="48.1681" lon="7.05069">
        <ele>812</ele>
        <time>2017-07-20T07:32:58Z</time>
      </trkpt>
      <trkpt lat="48.16811" lon="7.05085">
        <ele>812.59997558594</ele>
        <time>2017-07-20T07:33:02Z</time>
      </trkpt>
      <trkpt lat="48.16813" lon="7.05094">
        <ele>813</ele>
        <time>2017-07-20T07:33:04Z</time>
      </trkpt>
      <trkpt lat="48.16817" lon="7.05111">
        <ele>813.59997558594</ele>
        <time>2017-07-20T07:33:08Z</time>
      </trkpt>
      <trkpt lat="48.16821" lon="7.05123">
        <ele>814.20001220703</ele>
        <time>2017-07-20T07:33:11Z</time>
      </trkpt>
      <trkpt lat="48.16826" lon="7.05137">
        <ele>814.79998779297</ele>
        <time>2017-07-20T07:33:15Z</time>
      </trkpt>
      <trkpt lat="48.16829" lon="7.05143">
        <ele>815.20001220703</ele>
        <time>2017-07-20T07:33:17Z</time>
      </trkpt>
      <trkpt lat="48.16838" lon="7.05159">
        <ele>816.20001220703</ele>
        <time>2017-07-20T07:33:22Z</time>
      </trkpt>
      <trkpt lat="48.1684" lon="7.05163">
        <ele>816.40002441406</ele>
        <time>2017-07-20T07:33:23Z</time>
      </trkpt>
      <trkpt lat="48.16854" lon="7.05183">
        <ele>817.20001220703</ele>
        <time>2017-07-20T07:33:30Z</time>
      </trkpt>
      <trkpt lat="48.16856" lon="7.05186">
        <ele>817.40002441406</ele>
        <time>2017-07-20T07:33:31Z</time>
      </trkpt>
      <trkpt lat="48.1687" lon="7.05208">
        <ele>818.59997558594</ele>
        <time>2017-07-20T07:33:38Z</time>
      </trkpt>
      <trkpt lat="48.16882" lon="7.05232">
        <ele>819.59997558594</ele>
        <time>2017-07-20T07:33:45Z</time>
      </trkpt>
      <trkpt lat="48.16897" lon="7.05253">
        <ele>820.59997558594</ele>
        <time>2017-07-20T07:33:52Z</time>
      </trkpt>
      <trkpt lat="48.16899" lon="7.05257">
        <ele>820.79998779297</ele>
        <time>2017-07-20T07:33:53Z</time>
      </trkpt>
      <trkpt lat="48.16909" lon="7.05277">
        <ele>822</ele>
        <time>2017-07-20T07:33:59Z</time>
      </trkpt>
      <trkpt lat="48.16922" lon="7.053">
        <ele>823</ele>
        <time>2017-07-20T07:34:06Z</time>
      </trkpt>
      <trkpt lat="48.16924" lon="7.05303">
        <ele>823.20001220703</ele>
        <time>2017-07-20T07:34:07Z</time>
      </trkpt>
      <trkpt lat="48.16937" lon="7.05325">
        <ele>824.20001220703</ele>
        <time>2017-07-20T07:34:14Z</time>
      </trkpt>
      <trkpt lat="48.16949" lon="7.05347">
        <ele>825.40002441406</ele>
        <time>2017-07-20T07:34:21Z</time>
      </trkpt>
      <trkpt lat="48.1696" lon="7.05365">
        <ele>826.40002441406</ele>
        <time>2017-07-20T07:34:27Z</time>
      </trkpt>
      <trkpt lat="48.16962" lon="7.05369">
        <ele>826.59997558594</ele>
        <time>2017-07-20T07:34:28Z</time>
      </trkpt>
      <trkpt lat="48.16972" lon="7.05386">
        <ele>827.59997558594</ele>
        <time>2017-07-20T07:34:34Z</time>
      </trkpt>
      <trkpt lat="48.16984" lon="7.05405">
        <ele>828.59997558594</ele>
        <time>2017-07-20T07:34:40Z</time>
      </trkpt>
      <trkpt lat="48.16997" lon="7.05424">
        <ele>829.79998779297</ele>
        <time>2017-07-20T07:34:47Z</time>
      </trkpt>
      <trkpt lat="48.17005" lon="7.05431">
        <ele>830.40002441406</ele>
        <time>2017-07-20T07:34:51Z</time>
      </trkpt>
      <trkpt lat="48.17013" lon="7.05443">
        <ele>831</ele>
        <time>2017-07-20T07:34:55Z</time>
      </trkpt>
      <trkpt lat="48.17017" lon="7.05449">
        <ele>831.20001220703</ele>
        <time>2017-07-20T07:34:57Z</time>
      </trkpt>
      <trkpt lat="48.17029" lon="7.05463">
        <ele>832</ele>
        <time>2017-07-20T07:35:02Z</time>
      </trkpt>
      <trkpt lat="48.17032" lon="7.05465">
        <ele>832.20001220703</ele>
        <time>2017-07-20T07:35:03Z</time>
      </trkpt>
      <trkpt lat="48.17047" lon="7.05479">
        <ele>833</ele>
        <time>2017-07-20T07:35:09Z</time>
      </trkpt>
      <trkpt lat="48.1705" lon="7.05481">
        <ele>833.20001220703</ele>
        <time>2017-07-20T07:35:10Z</time>
      </trkpt>
      <trkpt lat="48.1706" lon="7.05495">
        <ele>834</ele>
        <time>2017-07-20T07:35:15Z</time>
      </trkpt>
      <trkpt lat="48.17064" lon="7.055">
        <ele>834.40002441406</ele>
        <time>2017-07-20T07:35:17Z</time>
      </trkpt>
      <trkpt lat="48.17077" lon="7.05515">
        <ele>835</ele>
        <time>2017-07-20T07:35:22Z</time>
      </trkpt>
      <trkpt lat="48.1708" lon="7.05518">
        <ele>835.20001220703</ele>
        <time>2017-07-20T07:35:23Z</time>
      </trkpt>
      <trkpt lat="48.17091" lon="7.05543">
        <ele>836.20001220703</ele>
        <time>2017-07-20T07:35:30Z</time>
      </trkpt>
      <trkpt lat="48.17093" lon="7.05546">
        <ele>836.20001220703</ele>
        <time>2017-07-20T07:35:31Z</time>
      </trkpt>
      <trkpt lat="48.171" lon="7.05568">
        <ele>837.20001220703</ele>
        <time>2017-07-20T07:35:37Z</time>
      </trkpt>
      <trkpt lat="48.17101" lon="7.05572">
        <ele>837.40002441406</ele>
        <time>2017-07-20T07:35:38Z</time>
      </trkpt>
      <trkpt lat="48.17106" lon="7.05591">
        <ele>838.40002441406</ele>
        <time>2017-07-20T07:35:43Z</time>
      </trkpt>
      <trkpt lat="48.17108" lon="7.05603">
        <ele>838.79998779297</ele>
        <time>2017-07-20T07:35:46Z</time>
      </trkpt>
      <trkpt lat="48.17111" lon="7.05619">
        <ele>839.40002441406</ele>
        <time>2017-07-20T07:35:50Z</time>
      </trkpt>
      <trkpt lat="48.17113" lon="7.05636">
        <ele>840</ele>
        <time>2017-07-20T07:35:54Z</time>
      </trkpt>
      <trkpt lat="48.17114" lon="7.05649">
        <ele>840.40002441406</ele>
        <time>2017-07-20T07:35:57Z</time>
      </trkpt>
      <trkpt lat="48.17114" lon="7.05666">
        <ele>841.20001220703</ele>
        <time>2017-07-20T07:36:01Z</time>
      </trkpt>
      <trkpt lat="48.17113" lon="7.05675">
        <ele>841.40002441406</ele>
        <time>2017-07-20T07:36:03Z</time>
      </trkpt>
      <trkpt lat="48.1711" lon="7.057">
        <ele>842.40002441406</ele>
        <time>2017-07-20T07:36:09Z</time>
      </trkpt>
      <trkpt lat="48.17109" lon="7.05705">
        <ele>842.59997558594</ele>
        <time>2017-07-20T07:36:10Z</time>
      </trkpt>
      <trkpt lat="48.17104" lon="7.05725">
        <ele>843.40002441406</ele>
        <time>2017-07-20T07:36:15Z</time>
      </trkpt>
      <trkpt lat="48.17103" lon="7.05729">
        <ele>843.79998779297</ele>
        <time>2017-07-20T07:36:16Z</time>
      </trkpt>
      <trkpt lat="48.17092" lon="7.05752">
        <ele>844.79998779297</ele>
        <time>2017-07-20T07:36:23Z</time>
      </trkpt>
      <trkpt lat="48.17087" lon="7.05763">
        <ele>845.40002441406</ele>
        <time>2017-07-20T07:36:26Z</time>
      </trkpt>
      <trkpt lat="48.17081" lon="7.05772">
        <ele>846</ele>
        <time>2017-07-20T07:36:29Z</time>
      </trkpt>
      <trkpt lat="48.17075" lon="7.05782">
        <ele>846.20001220703</ele>
        <time>2017-07-20T07:36:32Z</time>
      </trkpt>
      <trkpt lat="48.17065" lon="7.05798">
        <ele>847</ele>
        <time>2017-07-20T07:36:37Z</time>
      </trkpt>
      <trkpt lat="48.17058" lon="7.05811">
        <ele>847.40002441406</ele>
        <time>2017-07-20T07:36:41Z</time>
      </trkpt>
      <trkpt lat="48.1705" lon="7.05823">
        <ele>848</ele>
        <time>2017-07-20T07:36:45Z</time>
      </trkpt>
      <trkpt lat="48.17041" lon="7.05832">
        <ele>848.79998779297</ele>
        <time>2017-07-20T07:36:49Z</time>
      </trkpt>
      <trkpt lat="48.17036" lon="7.05838">
        <ele>849.20001220703</ele>
        <time>2017-07-20T07:36:51Z</time>
      </trkpt>
      <trkpt lat="48.17031" lon="7.05844">
        <ele>849.40002441406</ele>
        <time>2017-07-20T07:36:53Z</time>
      </trkpt>
      <trkpt lat="48.17028" lon="7.05845">
        <ele>849.40002441406</ele>
        <time>2017-07-20T07:36:54Z</time>
      </trkpt>
      <trkpt lat="48.17017" lon="7.05852">
        <ele>850.20001220703</ele>
        <time>2017-07-20T07:36:58Z</time>
      </trkpt>
      <trkpt lat="48.17007" lon="7.05857">
        <ele>850.59997558594</ele>
        <time>2017-07-20T07:37:01Z</time>
      </trkpt>
      <trkpt lat="48.16995" lon="7.05865">
        <ele>851.20001220703</ele>
        <time>2017-07-20T07:37:05Z</time>
      </trkpt>
      <trkpt lat="48.16986" lon="7.05869">
        <ele>851.79998779297</ele>
        <time>2017-07-20T07:37:08Z</time>
      </trkpt>
      <trkpt lat="48.16978" lon="7.05876">
        <ele>852.59997558594</ele>
        <time>2017-07-20T07:37:11Z</time>
      </trkpt>
      <trkpt lat="48.1697" lon="7.05881">
        <ele>853.40002441406</ele>
        <time>2017-07-20T07:37:14Z</time>
      </trkpt>
      <trkpt lat="48.16967" lon="7.05883">
        <ele>853.59997558594</ele>
        <time>2017-07-20T07:37:15Z</time>
      </trkpt>
      <trkpt lat="48.16952" lon="7.05897">
        <ele>854.59997558594</ele>
        <time>2017-07-20T07:37:21Z</time>
      </trkpt>
      <trkpt lat="48.16949" lon="7.05899">
        <ele>854.79998779297</ele>
        <time>2017-07-20T07:37:22Z</time>
      </trkpt>
      <trkpt lat="48.16936" lon="7.05909">
        <ele>855.59997558594</ele>
        <time>2017-07-20T07:37:27Z</time>
      </trkpt>
      <trkpt lat="48.16933" lon="7.05912">
        <ele>855.79998779297</ele>
        <time>2017-07-20T07:37:29Z</time>
      </trkpt>
      <trkpt lat="48.16928" lon="7.05916">
        <ele>856.20001220703</ele>
        <time>2017-07-20T07:37:31Z</time>
      </trkpt>
      <trkpt lat="48.16917" lon="7.05927">
        <ele>857</ele>
        <time>2017-07-20T07:37:36Z</time>
      </trkpt>
      <trkpt lat="48.16914" lon="7.05929">
        <ele>857.20001220703</ele>
        <time>2017-07-20T07:37:37Z</time>
      </trkpt>
      <trkpt lat="48.16902" lon="7.05943">
        <ele>858</ele>
        <time>2017-07-20T07:37:43Z</time>
      </trkpt>
      <trkpt lat="48.169" lon="7.05944">
        <ele>858</ele>
        <time>2017-07-20T07:37:44Z</time>
      </trkpt>
      <trkpt lat="48.16887" lon="7.05957">
        <ele>858.59997558594</ele>
        <time>2017-07-20T07:37:50Z</time>
      </trkpt>
      <trkpt lat="48.16876" lon="7.05968">
        <ele>859.20001220703</ele>
        <time>2017-07-20T07:37:55Z</time>
      </trkpt>
      <trkpt lat="48.16869" lon="7.05974">
        <ele>859.59997558594</ele>
        <time>2017-07-20T07:37:58Z</time>
      </trkpt>
      <trkpt lat="48.16862" lon="7.0598">
        <ele>860.20001220703</ele>
        <time>2017-07-20T07:38:01Z</time>
      </trkpt>
      <trkpt lat="48.16853" lon="7.05986">
        <ele>860.59997558594</ele>
        <time>2017-07-20T07:38:05Z</time>
      </trkpt>
      <trkpt lat="48.16844" lon="7.05993">
        <ele>861.20001220703</ele>
        <time>2017-07-20T07:38:09Z</time>
      </trkpt>
      <trkpt lat="48.16834" lon="7.05999">
        <ele>861.59997558594</ele>
        <time>2017-07-20T07:38:13Z</time>
      </trkpt>
      <trkpt lat="48.16821" lon="7.06006">
        <ele>862.40002441406</ele>
        <time>2017-07-20T07:38:18Z</time>
      </trkpt>
      <trkpt lat="48.16816" lon="7.0601">
        <ele>862.59997558594</ele>
        <time>2017-07-20T07:38:20Z</time>
      </trkpt>
      <trkpt lat="48.16807" lon="7.06019">
        <ele>863.40002441406</ele>
        <time>2017-07-20T07:38:24Z</time>
      </trkpt>
      <trkpt lat="48.16803" lon="7.06023">
        <ele>863.79998779297</ele>
        <time>2017-07-20T07:38:26Z</time>
      </trkpt>
      <trkpt lat="48.16791" lon="7.06036">
        <ele>864.40002441406</ele>
        <time>2017-07-20T07:38:31Z</time>
      </trkpt>
      <trkpt lat="48.16786" lon="7.06043">
        <ele>864.79998779297</ele>
        <time>2017-07-20T07:38:34Z</time>
      </trkpt>
      <trkpt lat="48.16776" lon="7.06057">
        <ele>865.40002441406</ele>
        <time>2017-07-20T07:38:39Z</time>
      </trkpt>
      <trkpt lat="48.16769" lon="7.0607">
        <ele>866.20001220703</ele>
        <time>2017-07-20T07:38:43Z</time>
      </trkpt>
      <trkpt lat="48.16763" lon="7.06079">
        <ele>866.59997558594</ele>
        <time>2017-07-20T07:38:46Z</time>
      </trkpt>
      <trkpt lat="48.16755" lon="7.06095">
        <ele>867.40002441406</ele>
        <time>2017-07-20T07:38:51Z</time>
      </trkpt>
      <trkpt lat="48.16752" lon="7.06102">
        <ele>867.79998779297</ele>
        <time>2017-07-20T07:38:53Z</time>
      </trkpt>
      <trkpt lat="48.16741" lon="7.0613">
        <ele>868.79998779297</ele>
        <time>2017-07-20T07:39:01Z</time>
      </trkpt>
      <trkpt lat="48.1674" lon="7.06134">
        <ele>868.79998779297</ele>
        <time>2017-07-20T07:39:02Z</time>
      </trkpt>
      <trkpt lat="48.16734" lon="7.06157">
        <ele>869.79998779297</ele>
        <time>2017-07-20T07:39:08Z</time>
      </trkpt>
      <trkpt lat="48.16733" lon="7.06161">
        <ele>870</ele>
        <time>2017-07-20T07:39:09Z</time>
      </trkpt>
      <trkpt lat="48.1673" lon="7.06191">
        <ele>871.20001220703</ele>
        <time>2017-07-20T07:39:16Z</time>
      </trkpt>
      <trkpt lat="48.16727" lon="7.06224">
        <ele>872.20001220703</ele>
        <time>2017-07-20T07:39:23Z</time>
      </trkpt>
      <trkpt lat="48.16725" lon="7.06258">
        <ele>873.20001220703</ele>
        <time>2017-07-20T07:39:30Z</time>
      </trkpt>
      <trkpt lat="48.16725" lon="7.06262">
        <ele>873.40002441406</ele>
        <time>2017-07-20T07:39:31Z</time>
      </trkpt>
      <trkpt lat="48.16726" lon="7.06285">
        <ele>874.40002441406</ele>
        <time>2017-07-20T07:39:36Z</time>
      </trkpt>
      <trkpt lat="48.16725" lon="7.063">
        <ele>874.79998779297</ele>
        <time>2017-07-20T07:39:39Z</time>
      </trkpt>
      <trkpt lat="48.16724" lon="7.06319">
        <ele>875.40002441406</ele>
        <time>2017-07-20T07:39:43Z</time>
      </trkpt>
      <trkpt lat="48.16724" lon="7.06328">
        <ele>875.79998779297</ele>
        <time>2017-07-20T07:39:45Z</time>
      </trkpt>
      <trkpt lat="48.16723" lon="7.06349">
        <ele>876.59997558594</ele>
        <time>2017-07-20T07:39:50Z</time>
      </trkpt>
      <trkpt lat="48.16723" lon="7.06358">
        <ele>876.79998779297</ele>
        <time>2017-07-20T07:39:52Z</time>
      </trkpt>
      <trkpt lat="48.16722" lon="7.06381">
        <ele>877.79998779297</ele>
        <time>2017-07-20T07:39:57Z</time>
      </trkpt>
      <trkpt lat="48.16722" lon="7.06385">
        <ele>877.79998779297</ele>
        <time>2017-07-20T07:39:58Z</time>
      </trkpt>
      <trkpt lat="48.16723" lon="7.06405">
        <ele>878.79998779297</ele>
        <time>2017-07-20T07:40:02Z</time>
      </trkpt>
      <trkpt lat="48.16722" lon="7.06418">
        <ele>879.20001220703</ele>
        <time>2017-07-20T07:40:05Z</time>
      </trkpt>
      <trkpt lat="48.16721" lon="7.06436">
        <ele>880</ele>
        <time>2017-07-20T07:40:09Z</time>
      </trkpt>
      <trkpt lat="48.16719" lon="7.06449">
        <ele>880.40002441406</ele>
        <time>2017-07-20T07:40:12Z</time>
      </trkpt>
      <trkpt lat="48.16719" lon="7.06473">
        <ele>881</ele>
        <time>2017-07-20T07:40:17Z</time>
      </trkpt>
      <trkpt lat="48.16718" lon="7.06477">
        <ele>881.20001220703</ele>
        <time>2017-07-20T07:40:18Z</time>
      </trkpt>
      <trkpt lat="48.16716" lon="7.06499">
        <ele>882.40002441406</ele>
        <time>2017-07-20T07:40:23Z</time>
      </trkpt>
      <trkpt lat="48.16716" lon="7.06508">
        <ele>882.59997558594</ele>
        <time>2017-07-20T07:40:25Z</time>
      </trkpt>
      <trkpt lat="48.16715" lon="7.06527">
        <ele>883.40002441406</ele>
        <time>2017-07-20T07:40:29Z</time>
      </trkpt>
      <trkpt lat="48.16714" lon="7.06544">
        <ele>884</ele>
        <time>2017-07-20T07:40:33Z</time>
      </trkpt>
      <trkpt lat="48.16713" lon="7.06558">
        <ele>884.59997558594</ele>
        <time>2017-07-20T07:40:36Z</time>
      </trkpt>
      <trkpt lat="48.16714" lon="7.06571">
        <ele>885</ele>
        <time>2017-07-20T07:40:39Z</time>
      </trkpt>
      <trkpt lat="48.16714" lon="7.06589">
        <ele>885.59997558594</ele>
        <time>2017-07-20T07:40:43Z</time>
      </trkpt>
      <trkpt lat="48.16714" lon="7.06603">
        <ele>886.20001220703</ele>
        <time>2017-07-20T07:40:46Z</time>
      </trkpt>
      <trkpt lat="48.16713" lon="7.06617">
        <ele>886.79998779297</ele>
        <time>2017-07-20T07:40:49Z</time>
      </trkpt>
      <trkpt lat="48.16715" lon="7.0664">
        <ele>887.40002441406</ele>
        <time>2017-07-20T07:40:54Z</time>
      </trkpt>
      <trkpt lat="48.16717" lon="7.06653">
        <ele>887.79998779297</ele>
        <time>2017-07-20T07:40:57Z</time>
      </trkpt>
      <trkpt lat="48.16718" lon="7.06673">
        <ele>888.59997558594</ele>
        <time>2017-07-20T07:41:02Z</time>
      </trkpt>
      <trkpt lat="48.16718" lon="7.06682">
        <ele>889</ele>
        <time>2017-07-20T07:41:04Z</time>
      </trkpt>
      <trkpt lat="48.16719" lon="7.06714">
        <ele>890</ele>
        <time>2017-07-20T07:41:11Z</time>
      </trkpt>
      <trkpt lat="48.16722" lon="7.0674">
        <ele>891</ele>
        <time>2017-07-20T07:41:17Z</time>
      </trkpt>
      <trkpt lat="48.16722" lon="7.06745">
        <ele>891.20001220703</ele>
        <time>2017-07-20T07:41:18Z</time>
      </trkpt>
      <trkpt lat="48.16722" lon="7.06773">
        <ele>892.20001220703</ele>
        <time>2017-07-20T07:41:24Z</time>
      </trkpt>
      <trkpt lat="48.16721" lon="7.06807">
        <ele>893.20001220703</ele>
        <time>2017-07-20T07:41:31Z</time>
      </trkpt>
      <trkpt lat="48.16715" lon="7.06833">
        <ele>894.40002441406</ele>
        <time>2017-07-20T07:41:37Z</time>
      </trkpt>
      <trkpt lat="48.16715" lon="7.06838">
        <ele>894.59997558594</ele>
        <time>2017-07-20T07:41:38Z</time>
      </trkpt>
      <trkpt lat="48.16711" lon="7.06859">
        <ele>895.40002441406</ele>
        <time>2017-07-20T07:41:43Z</time>
      </trkpt>
      <trkpt lat="48.1671" lon="7.06862">
        <ele>895.59997558594</ele>
        <time>2017-07-20T07:41:44Z</time>
      </trkpt>
      <trkpt lat="48.16703" lon="7.06887">
        <ele>896.59997558594</ele>
        <time>2017-07-20T07:41:50Z</time>
      </trkpt>
      <trkpt lat="48.167" lon="7.069">
        <ele>897</ele>
        <time>2017-07-20T07:41:53Z</time>
      </trkpt>
      <trkpt lat="48.16695" lon="7.06917">
        <ele>897.59997558594</ele>
        <time>2017-07-20T07:41:57Z</time>
      </trkpt>
      <trkpt lat="48.16691" lon="7.06936">
        <ele>898.40002441406</ele>
        <time>2017-07-20T07:42:01Z</time>
      </trkpt>
      <trkpt lat="48.1669" lon="7.06941">
        <ele>898.59997558594</ele>
        <time>2017-07-20T07:42:02Z</time>
      </trkpt>
      <trkpt lat="48.16685" lon="7.06962">
        <ele>899.59997558594</ele>
        <time>2017-07-20T07:42:07Z</time>
      </trkpt>
      <trkpt lat="48.16684" lon="7.06966">
        <ele>899.79998779297</ele>
        <time>2017-07-20T07:42:08Z</time>
      </trkpt>
      <trkpt lat="48.1668" lon="7.06992">
        <ele>900.79998779297</ele>
        <time>2017-07-20T07:42:14Z</time>
      </trkpt>
      <trkpt lat="48.16679" lon="7.06996">
        <ele>901</ele>
        <time>2017-07-20T07:42:15Z</time>
      </trkpt>
      <trkpt lat="48.16678" lon="7.07017">
        <ele>901.79998779297</ele>
        <time>2017-07-20T07:42:20Z</time>
      </trkpt>
      <trkpt lat="48.16677" lon="7.07031">
        <ele>902.40002441406</ele>
        <time>2017-07-20T07:42:23Z</time>
      </trkpt>
      <trkpt lat="48.16676" lon="7.07036">
        <ele>903</ele>
        <time>2017-07-20T07:42:24Z</time>
      </trkpt>
      <trkpt lat="48.16675" lon="7.07066">
        <ele>904</ele>
        <time>2017-07-20T07:42:31Z</time>
      </trkpt>
      <trkpt lat="48.16676" lon="7.07075">
        <ele>904.40002441406</ele>
        <time>2017-07-20T07:42:33Z</time>
      </trkpt>
      <trkpt lat="48.16678" lon="7.07097">
        <ele>905.20001220703</ele>
        <time>2017-07-20T07:42:38Z</time>
      </trkpt>
      <trkpt lat="48.16678" lon="7.07106">
        <ele>905.40002441406</ele>
        <time>2017-07-20T07:42:40Z</time>
      </trkpt>
      <trkpt lat="48.16679" lon="7.07115">
        <ele>905.59997558594</ele>
        <time>2017-07-20T07:42:42Z</time>
      </trkpt>
      <trkpt lat="48.1668" lon="7.07133">
        <ele>906.20001220703</ele>
        <time>2017-07-20T07:42:46Z</time>
      </trkpt>
      <trkpt lat="48.16681" lon="7.07145">
        <ele>906.79998779297</ele>
        <time>2017-07-20T07:42:49Z</time>
      </trkpt>
      <trkpt lat="48.16681" lon="7.07158">
        <ele>907.20001220703</ele>
        <time>2017-07-20T07:42:52Z</time>
      </trkpt>
      <trkpt lat="48.16681" lon="7.0718">
        <ele>908.20001220703</ele>
        <time>2017-07-20T07:42:57Z</time>
      </trkpt>
      <trkpt lat="48.16681" lon="7.0719">
        <ele>908.40002441406</ele>
        <time>2017-07-20T07:42:59Z</time>
      </trkpt>
      <trkpt lat="48.16681" lon="7.07218">
        <ele>909.40002441406</ele>
        <time>2017-07-20T07:43:05Z</time>
      </trkpt>
      <trkpt lat="48.1668" lon="7.07223">
        <ele>909.59997558594</ele>
        <time>2017-07-20T07:43:06Z</time>
      </trkpt>
      <trkpt lat="48.16679" lon="7.07248">
        <ele>910.59997558594</ele>
        <time>2017-07-20T07:43:12Z</time>
      </trkpt>
      <trkpt lat="48.16678" lon="7.07253">
        <ele>910.79998779297</ele>
        <time>2017-07-20T07:43:13Z</time>
      </trkpt>
      <trkpt lat="48.16676" lon="7.07286">
        <ele>911.79998779297</ele>
        <time>2017-07-20T07:43:20Z</time>
      </trkpt>
      <trkpt lat="48.16676" lon="7.0729">
        <ele>912</ele>
        <time>2017-07-20T07:43:21Z</time>
      </trkpt>
      <trkpt lat="48.16674" lon="7.07317">
        <ele>913</ele>
        <time>2017-07-20T07:43:27Z</time>
      </trkpt>
      <trkpt lat="48.16672" lon="7.07329">
        <ele>913.40002441406</ele>
        <time>2017-07-20T07:43:30Z</time>
      </trkpt>
      <trkpt lat="48.16669" lon="7.07346">
        <ele>914</ele>
        <time>2017-07-20T07:43:34Z</time>
      </trkpt>
      <trkpt lat="48.16667" lon="7.07362">
        <ele>914.79998779297</ele>
        <time>2017-07-20T07:43:38Z</time>
      </trkpt>
      <trkpt lat="48.16666" lon="7.0737">
        <ele>915.20001220703</ele>
        <time>2017-07-20T07:43:40Z</time>
      </trkpt>
      <trkpt lat="48.16661" lon="7.07398">
        <ele>916.20001220703</ele>
        <time>2017-07-20T07:43:47Z</time>
      </trkpt>
      <trkpt lat="48.16655" lon="7.0743">
        <ele>917.40002441406</ele>
        <time>2017-07-20T07:43:55Z</time>
      </trkpt>
      <trkpt lat="48.16651" lon="7.07449">
        <ele>918.40002441406</ele>
        <time>2017-07-20T07:44:00Z</time>
      </trkpt>
      <trkpt lat="48.16648" lon="7.07465">
        <ele>919</ele>
        <time>2017-07-20T07:44:04Z</time>
      </trkpt>
      <trkpt lat="48.16647" lon="7.07477">
        <ele>919.40002441406</ele>
        <time>2017-07-20T07:44:07Z</time>
      </trkpt>
      <trkpt lat="48.16643" lon="7.07496">
        <ele>920.40002441406</ele>
        <time>2017-07-20T07:44:12Z</time>
      </trkpt>
      <trkpt lat="48.16642" lon="7.075">
        <ele>920.59997558594</ele>
        <time>2017-07-20T07:44:13Z</time>
      </trkpt>
      <trkpt lat="48.16638" lon="7.07523">
        <ele>921.40002441406</ele>
        <time>2017-07-20T07:44:19Z</time>
      </trkpt>
      <trkpt lat="48.16638" lon="7.07527">
        <ele>921.59997558594</ele>
        <time>2017-07-20T07:44:20Z</time>
      </trkpt>
      <trkpt lat="48.16632" lon="7.07554">
        <ele>922.59997558594</ele>
        <time>2017-07-20T07:44:27Z</time>
      </trkpt>
      <trkpt lat="48.16631" lon="7.07557">
        <ele>922.79998779297</ele>
        <time>2017-07-20T07:44:28Z</time>
      </trkpt>
      <trkpt lat="48.16624" lon="7.07579">
        <ele>923.79998779297</ele>
        <time>2017-07-20T07:44:34Z</time>
      </trkpt>
      <trkpt lat="48.16619" lon="7.07589">
        <ele>924.20001220703</ele>
        <time>2017-07-20T07:44:37Z</time>
      </trkpt>
      <trkpt lat="48.16611" lon="7.07605">
        <ele>924.79998779297</ele>
        <time>2017-07-20T07:44:42Z</time>
      </trkpt>
      <trkpt lat="48.16609" lon="7.07609">
        <ele>925</ele>
        <time>2017-07-20T07:44:43Z</time>
      </trkpt>
      <trkpt lat="48.166" lon="7.07629">
        <ele>926</ele>
        <time>2017-07-20T07:44:49Z</time>
      </trkpt>
      <trkpt lat="48.16595" lon="7.0764">
        <ele>926.40002441406</ele>
        <time>2017-07-20T07:44:52Z</time>
      </trkpt>
      <trkpt lat="48.16588" lon="7.07654">
        <ele>927</ele>
        <time>2017-07-20T07:44:56Z</time>
      </trkpt>
      <trkpt lat="48.16584" lon="7.07665">
        <ele>927.59997558594</ele>
        <time>2017-07-20T07:44:59Z</time>
      </trkpt>
      <trkpt lat="48.16578" lon="7.07679">
        <ele>928.20001220703</ele>
        <time>2017-07-20T07:45:03Z</time>
      </trkpt>
      <trkpt lat="48.16572" lon="7.07694">
        <ele>928.59997558594</ele>
        <time>2017-07-20T07:45:07Z</time>
      </trkpt>
      <trkpt lat="48.16569" lon="7.07706">
        <ele>929.20001220703</ele>
        <time>2017-07-20T07:45:10Z</time>
      </trkpt>
      <trkpt lat="48.16564" lon="7.07725">
        <ele>930.20001220703</ele>
        <time>2017-07-20T07:45:15Z</time>
      </trkpt>
      <trkpt lat="48.16554" lon="7.07757">
        <ele>931.40002441406</ele>
        <time>2017-07-20T07:45:23Z</time>
      </trkpt>
      <trkpt lat="48.16546" lon="7.07786">
        <ele>932.40002441406</ele>
        <time>2017-07-20T07:45:30Z</time>
      </trkpt>
      <trkpt lat="48.16539" lon="7.07809">
        <ele>933.59997558594</ele>
        <time>2017-07-20T07:45:36Z</time>
      </trkpt>
      <trkpt lat="48.16536" lon="7.07821">
        <ele>934</ele>
        <time>2017-07-20T07:45:39Z</time>
      </trkpt>
      <trkpt lat="48.1653" lon="7.07841">
        <ele>934.59997558594</ele>
        <time>2017-07-20T07:45:44Z</time>
      </trkpt>
      <trkpt lat="48.16526" lon="7.07857">
        <ele>935.20001220703</ele>
        <time>2017-07-20T07:45:48Z</time>
      </trkpt>
      <trkpt lat="48.16522" lon="7.07869">
        <ele>935.79998779297</ele>
        <time>2017-07-20T07:45:51Z</time>
      </trkpt>
      <trkpt lat="48.16516" lon="7.07888">
        <ele>936.40002441406</ele>
        <time>2017-07-20T07:45:56Z</time>
      </trkpt>
      <trkpt lat="48.16513" lon="7.07899">
        <ele>936.79998779297</ele>
        <time>2017-07-20T07:45:59Z</time>
      </trkpt>
      <trkpt lat="48.16509" lon="7.07912">
        <ele>937.59997558594</ele>
        <time>2017-07-20T07:46:03Z</time>
      </trkpt>
      <trkpt lat="48.16505" lon="7.0792">
        <ele>938</ele>
        <time>2017-07-20T07:46:06Z</time>
      </trkpt>
      <trkpt lat="48.16501" lon="7.07926">
        <ele>938.20001220703</ele>
        <time>2017-07-20T07:46:09Z</time>
      </trkpt>
      <trkpt lat="48.16495" lon="7.07934">
        <ele>938.40002441406</ele>
        <time>2017-07-20T07:46:15Z</time>
      </trkpt>
      <trkpt lat="48.16486" lon="7.07927">
        <ele>938.59997558594</ele>
        <time>2017-07-20T07:46:21Z</time>
      </trkpt>
      <trkpt lat="48.16484" lon="7.07925">
        <ele>938.59997558594</ele>
        <time>2017-07-20T07:46:23Z</time>
      </trkpt>
      <trkpt lat="48.16485" lon="7.0792">
        <ele>938.79998779297</ele>
        <time>2017-07-20T07:46:25Z</time>
      </trkpt>
      <trkpt lat="48.16486" lon="7.07919">
        <ele>922.20001220703</ele>
        <time>2017-07-20T08:12:32Z</time>
      </trkpt>
      <trkpt lat="48.16482" lon="7.07926">
        <ele>922.59997558594</ele>
        <time>2017-07-20T08:13:24Z</time>
      </trkpt>
      <trkpt lat="48.16481" lon="7.07931">
        <ele>922.59997558594</ele>
        <time>2017-07-20T08:13:26Z</time>
      </trkpt>
      <trkpt lat="48.16484" lon="7.07947">
        <ele>922.79998779297</ele>
        <time>2017-07-20T08:13:32Z</time>
      </trkpt>
      <trkpt lat="48.16495" lon="7.07963">
        <ele>923.20001220703</ele>
        <time>2017-07-20T08:13:37Z</time>
      </trkpt>
      <trkpt lat="48.16511" lon="7.07975">
        <ele>923.20001220703</ele>
        <time>2017-07-20T08:13:42Z</time>
      </trkpt>
      <trkpt lat="48.16518" lon="7.07981">
        <ele>923.20001220703</ele>
        <time>2017-07-20T08:13:44Z</time>
      </trkpt>
      <trkpt lat="48.16543" lon="7.0801">
        <ele>923.59997558594</ele>
        <time>2017-07-20T08:13:52Z</time>
      </trkpt>
      <trkpt lat="48.16566" lon="7.08036">
        <ele>923.79998779297</ele>
        <time>2017-07-20T08:13:59Z</time>
      </trkpt>
      <trkpt lat="48.16589" lon="7.08062">
        <ele>924.20001220703</ele>
        <time>2017-07-20T08:14:06Z</time>
      </trkpt>
      <trkpt lat="48.16596" lon="7.08069">
        <ele>924.20001220703</ele>
        <time>2017-07-20T08:14:08Z</time>
      </trkpt>
      <trkpt lat="48.16615" lon="7.08086">
        <ele>924.59997558594</ele>
        <time>2017-07-20T08:14:13Z</time>
      </trkpt>
      <trkpt lat="48.16642" lon="7.08104">
        <ele>924.79998779297</ele>
        <time>2017-07-20T08:14:19Z</time>
      </trkpt>
      <trkpt lat="48.16646" lon="7.08107">
        <ele>925</ele>
        <time>2017-07-20T08:14:20Z</time>
      </trkpt>
      <trkpt lat="48.16686" lon="7.08135">
        <ele>925.20001220703</ele>
        <time>2017-07-20T08:14:29Z</time>
      </trkpt>
      <trkpt lat="48.16695" lon="7.08139">
        <ele>925.20001220703</ele>
        <time>2017-07-20T08:14:31Z</time>
      </trkpt>
      <trkpt lat="48.16713" lon="7.08147">
        <ele>925.40002441406</ele>
        <time>2017-07-20T08:14:35Z</time>
      </trkpt>
      <trkpt lat="48.16717" lon="7.08149">
        <ele>925.40002441406</ele>
        <time>2017-07-20T08:14:36Z</time>
      </trkpt>
      <trkpt lat="48.16748" lon="7.08157">
        <ele>925.79998779297</ele>
        <time>2017-07-20T08:14:43Z</time>
      </trkpt>
      <trkpt lat="48.16782" lon="7.08163">
        <ele>926.20001220703</ele>
        <time>2017-07-20T08:14:51Z</time>
      </trkpt>
      <trkpt lat="48.16812" lon="7.08165">
        <ele>926.40002441406</ele>
        <time>2017-07-20T08:14:57Z</time>
      </trkpt>
      <trkpt lat="48.1684" lon="7.0816">
        <ele>926.59997558594</ele>
        <time>2017-07-20T08:15:03Z</time>
      </trkpt>
      <trkpt lat="48.16867" lon="7.08158">
        <ele>926.79998779297</ele>
        <time>2017-07-20T08:15:09Z</time>
      </trkpt>
      <trkpt lat="48.16872" lon="7.0816">
        <ele>926.79998779297</ele>
        <time>2017-07-20T08:15:10Z</time>
      </trkpt>
      <trkpt lat="48.16887" lon="7.08175">
        <ele>926.79998779297</ele>
        <time>2017-07-20T08:15:14Z</time>
      </trkpt>
      <trkpt lat="48.1689" lon="7.0821">
        <ele>927</ele>
        <time>2017-07-20T08:15:17Z</time>
      </trkpt>
      <trkpt lat="48.16891" lon="7.08247">
        <ele>926.79998779297</ele>
        <time>2017-07-20T08:15:21Z</time>
      </trkpt>
      <trkpt lat="48.16891" lon="7.08256">
        <ele>926.79998779297</ele>
        <time>2017-07-20T08:15:22Z</time>
      </trkpt>
      <trkpt lat="48.16893" lon="7.0832">
        <ele>926</ele>
        <time>2017-07-20T08:15:28Z</time>
      </trkpt>
      <trkpt lat="48.16895" lon="7.08356">
        <ele>924.79998779297</ele>
        <time>2017-07-20T08:15:31Z</time>
      </trkpt>
      <trkpt lat="48.16896" lon="7.08395">
        <ele>923.79998779297</ele>
        <time>2017-07-20T08:15:34Z</time>
      </trkpt>
      <trkpt lat="48.16896" lon="7.08437">
        <ele>922.40002441406</ele>
        <time>2017-07-20T08:15:37Z</time>
      </trkpt>
      <trkpt lat="48.16897" lon="7.08466">
        <ele>921.40002441406</ele>
        <time>2017-07-20T08:15:39Z</time>
      </trkpt>
      <trkpt lat="48.16898" lon="7.08496">
        <ele>920.40002441406</ele>
        <time>2017-07-20T08:15:41Z</time>
      </trkpt>
      <trkpt lat="48.16899" lon="7.08524">
        <ele>919.20001220703</ele>
        <time>2017-07-20T08:15:43Z</time>
      </trkpt>
      <trkpt lat="48.169" lon="7.08553">
        <ele>918</ele>
        <time>2017-07-20T08:15:45Z</time>
      </trkpt>
      <trkpt lat="48.16899" lon="7.08583">
        <ele>916.79998779297</ele>
        <time>2017-07-20T08:15:47Z</time>
      </trkpt>
      <trkpt lat="48.16898" lon="7.08598">
        <ele>916.20001220703</ele>
        <time>2017-07-20T08:15:48Z</time>
      </trkpt>
      <trkpt lat="48.16897" lon="7.08613">
        <ele>915.79998779297</ele>
        <time>2017-07-20T08:15:49Z</time>
      </trkpt>
      <trkpt lat="48.16896" lon="7.08643">
        <ele>914.79998779297</ele>
        <time>2017-07-20T08:15:51Z</time>
      </trkpt>
      <trkpt lat="48.16897" lon="7.08673">
        <ele>913.59997558594</ele>
        <time>2017-07-20T08:15:53Z</time>
      </trkpt>
      <trkpt lat="48.16902" lon="7.08702">
        <ele>911.79998779297</ele>
        <time>2017-07-20T08:15:55Z</time>
      </trkpt>
      <trkpt lat="48.16907" lon="7.08715">
        <ele>911.40002441406</ele>
        <time>2017-07-20T08:15:56Z</time>
      </trkpt>
      <trkpt lat="48.16919" lon="7.08739">
        <ele>910.40002441406</ele>
        <time>2017-07-20T08:15:58Z</time>
      </trkpt>
      <trkpt lat="48.16926" lon="7.0875">
        <ele>910</ele>
        <time>2017-07-20T08:15:59Z</time>
      </trkpt>
      <trkpt lat="48.16933" lon="7.08762">
        <ele>909.59997558594</ele>
        <time>2017-07-20T08:16:00Z</time>
      </trkpt>
      <trkpt lat="48.1694" lon="7.08773">
        <ele>909.20001220703</ele>
        <time>2017-07-20T08:16:01Z</time>
      </trkpt>
      <trkpt lat="48.16961" lon="7.08803">
        <ele>908</ele>
        <time>2017-07-20T08:16:04Z</time>
      </trkpt>
      <trkpt lat="48.16974" lon="7.08823">
        <ele>907.40002441406</ele>
        <time>2017-07-20T08:16:06Z</time>
      </trkpt>
      <trkpt lat="48.1701" lon="7.08862">
        <ele>907</ele>
        <time>2017-07-20T08:16:11Z</time>
      </trkpt>
      <trkpt lat="48.17064" lon="7.08909">
        <ele>905.79998779297</ele>
        <time>2017-07-20T08:16:18Z</time>
      </trkpt>
      <trkpt lat="48.17087" lon="7.08928">
        <ele>904.79998779297</ele>
        <time>2017-07-20T08:16:21Z</time>
      </trkpt>
      <trkpt lat="48.17119" lon="7.0895">
        <ele>903.79998779297</ele>
        <time>2017-07-20T08:16:25Z</time>
      </trkpt>
      <trkpt lat="48.17155" lon="7.0896">
        <ele>902.59997558594</ele>
        <time>2017-07-20T08:16:29Z</time>
      </trkpt>
      <trkpt lat="48.17165" lon="7.08963">
        <ele>902.40002441406</ele>
        <time>2017-07-20T08:16:30Z</time>
      </trkpt>
      <trkpt lat="48.17185" lon="7.08972">
        <ele>901.59997558594</ele>
        <time>2017-07-20T08:16:32Z</time>
      </trkpt>
      <trkpt lat="48.17202" lon="7.0899">
        <ele>900.59997558594</ele>
        <time>2017-07-20T08:16:34Z</time>
      </trkpt>
      <trkpt lat="48.1721" lon="7.09">
        <ele>900</ele>
        <time>2017-07-20T08:16:35Z</time>
      </trkpt>
      <trkpt lat="48.17225" lon="7.0902">
        <ele>899</ele>
        <time>2017-07-20T08:16:37Z</time>
      </trkpt>
      <trkpt lat="48.17247" lon="7.09047">
        <ele>897.59997558594</ele>
        <time>2017-07-20T08:16:40Z</time>
      </trkpt>
      <trkpt lat="48.17255" lon="7.09054">
        <ele>897.20001220703</ele>
        <time>2017-07-20T08:16:41Z</time>
      </trkpt>
      <trkpt lat="48.17271" lon="7.09061">
        <ele>896.40002441406</ele>
        <time>2017-07-20T08:16:43Z</time>
      </trkpt>
      <trkpt lat="48.17286" lon="7.0906">
        <ele>896</ele>
        <time>2017-07-20T08:16:45Z</time>
      </trkpt>
      <trkpt lat="48.17294" lon="7.09058">
        <ele>896</ele>
        <time>2017-07-20T08:16:46Z</time>
      </trkpt>
      <trkpt lat="48.17302" lon="7.09051">
        <ele>895.79998779297</ele>
        <time>2017-07-20T08:16:47Z</time>
      </trkpt>
      <trkpt lat="48.17316" lon="7.09032">
        <ele>895.79998779297</ele>
        <time>2017-07-20T08:16:49Z</time>
      </trkpt>
      <trkpt lat="48.17329" lon="7.08995">
        <ele>896</ele>
        <time>2017-07-20T08:16:53Z</time>
      </trkpt>
      <trkpt lat="48.17332" lon="7.08963">
        <ele>896.59997558594</ele>
        <time>2017-07-20T08:16:57Z</time>
      </trkpt>
      <trkpt lat="48.17333" lon="7.08936">
        <ele>897.40002441406</ele>
        <time>2017-07-20T08:17:01Z</time>
      </trkpt>
      <trkpt lat="48.17334" lon="7.0892">
        <ele>898</ele>
        <time>2017-07-20T08:17:04Z</time>
      </trkpt>
      <trkpt lat="48.17335" lon="7.08912">
        <ele>898.40002441406</ele>
        <time>2017-07-20T08:17:06Z</time>
      </trkpt>
      <trkpt lat="48.17338" lon="7.08902">
        <ele>899.40002441406</ele>
        <time>2017-07-20T08:17:09Z</time>
      </trkpt>
      <trkpt lat="48.17339" lon="7.08898">
        <ele>899.59997558594</ele>
        <time>2017-07-20T08:17:10Z</time>
      </trkpt>
      <trkpt lat="48.17342" lon="7.08885">
        <ele>900.59997558594</ele>
        <time>2017-07-20T08:17:14Z</time>
      </trkpt>
      <trkpt lat="48.17344" lon="7.08879">
        <ele>901.40002441406</ele>
        <time>2017-07-20T08:17:17Z</time>
      </trkpt>
      <trkpt lat="48.17348" lon="7.08875">
        <ele>901.79998779297</ele>
        <time>2017-07-20T08:17:19Z</time>
      </trkpt>
      <trkpt lat="48.17353" lon="7.08873">
        <ele>902.40002441406</ele>
        <time>2017-07-20T08:17:22Z</time>
      </trkpt>
      <trkpt lat="48.17359" lon="7.08869">
        <ele>903</ele>
        <time>2017-07-20T08:17:25Z</time>
      </trkpt>
      <trkpt lat="48.17363" lon="7.08866">
        <ele>903.40002441406</ele>
        <time>2017-07-20T08:17:27Z</time>
      </trkpt>
      <trkpt lat="48.17371" lon="7.08861">
        <ele>904.20001220703</ele>
        <time>2017-07-20T08:17:31Z</time>
      </trkpt>
      <trkpt lat="48.17372" lon="7.0886">
        <ele>904.40002441406</ele>
        <time>2017-07-20T08:17:32Z</time>
      </trkpt>
      <trkpt lat="48.17375" lon="7.08858">
        <ele>905</ele>
        <time>2017-07-20T08:17:35Z</time>
      </trkpt>
      <trkpt lat="48.17378" lon="7.08856">
        <ele>905.20001220703</ele>
        <time>2017-07-20T08:17:37Z</time>
      </trkpt>
      <trkpt lat="48.17385" lon="7.08852">
        <ele>905.79998779297</ele>
        <time>2017-07-20T08:17:41Z</time>
      </trkpt>
      <trkpt lat="48.17387" lon="7.08852">
        <ele>906</ele>
        <time>2017-07-20T08:17:42Z</time>
      </trkpt>
      <trkpt lat="48.17392" lon="7.08849">
        <ele>906.40002441406</ele>
        <time>2017-07-20T08:17:45Z</time>
      </trkpt>
      <trkpt lat="48.17397" lon="7.08844">
        <ele>907</ele>
        <time>2017-07-20T08:17:48Z</time>
      </trkpt>
      <trkpt lat="48.17405" lon="7.0884">
        <ele>907.59997558594</ele>
        <time>2017-07-20T08:17:52Z</time>
      </trkpt>
      <trkpt lat="48.17408" lon="7.08839">
        <ele>908</ele>
        <time>2017-07-20T08:17:54Z</time>
      </trkpt>
      <trkpt lat="48.17411" lon="7.08837">
        <ele>908.59997558594</ele>
        <time>2017-07-20T08:17:56Z</time>
      </trkpt>
      <trkpt lat="48.17419" lon="7.08835">
        <ele>909.40002441406</ele>
        <time>2017-07-20T08:18:00Z</time>
      </trkpt>
      <trkpt lat="48.17425" lon="7.08832">
        <ele>909.79998779297</ele>
        <time>2017-07-20T08:18:03Z</time>
      </trkpt>
      <trkpt lat="48.17429" lon="7.08831">
        <ele>910.20001220703</ele>
        <time>2017-07-20T08:18:05Z</time>
      </trkpt>
      <trkpt lat="48.1744" lon="7.0883">
        <ele>910.79998779297</ele>
        <time>2017-07-20T08:18:10Z</time>
      </trkpt>
      <trkpt lat="48.17444" lon="7.08832">
        <ele>911</ele>
        <time>2017-07-20T08:18:12Z</time>
      </trkpt>
      <trkpt lat="48.17457" lon="7.0884">
        <ele>911.79998779297</ele>
        <time>2017-07-20T08:18:18Z</time>
      </trkpt>
      <trkpt lat="48.17466" lon="7.08852">
        <ele>912.79998779297</ele>
        <time>2017-07-20T08:18:25Z</time>
      </trkpt>
      <trkpt lat="48.17467" lon="7.08854">
        <ele>912.59997558594</ele>
        <time>2017-07-20T08:19:38Z</time>
      </trkpt>
      <trkpt lat="48.1747" lon="7.0886">
        <ele>912.59997558594</ele>
        <time>2017-07-20T08:19:40Z</time>
      </trkpt>
      <trkpt lat="48.17476" lon="7.08871">
        <ele>912.59997558594</ele>
        <time>2017-07-20T08:19:43Z</time>
      </trkpt>
      <trkpt lat="48.17479" lon="7.08879">
        <ele>913</ele>
        <time>2017-07-20T08:19:45Z</time>
      </trkpt>
      <trkpt lat="48.17487" lon="7.08889">
        <ele>913.79998779297</ele>
        <time>2017-07-20T08:19:50Z</time>
      </trkpt>
      <trkpt lat="48.17491" lon="7.08895">
        <ele>914</ele>
        <time>2017-07-20T08:19:52Z</time>
      </trkpt>
      <trkpt lat="48.17498" lon="7.0891">
        <ele>914.59997558594</ele>
        <time>2017-07-20T08:19:56Z</time>
      </trkpt>
      <trkpt lat="48.17503" lon="7.08923">
        <ele>915</ele>
        <time>2017-07-20T08:19:59Z</time>
      </trkpt>
      <trkpt lat="48.17509" lon="7.08946">
        <ele>915.59997558594</ele>
        <time>2017-07-20T08:20:04Z</time>
      </trkpt>
      <trkpt lat="48.17516" lon="7.08973">
        <ele>916</ele>
        <time>2017-07-20T08:20:10Z</time>
      </trkpt>
      <trkpt lat="48.17517" lon="7.08978">
        <ele>916.20001220703</ele>
        <time>2017-07-20T08:20:11Z</time>
      </trkpt>
      <trkpt lat="48.17524" lon="7.09001">
        <ele>917</ele>
        <time>2017-07-20T08:20:17Z</time>
      </trkpt>
      <trkpt lat="48.17525" lon="7.09004">
        <ele>917.20001220703</ele>
        <time>2017-07-20T08:20:18Z</time>
      </trkpt>
      <trkpt lat="48.17531" lon="7.09019">
        <ele>917.59997558594</ele>
        <time>2017-07-20T08:20:22Z</time>
      </trkpt>
      <trkpt lat="48.1754" lon="7.09035">
        <ele>918.20001220703</ele>
        <time>2017-07-20T08:20:26Z</time>
      </trkpt>
      <trkpt lat="48.17553" lon="7.09055">
        <ele>918.59997558594</ele>
        <time>2017-07-20T08:20:31Z</time>
      </trkpt>
      <trkpt lat="48.17565" lon="7.09077">
        <ele>919.20001220703</ele>
        <time>2017-07-20T08:20:37Z</time>
      </trkpt>
      <trkpt lat="48.1757" lon="7.09088">
        <ele>919.40002441406</ele>
        <time>2017-07-20T08:20:40Z</time>
      </trkpt>
      <trkpt lat="48.17584" lon="7.09107">
        <ele>920.20001220703</ele>
        <time>2017-07-20T08:20:47Z</time>
      </trkpt>
      <trkpt lat="48.17593" lon="7.09125">
        <ele>921</ele>
        <time>2017-07-20T08:20:53Z</time>
      </trkpt>
      <trkpt lat="48.17595" lon="7.09131">
        <ele>921.40002441406</ele>
        <time>2017-07-20T08:20:55Z</time>
      </trkpt>
      <trkpt lat="48.17602" lon="7.09144">
        <ele>922</ele>
        <time>2017-07-20T08:21:00Z</time>
      </trkpt>
      <trkpt lat="48.17607" lon="7.0915">
        <ele>922.40002441406</ele>
        <time>2017-07-20T08:21:03Z</time>
      </trkpt>
      <trkpt lat="48.17612" lon="7.09157">
        <ele>923.40002441406</ele>
        <time>2017-07-20T08:21:07Z</time>
      </trkpt>
      <trkpt lat="48.17614" lon="7.09159">
        <ele>923.59997558594</ele>
        <time>2017-07-20T08:21:08Z</time>
      </trkpt>
      <trkpt lat="48.17626" lon="7.09166">
        <ele>924.79998779297</ele>
        <time>2017-07-20T08:21:14Z</time>
      </trkpt>
      <trkpt lat="48.17635" lon="7.09171">
        <ele>925.79998779297</ele>
        <time>2017-07-20T08:21:19Z</time>
      </trkpt>
      <trkpt lat="48.17639" lon="7.09173">
        <ele>926.20001220703</ele>
        <time>2017-07-20T08:21:21Z</time>
      </trkpt>
      <trkpt lat="48.17647" lon="7.09173">
        <ele>927</ele>
        <time>2017-07-20T08:21:25Z</time>
      </trkpt>
      <trkpt lat="48.17651" lon="7.09172">
        <ele>927.20001220703</ele>
        <time>2017-07-20T08:21:27Z</time>
      </trkpt>
      <trkpt lat="48.17658" lon="7.09174">
        <ele>928</ele>
        <time>2017-07-20T08:21:31Z</time>
      </trkpt>
      <trkpt lat="48.17662" lon="7.09174">
        <ele>928.40002441406</ele>
        <time>2017-07-20T08:21:33Z</time>
      </trkpt>
      <trkpt lat="48.17668" lon="7.09174">
        <ele>929.20001220703</ele>
        <time>2017-07-20T08:21:37Z</time>
      </trkpt>
      <trkpt lat="48.17675" lon="7.09173">
        <ele>930</ele>
        <time>2017-07-20T08:21:41Z</time>
      </trkpt>
      <trkpt lat="48.17679" lon="7.09172">
        <ele>930.40002441406</ele>
        <time>2017-07-20T08:21:43Z</time>
      </trkpt>
      <trkpt lat="48.17691" lon="7.09169">
        <ele>931.40002441406</ele>
        <time>2017-07-20T08:21:49Z</time>
      </trkpt>
      <trkpt lat="48.17693" lon="7.09167">
        <ele>931.59997558594</ele>
        <time>2017-07-20T08:21:50Z</time>
      </trkpt>
      <trkpt lat="48.17703" lon="7.09159">
        <ele>932.40002441406</ele>
        <time>2017-07-20T08:21:56Z</time>
      </trkpt>
      <trkpt lat="48.17707" lon="7.09157">
        <ele>932.59997558594</ele>
        <time>2017-07-20T08:21:58Z</time>
      </trkpt>
      <trkpt lat="48.17716" lon="7.09146">
        <ele>933.59997558594</ele>
        <time>2017-07-20T08:22:05Z</time>
      </trkpt>
      <trkpt lat="48.17721" lon="7.09133">
        <ele>934.79998779297</ele>
        <time>2017-07-20T08:22:10Z</time>
      </trkpt>
      <trkpt lat="48.17724" lon="7.09128">
        <ele>935.40002441406</ele>
        <time>2017-07-20T08:22:13Z</time>
      </trkpt>
      <trkpt lat="48.17727" lon="7.09119">
        <ele>935.79998779297</ele>
        <time>2017-07-20T08:22:17Z</time>
      </trkpt>
      <trkpt lat="48.17728" lon="7.09113">
        <ele>936.59997558594</ele>
        <time>2017-07-20T08:22:20Z</time>
      </trkpt>
      <trkpt lat="48.1773" lon="7.09109">
        <ele>937</ele>
        <time>2017-07-20T08:22:22Z</time>
      </trkpt>
      <trkpt lat="48.17733" lon="7.09097">
        <ele>938</ele>
        <time>2017-07-20T08:22:27Z</time>
      </trkpt>
      <trkpt lat="48.17734" lon="7.09096">
        <ele>938.20001220703</ele>
        <time>2017-07-20T08:22:28Z</time>
      </trkpt>
      <trkpt lat="48.17741" lon="7.09082">
        <ele>939.20001220703</ele>
        <time>2017-07-20T08:22:34Z</time>
      </trkpt>
      <trkpt lat="48.17742" lon="7.0908">
        <ele>939.40002441406</ele>
        <time>2017-07-20T08:22:35Z</time>
      </trkpt>
      <trkpt lat="48.17746" lon="7.0907">
        <ele>940.20001220703</ele>
        <time>2017-07-20T08:22:40Z</time>
      </trkpt>
      <trkpt lat="48.1775" lon="7.09062">
        <ele>941.20001220703</ele>
        <time>2017-07-20T08:22:44Z</time>
      </trkpt>
      <trkpt lat="48.17752" lon="7.09057">
        <ele>941.40002441406</ele>
        <time>2017-07-20T08:22:46Z</time>
      </trkpt>
      <trkpt lat="48.17755" lon="7.09049">
        <ele>942.20001220703</ele>
        <time>2017-07-20T08:22:51Z</time>
      </trkpt>
      <trkpt lat="48.17757" lon="7.09045">
        <ele>942.59997558594</ele>
        <time>2017-07-20T08:22:53Z</time>
      </trkpt>
      <trkpt lat="48.17761" lon="7.09033">
        <ele>943.59997558594</ele>
        <time>2017-07-20T08:22:59Z</time>
      </trkpt>
      <trkpt lat="48.17762" lon="7.09032">
        <ele>943.79998779297</ele>
        <time>2017-07-20T08:23:00Z</time>
      </trkpt>
      <trkpt lat="48.17769" lon="7.09022">
        <ele>944.59997558594</ele>
        <time>2017-07-20T08:23:05Z</time>
      </trkpt>
      <trkpt lat="48.17772" lon="7.09019">
        <ele>945</ele>
        <time>2017-07-20T08:23:07Z</time>
      </trkpt>
      <trkpt lat="48.17779" lon="7.09014">
        <ele>945.59997558594</ele>
        <time>2017-07-20T08:23:10Z</time>
      </trkpt>
      <trkpt lat="48.17787" lon="7.09011">
        <ele>946.40002441406</ele>
        <time>2017-07-20T08:23:14Z</time>
      </trkpt>
      <trkpt lat="48.17791" lon="7.09009">
        <ele>946.59997558594</ele>
        <time>2017-07-20T08:23:17Z</time>
      </trkpt>
      <trkpt lat="48.17797" lon="7.09009">
        <ele>947.20001220703</ele>
        <time>2017-07-20T08:23:21Z</time>
      </trkpt>
      <trkpt lat="48.17799" lon="7.0901">
        <ele>947.40002441406</ele>
        <time>2017-07-20T08:23:22Z</time>
      </trkpt>
      <trkpt lat="48.17804" lon="7.09013">
        <ele>947.79998779297</ele>
        <time>2017-07-20T08:23:24Z</time>
      </trkpt>
      <trkpt lat="48.17807" lon="7.09014">
        <ele>948.20001220703</ele>
        <time>2017-07-20T08:23:26Z</time>
      </trkpt>
      <trkpt lat="48.17811" lon="7.09017">
        <ele>948.40002441406</ele>
        <time>2017-07-20T08:23:28Z</time>
      </trkpt>
      <trkpt lat="48.17815" lon="7.09022">
        <ele>948.79998779297</ele>
        <time>2017-07-20T08:23:31Z</time>
      </trkpt>
      <trkpt lat="48.17817" lon="7.09023">
        <ele>949.20001220703</ele>
        <time>2017-07-20T08:23:32Z</time>
      </trkpt>
      <trkpt lat="48.17823" lon="7.09034">
        <ele>950</ele>
        <time>2017-07-20T08:23:37Z</time>
      </trkpt>
      <trkpt lat="48.17828" lon="7.09039">
        <ele>950.59997558594</ele>
        <time>2017-07-20T08:23:40Z</time>
      </trkpt>
      <trkpt lat="48.17831" lon="7.09045">
        <ele>951</ele>
        <time>2017-07-20T08:23:43Z</time>
      </trkpt>
      <trkpt lat="48.17835" lon="7.09055">
        <ele>951.59997558594</ele>
        <time>2017-07-20T08:23:47Z</time>
      </trkpt>
      <trkpt lat="48.17838" lon="7.09057">
        <ele>952</ele>
        <time>2017-07-20T08:23:49Z</time>
      </trkpt>
      <trkpt lat="48.17839" lon="7.09059">
        <ele>952.20001220703</ele>
        <time>2017-07-20T08:23:50Z</time>
      </trkpt>
      <trkpt lat="48.17841" lon="7.09064">
        <ele>952.59997558594</ele>
        <time>2017-07-20T08:23:52Z</time>
      </trkpt>
      <trkpt lat="48.17844" lon="7.09072">
        <ele>953.40002441406</ele>
        <time>2017-07-20T08:23:56Z</time>
      </trkpt>
      <trkpt lat="48.17848" lon="7.09078">
        <ele>954</ele>
        <time>2017-07-20T08:23:59Z</time>
      </trkpt>
      <trkpt lat="48.17851" lon="7.09084">
        <ele>954.59997558594</ele>
        <time>2017-07-20T08:24:02Z</time>
      </trkpt>
      <trkpt lat="48.17855" lon="7.09089">
        <ele>955.20001220703</ele>
        <time>2017-07-20T08:24:05Z</time>
      </trkpt>
      <trkpt lat="48.17856" lon="7.0909">
        <ele>955.40002441406</ele>
        <time>2017-07-20T08:24:06Z</time>
      </trkpt>
      <trkpt lat="48.17857" lon="7.09092">
        <ele>955.59997558594</ele>
        <time>2017-07-20T08:24:07Z</time>
      </trkpt>
      <trkpt lat="48.17861" lon="7.09098">
        <ele>956.20001220703</ele>
        <time>2017-07-20T08:24:11Z</time>
      </trkpt>
      <trkpt lat="48.17864" lon="7.09101">
        <ele>956.59997558594</ele>
        <time>2017-07-20T08:24:13Z</time>
      </trkpt>
      <trkpt lat="48.17868" lon="7.09103">
        <ele>957.40002441406</ele>
        <time>2017-07-20T08:24:16Z</time>
      </trkpt>
      <trkpt lat="48.17873" lon="7.09105">
        <ele>957.79998779297</ele>
        <time>2017-07-20T08:24:19Z</time>
      </trkpt>
      <trkpt lat="48.17881" lon="7.09107">
        <ele>958.79998779297</ele>
        <time>2017-07-20T08:24:24Z</time>
      </trkpt>
      <trkpt lat="48.17883" lon="7.09107">
        <ele>959</ele>
        <time>2017-07-20T08:24:25Z</time>
      </trkpt>
      <trkpt lat="48.1789" lon="7.09106">
        <ele>960</ele>
        <time>2017-07-20T08:24:30Z</time>
      </trkpt>
      <trkpt lat="48.17892" lon="7.09106">
        <ele>960.20001220703</ele>
        <time>2017-07-20T08:24:31Z</time>
      </trkpt>
      <trkpt lat="48.179" lon="7.09105">
        <ele>961.79998779297</ele>
        <time>2017-07-20T08:25:22Z</time>
      </trkpt>
      <trkpt lat="48.17906" lon="7.09103">
        <ele>962.20001220703</ele>
        <time>2017-07-20T08:25:26Z</time>
      </trkpt>
      <trkpt lat="48.17909" lon="7.09101">
        <ele>962.40002441406</ele>
        <time>2017-07-20T08:25:28Z</time>
      </trkpt>
      <trkpt lat="48.17916" lon="7.09096">
        <ele>963.20001220703</ele>
        <time>2017-07-20T08:25:32Z</time>
      </trkpt>
      <trkpt lat="48.17923" lon="7.09092">
        <ele>963.79998779297</ele>
        <time>2017-07-20T08:25:35Z</time>
      </trkpt>
      <trkpt lat="48.17927" lon="7.09088">
        <ele>964.40002441406</ele>
        <time>2017-07-20T08:25:38Z</time>
      </trkpt>
      <trkpt lat="48.17933" lon="7.09085">
        <ele>965.20001220703</ele>
        <time>2017-07-20T08:25:42Z</time>
      </trkpt>
      <trkpt lat="48.17935" lon="7.09085">
        <ele>965.40002441406</ele>
        <time>2017-07-20T08:25:43Z</time>
      </trkpt>
      <trkpt lat="48.17942" lon="7.0908">
        <ele>966.40002441406</ele>
        <time>2017-07-20T08:25:48Z</time>
      </trkpt>
      <trkpt lat="48.17943" lon="7.09078">
        <ele>966.59997558594</ele>
        <time>2017-07-20T08:25:49Z</time>
      </trkpt>
      <trkpt lat="48.17947" lon="7.09078">
        <ele>967.20001220703</ele>
        <time>2017-07-20T08:25:52Z</time>
      </trkpt>
      <trkpt lat="48.17951" lon="7.09076">
        <ele>967.59997558594</ele>
        <time>2017-07-20T08:25:54Z</time>
      </trkpt>
      <trkpt lat="48.17952" lon="7.09075">
        <ele>967.59997558594</ele>
        <time>2017-07-20T08:25:55Z</time>
      </trkpt>
      <trkpt lat="48.17958" lon="7.09071">
        <ele>968.59997558594</ele>
        <time>2017-07-20T08:25:59Z</time>
      </trkpt>
      <trkpt lat="48.17962" lon="7.09069">
        <ele>969.20001220703</ele>
        <time>2017-07-20T08:26:02Z</time>
      </trkpt>
      <trkpt lat="48.17967" lon="7.09067">
        <ele>969.79998779297</ele>
        <time>2017-07-20T08:26:05Z</time>
      </trkpt>
      <trkpt lat="48.17973" lon="7.09063">
        <ele>970.59997558594</ele>
        <time>2017-07-20T08:26:10Z</time>
      </trkpt>
      <trkpt lat="48.17975" lon="7.09063">
        <ele>970.79998779297</ele>
        <time>2017-07-20T08:26:11Z</time>
      </trkpt>
      <trkpt lat="48.17982" lon="7.0906">
        <ele>972</ele>
        <time>2017-07-20T08:26:17Z</time>
      </trkpt>
      <trkpt lat="48.17983" lon="7.09059">
        <ele>972</ele>
        <time>2017-07-20T08:26:18Z</time>
      </trkpt>
      <trkpt lat="48.17988" lon="7.09055">
        <ele>973</ele>
        <time>2017-07-20T08:26:21Z</time>
      </trkpt>
      <trkpt lat="48.1799" lon="7.09054">
        <ele>973.20001220703</ele>
        <time>2017-07-20T08:26:22Z</time>
      </trkpt>
      <trkpt lat="48.17995" lon="7.09051">
        <ele>973.79998779297</ele>
        <time>2017-07-20T08:26:26Z</time>
      </trkpt>
      <trkpt lat="48.17996" lon="7.0905">
        <ele>974</ele>
        <time>2017-07-20T08:26:27Z</time>
      </trkpt>
      <trkpt lat="48.18003" lon="7.09047">
        <ele>975</ele>
        <time>2017-07-20T08:26:32Z</time>
      </trkpt>
      <trkpt lat="48.18004" lon="7.09047">
        <ele>975.20001220703</ele>
        <time>2017-07-20T08:26:33Z</time>
      </trkpt>
      <trkpt lat="48.18013" lon="7.09045">
        <ele>976.20001220703</ele>
        <time>2017-07-20T08:26:38Z</time>
      </trkpt>
      <trkpt lat="48.18024" lon="7.09039">
        <ele>977.40002441406</ele>
        <time>2017-07-20T08:26:44Z</time>
      </trkpt>
      <trkpt lat="48.18037" lon="7.09031">
        <ele>978.40002441406</ele>
        <time>2017-07-20T08:26:50Z</time>
      </trkpt>
      <trkpt lat="48.18049" lon="7.09024">
        <ele>979.59997558594</ele>
        <time>2017-07-20T08:26:57Z</time>
      </trkpt>
      <trkpt lat="48.18059" lon="7.09017">
        <ele>980.59997558594</ele>
        <time>2017-07-20T08:27:03Z</time>
      </trkpt>
      <trkpt lat="48.18061" lon="7.09017">
        <ele>980.79998779297</ele>
        <time>2017-07-20T08:27:04Z</time>
      </trkpt>
      <trkpt lat="48.18071" lon="7.09008">
        <ele>981.59997558594</ele>
        <time>2017-07-20T08:27:08Z</time>
      </trkpt>
      <trkpt lat="48.18077" lon="7.09002">
        <ele>982.20001220703</ele>
        <time>2017-07-20T08:27:11Z</time>
      </trkpt>
      <trkpt lat="48.18083" lon="7.08995">
        <ele>982.79998779297</ele>
        <time>2017-07-20T08:27:14Z</time>
      </trkpt>
      <trkpt lat="48.18088" lon="7.0899">
        <ele>983.40002441406</ele>
        <time>2017-07-20T08:27:17Z</time>
      </trkpt>
      <trkpt lat="48.18092" lon="7.08986">
        <ele>984</ele>
        <time>2017-07-20T08:27:20Z</time>
      </trkpt>
      <trkpt lat="48.18097" lon="7.08981">
        <ele>984.59997558594</ele>
        <time>2017-07-20T08:27:24Z</time>
      </trkpt>
      <trkpt lat="48.18099" lon="7.08978">
        <ele>985</ele>
        <time>2017-07-20T08:27:26Z</time>
      </trkpt>
      <trkpt lat="48.18106" lon="7.08968">
        <ele>986.20001220703</ele>
        <time>2017-07-20T08:27:32Z</time>
      </trkpt>
      <trkpt lat="48.18112" lon="7.08958">
        <ele>987.20001220703</ele>
        <time>2017-07-20T08:27:38Z</time>
      </trkpt>
      <trkpt lat="48.18116" lon="7.08953">
        <ele>987.59997558594</ele>
        <time>2017-07-20T08:27:41Z</time>
      </trkpt>
      <trkpt lat="48.18121" lon="7.08946">
        <ele>988.20001220703</ele>
        <time>2017-07-20T08:27:45Z</time>
      </trkpt>
      <trkpt lat="48.18125" lon="7.08939">
        <ele>989</ele>
        <time>2017-07-20T08:27:49Z</time>
      </trkpt>
      <trkpt lat="48.18126" lon="7.08937">
        <ele>989.20001220703</ele>
        <time>2017-07-20T08:27:50Z</time>
      </trkpt>
      <trkpt lat="48.18134" lon="7.08927">
        <ele>990.59997558594</ele>
        <time>2017-07-20T08:27:56Z</time>
      </trkpt>
      <trkpt lat="48.18136" lon="7.08924">
        <ele>991</ele>
        <time>2017-07-20T08:27:58Z</time>
      </trkpt>
      <trkpt lat="48.18141" lon="7.08918">
        <ele>991.79998779297</ele>
        <time>2017-07-20T08:28:02Z</time>
      </trkpt>
      <trkpt lat="48.18147" lon="7.08913">
        <ele>992.79998779297</ele>
        <time>2017-07-20T08:28:07Z</time>
      </trkpt>
      <trkpt lat="48.18148" lon="7.08911">
        <ele>993</ele>
        <time>2017-07-20T08:28:08Z</time>
      </trkpt>
      <trkpt lat="48.18156" lon="7.08908">
        <ele>994</ele>
        <time>2017-07-20T08:28:13Z</time>
      </trkpt>
      <trkpt lat="48.18157" lon="7.08907">
        <ele>994.20001220703</ele>
        <time>2017-07-20T08:28:14Z</time>
      </trkpt>
      <trkpt lat="48.18166" lon="7.08904">
        <ele>995.40002441406</ele>
        <time>2017-07-20T08:28:20Z</time>
      </trkpt>
      <trkpt lat="48.18168" lon="7.08901">
        <ele>995.79998779297</ele>
        <time>2017-07-20T08:28:22Z</time>
      </trkpt>
      <trkpt lat="48.18175" lon="7.08897">
        <ele>996.40002441406</ele>
        <time>2017-07-20T08:28:27Z</time>
      </trkpt>
      <trkpt lat="48.18179" lon="7.08895">
        <ele>997</ele>
        <time>2017-07-20T08:28:30Z</time>
      </trkpt>
      <trkpt lat="48.18184" lon="7.08891">
        <ele>997.59997558594</ele>
        <time>2017-07-20T08:28:33Z</time>
      </trkpt>
      <trkpt lat="48.18191" lon="7.08888">
        <ele>998.40002441406</ele>
        <time>2017-07-20T08:28:37Z</time>
      </trkpt>
      <trkpt lat="48.18194" lon="7.08886">
        <ele>998.59997558594</ele>
        <time>2017-07-20T08:28:39Z</time>
      </trkpt>
      <trkpt lat="48.18199" lon="7.08881">
        <ele>999.59997558594</ele>
        <time>2017-07-20T08:28:44Z</time>
      </trkpt>
      <trkpt lat="48.18208" lon="7.08878">
        <ele>1000.799987793</ele>
        <time>2017-07-20T08:28:50Z</time>
      </trkpt>
      <trkpt lat="48.18209" lon="7.08878">
        <ele>1001</ele>
        <time>2017-07-20T08:28:51Z</time>
      </trkpt>
      <trkpt lat="48.18215" lon="7.08875">
        <ele>1001.799987793</ele>
        <time>2017-07-20T08:28:56Z</time>
      </trkpt>
      <trkpt lat="48.18217" lon="7.08874">
        <ele>1002</ele>
        <time>2017-07-20T08:28:57Z</time>
      </trkpt>
      <trkpt lat="48.18225" lon="7.08873">
        <ele>1003</ele>
        <time>2017-07-20T08:29:02Z</time>
      </trkpt>
      <trkpt lat="48.18229" lon="7.08874">
        <ele>1003.4000244141</ele>
        <time>2017-07-20T08:29:04Z</time>
      </trkpt>
      <trkpt lat="48.18234" lon="7.08878">
        <ele>1004.200012207</ele>
        <time>2017-07-20T08:29:08Z</time>
      </trkpt>
      <trkpt lat="48.18238" lon="7.08883">
        <ele>1004.799987793</ele>
        <time>2017-07-20T08:29:11Z</time>
      </trkpt>
      <trkpt lat="48.18241" lon="7.08887">
        <ele>1005.4000244141</ele>
        <time>2017-07-20T08:29:14Z</time>
      </trkpt>
      <trkpt lat="48.18245" lon="7.08893">
        <ele>1006.200012207</ele>
        <time>2017-07-20T08:29:18Z</time>
      </trkpt>
      <trkpt lat="48.18246" lon="7.08897">
        <ele>1006.5999755859</ele>
        <time>2017-07-20T08:29:20Z</time>
      </trkpt>
      <trkpt lat="48.18251" lon="7.08905">
        <ele>1007.4000244141</ele>
        <time>2017-07-20T08:29:24Z</time>
      </trkpt>
      <trkpt lat="48.18251" lon="7.08907">
        <ele>1007.5999755859</ele>
        <time>2017-07-20T08:29:25Z</time>
      </trkpt>
      <trkpt lat="48.18256" lon="7.0892">
        <ele>1008.799987793</ele>
        <time>2017-07-20T08:29:31Z</time>
      </trkpt>
      <trkpt lat="48.18257" lon="7.08924">
        <ele>1009.200012207</ele>
        <time>2017-07-20T08:29:33Z</time>
      </trkpt>
      <trkpt lat="48.18261" lon="7.0893">
        <ele>1009.799987793</ele>
        <time>2017-07-20T08:29:37Z</time>
      </trkpt>
      <trkpt lat="48.18262" lon="7.08936">
        <ele>1010.4000244141</ele>
        <time>2017-07-20T08:29:40Z</time>
      </trkpt>
      <trkpt lat="48.18262" lon="7.08944">
        <ele>1011</ele>
        <time>2017-07-20T08:29:44Z</time>
      </trkpt>
      <trkpt lat="48.18263" lon="7.08951">
        <ele>1011.5999755859</ele>
        <time>2017-07-20T08:29:47Z</time>
      </trkpt>
      <trkpt lat="48.18264" lon="7.08958">
        <ele>1012.200012207</ele>
        <time>2017-07-20T08:29:50Z</time>
      </trkpt>
      <trkpt lat="48.18265" lon="7.08971">
        <ele>1013.200012207</ele>
        <time>2017-07-20T08:29:56Z</time>
      </trkpt>
      <trkpt lat="48.18265" lon="7.08986">
        <ele>1014</ele>
        <time>2017-07-20T08:30:02Z</time>
      </trkpt>
      <trkpt lat="48.18265" lon="7.08989">
        <ele>1014.200012207</ele>
        <time>2017-07-20T08:30:03Z</time>
      </trkpt>
      <trkpt lat="48.18266" lon="7.09004">
        <ele>1015.4000244141</ele>
        <time>2017-07-20T08:30:09Z</time>
      </trkpt>
      <trkpt lat="48.18267" lon="7.09006">
        <ele>1015.5999755859</ele>
        <time>2017-07-20T08:30:10Z</time>
      </trkpt>
      <trkpt lat="48.18267" lon="7.0902">
        <ele>1016.5999755859</ele>
        <time>2017-07-20T08:30:16Z</time>
      </trkpt>
      <trkpt lat="48.18267" lon="7.09023">
        <ele>1016.799987793</ele>
        <time>2017-07-20T08:30:17Z</time>
      </trkpt>
      <trkpt lat="48.18267" lon="7.09033">
        <ele>1017.5999755859</ele>
        <time>2017-07-20T08:30:21Z</time>
      </trkpt>
      <trkpt lat="48.18267" lon="7.0904">
        <ele>1018.200012207</ele>
        <time>2017-07-20T08:30:24Z</time>
      </trkpt>
      <trkpt lat="48.18267" lon="7.09047">
        <ele>1018.5999755859</ele>
        <time>2017-07-20T08:30:27Z</time>
      </trkpt>
      <trkpt lat="48.18267" lon="7.0906">
        <ele>1019.5999755859</ele>
        <time>2017-07-20T08:30:32Z</time>
      </trkpt>
      <trkpt lat="48.18267" lon="7.09063">
        <ele>1020</ele>
        <time>2017-07-20T08:30:33Z</time>
      </trkpt>
      <trkpt lat="48.18267" lon="7.09077">
        <ele>1021</ele>
        <time>2017-07-20T08:30:39Z</time>
      </trkpt>
      <trkpt lat="48.18267" lon="7.09089">
        <ele>1022</ele>
        <time>2017-07-20T08:30:44Z</time>
      </trkpt>
      <trkpt lat="48.18266" lon="7.09094">
        <ele>1022.4000244141</ele>
        <time>2017-07-20T08:30:46Z</time>
      </trkpt>
      <trkpt lat="48.18267" lon="7.09112">
        <ele>1023.200012207</ele>
        <time>2017-07-20T08:30:53Z</time>
      </trkpt>
      <trkpt lat="48.18268" lon="7.09117">
        <ele>1023.4000244141</ele>
        <time>2017-07-20T08:30:55Z</time>
      </trkpt>
      <trkpt lat="48.18269" lon="7.09133">
        <ele>1024.1999511719</ele>
        <time>2017-07-20T08:31:01Z</time>
      </trkpt>
      <trkpt lat="48.18269" lon="7.09137">
        <ele>1024.4000244141</ele>
        <time>2017-07-20T08:31:03Z</time>
      </trkpt>
      <trkpt lat="48.18272" lon="7.09153">
        <ele>1025.4000244141</ele>
        <time>2017-07-20T08:31:09Z</time>
      </trkpt>
      <trkpt lat="48.18272" lon="7.09158">
        <ele>1025.8000488281</ele>
        <time>2017-07-20T08:31:11Z</time>
      </trkpt>
      <trkpt lat="48.18274" lon="7.0917">
        <ele>1026.5999755859</ele>
        <time>2017-07-20T08:31:16Z</time>
      </trkpt>
      <trkpt lat="48.18276" lon="7.09181">
        <ele>1027.4000244141</ele>
        <time>2017-07-20T08:31:20Z</time>
      </trkpt>
      <trkpt lat="48.18277" lon="7.09185">
        <ele>1027.8000488281</ele>
        <time>2017-07-20T08:31:22Z</time>
      </trkpt>
      <trkpt lat="48.18279" lon="7.09198">
        <ele>1028.5999755859</ele>
        <time>2017-07-20T08:31:27Z</time>
      </trkpt>
      <trkpt lat="48.18279" lon="7.09203">
        <ele>1028.8000488281</ele>
        <time>2017-07-20T08:31:29Z</time>
      </trkpt>
      <trkpt lat="48.18281" lon="7.09218">
        <ele>1029.8000488281</ele>
        <time>2017-07-20T08:31:35Z</time>
      </trkpt>
      <trkpt lat="48.18281" lon="7.0922">
        <ele>1030</ele>
        <time>2017-07-20T08:31:36Z</time>
      </trkpt>
      <trkpt lat="48.18284" lon="7.0923">
        <ele>1031</ele>
        <time>2017-07-20T08:31:40Z</time>
      </trkpt>
      <trkpt lat="48.18286" lon="7.09238">
        <ele>1031.8000488281</ele>
        <time>2017-07-20T08:31:43Z</time>
      </trkpt>
      <trkpt lat="48.18286" lon="7.0924">
        <ele>1032.1999511719</ele>
        <time>2017-07-20T08:31:44Z</time>
      </trkpt>
      <trkpt lat="48.1829" lon="7.09251">
        <ele>1033.1999511719</ele>
        <time>2017-07-20T08:31:48Z</time>
      </trkpt>
      <trkpt lat="48.18291" lon="7.09258">
        <ele>1033.8000488281</ele>
        <time>2017-07-20T08:31:51Z</time>
      </trkpt>
      <trkpt lat="48.18295" lon="7.09264">
        <ele>1034.1999511719</ele>
        <time>2017-07-20T08:31:54Z</time>
      </trkpt>
      <trkpt lat="48.18302" lon="7.09274">
        <ele>1035</ele>
        <time>2017-07-20T08:31:59Z</time>
      </trkpt>
      <trkpt lat="48.18304" lon="7.09278">
        <ele>1035.1999511719</ele>
        <time>2017-07-20T08:32:01Z</time>
      </trkpt>
      <trkpt lat="48.18312" lon="7.0929">
        <ele>1036.4000244141</ele>
        <time>2017-07-20T08:32:07Z</time>
      </trkpt>
      <trkpt lat="48.18326" lon="7.093">
        <ele>1037.1999511719</ele>
        <time>2017-07-20T08:32:14Z</time>
      </trkpt>
      <trkpt lat="48.18332" lon="7.09305">
        <ele>1037.4000244141</ele>
        <time>2017-07-20T08:32:17Z</time>
      </trkpt>
      <trkpt lat="48.18342" lon="7.09311">
        <ele>1038.1999511719</ele>
        <time>2017-07-20T08:32:22Z</time>
      </trkpt>
      <trkpt lat="48.18346" lon="7.09313">
        <ele>1038.5999755859</ele>
        <time>2017-07-20T08:32:24Z</time>
      </trkpt>
      <trkpt lat="48.18354" lon="7.09315">
        <ele>1038.8000488281</ele>
        <time>2017-07-20T08:32:27Z</time>
      </trkpt>
      <trkpt lat="48.18368" lon="7.09317">
        <ele>1039.1999511719</ele>
        <time>2017-07-20T08:32:32Z</time>
      </trkpt>
      <trkpt lat="48.18387" lon="7.09323">
        <ele>1039.4000244141</ele>
        <time>2017-07-20T08:32:38Z</time>
      </trkpt>
      <trkpt lat="48.18411" lon="7.09329">
        <ele>1039.5999755859</ele>
        <time>2017-07-20T08:32:44Z</time>
      </trkpt>
      <trkpt lat="48.18415" lon="7.0933">
        <ele>1039.5999755859</ele>
        <time>2017-07-20T08:32:45Z</time>
      </trkpt>
      <trkpt lat="48.18443" lon="7.09332">
        <ele>1039.8000488281</ele>
        <time>2017-07-20T08:32:52Z</time>
      </trkpt>
      <trkpt lat="48.18466" lon="7.09338">
        <ele>1039.5999755859</ele>
        <time>2017-07-20T08:32:58Z</time>
      </trkpt>
      <trkpt lat="48.18495" lon="7.09342">
        <ele>1039</ele>
        <time>2017-07-20T08:33:06Z</time>
      </trkpt>
      <trkpt lat="48.18516" lon="7.09347">
        <ele>1038.4000244141</ele>
        <time>2017-07-20T08:33:12Z</time>
      </trkpt>
      <trkpt lat="48.18542" lon="7.09356">
        <ele>1038.4000244141</ele>
        <time>2017-07-20T08:33:17Z</time>
      </trkpt>
      <trkpt lat="48.1859" lon="7.09386">
        <ele>1038</ele>
        <time>2017-07-20T08:33:27Z</time>
      </trkpt>
      <trkpt lat="48.1863" lon="7.09414">
        <ele>1038.1999511719</ele>
        <time>2017-07-20T08:33:35Z</time>
      </trkpt>
      <trkpt lat="48.18669" lon="7.09442">
        <ele>1038.4000244141</ele>
        <time>2017-07-20T08:33:43Z</time>
      </trkpt>
      <trkpt lat="48.18679" lon="7.09448">
        <ele>1038.5999755859</ele>
        <time>2017-07-20T08:33:45Z</time>
      </trkpt>
      <trkpt lat="48.18712" lon="7.09477">
        <ele>1038.5999755859</ele>
        <time>2017-07-20T08:33:52Z</time>
      </trkpt>
      <trkpt lat="48.18716" lon="7.09483">
        <ele>1038.5999755859</ele>
        <time>2017-07-20T08:33:53Z</time>
      </trkpt>
      <trkpt lat="48.18743" lon="7.09529">
        <ele>1038.1999511719</ele>
        <time>2017-07-20T08:34:01Z</time>
      </trkpt>
      <trkpt lat="48.18758" lon="7.09563">
        <ele>1038</ele>
        <time>2017-07-20T08:34:07Z</time>
      </trkpt>
      <trkpt lat="48.18759" lon="7.09559">
        <ele>1038</ele>
        <time>2017-07-20T08:34:10Z</time>
      </trkpt>
      <trkpt lat="48.1875" lon="7.09548">
        <ele>1038</ele>
        <time>2017-07-20T08:34:15Z</time>
      </trkpt>
      <trkpt lat="48.18749" lon="7.09547">
        <ele>1037.8000488281</ele>
        <time>2017-07-20T08:34:16Z</time>
      </trkpt>
      <trkpt lat="48.18745" lon="7.09546">
        <ele>1037.5999755859</ele>
        <time>2017-07-20T08:34:19Z</time>
      </trkpt>
      <trkpt lat="48.18746" lon="7.09551">
        <ele>1037.4000244141</ele>
        <time>2017-07-20T08:35:25Z</time>
      </trkpt>
      <trkpt lat="48.18749" lon="7.09553">
        <ele>1037.4000244141</ele>
        <time>2017-07-20T08:35:27Z</time>
      </trkpt>
      <trkpt lat="48.18753" lon="7.09555">
        <ele>1037.4000244141</ele>
        <time>2017-07-20T08:35:29Z</time>
      </trkpt>
      <trkpt lat="48.18757" lon="7.09563">
        <ele>1037.8000488281</ele>
        <time>2017-07-20T08:35:32Z</time>
      </trkpt>
      <trkpt lat="48.18765" lon="7.09583">
        <ele>1038.1999511719</ele>
        <time>2017-07-20T08:35:38Z</time>
      </trkpt>
      <trkpt lat="48.18774" lon="7.0961">
        <ele>1038.1999511719</ele>
        <time>2017-07-20T08:35:44Z</time>
      </trkpt>
      <trkpt lat="48.18784" lon="7.09643">
        <ele>1038.1999511719</ele>
        <time>2017-07-20T08:35:51Z</time>
      </trkpt>
      <trkpt lat="48.18796" lon="7.09676">
        <ele>1038</ele>
        <time>2017-07-20T08:35:57Z</time>
      </trkpt>
      <trkpt lat="48.18811" lon="7.09722">
        <ele>1037.8000488281</ele>
        <time>2017-07-20T08:36:04Z</time>
      </trkpt>
      <trkpt lat="48.18815" lon="7.09736">
        <ele>1038</ele>
        <time>2017-07-20T08:36:06Z</time>
      </trkpt>
      <trkpt lat="48.18822" lon="7.09757">
        <ele>1038</ele>
        <time>2017-07-20T08:36:09Z</time>
      </trkpt>
      <trkpt lat="48.18825" lon="7.09771">
        <ele>1038</ele>
        <time>2017-07-20T08:36:11Z</time>
      </trkpt>
      <trkpt lat="48.18829" lon="7.09793">
        <ele>1038</ele>
        <time>2017-07-20T08:36:14Z</time>
      </trkpt>
      <trkpt lat="48.18831" lon="7.09851">
        <ele>1037.8000488281</ele>
        <time>2017-07-20T08:36:21Z</time>
      </trkpt>
      <trkpt lat="48.18833" lon="7.09901">
        <ele>1037</ele>
        <time>2017-07-20T08:36:26Z</time>
      </trkpt>
      <trkpt lat="48.18838" lon="7.09936">
        <ele>1036.1999511719</ele>
        <time>2017-07-20T08:36:29Z</time>
      </trkpt>
      <trkpt lat="48.1884" lon="7.09948">
        <ele>1035.8000488281</ele>
        <time>2017-07-20T08:36:30Z</time>
      </trkpt>
      <trkpt lat="48.18844" lon="7.0996">
        <ele>1035.4000244141</ele>
        <time>2017-07-20T08:36:31Z</time>
      </trkpt>
      <trkpt lat="48.18848" lon="7.09972">
        <ele>1035</ele>
        <time>2017-07-20T08:36:32Z</time>
      </trkpt>
      <trkpt lat="48.18864" lon="7.10009">
        <ele>1033.8000488281</ele>
        <time>2017-07-20T08:36:35Z</time>
      </trkpt>
      <trkpt lat="48.1887" lon="7.10021">
        <ele>1033.1999511719</ele>
        <time>2017-07-20T08:36:36Z</time>
      </trkpt>
      <trkpt lat="48.18875" lon="7.10034">
        <ele>1032.5999755859</ele>
        <time>2017-07-20T08:36:37Z</time>
      </trkpt>
      <trkpt lat="48.18888" lon="7.10059">
        <ele>1031.4000244141</ele>
        <time>2017-07-20T08:36:39Z</time>
      </trkpt>
      <trkpt lat="48.18896" lon="7.1007">
        <ele>1030.5999755859</ele>
        <time>2017-07-20T08:36:40Z</time>
      </trkpt>
      <trkpt lat="48.18904" lon="7.1008">
        <ele>1029.8000488281</ele>
        <time>2017-07-20T08:36:41Z</time>
      </trkpt>
      <trkpt lat="48.18922" lon="7.10096">
        <ele>1028.5999755859</ele>
        <time>2017-07-20T08:36:43Z</time>
      </trkpt>
      <trkpt lat="48.18932" lon="7.10101">
        <ele>1027.8000488281</ele>
        <time>2017-07-20T08:36:44Z</time>
      </trkpt>
      <trkpt lat="48.18943" lon="7.10106">
        <ele>1026.1999511719</ele>
        <time>2017-07-20T08:36:45Z</time>
      </trkpt>
      <trkpt lat="48.18953" lon="7.1011">
        <ele>1025.5999755859</ele>
        <time>2017-07-20T08:36:46Z</time>
      </trkpt>
      <trkpt lat="48.18964" lon="7.10112">
        <ele>1024.8000488281</ele>
        <time>2017-07-20T08:36:47Z</time>
      </trkpt>
      <trkpt lat="48.18975" lon="7.10112">
        <ele>1024</ele>
        <time>2017-07-20T08:36:48Z</time>
      </trkpt>
      <trkpt lat="48.18986" lon="7.10111">
        <ele>1023.4000244141</ele>
        <time>2017-07-20T08:36:49Z</time>
      </trkpt>
      <trkpt lat="48.19008" lon="7.1011">
        <ele>1022.200012207</ele>
        <time>2017-07-20T08:36:51Z</time>
      </trkpt>
      <trkpt lat="48.19028" lon="7.10109">
        <ele>1021.200012207</ele>
        <time>2017-07-20T08:36:53Z</time>
      </trkpt>
      <trkpt lat="48.19037" lon="7.1011">
        <ele>1021</ele>
        <time>2017-07-20T08:36:54Z</time>
      </trkpt>
      <trkpt lat="48.19062" lon="7.10109">
        <ele>1020.799987793</ele>
        <time>2017-07-20T08:36:57Z</time>
      </trkpt>
      <trkpt lat="48.19093" lon="7.10104">
        <ele>1021.799987793</ele>
        <time>2017-07-20T08:37:02Z</time>
      </trkpt>
      <trkpt lat="48.19117" lon="7.10099">
        <ele>1022</ele>
        <time>2017-07-20T08:37:07Z</time>
      </trkpt>
      <trkpt lat="48.19121" lon="7.10098">
        <ele>1022.200012207</ele>
        <time>2017-07-20T08:37:08Z</time>
      </trkpt>
      <trkpt lat="48.19149" lon="7.10087">
        <ele>1023</ele>
        <time>2017-07-20T08:37:15Z</time>
      </trkpt>
      <trkpt lat="48.19156" lon="7.10085">
        <ele>1023.200012207</ele>
        <time>2017-07-20T08:37:17Z</time>
      </trkpt>
      <trkpt lat="48.19175" lon="7.10077">
        <ele>1023.799987793</ele>
        <time>2017-07-20T08:37:22Z</time>
      </trkpt>
      <trkpt lat="48.19187" lon="7.10076">
        <ele>1024.1999511719</ele>
        <time>2017-07-20T08:37:25Z</time>
      </trkpt>
      <trkpt lat="48.19206" lon="7.10075">
        <ele>1024.8000488281</ele>
        <time>2017-07-20T08:37:30Z</time>
      </trkpt>
      <trkpt lat="48.19229" lon="7.10083">
        <ele>1025.1999511719</ele>
        <time>2017-07-20T08:37:36Z</time>
      </trkpt>
      <trkpt lat="48.19265" lon="7.10096">
        <ele>1024.8000488281</ele>
        <time>2017-07-20T08:37:44Z</time>
      </trkpt>
      <trkpt lat="48.19298" lon="7.10109">
        <ele>1023.799987793</ele>
        <time>2017-07-20T08:37:50Z</time>
      </trkpt>
      <trkpt lat="48.19323" lon="7.10122">
        <ele>1023.200012207</ele>
        <time>2017-07-20T08:37:54Z</time>
      </trkpt>
      <trkpt lat="48.1933" lon="7.10126">
        <ele>1023</ele>
        <time>2017-07-20T08:37:55Z</time>
      </trkpt>
      <trkpt lat="48.19349" lon="7.10141">
        <ele>1022.200012207</ele>
        <time>2017-07-20T08:37:58Z</time>
      </trkpt>
      <trkpt lat="48.19367" lon="7.10161">
        <ele>1021.4000244141</ele>
        <time>2017-07-20T08:38:01Z</time>
      </trkpt>
      <trkpt lat="48.19373" lon="7.10168">
        <ele>1021</ele>
        <time>2017-07-20T08:38:02Z</time>
      </trkpt>
      <trkpt lat="48.19399" lon="7.10197">
        <ele>1020</ele>
        <time>2017-07-20T08:38:06Z</time>
      </trkpt>
      <trkpt lat="48.19418" lon="7.10221">
        <ele>1019.4000244141</ele>
        <time>2017-07-20T08:38:09Z</time>
      </trkpt>
      <trkpt lat="48.19431" lon="7.10237">
        <ele>1018.799987793</ele>
        <time>2017-07-20T08:38:11Z</time>
      </trkpt>
      <trkpt lat="48.19457" lon="7.10268">
        <ele>1017.799987793</ele>
        <time>2017-07-20T08:38:15Z</time>
      </trkpt>
      <trkpt lat="48.19471" lon="7.10284">
        <ele>1017</ele>
        <time>2017-07-20T08:38:17Z</time>
      </trkpt>
      <trkpt lat="48.19477" lon="7.10292">
        <ele>1016.4000244141</ele>
        <time>2017-07-20T08:38:18Z</time>
      </trkpt>
      <trkpt lat="48.19498" lon="7.10315">
        <ele>1014.799987793</ele>
        <time>2017-07-20T08:38:21Z</time>
      </trkpt>
      <trkpt lat="48.1952" lon="7.10337">
        <ele>1013.799987793</ele>
        <time>2017-07-20T08:38:24Z</time>
      </trkpt>
      <trkpt lat="48.19527" lon="7.10344">
        <ele>1013.5999755859</ele>
        <time>2017-07-20T08:38:25Z</time>
      </trkpt>
      <trkpt lat="48.1955" lon="7.10364">
        <ele>1012.5999755859</ele>
        <time>2017-07-20T08:38:28Z</time>
      </trkpt>
      <trkpt lat="48.1958" lon="7.10389">
        <ele>1011.4000244141</ele>
        <time>2017-07-20T08:38:32Z</time>
      </trkpt>
      <trkpt lat="48.19588" lon="7.10393">
        <ele>1011</ele>
        <time>2017-07-20T08:38:33Z</time>
      </trkpt>
      <trkpt lat="48.19605" lon="7.104">
        <ele>1010.200012207</ele>
        <time>2017-07-20T08:38:35Z</time>
      </trkpt>
      <trkpt lat="48.19614" lon="7.10403">
        <ele>1009.799987793</ele>
        <time>2017-07-20T08:38:36Z</time>
      </trkpt>
      <trkpt lat="48.19633" lon="7.10411">
        <ele>1009</ele>
        <time>2017-07-20T08:38:38Z</time>
      </trkpt>
      <trkpt lat="48.19642" lon="7.10417">
        <ele>1008.5999755859</ele>
        <time>2017-07-20T08:38:39Z</time>
      </trkpt>
      <trkpt lat="48.1965" lon="7.10424">
        <ele>1008</ele>
        <time>2017-07-20T08:38:40Z</time>
      </trkpt>
      <trkpt lat="48.19658" lon="7.10434">
        <ele>1007.5999755859</ele>
        <time>2017-07-20T08:38:41Z</time>
      </trkpt>
      <trkpt lat="48.19672" lon="7.10457">
        <ele>1006.5999755859</ele>
        <time>2017-07-20T08:38:43Z</time>
      </trkpt>
      <trkpt lat="48.19679" lon="7.1047">
        <ele>1006.200012207</ele>
        <time>2017-07-20T08:38:44Z</time>
      </trkpt>
      <trkpt lat="48.19694" lon="7.10496">
        <ele>1004.799987793</ele>
        <time>2017-07-20T08:38:46Z</time>
      </trkpt>
      <trkpt lat="48.19716" lon="7.10536">
        <ele>1003.200012207</ele>
        <time>2017-07-20T08:38:49Z</time>
      </trkpt>
      <trkpt lat="48.19732" lon="7.10563">
        <ele>1002</ele>
        <time>2017-07-20T08:38:51Z</time>
      </trkpt>
      <trkpt lat="48.19741" lon="7.10576">
        <ele>1001.4000244141</ele>
        <time>2017-07-20T08:38:52Z</time>
      </trkpt>
      <trkpt lat="48.19751" lon="7.10587">
        <ele>1000.799987793</ele>
        <time>2017-07-20T08:38:53Z</time>
      </trkpt>
      <trkpt lat="48.19761" lon="7.10598">
        <ele>1000</ele>
        <time>2017-07-20T08:38:54Z</time>
      </trkpt>
      <trkpt lat="48.19771" lon="7.10606">
        <ele>999.40002441406</ele>
        <time>2017-07-20T08:38:55Z</time>
      </trkpt>
      <trkpt lat="48.19792" lon="7.10618">
        <ele>998.20001220703</ele>
        <time>2017-07-20T08:38:57Z</time>
      </trkpt>
      <trkpt lat="48.19813" lon="7.1063">
        <ele>996.59997558594</ele>
        <time>2017-07-20T08:38:59Z</time>
      </trkpt>
      <trkpt lat="48.19834" lon="7.10641">
        <ele>994.79998779297</ele>
        <time>2017-07-20T08:39:01Z</time>
      </trkpt>
      <trkpt lat="48.19856" lon="7.10651">
        <ele>993</ele>
        <time>2017-07-20T08:39:03Z</time>
      </trkpt>
      <trkpt lat="48.19878" lon="7.10662">
        <ele>991.20001220703</ele>
        <time>2017-07-20T08:39:05Z</time>
      </trkpt>
      <trkpt lat="48.19898" lon="7.10673">
        <ele>989.40002441406</ele>
        <time>2017-07-20T08:39:07Z</time>
      </trkpt>
      <trkpt lat="48.19916" lon="7.10683">
        <ele>987</ele>
        <time>2017-07-20T08:39:09Z</time>
      </trkpt>
      <trkpt lat="48.19924" lon="7.10687">
        <ele>986.40002441406</ele>
        <time>2017-07-20T08:39:10Z</time>
      </trkpt>
      <trkpt lat="48.19931" lon="7.10693">
        <ele>985.59997558594</ele>
        <time>2017-07-20T08:39:11Z</time>
      </trkpt>
      <trkpt lat="48.19937" lon="7.10699">
        <ele>985</ele>
        <time>2017-07-20T08:39:12Z</time>
      </trkpt>
      <trkpt lat="48.19941" lon="7.10707">
        <ele>984.20001220703</ele>
        <time>2017-07-20T08:39:13Z</time>
      </trkpt>
      <trkpt lat="48.19945" lon="7.10724">
        <ele>982.79998779297</ele>
        <time>2017-07-20T08:39:15Z</time>
      </trkpt>
      <trkpt lat="48.19945" lon="7.10742">
        <ele>981.79998779297</ele>
        <time>2017-07-20T08:39:17Z</time>
      </trkpt>
      <trkpt lat="48.19942" lon="7.10757">
        <ele>981.20001220703</ele>
        <time>2017-07-20T08:39:19Z</time>
      </trkpt>
      <trkpt lat="48.1994" lon="7.10764">
        <ele>981</ele>
        <time>2017-07-20T08:39:20Z</time>
      </trkpt>
      <trkpt lat="48.19938" lon="7.10771">
        <ele>980.79998779297</ele>
        <time>2017-07-20T08:39:21Z</time>
      </trkpt>
      <trkpt lat="48.19934" lon="7.10797">
        <ele>980</ele>
        <time>2017-07-20T08:39:24Z</time>
      </trkpt>
      <trkpt lat="48.19933" lon="7.10807">
        <ele>979.79998779297</ele>
        <time>2017-07-20T08:39:25Z</time>
      </trkpt>
      <trkpt lat="48.19931" lon="7.10853">
        <ele>978.40002441406</ele>
        <time>2017-07-20T08:39:29Z</time>
      </trkpt>
      <trkpt lat="48.1993" lon="7.10879">
        <ele>977.20001220703</ele>
        <time>2017-07-20T08:39:31Z</time>
      </trkpt>
      <trkpt lat="48.19931" lon="7.10908">
        <ele>975.59997558594</ele>
        <time>2017-07-20T08:39:33Z</time>
      </trkpt>
      <trkpt lat="48.19933" lon="7.10923">
        <ele>974.79998779297</ele>
        <time>2017-07-20T08:39:34Z</time>
      </trkpt>
      <trkpt lat="48.19934" lon="7.10937">
        <ele>974.20001220703</ele>
        <time>2017-07-20T08:39:35Z</time>
      </trkpt>
      <trkpt lat="48.19936" lon="7.10966">
        <ele>972.59997558594</ele>
        <time>2017-07-20T08:39:37Z</time>
      </trkpt>
      <trkpt lat="48.19935" lon="7.10978">
        <ele>971.59997558594</ele>
        <time>2017-07-20T08:39:38Z</time>
      </trkpt>
      <trkpt lat="48.19932" lon="7.10989">
        <ele>970.79998779297</ele>
        <time>2017-07-20T08:39:39Z</time>
      </trkpt>
      <trkpt lat="48.19922" lon="7.11002">
        <ele>969</ele>
        <time>2017-07-20T08:39:41Z</time>
      </trkpt>
      <trkpt lat="48.1991" lon="7.11001">
        <ele>967.59997558594</ele>
        <time>2017-07-20T08:39:43Z</time>
      </trkpt>
      <trkpt lat="48.19901" lon="7.10995">
        <ele>967</ele>
        <time>2017-07-20T08:39:44Z</time>
      </trkpt>
      <trkpt lat="48.19893" lon="7.10988">
        <ele>966.59997558594</ele>
        <time>2017-07-20T08:39:45Z</time>
      </trkpt>
      <trkpt lat="48.19884" lon="7.10982">
        <ele>966</ele>
        <time>2017-07-20T08:39:46Z</time>
      </trkpt>
      <trkpt lat="48.19875" lon="7.10978">
        <ele>965.40002441406</ele>
        <time>2017-07-20T08:39:47Z</time>
      </trkpt>
      <trkpt lat="48.19865" lon="7.10975">
        <ele>964.79998779297</ele>
        <time>2017-07-20T08:39:48Z</time>
      </trkpt>
      <trkpt lat="48.19855" lon="7.10973">
        <ele>964.20001220703</ele>
        <time>2017-07-20T08:39:49Z</time>
      </trkpt>
      <trkpt lat="48.19834" lon="7.1097">
        <ele>963</ele>
        <time>2017-07-20T08:39:51Z</time>
      </trkpt>
      <trkpt lat="48.19812" lon="7.10968">
        <ele>961.79998779297</ele>
        <time>2017-07-20T08:39:53Z</time>
      </trkpt>
      <trkpt lat="48.19801" lon="7.10967">
        <ele>961.20001220703</ele>
        <time>2017-07-20T08:39:54Z</time>
      </trkpt>
      <trkpt lat="48.1979" lon="7.10965">
        <ele>960.59997558594</ele>
        <time>2017-07-20T08:39:55Z</time>
      </trkpt>
      <trkpt lat="48.19767" lon="7.10958">
        <ele>958.79998779297</ele>
        <time>2017-07-20T08:39:57Z</time>
      </trkpt>
      <trkpt lat="48.19745" lon="7.1095">
        <ele>957.59997558594</ele>
        <time>2017-07-20T08:39:59Z</time>
      </trkpt>
      <trkpt lat="48.19725" lon="7.10941">
        <ele>956.40002441406</ele>
        <time>2017-07-20T08:40:01Z</time>
      </trkpt>
      <trkpt lat="48.19715" lon="7.10938">
        <ele>955.79998779297</ele>
        <time>2017-07-20T08:40:02Z</time>
      </trkpt>
      <trkpt lat="48.19705" lon="7.10935">
        <ele>955.20001220703</ele>
        <time>2017-07-20T08:40:03Z</time>
      </trkpt>
      <trkpt lat="48.19674" lon="7.10937">
        <ele>953.79998779297</ele>
        <time>2017-07-20T08:40:06Z</time>
      </trkpt>
      <trkpt lat="48.19644" lon="7.10963">
        <ele>952.79998779297</ele>
        <time>2017-07-20T08:40:09Z</time>
      </trkpt>
      <trkpt lat="48.19635" lon="7.10972">
        <ele>952.40002441406</ele>
        <time>2017-07-20T08:40:10Z</time>
      </trkpt>
      <trkpt lat="48.19614" lon="7.10984">
        <ele>951.40002441406</ele>
        <time>2017-07-20T08:40:12Z</time>
      </trkpt>
      <trkpt lat="48.19593" lon="7.10988">
        <ele>950</ele>
        <time>2017-07-20T08:40:14Z</time>
      </trkpt>
      <trkpt lat="48.19573" lon="7.10991">
        <ele>948.59997558594</ele>
        <time>2017-07-20T08:40:16Z</time>
      </trkpt>
      <trkpt lat="48.19553" lon="7.10996">
        <ele>947.20001220703</ele>
        <time>2017-07-20T08:40:18Z</time>
      </trkpt>
      <trkpt lat="48.19543" lon="7.11">
        <ele>946.59997558594</ele>
        <time>2017-07-20T08:40:19Z</time>
      </trkpt>
      <trkpt lat="48.19534" lon="7.11005">
        <ele>946</ele>
        <time>2017-07-20T08:40:20Z</time>
      </trkpt>
      <trkpt lat="48.19517" lon="7.11022">
        <ele>944.59997558594</ele>
        <time>2017-07-20T08:40:22Z</time>
      </trkpt>
      <trkpt lat="48.1951" lon="7.11033">
        <ele>944.20001220703</ele>
        <time>2017-07-20T08:40:23Z</time>
      </trkpt>
      <trkpt lat="48.19504" lon="7.11044">
        <ele>943.79998779297</ele>
        <time>2017-07-20T08:40:24Z</time>
      </trkpt>
      <trkpt lat="48.19498" lon="7.11054">
        <ele>943.40002441406</ele>
        <time>2017-07-20T08:40:25Z</time>
      </trkpt>
      <trkpt lat="48.19491" lon="7.11072">
        <ele>942.40002441406</ele>
        <time>2017-07-20T08:40:27Z</time>
      </trkpt>
      <trkpt lat="48.19488" lon="7.1108">
        <ele>941.79998779297</ele>
        <time>2017-07-20T08:40:28Z</time>
      </trkpt>
      <trkpt lat="48.19489" lon="7.11091">
        <ele>940.79998779297</ele>
        <time>2017-07-20T08:40:30Z</time>
      </trkpt>
      <trkpt lat="48.1949" lon="7.11098">
        <ele>939.59997558594</ele>
        <time>2017-07-20T08:40:33Z</time>
      </trkpt>
      <trkpt lat="48.19491" lon="7.11101">
        <ele>938.40002441406</ele>
        <time>2017-07-20T08:41:17Z</time>
      </trkpt>
      <trkpt lat="48.19487" lon="7.11104">
        <ele>938.40002441406</ele>
        <time>2017-07-20T08:41:20Z</time>
      </trkpt>
      <trkpt lat="48.1948" lon="7.11115">
        <ele>938.20001220703</ele>
        <time>2017-07-20T08:41:23Z</time>
      </trkpt>
      <trkpt lat="48.19477" lon="7.11121">
        <ele>938.20001220703</ele>
        <time>2017-07-20T08:41:24Z</time>
      </trkpt>
      <trkpt lat="48.1946" lon="7.11152">
        <ele>937.40002441406</ele>
        <time>2017-07-20T08:41:29Z</time>
      </trkpt>
      <trkpt lat="48.19456" lon="7.11159">
        <ele>937</ele>
        <time>2017-07-20T08:41:30Z</time>
      </trkpt>
      <trkpt lat="48.19445" lon="7.11172">
        <ele>936.40002441406</ele>
        <time>2017-07-20T08:41:32Z</time>
      </trkpt>
      <trkpt lat="48.19438" lon="7.11177">
        <ele>935.79998779297</ele>
        <time>2017-07-20T08:41:33Z</time>
      </trkpt>
      <trkpt lat="48.19431" lon="7.11183">
        <ele>935.59997558594</ele>
        <time>2017-07-20T08:41:34Z</time>
      </trkpt>
      <trkpt lat="48.19414" lon="7.1119">
        <ele>934.79998779297</ele>
        <time>2017-07-20T08:41:36Z</time>
      </trkpt>
      <trkpt lat="48.19406" lon="7.11192">
        <ele>934.40002441406</ele>
        <time>2017-07-20T08:41:37Z</time>
      </trkpt>
      <trkpt lat="48.19397" lon="7.11195">
        <ele>934</ele>
        <time>2017-07-20T08:41:38Z</time>
      </trkpt>
      <trkpt lat="48.19388" lon="7.11196">
        <ele>933.59997558594</ele>
        <time>2017-07-20T08:41:39Z</time>
      </trkpt>
      <trkpt lat="48.19361" lon="7.11195">
        <ele>932.20001220703</ele>
        <time>2017-07-20T08:41:42Z</time>
      </trkpt>
      <trkpt lat="48.19343" lon="7.1119">
        <ele>931.20001220703</ele>
        <time>2017-07-20T08:41:44Z</time>
      </trkpt>
      <trkpt lat="48.19325" lon="7.11182">
        <ele>930</ele>
        <time>2017-07-20T08:41:46Z</time>
      </trkpt>
      <trkpt lat="48.19307" lon="7.11166">
        <ele>929</ele>
        <time>2017-07-20T08:41:48Z</time>
      </trkpt>
      <trkpt lat="48.19299" lon="7.11156">
        <ele>928.40002441406</ele>
        <time>2017-07-20T08:41:49Z</time>
      </trkpt>
      <trkpt lat="48.19292" lon="7.11145">
        <ele>927.79998779297</ele>
        <time>2017-07-20T08:41:50Z</time>
      </trkpt>
      <trkpt lat="48.19279" lon="7.11118">
        <ele>926.40002441406</ele>
        <time>2017-07-20T08:41:52Z</time>
      </trkpt>
      <trkpt lat="48.19272" lon="7.11103">
        <ele>925.59997558594</ele>
        <time>2017-07-20T08:41:53Z</time>
      </trkpt>
      <trkpt lat="48.19266" lon="7.11089">
        <ele>924.79998779297</ele>
        <time>2017-07-20T08:41:54Z</time>
      </trkpt>
      <trkpt lat="48.19255" lon="7.11058">
        <ele>923.20001220703</ele>
        <time>2017-07-20T08:41:56Z</time>
      </trkpt>
      <trkpt lat="48.1925" lon="7.11043">
        <ele>921.79998779297</ele>
        <time>2017-07-20T08:41:57Z</time>
      </trkpt>
      <trkpt lat="48.19245" lon="7.11027">
        <ele>921</ele>
        <time>2017-07-20T08:41:58Z</time>
      </trkpt>
      <trkpt lat="48.19241" lon="7.11011">
        <ele>920.20001220703</ele>
        <time>2017-07-20T08:41:59Z</time>
      </trkpt>
      <trkpt lat="48.19235" lon="7.10997">
        <ele>919.40002441406</ele>
        <time>2017-07-20T08:42:00Z</time>
      </trkpt>
      <trkpt lat="48.19229" lon="7.10983">
        <ele>918.59997558594</ele>
        <time>2017-07-20T08:42:01Z</time>
      </trkpt>
      <trkpt lat="48.19222" lon="7.1097">
        <ele>917.79998779297</ele>
        <time>2017-07-20T08:42:02Z</time>
      </trkpt>
      <trkpt lat="48.19215" lon="7.10957">
        <ele>917</ele>
        <time>2017-07-20T08:42:03Z</time>
      </trkpt>
      <trkpt lat="48.19203" lon="7.10931">
        <ele>915.59997558594</ele>
        <time>2017-07-20T08:42:05Z</time>
      </trkpt>
      <trkpt lat="48.19193" lon="7.10907">
        <ele>914.20001220703</ele>
        <time>2017-07-20T08:42:07Z</time>
      </trkpt>
      <trkpt lat="48.19184" lon="7.10888">
        <ele>913</ele>
        <time>2017-07-20T08:42:09Z</time>
      </trkpt>
      <trkpt lat="48.1918" lon="7.10882">
        <ele>912.40002441406</ele>
        <time>2017-07-20T08:42:10Z</time>
      </trkpt>
      <trkpt lat="48.19175" lon="7.10878">
        <ele>912</ele>
        <time>2017-07-20T08:42:11Z</time>
      </trkpt>
      <trkpt lat="48.19165" lon="7.10881">
        <ele>911.20001220703</ele>
        <time>2017-07-20T08:42:13Z</time>
      </trkpt>
      <trkpt lat="48.19161" lon="7.10888">
        <ele>910.79998779297</ele>
        <time>2017-07-20T08:42:14Z</time>
      </trkpt>
      <trkpt lat="48.19159" lon="7.10898">
        <ele>910.40002441406</ele>
        <time>2017-07-20T08:42:15Z</time>
      </trkpt>
      <trkpt lat="48.1916" lon="7.10921">
        <ele>909.59997558594</ele>
        <time>2017-07-20T08:42:17Z</time>
      </trkpt>
      <trkpt lat="48.19162" lon="7.10931">
        <ele>909.20001220703</ele>
        <time>2017-07-20T08:42:18Z</time>
      </trkpt>
      <trkpt lat="48.1917" lon="7.1095">
        <ele>908.20001220703</ele>
        <time>2017-07-20T08:42:20Z</time>
      </trkpt>
      <trkpt lat="48.19174" lon="7.10959">
        <ele>907.20001220703</ele>
        <time>2017-07-20T08:42:21Z</time>
      </trkpt>
      <trkpt lat="48.1918" lon="7.10968">
        <ele>906.79998779297</ele>
        <time>2017-07-20T08:42:22Z</time>
      </trkpt>
      <trkpt lat="48.19199" lon="7.10997">
        <ele>905.40002441406</ele>
        <time>2017-07-20T08:42:25Z</time>
      </trkpt>
      <trkpt lat="48.19204" lon="7.11009">
        <ele>905</ele>
        <time>2017-07-20T08:42:26Z</time>
      </trkpt>
      <trkpt lat="48.19208" lon="7.11022">
        <ele>904.40002441406</ele>
        <time>2017-07-20T08:42:27Z</time>
      </trkpt>
      <trkpt lat="48.19211" lon="7.11036">
        <ele>904</ele>
        <time>2017-07-20T08:42:28Z</time>
      </trkpt>
      <trkpt lat="48.19215" lon="7.11066">
        <ele>903</ele>
        <time>2017-07-20T08:42:30Z</time>
      </trkpt>
      <trkpt lat="48.19217" lon="7.11081">
        <ele>902.40002441406</ele>
        <time>2017-07-20T08:42:31Z</time>
      </trkpt>
      <trkpt lat="48.1922" lon="7.11114">
        <ele>901.20001220703</ele>
        <time>2017-07-20T08:42:33Z</time>
      </trkpt>
      <trkpt lat="48.19224" lon="7.11147">
        <ele>899.59997558594</ele>
        <time>2017-07-20T08:42:35Z</time>
      </trkpt>
      <trkpt lat="48.19227" lon="7.11163">
        <ele>898.79998779297</ele>
        <time>2017-07-20T08:42:36Z</time>
      </trkpt>
      <trkpt lat="48.19231" lon="7.11179">
        <ele>898</ele>
        <time>2017-07-20T08:42:37Z</time>
      </trkpt>
      <trkpt lat="48.19239" lon="7.11212">
        <ele>896.20001220703</ele>
        <time>2017-07-20T08:42:39Z</time>
      </trkpt>
      <trkpt lat="48.19244" lon="7.11246">
        <ele>894.40002441406</ele>
        <time>2017-07-20T08:42:41Z</time>
      </trkpt>
      <trkpt lat="48.19247" lon="7.11281">
        <ele>892.59997558594</ele>
        <time>2017-07-20T08:42:43Z</time>
      </trkpt>
      <trkpt lat="48.19249" lon="7.11314">
        <ele>890.59997558594</ele>
        <time>2017-07-20T08:42:45Z</time>
      </trkpt>
      <trkpt lat="48.1925" lon="7.11329">
        <ele>888.59997558594</ele>
        <time>2017-07-20T08:42:46Z</time>
      </trkpt>
      <trkpt lat="48.1925" lon="7.11342">
        <ele>887.40002441406</ele>
        <time>2017-07-20T08:42:47Z</time>
      </trkpt>
      <trkpt lat="48.19249" lon="7.11354">
        <ele>886.40002441406</ele>
        <time>2017-07-20T08:42:48Z</time>
      </trkpt>
      <trkpt lat="48.19248" lon="7.11365">
        <ele>885.40002441406</ele>
        <time>2017-07-20T08:42:49Z</time>
      </trkpt>
      <trkpt lat="48.19247" lon="7.11375">
        <ele>884.40002441406</ele>
        <time>2017-07-20T08:42:50Z</time>
      </trkpt>
      <trkpt lat="48.19246" lon="7.11385">
        <ele>883.40002441406</ele>
        <time>2017-07-20T08:42:51Z</time>
      </trkpt>
      <trkpt lat="48.19247" lon="7.11394">
        <ele>882.40002441406</ele>
        <time>2017-07-20T08:42:52Z</time>
      </trkpt>
      <trkpt lat="48.1925" lon="7.11411">
        <ele>880.59997558594</ele>
        <time>2017-07-20T08:42:54Z</time>
      </trkpt>
      <trkpt lat="48.19259" lon="7.11425">
        <ele>879.40002441406</ele>
        <time>2017-07-20T08:42:56Z</time>
      </trkpt>
      <trkpt lat="48.19264" lon="7.11433">
        <ele>879</ele>
        <time>2017-07-20T08:42:57Z</time>
      </trkpt>
      <trkpt lat="48.19275" lon="7.11449">
        <ele>878.40002441406</ele>
        <time>2017-07-20T08:42:59Z</time>
      </trkpt>
      <trkpt lat="48.19286" lon="7.11467">
        <ele>877.79998779297</ele>
        <time>2017-07-20T08:43:01Z</time>
      </trkpt>
      <trkpt lat="48.19296" lon="7.11487">
        <ele>877.20001220703</ele>
        <time>2017-07-20T08:43:03Z</time>
      </trkpt>
      <trkpt lat="48.19308" lon="7.11521">
        <ele>875.79998779297</ele>
        <time>2017-07-20T08:43:06Z</time>
      </trkpt>
      <trkpt lat="48.19316" lon="7.11546">
        <ele>874.79998779297</ele>
        <time>2017-07-20T08:43:08Z</time>
      </trkpt>
      <trkpt lat="48.19323" lon="7.11573">
        <ele>873.40002441406</ele>
        <time>2017-07-20T08:43:10Z</time>
      </trkpt>
      <trkpt lat="48.19329" lon="7.11602">
        <ele>872.40002441406</ele>
        <time>2017-07-20T08:43:12Z</time>
      </trkpt>
      <trkpt lat="48.19334" lon="7.11631">
        <ele>871.20001220703</ele>
        <time>2017-07-20T08:43:14Z</time>
      </trkpt>
      <trkpt lat="48.1934" lon="7.11661">
        <ele>870</ele>
        <time>2017-07-20T08:43:16Z</time>
      </trkpt>
      <trkpt lat="48.19346" lon="7.11692">
        <ele>868.79998779297</ele>
        <time>2017-07-20T08:43:18Z</time>
      </trkpt>
      <trkpt lat="48.19348" lon="7.11708">
        <ele>868</ele>
        <time>2017-07-20T08:43:19Z</time>
      </trkpt>
      <trkpt lat="48.19351" lon="7.11722">
        <ele>867.40002441406</ele>
        <time>2017-07-20T08:43:20Z</time>
      </trkpt>
      <trkpt lat="48.19359" lon="7.11749">
        <ele>866</ele>
        <time>2017-07-20T08:43:22Z</time>
      </trkpt>
      <trkpt lat="48.19366" lon="7.11759">
        <ele>865.40002441406</ele>
        <time>2017-07-20T08:43:23Z</time>
      </trkpt>
      <trkpt lat="48.19375" lon="7.11767">
        <ele>864.79998779297</ele>
        <time>2017-07-20T08:43:24Z</time>
      </trkpt>
      <trkpt lat="48.19392" lon="7.11783">
        <ele>863.59997558594</ele>
        <time>2017-07-20T08:43:26Z</time>
      </trkpt>
      <trkpt lat="48.194" lon="7.11794">
        <ele>863</ele>
        <time>2017-07-20T08:43:27Z</time>
      </trkpt>
      <trkpt lat="48.19407" lon="7.11805">
        <ele>862.40002441406</ele>
        <time>2017-07-20T08:43:28Z</time>
      </trkpt>
      <trkpt lat="48.19423" lon="7.11829">
        <ele>861</ele>
        <time>2017-07-20T08:43:30Z</time>
      </trkpt>
      <trkpt lat="48.19437" lon="7.11855">
        <ele>859.79998779297</ele>
        <time>2017-07-20T08:43:32Z</time>
      </trkpt>
      <trkpt lat="48.19449" lon="7.11883">
        <ele>857.79998779297</ele>
        <time>2017-07-20T08:43:34Z</time>
      </trkpt>
      <trkpt lat="48.19458" lon="7.11914">
        <ele>856.59997558594</ele>
        <time>2017-07-20T08:43:36Z</time>
      </trkpt>
      <trkpt lat="48.19465" lon="7.11946">
        <ele>855.20001220703</ele>
        <time>2017-07-20T08:43:38Z</time>
      </trkpt>
      <trkpt lat="48.19475" lon="7.11978">
        <ele>854</ele>
        <time>2017-07-20T08:43:40Z</time>
      </trkpt>
      <trkpt lat="48.19485" lon="7.1201">
        <ele>852.59997558594</ele>
        <time>2017-07-20T08:43:42Z</time>
      </trkpt>
      <trkpt lat="48.19494" lon="7.12043">
        <ele>851.20001220703</ele>
        <time>2017-07-20T08:43:44Z</time>
      </trkpt>
      <trkpt lat="48.19497" lon="7.1206">
        <ele>850.59997558594</ele>
        <time>2017-07-20T08:43:45Z</time>
      </trkpt>
      <trkpt lat="48.19501" lon="7.12076">
        <ele>849.79998779297</ele>
        <time>2017-07-20T08:43:46Z</time>
      </trkpt>
      <trkpt lat="48.19507" lon="7.12111">
        <ele>848.20001220703</ele>
        <time>2017-07-20T08:43:48Z</time>
      </trkpt>
      <trkpt lat="48.19513" lon="7.12145">
        <ele>846.40002441406</ele>
        <time>2017-07-20T08:43:50Z</time>
      </trkpt>
      <trkpt lat="48.19516" lon="7.12163">
        <ele>845.59997558594</ele>
        <time>2017-07-20T08:43:51Z</time>
      </trkpt>
      <trkpt lat="48.19518" lon="7.1218">
        <ele>844.79998779297</ele>
        <time>2017-07-20T08:43:52Z</time>
      </trkpt>
      <trkpt lat="48.19524" lon="7.12215">
        <ele>843.59997558594</ele>
        <time>2017-07-20T08:43:54Z</time>
      </trkpt>
      <trkpt lat="48.1953" lon="7.12245">
        <ele>842</ele>
        <time>2017-07-20T08:43:56Z</time>
      </trkpt>
      <trkpt lat="48.19533" lon="7.12273">
        <ele>839.59997558594</ele>
        <time>2017-07-20T08:43:58Z</time>
      </trkpt>
      <trkpt lat="48.19533" lon="7.12286">
        <ele>838.79998779297</ele>
        <time>2017-07-20T08:43:59Z</time>
      </trkpt>
      <trkpt lat="48.19529" lon="7.12298">
        <ele>837.79998779297</ele>
        <time>2017-07-20T08:44:00Z</time>
      </trkpt>
      <trkpt lat="48.19524" lon="7.12308">
        <ele>837</ele>
        <time>2017-07-20T08:44:01Z</time>
      </trkpt>
      <trkpt lat="48.19518" lon="7.12318">
        <ele>836.20001220703</ele>
        <time>2017-07-20T08:44:02Z</time>
      </trkpt>
      <trkpt lat="48.19512" lon="7.12329">
        <ele>835.40002441406</ele>
        <time>2017-07-20T08:44:03Z</time>
      </trkpt>
      <trkpt lat="48.19507" lon="7.12341">
        <ele>834.59997558594</ele>
        <time>2017-07-20T08:44:04Z</time>
      </trkpt>
      <trkpt lat="48.19502" lon="7.12354">
        <ele>834</ele>
        <time>2017-07-20T08:44:05Z</time>
      </trkpt>
      <trkpt lat="48.19497" lon="7.12366">
        <ele>833.20001220703</ele>
        <time>2017-07-20T08:44:06Z</time>
      </trkpt>
      <trkpt lat="48.19489" lon="7.12392">
        <ele>832</ele>
        <time>2017-07-20T08:44:08Z</time>
      </trkpt>
      <trkpt lat="48.19487" lon="7.12404">
        <ele>831.40002441406</ele>
        <time>2017-07-20T08:44:09Z</time>
      </trkpt>
      <trkpt lat="48.19487" lon="7.12415">
        <ele>830.79998779297</ele>
        <time>2017-07-20T08:44:10Z</time>
      </trkpt>
      <trkpt lat="48.19489" lon="7.12433">
        <ele>829.79998779297</ele>
        <time>2017-07-20T08:44:12Z</time>
      </trkpt>
      <trkpt lat="48.1949" lon="7.12439">
        <ele>829.40002441406</ele>
        <time>2017-07-20T08:44:13Z</time>
      </trkpt>
      <trkpt lat="48.19492" lon="7.12442">
        <ele>828.79998779297</ele>
        <time>2017-07-20T08:44:14Z</time>
      </trkpt>
      <trkpt lat="48.19497" lon="7.12445">
        <ele>828.40002441406</ele>
        <time>2017-07-20T08:44:15Z</time>
      </trkpt>
      <trkpt lat="48.19515" lon="7.12457">
        <ele>827.40002441406</ele>
        <time>2017-07-20T08:44:17Z</time>
      </trkpt>
      <trkpt lat="48.19529" lon="7.12466">
        <ele>826.79998779297</ele>
        <time>2017-07-20T08:44:18Z</time>
      </trkpt>
      <trkpt lat="48.19541" lon="7.12475">
        <ele>826</ele>
        <time>2017-07-20T08:44:19Z</time>
      </trkpt>
      <trkpt lat="48.19561" lon="7.12492">
        <ele>824.79998779297</ele>
        <time>2017-07-20T08:44:21Z</time>
      </trkpt>
      <trkpt lat="48.19571" lon="7.125">
        <ele>823.40002441406</ele>
        <time>2017-07-20T08:44:22Z</time>
      </trkpt>
      <trkpt lat="48.19592" lon="7.12515">
        <ele>822.20001220703</ele>
        <time>2017-07-20T08:44:24Z</time>
      </trkpt>
      <trkpt lat="48.19614" lon="7.12527">
        <ele>821.20001220703</ele>
        <time>2017-07-20T08:44:26Z</time>
      </trkpt>
      <trkpt lat="48.19637" lon="7.12539">
        <ele>819.79998779297</ele>
        <time>2017-07-20T08:44:28Z</time>
      </trkpt>
      <trkpt lat="48.19659" lon="7.1255">
        <ele>818.40002441406</ele>
        <time>2017-07-20T08:44:30Z</time>
      </trkpt>
      <trkpt lat="48.19681" lon="7.12561">
        <ele>817</ele>
        <time>2017-07-20T08:44:32Z</time>
      </trkpt>
      <trkpt lat="48.19692" lon="7.12567">
        <ele>816.40002441406</ele>
        <time>2017-07-20T08:44:33Z</time>
      </trkpt>
      <trkpt lat="48.19702" lon="7.12573">
        <ele>815.59997558594</ele>
        <time>2017-07-20T08:44:34Z</time>
      </trkpt>
      <trkpt lat="48.19719" lon="7.12584">
        <ele>814.20001220703</ele>
        <time>2017-07-20T08:44:36Z</time>
      </trkpt>
      <trkpt lat="48.1973" lon="7.12602">
        <ele>812.59997558594</ele>
        <time>2017-07-20T08:44:38Z</time>
      </trkpt>
      <trkpt lat="48.19733" lon="7.12614">
        <ele>811.79998779297</ele>
        <time>2017-07-20T08:44:39Z</time>
      </trkpt>
      <trkpt lat="48.19734" lon="7.12627">
        <ele>811</ele>
        <time>2017-07-20T08:44:40Z</time>
      </trkpt>
      <trkpt lat="48.19732" lon="7.12653">
        <ele>809.59997558594</ele>
        <time>2017-07-20T08:44:42Z</time>
      </trkpt>
      <trkpt lat="48.19731" lon="7.12667">
        <ele>809</ele>
        <time>2017-07-20T08:44:43Z</time>
      </trkpt>
      <trkpt lat="48.1973" lon="7.12681">
        <ele>808.40002441406</ele>
        <time>2017-07-20T08:44:44Z</time>
      </trkpt>
      <trkpt lat="48.19729" lon="7.12709">
        <ele>806.59997558594</ele>
        <time>2017-07-20T08:44:46Z</time>
      </trkpt>
      <trkpt lat="48.1973" lon="7.12739">
        <ele>805.59997558594</ele>
        <time>2017-07-20T08:44:48Z</time>
      </trkpt>
      <trkpt lat="48.19731" lon="7.12769">
        <ele>804.40002441406</ele>
        <time>2017-07-20T08:44:50Z</time>
      </trkpt>
      <trkpt lat="48.19729" lon="7.12796">
        <ele>803.40002441406</ele>
        <time>2017-07-20T08:44:52Z</time>
      </trkpt>
      <trkpt lat="48.19727" lon="7.1282">
        <ele>802.20001220703</ele>
        <time>2017-07-20T08:44:54Z</time>
      </trkpt>
      <trkpt lat="48.19728" lon="7.12832">
        <ele>801.59997558594</ele>
        <time>2017-07-20T08:44:55Z</time>
      </trkpt>
      <trkpt lat="48.1973" lon="7.12845">
        <ele>800.79998779297</ele>
        <time>2017-07-20T08:44:56Z</time>
      </trkpt>
      <trkpt lat="48.19737" lon="7.12871">
        <ele>799.79998779297</ele>
        <time>2017-07-20T08:44:58Z</time>
      </trkpt>
      <trkpt lat="48.1975" lon="7.12906">
        <ele>798.40002441406</ele>
        <time>2017-07-20T08:45:01Z</time>
      </trkpt>
      <trkpt lat="48.19763" lon="7.12919">
        <ele>797.20001220703</ele>
        <time>2017-07-20T08:45:03Z</time>
      </trkpt>
      <trkpt lat="48.19775" lon="7.12916">
        <ele>796.59997558594</ele>
        <time>2017-07-20T08:45:04Z</time>
      </trkpt>
      <trkpt lat="48.19785" lon="7.12914">
        <ele>795.79998779297</ele>
        <time>2017-07-20T08:45:05Z</time>
      </trkpt>
      <trkpt lat="48.19809" lon="7.12908">
        <ele>794.59997558594</ele>
        <time>2017-07-20T08:45:07Z</time>
      </trkpt>
      <trkpt lat="48.19831" lon="7.12911">
        <ele>793.20001220703</ele>
        <time>2017-07-20T08:45:09Z</time>
      </trkpt>
      <trkpt lat="48.19841" lon="7.12918">
        <ele>792</ele>
        <time>2017-07-20T08:45:10Z</time>
      </trkpt>
      <trkpt lat="48.19856" lon="7.12936">
        <ele>790.59997558594</ele>
        <time>2017-07-20T08:45:12Z</time>
      </trkpt>
      <trkpt lat="48.19864" lon="7.1296">
        <ele>789</ele>
        <time>2017-07-20T08:45:14Z</time>
      </trkpt>
      <trkpt lat="48.19867" lon="7.12974">
        <ele>788.40002441406</ele>
        <time>2017-07-20T08:45:15Z</time>
      </trkpt>
      <trkpt lat="48.19869" lon="7.12988">
        <ele>787.59997558594</ele>
        <time>2017-07-20T08:45:16Z</time>
      </trkpt>
      <trkpt lat="48.19872" lon="7.13">
        <ele>786.79998779297</ele>
        <time>2017-07-20T08:45:17Z</time>
      </trkpt>
      <trkpt lat="48.19874" lon="7.13015">
        <ele>786.20001220703</ele>
        <time>2017-07-20T08:45:18Z</time>
      </trkpt>
      <trkpt lat="48.19876" lon="7.13046">
        <ele>784.79998779297</ele>
        <time>2017-07-20T08:45:20Z</time>
      </trkpt>
      <trkpt lat="48.19875" lon="7.13079">
        <ele>783.59997558594</ele>
        <time>2017-07-20T08:45:22Z</time>
      </trkpt>
      <trkpt lat="48.19874" lon="7.13096">
        <ele>783.20001220703</ele>
        <time>2017-07-20T08:45:23Z</time>
      </trkpt>
      <trkpt lat="48.19873" lon="7.13112">
        <ele>782.59997558594</ele>
        <time>2017-07-20T08:45:24Z</time>
      </trkpt>
      <trkpt lat="48.19871" lon="7.13128">
        <ele>781.79998779297</ele>
        <time>2017-07-20T08:45:25Z</time>
      </trkpt>
      <trkpt lat="48.19871" lon="7.13144">
        <ele>781.20001220703</ele>
        <time>2017-07-20T08:45:26Z</time>
      </trkpt>
      <trkpt lat="48.19872" lon="7.13161">
        <ele>780.40002441406</ele>
        <time>2017-07-20T08:45:27Z</time>
      </trkpt>
      <trkpt lat="48.19872" lon="7.13177">
        <ele>779.79998779297</ele>
        <time>2017-07-20T08:45:28Z</time>
      </trkpt>
      <trkpt lat="48.19872" lon="7.13207">
        <ele>778.40002441406</ele>
        <time>2017-07-20T08:45:30Z</time>
      </trkpt>
      <trkpt lat="48.19874" lon="7.13221">
        <ele>777.79998779297</ele>
        <time>2017-07-20T08:45:31Z</time>
      </trkpt>
      <trkpt lat="48.19876" lon="7.13235">
        <ele>777.20001220703</ele>
        <time>2017-07-20T08:45:32Z</time>
      </trkpt>
      <trkpt lat="48.19883" lon="7.13259">
        <ele>775</ele>
        <time>2017-07-20T08:45:34Z</time>
      </trkpt>
      <trkpt lat="48.19887" lon="7.1327">
        <ele>774.20001220703</ele>
        <time>2017-07-20T08:45:35Z</time>
      </trkpt>
      <trkpt lat="48.1989" lon="7.13279">
        <ele>773.40002441406</ele>
        <time>2017-07-20T08:45:36Z</time>
      </trkpt>
      <trkpt lat="48.19893" lon="7.13292">
        <ele>772.20001220703</ele>
        <time>2017-07-20T08:45:38Z</time>
      </trkpt>
      <trkpt lat="48.19895" lon="7.133">
        <ele>771</ele>
        <time>2017-07-20T08:45:40Z</time>
      </trkpt>
      <trkpt lat="48.19901" lon="7.13301">
        <ele>770.20001220703</ele>
        <time>2017-07-20T08:45:42Z</time>
      </trkpt>
      <trkpt lat="48.19906" lon="7.13299">
        <ele>769.59997558594</ele>
        <time>2017-07-20T08:45:43Z</time>
      </trkpt>
      <trkpt lat="48.19924" lon="7.13277">
        <ele>768.59997558594</ele>
        <time>2017-07-20T08:45:45Z</time>
      </trkpt>
      <trkpt lat="48.19935" lon="7.13264">
        <ele>768</ele>
        <time>2017-07-20T08:45:46Z</time>
      </trkpt>
      <trkpt lat="48.19947" lon="7.13248">
        <ele>767.40002441406</ele>
        <time>2017-07-20T08:45:47Z</time>
      </trkpt>
      <trkpt lat="48.19972" lon="7.13221">
        <ele>766</ele>
        <time>2017-07-20T08:45:49Z</time>
      </trkpt>
      <trkpt lat="48.19995" lon="7.13195">
        <ele>764.79998779297</ele>
        <time>2017-07-20T08:45:51Z</time>
      </trkpt>
      <trkpt lat="48.2002" lon="7.13173">
        <ele>763.40002441406</ele>
        <time>2017-07-20T08:45:53Z</time>
      </trkpt>
      <trkpt lat="48.20033" lon="7.13163">
        <ele>762.79998779297</ele>
        <time>2017-07-20T08:45:54Z</time>
      </trkpt>
      <trkpt lat="48.20047" lon="7.13154">
        <ele>762</ele>
        <time>2017-07-20T08:45:55Z</time>
      </trkpt>
      <trkpt lat="48.20076" lon="7.13136">
        <ele>760.59997558594</ele>
        <time>2017-07-20T08:45:57Z</time>
      </trkpt>
      <trkpt lat="48.2009" lon="7.13131">
        <ele>759.20001220703</ele>
        <time>2017-07-20T08:45:58Z</time>
      </trkpt>
      <trkpt lat="48.20116" lon="7.13125">
        <ele>757.79998779297</ele>
        <time>2017-07-20T08:46:00Z</time>
      </trkpt>
      <trkpt lat="48.2013" lon="7.13124">
        <ele>757</ele>
        <time>2017-07-20T08:46:01Z</time>
      </trkpt>
      <trkpt lat="48.20142" lon="7.13126">
        <ele>756.20001220703</ele>
        <time>2017-07-20T08:46:02Z</time>
      </trkpt>
      <trkpt lat="48.20155" lon="7.13128">
        <ele>755.40002441406</ele>
        <time>2017-07-20T08:46:03Z</time>
      </trkpt>
      <trkpt lat="48.20165" lon="7.13134">
        <ele>754.59997558594</ele>
        <time>2017-07-20T08:46:04Z</time>
      </trkpt>
      <trkpt lat="48.20177" lon="7.1314">
        <ele>753.79998779297</ele>
        <time>2017-07-20T08:46:05Z</time>
      </trkpt>
      <trkpt lat="48.20187" lon="7.13148">
        <ele>753.20001220703</ele>
        <time>2017-07-20T08:46:06Z</time>
      </trkpt>
      <trkpt lat="48.20198" lon="7.13158">
        <ele>752.40002441406</ele>
        <time>2017-07-20T08:46:07Z</time>
      </trkpt>
      <trkpt lat="48.20208" lon="7.13168">
        <ele>751.59997558594</ele>
        <time>2017-07-20T08:46:08Z</time>
      </trkpt>
      <trkpt lat="48.20228" lon="7.13187">
        <ele>750.20001220703</ele>
        <time>2017-07-20T08:46:10Z</time>
      </trkpt>
      <trkpt lat="48.20246" lon="7.13205">
        <ele>748.59997558594</ele>
        <time>2017-07-20T08:46:12Z</time>
      </trkpt>
      <trkpt lat="48.20256" lon="7.13214">
        <ele>747.79998779297</ele>
        <time>2017-07-20T08:46:13Z</time>
      </trkpt>
      <trkpt lat="48.20266" lon="7.13222">
        <ele>747</ele>
        <time>2017-07-20T08:46:14Z</time>
      </trkpt>
      <trkpt lat="48.20287" lon="7.13235">
        <ele>745.59997558594</ele>
        <time>2017-07-20T08:46:16Z</time>
      </trkpt>
      <trkpt lat="48.2031" lon="7.13245">
        <ele>744</ele>
        <time>2017-07-20T08:46:18Z</time>
      </trkpt>
      <trkpt lat="48.20331" lon="7.13255">
        <ele>742.59997558594</ele>
        <time>2017-07-20T08:46:20Z</time>
      </trkpt>
      <trkpt lat="48.20353" lon="7.13265">
        <ele>740.20001220703</ele>
        <time>2017-07-20T08:46:22Z</time>
      </trkpt>
      <trkpt lat="48.20375" lon="7.13278">
        <ele>738.59997558594</ele>
        <time>2017-07-20T08:46:24Z</time>
      </trkpt>
      <trkpt lat="48.20398" lon="7.1329">
        <ele>737.20001220703</ele>
        <time>2017-07-20T08:46:26Z</time>
      </trkpt>
      <trkpt lat="48.20409" lon="7.13296">
        <ele>736.59997558594</ele>
        <time>2017-07-20T08:46:27Z</time>
      </trkpt>
      <trkpt lat="48.20421" lon="7.13303">
        <ele>735.79998779297</ele>
        <time>2017-07-20T08:46:28Z</time>
      </trkpt>
      <trkpt lat="48.20444" lon="7.13317">
        <ele>734.40002441406</ele>
        <time>2017-07-20T08:46:30Z</time>
      </trkpt>
      <trkpt lat="48.20467" lon="7.1333">
        <ele>732.79998779297</ele>
        <time>2017-07-20T08:46:32Z</time>
      </trkpt>
      <trkpt lat="48.2049" lon="7.13343">
        <ele>731.40002441406</ele>
        <time>2017-07-20T08:46:34Z</time>
      </trkpt>
      <trkpt lat="48.20513" lon="7.1336">
        <ele>729.79998779297</ele>
        <time>2017-07-20T08:46:36Z</time>
      </trkpt>
      <trkpt lat="48.20535" lon="7.13381">
        <ele>728.40002441406</ele>
        <time>2017-07-20T08:46:38Z</time>
      </trkpt>
      <trkpt lat="48.20554" lon="7.13405">
        <ele>727</ele>
        <time>2017-07-20T08:46:40Z</time>
      </trkpt>
      <trkpt lat="48.20572" lon="7.13432">
        <ele>725.20001220703</ele>
        <time>2017-07-20T08:46:42Z</time>
      </trkpt>
      <trkpt lat="48.20588" lon="7.1346">
        <ele>723.79998779297</ele>
        <time>2017-07-20T08:46:44Z</time>
      </trkpt>
      <trkpt lat="48.20602" lon="7.13485">
        <ele>721.40002441406</ele>
        <time>2017-07-20T08:46:46Z</time>
      </trkpt>
      <trkpt lat="48.20612" lon="7.1351">
        <ele>720</ele>
        <time>2017-07-20T08:46:48Z</time>
      </trkpt>
      <trkpt lat="48.20618" lon="7.13518">
        <ele>719.59997558594</ele>
        <time>2017-07-20T08:46:49Z</time>
      </trkpt>
      <trkpt lat="48.20625" lon="7.13523">
        <ele>719</ele>
        <time>2017-07-20T08:46:50Z</time>
      </trkpt>
      <trkpt lat="48.2063" lon="7.13523">
        <ele>718.59997558594</ele>
        <time>2017-07-20T08:46:51Z</time>
      </trkpt>
      <trkpt lat="48.20635" lon="7.13514">
        <ele>717.79998779297</ele>
        <time>2017-07-20T08:46:53Z</time>
      </trkpt>
      <trkpt lat="48.2063" lon="7.13492">
        <ele>716.79998779297</ele>
        <time>2017-07-20T08:46:56Z</time>
      </trkpt>
      <trkpt lat="48.20622" lon="7.13477">
        <ele>716.20001220703</ele>
        <time>2017-07-20T08:46:58Z</time>
      </trkpt>
      <trkpt lat="48.20612" lon="7.13461">
        <ele>715.59997558594</ele>
        <time>2017-07-20T08:47:00Z</time>
      </trkpt>
      <trkpt lat="48.20593" lon="7.13427">
        <ele>714.40002441406</ele>
        <time>2017-07-20T08:47:04Z</time>
      </trkpt>
      <trkpt lat="48.20588" lon="7.13417">
        <ele>714</ele>
        <time>2017-07-20T08:47:05Z</time>
      </trkpt>
      <trkpt lat="48.20572" lon="7.13386">
        <ele>713.20001220703</ele>
        <time>2017-07-20T08:47:08Z</time>
      </trkpt>
      <trkpt lat="48.20561" lon="7.13366">
        <ele>712</ele>
        <time>2017-07-20T08:47:10Z</time>
      </trkpt>
      <trkpt lat="48.20549" lon="7.13346">
        <ele>711.20001220703</ele>
        <time>2017-07-20T08:47:12Z</time>
      </trkpt>
      <trkpt lat="48.20543" lon="7.13336">
        <ele>710.79998779297</ele>
        <time>2017-07-20T08:47:13Z</time>
      </trkpt>
      <trkpt lat="48.20522" lon="7.13308">
        <ele>709.40002441406</ele>
        <time>2017-07-20T08:47:16Z</time>
      </trkpt>
      <trkpt lat="48.20508" lon="7.13289">
        <ele>708.40002441406</ele>
        <time>2017-07-20T08:47:18Z</time>
      </trkpt>
      <trkpt lat="48.20493" lon="7.13269">
        <ele>707.20001220703</ele>
        <time>2017-07-20T08:47:20Z</time>
      </trkpt>
      <trkpt lat="48.20477" lon="7.13251">
        <ele>706</ele>
        <time>2017-07-20T08:47:22Z</time>
      </trkpt>
      <trkpt lat="48.20459" lon="7.13232">
        <ele>705</ele>
        <time>2017-07-20T08:47:24Z</time>
      </trkpt>
      <trkpt lat="48.20442" lon="7.13212">
        <ele>703.79998779297</ele>
        <time>2017-07-20T08:47:26Z</time>
      </trkpt>
      <trkpt lat="48.20425" lon="7.13191">
        <ele>702.40002441406</ele>
        <time>2017-07-20T08:47:28Z</time>
      </trkpt>
      <trkpt lat="48.20408" lon="7.1317">
        <ele>701.20001220703</ele>
        <time>2017-07-20T08:47:30Z</time>
      </trkpt>
      <trkpt lat="48.20399" lon="7.13161">
        <ele>700.59997558594</ele>
        <time>2017-07-20T08:47:31Z</time>
      </trkpt>
      <trkpt lat="48.20389" lon="7.13154">
        <ele>700</ele>
        <time>2017-07-20T08:47:32Z</time>
      </trkpt>
      <trkpt lat="48.20369" lon="7.13143">
        <ele>698</ele>
        <time>2017-07-20T08:47:34Z</time>
      </trkpt>
      <trkpt lat="48.20347" lon="7.13134">
        <ele>696.79998779297</ele>
        <time>2017-07-20T08:47:36Z</time>
      </trkpt>
      <trkpt lat="48.20337" lon="7.13128">
        <ele>696.20001220703</ele>
        <time>2017-07-20T08:47:37Z</time>
      </trkpt>
      <trkpt lat="48.20327" lon="7.1312">
        <ele>695.40002441406</ele>
        <time>2017-07-20T08:47:38Z</time>
      </trkpt>
      <trkpt lat="48.20309" lon="7.13103">
        <ele>693.79998779297</ele>
        <time>2017-07-20T08:47:40Z</time>
      </trkpt>
      <trkpt lat="48.203" lon="7.13091">
        <ele>693.20001220703</ele>
        <time>2017-07-20T08:47:41Z</time>
      </trkpt>
      <trkpt lat="48.20292" lon="7.13077">
        <ele>692.40002441406</ele>
        <time>2017-07-20T08:47:42Z</time>
      </trkpt>
      <trkpt lat="48.20279" lon="7.13045">
        <ele>691</ele>
        <time>2017-07-20T08:47:44Z</time>
      </trkpt>
      <trkpt lat="48.20274" lon="7.13028">
        <ele>690.40002441406</ele>
        <time>2017-07-20T08:47:45Z</time>
      </trkpt>
      <trkpt lat="48.20269" lon="7.13012">
        <ele>689.59997558594</ele>
        <time>2017-07-20T08:47:46Z</time>
      </trkpt>
      <trkpt lat="48.20264" lon="7.12976">
        <ele>688</ele>
        <time>2017-07-20T08:47:48Z</time>
      </trkpt>
      <trkpt lat="48.20263" lon="7.12943">
        <ele>686.59997558594</ele>
        <time>2017-07-20T08:47:50Z</time>
      </trkpt>
      <trkpt lat="48.20259" lon="7.12927">
        <ele>685.79998779297</ele>
        <time>2017-07-20T08:47:51Z</time>
      </trkpt>
      <trkpt lat="48.20255" lon="7.12911">
        <ele>685.20001220703</ele>
        <time>2017-07-20T08:47:52Z</time>
      </trkpt>
      <trkpt lat="48.20247" lon="7.12879">
        <ele>683.59997558594</ele>
        <time>2017-07-20T08:47:54Z</time>
      </trkpt>
      <trkpt lat="48.20236" lon="7.12848">
        <ele>681.79998779297</ele>
        <time>2017-07-20T08:47:56Z</time>
      </trkpt>
      <trkpt lat="48.20227" lon="7.12821">
        <ele>679.20001220703</ele>
        <time>2017-07-20T08:47:58Z</time>
      </trkpt>
      <trkpt lat="48.20221" lon="7.12811">
        <ele>678.20001220703</ele>
        <time>2017-07-20T08:47:59Z</time>
      </trkpt>
      <trkpt lat="48.20214" lon="7.12805">
        <ele>677.40002441406</ele>
        <time>2017-07-20T08:48:00Z</time>
      </trkpt>
      <trkpt lat="48.20206" lon="7.12803">
        <ele>676.40002441406</ele>
        <time>2017-07-20T08:48:01Z</time>
      </trkpt>
      <trkpt lat="48.20197" lon="7.12805">
        <ele>675.59997558594</ele>
        <time>2017-07-20T08:48:02Z</time>
      </trkpt>
      <trkpt lat="48.20188" lon="7.12811">
        <ele>674.79998779297</ele>
        <time>2017-07-20T08:48:03Z</time>
      </trkpt>
      <trkpt lat="48.20179" lon="7.12817">
        <ele>674</ele>
        <time>2017-07-20T08:48:04Z</time>
      </trkpt>
      <trkpt lat="48.20162" lon="7.12831">
        <ele>672.59997558594</ele>
        <time>2017-07-20T08:48:06Z</time>
      </trkpt>
      <trkpt lat="48.20145" lon="7.12848">
        <ele>671.20001220703</ele>
        <time>2017-07-20T08:48:08Z</time>
      </trkpt>
      <trkpt lat="48.20125" lon="7.12863">
        <ele>669.79998779297</ele>
        <time>2017-07-20T08:48:10Z</time>
      </trkpt>
      <trkpt lat="48.20115" lon="7.12869">
        <ele>669.20001220703</ele>
        <time>2017-07-20T08:48:11Z</time>
      </trkpt>
      <trkpt lat="48.20107" lon="7.12875">
        <ele>668.40002441406</ele>
        <time>2017-07-20T08:48:12Z</time>
      </trkpt>
      <trkpt lat="48.20089" lon="7.12885">
        <ele>666.79998779297</ele>
        <time>2017-07-20T08:48:14Z</time>
      </trkpt>
      <trkpt lat="48.20079" lon="7.12889">
        <ele>666.20001220703</ele>
        <time>2017-07-20T08:48:15Z</time>
      </trkpt>
      <trkpt lat="48.20069" lon="7.12893">
        <ele>665.40002441406</ele>
        <time>2017-07-20T08:48:16Z</time>
      </trkpt>
      <trkpt lat="48.20061" lon="7.12899">
        <ele>664.79998779297</ele>
        <time>2017-07-20T08:48:17Z</time>
      </trkpt>
      <trkpt lat="48.20056" lon="7.12906">
        <ele>664.20001220703</ele>
        <time>2017-07-20T08:48:18Z</time>
      </trkpt>
      <trkpt lat="48.20047" lon="7.12919">
        <ele>663</ele>
        <time>2017-07-20T08:48:20Z</time>
      </trkpt>
      <trkpt lat="48.20044" lon="7.1292">
        <ele>662.40002441406</ele>
        <time>2017-07-20T08:48:21Z</time>
      </trkpt>
      <trkpt lat="48.20042" lon="7.12918">
        <ele>661.20001220703</ele>
        <time>2017-07-20T08:48:22Z</time>
      </trkpt>
      <trkpt lat="48.20039" lon="7.12907">
        <ele>660.20001220703</ele>
        <time>2017-07-20T08:48:24Z</time>
      </trkpt>
      <trkpt lat="48.20037" lon="7.12898">
        <ele>659.59997558594</ele>
        <time>2017-07-20T08:48:25Z</time>
      </trkpt>
      <trkpt lat="48.20035" lon="7.12888">
        <ele>658.79998779297</ele>
        <time>2017-07-20T08:48:26Z</time>
      </trkpt>
      <trkpt lat="48.20032" lon="7.12854">
        <ele>657.40002441406</ele>
        <time>2017-07-20T08:48:28Z</time>
      </trkpt>
      <trkpt lat="48.2003" lon="7.12812">
        <ele>656</ele>
        <time>2017-07-20T08:48:30Z</time>
      </trkpt>
      <trkpt lat="48.20037" lon="7.12764">
        <ele>654.40002441406</ele>
        <time>2017-07-20T08:48:32Z</time>
      </trkpt>
      <trkpt lat="48.20034" lon="7.1275">
        <ele>653.59997558594</ele>
        <time>2017-07-20T08:48:33Z</time>
      </trkpt>
      <trkpt lat="48.20034" lon="7.12738">
        <ele>653</ele>
        <time>2017-07-20T08:48:34Z</time>
      </trkpt>
      <trkpt lat="48.20043" lon="7.12717">
        <ele>651.40002441406</ele>
        <time>2017-07-20T08:48:36Z</time>
      </trkpt>
      <trkpt lat="48.20061" lon="7.12697">
        <ele>650</ele>
        <time>2017-07-20T08:48:38Z</time>
      </trkpt>
      <trkpt lat="48.20071" lon="7.12687">
        <ele>649.40002441406</ele>
        <time>2017-07-20T08:48:39Z</time>
      </trkpt>
      <trkpt lat="48.2008" lon="7.12673">
        <ele>648.79998779297</ele>
        <time>2017-07-20T08:48:40Z</time>
      </trkpt>
      <trkpt lat="48.20087" lon="7.12655">
        <ele>648.20001220703</ele>
        <time>2017-07-20T08:48:41Z</time>
      </trkpt>
      <trkpt lat="48.2009" lon="7.12638">
        <ele>647.59997558594</ele>
        <time>2017-07-20T08:48:42Z</time>
      </trkpt>
      <trkpt lat="48.20091" lon="7.12596">
        <ele>646.40002441406</ele>
        <time>2017-07-20T08:48:44Z</time>
      </trkpt>
      <trkpt lat="48.20085" lon="7.12557">
        <ele>644.59997558594</ele>
        <time>2017-07-20T08:48:46Z</time>
      </trkpt>
      <trkpt lat="48.20082" lon="7.12537">
        <ele>643.79998779297</ele>
        <time>2017-07-20T08:48:47Z</time>
      </trkpt>
      <trkpt lat="48.2008" lon="7.12517">
        <ele>643</ele>
        <time>2017-07-20T08:48:48Z</time>
      </trkpt>
      <trkpt lat="48.20071" lon="7.12481">
        <ele>641.40002441406</ele>
        <time>2017-07-20T08:48:50Z</time>
      </trkpt>
      <trkpt lat="48.20061" lon="7.12447">
        <ele>640</ele>
        <time>2017-07-20T08:48:52Z</time>
      </trkpt>
      <trkpt lat="48.20048" lon="7.12414">
        <ele>638.40002441406</ele>
        <time>2017-07-20T08:48:54Z</time>
      </trkpt>
      <trkpt lat="48.20046" lon="7.12375">
        <ele>637</ele>
        <time>2017-07-20T08:48:56Z</time>
      </trkpt>
      <trkpt lat="48.20044" lon="7.12356">
        <ele>636.20001220703</ele>
        <time>2017-07-20T08:48:57Z</time>
      </trkpt>
      <trkpt lat="48.2004" lon="7.12338">
        <ele>635.20001220703</ele>
        <time>2017-07-20T08:48:58Z</time>
      </trkpt>
      <trkpt lat="48.20032" lon="7.12303">
        <ele>633.40002441406</ele>
        <time>2017-07-20T08:49:00Z</time>
      </trkpt>
      <trkpt lat="48.20019" lon="7.12273">
        <ele>631.59997558594</ele>
        <time>2017-07-20T08:49:02Z</time>
      </trkpt>
      <trkpt lat="48.20012" lon="7.12261">
        <ele>630.59997558594</ele>
        <time>2017-07-20T08:49:03Z</time>
      </trkpt>
      <trkpt lat="48.20004" lon="7.1225">
        <ele>629.79998779297</ele>
        <time>2017-07-20T08:49:04Z</time>
      </trkpt>
      <trkpt lat="48.19997" lon="7.12239">
        <ele>629</ele>
        <time>2017-07-20T08:49:05Z</time>
      </trkpt>
      <trkpt lat="48.1999" lon="7.12228">
        <ele>628</ele>
        <time>2017-07-20T08:49:06Z</time>
      </trkpt>
      <trkpt lat="48.19981" lon="7.12208">
        <ele>626.20001220703</ele>
        <time>2017-07-20T08:49:08Z</time>
      </trkpt>
      <trkpt lat="48.1998" lon="7.12198">
        <ele>625.20001220703</ele>
        <time>2017-07-20T08:49:09Z</time>
      </trkpt>
      <trkpt lat="48.19987" lon="7.12185">
        <ele>623.79998779297</ele>
        <time>2017-07-20T08:49:10Z</time>
      </trkpt>
      <trkpt lat="48.19997" lon="7.12176">
        <ele>623.20001220703</ele>
        <time>2017-07-20T08:49:11Z</time>
      </trkpt>
      <trkpt lat="48.20009" lon="7.12171">
        <ele>622.59997558594</ele>
        <time>2017-07-20T08:49:12Z</time>
      </trkpt>
      <trkpt lat="48.20022" lon="7.12168">
        <ele>622.20001220703</ele>
        <time>2017-07-20T08:49:13Z</time>
      </trkpt>
      <trkpt lat="48.20033" lon="7.1217">
        <ele>621.59997558594</ele>
        <time>2017-07-20T08:49:14Z</time>
      </trkpt>
      <trkpt lat="48.20051" lon="7.12185">
        <ele>620.59997558594</ele>
        <time>2017-07-20T08:49:16Z</time>
      </trkpt>
      <trkpt lat="48.20058" lon="7.12195">
        <ele>620.20001220703</ele>
        <time>2017-07-20T08:49:17Z</time>
      </trkpt>
      <trkpt lat="48.20073" lon="7.12215">
        <ele>619.20001220703</ele>
        <time>2017-07-20T08:49:19Z</time>
      </trkpt>
      <trkpt lat="48.20083" lon="7.12224">
        <ele>618.79998779297</ele>
        <time>2017-07-20T08:49:20Z</time>
      </trkpt>
      <trkpt lat="48.20093" lon="7.12233">
        <ele>618.20001220703</ele>
        <time>2017-07-20T08:49:21Z</time>
      </trkpt>
      <trkpt lat="48.20102" lon="7.12241">
        <ele>617.59997558594</ele>
        <time>2017-07-20T08:49:22Z</time>
      </trkpt>
      <trkpt lat="48.20112" lon="7.12249">
        <ele>616.79998779297</ele>
        <time>2017-07-20T08:49:23Z</time>
      </trkpt>
      <trkpt lat="48.20121" lon="7.12257">
        <ele>616.20001220703</ele>
        <time>2017-07-20T08:49:24Z</time>
      </trkpt>
      <trkpt lat="48.20141" lon="7.12272">
        <ele>614.59997558594</ele>
        <time>2017-07-20T08:49:26Z</time>
      </trkpt>
      <trkpt lat="48.20163" lon="7.12288">
        <ele>613</ele>
        <time>2017-07-20T08:49:28Z</time>
      </trkpt>
      <trkpt lat="48.20174" lon="7.12295">
        <ele>612.20001220703</ele>
        <time>2017-07-20T08:49:29Z</time>
      </trkpt>
      <trkpt lat="48.20185" lon="7.12303">
        <ele>611.59997558594</ele>
        <time>2017-07-20T08:49:30Z</time>
      </trkpt>
      <trkpt lat="48.20208" lon="7.12319">
        <ele>610</ele>
        <time>2017-07-20T08:49:32Z</time>
      </trkpt>
      <trkpt lat="48.20231" lon="7.12335">
        <ele>607.20001220703</ele>
        <time>2017-07-20T08:49:34Z</time>
      </trkpt>
      <trkpt lat="48.20242" lon="7.12343">
        <ele>606.40002441406</ele>
        <time>2017-07-20T08:49:35Z</time>
      </trkpt>
      <trkpt lat="48.20254" lon="7.12352">
        <ele>605.59997558594</ele>
        <time>2017-07-20T08:49:36Z</time>
      </trkpt>
      <trkpt lat="48.20277" lon="7.12367">
        <ele>603.59997558594</ele>
        <time>2017-07-20T08:49:38Z</time>
      </trkpt>
      <trkpt lat="48.20302" lon="7.12381">
        <ele>601.79998779297</ele>
        <time>2017-07-20T08:49:40Z</time>
      </trkpt>
      <trkpt lat="48.20314" lon="7.12389">
        <ele>600.79998779297</ele>
        <time>2017-07-20T08:49:41Z</time>
      </trkpt>
      <trkpt lat="48.20326" lon="7.12397">
        <ele>599.79998779297</ele>
        <time>2017-07-20T08:49:42Z</time>
      </trkpt>
      <trkpt lat="48.20338" lon="7.12406">
        <ele>598.79998779297</ele>
        <time>2017-07-20T08:49:43Z</time>
      </trkpt>
      <trkpt lat="48.20348" lon="7.12419">
        <ele>597.79998779297</ele>
        <time>2017-07-20T08:49:44Z</time>
      </trkpt>
      <trkpt lat="48.20356" lon="7.12433">
        <ele>596.59997558594</ele>
        <time>2017-07-20T08:49:45Z</time>
      </trkpt>
      <trkpt lat="48.20362" lon="7.1245">
        <ele>595.59997558594</ele>
        <time>2017-07-20T08:49:46Z</time>
      </trkpt>
      <trkpt lat="48.20369" lon="7.12466">
        <ele>594.59997558594</ele>
        <time>2017-07-20T08:49:47Z</time>
      </trkpt>
      <trkpt lat="48.20377" lon="7.12481">
        <ele>593.40002441406</ele>
        <time>2017-07-20T08:49:48Z</time>
      </trkpt>
      <trkpt lat="48.20398" lon="7.12503">
        <ele>591.59997558594</ele>
        <time>2017-07-20T08:49:50Z</time>
      </trkpt>
      <trkpt lat="48.20422" lon="7.12516">
        <ele>589.79998779297</ele>
        <time>2017-07-20T08:49:52Z</time>
      </trkpt>
      <trkpt lat="48.20434" lon="7.12523">
        <ele>588.79998779297</ele>
        <time>2017-07-20T08:49:53Z</time>
      </trkpt>
      <trkpt lat="48.20446" lon="7.12531">
        <ele>587.79998779297</ele>
        <time>2017-07-20T08:49:54Z</time>
      </trkpt>
      <trkpt lat="48.20457" lon="7.12543">
        <ele>586.79998779297</ele>
        <time>2017-07-20T08:49:55Z</time>
      </trkpt>
      <trkpt lat="48.20467" lon="7.12555">
        <ele>585.59997558594</ele>
        <time>2017-07-20T08:49:56Z</time>
      </trkpt>
      <trkpt lat="48.20478" lon="7.12567">
        <ele>584.59997558594</ele>
        <time>2017-07-20T08:49:57Z</time>
      </trkpt>
      <trkpt lat="48.20488" lon="7.1258">
        <ele>582.59997558594</ele>
        <time>2017-07-20T08:49:58Z</time>
      </trkpt>
      <trkpt lat="48.20497" lon="7.12594">
        <ele>581.59997558594</ele>
        <time>2017-07-20T08:49:59Z</time>
      </trkpt>
      <trkpt lat="48.20505" lon="7.12608">
        <ele>580.59997558594</ele>
        <time>2017-07-20T08:50:00Z</time>
      </trkpt>
      <trkpt lat="48.20514" lon="7.12624">
        <ele>579.59997558594</ele>
        <time>2017-07-20T08:50:01Z</time>
      </trkpt>
      <trkpt lat="48.20531" lon="7.12654">
        <ele>577.59997558594</ele>
        <time>2017-07-20T08:50:03Z</time>
      </trkpt>
      <trkpt lat="48.2055" lon="7.1268">
        <ele>575.59997558594</ele>
        <time>2017-07-20T08:50:05Z</time>
      </trkpt>
      <trkpt lat="48.2056" lon="7.12691">
        <ele>574.59997558594</ele>
        <time>2017-07-20T08:50:06Z</time>
      </trkpt>
      <trkpt lat="48.20579" lon="7.12716">
        <ele>572.59997558594</ele>
        <time>2017-07-20T08:50:08Z</time>
      </trkpt>
      <trkpt lat="48.20597" lon="7.12741">
        <ele>571</ele>
        <time>2017-07-20T08:50:10Z</time>
      </trkpt>
      <trkpt lat="48.20616" lon="7.12765">
        <ele>569.40002441406</ele>
        <time>2017-07-20T08:50:12Z</time>
      </trkpt>
      <trkpt lat="48.20635" lon="7.12787">
        <ele>568</ele>
        <time>2017-07-20T08:50:14Z</time>
      </trkpt>
      <trkpt lat="48.20646" lon="7.12798">
        <ele>567.20001220703</ele>
        <time>2017-07-20T08:50:15Z</time>
      </trkpt>
      <trkpt lat="48.20656" lon="7.12808">
        <ele>566.40002441406</ele>
        <time>2017-07-20T08:50:16Z</time>
      </trkpt>
      <trkpt lat="48.20678" lon="7.1283">
        <ele>564.59997558594</ele>
        <time>2017-07-20T08:50:18Z</time>
      </trkpt>
      <trkpt lat="48.20689" lon="7.12842">
        <ele>563.40002441406</ele>
        <time>2017-07-20T08:50:19Z</time>
      </trkpt>
      <trkpt lat="48.20699" lon="7.12855">
        <ele>562.20001220703</ele>
        <time>2017-07-20T08:50:20Z</time>
      </trkpt>
      <trkpt lat="48.20709" lon="7.12868">
        <ele>561</ele>
        <time>2017-07-20T08:50:21Z</time>
      </trkpt>
      <trkpt lat="48.20719" lon="7.12881">
        <ele>558.79998779297</ele>
        <time>2017-07-20T08:50:22Z</time>
      </trkpt>
      <trkpt lat="48.20728" lon="7.12894">
        <ele>557.79998779297</ele>
        <time>2017-07-20T08:50:23Z</time>
      </trkpt>
      <trkpt lat="48.20748" lon="7.12918">
        <ele>555.79998779297</ele>
        <time>2017-07-20T08:50:25Z</time>
      </trkpt>
      <trkpt lat="48.20769" lon="7.12939">
        <ele>554.20001220703</ele>
        <time>2017-07-20T08:50:27Z</time>
      </trkpt>
      <trkpt lat="48.20789" lon="7.12959">
        <ele>552.79998779297</ele>
        <time>2017-07-20T08:50:29Z</time>
      </trkpt>
      <trkpt lat="48.20799" lon="7.12971">
        <ele>551.79998779297</ele>
        <time>2017-07-20T08:50:30Z</time>
      </trkpt>
      <trkpt lat="48.20807" lon="7.12982">
        <ele>551</ele>
        <time>2017-07-20T08:50:31Z</time>
      </trkpt>
      <trkpt lat="48.20823" lon="7.13007">
        <ele>549.59997558594</ele>
        <time>2017-07-20T08:50:33Z</time>
      </trkpt>
      <trkpt lat="48.20838" lon="7.13032">
        <ele>548.40002441406</ele>
        <time>2017-07-20T08:50:35Z</time>
      </trkpt>
      <trkpt lat="48.2085" lon="7.1306">
        <ele>547.20001220703</ele>
        <time>2017-07-20T08:50:37Z</time>
      </trkpt>
      <trkpt lat="48.2086" lon="7.13089">
        <ele>546.20001220703</ele>
        <time>2017-07-20T08:50:39Z</time>
      </trkpt>
      <trkpt lat="48.20864" lon="7.13104">
        <ele>545.59997558594</ele>
        <time>2017-07-20T08:50:40Z</time>
      </trkpt>
      <trkpt lat="48.20867" lon="7.13119">
        <ele>545.20001220703</ele>
        <time>2017-07-20T08:50:41Z</time>
      </trkpt>
      <trkpt lat="48.20873" lon="7.13151">
        <ele>544</ele>
        <time>2017-07-20T08:50:43Z</time>
      </trkpt>
      <trkpt lat="48.20878" lon="7.13183">
        <ele>543</ele>
        <time>2017-07-20T08:50:45Z</time>
      </trkpt>
      <trkpt lat="48.20881" lon="7.13199">
        <ele>541.79998779297</ele>
        <time>2017-07-20T08:50:46Z</time>
      </trkpt>
      <trkpt lat="48.20886" lon="7.13214">
        <ele>541</ele>
        <time>2017-07-20T08:50:47Z</time>
      </trkpt>
      <trkpt lat="48.20892" lon="7.13229">
        <ele>540.40002441406</ele>
        <time>2017-07-20T08:50:48Z</time>
      </trkpt>
      <trkpt lat="48.20906" lon="7.13257">
        <ele>538.59997558594</ele>
        <time>2017-07-20T08:50:50Z</time>
      </trkpt>
      <trkpt lat="48.20913" lon="7.13269">
        <ele>537.79998779297</ele>
        <time>2017-07-20T08:50:51Z</time>
      </trkpt>
      <trkpt lat="48.20921" lon="7.13281">
        <ele>537.20001220703</ele>
        <time>2017-07-20T08:50:52Z</time>
      </trkpt>
      <trkpt lat="48.20929" lon="7.1329">
        <ele>536.40002441406</ele>
        <time>2017-07-20T08:50:53Z</time>
      </trkpt>
      <trkpt lat="48.20938" lon="7.13299">
        <ele>535.79998779297</ele>
        <time>2017-07-20T08:50:54Z</time>
      </trkpt>
      <trkpt lat="48.20954" lon="7.13315">
        <ele>534.79998779297</ele>
        <time>2017-07-20T08:50:56Z</time>
      </trkpt>
      <trkpt lat="48.20963" lon="7.13322">
        <ele>534.59997558594</ele>
        <time>2017-07-20T08:50:57Z</time>
      </trkpt>
      <trkpt lat="48.21001" lon="7.1336">
        <ele>533.59997558594</ele>
        <time>2017-07-20T08:51:02Z</time>
      </trkpt>
      <trkpt lat="48.21016" lon="7.13375">
        <ele>533.40002441406</ele>
        <time>2017-07-20T08:51:04Z</time>
      </trkpt>
      <trkpt lat="48.21034" lon="7.13387">
        <ele>533</ele>
        <time>2017-07-20T08:51:06Z</time>
      </trkpt>
      <trkpt lat="48.21042" lon="7.13391">
        <ele>532.79998779297</ele>
        <time>2017-07-20T08:51:07Z</time>
      </trkpt>
      <trkpt lat="48.21061" lon="7.13394">
        <ele>532.40002441406</ele>
        <time>2017-07-20T08:51:09Z</time>
      </trkpt>
      <trkpt lat="48.2107" lon="7.13393">
        <ele>531.59997558594</ele>
        <time>2017-07-20T08:51:10Z</time>
      </trkpt>
      <trkpt lat="48.2108" lon="7.13391">
        <ele>531.20001220703</ele>
        <time>2017-07-20T08:51:11Z</time>
      </trkpt>
      <trkpt lat="48.21109" lon="7.13386">
        <ele>530</ele>
        <time>2017-07-20T08:51:14Z</time>
      </trkpt>
      <trkpt lat="48.21119" lon="7.13387">
        <ele>529.59997558594</ele>
        <time>2017-07-20T08:51:15Z</time>
      </trkpt>
      <trkpt lat="48.21139" lon="7.1339">
        <ele>528.59997558594</ele>
        <time>2017-07-20T08:51:17Z</time>
      </trkpt>
      <trkpt lat="48.21158" lon="7.13396">
        <ele>527.59997558594</ele>
        <time>2017-07-20T08:51:19Z</time>
      </trkpt>
      <trkpt lat="48.21167" lon="7.134">
        <ele>527.20001220703</ele>
        <time>2017-07-20T08:51:20Z</time>
      </trkpt>
      <trkpt lat="48.212" lon="7.13423">
        <ele>526</ele>
        <time>2017-07-20T08:51:24Z</time>
      </trkpt>
      <trkpt lat="48.21208" lon="7.13431">
        <ele>525.79998779297</ele>
        <time>2017-07-20T08:51:25Z</time>
      </trkpt>
      <trkpt lat="48.21235" lon="7.13472">
        <ele>524.79998779297</ele>
        <time>2017-07-20T08:51:29Z</time>
      </trkpt>
      <trkpt lat="48.2125" lon="7.13492">
        <ele>524.20001220703</ele>
        <time>2017-07-20T08:51:31Z</time>
      </trkpt>
      <trkpt lat="48.21259" lon="7.13501">
        <ele>523.79998779297</ele>
        <time>2017-07-20T08:51:32Z</time>
      </trkpt>
      <trkpt lat="48.21269" lon="7.13507">
        <ele>523.20001220703</ele>
        <time>2017-07-20T08:51:33Z</time>
      </trkpt>
      <trkpt lat="48.21279" lon="7.13514">
        <ele>522.20001220703</ele>
        <time>2017-07-20T08:51:34Z</time>
      </trkpt>
      <trkpt lat="48.21299" lon="7.13526">
        <ele>521.20001220703</ele>
        <time>2017-07-20T08:51:36Z</time>
      </trkpt>
      <trkpt lat="48.21308" lon="7.13534">
        <ele>520.59997558594</ele>
        <time>2017-07-20T08:51:37Z</time>
      </trkpt>
      <trkpt lat="48.21317" lon="7.13543">
        <ele>520</ele>
        <time>2017-07-20T08:51:38Z</time>
      </trkpt>
      <trkpt lat="48.21334" lon="7.13564">
        <ele>518.40002441406</ele>
        <time>2017-07-20T08:51:40Z</time>
      </trkpt>
      <trkpt lat="48.21352" lon="7.13584">
        <ele>517</ele>
        <time>2017-07-20T08:51:42Z</time>
      </trkpt>
      <trkpt lat="48.21368" lon="7.13607">
        <ele>515.59997558594</ele>
        <time>2017-07-20T08:51:44Z</time>
      </trkpt>
      <trkpt lat="48.21378" lon="7.13635">
        <ele>514.40002441406</ele>
        <time>2017-07-20T08:51:46Z</time>
      </trkpt>
      <trkpt lat="48.21381" lon="7.13651">
        <ele>513.79998779297</ele>
        <time>2017-07-20T08:51:47Z</time>
      </trkpt>
      <trkpt lat="48.21382" lon="7.13667">
        <ele>513.40002441406</ele>
        <time>2017-07-20T08:51:48Z</time>
      </trkpt>
      <trkpt lat="48.21383" lon="7.13701">
        <ele>512.40002441406</ele>
        <time>2017-07-20T08:51:50Z</time>
      </trkpt>
      <trkpt lat="48.21386" lon="7.13717">
        <ele>511.79998779297</ele>
        <time>2017-07-20T08:51:51Z</time>
      </trkpt>
      <trkpt lat="48.21396" lon="7.13746">
        <ele>510.79998779297</ele>
        <time>2017-07-20T08:51:53Z</time>
      </trkpt>
      <trkpt lat="48.21412" lon="7.13768">
        <ele>509.60000610352</ele>
        <time>2017-07-20T08:51:55Z</time>
      </trkpt>
      <trkpt lat="48.2142" lon="7.13778">
        <ele>509</ele>
        <time>2017-07-20T08:51:56Z</time>
      </trkpt>
      <trkpt lat="48.21427" lon="7.1379">
        <ele>508.39999389648</ele>
        <time>2017-07-20T08:51:57Z</time>
      </trkpt>
      <trkpt lat="48.21434" lon="7.13803">
        <ele>507.39999389648</ele>
        <time>2017-07-20T08:51:58Z</time>
      </trkpt>
      <trkpt lat="48.21447" lon="7.13831">
        <ele>506</ele>
        <time>2017-07-20T08:52:00Z</time>
      </trkpt>
      <trkpt lat="48.21457" lon="7.13862">
        <ele>504.39999389648</ele>
        <time>2017-07-20T08:52:02Z</time>
      </trkpt>
      <trkpt lat="48.21468" lon="7.13893">
        <ele>502.79998779297</ele>
        <time>2017-07-20T08:52:04Z</time>
      </trkpt>
      <trkpt lat="48.2148" lon="7.13923">
        <ele>501</ele>
        <time>2017-07-20T08:52:06Z</time>
      </trkpt>
      <trkpt lat="48.21494" lon="7.13952">
        <ele>499.39999389648</ele>
        <time>2017-07-20T08:52:08Z</time>
      </trkpt>
      <trkpt lat="48.21508" lon="7.13979">
        <ele>497.79998779297</ele>
        <time>2017-07-20T08:52:10Z</time>
      </trkpt>
      <trkpt lat="48.21524" lon="7.14005">
        <ele>496.39999389648</ele>
        <time>2017-07-20T08:52:12Z</time>
      </trkpt>
      <trkpt lat="48.21533" lon="7.14015">
        <ele>495.60000610352</ele>
        <time>2017-07-20T08:52:13Z</time>
      </trkpt>
      <trkpt lat="48.21543" lon="7.14026">
        <ele>495</ele>
        <time>2017-07-20T08:52:14Z</time>
      </trkpt>
      <trkpt lat="48.21564" lon="7.14044">
        <ele>493.60000610352</ele>
        <time>2017-07-20T08:52:16Z</time>
      </trkpt>
      <trkpt lat="48.21575" lon="7.14051">
        <ele>493</ele>
        <time>2017-07-20T08:52:17Z</time>
      </trkpt>
      <trkpt lat="48.21587" lon="7.14057">
        <ele>492</ele>
        <time>2017-07-20T08:52:18Z</time>
      </trkpt>
      <trkpt lat="48.2161" lon="7.14065">
        <ele>490.20001220703</ele>
        <time>2017-07-20T08:52:20Z</time>
      </trkpt>
      <trkpt lat="48.21622" lon="7.14069">
        <ele>489.39999389648</ele>
        <time>2017-07-20T08:52:21Z</time>
      </trkpt>
      <trkpt lat="48.21633" lon="7.14072">
        <ele>488</ele>
        <time>2017-07-20T08:52:22Z</time>
      </trkpt>
      <trkpt lat="48.21644" lon="7.14074">
        <ele>487.39999389648</ele>
        <time>2017-07-20T08:52:23Z</time>
      </trkpt>
      <trkpt lat="48.21655" lon="7.14075">
        <ele>487</ele>
        <time>2017-07-20T08:52:24Z</time>
      </trkpt>
      <trkpt lat="48.21665" lon="7.14078">
        <ele>486.60000610352</ele>
        <time>2017-07-20T08:52:25Z</time>
      </trkpt>
      <trkpt lat="48.21685" lon="7.14089">
        <ele>485.60000610352</ele>
        <time>2017-07-20T08:52:27Z</time>
      </trkpt>
      <trkpt lat="48.21704" lon="7.14103">
        <ele>485</ele>
        <time>2017-07-20T08:52:29Z</time>
      </trkpt>
      <trkpt lat="48.21712" lon="7.14112">
        <ele>484.60000610352</ele>
        <time>2017-07-20T08:52:30Z</time>
      </trkpt>
      <trkpt lat="48.21726" lon="7.14132">
        <ele>483.60000610352</ele>
        <time>2017-07-20T08:52:32Z</time>
      </trkpt>
      <trkpt lat="48.21732" lon="7.14143">
        <ele>483</ele>
        <time>2017-07-20T08:52:33Z</time>
      </trkpt>
      <trkpt lat="48.21738" lon="7.14156">
        <ele>482.60000610352</ele>
        <time>2017-07-20T08:52:34Z</time>
      </trkpt>
      <trkpt lat="48.21751" lon="7.14179">
        <ele>481.79998779297</ele>
        <time>2017-07-20T08:52:36Z</time>
      </trkpt>
      <trkpt lat="48.21776" lon="7.14224">
        <ele>480.79998779297</ele>
        <time>2017-07-20T08:52:40Z</time>
      </trkpt>
      <trkpt lat="48.21789" lon="7.14245">
        <ele>480.20001220703</ele>
        <time>2017-07-20T08:52:42Z</time>
      </trkpt>
      <trkpt lat="48.21811" lon="7.14268">
        <ele>479.60000610352</ele>
        <time>2017-07-20T08:52:45Z</time>
      </trkpt>
      <trkpt lat="48.21818" lon="7.14274">
        <ele>479.20001220703</ele>
        <time>2017-07-20T08:52:46Z</time>
      </trkpt>
      <trkpt lat="48.21861" lon="7.14309">
        <ele>478.60000610352</ele>
        <time>2017-07-20T08:52:52Z</time>
      </trkpt>
      <trkpt lat="48.21869" lon="7.14315">
        <ele>478.60000610352</ele>
        <time>2017-07-20T08:52:53Z</time>
      </trkpt>
      <trkpt lat="48.21902" lon="7.14354">
        <ele>478.20001220703</ele>
        <time>2017-07-20T08:52:58Z</time>
      </trkpt>
      <trkpt lat="48.2192" lon="7.14383">
        <ele>477.20001220703</ele>
        <time>2017-07-20T08:53:01Z</time>
      </trkpt>
      <trkpt lat="48.21941" lon="7.14412">
        <ele>476.20001220703</ele>
        <time>2017-07-20T08:53:04Z</time>
      </trkpt>
      <trkpt lat="48.21949" lon="7.14418">
        <ele>475.79998779297</ele>
        <time>2017-07-20T08:53:05Z</time>
      </trkpt>
      <trkpt lat="48.21967" lon="7.14429">
        <ele>475</ele>
        <time>2017-07-20T08:53:07Z</time>
      </trkpt>
      <trkpt lat="48.21996" lon="7.14437">
        <ele>473.20001220703</ele>
        <time>2017-07-20T08:53:10Z</time>
      </trkpt>
      <trkpt lat="48.22005" lon="7.14439">
        <ele>472.79998779297</ele>
        <time>2017-07-20T08:53:11Z</time>
      </trkpt>
      <trkpt lat="48.22024" lon="7.14446">
        <ele>471.79998779297</ele>
        <time>2017-07-20T08:53:13Z</time>
      </trkpt>
      <trkpt lat="48.22043" lon="7.14458">
        <ele>471</ele>
        <time>2017-07-20T08:53:15Z</time>
      </trkpt>
      <trkpt lat="48.22052" lon="7.14464">
        <ele>470.39999389648</ele>
        <time>2017-07-20T08:53:16Z</time>
      </trkpt>
      <trkpt lat="48.22071" lon="7.14476">
        <ele>469.39999389648</ele>
        <time>2017-07-20T08:53:18Z</time>
      </trkpt>
      <trkpt lat="48.2209" lon="7.14488">
        <ele>468.20001220703</ele>
        <time>2017-07-20T08:53:20Z</time>
      </trkpt>
      <trkpt lat="48.22109" lon="7.14502">
        <ele>467.20001220703</ele>
        <time>2017-07-20T08:53:22Z</time>
      </trkpt>
      <trkpt lat="48.22119" lon="7.14509">
        <ele>466.79998779297</ele>
        <time>2017-07-20T08:53:23Z</time>
      </trkpt>
      <trkpt lat="48.22138" lon="7.14523">
        <ele>465.39999389648</ele>
        <time>2017-07-20T08:53:25Z</time>
      </trkpt>
      <trkpt lat="48.22147" lon="7.14531">
        <ele>464.79998779297</ele>
        <time>2017-07-20T08:53:26Z</time>
      </trkpt>
      <trkpt lat="48.22156" lon="7.14541">
        <ele>464.20001220703</ele>
        <time>2017-07-20T08:53:27Z</time>
      </trkpt>
      <trkpt lat="48.22165" lon="7.14551">
        <ele>463.60000610352</ele>
        <time>2017-07-20T08:53:28Z</time>
      </trkpt>
      <trkpt lat="48.22173" lon="7.14562">
        <ele>463</ele>
        <time>2017-07-20T08:53:29Z</time>
      </trkpt>
      <trkpt lat="48.22182" lon="7.14574">
        <ele>462.39999389648</ele>
        <time>2017-07-20T08:53:30Z</time>
      </trkpt>
      <trkpt lat="48.22189" lon="7.14587">
        <ele>461.79998779297</ele>
        <time>2017-07-20T08:53:31Z</time>
      </trkpt>
      <trkpt lat="48.22196" lon="7.146">
        <ele>461.20001220703</ele>
        <time>2017-07-20T08:53:32Z</time>
      </trkpt>
      <trkpt lat="48.22204" lon="7.14613">
        <ele>460.39999389648</ele>
        <time>2017-07-20T08:53:33Z</time>
      </trkpt>
      <trkpt lat="48.22211" lon="7.14627">
        <ele>459.20001220703</ele>
        <time>2017-07-20T08:53:34Z</time>
      </trkpt>
      <trkpt lat="48.22226" lon="7.14653">
        <ele>457.79998779297</ele>
        <time>2017-07-20T08:53:36Z</time>
      </trkpt>
      <trkpt lat="48.22235" lon="7.14662">
        <ele>457</ele>
        <time>2017-07-20T08:53:37Z</time>
      </trkpt>
      <trkpt lat="48.22246" lon="7.14669">
        <ele>456.39999389648</ele>
        <time>2017-07-20T08:53:38Z</time>
      </trkpt>
      <trkpt lat="48.22257" lon="7.14672">
        <ele>455.79998779297</ele>
        <time>2017-07-20T08:53:39Z</time>
      </trkpt>
      <trkpt lat="48.22268" lon="7.14674">
        <ele>455.20001220703</ele>
        <time>2017-07-20T08:53:40Z</time>
      </trkpt>
      <trkpt lat="48.22279" lon="7.14678">
        <ele>454.39999389648</ele>
        <time>2017-07-20T08:53:41Z</time>
      </trkpt>
      <trkpt lat="48.2229" lon="7.14686">
        <ele>453.79998779297</ele>
        <time>2017-07-20T08:53:42Z</time>
      </trkpt>
      <trkpt lat="48.22308" lon="7.14706">
        <ele>452.20001220703</ele>
        <time>2017-07-20T08:53:44Z</time>
      </trkpt>
      <trkpt lat="48.22316" lon="7.14718">
        <ele>451.60000610352</ele>
        <time>2017-07-20T08:53:45Z</time>
      </trkpt>
      <trkpt lat="48.22323" lon="7.1473">
        <ele>450.79998779297</ele>
        <time>2017-07-20T08:53:46Z</time>
      </trkpt>
      <trkpt lat="48.22338" lon="7.14753">
        <ele>449.39999389648</ele>
        <time>2017-07-20T08:53:48Z</time>
      </trkpt>
      <trkpt lat="48.22351" lon="7.14779">
        <ele>448.39999389648</ele>
        <time>2017-07-20T08:53:50Z</time>
      </trkpt>
      <trkpt lat="48.22355" lon="7.14793">
        <ele>448</ele>
        <time>2017-07-20T08:53:51Z</time>
      </trkpt>
      <trkpt lat="48.2237" lon="7.14835">
        <ele>446.79998779297</ele>
        <time>2017-07-20T08:53:54Z</time>
      </trkpt>
      <trkpt lat="48.22375" lon="7.14848">
        <ele>446.60000610352</ele>
        <time>2017-07-20T08:53:55Z</time>
      </trkpt>
      <trkpt lat="48.22384" lon="7.14874">
        <ele>445.79998779297</ele>
        <time>2017-07-20T08:53:57Z</time>
      </trkpt>
      <trkpt lat="48.22389" lon="7.14887">
        <ele>445.39999389648</ele>
        <time>2017-07-20T08:53:58Z</time>
      </trkpt>
      <trkpt lat="48.22395" lon="7.14898">
        <ele>445</ele>
        <time>2017-07-20T08:53:59Z</time>
      </trkpt>
      <trkpt lat="48.22417" lon="7.14922">
        <ele>444.20001220703</ele>
        <time>2017-07-20T08:54:02Z</time>
      </trkpt>
      <trkpt lat="48.22425" lon="7.14929">
        <ele>444</ele>
        <time>2017-07-20T08:54:03Z</time>
      </trkpt>
      <trkpt lat="48.22457" lon="7.14955">
        <ele>443</ele>
        <time>2017-07-20T08:54:07Z</time>
      </trkpt>
      <trkpt lat="48.22473" lon="7.14966">
        <ele>442.60000610352</ele>
        <time>2017-07-20T08:54:09Z</time>
      </trkpt>
      <trkpt lat="48.22498" lon="7.14982">
        <ele>442</ele>
        <time>2017-07-20T08:54:12Z</time>
      </trkpt>
      <trkpt lat="48.2253" lon="7.15005">
        <ele>441.20001220703</ele>
        <time>2017-07-20T08:54:16Z</time>
      </trkpt>
      <trkpt lat="48.22545" lon="7.15019">
        <ele>440.79998779297</ele>
        <time>2017-07-20T08:54:18Z</time>
      </trkpt>
      <trkpt lat="48.22575" lon="7.15047">
        <ele>439.60000610352</ele>
        <time>2017-07-20T08:54:22Z</time>
      </trkpt>
      <trkpt lat="48.22582" lon="7.15054">
        <ele>439.20001220703</ele>
        <time>2017-07-20T08:54:23Z</time>
      </trkpt>
      <trkpt lat="48.22603" lon="7.15075">
        <ele>438.39999389648</ele>
        <time>2017-07-20T08:54:26Z</time>
      </trkpt>
      <trkpt lat="48.22636" lon="7.15112">
        <ele>437.60000610352</ele>
        <time>2017-07-20T08:54:31Z</time>
      </trkpt>
      <trkpt lat="48.22643" lon="7.15119">
        <ele>437.39999389648</ele>
        <time>2017-07-20T08:54:32Z</time>
      </trkpt>
      <trkpt lat="48.22673" lon="7.15159">
        <ele>436.20001220703</ele>
        <time>2017-07-20T08:54:37Z</time>
      </trkpt>
      <trkpt lat="48.22697" lon="7.15192">
        <ele>435</ele>
        <time>2017-07-20T08:54:41Z</time>
      </trkpt>
      <trkpt lat="48.2272" lon="7.15226">
        <ele>433.79998779297</ele>
        <time>2017-07-20T08:54:45Z</time>
      </trkpt>
      <trkpt lat="48.22739" lon="7.15252">
        <ele>432.60000610352</ele>
        <time>2017-07-20T08:54:48Z</time>
      </trkpt>
      <trkpt lat="48.22764" lon="7.15285">
        <ele>431.60000610352</ele>
        <time>2017-07-20T08:54:52Z</time>
      </trkpt>
      <trkpt lat="48.22801" lon="7.15333">
        <ele>430.39999389648</ele>
        <time>2017-07-20T08:54:58Z</time>
      </trkpt>
      <trkpt lat="48.22832" lon="7.15373">
        <ele>429.20001220703</ele>
        <time>2017-07-20T08:55:03Z</time>
      </trkpt>
      <trkpt lat="48.22861" lon="7.15411">
        <ele>428</ele>
        <time>2017-07-20T08:55:08Z</time>
      </trkpt>
      <trkpt lat="48.22883" lon="7.15443">
        <ele>427</ele>
        <time>2017-07-20T08:55:12Z</time>
      </trkpt>
      <trkpt lat="48.22906" lon="7.15492">
        <ele>425.79998779297</ele>
        <time>2017-07-20T08:55:17Z</time>
      </trkpt>
      <trkpt lat="48.22923" lon="7.15534">
        <ele>424.79998779297</ele>
        <time>2017-07-20T08:55:21Z</time>
      </trkpt>
      <trkpt lat="48.22941" lon="7.15578">
        <ele>423.60000610352</ele>
        <time>2017-07-20T08:55:25Z</time>
      </trkpt>
      <trkpt lat="48.22949" lon="7.15614">
        <ele>422.60000610352</ele>
        <time>2017-07-20T08:55:28Z</time>
      </trkpt>
      <trkpt lat="48.22951" lon="7.15626">
        <ele>422.20001220703</ele>
        <time>2017-07-20T08:55:29Z</time>
      </trkpt>
      <trkpt lat="48.22957" lon="7.15678">
        <ele>421</ele>
        <time>2017-07-20T08:55:34Z</time>
      </trkpt>
      <trkpt lat="48.22959" lon="7.15688">
        <ele>420.79998779297</ele>
        <time>2017-07-20T08:55:35Z</time>
      </trkpt>
      <trkpt lat="48.22965" lon="7.15731">
        <ele>420</ele>
        <time>2017-07-20T08:55:39Z</time>
      </trkpt>
      <trkpt lat="48.22969" lon="7.15753">
        <ele>419.60000610352</ele>
        <time>2017-07-20T08:55:41Z</time>
      </trkpt>
      <trkpt lat="48.22974" lon="7.15788">
        <ele>418.79998779297</ele>
        <time>2017-07-20T08:55:45Z</time>
      </trkpt>
      <trkpt lat="48.22982" lon="7.15836">
        <ele>417.60000610352</ele>
        <time>2017-07-20T08:55:49Z</time>
      </trkpt>
      <trkpt lat="48.22986" lon="7.15862">
        <ele>417</ele>
        <time>2017-07-20T08:55:51Z</time>
      </trkpt>
      <trkpt lat="48.2299" lon="7.15887">
        <ele>416.39999389648</ele>
        <time>2017-07-20T08:55:53Z</time>
      </trkpt>
      <trkpt lat="48.22995" lon="7.15938">
        <ele>415.20001220703</ele>
        <time>2017-07-20T08:55:57Z</time>
      </trkpt>
      <trkpt lat="48.22996" lon="7.1595">
        <ele>415</ele>
        <time>2017-07-20T08:55:58Z</time>
      </trkpt>
      <trkpt lat="48.23003" lon="7.15985">
        <ele>414</ele>
        <time>2017-07-20T08:56:01Z</time>
      </trkpt>
      <trkpt lat="48.23013" lon="7.16004">
        <ele>413.79998779297</ele>
        <time>2017-07-20T08:56:03Z</time>
      </trkpt>
      <trkpt lat="48.2303" lon="7.16027">
        <ele>413.39999389648</ele>
        <time>2017-07-20T08:56:06Z</time>
      </trkpt>
      <trkpt lat="48.23041" lon="7.1604">
        <ele>413.20001220703</ele>
        <time>2017-07-20T08:56:08Z</time>
      </trkpt>
      <trkpt lat="48.23047" lon="7.16047">
        <ele>413</ele>
        <time>2017-07-20T08:56:09Z</time>
      </trkpt>
      <trkpt lat="48.23078" lon="7.1608">
        <ele>412.20001220703</ele>
        <time>2017-07-20T08:56:14Z</time>
      </trkpt>
      <trkpt lat="48.23091" lon="7.16092">
        <ele>412</ele>
        <time>2017-07-20T08:56:16Z</time>
      </trkpt>
      <trkpt lat="48.23106" lon="7.16097">
        <ele>411.60000610352</ele>
        <time>2017-07-20T08:56:18Z</time>
      </trkpt>
      <trkpt lat="48.23138" lon="7.16098">
        <ele>410.79998779297</ele>
        <time>2017-07-20T08:56:22Z</time>
      </trkpt>
      <trkpt lat="48.23155" lon="7.161">
        <ele>410</ele>
        <time>2017-07-20T08:56:24Z</time>
      </trkpt>
      <trkpt lat="48.23163" lon="7.16102">
        <ele>409.79998779297</ele>
        <time>2017-07-20T08:56:25Z</time>
      </trkpt>
      <trkpt lat="48.23186" lon="7.16113">
        <ele>409</ele>
        <time>2017-07-20T08:56:28Z</time>
      </trkpt>
      <trkpt lat="48.23201" lon="7.16119">
        <ele>408.60000610352</ele>
        <time>2017-07-20T08:56:30Z</time>
      </trkpt>
      <trkpt lat="48.23209" lon="7.16121">
        <ele>408.39999389648</ele>
        <time>2017-07-20T08:56:31Z</time>
      </trkpt>
      <trkpt lat="48.23223" lon="7.16125">
        <ele>408</ele>
        <time>2017-07-20T08:56:33Z</time>
      </trkpt>
      <trkpt lat="48.23242" lon="7.16131">
        <ele>407.60000610352</ele>
        <time>2017-07-20T08:56:36Z</time>
      </trkpt>
      <trkpt lat="48.23247" lon="7.16134">
        <ele>407.39999389648</ele>
        <time>2017-07-20T08:56:37Z</time>
      </trkpt>
      <trkpt lat="48.23253" lon="7.16135">
        <ele>407.39999389648</ele>
        <time>2017-07-20T08:56:38Z</time>
      </trkpt>
      <trkpt lat="48.2326" lon="7.1614">
        <ele>407</ele>
        <time>2017-07-20T08:56:41Z</time>
      </trkpt>
      <trkpt lat="48.23273" lon="7.16147">
        <ele>406.39999389648</ele>
        <time>2017-07-20T08:56:46Z</time>
      </trkpt>
      <trkpt lat="48.23294" lon="7.16155">
        <ele>406</ele>
        <time>2017-07-20T08:56:52Z</time>
      </trkpt>
      <trkpt lat="48.23305" lon="7.16163">
        <ele>405.79998779297</ele>
        <time>2017-07-20T08:56:56Z</time>
      </trkpt>
      <trkpt lat="48.23312" lon="7.16167">
        <ele>405.39999389648</ele>
        <time>2017-07-20T08:56:58Z</time>
      </trkpt>
      <trkpt lat="48.23318" lon="7.1617">
        <ele>405.20001220703</ele>
        <time>2017-07-20T08:57:00Z</time>
      </trkpt>
      <trkpt lat="48.23329" lon="7.16176">
        <ele>405</ele>
        <time>2017-07-20T08:57:05Z</time>
      </trkpt>
      <trkpt lat="48.23335" lon="7.1618">
        <ele>404.79998779297</ele>
        <time>2017-07-20T08:57:08Z</time>
      </trkpt>
      <trkpt lat="48.2334" lon="7.16181">
        <ele>404.60000610352</ele>
        <time>2017-07-20T08:57:10Z</time>
      </trkpt>
      <trkpt lat="48.23344" lon="7.16184">
        <ele>404.39999389648</ele>
        <time>2017-07-20T08:57:12Z</time>
      </trkpt>
      <trkpt lat="48.23353" lon="7.16191">
        <ele>404.20001220703</ele>
        <time>2017-07-20T08:57:15Z</time>
      </trkpt>
      <trkpt lat="48.23371" lon="7.16204">
        <ele>404.20001220703</ele>
        <time>2017-07-20T08:57:19Z</time>
      </trkpt>
      <trkpt lat="48.23395" lon="7.16229">
        <ele>403.60000610352</ele>
        <time>2017-07-20T08:57:24Z</time>
      </trkpt>
      <trkpt lat="48.2341" lon="7.16244">
        <ele>403.20001220703</ele>
        <time>2017-07-20T08:57:27Z</time>
      </trkpt>
      <trkpt lat="48.23429" lon="7.16265">
        <ele>403.20001220703</ele>
        <time>2017-07-20T08:57:31Z</time>
      </trkpt>
      <trkpt lat="48.23458" lon="7.16283">
        <ele>403.79998779297</ele>
        <time>2017-07-20T08:57:37Z</time>
      </trkpt>
      <trkpt lat="48.23487" lon="7.16297">
        <ele>404.20001220703</ele>
        <time>2017-07-20T08:57:43Z</time>
      </trkpt>
      <trkpt lat="48.23492" lon="7.16301">
        <ele>404.20001220703</ele>
        <time>2017-07-20T08:57:44Z</time>
      </trkpt>
      <trkpt lat="48.23518" lon="7.16325">
        <ele>404</ele>
        <time>2017-07-20T08:57:49Z</time>
      </trkpt>
      <trkpt lat="48.2354" lon="7.16361">
        <ele>403.20001220703</ele>
        <time>2017-07-20T08:57:54Z</time>
      </trkpt>
      <trkpt lat="48.23551" lon="7.16388">
        <ele>402.79998779297</ele>
        <time>2017-07-20T08:57:57Z</time>
      </trkpt>
      <trkpt lat="48.23556" lon="7.16406">
        <ele>402.60000610352</ele>
        <time>2017-07-20T08:57:59Z</time>
      </trkpt>
      <trkpt lat="48.23559" lon="7.16416">
        <ele>402.20001220703</ele>
        <time>2017-07-20T08:58:00Z</time>
      </trkpt>
      <trkpt lat="48.23568" lon="7.16472">
        <ele>401.20001220703</ele>
        <time>2017-07-20T08:58:05Z</time>
      </trkpt>
      <trkpt lat="48.23575" lon="7.16517">
        <ele>400.20001220703</ele>
        <time>2017-07-20T08:58:09Z</time>
      </trkpt>
      <trkpt lat="48.2358" lon="7.16539">
        <ele>399.60000610352</ele>
        <time>2017-07-20T08:58:11Z</time>
      </trkpt>
      <trkpt lat="48.23584" lon="7.16548">
        <ele>399.39999389648</ele>
        <time>2017-07-20T08:58:12Z</time>
      </trkpt>
      <trkpt lat="48.23587" lon="7.16559">
        <ele>399</ele>
        <time>2017-07-20T08:58:13Z</time>
      </trkpt>
      <trkpt lat="48.23599" lon="7.16601">
        <ele>398</ele>
        <time>2017-07-20T08:58:17Z</time>
      </trkpt>
      <trkpt lat="48.23607" lon="7.16658">
        <ele>397</ele>
        <time>2017-07-20T08:58:22Z</time>
      </trkpt>
      <trkpt lat="48.23612" lon="7.16715">
        <ele>396</ele>
        <time>2017-07-20T08:58:27Z</time>
      </trkpt>
      <trkpt lat="48.23617" lon="7.1676">
        <ele>395.39999389648</ele>
        <time>2017-07-20T08:58:31Z</time>
      </trkpt>
      <trkpt lat="48.23622" lon="7.16781">
        <ele>395</ele>
        <time>2017-07-20T08:58:33Z</time>
      </trkpt>
      <trkpt lat="48.23633" lon="7.16822">
        <ele>394</ele>
        <time>2017-07-20T08:58:37Z</time>
      </trkpt>
      <trkpt lat="48.23637" lon="7.16832">
        <ele>393.79998779297</ele>
        <time>2017-07-20T08:58:38Z</time>
      </trkpt>
      <trkpt lat="48.2366" lon="7.16891">
        <ele>392.79998779297</ele>
        <time>2017-07-20T08:58:44Z</time>
      </trkpt>
      <trkpt lat="48.23683" lon="7.16973">
        <ele>391.79998779297</ele>
        <time>2017-07-20T08:58:52Z</time>
      </trkpt>
      <trkpt lat="48.23697" lon="7.17038">
        <ele>390.60000610352</ele>
        <time>2017-07-20T08:58:58Z</time>
      </trkpt>
      <trkpt lat="48.237" lon="7.17061">
        <ele>390.20001220703</ele>
        <time>2017-07-20T08:59:00Z</time>
      </trkpt>
      <trkpt lat="48.23706" lon="7.17096">
        <ele>389.60000610352</ele>
        <time>2017-07-20T08:59:03Z</time>
      </trkpt>
      <trkpt lat="48.23715" lon="7.17144">
        <ele>388.79998779297</ele>
        <time>2017-07-20T08:59:07Z</time>
      </trkpt>
      <trkpt lat="48.23718" lon="7.17156">
        <ele>388.60000610352</ele>
        <time>2017-07-20T08:59:08Z</time>
      </trkpt>
      <trkpt lat="48.2373" lon="7.17204">
        <ele>387</ele>
        <time>2017-07-20T08:59:12Z</time>
      </trkpt>
      <trkpt lat="48.23734" lon="7.17215">
        <ele>386.79998779297</ele>
        <time>2017-07-20T08:59:13Z</time>
      </trkpt>
      <trkpt lat="48.23752" lon="7.17257">
        <ele>386</ele>
        <time>2017-07-20T08:59:17Z</time>
      </trkpt>
      <trkpt lat="48.23761" lon="7.17276">
        <ele>385.60000610352</ele>
        <time>2017-07-20T08:59:19Z</time>
      </trkpt>
      <trkpt lat="48.23775" lon="7.17304">
        <ele>384.79998779297</ele>
        <time>2017-07-20T08:59:22Z</time>
      </trkpt>
      <trkpt lat="48.23795" lon="7.17351">
        <ele>383.79998779297</ele>
        <time>2017-07-20T08:59:27Z</time>
      </trkpt>
      <trkpt lat="48.23798" lon="7.1736">
        <ele>383.60000610352</ele>
        <time>2017-07-20T08:59:28Z</time>
      </trkpt>
      <trkpt lat="48.23806" lon="7.17394">
        <ele>382.79998779297</ele>
        <time>2017-07-20T08:59:32Z</time>
      </trkpt>
      <trkpt lat="48.2382" lon="7.17412">
        <ele>382</ele>
        <time>2017-07-20T08:59:35Z</time>
      </trkpt>
      <trkpt lat="48.23825" lon="7.1742">
        <ele>381.60000610352</ele>
        <time>2017-07-20T08:59:36Z</time>
      </trkpt>
      <trkpt lat="48.23847" lon="7.1746">
        <ele>381.39999389648</ele>
        <time>2017-07-20T08:59:41Z</time>
      </trkpt>
      <trkpt lat="48.23873" lon="7.17511">
        <ele>380.60000610352</ele>
        <time>2017-07-20T08:59:47Z</time>
      </trkpt>
      <trkpt lat="48.2388" lon="7.1753">
        <ele>380.39999389648</ele>
        <time>2017-07-20T08:59:49Z</time>
      </trkpt>
      <trkpt lat="48.23882" lon="7.17542">
        <ele>380.20001220703</ele>
        <time>2017-07-20T08:59:50Z</time>
      </trkpt>
      <trkpt lat="48.23892" lon="7.17588">
        <ele>379.39999389648</ele>
        <time>2017-07-20T08:59:54Z</time>
      </trkpt>
      <trkpt lat="48.23889" lon="7.17605">
        <ele>379.20001220703</ele>
        <time>2017-07-20T08:59:55Z</time>
      </trkpt>
      <trkpt lat="48.23889" lon="7.17619">
        <ele>379</ele>
        <time>2017-07-20T08:59:56Z</time>
      </trkpt>
      <trkpt lat="48.23891" lon="7.17647">
        <ele>378.20001220703</ele>
        <time>2017-07-20T08:59:58Z</time>
      </trkpt>
      <trkpt lat="48.23895" lon="7.17674">
        <ele>377</ele>
        <time>2017-07-20T09:00:00Z</time>
      </trkpt>
      <trkpt lat="48.239" lon="7.17698">
        <ele>376.39999389648</ele>
        <time>2017-07-20T09:00:02Z</time>
      </trkpt>
      <trkpt lat="48.23905" lon="7.17708">
        <ele>376</ele>
        <time>2017-07-20T09:00:03Z</time>
      </trkpt>
      <trkpt lat="48.23918" lon="7.17723">
        <ele>375.39999389648</ele>
        <time>2017-07-20T09:00:05Z</time>
      </trkpt>
      <trkpt lat="48.23932" lon="7.17739">
        <ele>374.79998779297</ele>
        <time>2017-07-20T09:00:07Z</time>
      </trkpt>
      <trkpt lat="48.23965" lon="7.17775">
        <ele>373.60000610352</ele>
        <time>2017-07-20T09:00:12Z</time>
      </trkpt>
      <trkpt lat="48.24007" lon="7.1781">
        <ele>373</ele>
        <time>2017-07-20T09:00:18Z</time>
      </trkpt>
      <trkpt lat="48.2402" lon="7.17824">
        <ele>372.79998779297</ele>
        <time>2017-07-20T09:00:20Z</time>
      </trkpt>
      <trkpt lat="48.24034" lon="7.17838">
        <ele>372.39999389648</ele>
        <time>2017-07-20T09:00:22Z</time>
      </trkpt>
      <trkpt lat="48.2404" lon="7.17845">
        <ele>372.39999389648</ele>
        <time>2017-07-20T09:00:23Z</time>
      </trkpt>
      <trkpt lat="48.24066" lon="7.17875">
        <ele>371.39999389648</ele>
        <time>2017-07-20T09:00:27Z</time>
      </trkpt>
      <trkpt lat="48.24085" lon="7.17897">
        <ele>370.79998779297</ele>
        <time>2017-07-20T09:00:30Z</time>
      </trkpt>
      <trkpt lat="48.24097" lon="7.17911">
        <ele>370.20001220703</ele>
        <time>2017-07-20T09:00:32Z</time>
      </trkpt>
      <trkpt lat="48.24114" lon="7.17933">
        <ele>369.79998779297</ele>
        <time>2017-07-20T09:00:35Z</time>
      </trkpt>
      <trkpt lat="48.24124" lon="7.17947">
        <ele>369.39999389648</ele>
        <time>2017-07-20T09:00:38Z</time>
      </trkpt>
      <trkpt lat="48.24126" lon="7.17949">
        <ele>369.20001220703</ele>
        <time>2017-07-20T09:00:39Z</time>
      </trkpt>
      <trkpt lat="48.24129" lon="7.17952">
        <ele>368</ele>
        <time>2017-07-20T09:00:49Z</time>
      </trkpt>
      <trkpt lat="48.24143" lon="7.17966">
        <ele>367.79998779297</ele>
        <time>2017-07-20T09:00:55Z</time>
      </trkpt>
      <trkpt lat="48.24165" lon="7.1798">
        <ele>367.79998779297</ele>
        <time>2017-07-20T09:01:01Z</time>
      </trkpt>
      <trkpt lat="48.24183" lon="7.1799">
        <ele>367.60000610352</ele>
        <time>2017-07-20T09:01:05Z</time>
      </trkpt>
      <trkpt lat="48.24189" lon="7.1799">
        <ele>367.39999389648</ele>
        <time>2017-07-20T09:01:06Z</time>
      </trkpt>
      <trkpt lat="48.24224" lon="7.17997">
        <ele>367.20001220703</ele>
        <time>2017-07-20T09:01:12Z</time>
      </trkpt>
      <trkpt lat="48.2423" lon="7.17996">
        <ele>367</ele>
        <time>2017-07-20T09:01:13Z</time>
      </trkpt>
      <trkpt lat="48.2425" lon="7.17991">
        <ele>367</ele>
        <time>2017-07-20T09:01:16Z</time>
      </trkpt>
      <trkpt lat="48.24256" lon="7.1799">
        <ele>366.79998779297</ele>
        <time>2017-07-20T09:01:17Z</time>
      </trkpt>
      <trkpt lat="48.24274" lon="7.17987">
        <ele>366.60000610352</ele>
        <time>2017-07-20T09:01:20Z</time>
      </trkpt>
      <trkpt lat="48.24285" lon="7.17987">
        <ele>366.60000610352</ele>
        <time>2017-07-20T09:01:22Z</time>
      </trkpt>
      <trkpt lat="48.24312" lon="7.17988">
        <ele>367</ele>
        <time>2017-07-20T09:01:27Z</time>
      </trkpt>
      <trkpt lat="48.24346" lon="7.18">
        <ele>367.39999389648</ele>
        <time>2017-07-20T09:01:34Z</time>
      </trkpt>
      <trkpt lat="48.2437" lon="7.18014">
        <ele>367.39999389648</ele>
        <time>2017-07-20T09:01:40Z</time>
      </trkpt>
      <trkpt lat="48.24383" lon="7.18024">
        <ele>367</ele>
        <time>2017-07-20T09:01:47Z</time>
      </trkpt>
      <trkpt lat="48.24385" lon="7.18031">
        <ele>366.79998779297</ele>
        <time>2017-07-20T09:01:50Z</time>
      </trkpt>
      <trkpt lat="48.24384" lon="7.18036">
        <ele>366.79998779297</ele>
        <time>2017-07-20T09:01:52Z</time>
      </trkpt>
      <trkpt lat="48.24381" lon="7.18043">
        <ele>366.79998779297</ele>
        <time>2017-07-20T09:06:54Z</time>
      </trkpt>
      <trkpt lat="48.24381" lon="7.18045">
        <ele>366.79998779297</ele>
        <time>2017-07-20T09:06:55Z</time>
      </trkpt>
      <trkpt lat="48.24379" lon="7.18063">
        <ele>366.79998779297</ele>
        <time>2017-07-20T09:06:59Z</time>
      </trkpt>
      <trkpt lat="48.24368" lon="7.18106">
        <ele>366.20001220703</ele>
        <time>2017-07-20T09:07:07Z</time>
      </trkpt>
      <trkpt lat="48.24358" lon="7.18145">
        <ele>366</ele>
        <time>2017-07-20T09:07:13Z</time>
      </trkpt>
      <trkpt lat="48.24355" lon="7.18159">
        <ele>365.60000610352</ele>
        <time>2017-07-20T09:07:15Z</time>
      </trkpt>
      <trkpt lat="48.24348" lon="7.18187">
        <ele>364.79998779297</ele>
        <time>2017-07-20T09:07:19Z</time>
      </trkpt>
      <trkpt lat="48.24343" lon="7.18214">
        <ele>364.20001220703</ele>
        <time>2017-07-20T09:07:23Z</time>
      </trkpt>
      <trkpt lat="48.24348" lon="7.18223">
        <ele>363.79998779297</ele>
        <time>2017-07-20T09:07:25Z</time>
      </trkpt>
      <trkpt lat="48.24352" lon="7.18226">
        <ele>363.60000610352</ele>
        <time>2017-07-20T09:07:26Z</time>
      </trkpt>
      <trkpt lat="48.2436" lon="7.18231">
        <ele>363.20001220703</ele>
        <time>2017-07-20T09:07:28Z</time>
      </trkpt>
      <trkpt lat="48.24368" lon="7.18236">
        <ele>362.79998779297</ele>
        <time>2017-07-20T09:07:30Z</time>
      </trkpt>
      <trkpt lat="48.24373" lon="7.18239">
        <ele>362.60000610352</ele>
        <time>2017-07-20T09:07:31Z</time>
      </trkpt>
      <trkpt lat="48.24408" lon="7.18263">
        <ele>361.79998779297</ele>
        <time>2017-07-20T09:07:38Z</time>
      </trkpt>
      <trkpt lat="48.24414" lon="7.18267">
        <ele>361.79998779297</ele>
        <time>2017-07-20T09:07:39Z</time>
      </trkpt>
      <trkpt lat="48.24445" lon="7.18289">
        <ele>361.20001220703</ele>
        <time>2017-07-20T09:07:45Z</time>
      </trkpt>
      <trkpt lat="48.2447" lon="7.18307">
        <ele>361</ele>
        <time>2017-07-20T09:07:51Z</time>
      </trkpt>
      <trkpt lat="48.24501" lon="7.18332">
        <ele>360.79998779297</ele>
        <time>2017-07-20T09:07:58Z</time>
      </trkpt>
      <trkpt lat="48.24505" lon="7.18336">
        <ele>360.79998779297</ele>
        <time>2017-07-20T09:07:59Z</time>
      </trkpt>
      <trkpt lat="48.24516" lon="7.18347">
        <ele>360.79998779297</ele>
        <time>2017-07-20T09:08:02Z</time>
      </trkpt>
      <trkpt lat="48.24524" lon="7.18356">
        <ele>360.60000610352</ele>
        <time>2017-07-20T09:08:04Z</time>
      </trkpt>
      <trkpt lat="48.24535" lon="7.18371">
        <ele>360.39999389648</ele>
        <time>2017-07-20T09:08:07Z</time>
      </trkpt>
      <trkpt lat="48.24539" lon="7.18383">
        <ele>360.39999389648</ele>
        <time>2017-07-20T09:08:09Z</time>
      </trkpt>
      <trkpt lat="48.2454" lon="7.18398">
        <ele>360.20001220703</ele>
        <time>2017-07-20T09:08:11Z</time>
      </trkpt>
      <trkpt lat="48.2454" lon="7.18406">
        <ele>360.20001220703</ele>
        <time>2017-07-20T09:08:12Z</time>
      </trkpt>
      <trkpt lat="48.24543" lon="7.18435">
        <ele>360.39999389648</ele>
        <time>2017-07-20T09:08:16Z</time>
      </trkpt>
      <trkpt lat="48.2455" lon="7.18446">
        <ele>360.39999389648</ele>
        <time>2017-07-20T09:08:18Z</time>
      </trkpt>
      <trkpt lat="48.24556" lon="7.18454">
        <ele>360.60000610352</ele>
        <time>2017-07-20T09:08:20Z</time>
      </trkpt>
      <trkpt lat="48.24567" lon="7.1846">
        <ele>360.39999389648</ele>
        <time>2017-07-20T09:08:22Z</time>
      </trkpt>
      <trkpt lat="48.24573" lon="7.18462">
        <ele>360.39999389648</ele>
        <time>2017-07-20T09:08:23Z</time>
      </trkpt>
      <trkpt lat="48.2458" lon="7.18466">
        <ele>360.20001220703</ele>
        <time>2017-07-20T09:08:24Z</time>
      </trkpt>
      <trkpt lat="48.24597" lon="7.18484">
        <ele>359.60000610352</ele>
        <time>2017-07-20T09:08:27Z</time>
      </trkpt>
      <trkpt lat="48.24607" lon="7.18498">
        <ele>359.20001220703</ele>
        <time>2017-07-20T09:08:29Z</time>
      </trkpt>
      <trkpt lat="48.24617" lon="7.18512">
        <ele>358.79998779297</ele>
        <time>2017-07-20T09:08:31Z</time>
      </trkpt>
      <trkpt lat="48.24622" lon="7.18518">
        <ele>358.60000610352</ele>
        <time>2017-07-20T09:08:32Z</time>
      </trkpt>
      <trkpt lat="48.24643" lon="7.18543">
        <ele>357.79998779297</ele>
        <time>2017-07-20T09:08:36Z</time>
      </trkpt>
      <trkpt lat="48.24648" lon="7.18547">
        <ele>357.60000610352</ele>
        <time>2017-07-20T09:08:37Z</time>
      </trkpt>
      <trkpt lat="48.24652" lon="7.1855">
        <ele>357.39999389648</ele>
        <time>2017-07-20T09:08:38Z</time>
      </trkpt>
      <trkpt lat="48.24658" lon="7.18551">
        <ele>357</ele>
        <time>2017-07-20T09:08:40Z</time>
      </trkpt>
      <trkpt lat="48.24668" lon="7.18545">
        <ele>356.39999389648</ele>
        <time>2017-07-20T09:08:43Z</time>
      </trkpt>
      <trkpt lat="48.24675" lon="7.18541">
        <ele>356</ele>
        <time>2017-07-20T09:08:45Z</time>
      </trkpt>
      <trkpt lat="48.2469" lon="7.18534">
        <ele>355.60000610352</ele>
        <time>2017-07-20T09:08:51Z</time>
      </trkpt>
      <trkpt lat="48.24691" lon="7.18528">
        <ele>355.20001220703</ele>
        <time>2017-07-20T09:09:06Z</time>
      </trkpt>
      <trkpt lat="48.2469" lon="7.18525">
        <ele>355.20001220703</ele>
        <time>2017-07-20T09:09:07Z</time>
      </trkpt>
      <trkpt lat="48.24681" lon="7.18508">
        <ele>355.39999389648</ele>
        <time>2017-07-20T09:09:12Z</time>
      </trkpt>
      <trkpt lat="48.24671" lon="7.18477">
        <ele>356</ele>
        <time>2017-07-20T09:09:18Z</time>
      </trkpt>
      <trkpt lat="48.24665" lon="7.18463">
        <ele>356.20001220703</ele>
        <time>2017-07-20T09:09:21Z</time>
      </trkpt>
      <trkpt lat="48.24654" lon="7.18438">
        <ele>356.60000610352</ele>
        <time>2017-07-20T09:09:26Z</time>
      </trkpt>
      <trkpt lat="48.24644" lon="7.18415">
        <ele>357.20001220703</ele>
        <time>2017-07-20T09:09:31Z</time>
      </trkpt>
      <trkpt lat="48.24639" lon="7.18406">
        <ele>357.39999389648</ele>
        <time>2017-07-20T09:09:33Z</time>
      </trkpt>
      <trkpt lat="48.24617" lon="7.18374">
        <ele>358.20001220703</ele>
        <time>2017-07-20T09:09:41Z</time>
      </trkpt>
      <trkpt lat="48.24613" lon="7.18366">
        <ele>358.39999389648</ele>
        <time>2017-07-20T09:09:43Z</time>
      </trkpt>
      <trkpt lat="48.24602" lon="7.18344">
        <ele>358.60000610352</ele>
        <time>2017-07-20T09:09:48Z</time>
      </trkpt>
      <trkpt lat="48.24591" lon="7.18309">
        <ele>359.20001220703</ele>
        <time>2017-07-20T09:09:55Z</time>
      </trkpt>
      <trkpt lat="48.24591" lon="7.18306">
        <ele>359.39999389648</ele>
        <time>2017-07-20T09:09:56Z</time>
      </trkpt>
      <trkpt lat="48.2459" lon="7.18305">
        <ele>359.39999389648</ele>
        <time>2017-07-20T09:09:57Z</time>
      </trkpt>
      <trkpt lat="48.24589" lon="7.18303">
        <ele>359.39999389648</ele>
        <time>2017-07-20T09:09:58Z</time>
      </trkpt>
      <trkpt lat="48.24588" lon="7.18302">
        <ele>359.60000610352</ele>
        <time>2017-07-20T09:10:16Z</time>
      </trkpt>
      <trkpt lat="48.24585" lon="7.18296">
        <ele>359.60000610352</ele>
        <time>2017-07-20T09:10:18Z</time>
      </trkpt>
      <trkpt lat="48.24581" lon="7.18277">
        <ele>359.79998779297</ele>
        <time>2017-07-20T09:10:23Z</time>
      </trkpt>
      <trkpt lat="48.24581" lon="7.18273">
        <ele>359.79998779297</ele>
        <time>2017-07-20T09:10:24Z</time>
      </trkpt>
      <trkpt lat="48.2458" lon="7.18267">
        <ele>360.39999389648</ele>
        <time>2017-07-20T09:10:27Z</time>
      </trkpt>
      <trkpt lat="48.24578" lon="7.18267">
        <ele>360.60000610352</ele>
        <time>2017-07-20T09:10:29Z</time>
      </trkpt>
      <trkpt lat="48.24576" lon="7.18268">
        <ele>360.60000610352</ele>
        <time>2017-07-20T09:10:32Z</time>
      </trkpt>
      <trkpt lat="48.24581" lon="7.18274">
        <ele>360.79998779297</ele>
        <time>2017-07-20T09:10:36Z</time>
      </trkpt>
      <trkpt lat="48.24588" lon="7.18287">
        <ele>360.79998779297</ele>
        <time>2017-07-20T09:10:41Z</time>
      </trkpt>
      <trkpt lat="48.24595" lon="7.18299">
        <ele>360.60000610352</ele>
        <time>2017-07-20T09:10:44Z</time>
      </trkpt>
      <trkpt lat="48.24598" lon="7.18303">
        <ele>360.39999389648</ele>
        <time>2017-07-20T09:10:46Z</time>
      </trkpt>
      <trkpt lat="48.24602" lon="7.18312">
        <ele>359.79998779297</ele>
        <time>2017-07-20T09:10:51Z</time>
      </trkpt>
      <trkpt lat="48.24609" lon="7.1833">
        <ele>359.60000610352</ele>
        <time>2017-07-20T09:10:55Z</time>
      </trkpt>
      <trkpt lat="48.24613" lon="7.18337">
        <ele>359.39999389648</ele>
        <time>2017-07-20T09:10:57Z</time>
      </trkpt>
      <trkpt lat="48.24623" lon="7.18358">
        <ele>359</ele>
        <time>2017-07-20T09:11:02Z</time>
      </trkpt>
      <trkpt lat="48.2463" lon="7.18379">
        <ele>358.60000610352</ele>
        <time>2017-07-20T09:11:07Z</time>
      </trkpt>
      <trkpt lat="48.24627" lon="7.18381">
        <ele>358.39999389648</ele>
        <time>2017-07-20T09:11:15Z</time>
      </trkpt>
      <trkpt lat="48.2461" lon="7.18394">
        <ele>358.60000610352</ele>
        <time>2017-07-20T09:11:19Z</time>
      </trkpt>
      <trkpt lat="48.24596" lon="7.18407">
        <ele>358.79998779297</ele>
        <time>2017-07-20T09:11:22Z</time>
      </trkpt>
      <trkpt lat="48.24589" lon="7.18415">
        <ele>359</ele>
        <time>2017-07-20T09:11:24Z</time>
      </trkpt>
      <trkpt lat="48.2458" lon="7.18433">
        <ele>359</ele>
        <time>2017-07-20T09:11:27Z</time>
      </trkpt>
      <trkpt lat="48.24577" lon="7.18446">
        <ele>359</ele>
        <time>2017-07-20T09:11:29Z</time>
      </trkpt>
      <trkpt lat="48.24584" lon="7.18462">
        <ele>359.20001220703</ele>
        <time>2017-07-20T09:11:32Z</time>
      </trkpt>
      <trkpt lat="48.24602" lon="7.1849">
        <ele>359.20001220703</ele>
        <time>2017-07-20T09:11:37Z</time>
      </trkpt>
      <trkpt lat="48.24611" lon="7.18502">
        <ele>359</ele>
        <time>2017-07-20T09:11:39Z</time>
      </trkpt>
      <trkpt lat="48.24628" lon="7.18525">
        <ele>358.60000610352</ele>
        <time>2017-07-20T09:11:43Z</time>
      </trkpt>
      <trkpt lat="48.24646" lon="7.18546">
        <ele>358.20001220703</ele>
        <time>2017-07-20T09:11:47Z</time>
      </trkpt>
      <trkpt lat="48.24656" lon="7.18553">
        <ele>357.60000610352</ele>
        <time>2017-07-20T09:11:49Z</time>
      </trkpt>
      <trkpt lat="48.24665" lon="7.18563">
        <ele>357.20001220703</ele>
        <time>2017-07-20T09:11:51Z</time>
      </trkpt>
      <trkpt lat="48.24671" lon="7.18577">
        <ele>357</ele>
        <time>2017-07-20T09:11:53Z</time>
      </trkpt>
      <trkpt lat="48.24687" lon="7.18619">
        <ele>356.20001220703</ele>
        <time>2017-07-20T09:11:58Z</time>
      </trkpt>
      <trkpt lat="48.24691" lon="7.18627">
        <ele>356</ele>
        <time>2017-07-20T09:11:59Z</time>
      </trkpt>
      <trkpt lat="48.24718" lon="7.18675">
        <ele>355.20001220703</ele>
        <time>2017-07-20T09:12:05Z</time>
      </trkpt>
      <trkpt lat="48.24728" lon="7.1869">
        <ele>355</ele>
        <time>2017-07-20T09:12:07Z</time>
      </trkpt>
      <trkpt lat="48.24766" lon="7.18749">
        <ele>354.20001220703</ele>
        <time>2017-07-20T09:12:15Z</time>
      </trkpt>
      <trkpt lat="48.24771" lon="7.18757">
        <ele>354</ele>
        <time>2017-07-20T09:12:16Z</time>
      </trkpt>
      <trkpt lat="48.24803" lon="7.18814">
        <ele>353.20001220703</ele>
        <time>2017-07-20T09:12:23Z</time>
      </trkpt>
      <trkpt lat="48.24813" lon="7.18829">
        <ele>353</ele>
        <time>2017-07-20T09:12:25Z</time>
      </trkpt>
      <trkpt lat="48.24825" lon="7.18854">
        <ele>352.79998779297</ele>
        <time>2017-07-20T09:12:28Z</time>
      </trkpt>
      <trkpt lat="48.2485" lon="7.1891">
        <ele>352</ele>
        <time>2017-07-20T09:12:35Z</time>
      </trkpt>
      <trkpt lat="48.24852" lon="7.18918">
        <ele>352</ele>
        <time>2017-07-20T09:12:36Z</time>
      </trkpt>
      <trkpt lat="48.24862" lon="7.18945">
        <ele>351.79998779297</ele>
        <time>2017-07-20T09:12:40Z</time>
      </trkpt>
      <trkpt lat="48.24865" lon="7.18959">
        <ele>351.39999389648</ele>
        <time>2017-07-20T09:12:44Z</time>
      </trkpt>
      <trkpt lat="48.24864" lon="7.18967">
        <ele>351.20001220703</ele>
        <time>2017-07-20T09:12:47Z</time>
      </trkpt>
      <trkpt lat="48.24861" lon="7.18965">
        <ele>351.20001220703</ele>
        <time>2017-07-20T09:12:49Z</time>
      </trkpt>
      <trkpt lat="48.24858" lon="7.18959">
        <ele>351.39999389648</ele>
        <time>2017-07-20T09:12:51Z</time>
      </trkpt>
      <trkpt lat="48.24852" lon="7.18949">
        <ele>351.60000610352</ele>
        <time>2017-07-20T09:12:55Z</time>
      </trkpt>
      <trkpt lat="48.24846" lon="7.18943">
        <ele>351.79998779297</ele>
        <time>2017-07-20T09:12:59Z</time>
      </trkpt>
      <trkpt lat="48.24846" lon="7.18944">
        <ele>351.79998779297</ele>
        <time>2017-07-20T09:13:00Z</time>
      </trkpt>
      <trkpt lat="48.2512" lon="7.19776">
        <ele>354.39999389648</ele>
        <time>2017-07-20T09:28:51Z</time>
      </trkpt>
      <trkpt lat="48.25103" lon="7.19785">
        <ele>355.60000610352</ele>
        <time>2017-07-20T09:28:57Z</time>
      </trkpt>
      <trkpt lat="48.25095" lon="7.19789">
        <ele>356</ele>
        <time>2017-07-20T09:29:00Z</time>
      </trkpt>
      <trkpt lat="48.25081" lon="7.19796">
        <ele>356.79998779297</ele>
        <time>2017-07-20T09:29:05Z</time>
      </trkpt>
      <trkpt lat="48.25075" lon="7.198">
        <ele>357.20001220703</ele>
        <time>2017-07-20T09:29:07Z</time>
      </trkpt>
      <trkpt lat="48.25059" lon="7.19807">
        <ele>358</ele>
        <time>2017-07-20T09:29:13Z</time>
      </trkpt>
      <trkpt lat="48.25037" lon="7.19824">
        <ele>359</ele>
        <time>2017-07-20T09:29:21Z</time>
      </trkpt>
      <trkpt lat="48.25019" lon="7.19839">
        <ele>359.79998779297</ele>
        <time>2017-07-20T09:29:28Z</time>
      </trkpt>
      <trkpt lat="48.25014" lon="7.19843">
        <ele>360</ele>
        <time>2017-07-20T09:29:30Z</time>
      </trkpt>
      <trkpt lat="48.25002" lon="7.19856">
        <ele>360.39999389648</ele>
        <time>2017-07-20T09:29:35Z</time>
      </trkpt>
      <trkpt lat="48.24986" lon="7.19868">
        <ele>361.20001220703</ele>
        <time>2017-07-20T09:29:41Z</time>
      </trkpt>
      <trkpt lat="48.24983" lon="7.1987">
        <ele>361.20001220703</ele>
        <time>2017-07-20T09:29:42Z</time>
      </trkpt>
      <trkpt lat="48.24966" lon="7.19882">
        <ele>362.20001220703</ele>
        <time>2017-07-20T09:29:48Z</time>
      </trkpt>
      <trkpt lat="48.24951" lon="7.19893">
        <ele>363</ele>
        <time>2017-07-20T09:29:54Z</time>
      </trkpt>
      <trkpt lat="48.24943" lon="7.19898">
        <ele>363.39999389648</ele>
        <time>2017-07-20T09:29:57Z</time>
      </trkpt>
      <trkpt lat="48.24932" lon="7.19907">
        <ele>363.79998779297</ele>
        <time>2017-07-20T09:30:01Z</time>
      </trkpt>
      <trkpt lat="48.24924" lon="7.19914">
        <ele>364.60000610352</ele>
        <time>2017-07-20T09:30:04Z</time>
      </trkpt>
      <trkpt lat="48.24914" lon="7.19921">
        <ele>365.20001220703</ele>
        <time>2017-07-20T09:30:08Z</time>
      </trkpt>
      <trkpt lat="48.24906" lon="7.19927">
        <ele>365.60000610352</ele>
        <time>2017-07-20T09:30:11Z</time>
      </trkpt>
      <trkpt lat="48.24891" lon="7.19936">
        <ele>366.39999389648</ele>
        <time>2017-07-20T09:30:17Z</time>
      </trkpt>
      <trkpt lat="48.24888" lon="7.19938">
        <ele>366.60000610352</ele>
        <time>2017-07-20T09:30:18Z</time>
      </trkpt>
      <trkpt lat="48.24878" lon="7.19943">
        <ele>367.39999389648</ele>
        <time>2017-07-20T09:30:23Z</time>
      </trkpt>
      <trkpt lat="48.24873" lon="7.19944">
        <ele>367.60000610352</ele>
        <time>2017-07-20T09:30:25Z</time>
      </trkpt>
      <trkpt lat="48.24864" lon="7.19945">
        <ele>368.39999389648</ele>
        <time>2017-07-20T09:30:29Z</time>
      </trkpt>
      <trkpt lat="48.2486" lon="7.19946">
        <ele>368.60000610352</ele>
        <time>2017-07-20T09:30:31Z</time>
      </trkpt>
      <trkpt lat="48.24851" lon="7.19947">
        <ele>369.39999389648</ele>
        <time>2017-07-20T09:30:35Z</time>
      </trkpt>
      <trkpt lat="48.24845" lon="7.19947">
        <ele>369.79998779297</ele>
        <time>2017-07-20T09:30:38Z</time>
      </trkpt>
      <trkpt lat="48.24835" lon="7.19948">
        <ele>370.39999389648</ele>
        <time>2017-07-20T09:30:42Z</time>
      </trkpt>
      <trkpt lat="48.24826" lon="7.19952">
        <ele>371</ele>
        <time>2017-07-20T09:30:46Z</time>
      </trkpt>
      <trkpt lat="48.2482" lon="7.19953">
        <ele>371.39999389648</ele>
        <time>2017-07-20T09:30:49Z</time>
      </trkpt>
      <trkpt lat="48.24811" lon="7.19954">
        <ele>372</ele>
        <time>2017-07-20T09:30:53Z</time>
      </trkpt>
      <trkpt lat="48.24803" lon="7.19955">
        <ele>372.79998779297</ele>
        <time>2017-07-20T09:30:57Z</time>
      </trkpt>
      <trkpt lat="48.24798" lon="7.19955">
        <ele>373.20001220703</ele>
        <time>2017-07-20T09:30:59Z</time>
      </trkpt>
      <trkpt lat="48.24785" lon="7.19956">
        <ele>374.20001220703</ele>
        <time>2017-07-20T09:31:05Z</time>
      </trkpt>
      <trkpt lat="48.24781" lon="7.19956">
        <ele>374.39999389648</ele>
        <time>2017-07-20T09:31:07Z</time>
      </trkpt>
      <trkpt lat="48.24768" lon="7.19955">
        <ele>375.20001220703</ele>
        <time>2017-07-20T09:31:12Z</time>
      </trkpt>
      <trkpt lat="48.24765" lon="7.19955">
        <ele>375.39999389648</ele>
        <time>2017-07-20T09:31:13Z</time>
      </trkpt>
      <trkpt lat="48.24753" lon="7.19955">
        <ele>376.39999389648</ele>
        <time>2017-07-20T09:31:18Z</time>
      </trkpt>
      <trkpt lat="48.24751" lon="7.19954">
        <ele>376.60000610352</ele>
        <time>2017-07-20T09:31:19Z</time>
      </trkpt>
      <trkpt lat="48.24735" lon="7.19951">
        <ele>377.39999389648</ele>
        <time>2017-07-20T09:31:26Z</time>
      </trkpt>
      <trkpt lat="48.24716" lon="7.19945">
        <ele>378.39999389648</ele>
        <time>2017-07-20T09:31:34Z</time>
      </trkpt>
      <trkpt lat="48.24707" lon="7.19945">
        <ele>379</ele>
        <time>2017-07-20T09:31:38Z</time>
      </trkpt>
      <trkpt lat="48.24704" lon="7.19943">
        <ele>379</ele>
        <time>2017-07-20T09:31:39Z</time>
      </trkpt>
      <trkpt lat="48.24691" lon="7.19936">
        <ele>379.60000610352</ele>
        <time>2017-07-20T09:31:44Z</time>
      </trkpt>
      <trkpt lat="48.24688" lon="7.19934">
        <ele>379.60000610352</ele>
        <time>2017-07-20T09:31:45Z</time>
      </trkpt>
      <trkpt lat="48.24668" lon="7.19927">
        <ele>380</ele>
        <time>2017-07-20T09:31:52Z</time>
      </trkpt>
      <trkpt lat="48.24651" lon="7.19921">
        <ele>380.60000610352</ele>
        <time>2017-07-20T09:31:58Z</time>
      </trkpt>
      <trkpt lat="48.24648" lon="7.1992">
        <ele>380.79998779297</ele>
        <time>2017-07-20T09:31:59Z</time>
      </trkpt>
      <trkpt lat="48.24632" lon="7.19914">
        <ele>381.60000610352</ele>
        <time>2017-07-20T09:32:05Z</time>
      </trkpt>
      <trkpt lat="48.24611" lon="7.19908">
        <ele>382.60000610352</ele>
        <time>2017-07-20T09:32:13Z</time>
      </trkpt>
      <trkpt lat="48.24608" lon="7.19908">
        <ele>382.79998779297</ele>
        <time>2017-07-20T09:32:14Z</time>
      </trkpt>
      <trkpt lat="48.24594" lon="7.19906">
        <ele>383.79998779297</ele>
        <time>2017-07-20T09:32:20Z</time>
      </trkpt>
      <trkpt lat="48.24591" lon="7.19906">
        <ele>384</ele>
        <time>2017-07-20T09:32:21Z</time>
      </trkpt>
      <trkpt lat="48.24579" lon="7.19905">
        <ele>385</ele>
        <time>2017-07-20T09:32:26Z</time>
      </trkpt>
      <trkpt lat="48.24572" lon="7.19906">
        <ele>385.60000610352</ele>
        <time>2017-07-20T09:32:29Z</time>
      </trkpt>
      <trkpt lat="48.24565" lon="7.19905">
        <ele>386</ele>
        <time>2017-07-20T09:32:32Z</time>
      </trkpt>
      <trkpt lat="48.24558" lon="7.19904">
        <ele>386.39999389648</ele>
        <time>2017-07-20T09:32:35Z</time>
      </trkpt>
      <trkpt lat="48.2455" lon="7.19904">
        <ele>387.20001220703</ele>
        <time>2017-07-20T09:32:39Z</time>
      </trkpt>
      <trkpt lat="48.24546" lon="7.19904">
        <ele>387.39999389648</ele>
        <time>2017-07-20T09:32:41Z</time>
      </trkpt>
      <trkpt lat="48.24533" lon="7.19905">
        <ele>388.20001220703</ele>
        <time>2017-07-20T09:32:47Z</time>
      </trkpt>
      <trkpt lat="48.24529" lon="7.19905">
        <ele>388.60000610352</ele>
        <time>2017-07-20T09:32:49Z</time>
      </trkpt>
      <trkpt lat="48.2452" lon="7.19905">
        <ele>389.39999389648</ele>
        <time>2017-07-20T09:32:53Z</time>
      </trkpt>
      <trkpt lat="48.24513" lon="7.19904">
        <ele>389.79998779297</ele>
        <time>2017-07-20T09:32:56Z</time>
      </trkpt>
      <trkpt lat="48.24503" lon="7.19905">
        <ele>390.39999389648</ele>
        <time>2017-07-20T09:33:01Z</time>
      </trkpt>
      <trkpt lat="48.24495" lon="7.19903">
        <ele>391</ele>
        <time>2017-07-20T09:33:05Z</time>
      </trkpt>
      <trkpt lat="48.24488" lon="7.19902">
        <ele>391.60000610352</ele>
        <time>2017-07-20T09:33:08Z</time>
      </trkpt>
      <trkpt lat="48.24479" lon="7.19901">
        <ele>392.20001220703</ele>
        <time>2017-07-20T09:33:12Z</time>
      </trkpt>
      <trkpt lat="48.2447" lon="7.199">
        <ele>393</ele>
        <time>2017-07-20T09:33:16Z</time>
      </trkpt>
      <trkpt lat="48.24462" lon="7.19897">
        <ele>393.20001220703</ele>
        <time>2017-07-20T09:33:19Z</time>
      </trkpt>
      <trkpt lat="48.24445" lon="7.19886">
        <ele>394</ele>
        <time>2017-07-20T09:33:27Z</time>
      </trkpt>
      <trkpt lat="48.24435" lon="7.19874">
        <ele>394.60000610352</ele>
        <time>2017-07-20T09:33:34Z</time>
      </trkpt>
      <trkpt lat="48.24431" lon="7.19874">
        <ele>394.79998779297</ele>
        <time>2017-07-20T09:34:02Z</time>
      </trkpt>
      <trkpt lat="48.24429" lon="7.19875">
        <ele>394.79998779297</ele>
        <time>2017-07-20T09:34:03Z</time>
      </trkpt>
      <trkpt lat="48.24426" lon="7.19872">
        <ele>395</ele>
        <time>2017-07-20T09:34:05Z</time>
      </trkpt>
      <trkpt lat="48.24421" lon="7.19871">
        <ele>395.20001220703</ele>
        <time>2017-07-20T09:34:07Z</time>
      </trkpt>
      <trkpt lat="48.24405" lon="7.19866">
        <ele>396.20001220703</ele>
        <time>2017-07-20T09:34:14Z</time>
      </trkpt>
      <trkpt lat="48.24403" lon="7.19866">
        <ele>396.39999389648</ele>
        <time>2017-07-20T09:34:15Z</time>
      </trkpt>
      <trkpt lat="48.2439" lon="7.19861">
        <ele>397.20001220703</ele>
        <time>2017-07-20T09:34:21Z</time>
      </trkpt>
      <trkpt lat="48.24379" lon="7.19856">
        <ele>398.39999389648</ele>
        <time>2017-07-20T09:34:26Z</time>
      </trkpt>
      <trkpt lat="48.24377" lon="7.19855">
        <ele>398.60000610352</ele>
        <time>2017-07-20T09:34:27Z</time>
      </trkpt>
      <trkpt lat="48.24368" lon="7.19853">
        <ele>399.39999389648</ele>
        <time>2017-07-20T09:34:31Z</time>
      </trkpt>
      <trkpt lat="48.24363" lon="7.1985">
        <ele>400</ele>
        <time>2017-07-20T09:34:34Z</time>
      </trkpt>
      <trkpt lat="48.24359" lon="7.19848">
        <ele>400.39999389648</ele>
        <time>2017-07-20T09:34:37Z</time>
      </trkpt>
      <trkpt lat="48.24351" lon="7.19845">
        <ele>401.20001220703</ele>
        <time>2017-07-20T09:34:42Z</time>
      </trkpt>
      <trkpt lat="48.24348" lon="7.19844">
        <ele>401.60000610352</ele>
        <time>2017-07-20T09:34:44Z</time>
      </trkpt>
      <trkpt lat="48.24339" lon="7.1984">
        <ele>402.60000610352</ele>
        <time>2017-07-20T09:34:49Z</time>
      </trkpt>
      <trkpt lat="48.24336" lon="7.19838">
        <ele>403</ele>
        <time>2017-07-20T09:34:51Z</time>
      </trkpt>
      <trkpt lat="48.2433" lon="7.19835">
        <ele>403.79998779297</ele>
        <time>2017-07-20T09:34:54Z</time>
      </trkpt>
      <trkpt lat="48.24316" lon="7.1983">
        <ele>404.79998779297</ele>
        <time>2017-07-20T09:35:00Z</time>
      </trkpt>
      <trkpt lat="48.24303" lon="7.19828">
        <ele>406</ele>
        <time>2017-07-20T09:35:06Z</time>
      </trkpt>
      <trkpt lat="48.24299" lon="7.19828">
        <ele>406.39999389648</ele>
        <time>2017-07-20T09:35:08Z</time>
      </trkpt>
      <trkpt lat="48.24291" lon="7.19826">
        <ele>407.20001220703</ele>
        <time>2017-07-20T09:35:12Z</time>
      </trkpt>
      <trkpt lat="48.24283" lon="7.19825">
        <ele>407.60000610352</ele>
        <time>2017-07-20T09:35:15Z</time>
      </trkpt>
      <trkpt lat="48.24278" lon="7.19826">
        <ele>408.20001220703</ele>
        <time>2017-07-20T09:35:17Z</time>
      </trkpt>
      <trkpt lat="48.24266" lon="7.19831">
        <ele>409.20001220703</ele>
        <time>2017-07-20T09:35:22Z</time>
      </trkpt>
      <trkpt lat="48.24263" lon="7.19832">
        <ele>409.39999389648</ele>
        <time>2017-07-20T09:35:23Z</time>
      </trkpt>
      <trkpt lat="48.24253" lon="7.19837">
        <ele>410</ele>
        <time>2017-07-20T09:35:27Z</time>
      </trkpt>
      <trkpt lat="48.24243" lon="7.19841">
        <ele>410.60000610352</ele>
        <time>2017-07-20T09:35:31Z</time>
      </trkpt>
      <trkpt lat="48.24237" lon="7.19847">
        <ele>411</ele>
        <time>2017-07-20T09:35:34Z</time>
      </trkpt>
      <trkpt lat="48.24226" lon="7.19859">
        <ele>411.60000610352</ele>
        <time>2017-07-20T09:35:40Z</time>
      </trkpt>
      <trkpt lat="48.24223" lon="7.19861">
        <ele>411.79998779297</ele>
        <time>2017-07-20T09:35:41Z</time>
      </trkpt>
      <trkpt lat="48.24204" lon="7.19872">
        <ele>412.20001220703</ele>
        <time>2017-07-20T09:35:48Z</time>
      </trkpt>
      <trkpt lat="48.24184" lon="7.19891">
        <ele>412.60000610352</ele>
        <time>2017-07-20T09:35:56Z</time>
      </trkpt>
      <trkpt lat="48.24182" lon="7.19893">
        <ele>412.79998779297</ele>
        <time>2017-07-20T09:35:57Z</time>
      </trkpt>
      <trkpt lat="48.24168" lon="7.19917">
        <ele>413</ele>
        <time>2017-07-20T09:36:04Z</time>
      </trkpt>
      <trkpt lat="48.24173" lon="7.19934">
        <ele>413.20001220703</ele>
        <time>2017-07-20T09:36:08Z</time>
      </trkpt>
      <trkpt lat="48.24184" lon="7.19951">
        <ele>413.79998779297</ele>
        <time>2017-07-20T09:36:14Z</time>
      </trkpt>
      <trkpt lat="48.24197" lon="7.19959">
        <ele>415</ele>
        <time>2017-07-20T09:36:20Z</time>
      </trkpt>
      <trkpt lat="48.24197" lon="7.1996">
        <ele>415</ele>
        <time>2017-07-20T09:36:21Z</time>
      </trkpt>
      <trkpt lat="48.24202" lon="7.19961">
        <ele>415.60000610352</ele>
        <time>2017-07-20T09:36:24Z</time>
      </trkpt>
      <trkpt lat="48.24203" lon="7.19961">
        <ele>415.60000610352</ele>
        <time>2017-07-20T09:36:25Z</time>
      </trkpt>
      <trkpt lat="48.24207" lon="7.19961">
        <ele>416</ele>
        <time>2017-07-20T09:36:27Z</time>
      </trkpt>
      <trkpt lat="48.24218" lon="7.19962">
        <ele>416.79998779297</ele>
        <time>2017-07-20T09:36:31Z</time>
      </trkpt>
      <trkpt lat="48.2422" lon="7.19962">
        <ele>417</ele>
        <time>2017-07-20T09:36:32Z</time>
      </trkpt>
      <trkpt lat="48.24233" lon="7.19962">
        <ele>418</ele>
        <time>2017-07-20T09:36:38Z</time>
      </trkpt>
      <trkpt lat="48.24236" lon="7.19962">
        <ele>418</ele>
        <time>2017-07-20T09:36:39Z</time>
      </trkpt>
      <trkpt lat="48.24251" lon="7.19965">
        <ele>419</ele>
        <time>2017-07-20T09:36:44Z</time>
      </trkpt>
      <trkpt lat="48.24254" lon="7.19964">
        <ele>419.20001220703</ele>
        <time>2017-07-20T09:36:45Z</time>
      </trkpt>
      <trkpt lat="48.24265" lon="7.19969">
        <ele>419.79998779297</ele>
        <time>2017-07-20T09:36:49Z</time>
      </trkpt>
      <trkpt lat="48.24273" lon="7.19971">
        <ele>420.20001220703</ele>
        <time>2017-07-20T09:36:52Z</time>
      </trkpt>
      <trkpt lat="48.24283" lon="7.19974">
        <ele>421</ele>
        <time>2017-07-20T09:36:55Z</time>
      </trkpt>
      <trkpt lat="48.24291" lon="7.19977">
        <ele>421.39999389648</ele>
        <time>2017-07-20T09:36:57Z</time>
      </trkpt>
      <trkpt lat="48.24308" lon="7.1998">
        <ele>422.20001220703</ele>
        <time>2017-07-20T09:37:02Z</time>
      </trkpt>
      <trkpt lat="48.2431" lon="7.19979">
        <ele>422.39999389648</ele>
        <time>2017-07-20T09:37:03Z</time>
      </trkpt>
      <trkpt lat="48.24312" lon="7.19981">
        <ele>422.60000610352</ele>
        <time>2017-07-20T09:37:04Z</time>
      </trkpt>
      <trkpt lat="48.24321" lon="7.19984">
        <ele>423.20001220703</ele>
        <time>2017-07-20T09:37:07Z</time>
      </trkpt>
      <trkpt lat="48.24327" lon="7.19985">
        <ele>423.60000610352</ele>
        <time>2017-07-20T09:37:09Z</time>
      </trkpt>
      <trkpt lat="48.24341" lon="7.1999">
        <ele>424.60000610352</ele>
        <time>2017-07-20T09:37:15Z</time>
      </trkpt>
      <trkpt lat="48.24344" lon="7.19992">
        <ele>424.60000610352</ele>
        <time>2017-07-20T09:37:16Z</time>
      </trkpt>
      <trkpt lat="48.24355" lon="7.19998">
        <ele>425.60000610352</ele>
        <time>2017-07-20T09:37:21Z</time>
      </trkpt>
      <trkpt lat="48.24358" lon="7.19999">
        <ele>425.60000610352</ele>
        <time>2017-07-20T09:37:22Z</time>
      </trkpt>
      <trkpt lat="48.2437" lon="7.20011">
        <ele>426.60000610352</ele>
        <time>2017-07-20T09:37:28Z</time>
      </trkpt>
      <trkpt lat="48.24372" lon="7.20013">
        <ele>426.79998779297</ele>
        <time>2017-07-20T09:37:29Z</time>
      </trkpt>
      <trkpt lat="48.24389" lon="7.20027">
        <ele>427.79998779297</ele>
        <time>2017-07-20T09:37:36Z</time>
      </trkpt>
      <trkpt lat="48.24392" lon="7.2003">
        <ele>428</ele>
        <time>2017-07-20T09:37:37Z</time>
      </trkpt>
      <trkpt lat="48.24409" lon="7.20041">
        <ele>429</ele>
        <time>2017-07-20T09:37:44Z</time>
      </trkpt>
      <trkpt lat="48.24411" lon="7.20042">
        <ele>429.20001220703</ele>
        <time>2017-07-20T09:37:45Z</time>
      </trkpt>
      <trkpt lat="48.24429" lon="7.20053">
        <ele>430</ele>
        <time>2017-07-20T09:37:53Z</time>
      </trkpt>
      <trkpt lat="48.24431" lon="7.20054">
        <ele>430.20001220703</ele>
        <time>2017-07-20T09:37:54Z</time>
      </trkpt>
      <trkpt lat="48.24446" lon="7.20066">
        <ele>431</ele>
        <time>2017-07-20T09:38:00Z</time>
      </trkpt>
      <trkpt lat="48.2445" lon="7.2007">
        <ele>431.20001220703</ele>
        <time>2017-07-20T09:38:02Z</time>
      </trkpt>
      <trkpt lat="48.24457" lon="7.20077">
        <ele>432</ele>
        <time>2017-07-20T09:38:06Z</time>
      </trkpt>
      <trkpt lat="48.2446" lon="7.20081">
        <ele>432.39999389648</ele>
        <time>2017-07-20T09:38:08Z</time>
      </trkpt>
      <trkpt lat="48.24472" lon="7.20092">
        <ele>433.60000610352</ele>
        <time>2017-07-20T09:38:13Z</time>
      </trkpt>
      <trkpt lat="48.24489" lon="7.20109">
        <ele>434.79998779297</ele>
        <time>2017-07-20T09:38:20Z</time>
      </trkpt>
      <trkpt lat="48.24491" lon="7.20111">
        <ele>435</ele>
        <time>2017-07-20T09:38:21Z</time>
      </trkpt>
      <trkpt lat="48.24501" lon="7.20122">
        <ele>436</ele>
        <time>2017-07-20T09:38:26Z</time>
      </trkpt>
      <trkpt lat="48.24504" lon="7.20127">
        <ele>436.20001220703</ele>
        <time>2017-07-20T09:38:28Z</time>
      </trkpt>
      <trkpt lat="48.24511" lon="7.20132">
        <ele>437</ele>
        <time>2017-07-20T09:38:31Z</time>
      </trkpt>
      <trkpt lat="48.24516" lon="7.20139">
        <ele>437.39999389648</ele>
        <time>2017-07-20T09:38:34Z</time>
      </trkpt>
      <trkpt lat="48.24523" lon="7.20146">
        <ele>438</ele>
        <time>2017-07-20T09:38:37Z</time>
      </trkpt>
      <trkpt lat="48.24532" lon="7.20156">
        <ele>438.79998779297</ele>
        <time>2017-07-20T09:38:42Z</time>
      </trkpt>
      <trkpt lat="48.24537" lon="7.2016">
        <ele>439</ele>
        <time>2017-07-20T09:38:44Z</time>
      </trkpt>
      <trkpt lat="48.24548" lon="7.20168">
        <ele>439.79998779297</ele>
        <time>2017-07-20T09:38:49Z</time>
      </trkpt>
      <trkpt lat="48.24555" lon="7.2017">
        <ele>440</ele>
        <time>2017-07-20T09:38:52Z</time>
      </trkpt>
      <trkpt lat="48.24562" lon="7.20175">
        <ele>440.39999389648</ele>
        <time>2017-07-20T09:38:55Z</time>
      </trkpt>
      <trkpt lat="48.24574" lon="7.20179">
        <ele>440.79998779297</ele>
        <time>2017-07-20T09:39:00Z</time>
      </trkpt>
      <trkpt lat="48.24579" lon="7.20181">
        <ele>441.20001220703</ele>
        <time>2017-07-20T09:39:02Z</time>
      </trkpt>
      <trkpt lat="48.24586" lon="7.20183">
        <ele>441.39999389648</ele>
        <time>2017-07-20T09:39:05Z</time>
      </trkpt>
      <trkpt lat="48.24598" lon="7.20189">
        <ele>442.20001220703</ele>
        <time>2017-07-20T09:39:11Z</time>
      </trkpt>
      <trkpt lat="48.24612" lon="7.20196">
        <ele>443.39999389648</ele>
        <time>2017-07-20T09:39:17Z</time>
      </trkpt>
      <trkpt lat="48.24614" lon="7.20197">
        <ele>443.39999389648</ele>
        <time>2017-07-20T09:39:18Z</time>
      </trkpt>
      <trkpt lat="48.24626" lon="7.20204">
        <ele>444.39999389648</ele>
        <time>2017-07-20T09:39:23Z</time>
      </trkpt>
      <trkpt lat="48.2463" lon="7.20207">
        <ele>444.79998779297</ele>
        <time>2017-07-20T09:39:25Z</time>
      </trkpt>
      <trkpt lat="48.24638" lon="7.20212">
        <ele>445.39999389648</ele>
        <time>2017-07-20T09:39:29Z</time>
      </trkpt>
      <trkpt lat="48.24644" lon="7.20216">
        <ele>446</ele>
        <time>2017-07-20T09:39:32Z</time>
      </trkpt>
      <trkpt lat="48.2465" lon="7.2022">
        <ele>446.60000610352</ele>
        <time>2017-07-20T09:39:35Z</time>
      </trkpt>
      <trkpt lat="48.24659" lon="7.20223">
        <ele>447.20001220703</ele>
        <time>2017-07-20T09:39:39Z</time>
      </trkpt>
      <trkpt lat="48.24664" lon="7.20224">
        <ele>447.60000610352</ele>
        <time>2017-07-20T09:39:41Z</time>
      </trkpt>
      <trkpt lat="48.24674" lon="7.20229">
        <ele>448.39999389648</ele>
        <time>2017-07-20T09:39:46Z</time>
      </trkpt>
      <trkpt lat="48.24677" lon="7.2023">
        <ele>448.79998779297</ele>
        <time>2017-07-20T09:39:48Z</time>
      </trkpt>
      <trkpt lat="48.24685" lon="7.20229">
        <ele>449.39999389648</ele>
        <time>2017-07-20T09:39:52Z</time>
      </trkpt>
      <trkpt lat="48.24692" lon="7.20231">
        <ele>449.79998779297</ele>
        <time>2017-07-20T09:39:55Z</time>
      </trkpt>
      <trkpt lat="48.24697" lon="7.20237">
        <ele>450.60000610352</ele>
        <time>2017-07-20T09:39:58Z</time>
      </trkpt>
      <trkpt lat="48.24699" lon="7.20245">
        <ele>451</ele>
        <time>2017-07-20T09:40:00Z</time>
      </trkpt>
      <trkpt lat="48.24699" lon="7.20254">
        <ele>451.79998779297</ele>
        <time>2017-07-20T09:40:03Z</time>
      </trkpt>
      <trkpt lat="48.24698" lon="7.20257">
        <ele>452.39999389648</ele>
        <time>2017-07-20T09:40:05Z</time>
      </trkpt>
      <trkpt lat="48.24696" lon="7.20257">
        <ele>452.79998779297</ele>
        <time>2017-07-20T09:40:07Z</time>
      </trkpt>
      <trkpt lat="48.24694" lon="7.20256">
        <ele>453.20001220703</ele>
        <time>2017-07-20T09:40:09Z</time>
      </trkpt>
      <trkpt lat="48.24693" lon="7.20256">
        <ele>453.39999389648</ele>
        <time>2017-07-20T09:40:10Z</time>
      </trkpt>
      <trkpt lat="48.24685" lon="7.20252">
        <ele>453.79998779297</ele>
        <time>2017-07-20T09:40:14Z</time>
      </trkpt>
      <trkpt lat="48.24674" lon="7.20247">
        <ele>454.39999389648</ele>
        <time>2017-07-20T09:40:19Z</time>
      </trkpt>
      <trkpt lat="48.24666" lon="7.20244">
        <ele>454.79998779297</ele>
        <time>2017-07-20T09:40:22Z</time>
      </trkpt>
      <trkpt lat="48.24653" lon="7.2024">
        <ele>455.60000610352</ele>
        <time>2017-07-20T09:40:27Z</time>
      </trkpt>
      <trkpt lat="48.24648" lon="7.20239">
        <ele>456.20001220703</ele>
        <time>2017-07-20T09:40:29Z</time>
      </trkpt>
      <trkpt lat="48.24641" lon="7.20239">
        <ele>456.60000610352</ele>
        <time>2017-07-20T09:40:32Z</time>
      </trkpt>
      <trkpt lat="48.24634" lon="7.20239">
        <ele>457.20001220703</ele>
        <time>2017-07-20T09:40:36Z</time>
      </trkpt>
      <trkpt lat="48.24629" lon="7.20238">
        <ele>457.60000610352</ele>
        <time>2017-07-20T09:40:39Z</time>
      </trkpt>
      <trkpt lat="48.24622" lon="7.2024">
        <ele>458.20001220703</ele>
        <time>2017-07-20T09:40:43Z</time>
      </trkpt>
      <trkpt lat="48.24617" lon="7.20239">
        <ele>458.60000610352</ele>
        <time>2017-07-20T09:40:45Z</time>
      </trkpt>
      <trkpt lat="48.24607" lon="7.2024">
        <ele>459.60000610352</ele>
        <time>2017-07-20T09:40:51Z</time>
      </trkpt>
      <trkpt lat="48.24606" lon="7.2024">
        <ele>459.60000610352</ele>
        <time>2017-07-20T09:40:52Z</time>
      </trkpt>
      <trkpt lat="48.24599" lon="7.20242">
        <ele>460.60000610352</ele>
        <time>2017-07-20T09:40:56Z</time>
      </trkpt>
      <trkpt lat="48.24597" lon="7.20243">
        <ele>460.79998779297</ele>
        <time>2017-07-20T09:40:57Z</time>
      </trkpt>
      <trkpt lat="48.24583" lon="7.20249">
        <ele>462</ele>
        <time>2017-07-20T09:41:03Z</time>
      </trkpt>
      <trkpt lat="48.24564" lon="7.20252">
        <ele>463</ele>
        <time>2017-07-20T09:41:10Z</time>
      </trkpt>
      <trkpt lat="48.24547" lon="7.20253">
        <ele>464</ele>
        <time>2017-07-20T09:41:16Z</time>
      </trkpt>
      <trkpt lat="48.24544" lon="7.20253">
        <ele>464.39999389648</ele>
        <time>2017-07-20T09:41:17Z</time>
      </trkpt>
      <trkpt lat="48.24537" lon="7.20253">
        <ele>464.79998779297</ele>
        <time>2017-07-20T09:41:20Z</time>
      </trkpt>
      <trkpt lat="48.24533" lon="7.20253">
        <ele>465.20001220703</ele>
        <time>2017-07-20T09:41:22Z</time>
      </trkpt>
      <trkpt lat="48.24529" lon="7.20253">
        <ele>465.39999389648</ele>
        <time>2017-07-20T09:41:24Z</time>
      </trkpt>
      <trkpt lat="48.24509" lon="7.20247">
        <ele>466.20001220703</ele>
        <time>2017-07-20T09:41:30Z</time>
      </trkpt>
      <trkpt lat="48.24499" lon="7.20242">
        <ele>466.39999389648</ele>
        <time>2017-07-20T09:41:33Z</time>
      </trkpt>
      <trkpt lat="48.24487" lon="7.20237">
        <ele>467</ele>
        <time>2017-07-20T09:41:37Z</time>
      </trkpt>
      <trkpt lat="48.2447" lon="7.20225">
        <ele>467.60000610352</ele>
        <time>2017-07-20T09:41:43Z</time>
      </trkpt>
      <trkpt lat="48.24468" lon="7.20223">
        <ele>467.79998779297</ele>
        <time>2017-07-20T09:41:44Z</time>
      </trkpt>
      <trkpt lat="48.24456" lon="7.20212">
        <ele>468.60000610352</ele>
        <time>2017-07-20T09:41:49Z</time>
      </trkpt>
      <trkpt lat="48.24451" lon="7.20208">
        <ele>469</ele>
        <time>2017-07-20T09:41:51Z</time>
      </trkpt>
      <trkpt lat="48.24442" lon="7.20202">
        <ele>469.60000610352</ele>
        <time>2017-07-20T09:41:55Z</time>
      </trkpt>
      <trkpt lat="48.2444" lon="7.202">
        <ele>469.79998779297</ele>
        <time>2017-07-20T09:41:56Z</time>
      </trkpt>
      <trkpt lat="48.24431" lon="7.20195">
        <ele>470.60000610352</ele>
        <time>2017-07-20T09:42:00Z</time>
      </trkpt>
      <trkpt lat="48.24428" lon="7.20194">
        <ele>471.20001220703</ele>
        <time>2017-07-20T09:42:02Z</time>
      </trkpt>
      <trkpt lat="48.24421" lon="7.20193">
        <ele>472</ele>
        <time>2017-07-20T09:42:05Z</time>
      </trkpt>
      <trkpt lat="48.24412" lon="7.20191">
        <ele>472.60000610352</ele>
        <time>2017-07-20T09:42:09Z</time>
      </trkpt>
      <trkpt lat="48.24407" lon="7.2019">
        <ele>473</ele>
        <time>2017-07-20T09:42:11Z</time>
      </trkpt>
      <trkpt lat="48.24398" lon="7.20191">
        <ele>473.79998779297</ele>
        <time>2017-07-20T09:42:16Z</time>
      </trkpt>
      <trkpt lat="48.24393" lon="7.20191">
        <ele>474</ele>
        <time>2017-07-20T09:42:18Z</time>
      </trkpt>
      <trkpt lat="48.24381" lon="7.20192">
        <ele>475</ele>
        <time>2017-07-20T09:42:24Z</time>
      </trkpt>
      <trkpt lat="48.2438" lon="7.20192">
        <ele>475</ele>
        <time>2017-07-20T09:42:25Z</time>
      </trkpt>
      <trkpt lat="48.24374" lon="7.20191">
        <ele>476</ele>
        <time>2017-07-20T09:42:29Z</time>
      </trkpt>
      <trkpt lat="48.24373" lon="7.2019">
        <ele>476.20001220703</ele>
        <time>2017-07-20T09:42:30Z</time>
      </trkpt>
      <trkpt lat="48.24366" lon="7.20194">
        <ele>477</ele>
        <time>2017-07-20T09:42:34Z</time>
      </trkpt>
      <trkpt lat="48.24363" lon="7.20195">
        <ele>477.20001220703</ele>
        <time>2017-07-20T09:42:35Z</time>
      </trkpt>
      <trkpt lat="48.2436" lon="7.20197">
        <ele>477.39999389648</ele>
        <time>2017-07-20T09:42:36Z</time>
      </trkpt>
      <trkpt lat="48.24351" lon="7.20207">
        <ele>478.20001220703</ele>
        <time>2017-07-20T09:42:40Z</time>
      </trkpt>
      <trkpt lat="48.2435" lon="7.20209">
        <ele>478.39999389648</ele>
        <time>2017-07-20T09:42:41Z</time>
      </trkpt>
      <trkpt lat="48.24346" lon="7.2021">
        <ele>479.60000610352</ele>
        <time>2017-07-20T09:42:48Z</time>
      </trkpt>
      <trkpt lat="48.24348" lon="7.2021">
        <ele>479.60000610352</ele>
        <time>2017-07-20T09:42:49Z</time>
      </trkpt>
      <trkpt lat="48.24367" lon="7.20213">
        <ele>480.60000610352</ele>
        <time>2017-07-20T09:42:56Z</time>
      </trkpt>
      <trkpt lat="48.24374" lon="7.20216">
        <ele>480.79998779297</ele>
        <time>2017-07-20T09:42:58Z</time>
      </trkpt>
      <trkpt lat="48.24397" lon="7.20226">
        <ele>481.60000610352</ele>
        <time>2017-07-20T09:43:04Z</time>
      </trkpt>
      <trkpt lat="48.24402" lon="7.20229">
        <ele>481.79998779297</ele>
        <time>2017-07-20T09:43:05Z</time>
      </trkpt>
      <trkpt lat="48.2442" lon="7.2024">
        <ele>482.79998779297</ele>
        <time>2017-07-20T09:43:11Z</time>
      </trkpt>
      <trkpt lat="48.24422" lon="7.20242">
        <ele>483</ele>
        <time>2017-07-20T09:43:12Z</time>
      </trkpt>
      <trkpt lat="48.2443" lon="7.20255">
        <ele>483.79998779297</ele>
        <time>2017-07-20T09:43:17Z</time>
      </trkpt>
      <trkpt lat="48.24435" lon="7.20267">
        <ele>484.39999389648</ele>
        <time>2017-07-20T09:43:21Z</time>
      </trkpt>
      <trkpt lat="48.24439" lon="7.20275">
        <ele>484.79998779297</ele>
        <time>2017-07-20T09:43:24Z</time>
      </trkpt>
      <trkpt lat="48.24444" lon="7.20287">
        <ele>485.60000610352</ele>
        <time>2017-07-20T09:43:29Z</time>
      </trkpt>
      <trkpt lat="48.24447" lon="7.20291">
        <ele>486</ele>
        <time>2017-07-20T09:43:31Z</time>
      </trkpt>
      <trkpt lat="48.24454" lon="7.20305">
        <ele>487</ele>
        <time>2017-07-20T09:43:36Z</time>
      </trkpt>
      <trkpt lat="48.24457" lon="7.20309">
        <ele>487.20001220703</ele>
        <time>2017-07-20T09:43:38Z</time>
      </trkpt>
      <trkpt lat="48.24465" lon="7.20319">
        <ele>488</ele>
        <time>2017-07-20T09:43:43Z</time>
      </trkpt>
      <trkpt lat="48.24469" lon="7.20323">
        <ele>488.39999389648</ele>
        <time>2017-07-20T09:43:45Z</time>
      </trkpt>
      <trkpt lat="48.24479" lon="7.20329">
        <ele>489</ele>
        <time>2017-07-20T09:43:50Z</time>
      </trkpt>
      <trkpt lat="48.24487" lon="7.20335">
        <ele>489.39999389648</ele>
        <time>2017-07-20T09:43:54Z</time>
      </trkpt>
      <trkpt lat="48.24494" lon="7.20339">
        <ele>489.60000610352</ele>
        <time>2017-07-20T09:43:57Z</time>
      </trkpt>
      <trkpt lat="48.24506" lon="7.20345">
        <ele>490.39999389648</ele>
        <time>2017-07-20T09:44:03Z</time>
      </trkpt>
      <trkpt lat="48.24516" lon="7.2035">
        <ele>491.39999389648</ele>
        <time>2017-07-20T09:44:08Z</time>
      </trkpt>
      <trkpt lat="48.24518" lon="7.20351">
        <ele>491.60000610352</ele>
        <time>2017-07-20T09:44:09Z</time>
      </trkpt>
      <trkpt lat="48.2453" lon="7.20356">
        <ele>492.39999389648</ele>
        <time>2017-07-20T09:44:14Z</time>
      </trkpt>
      <trkpt lat="48.24534" lon="7.20359">
        <ele>492.79998779297</ele>
        <time>2017-07-20T09:44:16Z</time>
      </trkpt>
      <trkpt lat="48.24542" lon="7.20361">
        <ele>493.39999389648</ele>
        <time>2017-07-20T09:44:20Z</time>
      </trkpt>
      <trkpt lat="48.24544" lon="7.20362">
        <ele>493.60000610352</ele>
        <time>2017-07-20T09:44:21Z</time>
      </trkpt>
      <trkpt lat="48.24547" lon="7.20363">
        <ele>494</ele>
        <time>2017-07-20T09:44:23Z</time>
      </trkpt>
      <trkpt lat="48.24554" lon="7.20363">
        <ele>494.60000610352</ele>
        <time>2017-07-20T09:44:27Z</time>
      </trkpt>
      <trkpt lat="48.24558" lon="7.20362">
        <ele>495</ele>
        <time>2017-07-20T09:44:29Z</time>
      </trkpt>
      <trkpt lat="48.24565" lon="7.20361">
        <ele>495.60000610352</ele>
        <time>2017-07-20T09:44:34Z</time>
      </trkpt>
      <trkpt lat="48.24571" lon="7.20361">
        <ele>496</ele>
        <time>2017-07-20T09:44:36Z</time>
      </trkpt>
      <trkpt lat="48.24588" lon="7.2036">
        <ele>496.79998779297</ele>
        <time>2017-07-20T09:44:42Z</time>
      </trkpt>
      <trkpt lat="48.2459" lon="7.2036">
        <ele>497</ele>
        <time>2017-07-20T09:44:43Z</time>
      </trkpt>
      <trkpt lat="48.24605" lon="7.20362">
        <ele>497.60000610352</ele>
        <time>2017-07-20T09:44:49Z</time>
      </trkpt>
      <trkpt lat="48.24608" lon="7.20362">
        <ele>497.79998779297</ele>
        <time>2017-07-20T09:44:50Z</time>
      </trkpt>
      <trkpt lat="48.24619" lon="7.20365">
        <ele>498.79998779297</ele>
        <time>2017-07-20T09:44:55Z</time>
      </trkpt>
      <trkpt lat="48.24621" lon="7.20366">
        <ele>499</ele>
        <time>2017-07-20T09:44:56Z</time>
      </trkpt>
      <trkpt lat="48.24634" lon="7.2037">
        <ele>500</ele>
        <time>2017-07-20T09:45:02Z</time>
      </trkpt>
      <trkpt lat="48.24635" lon="7.20371">
        <ele>500</ele>
        <time>2017-07-20T09:45:03Z</time>
      </trkpt>
      <trkpt lat="48.24648" lon="7.20376">
        <ele>501</ele>
        <time>2017-07-20T09:45:09Z</time>
      </trkpt>
      <trkpt lat="48.24662" lon="7.2039">
        <ele>502</ele>
        <time>2017-07-20T09:45:16Z</time>
      </trkpt>
      <trkpt lat="48.24664" lon="7.20392">
        <ele>502.20001220703</ele>
        <time>2017-07-20T09:45:17Z</time>
      </trkpt>
      <trkpt lat="48.24679" lon="7.20406">
        <ele>503</ele>
        <time>2017-07-20T09:45:23Z</time>
      </trkpt>
      <trkpt lat="48.24683" lon="7.20409">
        <ele>503.20001220703</ele>
        <time>2017-07-20T09:45:24Z</time>
      </trkpt>
      <trkpt lat="48.247" lon="7.20423">
        <ele>504</ele>
        <time>2017-07-20T09:45:29Z</time>
      </trkpt>
      <trkpt lat="48.24703" lon="7.20428">
        <ele>504.39999389648</ele>
        <time>2017-07-20T09:45:31Z</time>
      </trkpt>
      <trkpt lat="48.24708" lon="7.20442">
        <ele>505.39999389648</ele>
        <time>2017-07-20T09:45:36Z</time>
      </trkpt>
      <trkpt lat="48.24708" lon="7.20446">
        <ele>505.60000610352</ele>
        <time>2017-07-20T09:45:37Z</time>
      </trkpt>
      <trkpt lat="48.24712" lon="7.20463">
        <ele>506.60000610352</ele>
        <time>2017-07-20T09:45:42Z</time>
      </trkpt>
      <trkpt lat="48.24713" lon="7.2047">
        <ele>507</ele>
        <time>2017-07-20T09:45:44Z</time>
      </trkpt>
      <trkpt lat="48.24714" lon="7.20483">
        <ele>507.79998779297</ele>
        <time>2017-07-20T09:45:48Z</time>
      </trkpt>
      <trkpt lat="48.24713" lon="7.20491">
        <ele>508.20001220703</ele>
        <time>2017-07-20T09:45:50Z</time>
      </trkpt>
      <trkpt lat="48.2471" lon="7.20504">
        <ele>508.79998779297</ele>
        <time>2017-07-20T09:45:54Z</time>
      </trkpt>
      <trkpt lat="48.24708" lon="7.20511">
        <ele>509.20001220703</ele>
        <time>2017-07-20T09:45:56Z</time>
      </trkpt>
      <trkpt lat="48.24707" lon="7.20523">
        <ele>510</ele>
        <time>2017-07-20T09:46:00Z</time>
      </trkpt>
      <trkpt lat="48.24707" lon="7.20526">
        <ele>510</ele>
        <time>2017-07-20T09:46:01Z</time>
      </trkpt>
      <trkpt lat="48.24702" lon="7.20543">
        <ele>511</ele>
        <time>2017-07-20T09:46:06Z</time>
      </trkpt>
      <trkpt lat="48.24701" lon="7.20546">
        <ele>511.20001220703</ele>
        <time>2017-07-20T09:46:07Z</time>
      </trkpt>
      <trkpt lat="48.24695" lon="7.20565">
        <ele>512.20001220703</ele>
        <time>2017-07-20T09:46:13Z</time>
      </trkpt>
      <trkpt lat="48.24694" lon="7.20582">
        <ele>513.20001220703</ele>
        <time>2017-07-20T09:46:19Z</time>
      </trkpt>
      <trkpt lat="48.247" lon="7.20605">
        <ele>514.40002441406</ele>
        <time>2017-07-20T09:46:26Z</time>
      </trkpt>
      <trkpt lat="48.247" lon="7.20622">
        <ele>515.20001220703</ele>
        <time>2017-07-20T09:46:31Z</time>
      </trkpt>
      <trkpt lat="48.247" lon="7.20625">
        <ele>515.40002441406</ele>
        <time>2017-07-20T09:46:32Z</time>
      </trkpt>
      <trkpt lat="48.24701" lon="7.20645">
        <ele>516.40002441406</ele>
        <time>2017-07-20T09:46:38Z</time>
      </trkpt>
      <trkpt lat="48.24701" lon="7.20648">
        <ele>516.59997558594</ele>
        <time>2017-07-20T09:46:39Z</time>
      </trkpt>
      <trkpt lat="48.24702" lon="7.20665">
        <ele>517.40002441406</ele>
        <time>2017-07-20T09:46:44Z</time>
      </trkpt>
      <trkpt lat="48.24703" lon="7.20669">
        <ele>517.59997558594</ele>
        <time>2017-07-20T09:46:45Z</time>
      </trkpt>
      <trkpt lat="48.24701" lon="7.20693">
        <ele>518.59997558594</ele>
        <time>2017-07-20T09:46:51Z</time>
      </trkpt>
      <trkpt lat="48.247" lon="7.20697">
        <ele>518.79998779297</ele>
        <time>2017-07-20T09:46:52Z</time>
      </trkpt>
      <trkpt lat="48.24698" lon="7.20719">
        <ele>519.79998779297</ele>
        <time>2017-07-20T09:46:58Z</time>
      </trkpt>
      <trkpt lat="48.24697" lon="7.20729">
        <ele>520.20001220703</ele>
        <time>2017-07-20T09:47:01Z</time>
      </trkpt>
      <trkpt lat="48.24698" lon="7.20745">
        <ele>521</ele>
        <time>2017-07-20T09:47:05Z</time>
      </trkpt>
      <trkpt lat="48.247" lon="7.20757">
        <ele>521.40002441406</ele>
        <time>2017-07-20T09:47:08Z</time>
      </trkpt>
      <trkpt lat="48.24698" lon="7.20764">
        <ele>522</ele>
        <time>2017-07-20T09:47:10Z</time>
      </trkpt>
      <trkpt lat="48.24698" lon="7.20777">
        <ele>522.40002441406</ele>
        <time>2017-07-20T09:47:14Z</time>
      </trkpt>
      <trkpt lat="48.247" lon="7.20788">
        <ele>523</ele>
        <time>2017-07-20T09:47:17Z</time>
      </trkpt>
      <trkpt lat="48.247" lon="7.20803">
        <ele>523.79998779297</ele>
        <time>2017-07-20T09:47:21Z</time>
      </trkpt>
      <trkpt lat="48.247" lon="7.2081">
        <ele>524</ele>
        <time>2017-07-20T09:47:23Z</time>
      </trkpt>
      <trkpt lat="48.247" lon="7.20813">
        <ele>524.20001220703</ele>
        <time>2017-07-20T09:47:24Z</time>
      </trkpt>
      <trkpt lat="48.24698" lon="7.2082">
        <ele>524.59997558594</ele>
        <time>2017-07-20T09:47:26Z</time>
      </trkpt>
      <trkpt lat="48.24692" lon="7.20838">
        <ele>525.40002441406</ele>
        <time>2017-07-20T09:47:31Z</time>
      </trkpt>
      <trkpt lat="48.24689" lon="7.20844">
        <ele>525.59997558594</ele>
        <time>2017-07-20T09:47:33Z</time>
      </trkpt>
      <trkpt lat="48.24683" lon="7.20862">
        <ele>526.40002441406</ele>
        <time>2017-07-20T09:47:38Z</time>
      </trkpt>
      <trkpt lat="48.24679" lon="7.20872">
        <ele>527.20001220703</ele>
        <time>2017-07-20T09:47:41Z</time>
      </trkpt>
      <trkpt lat="48.24675" lon="7.20882">
        <ele>527.59997558594</ele>
        <time>2017-07-20T09:47:44Z</time>
      </trkpt>
      <trkpt lat="48.2467" lon="7.20897">
        <ele>528.40002441406</ele>
        <time>2017-07-20T09:47:48Z</time>
      </trkpt>
      <trkpt lat="48.24668" lon="7.20903">
        <ele>528.59997558594</ele>
        <time>2017-07-20T09:47:50Z</time>
      </trkpt>
      <trkpt lat="48.24666" lon="7.20923">
        <ele>529.59997558594</ele>
        <time>2017-07-20T09:47:56Z</time>
      </trkpt>
      <trkpt lat="48.24664" lon="7.20926">
        <ele>529.79998779297</ele>
        <time>2017-07-20T09:47:57Z</time>
      </trkpt>
      <trkpt lat="48.24658" lon="7.20938">
        <ele>530.59997558594</ele>
        <time>2017-07-20T09:48:03Z</time>
      </trkpt>
      <trkpt lat="48.24656" lon="7.20941">
        <ele>531</ele>
        <time>2017-07-20T09:48:05Z</time>
      </trkpt>
      <trkpt lat="48.24649" lon="7.20945">
        <ele>531.79998779297</ele>
        <time>2017-07-20T09:48:10Z</time>
      </trkpt>
      <trkpt lat="48.24644" lon="7.20946">
        <ele>532.20001220703</ele>
        <time>2017-07-20T09:48:13Z</time>
      </trkpt>
      <trkpt lat="48.24636" lon="7.20951">
        <ele>532.79998779297</ele>
        <time>2017-07-20T09:48:17Z</time>
      </trkpt>
      <trkpt lat="48.24631" lon="7.20953">
        <ele>533.20001220703</ele>
        <time>2017-07-20T09:48:19Z</time>
      </trkpt>
      <trkpt lat="48.24623" lon="7.20958">
        <ele>534</ele>
        <time>2017-07-20T09:48:23Z</time>
      </trkpt>
      <trkpt lat="48.24617" lon="7.20962">
        <ele>534.40002441406</ele>
        <time>2017-07-20T09:48:26Z</time>
      </trkpt>
      <trkpt lat="48.24602" lon="7.20972">
        <ele>535.40002441406</ele>
        <time>2017-07-20T09:48:32Z</time>
      </trkpt>
      <trkpt lat="48.246" lon="7.20974">
        <ele>535.59997558594</ele>
        <time>2017-07-20T09:48:33Z</time>
      </trkpt>
      <trkpt lat="48.2459" lon="7.20983">
        <ele>536.20001220703</ele>
        <time>2017-07-20T09:48:38Z</time>
      </trkpt>
      <trkpt lat="48.24583" lon="7.2099">
        <ele>536.59997558594</ele>
        <time>2017-07-20T09:48:41Z</time>
      </trkpt>
      <trkpt lat="48.24573" lon="7.21002">
        <ele>537.40002441406</ele>
        <time>2017-07-20T09:48:46Z</time>
      </trkpt>
      <trkpt lat="48.2457" lon="7.21007">
        <ele>537.59997558594</ele>
        <time>2017-07-20T09:48:48Z</time>
      </trkpt>
      <trkpt lat="48.24565" lon="7.21016">
        <ele>538</ele>
        <time>2017-07-20T09:48:51Z</time>
      </trkpt>
      <trkpt lat="48.24564" lon="7.21019">
        <ele>538.20001220703</ele>
        <time>2017-07-20T09:48:52Z</time>
      </trkpt>
      <trkpt lat="48.24558" lon="7.21024">
        <ele>538.79998779297</ele>
        <time>2017-07-20T09:48:55Z</time>
      </trkpt>
      <trkpt lat="48.24556" lon="7.21026">
        <ele>538.79998779297</ele>
        <time>2017-07-20T09:48:56Z</time>
      </trkpt>
      <trkpt lat="48.24545" lon="7.2104">
        <ele>539.79998779297</ele>
        <time>2017-07-20T09:49:02Z</time>
      </trkpt>
      <trkpt lat="48.24543" lon="7.21042">
        <ele>540</ele>
        <time>2017-07-20T09:49:03Z</time>
      </trkpt>
      <trkpt lat="48.24534" lon="7.21055">
        <ele>540.79998779297</ele>
        <time>2017-07-20T09:49:08Z</time>
      </trkpt>
      <trkpt lat="48.2453" lon="7.21061">
        <ele>541.20001220703</ele>
        <time>2017-07-20T09:49:10Z</time>
      </trkpt>
      <trkpt lat="48.24523" lon="7.21069">
        <ele>542</ele>
        <time>2017-07-20T09:49:14Z</time>
      </trkpt>
      <trkpt lat="48.24519" lon="7.21074">
        <ele>542.40002441406</ele>
        <time>2017-07-20T09:49:16Z</time>
      </trkpt>
      <trkpt lat="48.24514" lon="7.21081">
        <ele>543</ele>
        <time>2017-07-20T09:49:19Z</time>
      </trkpt>
      <trkpt lat="48.24504" lon="7.21092">
        <ele>543.79998779297</ele>
        <time>2017-07-20T09:49:24Z</time>
      </trkpt>
      <trkpt lat="48.24501" lon="7.21095">
        <ele>544</ele>
        <time>2017-07-20T09:49:26Z</time>
      </trkpt>
      <trkpt lat="48.24495" lon="7.21103">
        <ele>544.59997558594</ele>
        <time>2017-07-20T09:49:30Z</time>
      </trkpt>
      <trkpt lat="48.24487" lon="7.21112">
        <ele>545.20001220703</ele>
        <time>2017-07-20T09:49:34Z</time>
      </trkpt>
      <trkpt lat="48.24482" lon="7.21117">
        <ele>545.59997558594</ele>
        <time>2017-07-20T09:49:37Z</time>
      </trkpt>
      <trkpt lat="48.24474" lon="7.21125">
        <ele>546.40002441406</ele>
        <time>2017-07-20T09:49:41Z</time>
      </trkpt>
      <trkpt lat="48.24469" lon="7.21131">
        <ele>547</ele>
        <time>2017-07-20T09:49:44Z</time>
      </trkpt>
      <trkpt lat="48.24464" lon="7.21136">
        <ele>547.40002441406</ele>
        <time>2017-07-20T09:49:47Z</time>
      </trkpt>
      <trkpt lat="48.24456" lon="7.21144">
        <ele>548</ele>
        <time>2017-07-20T09:49:51Z</time>
      </trkpt>
      <trkpt lat="48.24449" lon="7.21155">
        <ele>548.40002441406</ele>
        <time>2017-07-20T09:49:55Z</time>
      </trkpt>
      <trkpt lat="48.24441" lon="7.21163">
        <ele>549</ele>
        <time>2017-07-20T09:49:59Z</time>
      </trkpt>
      <trkpt lat="48.24431" lon="7.21179">
        <ele>549.40002441406</ele>
        <time>2017-07-20T09:50:04Z</time>
      </trkpt>
      <trkpt lat="48.24426" lon="7.21185">
        <ele>549.79998779297</ele>
        <time>2017-07-20T09:50:06Z</time>
      </trkpt>
      <trkpt lat="48.2441" lon="7.21214">
        <ele>550.59997558594</ele>
        <time>2017-07-20T09:50:14Z</time>
      </trkpt>
      <trkpt lat="48.24408" lon="7.21217">
        <ele>550.59997558594</ele>
        <time>2017-07-20T09:50:15Z</time>
      </trkpt>
      <trkpt lat="48.24393" lon="7.21241">
        <ele>551.59997558594</ele>
        <time>2017-07-20T09:50:23Z</time>
      </trkpt>
      <trkpt lat="48.24384" lon="7.21259">
        <ele>552.40002441406</ele>
        <time>2017-07-20T09:50:29Z</time>
      </trkpt>
      <trkpt lat="48.24382" lon="7.21262">
        <ele>552.79998779297</ele>
        <time>2017-07-20T09:50:30Z</time>
      </trkpt>
      <trkpt lat="48.24373" lon="7.21282">
        <ele>553.79998779297</ele>
        <time>2017-07-20T09:50:37Z</time>
      </trkpt>
      <trkpt lat="48.24372" lon="7.21285">
        <ele>554</ele>
        <time>2017-07-20T09:50:38Z</time>
      </trkpt>
      <trkpt lat="48.24364" lon="7.21304">
        <ele>555.20001220703</ele>
        <time>2017-07-20T09:50:44Z</time>
      </trkpt>
      <trkpt lat="48.24355" lon="7.21326">
        <ele>556.20001220703</ele>
        <time>2017-07-20T09:50:51Z</time>
      </trkpt>
      <trkpt lat="48.24354" lon="7.21329">
        <ele>556.40002441406</ele>
        <time>2017-07-20T09:50:52Z</time>
      </trkpt>
      <trkpt lat="48.24351" lon="7.21349">
        <ele>557.20001220703</ele>
        <time>2017-07-20T09:50:57Z</time>
      </trkpt>
      <trkpt lat="48.2435" lon="7.21352">
        <ele>557.40002441406</ele>
        <time>2017-07-20T09:50:58Z</time>
      </trkpt>
      <trkpt lat="48.24349" lon="7.2137">
        <ele>558.20001220703</ele>
        <time>2017-07-20T09:51:03Z</time>
      </trkpt>
      <trkpt lat="48.24348" lon="7.21393">
        <ele>559.40002441406</ele>
        <time>2017-07-20T09:51:10Z</time>
      </trkpt>
      <trkpt lat="48.24348" lon="7.21396">
        <ele>559.40002441406</ele>
        <time>2017-07-20T09:51:11Z</time>
      </trkpt>
      <trkpt lat="48.24353" lon="7.21414">
        <ele>560.40002441406</ele>
        <time>2017-07-20T09:51:17Z</time>
      </trkpt>
      <trkpt lat="48.24363" lon="7.21421">
        <ele>561.20001220703</ele>
        <time>2017-07-20T09:51:22Z</time>
      </trkpt>
      <trkpt lat="48.24368" lon="7.21421">
        <ele>561.40002441406</ele>
        <time>2017-07-20T09:51:24Z</time>
      </trkpt>
      <trkpt lat="48.24379" lon="7.2142">
        <ele>562.20001220703</ele>
        <time>2017-07-20T09:51:29Z</time>
      </trkpt>
      <trkpt lat="48.24384" lon="7.2142">
        <ele>562.40002441406</ele>
        <time>2017-07-20T09:51:31Z</time>
      </trkpt>
      <trkpt lat="48.24395" lon="7.21418">
        <ele>563.20001220703</ele>
        <time>2017-07-20T09:51:36Z</time>
      </trkpt>
      <trkpt lat="48.24403" lon="7.21415">
        <ele>563.59997558594</ele>
        <time>2017-07-20T09:51:39Z</time>
      </trkpt>
      <trkpt lat="48.24412" lon="7.21415">
        <ele>564.20001220703</ele>
        <time>2017-07-20T09:51:43Z</time>
      </trkpt>
      <trkpt lat="48.24416" lon="7.21415">
        <ele>564.59997558594</ele>
        <time>2017-07-20T09:51:45Z</time>
      </trkpt>
      <trkpt lat="48.24429" lon="7.21416">
        <ele>565.40002441406</ele>
        <time>2017-07-20T09:51:50Z</time>
      </trkpt>
      <trkpt lat="48.24433" lon="7.21417">
        <ele>565.59997558594</ele>
        <time>2017-07-20T09:51:52Z</time>
      </trkpt>
      <trkpt lat="48.24447" lon="7.2142">
        <ele>566.40002441406</ele>
        <time>2017-07-20T09:51:58Z</time>
      </trkpt>
      <trkpt lat="48.24449" lon="7.2142">
        <ele>566.59997558594</ele>
        <time>2017-07-20T09:51:59Z</time>
      </trkpt>
      <trkpt lat="48.24461" lon="7.21419">
        <ele>567.40002441406</ele>
        <time>2017-07-20T09:52:05Z</time>
      </trkpt>
      <trkpt lat="48.24463" lon="7.21419">
        <ele>567.79998779297</ele>
        <time>2017-07-20T09:52:06Z</time>
      </trkpt>
      <trkpt lat="48.2448" lon="7.21423">
        <ele>568.79998779297</ele>
        <time>2017-07-20T09:52:13Z</time>
      </trkpt>
      <trkpt lat="48.24483" lon="7.21424">
        <ele>568.79998779297</ele>
        <time>2017-07-20T09:52:14Z</time>
      </trkpt>
      <trkpt lat="48.24499" lon="7.21429">
        <ele>569.59997558594</ele>
        <time>2017-07-20T09:52:20Z</time>
      </trkpt>
      <trkpt lat="48.24508" lon="7.21432">
        <ele>570</ele>
        <time>2017-07-20T09:52:23Z</time>
      </trkpt>
      <trkpt lat="48.24514" lon="7.21437">
        <ele>570.20001220703</ele>
        <time>2017-07-20T09:52:25Z</time>
      </trkpt>
      <trkpt lat="48.24529" lon="7.21452">
        <ele>571</ele>
        <time>2017-07-20T09:52:30Z</time>
      </trkpt>
      <trkpt lat="48.24532" lon="7.21459">
        <ele>571.40002441406</ele>
        <time>2017-07-20T09:52:32Z</time>
      </trkpt>
      <trkpt lat="48.24539" lon="7.21475">
        <ele>572.20001220703</ele>
        <time>2017-07-20T09:52:37Z</time>
      </trkpt>
      <trkpt lat="48.24542" lon="7.21482">
        <ele>572.40002441406</ele>
        <time>2017-07-20T09:52:39Z</time>
      </trkpt>
      <trkpt lat="48.24548" lon="7.21501">
        <ele>573.20001220703</ele>
        <time>2017-07-20T09:52:45Z</time>
      </trkpt>
      <trkpt lat="48.24549" lon="7.21504">
        <ele>573.40002441406</ele>
        <time>2017-07-20T09:52:46Z</time>
      </trkpt>
      <trkpt lat="48.24558" lon="7.21529">
        <ele>574.40002441406</ele>
        <time>2017-07-20T09:52:53Z</time>
      </trkpt>
      <trkpt lat="48.2456" lon="7.21532">
        <ele>574.79998779297</ele>
        <time>2017-07-20T09:52:54Z</time>
      </trkpt>
      <trkpt lat="48.24566" lon="7.21546">
        <ele>575.40002441406</ele>
        <time>2017-07-20T09:52:58Z</time>
      </trkpt>
      <trkpt lat="48.24574" lon="7.21558">
        <ele>576</ele>
        <time>2017-07-20T09:53:02Z</time>
      </trkpt>
      <trkpt lat="48.24579" lon="7.21567">
        <ele>576.59997558594</ele>
        <time>2017-07-20T09:53:05Z</time>
      </trkpt>
      <trkpt lat="48.24587" lon="7.21583">
        <ele>577.20001220703</ele>
        <time>2017-07-20T09:53:10Z</time>
      </trkpt>
      <trkpt lat="48.24592" lon="7.21594">
        <ele>577.79998779297</ele>
        <time>2017-07-20T09:53:13Z</time>
      </trkpt>
      <trkpt lat="48.24597" lon="7.21612">
        <ele>578.20001220703</ele>
        <time>2017-07-20T09:53:17Z</time>
      </trkpt>
      <trkpt lat="48.24599" lon="7.21625">
        <ele>578.79998779297</ele>
        <time>2017-07-20T09:53:20Z</time>
      </trkpt>
      <trkpt lat="48.24603" lon="7.2164">
        <ele>579.20001220703</ele>
        <time>2017-07-20T09:53:24Z</time>
      </trkpt>
      <trkpt lat="48.24604" lon="7.21656">
        <ele>579.79998779297</ele>
        <time>2017-07-20T09:53:28Z</time>
      </trkpt>
      <trkpt lat="48.24605" lon="7.21664">
        <ele>580.20001220703</ele>
        <time>2017-07-20T09:53:30Z</time>
      </trkpt>
      <trkpt lat="48.24608" lon="7.21684">
        <ele>581</ele>
        <time>2017-07-20T09:53:35Z</time>
      </trkpt>
      <trkpt lat="48.24609" lon="7.21695">
        <ele>581.40002441406</ele>
        <time>2017-07-20T09:53:38Z</time>
      </trkpt>
      <trkpt lat="48.24613" lon="7.21711">
        <ele>582.20001220703</ele>
        <time>2017-07-20T09:53:42Z</time>
      </trkpt>
      <trkpt lat="48.24617" lon="7.21723">
        <ele>582.79998779297</ele>
        <time>2017-07-20T09:53:45Z</time>
      </trkpt>
      <trkpt lat="48.24624" lon="7.21741">
        <ele>583.40002441406</ele>
        <time>2017-07-20T09:53:49Z</time>
      </trkpt>
      <trkpt lat="48.24629" lon="7.21754">
        <ele>583.79998779297</ele>
        <time>2017-07-20T09:53:52Z</time>
      </trkpt>
      <trkpt lat="48.24629" lon="7.21768">
        <ele>584.40002441406</ele>
        <time>2017-07-20T09:53:55Z</time>
      </trkpt>
      <trkpt lat="48.24626" lon="7.2178">
        <ele>584.79998779297</ele>
        <time>2017-07-20T09:53:58Z</time>
      </trkpt>
      <trkpt lat="48.24619" lon="7.21797">
        <ele>585.40002441406</ele>
        <time>2017-07-20T09:54:03Z</time>
      </trkpt>
      <trkpt lat="48.24615" lon="7.21802">
        <ele>585.79998779297</ele>
        <time>2017-07-20T09:54:05Z</time>
      </trkpt>
      <trkpt lat="48.24607" lon="7.21808">
        <ele>586.59997558594</ele>
        <time>2017-07-20T09:54:08Z</time>
      </trkpt>
      <trkpt lat="48.24589" lon="7.21814">
        <ele>587.40002441406</ele>
        <time>2017-07-20T09:54:13Z</time>
      </trkpt>
      <trkpt lat="48.24586" lon="7.21815">
        <ele>587.59997558594</ele>
        <time>2017-07-20T09:54:14Z</time>
      </trkpt>
      <trkpt lat="48.24572" lon="7.21817">
        <ele>588.40002441406</ele>
        <time>2017-07-20T09:54:19Z</time>
      </trkpt>
      <trkpt lat="48.24569" lon="7.21817">
        <ele>588.59997558594</ele>
        <time>2017-07-20T09:54:20Z</time>
      </trkpt>
      <trkpt lat="48.24558" lon="7.21806">
        <ele>589.40002441406</ele>
        <time>2017-07-20T09:54:25Z</time>
      </trkpt>
      <trkpt lat="48.24554" lon="7.21799">
        <ele>589.79998779297</ele>
        <time>2017-07-20T09:54:27Z</time>
      </trkpt>
      <trkpt lat="48.24553" lon="7.21789">
        <ele>590.20001220703</ele>
        <time>2017-07-20T09:54:29Z</time>
      </trkpt>
      <trkpt lat="48.24553" lon="7.2178">
        <ele>591</ele>
        <time>2017-07-20T09:54:31Z</time>
      </trkpt>
      <trkpt lat="48.24551" lon="7.21756">
        <ele>591.79998779297</ele>
        <time>2017-07-20T09:54:36Z</time>
      </trkpt>
      <trkpt lat="48.2455" lon="7.21751">
        <ele>592</ele>
        <time>2017-07-20T09:54:37Z</time>
      </trkpt>
      <trkpt lat="48.24541" lon="7.21729">
        <ele>592.59997558594</ele>
        <time>2017-07-20T09:54:42Z</time>
      </trkpt>
      <trkpt lat="48.24533" lon="7.21712">
        <ele>593.20001220703</ele>
        <time>2017-07-20T09:54:46Z</time>
      </trkpt>
      <trkpt lat="48.24528" lon="7.21705">
        <ele>593.40002441406</ele>
        <time>2017-07-20T09:54:48Z</time>
      </trkpt>
      <trkpt lat="48.24509" lon="7.21682">
        <ele>594.20001220703</ele>
        <time>2017-07-20T09:54:55Z</time>
      </trkpt>
      <trkpt lat="48.2449" lon="7.21673">
        <ele>594.59997558594</ele>
        <time>2017-07-20T09:55:01Z</time>
      </trkpt>
      <trkpt lat="48.24475" lon="7.21674">
        <ele>595.20001220703</ele>
        <time>2017-07-20T09:55:06Z</time>
      </trkpt>
      <trkpt lat="48.24472" lon="7.21676">
        <ele>595.20001220703</ele>
        <time>2017-07-20T09:55:07Z</time>
      </trkpt>
      <trkpt lat="48.24459" lon="7.21686">
        <ele>595.79998779297</ele>
        <time>2017-07-20T09:55:12Z</time>
      </trkpt>
      <trkpt lat="48.24451" lon="7.21694">
        <ele>596.20001220703</ele>
        <time>2017-07-20T09:55:15Z</time>
      </trkpt>
      <trkpt lat="48.24445" lon="7.21702">
        <ele>596.79998779297</ele>
        <time>2017-07-20T09:55:18Z</time>
      </trkpt>
      <trkpt lat="48.24439" lon="7.21709">
        <ele>597.40002441406</ele>
        <time>2017-07-20T09:55:21Z</time>
      </trkpt>
      <trkpt lat="48.24431" lon="7.21719">
        <ele>598</ele>
        <time>2017-07-20T09:55:25Z</time>
      </trkpt>
      <trkpt lat="48.24425" lon="7.21725">
        <ele>598.59997558594</ele>
        <time>2017-07-20T09:55:28Z</time>
      </trkpt>
      <trkpt lat="48.24411" lon="7.2174">
        <ele>599.40002441406</ele>
        <time>2017-07-20T09:55:34Z</time>
      </trkpt>
      <trkpt lat="48.24408" lon="7.21743">
        <ele>599.59997558594</ele>
        <time>2017-07-20T09:55:35Z</time>
      </trkpt>
      <trkpt lat="48.24398" lon="7.21756">
        <ele>600.59997558594</ele>
        <time>2017-07-20T09:55:41Z</time>
      </trkpt>
      <trkpt lat="48.24396" lon="7.21757">
        <ele>600.79998779297</ele>
        <time>2017-07-20T09:55:42Z</time>
      </trkpt>
      <trkpt lat="48.24386" lon="7.21766">
        <ele>601.59997558594</ele>
        <time>2017-07-20T09:55:47Z</time>
      </trkpt>
      <trkpt lat="48.24381" lon="7.21769">
        <ele>602</ele>
        <time>2017-07-20T09:55:49Z</time>
      </trkpt>
      <trkpt lat="48.2437" lon="7.21776">
        <ele>602.79998779297</ele>
        <time>2017-07-20T09:55:54Z</time>
      </trkpt>
      <trkpt lat="48.24365" lon="7.21778">
        <ele>603.20001220703</ele>
        <time>2017-07-20T09:55:56Z</time>
      </trkpt>
      <trkpt lat="48.24353" lon="7.21786">
        <ele>604</ele>
        <time>2017-07-20T09:56:02Z</time>
      </trkpt>
      <trkpt lat="48.24351" lon="7.21786">
        <ele>604.20001220703</ele>
        <time>2017-07-20T09:56:03Z</time>
      </trkpt>
      <trkpt lat="48.24342" lon="7.21787">
        <ele>605.20001220703</ele>
        <time>2017-07-20T09:56:07Z</time>
      </trkpt>
      <trkpt lat="48.24335" lon="7.21788">
        <ele>605.59997558594</ele>
        <time>2017-07-20T09:56:10Z</time>
      </trkpt>
      <trkpt lat="48.24323" lon="7.21787">
        <ele>606.40002441406</ele>
        <time>2017-07-20T09:56:15Z</time>
      </trkpt>
      <trkpt lat="48.24318" lon="7.21787">
        <ele>606.79998779297</ele>
        <time>2017-07-20T09:56:17Z</time>
      </trkpt>
      <trkpt lat="48.24309" lon="7.21788">
        <ele>607.59997558594</ele>
        <time>2017-07-20T09:56:21Z</time>
      </trkpt>
      <trkpt lat="48.24302" lon="7.21788">
        <ele>608.20001220703</ele>
        <time>2017-07-20T09:56:24Z</time>
      </trkpt>
      <trkpt lat="48.24295" lon="7.21788">
        <ele>608.59997558594</ele>
        <time>2017-07-20T09:56:27Z</time>
      </trkpt>
      <trkpt lat="48.24284" lon="7.21788">
        <ele>609.59997558594</ele>
        <time>2017-07-20T09:56:32Z</time>
      </trkpt>
      <trkpt lat="48.24281" lon="7.21788">
        <ele>609.79998779297</ele>
        <time>2017-07-20T09:56:33Z</time>
      </trkpt>
      <trkpt lat="48.24264" lon="7.21787">
        <ele>611</ele>
        <time>2017-07-20T09:56:40Z</time>
      </trkpt>
      <trkpt lat="48.24261" lon="7.21786">
        <ele>611</ele>
        <time>2017-07-20T09:56:41Z</time>
      </trkpt>
      <trkpt lat="48.24244" lon="7.21785">
        <ele>612.20001220703</ele>
        <time>2017-07-20T09:56:47Z</time>
      </trkpt>
      <trkpt lat="48.24238" lon="7.21784">
        <ele>612.40002441406</ele>
        <time>2017-07-20T09:56:49Z</time>
      </trkpt>
      <trkpt lat="48.24227" lon="7.21784">
        <ele>613.20001220703</ele>
        <time>2017-07-20T09:56:53Z</time>
      </trkpt>
      <trkpt lat="48.24225" lon="7.21783">
        <ele>613.59997558594</ele>
        <time>2017-07-20T09:56:54Z</time>
      </trkpt>
      <trkpt lat="48.24214" lon="7.21783">
        <ele>614.40002441406</ele>
        <time>2017-07-20T09:56:58Z</time>
      </trkpt>
      <trkpt lat="48.24206" lon="7.21783">
        <ele>614.79998779297</ele>
        <time>2017-07-20T09:57:01Z</time>
      </trkpt>
      <trkpt lat="48.24198" lon="7.21783">
        <ele>615.40002441406</ele>
        <time>2017-07-20T09:57:04Z</time>
      </trkpt>
      <trkpt lat="48.24187" lon="7.21783">
        <ele>616.20001220703</ele>
        <time>2017-07-20T09:57:08Z</time>
      </trkpt>
      <trkpt lat="48.24182" lon="7.21783">
        <ele>616.40002441406</ele>
        <time>2017-07-20T09:57:10Z</time>
      </trkpt>
      <trkpt lat="48.24167" lon="7.21787">
        <ele>617.59997558594</ele>
        <time>2017-07-20T09:57:16Z</time>
      </trkpt>
      <trkpt lat="48.24154" lon="7.21797">
        <ele>618.59997558594</ele>
        <time>2017-07-20T09:57:21Z</time>
      </trkpt>
      <trkpt lat="48.24152" lon="7.218">
        <ele>618.79998779297</ele>
        <time>2017-07-20T09:57:22Z</time>
      </trkpt>
      <trkpt lat="48.24139" lon="7.21814">
        <ele>619.59997558594</ele>
        <time>2017-07-20T09:57:28Z</time>
      </trkpt>
      <trkpt lat="48.24137" lon="7.21817">
        <ele>619.79998779297</ele>
        <time>2017-07-20T09:57:29Z</time>
      </trkpt>
      <trkpt lat="48.24123" lon="7.21833">
        <ele>621</ele>
        <time>2017-07-20T09:57:36Z</time>
      </trkpt>
      <trkpt lat="48.24121" lon="7.21835">
        <ele>621</ele>
        <time>2017-07-20T09:57:37Z</time>
      </trkpt>
      <trkpt lat="48.24111" lon="7.21845">
        <ele>622</ele>
        <time>2017-07-20T09:57:42Z</time>
      </trkpt>
      <trkpt lat="48.24109" lon="7.21848">
        <ele>622.20001220703</ele>
        <time>2017-07-20T09:57:43Z</time>
      </trkpt>
      <trkpt lat="48.24097" lon="7.21861">
        <ele>623.20001220703</ele>
        <time>2017-07-20T09:57:49Z</time>
      </trkpt>
      <trkpt lat="48.24093" lon="7.21865">
        <ele>623.40002441406</ele>
        <time>2017-07-20T09:57:51Z</time>
      </trkpt>
      <trkpt lat="48.24084" lon="7.21872">
        <ele>624.20001220703</ele>
        <time>2017-07-20T09:57:55Z</time>
      </trkpt>
      <trkpt lat="48.2408" lon="7.21874">
        <ele>624.59997558594</ele>
        <time>2017-07-20T09:57:57Z</time>
      </trkpt>
      <trkpt lat="48.24069" lon="7.21875">
        <ele>625.40002441406</ele>
        <time>2017-07-20T09:58:01Z</time>
      </trkpt>
      <trkpt lat="48.2406" lon="7.21872">
        <ele>626</ele>
        <time>2017-07-20T09:58:05Z</time>
      </trkpt>
      <trkpt lat="48.24058" lon="7.21871">
        <ele>626.40002441406</ele>
        <time>2017-07-20T09:58:06Z</time>
      </trkpt>
      <trkpt lat="48.24047" lon="7.21861">
        <ele>627.59997558594</ele>
        <time>2017-07-20T09:58:11Z</time>
      </trkpt>
      <trkpt lat="48.24043" lon="7.21857">
        <ele>627.79998779297</ele>
        <time>2017-07-20T09:58:13Z</time>
      </trkpt>
      <trkpt lat="48.24035" lon="7.21843">
        <ele>628.59997558594</ele>
        <time>2017-07-20T09:58:18Z</time>
      </trkpt>
      <trkpt lat="48.24023" lon="7.21831">
        <ele>629.59997558594</ele>
        <time>2017-07-20T09:58:24Z</time>
      </trkpt>
      <trkpt lat="48.24019" lon="7.21826">
        <ele>629.79998779297</ele>
        <time>2017-07-20T09:58:26Z</time>
      </trkpt>
      <trkpt lat="48.2401" lon="7.21815">
        <ele>630.79998779297</ele>
        <time>2017-07-20T09:58:31Z</time>
      </trkpt>
      <trkpt lat="48.23996" lon="7.21802">
        <ele>632</ele>
        <time>2017-07-20T09:58:38Z</time>
      </trkpt>
      <trkpt lat="48.23994" lon="7.21799">
        <ele>632.20001220703</ele>
        <time>2017-07-20T09:58:39Z</time>
      </trkpt>
      <trkpt lat="48.23988" lon="7.21791">
        <ele>632.79998779297</ele>
        <time>2017-07-20T09:58:43Z</time>
      </trkpt>
      <trkpt lat="48.23986" lon="7.2179">
        <ele>633</ele>
        <time>2017-07-20T09:58:44Z</time>
      </trkpt>
      <trkpt lat="48.23984" lon="7.21788">
        <ele>633.20001220703</ele>
        <time>2017-07-20T09:58:45Z</time>
      </trkpt>
      <trkpt lat="48.23972" lon="7.21779">
        <ele>634.20001220703</ele>
        <time>2017-07-20T09:58:51Z</time>
      </trkpt>
      <trkpt lat="48.23961" lon="7.21777">
        <ele>635.20001220703</ele>
        <time>2017-07-20T09:58:56Z</time>
      </trkpt>
      <trkpt lat="48.23959" lon="7.21778">
        <ele>635.40002441406</ele>
        <time>2017-07-20T09:58:57Z</time>
      </trkpt>
      <trkpt lat="48.23949" lon="7.2178">
        <ele>636.20001220703</ele>
        <time>2017-07-20T09:59:01Z</time>
      </trkpt>
      <trkpt lat="48.23942" lon="7.21782">
        <ele>636.79998779297</ele>
        <time>2017-07-20T09:59:04Z</time>
      </trkpt>
      <trkpt lat="48.23935" lon="7.21782">
        <ele>637.40002441406</ele>
        <time>2017-07-20T09:59:07Z</time>
      </trkpt>
      <trkpt lat="48.23929" lon="7.21783">
        <ele>637.79998779297</ele>
        <time>2017-07-20T09:59:10Z</time>
      </trkpt>
      <trkpt lat="48.23922" lon="7.21785">
        <ele>638.40002441406</ele>
        <time>2017-07-20T09:59:13Z</time>
      </trkpt>
      <trkpt lat="48.23913" lon="7.21786">
        <ele>639</ele>
        <time>2017-07-20T09:59:17Z</time>
      </trkpt>
      <trkpt lat="48.23911" lon="7.21787">
        <ele>639.40002441406</ele>
        <time>2017-07-20T09:59:18Z</time>
      </trkpt>
      <trkpt lat="48.23896" lon="7.21791">
        <ele>640.59997558594</ele>
        <time>2017-07-20T09:59:25Z</time>
      </trkpt>
      <trkpt lat="48.23882" lon="7.21797">
        <ele>641.40002441406</ele>
        <time>2017-07-20T09:59:31Z</time>
      </trkpt>
      <trkpt lat="48.2388" lon="7.21798">
        <ele>641.59997558594</ele>
        <time>2017-07-20T09:59:32Z</time>
      </trkpt>
      <trkpt lat="48.23869" lon="7.21803">
        <ele>642.40002441406</ele>
        <time>2017-07-20T09:59:37Z</time>
      </trkpt>
      <trkpt lat="48.23861" lon="7.21805">
        <ele>642.79998779297</ele>
        <time>2017-07-20T09:59:40Z</time>
      </trkpt>
      <trkpt lat="48.2385" lon="7.21809">
        <ele>643.59997558594</ele>
        <time>2017-07-20T09:59:45Z</time>
      </trkpt>
      <trkpt lat="48.23848" lon="7.21809">
        <ele>643.79998779297</ele>
        <time>2017-07-20T09:59:47Z</time>
      </trkpt>
      <trkpt lat="48.23832" lon="7.21817">
        <ele>645</ele>
        <time>2017-07-20T09:59:54Z</time>
      </trkpt>
      <trkpt lat="48.23818" lon="7.21823">
        <ele>646</ele>
        <time>2017-07-20T10:00:00Z</time>
      </trkpt>
      <trkpt lat="48.23815" lon="7.21824">
        <ele>646.20001220703</ele>
        <time>2017-07-20T10:00:01Z</time>
      </trkpt>
      <trkpt lat="48.23803" lon="7.21827">
        <ele>647</ele>
        <time>2017-07-20T10:00:06Z</time>
      </trkpt>
      <trkpt lat="48.23792" lon="7.2183">
        <ele>648</ele>
        <time>2017-07-20T10:00:11Z</time>
      </trkpt>
      <trkpt lat="48.23775" lon="7.21835">
        <ele>649</ele>
        <time>2017-07-20T10:00:18Z</time>
      </trkpt>
      <trkpt lat="48.23773" lon="7.21835">
        <ele>649.20001220703</ele>
        <time>2017-07-20T10:00:19Z</time>
      </trkpt>
      <trkpt lat="48.2376" lon="7.21837">
        <ele>650.20001220703</ele>
        <time>2017-07-20T10:00:24Z</time>
      </trkpt>
      <trkpt lat="48.23755" lon="7.21838">
        <ele>650.59997558594</ele>
        <time>2017-07-20T10:00:26Z</time>
      </trkpt>
      <trkpt lat="48.23745" lon="7.21842">
        <ele>651.20001220703</ele>
        <time>2017-07-20T10:00:30Z</time>
      </trkpt>
      <trkpt lat="48.23732" lon="7.21846">
        <ele>652.40002441406</ele>
        <time>2017-07-20T10:00:35Z</time>
      </trkpt>
      <trkpt lat="48.23717" lon="7.21855">
        <ele>653.40002441406</ele>
        <time>2017-07-20T10:00:41Z</time>
      </trkpt>
      <trkpt lat="48.23714" lon="7.21857">
        <ele>653.59997558594</ele>
        <time>2017-07-20T10:00:42Z</time>
      </trkpt>
      <trkpt lat="48.23698" lon="7.21867">
        <ele>654.40002441406</ele>
        <time>2017-07-20T10:00:48Z</time>
      </trkpt>
      <trkpt lat="48.23696" lon="7.21869">
        <ele>654.59997558594</ele>
        <time>2017-07-20T10:00:49Z</time>
      </trkpt>
      <trkpt lat="48.23682" lon="7.21884">
        <ele>655.59997558594</ele>
        <time>2017-07-20T10:00:55Z</time>
      </trkpt>
      <trkpt lat="48.23677" lon="7.21889">
        <ele>656</ele>
        <time>2017-07-20T10:00:57Z</time>
      </trkpt>
      <trkpt lat="48.23666" lon="7.21899">
        <ele>656.79998779297</ele>
        <time>2017-07-20T10:01:02Z</time>
      </trkpt>
      <trkpt lat="48.23659" lon="7.21905">
        <ele>657.20001220703</ele>
        <time>2017-07-20T10:01:05Z</time>
      </trkpt>
      <trkpt lat="48.23651" lon="7.21914">
        <ele>657.79998779297</ele>
        <time>2017-07-20T10:01:09Z</time>
      </trkpt>
      <trkpt lat="48.23642" lon="7.21923">
        <ele>658.40002441406</ele>
        <time>2017-07-20T10:01:13Z</time>
      </trkpt>
      <trkpt lat="48.2363" lon="7.21933">
        <ele>659</ele>
        <time>2017-07-20T10:01:18Z</time>
      </trkpt>
      <trkpt lat="48.23625" lon="7.21937">
        <ele>659.40002441406</ele>
        <time>2017-07-20T10:01:20Z</time>
      </trkpt>
      <trkpt lat="48.23609" lon="7.21952">
        <ele>660</ele>
        <time>2017-07-20T10:01:26Z</time>
      </trkpt>
      <trkpt lat="48.23606" lon="7.21955">
        <ele>660.20001220703</ele>
        <time>2017-07-20T10:01:27Z</time>
      </trkpt>
      <trkpt lat="48.23587" lon="7.21969">
        <ele>661.20001220703</ele>
        <time>2017-07-20T10:01:34Z</time>
      </trkpt>
      <trkpt lat="48.23566" lon="7.21982">
        <ele>662.20001220703</ele>
        <time>2017-07-20T10:01:42Z</time>
      </trkpt>
      <trkpt lat="48.23563" lon="7.21984">
        <ele>662.40002441406</ele>
        <time>2017-07-20T10:01:43Z</time>
      </trkpt>
      <trkpt lat="48.23552" lon="7.21992">
        <ele>663</ele>
        <time>2017-07-20T10:01:47Z</time>
      </trkpt>
      <trkpt lat="48.23537" lon="7.22002">
        <ele>663.59997558594</ele>
        <time>2017-07-20T10:01:52Z</time>
      </trkpt>
      <trkpt lat="48.23533" lon="7.22004">
        <ele>663.59997558594</ele>
        <time>2017-07-20T10:01:53Z</time>
      </trkpt>
      <trkpt lat="48.23517" lon="7.22014">
        <ele>664.59997558594</ele>
        <time>2017-07-20T10:01:58Z</time>
      </trkpt>
      <trkpt lat="48.23507" lon="7.22021">
        <ele>665</ele>
        <time>2017-07-20T10:02:01Z</time>
      </trkpt>
      <trkpt lat="48.23494" lon="7.2203">
        <ele>665.59997558594</ele>
        <time>2017-07-20T10:02:05Z</time>
      </trkpt>
      <trkpt lat="48.23474" lon="7.22044">
        <ele>666.59997558594</ele>
        <time>2017-07-20T10:02:11Z</time>
      </trkpt>
      <trkpt lat="48.23471" lon="7.22046">
        <ele>666.79998779297</ele>
        <time>2017-07-20T10:02:12Z</time>
      </trkpt>
      <trkpt lat="48.23453" lon="7.22063">
        <ele>667.59997558594</ele>
        <time>2017-07-20T10:02:18Z</time>
      </trkpt>
      <trkpt lat="48.23448" lon="7.22069">
        <ele>667.79998779297</ele>
        <time>2017-07-20T10:02:20Z</time>
      </trkpt>
      <trkpt lat="48.23432" lon="7.22083">
        <ele>668.59997558594</ele>
        <time>2017-07-20T10:02:25Z</time>
      </trkpt>
      <trkpt lat="48.23418" lon="7.22093">
        <ele>668.79998779297</ele>
        <time>2017-07-20T10:02:29Z</time>
      </trkpt>
      <trkpt lat="48.23407" lon="7.22099">
        <ele>669.20001220703</ele>
        <time>2017-07-20T10:02:32Z</time>
      </trkpt>
      <trkpt lat="48.23388" lon="7.22109">
        <ele>669.59997558594</ele>
        <time>2017-07-20T10:02:37Z</time>
      </trkpt>
      <trkpt lat="48.23371" lon="7.22116">
        <ele>669.79998779297</ele>
        <time>2017-07-20T10:02:41Z</time>
      </trkpt>
      <trkpt lat="48.23359" lon="7.22122">
        <ele>670</ele>
        <time>2017-07-20T10:02:44Z</time>
      </trkpt>
      <trkpt lat="48.23334" lon="7.22129">
        <ele>670.20001220703</ele>
        <time>2017-07-20T10:02:50Z</time>
      </trkpt>
      <trkpt lat="48.23302" lon="7.22133">
        <ele>670.40002441406</ele>
        <time>2017-07-20T10:02:56Z</time>
      </trkpt>
      <trkpt lat="48.23271" lon="7.22126">
        <ele>670.79998779297</ele>
        <time>2017-07-20T10:03:03Z</time>
      </trkpt>
      <trkpt lat="48.23267" lon="7.22126">
        <ele>671</ele>
        <time>2017-07-20T10:03:04Z</time>
      </trkpt>
      <trkpt lat="48.23243" lon="7.22118">
        <ele>671.79998779297</ele>
        <time>2017-07-20T10:03:10Z</time>
      </trkpt>
      <trkpt lat="48.23236" lon="7.22116">
        <ele>672.20001220703</ele>
        <time>2017-07-20T10:03:12Z</time>
      </trkpt>
      <trkpt lat="48.23216" lon="7.22109">
        <ele>673.20001220703</ele>
        <time>2017-07-20T10:03:18Z</time>
      </trkpt>
      <trkpt lat="48.23203" lon="7.22104">
        <ele>674.20001220703</ele>
        <time>2017-07-20T10:03:23Z</time>
      </trkpt>
      <trkpt lat="48.23196" lon="7.22102">
        <ele>674.59997558594</ele>
        <time>2017-07-20T10:03:26Z</time>
      </trkpt>
      <trkpt lat="48.23187" lon="7.221">
        <ele>675.20001220703</ele>
        <time>2017-07-20T10:03:29Z</time>
      </trkpt>
      <trkpt lat="48.23176" lon="7.22095">
        <ele>676</ele>
        <time>2017-07-20T10:03:33Z</time>
      </trkpt>
      <trkpt lat="48.23168" lon="7.22093">
        <ele>676.40002441406</ele>
        <time>2017-07-20T10:03:36Z</time>
      </trkpt>
      <trkpt lat="48.23154" lon="7.22094">
        <ele>677.40002441406</ele>
        <time>2017-07-20T10:03:41Z</time>
      </trkpt>
      <trkpt lat="48.23145" lon="7.22095">
        <ele>678.59997558594</ele>
        <time>2017-07-20T10:03:45Z</time>
      </trkpt>
      <trkpt lat="48.23139" lon="7.22098">
        <ele>679</ele>
        <time>2017-07-20T10:03:48Z</time>
      </trkpt>
      <trkpt lat="48.23134" lon="7.221">
        <ele>679.59997558594</ele>
        <time>2017-07-20T10:03:51Z</time>
      </trkpt>
      <trkpt lat="48.23126" lon="7.22102">
        <ele>680</ele>
        <time>2017-07-20T10:03:55Z</time>
      </trkpt>
      <trkpt lat="48.23119" lon="7.22105">
        <ele>680.59997558594</ele>
        <time>2017-07-20T10:03:59Z</time>
      </trkpt>
      <trkpt lat="48.23115" lon="7.22106">
        <ele>680.79998779297</ele>
        <time>2017-07-20T10:04:01Z</time>
      </trkpt>
      <trkpt lat="48.23106" lon="7.2211">
        <ele>681.59997558594</ele>
        <time>2017-07-20T10:04:06Z</time>
      </trkpt>
      <trkpt lat="48.23103" lon="7.22111">
        <ele>682.20001220703</ele>
        <time>2017-07-20T10:04:08Z</time>
      </trkpt>
      <trkpt lat="48.23097" lon="7.22113">
        <ele>682.79998779297</ele>
        <time>2017-07-20T10:04:12Z</time>
      </trkpt>
      <trkpt lat="48.23094" lon="7.22113">
        <ele>683</ele>
        <time>2017-07-20T10:04:13Z</time>
      </trkpt>
      <trkpt lat="48.23081" lon="7.22119">
        <ele>683.79998779297</ele>
        <time>2017-07-20T10:04:18Z</time>
      </trkpt>
      <trkpt lat="48.23075" lon="7.22121">
        <ele>684.20001220703</ele>
        <time>2017-07-20T10:04:20Z</time>
      </trkpt>
      <trkpt lat="48.23067" lon="7.22122">
        <ele>684.79998779297</ele>
        <time>2017-07-20T10:04:24Z</time>
      </trkpt>
      <trkpt lat="48.23062" lon="7.22125">
        <ele>685.20001220703</ele>
        <time>2017-07-20T10:04:26Z</time>
      </trkpt>
      <trkpt lat="48.23053" lon="7.2213">
        <ele>685.79998779297</ele>
        <time>2017-07-20T10:04:30Z</time>
      </trkpt>
      <trkpt lat="48.23046" lon="7.22133">
        <ele>686.59997558594</ele>
        <time>2017-07-20T10:04:33Z</time>
      </trkpt>
      <trkpt lat="48.23042" lon="7.22136">
        <ele>687</ele>
        <time>2017-07-20T10:04:35Z</time>
      </trkpt>
      <trkpt lat="48.2303" lon="7.22151">
        <ele>687.79998779297</ele>
        <time>2017-07-20T10:04:41Z</time>
      </trkpt>
      <trkpt lat="48.23028" lon="7.22154">
        <ele>688</ele>
        <time>2017-07-20T10:04:42Z</time>
      </trkpt>
      <trkpt lat="48.23024" lon="7.22173">
        <ele>688.79998779297</ele>
        <time>2017-07-20T10:04:47Z</time>
      </trkpt>
      <trkpt lat="48.23024" lon="7.22186">
        <ele>689.20001220703</ele>
        <time>2017-07-20T10:04:50Z</time>
      </trkpt>
      <trkpt lat="48.23024" lon="7.22193">
        <ele>689.59997558594</ele>
        <time>2017-07-20T10:04:52Z</time>
      </trkpt>
      <trkpt lat="48.23031" lon="7.22208">
        <ele>690.20001220703</ele>
        <time>2017-07-20T10:04:56Z</time>
      </trkpt>
      <trkpt lat="48.23034" lon="7.22213">
        <ele>690.40002441406</ele>
        <time>2017-07-20T10:04:57Z</time>
      </trkpt>
      <trkpt lat="48.23051" lon="7.22242">
        <ele>690.79998779297</ele>
        <time>2017-07-20T10:05:04Z</time>
      </trkpt>
      <trkpt lat="48.23055" lon="7.22253">
        <ele>691</ele>
        <time>2017-07-20T10:05:06Z</time>
      </trkpt>
      <trkpt lat="48.23067" lon="7.22279">
        <ele>691.20001220703</ele>
        <time>2017-07-20T10:05:11Z</time>
      </trkpt>
      <trkpt lat="48.23068" lon="7.22285">
        <ele>691.20001220703</ele>
        <time>2017-07-20T10:05:12Z</time>
      </trkpt>
      <trkpt lat="48.23074" lon="7.22308">
        <ele>691.20001220703</ele>
        <time>2017-07-20T10:05:16Z</time>
      </trkpt>
      <trkpt lat="48.23078" lon="7.22323">
        <ele>691.20001220703</ele>
        <time>2017-07-20T10:05:19Z</time>
      </trkpt>
      <trkpt lat="48.23088" lon="7.22358">
        <ele>691.40002441406</ele>
        <time>2017-07-20T10:05:25Z</time>
      </trkpt>
      <trkpt lat="48.23098" lon="7.22393">
        <ele>692</ele>
        <time>2017-07-20T10:05:31Z</time>
      </trkpt>
      <trkpt lat="48.23098" lon="7.22409">
        <ele>692.40002441406</ele>
        <time>2017-07-20T10:05:34Z</time>
      </trkpt>
      <trkpt lat="48.23094" lon="7.22427">
        <ele>692.79998779297</ele>
        <time>2017-07-20T10:05:37Z</time>
      </trkpt>
      <trkpt lat="48.23082" lon="7.22453">
        <ele>693.40002441406</ele>
        <time>2017-07-20T10:05:42Z</time>
      </trkpt>
      <trkpt lat="48.2308" lon="7.22457">
        <ele>693.59997558594</ele>
        <time>2017-07-20T10:05:43Z</time>
      </trkpt>
      <trkpt lat="48.23075" lon="7.22469">
        <ele>694.59997558594</ele>
        <time>2017-07-20T10:05:46Z</time>
      </trkpt>
      <trkpt lat="48.23067" lon="7.22481">
        <ele>695.40002441406</ele>
        <time>2017-07-20T10:05:50Z</time>
      </trkpt>
      <trkpt lat="48.23065" lon="7.22484">
        <ele>695.59997558594</ele>
        <time>2017-07-20T10:05:51Z</time>
      </trkpt>
      <trkpt lat="48.23054" lon="7.22492">
        <ele>696.40002441406</ele>
        <time>2017-07-20T10:05:55Z</time>
      </trkpt>
      <trkpt lat="48.23048" lon="7.22496">
        <ele>696.59997558594</ele>
        <time>2017-07-20T10:05:57Z</time>
      </trkpt>
      <trkpt lat="48.23036" lon="7.22503">
        <ele>697.20001220703</ele>
        <time>2017-07-20T10:06:02Z</time>
      </trkpt>
      <trkpt lat="48.23032" lon="7.22507">
        <ele>697.59997558594</ele>
        <time>2017-07-20T10:06:04Z</time>
      </trkpt>
      <trkpt lat="48.23025" lon="7.2251">
        <ele>698.40002441406</ele>
        <time>2017-07-20T10:06:07Z</time>
      </trkpt>
      <trkpt lat="48.2302" lon="7.22512">
        <ele>698.79998779297</ele>
        <time>2017-07-20T10:06:09Z</time>
      </trkpt>
      <trkpt lat="48.23" lon="7.22517">
        <ele>699.59997558594</ele>
        <time>2017-07-20T10:06:15Z</time>
      </trkpt>
      <trkpt lat="48.22997" lon="7.22518">
        <ele>699.79998779297</ele>
        <time>2017-07-20T10:06:16Z</time>
      </trkpt>
      <trkpt lat="48.22972" lon="7.22516">
        <ele>700.59997558594</ele>
        <time>2017-07-20T10:06:23Z</time>
      </trkpt>
      <trkpt lat="48.22965" lon="7.22515">
        <ele>700.79998779297</ele>
        <time>2017-07-20T10:06:25Z</time>
      </trkpt>
      <trkpt lat="48.22945" lon="7.22512">
        <ele>701.79998779297</ele>
        <time>2017-07-20T10:06:31Z</time>
      </trkpt>
      <trkpt lat="48.22942" lon="7.22511">
        <ele>702</ele>
        <time>2017-07-20T10:06:32Z</time>
      </trkpt>
      <trkpt lat="48.22917" lon="7.22507">
        <ele>703</ele>
        <time>2017-07-20T10:06:40Z</time>
      </trkpt>
      <trkpt lat="48.22914" lon="7.22506">
        <ele>703.20001220703</ele>
        <time>2017-07-20T10:06:41Z</time>
      </trkpt>
      <trkpt lat="48.22893" lon="7.225">
        <ele>704.20001220703</ele>
        <time>2017-07-20T10:06:48Z</time>
      </trkpt>
      <trkpt lat="48.22877" lon="7.22493">
        <ele>705</ele>
        <time>2017-07-20T10:06:55Z</time>
      </trkpt>
      <trkpt lat="48.22875" lon="7.22493">
        <ele>705.20001220703</ele>
        <time>2017-07-20T10:06:56Z</time>
      </trkpt>
      <trkpt lat="48.22865" lon="7.22496">
        <ele>705.79998779297</ele>
        <time>2017-07-20T10:07:00Z</time>
      </trkpt>
      <trkpt lat="48.22851" lon="7.22501">
        <ele>706.40002441406</ele>
        <time>2017-07-20T10:07:05Z</time>
      </trkpt>
      <trkpt lat="48.22847" lon="7.22507">
        <ele>706.59997558594</ele>
        <time>2017-07-20T10:07:07Z</time>
      </trkpt>
      <trkpt lat="48.22842" lon="7.22526">
        <ele>707.20001220703</ele>
        <time>2017-07-20T10:07:12Z</time>
      </trkpt>
      <trkpt lat="48.22842" lon="7.2253">
        <ele>707.40002441406</ele>
        <time>2017-07-20T10:07:13Z</time>
      </trkpt>
      <trkpt lat="48.22843" lon="7.22554">
        <ele>708.20001220703</ele>
        <time>2017-07-20T10:07:18Z</time>
      </trkpt>
      <trkpt lat="48.22842" lon="7.22565">
        <ele>708.59997558594</ele>
        <time>2017-07-20T10:07:20Z</time>
      </trkpt>
      <trkpt lat="48.22838" lon="7.2259">
        <ele>709.20001220703</ele>
        <time>2017-07-20T10:07:25Z</time>
      </trkpt>
      <trkpt lat="48.22833" lon="7.22603">
        <ele>709.59997558594</ele>
        <time>2017-07-20T10:07:28Z</time>
      </trkpt>
      <trkpt lat="48.22828" lon="7.22613">
        <ele>710</ele>
        <time>2017-07-20T10:07:31Z</time>
      </trkpt>
      <trkpt lat="48.22808" lon="7.22616">
        <ele>710.40002441406</ele>
        <time>2017-07-20T10:07:36Z</time>
      </trkpt>
      <trkpt lat="48.22804" lon="7.22616">
        <ele>710.59997558594</ele>
        <time>2017-07-20T10:07:37Z</time>
      </trkpt>
      <trkpt lat="48.22782" lon="7.22615">
        <ele>711.59997558594</ele>
        <time>2017-07-20T10:07:43Z</time>
      </trkpt>
      <trkpt lat="48.2278" lon="7.22614">
        <ele>712</ele>
        <time>2017-07-20T10:07:44Z</time>
      </trkpt>
      <trkpt lat="48.22766" lon="7.22608">
        <ele>712.40002441406</ele>
        <time>2017-07-20T10:07:49Z</time>
      </trkpt>
      <trkpt lat="48.22754" lon="7.22607">
        <ele>713</ele>
        <time>2017-07-20T10:07:53Z</time>
      </trkpt>
      <trkpt lat="48.22745" lon="7.22609">
        <ele>713.40002441406</ele>
        <time>2017-07-20T10:07:56Z</time>
      </trkpt>
      <trkpt lat="48.22729" lon="7.22617">
        <ele>714</ele>
        <time>2017-07-20T10:08:01Z</time>
      </trkpt>
      <trkpt lat="48.22727" lon="7.2262">
        <ele>714.20001220703</ele>
        <time>2017-07-20T10:08:02Z</time>
      </trkpt>
      <trkpt lat="48.22715" lon="7.22636">
        <ele>715</ele>
        <time>2017-07-20T10:08:07Z</time>
      </trkpt>
      <trkpt lat="48.22701" lon="7.22666">
        <ele>716</ele>
        <time>2017-07-20T10:08:13Z</time>
      </trkpt>
      <trkpt lat="48.22699" lon="7.22671">
        <ele>716.20001220703</ele>
        <time>2017-07-20T10:08:14Z</time>
      </trkpt>
      <trkpt lat="48.22694" lon="7.22689">
        <ele>716.59997558594</ele>
        <time>2017-07-20T10:08:18Z</time>
      </trkpt>
      <trkpt lat="48.22688" lon="7.22705">
        <ele>717.20001220703</ele>
        <time>2017-07-20T10:08:22Z</time>
      </trkpt>
      <trkpt lat="48.22681" lon="7.22722">
        <ele>717.79998779297</ele>
        <time>2017-07-20T10:08:26Z</time>
      </trkpt>
      <trkpt lat="48.22678" lon="7.22735">
        <ele>718.40002441406</ele>
        <time>2017-07-20T10:08:29Z</time>
      </trkpt>
      <trkpt lat="48.22673" lon="7.22753">
        <ele>718.79998779297</ele>
        <time>2017-07-20T10:08:34Z</time>
      </trkpt>
      <trkpt lat="48.22667" lon="7.22785">
        <ele>719.20001220703</ele>
        <time>2017-07-20T10:08:41Z</time>
      </trkpt>
      <trkpt lat="48.2266" lon="7.22808">
        <ele>719.40002441406</ele>
        <time>2017-07-20T10:08:47Z</time>
      </trkpt>
      <trkpt lat="48.2266" lon="7.22817">
        <ele>719</ele>
        <time>2017-07-20T10:09:12Z</time>
      </trkpt>
      <trkpt lat="48.22656" lon="7.22833">
        <ele>719</ele>
        <time>2017-07-20T10:09:16Z</time>
      </trkpt>
      <trkpt lat="48.22649" lon="7.2286">
        <ele>719</ele>
        <time>2017-07-20T10:09:21Z</time>
      </trkpt>
      <trkpt lat="48.22643" lon="7.22877">
        <ele>719</ele>
        <time>2017-07-20T10:09:24Z</time>
      </trkpt>
      <trkpt lat="48.22635" lon="7.22895">
        <ele>719</ele>
        <time>2017-07-20T10:09:27Z</time>
      </trkpt>
      <trkpt lat="48.22631" lon="7.22907">
        <ele>718.79998779297</ele>
        <time>2017-07-20T10:09:29Z</time>
      </trkpt>
      <trkpt lat="48.22625" lon="7.22927">
        <ele>718.79998779297</ele>
        <time>2017-07-20T10:09:32Z</time>
      </trkpt>
      <trkpt lat="48.22624" lon="7.22935">
        <ele>718.79998779297</ele>
        <time>2017-07-20T10:09:33Z</time>
      </trkpt>
      <trkpt lat="48.22623" lon="7.22956">
        <ele>718.59997558594</ele>
        <time>2017-07-20T10:09:36Z</time>
      </trkpt>
      <trkpt lat="48.22625" lon="7.22971">
        <ele>718.59997558594</ele>
        <time>2017-07-20T10:09:38Z</time>
      </trkpt>
      <trkpt lat="48.22632" lon="7.22997">
        <ele>718.40002441406</ele>
        <time>2017-07-20T10:09:42Z</time>
      </trkpt>
      <trkpt lat="48.22635" lon="7.23003">
        <ele>718.40002441406</ele>
        <time>2017-07-20T10:09:43Z</time>
      </trkpt>
      <trkpt lat="48.22638" lon="7.2301">
        <ele>718.40002441406</ele>
        <time>2017-07-20T10:09:44Z</time>
      </trkpt>
      <trkpt lat="48.2265" lon="7.23042">
        <ele>718.20001220703</ele>
        <time>2017-07-20T10:09:49Z</time>
      </trkpt>
      <trkpt lat="48.22667" lon="7.23089">
        <ele>718</ele>
        <time>2017-07-20T10:09:56Z</time>
      </trkpt>
      <trkpt lat="48.22685" lon="7.23142">
        <ele>718</ele>
        <time>2017-07-20T10:10:04Z</time>
      </trkpt>
      <trkpt lat="48.2269" lon="7.23171">
        <ele>718</ele>
        <time>2017-07-20T10:10:08Z</time>
      </trkpt>
      <trkpt lat="48.22692" lon="7.23187">
        <ele>717.79998779297</ele>
        <time>2017-07-20T10:10:10Z</time>
      </trkpt>
      <trkpt lat="48.227" lon="7.2321">
        <ele>717.40002441406</ele>
        <time>2017-07-20T10:10:13Z</time>
      </trkpt>
      <trkpt lat="48.22705" lon="7.23217">
        <ele>717.20001220703</ele>
        <time>2017-07-20T10:10:14Z</time>
      </trkpt>
      <trkpt lat="48.2271" lon="7.23224">
        <ele>716.79998779297</ele>
        <time>2017-07-20T10:10:15Z</time>
      </trkpt>
      <trkpt lat="48.22716" lon="7.23232">
        <ele>716.40002441406</ele>
        <time>2017-07-20T10:10:16Z</time>
      </trkpt>
      <trkpt lat="48.22729" lon="7.23248">
        <ele>715.40002441406</ele>
        <time>2017-07-20T10:10:18Z</time>
      </trkpt>
      <trkpt lat="48.22735" lon="7.23259">
        <ele>714.79998779297</ele>
        <time>2017-07-20T10:10:19Z</time>
      </trkpt>
      <trkpt lat="48.22746" lon="7.23282">
        <ele>713.79998779297</ele>
        <time>2017-07-20T10:10:21Z</time>
      </trkpt>
      <trkpt lat="48.2275" lon="7.23294">
        <ele>713.20001220703</ele>
        <time>2017-07-20T10:10:22Z</time>
      </trkpt>
      <trkpt lat="48.22753" lon="7.23306">
        <ele>712.40002441406</ele>
        <time>2017-07-20T10:10:23Z</time>
      </trkpt>
      <trkpt lat="48.22757" lon="7.23335">
        <ele>711</ele>
        <time>2017-07-20T10:10:25Z</time>
      </trkpt>
      <trkpt lat="48.22756" lon="7.2335">
        <ele>710.20001220703</ele>
        <time>2017-07-20T10:10:26Z</time>
      </trkpt>
      <trkpt lat="48.22756" lon="7.23366">
        <ele>709.59997558594</ele>
        <time>2017-07-20T10:10:27Z</time>
      </trkpt>
      <trkpt lat="48.2276" lon="7.23393">
        <ele>708.40002441406</ele>
        <time>2017-07-20T10:10:29Z</time>
      </trkpt>
      <trkpt lat="48.22764" lon="7.23405">
        <ele>708</ele>
        <time>2017-07-20T10:10:30Z</time>
      </trkpt>
      <trkpt lat="48.22774" lon="7.23431">
        <ele>706.59997558594</ele>
        <time>2017-07-20T10:10:32Z</time>
      </trkpt>
      <trkpt lat="48.22784" lon="7.23459">
        <ele>705.40002441406</ele>
        <time>2017-07-20T10:10:34Z</time>
      </trkpt>
      <trkpt lat="48.22795" lon="7.23487">
        <ele>704</ele>
        <time>2017-07-20T10:10:36Z</time>
      </trkpt>
      <trkpt lat="48.22803" lon="7.235">
        <ele>703.20001220703</ele>
        <time>2017-07-20T10:10:37Z</time>
      </trkpt>
      <trkpt lat="48.22811" lon="7.23511">
        <ele>702.40002441406</ele>
        <time>2017-07-20T10:10:38Z</time>
      </trkpt>
      <trkpt lat="48.22826" lon="7.23535">
        <ele>700.79998779297</ele>
        <time>2017-07-20T10:10:40Z</time>
      </trkpt>
      <trkpt lat="48.22843" lon="7.23561">
        <ele>699.20001220703</ele>
        <time>2017-07-20T10:10:42Z</time>
      </trkpt>
      <trkpt lat="48.2285" lon="7.23576">
        <ele>698.20001220703</ele>
        <time>2017-07-20T10:10:43Z</time>
      </trkpt>
      <trkpt lat="48.22857" lon="7.2359">
        <ele>697.40002441406</ele>
        <time>2017-07-20T10:10:44Z</time>
      </trkpt>
      <trkpt lat="48.22871" lon="7.23613">
        <ele>695.59997558594</ele>
        <time>2017-07-20T10:10:46Z</time>
      </trkpt>
      <trkpt lat="48.22876" lon="7.23627">
        <ele>694.79998779297</ele>
        <time>2017-07-20T10:10:47Z</time>
      </trkpt>
      <trkpt lat="48.22881" lon="7.23642">
        <ele>694</ele>
        <time>2017-07-20T10:10:48Z</time>
      </trkpt>
      <trkpt lat="48.22886" lon="7.23671">
        <ele>692.59997558594</ele>
        <time>2017-07-20T10:10:50Z</time>
      </trkpt>
      <trkpt lat="48.22888" lon="7.23683">
        <ele>691.79998779297</ele>
        <time>2017-07-20T10:10:51Z</time>
      </trkpt>
      <trkpt lat="48.22888" lon="7.23696">
        <ele>691.20001220703</ele>
        <time>2017-07-20T10:10:52Z</time>
      </trkpt>
      <trkpt lat="48.22883" lon="7.23718">
        <ele>689.79998779297</ele>
        <time>2017-07-20T10:10:54Z</time>
      </trkpt>
      <trkpt lat="48.22873" lon="7.23732">
        <ele>687.59997558594</ele>
        <time>2017-07-20T10:10:56Z</time>
      </trkpt>
      <trkpt lat="48.22867" lon="7.23736">
        <ele>687</ele>
        <time>2017-07-20T10:10:57Z</time>
      </trkpt>
      <trkpt lat="48.22859" lon="7.23739">
        <ele>686.20001220703</ele>
        <time>2017-07-20T10:10:58Z</time>
      </trkpt>
      <trkpt lat="48.2284" lon="7.23742">
        <ele>685</ele>
        <time>2017-07-20T10:11:00Z</time>
      </trkpt>
      <trkpt lat="48.22827" lon="7.23736">
        <ele>684.40002441406</ele>
        <time>2017-07-20T10:11:01Z</time>
      </trkpt>
      <trkpt lat="48.22815" lon="7.2373">
        <ele>683.79998779297</ele>
        <time>2017-07-20T10:11:02Z</time>
      </trkpt>
      <trkpt lat="48.22792" lon="7.23722">
        <ele>682.40002441406</ele>
        <time>2017-07-20T10:11:04Z</time>
      </trkpt>
      <trkpt lat="48.22772" lon="7.23716">
        <ele>681</ele>
        <time>2017-07-20T10:11:06Z</time>
      </trkpt>
      <trkpt lat="48.22758" lon="7.23711">
        <ele>679.59997558594</ele>
        <time>2017-07-20T10:11:08Z</time>
      </trkpt>
      <trkpt lat="48.2275" lon="7.237">
        <ele>678.20001220703</ele>
        <time>2017-07-20T10:11:10Z</time>
      </trkpt>
      <trkpt lat="48.22749" lon="7.23696">
        <ele>677</ele>
        <time>2017-07-20T10:11:12Z</time>
      </trkpt>
      <trkpt lat="48.22751" lon="7.23694">
        <ele>676.59997558594</ele>
        <time>2017-07-20T10:11:13Z</time>
      </trkpt>
      <trkpt lat="48.22757" lon="7.23693">
        <ele>675.79998779297</ele>
        <time>2017-07-20T10:11:15Z</time>
      </trkpt>
      <trkpt lat="48.22762" lon="7.23691">
        <ele>675.40002441406</ele>
        <time>2017-07-20T10:11:16Z</time>
      </trkpt>
      <trkpt lat="48.22771" lon="7.23682">
        <ele>674.59997558594</ele>
        <time>2017-07-20T10:11:18Z</time>
      </trkpt>
      <trkpt lat="48.22775" lon="7.23676">
        <ele>674.20001220703</ele>
        <time>2017-07-20T10:11:19Z</time>
      </trkpt>
      <trkpt lat="48.22781" lon="7.23663">
        <ele>673.40002441406</ele>
        <time>2017-07-20T10:11:21Z</time>
      </trkpt>
      <trkpt lat="48.22779" lon="7.23655">
        <ele>673</ele>
        <time>2017-07-20T10:11:22Z</time>
      </trkpt>
      <trkpt lat="48.22777" lon="7.23647">
        <ele>672.59997558594</ele>
        <time>2017-07-20T10:11:23Z</time>
      </trkpt>
      <trkpt lat="48.22776" lon="7.23639">
        <ele>672.20001220703</ele>
        <time>2017-07-20T10:11:24Z</time>
      </trkpt>
      <trkpt lat="48.22771" lon="7.23619">
        <ele>671</ele>
        <time>2017-07-20T10:11:27Z</time>
      </trkpt>
      <trkpt lat="48.22767" lon="7.23616">
        <ele>670.40002441406</ele>
        <time>2017-07-20T10:11:28Z</time>
      </trkpt>
      <trkpt lat="48.22764" lon="7.23614">
        <ele>669.79998779297</ele>
        <time>2017-07-20T10:11:29Z</time>
      </trkpt>
      <trkpt lat="48.22759" lon="7.23613">
        <ele>668.59997558594</ele>
        <time>2017-07-20T10:11:31Z</time>
      </trkpt>
      <trkpt lat="48.22757" lon="7.23613">
        <ele>668</ele>
        <time>2017-07-20T10:11:32Z</time>
      </trkpt>
      <trkpt lat="48.22752" lon="7.23614">
        <ele>667</ele>
        <time>2017-07-20T10:11:48Z</time>
      </trkpt>
      <trkpt lat="48.22748" lon="7.23614">
        <ele>667</ele>
        <time>2017-07-20T10:11:49Z</time>
      </trkpt>
      <trkpt lat="48.22733" lon="7.23603">
        <ele>666.79998779297</ele>
        <time>2017-07-20T10:11:53Z</time>
      </trkpt>
      <trkpt lat="48.22729" lon="7.23601">
        <ele>666.59997558594</ele>
        <time>2017-07-20T10:11:54Z</time>
      </trkpt>
      <trkpt lat="48.22712" lon="7.23593">
        <ele>666.20001220703</ele>
        <time>2017-07-20T10:11:57Z</time>
      </trkpt>
      <trkpt lat="48.22706" lon="7.23591">
        <ele>666</ele>
        <time>2017-07-20T10:11:58Z</time>
      </trkpt>
      <trkpt lat="48.22699" lon="7.23589">
        <ele>665.79998779297</ele>
        <time>2017-07-20T10:11:59Z</time>
      </trkpt>
      <trkpt lat="48.22669" lon="7.23589">
        <ele>664.59997558594</ele>
        <time>2017-07-20T10:12:03Z</time>
      </trkpt>
      <trkpt lat="48.22651" lon="7.23593">
        <ele>664</ele>
        <time>2017-07-20T10:12:05Z</time>
      </trkpt>
      <trkpt lat="48.22642" lon="7.23594">
        <ele>663.59997558594</ele>
        <time>2017-07-20T10:12:06Z</time>
      </trkpt>
      <trkpt lat="48.22632" lon="7.23595">
        <ele>663.20001220703</ele>
        <time>2017-07-20T10:12:07Z</time>
      </trkpt>
      <trkpt lat="48.22621" lon="7.23595">
        <ele>662</ele>
        <time>2017-07-20T10:12:08Z</time>
      </trkpt>
      <trkpt lat="48.2261" lon="7.23591">
        <ele>661.40002441406</ele>
        <time>2017-07-20T10:12:09Z</time>
      </trkpt>
      <trkpt lat="48.226" lon="7.23585">
        <ele>660.79998779297</ele>
        <time>2017-07-20T10:12:10Z</time>
      </trkpt>
      <trkpt lat="48.22579" lon="7.2357">
        <ele>659.20001220703</ele>
        <time>2017-07-20T10:12:12Z</time>
      </trkpt>
      <trkpt lat="48.22559" lon="7.23552">
        <ele>658</ele>
        <time>2017-07-20T10:12:14Z</time>
      </trkpt>
      <trkpt lat="48.22541" lon="7.23531">
        <ele>656.59997558594</ele>
        <time>2017-07-20T10:12:16Z</time>
      </trkpt>
      <trkpt lat="48.22523" lon="7.23509">
        <ele>655.59997558594</ele>
        <time>2017-07-20T10:12:18Z</time>
      </trkpt>
      <trkpt lat="48.22503" lon="7.23492">
        <ele>654.40002441406</ele>
        <time>2017-07-20T10:12:20Z</time>
      </trkpt>
      <trkpt lat="48.22478" lon="7.23485">
        <ele>652.79998779297</ele>
        <time>2017-07-20T10:12:22Z</time>
      </trkpt>
      <trkpt lat="48.22452" lon="7.23478">
        <ele>651.20001220703</ele>
        <time>2017-07-20T10:12:24Z</time>
      </trkpt>
      <trkpt lat="48.22426" lon="7.23474">
        <ele>649.59997558594</ele>
        <time>2017-07-20T10:12:26Z</time>
      </trkpt>
      <trkpt lat="48.22413" lon="7.23472">
        <ele>648.79998779297</ele>
        <time>2017-07-20T10:12:27Z</time>
      </trkpt>
      <trkpt lat="48.224" lon="7.2347">
        <ele>648</ele>
        <time>2017-07-20T10:12:28Z</time>
      </trkpt>
      <trkpt lat="48.22373" lon="7.23464">
        <ele>646</ele>
        <time>2017-07-20T10:12:30Z</time>
      </trkpt>
      <trkpt lat="48.22346" lon="7.23463">
        <ele>643.20001220703</ele>
        <time>2017-07-20T10:12:32Z</time>
      </trkpt>
      <trkpt lat="48.22319" lon="7.23463">
        <ele>641.40002441406</ele>
        <time>2017-07-20T10:12:34Z</time>
      </trkpt>
      <trkpt lat="48.22306" lon="7.23465">
        <ele>640.40002441406</ele>
        <time>2017-07-20T10:12:35Z</time>
      </trkpt>
      <trkpt lat="48.22294" lon="7.23468">
        <ele>639.40002441406</ele>
        <time>2017-07-20T10:12:36Z</time>
      </trkpt>
      <trkpt lat="48.22282" lon="7.23474">
        <ele>638.40002441406</ele>
        <time>2017-07-20T10:12:37Z</time>
      </trkpt>
      <trkpt lat="48.22257" lon="7.23484">
        <ele>636.59997558594</ele>
        <time>2017-07-20T10:12:39Z</time>
      </trkpt>
      <trkpt lat="48.22232" lon="7.2349">
        <ele>635.20001220703</ele>
        <time>2017-07-20T10:12:41Z</time>
      </trkpt>
      <trkpt lat="48.2222" lon="7.23494">
        <ele>634.40002441406</ele>
        <time>2017-07-20T10:12:42Z</time>
      </trkpt>
      <trkpt lat="48.2221" lon="7.23492">
        <ele>633.59997558594</ele>
        <time>2017-07-20T10:12:43Z</time>
      </trkpt>
      <trkpt lat="48.22194" lon="7.23494">
        <ele>631.79998779297</ele>
        <time>2017-07-20T10:12:45Z</time>
      </trkpt>
      <trkpt lat="48.22185" lon="7.23507">
        <ele>630</ele>
        <time>2017-07-20T10:12:47Z</time>
      </trkpt>
      <trkpt lat="48.22185" lon="7.2352">
        <ele>628.20001220703</ele>
        <time>2017-07-20T10:12:49Z</time>
      </trkpt>
      <trkpt lat="48.22193" lon="7.23536">
        <ele>627</ele>
        <time>2017-07-20T10:12:51Z</time>
      </trkpt>
      <trkpt lat="48.22197" lon="7.23544">
        <ele>626.40002441406</ele>
        <time>2017-07-20T10:12:52Z</time>
      </trkpt>
      <trkpt lat="48.22204" lon="7.23563">
        <ele>625.40002441406</ele>
        <time>2017-07-20T10:12:54Z</time>
      </trkpt>
      <trkpt lat="48.22204" lon="7.23567">
        <ele>625</ele>
        <time>2017-07-20T10:12:55Z</time>
      </trkpt>
      <trkpt lat="48.22201" lon="7.23574">
        <ele>623.79998779297</ele>
        <time>2017-07-20T10:12:56Z</time>
      </trkpt>
      <trkpt lat="48.22196" lon="7.23576">
        <ele>623.20001220703</ele>
        <time>2017-07-20T10:12:57Z</time>
      </trkpt>
      <trkpt lat="48.22191" lon="7.23578">
        <ele>622.79998779297</ele>
        <time>2017-07-20T10:12:58Z</time>
      </trkpt>
      <trkpt lat="48.22184" lon="7.23581">
        <ele>622.20001220703</ele>
        <time>2017-07-20T10:12:59Z</time>
      </trkpt>
      <trkpt lat="48.22168" lon="7.23586">
        <ele>621.40002441406</ele>
        <time>2017-07-20T10:13:01Z</time>
      </trkpt>
      <trkpt lat="48.2215" lon="7.23588">
        <ele>620.40002441406</ele>
        <time>2017-07-20T10:13:03Z</time>
      </trkpt>
      <trkpt lat="48.2213" lon="7.2359">
        <ele>619.20001220703</ele>
        <time>2017-07-20T10:13:05Z</time>
      </trkpt>
      <trkpt lat="48.22121" lon="7.2359">
        <ele>618.59997558594</ele>
        <time>2017-07-20T10:13:06Z</time>
      </trkpt>
      <trkpt lat="48.2211" lon="7.23591">
        <ele>618</ele>
        <time>2017-07-20T10:13:07Z</time>
      </trkpt>
      <trkpt lat="48.22088" lon="7.23594">
        <ele>616.59997558594</ele>
        <time>2017-07-20T10:13:09Z</time>
      </trkpt>
      <trkpt lat="48.22067" lon="7.23596">
        <ele>615.20001220703</ele>
        <time>2017-07-20T10:13:11Z</time>
      </trkpt>
      <trkpt lat="48.22056" lon="7.23596">
        <ele>614.59997558594</ele>
        <time>2017-07-20T10:13:12Z</time>
      </trkpt>
      <trkpt lat="48.22044" lon="7.23596">
        <ele>613.79998779297</ele>
        <time>2017-07-20T10:13:13Z</time>
      </trkpt>
      <trkpt lat="48.22024" lon="7.23598">
        <ele>612.59997558594</ele>
        <time>2017-07-20T10:13:15Z</time>
      </trkpt>
      <trkpt lat="48.22004" lon="7.23603">
        <ele>611.40002441406</ele>
        <time>2017-07-20T10:13:17Z</time>
      </trkpt>
      <trkpt lat="48.21994" lon="7.2361">
        <ele>610.79998779297</ele>
        <time>2017-07-20T10:13:18Z</time>
      </trkpt>
      <trkpt lat="48.21985" lon="7.23619">
        <ele>610.40002441406</ele>
        <time>2017-07-20T10:13:19Z</time>
      </trkpt>
      <trkpt lat="48.21977" lon="7.23628">
        <ele>609.20001220703</ele>
        <time>2017-07-20T10:13:20Z</time>
      </trkpt>
      <trkpt lat="48.21959" lon="7.23649">
        <ele>607.79998779297</ele>
        <time>2017-07-20T10:13:22Z</time>
      </trkpt>
      <trkpt lat="48.21942" lon="7.23669">
        <ele>606</ele>
        <time>2017-07-20T10:13:24Z</time>
      </trkpt>
      <trkpt lat="48.21933" lon="7.23679">
        <ele>605.20001220703</ele>
        <time>2017-07-20T10:13:25Z</time>
      </trkpt>
      <trkpt lat="48.21922" lon="7.23682">
        <ele>604.40002441406</ele>
        <time>2017-07-20T10:13:26Z</time>
      </trkpt>
      <trkpt lat="48.21914" lon="7.23685">
        <ele>603.40002441406</ele>
        <time>2017-07-20T10:13:27Z</time>
      </trkpt>
      <trkpt lat="48.21905" lon="7.23688">
        <ele>602.59997558594</ele>
        <time>2017-07-20T10:13:28Z</time>
      </trkpt>
      <trkpt lat="48.21889" lon="7.23694">
        <ele>600.79998779297</ele>
        <time>2017-07-20T10:13:30Z</time>
      </trkpt>
      <trkpt lat="48.2188" lon="7.23692">
        <ele>600</ele>
        <time>2017-07-20T10:13:31Z</time>
      </trkpt>
      <trkpt lat="48.21874" lon="7.23688">
        <ele>599.40002441406</ele>
        <time>2017-07-20T10:13:32Z</time>
      </trkpt>
      <trkpt lat="48.21866" lon="7.23685">
        <ele>598</ele>
        <time>2017-07-20T10:13:34Z</time>
      </trkpt>
      <trkpt lat="48.21859" lon="7.23692">
        <ele>596.59997558594</ele>
        <time>2017-07-20T10:13:36Z</time>
      </trkpt>
      <trkpt lat="48.21857" lon="7.23696">
        <ele>596.20001220703</ele>
        <time>2017-07-20T10:13:37Z</time>
      </trkpt>
      <trkpt lat="48.21854" lon="7.23694">
        <ele>595.40002441406</ele>
        <time>2017-07-20T10:13:39Z</time>
      </trkpt>
      <trkpt lat="48.21852" lon="7.2369">
        <ele>595</ele>
        <time>2017-07-20T10:13:40Z</time>
      </trkpt>
      <trkpt lat="48.21847" lon="7.23678">
        <ele>594.20001220703</ele>
        <time>2017-07-20T10:13:42Z</time>
      </trkpt>
      <trkpt lat="48.21847" lon="7.23667">
        <ele>593.79998779297</ele>
        <time>2017-07-20T10:13:43Z</time>
      </trkpt>
      <trkpt lat="48.21848" lon="7.23656">
        <ele>592.79998779297</ele>
        <time>2017-07-20T10:13:44Z</time>
      </trkpt>
      <trkpt lat="48.21848" lon="7.23646">
        <ele>592.40002441406</ele>
        <time>2017-07-20T10:13:45Z</time>
      </trkpt>
      <trkpt lat="48.21846" lon="7.23628">
        <ele>591.59997558594</ele>
        <time>2017-07-20T10:13:47Z</time>
      </trkpt>
      <trkpt lat="48.21846" lon="7.23618">
        <ele>591</ele>
        <time>2017-07-20T10:13:48Z</time>
      </trkpt>
      <trkpt lat="48.21842" lon="7.23609">
        <ele>590.40002441406</ele>
        <time>2017-07-20T10:13:49Z</time>
      </trkpt>
      <trkpt lat="48.21837" lon="7.23599">
        <ele>589.79998779297</ele>
        <time>2017-07-20T10:13:50Z</time>
      </trkpt>
      <trkpt lat="48.21832" lon="7.2359">
        <ele>589.20001220703</ele>
        <time>2017-07-20T10:13:51Z</time>
      </trkpt>
      <trkpt lat="48.2182" lon="7.23573">
        <ele>587.79998779297</ele>
        <time>2017-07-20T10:13:53Z</time>
      </trkpt>
      <trkpt lat="48.21803" lon="7.23557">
        <ele>586.40002441406</ele>
        <time>2017-07-20T10:13:55Z</time>
      </trkpt>
      <trkpt lat="48.21792" lon="7.23563">
        <ele>585.59997558594</ele>
        <time>2017-07-20T10:13:56Z</time>
      </trkpt>
      <trkpt lat="48.21781" lon="7.23571">
        <ele>585</ele>
        <time>2017-07-20T10:13:57Z</time>
      </trkpt>
      <trkpt lat="48.21759" lon="7.23594">
        <ele>583.59997558594</ele>
        <time>2017-07-20T10:13:59Z</time>
      </trkpt>
      <trkpt lat="48.21748" lon="7.23609">
        <ele>582.79998779297</ele>
        <time>2017-07-20T10:14:00Z</time>
      </trkpt>
      <trkpt lat="48.21738" lon="7.23623">
        <ele>582.20001220703</ele>
        <time>2017-07-20T10:14:01Z</time>
      </trkpt>
      <trkpt lat="48.21729" lon="7.23635">
        <ele>581.59997558594</ele>
        <time>2017-07-20T10:14:02Z</time>
      </trkpt>
      <trkpt lat="48.2172" lon="7.23648">
        <ele>581</ele>
        <time>2017-07-20T10:14:03Z</time>
      </trkpt>
      <trkpt lat="48.21711" lon="7.23664">
        <ele>580.40002441406</ele>
        <time>2017-07-20T10:14:04Z</time>
      </trkpt>
      <trkpt lat="48.21703" lon="7.2368">
        <ele>579.79998779297</ele>
        <time>2017-07-20T10:14:05Z</time>
      </trkpt>
      <trkpt lat="48.21689" lon="7.23712">
        <ele>578.40002441406</ele>
        <time>2017-07-20T10:14:07Z</time>
      </trkpt>
      <trkpt lat="48.2168" lon="7.23727">
        <ele>577</ele>
        <time>2017-07-20T10:14:08Z</time>
      </trkpt>
      <trkpt lat="48.21672" lon="7.23743">
        <ele>576.40002441406</ele>
        <time>2017-07-20T10:14:09Z</time>
      </trkpt>
      <trkpt lat="48.21665" lon="7.23757">
        <ele>575.59997558594</ele>
        <time>2017-07-20T10:14:10Z</time>
      </trkpt>
      <trkpt lat="48.21649" lon="7.23786">
        <ele>574.20001220703</ele>
        <time>2017-07-20T10:14:12Z</time>
      </trkpt>
      <trkpt lat="48.21641" lon="7.238">
        <ele>573.59997558594</ele>
        <time>2017-07-20T10:14:13Z</time>
      </trkpt>
      <trkpt lat="48.21632" lon="7.23814">
        <ele>573</ele>
        <time>2017-07-20T10:14:14Z</time>
      </trkpt>
      <trkpt lat="48.21613" lon="7.23841">
        <ele>571.59997558594</ele>
        <time>2017-07-20T10:14:16Z</time>
      </trkpt>
      <trkpt lat="48.21592" lon="7.23867">
        <ele>570</ele>
        <time>2017-07-20T10:14:18Z</time>
      </trkpt>
      <trkpt lat="48.21569" lon="7.23885">
        <ele>568.40002441406</ele>
        <time>2017-07-20T10:14:20Z</time>
      </trkpt>
      <trkpt lat="48.21557" lon="7.23896">
        <ele>567.40002441406</ele>
        <time>2017-07-20T10:14:21Z</time>
      </trkpt>
      <trkpt lat="48.21546" lon="7.23905">
        <ele>566.40002441406</ele>
        <time>2017-07-20T10:14:22Z</time>
      </trkpt>
      <trkpt lat="48.21523" lon="7.2392">
        <ele>564.59997558594</ele>
        <time>2017-07-20T10:14:24Z</time>
      </trkpt>
      <trkpt lat="48.21504" lon="7.2393">
        <ele>562.79998779297</ele>
        <time>2017-07-20T10:14:26Z</time>
      </trkpt>
      <trkpt lat="48.21484" lon="7.23922">
        <ele>560.79998779297</ele>
        <time>2017-07-20T10:14:28Z</time>
      </trkpt>
      <trkpt lat="48.21465" lon="7.23906">
        <ele>559</ele>
        <time>2017-07-20T10:14:30Z</time>
      </trkpt>
      <trkpt lat="48.21456" lon="7.23897">
        <ele>558.20001220703</ele>
        <time>2017-07-20T10:14:31Z</time>
      </trkpt>
      <trkpt lat="48.21447" lon="7.23886">
        <ele>556.59997558594</ele>
        <time>2017-07-20T10:14:32Z</time>
      </trkpt>
      <trkpt lat="48.2143" lon="7.23867">
        <ele>555.20001220703</ele>
        <time>2017-07-20T10:14:34Z</time>
      </trkpt>
      <trkpt lat="48.21421" lon="7.23859">
        <ele>554.40002441406</ele>
        <time>2017-07-20T10:14:35Z</time>
      </trkpt>
      <trkpt lat="48.21411" lon="7.23853">
        <ele>554</ele>
        <time>2017-07-20T10:14:36Z</time>
      </trkpt>
      <trkpt lat="48.21394" lon="7.23839">
        <ele>553</ele>
        <time>2017-07-20T10:14:38Z</time>
      </trkpt>
      <trkpt lat="48.21382" lon="7.23826">
        <ele>551.79998779297</ele>
        <time>2017-07-20T10:14:40Z</time>
      </trkpt>
      <trkpt lat="48.21373" lon="7.23817">
        <ele>550.59997558594</ele>
        <time>2017-07-20T10:14:42Z</time>
      </trkpt>
      <trkpt lat="48.21362" lon="7.23829">
        <ele>549.40002441406</ele>
        <time>2017-07-20T10:14:44Z</time>
      </trkpt>
      <trkpt lat="48.21362" lon="7.23833">
        <ele>548.59997558594</ele>
        <time>2017-07-20T10:14:46Z</time>
      </trkpt>
      <trkpt lat="48.21364" lon="7.23833">
        <ele>548.20001220703</ele>
        <time>2017-07-20T10:14:47Z</time>
      </trkpt>
      <trkpt lat="48.21369" lon="7.23837">
        <ele>547.79998779297</ele>
        <time>2017-07-20T10:14:48Z</time>
      </trkpt>
      <trkpt lat="48.21382" lon="7.23851">
        <ele>547.20001220703</ele>
        <time>2017-07-20T10:14:50Z</time>
      </trkpt>
      <trkpt lat="48.21386" lon="7.23861">
        <ele>546.79998779297</ele>
        <time>2017-07-20T10:14:51Z</time>
      </trkpt>
      <trkpt lat="48.21385" lon="7.23878">
        <ele>546.20001220703</ele>
        <time>2017-07-20T10:14:53Z</time>
      </trkpt>
      <trkpt lat="48.21381" lon="7.23879">
        <ele>545.79998779297</ele>
        <time>2017-07-20T10:14:54Z</time>
      </trkpt>
      <trkpt lat="48.21375" lon="7.23877">
        <ele>545.40002441406</ele>
        <time>2017-07-20T10:14:55Z</time>
      </trkpt>
      <trkpt lat="48.2137" lon="7.23871">
        <ele>544.59997558594</ele>
        <time>2017-07-20T10:14:56Z</time>
      </trkpt>
      <trkpt lat="48.21357" lon="7.23859">
        <ele>543.59997558594</ele>
        <time>2017-07-20T10:14:58Z</time>
      </trkpt>
      <trkpt lat="48.21349" lon="7.23855">
        <ele>543.20001220703</ele>
        <time>2017-07-20T10:14:59Z</time>
      </trkpt>
      <trkpt lat="48.21333" lon="7.23851">
        <ele>542.20001220703</ele>
        <time>2017-07-20T10:15:01Z</time>
      </trkpt>
      <trkpt lat="48.21324" lon="7.2385">
        <ele>541.79998779297</ele>
        <time>2017-07-20T10:15:02Z</time>
      </trkpt>
      <trkpt lat="48.21316" lon="7.23849">
        <ele>541.20001220703</ele>
        <time>2017-07-20T10:15:03Z</time>
      </trkpt>
      <trkpt lat="48.21299" lon="7.23851">
        <ele>540.20001220703</ele>
        <time>2017-07-20T10:15:05Z</time>
      </trkpt>
      <trkpt lat="48.21277" lon="7.23859">
        <ele>538.79998779297</ele>
        <time>2017-07-20T10:15:08Z</time>
      </trkpt>
      <trkpt lat="48.21271" lon="7.23864">
        <ele>538.40002441406</ele>
        <time>2017-07-20T10:15:09Z</time>
      </trkpt>
      <trkpt lat="48.21266" lon="7.23869">
        <ele>537.59997558594</ele>
        <time>2017-07-20T10:15:10Z</time>
      </trkpt>
      <trkpt lat="48.21239" lon="7.23904">
        <ele>536.40002441406</ele>
        <time>2017-07-20T10:15:12Z</time>
      </trkpt>
      <trkpt lat="48.2123" lon="7.23918">
        <ele>535.59997558594</ele>
        <time>2017-07-20T10:15:13Z</time>
      </trkpt>
      <trkpt lat="48.21223" lon="7.23932">
        <ele>535</ele>
        <time>2017-07-20T10:15:14Z</time>
      </trkpt>
      <trkpt lat="48.21216" lon="7.23942">
        <ele>534.40002441406</ele>
        <time>2017-07-20T10:15:15Z</time>
      </trkpt>
      <trkpt lat="48.21209" lon="7.23952">
        <ele>533.59997558594</ele>
        <time>2017-07-20T10:15:16Z</time>
      </trkpt>
      <trkpt lat="48.21195" lon="7.23967">
        <ele>532</ele>
        <time>2017-07-20T10:15:18Z</time>
      </trkpt>
      <trkpt lat="48.21191" lon="7.23975">
        <ele>531.20001220703</ele>
        <time>2017-07-20T10:15:19Z</time>
      </trkpt>
      <trkpt lat="48.21188" lon="7.23984">
        <ele>529.79998779297</ele>
        <time>2017-07-20T10:15:20Z</time>
      </trkpt>
      <trkpt lat="48.21191" lon="7.24001">
        <ele>528.40002441406</ele>
        <time>2017-07-20T10:15:22Z</time>
      </trkpt>
      <trkpt lat="48.21206" lon="7.24012">
        <ele>526.20001220703</ele>
        <time>2017-07-20T10:15:27Z</time>
      </trkpt>
      <trkpt lat="48.21211" lon="7.2401">
        <ele>525.79998779297</ele>
        <time>2017-07-20T10:15:28Z</time>
      </trkpt>
      <trkpt lat="48.2122" lon="7.24015">
        <ele>525</ele>
        <time>2017-07-20T10:15:30Z</time>
      </trkpt>
      <trkpt lat="48.21224" lon="7.24023">
        <ele>524.59997558594</ele>
        <time>2017-07-20T10:15:31Z</time>
      </trkpt>
      <trkpt lat="48.21226" lon="7.24035">
        <ele>524.20001220703</ele>
        <time>2017-07-20T10:15:32Z</time>
      </trkpt>
      <trkpt lat="48.21219" lon="7.24056">
        <ele>523.20001220703</ele>
        <time>2017-07-20T10:15:34Z</time>
      </trkpt>
      <trkpt lat="48.21206" lon="7.24083">
        <ele>521.59997558594</ele>
        <time>2017-07-20T10:15:37Z</time>
      </trkpt>
      <trkpt lat="48.21199" lon="7.24088">
        <ele>521</ele>
        <time>2017-07-20T10:15:38Z</time>
      </trkpt>
      <trkpt lat="48.2119" lon="7.24104">
        <ele>519.79998779297</ele>
        <time>2017-07-20T10:15:40Z</time>
      </trkpt>
      <trkpt lat="48.21185" lon="7.24114">
        <ele>519.20001220703</ele>
        <time>2017-07-20T10:15:41Z</time>
      </trkpt>
      <trkpt lat="48.21179" lon="7.24124">
        <ele>518.59997558594</ele>
        <time>2017-07-20T10:15:42Z</time>
      </trkpt>
      <trkpt lat="48.21163" lon="7.2415">
        <ele>516.20001220703</ele>
        <time>2017-07-20T10:15:44Z</time>
      </trkpt>
      <trkpt lat="48.21151" lon="7.24164">
        <ele>515.20001220703</ele>
        <time>2017-07-20T10:15:45Z</time>
      </trkpt>
      <trkpt lat="48.21141" lon="7.24177">
        <ele>514.20001220703</ele>
        <time>2017-07-20T10:15:46Z</time>
      </trkpt>
      <trkpt lat="48.2113" lon="7.2419">
        <ele>513</ele>
        <time>2017-07-20T10:15:47Z</time>
      </trkpt>
      <trkpt lat="48.21118" lon="7.24204">
        <ele>511.79998779297</ele>
        <time>2017-07-20T10:15:48Z</time>
      </trkpt>
      <trkpt lat="48.21109" lon="7.24213">
        <ele>510.60000610352</ele>
        <time>2017-07-20T10:15:49Z</time>
      </trkpt>
      <trkpt lat="48.21099" lon="7.2422">
        <ele>509.39999389648</ele>
        <time>2017-07-20T10:15:50Z</time>
      </trkpt>
      <trkpt lat="48.21087" lon="7.24228">
        <ele>508.20001220703</ele>
        <time>2017-07-20T10:15:51Z</time>
      </trkpt>
      <trkpt lat="48.21077" lon="7.24235">
        <ele>507</ele>
        <time>2017-07-20T10:15:52Z</time>
      </trkpt>
      <trkpt lat="48.21068" lon="7.24241">
        <ele>505.79998779297</ele>
        <time>2017-07-20T10:15:53Z</time>
      </trkpt>
      <trkpt lat="48.21057" lon="7.2425">
        <ele>504.60000610352</ele>
        <time>2017-07-20T10:15:54Z</time>
      </trkpt>
      <trkpt lat="48.21046" lon="7.2426">
        <ele>503.20001220703</ele>
        <time>2017-07-20T10:15:55Z</time>
      </trkpt>
      <trkpt lat="48.21035" lon="7.2427">
        <ele>501.79998779297</ele>
        <time>2017-07-20T10:15:56Z</time>
      </trkpt>
      <trkpt lat="48.21025" lon="7.24282">
        <ele>500.39999389648</ele>
        <time>2017-07-20T10:15:57Z</time>
      </trkpt>
      <trkpt lat="48.21013" lon="7.24298">
        <ele>499</ele>
        <time>2017-07-20T10:15:58Z</time>
      </trkpt>
      <trkpt lat="48.21002" lon="7.24315">
        <ele>497.60000610352</ele>
        <time>2017-07-20T10:15:59Z</time>
      </trkpt>
      <trkpt lat="48.20991" lon="7.24337">
        <ele>496.20001220703</ele>
        <time>2017-07-20T10:16:00Z</time>
      </trkpt>
      <trkpt lat="48.2099" lon="7.24359">
        <ele>495</ele>
        <time>2017-07-20T10:16:01Z</time>
      </trkpt>
      <trkpt lat="48.20988" lon="7.24382">
        <ele>493.60000610352</ele>
        <time>2017-07-20T10:16:02Z</time>
      </trkpt>
      <trkpt lat="48.20984" lon="7.24398">
        <ele>492.39999389648</ele>
        <time>2017-07-20T10:16:03Z</time>
      </trkpt>
      <trkpt lat="48.20979" lon="7.24414">
        <ele>491.39999389648</ele>
        <time>2017-07-20T10:16:04Z</time>
      </trkpt>
      <trkpt lat="48.20973" lon="7.2443">
        <ele>490.20001220703</ele>
        <time>2017-07-20T10:16:05Z</time>
      </trkpt>
      <trkpt lat="48.20966" lon="7.24444">
        <ele>489</ele>
        <time>2017-07-20T10:16:06Z</time>
      </trkpt>
      <trkpt lat="48.20958" lon="7.24457">
        <ele>487.79998779297</ele>
        <time>2017-07-20T10:16:07Z</time>
      </trkpt>
      <trkpt lat="48.2095" lon="7.24471">
        <ele>485.60000610352</ele>
        <time>2017-07-20T10:16:08Z</time>
      </trkpt>
      <trkpt lat="48.20935" lon="7.24499">
        <ele>483.60000610352</ele>
        <time>2017-07-20T10:16:10Z</time>
      </trkpt>
      <trkpt lat="48.20921" lon="7.2453">
        <ele>482</ele>
        <time>2017-07-20T10:16:12Z</time>
      </trkpt>
      <trkpt lat="48.20908" lon="7.24564">
        <ele>480.20001220703</ele>
        <time>2017-07-20T10:16:14Z</time>
      </trkpt>
      <trkpt lat="48.20903" lon="7.2458">
        <ele>479.20001220703</ele>
        <time>2017-07-20T10:16:15Z</time>
      </trkpt>
      <trkpt lat="48.20899" lon="7.24598">
        <ele>478.39999389648</ele>
        <time>2017-07-20T10:16:16Z</time>
      </trkpt>
      <trkpt lat="48.20889" lon="7.24632">
        <ele>477</ele>
        <time>2017-07-20T10:16:18Z</time>
      </trkpt>
      <trkpt lat="48.20882" lon="7.24666">
        <ele>475.79998779297</ele>
        <time>2017-07-20T10:16:20Z</time>
      </trkpt>
      <trkpt lat="48.20881" lon="7.2468">
        <ele>475.20001220703</ele>
        <time>2017-07-20T10:16:21Z</time>
      </trkpt>
      <trkpt lat="48.20882" lon="7.24696">
        <ele>474.39999389648</ele>
        <time>2017-07-20T10:16:22Z</time>
      </trkpt>
      <trkpt lat="48.20885" lon="7.24714">
        <ele>473.79998779297</ele>
        <time>2017-07-20T10:16:23Z</time>
      </trkpt>
      <trkpt lat="48.20888" lon="7.24732">
        <ele>473</ele>
        <time>2017-07-20T10:16:24Z</time>
      </trkpt>
      <trkpt lat="48.20897" lon="7.24768">
        <ele>471.60000610352</ele>
        <time>2017-07-20T10:16:26Z</time>
      </trkpt>
      <trkpt lat="48.209" lon="7.24782">
        <ele>470.60000610352</ele>
        <time>2017-07-20T10:16:27Z</time>
      </trkpt>
      <trkpt lat="48.20902" lon="7.24795">
        <ele>469.79998779297</ele>
        <time>2017-07-20T10:16:28Z</time>
      </trkpt>
      <trkpt lat="48.20902" lon="7.24805">
        <ele>469.20001220703</ele>
        <time>2017-07-20T10:16:29Z</time>
      </trkpt>
      <trkpt lat="48.20903" lon="7.24814">
        <ele>468.39999389648</ele>
        <time>2017-07-20T10:16:30Z</time>
      </trkpt>
      <trkpt lat="48.20898" lon="7.24829">
        <ele>466.60000610352</ele>
        <time>2017-07-20T10:16:32Z</time>
      </trkpt>
      <trkpt lat="48.20894" lon="7.24831">
        <ele>466.20001220703</ele>
        <time>2017-07-20T10:16:33Z</time>
      </trkpt>
      <trkpt lat="48.20889" lon="7.2483">
        <ele>465.60000610352</ele>
        <time>2017-07-20T10:16:34Z</time>
      </trkpt>
      <trkpt lat="48.20886" lon="7.24823">
        <ele>465</ele>
        <time>2017-07-20T10:16:35Z</time>
      </trkpt>
      <trkpt lat="48.20884" lon="7.24814">
        <ele>464.39999389648</ele>
        <time>2017-07-20T10:16:36Z</time>
      </trkpt>
      <trkpt lat="48.20885" lon="7.24797">
        <ele>463.39999389648</ele>
        <time>2017-07-20T10:16:38Z</time>
      </trkpt>
      <trkpt lat="48.20886" lon="7.24789">
        <ele>463.20001220703</ele>
        <time>2017-07-20T10:16:39Z</time>
      </trkpt>
      <trkpt lat="48.20887" lon="7.24781">
        <ele>463</ele>
        <time>2017-07-20T10:16:40Z</time>
      </trkpt>
      <trkpt lat="48.20889" lon="7.24756">
        <ele>462.79998779297</ele>
        <time>2017-07-20T10:16:43Z</time>
      </trkpt>
      <trkpt lat="48.20883" lon="7.2473">
        <ele>462.39999389648</ele>
        <time>2017-07-20T10:16:47Z</time>
      </trkpt>
      <trkpt lat="48.20884" lon="7.2473">
        <ele>462</ele>
        <time>2017-07-20T10:16:49Z</time>
      </trkpt>
      <trkpt lat="48.20881" lon="7.24744">
        <ele>461.79998779297</ele>
        <time>2017-07-20T10:16:50Z</time>
      </trkpt>
      <trkpt lat="48.20879" lon="7.24758">
        <ele>461.60000610352</ele>
        <time>2017-07-20T10:16:52Z</time>
      </trkpt>
      <trkpt lat="48.20878" lon="7.24776">
        <ele>461.39999389648</ele>
        <time>2017-07-20T10:16:54Z</time>
      </trkpt>
      <trkpt lat="48.20881" lon="7.24782">
        <ele>461.20001220703</ele>
        <time>2017-07-20T10:16:55Z</time>
      </trkpt>
      <trkpt lat="48.20883" lon="7.24789">
        <ele>460.79998779297</ele>
        <time>2017-07-20T10:16:56Z</time>
      </trkpt>
      <trkpt lat="48.20892" lon="7.24804">
        <ele>460</ele>
        <time>2017-07-20T10:16:58Z</time>
      </trkpt>
      <trkpt lat="48.20897" lon="7.24812">
        <ele>459.60000610352</ele>
        <time>2017-07-20T10:16:59Z</time>
      </trkpt>
      <trkpt lat="48.20914" lon="7.24835">
        <ele>458.39999389648</ele>
        <time>2017-07-20T10:17:02Z</time>
      </trkpt>
      <trkpt lat="48.20933" lon="7.24861">
        <ele>457.20001220703</ele>
        <time>2017-07-20T10:17:05Z</time>
      </trkpt>
      <trkpt lat="48.20942" lon="7.24881">
        <ele>456.39999389648</ele>
        <time>2017-07-20T10:17:07Z</time>
      </trkpt>
      <trkpt lat="48.20952" lon="7.24904">
        <ele>455.79998779297</ele>
        <time>2017-07-20T10:17:09Z</time>
      </trkpt>
      <trkpt lat="48.2096" lon="7.24936">
        <ele>455</ele>
        <time>2017-07-20T10:17:11Z</time>
      </trkpt>
      <trkpt lat="48.20964" lon="7.24956">
        <ele>454.20001220703</ele>
        <time>2017-07-20T10:17:12Z</time>
      </trkpt>
      <trkpt lat="48.2097" lon="7.24994">
        <ele>452.79998779297</ele>
        <time>2017-07-20T10:17:14Z</time>
      </trkpt>
      <trkpt lat="48.20973" lon="7.25013">
        <ele>452.20001220703</ele>
        <time>2017-07-20T10:17:15Z</time>
      </trkpt>
      <trkpt lat="48.20974" lon="7.25032">
        <ele>451.39999389648</ele>
        <time>2017-07-20T10:17:16Z</time>
      </trkpt>
      <trkpt lat="48.20976" lon="7.25068">
        <ele>450.20001220703</ele>
        <time>2017-07-20T10:17:18Z</time>
      </trkpt>
      <trkpt lat="48.20972" lon="7.25086">
        <ele>449.39999389648</ele>
        <time>2017-07-20T10:17:19Z</time>
      </trkpt>
      <trkpt lat="48.20966" lon="7.25106">
        <ele>448.79998779297</ele>
        <time>2017-07-20T10:17:20Z</time>
      </trkpt>
      <trkpt lat="48.20958" lon="7.25126">
        <ele>447.60000610352</ele>
        <time>2017-07-20T10:17:21Z</time>
      </trkpt>
      <trkpt lat="48.20942" lon="7.25166">
        <ele>446.39999389648</ele>
        <time>2017-07-20T10:17:23Z</time>
      </trkpt>
      <trkpt lat="48.20926" lon="7.25202">
        <ele>444.79998779297</ele>
        <time>2017-07-20T10:17:25Z</time>
      </trkpt>
      <trkpt lat="48.20911" lon="7.25237">
        <ele>443</ele>
        <time>2017-07-20T10:17:27Z</time>
      </trkpt>
      <trkpt lat="48.20897" lon="7.25271">
        <ele>441.20001220703</ele>
        <time>2017-07-20T10:17:29Z</time>
      </trkpt>
      <trkpt lat="48.20889" lon="7.25288">
        <ele>440.39999389648</ele>
        <time>2017-07-20T10:17:30Z</time>
      </trkpt>
      <trkpt lat="48.20882" lon="7.25305">
        <ele>439.60000610352</ele>
        <time>2017-07-20T10:17:31Z</time>
      </trkpt>
      <trkpt lat="48.20867" lon="7.2534">
        <ele>438</ele>
        <time>2017-07-20T10:17:33Z</time>
      </trkpt>
      <trkpt lat="48.20853" lon="7.25371">
        <ele>436.20001220703</ele>
        <time>2017-07-20T10:17:35Z</time>
      </trkpt>
      <trkpt lat="48.20841" lon="7.254">
        <ele>434.60000610352</ele>
        <time>2017-07-20T10:17:37Z</time>
      </trkpt>
      <trkpt lat="48.20828" lon="7.25432">
        <ele>433</ele>
        <time>2017-07-20T10:17:39Z</time>
      </trkpt>
      <trkpt lat="48.20811" lon="7.25458">
        <ele>431.39999389648</ele>
        <time>2017-07-20T10:17:41Z</time>
      </trkpt>
      <trkpt lat="48.20799" lon="7.25466">
        <ele>430.60000610352</ele>
        <time>2017-07-20T10:17:42Z</time>
      </trkpt>
      <trkpt lat="48.20789" lon="7.25472">
        <ele>429.79998779297</ele>
        <time>2017-07-20T10:17:43Z</time>
      </trkpt>
      <trkpt lat="48.20766" lon="7.25476">
        <ele>427.60000610352</ele>
        <time>2017-07-20T10:17:45Z</time>
      </trkpt>
      <trkpt lat="48.20754" lon="7.25478">
        <ele>427</ele>
        <time>2017-07-20T10:17:46Z</time>
      </trkpt>
      <trkpt lat="48.20742" lon="7.25482">
        <ele>426.39999389648</ele>
        <time>2017-07-20T10:17:47Z</time>
      </trkpt>
      <trkpt lat="48.20725" lon="7.25492">
        <ele>425.20001220703</ele>
        <time>2017-07-20T10:17:49Z</time>
      </trkpt>
      <trkpt lat="48.20706" lon="7.25506">
        <ele>424</ele>
        <time>2017-07-20T10:17:51Z</time>
      </trkpt>
      <trkpt lat="48.20691" lon="7.2552">
        <ele>422.60000610352</ele>
        <time>2017-07-20T10:17:53Z</time>
      </trkpt>
      <trkpt lat="48.20674" lon="7.25536">
        <ele>421.39999389648</ele>
        <time>2017-07-20T10:17:55Z</time>
      </trkpt>
      <trkpt lat="48.20655" lon="7.25549">
        <ele>420.20001220703</ele>
        <time>2017-07-20T10:17:57Z</time>
      </trkpt>
      <trkpt lat="48.20637" lon="7.25561">
        <ele>418.79998779297</ele>
        <time>2017-07-20T10:17:59Z</time>
      </trkpt>
      <trkpt lat="48.20619" lon="7.25576">
        <ele>417.60000610352</ele>
        <time>2017-07-20T10:18:01Z</time>
      </trkpt>
      <trkpt lat="48.20601" lon="7.25594">
        <ele>416.20001220703</ele>
        <time>2017-07-20T10:18:03Z</time>
      </trkpt>
      <trkpt lat="48.20583" lon="7.25612">
        <ele>415.20001220703</ele>
        <time>2017-07-20T10:18:05Z</time>
      </trkpt>
      <trkpt lat="48.20569" lon="7.25636">
        <ele>414</ele>
        <time>2017-07-20T10:18:07Z</time>
      </trkpt>
      <trkpt lat="48.20562" lon="7.25648">
        <ele>413.39999389648</ele>
        <time>2017-07-20T10:18:08Z</time>
      </trkpt>
      <trkpt lat="48.20554" lon="7.2566">
        <ele>411.79998779297</ele>
        <time>2017-07-20T10:18:09Z</time>
      </trkpt>
      <trkpt lat="48.20539" lon="7.25682">
        <ele>410.20001220703</ele>
        <time>2017-07-20T10:18:11Z</time>
      </trkpt>
      <trkpt lat="48.20531" lon="7.25696">
        <ele>409.39999389648</ele>
        <time>2017-07-20T10:18:12Z</time>
      </trkpt>
      <trkpt lat="48.20526" lon="7.25712">
        <ele>408.79998779297</ele>
        <time>2017-07-20T10:18:13Z</time>
      </trkpt>
      <trkpt lat="48.20522" lon="7.25745">
        <ele>407.60000610352</ele>
        <time>2017-07-20T10:18:15Z</time>
      </trkpt>
      <trkpt lat="48.2052" lon="7.25762">
        <ele>407</ele>
        <time>2017-07-20T10:18:16Z</time>
      </trkpt>
      <trkpt lat="48.20518" lon="7.25778">
        <ele>406.39999389648</ele>
        <time>2017-07-20T10:18:17Z</time>
      </trkpt>
      <trkpt lat="48.20516" lon="7.25809">
        <ele>405</ele>
        <time>2017-07-20T10:18:19Z</time>
      </trkpt>
      <trkpt lat="48.20513" lon="7.25843">
        <ele>403.79998779297</ele>
        <time>2017-07-20T10:18:21Z</time>
      </trkpt>
      <trkpt lat="48.20511" lon="7.2586">
        <ele>403.20001220703</ele>
        <time>2017-07-20T10:18:22Z</time>
      </trkpt>
      <trkpt lat="48.20509" lon="7.25877">
        <ele>402.60000610352</ele>
        <time>2017-07-20T10:18:23Z</time>
      </trkpt>
      <trkpt lat="48.20506" lon="7.25892">
        <ele>402</ele>
        <time>2017-07-20T10:18:24Z</time>
      </trkpt>
      <trkpt lat="48.20502" lon="7.25906">
        <ele>401.60000610352</ele>
        <time>2017-07-20T10:18:25Z</time>
      </trkpt>
      <trkpt lat="48.20498" lon="7.25919">
        <ele>401</ele>
        <time>2017-07-20T10:18:26Z</time>
      </trkpt>
      <trkpt lat="48.20488" lon="7.25945">
        <ele>400.20001220703</ele>
        <time>2017-07-20T10:18:28Z</time>
      </trkpt>
      <trkpt lat="48.20484" lon="7.25965">
        <ele>399.60000610352</ele>
        <time>2017-07-20T10:18:30Z</time>
      </trkpt>
      <trkpt lat="48.20484" lon="7.25971">
        <ele>399.20001220703</ele>
        <time>2017-07-20T10:18:31Z</time>
      </trkpt>
      <trkpt lat="48.20484" lon="7.25975">
        <ele>398</ele>
        <time>2017-07-20T10:18:33Z</time>
      </trkpt>
      <trkpt lat="48.2049" lon="7.25973">
        <ele>396.60000610352</ele>
        <time>2017-07-20T10:18:36Z</time>
      </trkpt>
      <trkpt lat="48.20491" lon="7.25972">
        <ele>396.39999389648</ele>
        <time>2017-07-20T10:18:37Z</time>
      </trkpt>
      <trkpt lat="48.20492" lon="7.25961">
        <ele>396</ele>
        <time>2017-07-20T10:18:42Z</time>
      </trkpt>
      <trkpt lat="48.20498" lon="7.25946">
        <ele>396.39999389648</ele>
        <time>2017-07-20T10:18:47Z</time>
      </trkpt>
      <trkpt lat="48.20513" lon="7.2593">
        <ele>396.79998779297</ele>
        <time>2017-07-20T10:18:54Z</time>
      </trkpt>
      <trkpt lat="48.20513" lon="7.25928">
        <ele>397</ele>
        <time>2017-07-20T10:18:56Z</time>
      </trkpt>
      <trkpt lat="48.20511" lon="7.2593">
        <ele>397.20001220703</ele>
        <time>2017-07-20T10:18:58Z</time>
      </trkpt>
      <trkpt lat="48.20538" lon="7.25918">
        <ele>397.39999389648</ele>
        <time>2017-07-20T10:46:54Z</time>
      </trkpt>
      <trkpt lat="48.20538" lon="7.25926">
        <ele>397.20001220703</ele>
        <time>2017-07-20T10:46:59Z</time>
      </trkpt>
      <trkpt lat="48.20537" lon="7.25928">
        <ele>397.20001220703</ele>
        <time>2017-07-20T10:47:00Z</time>
      </trkpt>
      <trkpt lat="48.20532" lon="7.25942">
        <ele>397.20001220703</ele>
        <time>2017-07-20T10:47:04Z</time>
      </trkpt>
      <trkpt lat="48.20525" lon="7.25969">
        <ele>397</ele>
        <time>2017-07-20T10:47:09Z</time>
      </trkpt>
      <trkpt lat="48.20518" lon="7.26007">
        <ele>396.39999389648</ele>
        <time>2017-07-20T10:47:14Z</time>
      </trkpt>
      <trkpt lat="48.20517" lon="7.26016">
        <ele>396.20001220703</ele>
        <time>2017-07-20T10:47:15Z</time>
      </trkpt>
      <trkpt lat="48.20515" lon="7.26024">
        <ele>396</ele>
        <time>2017-07-20T10:47:16Z</time>
      </trkpt>
      <trkpt lat="48.20508" lon="7.26051">
        <ele>395.39999389648</ele>
        <time>2017-07-20T10:47:19Z</time>
      </trkpt>
      <trkpt lat="48.20503" lon="7.26069">
        <ele>394.79998779297</ele>
        <time>2017-07-20T10:47:21Z</time>
      </trkpt>
      <trkpt lat="48.20494" lon="7.26086">
        <ele>394</ele>
        <time>2017-07-20T10:47:23Z</time>
      </trkpt>
      <trkpt lat="48.20485" lon="7.26104">
        <ele>393</ele>
        <time>2017-07-20T10:47:25Z</time>
      </trkpt>
      <trkpt lat="48.2048" lon="7.26113">
        <ele>392.60000610352</ele>
        <time>2017-07-20T10:47:26Z</time>
      </trkpt>
      <trkpt lat="48.20476" lon="7.26122">
        <ele>392.39999389648</ele>
        <time>2017-07-20T10:47:27Z</time>
      </trkpt>
      <trkpt lat="48.20467" lon="7.2614">
        <ele>391.79998779297</ele>
        <time>2017-07-20T10:47:29Z</time>
      </trkpt>
      <trkpt lat="48.2046" lon="7.2616">
        <ele>391.39999389648</ele>
        <time>2017-07-20T10:47:31Z</time>
      </trkpt>
      <trkpt lat="48.20458" lon="7.26171">
        <ele>391</ele>
        <time>2017-07-20T10:47:32Z</time>
      </trkpt>
      <trkpt lat="48.20457" lon="7.26182">
        <ele>390.79998779297</ele>
        <time>2017-07-20T10:47:33Z</time>
      </trkpt>
      <trkpt lat="48.20455" lon="7.26204">
        <ele>390.20001220703</ele>
        <time>2017-07-20T10:47:35Z</time>
      </trkpt>
      <trkpt lat="48.20454" lon="7.26226">
        <ele>389.39999389648</ele>
        <time>2017-07-20T10:47:37Z</time>
      </trkpt>
      <trkpt lat="48.20456" lon="7.26248">
        <ele>388.79998779297</ele>
        <time>2017-07-20T10:47:39Z</time>
      </trkpt>
      <trkpt lat="48.20461" lon="7.2628">
        <ele>388.39999389648</ele>
        <time>2017-07-20T10:47:42Z</time>
      </trkpt>
      <trkpt lat="48.20466" lon="7.26325">
        <ele>387.20001220703</ele>
        <time>2017-07-20T10:47:46Z</time>
      </trkpt>
      <trkpt lat="48.20466" lon="7.26348">
        <ele>386.20001220703</ele>
        <time>2017-07-20T10:47:48Z</time>
      </trkpt>
      <trkpt lat="48.20466" lon="7.26359">
        <ele>386</ele>
        <time>2017-07-20T10:47:49Z</time>
      </trkpt>
      <trkpt lat="48.20463" lon="7.26394">
        <ele>384.79998779297</ele>
        <time>2017-07-20T10:47:52Z</time>
      </trkpt>
      <trkpt lat="48.20458" lon="7.26417">
        <ele>384.20001220703</ele>
        <time>2017-07-20T10:47:54Z</time>
      </trkpt>
      <trkpt lat="48.20453" lon="7.2644">
        <ele>383.79998779297</ele>
        <time>2017-07-20T10:47:56Z</time>
      </trkpt>
      <trkpt lat="48.20438" lon="7.26484">
        <ele>382.60000610352</ele>
        <time>2017-07-20T10:48:00Z</time>
      </trkpt>
      <trkpt lat="48.20429" lon="7.26505">
        <ele>381.79998779297</ele>
        <time>2017-07-20T10:48:02Z</time>
      </trkpt>
      <trkpt lat="48.20425" lon="7.26516">
        <ele>381.60000610352</ele>
        <time>2017-07-20T10:48:03Z</time>
      </trkpt>
      <trkpt lat="48.20411" lon="7.26547">
        <ele>380.39999389648</ele>
        <time>2017-07-20T10:48:06Z</time>
      </trkpt>
      <trkpt lat="48.20398" lon="7.26578">
        <ele>379.20001220703</ele>
        <time>2017-07-20T10:48:09Z</time>
      </trkpt>
      <trkpt lat="48.20384" lon="7.2662">
        <ele>378.20001220703</ele>
        <time>2017-07-20T10:48:13Z</time>
      </trkpt>
      <trkpt lat="48.20378" lon="7.26654">
        <ele>377.39999389648</ele>
        <time>2017-07-20T10:48:16Z</time>
      </trkpt>
      <trkpt lat="48.20376" lon="7.26679">
        <ele>377</ele>
        <time>2017-07-20T10:48:18Z</time>
      </trkpt>
      <trkpt lat="48.20373" lon="7.26718">
        <ele>376</ele>
        <time>2017-07-20T10:48:21Z</time>
      </trkpt>
      <trkpt lat="48.20368" lon="7.2677">
        <ele>374.60000610352</ele>
        <time>2017-07-20T10:48:25Z</time>
      </trkpt>
      <trkpt lat="48.20359" lon="7.26808">
        <ele>373.60000610352</ele>
        <time>2017-07-20T10:48:28Z</time>
      </trkpt>
      <trkpt lat="48.20354" lon="7.26819">
        <ele>373.20001220703</ele>
        <time>2017-07-20T10:48:29Z</time>
      </trkpt>
      <trkpt lat="48.20337" lon="7.26852">
        <ele>372.39999389648</ele>
        <time>2017-07-20T10:48:32Z</time>
      </trkpt>
      <trkpt lat="48.20327" lon="7.26876">
        <ele>371.39999389648</ele>
        <time>2017-07-20T10:48:34Z</time>
      </trkpt>
      <trkpt lat="48.20322" lon="7.26889">
        <ele>371</ele>
        <time>2017-07-20T10:48:35Z</time>
      </trkpt>
      <trkpt lat="48.20314" lon="7.26916">
        <ele>369.79998779297</ele>
        <time>2017-07-20T10:48:37Z</time>
      </trkpt>
      <trkpt lat="48.20305" lon="7.26942">
        <ele>368.79998779297</ele>
        <time>2017-07-20T10:48:39Z</time>
      </trkpt>
      <trkpt lat="48.203" lon="7.26955">
        <ele>368.39999389648</ele>
        <time>2017-07-20T10:48:40Z</time>
      </trkpt>
      <trkpt lat="48.20291" lon="7.26981">
        <ele>367.20001220703</ele>
        <time>2017-07-20T10:48:42Z</time>
      </trkpt>
      <trkpt lat="48.20288" lon="7.26996">
        <ele>366.79998779297</ele>
        <time>2017-07-20T10:48:43Z</time>
      </trkpt>
      <trkpt lat="48.20288" lon="7.27013">
        <ele>366.20001220703</ele>
        <time>2017-07-20T10:48:44Z</time>
      </trkpt>
      <trkpt lat="48.2029" lon="7.27048">
        <ele>365</ele>
        <time>2017-07-20T10:48:46Z</time>
      </trkpt>
      <trkpt lat="48.20292" lon="7.27065">
        <ele>364.39999389648</ele>
        <time>2017-07-20T10:48:47Z</time>
      </trkpt>
      <trkpt lat="48.20295" lon="7.27082">
        <ele>364</ele>
        <time>2017-07-20T10:48:48Z</time>
      </trkpt>
      <trkpt lat="48.20305" lon="7.27127">
        <ele>362.60000610352</ele>
        <time>2017-07-20T10:48:51Z</time>
      </trkpt>
      <trkpt lat="48.20311" lon="7.27137">
        <ele>362</ele>
        <time>2017-07-20T10:48:52Z</time>
      </trkpt>
      <trkpt lat="48.20316" lon="7.27145">
        <ele>361.39999389648</ele>
        <time>2017-07-20T10:48:53Z</time>
      </trkpt>
      <trkpt lat="48.20318" lon="7.27156">
        <ele>360.79998779297</ele>
        <time>2017-07-20T10:48:54Z</time>
      </trkpt>
      <trkpt lat="48.20319" lon="7.27168">
        <ele>360.39999389648</ele>
        <time>2017-07-20T10:48:55Z</time>
      </trkpt>
      <trkpt lat="48.20319" lon="7.2718">
        <ele>359.79998779297</ele>
        <time>2017-07-20T10:48:56Z</time>
      </trkpt>
      <trkpt lat="48.20315" lon="7.27202">
        <ele>359</ele>
        <time>2017-07-20T10:48:58Z</time>
      </trkpt>
      <trkpt lat="48.20313" lon="7.27214">
        <ele>358.60000610352</ele>
        <time>2017-07-20T10:48:59Z</time>
      </trkpt>
      <trkpt lat="48.20307" lon="7.27237">
        <ele>357.79998779297</ele>
        <time>2017-07-20T10:49:01Z</time>
      </trkpt>
      <trkpt lat="48.203" lon="7.27297">
        <ele>356.60000610352</ele>
        <time>2017-07-20T10:49:06Z</time>
      </trkpt>
      <trkpt lat="48.20299" lon="7.2731">
        <ele>356.39999389648</ele>
        <time>2017-07-20T10:49:07Z</time>
      </trkpt>
      <trkpt lat="48.20298" lon="7.27338">
        <ele>355.39999389648</ele>
        <time>2017-07-20T10:49:09Z</time>
      </trkpt>
      <trkpt lat="48.203" lon="7.2738">
        <ele>354</ele>
        <time>2017-07-20T10:49:12Z</time>
      </trkpt>
      <trkpt lat="48.20303" lon="7.27406">
        <ele>353.20001220703</ele>
        <time>2017-07-20T10:49:14Z</time>
      </trkpt>
      <trkpt lat="48.20306" lon="7.27419">
        <ele>352.79998779297</ele>
        <time>2017-07-20T10:49:15Z</time>
      </trkpt>
      <trkpt lat="48.20309" lon="7.27433">
        <ele>352.20001220703</ele>
        <time>2017-07-20T10:49:16Z</time>
      </trkpt>
      <trkpt lat="48.20313" lon="7.27445">
        <ele>351.79998779297</ele>
        <time>2017-07-20T10:49:17Z</time>
      </trkpt>
      <trkpt lat="48.20317" lon="7.27471">
        <ele>350.60000610352</ele>
        <time>2017-07-20T10:49:19Z</time>
      </trkpt>
      <trkpt lat="48.20319" lon="7.27496">
        <ele>349.79998779297</ele>
        <time>2017-07-20T10:49:21Z</time>
      </trkpt>
      <trkpt lat="48.20319" lon="7.27509">
        <ele>349.39999389648</ele>
        <time>2017-07-20T10:49:22Z</time>
      </trkpt>
      <trkpt lat="48.20317" lon="7.27546">
        <ele>348.20001220703</ele>
        <time>2017-07-20T10:49:25Z</time>
      </trkpt>
      <trkpt lat="48.20315" lon="7.27559">
        <ele>347.79998779297</ele>
        <time>2017-07-20T10:49:26Z</time>
      </trkpt>
      <trkpt lat="48.20305" lon="7.27596">
        <ele>347.20001220703</ele>
        <time>2017-07-20T10:49:29Z</time>
      </trkpt>
      <trkpt lat="48.20301" lon="7.27607">
        <ele>347</ele>
        <time>2017-07-20T10:49:30Z</time>
      </trkpt>
      <trkpt lat="48.20279" lon="7.27651">
        <ele>345.79998779297</ele>
        <time>2017-07-20T10:49:34Z</time>
      </trkpt>
      <trkpt lat="48.20274" lon="7.27662">
        <ele>345.60000610352</ele>
        <time>2017-07-20T10:49:35Z</time>
      </trkpt>
      <trkpt lat="48.20269" lon="7.27673">
        <ele>345.39999389648</ele>
        <time>2017-07-20T10:49:36Z</time>
      </trkpt>
      <trkpt lat="48.20258" lon="7.27695">
        <ele>344.79998779297</ele>
        <time>2017-07-20T10:49:38Z</time>
      </trkpt>
      <trkpt lat="48.20237" lon="7.27742">
        <ele>343.39999389648</ele>
        <time>2017-07-20T10:49:42Z</time>
      </trkpt>
      <trkpt lat="48.20228" lon="7.27766">
        <ele>342.60000610352</ele>
        <time>2017-07-20T10:49:44Z</time>
      </trkpt>
      <trkpt lat="48.20225" lon="7.27779">
        <ele>342.20001220703</ele>
        <time>2017-07-20T10:49:45Z</time>
      </trkpt>
      <trkpt lat="48.20223" lon="7.27793">
        <ele>341.79998779297</ele>
        <time>2017-07-20T10:49:46Z</time>
      </trkpt>
      <trkpt lat="48.20223" lon="7.2782">
        <ele>340.60000610352</ele>
        <time>2017-07-20T10:49:48Z</time>
      </trkpt>
      <trkpt lat="48.20226" lon="7.27849">
        <ele>339.79998779297</ele>
        <time>2017-07-20T10:49:50Z</time>
      </trkpt>
      <trkpt lat="48.20227" lon="7.27864">
        <ele>339.39999389648</ele>
        <time>2017-07-20T10:49:51Z</time>
      </trkpt>
      <trkpt lat="48.20231" lon="7.27892">
        <ele>338.60000610352</ele>
        <time>2017-07-20T10:49:53Z</time>
      </trkpt>
      <trkpt lat="48.20233" lon="7.27906">
        <ele>338.20001220703</ele>
        <time>2017-07-20T10:49:54Z</time>
      </trkpt>
      <trkpt lat="48.20239" lon="7.27943">
        <ele>337.20001220703</ele>
        <time>2017-07-20T10:49:57Z</time>
      </trkpt>
      <trkpt lat="48.20243" lon="7.27967">
        <ele>336.79998779297</ele>
        <time>2017-07-20T10:49:59Z</time>
      </trkpt>
      <trkpt lat="48.20248" lon="7.28001">
        <ele>336.20001220703</ele>
        <time>2017-07-20T10:50:02Z</time>
      </trkpt>
      <trkpt lat="48.20252" lon="7.28046">
        <ele>335.60000610352</ele>
        <time>2017-07-20T10:50:06Z</time>
      </trkpt>
      <trkpt lat="48.20252" lon="7.28069">
        <ele>335.20001220703</ele>
        <time>2017-07-20T10:50:08Z</time>
      </trkpt>
      <trkpt lat="48.20249" lon="7.28113">
        <ele>334.39999389648</ele>
        <time>2017-07-20T10:50:12Z</time>
      </trkpt>
      <trkpt lat="48.2024" lon="7.28165">
        <ele>334.20001220703</ele>
        <time>2017-07-20T10:50:17Z</time>
      </trkpt>
      <trkpt lat="48.20236" lon="7.28185">
        <ele>333.79998779297</ele>
        <time>2017-07-20T10:50:19Z</time>
      </trkpt>
      <trkpt lat="48.20233" lon="7.28195">
        <ele>333.60000610352</ele>
        <time>2017-07-20T10:50:20Z</time>
      </trkpt>
      <trkpt lat="48.20224" lon="7.28226">
        <ele>333</ele>
        <time>2017-07-20T10:50:23Z</time>
      </trkpt>
      <trkpt lat="48.20222" lon="7.28233">
        <ele>332.79998779297</ele>
        <time>2017-07-20T10:50:24Z</time>
      </trkpt>
      <trkpt lat="48.20217" lon="7.28244">
        <ele>331.79998779297</ele>
        <time>2017-07-20T10:50:27Z</time>
      </trkpt>
      <trkpt lat="48.20215" lon="7.28244">
        <ele>331.39999389648</ele>
        <time>2017-07-20T10:50:28Z</time>
      </trkpt>
      <trkpt lat="48.2021" lon="7.28241">
        <ele>330.39999389648</ele>
        <time>2017-07-20T10:50:30Z</time>
      </trkpt>
      <trkpt lat="48.20209" lon="7.28237">
        <ele>330</ele>
        <time>2017-07-20T10:50:31Z</time>
      </trkpt>
      <trkpt lat="48.20209" lon="7.2823">
        <ele>329.39999389648</ele>
        <time>2017-07-20T10:50:33Z</time>
      </trkpt>
      <trkpt lat="48.20211" lon="7.28225">
        <ele>329</ele>
        <time>2017-07-20T10:50:35Z</time>
      </trkpt>
      <trkpt lat="48.20212" lon="7.28222">
        <ele>328.79998779297</ele>
        <time>2017-07-20T10:50:36Z</time>
      </trkpt>
      <trkpt lat="48.20211" lon="7.28235">
        <ele>328.79998779297</ele>
        <time>2017-07-20T10:51:10Z</time>
      </trkpt>
      <trkpt lat="48.20215" lon="7.28246">
        <ele>328.79998779297</ele>
        <time>2017-07-20T10:51:14Z</time>
      </trkpt>
      <trkpt lat="48.20218" lon="7.28251">
        <ele>328.60000610352</ele>
        <time>2017-07-20T10:51:16Z</time>
      </trkpt>
      <trkpt lat="48.20222" lon="7.28266">
        <ele>328.39999389648</ele>
        <time>2017-07-20T10:51:21Z</time>
      </trkpt>
      <trkpt lat="48.2022" lon="7.28279">
        <ele>328.39999389648</ele>
        <time>2017-07-20T10:51:23Z</time>
      </trkpt>
      <trkpt lat="48.20219" lon="7.28288">
        <ele>328.20001220703</ele>
        <time>2017-07-20T10:51:24Z</time>
      </trkpt>
      <trkpt lat="48.20215" lon="7.28338">
        <ele>327.39999389648</ele>
        <time>2017-07-20T10:51:29Z</time>
      </trkpt>
      <trkpt lat="48.20215" lon="7.28349">
        <ele>327.20001220703</ele>
        <time>2017-07-20T10:51:30Z</time>
      </trkpt>
      <trkpt lat="48.20214" lon="7.28403">
        <ele>326</ele>
        <time>2017-07-20T10:51:35Z</time>
      </trkpt>
      <trkpt lat="48.20212" lon="7.28413">
        <ele>325.79998779297</ele>
        <time>2017-07-20T10:51:36Z</time>
      </trkpt>
      <trkpt lat="48.2021" lon="7.28423">
        <ele>325.60000610352</ele>
        <time>2017-07-20T10:51:37Z</time>
      </trkpt>
      <trkpt lat="48.20202" lon="7.28453">
        <ele>325</ele>
        <time>2017-07-20T10:51:40Z</time>
      </trkpt>
      <trkpt lat="48.20199" lon="7.28463">
        <ele>324.79998779297</ele>
        <time>2017-07-20T10:51:41Z</time>
      </trkpt>
      <trkpt lat="48.20186" lon="7.28501">
        <ele>324</ele>
        <time>2017-07-20T10:51:45Z</time>
      </trkpt>
      <trkpt lat="48.20181" lon="7.28519">
        <ele>323.79998779297</ele>
        <time>2017-07-20T10:51:47Z</time>
      </trkpt>
      <trkpt lat="48.20174" lon="7.2855">
        <ele>322.79998779297</ele>
        <time>2017-07-20T10:51:50Z</time>
      </trkpt>
      <trkpt lat="48.20168" lon="7.28571">
        <ele>322.39999389648</ele>
        <time>2017-07-20T10:51:52Z</time>
      </trkpt>
      <trkpt lat="48.20163" lon="7.28607">
        <ele>321.60000610352</ele>
        <time>2017-07-20T10:51:55Z</time>
      </trkpt>
      <trkpt lat="48.20161" lon="7.28631">
        <ele>320.79998779297</ele>
        <time>2017-07-20T10:51:57Z</time>
      </trkpt>
      <trkpt lat="48.2016" lon="7.28643">
        <ele>320.60000610352</ele>
        <time>2017-07-20T10:51:58Z</time>
      </trkpt>
      <trkpt lat="48.2016" lon="7.28681">
        <ele>319.39999389648</ele>
        <time>2017-07-20T10:52:01Z</time>
      </trkpt>
      <trkpt lat="48.20162" lon="7.28706">
        <ele>318.79998779297</ele>
        <time>2017-07-20T10:52:03Z</time>
      </trkpt>
      <trkpt lat="48.20162" lon="7.28719">
        <ele>318.39999389648</ele>
        <time>2017-07-20T10:52:04Z</time>
      </trkpt>
      <trkpt lat="48.20166" lon="7.28768">
        <ele>317.20001220703</ele>
        <time>2017-07-20T10:52:08Z</time>
      </trkpt>
      <trkpt lat="48.20168" lon="7.28803">
        <ele>316</ele>
        <time>2017-07-20T10:52:11Z</time>
      </trkpt>
      <trkpt lat="48.20169" lon="7.28813">
        <ele>315.39999389648</ele>
        <time>2017-07-20T10:52:12Z</time>
      </trkpt>
      <trkpt lat="48.20171" lon="7.28834">
        <ele>315</ele>
        <time>2017-07-20T10:52:14Z</time>
      </trkpt>
      <trkpt lat="48.20174" lon="7.28874">
        <ele>314</ele>
        <time>2017-07-20T10:52:18Z</time>
      </trkpt>
      <trkpt lat="48.20176" lon="7.28896">
        <ele>313.79998779297</ele>
        <time>2017-07-20T10:52:20Z</time>
      </trkpt>
      <trkpt lat="48.20178" lon="7.28961">
        <ele>312.79998779297</ele>
        <time>2017-07-20T10:52:26Z</time>
      </trkpt>
      <trkpt lat="48.20172" lon="7.29019">
        <ele>311.79998779297</ele>
        <time>2017-07-20T10:52:31Z</time>
      </trkpt>
      <trkpt lat="48.2017" lon="7.2903">
        <ele>311.60000610352</ele>
        <time>2017-07-20T10:52:32Z</time>
      </trkpt>
      <trkpt lat="48.2016" lon="7.29076">
        <ele>310.39999389648</ele>
        <time>2017-07-20T10:52:36Z</time>
      </trkpt>
      <trkpt lat="48.20152" lon="7.29099">
        <ele>309.60000610352</ele>
        <time>2017-07-20T10:52:38Z</time>
      </trkpt>
      <trkpt lat="48.20148" lon="7.29111">
        <ele>309.20001220703</ele>
        <time>2017-07-20T10:52:39Z</time>
      </trkpt>
      <trkpt lat="48.20135" lon="7.29144">
        <ele>308</ele>
        <time>2017-07-20T10:52:42Z</time>
      </trkpt>
      <trkpt lat="48.20125" lon="7.29164">
        <ele>307.20001220703</ele>
        <time>2017-07-20T10:52:44Z</time>
      </trkpt>
      <trkpt lat="48.2012" lon="7.29174">
        <ele>306.79998779297</ele>
        <time>2017-07-20T10:52:45Z</time>
      </trkpt>
      <trkpt lat="48.20098" lon="7.29227">
        <ele>306</ele>
        <time>2017-07-20T10:52:50Z</time>
      </trkpt>
      <trkpt lat="48.20097" lon="7.2924">
        <ele>305.79998779297</ele>
        <time>2017-07-20T10:52:51Z</time>
      </trkpt>
      <trkpt lat="48.20098" lon="7.29289">
        <ele>304.79998779297</ele>
        <time>2017-07-20T10:52:55Z</time>
      </trkpt>
      <trkpt lat="48.20108" lon="7.29359">
        <ele>303.79998779297</ele>
        <time>2017-07-20T10:53:01Z</time>
      </trkpt>
      <trkpt lat="48.2011" lon="7.2937">
        <ele>303.60000610352</ele>
        <time>2017-07-20T10:53:02Z</time>
      </trkpt>
      <trkpt lat="48.20118" lon="7.29414">
        <ele>302.79998779297</ele>
        <time>2017-07-20T10:53:06Z</time>
      </trkpt>
      <trkpt lat="48.20122" lon="7.29449">
        <ele>302.20001220703</ele>
        <time>2017-07-20T10:53:09Z</time>
      </trkpt>
      <trkpt lat="48.20123" lon="7.29473">
        <ele>301.79998779297</ele>
        <time>2017-07-20T10:53:11Z</time>
      </trkpt>
      <trkpt lat="48.2012" lon="7.29497">
        <ele>301</ele>
        <time>2017-07-20T10:53:13Z</time>
      </trkpt>
      <trkpt lat="48.20116" lon="7.29508">
        <ele>300.60000610352</ele>
        <time>2017-07-20T10:53:14Z</time>
      </trkpt>
      <trkpt lat="48.20104" lon="7.29526">
        <ele>299.79998779297</ele>
        <time>2017-07-20T10:53:16Z</time>
      </trkpt>
      <trkpt lat="48.20097" lon="7.29532">
        <ele>299.39999389648</ele>
        <time>2017-07-20T10:53:17Z</time>
      </trkpt>
      <trkpt lat="48.20089" lon="7.2954">
        <ele>298.79998779297</ele>
        <time>2017-07-20T10:53:18Z</time>
      </trkpt>
      <trkpt lat="48.20073" lon="7.2955">
        <ele>298</ele>
        <time>2017-07-20T10:53:20Z</time>
      </trkpt>
      <trkpt lat="48.20058" lon="7.29563">
        <ele>297.20001220703</ele>
        <time>2017-07-20T10:53:22Z</time>
      </trkpt>
      <trkpt lat="48.20053" lon="7.29573">
        <ele>297</ele>
        <time>2017-07-20T10:53:23Z</time>
      </trkpt>
      <trkpt lat="48.20044" lon="7.29596">
        <ele>295.79998779297</ele>
        <time>2017-07-20T10:53:25Z</time>
      </trkpt>
      <trkpt lat="48.20043" lon="7.29608">
        <ele>295.60000610352</ele>
        <time>2017-07-20T10:53:26Z</time>
      </trkpt>
      <trkpt lat="48.20045" lon="7.29631">
        <ele>294.79998779297</ele>
        <time>2017-07-20T10:53:28Z</time>
      </trkpt>
      <trkpt lat="48.20048" lon="7.29641">
        <ele>294.60000610352</ele>
        <time>2017-07-20T10:53:29Z</time>
      </trkpt>
      <trkpt lat="48.2005" lon="7.29652">
        <ele>294.39999389648</ele>
        <time>2017-07-20T10:53:30Z</time>
      </trkpt>
      <trkpt lat="48.2006" lon="7.29679">
        <ele>293.79998779297</ele>
        <time>2017-07-20T10:53:33Z</time>
      </trkpt>
      <trkpt lat="48.20063" lon="7.29688">
        <ele>293.39999389648</ele>
        <time>2017-07-20T10:53:34Z</time>
      </trkpt>
      <trkpt lat="48.2008" lon="7.2974">
        <ele>292.60000610352</ele>
        <time>2017-07-20T10:53:40Z</time>
      </trkpt>
      <trkpt lat="48.20082" lon="7.29749">
        <ele>292.60000610352</ele>
        <time>2017-07-20T10:53:41Z</time>
      </trkpt>
      <trkpt lat="48.20098" lon="7.29817">
        <ele>291.60000610352</ele>
        <time>2017-07-20T10:53:48Z</time>
      </trkpt>
      <trkpt lat="48.201" lon="7.29828">
        <ele>291.39999389648</ele>
        <time>2017-07-20T10:53:49Z</time>
      </trkpt>
      <trkpt lat="48.20107" lon="7.29871">
        <ele>290.39999389648</ele>
        <time>2017-07-20T10:53:53Z</time>
      </trkpt>
      <trkpt lat="48.20114" lon="7.29912">
        <ele>289.60000610352</ele>
        <time>2017-07-20T10:53:57Z</time>
      </trkpt>
      <trkpt lat="48.20115" lon="7.29922">
        <ele>289.39999389648</ele>
        <time>2017-07-20T10:53:58Z</time>
      </trkpt>
      <trkpt lat="48.20117" lon="7.29984">
        <ele>288.20001220703</ele>
        <time>2017-07-20T10:54:04Z</time>
      </trkpt>
      <trkpt lat="48.20113" lon="7.30004">
        <ele>288.20001220703</ele>
        <time>2017-07-20T10:54:06Z</time>
      </trkpt>
      <trkpt lat="48.20104" lon="7.30032">
        <ele>288</ele>
        <time>2017-07-20T10:54:09Z</time>
      </trkpt>
      <trkpt lat="48.20093" lon="7.30061">
        <ele>288</ele>
        <time>2017-07-20T10:54:12Z</time>
      </trkpt>
      <trkpt lat="48.20083" lon="7.30077">
        <ele>287.79998779297</ele>
        <time>2017-07-20T10:54:14Z</time>
      </trkpt>
      <trkpt lat="48.20065" lon="7.30098">
        <ele>287.20001220703</ele>
        <time>2017-07-20T10:54:17Z</time>
      </trkpt>
      <trkpt lat="48.20051" lon="7.30111">
        <ele>286.60000610352</ele>
        <time>2017-07-20T10:54:19Z</time>
      </trkpt>
      <trkpt lat="48.20036" lon="7.30121">
        <ele>285.79998779297</ele>
        <time>2017-07-20T10:54:21Z</time>
      </trkpt>
      <trkpt lat="48.20013" lon="7.30134">
        <ele>284.39999389648</ele>
        <time>2017-07-20T10:54:24Z</time>
      </trkpt>
      <trkpt lat="48.1999" lon="7.30146">
        <ele>283.20001220703</ele>
        <time>2017-07-20T10:54:27Z</time>
      </trkpt>
      <trkpt lat="48.1996" lon="7.30168">
        <ele>282</ele>
        <time>2017-07-20T10:54:31Z</time>
      </trkpt>
      <trkpt lat="48.19954" lon="7.30175">
        <ele>281.60000610352</ele>
        <time>2017-07-20T10:54:32Z</time>
      </trkpt>
      <trkpt lat="48.19936" lon="7.30196">
        <ele>280.79998779297</ele>
        <time>2017-07-20T10:54:35Z</time>
      </trkpt>
      <trkpt lat="48.19924" lon="7.30211">
        <ele>280</ele>
        <time>2017-07-20T10:54:37Z</time>
      </trkpt>
      <trkpt lat="48.19917" lon="7.30217">
        <ele>279.60000610352</ele>
        <time>2017-07-20T10:54:38Z</time>
      </trkpt>
      <trkpt lat="48.19895" lon="7.30232">
        <ele>278.79998779297</ele>
        <time>2017-07-20T10:54:41Z</time>
      </trkpt>
      <trkpt lat="48.1988" lon="7.3024">
        <ele>278.39999389648</ele>
        <time>2017-07-20T10:54:43Z</time>
      </trkpt>
      <trkpt lat="48.19857" lon="7.30251">
        <ele>277.39999389648</ele>
        <time>2017-07-20T10:54:46Z</time>
      </trkpt>
      <trkpt lat="48.19841" lon="7.3026">
        <ele>276.79998779297</ele>
        <time>2017-07-20T10:54:48Z</time>
      </trkpt>
      <trkpt lat="48.19827" lon="7.30272">
        <ele>276.20001220703</ele>
        <time>2017-07-20T10:54:50Z</time>
      </trkpt>
      <trkpt lat="48.19815" lon="7.30292">
        <ele>275.60000610352</ele>
        <time>2017-07-20T10:54:52Z</time>
      </trkpt>
      <trkpt lat="48.19804" lon="7.30314">
        <ele>275</ele>
        <time>2017-07-20T10:54:54Z</time>
      </trkpt>
      <trkpt lat="48.19785" lon="7.30356">
        <ele>274.39999389648</ele>
        <time>2017-07-20T10:54:58Z</time>
      </trkpt>
      <trkpt lat="48.19779" lon="7.30378">
        <ele>274</ele>
        <time>2017-07-20T10:55:00Z</time>
      </trkpt>
      <trkpt lat="48.19776" lon="7.304">
        <ele>273.39999389648</ele>
        <time>2017-07-20T10:55:02Z</time>
      </trkpt>
      <trkpt lat="48.1978" lon="7.30435">
        <ele>273</ele>
        <time>2017-07-20T10:55:05Z</time>
      </trkpt>
      <trkpt lat="48.19783" lon="7.30446">
        <ele>272.79998779297</ele>
        <time>2017-07-20T10:55:06Z</time>
      </trkpt>
      <trkpt lat="48.19787" lon="7.30459">
        <ele>272.60000610352</ele>
        <time>2017-07-20T10:55:07Z</time>
      </trkpt>
      <trkpt lat="48.19798" lon="7.30497">
        <ele>272</ele>
        <time>2017-07-20T10:55:10Z</time>
      </trkpt>
      <trkpt lat="48.19802" lon="7.30521">
        <ele>271.79998779297</ele>
        <time>2017-07-20T10:55:12Z</time>
      </trkpt>
      <trkpt lat="48.1981" lon="7.30575">
        <ele>270.79998779297</ele>
        <time>2017-07-20T10:55:17Z</time>
      </trkpt>
      <trkpt lat="48.19817" lon="7.3064">
        <ele>271</ele>
        <time>2017-07-20T10:55:24Z</time>
      </trkpt>
      <trkpt lat="48.19822" lon="7.30696">
        <ele>271.20001220703</ele>
        <time>2017-07-20T10:55:31Z</time>
      </trkpt>
      <trkpt lat="48.19826" lon="7.30747">
        <ele>271.60000610352</ele>
        <time>2017-07-20T10:55:38Z</time>
      </trkpt>
      <trkpt lat="48.19834" lon="7.30793">
        <ele>271.79998779297</ele>
        <time>2017-07-20T10:55:45Z</time>
      </trkpt>
      <trkpt lat="48.19834" lon="7.308">
        <ele>271.79998779297</ele>
        <time>2017-07-20T10:55:46Z</time>
      </trkpt>
      <trkpt lat="48.19832" lon="7.30826">
        <ele>271.60000610352</ele>
        <time>2017-07-20T10:55:49Z</time>
      </trkpt>
      <trkpt lat="48.19826" lon="7.30867">
        <ele>270.60000610352</ele>
        <time>2017-07-20T10:55:53Z</time>
      </trkpt>
      <trkpt lat="48.19824" lon="7.30878">
        <ele>270.20001220703</ele>
        <time>2017-07-20T10:55:54Z</time>
      </trkpt>
      <trkpt lat="48.19821" lon="7.30889">
        <ele>269.79998779297</ele>
        <time>2017-07-20T10:55:55Z</time>
      </trkpt>
      <trkpt lat="48.19816" lon="7.30898">
        <ele>269.60000610352</ele>
        <time>2017-07-20T10:55:56Z</time>
      </trkpt>
      <trkpt lat="48.1981" lon="7.30907">
        <ele>269.20001220703</ele>
        <time>2017-07-20T10:55:57Z</time>
      </trkpt>
      <trkpt lat="48.19799" lon="7.30926">
        <ele>268.39999389648</ele>
        <time>2017-07-20T10:55:59Z</time>
      </trkpt>
      <trkpt lat="48.19781" lon="7.30955">
        <ele>267</ele>
        <time>2017-07-20T10:56:02Z</time>
      </trkpt>
      <trkpt lat="48.19774" lon="7.30965">
        <ele>266.60000610352</ele>
        <time>2017-07-20T10:56:03Z</time>
      </trkpt>
      <trkpt lat="48.19763" lon="7.30986">
        <ele>265.60000610352</ele>
        <time>2017-07-20T10:56:05Z</time>
      </trkpt>
      <trkpt lat="48.19745" lon="7.31012">
        <ele>264.39999389648</ele>
        <time>2017-07-20T10:56:08Z</time>
      </trkpt>
      <trkpt lat="48.19742" lon="7.31019">
        <ele>264</ele>
        <time>2017-07-20T10:56:09Z</time>
      </trkpt>
      <trkpt lat="48.19736" lon="7.3103">
        <ele>263.20001220703</ele>
        <time>2017-07-20T10:56:11Z</time>
      </trkpt>
      <trkpt lat="48.19729" lon="7.3104">
        <ele>262.20001220703</ele>
        <time>2017-07-20T10:56:13Z</time>
      </trkpt>
      <trkpt lat="48.1971" lon="7.31054">
        <ele>261</ele>
        <time>2017-07-20T10:56:17Z</time>
      </trkpt>
      <trkpt lat="48.19706" lon="7.31055">
        <ele>261</ele>
        <time>2017-07-20T10:56:18Z</time>
      </trkpt>
      <trkpt lat="48.19687" lon="7.31056">
        <ele>261</ele>
        <time>2017-07-20T10:56:23Z</time>
      </trkpt>
      <trkpt lat="48.19673" lon="7.31052">
        <ele>261.39999389648</ele>
        <time>2017-07-20T10:56:28Z</time>
      </trkpt>
      <trkpt lat="48.19661" lon="7.31049">
        <ele>262</ele>
        <time>2017-07-20T10:56:33Z</time>
      </trkpt>
      <trkpt lat="48.19659" lon="7.31048">
        <ele>262.20001220703</ele>
        <time>2017-07-20T10:56:34Z</time>
      </trkpt>
      <trkpt lat="48.19649" lon="7.31046">
        <ele>263</ele>
        <time>2017-07-20T10:56:38Z</time>
      </trkpt>
      <trkpt lat="48.19644" lon="7.31046">
        <ele>263.39999389648</ele>
        <time>2017-07-20T10:56:40Z</time>
      </trkpt>
      <trkpt lat="48.19632" lon="7.31048">
        <ele>264.20001220703</ele>
        <time>2017-07-20T10:56:45Z</time>
      </trkpt>
      <trkpt lat="48.19624" lon="7.31051">
        <ele>264.79998779297</ele>
        <time>2017-07-20T10:56:48Z</time>
      </trkpt>
      <trkpt lat="48.19614" lon="7.31056">
        <ele>265.20001220703</ele>
        <time>2017-07-20T10:56:52Z</time>
      </trkpt>
      <trkpt lat="48.19603" lon="7.31066">
        <ele>266.20001220703</ele>
        <time>2017-07-20T10:56:57Z</time>
      </trkpt>
      <trkpt lat="48.196" lon="7.3107">
        <ele>266.39999389648</ele>
        <time>2017-07-20T10:56:59Z</time>
      </trkpt>
      <trkpt lat="48.1959" lon="7.31077">
        <ele>267</ele>
        <time>2017-07-20T10:57:03Z</time>
      </trkpt>
      <trkpt lat="48.19582" lon="7.31086">
        <ele>267.39999389648</ele>
        <time>2017-07-20T10:57:07Z</time>
      </trkpt>
      <trkpt lat="48.19576" lon="7.3109">
        <ele>267.79998779297</ele>
        <time>2017-07-20T10:57:10Z</time>
      </trkpt>
      <trkpt lat="48.19566" lon="7.31096">
        <ele>268.39999389648</ele>
        <time>2017-07-20T10:57:14Z</time>
      </trkpt>
      <trkpt lat="48.19555" lon="7.31105">
        <ele>269</ele>
        <time>2017-07-20T10:57:19Z</time>
      </trkpt>
      <trkpt lat="48.19546" lon="7.31111">
        <ele>269.39999389648</ele>
        <time>2017-07-20T10:57:22Z</time>
      </trkpt>
      <trkpt lat="48.19538" lon="7.31116">
        <ele>270</ele>
        <time>2017-07-20T10:57:25Z</time>
      </trkpt>
      <trkpt lat="48.19528" lon="7.31125">
        <ele>270.39999389648</ele>
        <time>2017-07-20T10:57:29Z</time>
      </trkpt>
      <trkpt lat="48.19515" lon="7.31133">
        <ele>270.60000610352</ele>
        <time>2017-07-20T10:57:33Z</time>
      </trkpt>
      <trkpt lat="48.19495" lon="7.31154">
        <ele>270.60000610352</ele>
        <time>2017-07-20T10:57:39Z</time>
      </trkpt>
      <trkpt lat="48.19472" lon="7.31185">
        <ele>270</ele>
        <time>2017-07-20T10:57:45Z</time>
      </trkpt>
      <trkpt lat="48.19455" lon="7.3121">
        <ele>269.39999389648</ele>
        <time>2017-07-20T10:57:49Z</time>
      </trkpt>
      <trkpt lat="48.19443" lon="7.31232">
        <ele>268.79998779297</ele>
        <time>2017-07-20T10:57:52Z</time>
      </trkpt>
      <trkpt lat="48.19435" lon="7.31249">
        <ele>268.39999389648</ele>
        <time>2017-07-20T10:57:54Z</time>
      </trkpt>
      <trkpt lat="48.19433" lon="7.31258">
        <ele>268.20001220703</ele>
        <time>2017-07-20T10:57:55Z</time>
      </trkpt>
      <trkpt lat="48.19427" lon="7.31277">
        <ele>267.79998779297</ele>
        <time>2017-07-20T10:57:57Z</time>
      </trkpt>
      <trkpt lat="48.1942" lon="7.31305">
        <ele>267</ele>
        <time>2017-07-20T10:58:00Z</time>
      </trkpt>
      <trkpt lat="48.19417" lon="7.31314">
        <ele>266.79998779297</ele>
        <time>2017-07-20T10:58:01Z</time>
      </trkpt>
      <trkpt lat="48.19412" lon="7.31331">
        <ele>266.20001220703</ele>
        <time>2017-07-20T10:58:03Z</time>
      </trkpt>
      <trkpt lat="48.19407" lon="7.31348">
        <ele>265.79998779297</ele>
        <time>2017-07-20T10:58:05Z</time>
      </trkpt>
      <trkpt lat="48.19402" lon="7.31373">
        <ele>265.39999389648</ele>
        <time>2017-07-20T10:58:09Z</time>
      </trkpt>
      <trkpt lat="48.19396" lon="7.3139">
        <ele>264.60000610352</ele>
        <time>2017-07-20T10:58:13Z</time>
      </trkpt>
      <trkpt lat="48.19394" lon="7.31395">
        <ele>264.39999389648</ele>
        <time>2017-07-20T10:58:15Z</time>
      </trkpt>
      <trkpt lat="48.19395" lon="7.31397">
        <ele>264.20001220703</ele>
        <time>2017-07-20T10:58:16Z</time>
      </trkpt>
      <trkpt lat="48.194" lon="7.31398">
        <ele>264.20001220703</ele>
        <time>2017-07-20T10:58:18Z</time>
      </trkpt>
      <trkpt lat="48.19415" lon="7.31403">
        <ele>264</ele>
        <time>2017-07-20T10:58:23Z</time>
      </trkpt>
      <trkpt lat="48.19419" lon="7.31404">
        <ele>264</ele>
        <time>2017-07-20T10:58:24Z</time>
      </trkpt>
      <trkpt lat="48.19427" lon="7.31415">
        <ele>263.60000610352</ele>
        <time>2017-07-20T10:58:27Z</time>
      </trkpt>
      <trkpt lat="48.19426" lon="7.3142">
        <ele>263.60000610352</ele>
        <time>2017-07-20T10:58:28Z</time>
      </trkpt>
      <trkpt lat="48.19418" lon="7.31436">
        <ele>262.79998779297</ele>
        <time>2017-07-20T10:58:32Z</time>
      </trkpt>
      <trkpt lat="48.1941" lon="7.31453">
        <ele>262.39999389648</ele>
        <time>2017-07-20T10:58:36Z</time>
      </trkpt>
      <trkpt lat="48.19401" lon="7.31467">
        <ele>262.20001220703</ele>
        <time>2017-07-20T10:58:39Z</time>
      </trkpt>
      <trkpt lat="48.19385" lon="7.31507">
        <ele>261.60000610352</ele>
        <time>2017-07-20T10:58:45Z</time>
      </trkpt>
      <trkpt lat="48.19383" lon="7.31516">
        <ele>261.39999389648</ele>
        <time>2017-07-20T10:58:46Z</time>
      </trkpt>
      <trkpt lat="48.1938" lon="7.31545">
        <ele>260.79998779297</ele>
        <time>2017-07-20T10:58:49Z</time>
      </trkpt>
      <trkpt lat="48.19378" lon="7.31566">
        <ele>260.20001220703</ele>
        <time>2017-07-20T10:58:51Z</time>
      </trkpt>
      <trkpt lat="48.19378" lon="7.31605">
        <ele>259.20001220703</ele>
        <time>2017-07-20T10:58:55Z</time>
      </trkpt>
      <trkpt lat="48.19377" lon="7.31637">
        <ele>258</ele>
        <time>2017-07-20T10:58:58Z</time>
      </trkpt>
      <trkpt lat="48.19375" lon="7.31671">
        <ele>256.39999389648</ele>
        <time>2017-07-20T10:59:01Z</time>
      </trkpt>
      <trkpt lat="48.19373" lon="7.31704">
        <ele>255.39999389648</ele>
        <time>2017-07-20T10:59:04Z</time>
      </trkpt>
      <trkpt lat="48.19372" lon="7.31723">
        <ele>254.39999389648</ele>
        <time>2017-07-20T10:59:06Z</time>
      </trkpt>
      <trkpt lat="48.19374" lon="7.31733">
        <ele>254</ele>
        <time>2017-07-20T10:59:07Z</time>
      </trkpt>
      <trkpt lat="48.19378" lon="7.31751">
        <ele>253</ele>
        <time>2017-07-20T10:59:09Z</time>
      </trkpt>
      <trkpt lat="48.19382" lon="7.31757">
        <ele>252.60000610352</ele>
        <time>2017-07-20T10:59:10Z</time>
      </trkpt>
      <trkpt lat="48.19393" lon="7.31769">
        <ele>251.60000610352</ele>
        <time>2017-07-20T10:59:13Z</time>
      </trkpt>
      <trkpt lat="48.19398" lon="7.31774">
        <ele>251</ele>
        <time>2017-07-20T10:59:15Z</time>
      </trkpt>
      <trkpt lat="48.19404" lon="7.3178">
        <ele>250.60000610352</ele>
        <time>2017-07-20T10:59:18Z</time>
      </trkpt>
      <trkpt lat="48.19415" lon="7.31794">
        <ele>250.80000305176</ele>
        <time>2017-07-20T10:59:24Z</time>
      </trkpt>
      <trkpt lat="48.19423" lon="7.31799">
        <ele>250.39999389648</ele>
        <time>2017-07-20T10:59:29Z</time>
      </trkpt>
      <trkpt lat="48.19424" lon="7.318">
        <ele>250.19999694824</ele>
        <time>2017-07-20T10:59:30Z</time>
      </trkpt>
      <trkpt lat="48.19432" lon="7.31802">
        <ele>249.39999389648</ele>
        <time>2017-07-20T11:00:18Z</time>
      </trkpt>
      <trkpt lat="48.19433" lon="7.31804">
        <ele>249.39999389648</ele>
        <time>2017-07-20T11:00:19Z</time>
      </trkpt>
      <trkpt lat="48.19434" lon="7.31806">
        <ele>249.39999389648</ele>
        <time>2017-07-20T11:00:20Z</time>
      </trkpt>
      <trkpt lat="48.19448" lon="7.31813">
        <ele>248.80000305176</ele>
        <time>2017-07-20T11:00:25Z</time>
      </trkpt>
      <trkpt lat="48.19447" lon="7.31826">
        <ele>248.39999389648</ele>
        <time>2017-07-20T11:00:28Z</time>
      </trkpt>
      <trkpt lat="48.19444" lon="7.3183">
        <ele>248.19999694824</ele>
        <time>2017-07-20T11:00:29Z</time>
      </trkpt>
      <trkpt lat="48.19435" lon="7.31849">
        <ele>247.80000305176</ele>
        <time>2017-07-20T11:00:33Z</time>
      </trkpt>
      <trkpt lat="48.19433" lon="7.31855">
        <ele>247.60000610352</ele>
        <time>2017-07-20T11:00:34Z</time>
      </trkpt>
      <trkpt lat="48.19427" lon="7.31874">
        <ele>247.19999694824</ele>
        <time>2017-07-20T11:00:37Z</time>
      </trkpt>
      <trkpt lat="48.19425" lon="7.31878">
        <ele>247</ele>
        <time>2017-07-20T11:00:38Z</time>
      </trkpt>
      <trkpt lat="48.19426" lon="7.3189">
        <ele>246.39999389648</ele>
        <time>2017-07-20T11:00:41Z</time>
      </trkpt>
      <trkpt lat="48.19428" lon="7.31891">
        <ele>246.39999389648</ele>
        <time>2017-07-20T11:00:42Z</time>
      </trkpt>
      <trkpt lat="48.1943" lon="7.31893">
        <ele>246.19999694824</ele>
        <time>2017-07-20T11:00:44Z</time>
      </trkpt>
      <trkpt lat="48.19432" lon="7.31894">
        <ele>246</ele>
        <time>2017-07-20T11:00:45Z</time>
      </trkpt>
      <trkpt lat="48.19443" lon="7.31902">
        <ele>245.80000305176</ele>
        <time>2017-07-20T11:00:50Z</time>
      </trkpt>
      <trkpt lat="48.19462" lon="7.31911">
        <ele>245.19999694824</ele>
        <time>2017-07-20T11:00:55Z</time>
      </trkpt>
      <trkpt lat="48.19466" lon="7.31913">
        <ele>245</ele>
        <time>2017-07-20T11:00:56Z</time>
      </trkpt>
      <trkpt lat="48.1948" lon="7.31923">
        <ele>244</ele>
        <time>2017-07-20T11:01:01Z</time>
      </trkpt>
      <trkpt lat="48.19488" lon="7.31925">
        <ele>243.60000610352</ele>
        <time>2017-07-20T11:01:07Z</time>
      </trkpt>
      <trkpt lat="48.1949" lon="7.31928">
        <ele>243</ele>
        <time>2017-07-20T11:01:24Z</time>
      </trkpt>
      <trkpt lat="48.19488" lon="7.31926">
        <ele>243.19999694824</ele>
        <time>2017-07-20T11:01:26Z</time>
      </trkpt>
      <trkpt lat="48.19485" lon="7.31913">
        <ele>243.39999389648</ele>
        <time>2017-07-20T11:03:26Z</time>
      </trkpt>
      <trkpt lat="48.19488" lon="7.31912">
        <ele>243.39999389648</ele>
        <time>2017-07-20T11:03:28Z</time>
      </trkpt>
      <trkpt lat="48.19497" lon="7.319">
        <ele>243.39999389648</ele>
        <time>2017-07-20T11:03:34Z</time>
      </trkpt>
      <trkpt lat="48.19504" lon="7.31894">
        <ele>243.60000610352</ele>
        <time>2017-07-20T11:03:38Z</time>
      </trkpt>
      <trkpt lat="48.19506" lon="7.31891">
        <ele>243.80000305176</ele>
        <time>2017-07-20T11:03:40Z</time>
      </trkpt>
      <trkpt lat="48.19506" lon="7.31881">
        <ele>244.19999694824</ele>
        <time>2017-07-20T11:03:45Z</time>
      </trkpt>
      <trkpt lat="48.19507" lon="7.31879">
        <ele>244.19999694824</ele>
        <time>2017-07-20T11:03:46Z</time>
      </trkpt>
      <trkpt lat="48.19508" lon="7.31876">
        <ele>244.19999694824</ele>
        <time>2017-07-20T11:03:48Z</time>
      </trkpt>
      <trkpt lat="48.19511" lon="7.31873">
        <ele>244.39999389648</ele>
        <time>2017-07-20T11:03:51Z</time>
      </trkpt>
      <trkpt lat="48.19514" lon="7.31869">
        <ele>244.39999389648</ele>
        <time>2017-07-20T11:03:54Z</time>
      </trkpt>
      <trkpt lat="48.19518" lon="7.31863">
        <ele>244.39999389648</ele>
        <time>2017-07-20T11:03:58Z</time>
      </trkpt>
      <trkpt lat="48.19522" lon="7.31857">
        <ele>244.60000610352</ele>
        <time>2017-07-20T11:04:04Z</time>
      </trkpt>
      <trkpt lat="48.19533" lon="7.31853">
        <ele>245</ele>
        <time>2017-07-20T11:04:19Z</time>
      </trkpt>
      <trkpt lat="48.19534" lon="7.31854">
        <ele>245</ele>
        <time>2017-07-20T11:04:20Z</time>
      </trkpt>
      <trkpt lat="48.19548" lon="7.31866">
        <ele>245</ele>
        <time>2017-07-20T11:04:30Z</time>
      </trkpt>
      <trkpt lat="48.19554" lon="7.31872">
        <ele>245</ele>
        <time>2017-07-20T11:04:37Z</time>
      </trkpt>
      <trkpt lat="48.19536" lon="7.31844">
        <ele>245</ele>
        <time>2017-07-20T11:05:47Z</time>
      </trkpt>
      <trkpt lat="48.19536" lon="7.31841">
        <ele>245</ele>
        <time>2017-07-20T11:05:49Z</time>
      </trkpt>
      <trkpt lat="48.19538" lon="7.31837">
        <ele>245</ele>
        <time>2017-07-20T11:05:51Z</time>
      </trkpt>
      <trkpt lat="48.19544" lon="7.31829">
        <ele>245.19999694824</ele>
        <time>2017-07-20T11:05:55Z</time>
      </trkpt>
      <trkpt lat="48.19555" lon="7.31815">
        <ele>245.39999389648</ele>
        <time>2017-07-20T11:06:03Z</time>
      </trkpt>
      <trkpt lat="48.19561" lon="7.31802">
        <ele>245.60000610352</ele>
        <time>2017-07-20T11:06:09Z</time>
      </trkpt>
      <trkpt lat="48.19565" lon="7.31792">
        <ele>246</ele>
        <time>2017-07-20T11:06:13Z</time>
      </trkpt>
      <trkpt lat="48.1957" lon="7.31784">
        <ele>246.19999694824</ele>
        <time>2017-07-20T11:06:17Z</time>
      </trkpt>
      <trkpt lat="48.1958" lon="7.31774">
        <ele>246.39999389648</ele>
        <time>2017-07-20T11:06:23Z</time>
      </trkpt>
      <trkpt lat="48.19591" lon="7.31753">
        <ele>247</ele>
        <time>2017-07-20T11:06:32Z</time>
      </trkpt>
      <trkpt lat="48.19592" lon="7.31741">
        <ele>247</ele>
        <time>2017-07-20T11:06:37Z</time>
      </trkpt>
      <trkpt lat="48.1959" lon="7.31738">
        <ele>247</ele>
        <time>2017-07-20T11:06:38Z</time>
      </trkpt>
      <trkpt lat="48.19582" lon="7.31715">
        <ele>247.39999389648</ele>
        <time>2017-07-20T11:06:50Z</time>
      </trkpt>
      <trkpt lat="48.19581" lon="7.31713">
        <ele>247.39999389648</ele>
        <time>2017-07-20T11:06:51Z</time>
      </trkpt>
      <trkpt lat="48.1958" lon="7.3171">
        <ele>247.39999389648</ele>
        <time>2017-07-20T11:06:52Z</time>
      </trkpt>
      <trkpt lat="48.19582" lon="7.31693">
        <ele>247.60000610352</ele>
        <time>2017-07-20T11:06:57Z</time>
      </trkpt>
      <trkpt lat="48.1959" lon="7.31675">
        <ele>248</ele>
        <time>2017-07-20T11:07:04Z</time>
      </trkpt>
      <trkpt lat="48.1959" lon="7.31668">
        <ele>248</ele>
        <time>2017-07-20T11:07:08Z</time>
      </trkpt>
      <trkpt lat="48.19591" lon="7.31663">
        <ele>248.39999389648</ele>
        <time>2017-07-20T11:07:17Z</time>
      </trkpt>
      <trkpt lat="48.1959" lon="7.31657">
        <ele>248.39999389648</ele>
        <time>2017-07-20T11:07:20Z</time>
      </trkpt>
      <trkpt lat="48.19587" lon="7.31654">
        <ele>248.39999389648</ele>
        <time>2017-07-20T11:07:22Z</time>
      </trkpt>
      <trkpt lat="48.19583" lon="7.31647">
        <ele>248.60000610352</ele>
        <time>2017-07-20T11:07:26Z</time>
      </trkpt>
      <trkpt lat="48.19583" lon="7.31641">
        <ele>248.19999694824</ele>
        <time>2017-07-20T11:11:03Z</time>
      </trkpt>
      <trkpt lat="48.19584" lon="7.3164">
        <ele>248.19999694824</ele>
        <time>2017-07-20T11:11:04Z</time>
      </trkpt>
      <trkpt lat="48.19585" lon="7.31637">
        <ele>248.19999694824</ele>
        <time>2017-07-20T11:11:06Z</time>
      </trkpt>
      <trkpt lat="48.19585" lon="7.31633">
        <ele>248.19999694824</ele>
        <time>2017-07-20T11:11:09Z</time>
      </trkpt>
      <trkpt lat="48.19585" lon="7.3163">
        <ele>248.19999694824</ele>
        <time>2017-07-20T11:11:11Z</time>
      </trkpt>
      <trkpt lat="48.19586" lon="7.31623">
        <ele>248.19999694824</ele>
        <time>2017-07-20T11:11:14Z</time>
      </trkpt>
      <trkpt lat="48.19589" lon="7.31614">
        <ele>248.39999389648</ele>
        <time>2017-07-20T11:11:19Z</time>
      </trkpt>
      <trkpt lat="48.19591" lon="7.31605">
        <ele>248.60000610352</ele>
        <time>2017-07-20T11:11:22Z</time>
      </trkpt>
      <trkpt lat="48.19591" lon="7.31598">
        <ele>248.80000305176</ele>
        <time>2017-07-20T11:11:24Z</time>
      </trkpt>
      <trkpt lat="48.19591" lon="7.31592">
        <ele>248.80000305176</ele>
        <time>2017-07-20T11:11:26Z</time>
      </trkpt>
      <trkpt lat="48.19593" lon="7.31583">
        <ele>249</ele>
        <time>2017-07-20T11:11:29Z</time>
      </trkpt>
      <trkpt lat="48.19594" lon="7.31576">
        <ele>249</ele>
        <time>2017-07-20T11:11:31Z</time>
      </trkpt>
      <trkpt lat="48.19595" lon="7.31572">
        <ele>249.19999694824</ele>
        <time>2017-07-20T11:11:32Z</time>
      </trkpt>
      <trkpt lat="48.19598" lon="7.3156">
        <ele>249.39999389648</ele>
        <time>2017-07-20T11:11:35Z</time>
      </trkpt>
      <trkpt lat="48.19603" lon="7.31536">
        <ele>249.80000305176</ele>
        <time>2017-07-20T11:11:42Z</time>
      </trkpt>
      <trkpt lat="48.19602" lon="7.31511">
        <ele>250.39999389648</ele>
        <time>2017-07-20T11:11:49Z</time>
      </trkpt>
      <trkpt lat="48.196" lon="7.31491">
        <ele>250.80000305176</ele>
        <time>2017-07-20T11:11:55Z</time>
      </trkpt>
      <trkpt lat="48.19601" lon="7.31472">
        <ele>251.19999694824</ele>
        <time>2017-07-20T11:12:01Z</time>
      </trkpt>
      <trkpt lat="48.19602" lon="7.31458">
        <ele>251.39999389648</ele>
        <time>2017-07-20T11:12:05Z</time>
      </trkpt>
      <trkpt lat="48.19604" lon="7.3145">
        <ele>251.39999389648</ele>
        <time>2017-07-20T11:12:08Z</time>
      </trkpt>
      <trkpt lat="48.19605" lon="7.31443">
        <ele>251.19999694824</ele>
        <time>2017-07-20T11:13:50Z</time>
      </trkpt>
      <trkpt lat="48.19608" lon="7.31438">
        <ele>251.39999389648</ele>
        <time>2017-07-20T11:13:52Z</time>
      </trkpt>
      <trkpt lat="48.1961" lon="7.31429">
        <ele>251.39999389648</ele>
        <time>2017-07-20T11:13:55Z</time>
      </trkpt>
      <trkpt lat="48.19612" lon="7.31419">
        <ele>251.39999389648</ele>
        <time>2017-07-20T11:13:58Z</time>
      </trkpt>
      <trkpt lat="48.19622" lon="7.31402">
        <ele>251.39999389648</ele>
        <time>2017-07-20T11:14:04Z</time>
      </trkpt>
      <trkpt lat="48.1963" lon="7.31383">
        <ele>251.80000305176</ele>
        <time>2017-07-20T11:14:11Z</time>
      </trkpt>
      <trkpt lat="48.19634" lon="7.3137">
        <ele>252.19999694824</ele>
        <time>2017-07-20T11:14:17Z</time>
      </trkpt>
      <trkpt lat="48.19635" lon="7.31364">
        <ele>252.19999694824</ele>
        <time>2017-07-20T11:14:21Z</time>
      </trkpt>
      <trkpt lat="48.19637" lon="7.3136">
        <ele>252.39999389648</ele>
        <time>2017-07-20T11:14:23Z</time>
      </trkpt>
      <trkpt lat="48.1964" lon="7.31353">
        <ele>252.39999389648</ele>
        <time>2017-07-20T11:14:26Z</time>
      </trkpt>
      <trkpt lat="48.19643" lon="7.31346">
        <ele>252.39999389648</ele>
        <time>2017-07-20T11:14:29Z</time>
      </trkpt>
      <trkpt lat="48.19645" lon="7.31343">
        <ele>252.39999389648</ele>
        <time>2017-07-20T11:14:30Z</time>
      </trkpt>
      <trkpt lat="48.19652" lon="7.3133">
        <ele>252.60000610352</ele>
        <time>2017-07-20T11:14:36Z</time>
      </trkpt>
      <trkpt lat="48.19663" lon="7.31316">
        <ele>253</ele>
        <time>2017-07-20T11:14:44Z</time>
      </trkpt>
      <trkpt lat="48.19667" lon="7.31308">
        <ele>253</ele>
        <time>2017-07-20T11:14:49Z</time>
      </trkpt>
      <trkpt lat="48.19667" lon="7.31307">
        <ele>253</ele>
        <time>2017-07-20T11:14:50Z</time>
      </trkpt>
      <trkpt lat="48.19669" lon="7.31302">
        <ele>253.39999389648</ele>
        <time>2017-07-20T11:15:54Z</time>
      </trkpt>
      <trkpt lat="48.1967" lon="7.31298">
        <ele>253.39999389648</ele>
        <time>2017-07-20T11:15:56Z</time>
      </trkpt>
      <trkpt lat="48.19671" lon="7.31296">
        <ele>253.39999389648</ele>
        <time>2017-07-20T11:15:57Z</time>
      </trkpt>
      <trkpt lat="48.1967" lon="7.31289">
        <ele>253.60000610352</ele>
        <time>2017-07-20T11:16:01Z</time>
      </trkpt>
      <trkpt lat="48.19667" lon="7.31287">
        <ele>253.80000305176</ele>
        <time>2017-07-20T11:16:04Z</time>
      </trkpt>
      <trkpt lat="48.19663" lon="7.31287">
        <ele>253.80000305176</ele>
        <time>2017-07-20T11:16:07Z</time>
      </trkpt>
      <trkpt lat="48.19659" lon="7.31284">
        <ele>254</ele>
        <time>2017-07-20T11:16:10Z</time>
      </trkpt>
      <trkpt lat="48.19656" lon="7.3128">
        <ele>254</ele>
        <time>2017-07-20T11:16:12Z</time>
      </trkpt>
      <trkpt lat="48.19655" lon="7.31279">
        <ele>254</ele>
        <time>2017-07-20T11:16:13Z</time>
      </trkpt>
      <trkpt lat="48.19645" lon="7.3127">
        <ele>254.39999389648</ele>
        <time>2017-07-20T11:16:20Z</time>
      </trkpt>
      <trkpt lat="48.19646" lon="7.31274">
        <ele>255</ele>
        <time>2017-07-20T11:16:33Z</time>
      </trkpt>
      <trkpt lat="48.19658" lon="7.31282">
        <ele>254.60000610352</ele>
        <time>2017-07-20T11:16:38Z</time>
      </trkpt>
      <trkpt lat="48.19659" lon="7.31283">
        <ele>254.60000610352</ele>
        <time>2017-07-20T11:16:39Z</time>
      </trkpt>
      <trkpt lat="48.1966" lon="7.31294">
        <ele>254.19999694824</ele>
        <time>2017-07-20T11:16:43Z</time>
      </trkpt>
      <trkpt lat="48.19656" lon="7.31311">
        <ele>253.80000305176</ele>
        <time>2017-07-20T11:16:47Z</time>
      </trkpt>
      <trkpt lat="48.19656" lon="7.31316">
        <ele>253.80000305176</ele>
        <time>2017-07-20T11:16:49Z</time>
      </trkpt>
      <trkpt lat="48.19659" lon="7.31317">
        <ele>253.39999389648</ele>
        <time>2017-07-20T11:16:51Z</time>
      </trkpt>
      <trkpt lat="48.19661" lon="7.31317">
        <ele>253.39999389648</ele>
        <time>2017-07-20T11:16:52Z</time>
      </trkpt>
      <trkpt lat="48.19668" lon="7.31308">
        <ele>253.19999694824</ele>
        <time>2017-07-20T11:16:56Z</time>
      </trkpt>
      <trkpt lat="48.19672" lon="7.31301">
        <ele>253.19999694824</ele>
        <time>2017-07-20T11:16:59Z</time>
      </trkpt>
      <trkpt lat="48.19673" lon="7.31298">
        <ele>253.19999694824</ele>
        <time>2017-07-20T11:17:00Z</time>
      </trkpt>
      <trkpt lat="48.19674" lon="7.31295">
        <ele>253.19999694824</ele>
        <time>2017-07-20T11:17:01Z</time>
      </trkpt>
      <trkpt lat="48.19678" lon="7.31286">
        <ele>253.39999389648</ele>
        <time>2017-07-20T11:17:04Z</time>
      </trkpt>
      <trkpt lat="48.19683" lon="7.31275">
        <ele>253.80000305176</ele>
        <time>2017-07-20T11:17:08Z</time>
      </trkpt>
      <trkpt lat="48.19688" lon="7.31262">
        <ele>254.39999389648</ele>
        <time>2017-07-20T11:17:12Z</time>
      </trkpt>
      <trkpt lat="48.19692" lon="7.31252">
        <ele>254.80000305176</ele>
        <time>2017-07-20T11:17:15Z</time>
      </trkpt>
      <trkpt lat="48.19699" lon="7.31237">
        <ele>255.39999389648</ele>
        <time>2017-07-20T11:17:20Z</time>
      </trkpt>
      <trkpt lat="48.19703" lon="7.31223">
        <ele>256</ele>
        <time>2017-07-20T11:17:24Z</time>
      </trkpt>
      <trkpt lat="48.19706" lon="7.31209">
        <ele>256.60000610352</ele>
        <time>2017-07-20T11:17:28Z</time>
      </trkpt>
      <trkpt lat="48.19708" lon="7.31197">
        <ele>256.79998779297</ele>
        <time>2017-07-20T11:17:31Z</time>
      </trkpt>
      <trkpt lat="48.19713" lon="7.31171">
        <ele>257.60000610352</ele>
        <time>2017-07-20T11:17:38Z</time>
      </trkpt>
      <trkpt lat="48.19716" lon="7.31155">
        <ele>258</ele>
        <time>2017-07-20T11:17:42Z</time>
      </trkpt>
      <trkpt lat="48.19723" lon="7.31136">
        <ele>258.39999389648</ele>
        <time>2017-07-20T11:17:47Z</time>
      </trkpt>
      <trkpt lat="48.19726" lon="7.31117">
        <ele>258.60000610352</ele>
        <time>2017-07-20T11:17:51Z</time>
      </trkpt>
      <trkpt lat="48.19729" lon="7.31104">
        <ele>258.79998779297</ele>
        <time>2017-07-20T11:17:54Z</time>
      </trkpt>
      <trkpt lat="48.19734" lon="7.31074">
        <ele>259</ele>
        <time>2017-07-20T11:18:01Z</time>
      </trkpt>
      <trkpt lat="48.19737" lon="7.31044">
        <ele>259.60000610352</ele>
        <time>2017-07-20T11:18:09Z</time>
      </trkpt>
      <trkpt lat="48.1973" lon="7.31039">
        <ele>260</ele>
        <time>2017-07-20T11:18:12Z</time>
      </trkpt>
      <trkpt lat="48.19725" lon="7.31039">
        <ele>260.20001220703</ele>
        <time>2017-07-20T11:18:14Z</time>
      </trkpt>
      <trkpt lat="48.19714" lon="7.31045">
        <ele>260.20001220703</ele>
        <time>2017-07-20T11:18:17Z</time>
      </trkpt>
      <trkpt lat="48.19691" lon="7.3105">
        <ele>260.60000610352</ele>
        <time>2017-07-20T11:18:24Z</time>
      </trkpt>
      <trkpt lat="48.19685" lon="7.3105">
        <ele>260.60000610352</ele>
        <time>2017-07-20T11:18:26Z</time>
      </trkpt>
      <trkpt lat="48.19674" lon="7.31049">
        <ele>261.20001220703</ele>
        <time>2017-07-20T11:18:30Z</time>
      </trkpt>
      <trkpt lat="48.19665" lon="7.31046">
        <ele>261.79998779297</ele>
        <time>2017-07-20T11:18:34Z</time>
      </trkpt>
      <trkpt lat="48.19663" lon="7.31046">
        <ele>261.79998779297</ele>
        <time>2017-07-20T11:18:35Z</time>
      </trkpt>
      <trkpt lat="48.19649" lon="7.31044">
        <ele>263</ele>
        <time>2017-07-20T11:18:41Z</time>
      </trkpt>
      <trkpt lat="48.19644" lon="7.31045">
        <ele>263.20001220703</ele>
        <time>2017-07-20T11:18:43Z</time>
      </trkpt>
      <trkpt lat="48.1963" lon="7.31046">
        <ele>264</ele>
        <time>2017-07-20T11:18:49Z</time>
      </trkpt>
      <trkpt lat="48.19613" lon="7.31058">
        <ele>265.20001220703</ele>
        <time>2017-07-20T11:18:57Z</time>
      </trkpt>
      <trkpt lat="48.19602" lon="7.31067">
        <ele>265.79998779297</ele>
        <time>2017-07-20T11:19:03Z</time>
      </trkpt>
      <trkpt lat="48.19598" lon="7.31071">
        <ele>266</ele>
        <time>2017-07-20T11:19:05Z</time>
      </trkpt>
      <trkpt lat="48.19596" lon="7.31073">
        <ele>266.20001220703</ele>
        <time>2017-07-20T11:19:06Z</time>
      </trkpt>
      <trkpt lat="48.19584" lon="7.31084">
        <ele>266.79998779297</ele>
        <time>2017-07-20T11:19:11Z</time>
      </trkpt>
      <trkpt lat="48.19578" lon="7.31088">
        <ele>267.39999389648</ele>
        <time>2017-07-20T11:19:14Z</time>
      </trkpt>
      <trkpt lat="48.19571" lon="7.31092">
        <ele>267.79998779297</ele>
        <time>2017-07-20T11:19:17Z</time>
      </trkpt>
      <trkpt lat="48.1956" lon="7.311">
        <ele>268.39999389648</ele>
        <time>2017-07-20T11:19:22Z</time>
      </trkpt>
      <trkpt lat="48.1955" lon="7.31105">
        <ele>269</ele>
        <time>2017-07-20T11:19:26Z</time>
      </trkpt>
      <trkpt lat="48.19539" lon="7.31111">
        <ele>269.39999389648</ele>
        <time>2017-07-20T11:19:30Z</time>
      </trkpt>
      <trkpt lat="48.19523" lon="7.31122">
        <ele>270</ele>
        <time>2017-07-20T11:19:36Z</time>
      </trkpt>
      <trkpt lat="48.19503" lon="7.31142">
        <ele>270.20001220703</ele>
        <time>2017-07-20T11:19:43Z</time>
      </trkpt>
      <trkpt lat="48.19479" lon="7.31171">
        <ele>269.60000610352</ele>
        <time>2017-07-20T11:19:50Z</time>
      </trkpt>
      <trkpt lat="48.19451" lon="7.31214">
        <ele>268.60000610352</ele>
        <time>2017-07-20T11:19:57Z</time>
      </trkpt>
      <trkpt lat="48.19447" lon="7.31221">
        <ele>268.39999389648</ele>
        <time>2017-07-20T11:19:58Z</time>
      </trkpt>
      <trkpt lat="48.1944" lon="7.31237">
        <ele>268</ele>
        <time>2017-07-20T11:20:00Z</time>
      </trkpt>
      <trkpt lat="48.19433" lon="7.31255">
        <ele>267.39999389648</ele>
        <time>2017-07-20T11:20:02Z</time>
      </trkpt>
      <trkpt lat="48.1943" lon="7.31264">
        <ele>267</ele>
        <time>2017-07-20T11:20:03Z</time>
      </trkpt>
      <trkpt lat="48.19418" lon="7.3131">
        <ele>265.79998779297</ele>
        <time>2017-07-20T11:20:08Z</time>
      </trkpt>
      <trkpt lat="48.19413" lon="7.31334">
        <ele>265.20001220703</ele>
        <time>2017-07-20T11:20:11Z</time>
      </trkpt>
      <trkpt lat="48.1941" lon="7.31341">
        <ele>264.79998779297</ele>
        <time>2017-07-20T11:20:12Z</time>
      </trkpt>
      <trkpt lat="48.19406" lon="7.31354">
        <ele>264.60000610352</ele>
        <time>2017-07-20T11:20:14Z</time>
      </trkpt>
      <trkpt lat="48.19403" lon="7.31364">
        <ele>263.60000610352</ele>
        <time>2017-07-20T11:20:41Z</time>
      </trkpt>
      <trkpt lat="48.19402" lon="7.31373">
        <ele>263.79998779297</ele>
        <time>2017-07-20T11:20:44Z</time>
      </trkpt>
      <trkpt lat="48.19404" lon="7.31389">
        <ele>263.79998779297</ele>
        <time>2017-07-20T11:20:48Z</time>
      </trkpt>
      <trkpt lat="48.1942" lon="7.31403">
        <ele>263.39999389648</ele>
        <time>2017-07-20T11:20:53Z</time>
      </trkpt>
      <trkpt lat="48.19426" lon="7.3142">
        <ele>263</ele>
        <time>2017-07-20T11:20:56Z</time>
      </trkpt>
      <trkpt lat="48.19419" lon="7.31437">
        <ele>262.60000610352</ele>
        <time>2017-07-20T11:20:59Z</time>
      </trkpt>
      <trkpt lat="48.19412" lon="7.31448">
        <ele>262.39999389648</ele>
        <time>2017-07-20T11:21:01Z</time>
      </trkpt>
      <trkpt lat="48.19403" lon="7.31467">
        <ele>261.79998779297</ele>
        <time>2017-07-20T11:21:04Z</time>
      </trkpt>
      <trkpt lat="48.19399" lon="7.31473">
        <ele>261.79998779297</ele>
        <time>2017-07-20T11:21:05Z</time>
      </trkpt>
      <trkpt lat="48.19391" lon="7.31487">
        <ele>261.60000610352</ele>
        <time>2017-07-20T11:21:07Z</time>
      </trkpt>
      <trkpt lat="48.19389" lon="7.31496">
        <ele>261.39999389648</ele>
        <time>2017-07-20T11:21:08Z</time>
      </trkpt>
      <trkpt lat="48.19387" lon="7.31505">
        <ele>261.20001220703</ele>
        <time>2017-07-20T11:21:09Z</time>
      </trkpt>
      <trkpt lat="48.19383" lon="7.31525">
        <ele>260.79998779297</ele>
        <time>2017-07-20T11:21:11Z</time>
      </trkpt>
      <trkpt lat="48.19382" lon="7.31547">
        <ele>260.20001220703</ele>
        <time>2017-07-20T11:21:13Z</time>
      </trkpt>
      <trkpt lat="48.19382" lon="7.31559">
        <ele>260</ele>
        <time>2017-07-20T11:21:14Z</time>
      </trkpt>
      <trkpt lat="48.1938" lon="7.3159">
        <ele>259.20001220703</ele>
        <time>2017-07-20T11:21:17Z</time>
      </trkpt>
      <trkpt lat="48.1938" lon="7.31599">
        <ele>259</ele>
        <time>2017-07-20T11:21:18Z</time>
      </trkpt>
      <trkpt lat="48.1938" lon="7.31616">
        <ele>258.20001220703</ele>
        <time>2017-07-20T11:21:20Z</time>
      </trkpt>
      <trkpt lat="48.19379" lon="7.31646">
        <ele>257</ele>
        <time>2017-07-20T11:21:23Z</time>
      </trkpt>
      <trkpt lat="48.19378" lon="7.31657">
        <ele>256.60000610352</ele>
        <time>2017-07-20T11:21:24Z</time>
      </trkpt>
      <trkpt lat="48.19377" lon="7.31679">
        <ele>255.39999389648</ele>
        <time>2017-07-20T11:21:26Z</time>
      </trkpt>
      <trkpt lat="48.19374" lon="7.31711">
        <ele>254.19999694824</ele>
        <time>2017-07-20T11:21:29Z</time>
      </trkpt>
      <trkpt lat="48.19375" lon="7.3172">
        <ele>253.80000305176</ele>
        <time>2017-07-20T11:21:30Z</time>
      </trkpt>
      <trkpt lat="48.19377" lon="7.31736">
        <ele>253</ele>
        <time>2017-07-20T11:21:32Z</time>
      </trkpt>
      <trkpt lat="48.19385" lon="7.31748">
        <ele>252</ele>
        <time>2017-07-20T11:21:34Z</time>
      </trkpt>
      <trkpt lat="48.19389" lon="7.31754">
        <ele>251.60000610352</ele>
        <time>2017-07-20T11:21:35Z</time>
      </trkpt>
      <trkpt lat="48.19401" lon="7.31768">
        <ele>250.60000610352</ele>
        <time>2017-07-20T11:21:38Z</time>
      </trkpt>
      <trkpt lat="48.19406" lon="7.31774">
        <ele>250.39999389648</ele>
        <time>2017-07-20T11:21:40Z</time>
      </trkpt>
      <trkpt lat="48.19428" lon="7.318">
        <ele>250.60000610352</ele>
        <time>2017-07-20T11:21:48Z</time>
      </trkpt>
      <trkpt lat="48.19432" lon="7.31803">
        <ele>250.60000610352</ele>
        <time>2017-07-20T11:21:49Z</time>
      </trkpt>
      <trkpt lat="48.19447" lon="7.31813">
        <ele>250</ele>
        <time>2017-07-20T11:21:52Z</time>
      </trkpt>
      <trkpt lat="48.19457" lon="7.3182">
        <ele>249.60000610352</ele>
        <time>2017-07-20T11:21:54Z</time>
      </trkpt>
      <trkpt lat="48.19461" lon="7.31824">
        <ele>248.80000305176</ele>
        <time>2017-07-20T11:21:56Z</time>
      </trkpt>
      <trkpt lat="48.1946" lon="7.31826">
        <ele>248.39999389648</ele>
        <time>2017-07-20T11:21:57Z</time>
      </trkpt>
      <trkpt lat="48.19458" lon="7.31824">
        <ele>247.39999389648</ele>
        <time>2017-07-20T11:21:59Z</time>
      </trkpt>
      <trkpt lat="48.19457" lon="7.31823">
        <ele>247.19999694824</ele>
        <time>2017-07-20T11:22:00Z</time>
      </trkpt>
      <trkpt lat="48.19452" lon="7.31821">
        <ele>247</ele>
        <time>2017-07-20T11:22:04Z</time>
      </trkpt>
      <trkpt lat="48.19448" lon="7.31826">
        <ele>247.19999694824</ele>
        <time>2017-07-20T11:22:06Z</time>
      </trkpt>
      <trkpt lat="48.19443" lon="7.31837">
        <ele>247.60000610352</ele>
        <time>2017-07-20T11:22:09Z</time>
      </trkpt>
      <trkpt lat="48.1943" lon="7.31879">
        <ele>247.19999694824</ele>
        <time>2017-07-20T11:22:16Z</time>
      </trkpt>
      <trkpt lat="48.19429" lon="7.31886">
        <ele>247</ele>
        <time>2017-07-20T11:22:17Z</time>
      </trkpt>
      <trkpt lat="48.19432" lon="7.31895">
        <ele>246.60000610352</ele>
        <time>2017-07-20T11:22:19Z</time>
      </trkpt>
      <trkpt lat="48.19442" lon="7.31903">
        <ele>246.19999694824</ele>
        <time>2017-07-20T11:22:22Z</time>
      </trkpt>
      <trkpt lat="48.19446" lon="7.31905">
        <ele>246</ele>
        <time>2017-07-20T11:22:23Z</time>
      </trkpt>
      <trkpt lat="48.19473" lon="7.3192">
        <ele>245</ele>
        <time>2017-07-20T11:22:30Z</time>
      </trkpt>
      <trkpt lat="48.19489" lon="7.31928">
        <ele>243.80000305176</ele>
        <time>2017-07-20T11:22:35Z</time>
      </trkpt>
      <trkpt lat="48.19491" lon="7.31929">
        <ele>243.80000305176</ele>
        <time>2017-07-20T11:22:36Z</time>
      </trkpt>
      <trkpt lat="48.19491" lon="7.3194">
        <ele>243.19999694824</ele>
        <time>2017-07-20T11:22:40Z</time>
      </trkpt>
      <trkpt lat="48.19486" lon="7.31959">
        <ele>242.80000305176</ele>
        <time>2017-07-20T11:22:47Z</time>
      </trkpt>
      <trkpt lat="48.19478" lon="7.31973">
        <ele>242.39999389648</ele>
        <time>2017-07-20T11:22:54Z</time>
      </trkpt>
      <trkpt lat="48.19467" lon="7.31997">
        <ele>242</ele>
        <time>2017-07-20T11:23:01Z</time>
      </trkpt>
      <trkpt lat="48.19461" lon="7.32012">
        <ele>241.80000305176</ele>
        <time>2017-07-20T11:23:05Z</time>
      </trkpt>
      <trkpt lat="48.19457" lon="7.32023">
        <ele>241.60000610352</ele>
        <time>2017-07-20T11:23:08Z</time>
      </trkpt>
      <trkpt lat="48.19453" lon="7.3205">
        <ele>241.19999694824</ele>
        <time>2017-07-20T11:23:15Z</time>
      </trkpt>
      <trkpt lat="48.19452" lon="7.32053">
        <ele>241.19999694824</ele>
        <time>2017-07-20T11:23:16Z</time>
      </trkpt>
      <trkpt lat="48.19446" lon="7.32065">
        <ele>241</ele>
        <time>2017-07-20T11:23:20Z</time>
      </trkpt>
      <trkpt lat="48.19443" lon="7.32071">
        <ele>241</ele>
        <time>2017-07-20T11:23:22Z</time>
      </trkpt>
      <trkpt lat="48.19434" lon="7.32093">
        <ele>240.80000305176</ele>
        <time>2017-07-20T11:23:29Z</time>
      </trkpt>
      <trkpt lat="48.19432" lon="7.321">
        <ele>240.80000305176</ele>
        <time>2017-07-20T11:23:31Z</time>
      </trkpt>
      <trkpt lat="48.19431" lon="7.32129">
        <ele>240.39999389648</ele>
        <time>2017-07-20T11:23:36Z</time>
      </trkpt>
      <trkpt lat="48.19425" lon="7.32163">
        <ele>240</ele>
        <time>2017-07-20T11:23:44Z</time>
      </trkpt>
      <trkpt lat="48.19416" lon="7.32178">
        <ele>239.80000305176</ele>
        <time>2017-07-20T11:23:49Z</time>
      </trkpt>
      <trkpt lat="48.19413" lon="7.32187">
        <ele>239.60000610352</ele>
        <time>2017-07-20T11:23:51Z</time>
      </trkpt>
      <trkpt lat="48.19409" lon="7.32205">
        <ele>239.19999694824</ele>
        <time>2017-07-20T11:23:55Z</time>
      </trkpt>
      <trkpt lat="48.19407" lon="7.32208">
        <ele>239.19999694824</ele>
        <time>2017-07-20T11:23:56Z</time>
      </trkpt>
      <trkpt lat="48.19398" lon="7.32226">
        <ele>238.60000610352</ele>
        <time>2017-07-20T11:24:03Z</time>
      </trkpt>
      <trkpt lat="48.19395" lon="7.32227">
        <ele>238.60000610352</ele>
        <time>2017-07-20T11:24:04Z</time>
      </trkpt>
      <trkpt lat="48.19386" lon="7.32242">
        <ele>238.39999389648</ele>
        <time>2017-07-20T11:24:10Z</time>
      </trkpt>
      <trkpt lat="48.19379" lon="7.32257">
        <ele>237.80000305176</ele>
        <time>2017-07-20T11:24:15Z</time>
      </trkpt>
      <trkpt lat="48.19376" lon="7.32265">
        <ele>237.60000610352</ele>
        <time>2017-07-20T11:24:18Z</time>
      </trkpt>
      <trkpt lat="48.19371" lon="7.32273">
        <ele>237.60000610352</ele>
        <time>2017-07-20T11:24:22Z</time>
      </trkpt>
      <trkpt lat="48.19356" lon="7.32296">
        <ele>237.39999389648</ele>
        <time>2017-07-20T11:24:32Z</time>
      </trkpt>
      <trkpt lat="48.19341" lon="7.32316">
        <ele>237</ele>
        <time>2017-07-20T11:24:40Z</time>
      </trkpt>
      <trkpt lat="48.19335" lon="7.32341">
        <ele>237</ele>
        <time>2017-07-20T11:24:47Z</time>
      </trkpt>
      <trkpt lat="48.19326" lon="7.32359">
        <ele>236.80000305176</ele>
        <time>2017-07-20T11:24:52Z</time>
      </trkpt>
      <trkpt lat="48.19324" lon="7.32361">
        <ele>236.60000610352</ele>
        <time>2017-07-20T11:24:53Z</time>
      </trkpt>
      <trkpt lat="48.19317" lon="7.32376">
        <ele>236.39999389648</ele>
        <time>2017-07-20T11:24:58Z</time>
      </trkpt>
      <trkpt lat="48.19309" lon="7.32411">
        <ele>236.39999389648</ele>
        <time>2017-07-20T11:25:07Z</time>
      </trkpt>
      <trkpt lat="48.19302" lon="7.32438">
        <ele>236.19999694824</ele>
        <time>2017-07-20T11:25:15Z</time>
      </trkpt>
      <trkpt lat="48.19301" lon="7.32441">
        <ele>236.19999694824</ele>
        <time>2017-07-20T11:25:16Z</time>
      </trkpt>
      <trkpt lat="48.19296" lon="7.32446">
        <ele>236</ele>
        <time>2017-07-20T11:25:19Z</time>
      </trkpt>
      <trkpt lat="48.19294" lon="7.32449">
        <ele>236</ele>
        <time>2017-07-20T11:25:21Z</time>
      </trkpt>
      <trkpt lat="48.19298" lon="7.32449">
        <ele>236.19999694824</ele>
        <time>2017-07-20T11:26:11Z</time>
      </trkpt>
      <trkpt lat="48.19299" lon="7.32449">
        <ele>236.19999694824</ele>
        <time>2017-07-20T11:26:12Z</time>
      </trkpt>
      <trkpt lat="48.19311" lon="7.32446">
        <ele>236</ele>
        <time>2017-07-20T11:26:21Z</time>
      </trkpt>
      <trkpt lat="48.19299" lon="7.32446">
        <ele>236</ele>
        <time>2017-07-20T11:26:33Z</time>
      </trkpt>
      <trkpt lat="48.19296" lon="7.32448">
        <ele>236</ele>
        <time>2017-07-20T11:26:34Z</time>
      </trkpt>
      <trkpt lat="48.19279" lon="7.32455">
        <ele>235.80000305176</ele>
        <time>2017-07-20T11:26:40Z</time>
      </trkpt>
      <trkpt lat="48.19253" lon="7.3246">
        <ele>235.60000610352</ele>
        <time>2017-07-20T11:26:48Z</time>
      </trkpt>
      <trkpt lat="48.19239" lon="7.32464">
        <ele>235.39999389648</ele>
        <time>2017-07-20T11:26:53Z</time>
      </trkpt>
      <trkpt lat="48.19236" lon="7.3247">
        <ele>235.39999389648</ele>
        <time>2017-07-20T11:26:55Z</time>
      </trkpt>
      <trkpt lat="48.19233" lon="7.3249">
        <ele>235.39999389648</ele>
        <time>2017-07-20T11:27:00Z</time>
      </trkpt>
      <trkpt lat="48.19236" lon="7.32501">
        <ele>234.80000305176</ele>
        <time>2017-07-20T11:29:25Z</time>
      </trkpt>
      <trkpt lat="48.1924" lon="7.32501">
        <ele>234.80000305176</ele>
        <time>2017-07-20T11:29:27Z</time>
      </trkpt>
      <trkpt lat="48.19242" lon="7.325">
        <ele>234.80000305176</ele>
        <time>2017-07-20T11:29:28Z</time>
      </trkpt>
      <trkpt lat="48.19253" lon="7.32494">
        <ele>234.60000610352</ele>
        <time>2017-07-20T11:29:33Z</time>
      </trkpt>
      <trkpt lat="48.19256" lon="7.32475">
        <ele>234.80000305176</ele>
        <time>2017-07-20T11:29:38Z</time>
      </trkpt>
      <trkpt lat="48.19246" lon="7.32465">
        <ele>235.39999389648</ele>
        <time>2017-07-20T11:29:42Z</time>
      </trkpt>
      <trkpt lat="48.19239" lon="7.32463">
        <ele>235.39999389648</ele>
        <time>2017-07-20T11:29:44Z</time>
      </trkpt>
      <trkpt lat="48.19227" lon="7.32462">
        <ele>235.60000610352</ele>
        <time>2017-07-20T11:29:47Z</time>
      </trkpt>
      <trkpt lat="48.19198" lon="7.32465">
        <ele>235.39999389648</ele>
        <time>2017-07-20T11:29:54Z</time>
      </trkpt>
      <trkpt lat="48.19194" lon="7.32465">
        <ele>235.39999389648</ele>
        <time>2017-07-20T11:29:55Z</time>
      </trkpt>
      <trkpt lat="48.19168" lon="7.32467">
        <ele>236</ele>
        <time>2017-07-20T11:30:02Z</time>
      </trkpt>
      <trkpt lat="48.19156" lon="7.32462">
        <ele>236.39999389648</ele>
        <time>2017-07-20T11:30:06Z</time>
      </trkpt>
      <trkpt lat="48.19151" lon="7.32464">
        <ele>236.60000610352</ele>
        <time>2017-07-20T11:30:08Z</time>
      </trkpt>
      <trkpt lat="48.19149" lon="7.32465">
        <ele>236.60000610352</ele>
        <time>2017-07-20T11:30:09Z</time>
      </trkpt>
      <trkpt lat="48.19146" lon="7.32473">
        <ele>236.80000305176</ele>
        <time>2017-07-20T11:30:32Z</time>
      </trkpt>
      <trkpt lat="48.19141" lon="7.32478">
        <ele>237</ele>
        <time>2017-07-20T11:30:35Z</time>
      </trkpt>
      <trkpt lat="48.19127" lon="7.32485">
        <ele>237.19999694824</ele>
        <time>2017-07-20T11:30:40Z</time>
      </trkpt>
      <trkpt lat="48.19114" lon="7.32491">
        <ele>237.60000610352</ele>
        <time>2017-07-20T11:30:44Z</time>
      </trkpt>
      <trkpt lat="48.19109" lon="7.32495">
        <ele>238</ele>
        <time>2017-07-20T11:30:46Z</time>
      </trkpt>
      <trkpt lat="48.1909" lon="7.32504">
        <ele>238.60000610352</ele>
        <time>2017-07-20T11:30:52Z</time>
      </trkpt>
      <trkpt lat="48.19084" lon="7.32506">
        <ele>239</ele>
        <time>2017-07-20T11:30:54Z</time>
      </trkpt>
      <trkpt lat="48.19061" lon="7.32511">
        <ele>239.60000610352</ele>
        <time>2017-07-20T11:31:01Z</time>
      </trkpt>
      <trkpt lat="48.19035" lon="7.32508">
        <ele>240.80000305176</ele>
        <time>2017-07-20T11:31:09Z</time>
      </trkpt>
      <trkpt lat="48.19012" lon="7.32506">
        <ele>241.19999694824</ele>
        <time>2017-07-20T11:31:15Z</time>
      </trkpt>
      <trkpt lat="48.18982" lon="7.32502">
        <ele>241.60000610352</ele>
        <time>2017-07-20T11:31:23Z</time>
      </trkpt>
      <trkpt lat="48.1896" lon="7.32498">
        <ele>241.80000305176</ele>
        <time>2017-07-20T11:31:28Z</time>
      </trkpt>
      <trkpt lat="48.18952" lon="7.32497">
        <ele>242</ele>
        <time>2017-07-20T11:31:30Z</time>
      </trkpt>
      <trkpt lat="48.1892" lon="7.32492">
        <ele>242.19999694824</ele>
        <time>2017-07-20T11:31:37Z</time>
      </trkpt>
      <trkpt lat="48.18885" lon="7.32498">
        <ele>242</ele>
        <time>2017-07-20T11:31:44Z</time>
      </trkpt>
      <trkpt lat="48.18848" lon="7.32508">
        <ele>241.60000610352</ele>
        <time>2017-07-20T11:31:51Z</time>
      </trkpt>
      <trkpt lat="48.1881" lon="7.3252">
        <ele>241.19999694824</ele>
        <time>2017-07-20T11:31:58Z</time>
      </trkpt>
      <trkpt lat="48.18763" lon="7.32523">
        <ele>241</ele>
        <time>2017-07-20T11:32:06Z</time>
      </trkpt>
      <trkpt lat="48.18746" lon="7.32521">
        <ele>240.80000305176</ele>
        <time>2017-07-20T11:32:09Z</time>
      </trkpt>
      <trkpt lat="48.18735" lon="7.32518">
        <ele>240.80000305176</ele>
        <time>2017-07-20T11:32:11Z</time>
      </trkpt>
      <trkpt lat="48.18729" lon="7.32518">
        <ele>240.60000610352</ele>
        <time>2017-07-20T11:32:12Z</time>
      </trkpt>
      <trkpt lat="48.18688" lon="7.32515">
        <ele>240.39999389648</ele>
        <time>2017-07-20T11:32:20Z</time>
      </trkpt>
      <trkpt lat="48.18648" lon="7.32509">
        <ele>240.60000610352</ele>
        <time>2017-07-20T11:32:28Z</time>
      </trkpt>
      <trkpt lat="48.18629" lon="7.32504">
        <ele>241</ele>
        <time>2017-07-20T11:32:33Z</time>
      </trkpt>
      <trkpt lat="48.18625" lon="7.32505">
        <ele>241</ele>
        <time>2017-07-20T11:34:58Z</time>
      </trkpt>
      <trkpt lat="48.18614" lon="7.32504">
        <ele>241</ele>
        <time>2017-07-20T11:35:02Z</time>
      </trkpt>
      <trkpt lat="48.18594" lon="7.32505">
        <ele>240.80000305176</ele>
        <time>2017-07-20T11:35:08Z</time>
      </trkpt>
      <trkpt lat="48.18572" lon="7.32501">
        <ele>240.80000305176</ele>
        <time>2017-07-20T11:35:14Z</time>
      </trkpt>
      <trkpt lat="48.18546" lon="7.32496">
        <ele>240.80000305176</ele>
        <time>2017-07-20T11:35:21Z</time>
      </trkpt>
      <trkpt lat="48.18514" lon="7.32488">
        <ele>240.39999389648</ele>
        <time>2017-07-20T11:35:28Z</time>
      </trkpt>
      <trkpt lat="48.18478" lon="7.32476">
        <ele>239.80000305176</ele>
        <time>2017-07-20T11:35:35Z</time>
      </trkpt>
      <trkpt lat="48.18472" lon="7.32474">
        <ele>239.60000610352</ele>
        <time>2017-07-20T11:35:36Z</time>
      </trkpt>
      <trkpt lat="48.18432" lon="7.32457">
        <ele>238.80000305176</ele>
        <time>2017-07-20T11:35:43Z</time>
      </trkpt>
      <trkpt lat="48.18425" lon="7.32454">
        <ele>238.80000305176</ele>
        <time>2017-07-20T11:35:44Z</time>
      </trkpt>
      <trkpt lat="48.18387" lon="7.32435">
        <ele>237.60000610352</ele>
        <time>2017-07-20T11:35:50Z</time>
      </trkpt>
      <trkpt lat="48.18375" lon="7.32428">
        <ele>237.39999389648</ele>
        <time>2017-07-20T11:35:52Z</time>
      </trkpt>
      <trkpt lat="48.18355" lon="7.3242">
        <ele>236.60000610352</ele>
        <time>2017-07-20T11:35:55Z</time>
      </trkpt>
      <trkpt lat="48.18323" lon="7.32404">
        <ele>235.60000610352</ele>
        <time>2017-07-20T11:36:00Z</time>
      </trkpt>
      <trkpt lat="48.18317" lon="7.32402">
        <ele>235.39999389648</ele>
        <time>2017-07-20T11:36:01Z</time>
      </trkpt>
      <trkpt lat="48.18278" lon="7.32378">
        <ele>234.39999389648</ele>
        <time>2017-07-20T11:36:07Z</time>
      </trkpt>
      <trkpt lat="48.18233" lon="7.3235">
        <ele>233.19999694824</ele>
        <time>2017-07-20T11:36:14Z</time>
      </trkpt>
      <trkpt lat="48.18219" lon="7.32344">
        <ele>232.80000305176</ele>
        <time>2017-07-20T11:36:16Z</time>
      </trkpt>
      <trkpt lat="48.18208" lon="7.32341">
        <ele>232.19999694824</ele>
        <time>2017-07-20T11:36:19Z</time>
      </trkpt>
      <trkpt lat="48.18204" lon="7.3234">
        <ele>232</ele>
        <time>2017-07-20T11:36:20Z</time>
      </trkpt>
      <trkpt lat="48.18193" lon="7.32335">
        <ele>231.19999694824</ele>
        <time>2017-07-20T11:36:24Z</time>
      </trkpt>
      <trkpt lat="48.18194" lon="7.32332">
        <ele>231</ele>
        <time>2017-07-20T11:36:25Z</time>
      </trkpt>
      <trkpt lat="48.18198" lon="7.3233">
        <ele>230.80000305176</ele>
        <time>2017-07-20T11:36:28Z</time>
      </trkpt>
      <trkpt lat="48.18194" lon="7.32336">
        <ele>230.80000305176</ele>
        <time>2017-07-20T11:36:31Z</time>
      </trkpt>
      <trkpt lat="48.18183" lon="7.3234">
        <ele>230.80000305176</ele>
        <time>2017-07-20T11:36:34Z</time>
      </trkpt>
      <trkpt lat="48.18178" lon="7.3234">
        <ele>230.60000610352</ele>
        <time>2017-07-20T11:36:35Z</time>
      </trkpt>
      <trkpt lat="48.18148" lon="7.32347">
        <ele>230</ele>
        <time>2017-07-20T11:36:41Z</time>
      </trkpt>
      <trkpt lat="48.18136" lon="7.32351">
        <ele>230</ele>
        <time>2017-07-20T11:36:43Z</time>
      </trkpt>
      <trkpt lat="48.18118" lon="7.3236">
        <ele>229.60000610352</ele>
        <time>2017-07-20T11:36:46Z</time>
      </trkpt>
      <trkpt lat="48.18088" lon="7.32379">
        <ele>228.80000305176</ele>
        <time>2017-07-20T11:36:51Z</time>
      </trkpt>
      <trkpt lat="48.18076" lon="7.32385">
        <ele>228.39999389648</ele>
        <time>2017-07-20T11:36:53Z</time>
      </trkpt>
      <trkpt lat="48.18071" lon="7.32387">
        <ele>228.39999389648</ele>
        <time>2017-07-20T11:36:54Z</time>
      </trkpt>
      <trkpt lat="48.18038" lon="7.32397">
        <ele>227.80000305176</ele>
        <time>2017-07-20T11:37:00Z</time>
      </trkpt>
      <trkpt lat="48.18003" lon="7.32404">
        <ele>227.80000305176</ele>
        <time>2017-07-20T11:37:07Z</time>
      </trkpt>
      <trkpt lat="48.17979" lon="7.32406">
        <ele>228.60000610352</ele>
        <time>2017-07-20T11:37:13Z</time>
      </trkpt>
      <trkpt lat="48.17973" lon="7.32407">
        <ele>229</ele>
        <time>2017-07-20T11:37:15Z</time>
      </trkpt>
      <trkpt lat="48.17964" lon="7.32408">
        <ele>230</ele>
        <time>2017-07-20T11:37:18Z</time>
      </trkpt>
      <trkpt lat="48.17959" lon="7.32409">
        <ele>230.39999389648</ele>
        <time>2017-07-20T11:37:20Z</time>
      </trkpt>
      <trkpt lat="48.17938" lon="7.32411">
        <ele>231.19999694824</ele>
        <time>2017-07-20T11:37:28Z</time>
      </trkpt>
      <trkpt lat="48.17925" lon="7.32413">
        <ele>232.19999694824</ele>
        <time>2017-07-20T11:37:34Z</time>
      </trkpt>
      <trkpt lat="48.1792" lon="7.32414">
        <ele>232.39999389648</ele>
        <time>2017-07-20T11:37:36Z</time>
      </trkpt>
      <trkpt lat="48.17907" lon="7.32415">
        <ele>233.19999694824</ele>
        <time>2017-07-20T11:37:42Z</time>
      </trkpt>
      <trkpt lat="48.17905" lon="7.32415">
        <ele>233.39999389648</ele>
        <time>2017-07-20T11:37:43Z</time>
      </trkpt>
      <trkpt lat="48.17888" lon="7.32417">
        <ele>234.39999389648</ele>
        <time>2017-07-20T11:37:51Z</time>
      </trkpt>
      <trkpt lat="48.17871" lon="7.32418">
        <ele>235.39999389648</ele>
        <time>2017-07-20T11:37:59Z</time>
      </trkpt>
      <trkpt lat="48.17867" lon="7.32418">
        <ele>235.80000305176</ele>
        <time>2017-07-20T11:38:01Z</time>
      </trkpt>
      <trkpt lat="48.17852" lon="7.32418">
        <ele>236.60000610352</ele>
        <time>2017-07-20T11:38:08Z</time>
      </trkpt>
      <trkpt lat="48.17846" lon="7.32418">
        <ele>237</ele>
        <time>2017-07-20T11:38:11Z</time>
      </trkpt>
      <trkpt lat="48.17833" lon="7.32417">
        <ele>237.80000305176</ele>
        <time>2017-07-20T11:38:17Z</time>
      </trkpt>
      <trkpt lat="48.17824" lon="7.32415">
        <ele>238.39999389648</ele>
        <time>2017-07-20T11:38:21Z</time>
      </trkpt>
      <trkpt lat="48.17816" lon="7.32414">
        <ele>239</ele>
        <time>2017-07-20T11:38:25Z</time>
      </trkpt>
      <trkpt lat="48.17804" lon="7.32412">
        <ele>239.60000610352</ele>
        <time>2017-07-20T11:38:31Z</time>
      </trkpt>
      <trkpt lat="48.17799" lon="7.32411">
        <ele>240</ele>
        <time>2017-07-20T11:38:33Z</time>
      </trkpt>
      <trkpt lat="48.17782" lon="7.32407">
        <ele>241.19999694824</ele>
        <time>2017-07-20T11:38:41Z</time>
      </trkpt>
      <trkpt lat="48.17765" lon="7.32401">
        <ele>242.19999694824</ele>
        <time>2017-07-20T11:38:49Z</time>
      </trkpt>
      <trkpt lat="48.17763" lon="7.32401">
        <ele>242.19999694824</ele>
        <time>2017-07-20T11:38:50Z</time>
      </trkpt>
      <trkpt lat="48.17751" lon="7.32396">
        <ele>243.19999694824</ele>
        <time>2017-07-20T11:38:56Z</time>
      </trkpt>
      <trkpt lat="48.17743" lon="7.32393">
        <ele>243.80000305176</ele>
        <time>2017-07-20T11:39:00Z</time>
      </trkpt>
      <trkpt lat="48.17737" lon="7.32389">
        <ele>244.19999694824</ele>
        <time>2017-07-20T11:39:03Z</time>
      </trkpt>
      <trkpt lat="48.17723" lon="7.32384">
        <ele>245.19999694824</ele>
        <time>2017-07-20T11:39:10Z</time>
      </trkpt>
      <trkpt lat="48.17709" lon="7.32377">
        <ele>246.39999389648</ele>
        <time>2017-07-20T11:39:17Z</time>
      </trkpt>
      <trkpt lat="48.17695" lon="7.3237">
        <ele>247.39999389648</ele>
        <time>2017-07-20T11:39:24Z</time>
      </trkpt>
      <trkpt lat="48.17693" lon="7.32369">
        <ele>247.60000610352</ele>
        <time>2017-07-20T11:39:25Z</time>
      </trkpt>
      <trkpt lat="48.17681" lon="7.32364">
        <ele>248.60000610352</ele>
        <time>2017-07-20T11:39:31Z</time>
      </trkpt>
      <trkpt lat="48.1767" lon="7.3236">
        <ele>249.19999694824</ele>
        <time>2017-07-20T11:39:36Z</time>
      </trkpt>
      <trkpt lat="48.17663" lon="7.32357">
        <ele>249.60000610352</ele>
        <time>2017-07-20T11:39:39Z</time>
      </trkpt>
      <trkpt lat="48.17652" lon="7.32353">
        <ele>250.19999694824</ele>
        <time>2017-07-20T11:39:44Z</time>
      </trkpt>
      <trkpt lat="48.17646" lon="7.3235">
        <ele>250.60000610352</ele>
        <time>2017-07-20T11:39:47Z</time>
      </trkpt>
      <trkpt lat="48.1763" lon="7.32344">
        <ele>251.80000305176</ele>
        <time>2017-07-20T11:39:54Z</time>
      </trkpt>
      <trkpt lat="48.17628" lon="7.32343">
        <ele>252</ele>
        <time>2017-07-20T11:39:55Z</time>
      </trkpt>
      <trkpt lat="48.17617" lon="7.32339">
        <ele>252.80000305176</ele>
        <time>2017-07-20T11:40:00Z</time>
      </trkpt>
      <trkpt lat="48.17609" lon="7.32336">
        <ele>253.19999694824</ele>
        <time>2017-07-20T11:40:03Z</time>
      </trkpt>
      <trkpt lat="48.17601" lon="7.32333">
        <ele>253.80000305176</ele>
        <time>2017-07-20T11:40:07Z</time>
      </trkpt>
      <trkpt lat="48.17585" lon="7.32328">
        <ele>254.80000305176</ele>
        <time>2017-07-20T11:40:14Z</time>
      </trkpt>
      <trkpt lat="48.17582" lon="7.32326">
        <ele>255</ele>
        <time>2017-07-20T11:40:15Z</time>
      </trkpt>
      <trkpt lat="48.1757" lon="7.32321">
        <ele>256</ele>
        <time>2017-07-20T11:40:21Z</time>
      </trkpt>
      <trkpt lat="48.17552" lon="7.32315">
        <ele>257.20001220703</ele>
        <time>2017-07-20T11:40:29Z</time>
      </trkpt>
      <trkpt lat="48.17547" lon="7.32313">
        <ele>257.39999389648</ele>
        <time>2017-07-20T11:40:31Z</time>
      </trkpt>
      <trkpt lat="48.17538" lon="7.3231">
        <ele>258.20001220703</ele>
        <time>2017-07-20T11:40:35Z</time>
      </trkpt>
      <trkpt lat="48.17531" lon="7.32308">
        <ele>258.60000610352</ele>
        <time>2017-07-20T11:40:38Z</time>
      </trkpt>
      <trkpt lat="48.17525" lon="7.32306">
        <ele>259.20001220703</ele>
        <time>2017-07-20T11:40:41Z</time>
      </trkpt>
      <trkpt lat="48.17511" lon="7.32301">
        <ele>260</ele>
        <time>2017-07-20T11:40:47Z</time>
      </trkpt>
      <trkpt lat="48.17506" lon="7.32299">
        <ele>260.20001220703</ele>
        <time>2017-07-20T11:40:49Z</time>
      </trkpt>
      <trkpt lat="48.17492" lon="7.32292">
        <ele>261.20001220703</ele>
        <time>2017-07-20T11:40:55Z</time>
      </trkpt>
      <trkpt lat="48.1749" lon="7.32291">
        <ele>261.20001220703</ele>
        <time>2017-07-20T11:40:56Z</time>
      </trkpt>
      <trkpt lat="48.17471" lon="7.32279">
        <ele>262.39999389648</ele>
        <time>2017-07-20T11:41:04Z</time>
      </trkpt>
      <trkpt lat="48.17456" lon="7.32268">
        <ele>263.39999389648</ele>
        <time>2017-07-20T11:41:10Z</time>
      </trkpt>
      <trkpt lat="48.17448" lon="7.3226">
        <ele>264</ele>
        <time>2017-07-20T11:41:14Z</time>
      </trkpt>
      <trkpt lat="48.17441" lon="7.32253">
        <ele>264.39999389648</ele>
        <time>2017-07-20T11:41:17Z</time>
      </trkpt>
      <trkpt lat="48.17432" lon="7.32245">
        <ele>264.79998779297</ele>
        <time>2017-07-20T11:41:21Z</time>
      </trkpt>
      <trkpt lat="48.17412" lon="7.32227">
        <ele>265.39999389648</ele>
        <time>2017-07-20T11:41:28Z</time>
      </trkpt>
      <trkpt lat="48.17409" lon="7.32225">
        <ele>265.60000610352</ele>
        <time>2017-07-20T11:41:29Z</time>
      </trkpt>
      <trkpt lat="48.17392" lon="7.32215">
        <ele>266</ele>
        <time>2017-07-20T11:41:35Z</time>
      </trkpt>
      <trkpt lat="48.1738" lon="7.32209">
        <ele>266.60000610352</ele>
        <time>2017-07-20T11:41:39Z</time>
      </trkpt>
      <trkpt lat="48.17371" lon="7.32206">
        <ele>267</ele>
        <time>2017-07-20T11:41:42Z</time>
      </trkpt>
      <trkpt lat="48.17365" lon="7.32204">
        <ele>267</ele>
        <time>2017-07-20T11:41:44Z</time>
      </trkpt>
      <trkpt lat="48.17347" lon="7.32197">
        <ele>267.60000610352</ele>
        <time>2017-07-20T11:41:50Z</time>
      </trkpt>
      <trkpt lat="48.17343" lon="7.32196">
        <ele>267.79998779297</ele>
        <time>2017-07-20T11:41:51Z</time>
      </trkpt>
      <trkpt lat="48.17315" lon="7.32185">
        <ele>268.20001220703</ele>
        <time>2017-07-20T11:41:59Z</time>
      </trkpt>
      <trkpt lat="48.17282" lon="7.32173">
        <ele>268</ele>
        <time>2017-07-20T11:42:06Z</time>
      </trkpt>
      <trkpt lat="48.17243" lon="7.32156">
        <ele>267</ele>
        <time>2017-07-20T11:42:13Z</time>
      </trkpt>
      <trkpt lat="48.17218" lon="7.32146">
        <ele>266.39999389648</ele>
        <time>2017-07-20T11:42:17Z</time>
      </trkpt>
      <trkpt lat="48.17199" lon="7.32134">
        <ele>265.79998779297</ele>
        <time>2017-07-20T11:42:20Z</time>
      </trkpt>
      <trkpt lat="48.17189" lon="7.32123">
        <ele>265.60000610352</ele>
        <time>2017-07-20T11:42:22Z</time>
      </trkpt>
      <trkpt lat="48.17184" lon="7.32117">
        <ele>265.39999389648</ele>
        <time>2017-07-20T11:42:23Z</time>
      </trkpt>
      <trkpt lat="48.1718" lon="7.3211">
        <ele>265.20001220703</ele>
        <time>2017-07-20T11:42:24Z</time>
      </trkpt>
      <trkpt lat="48.17176" lon="7.32103">
        <ele>265</ele>
        <time>2017-07-20T11:42:25Z</time>
      </trkpt>
      <trkpt lat="48.1716" lon="7.32074">
        <ele>264.60000610352</ele>
        <time>2017-07-20T11:42:29Z</time>
      </trkpt>
      <trkpt lat="48.17143" lon="7.32038">
        <ele>264.39999389648</ele>
        <time>2017-07-20T11:42:34Z</time>
      </trkpt>
      <trkpt lat="48.17132" lon="7.32017">
        <ele>264</ele>
        <time>2017-07-20T11:42:37Z</time>
      </trkpt>
      <trkpt lat="48.17103" lon="7.31958">
        <ele>263.20001220703</ele>
        <time>2017-07-20T11:42:45Z</time>
      </trkpt>
      <trkpt lat="48.17076" lon="7.31904">
        <ele>263.20001220703</ele>
        <time>2017-07-20T11:42:53Z</time>
      </trkpt>
      <trkpt lat="48.17055" lon="7.31844">
        <ele>263</ele>
        <time>2017-07-20T11:43:01Z</time>
      </trkpt>
      <trkpt lat="48.17033" lon="7.31789">
        <ele>263.20001220703</ele>
        <time>2017-07-20T11:43:09Z</time>
      </trkpt>
      <trkpt lat="48.17016" lon="7.31753">
        <ele>263.39999389648</ele>
        <time>2017-07-20T11:43:15Z</time>
      </trkpt>
      <trkpt lat="48.16999" lon="7.31718">
        <ele>263.60000610352</ele>
        <time>2017-07-20T11:43:21Z</time>
      </trkpt>
      <trkpt lat="48.16987" lon="7.31695">
        <ele>263.60000610352</ele>
        <time>2017-07-20T11:43:25Z</time>
      </trkpt>
      <trkpt lat="48.16974" lon="7.31665">
        <ele>263.79998779297</ele>
        <time>2017-07-20T11:43:30Z</time>
      </trkpt>
      <trkpt lat="48.1695" lon="7.31606">
        <ele>264.39999389648</ele>
        <time>2017-07-20T11:43:40Z</time>
      </trkpt>
      <trkpt lat="48.16947" lon="7.31601">
        <ele>264.39999389648</ele>
        <time>2017-07-20T11:43:41Z</time>
      </trkpt>
      <trkpt lat="48.16925" lon="7.31557">
        <ele>264.79998779297</ele>
        <time>2017-07-20T11:43:50Z</time>
      </trkpt>
      <trkpt lat="48.16906" lon="7.3153">
        <ele>264.79998779297</ele>
        <time>2017-07-20T11:43:56Z</time>
      </trkpt>
      <trkpt lat="48.16876" lon="7.31499">
        <ele>264.60000610352</ele>
        <time>2017-07-20T11:44:03Z</time>
      </trkpt>
      <trkpt lat="48.16841" lon="7.3146">
        <ele>263.79998779297</ele>
        <time>2017-07-20T11:44:10Z</time>
      </trkpt>
      <trkpt lat="48.16819" lon="7.31439">
        <ele>263.20001220703</ele>
        <time>2017-07-20T11:44:14Z</time>
      </trkpt>
      <trkpt lat="48.16796" lon="7.31418">
        <ele>262</ele>
        <time>2017-07-20T11:44:18Z</time>
      </trkpt>
      <trkpt lat="48.16789" lon="7.31413">
        <ele>262</ele>
        <time>2017-07-20T11:44:19Z</time>
      </trkpt>
      <trkpt lat="48.16754" lon="7.31395">
        <ele>260.79998779297</ele>
        <time>2017-07-20T11:44:24Z</time>
      </trkpt>
      <trkpt lat="48.16746" lon="7.31393">
        <ele>260.60000610352</ele>
        <time>2017-07-20T11:44:25Z</time>
      </trkpt>
      <trkpt lat="48.16723" lon="7.31389">
        <ele>259.79998779297</ele>
        <time>2017-07-20T11:44:28Z</time>
      </trkpt>
      <trkpt lat="48.1669" lon="7.31384">
        <ele>258.79998779297</ele>
        <time>2017-07-20T11:44:32Z</time>
      </trkpt>
      <trkpt lat="48.16656" lon="7.31378">
        <ele>257.60000610352</ele>
        <time>2017-07-20T11:44:36Z</time>
      </trkpt>
      <trkpt lat="48.16631" lon="7.31374">
        <ele>256.60000610352</ele>
        <time>2017-07-20T11:44:39Z</time>
      </trkpt>
      <trkpt lat="48.16614" lon="7.3137">
        <ele>255.39999389648</ele>
        <time>2017-07-20T11:44:41Z</time>
      </trkpt>
      <trkpt lat="48.16587" lon="7.31367">
        <ele>254.39999389648</ele>
        <time>2017-07-20T11:44:44Z</time>
      </trkpt>
      <trkpt lat="48.16561" lon="7.31363">
        <ele>253.39999389648</ele>
        <time>2017-07-20T11:44:47Z</time>
      </trkpt>
      <trkpt lat="48.16513" lon="7.31361">
        <ele>252.39999389648</ele>
        <time>2017-07-20T11:44:53Z</time>
      </trkpt>
      <trkpt lat="48.16506" lon="7.31361">
        <ele>252.19999694824</ele>
        <time>2017-07-20T11:44:54Z</time>
      </trkpt>
      <trkpt lat="48.16462" lon="7.31372">
        <ele>251.39999389648</ele>
        <time>2017-07-20T11:45:00Z</time>
      </trkpt>
      <trkpt lat="48.16436" lon="7.31385">
        <ele>251.19999694824</ele>
        <time>2017-07-20T11:45:04Z</time>
      </trkpt>
      <trkpt lat="48.16416" lon="7.31396">
        <ele>250.80000305176</ele>
        <time>2017-07-20T11:45:07Z</time>
      </trkpt>
      <trkpt lat="48.16371" lon="7.31437">
        <ele>250.19999694824</ele>
        <time>2017-07-20T11:45:15Z</time>
      </trkpt>
      <trkpt lat="48.16351" lon="7.31463">
        <ele>250.19999694824</ele>
        <time>2017-07-20T11:45:19Z</time>
      </trkpt>
      <trkpt lat="48.16337" lon="7.31482">
        <ele>249.80000305176</ele>
        <time>2017-07-20T11:45:22Z</time>
      </trkpt>
      <trkpt lat="48.16309" lon="7.31524">
        <ele>249</ele>
        <time>2017-07-20T11:45:28Z</time>
      </trkpt>
      <trkpt lat="48.163" lon="7.31538">
        <ele>248.80000305176</ele>
        <time>2017-07-20T11:45:30Z</time>
      </trkpt>
      <trkpt lat="48.16276" lon="7.31573">
        <ele>247.80000305176</ele>
        <time>2017-07-20T11:45:35Z</time>
      </trkpt>
      <trkpt lat="48.16257" lon="7.31602">
        <ele>247.19999694824</ele>
        <time>2017-07-20T11:45:39Z</time>
      </trkpt>
      <trkpt lat="48.16243" lon="7.31623">
        <ele>246.80000305176</ele>
        <time>2017-07-20T11:45:42Z</time>
      </trkpt>
      <trkpt lat="48.16212" lon="7.31668">
        <ele>246</ele>
        <time>2017-07-20T11:45:48Z</time>
      </trkpt>
      <trkpt lat="48.16207" lon="7.31675">
        <ele>245.80000305176</ele>
        <time>2017-07-20T11:45:49Z</time>
      </trkpt>
      <trkpt lat="48.16187" lon="7.31706">
        <ele>244.80000305176</ele>
        <time>2017-07-20T11:45:53Z</time>
      </trkpt>
      <trkpt lat="48.16165" lon="7.31736">
        <ele>243.60000610352</ele>
        <time>2017-07-20T11:45:57Z</time>
      </trkpt>
      <trkpt lat="48.16158" lon="7.31743">
        <ele>243.39999389648</ele>
        <time>2017-07-20T11:45:58Z</time>
      </trkpt>
      <trkpt lat="48.16139" lon="7.31763">
        <ele>242.60000610352</ele>
        <time>2017-07-20T11:46:01Z</time>
      </trkpt>
      <trkpt lat="48.16118" lon="7.31778">
        <ele>241.80000305176</ele>
        <time>2017-07-20T11:46:04Z</time>
      </trkpt>
      <trkpt lat="48.16111" lon="7.31782">
        <ele>241.39999389648</ele>
        <time>2017-07-20T11:46:05Z</time>
      </trkpt>
      <trkpt lat="48.16087" lon="7.31792">
        <ele>240.39999389648</ele>
        <time>2017-07-20T11:46:08Z</time>
      </trkpt>
      <trkpt lat="48.16071" lon="7.31796">
        <ele>239.80000305176</ele>
        <time>2017-07-20T11:46:10Z</time>
      </trkpt>
      <trkpt lat="48.16063" lon="7.31798">
        <ele>239.60000610352</ele>
        <time>2017-07-20T11:46:11Z</time>
      </trkpt>
      <trkpt lat="48.16055" lon="7.31799">
        <ele>239.39999389648</ele>
        <time>2017-07-20T11:46:12Z</time>
      </trkpt>
      <trkpt lat="48.16024" lon="7.31804">
        <ele>238.19999694824</ele>
        <time>2017-07-20T11:46:16Z</time>
      </trkpt>
      <trkpt lat="48.16016" lon="7.31806">
        <ele>237.60000610352</ele>
        <time>2017-07-20T11:46:17Z</time>
      </trkpt>
      <trkpt lat="48.15993" lon="7.31815">
        <ele>236.80000305176</ele>
        <time>2017-07-20T11:46:20Z</time>
      </trkpt>
      <trkpt lat="48.15969" lon="7.31819">
        <ele>236.19999694824</ele>
        <time>2017-07-20T11:46:23Z</time>
      </trkpt>
      <trkpt lat="48.15961" lon="7.31817">
        <ele>235.80000305176</ele>
        <time>2017-07-20T11:46:24Z</time>
      </trkpt>
      <trkpt lat="48.15947" lon="7.31815">
        <ele>235.19999694824</ele>
        <time>2017-07-20T11:46:26Z</time>
      </trkpt>
      <trkpt lat="48.15929" lon="7.31834">
        <ele>234.80000305176</ele>
        <time>2017-07-20T11:46:29Z</time>
      </trkpt>
      <trkpt lat="48.1592" lon="7.31866">
        <ele>234.39999389648</ele>
        <time>2017-07-20T11:46:32Z</time>
      </trkpt>
      <trkpt lat="48.15912" lon="7.31884">
        <ele>234</ele>
        <time>2017-07-20T11:46:34Z</time>
      </trkpt>
      <trkpt lat="48.159" lon="7.319">
        <ele>233.39999389648</ele>
        <time>2017-07-20T11:46:36Z</time>
      </trkpt>
      <trkpt lat="48.1589" lon="7.31916">
        <ele>233</ele>
        <time>2017-07-20T11:46:38Z</time>
      </trkpt>
      <trkpt lat="48.15878" lon="7.3193">
        <ele>232.39999389648</ele>
        <time>2017-07-20T11:46:40Z</time>
      </trkpt>
      <trkpt lat="48.15872" lon="7.31936">
        <ele>232</ele>
        <time>2017-07-20T11:46:41Z</time>
      </trkpt>
      <trkpt lat="48.15833" lon="7.31964">
        <ele>231.80000305176</ele>
        <time>2017-07-20T11:46:47Z</time>
      </trkpt>
      <trkpt lat="48.15787" lon="7.31977">
        <ele>231.60000610352</ele>
        <time>2017-07-20T11:46:54Z</time>
      </trkpt>
      <trkpt lat="48.15766" lon="7.31979">
        <ele>231.39999389648</ele>
        <time>2017-07-20T11:46:57Z</time>
      </trkpt>
      <trkpt lat="48.15737" lon="7.31981">
        <ele>230.80000305176</ele>
        <time>2017-07-20T11:47:01Z</time>
      </trkpt>
      <trkpt lat="48.15707" lon="7.31982">
        <ele>230</ele>
        <time>2017-07-20T11:47:05Z</time>
      </trkpt>
      <trkpt lat="48.15677" lon="7.31983">
        <ele>229.19999694824</ele>
        <time>2017-07-20T11:47:09Z</time>
      </trkpt>
      <trkpt lat="48.15662" lon="7.31983">
        <ele>228.80000305176</ele>
        <time>2017-07-20T11:47:11Z</time>
      </trkpt>
      <trkpt lat="48.15625" lon="7.31985">
        <ele>227.60000610352</ele>
        <time>2017-07-20T11:47:16Z</time>
      </trkpt>
      <trkpt lat="48.1561" lon="7.31985">
        <ele>227.19999694824</ele>
        <time>2017-07-20T11:47:18Z</time>
      </trkpt>
      <trkpt lat="48.15586" lon="7.31986">
        <ele>226.60000610352</ele>
        <time>2017-07-20T11:47:21Z</time>
      </trkpt>
      <trkpt lat="48.15532" lon="7.3199">
        <ele>225.60000610352</ele>
        <time>2017-07-20T11:47:28Z</time>
      </trkpt>
      <trkpt lat="48.15511" lon="7.31995">
        <ele>225.19999694824</ele>
        <time>2017-07-20T11:47:31Z</time>
      </trkpt>
      <trkpt lat="48.15484" lon="7.32001">
        <ele>225.19999694824</ele>
        <time>2017-07-20T11:47:35Z</time>
      </trkpt>
      <trkpt lat="48.15435" lon="7.32018">
        <ele>224.80000305176</ele>
        <time>2017-07-20T11:47:42Z</time>
      </trkpt>
      <trkpt lat="48.15414" lon="7.32028">
        <ele>224.39999389648</ele>
        <time>2017-07-20T11:47:45Z</time>
      </trkpt>
      <trkpt lat="48.15377" lon="7.32047">
        <ele>223.39999389648</ele>
        <time>2017-07-20T11:47:50Z</time>
      </trkpt>
      <trkpt lat="48.15369" lon="7.32051">
        <ele>223.19999694824</ele>
        <time>2017-07-20T11:47:51Z</time>
      </trkpt>
      <trkpt lat="48.1533" lon="7.32069">
        <ele>222.19999694824</ele>
        <time>2017-07-20T11:47:56Z</time>
      </trkpt>
      <trkpt lat="48.15323" lon="7.32073">
        <ele>222</ele>
        <time>2017-07-20T11:47:57Z</time>
      </trkpt>
      <trkpt lat="48.153" lon="7.32083">
        <ele>221.19999694824</ele>
        <time>2017-07-20T11:48:00Z</time>
      </trkpt>
      <trkpt lat="48.15272" lon="7.32095">
        <ele>220.80000305176</ele>
        <time>2017-07-20T11:48:04Z</time>
      </trkpt>
      <trkpt lat="48.15234" lon="7.32104">
        <ele>220.80000305176</ele>
        <time>2017-07-20T11:48:10Z</time>
      </trkpt>
      <trkpt lat="48.152" lon="7.32104">
        <ele>221</ele>
        <time>2017-07-20T11:48:16Z</time>
      </trkpt>
      <trkpt lat="48.15154" lon="7.32095">
        <ele>221.19999694824</ele>
        <time>2017-07-20T11:48:24Z</time>
      </trkpt>
      <trkpt lat="48.15119" lon="7.32085">
        <ele>221.39999389648</ele>
        <time>2017-07-20T11:48:30Z</time>
      </trkpt>
      <trkpt lat="48.15073" lon="7.32076">
        <ele>221</ele>
        <time>2017-07-20T11:48:37Z</time>
      </trkpt>
      <trkpt lat="48.15055" lon="7.32069">
        <ele>220.60000610352</ele>
        <time>2017-07-20T11:48:40Z</time>
      </trkpt>
      <trkpt lat="48.15043" lon="7.32069">
        <ele>220.39999389648</ele>
        <time>2017-07-20T11:48:42Z</time>
      </trkpt>
      <trkpt lat="48.15029" lon="7.3207">
        <ele>220.19999694824</ele>
        <time>2017-07-20T11:48:44Z</time>
      </trkpt>
      <trkpt lat="48.1501" lon="7.32075">
        <ele>219.80000305176</ele>
        <time>2017-07-20T11:48:47Z</time>
      </trkpt>
      <trkpt lat="48.14982" lon="7.32092">
        <ele>219.60000610352</ele>
        <time>2017-07-20T11:48:52Z</time>
      </trkpt>
      <trkpt lat="48.14946" lon="7.32111">
        <ele>220.39999389648</ele>
        <time>2017-07-20T11:48:59Z</time>
      </trkpt>
      <trkpt lat="48.14918" lon="7.32127">
        <ele>221.39999389648</ele>
        <time>2017-07-20T11:49:05Z</time>
      </trkpt>
      <trkpt lat="48.14913" lon="7.32131">
        <ele>221.39999389648</ele>
        <time>2017-07-20T11:49:06Z</time>
      </trkpt>
      <trkpt lat="48.14908" lon="7.32135">
        <ele>221.39999389648</ele>
        <time>2017-07-20T11:49:07Z</time>
      </trkpt>
      <trkpt lat="48.14875" lon="7.32161">
        <ele>221.39999389648</ele>
        <time>2017-07-20T11:49:13Z</time>
      </trkpt>
      <trkpt lat="48.14859" lon="7.32174">
        <ele>220.80000305176</ele>
        <time>2017-07-20T11:49:16Z</time>
      </trkpt>
      <trkpt lat="48.14839" lon="7.32189">
        <ele>220.39999389648</ele>
        <time>2017-07-20T11:49:19Z</time>
      </trkpt>
      <trkpt lat="48.14805" lon="7.32212">
        <ele>219.19999694824</ele>
        <time>2017-07-20T11:49:24Z</time>
      </trkpt>
      <trkpt lat="48.14799" lon="7.32217">
        <ele>219</ele>
        <time>2017-07-20T11:49:25Z</time>
      </trkpt>
      <trkpt lat="48.14779" lon="7.32233">
        <ele>218</ele>
        <time>2017-07-20T11:49:28Z</time>
      </trkpt>
      <trkpt lat="48.14758" lon="7.32249">
        <ele>216.80000305176</ele>
        <time>2017-07-20T11:49:31Z</time>
      </trkpt>
      <trkpt lat="48.14744" lon="7.3226">
        <ele>216.19999694824</ele>
        <time>2017-07-20T11:49:33Z</time>
      </trkpt>
      <trkpt lat="48.14737" lon="7.32265">
        <ele>215.80000305176</ele>
        <time>2017-07-20T11:49:34Z</time>
      </trkpt>
      <trkpt lat="48.14703" lon="7.32291">
        <ele>214.60000610352</ele>
        <time>2017-07-20T11:49:39Z</time>
      </trkpt>
      <trkpt lat="48.14677" lon="7.32311">
        <ele>213.19999694824</ele>
        <time>2017-07-20T11:49:43Z</time>
      </trkpt>
      <trkpt lat="48.1465" lon="7.32328">
        <ele>212.39999389648</ele>
        <time>2017-07-20T11:49:47Z</time>
      </trkpt>
      <trkpt lat="48.14644" lon="7.32332">
        <ele>212.19999694824</ele>
        <time>2017-07-20T11:49:48Z</time>
      </trkpt>
      <trkpt lat="48.14608" lon="7.32355">
        <ele>211.19999694824</ele>
        <time>2017-07-20T11:49:53Z</time>
      </trkpt>
      <trkpt lat="48.14586" lon="7.32367">
        <ele>210</ele>
        <time>2017-07-20T11:49:56Z</time>
      </trkpt>
      <trkpt lat="48.14549" lon="7.32389">
        <ele>208.80000305176</ele>
        <time>2017-07-20T11:50:01Z</time>
      </trkpt>
      <trkpt lat="48.14542" lon="7.32393">
        <ele>208.60000610352</ele>
        <time>2017-07-20T11:50:02Z</time>
      </trkpt>
      <trkpt lat="48.14501" lon="7.32414">
        <ele>207.80000305176</ele>
        <time>2017-07-20T11:50:08Z</time>
      </trkpt>
      <trkpt lat="48.14458" lon="7.32433">
        <ele>207</ele>
        <time>2017-07-20T11:50:15Z</time>
      </trkpt>
      <trkpt lat="48.14447" lon="7.32439">
        <ele>206.60000610352</ele>
        <time>2017-07-20T11:50:17Z</time>
      </trkpt>
      <trkpt lat="48.14434" lon="7.32444">
        <ele>206.19999694824</ele>
        <time>2017-07-20T11:50:19Z</time>
      </trkpt>
      <trkpt lat="48.14422" lon="7.32449">
        <ele>206.19999694824</ele>
        <time>2017-07-20T11:50:21Z</time>
      </trkpt>
      <trkpt lat="48.14403" lon="7.32456">
        <ele>205.60000610352</ele>
        <time>2017-07-20T11:50:24Z</time>
      </trkpt>
      <trkpt lat="48.14397" lon="7.32458">
        <ele>205.39999389648</ele>
        <time>2017-07-20T11:50:25Z</time>
      </trkpt>
      <trkpt lat="48.1439" lon="7.3246">
        <ele>205.19999694824</ele>
        <time>2017-07-20T11:50:26Z</time>
      </trkpt>
      <trkpt lat="48.14346" lon="7.32469">
        <ele>204.39999389648</ele>
        <time>2017-07-20T11:50:33Z</time>
      </trkpt>
      <trkpt lat="48.1434" lon="7.3247">
        <ele>204.39999389648</ele>
        <time>2017-07-20T11:50:34Z</time>
      </trkpt>
      <trkpt lat="48.14315" lon="7.32476">
        <ele>204.19999694824</ele>
        <time>2017-07-20T11:50:38Z</time>
      </trkpt>
      <trkpt lat="48.14308" lon="7.32476">
        <ele>204.19999694824</ele>
        <time>2017-07-20T11:50:39Z</time>
      </trkpt>
      <trkpt lat="48.14265" lon="7.32481">
        <ele>203.80000305176</ele>
        <time>2017-07-20T11:50:47Z</time>
      </trkpt>
      <trkpt lat="48.14244" lon="7.32483">
        <ele>204</ele>
        <time>2017-07-20T11:50:51Z</time>
      </trkpt>
      <trkpt lat="48.14233" lon="7.32484">
        <ele>204.19999694824</ele>
        <time>2017-07-20T11:50:53Z</time>
      </trkpt>
      <trkpt lat="48.14205" lon="7.32488">
        <ele>204</ele>
        <time>2017-07-20T11:50:58Z</time>
      </trkpt>
      <trkpt lat="48.14195" lon="7.32488">
        <ele>204</ele>
        <time>2017-07-20T11:51:00Z</time>
      </trkpt>
      <trkpt lat="48.14175" lon="7.32491">
        <ele>204.19999694824</ele>
        <time>2017-07-20T11:51:04Z</time>
      </trkpt>
      <trkpt lat="48.1416" lon="7.32494">
        <ele>204.39999389648</ele>
        <time>2017-07-20T11:51:07Z</time>
      </trkpt>
      <trkpt lat="48.14118" lon="7.32502">
        <ele>204.19999694824</ele>
        <time>2017-07-20T11:51:15Z</time>
      </trkpt>
      <trkpt lat="48.14064" lon="7.3251">
        <ele>204.60000610352</ele>
        <time>2017-07-20T11:51:25Z</time>
      </trkpt>
      <trkpt lat="48.1401" lon="7.32519">
        <ele>204.80000305176</ele>
        <time>2017-07-20T11:51:35Z</time>
      </trkpt>
      <trkpt lat="48.14004" lon="7.3252">
        <ele>204.80000305176</ele>
        <time>2017-07-20T11:51:36Z</time>
      </trkpt>
      <trkpt lat="48.13968" lon="7.32527">
        <ele>204.80000305176</ele>
        <time>2017-07-20T11:51:43Z</time>
      </trkpt>
      <trkpt lat="48.13943" lon="7.32517">
        <ele>204.60000610352</ele>
        <time>2017-07-20T11:51:48Z</time>
      </trkpt>
      <trkpt lat="48.13905" lon="7.32496">
        <ele>204</ele>
        <time>2017-07-20T11:51:55Z</time>
      </trkpt>
      <trkpt lat="48.13864" lon="7.32458">
        <ele>203.80000305176</ele>
        <time>2017-07-20T11:52:03Z</time>
      </trkpt>
      <trkpt lat="48.13822" lon="7.32411">
        <ele>204.39999389648</ele>
        <time>2017-07-20T11:52:12Z</time>
      </trkpt>
      <trkpt lat="48.13794" lon="7.32364">
        <ele>205.19999694824</ele>
        <time>2017-07-20T11:52:19Z</time>
      </trkpt>
      <trkpt lat="48.13788" lon="7.3235">
        <ele>205.60000610352</ele>
        <time>2017-07-20T11:52:21Z</time>
      </trkpt>
      <trkpt lat="48.13766" lon="7.32308">
        <ele>206.19999694824</ele>
        <time>2017-07-20T11:52:27Z</time>
      </trkpt>
      <trkpt lat="48.13757" lon="7.32295">
        <ele>206.60000610352</ele>
        <time>2017-07-20T11:52:29Z</time>
      </trkpt>
      <trkpt lat="48.13737" lon="7.32273">
        <ele>206.80000305176</ele>
        <time>2017-07-20T11:52:33Z</time>
      </trkpt>
      <trkpt lat="48.13703" lon="7.32245">
        <ele>206.39999389648</ele>
        <time>2017-07-20T11:52:40Z</time>
      </trkpt>
      <trkpt lat="48.13671" lon="7.32214">
        <ele>206.19999694824</ele>
        <time>2017-07-20T11:52:47Z</time>
      </trkpt>
      <trkpt lat="48.13643" lon="7.32176">
        <ele>206</ele>
        <time>2017-07-20T11:52:53Z</time>
      </trkpt>
      <trkpt lat="48.13603" lon="7.32118">
        <ele>205.39999389648</ele>
        <time>2017-07-20T11:53:01Z</time>
      </trkpt>
      <trkpt lat="48.13598" lon="7.32111">
        <ele>205.19999694824</ele>
        <time>2017-07-20T11:53:02Z</time>
      </trkpt>
      <trkpt lat="48.1357" lon="7.32076">
        <ele>204.39999389648</ele>
        <time>2017-07-20T11:53:07Z</time>
      </trkpt>
      <trkpt lat="48.13559" lon="7.32062">
        <ele>204</ele>
        <time>2017-07-20T11:53:09Z</time>
      </trkpt>
      <trkpt lat="48.1353" lon="7.32028">
        <ele>203.19999694824</ele>
        <time>2017-07-20T11:53:14Z</time>
      </trkpt>
      <trkpt lat="48.13497" lon="7.31989">
        <ele>202.60000610352</ele>
        <time>2017-07-20T11:53:20Z</time>
      </trkpt>
      <trkpt lat="48.13458" lon="7.31941">
        <ele>202.39999389648</ele>
        <time>2017-07-20T11:53:28Z</time>
      </trkpt>
      <trkpt lat="48.13418" lon="7.31893">
        <ele>202.39999389648</ele>
        <time>2017-07-20T11:53:37Z</time>
      </trkpt>
      <trkpt lat="48.13413" lon="7.31882">
        <ele>202.39999389648</ele>
        <time>2017-07-20T11:53:40Z</time>
      </trkpt>
      <trkpt lat="48.13411" lon="7.31867">
        <ele>202.19999694824</ele>
        <time>2017-07-20T11:53:44Z</time>
      </trkpt>
      <trkpt lat="48.1341" lon="7.31861">
        <ele>202.19999694824</ele>
        <time>2017-07-20T11:53:45Z</time>
      </trkpt>
      <trkpt lat="48.13404" lon="7.31823">
        <ele>202.19999694824</ele>
        <time>2017-07-20T11:53:51Z</time>
      </trkpt>
      <trkpt lat="48.13397" lon="7.31773">
        <ele>202.39999389648</ele>
        <time>2017-07-20T11:53:58Z</time>
      </trkpt>
      <trkpt lat="48.13397" lon="7.31766">
        <ele>202.60000610352</ele>
        <time>2017-07-20T11:53:59Z</time>
      </trkpt>
      <trkpt lat="48.13398" lon="7.31731">
        <ele>202.39999389648</ele>
        <time>2017-07-20T11:54:05Z</time>
      </trkpt>
      <trkpt lat="48.13399" lon="7.31696">
        <ele>202.19999694824</ele>
        <time>2017-07-20T11:54:12Z</time>
      </trkpt>
      <trkpt lat="48.13399" lon="7.31656">
        <ele>202.60000610352</ele>
        <time>2017-07-20T11:54:18Z</time>
      </trkpt>
      <trkpt lat="48.13399" lon="7.3165">
        <ele>202.80000305176</ele>
        <time>2017-07-20T11:54:19Z</time>
      </trkpt>
      <trkpt lat="48.13399" lon="7.31636">
        <ele>203</ele>
        <time>2017-07-20T11:54:21Z</time>
      </trkpt>
      <trkpt lat="48.134" lon="7.31623">
        <ele>203</ele>
        <time>2017-07-20T11:54:23Z</time>
      </trkpt>
      <trkpt lat="48.134" lon="7.31609">
        <ele>203.19999694824</ele>
        <time>2017-07-20T11:54:25Z</time>
      </trkpt>
      <trkpt lat="48.13403" lon="7.31588">
        <ele>203.19999694824</ele>
        <time>2017-07-20T11:54:28Z</time>
      </trkpt>
      <trkpt lat="48.13409" lon="7.31555">
        <ele>203.19999694824</ele>
        <time>2017-07-20T11:54:33Z</time>
      </trkpt>
      <trkpt lat="48.13427" lon="7.31497">
        <ele>203.60000610352</ele>
        <time>2017-07-20T11:54:42Z</time>
      </trkpt>
      <trkpt lat="48.13432" lon="7.31477">
        <ele>204</ele>
        <time>2017-07-20T11:54:45Z</time>
      </trkpt>
      <trkpt lat="48.13433" lon="7.31456">
        <ele>204.19999694824</ele>
        <time>2017-07-20T11:54:48Z</time>
      </trkpt>
      <trkpt lat="48.13438" lon="7.31402">
        <ele>204.80000305176</ele>
        <time>2017-07-20T11:54:56Z</time>
      </trkpt>
      <trkpt lat="48.13445" lon="7.31339">
        <ele>204.60000610352</ele>
        <time>2017-07-20T11:55:05Z</time>
      </trkpt>
      <trkpt lat="48.13454" lon="7.3128">
        <ele>205</ele>
        <time>2017-07-20T11:55:14Z</time>
      </trkpt>
      <trkpt lat="48.13455" lon="7.31273">
        <ele>205</ele>
        <time>2017-07-20T11:55:15Z</time>
      </trkpt>
      <trkpt lat="48.1346" lon="7.31248">
        <ele>205.39999389648</ele>
        <time>2017-07-20T11:55:19Z</time>
      </trkpt>
      <trkpt lat="48.13461" lon="7.31242">
        <ele>205.60000610352</ele>
        <time>2017-07-20T11:55:20Z</time>
      </trkpt>
      <trkpt lat="48.13466" lon="7.3121">
        <ele>206</ele>
        <time>2017-07-20T11:55:25Z</time>
      </trkpt>
      <trkpt lat="48.13472" lon="7.31187">
        <ele>206.39999389648</ele>
        <time>2017-07-20T11:55:29Z</time>
      </trkpt>
      <trkpt lat="48.13473" lon="7.31181">
        <ele>206.39999389648</ele>
        <time>2017-07-20T11:55:30Z</time>
      </trkpt>
      <trkpt lat="48.13485" lon="7.31148">
        <ele>207.19999694824</ele>
        <time>2017-07-20T11:55:36Z</time>
      </trkpt>
      <trkpt lat="48.13488" lon="7.31136">
        <ele>207.19999694824</ele>
        <time>2017-07-20T11:55:38Z</time>
      </trkpt>
      <trkpt lat="48.13491" lon="7.31117">
        <ele>207.19999694824</ele>
        <time>2017-07-20T11:55:41Z</time>
      </trkpt>
      <trkpt lat="48.13492" lon="7.31111">
        <ele>207.39999389648</ele>
        <time>2017-07-20T11:55:42Z</time>
      </trkpt>
      <trkpt lat="48.13493" lon="7.31071">
        <ele>207.60000610352</ele>
        <time>2017-07-20T11:55:48Z</time>
      </trkpt>
      <trkpt lat="48.13493" lon="7.31057">
        <ele>207.60000610352</ele>
        <time>2017-07-20T11:55:50Z</time>
      </trkpt>
      <trkpt lat="48.13494" lon="7.31003">
        <ele>207.80000305176</ele>
        <time>2017-07-20T11:55:58Z</time>
      </trkpt>
      <trkpt lat="48.13506" lon="7.30934">
        <ele>208.19999694824</ele>
        <time>2017-07-20T11:56:08Z</time>
      </trkpt>
      <trkpt lat="48.13517" lon="7.30879">
        <ele>208.60000610352</ele>
        <time>2017-07-20T11:56:16Z</time>
      </trkpt>
      <trkpt lat="48.13519" lon="7.30851">
        <ele>209</ele>
        <time>2017-07-20T11:56:20Z</time>
      </trkpt>
      <trkpt lat="48.1352" lon="7.30844">
        <ele>209.19999694824</ele>
        <time>2017-07-20T11:56:21Z</time>
      </trkpt>
      <trkpt lat="48.13522" lon="7.30797">
        <ele>209.60000610352</ele>
        <time>2017-07-20T11:56:28Z</time>
      </trkpt>
      <trkpt lat="48.13522" lon="7.3079">
        <ele>209.60000610352</ele>
        <time>2017-07-20T11:56:29Z</time>
      </trkpt>
      <trkpt lat="48.13525" lon="7.30744">
        <ele>210.19999694824</ele>
        <time>2017-07-20T11:56:36Z</time>
      </trkpt>
      <trkpt lat="48.13528" lon="7.30712">
        <ele>210.60000610352</ele>
        <time>2017-07-20T11:56:41Z</time>
      </trkpt>
      <trkpt lat="48.1353" lon="7.307">
        <ele>211</ele>
        <time>2017-07-20T11:56:43Z</time>
      </trkpt>
      <trkpt lat="48.13531" lon="7.30694">
        <ele>211</ele>
        <time>2017-07-20T11:56:44Z</time>
      </trkpt>
      <trkpt lat="48.13533" lon="7.3068">
        <ele>211</ele>
        <time>2017-07-20T11:56:47Z</time>
      </trkpt>
      <trkpt lat="48.13535" lon="7.30668">
        <ele>211</ele>
        <time>2017-07-20T11:56:50Z</time>
      </trkpt>
      <trkpt lat="48.13536" lon="7.30654">
        <ele>210.80000305176</ele>
        <time>2017-07-20T11:58:06Z</time>
      </trkpt>
      <trkpt lat="48.13536" lon="7.30635">
        <ele>210.80000305176</ele>
        <time>2017-07-20T11:58:11Z</time>
      </trkpt>
      <trkpt lat="48.13537" lon="7.30613">
        <ele>210.80000305176</ele>
        <time>2017-07-20T11:58:16Z</time>
      </trkpt>
      <trkpt lat="48.13538" lon="7.30581">
        <ele>211</ele>
        <time>2017-07-20T11:58:23Z</time>
      </trkpt>
      <trkpt lat="48.1354" lon="7.3056">
        <ele>211.39999389648</ele>
        <time>2017-07-20T11:58:28Z</time>
      </trkpt>
      <trkpt lat="48.13544" lon="7.30526">
        <ele>211.19999694824</ele>
        <time>2017-07-20T11:58:34Z</time>
      </trkpt>
      <trkpt lat="48.13546" lon="7.30489">
        <ele>211.19999694824</ele>
        <time>2017-07-20T11:58:40Z</time>
      </trkpt>
      <trkpt lat="48.13547" lon="7.30459">
        <ele>211.39999389648</ele>
        <time>2017-07-20T11:58:46Z</time>
      </trkpt>
      <trkpt lat="48.1355" lon="7.3043">
        <ele>211.39999389648</ele>
        <time>2017-07-20T11:58:52Z</time>
      </trkpt>
      <trkpt lat="48.13552" lon="7.30398">
        <ele>211.60000610352</ele>
        <time>2017-07-20T11:58:59Z</time>
      </trkpt>
      <trkpt lat="48.13556" lon="7.30371">
        <ele>211.60000610352</ele>
        <time>2017-07-20T11:59:05Z</time>
      </trkpt>
      <trkpt lat="48.13564" lon="7.30334">
        <ele>211.39999389648</ele>
        <time>2017-07-20T11:59:12Z</time>
      </trkpt>
      <trkpt lat="48.13571" lon="7.30303">
        <ele>211.60000610352</ele>
        <time>2017-07-20T11:59:19Z</time>
      </trkpt>
      <trkpt lat="48.13572" lon="7.30293">
        <ele>211.60000610352</ele>
        <time>2017-07-20T11:59:21Z</time>
      </trkpt>
      <trkpt lat="48.13575" lon="7.30275">
        <ele>211.80000305176</ele>
        <time>2017-07-20T11:59:25Z</time>
      </trkpt>
      <trkpt lat="48.13583" lon="7.30243">
        <ele>212</ele>
        <time>2017-07-20T11:59:32Z</time>
      </trkpt>
      <trkpt lat="48.1359" lon="7.30219">
        <ele>212</ele>
        <time>2017-07-20T11:59:37Z</time>
      </trkpt>
      <trkpt lat="48.13598" lon="7.30185">
        <ele>212.19999694824</ele>
        <time>2017-07-20T11:59:43Z</time>
      </trkpt>
      <trkpt lat="48.136" lon="7.30174">
        <ele>212.19999694824</ele>
        <time>2017-07-20T11:59:45Z</time>
      </trkpt>
      <trkpt lat="48.13599" lon="7.30158">
        <ele>212.19999694824</ele>
        <time>2017-07-20T11:59:47Z</time>
      </trkpt>
      <trkpt lat="48.13599" lon="7.30152">
        <ele>212.19999694824</ele>
        <time>2017-07-20T11:59:48Z</time>
      </trkpt>
      <trkpt lat="48.13604" lon="7.30107">
        <ele>212.19999694824</ele>
        <time>2017-07-20T11:59:55Z</time>
      </trkpt>
      <trkpt lat="48.13605" lon="7.30101">
        <ele>212.39999389648</ele>
        <time>2017-07-20T11:59:56Z</time>
      </trkpt>
      <trkpt lat="48.13606" lon="7.30087">
        <ele>212.60000610352</ele>
        <time>2017-07-20T11:59:58Z</time>
      </trkpt>
      <trkpt lat="48.13607" lon="7.30074">
        <ele>212.80000305176</ele>
        <time>2017-07-20T12:00:00Z</time>
      </trkpt>
      <trkpt lat="48.13608" lon="7.30062">
        <ele>213</ele>
        <time>2017-07-20T12:00:02Z</time>
      </trkpt>
      <trkpt lat="48.13609" lon="7.30017">
        <ele>213.80000305176</ele>
        <time>2017-07-20T12:00:10Z</time>
      </trkpt>
      <trkpt lat="48.13607" lon="7.30001">
        <ele>214.39999389648</ele>
        <time>2017-07-20T12:00:15Z</time>
      </trkpt>
      <trkpt lat="48.13595" lon="7.29996">
        <ele>214.80000305176</ele>
        <time>2017-07-20T12:00:18Z</time>
      </trkpt>
      <trkpt lat="48.1359" lon="7.29995">
        <ele>214.80000305176</ele>
        <time>2017-07-20T12:00:19Z</time>
      </trkpt>
      <trkpt lat="48.13551" lon="7.29991">
        <ele>214</ele>
        <time>2017-07-20T12:00:26Z</time>
      </trkpt>
      <trkpt lat="48.13541" lon="7.2999">
        <ele>213.80000305176</ele>
        <time>2017-07-20T12:00:28Z</time>
      </trkpt>
      <trkpt lat="48.13535" lon="7.29989">
        <ele>213.80000305176</ele>
        <time>2017-07-20T12:00:29Z</time>
      </trkpt>
      <trkpt lat="48.1353" lon="7.29989">
        <ele>213.60000610352</ele>
        <time>2017-07-20T12:00:30Z</time>
      </trkpt>
      <trkpt lat="48.13519" lon="7.29991">
        <ele>213.39999389648</ele>
        <time>2017-07-20T12:00:33Z</time>
      </trkpt>
      <trkpt lat="48.13517" lon="7.29991">
        <ele>213.19999694824</ele>
        <time>2017-07-20T12:00:34Z</time>
      </trkpt>
      <trkpt lat="48.13511" lon="7.29995">
        <ele>213</ele>
        <time>2017-07-20T12:00:59Z</time>
      </trkpt>
      <trkpt lat="48.13509" lon="7.29996">
        <ele>213</ele>
        <time>2017-07-20T12:01:00Z</time>
      </trkpt>
      <trkpt lat="48.13492" lon="7.30001">
        <ele>213</ele>
        <time>2017-07-20T12:01:05Z</time>
      </trkpt>
      <trkpt lat="48.13466" lon="7.30005">
        <ele>213.19999694824</ele>
        <time>2017-07-20T12:01:10Z</time>
      </trkpt>
      <trkpt lat="48.13432" lon="7.30011">
        <ele>213</ele>
        <time>2017-07-20T12:01:17Z</time>
      </trkpt>
      <trkpt lat="48.1341" lon="7.30017">
        <ele>212.80000305176</ele>
        <time>2017-07-20T12:01:22Z</time>
      </trkpt>
      <trkpt lat="48.13405" lon="7.30018">
        <ele>213</ele>
        <time>2017-07-20T12:01:23Z</time>
      </trkpt>
      <trkpt lat="48.13389" lon="7.30021">
        <ele>213</ele>
        <time>2017-07-20T12:01:26Z</time>
      </trkpt>
      <trkpt lat="48.13366" lon="7.30024">
        <ele>213</ele>
        <time>2017-07-20T12:01:30Z</time>
      </trkpt>
      <trkpt lat="48.13327" lon="7.30031">
        <ele>212.80000305176</ele>
        <time>2017-07-20T12:01:37Z</time>
      </trkpt>
      <trkpt lat="48.13316" lon="7.30034">
        <ele>212.80000305176</ele>
        <time>2017-07-20T12:01:39Z</time>
      </trkpt>
      <trkpt lat="48.13297" lon="7.30044">
        <ele>212.60000610352</ele>
        <time>2017-07-20T12:01:43Z</time>
      </trkpt>
      <trkpt lat="48.13281" lon="7.30038">
        <ele>212.80000305176</ele>
        <time>2017-07-20T12:01:47Z</time>
      </trkpt>
      <trkpt lat="48.13272" lon="7.30037">
        <ele>213</ele>
        <time>2017-07-20T12:01:49Z</time>
      </trkpt>
      <trkpt lat="48.13267" lon="7.30036">
        <ele>213.19999694824</ele>
        <time>2017-07-20T12:01:50Z</time>
      </trkpt>
      <trkpt lat="48.13258" lon="7.30039">
        <ele>213.19999694824</ele>
        <time>2017-07-20T12:01:52Z</time>
      </trkpt>
      <trkpt lat="48.13231" lon="7.30052">
        <ele>213.19999694824</ele>
        <time>2017-07-20T12:01:57Z</time>
      </trkpt>
      <trkpt lat="48.1319" lon="7.30075">
        <ele>212.80000305176</ele>
        <time>2017-07-20T12:02:05Z</time>
      </trkpt>
      <trkpt lat="48.13151" lon="7.30092">
        <ele>212.80000305176</ele>
        <time>2017-07-20T12:02:13Z</time>
      </trkpt>
      <trkpt lat="48.13129" lon="7.30093">
        <ele>212.80000305176</ele>
        <time>2017-07-20T12:02:17Z</time>
      </trkpt>
      <trkpt lat="48.13118" lon="7.30095">
        <ele>212.60000610352</ele>
        <time>2017-07-20T12:02:19Z</time>
      </trkpt>
      <trkpt lat="48.13087" lon="7.30097">
        <ele>212.60000610352</ele>
        <time>2017-07-20T12:02:25Z</time>
      </trkpt>
      <trkpt lat="48.13053" lon="7.30097">
        <ele>212.80000305176</ele>
        <time>2017-07-20T12:02:32Z</time>
      </trkpt>
      <trkpt lat="48.13035" lon="7.30097">
        <ele>213</ele>
        <time>2017-07-20T12:02:36Z</time>
      </trkpt>
      <trkpt lat="48.1303" lon="7.30098">
        <ele>213</ele>
        <time>2017-07-20T12:02:37Z</time>
      </trkpt>
      <trkpt lat="48.13007" lon="7.30115">
        <ele>213.39999389648</ele>
        <time>2017-07-20T12:02:43Z</time>
      </trkpt>
      <trkpt lat="48.13005" lon="7.3012">
        <ele>213.39999389648</ele>
        <time>2017-07-20T12:02:44Z</time>
      </trkpt>
      <trkpt lat="48.13008" lon="7.30133">
        <ele>213.39999389648</ele>
        <time>2017-07-20T12:02:46Z</time>
      </trkpt>
      <trkpt lat="48.13018" lon="7.30165">
        <ele>212.39999389648</ele>
        <time>2017-07-20T12:02:50Z</time>
      </trkpt>
      <trkpt lat="48.13019" lon="7.30175">
        <ele>212.19999694824</ele>
        <time>2017-07-20T12:02:51Z</time>
      </trkpt>
      <trkpt lat="48.13021" lon="7.30195">
        <ele>211.60000610352</ele>
        <time>2017-07-20T12:02:53Z</time>
      </trkpt>
      <trkpt lat="48.13026" lon="7.30235">
        <ele>211.19999694824</ele>
        <time>2017-07-20T12:02:57Z</time>
      </trkpt>
      <trkpt lat="48.13023" lon="7.30276">
        <ele>210.60000610352</ele>
        <time>2017-07-20T12:03:01Z</time>
      </trkpt>
      <trkpt lat="48.13016" lon="7.30364">
        <ele>210</ele>
        <time>2017-07-20T12:03:10Z</time>
      </trkpt>
      <trkpt lat="48.1301" lon="7.3044">
        <ele>209.60000610352</ele>
        <time>2017-07-20T12:03:18Z</time>
      </trkpt>
      <trkpt lat="48.13009" lon="7.30449">
        <ele>209.39999389648</ele>
        <time>2017-07-20T12:03:19Z</time>
      </trkpt>
      <trkpt lat="48.13001" lon="7.30517">
        <ele>209.19999694824</ele>
        <time>2017-07-20T12:03:26Z</time>
      </trkpt>
      <trkpt lat="48.12999" lon="7.30554">
        <ele>208.60000610352</ele>
        <time>2017-07-20T12:03:30Z</time>
      </trkpt>
      <trkpt lat="48.12997" lon="7.30583">
        <ele>208.19999694824</ele>
        <time>2017-07-20T12:03:33Z</time>
      </trkpt>
      <trkpt lat="48.12995" lon="7.30632">
        <ele>208</ele>
        <time>2017-07-20T12:03:38Z</time>
      </trkpt>
      <trkpt lat="48.12995" lon="7.30642">
        <ele>208</ele>
        <time>2017-07-20T12:03:39Z</time>
      </trkpt>
      <trkpt lat="48.12997" lon="7.30731">
        <ele>207.60000610352</ele>
        <time>2017-07-20T12:03:48Z</time>
      </trkpt>
      <trkpt lat="48.13001" lon="7.30759">
        <ele>207.60000610352</ele>
        <time>2017-07-20T12:03:51Z</time>
      </trkpt>
      <trkpt lat="48.13004" lon="7.30778">
        <ele>207.39999389648</ele>
        <time>2017-07-20T12:03:53Z</time>
      </trkpt>
      <trkpt lat="48.13016" lon="7.30855">
        <ele>206.80000305176</ele>
        <time>2017-07-20T12:04:01Z</time>
      </trkpt>
      <trkpt lat="48.13017" lon="7.30865">
        <ele>206.60000610352</ele>
        <time>2017-07-20T12:04:02Z</time>
      </trkpt>
      <trkpt lat="48.13017" lon="7.30875">
        <ele>206.39999389648</ele>
        <time>2017-07-20T12:04:03Z</time>
      </trkpt>
      <trkpt lat="48.13016" lon="7.30895">
        <ele>206</ele>
        <time>2017-07-20T12:04:05Z</time>
      </trkpt>
      <trkpt lat="48.13013" lon="7.30955">
        <ele>205.80000305176</ele>
        <time>2017-07-20T12:04:11Z</time>
      </trkpt>
      <trkpt lat="48.13011" lon="7.31012">
        <ele>205.60000610352</ele>
        <time>2017-07-20T12:04:17Z</time>
      </trkpt>
      <trkpt lat="48.13002" lon="7.31017">
        <ele>205.39999389648</ele>
        <time>2017-07-20T12:04:19Z</time>
      </trkpt>
      <trkpt lat="48.12993" lon="7.31013">
        <ele>205.39999389648</ele>
        <time>2017-07-20T12:04:21Z</time>
      </trkpt>
      <trkpt lat="48.12987" lon="7.31011">
        <ele>205.39999389648</ele>
        <time>2017-07-20T12:04:22Z</time>
      </trkpt>
      <trkpt lat="48.12982" lon="7.3101">
        <ele>205.39999389648</ele>
        <time>2017-07-20T12:04:23Z</time>
      </trkpt>
      <trkpt lat="48.12977" lon="7.3101">
        <ele>205.39999389648</ele>
        <time>2017-07-20T12:04:24Z</time>
      </trkpt>
      <trkpt lat="48.12969" lon="7.31017">
        <ele>205.60000610352</ele>
        <time>2017-07-20T12:04:26Z</time>
      </trkpt>
      <trkpt lat="48.12965" lon="7.31039">
        <ele>205.60000610352</ele>
        <time>2017-07-20T12:04:29Z</time>
      </trkpt>
      <trkpt lat="48.12963" lon="7.3109">
        <ele>205.39999389648</ele>
        <time>2017-07-20T12:04:35Z</time>
      </trkpt>
      <trkpt lat="48.12963" lon="7.31099">
        <ele>205.39999389648</ele>
        <time>2017-07-20T12:04:36Z</time>
      </trkpt>
      <trkpt lat="48.12962" lon="7.31108">
        <ele>205.19999694824</ele>
        <time>2017-07-20T12:04:37Z</time>
      </trkpt>
      <trkpt lat="48.12956" lon="7.31144">
        <ele>205</ele>
        <time>2017-07-20T12:04:41Z</time>
      </trkpt>
      <trkpt lat="48.12944" lon="7.31209">
        <ele>204.60000610352</ele>
        <time>2017-07-20T12:04:48Z</time>
      </trkpt>
      <trkpt lat="48.12939" lon="7.31236">
        <ele>204.39999389648</ele>
        <time>2017-07-20T12:04:51Z</time>
      </trkpt>
      <trkpt lat="48.12929" lon="7.31291">
        <ele>204</ele>
        <time>2017-07-20T12:04:57Z</time>
      </trkpt>
      <trkpt lat="48.12915" lon="7.31371">
        <ele>203.60000610352</ele>
        <time>2017-07-20T12:05:06Z</time>
      </trkpt>
      <trkpt lat="48.12909" lon="7.31409">
        <ele>203.39999389648</ele>
        <time>2017-07-20T12:05:11Z</time>
      </trkpt>
      <trkpt lat="48.12912" lon="7.31415">
        <ele>203.39999389648</ele>
        <time>2017-07-20T12:05:12Z</time>
      </trkpt>
      <trkpt lat="48.12929" lon="7.31429">
        <ele>203.19999694824</ele>
        <time>2017-07-20T12:05:15Z</time>
      </trkpt>
      <trkpt lat="48.12951" lon="7.31447">
        <ele>202.39999389648</ele>
        <time>2017-07-20T12:05:19Z</time>
      </trkpt>
      <trkpt lat="48.12956" lon="7.31452">
        <ele>202.39999389648</ele>
        <time>2017-07-20T12:05:20Z</time>
      </trkpt>
      <trkpt lat="48.12961" lon="7.31456">
        <ele>202.19999694824</ele>
        <time>2017-07-20T12:05:21Z</time>
      </trkpt>
      <trkpt lat="48.12964" lon="7.31461">
        <ele>202.19999694824</ele>
        <time>2017-07-20T12:05:22Z</time>
      </trkpt>
      <trkpt lat="48.12964" lon="7.31466">
        <ele>202</ele>
        <time>2017-07-20T12:05:23Z</time>
      </trkpt>
      <trkpt lat="48.12964" lon="7.31486">
        <ele>201.80000305176</ele>
        <time>2017-07-20T12:05:26Z</time>
      </trkpt>
      <trkpt lat="48.12959" lon="7.31498">
        <ele>201.39999389648</ele>
        <time>2017-07-20T12:05:28Z</time>
      </trkpt>
      <trkpt lat="48.12945" lon="7.31494">
        <ele>201.60000610352</ele>
        <time>2017-07-20T12:05:31Z</time>
      </trkpt>
      <trkpt lat="48.12932" lon="7.31479">
        <ele>202.39999389648</ele>
        <time>2017-07-20T12:05:34Z</time>
      </trkpt>
      <trkpt lat="48.12927" lon="7.31474">
        <ele>202.60000610352</ele>
        <time>2017-07-20T12:05:35Z</time>
      </trkpt>
      <trkpt lat="48.12912" lon="7.31453">
        <ele>202.80000305176</ele>
        <time>2017-07-20T12:05:39Z</time>
      </trkpt>
      <trkpt lat="48.129" lon="7.31455">
        <ele>203</ele>
        <time>2017-07-20T12:05:42Z</time>
      </trkpt>
      <trkpt lat="48.12895" lon="7.31474">
        <ele>203</ele>
        <time>2017-07-20T12:05:45Z</time>
      </trkpt>
      <trkpt lat="48.12894" lon="7.31482">
        <ele>203</ele>
        <time>2017-07-20T12:05:46Z</time>
      </trkpt>
      <trkpt lat="48.12889" lon="7.31532">
        <ele>202.80000305176</ele>
        <time>2017-07-20T12:05:52Z</time>
      </trkpt>
      <trkpt lat="48.12888" lon="7.31549">
        <ele>202.60000610352</ele>
        <time>2017-07-20T12:05:54Z</time>
      </trkpt>
      <trkpt lat="48.12884" lon="7.31573">
        <ele>202.19999694824</ele>
        <time>2017-07-20T12:05:57Z</time>
      </trkpt>
      <trkpt lat="48.12884" lon="7.31581">
        <ele>202.19999694824</ele>
        <time>2017-07-20T12:05:58Z</time>
      </trkpt>
      <trkpt lat="48.1288" lon="7.31624">
        <ele>202</ele>
        <time>2017-07-20T12:06:03Z</time>
      </trkpt>
      <trkpt lat="48.12876" lon="7.31659">
        <ele>201.80000305176</ele>
        <time>2017-07-20T12:06:07Z</time>
      </trkpt>
      <trkpt lat="48.12872" lon="7.31677">
        <ele>201.80000305176</ele>
        <time>2017-07-20T12:06:09Z</time>
      </trkpt>
      <trkpt lat="48.12849" lon="7.31746">
        <ele>201.60000610352</ele>
        <time>2017-07-20T12:06:17Z</time>
      </trkpt>
      <trkpt lat="48.12815" lon="7.31821">
        <ele>201.39999389648</ele>
        <time>2017-07-20T12:06:26Z</time>
      </trkpt>
      <trkpt lat="48.12808" lon="7.31838">
        <ele>201.39999389648</ele>
        <time>2017-07-20T12:06:28Z</time>
      </trkpt>
      <trkpt lat="48.12788" lon="7.31892">
        <ele>201</ele>
        <time>2017-07-20T12:06:34Z</time>
      </trkpt>
      <trkpt lat="48.12771" lon="7.31948">
        <ele>200.80000305176</ele>
        <time>2017-07-20T12:06:40Z</time>
      </trkpt>
      <trkpt lat="48.1276" lon="7.31998">
        <ele>200.19999694824</ele>
        <time>2017-07-20T12:06:45Z</time>
      </trkpt>
      <trkpt lat="48.12751" lon="7.32038">
        <ele>200.19999694824</ele>
        <time>2017-07-20T12:06:49Z</time>
      </trkpt>
      <trkpt lat="48.12741" lon="7.32123">
        <ele>199.80000305176</ele>
        <time>2017-07-20T12:06:57Z</time>
      </trkpt>
      <trkpt lat="48.12735" lon="7.32177">
        <ele>199.39999389648</ele>
        <time>2017-07-20T12:07:02Z</time>
      </trkpt>
      <trkpt lat="48.12731" lon="7.32195">
        <ele>199.39999389648</ele>
        <time>2017-07-20T12:07:04Z</time>
      </trkpt>
      <trkpt lat="48.12728" lon="7.32205">
        <ele>199.39999389648</ele>
        <time>2017-07-20T12:07:07Z</time>
      </trkpt>
      <trkpt lat="48.12727" lon="7.32206">
        <ele>199.19999694824</ele>
        <time>2017-07-20T12:07:08Z</time>
      </trkpt>
      <trkpt lat="48.12726" lon="7.32211">
        <ele>198.80000305176</ele>
        <time>2017-07-20T12:07:37Z</time>
      </trkpt>
      <trkpt lat="48.12725" lon="7.32216">
        <ele>198.80000305176</ele>
        <time>2017-07-20T12:07:39Z</time>
      </trkpt>
      <trkpt lat="48.12723" lon="7.32219">
        <ele>198.80000305176</ele>
        <time>2017-07-20T12:07:40Z</time>
      </trkpt>
      <trkpt lat="48.12715" lon="7.32238">
        <ele>198.60000610352</ele>
        <time>2017-07-20T12:07:44Z</time>
      </trkpt>
      <trkpt lat="48.12713" lon="7.32243">
        <ele>198.60000610352</ele>
        <time>2017-07-20T12:07:45Z</time>
      </trkpt>
      <trkpt lat="48.12702" lon="7.3227">
        <ele>198.60000610352</ele>
        <time>2017-07-20T12:07:49Z</time>
      </trkpt>
      <trkpt lat="48.12699" lon="7.32277">
        <ele>198.39999389648</ele>
        <time>2017-07-20T12:07:50Z</time>
      </trkpt>
      <trkpt lat="48.12681" lon="7.32324">
        <ele>198.60000610352</ele>
        <time>2017-07-20T12:07:56Z</time>
      </trkpt>
      <trkpt lat="48.12674" lon="7.3234">
        <ele>198.39999389648</ele>
        <time>2017-07-20T12:07:58Z</time>
      </trkpt>
      <trkpt lat="48.12664" lon="7.32365">
        <ele>198.19999694824</ele>
        <time>2017-07-20T12:08:01Z</time>
      </trkpt>
      <trkpt lat="48.12651" lon="7.32398">
        <ele>198.19999694824</ele>
        <time>2017-07-20T12:08:05Z</time>
      </trkpt>
      <trkpt lat="48.12633" lon="7.32437">
        <ele>198</ele>
        <time>2017-07-20T12:08:10Z</time>
      </trkpt>
      <trkpt lat="48.12629" lon="7.32446">
        <ele>198</ele>
        <time>2017-07-20T12:08:11Z</time>
      </trkpt>
      <trkpt lat="48.12616" lon="7.3249">
        <ele>197.80000305176</ele>
        <time>2017-07-20T12:08:16Z</time>
      </trkpt>
      <trkpt lat="48.12608" lon="7.32528">
        <ele>197.60000610352</ele>
        <time>2017-07-20T12:08:20Z</time>
      </trkpt>
      <trkpt lat="48.12607" lon="7.32548">
        <ele>197.39999389648</ele>
        <time>2017-07-20T12:08:22Z</time>
      </trkpt>
      <trkpt lat="48.12602" lon="7.32587">
        <ele>197.19999694824</ele>
        <time>2017-07-20T12:08:26Z</time>
      </trkpt>
      <trkpt lat="48.126" lon="7.32617">
        <ele>197</ele>
        <time>2017-07-20T12:08:29Z</time>
      </trkpt>
      <trkpt lat="48.12592" lon="7.32676">
        <ele>196.60000610352</ele>
        <time>2017-07-20T12:08:35Z</time>
      </trkpt>
      <trkpt lat="48.12581" lon="7.32736">
        <ele>196.19999694824</ele>
        <time>2017-07-20T12:08:41Z</time>
      </trkpt>
      <trkpt lat="48.12576" lon="7.32767">
        <ele>195.80000305176</ele>
        <time>2017-07-20T12:08:44Z</time>
      </trkpt>
      <trkpt lat="48.12559" lon="7.32845">
        <ele>195.39999389648</ele>
        <time>2017-07-20T12:08:52Z</time>
      </trkpt>
      <trkpt lat="48.12543" lon="7.32879">
        <ele>195.39999389648</ele>
        <time>2017-07-20T12:08:57Z</time>
      </trkpt>
      <trkpt lat="48.12521" lon="7.32906">
        <ele>195.39999389648</ele>
        <time>2017-07-20T12:09:03Z</time>
      </trkpt>
      <trkpt lat="48.125" lon="7.32946">
        <ele>195.60000610352</ele>
        <time>2017-07-20T12:09:09Z</time>
      </trkpt>
      <trkpt lat="48.12478" lon="7.33016">
        <ele>195.39999389648</ele>
        <time>2017-07-20T12:09:17Z</time>
      </trkpt>
      <trkpt lat="48.12467" lon="7.3308">
        <ele>195.19999694824</ele>
        <time>2017-07-20T12:09:24Z</time>
      </trkpt>
      <trkpt lat="48.12461" lon="7.3311">
        <ele>195.19999694824</ele>
        <time>2017-07-20T12:09:27Z</time>
      </trkpt>
      <trkpt lat="48.12454" lon="7.33137">
        <ele>195.19999694824</ele>
        <time>2017-07-20T12:09:30Z</time>
      </trkpt>
      <trkpt lat="48.12452" lon="7.33147">
        <ele>195</ele>
        <time>2017-07-20T12:09:31Z</time>
      </trkpt>
      <trkpt lat="48.12434" lon="7.33222">
        <ele>194.80000305176</ele>
        <time>2017-07-20T12:09:39Z</time>
      </trkpt>
      <trkpt lat="48.12413" lon="7.33297">
        <ele>194.39999389648</ele>
        <time>2017-07-20T12:09:47Z</time>
      </trkpt>
      <trkpt lat="48.1241" lon="7.33306">
        <ele>194.19999694824</ele>
        <time>2017-07-20T12:09:48Z</time>
      </trkpt>
      <trkpt lat="48.12403" lon="7.33322">
        <ele>194.19999694824</ele>
        <time>2017-07-20T12:09:50Z</time>
      </trkpt>
      <trkpt lat="48.12393" lon="7.33335">
        <ele>194</ele>
        <time>2017-07-20T12:09:52Z</time>
      </trkpt>
      <trkpt lat="48.1238" lon="7.33343">
        <ele>194</ele>
        <time>2017-07-20T12:09:54Z</time>
      </trkpt>
      <trkpt lat="48.12367" lon="7.3335">
        <ele>193.80000305176</ele>
        <time>2017-07-20T12:09:56Z</time>
      </trkpt>
      <trkpt lat="48.12322" lon="7.33372">
        <ele>194.19999694824</ele>
        <time>2017-07-20T12:10:04Z</time>
      </trkpt>
      <trkpt lat="48.1229" lon="7.33391">
        <ele>194.80000305176</ele>
        <time>2017-07-20T12:10:11Z</time>
      </trkpt>
      <trkpt lat="48.12282" lon="7.33399">
        <ele>195</ele>
        <time>2017-07-20T12:10:13Z</time>
      </trkpt>
      <trkpt lat="48.12268" lon="7.33415">
        <ele>195</ele>
        <time>2017-07-20T12:10:16Z</time>
      </trkpt>
      <trkpt lat="48.12232" lon="7.33459">
        <ele>194.39999389648</ele>
        <time>2017-07-20T12:10:23Z</time>
      </trkpt>
      <trkpt lat="48.12197" lon="7.33505">
        <ele>193.80000305176</ele>
        <time>2017-07-20T12:10:30Z</time>
      </trkpt>
      <trkpt lat="48.12186" lon="7.33527">
        <ele>193.60000610352</ele>
        <time>2017-07-20T12:10:33Z</time>
      </trkpt>
      <trkpt lat="48.1218" lon="7.33542">
        <ele>193.39999389648</ele>
        <time>2017-07-20T12:10:35Z</time>
      </trkpt>
      <trkpt lat="48.12172" lon="7.33566">
        <ele>193.39999389648</ele>
        <time>2017-07-20T12:10:38Z</time>
      </trkpt>
      <trkpt lat="48.12168" lon="7.33583">
        <ele>193.39999389648</ele>
        <time>2017-07-20T12:10:40Z</time>
      </trkpt>
      <trkpt lat="48.12161" lon="7.33607">
        <ele>193</ele>
        <time>2017-07-20T12:10:43Z</time>
      </trkpt>
      <trkpt lat="48.12157" lon="7.33613">
        <ele>193</ele>
        <time>2017-07-20T12:10:44Z</time>
      </trkpt>
      <trkpt lat="48.12152" lon="7.33617">
        <ele>192.80000305176</ele>
        <time>2017-07-20T12:10:45Z</time>
      </trkpt>
      <trkpt lat="48.12135" lon="7.33614">
        <ele>192.60000610352</ele>
        <time>2017-07-20T12:10:48Z</time>
      </trkpt>
      <trkpt lat="48.12098" lon="7.33602">
        <ele>193.19999694824</ele>
        <time>2017-07-20T12:10:55Z</time>
      </trkpt>
      <trkpt lat="48.12056" lon="7.33589">
        <ele>193.80000305176</ele>
        <time>2017-07-20T12:11:03Z</time>
      </trkpt>
      <trkpt lat="48.12035" lon="7.33583">
        <ele>193.60000610352</ele>
        <time>2017-07-20T12:11:07Z</time>
      </trkpt>
      <trkpt lat="48.12024" lon="7.33582">
        <ele>193.60000610352</ele>
        <time>2017-07-20T12:11:09Z</time>
      </trkpt>
      <trkpt lat="48.12008" lon="7.33581">
        <ele>194</ele>
        <time>2017-07-20T12:11:12Z</time>
      </trkpt>
      <trkpt lat="48.11992" lon="7.33583">
        <ele>194.19999694824</ele>
        <time>2017-07-20T12:11:15Z</time>
      </trkpt>
      <trkpt lat="48.11958" lon="7.33595">
        <ele>194.19999694824</ele>
        <time>2017-07-20T12:11:21Z</time>
      </trkpt>
      <trkpt lat="48.1192" lon="7.33622">
        <ele>194.39999389648</ele>
        <time>2017-07-20T12:11:28Z</time>
      </trkpt>
      <trkpt lat="48.11874" lon="7.33645">
        <ele>194.60000610352</ele>
        <time>2017-07-20T12:11:36Z</time>
      </trkpt>
      <trkpt lat="48.11817" lon="7.33669">
        <ele>194.39999389648</ele>
        <time>2017-07-20T12:11:46Z</time>
      </trkpt>
      <trkpt lat="48.118" lon="7.33675">
        <ele>193.80000305176</ele>
        <time>2017-07-20T12:11:49Z</time>
      </trkpt>
      <trkpt lat="48.11782" lon="7.33674">
        <ele>193.60000610352</ele>
        <time>2017-07-20T12:11:52Z</time>
      </trkpt>
      <trkpt lat="48.11734" lon="7.33666">
        <ele>193.80000305176</ele>
        <time>2017-07-20T12:12:00Z</time>
      </trkpt>
      <trkpt lat="48.1169" lon="7.33652">
        <ele>193.80000305176</ele>
        <time>2017-07-20T12:12:08Z</time>
      </trkpt>
      <trkpt lat="48.11657" lon="7.33647">
        <ele>194</ele>
        <time>2017-07-20T12:12:15Z</time>
      </trkpt>
      <trkpt lat="48.11619" lon="7.33649">
        <ele>194.19999694824</ele>
        <time>2017-07-20T12:12:22Z</time>
      </trkpt>
      <trkpt lat="48.11569" lon="7.33657">
        <ele>194.19999694824</ele>
        <time>2017-07-20T12:12:31Z</time>
      </trkpt>
      <trkpt lat="48.1153" lon="7.33659">
        <ele>194</ele>
        <time>2017-07-20T12:12:38Z</time>
      </trkpt>
      <trkpt lat="48.11475" lon="7.33656">
        <ele>194.19999694824</ele>
        <time>2017-07-20T12:12:48Z</time>
      </trkpt>
      <trkpt lat="48.11442" lon="7.33661">
        <ele>194</ele>
        <time>2017-07-20T12:12:54Z</time>
      </trkpt>
      <trkpt lat="48.11436" lon="7.33663">
        <ele>194.19999694824</ele>
        <time>2017-07-20T12:12:55Z</time>
      </trkpt>
      <trkpt lat="48.11398" lon="7.33677">
        <ele>194.19999694824</ele>
        <time>2017-07-20T12:13:02Z</time>
      </trkpt>
      <trkpt lat="48.11381" lon="7.33682">
        <ele>194</ele>
        <time>2017-07-20T12:13:05Z</time>
      </trkpt>
      <trkpt lat="48.11372" lon="7.3369">
        <ele>194</ele>
        <time>2017-07-20T12:13:07Z</time>
      </trkpt>
      <trkpt lat="48.11361" lon="7.33707">
        <ele>194.39999389648</ele>
        <time>2017-07-20T12:13:10Z</time>
      </trkpt>
      <trkpt lat="48.11357" lon="7.33712">
        <ele>194.39999389648</ele>
        <time>2017-07-20T12:13:11Z</time>
      </trkpt>
      <trkpt lat="48.11354" lon="7.33717">
        <ele>194.39999389648</ele>
        <time>2017-07-20T12:13:12Z</time>
      </trkpt>
      <trkpt lat="48.11337" lon="7.33725">
        <ele>194.60000610352</ele>
        <time>2017-07-20T12:13:16Z</time>
      </trkpt>
      <trkpt lat="48.11333" lon="7.33725">
        <ele>194.60000610352</ele>
        <time>2017-07-20T12:13:17Z</time>
      </trkpt>
      <trkpt lat="48.11326" lon="7.33724">
        <ele>194.60000610352</ele>
        <time>2017-07-20T12:13:20Z</time>
      </trkpt>
      <trkpt lat="48.11323" lon="7.3372">
        <ele>194.39999389648</ele>
        <time>2017-07-20T12:13:22Z</time>
      </trkpt>
      <trkpt lat="48.11321" lon="7.33712">
        <ele>194.39999389648</ele>
        <time>2017-07-20T12:13:24Z</time>
      </trkpt>
      <trkpt lat="48.1131" lon="7.33694">
        <ele>194.39999389648</ele>
        <time>2017-07-20T12:13:29Z</time>
      </trkpt>
      <trkpt lat="48.11288" lon="7.33663">
        <ele>194.80000305176</ele>
        <time>2017-07-20T12:13:36Z</time>
      </trkpt>
      <trkpt lat="48.11263" lon="7.33633">
        <ele>194.80000305176</ele>
        <time>2017-07-20T12:13:43Z</time>
      </trkpt>
      <trkpt lat="48.11237" lon="7.33611">
        <ele>194.60000610352</ele>
        <time>2017-07-20T12:13:49Z</time>
      </trkpt>
      <trkpt lat="48.11204" lon="7.33586">
        <ele>195</ele>
        <time>2017-07-20T12:13:56Z</time>
      </trkpt>
      <trkpt lat="48.11199" lon="7.33583">
        <ele>195.19999694824</ele>
        <time>2017-07-20T12:13:57Z</time>
      </trkpt>
      <trkpt lat="48.11164" lon="7.33552">
        <ele>195.39999389648</ele>
        <time>2017-07-20T12:14:05Z</time>
      </trkpt>
      <trkpt lat="48.11128" lon="7.33526">
        <ele>195.60000610352</ele>
        <time>2017-07-20T12:14:13Z</time>
      </trkpt>
      <trkpt lat="48.11115" lon="7.33516">
        <ele>196</ele>
        <time>2017-07-20T12:14:16Z</time>
      </trkpt>
      <trkpt lat="48.11106" lon="7.33511">
        <ele>196</ele>
        <time>2017-07-20T12:14:18Z</time>
      </trkpt>
      <trkpt lat="48.11101" lon="7.33508">
        <ele>196.19999694824</ele>
        <time>2017-07-20T12:14:19Z</time>
      </trkpt>
      <trkpt lat="48.11069" lon="7.33484">
        <ele>196.19999694824</ele>
        <time>2017-07-20T12:14:27Z</time>
      </trkpt>
      <trkpt lat="48.11046" lon="7.33461">
        <ele>196</ele>
        <time>2017-07-20T12:14:33Z</time>
      </trkpt>
      <trkpt lat="48.11031" lon="7.33432">
        <ele>196.39999389648</ele>
        <time>2017-07-20T12:14:38Z</time>
      </trkpt>
      <trkpt lat="48.10996" lon="7.33382">
        <ele>196.80000305176</ele>
        <time>2017-07-20T12:14:47Z</time>
      </trkpt>
      <trkpt lat="48.10993" lon="7.33376">
        <ele>197</ele>
        <time>2017-07-20T12:14:48Z</time>
      </trkpt>
      <trkpt lat="48.10987" lon="7.33366">
        <ele>197.19999694824</ele>
        <time>2017-07-20T12:14:50Z</time>
      </trkpt>
      <trkpt lat="48.10984" lon="7.33362">
        <ele>197.19999694824</ele>
        <time>2017-07-20T12:14:51Z</time>
      </trkpt>
      <trkpt lat="48.1098" lon="7.33362">
        <ele>197.39999389648</ele>
        <time>2017-07-20T12:14:52Z</time>
      </trkpt>
      <trkpt lat="48.10976" lon="7.33375">
        <ele>197.60000610352</ele>
        <time>2017-07-20T12:14:55Z</time>
      </trkpt>
      <trkpt lat="48.10976" lon="7.33389">
        <ele>197.39999389648</ele>
        <time>2017-07-20T12:14:57Z</time>
      </trkpt>
      <trkpt lat="48.10975" lon="7.33419">
        <ele>197</ele>
        <time>2017-07-20T12:15:01Z</time>
      </trkpt>
      <trkpt lat="48.10969" lon="7.33476">
        <ele>197</ele>
        <time>2017-07-20T12:15:08Z</time>
      </trkpt>
      <trkpt lat="48.10968" lon="7.33484">
        <ele>197</ele>
        <time>2017-07-20T12:15:09Z</time>
      </trkpt>
      <trkpt lat="48.1096" lon="7.33494">
        <ele>197</ele>
        <time>2017-07-20T12:15:11Z</time>
      </trkpt>
      <trkpt lat="48.10942" lon="7.33492">
        <ele>197.19999694824</ele>
        <time>2017-07-20T12:15:14Z</time>
      </trkpt>
      <trkpt lat="48.10937" lon="7.33491">
        <ele>197.19999694824</ele>
        <time>2017-07-20T12:15:15Z</time>
      </trkpt>
      <trkpt lat="48.10907" lon="7.33484">
        <ele>197.19999694824</ele>
        <time>2017-07-20T12:15:20Z</time>
      </trkpt>
      <trkpt lat="48.10868" lon="7.33474">
        <ele>197.39999389648</ele>
        <time>2017-07-20T12:15:27Z</time>
      </trkpt>
      <trkpt lat="48.10828" lon="7.33463">
        <ele>197.60000610352</ele>
        <time>2017-07-20T12:15:35Z</time>
      </trkpt>
      <trkpt lat="48.10824" lon="7.33463">
        <ele>197.60000610352</ele>
        <time>2017-07-20T12:15:36Z</time>
      </trkpt>
      <trkpt lat="48.10816" lon="7.33471">
        <ele>197.60000610352</ele>
        <time>2017-07-20T12:15:38Z</time>
      </trkpt>
      <trkpt lat="48.10811" lon="7.33493">
        <ele>197.60000610352</ele>
        <time>2017-07-20T12:15:41Z</time>
      </trkpt>
      <trkpt lat="48.10796" lon="7.33509">
        <ele>197.60000610352</ele>
        <time>2017-07-20T12:15:44Z</time>
      </trkpt>
      <trkpt lat="48.1078" lon="7.33509">
        <ele>197.60000610352</ele>
        <time>2017-07-20T12:15:47Z</time>
      </trkpt>
      <trkpt lat="48.10742" lon="7.33503">
        <ele>197.80000305176</ele>
        <time>2017-07-20T12:15:54Z</time>
      </trkpt>
      <trkpt lat="48.10714" lon="7.33501">
        <ele>198.19999694824</ele>
        <time>2017-07-20T12:15:59Z</time>
      </trkpt>
      <trkpt lat="48.10697" lon="7.33497">
        <ele>198.39999389648</ele>
        <time>2017-07-20T12:16:02Z</time>
      </trkpt>
      <trkpt lat="48.10659" lon="7.33493">
        <ele>198.80000305176</ele>
        <time>2017-07-20T12:16:09Z</time>
      </trkpt>
      <trkpt lat="48.106" lon="7.33488">
        <ele>198.39999389648</ele>
        <time>2017-07-20T12:16:19Z</time>
      </trkpt>
      <trkpt lat="48.10568" lon="7.33486">
        <ele>198.19999694824</ele>
        <time>2017-07-20T12:16:25Z</time>
      </trkpt>
      <trkpt lat="48.10545" lon="7.3349">
        <ele>198.60000610352</ele>
        <time>2017-07-20T12:16:31Z</time>
      </trkpt>
      <trkpt lat="48.10523" lon="7.33508">
        <ele>198.80000305176</ele>
        <time>2017-07-20T12:16:37Z</time>
      </trkpt>
      <trkpt lat="48.10515" lon="7.33514">
        <ele>198.60000610352</ele>
        <time>2017-07-20T12:16:39Z</time>
      </trkpt>
      <trkpt lat="48.10506" lon="7.33522">
        <ele>198.60000610352</ele>
        <time>2017-07-20T12:16:41Z</time>
      </trkpt>
      <trkpt lat="48.10491" lon="7.33531">
        <ele>198.60000610352</ele>
        <time>2017-07-20T12:16:44Z</time>
      </trkpt>
      <trkpt lat="48.10477" lon="7.3354">
        <ele>198.39999389648</ele>
        <time>2017-07-20T12:16:47Z</time>
      </trkpt>
      <trkpt lat="48.10438" lon="7.33567">
        <ele>198.80000305176</ele>
        <time>2017-07-20T12:16:55Z</time>
      </trkpt>
      <trkpt lat="48.10405" lon="7.33601">
        <ele>198.80000305176</ele>
        <time>2017-07-20T12:17:02Z</time>
      </trkpt>
      <trkpt lat="48.10364" lon="7.33638">
        <ele>198.80000305176</ele>
        <time>2017-07-20T12:17:10Z</time>
      </trkpt>
      <trkpt lat="48.10328" lon="7.33672">
        <ele>199</ele>
        <time>2017-07-20T12:17:17Z</time>
      </trkpt>
      <trkpt lat="48.10312" lon="7.33684">
        <ele>199</ele>
        <time>2017-07-20T12:17:20Z</time>
      </trkpt>
      <trkpt lat="48.10295" lon="7.33694">
        <ele>199</ele>
        <time>2017-07-20T12:17:23Z</time>
      </trkpt>
      <trkpt lat="48.10284" lon="7.33701">
        <ele>198.80000305176</ele>
        <time>2017-07-20T12:17:25Z</time>
      </trkpt>
      <trkpt lat="48.10263" lon="7.33713">
        <ele>198.80000305176</ele>
        <time>2017-07-20T12:17:29Z</time>
      </trkpt>
      <trkpt lat="48.10223" lon="7.33728">
        <ele>199</ele>
        <time>2017-07-20T12:17:36Z</time>
      </trkpt>
      <trkpt lat="48.10177" lon="7.33733">
        <ele>199.19999694824</ele>
        <time>2017-07-20T12:17:44Z</time>
      </trkpt>
      <trkpt lat="48.10143" lon="7.3374">
        <ele>199.19999694824</ele>
        <time>2017-07-20T12:17:50Z</time>
      </trkpt>
      <trkpt lat="48.10133" lon="7.33745">
        <ele>199.19999694824</ele>
        <time>2017-07-20T12:17:52Z</time>
      </trkpt>
      <trkpt lat="48.10122" lon="7.33751">
        <ele>199</ele>
        <time>2017-07-20T12:17:54Z</time>
      </trkpt>
      <trkpt lat="48.10116" lon="7.33755">
        <ele>199</ele>
        <time>2017-07-20T12:17:55Z</time>
      </trkpt>
      <trkpt lat="48.10093" lon="7.33764">
        <ele>199</ele>
        <time>2017-07-20T12:17:59Z</time>
      </trkpt>
      <trkpt lat="48.10088" lon="7.33764">
        <ele>199</ele>
        <time>2017-07-20T12:18:00Z</time>
      </trkpt>
      <trkpt lat="48.10071" lon="7.33765">
        <ele>199</ele>
        <time>2017-07-20T12:18:03Z</time>
      </trkpt>
      <trkpt lat="48.1006" lon="7.33768">
        <ele>199.19999694824</ele>
        <time>2017-07-20T12:18:05Z</time>
      </trkpt>
      <trkpt lat="48.10049" lon="7.3377">
        <ele>199.39999389648</ele>
        <time>2017-07-20T12:18:07Z</time>
      </trkpt>
      <trkpt lat="48.10003" lon="7.33777">
        <ele>199.60000610352</ele>
        <time>2017-07-20T12:18:15Z</time>
      </trkpt>
      <trkpt lat="48.09944" lon="7.33786">
        <ele>199.19999694824</ele>
        <time>2017-07-20T12:18:25Z</time>
      </trkpt>
      <trkpt lat="48.09885" lon="7.33792">
        <ele>199</ele>
        <time>2017-07-20T12:18:35Z</time>
      </trkpt>
      <trkpt lat="48.0983" lon="7.33793">
        <ele>199.19999694824</ele>
        <time>2017-07-20T12:18:44Z</time>
      </trkpt>
      <trkpt lat="48.0979" lon="7.33797">
        <ele>199.19999694824</ele>
        <time>2017-07-20T12:18:51Z</time>
      </trkpt>
      <trkpt lat="48.09779" lon="7.33799">
        <ele>199.19999694824</ele>
        <time>2017-07-20T12:18:53Z</time>
      </trkpt>
      <trkpt lat="48.0976" lon="7.33801">
        <ele>199.19999694824</ele>
        <time>2017-07-20T12:18:57Z</time>
      </trkpt>
      <trkpt lat="48.09748" lon="7.33803">
        <ele>199.19999694824</ele>
        <time>2017-07-20T12:19:01Z</time>
      </trkpt>
      <trkpt lat="48.09734" lon="7.33805">
        <ele>199</ele>
        <time>2017-07-20T12:19:06Z</time>
      </trkpt>
      <trkpt lat="48.09716" lon="7.33805">
        <ele>199</ele>
        <time>2017-07-20T12:19:10Z</time>
      </trkpt>
      <trkpt lat="48.09686" lon="7.33806">
        <ele>199.19999694824</ele>
        <time>2017-07-20T12:19:16Z</time>
      </trkpt>
      <trkpt lat="48.09654" lon="7.33808">
        <ele>199.39999389648</ele>
        <time>2017-07-20T12:19:22Z</time>
      </trkpt>
      <trkpt lat="48.09637" lon="7.33809">
        <ele>199.60000610352</ele>
        <time>2017-07-20T12:19:25Z</time>
      </trkpt>
      <trkpt lat="48.09621" lon="7.33809">
        <ele>199.60000610352</ele>
        <time>2017-07-20T12:19:28Z</time>
      </trkpt>
      <trkpt lat="48.09584" lon="7.33813">
        <ele>199.39999389648</ele>
        <time>2017-07-20T12:19:35Z</time>
      </trkpt>
      <trkpt lat="48.09578" lon="7.33814">
        <ele>199.39999389648</ele>
        <time>2017-07-20T12:19:36Z</time>
      </trkpt>
      <trkpt lat="48.09551" lon="7.33827">
        <ele>199.39999389648</ele>
        <time>2017-07-20T12:19:41Z</time>
      </trkpt>
      <trkpt lat="48.09531" lon="7.33849">
        <ele>199.39999389648</ele>
        <time>2017-07-20T12:19:45Z</time>
      </trkpt>
      <trkpt lat="48.09498" lon="7.33893">
        <ele>199</ele>
        <time>2017-07-20T12:19:52Z</time>
      </trkpt>
      <trkpt lat="48.09461" lon="7.33932">
        <ele>198.80000305176</ele>
        <time>2017-07-20T12:19:59Z</time>
      </trkpt>
      <trkpt lat="48.0941" lon="7.33975">
        <ele>198.80000305176</ele>
        <time>2017-07-20T12:20:08Z</time>
      </trkpt>
      <trkpt lat="48.094" lon="7.33986">
        <ele>198.80000305176</ele>
        <time>2017-07-20T12:20:10Z</time>
      </trkpt>
      <trkpt lat="48.09395" lon="7.33992">
        <ele>198.80000305176</ele>
        <time>2017-07-20T12:20:11Z</time>
      </trkpt>
      <trkpt lat="48.09375" lon="7.34016">
        <ele>198.39999389648</ele>
        <time>2017-07-20T12:20:15Z</time>
      </trkpt>
      <trkpt lat="48.09363" lon="7.34037">
        <ele>198.39999389648</ele>
        <time>2017-07-20T12:20:18Z</time>
      </trkpt>
      <trkpt lat="48.09324" lon="7.34103">
        <ele>198.19999694824</ele>
        <time>2017-07-20T12:20:27Z</time>
      </trkpt>
      <trkpt lat="48.09295" lon="7.34138">
        <ele>198</ele>
        <time>2017-07-20T12:20:33Z</time>
      </trkpt>
      <trkpt lat="48.09266" lon="7.34167">
        <ele>198</ele>
        <time>2017-07-20T12:20:39Z</time>
      </trkpt>
      <trkpt lat="48.0924" lon="7.34194">
        <ele>198</ele>
        <time>2017-07-20T12:20:45Z</time>
      </trkpt>
      <trkpt lat="48.09239" lon="7.3421">
        <ele>198</ele>
        <time>2017-07-20T12:20:47Z</time>
      </trkpt>
      <trkpt lat="48.09239" lon="7.34246">
        <ele>197.80000305176</ele>
        <time>2017-07-20T12:20:52Z</time>
      </trkpt>
      <trkpt lat="48.09232" lon="7.34245">
        <ele>197.60000610352</ele>
        <time>2017-07-20T12:20:54Z</time>
      </trkpt>
      <trkpt lat="48.09213" lon="7.34241">
        <ele>197.60000610352</ele>
        <time>2017-07-20T12:20:58Z</time>
      </trkpt>
      <trkpt lat="48.0919" lon="7.34243">
        <ele>197</ele>
        <time>2017-07-20T12:21:02Z</time>
      </trkpt>
      <trkpt lat="48.09161" lon="7.3424">
        <ele>196.39999389648</ele>
        <time>2017-07-20T12:21:07Z</time>
      </trkpt>
      <trkpt lat="48.09156" lon="7.34243">
        <ele>196.19999694824</ele>
        <time>2017-07-20T12:21:08Z</time>
      </trkpt>
      <trkpt lat="48.09153" lon="7.34256">
        <ele>196</ele>
        <time>2017-07-20T12:21:10Z</time>
      </trkpt>
      <trkpt lat="48.09157" lon="7.34278">
        <ele>195.80000305176</ele>
        <time>2017-07-20T12:21:13Z</time>
      </trkpt>
      <trkpt lat="48.09155" lon="7.34292">
        <ele>195.80000305176</ele>
        <time>2017-07-20T12:21:15Z</time>
      </trkpt>
      <trkpt lat="48.09154" lon="7.343">
        <ele>196</ele>
        <time>2017-07-20T12:21:16Z</time>
      </trkpt>
      <trkpt lat="48.09155" lon="7.34308">
        <ele>196</ele>
        <time>2017-07-20T12:21:17Z</time>
      </trkpt>
      <trkpt lat="48.09154" lon="7.34334">
        <ele>196.39999389648</ele>
        <time>2017-07-20T12:21:20Z</time>
      </trkpt>
      <trkpt lat="48.09154" lon="7.34361">
        <ele>196.60000610352</ele>
        <time>2017-07-20T12:21:23Z</time>
      </trkpt>
      <trkpt lat="48.09155" lon="7.34427">
        <ele>196.60000610352</ele>
        <time>2017-07-20T12:21:30Z</time>
      </trkpt>
      <trkpt lat="48.09159" lon="7.34512">
        <ele>196.39999389648</ele>
        <time>2017-07-20T12:21:39Z</time>
      </trkpt>
      <trkpt lat="48.09165" lon="7.34598">
        <ele>196</ele>
        <time>2017-07-20T12:21:48Z</time>
      </trkpt>
      <trkpt lat="48.09174" lon="7.34664">
        <ele>195.80000305176</ele>
        <time>2017-07-20T12:21:55Z</time>
      </trkpt>
      <trkpt lat="48.0918" lon="7.34717">
        <ele>195.39999389648</ele>
        <time>2017-07-20T12:22:01Z</time>
      </trkpt>
      <trkpt lat="48.09184" lon="7.34743">
        <ele>195</ele>
        <time>2017-07-20T12:22:04Z</time>
      </trkpt>
      <trkpt lat="48.09187" lon="7.3476">
        <ele>195</ele>
        <time>2017-07-20T12:22:06Z</time>
      </trkpt>
      <trkpt lat="48.0919" lon="7.34777">
        <ele>194.80000305176</ele>
        <time>2017-07-20T12:22:08Z</time>
      </trkpt>
      <trkpt lat="48.09185" lon="7.34801">
        <ele>194.80000305176</ele>
        <time>2017-07-20T12:22:11Z</time>
      </trkpt>
      <trkpt lat="48.09184" lon="7.34815">
        <ele>194.80000305176</ele>
        <time>2017-07-20T12:22:14Z</time>
      </trkpt>
      <trkpt lat="48.09184" lon="7.34816">
        <ele>194.80000305176</ele>
        <time>2017-07-20T12:22:15Z</time>
      </trkpt>
      <trkpt lat="48.09183" lon="7.34819">
        <ele>194.39999389648</ele>
        <time>2017-07-20T12:22:56Z</time>
      </trkpt>
      <trkpt lat="48.09184" lon="7.34825">
        <ele>194.39999389648</ele>
        <time>2017-07-20T12:22:58Z</time>
      </trkpt>
      <trkpt lat="48.09185" lon="7.34832">
        <ele>194.39999389648</ele>
        <time>2017-07-20T12:23:00Z</time>
      </trkpt>
      <trkpt lat="48.09186" lon="7.34843">
        <ele>194.39999389648</ele>
        <time>2017-07-20T12:23:04Z</time>
      </trkpt>
      <trkpt lat="48.09189" lon="7.34851">
        <ele>194.39999389648</ele>
        <time>2017-07-20T12:23:07Z</time>
      </trkpt>
      <trkpt lat="48.0919" lon="7.34854">
        <ele>194.39999389648</ele>
        <time>2017-07-20T12:23:08Z</time>
      </trkpt>
      <trkpt lat="48.09192" lon="7.34861">
        <ele>194.39999389648</ele>
        <time>2017-07-20T12:23:10Z</time>
      </trkpt>
      <trkpt lat="48.09192" lon="7.34869">
        <ele>194.60000610352</ele>
        <time>2017-07-20T12:23:12Z</time>
      </trkpt>
      <trkpt lat="48.09196" lon="7.34875">
        <ele>194.60000610352</ele>
        <time>2017-07-20T12:23:14Z</time>
      </trkpt>
      <trkpt lat="48.09201" lon="7.34879">
        <ele>194.60000610352</ele>
        <time>2017-07-20T12:23:16Z</time>
      </trkpt>
      <trkpt lat="48.09207" lon="7.34883">
        <ele>194.80000305176</ele>
        <time>2017-07-20T12:23:18Z</time>
      </trkpt>
      <trkpt lat="48.09216" lon="7.34893">
        <ele>195</ele>
        <time>2017-07-20T12:23:22Z</time>
      </trkpt>
      <trkpt lat="48.09217" lon="7.34896">
        <ele>195</ele>
        <time>2017-07-20T12:23:23Z</time>
      </trkpt>
      <trkpt lat="48.09219" lon="7.349">
        <ele>195.19999694824</ele>
        <time>2017-07-20T12:23:25Z</time>
      </trkpt>
      <trkpt lat="48.0922" lon="7.34902">
        <ele>195.19999694824</ele>
        <time>2017-07-20T12:23:26Z</time>
      </trkpt>
      <trkpt lat="48.09224" lon="7.34914">
        <ele>195.39999389648</ele>
        <time>2017-07-20T12:23:30Z</time>
      </trkpt>
      <trkpt lat="48.09229" lon="7.34934">
        <ele>195.60000610352</ele>
        <time>2017-07-20T12:23:34Z</time>
      </trkpt>
      <trkpt lat="48.09231" lon="7.3494">
        <ele>195.80000305176</ele>
        <time>2017-07-20T12:23:35Z</time>
      </trkpt>
      <trkpt lat="48.09235" lon="7.34957">
        <ele>196</ele>
        <time>2017-07-20T12:23:38Z</time>
      </trkpt>
      <trkpt lat="48.0924" lon="7.34979">
        <ele>196.39999389648</ele>
        <time>2017-07-20T12:23:42Z</time>
      </trkpt>
      <trkpt lat="48.09245" lon="7.35007">
        <ele>197</ele>
        <time>2017-07-20T12:23:47Z</time>
      </trkpt>
      <trkpt lat="48.09248" lon="7.35023">
        <ele>197.39999389648</ele>
        <time>2017-07-20T12:23:50Z</time>
      </trkpt>
      <trkpt lat="48.09253" lon="7.3505">
        <ele>198</ele>
        <time>2017-07-20T12:23:55Z</time>
      </trkpt>
      <trkpt lat="48.09257" lon="7.35072">
        <ele>198.39999389648</ele>
        <time>2017-07-20T12:23:59Z</time>
      </trkpt>
      <trkpt lat="48.09262" lon="7.35098">
        <ele>199</ele>
        <time>2017-07-20T12:24:04Z</time>
      </trkpt>
      <trkpt lat="48.09266" lon="7.35121">
        <ele>199.19999694824</ele>
        <time>2017-07-20T12:24:08Z</time>
      </trkpt>
      <trkpt lat="48.09277" lon="7.35176">
        <ele>199.60000610352</ele>
        <time>2017-07-20T12:24:17Z</time>
      </trkpt>
      <trkpt lat="48.09282" lon="7.35207">
        <ele>199.39999389648</ele>
        <time>2017-07-20T12:24:21Z</time>
      </trkpt>
      <trkpt lat="48.09285" lon="7.3523">
        <ele>199.19999694824</ele>
        <time>2017-07-20T12:24:24Z</time>
      </trkpt>
      <trkpt lat="48.09291" lon="7.3529">
        <ele>198.80000305176</ele>
        <time>2017-07-20T12:24:31Z</time>
      </trkpt>
      <trkpt lat="48.09295" lon="7.35347">
        <ele>197.80000305176</ele>
        <time>2017-07-20T12:24:37Z</time>
      </trkpt>
      <trkpt lat="48.09297" lon="7.35367">
        <ele>197.39999389648</ele>
        <time>2017-07-20T12:24:39Z</time>
      </trkpt>
      <trkpt lat="48.093" lon="7.35398">
        <ele>196.80000305176</ele>
        <time>2017-07-20T12:24:42Z</time>
      </trkpt>
      <trkpt lat="48.09303" lon="7.35441">
        <ele>195.39999389648</ele>
        <time>2017-07-20T12:24:46Z</time>
      </trkpt>
      <trkpt lat="48.09304" lon="7.35452">
        <ele>195.19999694824</ele>
        <time>2017-07-20T12:24:47Z</time>
      </trkpt>
      <trkpt lat="48.09305" lon="7.35484">
        <ele>194.39999389648</ele>
        <time>2017-07-20T12:24:50Z</time>
      </trkpt>
      <trkpt lat="48.09305" lon="7.35495">
        <ele>194.19999694824</ele>
        <time>2017-07-20T12:24:51Z</time>
      </trkpt>
      <trkpt lat="48.09304" lon="7.35503">
        <ele>194</ele>
        <time>2017-07-20T12:24:52Z</time>
      </trkpt>
      <trkpt lat="48.09301" lon="7.35516">
        <ele>193.39999389648</ele>
        <time>2017-07-20T12:24:54Z</time>
      </trkpt>
      <trkpt lat="48.09301" lon="7.35519">
        <ele>193.39999389648</ele>
        <time>2017-07-20T12:24:55Z</time>
      </trkpt>
      <trkpt lat="48.09301" lon="7.35523">
        <ele>193.19999694824</ele>
        <time>2017-07-20T12:24:56Z</time>
      </trkpt>
      <trkpt lat="48.09294" lon="7.3554">
        <ele>192.19999694824</ele>
        <time>2017-07-20T12:25:00Z</time>
      </trkpt>
      <trkpt lat="48.09293" lon="7.35546">
        <ele>192</ele>
        <time>2017-07-20T12:25:01Z</time>
      </trkpt>
      <trkpt lat="48.09292" lon="7.35557">
        <ele>192</ele>
        <time>2017-07-20T12:25:03Z</time>
      </trkpt>
      <trkpt lat="48.0929" lon="7.35562">
        <ele>192</ele>
        <time>2017-07-20T12:25:04Z</time>
      </trkpt>
      <trkpt lat="48.09284" lon="7.35583">
        <ele>191.80000305176</ele>
        <time>2017-07-20T12:25:09Z</time>
      </trkpt>
      <trkpt lat="48.09283" lon="7.3559">
        <ele>190.80000305176</ele>
        <time>2017-07-20T12:25:46Z</time>
      </trkpt>
      <trkpt lat="48.0929" lon="7.35613">
        <ele>190.80000305176</ele>
        <time>2017-07-20T12:25:52Z</time>
      </trkpt>
      <trkpt lat="48.09296" lon="7.35623">
        <ele>190.60000610352</ele>
        <time>2017-07-20T12:25:55Z</time>
      </trkpt>
      <trkpt lat="48.093" lon="7.35624">
        <ele>190.60000610352</ele>
        <time>2017-07-20T12:25:56Z</time>
      </trkpt>
      <trkpt lat="48.09312" lon="7.35625">
        <ele>190.80000305176</ele>
        <time>2017-07-20T12:25:59Z</time>
      </trkpt>
      <trkpt lat="48.09315" lon="7.35629">
        <ele>190.80000305176</ele>
        <time>2017-07-20T12:26:00Z</time>
      </trkpt>
      <trkpt lat="48.09318" lon="7.35633">
        <ele>191</ele>
        <time>2017-07-20T12:26:01Z</time>
      </trkpt>
      <trkpt lat="48.09322" lon="7.35645">
        <ele>191</ele>
        <time>2017-07-20T12:26:03Z</time>
      </trkpt>
      <trkpt lat="48.09324" lon="7.3566">
        <ele>191</ele>
        <time>2017-07-20T12:26:05Z</time>
      </trkpt>
      <trkpt lat="48.09326" lon="7.35682">
        <ele>191</ele>
        <time>2017-07-20T12:26:08Z</time>
      </trkpt>
      <trkpt lat="48.09334" lon="7.35737">
        <ele>191</ele>
        <time>2017-07-20T12:26:15Z</time>
      </trkpt>
      <trkpt lat="48.09343" lon="7.35808">
        <ele>191.19999694824</ele>
        <time>2017-07-20T12:26:24Z</time>
      </trkpt>
      <trkpt lat="48.09353" lon="7.35873">
        <ele>191.19999694824</ele>
        <time>2017-07-20T12:26:32Z</time>
      </trkpt>
      <trkpt lat="48.09359" lon="7.35902">
        <ele>190.80000305176</ele>
        <time>2017-07-20T12:26:36Z</time>
      </trkpt>
      <trkpt lat="48.09364" lon="7.35924">
        <ele>190.60000610352</ele>
        <time>2017-07-20T12:26:39Z</time>
      </trkpt>
      <trkpt lat="48.09375" lon="7.35971">
        <ele>190.19999694824</ele>
        <time>2017-07-20T12:26:45Z</time>
      </trkpt>
      <trkpt lat="48.09377" lon="7.35979">
        <ele>190.19999694824</ele>
        <time>2017-07-20T12:26:46Z</time>
      </trkpt>
      <trkpt lat="48.09379" lon="7.35987">
        <ele>190.19999694824</ele>
        <time>2017-07-20T12:26:47Z</time>
      </trkpt>
      <trkpt lat="48.09388" lon="7.3602">
        <ele>190</ele>
        <time>2017-07-20T12:26:51Z</time>
      </trkpt>
      <trkpt lat="48.09394" lon="7.36044">
        <ele>190</ele>
        <time>2017-07-20T12:26:54Z</time>
      </trkpt>
      <trkpt lat="48.09392" lon="7.3606">
        <ele>190</ele>
        <time>2017-07-20T12:26:56Z</time>
      </trkpt>
      <trkpt lat="48.09386" lon="7.3608">
        <ele>189.60000610352</ele>
        <time>2017-07-20T12:26:59Z</time>
      </trkpt>
      <trkpt lat="48.09384" lon="7.36083">
        <ele>189.60000610352</ele>
        <time>2017-07-20T12:27:00Z</time>
      </trkpt>
      <trkpt lat="48.09381" lon="7.36082">
        <ele>189.60000610352</ele>
        <time>2017-07-20T12:27:01Z</time>
      </trkpt>
      <trkpt lat="48.09379" lon="7.36074">
        <ele>189.60000610352</ele>
        <time>2017-07-20T12:27:03Z</time>
      </trkpt>
      <trkpt lat="48.09368" lon="7.36068">
        <ele>189.60000610352</ele>
        <time>2017-07-20T12:27:06Z</time>
      </trkpt>
      <trkpt lat="48.09358" lon="7.36066">
        <ele>189.39999389648</ele>
        <time>2017-07-20T12:27:08Z</time>
      </trkpt>
      <trkpt lat="48.09337" lon="7.36061">
        <ele>189.39999389648</ele>
        <time>2017-07-20T12:27:12Z</time>
      </trkpt>
      <trkpt lat="48.09287" lon="7.36052">
        <ele>189.80000305176</ele>
        <time>2017-07-20T12:27:21Z</time>
      </trkpt>
      <trkpt lat="48.09245" lon="7.36044">
        <ele>189.80000305176</ele>
        <time>2017-07-20T12:27:29Z</time>
      </trkpt>
      <trkpt lat="48.09202" lon="7.36035">
        <ele>189.80000305176</ele>
        <time>2017-07-20T12:27:37Z</time>
      </trkpt>
      <trkpt lat="48.09167" lon="7.36028">
        <ele>189.80000305176</ele>
        <time>2017-07-20T12:27:44Z</time>
      </trkpt>
      <trkpt lat="48.09118" lon="7.36021">
        <ele>189.60000610352</ele>
        <time>2017-07-20T12:27:53Z</time>
      </trkpt>
      <trkpt lat="48.0907" lon="7.36013">
        <ele>189.80000305176</ele>
        <time>2017-07-20T12:28:02Z</time>
      </trkpt>
      <trkpt lat="48.09014" lon="7.36003">
        <ele>190</ele>
        <time>2017-07-20T12:28:12Z</time>
      </trkpt>
      <trkpt lat="48.0897" lon="7.35993">
        <ele>190.19999694824</ele>
        <time>2017-07-20T12:28:20Z</time>
      </trkpt>
      <trkpt lat="48.08927" lon="7.35985">
        <ele>190</ele>
        <time>2017-07-20T12:28:28Z</time>
      </trkpt>
      <trkpt lat="48.08894" lon="7.35979">
        <ele>190.19999694824</ele>
        <time>2017-07-20T12:28:35Z</time>
      </trkpt>
      <trkpt lat="48.08882" lon="7.35976">
        <ele>190.19999694824</ele>
        <time>2017-07-20T12:28:38Z</time>
      </trkpt>
      <trkpt lat="48.08879" lon="7.35973">
        <ele>190.19999694824</ele>
        <time>2017-07-20T12:28:39Z</time>
      </trkpt>
      <trkpt lat="48.08873" lon="7.35972">
        <ele>190.19999694824</ele>
        <time>2017-07-20T12:28:42Z</time>
      </trkpt>
      <trkpt lat="48.08867" lon="7.35971">
        <ele>190</ele>
        <time>2017-07-20T12:28:48Z</time>
      </trkpt>
      <trkpt lat="48.08866" lon="7.35971">
        <ele>190</ele>
        <time>2017-07-20T12:28:49Z</time>
      </trkpt>
      <trkpt lat="48.08864" lon="7.35971">
        <ele>189.80000305176</ele>
        <time>2017-07-20T12:29:11Z</time>
      </trkpt>
      <trkpt lat="48.08862" lon="7.35969">
        <ele>190</ele>
        <time>2017-07-20T12:29:12Z</time>
      </trkpt>
      <trkpt lat="48.08844" lon="7.35969">
        <ele>190</ele>
        <time>2017-07-20T12:29:17Z</time>
      </trkpt>
      <trkpt lat="48.08835" lon="7.35972">
        <ele>190</ele>
        <time>2017-07-20T12:29:19Z</time>
      </trkpt>
      <trkpt lat="48.08822" lon="7.35976">
        <ele>190.19999694824</ele>
        <time>2017-07-20T12:29:22Z</time>
      </trkpt>
      <trkpt lat="48.08792" lon="7.35992">
        <ele>190.19999694824</ele>
        <time>2017-07-20T12:29:28Z</time>
      </trkpt>
      <trkpt lat="48.08767" lon="7.36006">
        <ele>190</ele>
        <time>2017-07-20T12:29:33Z</time>
      </trkpt>
      <trkpt lat="48.08757" lon="7.36013">
        <ele>190</ele>
        <time>2017-07-20T12:29:35Z</time>
      </trkpt>
      <trkpt lat="48.08752" lon="7.36016">
        <ele>190</ele>
        <time>2017-07-20T12:29:36Z</time>
      </trkpt>
      <trkpt lat="48.0872" lon="7.36033">
        <ele>189.80000305176</ele>
        <time>2017-07-20T12:29:42Z</time>
      </trkpt>
      <trkpt lat="48.08685" lon="7.36056">
        <ele>190.19999694824</ele>
        <time>2017-07-20T12:29:49Z</time>
      </trkpt>
      <trkpt lat="48.0865" lon="7.36077">
        <ele>190.60000610352</ele>
        <time>2017-07-20T12:29:56Z</time>
      </trkpt>
      <trkpt lat="48.0863" lon="7.36089">
        <ele>190.60000610352</ele>
        <time>2017-07-20T12:30:00Z</time>
      </trkpt>
      <trkpt lat="48.08614" lon="7.36096">
        <ele>191</ele>
        <time>2017-07-20T12:30:04Z</time>
      </trkpt>
      <trkpt lat="48.08594" lon="7.36109">
        <ele>191</ele>
        <time>2017-07-20T12:30:09Z</time>
      </trkpt>
      <trkpt lat="48.08585" lon="7.36115">
        <ele>191.19999694824</ele>
        <time>2017-07-20T12:30:11Z</time>
      </trkpt>
      <trkpt lat="48.08565" lon="7.36123">
        <ele>191.39999389648</ele>
        <time>2017-07-20T12:30:15Z</time>
      </trkpt>
      <trkpt lat="48.08537" lon="7.3614">
        <ele>191.60000610352</ele>
        <time>2017-07-20T12:30:21Z</time>
      </trkpt>
      <trkpt lat="48.08497" lon="7.36163">
        <ele>191.39999389648</ele>
        <time>2017-07-20T12:30:31Z</time>
      </trkpt>
      <trkpt lat="48.08486" lon="7.3617">
        <ele>191.19999694824</ele>
        <time>2017-07-20T12:30:36Z</time>
      </trkpt>
      <trkpt lat="48.08481" lon="7.36172">
        <ele>191</ele>
        <time>2017-07-20T12:30:59Z</time>
      </trkpt>
      <trkpt lat="48.08468" lon="7.36178">
        <ele>191</ele>
        <time>2017-07-20T12:31:03Z</time>
      </trkpt>
      <trkpt lat="48.08449" lon="7.3619">
        <ele>191.19999694824</ele>
        <time>2017-07-20T12:31:07Z</time>
      </trkpt>
      <trkpt lat="48.08444" lon="7.36194">
        <ele>191.19999694824</ele>
        <time>2017-07-20T12:31:08Z</time>
      </trkpt>
      <trkpt lat="48.08409" lon="7.36216">
        <ele>191.19999694824</ele>
        <time>2017-07-20T12:31:15Z</time>
      </trkpt>
      <trkpt lat="48.08357" lon="7.36247">
        <ele>191.19999694824</ele>
        <time>2017-07-20T12:31:25Z</time>
      </trkpt>
      <trkpt lat="48.08309" lon="7.36278">
        <ele>191</ele>
        <time>2017-07-20T12:31:34Z</time>
      </trkpt>
      <trkpt lat="48.08266" lon="7.36305">
        <ele>190.80000305176</ele>
        <time>2017-07-20T12:31:42Z</time>
      </trkpt>
      <trkpt lat="48.08239" lon="7.36322">
        <ele>190.60000610352</ele>
        <time>2017-07-20T12:31:47Z</time>
      </trkpt>
      <trkpt lat="48.08224" lon="7.36331">
        <ele>190.60000610352</ele>
        <time>2017-07-20T12:31:50Z</time>
      </trkpt>
      <trkpt lat="48.08172" lon="7.36355">
        <ele>190.39999389648</ele>
        <time>2017-07-20T12:32:00Z</time>
      </trkpt>
      <trkpt lat="48.08149" lon="7.36367">
        <ele>190.39999389648</ele>
        <time>2017-07-20T12:32:07Z</time>
      </trkpt>
      <trkpt lat="48.08148" lon="7.36369">
        <ele>190.19999694824</ele>
        <time>2017-07-20T12:32:48Z</time>
      </trkpt>
      <trkpt lat="48.0814" lon="7.36377">
        <ele>190.19999694824</ele>
        <time>2017-07-20T12:32:52Z</time>
      </trkpt>
      <trkpt lat="48.08137" lon="7.36379">
        <ele>190.19999694824</ele>
        <time>2017-07-20T12:32:53Z</time>
      </trkpt>
      <trkpt lat="48.08115" lon="7.36398">
        <ele>190.60000610352</ele>
        <time>2017-07-20T12:32:59Z</time>
      </trkpt>
      <trkpt lat="48.08101" lon="7.36408">
        <ele>190.60000610352</ele>
        <time>2017-07-20T12:33:02Z</time>
      </trkpt>
      <trkpt lat="48.08087" lon="7.3642">
        <ele>190.80000305176</ele>
        <time>2017-07-20T12:33:05Z</time>
      </trkpt>
      <trkpt lat="48.08061" lon="7.36432">
        <ele>191</ele>
        <time>2017-07-20T12:33:10Z</time>
      </trkpt>
      <trkpt lat="48.08056" lon="7.36434">
        <ele>191</ele>
        <time>2017-07-20T12:33:11Z</time>
      </trkpt>
      <trkpt lat="48.0803" lon="7.36445">
        <ele>191.19999694824</ele>
        <time>2017-07-20T12:33:18Z</time>
      </trkpt>
      <trkpt lat="48.08025" lon="7.36447">
        <ele>191</ele>
        <time>2017-07-20T12:33:26Z</time>
      </trkpt>
      <trkpt lat="48.0801" lon="7.36452">
        <ele>190.80000305176</ele>
        <time>2017-07-20T12:33:30Z</time>
      </trkpt>
      <trkpt lat="48.07973" lon="7.36465">
        <ele>191</ele>
        <time>2017-07-20T12:33:38Z</time>
      </trkpt>
      <trkpt lat="48.07951" lon="7.36472">
        <ele>190.80000305176</ele>
        <time>2017-07-20T12:33:43Z</time>
      </trkpt>
      <trkpt lat="48.07944" lon="7.36474">
        <ele>190.80000305176</ele>
        <time>2017-07-20T12:33:45Z</time>
      </trkpt>
      <trkpt lat="48.07938" lon="7.36476">
        <ele>190.60000610352</ele>
        <time>2017-07-20T12:33:49Z</time>
      </trkpt>
      <trkpt lat="48.07934" lon="7.36474">
        <ele>189.39999389648</ele>
        <time>2017-07-20T12:34:07Z</time>
      </trkpt>
      <trkpt lat="48.07928" lon="7.36458">
        <ele>189.60000610352</ele>
        <time>2017-07-20T12:34:12Z</time>
      </trkpt>
      <trkpt lat="48.07919" lon="7.36432">
        <ele>189.39999389648</ele>
        <time>2017-07-20T12:34:17Z</time>
      </trkpt>
      <trkpt lat="48.07917" lon="7.36427">
        <ele>189.39999389648</ele>
        <time>2017-07-20T12:34:18Z</time>
      </trkpt>
      <trkpt lat="48.07915" lon="7.36413">
        <ele>189.39999389648</ele>
        <time>2017-07-20T12:34:20Z</time>
      </trkpt>
      <trkpt lat="48.07919" lon="7.3639">
        <ele>190</ele>
        <time>2017-07-20T12:34:23Z</time>
      </trkpt>
      <trkpt lat="48.07923" lon="7.36378">
        <ele>190.19999694824</ele>
        <time>2017-07-20T12:34:25Z</time>
      </trkpt>
      <trkpt lat="48.07932" lon="7.36348">
        <ele>190.19999694824</ele>
        <time>2017-07-20T12:34:30Z</time>
      </trkpt>
      <trkpt lat="48.07936" lon="7.36331">
        <ele>190.60000610352</ele>
        <time>2017-07-20T12:34:33Z</time>
      </trkpt>
      <trkpt lat="48.07941" lon="7.36316">
        <ele>190.60000610352</ele>
        <time>2017-07-20T12:34:36Z</time>
      </trkpt>
      <trkpt lat="48.07945" lon="7.363">
        <ele>190.80000305176</ele>
        <time>2017-07-20T12:34:41Z</time>
      </trkpt>
      <trkpt lat="48.07945" lon="7.36293">
        <ele>190.80000305176</ele>
        <time>2017-07-20T12:34:47Z</time>
      </trkpt>
      <trkpt lat="48.07946" lon="7.36289">
        <ele>190.60000610352</ele>
        <time>2017-07-20T12:35:01Z</time>
      </trkpt>
      <trkpt lat="48.07949" lon="7.36282">
        <ele>190.60000610352</ele>
        <time>2017-07-20T12:35:03Z</time>
      </trkpt>
      <trkpt lat="48.07961" lon="7.36254">
        <ele>190.80000305176</ele>
        <time>2017-07-20T12:35:09Z</time>
      </trkpt>
      <trkpt lat="48.07979" lon="7.36217">
        <ele>191.19999694824</ele>
        <time>2017-07-20T12:35:16Z</time>
      </trkpt>
      <trkpt lat="48.07993" lon="7.3618">
        <ele>191</ele>
        <time>2017-07-20T12:35:24Z</time>
      </trkpt>
      <trkpt lat="48.08004" lon="7.36154">
        <ele>190.80000305176</ele>
        <time>2017-07-20T12:35:30Z</time>
      </trkpt>
      <trkpt lat="48.08008" lon="7.36142">
        <ele>190.80000305176</ele>
        <time>2017-07-20T12:35:32Z</time>
      </trkpt>
      <trkpt lat="48.08012" lon="7.3612">
        <ele>191</ele>
        <time>2017-07-20T12:35:35Z</time>
      </trkpt>
      <trkpt lat="48.08014" lon="7.36113">
        <ele>191</ele>
        <time>2017-07-20T12:35:36Z</time>
      </trkpt>
      <trkpt lat="48.08017" lon="7.36107">
        <ele>191</ele>
        <time>2017-07-20T12:35:37Z</time>
      </trkpt>
      <trkpt lat="48.08025" lon="7.36085">
        <ele>191.19999694824</ele>
        <time>2017-07-20T12:35:41Z</time>
      </trkpt>
      <trkpt lat="48.08028" lon="7.36073">
        <ele>191.19999694824</ele>
        <time>2017-07-20T12:35:44Z</time>
      </trkpt>
      <trkpt lat="48.08026" lon="7.36071">
        <ele>191.39999389648</ele>
        <time>2017-07-20T12:35:45Z</time>
      </trkpt>
      <trkpt lat="48.08021" lon="7.36063">
        <ele>191.39999389648</ele>
        <time>2017-07-20T12:35:48Z</time>
      </trkpt>
      <trkpt lat="48.08015" lon="7.36059">
        <ele>191.39999389648</ele>
        <time>2017-07-20T12:35:50Z</time>
      </trkpt>
      <trkpt lat="48.08006" lon="7.36051">
        <ele>191.39999389648</ele>
        <time>2017-07-20T12:35:55Z</time>
      </trkpt>
      <trkpt lat="48.07996" lon="7.36038">
        <ele>191.39999389648</ele>
        <time>2017-07-20T12:35:59Z</time>
      </trkpt>
      <trkpt lat="48.07992" lon="7.36035">
        <ele>191.39999389648</ele>
        <time>2017-07-20T12:36:00Z</time>
      </trkpt>
      <trkpt lat="48.07979" lon="7.36025">
        <ele>191.60000610352</ele>
        <time>2017-07-20T12:36:03Z</time>
      </trkpt>
      <trkpt lat="48.07975" lon="7.36022">
        <ele>191.60000610352</ele>
        <time>2017-07-20T12:36:04Z</time>
      </trkpt>
      <trkpt lat="48.07944" lon="7.36003">
        <ele>192.19999694824</ele>
        <time>2017-07-20T12:36:11Z</time>
      </trkpt>
      <trkpt lat="48.07917" lon="7.35983">
        <ele>192.39999389648</ele>
        <time>2017-07-20T12:36:18Z</time>
      </trkpt>
      <trkpt lat="48.07898" lon="7.3597">
        <ele>192.60000610352</ele>
        <time>2017-07-20T12:36:23Z</time>
      </trkpt>
      <trkpt lat="48.07885" lon="7.35957">
        <ele>192.60000610352</ele>
        <time>2017-07-20T12:36:27Z</time>
      </trkpt>
      <trkpt lat="48.07876" lon="7.35947">
        <ele>192.39999389648</ele>
        <time>2017-07-20T12:36:30Z</time>
      </trkpt>
      <trkpt lat="48.07867" lon="7.35939">
        <ele>192.19999694824</ele>
        <time>2017-07-20T12:36:35Z</time>
      </trkpt>
      <trkpt lat="48.07856" lon="7.35934">
        <ele>192.19999694824</ele>
        <time>2017-07-20T12:36:41Z</time>
      </trkpt>
      <trkpt lat="48.07837" lon="7.3592">
        <ele>192.39999389648</ele>
        <time>2017-07-20T12:36:47Z</time>
      </trkpt>
      <trkpt lat="48.07815" lon="7.35896">
        <ele>192.19999694824</ele>
        <time>2017-07-20T12:36:54Z</time>
      </trkpt>
      <trkpt lat="48.07785" lon="7.35876">
        <ele>192.39999389648</ele>
        <time>2017-07-20T12:37:02Z</time>
      </trkpt>
      <trkpt lat="48.07771" lon="7.35868">
        <ele>192.60000610352</ele>
        <time>2017-07-20T12:37:06Z</time>
      </trkpt>
      <trkpt lat="48.07765" lon="7.35865">
        <ele>193</ele>
        <time>2017-07-20T12:37:08Z</time>
      </trkpt>
      <trkpt lat="48.07749" lon="7.35861">
        <ele>193.19999694824</ele>
        <time>2017-07-20T12:37:15Z</time>
      </trkpt>
      <trkpt lat="48.07738" lon="7.35875">
        <ele>193.60000610352</ele>
        <time>2017-07-20T12:37:20Z</time>
      </trkpt>
      <trkpt lat="48.07733" lon="7.35881">
        <ele>193.80000305176</ele>
        <time>2017-07-20T12:37:23Z</time>
      </trkpt>
      <trkpt lat="48.07728" lon="7.35885">
        <ele>194</ele>
        <time>2017-07-20T12:37:25Z</time>
      </trkpt>
      <trkpt lat="48.07715" lon="7.35885">
        <ele>194</ele>
        <time>2017-07-20T12:37:31Z</time>
      </trkpt>
      <trkpt lat="48.07709" lon="7.35881">
        <ele>193.80000305176</ele>
        <time>2017-07-20T12:37:35Z</time>
      </trkpt>
      <trkpt lat="48.07708" lon="7.35881">
        <ele>193.80000305176</ele>
        <time>2017-07-20T12:37:36Z</time>
      </trkpt>
      <trkpt lat="48.07703" lon="7.35884">
        <ele>193.60000610352</ele>
        <time>2017-07-20T12:37:39Z</time>
      </trkpt>
      <trkpt lat="48.07701" lon="7.35887">
        <ele>193.60000610352</ele>
        <time>2017-07-20T12:37:41Z</time>
      </trkpt>
      <trkpt lat="48.07689" lon="7.35899">
        <ele>193.39999389648</ele>
        <time>2017-07-20T12:37:46Z</time>
      </trkpt>
      <trkpt lat="48.07673" lon="7.3592">
        <ele>193</ele>
        <time>2017-07-20T12:37:52Z</time>
      </trkpt>
      <trkpt lat="48.07663" lon="7.35931">
        <ele>192.80000305176</ele>
        <time>2017-07-20T12:37:55Z</time>
      </trkpt>
      <trkpt lat="48.07653" lon="7.35947">
        <ele>192.19999694824</ele>
        <time>2017-07-20T12:38:00Z</time>
      </trkpt>
      <trkpt lat="48.07651" lon="7.35948">
        <ele>192</ele>
        <time>2017-07-20T12:38:01Z</time>
      </trkpt>
      <trkpt lat="48.07649" lon="7.35949">
        <ele>191.80000305176</ele>
        <time>2017-07-20T12:38:03Z</time>
      </trkpt>
      <trkpt lat="48.07645" lon="7.35947">
        <ele>191.60000610352</ele>
        <time>2017-07-20T12:38:05Z</time>
      </trkpt>
      <trkpt lat="48.07632" lon="7.35937">
        <ele>191.39999389648</ele>
        <time>2017-07-20T12:38:11Z</time>
      </trkpt>
      <trkpt lat="48.07623" lon="7.35937">
        <ele>191</ele>
        <time>2017-07-20T12:38:16Z</time>
      </trkpt>
      <trkpt lat="48.07614" lon="7.35941">
        <ele>190.80000305176</ele>
        <time>2017-07-20T12:38:22Z</time>
      </trkpt>
      <trkpt lat="48.07612" lon="7.35941">
        <ele>190.80000305176</ele>
        <time>2017-07-20T12:38:24Z</time>
      </trkpt>
      <trkpt lat="48.0761" lon="7.35941">
        <ele>190.60000610352</ele>
        <time>2017-07-20T12:38:25Z</time>
      </trkpt>
      <trkpt lat="48.07605" lon="7.35939">
        <ele>190.80000305176</ele>
        <time>2017-07-20T12:40:18Z</time>
      </trkpt>
      <trkpt lat="48.07604" lon="7.35941">
        <ele>190.80000305176</ele>
        <time>2017-07-20T12:40:19Z</time>
      </trkpt>
      <trkpt lat="48.076" lon="7.35939">
        <ele>190.80000305176</ele>
        <time>2017-07-20T12:40:23Z</time>
      </trkpt>
      <trkpt lat="48.07597" lon="7.35937">
        <ele>190.80000305176</ele>
        <time>2017-07-20T12:40:25Z</time>
      </trkpt>
      <trkpt lat="48.07588" lon="7.35935">
        <ele>190.60000610352</ele>
        <time>2017-07-20T12:40:30Z</time>
      </trkpt>
      <trkpt lat="48.07586" lon="7.35936">
        <ele>190.39999389648</ele>
        <time>2017-07-20T12:40:31Z</time>
      </trkpt>
      <trkpt lat="48.07578" lon="7.35939">
        <ele>190.19999694824</ele>
        <time>2017-07-20T12:40:37Z</time>
      </trkpt>
      <trkpt lat="48.07575" lon="7.35933">
        <ele>190.19999694824</ele>
        <time>2017-07-20T12:40:41Z</time>
      </trkpt>
      <trkpt lat="48.07568" lon="7.35922">
        <ele>190.19999694824</ele>
        <time>2017-07-20T12:40:47Z</time>
      </trkpt>
      <trkpt lat="48.07564" lon="7.35916">
        <ele>190</ele>
        <time>2017-07-20T12:40:51Z</time>
      </trkpt>
      <trkpt lat="48.07563" lon="7.35917">
        <ele>190</ele>
        <time>2017-07-20T12:40:52Z</time>
      </trkpt>
      <trkpt lat="48.0756" lon="7.35922">
        <ele>190</ele>
        <time>2017-07-20T12:40:55Z</time>
      </trkpt>
      <trkpt lat="48.07557" lon="7.35927">
        <ele>190</ele>
        <time>2017-07-20T12:40:58Z</time>
      </trkpt>
      <trkpt lat="48.07546" lon="7.35941">
        <ele>190</ele>
        <time>2017-07-20T12:41:05Z</time>
      </trkpt>
      <trkpt lat="48.07537" lon="7.35951">
        <ele>190</ele>
        <time>2017-07-20T12:41:11Z</time>
      </trkpt>
      <trkpt lat="48.07529" lon="7.35959">
        <ele>190</ele>
        <time>2017-07-20T12:41:16Z</time>
      </trkpt>
      <trkpt lat="48.07519" lon="7.35969">
        <ele>189.60000610352</ele>
        <time>2017-07-20T12:41:22Z</time>
      </trkpt>
      <trkpt lat="48.07518" lon="7.35972">
        <ele>189.60000610352</ele>
        <time>2017-07-20T12:41:23Z</time>
      </trkpt>
      <trkpt lat="48.07506" lon="7.35984">
        <ele>189.60000610352</ele>
        <time>2017-07-20T12:41:30Z</time>
      </trkpt>
      <trkpt lat="48.07504" lon="7.35985">
        <ele>189.60000610352</ele>
        <time>2017-07-20T12:41:31Z</time>
      </trkpt>
      <trkpt lat="48.07498" lon="7.35992">
        <ele>189.60000610352</ele>
        <time>2017-07-20T12:41:35Z</time>
      </trkpt>
      <trkpt lat="48.07487" lon="7.36006">
        <ele>189.80000305176</ele>
        <time>2017-07-20T12:41:41Z</time>
      </trkpt>
      <trkpt lat="48.07484" lon="7.36012">
        <ele>189.60000610352</ele>
        <time>2017-07-20T12:41:44Z</time>
      </trkpt>
      <trkpt lat="48.07477" lon="7.36021">
        <ele>190</ele>
        <time>2017-07-20T12:42:06Z</time>
      </trkpt>
      <trkpt lat="48.07473" lon="7.36026">
        <ele>190</ele>
        <time>2017-07-20T12:42:09Z</time>
      </trkpt>
      <trkpt lat="48.07466" lon="7.36033">
        <ele>190.39999389648</ele>
        <time>2017-07-20T12:42:14Z</time>
      </trkpt>
      <trkpt lat="48.07463" lon="7.36033">
        <ele>190.39999389648</ele>
        <time>2017-07-20T12:42:17Z</time>
      </trkpt>
      <trkpt lat="48.07458" lon="7.36037">
        <ele>190.60000610352</ele>
        <time>2017-07-20T12:43:09Z</time>
      </trkpt>
      <trkpt lat="48.07457" lon="7.36037">
        <ele>190.60000610352</ele>
        <time>2017-07-20T12:43:10Z</time>
      </trkpt>
      <trkpt lat="48.07452" lon="7.36031">
        <ele>190.60000610352</ele>
        <time>2017-07-20T12:43:13Z</time>
      </trkpt>
      <trkpt lat="48.0745" lon="7.36025">
        <ele>190.39999389648</ele>
        <time>2017-07-20T12:43:15Z</time>
      </trkpt>
      <trkpt lat="48.07446" lon="7.36017">
        <ele>190.19999694824</ele>
        <time>2017-07-20T12:43:18Z</time>
      </trkpt>
      <trkpt lat="48.07435" lon="7.35999">
        <ele>190.39999389648</ele>
        <time>2017-07-20T12:43:25Z</time>
      </trkpt>
      <trkpt lat="48.07431" lon="7.35987">
        <ele>190.39999389648</ele>
        <time>2017-07-20T12:43:30Z</time>
      </trkpt>
      <trkpt lat="48.07428" lon="7.35983">
        <ele>190.80000305176</ele>
        <time>2017-07-20T12:43:53Z</time>
      </trkpt>
      <trkpt lat="48.07427" lon="7.3598">
        <ele>190.80000305176</ele>
        <time>2017-07-20T12:43:55Z</time>
      </trkpt>
      <trkpt lat="48.07426" lon="7.35978">
        <ele>190.80000305176</ele>
        <time>2017-07-20T12:43:56Z</time>
      </trkpt>
      <trkpt lat="48.07421" lon="7.35963">
        <ele>190.60000610352</ele>
        <time>2017-07-20T12:44:02Z</time>
      </trkpt>
      <trkpt lat="48.07415" lon="7.35951">
        <ele>190</ele>
        <time>2017-07-20T12:44:08Z</time>
      </trkpt>
      <trkpt lat="48.07413" lon="7.35945">
        <ele>189.80000305176</ele>
        <time>2017-07-20T12:44:10Z</time>
      </trkpt>
      <trkpt lat="48.0741" lon="7.35932">
        <ele>189.80000305176</ele>
        <time>2017-07-20T12:44:14Z</time>
      </trkpt>
      <trkpt lat="48.07408" lon="7.35911">
        <ele>189.80000305176</ele>
        <time>2017-07-20T12:44:20Z</time>
      </trkpt>
      <trkpt lat="48.07407" lon="7.35896">
        <ele>190</ele>
        <time>2017-07-20T12:44:26Z</time>
      </trkpt>
      <trkpt lat="48.07406" lon="7.35883">
        <ele>189.80000305176</ele>
        <time>2017-07-20T12:44:37Z</time>
      </trkpt>
      <trkpt lat="48.07406" lon="7.35881">
        <ele>189.80000305176</ele>
        <time>2017-07-20T12:44:38Z</time>
      </trkpt>
      <trkpt lat="48.07405" lon="7.35861">
        <ele>189.80000305176</ele>
        <time>2017-07-20T12:44:45Z</time>
      </trkpt>
      <trkpt lat="48.07405" lon="7.3584">
        <ele>190.19999694824</ele>
        <time>2017-07-20T12:44:53Z</time>
      </trkpt>
      <trkpt lat="48.07404" lon="7.35825">
        <ele>190.19999694824</ele>
        <time>2017-07-20T12:45:00Z</time>
      </trkpt>
      <trkpt lat="48.07404" lon="7.35818">
        <ele>190.19999694824</ele>
        <time>2017-07-20T12:45:04Z</time>
      </trkpt>
      <trkpt lat="48.07404" lon="7.35811">
        <ele>190.19999694824</ele>
        <time>2017-07-20T12:45:08Z</time>
      </trkpt>
      <trkpt lat="48.07404" lon="7.35795">
        <ele>190</ele>
        <time>2017-07-20T12:45:16Z</time>
      </trkpt>
      <trkpt lat="48.07401" lon="7.35782">
        <ele>189.80000305176</ele>
        <time>2017-07-20T12:45:24Z</time>
      </trkpt>
      <trkpt lat="48.07398" lon="7.35773">
        <ele>189.80000305176</ele>
        <time>2017-07-20T12:45:29Z</time>
      </trkpt>
      <trkpt lat="48.07396" lon="7.35767">
        <ele>189.80000305176</ele>
        <time>2017-07-20T12:45:31Z</time>
      </trkpt>
      <trkpt lat="48.07393" lon="7.35764">
        <ele>189.80000305176</ele>
        <time>2017-07-20T12:45:34Z</time>
      </trkpt>
      <trkpt lat="48.07392" lon="7.35755">
        <ele>190.19999694824</ele>
        <time>2017-07-20T12:45:50Z</time>
      </trkpt>
      <trkpt lat="48.07395" lon="7.35752">
        <ele>190.39999389648</ele>
        <time>2017-07-20T12:45:52Z</time>
      </trkpt>
      <trkpt lat="48.074" lon="7.35741">
        <ele>191.60000610352</ele>
        <time>2017-07-20T12:49:32Z</time>
      </trkpt>
      <trkpt lat="48.07405" lon="7.35726">
        <ele>191.80000305176</ele>
        <time>2017-07-20T12:49:38Z</time>
      </trkpt>
      <trkpt lat="48.07412" lon="7.35705">
        <ele>191.60000610352</ele>
        <time>2017-07-20T12:49:45Z</time>
      </trkpt>
      <trkpt lat="48.07419" lon="7.35684">
        <ele>191.19999694824</ele>
        <time>2017-07-20T12:49:52Z</time>
      </trkpt>
      <trkpt lat="48.07415" lon="7.35671">
        <ele>191.39999389648</ele>
        <time>2017-07-20T12:49:56Z</time>
      </trkpt>
      <trkpt lat="48.07405" lon="7.3566">
        <ele>191.60000610352</ele>
        <time>2017-07-20T12:50:01Z</time>
      </trkpt>
      <trkpt lat="48.07402" lon="7.35659">
        <ele>191.60000610352</ele>
        <time>2017-07-20T12:50:03Z</time>
      </trkpt>
      <trkpt lat="48.07399" lon="7.35658">
        <ele>191.60000610352</ele>
        <time>2017-07-20T12:50:05Z</time>
      </trkpt>
      <trkpt lat="48.074" lon="7.35647">
        <ele>191.80000305176</ele>
        <time>2017-07-20T12:50:09Z</time>
      </trkpt>
      <trkpt lat="48.07401" lon="7.35631">
        <ele>192</ele>
        <time>2017-07-20T12:50:14Z</time>
      </trkpt>
      <trkpt lat="48.07401" lon="7.35628">
        <ele>192</ele>
        <time>2017-07-20T12:50:15Z</time>
      </trkpt>
      <trkpt lat="48.07403" lon="7.35606">
        <ele>192.60000610352</ele>
        <time>2017-07-20T12:50:21Z</time>
      </trkpt>
      <trkpt lat="48.07406" lon="7.35599">
        <ele>192.60000610352</ele>
        <time>2017-07-20T12:50:23Z</time>
      </trkpt>
      <trkpt lat="48.0741" lon="7.35587">
        <ele>193</ele>
        <time>2017-07-20T12:50:26Z</time>
      </trkpt>
      <trkpt lat="48.07416" lon="7.35564">
        <ele>193.39999389648</ele>
        <time>2017-07-20T12:50:32Z</time>
      </trkpt>
      <trkpt lat="48.07422" lon="7.3554">
        <ele>193.80000305176</ele>
        <time>2017-07-20T12:50:37Z</time>
      </trkpt>
      <trkpt lat="48.07424" lon="7.35529">
        <ele>193.80000305176</ele>
        <time>2017-07-20T12:50:39Z</time>
      </trkpt>
      <trkpt lat="48.07427" lon="7.35496">
        <ele>194.19999694824</ele>
        <time>2017-07-20T12:50:46Z</time>
      </trkpt>
      <trkpt lat="48.07426" lon="7.3549">
        <ele>194.39999389648</ele>
        <time>2017-07-20T12:50:48Z</time>
      </trkpt>
      <trkpt lat="48.07425" lon="7.35485">
        <ele>194.80000305176</ele>
        <time>2017-07-20T12:52:47Z</time>
      </trkpt>
      <trkpt lat="48.07423" lon="7.35457">
        <ele>195.19999694824</ele>
        <time>2017-07-20T12:52:53Z</time>
      </trkpt>
      <trkpt lat="48.07414" lon="7.35444">
        <ele>195.39999389648</ele>
        <time>2017-07-20T12:52:57Z</time>
      </trkpt>
      <trkpt lat="48.07395" lon="7.35442">
        <ele>195.80000305176</ele>
        <time>2017-07-20T12:53:02Z</time>
      </trkpt>
      <trkpt lat="48.07371" lon="7.35439">
        <ele>195.80000305176</ele>
        <time>2017-07-20T12:53:09Z</time>
      </trkpt>
      <trkpt lat="48.0735" lon="7.35436">
        <ele>195.60000610352</ele>
        <time>2017-07-20T12:53:16Z</time>
      </trkpt>
      <trkpt lat="48.07326" lon="7.35432">
        <ele>195.60000610352</ele>
        <time>2017-07-20T12:53:24Z</time>
      </trkpt>
      <trkpt lat="48.07307" lon="7.3543">
        <ele>195.39999389648</ele>
        <time>2017-07-20T12:53:31Z</time>
      </trkpt>
      <trkpt lat="48.07294" lon="7.35429">
        <ele>195.60000610352</ele>
        <time>2017-07-20T12:53:37Z</time>
      </trkpt>
      <trkpt lat="48.07293" lon="7.35429">
        <ele>195.60000610352</ele>
        <time>2017-07-20T12:53:38Z</time>
      </trkpt>
      <trkpt lat="48.07292" lon="7.35434">
        <ele>195.39999389648</ele>
        <time>2017-07-20T12:53:41Z</time>
      </trkpt>
      <trkpt lat="48.07291" lon="7.35437">
        <ele>195.39999389648</ele>
        <time>2017-07-20T12:53:42Z</time>
      </trkpt>
      <trkpt lat="48.07286" lon="7.35453">
        <ele>195.19999694824</ele>
        <time>2017-07-20T12:53:46Z</time>
      </trkpt>
      <trkpt lat="48.07278" lon="7.35486">
        <ele>195</ele>
        <time>2017-07-20T12:53:52Z</time>
      </trkpt>
      <trkpt lat="48.0727" lon="7.35538">
        <ele>194.60000610352</ele>
        <time>2017-07-20T12:54:01Z</time>
      </trkpt>
      <trkpt lat="48.07269" lon="7.35572">
        <ele>194.19999694824</ele>
        <time>2017-07-20T12:54:07Z</time>
      </trkpt>
      <trkpt lat="48.07268" lon="7.35593">
        <ele>193.80000305176</ele>
        <time>2017-07-20T12:54:11Z</time>
      </trkpt>
      <trkpt lat="48.07267" lon="7.356">
        <ele>193.60000610352</ele>
        <time>2017-07-20T12:54:13Z</time>
      </trkpt>
      <trkpt lat="48.07266" lon="7.35604">
        <ele>193.60000610352</ele>
        <time>2017-07-20T12:54:14Z</time>
      </trkpt>
      <trkpt lat="48.07257" lon="7.35605">
        <ele>193.39999389648</ele>
        <time>2017-07-20T12:54:17Z</time>
      </trkpt>
      <trkpt lat="48.07246" lon="7.35599">
        <ele>193.39999389648</ele>
        <time>2017-07-20T12:54:20Z</time>
      </trkpt>
      <trkpt lat="48.07233" lon="7.35591">
        <ele>193.19999694824</ele>
        <time>2017-07-20T12:54:23Z</time>
      </trkpt>
      <trkpt lat="48.07201" lon="7.35569">
        <ele>193</ele>
        <time>2017-07-20T12:54:30Z</time>
      </trkpt>
      <trkpt lat="48.07192" lon="7.35562">
        <ele>192.80000305176</ele>
        <time>2017-07-20T12:54:32Z</time>
      </trkpt>
      <trkpt lat="48.07178" lon="7.3555">
        <ele>192.60000610352</ele>
        <time>2017-07-20T12:54:36Z</time>
      </trkpt>
      <trkpt lat="48.07164" lon="7.35542">
        <ele>192.39999389648</ele>
        <time>2017-07-20T12:54:41Z</time>
      </trkpt>
      <trkpt lat="48.0714" lon="7.35532">
        <ele>192.60000610352</ele>
        <time>2017-07-20T12:54:47Z</time>
      </trkpt>
      <trkpt lat="48.07119" lon="7.35526">
        <ele>192.39999389648</ele>
        <time>2017-07-20T12:54:52Z</time>
      </trkpt>
      <trkpt lat="48.07111" lon="7.35527">
        <ele>192.39999389648</ele>
        <time>2017-07-20T12:54:54Z</time>
      </trkpt>
      <trkpt lat="48.07075" lon="7.35532">
        <ele>192</ele>
        <time>2017-07-20T12:55:02Z</time>
      </trkpt>
      <trkpt lat="48.07047" lon="7.35527">
        <ele>192</ele>
        <time>2017-07-20T12:55:08Z</time>
      </trkpt>
      <trkpt lat="48.07014" lon="7.35517">
        <ele>192</ele>
        <time>2017-07-20T12:55:15Z</time>
      </trkpt>
      <trkpt lat="48.0699" lon="7.35508">
        <ele>192.19999694824</ele>
        <time>2017-07-20T12:55:21Z</time>
      </trkpt>
      <trkpt lat="48.06983" lon="7.35503">
        <ele>192.19999694824</ele>
        <time>2017-07-20T12:55:25Z</time>
      </trkpt>
      <trkpt lat="48.06983" lon="7.35501">
        <ele>192.39999389648</ele>
        <time>2017-07-20T12:56:51Z</time>
      </trkpt>
      <trkpt lat="48.06984" lon="7.35494">
        <ele>192.39999389648</ele>
        <time>2017-07-20T12:56:53Z</time>
      </trkpt>
      <trkpt lat="48.06985" lon="7.3548">
        <ele>192.60000610352</ele>
        <time>2017-07-20T12:56:56Z</time>
      </trkpt>
      <trkpt lat="48.06987" lon="7.35468">
        <ele>192.60000610352</ele>
        <time>2017-07-20T12:56:58Z</time>
      </trkpt>
      <trkpt lat="48.06999" lon="7.35422">
        <ele>192.80000305176</ele>
        <time>2017-07-20T12:57:05Z</time>
      </trkpt>
      <trkpt lat="48.07012" lon="7.35379">
        <ele>193.19999694824</ele>
        <time>2017-07-20T12:57:12Z</time>
      </trkpt>
      <trkpt lat="48.07018" lon="7.35347">
        <ele>193.60000610352</ele>
        <time>2017-07-20T12:57:19Z</time>
      </trkpt>
      <trkpt lat="48.07024" lon="7.35323">
        <ele>193.80000305176</ele>
        <time>2017-07-20T12:57:24Z</time>
      </trkpt>
      <trkpt lat="48.07032" lon="7.35299">
        <ele>193.80000305176</ele>
        <time>2017-07-20T12:57:28Z</time>
      </trkpt>
      <trkpt lat="48.07034" lon="7.35293">
        <ele>193.80000305176</ele>
        <time>2017-07-20T12:57:29Z</time>
      </trkpt>
      <trkpt lat="48.07051" lon="7.35243">
        <ele>194</ele>
        <time>2017-07-20T12:57:37Z</time>
      </trkpt>
      <trkpt lat="48.07066" lon="7.35198">
        <ele>194.19999694824</ele>
        <time>2017-07-20T12:57:44Z</time>
      </trkpt>
      <trkpt lat="48.07079" lon="7.35157">
        <ele>194.39999389648</ele>
        <time>2017-07-20T12:57:51Z</time>
      </trkpt>
      <trkpt lat="48.07084" lon="7.35146">
        <ele>194.39999389648</ele>
        <time>2017-07-20T12:57:54Z</time>
      </trkpt>
      <trkpt lat="48.07086" lon="7.35146">
        <ele>194.60000610352</ele>
        <time>2017-07-20T12:57:55Z</time>
      </trkpt>
      <trkpt lat="48.07092" lon="7.35135">
        <ele>194.60000610352</ele>
        <time>2017-07-20T12:58:00Z</time>
      </trkpt>
      <trkpt lat="48.07094" lon="7.3513">
        <ele>194.60000610352</ele>
        <time>2017-07-20T12:58:02Z</time>
      </trkpt>
      <trkpt lat="48.07096" lon="7.3512">
        <ele>194.60000610352</ele>
        <time>2017-07-20T12:58:44Z</time>
      </trkpt>
      <trkpt lat="48.07099" lon="7.35109">
        <ele>194.60000610352</ele>
        <time>2017-07-20T12:58:47Z</time>
      </trkpt>
      <trkpt lat="48.07105" lon="7.35087">
        <ele>194.80000305176</ele>
        <time>2017-07-20T12:58:52Z</time>
      </trkpt>
      <trkpt lat="48.0711" lon="7.3506">
        <ele>194.80000305176</ele>
        <time>2017-07-20T12:58:58Z</time>
      </trkpt>
      <trkpt lat="48.07111" lon="7.35054">
        <ele>194.60000610352</ele>
        <time>2017-07-20T12:59:06Z</time>
      </trkpt>
      <trkpt lat="48.07112" lon="7.35052">
        <ele>194.60000610352</ele>
        <time>2017-07-20T12:59:07Z</time>
      </trkpt>
      <trkpt lat="48.07117" lon="7.35033">
        <ele>194.80000305176</ele>
        <time>2017-07-20T12:59:12Z</time>
      </trkpt>
      <trkpt lat="48.07122" lon="7.35018">
        <ele>194.80000305176</ele>
        <time>2017-07-20T12:59:15Z</time>
      </trkpt>
      <trkpt lat="48.07128" lon="7.34996">
        <ele>195</ele>
        <time>2017-07-20T12:59:19Z</time>
      </trkpt>
      <trkpt lat="48.07143" lon="7.34957">
        <ele>195.19999694824</ele>
        <time>2017-07-20T12:59:27Z</time>
      </trkpt>
      <trkpt lat="48.07156" lon="7.34918">
        <ele>195.39999389648</ele>
        <time>2017-07-20T12:59:34Z</time>
      </trkpt>
      <trkpt lat="48.07164" lon="7.34894">
        <ele>195.60000610352</ele>
        <time>2017-07-20T12:59:38Z</time>
      </trkpt>
      <trkpt lat="48.07171" lon="7.34871">
        <ele>195.80000305176</ele>
        <time>2017-07-20T12:59:42Z</time>
      </trkpt>
      <trkpt lat="48.07173" lon="7.34865">
        <ele>196</ele>
        <time>2017-07-20T12:59:43Z</time>
      </trkpt>
      <trkpt lat="48.07183" lon="7.34837">
        <ele>196.19999694824</ele>
        <time>2017-07-20T12:59:48Z</time>
      </trkpt>
      <trkpt lat="48.07186" lon="7.34825">
        <ele>196.19999694824</ele>
        <time>2017-07-20T12:59:50Z</time>
      </trkpt>
      <trkpt lat="48.07192" lon="7.34792">
        <ele>196.60000610352</ele>
        <time>2017-07-20T12:59:56Z</time>
      </trkpt>
      <trkpt lat="48.07191" lon="7.34786">
        <ele>196.60000610352</ele>
        <time>2017-07-20T12:59:57Z</time>
      </trkpt>
      <trkpt lat="48.07188" lon="7.34778">
        <ele>196.80000305176</ele>
        <time>2017-07-20T12:59:59Z</time>
      </trkpt>
      <trkpt lat="48.07184" lon="7.34771">
        <ele>197</ele>
        <time>2017-07-20T13:00:01Z</time>
      </trkpt>
      <trkpt lat="48.07175" lon="7.34765">
        <ele>197</ele>
        <time>2017-07-20T13:00:04Z</time>
      </trkpt>
      <trkpt lat="48.07154" lon="7.3475">
        <ele>197</ele>
        <time>2017-07-20T13:00:12Z</time>
      </trkpt>
      <trkpt lat="48.07151" lon="7.34748">
        <ele>196.60000610352</ele>
        <time>2017-07-20T13:00:19Z</time>
      </trkpt>
      <trkpt lat="48.07143" lon="7.3474">
        <ele>196.60000610352</ele>
        <time>2017-07-20T13:00:24Z</time>
      </trkpt>
      <trkpt lat="48.07127" lon="7.34722">
        <ele>196.80000305176</ele>
        <time>2017-07-20T13:00:30Z</time>
      </trkpt>
      <trkpt lat="48.07111" lon="7.34705">
        <ele>196.80000305176</ele>
        <time>2017-07-20T13:00:35Z</time>
      </trkpt>
      <trkpt lat="48.07079" lon="7.3468">
        <ele>197</ele>
        <time>2017-07-20T13:00:43Z</time>
      </trkpt>
      <trkpt lat="48.07054" lon="7.34655">
        <ele>197</ele>
        <time>2017-07-20T13:00:50Z</time>
      </trkpt>
      <trkpt lat="48.07036" lon="7.34639">
        <ele>197</ele>
        <time>2017-07-20T13:00:56Z</time>
      </trkpt>
      <trkpt lat="48.07035" lon="7.34637">
        <ele>197</ele>
        <time>2017-07-20T13:00:57Z</time>
      </trkpt>
      <trkpt lat="48.07031" lon="7.34634">
        <ele>197.19999694824</ele>
        <time>2017-07-20T13:01:00Z</time>
      </trkpt>
      <trkpt lat="48.07027" lon="7.34631">
        <ele>197</ele>
        <time>2017-07-20T13:02:43Z</time>
      </trkpt>
      <trkpt lat="48.07026" lon="7.3463">
        <ele>197</ele>
        <time>2017-07-20T13:02:44Z</time>
      </trkpt>
      <trkpt lat="48.07024" lon="7.34624">
        <ele>197</ele>
        <time>2017-07-20T13:02:46Z</time>
      </trkpt>
      <trkpt lat="48.07026" lon="7.34616">
        <ele>197</ele>
        <time>2017-07-20T13:02:48Z</time>
      </trkpt>
      <trkpt lat="48.07025" lon="7.34598">
        <ele>197.19999694824</ele>
        <time>2017-07-20T13:02:52Z</time>
      </trkpt>
      <trkpt lat="48.07012" lon="7.34583">
        <ele>197.60000610352</ele>
        <time>2017-07-20T13:02:56Z</time>
      </trkpt>
      <trkpt lat="48.07008" lon="7.34579">
        <ele>197.80000305176</ele>
        <time>2017-07-20T13:02:57Z</time>
      </trkpt>
      <trkpt lat="48.07004" lon="7.34576">
        <ele>198</ele>
        <time>2017-07-20T13:02:58Z</time>
      </trkpt>
      <trkpt lat="48.06982" lon="7.34559">
        <ele>199</ele>
        <time>2017-07-20T13:03:04Z</time>
      </trkpt>
      <trkpt lat="48.06961" lon="7.34538">
        <ele>200</ele>
        <time>2017-07-20T13:03:11Z</time>
      </trkpt>
      <trkpt lat="48.06956" lon="7.34532">
        <ele>200.39999389648</ele>
        <time>2017-07-20T13:03:13Z</time>
      </trkpt>
      <trkpt lat="48.06941" lon="7.34519">
        <ele>201.19999694824</ele>
        <time>2017-07-20T13:03:18Z</time>
      </trkpt>
      <trkpt lat="48.06936" lon="7.34514">
        <ele>201.19999694824</ele>
        <time>2017-07-20T13:03:20Z</time>
      </trkpt>
      <trkpt lat="48.0693" lon="7.345">
        <ele>201.80000305176</ele>
        <time>2017-07-20T13:03:24Z</time>
      </trkpt>
      <trkpt lat="48.06929" lon="7.34488">
        <ele>202.19999694824</ele>
        <time>2017-07-20T13:03:27Z</time>
      </trkpt>
      <trkpt lat="48.06929" lon="7.34478">
        <ele>202.39999389648</ele>
        <time>2017-07-20T13:03:29Z</time>
      </trkpt>
      <trkpt lat="48.06937" lon="7.34453">
        <ele>203</ele>
        <time>2017-07-20T13:03:34Z</time>
      </trkpt>
      <trkpt lat="48.06939" lon="7.34443">
        <ele>203.39999389648</ele>
        <time>2017-07-20T13:03:37Z</time>
      </trkpt>
      <trkpt lat="48.06942" lon="7.34434">
        <ele>203.60000610352</ele>
        <time>2017-07-20T13:03:39Z</time>
      </trkpt>
      <trkpt lat="48.06955" lon="7.34397">
        <ele>204</ele>
        <time>2017-07-20T13:03:46Z</time>
      </trkpt>
      <trkpt lat="48.06974" lon="7.34353">
        <ele>204.19999694824</ele>
        <time>2017-07-20T13:03:54Z</time>
      </trkpt>
      <trkpt lat="48.06994" lon="7.34311">
        <ele>203.80000305176</ele>
        <time>2017-07-20T13:04:01Z</time>
      </trkpt>
      <trkpt lat="48.07009" lon="7.34273">
        <ele>203.19999694824</ele>
        <time>2017-07-20T13:04:07Z</time>
      </trkpt>
      <trkpt lat="48.07011" lon="7.34259">
        <ele>203</ele>
        <time>2017-07-20T13:04:09Z</time>
      </trkpt>
      <trkpt lat="48.07014" lon="7.34231">
        <ele>203</ele>
        <time>2017-07-20T13:04:13Z</time>
      </trkpt>
      <trkpt lat="48.07014" lon="7.34217">
        <ele>203</ele>
        <time>2017-07-20T13:04:15Z</time>
      </trkpt>
      <trkpt lat="48.07006" lon="7.34171">
        <ele>202.80000305176</ele>
        <time>2017-07-20T13:04:22Z</time>
      </trkpt>
      <trkpt lat="48.07003" lon="7.34147">
        <ele>202.80000305176</ele>
        <time>2017-07-20T13:04:26Z</time>
      </trkpt>
      <trkpt lat="48.07005" lon="7.34134">
        <ele>202.60000610352</ele>
        <time>2017-07-20T13:04:28Z</time>
      </trkpt>
      <trkpt lat="48.07019" lon="7.34116">
        <ele>202.39999389648</ele>
        <time>2017-07-20T13:04:32Z</time>
      </trkpt>
      <trkpt lat="48.07022" lon="7.34112">
        <ele>202.39999389648</ele>
        <time>2017-07-20T13:04:33Z</time>
      </trkpt>
      <trkpt lat="48.07038" lon="7.34101">
        <ele>202.39999389648</ele>
        <time>2017-07-20T13:04:38Z</time>
      </trkpt>
      <trkpt lat="48.07046" lon="7.34094">
        <ele>202.39999389648</ele>
        <time>2017-07-20T13:04:42Z</time>
      </trkpt>
      <trkpt lat="48.07047" lon="7.34092">
        <ele>202.19999694824</ele>
        <time>2017-07-20T13:04:43Z</time>
      </trkpt>
      <trkpt lat="48.07046" lon="7.34086">
        <ele>202</ele>
        <time>2017-07-20T13:04:46Z</time>
      </trkpt>
      <trkpt lat="48.07045" lon="7.34082">
        <ele>202</ele>
        <time>2017-07-20T13:04:48Z</time>
      </trkpt>
      <trkpt lat="48.07042" lon="7.34079">
        <ele>201.80000305176</ele>
        <time>2017-07-20T13:04:51Z</time>
      </trkpt>
      <trkpt lat="48.07042" lon="7.34078">
        <ele>201.80000305176</ele>
        <time>2017-07-20T13:04:52Z</time>
      </trkpt>
      <trkpt lat="48.07041" lon="7.34075">
        <ele>201.80000305176</ele>
        <time>2017-07-20T13:04:54Z</time>
      </trkpt>
      <trkpt lat="48.0704" lon="7.34074">
        <ele>201.39999389648</ele>
        <time>2017-07-20T13:05:09Z</time>
      </trkpt>
      <trkpt lat="48.07039" lon="7.34072">
        <ele>201.39999389648</ele>
        <time>2017-07-20T13:05:10Z</time>
      </trkpt>
      <trkpt lat="48.0703" lon="7.34052">
        <ele>201.60000610352</ele>
        <time>2017-07-20T13:05:15Z</time>
      </trkpt>
      <trkpt lat="48.07012" lon="7.34016">
        <ele>201.39999389648</ele>
        <time>2017-07-20T13:05:21Z</time>
      </trkpt>
      <trkpt lat="48.06992" lon="7.3398">
        <ele>201.19999694824</ele>
        <time>2017-07-20T13:05:27Z</time>
      </trkpt>
      <trkpt lat="48.06989" lon="7.33974">
        <ele>201</ele>
        <time>2017-07-20T13:05:28Z</time>
      </trkpt>
      <trkpt lat="48.06964" lon="7.33925">
        <ele>200.39999389648</ele>
        <time>2017-07-20T13:05:36Z</time>
      </trkpt>
      <trkpt lat="48.06942" lon="7.33886">
        <ele>200.39999389648</ele>
        <time>2017-07-20T13:05:43Z</time>
      </trkpt>
      <trkpt lat="48.0691" lon="7.33836">
        <ele>200.39999389648</ele>
        <time>2017-07-20T13:05:52Z</time>
      </trkpt>
      <trkpt lat="48.06894" lon="7.33818">
        <ele>200.19999694824</ele>
        <time>2017-07-20T13:05:56Z</time>
      </trkpt>
      <trkpt lat="48.06886" lon="7.33808">
        <ele>200</ele>
        <time>2017-07-20T13:05:58Z</time>
      </trkpt>
      <trkpt lat="48.0685" lon="7.33766">
        <ele>200.39999389648</ele>
        <time>2017-07-20T13:06:07Z</time>
      </trkpt>
      <trkpt lat="48.06826" lon="7.33739">
        <ele>200.19999694824</ele>
        <time>2017-07-20T13:06:13Z</time>
      </trkpt>
      <trkpt lat="48.06823" lon="7.33733">
        <ele>200.19999694824</ele>
        <time>2017-07-20T13:06:14Z</time>
      </trkpt>
      <trkpt lat="48.06823" lon="7.33711">
        <ele>200.19999694824</ele>
        <time>2017-07-20T13:06:17Z</time>
      </trkpt>
      <trkpt lat="48.06824" lon="7.33704">
        <ele>200.19999694824</ele>
        <time>2017-07-20T13:06:18Z</time>
      </trkpt>
      <trkpt lat="48.0683" lon="7.33655">
        <ele>200.80000305176</ele>
        <time>2017-07-20T13:06:25Z</time>
      </trkpt>
      <trkpt lat="48.06837" lon="7.33611">
        <ele>200.80000305176</ele>
        <time>2017-07-20T13:06:32Z</time>
      </trkpt>
      <trkpt lat="48.06839" lon="7.33591">
        <ele>200.39999389648</ele>
        <time>2017-07-20T13:06:53Z</time>
      </trkpt>
      <trkpt lat="48.06841" lon="7.33579">
        <ele>200.39999389648</ele>
        <time>2017-07-20T13:06:56Z</time>
      </trkpt>
      <trkpt lat="48.06847" lon="7.33549">
        <ele>200.39999389648</ele>
        <time>2017-07-20T13:07:01Z</time>
      </trkpt>
      <trkpt lat="48.06858" lon="7.33494">
        <ele>201</ele>
        <time>2017-07-20T13:07:09Z</time>
      </trkpt>
      <trkpt lat="48.06862" lon="7.33467">
        <ele>201.19999694824</ele>
        <time>2017-07-20T13:07:13Z</time>
      </trkpt>
      <trkpt lat="48.06869" lon="7.33432">
        <ele>201.19999694824</ele>
        <time>2017-07-20T13:07:18Z</time>
      </trkpt>
      <trkpt lat="48.0687" lon="7.33426">
        <ele>201.19999694824</ele>
        <time>2017-07-20T13:07:19Z</time>
      </trkpt>
      <trkpt lat="48.06873" lon="7.33407">
        <ele>201.39999389648</ele>
        <time>2017-07-20T13:07:22Z</time>
      </trkpt>
      <trkpt lat="48.06876" lon="7.33387">
        <ele>201.60000610352</ele>
        <time>2017-07-20T13:07:25Z</time>
      </trkpt>
      <trkpt lat="48.06877" lon="7.3338">
        <ele>201.60000610352</ele>
        <time>2017-07-20T13:07:26Z</time>
      </trkpt>
      <trkpt lat="48.06888" lon="7.33312">
        <ele>201.80000305176</ele>
        <time>2017-07-20T13:07:36Z</time>
      </trkpt>
      <trkpt lat="48.06894" lon="7.33269">
        <ele>202</ele>
        <time>2017-07-20T13:07:42Z</time>
      </trkpt>
      <trkpt lat="48.06898" lon="7.33243">
        <ele>202.19999694824</ele>
        <time>2017-07-20T13:07:46Z</time>
      </trkpt>
      <trkpt lat="48.06899" lon="7.33237">
        <ele>202.19999694824</ele>
        <time>2017-07-20T13:07:47Z</time>
      </trkpt>
      <trkpt lat="48.069" lon="7.3323">
        <ele>202.19999694824</ele>
        <time>2017-07-20T13:07:48Z</time>
      </trkpt>
      <trkpt lat="48.0691" lon="7.33193">
        <ele>202.80000305176</ele>
        <time>2017-07-20T13:07:54Z</time>
      </trkpt>
      <trkpt lat="48.06911" lon="7.33186">
        <ele>202.80000305176</ele>
        <time>2017-07-20T13:07:55Z</time>
      </trkpt>
      <trkpt lat="48.06912" lon="7.3318">
        <ele>202.80000305176</ele>
        <time>2017-07-20T13:07:56Z</time>
      </trkpt>
      <trkpt lat="48.06914" lon="7.33162">
        <ele>202.80000305176</ele>
        <time>2017-07-20T13:07:59Z</time>
      </trkpt>
      <trkpt lat="48.06918" lon="7.33151">
        <ele>203</ele>
        <time>2017-07-20T13:08:01Z</time>
      </trkpt>
      <trkpt lat="48.06927" lon="7.33139">
        <ele>203.19999694824</ele>
        <time>2017-07-20T13:08:04Z</time>
      </trkpt>
      <trkpt lat="48.0693" lon="7.33136">
        <ele>203.19999694824</ele>
        <time>2017-07-20T13:08:05Z</time>
      </trkpt>
      <trkpt lat="48.06946" lon="7.33132">
        <ele>203.39999389648</ele>
        <time>2017-07-20T13:08:09Z</time>
      </trkpt>
      <trkpt lat="48.06947" lon="7.33121">
        <ele>203.39999389648</ele>
        <time>2017-07-20T13:08:11Z</time>
      </trkpt>
      <trkpt lat="48.06942" lon="7.33111">
        <ele>203.60000610352</ele>
        <time>2017-07-20T13:08:13Z</time>
      </trkpt>
      <trkpt lat="48.0694" lon="7.33105">
        <ele>203.80000305176</ele>
        <time>2017-07-20T13:08:14Z</time>
      </trkpt>
      <trkpt lat="48.06927" lon="7.3306">
        <ele>204</ele>
        <time>2017-07-20T13:08:21Z</time>
      </trkpt>
      <trkpt lat="48.06919" lon="7.33034">
        <ele>204.19999694824</ele>
        <time>2017-07-20T13:08:25Z</time>
      </trkpt>
      <trkpt lat="48.06907" lon="7.32993">
        <ele>204.19999694824</ele>
        <time>2017-07-20T13:08:31Z</time>
      </trkpt>
      <trkpt lat="48.0689" lon="7.3293">
        <ele>204.60000610352</ele>
        <time>2017-07-20T13:08:40Z</time>
      </trkpt>
      <trkpt lat="48.06874" lon="7.32866">
        <ele>205</ele>
        <time>2017-07-20T13:08:49Z</time>
      </trkpt>
      <trkpt lat="48.06861" lon="7.32813">
        <ele>205</ele>
        <time>2017-07-20T13:08:57Z</time>
      </trkpt>
      <trkpt lat="48.06851" lon="7.32778">
        <ele>205.19999694824</ele>
        <time>2017-07-20T13:09:02Z</time>
      </trkpt>
      <trkpt lat="48.06849" lon="7.32771">
        <ele>205.39999389648</ele>
        <time>2017-07-20T13:09:03Z</time>
      </trkpt>
      <trkpt lat="48.06833" lon="7.32707">
        <ele>205.60000610352</ele>
        <time>2017-07-20T13:09:12Z</time>
      </trkpt>
      <trkpt lat="48.06819" lon="7.3265">
        <ele>206</ele>
        <time>2017-07-20T13:09:20Z</time>
      </trkpt>
      <trkpt lat="48.06815" lon="7.32637">
        <ele>206</ele>
        <time>2017-07-20T13:09:22Z</time>
      </trkpt>
      <trkpt lat="48.06805" lon="7.32602">
        <ele>206.19999694824</ele>
        <time>2017-07-20T13:09:27Z</time>
      </trkpt>
      <trkpt lat="48.06794" lon="7.32563">
        <ele>206.19999694824</ele>
        <time>2017-07-20T13:09:33Z</time>
      </trkpt>
      <trkpt lat="48.0679" lon="7.32552">
        <ele>206.39999389648</ele>
        <time>2017-07-20T13:09:35Z</time>
      </trkpt>
      <trkpt lat="48.06783" lon="7.32529">
        <ele>206.39999389648</ele>
        <time>2017-07-20T13:09:40Z</time>
      </trkpt>
      <trkpt lat="48.06782" lon="7.32524">
        <ele>206.39999389648</ele>
        <time>2017-07-20T13:09:42Z</time>
      </trkpt>
      <trkpt lat="48.06781" lon="7.32523">
        <ele>206.19999694824</ele>
        <time>2017-07-20T13:10:09Z</time>
      </trkpt>
      <trkpt lat="48.06779" lon="7.32518">
        <ele>206.19999694824</ele>
        <time>2017-07-20T13:10:11Z</time>
      </trkpt>
      <trkpt lat="48.06773" lon="7.32497">
        <ele>206.39999389648</ele>
        <time>2017-07-20T13:10:16Z</time>
      </trkpt>
      <trkpt lat="48.06759" lon="7.32456">
        <ele>206.60000610352</ele>
        <time>2017-07-20T13:10:23Z</time>
      </trkpt>
      <trkpt lat="48.06743" lon="7.32418">
        <ele>207</ele>
        <time>2017-07-20T13:10:30Z</time>
      </trkpt>
      <trkpt lat="48.0674" lon="7.32407">
        <ele>207.19999694824</ele>
        <time>2017-07-20T13:10:32Z</time>
      </trkpt>
      <trkpt lat="48.06739" lon="7.32388">
        <ele>207.19999694824</ele>
        <time>2017-07-20T13:10:35Z</time>
      </trkpt>
      <trkpt lat="48.06739" lon="7.32382">
        <ele>207.39999389648</ele>
        <time>2017-07-20T13:10:36Z</time>
      </trkpt>
      <trkpt lat="48.06745" lon="7.32367">
        <ele>207.60000610352</ele>
        <time>2017-07-20T13:10:39Z</time>
      </trkpt>
      <trkpt lat="48.06756" lon="7.3235">
        <ele>207.60000610352</ele>
        <time>2017-07-20T13:10:43Z</time>
      </trkpt>
      <trkpt lat="48.06758" lon="7.32343">
        <ele>207.60000610352</ele>
        <time>2017-07-20T13:10:44Z</time>
      </trkpt>
      <trkpt lat="48.06757" lon="7.32316">
        <ele>207.80000305176</ele>
        <time>2017-07-20T13:10:48Z</time>
      </trkpt>
      <trkpt lat="48.06748" lon="7.32301">
        <ele>207.80000305176</ele>
        <time>2017-07-20T13:10:51Z</time>
      </trkpt>
      <trkpt lat="48.06742" lon="7.32295">
        <ele>207.80000305176</ele>
        <time>2017-07-20T13:10:53Z</time>
      </trkpt>
      <trkpt lat="48.06734" lon="7.3229">
        <ele>207.60000610352</ele>
        <time>2017-07-20T13:10:56Z</time>
      </trkpt>
      <trkpt lat="48.0673" lon="7.3229">
        <ele>207.60000610352</ele>
        <time>2017-07-20T13:11:26Z</time>
      </trkpt>
      <trkpt lat="48.0672" lon="7.32301">
        <ele>207.60000610352</ele>
        <time>2017-07-20T13:11:31Z</time>
      </trkpt>
      <trkpt lat="48.06705" lon="7.32313">
        <ele>207.60000610352</ele>
        <time>2017-07-20T13:11:36Z</time>
      </trkpt>
      <trkpt lat="48.0669" lon="7.32308">
        <ele>207.60000610352</ele>
        <time>2017-07-20T13:11:40Z</time>
      </trkpt>
      <trkpt lat="48.06686" lon="7.32305">
        <ele>207.60000610352</ele>
        <time>2017-07-20T13:11:41Z</time>
      </trkpt>
      <trkpt lat="48.06676" lon="7.3229">
        <ele>207.60000610352</ele>
        <time>2017-07-20T13:11:44Z</time>
      </trkpt>
      <trkpt lat="48.06671" lon="7.32268">
        <ele>207.60000610352</ele>
        <time>2017-07-20T13:11:47Z</time>
      </trkpt>
      <trkpt lat="48.0667" lon="7.3226">
        <ele>207.60000610352</ele>
        <time>2017-07-20T13:11:48Z</time>
      </trkpt>
      <trkpt lat="48.0666" lon="7.32215">
        <ele>207.60000610352</ele>
        <time>2017-07-20T13:11:55Z</time>
      </trkpt>
      <trkpt lat="48.06649" lon="7.32197">
        <ele>207.60000610352</ele>
        <time>2017-07-20T13:12:00Z</time>
      </trkpt>
      <trkpt lat="48.06644" lon="7.32185">
        <ele>207.60000610352</ele>
        <time>2017-07-20T13:12:04Z</time>
      </trkpt>
      <trkpt lat="48.06646" lon="7.32189">
        <ele>207.60000610352</ele>
        <time>2017-07-20T13:13:51Z</time>
      </trkpt>
      <trkpt lat="48.06647" lon="7.32191">
        <ele>207.60000610352</ele>
        <time>2017-07-20T13:13:52Z</time>
      </trkpt>
      <trkpt lat="48.06655" lon="7.32203">
        <ele>207.60000610352</ele>
        <time>2017-07-20T13:13:56Z</time>
      </trkpt>
      <trkpt lat="48.06658" lon="7.32214">
        <ele>207.60000610352</ele>
        <time>2017-07-20T13:13:58Z</time>
      </trkpt>
      <trkpt lat="48.0666" lon="7.3222">
        <ele>207.60000610352</ele>
        <time>2017-07-20T13:13:59Z</time>
      </trkpt>
      <trkpt lat="48.06661" lon="7.32227">
        <ele>207.80000305176</ele>
        <time>2017-07-20T13:14:00Z</time>
      </trkpt>
      <trkpt lat="48.06666" lon="7.32272">
        <ele>207.80000305176</ele>
        <time>2017-07-20T13:14:06Z</time>
      </trkpt>
      <trkpt lat="48.06669" lon="7.32287">
        <ele>207.80000305176</ele>
        <time>2017-07-20T13:14:08Z</time>
      </trkpt>
      <trkpt lat="48.06678" lon="7.32307">
        <ele>207.80000305176</ele>
        <time>2017-07-20T13:14:11Z</time>
      </trkpt>
      <trkpt lat="48.06692" lon="7.32319">
        <ele>207.80000305176</ele>
        <time>2017-07-20T13:14:14Z</time>
      </trkpt>
      <trkpt lat="48.06697" lon="7.32322">
        <ele>208</ele>
        <time>2017-07-20T13:14:15Z</time>
      </trkpt>
      <trkpt lat="48.06706" lon="7.3233">
        <ele>208.19999694824</ele>
        <time>2017-07-20T13:14:17Z</time>
      </trkpt>
      <trkpt lat="48.06716" lon="7.32349">
        <ele>208.39999389648</ele>
        <time>2017-07-20T13:14:20Z</time>
      </trkpt>
      <trkpt lat="48.06719" lon="7.32355">
        <ele>208.39999389648</ele>
        <time>2017-07-20T13:14:21Z</time>
      </trkpt>
      <trkpt lat="48.06734" lon="7.32365">
        <ele>208.60000610352</ele>
        <time>2017-07-20T13:14:24Z</time>
      </trkpt>
      <trkpt lat="48.0675" lon="7.32357">
        <ele>208.60000610352</ele>
        <time>2017-07-20T13:14:27Z</time>
      </trkpt>
      <trkpt lat="48.06757" lon="7.32343">
        <ele>208.60000610352</ele>
        <time>2017-07-20T13:14:29Z</time>
      </trkpt>
      <trkpt lat="48.06758" lon="7.32334">
        <ele>208.60000610352</ele>
        <time>2017-07-20T13:14:30Z</time>
      </trkpt>
      <trkpt lat="48.06752" lon="7.32309">
        <ele>208.60000610352</ele>
        <time>2017-07-20T13:14:33Z</time>
      </trkpt>
      <trkpt lat="48.06744" lon="7.32297">
        <ele>208.60000610352</ele>
        <time>2017-07-20T13:14:35Z</time>
      </trkpt>
      <trkpt lat="48.06738" lon="7.32283">
        <ele>208.60000610352</ele>
        <time>2017-07-20T13:14:37Z</time>
      </trkpt>
      <trkpt lat="48.06735" lon="7.32255">
        <ele>208.60000610352</ele>
        <time>2017-07-20T13:14:40Z</time>
      </trkpt>
      <trkpt lat="48.06735" lon="7.32237">
        <ele>208.60000610352</ele>
        <time>2017-07-20T13:14:42Z</time>
      </trkpt>
      <trkpt lat="48.06737" lon="7.32221">
        <ele>208.60000610352</ele>
        <time>2017-07-20T13:14:44Z</time>
      </trkpt>
      <trkpt lat="48.0674" lon="7.32204">
        <ele>208.60000610352</ele>
        <time>2017-07-20T13:14:46Z</time>
      </trkpt>
      <trkpt lat="48.06747" lon="7.32147">
        <ele>208.60000610352</ele>
        <time>2017-07-20T13:14:53Z</time>
      </trkpt>
      <trkpt lat="48.06754" lon="7.32088">
        <ele>209</ele>
        <time>2017-07-20T13:15:01Z</time>
      </trkpt>
      <trkpt lat="48.06755" lon="7.32073">
        <ele>209</ele>
        <time>2017-07-20T13:15:03Z</time>
      </trkpt>
      <trkpt lat="48.06757" lon="7.32057">
        <ele>209.19999694824</ele>
        <time>2017-07-20T13:15:05Z</time>
      </trkpt>
      <trkpt lat="48.06758" lon="7.3205">
        <ele>209.19999694824</ele>
        <time>2017-07-20T13:15:06Z</time>
      </trkpt>
      <trkpt lat="48.06759" lon="7.32034">
        <ele>209.39999389648</ele>
        <time>2017-07-20T13:15:08Z</time>
      </trkpt>
      <trkpt lat="48.06764" lon="7.31979">
        <ele>210.19999694824</ele>
        <time>2017-07-20T13:15:15Z</time>
      </trkpt>
      <trkpt lat="48.06771" lon="7.3191">
        <ele>210.39999389648</ele>
        <time>2017-07-20T13:15:24Z</time>
      </trkpt>
      <trkpt lat="48.06776" lon="7.31849">
        <ele>210.60000610352</ele>
        <time>2017-07-20T13:15:32Z</time>
      </trkpt>
      <trkpt lat="48.06778" lon="7.31826">
        <ele>210.60000610352</ele>
        <time>2017-07-20T13:15:35Z</time>
      </trkpt>
      <trkpt lat="48.06785" lon="7.31752">
        <ele>211</ele>
        <time>2017-07-20T13:15:45Z</time>
      </trkpt>
      <trkpt lat="48.0679" lon="7.31693">
        <ele>211.19999694824</ele>
        <time>2017-07-20T13:15:53Z</time>
      </trkpt>
      <trkpt lat="48.06797" lon="7.31622">
        <ele>211.60000610352</ele>
        <time>2017-07-20T13:16:03Z</time>
      </trkpt>
      <trkpt lat="48.06804" lon="7.31552">
        <ele>212.19999694824</ele>
        <time>2017-07-20T13:16:13Z</time>
      </trkpt>
      <trkpt lat="48.06807" lon="7.31532">
        <ele>212.60000610352</ele>
        <time>2017-07-20T13:16:16Z</time>
      </trkpt>
      <trkpt lat="48.06811" lon="7.31499">
        <ele>212.80000305176</ele>
        <time>2017-07-20T13:16:21Z</time>
      </trkpt>
      <trkpt lat="48.06815" lon="7.31465">
        <ele>213.39999389648</ele>
        <time>2017-07-20T13:16:26Z</time>
      </trkpt>
      <trkpt lat="48.06818" lon="7.31444">
        <ele>213.60000610352</ele>
        <time>2017-07-20T13:16:29Z</time>
      </trkpt>
      <trkpt lat="48.06823" lon="7.31388">
        <ele>214.19999694824</ele>
        <time>2017-07-20T13:16:37Z</time>
      </trkpt>
      <trkpt lat="48.06829" lon="7.31335">
        <ele>214.39999389648</ele>
        <time>2017-07-20T13:16:45Z</time>
      </trkpt>
      <trkpt lat="48.06831" lon="7.31304">
        <ele>214.60000610352</ele>
        <time>2017-07-20T13:16:50Z</time>
      </trkpt>
      <trkpt lat="48.06832" lon="7.31291">
        <ele>214.60000610352</ele>
        <time>2017-07-20T13:16:52Z</time>
      </trkpt>
      <trkpt lat="48.06832" lon="7.31278">
        <ele>214.60000610352</ele>
        <time>2017-07-20T13:16:54Z</time>
      </trkpt>
      <trkpt lat="48.06832" lon="7.31215">
        <ele>214.80000305176</ele>
        <time>2017-07-20T13:17:04Z</time>
      </trkpt>
      <trkpt lat="48.06834" lon="7.31175">
        <ele>215</ele>
        <time>2017-07-20T13:17:10Z</time>
      </trkpt>
      <trkpt lat="48.06836" lon="7.31112">
        <ele>215.19999694824</ele>
        <time>2017-07-20T13:17:19Z</time>
      </trkpt>
      <trkpt lat="48.06838" lon="7.31065">
        <ele>215.39999389648</ele>
        <time>2017-07-20T13:17:26Z</time>
      </trkpt>
      <trkpt lat="48.06838" lon="7.31052">
        <ele>215.39999389648</ele>
        <time>2017-07-20T13:17:28Z</time>
      </trkpt>
      <trkpt lat="48.06839" lon="7.31013">
        <ele>215.60000610352</ele>
        <time>2017-07-20T13:17:34Z</time>
      </trkpt>
      <trkpt lat="48.06839" lon="7.30993">
        <ele>215.80000305176</ele>
        <time>2017-07-20T13:17:38Z</time>
      </trkpt>
      <trkpt lat="48.06839" lon="7.30985">
        <ele>215.80000305176</ele>
        <time>2017-07-20T13:17:42Z</time>
      </trkpt>
      <trkpt lat="48.0684" lon="7.30982">
        <ele>215.80000305176</ele>
        <time>2017-07-20T13:19:04Z</time>
      </trkpt>
      <trkpt lat="48.06839" lon="7.30976">
        <ele>215.80000305176</ele>
        <time>2017-07-20T13:19:06Z</time>
      </trkpt>
      <trkpt lat="48.06839" lon="7.30952">
        <ele>215.80000305176</ele>
        <time>2017-07-20T13:19:10Z</time>
      </trkpt>
      <trkpt lat="48.06839" lon="7.30945">
        <ele>215.80000305176</ele>
        <time>2017-07-20T13:19:11Z</time>
      </trkpt>
      <trkpt lat="48.06839" lon="7.30915">
        <ele>216</ele>
        <time>2017-07-20T13:19:15Z</time>
      </trkpt>
      <trkpt lat="48.0684" lon="7.30852">
        <ele>216.60000610352</ele>
        <time>2017-07-20T13:19:23Z</time>
      </trkpt>
      <trkpt lat="48.0684" lon="7.30829">
        <ele>216.80000305176</ele>
        <time>2017-07-20T13:19:26Z</time>
      </trkpt>
      <trkpt lat="48.06839" lon="7.30808">
        <ele>216.80000305176</ele>
        <time>2017-07-20T13:19:29Z</time>
      </trkpt>
      <trkpt lat="48.06838" lon="7.30793">
        <ele>217</ele>
        <time>2017-07-20T13:19:31Z</time>
      </trkpt>
      <trkpt lat="48.06837" lon="7.30728">
        <ele>217.19999694824</ele>
        <time>2017-07-20T13:19:40Z</time>
      </trkpt>
      <trkpt lat="48.06835" lon="7.30659">
        <ele>217.19999694824</ele>
        <time>2017-07-20T13:19:50Z</time>
      </trkpt>
      <trkpt lat="48.06834" lon="7.30605">
        <ele>217.39999389648</ele>
        <time>2017-07-20T13:19:58Z</time>
      </trkpt>
      <trkpt lat="48.06834" lon="7.30598">
        <ele>217.60000610352</ele>
        <time>2017-07-20T13:19:59Z</time>
      </trkpt>
      <trkpt lat="48.06832" lon="7.30551">
        <ele>217.60000610352</ele>
        <time>2017-07-20T13:20:06Z</time>
      </trkpt>
      <trkpt lat="48.06832" lon="7.30529">
        <ele>217.80000305176</ele>
        <time>2017-07-20T13:20:09Z</time>
      </trkpt>
      <trkpt lat="48.06833" lon="7.305">
        <ele>218</ele>
        <time>2017-07-20T13:20:13Z</time>
      </trkpt>
      <trkpt lat="48.06836" lon="7.3044">
        <ele>218.39999389648</ele>
        <time>2017-07-20T13:20:21Z</time>
      </trkpt>
      <trkpt lat="48.06843" lon="7.30397">
        <ele>218.60000610352</ele>
        <time>2017-07-20T13:20:27Z</time>
      </trkpt>
      <trkpt lat="48.06846" lon="7.30383">
        <ele>218.80000305176</ele>
        <time>2017-07-20T13:20:29Z</time>
      </trkpt>
      <trkpt lat="48.06862" lon="7.30321">
        <ele>219.39999389648</ele>
        <time>2017-07-20T13:20:38Z</time>
      </trkpt>
      <trkpt lat="48.06881" lon="7.30246">
        <ele>219.80000305176</ele>
        <time>2017-07-20T13:20:49Z</time>
      </trkpt>
      <trkpt lat="48.06882" lon="7.30239">
        <ele>219.80000305176</ele>
        <time>2017-07-20T13:20:50Z</time>
      </trkpt>
      <trkpt lat="48.06895" lon="7.30191">
        <ele>220.39999389648</ele>
        <time>2017-07-20T13:20:57Z</time>
      </trkpt>
      <trkpt lat="48.0691" lon="7.30131">
        <ele>220.39999389648</ele>
        <time>2017-07-20T13:21:06Z</time>
      </trkpt>
      <trkpt lat="48.06919" lon="7.30092">
        <ele>220.80000305176</ele>
        <time>2017-07-20T13:21:12Z</time>
      </trkpt>
      <trkpt lat="48.06921" lon="7.30085">
        <ele>221</ele>
        <time>2017-07-20T13:21:13Z</time>
      </trkpt>
      <trkpt lat="48.06935" lon="7.30036">
        <ele>221.19999694824</ele>
        <time>2017-07-20T13:21:21Z</time>
      </trkpt>
      <trkpt lat="48.06939" lon="7.30029">
        <ele>221.39999389648</ele>
        <time>2017-07-20T13:21:24Z</time>
      </trkpt>
      <trkpt lat="48.06939" lon="7.30026">
        <ele>220.60000610352</ele>
        <time>2017-07-20T13:22:46Z</time>
      </trkpt>
      <trkpt lat="48.0694" lon="7.30019">
        <ele>220.60000610352</ele>
        <time>2017-07-20T13:22:48Z</time>
      </trkpt>
      <trkpt lat="48.06937" lon="7.29999">
        <ele>220.80000305176</ele>
        <time>2017-07-20T13:22:53Z</time>
      </trkpt>
      <trkpt lat="48.06938" lon="7.29991">
        <ele>221.19999694824</ele>
        <time>2017-07-20T13:22:56Z</time>
      </trkpt>
      <trkpt lat="48.06939" lon="7.29988">
        <ele>221.19999694824</ele>
        <time>2017-07-20T13:22:58Z</time>
      </trkpt>
      <trkpt lat="48.06941" lon="7.29986">
        <ele>221.80000305176</ele>
        <time>2017-07-20T13:25:54Z</time>
      </trkpt>
      <trkpt lat="48.06943" lon="7.29983">
        <ele>221.80000305176</ele>
        <time>2017-07-20T13:25:55Z</time>
      </trkpt>
      <trkpt lat="48.06956" lon="7.29973">
        <ele>221.80000305176</ele>
        <time>2017-07-20T13:26:00Z</time>
      </trkpt>
      <trkpt lat="48.06964" lon="7.29957">
        <ele>221.60000610352</ele>
        <time>2017-07-20T13:26:04Z</time>
      </trkpt>
      <trkpt lat="48.06979" lon="7.2992">
        <ele>221.80000305176</ele>
        <time>2017-07-20T13:26:12Z</time>
      </trkpt>
      <trkpt lat="48.06982" lon="7.29915">
        <ele>222</ele>
        <time>2017-07-20T13:26:13Z</time>
      </trkpt>
      <trkpt lat="48.06997" lon="7.29883">
        <ele>222.19999694824</ele>
        <time>2017-07-20T13:26:20Z</time>
      </trkpt>
      <trkpt lat="48.07014" lon="7.29848">
        <ele>222.39999389648</ele>
        <time>2017-07-20T13:26:27Z</time>
      </trkpt>
      <trkpt lat="48.07029" lon="7.29815">
        <ele>223</ele>
        <time>2017-07-20T13:26:33Z</time>
      </trkpt>
      <trkpt lat="48.0703" lon="7.29809">
        <ele>223</ele>
        <time>2017-07-20T13:26:34Z</time>
      </trkpt>
      <trkpt lat="48.07046" lon="7.29779">
        <ele>223.39999389648</ele>
        <time>2017-07-20T13:26:41Z</time>
      </trkpt>
      <trkpt lat="48.07054" lon="7.29764">
        <ele>223.60000610352</ele>
        <time>2017-07-20T13:26:46Z</time>
      </trkpt>
      <trkpt lat="48.07065" lon="7.29742">
        <ele>223.80000305176</ele>
        <time>2017-07-20T13:26:52Z</time>
      </trkpt>
      <trkpt lat="48.07069" lon="7.29735">
        <ele>224</ele>
        <time>2017-07-20T13:26:54Z</time>
      </trkpt>
      <trkpt lat="48.07081" lon="7.29709">
        <ele>224.19999694824</ele>
        <time>2017-07-20T13:27:01Z</time>
      </trkpt>
      <trkpt lat="48.07084" lon="7.29707">
        <ele>224.19999694824</ele>
        <time>2017-07-20T13:27:02Z</time>
      </trkpt>
      <trkpt lat="48.07091" lon="7.29707">
        <ele>224.39999389648</ele>
        <time>2017-07-20T13:27:04Z</time>
      </trkpt>
      <trkpt lat="48.07104" lon="7.29716">
        <ele>224.80000305176</ele>
        <time>2017-07-20T13:27:09Z</time>
      </trkpt>
      <trkpt lat="48.0711" lon="7.2972">
        <ele>225</ele>
        <time>2017-07-20T13:27:59Z</time>
      </trkpt>
      <trkpt lat="48.07122" lon="7.29728">
        <ele>224.80000305176</ele>
        <time>2017-07-20T13:28:04Z</time>
      </trkpt>
      <trkpt lat="48.07137" lon="7.2974">
        <ele>224.39999389648</ele>
        <time>2017-07-20T13:28:10Z</time>
      </trkpt>
      <trkpt lat="48.07149" lon="7.29761">
        <ele>224.80000305176</ele>
        <time>2017-07-20T13:28:15Z</time>
      </trkpt>
      <trkpt lat="48.07158" lon="7.29762">
        <ele>225.19999694824</ele>
        <time>2017-07-20T13:28:17Z</time>
      </trkpt>
      <trkpt lat="48.07162" lon="7.29759">
        <ele>225.19999694824</ele>
        <time>2017-07-20T13:28:18Z</time>
      </trkpt>
      <trkpt lat="48.07166" lon="7.29748">
        <ele>225.39999389648</ele>
        <time>2017-07-20T13:28:20Z</time>
      </trkpt>
      <trkpt lat="48.07167" lon="7.29741">
        <ele>225.60000610352</ele>
        <time>2017-07-20T13:28:21Z</time>
      </trkpt>
      <trkpt lat="48.07172" lon="7.29729">
        <ele>225.60000610352</ele>
        <time>2017-07-20T13:28:23Z</time>
      </trkpt>
      <trkpt lat="48.07179" lon="7.2972">
        <ele>225.60000610352</ele>
        <time>2017-07-20T13:28:25Z</time>
      </trkpt>
      <trkpt lat="48.07187" lon="7.29714">
        <ele>225.60000610352</ele>
        <time>2017-07-20T13:28:27Z</time>
      </trkpt>
      <trkpt lat="48.07202" lon="7.29698">
        <ele>225.60000610352</ele>
        <time>2017-07-20T13:28:31Z</time>
      </trkpt>
      <trkpt lat="48.07221" lon="7.29678">
        <ele>225.80000305176</ele>
        <time>2017-07-20T13:28:37Z</time>
      </trkpt>
      <trkpt lat="48.07239" lon="7.29662">
        <ele>226</ele>
        <time>2017-07-20T13:28:43Z</time>
      </trkpt>
      <trkpt lat="48.07246" lon="7.29656">
        <ele>226.19999694824</ele>
        <time>2017-07-20T13:28:45Z</time>
      </trkpt>
      <trkpt lat="48.07268" lon="7.29634">
        <ele>226.60000610352</ele>
        <time>2017-07-20T13:28:51Z</time>
      </trkpt>
      <trkpt lat="48.07293" lon="7.29608">
        <ele>226.60000610352</ele>
        <time>2017-07-20T13:28:58Z</time>
      </trkpt>
      <trkpt lat="48.073" lon="7.296">
        <ele>226.60000610352</ele>
        <time>2017-07-20T13:29:00Z</time>
      </trkpt>
      <trkpt lat="48.07334" lon="7.29569">
        <ele>227.19999694824</ele>
        <time>2017-07-20T13:29:09Z</time>
      </trkpt>
      <trkpt lat="48.07338" lon="7.29566">
        <ele>227.19999694824</ele>
        <time>2017-07-20T13:29:10Z</time>
      </trkpt>
      <trkpt lat="48.07366" lon="7.29544">
        <ele>227.60000610352</ele>
        <time>2017-07-20T13:29:17Z</time>
      </trkpt>
      <trkpt lat="48.07393" lon="7.29524">
        <ele>227.80000305176</ele>
        <time>2017-07-20T13:29:24Z</time>
      </trkpt>
      <trkpt lat="48.0741" lon="7.29511">
        <ele>228.19999694824</ele>
        <time>2017-07-20T13:29:29Z</time>
      </trkpt>
      <trkpt lat="48.07414" lon="7.2951">
        <ele>228.19999694824</ele>
        <time>2017-07-20T13:29:30Z</time>
      </trkpt>
      <trkpt lat="48.07418" lon="7.2951">
        <ele>228.19999694824</ele>
        <time>2017-07-20T13:29:31Z</time>
      </trkpt>
      <trkpt lat="48.07434" lon="7.29508">
        <ele>228.19999694824</ele>
        <time>2017-07-20T13:29:35Z</time>
      </trkpt>
      <trkpt lat="48.0744" lon="7.29494">
        <ele>228.39999389648</ele>
        <time>2017-07-20T13:29:38Z</time>
      </trkpt>
      <trkpt lat="48.0745" lon="7.29483">
        <ele>228.39999389648</ele>
        <time>2017-07-20T13:29:41Z</time>
      </trkpt>
      <trkpt lat="48.07455" lon="7.29481">
        <ele>228.39999389648</ele>
        <time>2017-07-20T13:29:42Z</time>
      </trkpt>
      <trkpt lat="48.07481" lon="7.29466">
        <ele>228</ele>
        <time>2017-07-20T13:29:48Z</time>
      </trkpt>
      <trkpt lat="48.07513" lon="7.29448">
        <ele>228.39999389648</ele>
        <time>2017-07-20T13:29:55Z</time>
      </trkpt>
      <trkpt lat="48.07517" lon="7.29445">
        <ele>228.60000610352</ele>
        <time>2017-07-20T13:29:56Z</time>
      </trkpt>
      <trkpt lat="48.07543" lon="7.29422">
        <ele>229</ele>
        <time>2017-07-20T13:30:03Z</time>
      </trkpt>
      <trkpt lat="48.0755" lon="7.29414">
        <ele>229.39999389648</ele>
        <time>2017-07-20T13:30:05Z</time>
      </trkpt>
      <trkpt lat="48.07563" lon="7.29399">
        <ele>229.60000610352</ele>
        <time>2017-07-20T13:30:09Z</time>
      </trkpt>
      <trkpt lat="48.07579" lon="7.29376">
        <ele>230</ele>
        <time>2017-07-20T13:30:15Z</time>
      </trkpt>
      <trkpt lat="48.07586" lon="7.29363">
        <ele>230.39999389648</ele>
        <time>2017-07-20T13:30:18Z</time>
      </trkpt>
      <trkpt lat="48.07595" lon="7.29347">
        <ele>230.39999389648</ele>
        <time>2017-07-20T13:30:22Z</time>
      </trkpt>
      <trkpt lat="48.07615" lon="7.29309">
        <ele>231.19999694824</ele>
        <time>2017-07-20T13:30:30Z</time>
      </trkpt>
      <trkpt lat="48.07618" lon="7.29304">
        <ele>231.39999389648</ele>
        <time>2017-07-20T13:30:31Z</time>
      </trkpt>
      <trkpt lat="48.07629" lon="7.29282">
        <ele>231.39999389648</ele>
        <time>2017-07-20T13:30:36Z</time>
      </trkpt>
      <trkpt lat="48.07643" lon="7.29258">
        <ele>231.39999389648</ele>
        <time>2017-07-20T13:30:42Z</time>
      </trkpt>
      <trkpt lat="48.07664" lon="7.29225">
        <ele>231.60000610352</ele>
        <time>2017-07-20T13:30:49Z</time>
      </trkpt>
      <trkpt lat="48.07691" lon="7.29184">
        <ele>231.39999389648</ele>
        <time>2017-07-20T13:30:57Z</time>
      </trkpt>
      <trkpt lat="48.07721" lon="7.2915">
        <ele>231.80000305176</ele>
        <time>2017-07-20T13:31:05Z</time>
      </trkpt>
      <trkpt lat="48.07754" lon="7.29113">
        <ele>232</ele>
        <time>2017-07-20T13:31:14Z</time>
      </trkpt>
      <trkpt lat="48.07773" lon="7.29093">
        <ele>232.39999389648</ele>
        <time>2017-07-20T13:31:19Z</time>
      </trkpt>
      <trkpt lat="48.0779" lon="7.29072">
        <ele>233</ele>
        <time>2017-07-20T13:31:24Z</time>
      </trkpt>
      <trkpt lat="48.07812" lon="7.29046">
        <ele>233.60000610352</ele>
        <time>2017-07-20T13:31:30Z</time>
      </trkpt>
      <trkpt lat="48.07823" lon="7.29034">
        <ele>233.60000610352</ele>
        <time>2017-07-20T13:31:33Z</time>
      </trkpt>
      <trkpt lat="48.07863" lon="7.28985">
        <ele>233.80000305176</ele>
        <time>2017-07-20T13:31:44Z</time>
      </trkpt>
      <trkpt lat="48.07896" lon="7.28948">
        <ele>234</ele>
        <time>2017-07-20T13:31:53Z</time>
      </trkpt>
      <trkpt lat="48.07899" lon="7.28943">
        <ele>234</ele>
        <time>2017-07-20T13:31:54Z</time>
      </trkpt>
      <trkpt lat="48.07903" lon="7.28939">
        <ele>234</ele>
        <time>2017-07-20T13:31:55Z</time>
      </trkpt>
      <trkpt lat="48.0792" lon="7.28923">
        <ele>234.19999694824</ele>
        <time>2017-07-20T13:31:59Z</time>
      </trkpt>
      <trkpt lat="48.0795" lon="7.28891">
        <ele>234.60000610352</ele>
        <time>2017-07-20T13:32:07Z</time>
      </trkpt>
      <trkpt lat="48.07953" lon="7.28887">
        <ele>234.60000610352</ele>
        <time>2017-07-20T13:32:08Z</time>
      </trkpt>
      <trkpt lat="48.07984" lon="7.28848">
        <ele>235</ele>
        <time>2017-07-20T13:32:17Z</time>
      </trkpt>
      <trkpt lat="48.08012" lon="7.28813">
        <ele>235</ele>
        <time>2017-07-20T13:32:25Z</time>
      </trkpt>
      <trkpt lat="48.08039" lon="7.28778">
        <ele>234.80000305176</ele>
        <time>2017-07-20T13:32:33Z</time>
      </trkpt>
      <trkpt lat="48.0807" lon="7.28738">
        <ele>235.19999694824</ele>
        <time>2017-07-20T13:32:42Z</time>
      </trkpt>
      <trkpt lat="48.08104" lon="7.28693">
        <ele>235.39999389648</ele>
        <time>2017-07-20T13:32:52Z</time>
      </trkpt>
      <trkpt lat="48.08133" lon="7.28659">
        <ele>235.19999694824</ele>
        <time>2017-07-20T13:33:00Z</time>
      </trkpt>
      <trkpt lat="48.08151" lon="7.28637">
        <ele>235.19999694824</ele>
        <time>2017-07-20T13:33:05Z</time>
      </trkpt>
      <trkpt lat="48.08157" lon="7.28626">
        <ele>235.19999694824</ele>
        <time>2017-07-20T13:33:07Z</time>
      </trkpt>
      <trkpt lat="48.08171" lon="7.28599">
        <ele>235.60000610352</ele>
        <time>2017-07-20T13:33:12Z</time>
      </trkpt>
      <trkpt lat="48.08173" lon="7.28593">
        <ele>235.60000610352</ele>
        <time>2017-07-20T13:33:13Z</time>
      </trkpt>
      <trkpt lat="48.08181" lon="7.28568">
        <ele>235.39999389648</ele>
        <time>2017-07-20T13:33:17Z</time>
      </trkpt>
      <trkpt lat="48.0819" lon="7.28536">
        <ele>235.60000610352</ele>
        <time>2017-07-20T13:33:22Z</time>
      </trkpt>
      <trkpt lat="48.08192" lon="7.2853">
        <ele>235.60000610352</ele>
        <time>2017-07-20T13:33:23Z</time>
      </trkpt>
      <trkpt lat="48.082" lon="7.28515">
        <ele>235.60000610352</ele>
        <time>2017-07-20T13:33:26Z</time>
      </trkpt>
      <trkpt lat="48.08202" lon="7.2851">
        <ele>235.60000610352</ele>
        <time>2017-07-20T13:33:27Z</time>
      </trkpt>
      <trkpt lat="48.08218" lon="7.28471">
        <ele>235.80000305176</ele>
        <time>2017-07-20T13:33:34Z</time>
      </trkpt>
      <trkpt lat="48.08238" lon="7.28432">
        <ele>235.80000305176</ele>
        <time>2017-07-20T13:33:41Z</time>
      </trkpt>
      <trkpt lat="48.08251" lon="7.28411">
        <ele>235.60000610352</ele>
        <time>2017-07-20T13:33:45Z</time>
      </trkpt>
      <trkpt lat="48.08262" lon="7.28401">
        <ele>235.80000305176</ele>
        <time>2017-07-20T13:33:48Z</time>
      </trkpt>
      <trkpt lat="48.08288" lon="7.28378">
        <ele>235.60000610352</ele>
        <time>2017-07-20T13:33:55Z</time>
      </trkpt>
      <trkpt lat="48.08295" lon="7.28376">
        <ele>235.39999389648</ele>
        <time>2017-07-20T13:33:57Z</time>
      </trkpt>
      <trkpt lat="48.08297" lon="7.28376">
        <ele>235.19999694824</ele>
        <time>2017-07-20T13:33:58Z</time>
      </trkpt>
      <trkpt lat="48.08304" lon="7.28385">
        <ele>235</ele>
        <time>2017-07-20T13:34:03Z</time>
      </trkpt>
      <trkpt lat="48.08308" lon="7.28397">
        <ele>234.39999389648</ele>
        <time>2017-07-20T13:35:13Z</time>
      </trkpt>
      <trkpt lat="48.0831" lon="7.28415">
        <ele>234.39999389648</ele>
        <time>2017-07-20T13:35:17Z</time>
      </trkpt>
      <trkpt lat="48.08316" lon="7.28457">
        <ele>234.60000610352</ele>
        <time>2017-07-20T13:35:23Z</time>
      </trkpt>
      <trkpt lat="48.08321" lon="7.28495">
        <ele>234.60000610352</ele>
        <time>2017-07-20T13:35:28Z</time>
      </trkpt>
      <trkpt lat="48.08324" lon="7.28509">
        <ele>234.80000305176</ele>
        <time>2017-07-20T13:35:30Z</time>
      </trkpt>
      <trkpt lat="48.08338" lon="7.28572">
        <ele>234.60000610352</ele>
        <time>2017-07-20T13:35:38Z</time>
      </trkpt>
      <trkpt lat="48.0835" lon="7.28642">
        <ele>234.19999694824</ele>
        <time>2017-07-20T13:35:46Z</time>
      </trkpt>
      <trkpt lat="48.08362" lon="7.28706">
        <ele>233.60000610352</ele>
        <time>2017-07-20T13:35:54Z</time>
      </trkpt>
      <trkpt lat="48.08363" lon="7.28714">
        <ele>233.39999389648</ele>
        <time>2017-07-20T13:35:56Z</time>
      </trkpt>
      <trkpt lat="48.08361" lon="7.28722">
        <ele>233.19999694824</ele>
        <time>2017-07-20T13:35:58Z</time>
      </trkpt>
      <trkpt lat="48.08359" lon="7.28729">
        <ele>233</ele>
        <time>2017-07-20T13:36:02Z</time>
      </trkpt>
      <trkpt lat="48.08359" lon="7.28731">
        <ele>233</ele>
        <time>2017-07-20T13:36:15Z</time>
      </trkpt>
      <trkpt lat="48.08358" lon="7.28736">
        <ele>233</ele>
        <time>2017-07-20T13:36:17Z</time>
      </trkpt>
      <trkpt lat="48.08359" lon="7.28738">
        <ele>232.80000305176</ele>
        <time>2017-07-20T13:36:59Z</time>
      </trkpt>
      <trkpt lat="48.0836" lon="7.28739">
        <ele>232.80000305176</ele>
        <time>2017-07-20T13:37:00Z</time>
      </trkpt>
      <trkpt lat="48.08362" lon="7.2873">
        <ele>233</ele>
        <time>2017-07-20T13:37:04Z</time>
      </trkpt>
      <trkpt lat="48.08363" lon="7.28727">
        <ele>233</ele>
        <time>2017-07-20T13:37:05Z</time>
      </trkpt>
      <trkpt lat="48.08369" lon="7.28711">
        <ele>233.19999694824</ele>
        <time>2017-07-20T13:37:09Z</time>
      </trkpt>
      <trkpt lat="48.08378" lon="7.28701">
        <ele>233.19999694824</ele>
        <time>2017-07-20T13:37:12Z</time>
      </trkpt>
      <trkpt lat="48.08386" lon="7.28695">
        <ele>233.19999694824</ele>
        <time>2017-07-20T13:37:14Z</time>
      </trkpt>
      <trkpt lat="48.08423" lon="7.28674">
        <ele>233</ele>
        <time>2017-07-20T13:37:23Z</time>
      </trkpt>
      <trkpt lat="48.0843" lon="7.28672">
        <ele>232.80000305176</ele>
        <time>2017-07-20T13:38:35Z</time>
      </trkpt>
      <trkpt lat="48.08435" lon="7.28672">
        <ele>232.60000610352</ele>
        <time>2017-07-20T13:38:37Z</time>
      </trkpt>
      <trkpt lat="48.08453" lon="7.28677">
        <ele>232.60000610352</ele>
        <time>2017-07-20T13:38:42Z</time>
      </trkpt>
      <trkpt lat="48.08469" lon="7.28679">
        <ele>232.60000610352</ele>
        <time>2017-07-20T13:38:46Z</time>
      </trkpt>
      <trkpt lat="48.08473" lon="7.28681">
        <ele>232.60000610352</ele>
        <time>2017-07-20T13:38:47Z</time>
      </trkpt>
      <trkpt lat="48.08488" lon="7.2869">
        <ele>232.39999389648</ele>
        <time>2017-07-20T13:38:50Z</time>
      </trkpt>
      <trkpt lat="48.08497" lon="7.28686">
        <ele>232.39999389648</ele>
        <time>2017-07-20T13:38:52Z</time>
      </trkpt>
      <trkpt lat="48.08502" lon="7.28665">
        <ele>232.80000305176</ele>
        <time>2017-07-20T13:38:55Z</time>
      </trkpt>
      <trkpt lat="48.08507" lon="7.28626">
        <ele>233.39999389648</ele>
        <time>2017-07-20T13:39:00Z</time>
      </trkpt>
      <trkpt lat="48.08512" lon="7.28573">
        <ele>233.80000305176</ele>
        <time>2017-07-20T13:39:07Z</time>
      </trkpt>
      <trkpt lat="48.08514" lon="7.28545">
        <ele>233.60000610352</ele>
        <time>2017-07-20T13:39:11Z</time>
      </trkpt>
      <trkpt lat="48.0852" lon="7.28495">
        <ele>233.60000610352</ele>
        <time>2017-07-20T13:39:18Z</time>
      </trkpt>
      <trkpt lat="48.08527" lon="7.28423">
        <ele>233.60000610352</ele>
        <time>2017-07-20T13:39:28Z</time>
      </trkpt>
      <trkpt lat="48.08531" lon="7.2836">
        <ele>234.19999694824</ele>
        <time>2017-07-20T13:39:37Z</time>
      </trkpt>
      <trkpt lat="48.08531" lon="7.28332">
        <ele>234</ele>
        <time>2017-07-20T13:39:42Z</time>
      </trkpt>
      <trkpt lat="48.08531" lon="7.28315">
        <ele>234.19999694824</ele>
        <time>2017-07-20T13:39:47Z</time>
      </trkpt>
      <trkpt lat="48.0853" lon="7.283">
        <ele>234.39999389648</ele>
        <time>2017-07-20T13:39:50Z</time>
      </trkpt>
      <trkpt lat="48.08528" lon="7.28279">
        <ele>234.60000610352</ele>
        <time>2017-07-20T13:39:54Z</time>
      </trkpt>
      <trkpt lat="48.08519" lon="7.28252">
        <ele>234.60000610352</ele>
        <time>2017-07-20T13:40:00Z</time>
      </trkpt>
      <trkpt lat="48.08518" lon="7.28243">
        <ele>234.39999389648</ele>
        <time>2017-07-20T13:40:12Z</time>
      </trkpt>
      <trkpt lat="48.0852" lon="7.28247">
        <ele>234.39999389648</ele>
        <time>2017-07-20T13:40:14Z</time>
      </trkpt>
      <trkpt lat="48.08521" lon="7.28259">
        <ele>234.39999389648</ele>
        <time>2017-07-20T13:40:17Z</time>
      </trkpt>
      <trkpt lat="48.08522" lon="7.28268">
        <ele>234.39999389648</ele>
        <time>2017-07-20T13:40:19Z</time>
      </trkpt>
      <trkpt lat="48.08526" lon="7.28297">
        <ele>234.39999389648</ele>
        <time>2017-07-20T13:40:26Z</time>
      </trkpt>
      <trkpt lat="48.08528" lon="7.28329">
        <ele>234.19999694824</ele>
        <time>2017-07-20T13:40:33Z</time>
      </trkpt>
      <trkpt lat="48.08527" lon="7.28335">
        <ele>234.19999694824</ele>
        <time>2017-07-20T13:40:35Z</time>
      </trkpt>
      <trkpt lat="48.08522" lon="7.28339">
        <ele>234.19999694824</ele>
        <time>2017-07-20T13:40:37Z</time>
      </trkpt>
      <trkpt lat="48.08515" lon="7.2834">
        <ele>234</ele>
        <time>2017-07-20T13:40:39Z</time>
      </trkpt>
      <trkpt lat="48.08505" lon="7.28341">
        <ele>234.19999694824</ele>
        <time>2017-07-20T13:40:42Z</time>
      </trkpt>
      <trkpt lat="48.08499" lon="7.28339">
        <ele>234.80000305176</ele>
        <time>2017-07-20T13:42:41Z</time>
      </trkpt>
      <trkpt lat="48.08511" lon="7.28338">
        <ele>234.60000610352</ele>
        <time>2017-07-20T13:42:47Z</time>
      </trkpt>
      <trkpt lat="48.08526" lon="7.28332">
        <ele>234.39999389648</ele>
        <time>2017-07-20T13:42:54Z</time>
      </trkpt>
      <trkpt lat="48.08526" lon="7.28317">
        <ele>234.19999694824</ele>
        <time>2017-07-20T13:42:58Z</time>
      </trkpt>
      <trkpt lat="48.08526" lon="7.28312">
        <ele>234.19999694824</ele>
        <time>2017-07-20T13:42:59Z</time>
      </trkpt>
      <trkpt lat="48.08527" lon="7.28293">
        <ele>234.19999694824</ele>
        <time>2017-07-20T13:43:04Z</time>
      </trkpt>
      <trkpt lat="48.08526" lon="7.28269">
        <ele>234.39999389648</ele>
        <time>2017-07-20T13:43:09Z</time>
      </trkpt>
      <trkpt lat="48.08523" lon="7.28251">
        <ele>234.39999389648</ele>
        <time>2017-07-20T13:43:12Z</time>
      </trkpt>
      <trkpt lat="48.0852" lon="7.28229">
        <ele>234.60000610352</ele>
        <time>2017-07-20T13:43:16Z</time>
      </trkpt>
      <trkpt lat="48.08515" lon="7.28195">
        <ele>234.80000305176</ele>
        <time>2017-07-20T13:43:23Z</time>
      </trkpt>
      <trkpt lat="48.08514" lon="7.28192">
        <ele>234.80000305176</ele>
        <time>2017-07-20T13:43:24Z</time>
      </trkpt>
      <trkpt lat="48.08509" lon="7.28189">
        <ele>234.80000305176</ele>
        <time>2017-07-20T13:43:26Z</time>
      </trkpt>
      <trkpt lat="48.08504" lon="7.28195">
        <ele>235</ele>
        <time>2017-07-20T13:43:29Z</time>
      </trkpt>
      <trkpt lat="48.08504" lon="7.28208">
        <ele>234.80000305176</ele>
        <time>2017-07-20T13:43:34Z</time>
      </trkpt>
      <trkpt lat="48.08495" lon="7.28214">
        <ele>234.80000305176</ele>
        <time>2017-07-20T13:43:38Z</time>
      </trkpt>
      <trkpt lat="48.08493" lon="7.28215">
        <ele>234.80000305176</ele>
        <time>2017-07-20T13:43:39Z</time>
      </trkpt>
      <trkpt lat="48.08492" lon="7.28218">
        <ele>234.80000305176</ele>
        <time>2017-07-20T13:43:41Z</time>
      </trkpt>
      <trkpt lat="48.08492" lon="7.28209">
        <ele>234.39999389648</ele>
        <time>2017-07-20T13:46:53Z</time>
      </trkpt>
      <trkpt lat="48.08493" lon="7.28202">
        <ele>234.60000610352</ele>
        <time>2017-07-20T13:46:56Z</time>
      </trkpt>
      <trkpt lat="48.08501" lon="7.28199">
        <ele>235</ele>
        <time>2017-07-20T13:47:00Z</time>
      </trkpt>
      <trkpt lat="48.08506" lon="7.282">
        <ele>235</ele>
        <time>2017-07-20T13:47:02Z</time>
      </trkpt>
      <trkpt lat="48.08509" lon="7.28199">
        <ele>234.80000305176</ele>
        <time>2017-07-20T13:47:04Z</time>
      </trkpt>
      <trkpt lat="48.08509" lon="7.28197">
        <ele>234.80000305176</ele>
        <time>2017-07-20T13:47:05Z</time>
      </trkpt>
      <trkpt lat="48.08509" lon="7.28186">
        <ele>234.60000610352</ele>
        <time>2017-07-20T13:47:10Z</time>
      </trkpt>
      <trkpt lat="48.08509" lon="7.28172">
        <ele>235.19999694824</ele>
        <time>2017-07-20T13:47:17Z</time>
      </trkpt>
      <trkpt lat="48.08512" lon="7.2816">
        <ele>235.19999694824</ele>
        <time>2017-07-20T13:47:22Z</time>
      </trkpt>
      <trkpt lat="48.0852" lon="7.28139">
        <ele>235.19999694824</ele>
        <time>2017-07-20T13:47:27Z</time>
      </trkpt>
      <trkpt lat="48.08522" lon="7.28134">
        <ele>235.19999694824</ele>
        <time>2017-07-20T13:47:28Z</time>
      </trkpt>
      <trkpt lat="48.08531" lon="7.28113">
        <ele>235</ele>
        <time>2017-07-20T13:47:34Z</time>
      </trkpt>
      <trkpt lat="48.0854" lon="7.28098">
        <ele>235.19999694824</ele>
        <time>2017-07-20T13:47:41Z</time>
      </trkpt>
      <trkpt lat="48.08551" lon="7.28079">
        <ele>235.19999694824</ele>
        <time>2017-07-20T13:47:47Z</time>
      </trkpt>
      <trkpt lat="48.08565" lon="7.28054">
        <ele>235.39999389648</ele>
        <time>2017-07-20T13:47:53Z</time>
      </trkpt>
      <trkpt lat="48.08569" lon="7.28046">
        <ele>235.60000610352</ele>
        <time>2017-07-20T13:47:55Z</time>
      </trkpt>
      <trkpt lat="48.08585" lon="7.28016">
        <ele>236</ele>
        <time>2017-07-20T13:48:03Z</time>
      </trkpt>
      <trkpt lat="48.08598" lon="7.27992">
        <ele>236.39999389648</ele>
        <time>2017-07-20T13:48:09Z</time>
      </trkpt>
      <trkpt lat="48.086" lon="7.27988">
        <ele>236.39999389648</ele>
        <time>2017-07-20T13:48:10Z</time>
      </trkpt>
      <trkpt lat="48.0862" lon="7.27952">
        <ele>236.60000610352</ele>
        <time>2017-07-20T13:48:19Z</time>
      </trkpt>
      <trkpt lat="48.08629" lon="7.27934">
        <ele>236.60000610352</ele>
        <time>2017-07-20T13:48:25Z</time>
      </trkpt>
      <trkpt lat="48.08628" lon="7.27914">
        <ele>237.19999694824</ele>
        <time>2017-07-20T13:48:30Z</time>
      </trkpt>
      <trkpt lat="48.0862" lon="7.27878">
        <ele>236.80000305176</ele>
        <time>2017-07-20T13:48:37Z</time>
      </trkpt>
      <trkpt lat="48.08612" lon="7.27858">
        <ele>237</ele>
        <time>2017-07-20T13:48:41Z</time>
      </trkpt>
      <trkpt lat="48.08609" lon="7.27846">
        <ele>237</ele>
        <time>2017-07-20T13:48:43Z</time>
      </trkpt>
      <trkpt lat="48.08599" lon="7.2781">
        <ele>237.19999694824</ele>
        <time>2017-07-20T13:48:49Z</time>
      </trkpt>
      <trkpt lat="48.08598" lon="7.27802">
        <ele>237.19999694824</ele>
        <time>2017-07-20T13:48:50Z</time>
      </trkpt>
      <trkpt lat="48.08591" lon="7.27747">
        <ele>237</ele>
        <time>2017-07-20T13:48:58Z</time>
      </trkpt>
      <trkpt lat="48.08586" lon="7.277">
        <ele>236.80000305176</ele>
        <time>2017-07-20T13:49:05Z</time>
      </trkpt>
      <trkpt lat="48.08583" lon="7.27664">
        <ele>236.80000305176</ele>
        <time>2017-07-20T13:49:11Z</time>
      </trkpt>
      <trkpt lat="48.0858" lon="7.27639">
        <ele>237</ele>
        <time>2017-07-20T13:49:15Z</time>
      </trkpt>
      <trkpt lat="48.08579" lon="7.27626">
        <ele>237</ele>
        <time>2017-07-20T13:49:17Z</time>
      </trkpt>
      <trkpt lat="48.08576" lon="7.27588">
        <ele>237.60000610352</ele>
        <time>2017-07-20T13:49:23Z</time>
      </trkpt>
      <trkpt lat="48.08576" lon="7.27582">
        <ele>237.60000610352</ele>
        <time>2017-07-20T13:49:24Z</time>
      </trkpt>
      <trkpt lat="48.08573" lon="7.27528">
        <ele>237.80000305176</ele>
        <time>2017-07-20T13:49:32Z</time>
      </trkpt>
      <trkpt lat="48.0857" lon="7.27475">
        <ele>238.39999389648</ele>
        <time>2017-07-20T13:49:40Z</time>
      </trkpt>
      <trkpt lat="48.08568" lon="7.27422">
        <ele>238.39999389648</ele>
        <time>2017-07-20T13:49:49Z</time>
      </trkpt>
      <trkpt lat="48.08568" lon="7.27416">
        <ele>238.39999389648</ele>
        <time>2017-07-20T13:49:50Z</time>
      </trkpt>
      <trkpt lat="48.08567" lon="7.27383">
        <ele>238.60000610352</ele>
        <time>2017-07-20T13:49:55Z</time>
      </trkpt>
      <trkpt lat="48.08568" lon="7.2737">
        <ele>238.60000610352</ele>
        <time>2017-07-20T13:49:57Z</time>
      </trkpt>
      <trkpt lat="48.08568" lon="7.27317">
        <ele>239</ele>
        <time>2017-07-20T13:50:05Z</time>
      </trkpt>
      <trkpt lat="48.08569" lon="7.27265">
        <ele>239</ele>
        <time>2017-07-20T13:50:13Z</time>
      </trkpt>
      <trkpt lat="48.08571" lon="7.27214">
        <ele>239.39999389648</ele>
        <time>2017-07-20T13:50:21Z</time>
      </trkpt>
      <trkpt lat="48.08572" lon="7.27201">
        <ele>239.60000610352</ele>
        <time>2017-07-20T13:50:23Z</time>
      </trkpt>
      <trkpt lat="48.08574" lon="7.27182">
        <ele>239.60000610352</ele>
        <time>2017-07-20T13:50:26Z</time>
      </trkpt>
      <trkpt lat="48.08574" lon="7.2717">
        <ele>239.80000305176</ele>
        <time>2017-07-20T13:50:28Z</time>
      </trkpt>
      <trkpt lat="48.08578" lon="7.27123">
        <ele>240</ele>
        <time>2017-07-20T13:50:36Z</time>
      </trkpt>
      <trkpt lat="48.08581" lon="7.27077">
        <ele>240.60000610352</ele>
        <time>2017-07-20T13:50:44Z</time>
      </trkpt>
      <trkpt lat="48.08582" lon="7.27071">
        <ele>240.80000305176</ele>
        <time>2017-07-20T13:50:45Z</time>
      </trkpt>
      <trkpt lat="48.08585" lon="7.27026">
        <ele>241.39999389648</ele>
        <time>2017-07-20T13:50:53Z</time>
      </trkpt>
      <trkpt lat="48.08586" lon="7.27002">
        <ele>241.60000610352</ele>
        <time>2017-07-20T13:50:57Z</time>
      </trkpt>
      <trkpt lat="48.08587" lon="7.26969">
        <ele>241.60000610352</ele>
        <time>2017-07-20T13:51:02Z</time>
      </trkpt>
      <trkpt lat="48.08588" lon="7.26907">
        <ele>241.19999694824</ele>
        <time>2017-07-20T13:51:11Z</time>
      </trkpt>
      <trkpt lat="48.08587" lon="7.26894">
        <ele>241</ele>
        <time>2017-07-20T13:51:13Z</time>
      </trkpt>
      <trkpt lat="48.08583" lon="7.26879">
        <ele>241</ele>
        <time>2017-07-20T13:51:16Z</time>
      </trkpt>
      <trkpt lat="48.08582" lon="7.26876">
        <ele>241</ele>
        <time>2017-07-20T13:51:17Z</time>
      </trkpt>
      <trkpt lat="48.08583" lon="7.2687">
        <ele>241.19999694824</ele>
        <time>2017-07-20T13:54:32Z</time>
      </trkpt>
      <trkpt lat="48.08586" lon="7.26864">
        <ele>241.19999694824</ele>
        <time>2017-07-20T13:54:35Z</time>
      </trkpt>
      <trkpt lat="48.08587" lon="7.26846">
        <ele>241.39999389648</ele>
        <time>2017-07-20T13:54:39Z</time>
      </trkpt>
      <trkpt lat="48.08585" lon="7.26801">
        <ele>241.39999389648</ele>
        <time>2017-07-20T13:54:47Z</time>
      </trkpt>
      <trkpt lat="48.08582" lon="7.2675">
        <ele>241.39999389648</ele>
        <time>2017-07-20T13:54:56Z</time>
      </trkpt>
      <trkpt lat="48.08579" lon="7.26707">
        <ele>241.19999694824</ele>
        <time>2017-07-20T13:55:03Z</time>
      </trkpt>
      <trkpt lat="48.08576" lon="7.26661">
        <ele>241.80000305176</ele>
        <time>2017-07-20T13:55:11Z</time>
      </trkpt>
      <trkpt lat="48.0857" lon="7.2662">
        <ele>242.19999694824</ele>
        <time>2017-07-20T13:55:18Z</time>
      </trkpt>
      <trkpt lat="48.08562" lon="7.2658">
        <ele>242.60000610352</ele>
        <time>2017-07-20T13:55:25Z</time>
      </trkpt>
      <trkpt lat="48.08549" lon="7.26534">
        <ele>242.60000610352</ele>
        <time>2017-07-20T13:55:33Z</time>
      </trkpt>
      <trkpt lat="48.08545" lon="7.26524">
        <ele>242.60000610352</ele>
        <time>2017-07-20T13:55:35Z</time>
      </trkpt>
      <trkpt lat="48.08534" lon="7.2649">
        <ele>243</ele>
        <time>2017-07-20T13:55:41Z</time>
      </trkpt>
      <trkpt lat="48.08519" lon="7.26435">
        <ele>243.19999694824</ele>
        <time>2017-07-20T13:55:50Z</time>
      </trkpt>
      <trkpt lat="48.08508" lon="7.26399">
        <ele>243.60000610352</ele>
        <time>2017-07-20T13:55:56Z</time>
      </trkpt>
      <trkpt lat="48.08505" lon="7.26388">
        <ele>243.80000305176</ele>
        <time>2017-07-20T13:55:58Z</time>
      </trkpt>
      <trkpt lat="48.08491" lon="7.26342">
        <ele>244.19999694824</ele>
        <time>2017-07-20T13:56:06Z</time>
      </trkpt>
      <trkpt lat="48.08489" lon="7.26337">
        <ele>244.19999694824</ele>
        <time>2017-07-20T13:56:07Z</time>
      </trkpt>
      <trkpt lat="48.08476" lon="7.26293">
        <ele>244.60000610352</ele>
        <time>2017-07-20T13:56:15Z</time>
      </trkpt>
      <trkpt lat="48.08474" lon="7.26288">
        <ele>244.60000610352</ele>
        <time>2017-07-20T13:56:16Z</time>
      </trkpt>
      <trkpt lat="48.08463" lon="7.2625">
        <ele>244.80000305176</ele>
        <time>2017-07-20T13:56:23Z</time>
      </trkpt>
      <trkpt lat="48.0845" lon="7.26208">
        <ele>245</ele>
        <time>2017-07-20T13:56:31Z</time>
      </trkpt>
      <trkpt lat="48.08437" lon="7.26168">
        <ele>245.60000610352</ele>
        <time>2017-07-20T13:56:39Z</time>
      </trkpt>
      <trkpt lat="48.08434" lon="7.26157">
        <ele>245.80000305176</ele>
        <time>2017-07-20T13:56:41Z</time>
      </trkpt>
      <trkpt lat="48.08425" lon="7.26128">
        <ele>246.19999694824</ele>
        <time>2017-07-20T13:56:47Z</time>
      </trkpt>
      <trkpt lat="48.08418" lon="7.26099">
        <ele>246.80000305176</ele>
        <time>2017-07-20T13:56:53Z</time>
      </trkpt>
      <trkpt lat="48.08411" lon="7.26058">
        <ele>247.60000610352</ele>
        <time>2017-07-20T13:57:01Z</time>
      </trkpt>
      <trkpt lat="48.08409" lon="7.26048">
        <ele>248</ele>
        <time>2017-07-20T13:57:03Z</time>
      </trkpt>
      <trkpt lat="48.08403" lon="7.26015">
        <ele>248.60000610352</ele>
        <time>2017-07-20T13:57:10Z</time>
      </trkpt>
      <trkpt lat="48.08399" lon="7.25992">
        <ele>249</ele>
        <time>2017-07-20T13:57:15Z</time>
      </trkpt>
      <trkpt lat="48.08397" lon="7.25979">
        <ele>249.39999389648</ele>
        <time>2017-07-20T13:57:18Z</time>
      </trkpt>
      <trkpt lat="48.08393" lon="7.25952">
        <ele>250</ele>
        <time>2017-07-20T13:57:24Z</time>
      </trkpt>
      <trkpt lat="48.08392" lon="7.25948">
        <ele>250</ele>
        <time>2017-07-20T13:57:25Z</time>
      </trkpt>
      <trkpt lat="48.08388" lon="7.25912">
        <ele>251</ele>
        <time>2017-07-20T13:57:33Z</time>
      </trkpt>
      <trkpt lat="48.08388" lon="7.25903">
        <ele>251.19999694824</ele>
        <time>2017-07-20T13:57:35Z</time>
      </trkpt>
      <trkpt lat="48.08387" lon="7.25874">
        <ele>252</ele>
        <time>2017-07-20T13:57:42Z</time>
      </trkpt>
      <trkpt lat="48.08387" lon="7.2587">
        <ele>252</ele>
        <time>2017-07-20T13:57:43Z</time>
      </trkpt>
      <trkpt lat="48.08386" lon="7.25845">
        <ele>253</ele>
        <time>2017-07-20T13:57:49Z</time>
      </trkpt>
      <trkpt lat="48.08386" lon="7.25841">
        <ele>253.19999694824</ele>
        <time>2017-07-20T13:57:50Z</time>
      </trkpt>
      <trkpt lat="48.08384" lon="7.25817">
        <ele>254</ele>
        <time>2017-07-20T13:57:56Z</time>
      </trkpt>
      <trkpt lat="48.08384" lon="7.25813">
        <ele>254.19999694824</ele>
        <time>2017-07-20T13:57:57Z</time>
      </trkpt>
      <trkpt lat="48.08383" lon="7.25789">
        <ele>254.80000305176</ele>
        <time>2017-07-20T13:58:03Z</time>
      </trkpt>
      <trkpt lat="48.08383" lon="7.25781">
        <ele>255.19999694824</ele>
        <time>2017-07-20T13:58:05Z</time>
      </trkpt>
      <trkpt lat="48.08383" lon="7.2576">
        <ele>256.20001220703</ele>
        <time>2017-07-20T13:58:10Z</time>
      </trkpt>
      <trkpt lat="48.08383" lon="7.25752">
        <ele>256.60000610352</ele>
        <time>2017-07-20T13:58:12Z</time>
      </trkpt>
      <trkpt lat="48.08383" lon="7.25729">
        <ele>257.39999389648</ele>
        <time>2017-07-20T13:58:18Z</time>
      </trkpt>
      <trkpt lat="48.08383" lon="7.25723">
        <ele>257.60000610352</ele>
        <time>2017-07-20T13:58:20Z</time>
      </trkpt>
      <trkpt lat="48.08383" lon="7.25705">
        <ele>258.39999389648</ele>
        <time>2017-07-20T13:58:25Z</time>
      </trkpt>
      <trkpt lat="48.08384" lon="7.25698">
        <ele>258.79998779297</ele>
        <time>2017-07-20T13:58:27Z</time>
      </trkpt>
      <trkpt lat="48.08383" lon="7.2568">
        <ele>259.39999389648</ele>
        <time>2017-07-20T13:58:32Z</time>
      </trkpt>
      <trkpt lat="48.08383" lon="7.25673">
        <ele>259.60000610352</ele>
        <time>2017-07-20T13:58:34Z</time>
      </trkpt>
      <trkpt lat="48.08382" lon="7.25651">
        <ele>260.60000610352</ele>
        <time>2017-07-20T13:58:40Z</time>
      </trkpt>
      <trkpt lat="48.08382" lon="7.25643">
        <ele>260.79998779297</ele>
        <time>2017-07-20T13:58:42Z</time>
      </trkpt>
      <trkpt lat="48.08383" lon="7.25621">
        <ele>261.60000610352</ele>
        <time>2017-07-20T13:58:48Z</time>
      </trkpt>
      <trkpt lat="48.08382" lon="7.25613">
        <ele>261.79998779297</ele>
        <time>2017-07-20T13:58:50Z</time>
      </trkpt>
      <trkpt lat="48.08382" lon="7.25596">
        <ele>262.79998779297</ele>
        <time>2017-07-20T13:58:55Z</time>
      </trkpt>
      <trkpt lat="48.08382" lon="7.25585">
        <ele>263.39999389648</ele>
        <time>2017-07-20T13:58:58Z</time>
      </trkpt>
      <trkpt lat="48.08381" lon="7.2557">
        <ele>263.79998779297</ele>
        <time>2017-07-20T13:59:02Z</time>
      </trkpt>
      <trkpt lat="48.08381" lon="7.25555">
        <ele>264.20001220703</ele>
        <time>2017-07-20T13:59:06Z</time>
      </trkpt>
      <trkpt lat="48.0838" lon="7.25537">
        <ele>264.79998779297</ele>
        <time>2017-07-20T13:59:11Z</time>
      </trkpt>
      <trkpt lat="48.0838" lon="7.25523">
        <ele>265.60000610352</ele>
        <time>2017-07-20T13:59:15Z</time>
      </trkpt>
      <trkpt lat="48.0838" lon="7.25516">
        <ele>265.79998779297</ele>
        <time>2017-07-20T13:59:17Z</time>
      </trkpt>
      <trkpt lat="48.08382" lon="7.25493">
        <ele>266.79998779297</ele>
        <time>2017-07-20T13:59:23Z</time>
      </trkpt>
      <trkpt lat="48.08385" lon="7.25466">
        <ele>267.79998779297</ele>
        <time>2017-07-20T13:59:31Z</time>
      </trkpt>
      <trkpt lat="48.08385" lon="7.25462">
        <ele>268</ele>
        <time>2017-07-20T13:59:32Z</time>
      </trkpt>
      <trkpt lat="48.08388" lon="7.25446">
        <ele>268.79998779297</ele>
        <time>2017-07-20T13:59:37Z</time>
      </trkpt>
      <trkpt lat="48.0839" lon="7.25439">
        <ele>269.20001220703</ele>
        <time>2017-07-20T13:59:39Z</time>
      </trkpt>
      <trkpt lat="48.08393" lon="7.25418">
        <ele>270</ele>
        <time>2017-07-20T13:59:45Z</time>
      </trkpt>
      <trkpt lat="48.08394" lon="7.25411">
        <ele>270.20001220703</ele>
        <time>2017-07-20T13:59:47Z</time>
      </trkpt>
      <trkpt lat="48.08397" lon="7.25394">
        <ele>270.79998779297</ele>
        <time>2017-07-20T13:59:52Z</time>
      </trkpt>
      <trkpt lat="48.08399" lon="7.25384">
        <ele>271.39999389648</ele>
        <time>2017-07-20T13:59:55Z</time>
      </trkpt>
      <trkpt lat="48.08402" lon="7.25363">
        <ele>272.60000610352</ele>
        <time>2017-07-20T14:00:01Z</time>
      </trkpt>
      <trkpt lat="48.08406" lon="7.25343">
        <ele>273.60000610352</ele>
        <time>2017-07-20T14:00:07Z</time>
      </trkpt>
      <trkpt lat="48.08407" lon="7.25336">
        <ele>273.79998779297</ele>
        <time>2017-07-20T14:00:09Z</time>
      </trkpt>
      <trkpt lat="48.0841" lon="7.25317">
        <ele>274.60000610352</ele>
        <time>2017-07-20T14:00:15Z</time>
      </trkpt>
      <trkpt lat="48.0841" lon="7.25313">
        <ele>274.79998779297</ele>
        <time>2017-07-20T14:00:16Z</time>
      </trkpt>
      <trkpt lat="48.08413" lon="7.25289">
        <ele>275.60000610352</ele>
        <time>2017-07-20T14:00:23Z</time>
      </trkpt>
      <trkpt lat="48.08414" lon="7.25286">
        <ele>275.79998779297</ele>
        <time>2017-07-20T14:00:24Z</time>
      </trkpt>
      <trkpt lat="48.08416" lon="7.25268">
        <ele>276.60000610352</ele>
        <time>2017-07-20T14:00:29Z</time>
      </trkpt>
      <trkpt lat="48.08417" lon="7.2526">
        <ele>277</ele>
        <time>2017-07-20T14:00:31Z</time>
      </trkpt>
      <trkpt lat="48.0842" lon="7.25246">
        <ele>277.79998779297</ele>
        <time>2017-07-20T14:00:35Z</time>
      </trkpt>
      <trkpt lat="48.0842" lon="7.25231">
        <ele>278.39999389648</ele>
        <time>2017-07-20T14:00:39Z</time>
      </trkpt>
      <trkpt lat="48.08419" lon="7.2522">
        <ele>278.79998779297</ele>
        <time>2017-07-20T14:00:42Z</time>
      </trkpt>
      <trkpt lat="48.08418" lon="7.25202">
        <ele>279.39999389648</ele>
        <time>2017-07-20T14:00:47Z</time>
      </trkpt>
      <trkpt lat="48.08417" lon="7.25191">
        <ele>279.79998779297</ele>
        <time>2017-07-20T14:00:50Z</time>
      </trkpt>
      <trkpt lat="48.08413" lon="7.25173">
        <ele>280.60000610352</ele>
        <time>2017-07-20T14:00:55Z</time>
      </trkpt>
      <trkpt lat="48.08413" lon="7.25169">
        <ele>281</ele>
        <time>2017-07-20T14:00:56Z</time>
      </trkpt>
      <trkpt lat="48.0841" lon="7.2514">
        <ele>281.79998779297</ele>
        <time>2017-07-20T14:01:04Z</time>
      </trkpt>
      <trkpt lat="48.08409" lon="7.25133">
        <ele>282</ele>
        <time>2017-07-20T14:01:06Z</time>
      </trkpt>
      <trkpt lat="48.08409" lon="7.25107">
        <ele>282.79998779297</ele>
        <time>2017-07-20T14:01:13Z</time>
      </trkpt>
      <trkpt lat="48.08409" lon="7.25103">
        <ele>283</ele>
        <time>2017-07-20T14:01:14Z</time>
      </trkpt>
      <trkpt lat="48.08408" lon="7.25082">
        <ele>284.39999389648</ele>
        <time>2017-07-20T14:01:20Z</time>
      </trkpt>
      <trkpt lat="48.08408" lon="7.25078">
        <ele>284.79998779297</ele>
        <time>2017-07-20T14:01:21Z</time>
      </trkpt>
      <trkpt lat="48.08409" lon="7.25055">
        <ele>285.39999389648</ele>
        <time>2017-07-20T14:01:27Z</time>
      </trkpt>
      <trkpt lat="48.08409" lon="7.25048">
        <ele>285.60000610352</ele>
        <time>2017-07-20T14:01:29Z</time>
      </trkpt>
      <trkpt lat="48.08408" lon="7.25021">
        <ele>286.39999389648</ele>
        <time>2017-07-20T14:01:36Z</time>
      </trkpt>
      <trkpt lat="48.08408" lon="7.25017">
        <ele>286.39999389648</ele>
        <time>2017-07-20T14:01:37Z</time>
      </trkpt>
      <trkpt lat="48.08408" lon="7.24991">
        <ele>288</ele>
        <time>2017-07-20T14:01:44Z</time>
      </trkpt>
      <trkpt lat="48.08407" lon="7.24983">
        <ele>288.39999389648</ele>
        <time>2017-07-20T14:01:46Z</time>
      </trkpt>
      <trkpt lat="48.08407" lon="7.24972">
        <ele>289</ele>
        <time>2017-07-20T14:01:49Z</time>
      </trkpt>
      <trkpt lat="48.08407" lon="7.24942">
        <ele>290</ele>
        <time>2017-07-20T14:01:57Z</time>
      </trkpt>
      <trkpt lat="48.08407" lon="7.24939">
        <ele>290.20001220703</ele>
        <time>2017-07-20T14:01:58Z</time>
      </trkpt>
      <trkpt lat="48.08407" lon="7.24921">
        <ele>290.79998779297</ele>
        <time>2017-07-20T14:02:03Z</time>
      </trkpt>
      <trkpt lat="48.08406" lon="7.24905">
        <ele>291.20001220703</ele>
        <time>2017-07-20T14:02:07Z</time>
      </trkpt>
      <trkpt lat="48.08407" lon="7.24887">
        <ele>292</ele>
        <time>2017-07-20T14:02:12Z</time>
      </trkpt>
      <trkpt lat="48.08406" lon="7.24879">
        <ele>292.20001220703</ele>
        <time>2017-07-20T14:02:14Z</time>
      </trkpt>
      <trkpt lat="48.08406" lon="7.24857">
        <ele>292.79998779297</ele>
        <time>2017-07-20T14:02:20Z</time>
      </trkpt>
      <trkpt lat="48.08407" lon="7.24846">
        <ele>293.39999389648</ele>
        <time>2017-07-20T14:02:23Z</time>
      </trkpt>
      <trkpt lat="48.08407" lon="7.24834">
        <ele>294</ele>
        <time>2017-07-20T14:02:26Z</time>
      </trkpt>
      <trkpt lat="48.08406" lon="7.24823">
        <ele>294.60000610352</ele>
        <time>2017-07-20T14:02:29Z</time>
      </trkpt>
      <trkpt lat="48.08407" lon="7.24801">
        <ele>295.60000610352</ele>
        <time>2017-07-20T14:02:35Z</time>
      </trkpt>
      <trkpt lat="48.08407" lon="7.24771">
        <ele>296.79998779297</ele>
        <time>2017-07-20T14:02:43Z</time>
      </trkpt>
      <trkpt lat="48.08409" lon="7.24749">
        <ele>297.60000610352</ele>
        <time>2017-07-20T14:02:49Z</time>
      </trkpt>
      <trkpt lat="48.0841" lon="7.24742">
        <ele>298</ele>
        <time>2017-07-20T14:02:51Z</time>
      </trkpt>
      <trkpt lat="48.08411" lon="7.24727">
        <ele>298.39999389648</ele>
        <time>2017-07-20T14:02:55Z</time>
      </trkpt>
      <trkpt lat="48.08413" lon="7.24704">
        <ele>299</ele>
        <time>2017-07-20T14:03:01Z</time>
      </trkpt>
      <trkpt lat="48.08413" lon="7.24696">
        <ele>299.39999389648</ele>
        <time>2017-07-20T14:03:03Z</time>
      </trkpt>
      <trkpt lat="48.08415" lon="7.24674">
        <ele>300</ele>
        <time>2017-07-20T14:03:09Z</time>
      </trkpt>
      <trkpt lat="48.08416" lon="7.24663">
        <ele>300.39999389648</ele>
        <time>2017-07-20T14:03:12Z</time>
      </trkpt>
      <trkpt lat="48.08416" lon="7.24641">
        <ele>301.20001220703</ele>
        <time>2017-07-20T14:03:18Z</time>
      </trkpt>
      <trkpt lat="48.08416" lon="7.24635">
        <ele>301.39999389648</ele>
        <time>2017-07-20T14:03:20Z</time>
      </trkpt>
      <trkpt lat="48.08419" lon="7.24616">
        <ele>302.20001220703</ele>
        <time>2017-07-20T14:03:25Z</time>
      </trkpt>
      <trkpt lat="48.0842" lon="7.24593">
        <ele>303</ele>
        <time>2017-07-20T14:03:31Z</time>
      </trkpt>
      <trkpt lat="48.0842" lon="7.24585">
        <ele>303.20001220703</ele>
        <time>2017-07-20T14:03:33Z</time>
      </trkpt>
      <trkpt lat="48.0842" lon="7.24569">
        <ele>303.79998779297</ele>
        <time>2017-07-20T14:03:38Z</time>
      </trkpt>
      <trkpt lat="48.08419" lon="7.24554">
        <ele>304.39999389648</ele>
        <time>2017-07-20T14:03:42Z</time>
      </trkpt>
      <trkpt lat="48.0842" lon="7.24537">
        <ele>305.20001220703</ele>
        <time>2017-07-20T14:03:47Z</time>
      </trkpt>
      <trkpt lat="48.08419" lon="7.2453">
        <ele>305.39999389648</ele>
        <time>2017-07-20T14:03:49Z</time>
      </trkpt>
      <trkpt lat="48.08419" lon="7.24514">
        <ele>306</ele>
        <time>2017-07-20T14:03:53Z</time>
      </trkpt>
      <trkpt lat="48.08419" lon="7.24503">
        <ele>306.39999389648</ele>
        <time>2017-07-20T14:03:56Z</time>
      </trkpt>
      <trkpt lat="48.08419" lon="7.2448">
        <ele>307.39999389648</ele>
        <time>2017-07-20T14:04:02Z</time>
      </trkpt>
      <trkpt lat="48.08419" lon="7.24476">
        <ele>307.39999389648</ele>
        <time>2017-07-20T14:04:03Z</time>
      </trkpt>
      <trkpt lat="48.08418" lon="7.24451">
        <ele>308.60000610352</ele>
        <time>2017-07-20T14:04:10Z</time>
      </trkpt>
      <trkpt lat="48.08418" lon="7.24447">
        <ele>309</ele>
        <time>2017-07-20T14:04:11Z</time>
      </trkpt>
      <trkpt lat="48.08418" lon="7.24423">
        <ele>309.79998779297</ele>
        <time>2017-07-20T14:04:17Z</time>
      </trkpt>
      <trkpt lat="48.08418" lon="7.24416">
        <ele>310</ele>
        <time>2017-07-20T14:04:19Z</time>
      </trkpt>
      <trkpt lat="48.08419" lon="7.24397">
        <ele>310.79998779297</ele>
        <time>2017-07-20T14:04:24Z</time>
      </trkpt>
      <trkpt lat="48.08418" lon="7.24388">
        <ele>311.20001220703</ele>
        <time>2017-07-20T14:04:27Z</time>
      </trkpt>
      <trkpt lat="48.08419" lon="7.2437">
        <ele>311.79998779297</ele>
        <time>2017-07-20T14:04:32Z</time>
      </trkpt>
      <trkpt lat="48.08419" lon="7.24362">
        <ele>312.39999389648</ele>
        <time>2017-07-20T14:04:34Z</time>
      </trkpt>
      <trkpt lat="48.08421" lon="7.24347">
        <ele>313</ele>
        <time>2017-07-20T14:04:38Z</time>
      </trkpt>
      <trkpt lat="48.08422" lon="7.24333">
        <ele>313.39999389648</ele>
        <time>2017-07-20T14:04:42Z</time>
      </trkpt>
      <trkpt lat="48.08422" lon="7.24324">
        <ele>314</ele>
        <time>2017-07-20T14:04:45Z</time>
      </trkpt>
      <trkpt lat="48.08423" lon="7.24317">
        <ele>314.20001220703</ele>
        <time>2017-07-20T14:04:47Z</time>
      </trkpt>
      <trkpt lat="48.08424" lon="7.24293">
        <ele>315.20001220703</ele>
        <time>2017-07-20T14:04:53Z</time>
      </trkpt>
      <trkpt lat="48.08426" lon="7.24271">
        <ele>316.20001220703</ele>
        <time>2017-07-20T14:04:59Z</time>
      </trkpt>
      <trkpt lat="48.08426" lon="7.24269">
        <ele>316.20001220703</ele>
        <time>2017-07-20T14:05:00Z</time>
      </trkpt>
      <trkpt lat="48.08429" lon="7.24253">
        <ele>317</ele>
        <time>2017-07-20T14:05:05Z</time>
      </trkpt>
      <trkpt lat="48.08429" lon="7.24245">
        <ele>317.39999389648</ele>
        <time>2017-07-20T14:05:07Z</time>
      </trkpt>
      <trkpt lat="48.08431" lon="7.24222">
        <ele>318.20001220703</ele>
        <time>2017-07-20T14:05:13Z</time>
      </trkpt>
      <trkpt lat="48.08432" lon="7.24215">
        <ele>318.39999389648</ele>
        <time>2017-07-20T14:05:15Z</time>
      </trkpt>
      <trkpt lat="48.08439" lon="7.24191">
        <ele>319.39999389648</ele>
        <time>2017-07-20T14:05:21Z</time>
      </trkpt>
      <trkpt lat="48.08443" lon="7.24171">
        <ele>320.20001220703</ele>
        <time>2017-07-20T14:05:26Z</time>
      </trkpt>
      <trkpt lat="48.08445" lon="7.24164">
        <ele>320.60000610352</ele>
        <time>2017-07-20T14:05:28Z</time>
      </trkpt>
      <trkpt lat="48.08448" lon="7.24153">
        <ele>321.20001220703</ele>
        <time>2017-07-20T14:05:31Z</time>
      </trkpt>
      <trkpt lat="48.08452" lon="7.24144">
        <ele>321.60000610352</ele>
        <time>2017-07-20T14:05:34Z</time>
      </trkpt>
      <trkpt lat="48.08457" lon="7.24132">
        <ele>322.20001220703</ele>
        <time>2017-07-20T14:05:38Z</time>
      </trkpt>
      <trkpt lat="48.08461" lon="7.24124">
        <ele>322.79998779297</ele>
        <time>2017-07-20T14:05:41Z</time>
      </trkpt>
      <trkpt lat="48.08469" lon="7.2411">
        <ele>323.60000610352</ele>
        <time>2017-07-20T14:05:46Z</time>
      </trkpt>
      <trkpt lat="48.0847" lon="7.24107">
        <ele>323.79998779297</ele>
        <time>2017-07-20T14:05:47Z</time>
      </trkpt>
      <trkpt lat="48.08481" lon="7.24086">
        <ele>324.79998779297</ele>
        <time>2017-07-20T14:05:54Z</time>
      </trkpt>
      <trkpt lat="48.08482" lon="7.24083">
        <ele>324.79998779297</ele>
        <time>2017-07-20T14:05:55Z</time>
      </trkpt>
      <trkpt lat="48.08497" lon="7.24061">
        <ele>325.79998779297</ele>
        <time>2017-07-20T14:06:03Z</time>
      </trkpt>
      <trkpt lat="48.08508" lon="7.24045">
        <ele>327</ele>
        <time>2017-07-20T14:06:09Z</time>
      </trkpt>
      <trkpt lat="48.0851" lon="7.24042">
        <ele>327</ele>
        <time>2017-07-20T14:06:10Z</time>
      </trkpt>
      <trkpt lat="48.08522" lon="7.24028">
        <ele>328</ele>
        <time>2017-07-20T14:06:16Z</time>
      </trkpt>
      <trkpt lat="48.08532" lon="7.24009">
        <ele>328.79998779297</ele>
        <time>2017-07-20T14:06:22Z</time>
      </trkpt>
      <trkpt lat="48.08535" lon="7.24002">
        <ele>329.20001220703</ele>
        <time>2017-07-20T14:06:24Z</time>
      </trkpt>
      <trkpt lat="48.08545" lon="7.23986">
        <ele>329.79998779297</ele>
        <time>2017-07-20T14:06:29Z</time>
      </trkpt>
      <trkpt lat="48.08549" lon="7.2398">
        <ele>330.20001220703</ele>
        <time>2017-07-20T14:06:31Z</time>
      </trkpt>
      <trkpt lat="48.08562" lon="7.23961">
        <ele>331</ele>
        <time>2017-07-20T14:06:37Z</time>
      </trkpt>
      <trkpt lat="48.08565" lon="7.23955">
        <ele>331.39999389648</ele>
        <time>2017-07-20T14:06:39Z</time>
      </trkpt>
      <trkpt lat="48.08576" lon="7.23937">
        <ele>332</ele>
        <time>2017-07-20T14:06:45Z</time>
      </trkpt>
      <trkpt lat="48.08582" lon="7.23928">
        <ele>332.39999389648</ele>
        <time>2017-07-20T14:06:48Z</time>
      </trkpt>
      <trkpt lat="48.08585" lon="7.23922">
        <ele>332.60000610352</ele>
        <time>2017-07-20T14:06:50Z</time>
      </trkpt>
      <trkpt lat="48.08599" lon="7.23907">
        <ele>333.39999389648</ele>
        <time>2017-07-20T14:06:56Z</time>
      </trkpt>
      <trkpt lat="48.08602" lon="7.23905">
        <ele>333.60000610352</ele>
        <time>2017-07-20T14:06:57Z</time>
      </trkpt>
      <trkpt lat="48.08614" lon="7.23893">
        <ele>334.39999389648</ele>
        <time>2017-07-20T14:07:03Z</time>
      </trkpt>
      <trkpt lat="48.08618" lon="7.2389">
        <ele>334.79998779297</ele>
        <time>2017-07-20T14:07:05Z</time>
      </trkpt>
      <trkpt lat="48.08631" lon="7.23884">
        <ele>335.60000610352</ele>
        <time>2017-07-20T14:07:10Z</time>
      </trkpt>
      <trkpt lat="48.08636" lon="7.23882">
        <ele>335.79998779297</ele>
        <time>2017-07-20T14:07:12Z</time>
      </trkpt>
      <trkpt lat="48.08645" lon="7.23877">
        <ele>336.60000610352</ele>
        <time>2017-07-20T14:07:16Z</time>
      </trkpt>
      <trkpt lat="48.08652" lon="7.23872">
        <ele>337</ele>
        <time>2017-07-20T14:07:19Z</time>
      </trkpt>
      <trkpt lat="48.08662" lon="7.23865">
        <ele>337.79998779297</ele>
        <time>2017-07-20T14:07:23Z</time>
      </trkpt>
      <trkpt lat="48.08674" lon="7.2386">
        <ele>338.39999389648</ele>
        <time>2017-07-20T14:07:28Z</time>
      </trkpt>
      <trkpt lat="48.08679" lon="7.23858">
        <ele>338.79998779297</ele>
        <time>2017-07-20T14:07:30Z</time>
      </trkpt>
      <trkpt lat="48.08694" lon="7.2385">
        <ele>339.60000610352</ele>
        <time>2017-07-20T14:07:36Z</time>
      </trkpt>
      <trkpt lat="48.087" lon="7.23846">
        <ele>339.79998779297</ele>
        <time>2017-07-20T14:07:38Z</time>
      </trkpt>
      <trkpt lat="48.08702" lon="7.23844">
        <ele>340</ele>
        <time>2017-07-20T14:07:39Z</time>
      </trkpt>
      <trkpt lat="48.08712" lon="7.23837">
        <ele>340.60000610352</ele>
        <time>2017-07-20T14:07:43Z</time>
      </trkpt>
      <trkpt lat="48.08717" lon="7.23833">
        <ele>341</ele>
        <time>2017-07-20T14:07:45Z</time>
      </trkpt>
      <trkpt lat="48.08729" lon="7.23829">
        <ele>341.39999389648</ele>
        <time>2017-07-20T14:07:49Z</time>
      </trkpt>
      <trkpt lat="48.08743" lon="7.23826">
        <ele>342.20001220703</ele>
        <time>2017-07-20T14:07:54Z</time>
      </trkpt>
      <trkpt lat="48.08748" lon="7.23826">
        <ele>342.60000610352</ele>
        <time>2017-07-20T14:07:56Z</time>
      </trkpt>
      <trkpt lat="48.0876" lon="7.23825">
        <ele>343.20001220703</ele>
        <time>2017-07-20T14:08:01Z</time>
      </trkpt>
      <trkpt lat="48.08768" lon="7.23822">
        <ele>343.79998779297</ele>
        <time>2017-07-20T14:08:04Z</time>
      </trkpt>
      <trkpt lat="48.08777" lon="7.2382">
        <ele>344.39999389648</ele>
        <time>2017-07-20T14:08:08Z</time>
      </trkpt>
      <trkpt lat="48.08782" lon="7.23819">
        <ele>344.79998779297</ele>
        <time>2017-07-20T14:08:10Z</time>
      </trkpt>
      <trkpt lat="48.08791" lon="7.23814">
        <ele>345.39999389648</ele>
        <time>2017-07-20T14:08:14Z</time>
      </trkpt>
      <trkpt lat="48.08797" lon="7.23807">
        <ele>345.79998779297</ele>
        <time>2017-07-20T14:08:17Z</time>
      </trkpt>
      <trkpt lat="48.08803" lon="7.23793">
        <ele>346.39999389648</ele>
        <time>2017-07-20T14:08:21Z</time>
      </trkpt>
      <trkpt lat="48.08807" lon="7.23784">
        <ele>346.79998779297</ele>
        <time>2017-07-20T14:08:24Z</time>
      </trkpt>
      <trkpt lat="48.08811" lon="7.23766">
        <ele>347.39999389648</ele>
        <time>2017-07-20T14:08:29Z</time>
      </trkpt>
      <trkpt lat="48.08812" lon="7.23758">
        <ele>347.79998779297</ele>
        <time>2017-07-20T14:08:31Z</time>
      </trkpt>
      <trkpt lat="48.08814" lon="7.2374">
        <ele>348.60000610352</ele>
        <time>2017-07-20T14:08:36Z</time>
      </trkpt>
      <trkpt lat="48.08815" lon="7.23737">
        <ele>348.79998779297</ele>
        <time>2017-07-20T14:08:37Z</time>
      </trkpt>
      <trkpt lat="48.08817" lon="7.23718">
        <ele>349.60000610352</ele>
        <time>2017-07-20T14:08:43Z</time>
      </trkpt>
      <trkpt lat="48.08817" lon="7.23715">
        <ele>349.79998779297</ele>
        <time>2017-07-20T14:08:44Z</time>
      </trkpt>
      <trkpt lat="48.08817" lon="7.237">
        <ele>350.60000610352</ele>
        <time>2017-07-20T14:08:49Z</time>
      </trkpt>
      <trkpt lat="48.08817" lon="7.23698">
        <ele>350.79998779297</ele>
        <time>2017-07-20T14:08:50Z</time>
      </trkpt>
      <trkpt lat="48.08818" lon="7.23675">
        <ele>351.79998779297</ele>
        <time>2017-07-20T14:08:57Z</time>
      </trkpt>
      <trkpt lat="48.08821" lon="7.23649">
        <ele>353</ele>
        <time>2017-07-20T14:09:04Z</time>
      </trkpt>
      <trkpt lat="48.08822" lon="7.23645">
        <ele>353</ele>
        <time>2017-07-20T14:09:05Z</time>
      </trkpt>
      <trkpt lat="48.08833" lon="7.2362">
        <ele>354</ele>
        <time>2017-07-20T14:09:12Z</time>
      </trkpt>
      <trkpt lat="48.08845" lon="7.2361">
        <ele>355</ele>
        <time>2017-07-20T14:09:17Z</time>
      </trkpt>
      <trkpt lat="48.0885" lon="7.23609">
        <ele>355.20001220703</ele>
        <time>2017-07-20T14:09:19Z</time>
      </trkpt>
      <trkpt lat="48.08859" lon="7.23611">
        <ele>355.79998779297</ele>
        <time>2017-07-20T14:09:22Z</time>
      </trkpt>
      <trkpt lat="48.08869" lon="7.23623">
        <ele>356.20001220703</ele>
        <time>2017-07-20T14:09:26Z</time>
      </trkpt>
      <trkpt lat="48.08871" lon="7.23627">
        <ele>356.39999389648</ele>
        <time>2017-07-20T14:09:27Z</time>
      </trkpt>
      <trkpt lat="48.08878" lon="7.23654">
        <ele>357.20001220703</ele>
        <time>2017-07-20T14:09:33Z</time>
      </trkpt>
      <trkpt lat="48.08878" lon="7.23659">
        <ele>357.20001220703</ele>
        <time>2017-07-20T14:09:34Z</time>
      </trkpt>
      <trkpt lat="48.08881" lon="7.23682">
        <ele>358</ele>
        <time>2017-07-20T14:09:40Z</time>
      </trkpt>
      <trkpt lat="48.08882" lon="7.2369">
        <ele>358.39999389648</ele>
        <time>2017-07-20T14:09:42Z</time>
      </trkpt>
      <trkpt lat="48.08885" lon="7.2371">
        <ele>359.20001220703</ele>
        <time>2017-07-20T14:09:47Z</time>
      </trkpt>
      <trkpt lat="48.08886" lon="7.2372">
        <ele>359.60000610352</ele>
        <time>2017-07-20T14:09:50Z</time>
      </trkpt>
      <trkpt lat="48.08888" lon="7.2373">
        <ele>360</ele>
        <time>2017-07-20T14:09:53Z</time>
      </trkpt>
      <trkpt lat="48.08892" lon="7.23742">
        <ele>360.60000610352</ele>
        <time>2017-07-20T14:09:57Z</time>
      </trkpt>
      <trkpt lat="48.08894" lon="7.23747">
        <ele>361</ele>
        <time>2017-07-20T14:09:59Z</time>
      </trkpt>
      <trkpt lat="48.08904" lon="7.23754">
        <ele>361.60000610352</ele>
        <time>2017-07-20T14:10:04Z</time>
      </trkpt>
      <trkpt lat="48.08906" lon="7.23755">
        <ele>361.79998779297</ele>
        <time>2017-07-20T14:10:05Z</time>
      </trkpt>
      <trkpt lat="48.08924" lon="7.23761">
        <ele>363</ele>
        <time>2017-07-20T14:10:12Z</time>
      </trkpt>
      <trkpt lat="48.08941" lon="7.23765">
        <ele>364.20001220703</ele>
        <time>2017-07-20T14:10:19Z</time>
      </trkpt>
      <trkpt lat="48.08955" lon="7.23767">
        <ele>365</ele>
        <time>2017-07-20T14:10:25Z</time>
      </trkpt>
      <trkpt lat="48.08957" lon="7.23768">
        <ele>365.20001220703</ele>
        <time>2017-07-20T14:10:26Z</time>
      </trkpt>
      <trkpt lat="48.08975" lon="7.23772">
        <ele>366.60000610352</ele>
        <time>2017-07-20T14:10:33Z</time>
      </trkpt>
      <trkpt lat="48.08989" lon="7.23775">
        <ele>367.60000610352</ele>
        <time>2017-07-20T14:10:39Z</time>
      </trkpt>
      <trkpt lat="48.08994" lon="7.23775">
        <ele>368</ele>
        <time>2017-07-20T14:10:41Z</time>
      </trkpt>
      <trkpt lat="48.08997" lon="7.23774">
        <ele>368</ele>
        <time>2017-07-20T14:10:42Z</time>
      </trkpt>
      <trkpt lat="48.09005" lon="7.23773">
        <ele>368.60000610352</ele>
        <time>2017-07-20T14:10:45Z</time>
      </trkpt>
      <trkpt lat="48.09012" lon="7.23772">
        <ele>369.20001220703</ele>
        <time>2017-07-20T14:10:48Z</time>
      </trkpt>
      <trkpt lat="48.09022" lon="7.23768">
        <ele>369.79998779297</ele>
        <time>2017-07-20T14:10:52Z</time>
      </trkpt>
      <trkpt lat="48.09028" lon="7.23764">
        <ele>370.39999389648</ele>
        <time>2017-07-20T14:10:55Z</time>
      </trkpt>
      <trkpt lat="48.09034" lon="7.2376">
        <ele>371</ele>
        <time>2017-07-20T14:10:58Z</time>
      </trkpt>
      <trkpt lat="48.09041" lon="7.23757">
        <ele>371.60000610352</ele>
        <time>2017-07-20T14:11:01Z</time>
      </trkpt>
      <trkpt lat="48.09048" lon="7.23755">
        <ele>372.20001220703</ele>
        <time>2017-07-20T14:11:04Z</time>
      </trkpt>
      <trkpt lat="48.09057" lon="7.23751">
        <ele>372.79998779297</ele>
        <time>2017-07-20T14:11:08Z</time>
      </trkpt>
      <trkpt lat="48.09065" lon="7.23751">
        <ele>373.20001220703</ele>
        <time>2017-07-20T14:11:11Z</time>
      </trkpt>
      <trkpt lat="48.09076" lon="7.23752">
        <ele>374</ele>
        <time>2017-07-20T14:11:16Z</time>
      </trkpt>
      <trkpt lat="48.09082" lon="7.23753">
        <ele>374.39999389648</ele>
        <time>2017-07-20T14:11:18Z</time>
      </trkpt>
      <trkpt lat="48.09097" lon="7.23755">
        <ele>375.39999389648</ele>
        <time>2017-07-20T14:11:24Z</time>
      </trkpt>
      <trkpt lat="48.09117" lon="7.23758">
        <ele>376.39999389648</ele>
        <time>2017-07-20T14:11:32Z</time>
      </trkpt>
      <trkpt lat="48.09119" lon="7.23758">
        <ele>376.60000610352</ele>
        <time>2017-07-20T14:11:33Z</time>
      </trkpt>
      <trkpt lat="48.09133" lon="7.23762">
        <ele>377.20001220703</ele>
        <time>2017-07-20T14:11:38Z</time>
      </trkpt>
      <trkpt lat="48.09139" lon="7.23763">
        <ele>377.60000610352</ele>
        <time>2017-07-20T14:11:40Z</time>
      </trkpt>
      <trkpt lat="48.09154" lon="7.23768">
        <ele>378.39999389648</ele>
        <time>2017-07-20T14:11:46Z</time>
      </trkpt>
      <trkpt lat="48.09158" lon="7.23768">
        <ele>378.60000610352</ele>
        <time>2017-07-20T14:11:48Z</time>
      </trkpt>
      <trkpt lat="48.09173" lon="7.23772">
        <ele>379.39999389648</ele>
        <time>2017-07-20T14:11:54Z</time>
      </trkpt>
      <trkpt lat="48.09176" lon="7.23772">
        <ele>379.60000610352</ele>
        <time>2017-07-20T14:11:55Z</time>
      </trkpt>
      <trkpt lat="48.09193" lon="7.2378">
        <ele>380.60000610352</ele>
        <time>2017-07-20T14:12:02Z</time>
      </trkpt>
      <trkpt lat="48.09195" lon="7.23781">
        <ele>380.60000610352</ele>
        <time>2017-07-20T14:12:03Z</time>
      </trkpt>
      <trkpt lat="48.09207" lon="7.2379">
        <ele>381</ele>
        <time>2017-07-20T14:12:08Z</time>
      </trkpt>
      <trkpt lat="48.09217" lon="7.23806">
        <ele>381.60000610352</ele>
        <time>2017-07-20T14:12:12Z</time>
      </trkpt>
      <trkpt lat="48.09222" lon="7.23814">
        <ele>381.79998779297</ele>
        <time>2017-07-20T14:12:14Z</time>
      </trkpt>
      <trkpt lat="48.09231" lon="7.23831">
        <ele>382.60000610352</ele>
        <time>2017-07-20T14:12:19Z</time>
      </trkpt>
      <trkpt lat="48.09234" lon="7.2384">
        <ele>382.79998779297</ele>
        <time>2017-07-20T14:12:21Z</time>
      </trkpt>
      <trkpt lat="48.09235" lon="7.23852">
        <ele>383</ele>
        <time>2017-07-20T14:12:24Z</time>
      </trkpt>
      <trkpt lat="48.09227" lon="7.23873">
        <ele>383.39999389648</ele>
        <time>2017-07-20T14:12:29Z</time>
      </trkpt>
      <trkpt lat="48.0922" lon="7.2388">
        <ele>383.79998779297</ele>
        <time>2017-07-20T14:12:32Z</time>
      </trkpt>
      <trkpt lat="48.0921" lon="7.23882">
        <ele>384.39999389648</ele>
        <time>2017-07-20T14:12:35Z</time>
      </trkpt>
      <trkpt lat="48.092" lon="7.23883">
        <ele>385.20001220703</ele>
        <time>2017-07-20T14:12:38Z</time>
      </trkpt>
      <trkpt lat="48.09189" lon="7.23883">
        <ele>385.79998779297</ele>
        <time>2017-07-20T14:12:42Z</time>
      </trkpt>
      <trkpt lat="48.09183" lon="7.23882">
        <ele>386.20001220703</ele>
        <time>2017-07-20T14:12:44Z</time>
      </trkpt>
      <trkpt lat="48.09173" lon="7.23881">
        <ele>386.60000610352</ele>
        <time>2017-07-20T14:12:48Z</time>
      </trkpt>
      <trkpt lat="48.09161" lon="7.23881">
        <ele>387.20001220703</ele>
        <time>2017-07-20T14:12:53Z</time>
      </trkpt>
      <trkpt lat="48.09156" lon="7.23879">
        <ele>387.39999389648</ele>
        <time>2017-07-20T14:12:55Z</time>
      </trkpt>
      <trkpt lat="48.09148" lon="7.23878">
        <ele>388.20001220703</ele>
        <time>2017-07-20T14:12:59Z</time>
      </trkpt>
      <trkpt lat="48.09141" lon="7.23878">
        <ele>388.60000610352</ele>
        <time>2017-07-20T14:13:02Z</time>
      </trkpt>
      <trkpt lat="48.09125" lon="7.2388">
        <ele>389.20001220703</ele>
        <time>2017-07-20T14:13:09Z</time>
      </trkpt>
      <trkpt lat="48.09123" lon="7.23879">
        <ele>389.39999389648</ele>
        <time>2017-07-20T14:13:10Z</time>
      </trkpt>
      <trkpt lat="48.09114" lon="7.23881">
        <ele>390</ele>
        <time>2017-07-20T14:13:14Z</time>
      </trkpt>
      <trkpt lat="48.09104" lon="7.23883">
        <ele>390.39999389648</ele>
        <time>2017-07-20T14:13:18Z</time>
      </trkpt>
      <trkpt lat="48.09097" lon="7.23885">
        <ele>390.60000610352</ele>
        <time>2017-07-20T14:13:21Z</time>
      </trkpt>
      <trkpt lat="48.09088" lon="7.23888">
        <ele>391.39999389648</ele>
        <time>2017-07-20T14:13:25Z</time>
      </trkpt>
      <trkpt lat="48.09084" lon="7.2389">
        <ele>391.79998779297</ele>
        <time>2017-07-20T14:13:27Z</time>
      </trkpt>
      <trkpt lat="48.09073" lon="7.23896">
        <ele>392.39999389648</ele>
        <time>2017-07-20T14:13:32Z</time>
      </trkpt>
      <trkpt lat="48.09067" lon="7.23901">
        <ele>393</ele>
        <time>2017-07-20T14:13:35Z</time>
      </trkpt>
      <trkpt lat="48.09062" lon="7.23904">
        <ele>393.39999389648</ele>
        <time>2017-07-20T14:13:37Z</time>
      </trkpt>
      <trkpt lat="48.09053" lon="7.23912">
        <ele>394.20001220703</ele>
        <time>2017-07-20T14:13:42Z</time>
      </trkpt>
      <trkpt lat="48.09049" lon="7.23916">
        <ele>394.60000610352</ele>
        <time>2017-07-20T14:13:44Z</time>
      </trkpt>
      <trkpt lat="48.09044" lon="7.23922">
        <ele>395.20001220703</ele>
        <time>2017-07-20T14:13:47Z</time>
      </trkpt>
      <trkpt lat="48.09041" lon="7.23923">
        <ele>395.39999389648</ele>
        <time>2017-07-20T14:13:48Z</time>
      </trkpt>
      <trkpt lat="48.09037" lon="7.23925">
        <ele>395.60000610352</ele>
        <time>2017-07-20T14:13:50Z</time>
      </trkpt>
      <trkpt lat="48.09025" lon="7.2393">
        <ele>396.20001220703</ele>
        <time>2017-07-20T14:13:55Z</time>
      </trkpt>
      <trkpt lat="48.09016" lon="7.23933">
        <ele>396.79998779297</ele>
        <time>2017-07-20T14:13:59Z</time>
      </trkpt>
      <trkpt lat="48.09012" lon="7.23935">
        <ele>397</ele>
        <time>2017-07-20T14:14:01Z</time>
      </trkpt>
      <trkpt lat="48.08997" lon="7.23938">
        <ele>397.60000610352</ele>
        <time>2017-07-20T14:14:06Z</time>
      </trkpt>
      <trkpt lat="48.08995" lon="7.23939">
        <ele>397.79998779297</ele>
        <time>2017-07-20T14:14:07Z</time>
      </trkpt>
      <trkpt lat="48.08993" lon="7.2394">
        <ele>398</ele>
        <time>2017-07-20T14:14:08Z</time>
      </trkpt>
      <trkpt lat="48.08978" lon="7.23943">
        <ele>399</ele>
        <time>2017-07-20T14:14:14Z</time>
      </trkpt>
      <trkpt lat="48.08975" lon="7.23944">
        <ele>399.20001220703</ele>
        <time>2017-07-20T14:14:15Z</time>
      </trkpt>
      <trkpt lat="48.08961" lon="7.23953">
        <ele>400.20001220703</ele>
        <time>2017-07-20T14:14:22Z</time>
      </trkpt>
      <trkpt lat="48.08959" lon="7.23955">
        <ele>400.39999389648</ele>
        <time>2017-07-20T14:14:23Z</time>
      </trkpt>
      <trkpt lat="48.0894" lon="7.2396">
        <ele>401.20001220703</ele>
        <time>2017-07-20T14:14:31Z</time>
      </trkpt>
      <trkpt lat="48.08922" lon="7.23969">
        <ele>402.39999389648</ele>
        <time>2017-07-20T14:14:39Z</time>
      </trkpt>
      <trkpt lat="48.08907" lon="7.23977">
        <ele>403.60000610352</ele>
        <time>2017-07-20T14:14:46Z</time>
      </trkpt>
      <trkpt lat="48.08891" lon="7.23985">
        <ele>404.39999389648</ele>
        <time>2017-07-20T14:14:54Z</time>
      </trkpt>
      <trkpt lat="48.08886" lon="7.23989">
        <ele>404.60000610352</ele>
        <time>2017-07-20T14:14:56Z</time>
      </trkpt>
      <trkpt lat="48.08877" lon="7.23998">
        <ele>405.39999389648</ele>
        <time>2017-07-20T14:15:01Z</time>
      </trkpt>
      <trkpt lat="48.08874" lon="7.24002">
        <ele>405.60000610352</ele>
        <time>2017-07-20T14:15:03Z</time>
      </trkpt>
      <trkpt lat="48.08865" lon="7.24017">
        <ele>406.39999389648</ele>
        <time>2017-07-20T14:15:08Z</time>
      </trkpt>
      <trkpt lat="48.08857" lon="7.2403">
        <ele>406.79998779297</ele>
        <time>2017-07-20T14:15:12Z</time>
      </trkpt>
      <trkpt lat="48.08849" lon="7.24044">
        <ele>407.39999389648</ele>
        <time>2017-07-20T14:15:16Z</time>
      </trkpt>
      <trkpt lat="48.08838" lon="7.24061">
        <ele>407.79998779297</ele>
        <time>2017-07-20T14:15:21Z</time>
      </trkpt>
      <trkpt lat="48.08834" lon="7.24067">
        <ele>408.39999389648</ele>
        <time>2017-07-20T14:15:23Z</time>
      </trkpt>
      <trkpt lat="48.08827" lon="7.24074">
        <ele>408.79998779297</ele>
        <time>2017-07-20T14:15:26Z</time>
      </trkpt>
      <trkpt lat="48.08818" lon="7.24083">
        <ele>409.60000610352</ele>
        <time>2017-07-20T14:15:30Z</time>
      </trkpt>
      <trkpt lat="48.08811" lon="7.24091">
        <ele>409.79998779297</ele>
        <time>2017-07-20T14:15:33Z</time>
      </trkpt>
      <trkpt lat="48.08796" lon="7.24112">
        <ele>411</ele>
        <time>2017-07-20T14:15:40Z</time>
      </trkpt>
      <trkpt lat="48.08794" lon="7.24115">
        <ele>411</ele>
        <time>2017-07-20T14:15:41Z</time>
      </trkpt>
      <trkpt lat="48.0879" lon="7.24137">
        <ele>411.79998779297</ele>
        <time>2017-07-20T14:15:46Z</time>
      </trkpt>
      <trkpt lat="48.08792" lon="7.24151">
        <ele>412</ele>
        <time>2017-07-20T14:15:49Z</time>
      </trkpt>
      <trkpt lat="48.08795" lon="7.2416">
        <ele>412.20001220703</ele>
        <time>2017-07-20T14:15:51Z</time>
      </trkpt>
      <trkpt lat="48.08808" lon="7.24178">
        <ele>412.79998779297</ele>
        <time>2017-07-20T14:15:57Z</time>
      </trkpt>
      <trkpt lat="48.08812" lon="7.24181">
        <ele>413.20001220703</ele>
        <time>2017-07-20T14:15:59Z</time>
      </trkpt>
      <trkpt lat="48.08821" lon="7.24182">
        <ele>413.79998779297</ele>
        <time>2017-07-20T14:16:03Z</time>
      </trkpt>
      <trkpt lat="48.08826" lon="7.2418">
        <ele>414.20001220703</ele>
        <time>2017-07-20T14:16:05Z</time>
      </trkpt>
      <trkpt lat="48.08834" lon="7.2417">
        <ele>415</ele>
        <time>2017-07-20T14:16:09Z</time>
      </trkpt>
      <trkpt lat="48.08836" lon="7.24167">
        <ele>415.39999389648</ele>
        <time>2017-07-20T14:16:10Z</time>
      </trkpt>
      <trkpt lat="48.0884" lon="7.24152">
        <ele>416</ele>
        <time>2017-07-20T14:16:14Z</time>
      </trkpt>
      <trkpt lat="48.08843" lon="7.24141">
        <ele>416.39999389648</ele>
        <time>2017-07-20T14:16:17Z</time>
      </trkpt>
      <trkpt lat="48.08845" lon="7.24133">
        <ele>416.60000610352</ele>
        <time>2017-07-20T14:16:19Z</time>
      </trkpt>
      <trkpt lat="48.08851" lon="7.2411">
        <ele>417.39999389648</ele>
        <time>2017-07-20T14:16:26Z</time>
      </trkpt>
      <trkpt lat="48.08862" lon="7.24085">
        <ele>418.60000610352</ele>
        <time>2017-07-20T14:16:33Z</time>
      </trkpt>
      <trkpt lat="48.08865" lon="7.24079">
        <ele>419</ele>
        <time>2017-07-20T14:16:35Z</time>
      </trkpt>
      <trkpt lat="48.08872" lon="7.24068">
        <ele>419.60000610352</ele>
        <time>2017-07-20T14:16:39Z</time>
      </trkpt>
      <trkpt lat="48.08879" lon="7.24061">
        <ele>420</ele>
        <time>2017-07-20T14:16:42Z</time>
      </trkpt>
      <trkpt lat="48.08888" lon="7.24053">
        <ele>420.60000610352</ele>
        <time>2017-07-20T14:16:46Z</time>
      </trkpt>
      <trkpt lat="48.08894" lon="7.24048">
        <ele>421.20001220703</ele>
        <time>2017-07-20T14:16:49Z</time>
      </trkpt>
      <trkpt lat="48.08904" lon="7.24044">
        <ele>421.60000610352</ele>
        <time>2017-07-20T14:16:53Z</time>
      </trkpt>
      <trkpt lat="48.08911" lon="7.24042">
        <ele>422.20001220703</ele>
        <time>2017-07-20T14:16:56Z</time>
      </trkpt>
      <trkpt lat="48.08917" lon="7.24038">
        <ele>422.79998779297</ele>
        <time>2017-07-20T14:16:59Z</time>
      </trkpt>
      <trkpt lat="48.08924" lon="7.24035">
        <ele>423.20001220703</ele>
        <time>2017-07-20T14:17:02Z</time>
      </trkpt>
      <trkpt lat="48.08933" lon="7.24032">
        <ele>423.79998779297</ele>
        <time>2017-07-20T14:17:06Z</time>
      </trkpt>
      <trkpt lat="48.08937" lon="7.24031">
        <ele>424.20001220703</ele>
        <time>2017-07-20T14:17:08Z</time>
      </trkpt>
      <trkpt lat="48.08949" lon="7.24027">
        <ele>424.79998779297</ele>
        <time>2017-07-20T14:17:13Z</time>
      </trkpt>
      <trkpt lat="48.08955" lon="7.24024">
        <ele>425.20001220703</ele>
        <time>2017-07-20T14:17:16Z</time>
      </trkpt>
      <trkpt lat="48.08964" lon="7.2402">
        <ele>425.79998779297</ele>
        <time>2017-07-20T14:17:20Z</time>
      </trkpt>
      <trkpt lat="48.08973" lon="7.24016">
        <ele>426.39999389648</ele>
        <time>2017-07-20T14:17:24Z</time>
      </trkpt>
      <trkpt lat="48.0898" lon="7.24015">
        <ele>427</ele>
        <time>2017-07-20T14:17:27Z</time>
      </trkpt>
      <trkpt lat="48.08992" lon="7.24012">
        <ele>427.60000610352</ele>
        <time>2017-07-20T14:17:32Z</time>
      </trkpt>
      <trkpt lat="48.08999" lon="7.24011">
        <ele>428</ele>
        <time>2017-07-20T14:17:35Z</time>
      </trkpt>
      <trkpt lat="48.09011" lon="7.24009">
        <ele>428.79998779297</ele>
        <time>2017-07-20T14:17:40Z</time>
      </trkpt>
      <trkpt lat="48.09018" lon="7.24007">
        <ele>429</ele>
        <time>2017-07-20T14:17:43Z</time>
      </trkpt>
      <trkpt lat="48.09026" lon="7.24008">
        <ele>429.60000610352</ele>
        <time>2017-07-20T14:17:46Z</time>
      </trkpt>
      <trkpt lat="48.09036" lon="7.24008">
        <ele>430.39999389648</ele>
        <time>2017-07-20T14:18:17Z</time>
      </trkpt>
      <trkpt lat="48.09051" lon="7.24008">
        <ele>430.60000610352</ele>
        <time>2017-07-20T14:18:23Z</time>
      </trkpt>
      <trkpt lat="48.09067" lon="7.24009">
        <ele>431.39999389648</ele>
        <time>2017-07-20T14:18:29Z</time>
      </trkpt>
      <trkpt lat="48.09074" lon="7.24009">
        <ele>432</ele>
        <time>2017-07-20T14:18:32Z</time>
      </trkpt>
      <trkpt lat="48.09079" lon="7.2401">
        <ele>432.39999389648</ele>
        <time>2017-07-20T14:18:34Z</time>
      </trkpt>
      <trkpt lat="48.09084" lon="7.24009">
        <ele>432.60000610352</ele>
        <time>2017-07-20T14:18:36Z</time>
      </trkpt>
      <trkpt lat="48.09095" lon="7.24006">
        <ele>433.39999389648</ele>
        <time>2017-07-20T14:18:41Z</time>
      </trkpt>
      <trkpt lat="48.09099" lon="7.24005">
        <ele>433.79998779297</ele>
        <time>2017-07-20T14:18:43Z</time>
      </trkpt>
      <trkpt lat="48.09111" lon="7.24005">
        <ele>434.20001220703</ele>
        <time>2017-07-20T14:18:48Z</time>
      </trkpt>
      <trkpt lat="48.09119" lon="7.24004">
        <ele>434.79998779297</ele>
        <time>2017-07-20T14:18:52Z</time>
      </trkpt>
      <trkpt lat="48.09126" lon="7.24006">
        <ele>435.20001220703</ele>
        <time>2017-07-20T14:18:55Z</time>
      </trkpt>
      <trkpt lat="48.09136" lon="7.24009">
        <ele>435.79998779297</ele>
        <time>2017-07-20T14:18:59Z</time>
      </trkpt>
      <trkpt lat="48.09143" lon="7.24013">
        <ele>436.20001220703</ele>
        <time>2017-07-20T14:19:02Z</time>
      </trkpt>
      <trkpt lat="48.09151" lon="7.24019">
        <ele>436.79998779297</ele>
        <time>2017-07-20T14:19:06Z</time>
      </trkpt>
      <trkpt lat="48.09155" lon="7.24022">
        <ele>437</ele>
        <time>2017-07-20T14:19:08Z</time>
      </trkpt>
      <trkpt lat="48.09169" lon="7.24032">
        <ele>438</ele>
        <time>2017-07-20T14:19:15Z</time>
      </trkpt>
      <trkpt lat="48.09172" lon="7.24034">
        <ele>438.20001220703</ele>
        <time>2017-07-20T14:19:17Z</time>
      </trkpt>
      <trkpt lat="48.09178" lon="7.24038">
        <ele>438.39999389648</ele>
        <time>2017-07-20T14:19:20Z</time>
      </trkpt>
      <trkpt lat="48.09184" lon="7.2404">
        <ele>439</ele>
        <time>2017-07-20T14:19:23Z</time>
      </trkpt>
      <trkpt lat="48.09192" lon="7.24046">
        <ele>439.39999389648</ele>
        <time>2017-07-20T14:19:27Z</time>
      </trkpt>
      <trkpt lat="48.09201" lon="7.24052">
        <ele>440.20001220703</ele>
        <time>2017-07-20T14:19:32Z</time>
      </trkpt>
      <trkpt lat="48.09205" lon="7.24055">
        <ele>440.39999389648</ele>
        <time>2017-07-20T14:19:34Z</time>
      </trkpt>
      <trkpt lat="48.09215" lon="7.24063">
        <ele>441.20001220703</ele>
        <time>2017-07-20T14:19:39Z</time>
      </trkpt>
      <trkpt lat="48.09221" lon="7.24068">
        <ele>441.60000610352</ele>
        <time>2017-07-20T14:19:42Z</time>
      </trkpt>
      <trkpt lat="48.09234" lon="7.24075">
        <ele>442.20001220703</ele>
        <time>2017-07-20T14:19:48Z</time>
      </trkpt>
      <trkpt lat="48.0924" lon="7.24079">
        <ele>442.60000610352</ele>
        <time>2017-07-20T14:19:51Z</time>
      </trkpt>
      <trkpt lat="48.09253" lon="7.24088">
        <ele>443.20001220703</ele>
        <time>2017-07-20T14:19:57Z</time>
      </trkpt>
      <trkpt lat="48.09258" lon="7.24091">
        <ele>443.39999389648</ele>
        <time>2017-07-20T14:19:59Z</time>
      </trkpt>
      <trkpt lat="48.0927" lon="7.241">
        <ele>444.39999389648</ele>
        <time>2017-07-20T14:20:05Z</time>
      </trkpt>
      <trkpt lat="48.09283" lon="7.24109">
        <ele>445.20001220703</ele>
        <time>2017-07-20T14:20:11Z</time>
      </trkpt>
      <trkpt lat="48.09289" lon="7.24116">
        <ele>445.39999389648</ele>
        <time>2017-07-20T14:20:13Z</time>
      </trkpt>
      <trkpt lat="48.0929" lon="7.24119">
        <ele>445.39999389648</ele>
        <time>2017-07-20T14:20:14Z</time>
      </trkpt>
      <trkpt lat="48.09292" lon="7.24122">
        <ele>445.60000610352</ele>
        <time>2017-07-20T14:20:15Z</time>
      </trkpt>
      <trkpt lat="48.093" lon="7.24135">
        <ele>446.39999389648</ele>
        <time>2017-07-20T14:20:20Z</time>
      </trkpt>
      <trkpt lat="48.09304" lon="7.24139">
        <ele>446.79998779297</ele>
        <time>2017-07-20T14:20:22Z</time>
      </trkpt>
      <trkpt lat="48.09314" lon="7.2415">
        <ele>447.60000610352</ele>
        <time>2017-07-20T14:20:27Z</time>
      </trkpt>
      <trkpt lat="48.09319" lon="7.24153">
        <ele>447.79998779297</ele>
        <time>2017-07-20T14:20:29Z</time>
      </trkpt>
      <trkpt lat="48.0933" lon="7.24159">
        <ele>448.79998779297</ele>
        <time>2017-07-20T14:20:34Z</time>
      </trkpt>
      <trkpt lat="48.09338" lon="7.24163">
        <ele>449.20001220703</ele>
        <time>2017-07-20T14:20:37Z</time>
      </trkpt>
      <trkpt lat="48.09349" lon="7.24169">
        <ele>449.79998779297</ele>
        <time>2017-07-20T14:20:42Z</time>
      </trkpt>
      <trkpt lat="48.09353" lon="7.24171">
        <ele>450</ele>
        <time>2017-07-20T14:20:44Z</time>
      </trkpt>
      <trkpt lat="48.09367" lon="7.24174">
        <ele>450.60000610352</ele>
        <time>2017-07-20T14:20:50Z</time>
      </trkpt>
      <trkpt lat="48.09372" lon="7.24176">
        <ele>450.79998779297</ele>
        <time>2017-07-20T14:20:52Z</time>
      </trkpt>
      <trkpt lat="48.0938" lon="7.24175">
        <ele>451.20001220703</ele>
        <time>2017-07-20T14:20:56Z</time>
      </trkpt>
      <trkpt lat="48.09393" lon="7.24168">
        <ele>451.79998779297</ele>
        <time>2017-07-20T14:21:02Z</time>
      </trkpt>
      <trkpt lat="48.09397" lon="7.24168">
        <ele>452</ele>
        <time>2017-07-20T14:21:04Z</time>
      </trkpt>
      <trkpt lat="48.09403" lon="7.24168">
        <ele>452.20001220703</ele>
        <time>2017-07-20T14:21:07Z</time>
      </trkpt>
      <trkpt lat="48.09416" lon="7.24162">
        <ele>453</ele>
        <time>2017-07-20T14:21:12Z</time>
      </trkpt>
      <trkpt lat="48.09418" lon="7.24161">
        <ele>453</ele>
        <time>2017-07-20T14:21:13Z</time>
      </trkpt>
      <trkpt lat="48.09431" lon="7.24153">
        <ele>454.20001220703</ele>
        <time>2017-07-20T14:21:19Z</time>
      </trkpt>
      <trkpt lat="48.09431" lon="7.2415">
        <ele>454.39999389648</ele>
        <time>2017-07-20T14:21:20Z</time>
      </trkpt>
      <trkpt lat="48.09433" lon="7.24137">
        <ele>455.20001220703</ele>
        <time>2017-07-20T14:21:25Z</time>
      </trkpt>
      <trkpt lat="48.09433" lon="7.24133">
        <ele>455.39999389648</ele>
        <time>2017-07-20T14:21:26Z</time>
      </trkpt>
      <trkpt lat="48.0943" lon="7.24116">
        <ele>456.20001220703</ele>
        <time>2017-07-20T14:21:32Z</time>
      </trkpt>
      <trkpt lat="48.09429" lon="7.24111">
        <ele>456.60000610352</ele>
        <time>2017-07-20T14:21:34Z</time>
      </trkpt>
      <trkpt lat="48.09426" lon="7.24096">
        <ele>457.20001220703</ele>
        <time>2017-07-20T14:21:39Z</time>
      </trkpt>
      <trkpt lat="48.09426" lon="7.24087">
        <ele>457.60000610352</ele>
        <time>2017-07-20T14:21:42Z</time>
      </trkpt>
      <trkpt lat="48.09428" lon="7.24066">
        <ele>458.20001220703</ele>
        <time>2017-07-20T14:21:47Z</time>
      </trkpt>
      <trkpt lat="48.09429" lon="7.24062">
        <ele>458.39999389648</ele>
        <time>2017-07-20T14:21:48Z</time>
      </trkpt>
      <trkpt lat="48.09439" lon="7.24043">
        <ele>459.39999389648</ele>
        <time>2017-07-20T14:21:54Z</time>
      </trkpt>
      <trkpt lat="48.09454" lon="7.24032">
        <ele>460.39999389648</ele>
        <time>2017-07-20T14:22:01Z</time>
      </trkpt>
      <trkpt lat="48.09469" lon="7.24027">
        <ele>461.60000610352</ele>
        <time>2017-07-20T14:22:07Z</time>
      </trkpt>
      <trkpt lat="48.09477" lon="7.24025">
        <ele>462.20001220703</ele>
        <time>2017-07-20T14:22:10Z</time>
      </trkpt>
      <trkpt lat="48.09485" lon="7.24021">
        <ele>462.60000610352</ele>
        <time>2017-07-20T14:22:13Z</time>
      </trkpt>
      <trkpt lat="48.09491" lon="7.24018">
        <ele>463.20001220703</ele>
        <time>2017-07-20T14:22:16Z</time>
      </trkpt>
      <trkpt lat="48.095" lon="7.24016">
        <ele>463.79998779297</ele>
        <time>2017-07-20T14:22:20Z</time>
      </trkpt>
      <trkpt lat="48.09505" lon="7.24013">
        <ele>464.20001220703</ele>
        <time>2017-07-20T14:22:22Z</time>
      </trkpt>
      <trkpt lat="48.09513" lon="7.24011">
        <ele>464.79998779297</ele>
        <time>2017-07-20T14:22:26Z</time>
      </trkpt>
      <trkpt lat="48.0952" lon="7.24009">
        <ele>465.39999389648</ele>
        <time>2017-07-20T14:22:29Z</time>
      </trkpt>
      <trkpt lat="48.09527" lon="7.24005">
        <ele>465.79998779297</ele>
        <time>2017-07-20T14:22:32Z</time>
      </trkpt>
      <trkpt lat="48.09537" lon="7.24001">
        <ele>466.79998779297</ele>
        <time>2017-07-20T14:22:36Z</time>
      </trkpt>
      <trkpt lat="48.09539" lon="7.24001">
        <ele>467</ele>
        <time>2017-07-20T14:22:37Z</time>
      </trkpt>
      <trkpt lat="48.0955" lon="7.23996">
        <ele>467.79998779297</ele>
        <time>2017-07-20T14:22:42Z</time>
      </trkpt>
      <trkpt lat="48.09553" lon="7.23996">
        <ele>468</ele>
        <time>2017-07-20T14:22:43Z</time>
      </trkpt>
      <trkpt lat="48.09564" lon="7.23993">
        <ele>468.60000610352</ele>
        <time>2017-07-20T14:22:48Z</time>
      </trkpt>
      <trkpt lat="48.09572" lon="7.23991">
        <ele>469</ele>
        <time>2017-07-20T14:22:51Z</time>
      </trkpt>
      <trkpt lat="48.09581" lon="7.23988">
        <ele>469.60000610352</ele>
        <time>2017-07-20T14:22:55Z</time>
      </trkpt>
      <trkpt lat="48.09587" lon="7.23985">
        <ele>470</ele>
        <time>2017-07-20T14:22:58Z</time>
      </trkpt>
      <trkpt lat="48.09597" lon="7.23983">
        <ele>470.60000610352</ele>
        <time>2017-07-20T14:23:02Z</time>
      </trkpt>
      <trkpt lat="48.09608" lon="7.2398">
        <ele>471.20001220703</ele>
        <time>2017-07-20T14:23:07Z</time>
      </trkpt>
      <trkpt lat="48.0961" lon="7.2398">
        <ele>471.39999389648</ele>
        <time>2017-07-20T14:23:08Z</time>
      </trkpt>
      <trkpt lat="48.09624" lon="7.23977">
        <ele>472</ele>
        <time>2017-07-20T14:23:14Z</time>
      </trkpt>
      <trkpt lat="48.09626" lon="7.23976">
        <ele>472.20001220703</ele>
        <time>2017-07-20T14:23:15Z</time>
      </trkpt>
      <trkpt lat="48.09637" lon="7.23973">
        <ele>473</ele>
        <time>2017-07-20T14:23:20Z</time>
      </trkpt>
      <trkpt lat="48.09642" lon="7.23971">
        <ele>473.39999389648</ele>
        <time>2017-07-20T14:23:22Z</time>
      </trkpt>
      <trkpt lat="48.09648" lon="7.23968">
        <ele>474</ele>
        <time>2017-07-20T14:23:25Z</time>
      </trkpt>
      <trkpt lat="48.09654" lon="7.23964">
        <ele>474.60000610352</ele>
        <time>2017-07-20T14:23:28Z</time>
      </trkpt>
      <trkpt lat="48.0966" lon="7.23959">
        <ele>475</ele>
        <time>2017-07-20T14:23:31Z</time>
      </trkpt>
      <trkpt lat="48.09667" lon="7.23949">
        <ele>475.60000610352</ele>
        <time>2017-07-20T14:23:35Z</time>
      </trkpt>
      <trkpt lat="48.0967" lon="7.23944">
        <ele>476</ele>
        <time>2017-07-20T14:23:37Z</time>
      </trkpt>
      <trkpt lat="48.09673" lon="7.23933">
        <ele>476.60000610352</ele>
        <time>2017-07-20T14:23:42Z</time>
      </trkpt>
      <trkpt lat="48.09673" lon="7.2393">
        <ele>476.79998779297</ele>
        <time>2017-07-20T14:23:43Z</time>
      </trkpt>
      <trkpt lat="48.0967" lon="7.23906">
        <ele>477.60000610352</ele>
        <time>2017-07-20T14:23:50Z</time>
      </trkpt>
      <trkpt lat="48.0967" lon="7.23903">
        <ele>477.60000610352</ele>
        <time>2017-07-20T14:23:51Z</time>
      </trkpt>
      <trkpt lat="48.09671" lon="7.23885">
        <ele>478.20001220703</ele>
        <time>2017-07-20T14:23:56Z</time>
      </trkpt>
      <trkpt lat="48.09673" lon="7.23874">
        <ele>478.60000610352</ele>
        <time>2017-07-20T14:23:59Z</time>
      </trkpt>
      <trkpt lat="48.09675" lon="7.23858">
        <ele>479.39999389648</ele>
        <time>2017-07-20T14:24:04Z</time>
      </trkpt>
      <trkpt lat="48.09676" lon="7.23852">
        <ele>479.60000610352</ele>
        <time>2017-07-20T14:24:06Z</time>
      </trkpt>
      <trkpt lat="48.09679" lon="7.23837">
        <ele>480.60000610352</ele>
        <time>2017-07-20T14:24:11Z</time>
      </trkpt>
      <trkpt lat="48.09679" lon="7.23834">
        <ele>480.79998779297</ele>
        <time>2017-07-20T14:24:12Z</time>
      </trkpt>
      <trkpt lat="48.09681" lon="7.23817">
        <ele>482</ele>
        <time>2017-07-20T14:24:17Z</time>
      </trkpt>
      <trkpt lat="48.09681" lon="7.23812">
        <ele>482.20001220703</ele>
        <time>2017-07-20T14:24:18Z</time>
      </trkpt>
      <trkpt lat="48.0968" lon="7.23799">
        <ele>483</ele>
        <time>2017-07-20T14:24:22Z</time>
      </trkpt>
      <trkpt lat="48.09677" lon="7.23794">
        <ele>483.39999389648</ele>
        <time>2017-07-20T14:24:24Z</time>
      </trkpt>
      <trkpt lat="48.09664" lon="7.23787">
        <ele>484</ele>
        <time>2017-07-20T14:24:30Z</time>
      </trkpt>
      <trkpt lat="48.09658" lon="7.23788">
        <ele>484.39999389648</ele>
        <time>2017-07-20T14:24:33Z</time>
      </trkpt>
      <trkpt lat="48.09653" lon="7.23789">
        <ele>485</ele>
        <time>2017-07-20T14:24:35Z</time>
      </trkpt>
      <trkpt lat="48.09651" lon="7.23789">
        <ele>485.20001220703</ele>
        <time>2017-07-20T14:24:36Z</time>
      </trkpt>
      <trkpt lat="48.09637" lon="7.2379">
        <ele>485.79998779297</ele>
        <time>2017-07-20T14:24:42Z</time>
      </trkpt>
      <trkpt lat="48.09632" lon="7.2379">
        <ele>486</ele>
        <time>2017-07-20T14:24:44Z</time>
      </trkpt>
      <trkpt lat="48.09622" lon="7.23786">
        <ele>486.60000610352</ele>
        <time>2017-07-20T14:24:48Z</time>
      </trkpt>
      <trkpt lat="48.09614" lon="7.2378">
        <ele>487.20001220703</ele>
        <time>2017-07-20T14:24:51Z</time>
      </trkpt>
      <trkpt lat="48.09601" lon="7.23773">
        <ele>488</ele>
        <time>2017-07-20T14:24:56Z</time>
      </trkpt>
      <trkpt lat="48.09598" lon="7.23772">
        <ele>488.20001220703</ele>
        <time>2017-07-20T14:24:57Z</time>
      </trkpt>
      <trkpt lat="48.09582" lon="7.23765">
        <ele>489.20001220703</ele>
        <time>2017-07-20T14:25:03Z</time>
      </trkpt>
      <trkpt lat="48.09567" lon="7.23756">
        <ele>490.20001220703</ele>
        <time>2017-07-20T14:25:09Z</time>
      </trkpt>
      <trkpt lat="48.09564" lon="7.23755">
        <ele>490.39999389648</ele>
        <time>2017-07-20T14:25:10Z</time>
      </trkpt>
      <trkpt lat="48.09546" lon="7.23744">
        <ele>491.39999389648</ele>
        <time>2017-07-20T14:25:17Z</time>
      </trkpt>
      <trkpt lat="48.09544" lon="7.23742">
        <ele>491.39999389648</ele>
        <time>2017-07-20T14:25:18Z</time>
      </trkpt>
      <trkpt lat="48.0953" lon="7.23739">
        <ele>492.39999389648</ele>
        <time>2017-07-20T14:25:23Z</time>
      </trkpt>
      <trkpt lat="48.09528" lon="7.23738">
        <ele>492.60000610352</ele>
        <time>2017-07-20T14:25:24Z</time>
      </trkpt>
      <trkpt lat="48.09515" lon="7.23734">
        <ele>493.39999389648</ele>
        <time>2017-07-20T14:25:29Z</time>
      </trkpt>
      <trkpt lat="48.09508" lon="7.23733">
        <ele>493.79998779297</ele>
        <time>2017-07-20T14:25:32Z</time>
      </trkpt>
      <trkpt lat="48.09493" lon="7.23729">
        <ele>494.60000610352</ele>
        <time>2017-07-20T14:25:38Z</time>
      </trkpt>
      <trkpt lat="48.09488" lon="7.23726">
        <ele>494.79998779297</ele>
        <time>2017-07-20T14:25:40Z</time>
      </trkpt>
      <trkpt lat="48.09473" lon="7.23721">
        <ele>496</ele>
        <time>2017-07-20T14:25:46Z</time>
      </trkpt>
      <trkpt lat="48.09465" lon="7.23715">
        <ele>496.39999389648</ele>
        <time>2017-07-20T14:25:49Z</time>
      </trkpt>
      <trkpt lat="48.09456" lon="7.23708">
        <ele>497</ele>
        <time>2017-07-20T14:25:53Z</time>
      </trkpt>
      <trkpt lat="48.09448" lon="7.23703">
        <ele>497.39999389648</ele>
        <time>2017-07-20T14:25:56Z</time>
      </trkpt>
      <trkpt lat="48.09439" lon="7.23692">
        <ele>498.20001220703</ele>
        <time>2017-07-20T14:26:01Z</time>
      </trkpt>
      <trkpt lat="48.09436" lon="7.23687">
        <ele>498.39999389648</ele>
        <time>2017-07-20T14:26:03Z</time>
      </trkpt>
      <trkpt lat="48.09428" lon="7.23673">
        <ele>499.20001220703</ele>
        <time>2017-07-20T14:26:08Z</time>
      </trkpt>
      <trkpt lat="48.09427" lon="7.2367">
        <ele>499.39999389648</ele>
        <time>2017-07-20T14:26:09Z</time>
      </trkpt>
      <trkpt lat="48.09426" lon="7.23648">
        <ele>500.39999389648</ele>
        <time>2017-07-20T14:26:15Z</time>
      </trkpt>
      <trkpt lat="48.09429" lon="7.23625">
        <ele>501.20001220703</ele>
        <time>2017-07-20T14:26:21Z</time>
      </trkpt>
      <trkpt lat="48.0943" lon="7.23616">
        <ele>501.39999389648</ele>
        <time>2017-07-20T14:26:23Z</time>
      </trkpt>
      <trkpt lat="48.09433" lon="7.23597">
        <ele>502</ele>
        <time>2017-07-20T14:26:28Z</time>
      </trkpt>
      <trkpt lat="48.09437" lon="7.23586">
        <ele>502.39999389648</ele>
        <time>2017-07-20T14:26:31Z</time>
      </trkpt>
      <trkpt lat="48.09439" lon="7.23581">
        <ele>502.79998779297</ele>
        <time>2017-07-20T14:26:33Z</time>
      </trkpt>
      <trkpt lat="48.09444" lon="7.2357">
        <ele>503.60000610352</ele>
        <time>2017-07-20T14:26:36Z</time>
      </trkpt>
      <trkpt lat="48.09451" lon="7.23557">
        <ele>504</ele>
        <time>2017-07-20T14:26:40Z</time>
      </trkpt>
      <trkpt lat="48.09456" lon="7.23549">
        <ele>504.60000610352</ele>
        <time>2017-07-20T14:26:43Z</time>
      </trkpt>
      <trkpt lat="48.09466" lon="7.23536">
        <ele>505.20001220703</ele>
        <time>2017-07-20T14:26:48Z</time>
      </trkpt>
      <trkpt lat="48.09472" lon="7.23528">
        <ele>505.60000610352</ele>
        <time>2017-07-20T14:26:51Z</time>
      </trkpt>
      <trkpt lat="48.09486" lon="7.23513">
        <ele>506.79998779297</ele>
        <time>2017-07-20T14:26:58Z</time>
      </trkpt>
      <trkpt lat="48.09499" lon="7.23501">
        <ele>508</ele>
        <time>2017-07-20T14:27:04Z</time>
      </trkpt>
      <trkpt lat="48.09501" lon="7.23499">
        <ele>508.20001220703</ele>
        <time>2017-07-20T14:27:05Z</time>
      </trkpt>
      <trkpt lat="48.09513" lon="7.23486">
        <ele>508.79998779297</ele>
        <time>2017-07-20T14:27:11Z</time>
      </trkpt>
      <trkpt lat="48.09516" lon="7.23485">
        <ele>509</ele>
        <time>2017-07-20T14:27:12Z</time>
      </trkpt>
      <trkpt lat="48.09526" lon="7.23474">
        <ele>509.79998779297</ele>
        <time>2017-07-20T14:27:17Z</time>
      </trkpt>
      <trkpt lat="48.09531" lon="7.23469">
        <ele>510</ele>
        <time>2017-07-20T14:27:19Z</time>
      </trkpt>
      <trkpt lat="48.09542" lon="7.23458">
        <ele>511</ele>
        <time>2017-07-20T14:27:24Z</time>
      </trkpt>
      <trkpt lat="48.09544" lon="7.23456">
        <ele>511.20001220703</ele>
        <time>2017-07-20T14:27:25Z</time>
      </trkpt>
      <trkpt lat="48.09555" lon="7.23442">
        <ele>512.20001220703</ele>
        <time>2017-07-20T14:27:31Z</time>
      </trkpt>
      <trkpt lat="48.09557" lon="7.2344">
        <ele>512.40002441406</ele>
        <time>2017-07-20T14:27:32Z</time>
      </trkpt>
      <trkpt lat="48.09571" lon="7.23427">
        <ele>513.20001220703</ele>
        <time>2017-07-20T14:27:39Z</time>
      </trkpt>
      <trkpt lat="48.09572" lon="7.23424">
        <ele>513.40002441406</ele>
        <time>2017-07-20T14:27:40Z</time>
      </trkpt>
      <trkpt lat="48.09581" lon="7.23413">
        <ele>514</ele>
        <time>2017-07-20T14:27:45Z</time>
      </trkpt>
      <trkpt lat="48.09585" lon="7.23409">
        <ele>514.40002441406</ele>
        <time>2017-07-20T14:27:47Z</time>
      </trkpt>
      <trkpt lat="48.09594" lon="7.23398">
        <ele>515.20001220703</ele>
        <time>2017-07-20T14:27:52Z</time>
      </trkpt>
      <trkpt lat="48.096" lon="7.23388">
        <ele>515.59997558594</ele>
        <time>2017-07-20T14:27:56Z</time>
      </trkpt>
      <trkpt lat="48.09603" lon="7.23383">
        <ele>515.79998779297</ele>
        <time>2017-07-20T14:27:58Z</time>
      </trkpt>
      <trkpt lat="48.09611" lon="7.23365">
        <ele>516.59997558594</ele>
        <time>2017-07-20T14:28:04Z</time>
      </trkpt>
      <trkpt lat="48.09612" lon="7.23362">
        <ele>516.79998779297</ele>
        <time>2017-07-20T14:28:05Z</time>
      </trkpt>
      <trkpt lat="48.0962" lon="7.23342">
        <ele>517.79998779297</ele>
        <time>2017-07-20T14:28:11Z</time>
      </trkpt>
      <trkpt lat="48.09623" lon="7.23337">
        <ele>518</ele>
        <time>2017-07-20T14:28:13Z</time>
      </trkpt>
      <trkpt lat="48.09631" lon="7.23319">
        <ele>518.79998779297</ele>
        <time>2017-07-20T14:28:19Z</time>
      </trkpt>
      <trkpt lat="48.09641" lon="7.233">
        <ele>519.79998779297</ele>
        <time>2017-07-20T14:28:26Z</time>
      </trkpt>
      <trkpt lat="48.09642" lon="7.23297">
        <ele>519.79998779297</ele>
        <time>2017-07-20T14:28:27Z</time>
      </trkpt>
      <trkpt lat="48.09649" lon="7.23282">
        <ele>520.59997558594</ele>
        <time>2017-07-20T14:28:32Z</time>
      </trkpt>
      <trkpt lat="48.09652" lon="7.23276">
        <ele>521</ele>
        <time>2017-07-20T14:28:34Z</time>
      </trkpt>
      <trkpt lat="48.09659" lon="7.23263">
        <ele>521.79998779297</ele>
        <time>2017-07-20T14:28:39Z</time>
      </trkpt>
      <trkpt lat="48.09662" lon="7.23258">
        <ele>522</ele>
        <time>2017-07-20T14:28:41Z</time>
      </trkpt>
      <trkpt lat="48.09667" lon="7.23251">
        <ele>522.59997558594</ele>
        <time>2017-07-20T14:28:45Z</time>
      </trkpt>
      <trkpt lat="48.09672" lon="7.23245">
        <ele>523.20001220703</ele>
        <time>2017-07-20T14:28:48Z</time>
      </trkpt>
      <trkpt lat="48.09675" lon="7.23242">
        <ele>523.59997558594</ele>
        <time>2017-07-20T14:28:50Z</time>
      </trkpt>
      <trkpt lat="48.09683" lon="7.23232">
        <ele>524.20001220703</ele>
        <time>2017-07-20T14:28:55Z</time>
      </trkpt>
      <trkpt lat="48.09685" lon="7.23231">
        <ele>524.40002441406</ele>
        <time>2017-07-20T14:28:56Z</time>
      </trkpt>
      <trkpt lat="48.09689" lon="7.23221">
        <ele>525.40002441406</ele>
        <time>2017-07-20T14:29:00Z</time>
      </trkpt>
      <trkpt lat="48.09689" lon="7.23218">
        <ele>525.59997558594</ele>
        <time>2017-07-20T14:29:01Z</time>
      </trkpt>
      <trkpt lat="48.09685" lon="7.23204">
        <ele>526.20001220703</ele>
        <time>2017-07-20T14:29:06Z</time>
      </trkpt>
      <trkpt lat="48.09684" lon="7.23202">
        <ele>526.40002441406</ele>
        <time>2017-07-20T14:29:07Z</time>
      </trkpt>
      <trkpt lat="48.09673" lon="7.23192">
        <ele>527</ele>
        <time>2017-07-20T14:29:12Z</time>
      </trkpt>
      <trkpt lat="48.09666" lon="7.23184">
        <ele>527.59997558594</ele>
        <time>2017-07-20T14:29:15Z</time>
      </trkpt>
      <trkpt lat="48.0966" lon="7.23181">
        <ele>528</ele>
        <time>2017-07-20T14:29:18Z</time>
      </trkpt>
      <trkpt lat="48.0965" lon="7.23179">
        <ele>528.59997558594</ele>
        <time>2017-07-20T14:29:22Z</time>
      </trkpt>
      <trkpt lat="48.09642" lon="7.23178">
        <ele>529.20001220703</ele>
        <time>2017-07-20T14:29:25Z</time>
      </trkpt>
      <trkpt lat="48.09635" lon="7.23175">
        <ele>529.79998779297</ele>
        <time>2017-07-20T14:29:28Z</time>
      </trkpt>
      <trkpt lat="48.09631" lon="7.23175">
        <ele>530</ele>
        <time>2017-07-20T14:29:30Z</time>
      </trkpt>
      <trkpt lat="48.09619" lon="7.23176">
        <ele>530.79998779297</ele>
        <time>2017-07-20T14:29:35Z</time>
      </trkpt>
      <trkpt lat="48.09615" lon="7.23178">
        <ele>531</ele>
        <time>2017-07-20T14:29:37Z</time>
      </trkpt>
      <trkpt lat="48.09602" lon="7.2318">
        <ele>531.59997558594</ele>
        <time>2017-07-20T14:29:43Z</time>
      </trkpt>
      <trkpt lat="48.096" lon="7.2318">
        <ele>531.79998779297</ele>
        <time>2017-07-20T14:29:44Z</time>
      </trkpt>
      <trkpt lat="48.09588" lon="7.23181">
        <ele>532.59997558594</ele>
        <time>2017-07-20T14:29:49Z</time>
      </trkpt>
      <trkpt lat="48.09584" lon="7.23181">
        <ele>532.79998779297</ele>
        <time>2017-07-20T14:29:51Z</time>
      </trkpt>
      <trkpt lat="48.0957" lon="7.23175">
        <ele>533.59997558594</ele>
        <time>2017-07-20T14:29:57Z</time>
      </trkpt>
      <trkpt lat="48.09566" lon="7.2317">
        <ele>534</ele>
        <time>2017-07-20T14:29:59Z</time>
      </trkpt>
      <trkpt lat="48.09557" lon="7.2316">
        <ele>534.79998779297</ele>
        <time>2017-07-20T14:30:04Z</time>
      </trkpt>
      <trkpt lat="48.09555" lon="7.23159">
        <ele>535</ele>
        <time>2017-07-20T14:30:05Z</time>
      </trkpt>
      <trkpt lat="48.0954" lon="7.23151">
        <ele>536.20001220703</ele>
        <time>2017-07-20T14:30:12Z</time>
      </trkpt>
      <trkpt lat="48.09528" lon="7.23148">
        <ele>536.79998779297</ele>
        <time>2017-07-20T14:30:17Z</time>
      </trkpt>
      <trkpt lat="48.09521" lon="7.23147">
        <ele>537.20001220703</ele>
        <time>2017-07-20T14:30:20Z</time>
      </trkpt>
      <trkpt lat="48.09513" lon="7.23146">
        <ele>537.59997558594</ele>
        <time>2017-07-20T14:30:23Z</time>
      </trkpt>
      <trkpt lat="48.09496" lon="7.23141">
        <ele>538.40002441406</ele>
        <time>2017-07-20T14:30:29Z</time>
      </trkpt>
      <trkpt lat="48.09491" lon="7.23138">
        <ele>538.59997558594</ele>
        <time>2017-07-20T14:30:31Z</time>
      </trkpt>
      <trkpt lat="48.09483" lon="7.23129">
        <ele>539.40002441406</ele>
        <time>2017-07-20T14:30:35Z</time>
      </trkpt>
      <trkpt lat="48.09481" lon="7.23128">
        <ele>539.59997558594</ele>
        <time>2017-07-20T14:30:36Z</time>
      </trkpt>
      <trkpt lat="48.09479" lon="7.23126">
        <ele>539.79998779297</ele>
        <time>2017-07-20T14:30:37Z</time>
      </trkpt>
      <trkpt lat="48.0947" lon="7.23114">
        <ele>540.59997558594</ele>
        <time>2017-07-20T14:30:42Z</time>
      </trkpt>
      <trkpt lat="48.09468" lon="7.23113">
        <ele>540.59997558594</ele>
        <time>2017-07-20T14:30:43Z</time>
      </trkpt>
      <trkpt lat="48.09456" lon="7.23104">
        <ele>541.40002441406</ele>
        <time>2017-07-20T14:30:49Z</time>
      </trkpt>
      <trkpt lat="48.09453" lon="7.23103">
        <ele>541.59997558594</ele>
        <time>2017-07-20T14:30:50Z</time>
      </trkpt>
      <trkpt lat="48.09443" lon="7.23098">
        <ele>542.40002441406</ele>
        <time>2017-07-20T14:30:55Z</time>
      </trkpt>
      <trkpt lat="48.09439" lon="7.23096">
        <ele>542.79998779297</ele>
        <time>2017-07-20T14:30:57Z</time>
      </trkpt>
      <trkpt lat="48.09428" lon="7.23093">
        <ele>543.59997558594</ele>
        <time>2017-07-20T14:31:02Z</time>
      </trkpt>
      <trkpt lat="48.09424" lon="7.23092">
        <ele>543.79998779297</ele>
        <time>2017-07-20T14:31:04Z</time>
      </trkpt>
      <trkpt lat="48.09409" lon="7.23091">
        <ele>544.79998779297</ele>
        <time>2017-07-20T14:31:11Z</time>
      </trkpt>
      <trkpt lat="48.09406" lon="7.2309">
        <ele>544.79998779297</ele>
        <time>2017-07-20T14:31:12Z</time>
      </trkpt>
      <trkpt lat="48.09391" lon="7.23088">
        <ele>545.79998779297</ele>
        <time>2017-07-20T14:31:19Z</time>
      </trkpt>
      <trkpt lat="48.09389" lon="7.23087">
        <ele>545.79998779297</ele>
        <time>2017-07-20T14:31:20Z</time>
      </trkpt>
      <trkpt lat="48.09378" lon="7.23079">
        <ele>546.79998779297</ele>
        <time>2017-07-20T14:31:25Z</time>
      </trkpt>
      <trkpt lat="48.09375" lon="7.23075">
        <ele>547</ele>
        <time>2017-07-20T14:31:27Z</time>
      </trkpt>
      <trkpt lat="48.0937" lon="7.23063">
        <ele>547.79998779297</ele>
        <time>2017-07-20T14:31:31Z</time>
      </trkpt>
      <trkpt lat="48.09368" lon="7.23057">
        <ele>548.20001220703</ele>
        <time>2017-07-20T14:31:33Z</time>
      </trkpt>
      <trkpt lat="48.09366" lon="7.23049">
        <ele>548.59997558594</ele>
        <time>2017-07-20T14:31:36Z</time>
      </trkpt>
      <trkpt lat="48.09366" lon="7.23045">
        <ele>548.79998779297</ele>
        <time>2017-07-20T14:31:37Z</time>
      </trkpt>
      <trkpt lat="48.09366" lon="7.23035">
        <ele>549.20001220703</ele>
        <time>2017-07-20T14:31:40Z</time>
      </trkpt>
      <trkpt lat="48.09365" lon="7.23025">
        <ele>549.79998779297</ele>
        <time>2017-07-20T14:31:43Z</time>
      </trkpt>
      <trkpt lat="48.09364" lon="7.23011">
        <ele>550.40002441406</ele>
        <time>2017-07-20T14:31:48Z</time>
      </trkpt>
      <trkpt lat="48.09363" lon="7.23005">
        <ele>550.79998779297</ele>
        <time>2017-07-20T14:31:50Z</time>
      </trkpt>
      <trkpt lat="48.09362" lon="7.22988">
        <ele>551.40002441406</ele>
        <time>2017-07-20T14:31:55Z</time>
      </trkpt>
      <trkpt lat="48.09363" lon="7.22977">
        <ele>552</ele>
        <time>2017-07-20T14:31:58Z</time>
      </trkpt>
      <trkpt lat="48.09364" lon="7.22962">
        <ele>552.59997558594</ele>
        <time>2017-07-20T14:32:02Z</time>
      </trkpt>
      <trkpt lat="48.09367" lon="7.22943">
        <ele>553.20001220703</ele>
        <time>2017-07-20T14:32:07Z</time>
      </trkpt>
      <trkpt lat="48.09369" lon="7.22933">
        <ele>553.59997558594</ele>
        <time>2017-07-20T14:32:10Z</time>
      </trkpt>
      <trkpt lat="48.0937" lon="7.2293">
        <ele>553.79998779297</ele>
        <time>2017-07-20T14:32:11Z</time>
      </trkpt>
      <trkpt lat="48.09374" lon="7.22921">
        <ele>554.20001220703</ele>
        <time>2017-07-20T14:32:14Z</time>
      </trkpt>
      <trkpt lat="48.09376" lon="7.22915">
        <ele>554.59997558594</ele>
        <time>2017-07-20T14:32:16Z</time>
      </trkpt>
      <trkpt lat="48.0938" lon="7.22903">
        <ele>555.20001220703</ele>
        <time>2017-07-20T14:32:20Z</time>
      </trkpt>
      <trkpt lat="48.09383" lon="7.22895">
        <ele>555.59997558594</ele>
        <time>2017-07-20T14:32:23Z</time>
      </trkpt>
      <trkpt lat="48.09391" lon="7.22878">
        <ele>556.59997558594</ele>
        <time>2017-07-20T14:32:29Z</time>
      </trkpt>
      <trkpt lat="48.09392" lon="7.22875">
        <ele>556.59997558594</ele>
        <time>2017-07-20T14:32:30Z</time>
      </trkpt>
      <trkpt lat="48.09403" lon="7.22859">
        <ele>557.79998779297</ele>
        <time>2017-07-20T14:32:37Z</time>
      </trkpt>
      <trkpt lat="48.09415" lon="7.22854">
        <ele>558.59997558594</ele>
        <time>2017-07-20T14:32:43Z</time>
      </trkpt>
      <trkpt lat="48.09418" lon="7.22857">
        <ele>558.79998779297</ele>
        <time>2017-07-20T14:32:45Z</time>
      </trkpt>
      <trkpt lat="48.09421" lon="7.22866">
        <ele>559.20001220703</ele>
        <time>2017-07-20T14:32:48Z</time>
      </trkpt>
      <trkpt lat="48.09421" lon="7.22872">
        <ele>559.59997558594</ele>
        <time>2017-07-20T14:32:50Z</time>
      </trkpt>
      <trkpt lat="48.0942" lon="7.22875">
        <ele>559.59997558594</ele>
        <time>2017-07-20T14:32:51Z</time>
      </trkpt>
      <trkpt lat="48.09418" lon="7.22881">
        <ele>560</ele>
        <time>2017-07-20T14:32:53Z</time>
      </trkpt>
      <trkpt lat="48.09409" lon="7.22892">
        <ele>560.79998779297</ele>
        <time>2017-07-20T14:32:58Z</time>
      </trkpt>
      <trkpt lat="48.09407" lon="7.22894">
        <ele>561</ele>
        <time>2017-07-20T14:32:59Z</time>
      </trkpt>
      <trkpt lat="48.09397" lon="7.22911">
        <ele>561.79998779297</ele>
        <time>2017-07-20T14:33:06Z</time>
      </trkpt>
      <trkpt lat="48.09394" lon="7.22916">
        <ele>562.20001220703</ele>
        <time>2017-07-20T14:33:08Z</time>
      </trkpt>
      <trkpt lat="48.09389" lon="7.2293">
        <ele>562.79998779297</ele>
        <time>2017-07-20T14:33:13Z</time>
      </trkpt>
      <trkpt lat="48.09388" lon="7.22936">
        <ele>563.20001220703</ele>
        <time>2017-07-20T14:33:15Z</time>
      </trkpt>
      <trkpt lat="48.09385" lon="7.22953">
        <ele>563.79998779297</ele>
        <time>2017-07-20T14:33:20Z</time>
      </trkpt>
      <trkpt lat="48.09386" lon="7.22963">
        <ele>564.40002441406</ele>
        <time>2017-07-20T14:33:23Z</time>
      </trkpt>
      <trkpt lat="48.09389" lon="7.22979">
        <ele>565.20001220703</ele>
        <time>2017-07-20T14:33:28Z</time>
      </trkpt>
      <trkpt lat="48.09393" lon="7.22992">
        <ele>565.40002441406</ele>
        <time>2017-07-20T14:33:32Z</time>
      </trkpt>
      <trkpt lat="48.09397" lon="7.23004">
        <ele>565.79998779297</ele>
        <time>2017-07-20T14:33:36Z</time>
      </trkpt>
      <trkpt lat="48.09406" lon="7.23025">
        <ele>566.40002441406</ele>
        <time>2017-07-20T14:33:43Z</time>
      </trkpt>
      <trkpt lat="48.09418" lon="7.2304">
        <ele>567.59997558594</ele>
        <time>2017-07-20T14:33:50Z</time>
      </trkpt>
      <trkpt lat="48.09428" lon="7.23047">
        <ele>568.20001220703</ele>
        <time>2017-07-20T14:33:55Z</time>
      </trkpt>
      <trkpt lat="48.0943" lon="7.23047">
        <ele>568.40002441406</ele>
        <time>2017-07-20T14:33:56Z</time>
      </trkpt>
      <trkpt lat="48.09433" lon="7.23047">
        <ele>568.79998779297</ele>
        <time>2017-07-20T14:33:58Z</time>
      </trkpt>
      <trkpt lat="48.09442" lon="7.23048">
        <ele>569.40002441406</ele>
        <time>2017-07-20T14:34:02Z</time>
      </trkpt>
      <trkpt lat="48.09449" lon="7.23049">
        <ele>569.79998779297</ele>
        <time>2017-07-20T14:34:05Z</time>
      </trkpt>
      <trkpt lat="48.09458" lon="7.23049">
        <ele>570.40002441406</ele>
        <time>2017-07-20T14:34:09Z</time>
      </trkpt>
      <trkpt lat="48.09462" lon="7.23051">
        <ele>570.79998779297</ele>
        <time>2017-07-20T14:34:11Z</time>
      </trkpt>
      <trkpt lat="48.09472" lon="7.23053">
        <ele>571.59997558594</ele>
        <time>2017-07-20T14:34:16Z</time>
      </trkpt>
      <trkpt lat="48.09478" lon="7.23054">
        <ele>572</ele>
        <time>2017-07-20T14:34:19Z</time>
      </trkpt>
      <trkpt lat="48.09486" lon="7.23056">
        <ele>572.59997558594</ele>
        <time>2017-07-20T14:34:23Z</time>
      </trkpt>
      <trkpt lat="48.09493" lon="7.23058">
        <ele>573</ele>
        <time>2017-07-20T14:34:26Z</time>
      </trkpt>
      <trkpt lat="48.09508" lon="7.23063">
        <ele>574</ele>
        <time>2017-07-20T14:34:33Z</time>
      </trkpt>
      <trkpt lat="48.0951" lon="7.23064">
        <ele>574</ele>
        <time>2017-07-20T14:34:34Z</time>
      </trkpt>
      <trkpt lat="48.09523" lon="7.23067">
        <ele>575.20001220703</ele>
        <time>2017-07-20T14:34:40Z</time>
      </trkpt>
      <trkpt lat="48.09528" lon="7.23068">
        <ele>575.40002441406</ele>
        <time>2017-07-20T14:34:42Z</time>
      </trkpt>
      <trkpt lat="48.09541" lon="7.23071">
        <ele>576.20001220703</ele>
        <time>2017-07-20T14:34:48Z</time>
      </trkpt>
      <trkpt lat="48.09545" lon="7.23073">
        <ele>576.40002441406</ele>
        <time>2017-07-20T14:34:50Z</time>
      </trkpt>
      <trkpt lat="48.09557" lon="7.23078">
        <ele>577.40002441406</ele>
        <time>2017-07-20T14:34:56Z</time>
      </trkpt>
      <trkpt lat="48.09563" lon="7.23078">
        <ele>577.79998779297</ele>
        <time>2017-07-20T14:34:59Z</time>
      </trkpt>
      <trkpt lat="48.09572" lon="7.23079">
        <ele>578.40002441406</ele>
        <time>2017-07-20T14:35:03Z</time>
      </trkpt>
      <trkpt lat="48.09583" lon="7.23079">
        <ele>579.20001220703</ele>
        <time>2017-07-20T14:35:08Z</time>
      </trkpt>
      <trkpt lat="48.09589" lon="7.23078">
        <ele>579.40002441406</ele>
        <time>2017-07-20T14:35:11Z</time>
      </trkpt>
      <trkpt lat="48.09598" lon="7.23076">
        <ele>580</ele>
        <time>2017-07-20T14:35:15Z</time>
      </trkpt>
      <trkpt lat="48.09607" lon="7.23071">
        <ele>580.59997558594</ele>
        <time>2017-07-20T14:35:19Z</time>
      </trkpt>
      <trkpt lat="48.09615" lon="7.23067">
        <ele>580.79998779297</ele>
        <time>2017-07-20T14:35:22Z</time>
      </trkpt>
      <trkpt lat="48.09624" lon="7.23062">
        <ele>581.59997558594</ele>
        <time>2017-07-20T14:35:27Z</time>
      </trkpt>
      <trkpt lat="48.09628" lon="7.23059">
        <ele>582</ele>
        <time>2017-07-20T14:35:29Z</time>
      </trkpt>
      <trkpt lat="48.09638" lon="7.23056">
        <ele>582.59997558594</ele>
        <time>2017-07-20T14:35:35Z</time>
      </trkpt>
      <trkpt lat="48.09641" lon="7.23054">
        <ele>582.79998779297</ele>
        <time>2017-07-20T14:35:37Z</time>
      </trkpt>
      <trkpt lat="48.09652" lon="7.2305">
        <ele>583.40002441406</ele>
        <time>2017-07-20T14:35:42Z</time>
      </trkpt>
      <trkpt lat="48.09664" lon="7.23049">
        <ele>583.79998779297</ele>
        <time>2017-07-20T14:35:46Z</time>
      </trkpt>
      <trkpt lat="48.0967" lon="7.23049">
        <ele>584.40002441406</ele>
        <time>2017-07-20T14:35:48Z</time>
      </trkpt>
      <trkpt lat="48.09679" lon="7.23051">
        <ele>584.79998779297</ele>
        <time>2017-07-20T14:35:51Z</time>
      </trkpt>
      <trkpt lat="48.09692" lon="7.23054">
        <ele>585.40002441406</ele>
        <time>2017-07-20T14:35:55Z</time>
      </trkpt>
      <trkpt lat="48.09702" lon="7.23057">
        <ele>586</ele>
        <time>2017-07-20T14:35:59Z</time>
      </trkpt>
      <trkpt lat="48.09709" lon="7.23062">
        <ele>586.40002441406</ele>
        <time>2017-07-20T14:36:02Z</time>
      </trkpt>
      <trkpt lat="48.09716" lon="7.23065">
        <ele>586.79998779297</ele>
        <time>2017-07-20T14:36:05Z</time>
      </trkpt>
      <trkpt lat="48.0972" lon="7.23067">
        <ele>587</ele>
        <time>2017-07-20T14:36:07Z</time>
      </trkpt>
      <trkpt lat="48.09722" lon="7.23068">
        <ele>587</ele>
        <time>2017-07-20T14:36:08Z</time>
      </trkpt>
      <trkpt lat="48.09738" lon="7.23076">
        <ele>588.20001220703</ele>
        <time>2017-07-20T14:36:15Z</time>
      </trkpt>
      <trkpt lat="48.09758" lon="7.23085">
        <ele>589.20001220703</ele>
        <time>2017-07-20T14:36:23Z</time>
      </trkpt>
      <trkpt lat="48.09774" lon="7.23091">
        <ele>590.20001220703</ele>
        <time>2017-07-20T14:36:29Z</time>
      </trkpt>
      <trkpt lat="48.09777" lon="7.23093">
        <ele>590.20001220703</ele>
        <time>2017-07-20T14:36:30Z</time>
      </trkpt>
      <trkpt lat="48.09794" lon="7.23104">
        <ele>591.20001220703</ele>
        <time>2017-07-20T14:36:37Z</time>
      </trkpt>
      <trkpt lat="48.09797" lon="7.23105">
        <ele>591.40002441406</ele>
        <time>2017-07-20T14:36:38Z</time>
      </trkpt>
      <trkpt lat="48.09813" lon="7.23114">
        <ele>592.20001220703</ele>
        <time>2017-07-20T14:36:44Z</time>
      </trkpt>
      <trkpt lat="48.09816" lon="7.23115">
        <ele>592.40002441406</ele>
        <time>2017-07-20T14:36:45Z</time>
      </trkpt>
      <trkpt lat="48.09829" lon="7.23118">
        <ele>593</ele>
        <time>2017-07-20T14:36:50Z</time>
      </trkpt>
      <trkpt lat="48.09836" lon="7.2312">
        <ele>593.40002441406</ele>
        <time>2017-07-20T14:36:53Z</time>
      </trkpt>
      <trkpt lat="48.09845" lon="7.23124">
        <ele>593.79998779297</ele>
        <time>2017-07-20T14:36:57Z</time>
      </trkpt>
      <trkpt lat="48.09855" lon="7.23128">
        <ele>594.40002441406</ele>
        <time>2017-07-20T14:37:01Z</time>
      </trkpt>
      <trkpt lat="48.09862" lon="7.23132">
        <ele>594.79998779297</ele>
        <time>2017-07-20T14:37:04Z</time>
      </trkpt>
      <trkpt lat="48.09872" lon="7.23147">
        <ele>595.59997558594</ele>
        <time>2017-07-20T14:37:08Z</time>
      </trkpt>
      <trkpt lat="48.09883" lon="7.2317">
        <ele>596.59997558594</ele>
        <time>2017-07-20T14:37:15Z</time>
      </trkpt>
      <trkpt lat="48.09885" lon="7.23172">
        <ele>596.79998779297</ele>
        <time>2017-07-20T14:37:16Z</time>
      </trkpt>
      <trkpt lat="48.09891" lon="7.23191">
        <ele>597.79998779297</ele>
        <time>2017-07-20T14:37:22Z</time>
      </trkpt>
      <trkpt lat="48.09894" lon="7.23202">
        <ele>598.40002441406</ele>
        <time>2017-07-20T14:37:25Z</time>
      </trkpt>
      <trkpt lat="48.09897" lon="7.23217">
        <ele>599</ele>
        <time>2017-07-20T14:37:29Z</time>
      </trkpt>
      <trkpt lat="48.09899" lon="7.23224">
        <ele>599.20001220703</ele>
        <time>2017-07-20T14:37:31Z</time>
      </trkpt>
      <trkpt lat="48.09902" lon="7.23243">
        <ele>600</ele>
        <time>2017-07-20T14:37:36Z</time>
      </trkpt>
      <trkpt lat="48.09902" lon="7.2325">
        <ele>600.20001220703</ele>
        <time>2017-07-20T14:37:38Z</time>
      </trkpt>
      <trkpt lat="48.09895" lon="7.23266">
        <ele>601</ele>
        <time>2017-07-20T14:37:44Z</time>
      </trkpt>
      <trkpt lat="48.09892" lon="7.23273">
        <ele>601.40002441406</ele>
        <time>2017-07-20T14:37:46Z</time>
      </trkpt>
      <trkpt lat="48.09885" lon="7.23288">
        <ele>602.20001220703</ele>
        <time>2017-07-20T14:37:51Z</time>
      </trkpt>
      <trkpt lat="48.09883" lon="7.23291">
        <ele>602.20001220703</ele>
        <time>2017-07-20T14:37:52Z</time>
      </trkpt>
      <trkpt lat="48.09871" lon="7.23311">
        <ele>603</ele>
        <time>2017-07-20T14:37:59Z</time>
      </trkpt>
      <trkpt lat="48.09867" lon="7.23317">
        <ele>603.20001220703</ele>
        <time>2017-07-20T14:38:01Z</time>
      </trkpt>
      <trkpt lat="48.09857" lon="7.2333">
        <ele>603.59997558594</ele>
        <time>2017-07-20T14:38:06Z</time>
      </trkpt>
      <trkpt lat="48.09849" lon="7.23344">
        <ele>604.20001220703</ele>
        <time>2017-07-20T14:38:11Z</time>
      </trkpt>
      <trkpt lat="48.09845" lon="7.2335">
        <ele>604.59997558594</ele>
        <time>2017-07-20T14:38:13Z</time>
      </trkpt>
      <trkpt lat="48.09834" lon="7.23366">
        <ele>605.40002441406</ele>
        <time>2017-07-20T14:38:19Z</time>
      </trkpt>
      <trkpt lat="48.09823" lon="7.23391">
        <ele>606.40002441406</ele>
        <time>2017-07-20T14:38:27Z</time>
      </trkpt>
      <trkpt lat="48.0982" lon="7.23418">
        <ele>607.40002441406</ele>
        <time>2017-07-20T14:38:34Z</time>
      </trkpt>
      <trkpt lat="48.09824" lon="7.23445">
        <ele>608.40002441406</ele>
        <time>2017-07-20T14:38:41Z</time>
      </trkpt>
      <trkpt lat="48.09825" lon="7.23448">
        <ele>608.59997558594</ele>
        <time>2017-07-20T14:38:42Z</time>
      </trkpt>
      <trkpt lat="48.09833" lon="7.23461">
        <ele>609</ele>
        <time>2017-07-20T14:38:47Z</time>
      </trkpt>
      <trkpt lat="48.09844" lon="7.23466">
        <ele>609.59997558594</ele>
        <time>2017-07-20T14:38:52Z</time>
      </trkpt>
      <trkpt lat="48.09849" lon="7.23467">
        <ele>609.79998779297</ele>
        <time>2017-07-20T14:38:54Z</time>
      </trkpt>
      <trkpt lat="48.09865" lon="7.23465">
        <ele>610.79998779297</ele>
        <time>2017-07-20T14:39:01Z</time>
      </trkpt>
      <trkpt lat="48.09877" lon="7.23456">
        <ele>611.79998779297</ele>
        <time>2017-07-20T14:39:07Z</time>
      </trkpt>
      <trkpt lat="48.09878" lon="7.23454">
        <ele>611.79998779297</ele>
        <time>2017-07-20T14:39:08Z</time>
      </trkpt>
      <trkpt lat="48.09884" lon="7.23438">
        <ele>612.79998779297</ele>
        <time>2017-07-20T14:39:13Z</time>
      </trkpt>
      <trkpt lat="48.09885" lon="7.23435">
        <ele>613</ele>
        <time>2017-07-20T14:39:14Z</time>
      </trkpt>
      <trkpt lat="48.09887" lon="7.23431">
        <ele>613.20001220703</ele>
        <time>2017-07-20T14:39:16Z</time>
      </trkpt>
      <trkpt lat="48.09888" lon="7.23432">
        <ele>613.59997558594</ele>
        <time>2017-07-20T14:39:18Z</time>
      </trkpt>
      <trkpt lat="48.09889" lon="7.23434">
        <ele>614</ele>
        <time>2017-07-20T14:39:20Z</time>
      </trkpt>
      <trkpt lat="48.09888" lon="7.23429">
        <ele>614.40002441406</ele>
        <time>2017-07-20T14:40:03Z</time>
      </trkpt>
      <trkpt lat="48.09888" lon="7.23415">
        <ele>614.59997558594</ele>
        <time>2017-07-20T14:40:07Z</time>
      </trkpt>
      <trkpt lat="48.0989" lon="7.23403">
        <ele>614.59997558594</ele>
        <time>2017-07-20T14:40:10Z</time>
      </trkpt>
      <trkpt lat="48.09892" lon="7.2339">
        <ele>615</ele>
        <time>2017-07-20T14:40:13Z</time>
      </trkpt>
      <trkpt lat="48.09892" lon="7.23386">
        <ele>615.20001220703</ele>
        <time>2017-07-20T14:40:14Z</time>
      </trkpt>
      <trkpt lat="48.09895" lon="7.23359">
        <ele>616.20001220703</ele>
        <time>2017-07-20T14:40:21Z</time>
      </trkpt>
      <trkpt lat="48.09897" lon="7.23353">
        <ele>616.40002441406</ele>
        <time>2017-07-20T14:40:23Z</time>
      </trkpt>
      <trkpt lat="48.09901" lon="7.23341">
        <ele>617.20001220703</ele>
        <time>2017-07-20T14:40:27Z</time>
      </trkpt>
      <trkpt lat="48.09904" lon="7.23338">
        <ele>617.40002441406</ele>
        <time>2017-07-20T14:40:29Z</time>
      </trkpt>
      <trkpt lat="48.09906" lon="7.23337">
        <ele>617.40002441406</ele>
        <time>2017-07-20T14:40:30Z</time>
      </trkpt>
      <trkpt lat="48.09914" lon="7.23339">
        <ele>618.20001220703</ele>
        <time>2017-07-20T14:40:34Z</time>
      </trkpt>
      <trkpt lat="48.09915" lon="7.23341">
        <ele>618.40002441406</ele>
        <time>2017-07-20T14:40:35Z</time>
      </trkpt>
      <trkpt lat="48.09918" lon="7.2335">
        <ele>619</ele>
        <time>2017-07-20T14:40:38Z</time>
      </trkpt>
      <trkpt lat="48.0992" lon="7.23361">
        <ele>619.40002441406</ele>
        <time>2017-07-20T14:40:42Z</time>
      </trkpt>
      <trkpt lat="48.09918" lon="7.23379">
        <ele>620.59997558594</ele>
        <time>2017-07-20T14:40:48Z</time>
      </trkpt>
      <trkpt lat="48.09918" lon="7.23382">
        <ele>620.79998779297</ele>
        <time>2017-07-20T14:40:49Z</time>
      </trkpt>
      <trkpt lat="48.09918" lon="7.23398">
        <ele>621.40002441406</ele>
        <time>2017-07-20T14:40:54Z</time>
      </trkpt>
      <trkpt lat="48.09917" lon="7.23408">
        <ele>621.59997558594</ele>
        <time>2017-07-20T14:40:57Z</time>
      </trkpt>
      <trkpt lat="48.09918" lon="7.23417">
        <ele>622</ele>
        <time>2017-07-20T14:41:00Z</time>
      </trkpt>
      <trkpt lat="48.0992" lon="7.23427">
        <ele>622.79998779297</ele>
        <time>2017-07-20T14:41:03Z</time>
      </trkpt>
      <trkpt lat="48.09924" lon="7.23444">
        <ele>623.79998779297</ele>
        <time>2017-07-20T14:41:09Z</time>
      </trkpt>
      <trkpt lat="48.09925" lon="7.23447">
        <ele>623.79998779297</ele>
        <time>2017-07-20T14:41:10Z</time>
      </trkpt>
      <trkpt lat="48.09931" lon="7.23456">
        <ele>624.40002441406</ele>
        <time>2017-07-20T14:41:15Z</time>
      </trkpt>
      <trkpt lat="48.09938" lon="7.23457">
        <ele>625</ele>
        <time>2017-07-20T14:41:19Z</time>
      </trkpt>
      <trkpt lat="48.09942" lon="7.23455">
        <ele>625.40002441406</ele>
        <time>2017-07-20T14:41:21Z</time>
      </trkpt>
      <trkpt lat="48.09943" lon="7.23452">
        <ele>625.59997558594</ele>
        <time>2017-07-20T14:41:22Z</time>
      </trkpt>
      <trkpt lat="48.09945" lon="7.23441">
        <ele>626</ele>
        <time>2017-07-20T14:41:25Z</time>
      </trkpt>
      <trkpt lat="48.09945" lon="7.23437">
        <ele>626</ele>
        <time>2017-07-20T14:41:26Z</time>
      </trkpt>
      <trkpt lat="48.09943" lon="7.23426">
        <ele>626.20001220703</ele>
        <time>2017-07-20T14:41:29Z</time>
      </trkpt>
      <trkpt lat="48.09935" lon="7.23404">
        <ele>626.59997558594</ele>
        <time>2017-07-20T14:41:35Z</time>
      </trkpt>
      <trkpt lat="48.09933" lon="7.23389">
        <ele>627</ele>
        <time>2017-07-20T14:41:39Z</time>
      </trkpt>
      <trkpt lat="48.09933" lon="7.23381">
        <ele>627.40002441406</ele>
        <time>2017-07-20T14:41:41Z</time>
      </trkpt>
      <trkpt lat="48.09936" lon="7.2337">
        <ele>627.59997558594</ele>
        <time>2017-07-20T14:41:44Z</time>
      </trkpt>
      <trkpt lat="48.0994" lon="7.2336">
        <ele>628</ele>
        <time>2017-07-20T14:41:47Z</time>
      </trkpt>
      <trkpt lat="48.09942" lon="7.23356">
        <ele>628.20001220703</ele>
        <time>2017-07-20T14:41:48Z</time>
      </trkpt>
      <trkpt lat="48.0995" lon="7.23339">
        <ele>629</ele>
        <time>2017-07-20T14:41:53Z</time>
      </trkpt>
      <trkpt lat="48.09953" lon="7.23332">
        <ele>629.20001220703</ele>
        <time>2017-07-20T14:41:55Z</time>
      </trkpt>
      <trkpt lat="48.09962" lon="7.23311">
        <ele>630.20001220703</ele>
        <time>2017-07-20T14:42:01Z</time>
      </trkpt>
      <trkpt lat="48.09964" lon="7.23308">
        <ele>630.40002441406</ele>
        <time>2017-07-20T14:42:02Z</time>
      </trkpt>
      <trkpt lat="48.09976" lon="7.23279">
        <ele>631.40002441406</ele>
        <time>2017-07-20T14:42:10Z</time>
      </trkpt>
      <trkpt lat="48.09978" lon="7.23275">
        <ele>631.59997558594</ele>
        <time>2017-07-20T14:42:11Z</time>
      </trkpt>
      <trkpt lat="48.09985" lon="7.23252">
        <ele>632.59997558594</ele>
        <time>2017-07-20T14:42:17Z</time>
      </trkpt>
      <trkpt lat="48.09985" lon="7.23248">
        <ele>632.79998779297</ele>
        <time>2017-07-20T14:42:18Z</time>
      </trkpt>
      <trkpt lat="48.09987" lon="7.23219">
        <ele>633.59997558594</ele>
        <time>2017-07-20T14:42:25Z</time>
      </trkpt>
      <trkpt lat="48.09987" lon="7.23215">
        <ele>633.59997558594</ele>
        <time>2017-07-20T14:42:26Z</time>
      </trkpt>
      <trkpt lat="48.09987" lon="7.23176">
        <ele>634.59997558594</ele>
        <time>2017-07-20T14:42:35Z</time>
      </trkpt>
      <trkpt lat="48.09987" lon="7.23168">
        <ele>635</ele>
        <time>2017-07-20T14:42:37Z</time>
      </trkpt>
      <trkpt lat="48.09985" lon="7.23148">
        <ele>635.79998779297</ele>
        <time>2017-07-20T14:42:42Z</time>
      </trkpt>
      <trkpt lat="48.09984" lon="7.2314">
        <ele>636</ele>
        <time>2017-07-20T14:42:44Z</time>
      </trkpt>
      <trkpt lat="48.09984" lon="7.23124">
        <ele>636.59997558594</ele>
        <time>2017-07-20T14:42:50Z</time>
      </trkpt>
      <trkpt lat="48.09985" lon="7.23122">
        <ele>636.59997558594</ele>
        <time>2017-07-20T14:42:51Z</time>
      </trkpt>
      <trkpt lat="48.09987" lon="7.23121">
        <ele>636.79998779297</ele>
        <time>2017-07-20T14:42:52Z</time>
      </trkpt>
      <trkpt lat="48.09992" lon="7.23119">
        <ele>637.40002441406</ele>
        <time>2017-07-20T14:42:54Z</time>
      </trkpt>
      <trkpt lat="48.09995" lon="7.23118">
        <ele>637.40002441406</ele>
        <time>2017-07-20T14:42:55Z</time>
      </trkpt>
      <trkpt lat="48.1" lon="7.23116">
        <ele>637.79998779297</ele>
        <time>2017-07-20T14:42:58Z</time>
      </trkpt>
      <trkpt lat="48.10002" lon="7.23114">
        <ele>637.79998779297</ele>
        <time>2017-07-20T14:42:59Z</time>
      </trkpt>
      <trkpt lat="48.10005" lon="7.23113">
        <ele>638.20001220703</ele>
        <time>2017-07-20T14:43:01Z</time>
      </trkpt>
      <trkpt lat="48.10006" lon="7.23112">
        <ele>638.40002441406</ele>
        <time>2017-07-20T14:43:02Z</time>
      </trkpt>
      <trkpt lat="48.1001" lon="7.23113">
        <ele>638.59997558594</ele>
        <time>2017-07-20T14:43:04Z</time>
      </trkpt>
      <trkpt lat="48.10012" lon="7.23112">
        <ele>638.59997558594</ele>
        <time>2017-07-20T14:43:05Z</time>
      </trkpt>
      <trkpt lat="48.1002" lon="7.23109">
        <ele>638.79998779297</ele>
        <time>2017-07-20T14:43:09Z</time>
      </trkpt>
      <trkpt lat="48.10036" lon="7.23103">
        <ele>639</ele>
        <time>2017-07-20T14:43:15Z</time>
      </trkpt>
      <trkpt lat="48.10045" lon="7.23103">
        <ele>638.59997558594</ele>
        <time>2017-07-20T14:43:20Z</time>
      </trkpt>
      <trkpt lat="48.10046" lon="7.23103">
        <ele>638.59997558594</ele>
        <time>2017-07-20T14:43:21Z</time>
      </trkpt>
      <trkpt lat="48.10044" lon="7.23099">
        <ele>638.59997558594</ele>
        <time>2017-07-20T14:43:24Z</time>
      </trkpt>
      <trkpt lat="48.10035" lon="7.23103">
        <ele>638.59997558594</ele>
        <time>2017-07-20T14:43:28Z</time>
      </trkpt>
      <trkpt lat="48.10012" lon="7.2311">
        <ele>638.79998779297</ele>
        <time>2017-07-20T14:43:35Z</time>
      </trkpt>
      <trkpt lat="48.09994" lon="7.23116">
        <ele>638.79998779297</ele>
        <time>2017-07-20T14:43:40Z</time>
      </trkpt>
      <trkpt lat="48.09985" lon="7.23118">
        <ele>638.79998779297</ele>
        <time>2017-07-20T14:43:42Z</time>
      </trkpt>
      <trkpt lat="48.09975" lon="7.23115">
        <ele>638.59997558594</ele>
        <time>2017-07-20T14:43:44Z</time>
      </trkpt>
      <trkpt lat="48.09969" lon="7.23098">
        <ele>638.20001220703</ele>
        <time>2017-07-20T14:43:47Z</time>
      </trkpt>
      <trkpt lat="48.09967" lon="7.23087">
        <ele>638</ele>
        <time>2017-07-20T14:43:49Z</time>
      </trkpt>
      <trkpt lat="48.09962" lon="7.23066">
        <ele>638.20001220703</ele>
        <time>2017-07-20T14:43:53Z</time>
      </trkpt>
      <trkpt lat="48.09949" lon="7.23037">
        <ele>639.20001220703</ele>
        <time>2017-07-20T14:44:00Z</time>
      </trkpt>
      <trkpt lat="48.09935" lon="7.23019">
        <ele>640.20001220703</ele>
        <time>2017-07-20T14:44:07Z</time>
      </trkpt>
      <trkpt lat="48.09933" lon="7.23018">
        <ele>640.20001220703</ele>
        <time>2017-07-20T14:44:08Z</time>
      </trkpt>
      <trkpt lat="48.0992" lon="7.23011">
        <ele>640.79998779297</ele>
        <time>2017-07-20T14:44:13Z</time>
      </trkpt>
      <trkpt lat="48.09909" lon="7.23006">
        <ele>641.20001220703</ele>
        <time>2017-07-20T14:44:17Z</time>
      </trkpt>
      <trkpt lat="48.09903" lon="7.23003">
        <ele>641.40002441406</ele>
        <time>2017-07-20T14:44:20Z</time>
      </trkpt>
      <trkpt lat="48.09895" lon="7.22999">
        <ele>640.79998779297</ele>
        <time>2017-07-20T14:48:09Z</time>
      </trkpt>
      <trkpt lat="48.09893" lon="7.22998">
        <ele>641</ele>
        <time>2017-07-20T14:48:10Z</time>
      </trkpt>
      <trkpt lat="48.09876" lon="7.2299">
        <ele>640.79998779297</ele>
        <time>2017-07-20T14:48:15Z</time>
      </trkpt>
      <trkpt lat="48.09848" lon="7.22974">
        <ele>640.79998779297</ele>
        <time>2017-07-20T14:48:22Z</time>
      </trkpt>
      <trkpt lat="48.09844" lon="7.22971">
        <ele>641</ele>
        <time>2017-07-20T14:48:23Z</time>
      </trkpt>
      <trkpt lat="48.09824" lon="7.22956">
        <ele>641</ele>
        <time>2017-07-20T14:48:28Z</time>
      </trkpt>
      <trkpt lat="48.09812" lon="7.22945">
        <ele>641.20001220703</ele>
        <time>2017-07-20T14:48:31Z</time>
      </trkpt>
      <trkpt lat="48.098" lon="7.22934">
        <ele>641.40002441406</ele>
        <time>2017-07-20T14:48:34Z</time>
      </trkpt>
      <trkpt lat="48.09771" lon="7.22906">
        <ele>641.59997558594</ele>
        <time>2017-07-20T14:48:42Z</time>
      </trkpt>
      <trkpt lat="48.09744" lon="7.22876">
        <ele>642.20001220703</ele>
        <time>2017-07-20T14:48:50Z</time>
      </trkpt>
      <trkpt lat="48.09742" lon="7.22871">
        <ele>642.20001220703</ele>
        <time>2017-07-20T14:48:51Z</time>
      </trkpt>
      <trkpt lat="48.09737" lon="7.22847">
        <ele>642.59997558594</ele>
        <time>2017-07-20T14:48:55Z</time>
      </trkpt>
      <trkpt lat="48.09737" lon="7.22841">
        <ele>642.79998779297</ele>
        <time>2017-07-20T14:48:56Z</time>
      </trkpt>
      <trkpt lat="48.0974" lon="7.22816">
        <ele>643</ele>
        <time>2017-07-20T14:49:00Z</time>
      </trkpt>
      <trkpt lat="48.09743" lon="7.22805">
        <ele>643.40002441406</ele>
        <time>2017-07-20T14:49:02Z</time>
      </trkpt>
      <trkpt lat="48.09746" lon="7.228">
        <ele>643.40002441406</ele>
        <time>2017-07-20T14:49:03Z</time>
      </trkpt>
      <trkpt lat="48.0975" lon="7.2279">
        <ele>643.79998779297</ele>
        <time>2017-07-20T14:49:05Z</time>
      </trkpt>
      <trkpt lat="48.09759" lon="7.22772">
        <ele>644.40002441406</ele>
        <time>2017-07-20T14:49:09Z</time>
      </trkpt>
      <trkpt lat="48.09764" lon="7.22759">
        <ele>644.79998779297</ele>
        <time>2017-07-20T14:49:12Z</time>
      </trkpt>
      <trkpt lat="48.09775" lon="7.22735">
        <ele>645.20001220703</ele>
        <time>2017-07-20T14:49:18Z</time>
      </trkpt>
      <trkpt lat="48.09776" lon="7.22732">
        <ele>645.40002441406</ele>
        <time>2017-07-20T14:49:19Z</time>
      </trkpt>
      <trkpt lat="48.09784" lon="7.22714">
        <ele>646</ele>
        <time>2017-07-20T14:49:24Z</time>
      </trkpt>
      <trkpt lat="48.0979" lon="7.22697">
        <ele>646.40002441406</ele>
        <time>2017-07-20T14:49:28Z</time>
      </trkpt>
      <trkpt lat="48.09795" lon="7.22681">
        <ele>646.79998779297</ele>
        <time>2017-07-20T14:49:32Z</time>
      </trkpt>
      <trkpt lat="48.09803" lon="7.22651">
        <ele>647.20001220703</ele>
        <time>2017-07-20T14:49:39Z</time>
      </trkpt>
      <trkpt lat="48.09806" lon="7.22635">
        <ele>647.59997558594</ele>
        <time>2017-07-20T14:49:43Z</time>
      </trkpt>
      <trkpt lat="48.09808" lon="7.22622">
        <ele>648</ele>
        <time>2017-07-20T14:49:46Z</time>
      </trkpt>
      <trkpt lat="48.0981" lon="7.22599">
        <ele>648.59997558594</ele>
        <time>2017-07-20T14:49:51Z</time>
      </trkpt>
      <trkpt lat="48.0981" lon="7.22583">
        <ele>649</ele>
        <time>2017-07-20T14:49:54Z</time>
      </trkpt>
      <trkpt lat="48.09812" lon="7.22546">
        <ele>649.59997558594</ele>
        <time>2017-07-20T14:50:01Z</time>
      </trkpt>
      <trkpt lat="48.09812" lon="7.22534">
        <ele>650</ele>
        <time>2017-07-20T14:50:03Z</time>
      </trkpt>
      <trkpt lat="48.09815" lon="7.22488">
        <ele>650.59997558594</ele>
        <time>2017-07-20T14:50:11Z</time>
      </trkpt>
      <trkpt lat="48.09817" lon="7.22477">
        <ele>650.79998779297</ele>
        <time>2017-07-20T14:50:13Z</time>
      </trkpt>
      <trkpt lat="48.09825" lon="7.22434">
        <ele>651.79998779297</ele>
        <time>2017-07-20T14:50:21Z</time>
      </trkpt>
      <trkpt lat="48.09827" lon="7.22429">
        <ele>651.79998779297</ele>
        <time>2017-07-20T14:50:22Z</time>
      </trkpt>
      <trkpt lat="48.09835" lon="7.22398">
        <ele>652.40002441406</ele>
        <time>2017-07-20T14:50:28Z</time>
      </trkpt>
      <trkpt lat="48.0984" lon="7.22378">
        <ele>653</ele>
        <time>2017-07-20T14:50:32Z</time>
      </trkpt>
      <trkpt lat="48.09845" lon="7.22355">
        <ele>654.20001220703</ele>
        <time>2017-07-20T14:50:37Z</time>
      </trkpt>
      <trkpt lat="48.09851" lon="7.22323">
        <ele>655.20001220703</ele>
        <time>2017-07-20T14:50:44Z</time>
      </trkpt>
      <trkpt lat="48.09851" lon="7.22318">
        <ele>655.20001220703</ele>
        <time>2017-07-20T14:50:45Z</time>
      </trkpt>
      <trkpt lat="48.09849" lon="7.2228">
        <ele>655.79998779297</ele>
        <time>2017-07-20T14:50:52Z</time>
      </trkpt>
      <trkpt lat="48.09846" lon="7.22248">
        <ele>656.20001220703</ele>
        <time>2017-07-20T14:50:58Z</time>
      </trkpt>
      <trkpt lat="48.09845" lon="7.22243">
        <ele>656.40002441406</ele>
        <time>2017-07-20T14:50:59Z</time>
      </trkpt>
      <trkpt lat="48.0984" lon="7.22221">
        <ele>657</ele>
        <time>2017-07-20T14:51:03Z</time>
      </trkpt>
      <trkpt lat="48.09836" lon="7.22205">
        <ele>657.40002441406</ele>
        <time>2017-07-20T14:51:06Z</time>
      </trkpt>
      <trkpt lat="48.09831" lon="7.22182">
        <ele>658</ele>
        <time>2017-07-20T14:51:10Z</time>
      </trkpt>
      <trkpt lat="48.09829" lon="7.22165">
        <ele>658.40002441406</ele>
        <time>2017-07-20T14:51:13Z</time>
      </trkpt>
      <trkpt lat="48.09826" lon="7.2214">
        <ele>659</ele>
        <time>2017-07-20T14:51:18Z</time>
      </trkpt>
      <trkpt lat="48.09825" lon="7.22113">
        <ele>659.40002441406</ele>
        <time>2017-07-20T14:51:23Z</time>
      </trkpt>
      <trkpt lat="48.09824" lon="7.22108">
        <ele>659.40002441406</ele>
        <time>2017-07-20T14:51:24Z</time>
      </trkpt>
      <trkpt lat="48.09822" lon="7.22073">
        <ele>660.20001220703</ele>
        <time>2017-07-20T14:51:31Z</time>
      </trkpt>
      <trkpt lat="48.09823" lon="7.22044">
        <ele>660.40002441406</ele>
        <time>2017-07-20T14:51:37Z</time>
      </trkpt>
      <trkpt lat="48.09822" lon="7.22004">
        <ele>661.40002441406</ele>
        <time>2017-07-20T14:51:45Z</time>
      </trkpt>
      <trkpt lat="48.09818" lon="7.21979">
        <ele>662</ele>
        <time>2017-07-20T14:51:50Z</time>
      </trkpt>
      <trkpt lat="48.09816" lon="7.21969">
        <ele>662.59997558594</ele>
        <time>2017-07-20T14:51:52Z</time>
      </trkpt>
      <trkpt lat="48.09809" lon="7.21941">
        <ele>663</ele>
        <time>2017-07-20T14:51:57Z</time>
      </trkpt>
      <trkpt lat="48.09805" lon="7.21931">
        <ele>663.20001220703</ele>
        <time>2017-07-20T14:51:59Z</time>
      </trkpt>
      <trkpt lat="48.0979" lon="7.2189">
        <ele>663.20001220703</ele>
        <time>2017-07-20T14:52:07Z</time>
      </trkpt>
      <trkpt lat="48.09781" lon="7.21863">
        <ele>663</ele>
        <time>2017-07-20T14:52:12Z</time>
      </trkpt>
      <trkpt lat="48.0977" lon="7.21823">
        <ele>663.59997558594</ele>
        <time>2017-07-20T14:52:19Z</time>
      </trkpt>
      <trkpt lat="48.09767" lon="7.21784">
        <ele>664</ele>
        <time>2017-07-20T14:52:26Z</time>
      </trkpt>
      <trkpt lat="48.09767" lon="7.21778">
        <ele>664.40002441406</ele>
        <time>2017-07-20T14:52:27Z</time>
      </trkpt>
      <trkpt lat="48.09766" lon="7.21762">
        <ele>665</ele>
        <time>2017-07-20T14:52:30Z</time>
      </trkpt>
      <trkpt lat="48.09767" lon="7.21757">
        <ele>665.20001220703</ele>
        <time>2017-07-20T14:52:31Z</time>
      </trkpt>
      <trkpt lat="48.09768" lon="7.21741">
        <ele>665.40002441406</ele>
        <time>2017-07-20T14:52:34Z</time>
      </trkpt>
      <trkpt lat="48.09773" lon="7.21709">
        <ele>666.20001220703</ele>
        <time>2017-07-20T14:52:41Z</time>
      </trkpt>
      <trkpt lat="48.09779" lon="7.21685">
        <ele>667.20001220703</ele>
        <time>2017-07-20T14:52:47Z</time>
      </trkpt>
      <trkpt lat="48.0978" lon="7.21681">
        <ele>667.40002441406</ele>
        <time>2017-07-20T14:52:48Z</time>
      </trkpt>
      <trkpt lat="48.09786" lon="7.21652">
        <ele>668.20001220703</ele>
        <time>2017-07-20T14:52:55Z</time>
      </trkpt>
      <trkpt lat="48.09787" lon="7.21648">
        <ele>668.40002441406</ele>
        <time>2017-07-20T14:52:56Z</time>
      </trkpt>
      <trkpt lat="48.09793" lon="7.21626">
        <ele>669.40002441406</ele>
        <time>2017-07-20T14:53:01Z</time>
      </trkpt>
      <trkpt lat="48.09794" lon="7.21621">
        <ele>669.59997558594</ele>
        <time>2017-07-20T14:53:02Z</time>
      </trkpt>
      <trkpt lat="48.09807" lon="7.2159">
        <ele>670.40002441406</ele>
        <time>2017-07-20T14:53:09Z</time>
      </trkpt>
      <trkpt lat="48.09826" lon="7.21566">
        <ele>671.40002441406</ele>
        <time>2017-07-20T14:53:17Z</time>
      </trkpt>
      <trkpt lat="48.09829" lon="7.21566">
        <ele>671.40002441406</ele>
        <time>2017-07-20T14:53:18Z</time>
      </trkpt>
      <trkpt lat="48.09838" lon="7.21571">
        <ele>672</ele>
        <time>2017-07-20T14:53:21Z</time>
      </trkpt>
      <trkpt lat="48.09848" lon="7.21579">
        <ele>672.40002441406</ele>
        <time>2017-07-20T14:53:24Z</time>
      </trkpt>
      <trkpt lat="48.09851" lon="7.21582">
        <ele>672.40002441406</ele>
        <time>2017-07-20T14:53:25Z</time>
      </trkpt>
      <trkpt lat="48.09859" lon="7.2159">
        <ele>672.79998779297</ele>
        <time>2017-07-20T14:53:28Z</time>
      </trkpt>
      <trkpt lat="48.09873" lon="7.21603">
        <ele>673.59997558594</ele>
        <time>2017-07-20T14:53:34Z</time>
      </trkpt>
      <trkpt lat="48.09876" lon="7.21604">
        <ele>673.59997558594</ele>
        <time>2017-07-20T14:53:35Z</time>
      </trkpt>
      <trkpt lat="48.09885" lon="7.21614">
        <ele>674.20001220703</ele>
        <time>2017-07-20T14:53:40Z</time>
      </trkpt>
      <trkpt lat="48.09892" lon="7.21619">
        <ele>674.59997558594</ele>
        <time>2017-07-20T14:53:43Z</time>
      </trkpt>
      <trkpt lat="48.099" lon="7.21625">
        <ele>675.40002441406</ele>
        <time>2017-07-20T14:53:46Z</time>
      </trkpt>
      <trkpt lat="48.09903" lon="7.21626">
        <ele>675.59997558594</ele>
        <time>2017-07-20T14:53:47Z</time>
      </trkpt>
      <trkpt lat="48.09922" lon="7.21629">
        <ele>676.20001220703</ele>
        <time>2017-07-20T14:53:52Z</time>
      </trkpt>
      <trkpt lat="48.09942" lon="7.21627">
        <ele>676.79998779297</ele>
        <time>2017-07-20T14:53:57Z</time>
      </trkpt>
      <trkpt lat="48.09946" lon="7.21625">
        <ele>676.79998779297</ele>
        <time>2017-07-20T14:53:58Z</time>
      </trkpt>
      <trkpt lat="48.09965" lon="7.2161">
        <ele>677.79998779297</ele>
        <time>2017-07-20T14:54:05Z</time>
      </trkpt>
      <trkpt lat="48.09968" lon="7.21608">
        <ele>677.79998779297</ele>
        <time>2017-07-20T14:54:06Z</time>
      </trkpt>
      <trkpt lat="48.09985" lon="7.21596">
        <ele>678.79998779297</ele>
        <time>2017-07-20T14:54:12Z</time>
      </trkpt>
      <trkpt lat="48.09988" lon="7.21594">
        <ele>678.79998779297</ele>
        <time>2017-07-20T14:54:13Z</time>
      </trkpt>
      <trkpt lat="48.10003" lon="7.21583">
        <ele>679.79998779297</ele>
        <time>2017-07-20T14:54:18Z</time>
      </trkpt>
      <trkpt lat="48.1001" lon="7.21576">
        <ele>680.20001220703</ele>
        <time>2017-07-20T14:54:21Z</time>
      </trkpt>
      <trkpt lat="48.10018" lon="7.21566">
        <ele>680.79998779297</ele>
        <time>2017-07-20T14:54:25Z</time>
      </trkpt>
      <trkpt lat="48.10019" lon="7.21563">
        <ele>680.79998779297</ele>
        <time>2017-07-20T14:54:26Z</time>
      </trkpt>
      <trkpt lat="48.10024" lon="7.21554">
        <ele>681.40002441406</ele>
        <time>2017-07-20T14:54:29Z</time>
      </trkpt>
      <trkpt lat="48.10026" lon="7.21544">
        <ele>682</ele>
        <time>2017-07-20T14:54:32Z</time>
      </trkpt>
      <trkpt lat="48.10027" lon="7.21537">
        <ele>682.20001220703</ele>
        <time>2017-07-20T14:54:34Z</time>
      </trkpt>
      <trkpt lat="48.10027" lon="7.21516">
        <ele>683</ele>
        <time>2017-07-20T14:54:40Z</time>
      </trkpt>
      <trkpt lat="48.10026" lon="7.21514">
        <ele>683.20001220703</ele>
        <time>2017-07-20T14:54:41Z</time>
      </trkpt>
      <trkpt lat="48.10025" lon="7.21511">
        <ele>683.20001220703</ele>
        <time>2017-07-20T14:54:42Z</time>
      </trkpt>
      <trkpt lat="48.10019" lon="7.21495">
        <ele>684</ele>
        <time>2017-07-20T14:54:47Z</time>
      </trkpt>
      <trkpt lat="48.10016" lon="7.21489">
        <ele>684.40002441406</ele>
        <time>2017-07-20T14:54:49Z</time>
      </trkpt>
      <trkpt lat="48.10008" lon="7.21472">
        <ele>685</ele>
        <time>2017-07-20T14:54:55Z</time>
      </trkpt>
      <trkpt lat="48.09997" lon="7.21459">
        <ele>685.79998779297</ele>
        <time>2017-07-20T14:55:01Z</time>
      </trkpt>
      <trkpt lat="48.09993" lon="7.21455">
        <ele>686.20001220703</ele>
        <time>2017-07-20T14:55:03Z</time>
      </trkpt>
      <trkpt lat="48.09988" lon="7.2145">
        <ele>686.59997558594</ele>
        <time>2017-07-20T14:55:06Z</time>
      </trkpt>
      <trkpt lat="48.09988" lon="7.21445">
        <ele>687.40002441406</ele>
        <time>2017-07-20T14:55:40Z</time>
      </trkpt>
      <trkpt lat="48.09989" lon="7.21442">
        <ele>687.40002441406</ele>
        <time>2017-07-20T14:55:41Z</time>
      </trkpt>
      <trkpt lat="48.09988" lon="7.21423">
        <ele>687.59997558594</ele>
        <time>2017-07-20T14:55:46Z</time>
      </trkpt>
      <trkpt lat="48.09983" lon="7.21401">
        <ele>688.40002441406</ele>
        <time>2017-07-20T14:55:52Z</time>
      </trkpt>
      <trkpt lat="48.09982" lon="7.21396">
        <ele>688.59997558594</ele>
        <time>2017-07-20T14:55:53Z</time>
      </trkpt>
      <trkpt lat="48.09981" lon="7.2138">
        <ele>689.40002441406</ele>
        <time>2017-07-20T14:55:57Z</time>
      </trkpt>
      <trkpt lat="48.09979" lon="7.21369">
        <ele>690</ele>
        <time>2017-07-20T14:56:00Z</time>
      </trkpt>
      <trkpt lat="48.09977" lon="7.21359">
        <ele>690.59997558594</ele>
        <time>2017-07-20T14:56:03Z</time>
      </trkpt>
      <trkpt lat="48.09975" lon="7.21344">
        <ele>691.59997558594</ele>
        <time>2017-07-20T14:56:08Z</time>
      </trkpt>
      <trkpt lat="48.09974" lon="7.21325">
        <ele>693</ele>
        <time>2017-07-20T14:56:14Z</time>
      </trkpt>
      <trkpt lat="48.09975" lon="7.21322">
        <ele>693</ele>
        <time>2017-07-20T14:56:15Z</time>
      </trkpt>
      <trkpt lat="48.09972" lon="7.21301">
        <ele>694</ele>
        <time>2017-07-20T14:56:22Z</time>
      </trkpt>
      <trkpt lat="48.09969" lon="7.21281">
        <ele>695.20001220703</ele>
        <time>2017-07-20T14:56:29Z</time>
      </trkpt>
      <trkpt lat="48.09969" lon="7.21274">
        <ele>695.59997558594</ele>
        <time>2017-07-20T14:56:31Z</time>
      </trkpt>
      <trkpt lat="48.09966" lon="7.21261">
        <ele>696.20001220703</ele>
        <time>2017-07-20T14:56:35Z</time>
      </trkpt>
      <trkpt lat="48.09965" lon="7.21252">
        <ele>696.79998779297</ele>
        <time>2017-07-20T14:56:38Z</time>
      </trkpt>
      <trkpt lat="48.09964" lon="7.21243">
        <ele>697.20001220703</ele>
        <time>2017-07-20T14:56:41Z</time>
      </trkpt>
      <trkpt lat="48.09963" lon="7.21231">
        <ele>697.79998779297</ele>
        <time>2017-07-20T14:56:45Z</time>
      </trkpt>
      <trkpt lat="48.09962" lon="7.21222">
        <ele>698.20001220703</ele>
        <time>2017-07-20T14:56:48Z</time>
      </trkpt>
      <trkpt lat="48.0996" lon="7.21219">
        <ele>698.40002441406</ele>
        <time>2017-07-20T14:56:49Z</time>
      </trkpt>
      <trkpt lat="48.09959" lon="7.21212">
        <ele>698.79998779297</ele>
        <time>2017-07-20T14:56:51Z</time>
      </trkpt>
      <trkpt lat="48.09958" lon="7.21206">
        <ele>699</ele>
        <time>2017-07-20T14:56:53Z</time>
      </trkpt>
      <trkpt lat="48.09957" lon="7.21199">
        <ele>699.40002441406</ele>
        <time>2017-07-20T14:56:55Z</time>
      </trkpt>
      <trkpt lat="48.09956" lon="7.21186">
        <ele>700</ele>
        <time>2017-07-20T14:56:59Z</time>
      </trkpt>
      <trkpt lat="48.09954" lon="7.21176">
        <ele>700.59997558594</ele>
        <time>2017-07-20T14:57:02Z</time>
      </trkpt>
      <trkpt lat="48.09951" lon="7.21164">
        <ele>701.20001220703</ele>
        <time>2017-07-20T14:57:06Z</time>
      </trkpt>
      <trkpt lat="48.0995" lon="7.21158">
        <ele>701.59997558594</ele>
        <time>2017-07-20T14:57:08Z</time>
      </trkpt>
      <trkpt lat="48.09947" lon="7.21142">
        <ele>702.40002441406</ele>
        <time>2017-07-20T14:57:13Z</time>
      </trkpt>
      <trkpt lat="48.09947" lon="7.21139">
        <ele>702.59997558594</ele>
        <time>2017-07-20T14:57:14Z</time>
      </trkpt>
      <trkpt lat="48.09943" lon="7.21121">
        <ele>703.40002441406</ele>
        <time>2017-07-20T14:57:20Z</time>
      </trkpt>
      <trkpt lat="48.09941" lon="7.21115">
        <ele>703.59997558594</ele>
        <time>2017-07-20T14:57:22Z</time>
      </trkpt>
      <trkpt lat="48.09939" lon="7.21102">
        <ele>704.59997558594</ele>
        <time>2017-07-20T14:57:26Z</time>
      </trkpt>
      <trkpt lat="48.09937" lon="7.21096">
        <ele>704.79998779297</ele>
        <time>2017-07-20T14:57:28Z</time>
      </trkpt>
      <trkpt lat="48.09932" lon="7.2108">
        <ele>705.59997558594</ele>
        <time>2017-07-20T14:57:33Z</time>
      </trkpt>
      <trkpt lat="48.0993" lon="7.21074">
        <ele>706</ele>
        <time>2017-07-20T14:57:35Z</time>
      </trkpt>
      <trkpt lat="48.09926" lon="7.21056">
        <ele>707</ele>
        <time>2017-07-20T14:57:40Z</time>
      </trkpt>
      <trkpt lat="48.09918" lon="7.21035">
        <ele>708</ele>
        <time>2017-07-20T14:57:47Z</time>
      </trkpt>
      <trkpt lat="48.09904" lon="7.21011">
        <ele>709.20001220703</ele>
        <time>2017-07-20T14:57:55Z</time>
      </trkpt>
      <trkpt lat="48.09896" lon="7.20987">
        <ele>710.20001220703</ele>
        <time>2017-07-20T14:58:02Z</time>
      </trkpt>
      <trkpt lat="48.09887" lon="7.20964">
        <ele>711</ele>
        <time>2017-07-20T14:58:08Z</time>
      </trkpt>
      <trkpt lat="48.09881" lon="7.2095">
        <ele>711.20001220703</ele>
        <time>2017-07-20T14:58:11Z</time>
      </trkpt>
      <trkpt lat="48.09872" lon="7.2093">
        <ele>711.79998779297</ele>
        <time>2017-07-20T14:58:15Z</time>
      </trkpt>
      <trkpt lat="48.09865" lon="7.209">
        <ele>712.20001220703</ele>
        <time>2017-07-20T14:58:21Z</time>
      </trkpt>
      <trkpt lat="48.09862" lon="7.20887">
        <ele>712.40002441406</ele>
        <time>2017-07-20T14:58:24Z</time>
      </trkpt>
      <trkpt lat="48.09861" lon="7.20872">
        <ele>712.59997558594</ele>
        <time>2017-07-20T14:58:27Z</time>
      </trkpt>
      <trkpt lat="48.09856" lon="7.20838">
        <ele>713.40002441406</ele>
        <time>2017-07-20T14:58:33Z</time>
      </trkpt>
      <trkpt lat="48.09854" lon="7.2082">
        <ele>713.40002441406</ele>
        <time>2017-07-20T14:58:36Z</time>
      </trkpt>
      <trkpt lat="48.09849" lon="7.20777">
        <ele>713.79998779297</ele>
        <time>2017-07-20T14:58:44Z</time>
      </trkpt>
      <trkpt lat="48.09847" lon="7.2074">
        <ele>714.40002441406</ele>
        <time>2017-07-20T14:58:51Z</time>
      </trkpt>
      <trkpt lat="48.09846" lon="7.20702">
        <ele>715</ele>
        <time>2017-07-20T14:58:58Z</time>
      </trkpt>
      <trkpt lat="48.09844" lon="7.20685">
        <ele>715.40002441406</ele>
        <time>2017-07-20T14:59:01Z</time>
      </trkpt>
      <trkpt lat="48.09844" lon="7.20663">
        <ele>716</ele>
        <time>2017-07-20T14:59:05Z</time>
      </trkpt>
      <trkpt lat="48.09843" lon="7.20656">
        <ele>716.20001220703</ele>
        <time>2017-07-20T14:59:06Z</time>
      </trkpt>
      <trkpt lat="48.09842" lon="7.20644">
        <ele>716.40002441406</ele>
        <time>2017-07-20T14:59:08Z</time>
      </trkpt>
      <trkpt lat="48.09842" lon="7.20639">
        <ele>716.59997558594</ele>
        <time>2017-07-20T14:59:09Z</time>
      </trkpt>
      <trkpt lat="48.0984" lon="7.20598">
        <ele>717.59997558594</ele>
        <time>2017-07-20T14:59:16Z</time>
      </trkpt>
      <trkpt lat="48.09838" lon="7.20575">
        <ele>718</ele>
        <time>2017-07-20T14:59:20Z</time>
      </trkpt>
      <trkpt lat="48.09836" lon="7.20549">
        <ele>718.79998779297</ele>
        <time>2017-07-20T14:59:25Z</time>
      </trkpt>
      <trkpt lat="48.09835" lon="7.20544">
        <ele>719</ele>
        <time>2017-07-20T14:59:26Z</time>
      </trkpt>
      <trkpt lat="48.09829" lon="7.20517">
        <ele>719.79998779297</ele>
        <time>2017-07-20T14:59:32Z</time>
      </trkpt>
      <trkpt lat="48.09827" lon="7.20512">
        <ele>719.79998779297</ele>
        <time>2017-07-20T14:59:33Z</time>
      </trkpt>
      <trkpt lat="48.0982" lon="7.20497">
        <ele>720.20001220703</ele>
        <time>2017-07-20T14:59:37Z</time>
      </trkpt>
      <trkpt lat="48.09816" lon="7.20494">
        <ele>720.40002441406</ele>
        <time>2017-07-20T14:59:38Z</time>
      </trkpt>
      <trkpt lat="48.09795" lon="7.2048">
        <ele>720.79998779297</ele>
        <time>2017-07-20T14:59:44Z</time>
      </trkpt>
      <trkpt lat="48.0979" lon="7.20479">
        <ele>721</ele>
        <time>2017-07-20T14:59:45Z</time>
      </trkpt>
      <trkpt lat="48.09782" lon="7.20478">
        <ele>721.20001220703</ele>
        <time>2017-07-20T14:59:47Z</time>
      </trkpt>
      <trkpt lat="48.09764" lon="7.20476">
        <ele>721.40002441406</ele>
        <time>2017-07-20T14:59:51Z</time>
      </trkpt>
      <trkpt lat="48.09731" lon="7.2047">
        <ele>721</ele>
        <time>2017-07-20T14:59:58Z</time>
      </trkpt>
      <trkpt lat="48.09698" lon="7.20459">
        <ele>721</ele>
        <time>2017-07-20T15:00:06Z</time>
      </trkpt>
      <trkpt lat="48.0967" lon="7.2045">
        <ele>721.59997558594</ele>
        <time>2017-07-20T15:00:13Z</time>
      </trkpt>
      <trkpt lat="48.09658" lon="7.20447">
        <ele>722</ele>
        <time>2017-07-20T15:00:16Z</time>
      </trkpt>
      <trkpt lat="48.09644" lon="7.20443">
        <ele>722.40002441406</ele>
        <time>2017-07-20T15:00:20Z</time>
      </trkpt>
      <trkpt lat="48.09624" lon="7.20439">
        <ele>723</ele>
        <time>2017-07-20T15:00:25Z</time>
      </trkpt>
      <trkpt lat="48.09607" lon="7.20435">
        <ele>723.59997558594</ele>
        <time>2017-07-20T15:00:30Z</time>
      </trkpt>
      <trkpt lat="48.09597" lon="7.20434">
        <ele>724</ele>
        <time>2017-07-20T15:00:33Z</time>
      </trkpt>
      <trkpt lat="48.09583" lon="7.2043">
        <ele>724.59997558594</ele>
        <time>2017-07-20T15:00:37Z</time>
      </trkpt>
      <trkpt lat="48.09561" lon="7.20421">
        <ele>725.20001220703</ele>
        <time>2017-07-20T15:00:44Z</time>
      </trkpt>
      <trkpt lat="48.09542" lon="7.20405">
        <ele>725.79998779297</ele>
        <time>2017-07-20T15:00:51Z</time>
      </trkpt>
      <trkpt lat="48.09534" lon="7.20396">
        <ele>726.20001220703</ele>
        <time>2017-07-20T15:00:54Z</time>
      </trkpt>
      <trkpt lat="48.09527" lon="7.20387">
        <ele>726.59997558594</ele>
        <time>2017-07-20T15:00:57Z</time>
      </trkpt>
      <trkpt lat="48.09519" lon="7.20382">
        <ele>727.20001220703</ele>
        <time>2017-07-20T15:01:00Z</time>
      </trkpt>
      <trkpt lat="48.09515" lon="7.20376">
        <ele>727.59997558594</ele>
        <time>2017-07-20T15:01:02Z</time>
      </trkpt>
      <trkpt lat="48.09506" lon="7.2035">
        <ele>728</ele>
        <time>2017-07-20T15:01:08Z</time>
      </trkpt>
      <trkpt lat="48.09502" lon="7.20341">
        <ele>728.20001220703</ele>
        <time>2017-07-20T15:01:10Z</time>
      </trkpt>
      <trkpt lat="48.09499" lon="7.20322">
        <ele>728.40002441406</ele>
        <time>2017-07-20T15:01:14Z</time>
      </trkpt>
      <trkpt lat="48.09492" lon="7.20292">
        <ele>729.20001220703</ele>
        <time>2017-07-20T15:01:20Z</time>
      </trkpt>
      <trkpt lat="48.09492" lon="7.20286">
        <ele>729.20001220703</ele>
        <time>2017-07-20T15:01:21Z</time>
      </trkpt>
      <trkpt lat="48.09492" lon="7.20268">
        <ele>729.59997558594</ele>
        <time>2017-07-20T15:01:24Z</time>
      </trkpt>
      <trkpt lat="48.09492" lon="7.20241">
        <ele>730.40002441406</ele>
        <time>2017-07-20T15:01:29Z</time>
      </trkpt>
      <trkpt lat="48.09496" lon="7.20219">
        <ele>731</ele>
        <time>2017-07-20T15:01:33Z</time>
      </trkpt>
      <trkpt lat="48.09501" lon="7.20204">
        <ele>731.40002441406</ele>
        <time>2017-07-20T15:01:36Z</time>
      </trkpt>
      <trkpt lat="48.09506" lon="7.20192">
        <ele>731.59997558594</ele>
        <time>2017-07-20T15:01:39Z</time>
      </trkpt>
      <trkpt lat="48.09521" lon="7.20175">
        <ele>732.59997558594</ele>
        <time>2017-07-20T15:01:45Z</time>
      </trkpt>
      <trkpt lat="48.09524" lon="7.20172">
        <ele>732.79998779297</ele>
        <time>2017-07-20T15:01:46Z</time>
      </trkpt>
      <trkpt lat="48.09533" lon="7.2016">
        <ele>733.59997558594</ele>
        <time>2017-07-20T15:01:50Z</time>
      </trkpt>
      <trkpt lat="48.0954" lon="7.20153">
        <ele>734</ele>
        <time>2017-07-20T15:01:53Z</time>
      </trkpt>
      <trkpt lat="48.09551" lon="7.20142">
        <ele>734.59997558594</ele>
        <time>2017-07-20T15:01:57Z</time>
      </trkpt>
      <trkpt lat="48.09562" lon="7.2013">
        <ele>735.40002441406</ele>
        <time>2017-07-20T15:02:01Z</time>
      </trkpt>
      <trkpt lat="48.0957" lon="7.20121">
        <ele>735.79998779297</ele>
        <time>2017-07-20T15:02:04Z</time>
      </trkpt>
      <trkpt lat="48.09583" lon="7.20102">
        <ele>736.20001220703</ele>
        <time>2017-07-20T15:02:09Z</time>
      </trkpt>
      <trkpt lat="48.09597" lon="7.20071">
        <ele>736.79998779297</ele>
        <time>2017-07-20T15:02:15Z</time>
      </trkpt>
      <trkpt lat="48.09613" lon="7.20025">
        <ele>737</ele>
        <time>2017-07-20T15:02:24Z</time>
      </trkpt>
      <trkpt lat="48.0962" lon="7.19988">
        <ele>737.40002441406</ele>
        <time>2017-07-20T15:02:30Z</time>
      </trkpt>
      <trkpt lat="48.09627" lon="7.19945">
        <ele>737.40002441406</ele>
        <time>2017-07-20T15:02:37Z</time>
      </trkpt>
      <trkpt lat="48.09627" lon="7.19906">
        <ele>737.20001220703</ele>
        <time>2017-07-20T15:02:43Z</time>
      </trkpt>
      <trkpt lat="48.09621" lon="7.1988">
        <ele>737</ele>
        <time>2017-07-20T15:02:47Z</time>
      </trkpt>
      <trkpt lat="48.09616" lon="7.19873">
        <ele>737</ele>
        <time>2017-07-20T15:02:48Z</time>
      </trkpt>
      <trkpt lat="48.09603" lon="7.19852">
        <ele>736.79998779297</ele>
        <time>2017-07-20T15:02:51Z</time>
      </trkpt>
      <trkpt lat="48.09599" lon="7.19845">
        <ele>736.79998779297</ele>
        <time>2017-07-20T15:02:52Z</time>
      </trkpt>
      <trkpt lat="48.09589" lon="7.19835">
        <ele>736.79998779297</ele>
        <time>2017-07-20T15:02:54Z</time>
      </trkpt>
      <trkpt lat="48.09579" lon="7.19827">
        <ele>736.79998779297</ele>
        <time>2017-07-20T15:02:56Z</time>
      </trkpt>
      <trkpt lat="48.09574" lon="7.19824">
        <ele>736.79998779297</ele>
        <time>2017-07-20T15:02:57Z</time>
      </trkpt>
      <trkpt lat="48.09541" lon="7.19809">
        <ele>736.20001220703</ele>
        <time>2017-07-20T15:03:03Z</time>
      </trkpt>
      <trkpt lat="48.09529" lon="7.19802">
        <ele>736</ele>
        <time>2017-07-20T15:03:05Z</time>
      </trkpt>
      <trkpt lat="48.09515" lon="7.19786">
        <ele>735.79998779297</ele>
        <time>2017-07-20T15:03:08Z</time>
      </trkpt>
      <trkpt lat="48.09505" lon="7.19774">
        <ele>735.79998779297</ele>
        <time>2017-07-20T15:03:10Z</time>
      </trkpt>
      <trkpt lat="48.09497" lon="7.19759">
        <ele>735.59997558594</ele>
        <time>2017-07-20T15:03:12Z</time>
      </trkpt>
      <trkpt lat="48.09493" lon="7.19752">
        <ele>735.40002441406</ele>
        <time>2017-07-20T15:03:13Z</time>
      </trkpt>
      <trkpt lat="48.09475" lon="7.19704">
        <ele>735.20001220703</ele>
        <time>2017-07-20T15:03:19Z</time>
      </trkpt>
      <trkpt lat="48.09456" lon="7.19643">
        <ele>735</ele>
        <time>2017-07-20T15:03:26Z</time>
      </trkpt>
      <trkpt lat="48.09448" lon="7.19617">
        <ele>734.59997558594</ele>
        <time>2017-07-20T15:03:29Z</time>
      </trkpt>
      <trkpt lat="48.09435" lon="7.19576">
        <ele>734.20001220703</ele>
        <time>2017-07-20T15:03:34Z</time>
      </trkpt>
      <trkpt lat="48.09418" lon="7.19528">
        <ele>734.40002441406</ele>
        <time>2017-07-20T15:03:40Z</time>
      </trkpt>
      <trkpt lat="48.09406" lon="7.19467">
        <ele>734.20001220703</ele>
        <time>2017-07-20T15:03:48Z</time>
      </trkpt>
      <trkpt lat="48.09411" lon="7.19438">
        <ele>734.40002441406</ele>
        <time>2017-07-20T15:03:52Z</time>
      </trkpt>
      <trkpt lat="48.09415" lon="7.19426">
        <ele>734.59997558594</ele>
        <time>2017-07-20T15:03:54Z</time>
      </trkpt>
      <trkpt lat="48.09423" lon="7.19413">
        <ele>734.79998779297</ele>
        <time>2017-07-20T15:03:57Z</time>
      </trkpt>
      <trkpt lat="48.09435" lon="7.194">
        <ele>735.59997558594</ele>
        <time>2017-07-20T15:04:02Z</time>
      </trkpt>
      <trkpt lat="48.09437" lon="7.19399">
        <ele>735.79998779297</ele>
        <time>2017-07-20T15:04:03Z</time>
      </trkpt>
      <trkpt lat="48.09449" lon="7.19393">
        <ele>736.79998779297</ele>
        <time>2017-07-20T15:04:08Z</time>
      </trkpt>
      <trkpt lat="48.09456" lon="7.19388">
        <ele>737.40002441406</ele>
        <time>2017-07-20T15:04:11Z</time>
      </trkpt>
      <trkpt lat="48.09462" lon="7.19387">
        <ele>738</ele>
        <time>2017-07-20T15:04:14Z</time>
      </trkpt>
      <trkpt lat="48.09468" lon="7.19385">
        <ele>738.59997558594</ele>
        <time>2017-07-20T15:04:16Z</time>
      </trkpt>
      <trkpt lat="48.09475" lon="7.19382">
        <ele>739</ele>
        <time>2017-07-20T15:04:19Z</time>
      </trkpt>
      <trkpt lat="48.09487" lon="7.19377">
        <ele>739.79998779297</ele>
        <time>2017-07-20T15:04:25Z</time>
      </trkpt>
      <trkpt lat="48.09489" lon="7.19376">
        <ele>740</ele>
        <time>2017-07-20T15:04:26Z</time>
      </trkpt>
      <trkpt lat="48.09502" lon="7.19371">
        <ele>741.20001220703</ele>
        <time>2017-07-20T15:04:32Z</time>
      </trkpt>
      <trkpt lat="48.09508" lon="7.19368">
        <ele>741.59997558594</ele>
        <time>2017-07-20T15:04:35Z</time>
      </trkpt>
      <trkpt lat="48.09517" lon="7.19365">
        <ele>742.20001220703</ele>
        <time>2017-07-20T15:04:39Z</time>
      </trkpt>
      <trkpt lat="48.09523" lon="7.19362">
        <ele>742.59997558594</ele>
        <time>2017-07-20T15:04:42Z</time>
      </trkpt>
      <trkpt lat="48.09535" lon="7.1936">
        <ele>743.40002441406</ele>
        <time>2017-07-20T15:04:47Z</time>
      </trkpt>
      <trkpt lat="48.0954" lon="7.19359">
        <ele>743.79998779297</ele>
        <time>2017-07-20T15:04:49Z</time>
      </trkpt>
      <trkpt lat="48.09542" lon="7.19359">
        <ele>743.79998779297</ele>
        <time>2017-07-20T15:04:50Z</time>
      </trkpt>
      <trkpt lat="48.09549" lon="7.19358">
        <ele>744.40002441406</ele>
        <time>2017-07-20T15:04:53Z</time>
      </trkpt>
      <trkpt lat="48.09562" lon="7.1936">
        <ele>745.20001220703</ele>
        <time>2017-07-20T15:04:58Z</time>
      </trkpt>
      <trkpt lat="48.09569" lon="7.19363">
        <ele>745.59997558594</ele>
        <time>2017-07-20T15:05:01Z</time>
      </trkpt>
      <trkpt lat="48.09581" lon="7.19367">
        <ele>746.59997558594</ele>
        <time>2017-07-20T15:05:06Z</time>
      </trkpt>
      <trkpt lat="48.09583" lon="7.19368">
        <ele>746.79998779297</ele>
        <time>2017-07-20T15:05:07Z</time>
      </trkpt>
      <trkpt lat="48.09597" lon="7.19371">
        <ele>747.59997558594</ele>
        <time>2017-07-20T15:05:13Z</time>
      </trkpt>
      <trkpt lat="48.0961" lon="7.19378">
        <ele>748.79998779297</ele>
        <time>2017-07-20T15:05:19Z</time>
      </trkpt>
      <trkpt lat="48.09612" lon="7.19379">
        <ele>749</ele>
        <time>2017-07-20T15:05:20Z</time>
      </trkpt>
      <trkpt lat="48.09626" lon="7.19383">
        <ele>749.79998779297</ele>
        <time>2017-07-20T15:05:26Z</time>
      </trkpt>
      <trkpt lat="48.0964" lon="7.19389">
        <ele>751</ele>
        <time>2017-07-20T15:05:32Z</time>
      </trkpt>
      <trkpt lat="48.09645" lon="7.19389">
        <ele>751.20001220703</ele>
        <time>2017-07-20T15:05:34Z</time>
      </trkpt>
      <trkpt lat="48.09658" lon="7.19392">
        <ele>752</ele>
        <time>2017-07-20T15:05:40Z</time>
      </trkpt>
      <trkpt lat="48.09663" lon="7.19391">
        <ele>752.40002441406</ele>
        <time>2017-07-20T15:05:42Z</time>
      </trkpt>
      <trkpt lat="48.09678" lon="7.19391">
        <ele>753.20001220703</ele>
        <time>2017-07-20T15:05:48Z</time>
      </trkpt>
      <trkpt lat="48.09681" lon="7.1939">
        <ele>753.20001220703</ele>
        <time>2017-07-20T15:05:49Z</time>
      </trkpt>
      <trkpt lat="48.09695" lon="7.19384">
        <ele>754.20001220703</ele>
        <time>2017-07-20T15:05:55Z</time>
      </trkpt>
      <trkpt lat="48.09697" lon="7.19383">
        <ele>754.20001220703</ele>
        <time>2017-07-20T15:05:56Z</time>
      </trkpt>
      <trkpt lat="48.09716" lon="7.19375">
        <ele>754.59997558594</ele>
        <time>2017-07-20T15:06:02Z</time>
      </trkpt>
      <trkpt lat="48.09727" lon="7.19369">
        <ele>754.79998779297</ele>
        <time>2017-07-20T15:06:05Z</time>
      </trkpt>
      <trkpt lat="48.09744" lon="7.19359">
        <ele>754.59997558594</ele>
        <time>2017-07-20T15:06:09Z</time>
      </trkpt>
      <trkpt lat="48.09786" lon="7.19346">
        <ele>753</ele>
        <time>2017-07-20T15:06:17Z</time>
      </trkpt>
      <trkpt lat="48.0983" lon="7.19339">
        <ele>752.20001220703</ele>
        <time>2017-07-20T15:06:24Z</time>
      </trkpt>
      <trkpt lat="48.09837" lon="7.19339">
        <ele>752</ele>
        <time>2017-07-20T15:06:25Z</time>
      </trkpt>
      <trkpt lat="48.09867" lon="7.19347">
        <ele>751.40002441406</ele>
        <time>2017-07-20T15:06:29Z</time>
      </trkpt>
      <trkpt lat="48.09898" lon="7.19357">
        <ele>750.79998779297</ele>
        <time>2017-07-20T15:06:33Z</time>
      </trkpt>
      <trkpt lat="48.09935" lon="7.19366">
        <ele>750.20001220703</ele>
        <time>2017-07-20T15:06:38Z</time>
      </trkpt>
      <trkpt lat="48.09959" lon="7.1937">
        <ele>749.79998779297</ele>
        <time>2017-07-20T15:06:41Z</time>
      </trkpt>
      <trkpt lat="48.09991" lon="7.19376">
        <ele>749</ele>
        <time>2017-07-20T15:06:45Z</time>
      </trkpt>
      <trkpt lat="48.09999" lon="7.19378">
        <ele>748.59997558594</ele>
        <time>2017-07-20T15:06:46Z</time>
      </trkpt>
      <trkpt lat="48.10039" lon="7.19389">
        <ele>747.59997558594</ele>
        <time>2017-07-20T15:06:51Z</time>
      </trkpt>
      <trkpt lat="48.10046" lon="7.19391">
        <ele>747.20001220703</ele>
        <time>2017-07-20T15:06:52Z</time>
      </trkpt>
      <trkpt lat="48.10055" lon="7.19394">
        <ele>746.40002441406</ele>
        <time>2017-07-20T15:06:54Z</time>
      </trkpt>
      <trkpt lat="48.10058" lon="7.19394">
        <ele>746.20001220703</ele>
        <time>2017-07-20T15:06:55Z</time>
      </trkpt>
      <trkpt lat="48.1006" lon="7.19397">
        <ele>745.40002441406</ele>
        <time>2017-07-20T15:06:57Z</time>
      </trkpt>
      <trkpt lat="48.10059" lon="7.19399">
        <ele>745</ele>
        <time>2017-07-20T15:06:58Z</time>
      </trkpt>
      <trkpt lat="48.10052" lon="7.19402">
        <ele>744.20001220703</ele>
        <time>2017-07-20T15:07:02Z</time>
      </trkpt>
      <trkpt lat="48.10049" lon="7.19401">
        <ele>744.20001220703</ele>
        <time>2017-07-20T15:07:04Z</time>
      </trkpt>
      <trkpt lat="48.10047" lon="7.19402">
        <ele>744.20001220703</ele>
        <time>2017-07-20T15:07:05Z</time>
      </trkpt>
      <trkpt lat="48.10046" lon="7.19401">
        <ele>744.40002441406</ele>
        <time>2017-07-20T15:08:05Z</time>
      </trkpt>
      <trkpt lat="48.10048" lon="7.19397">
        <ele>744.59997558594</ele>
        <time>2017-07-20T15:08:08Z</time>
      </trkpt>
      <trkpt lat="48.1005" lon="7.19397">
        <ele>744.59997558594</ele>
        <time>2017-07-20T15:08:09Z</time>
      </trkpt>
      <trkpt lat="48.10065" lon="7.19398">
        <ele>744.59997558594</ele>
        <time>2017-07-20T15:08:13Z</time>
      </trkpt>
      <trkpt lat="48.10069" lon="7.194">
        <ele>744.59997558594</ele>
        <time>2017-07-20T15:08:14Z</time>
      </trkpt>
      <trkpt lat="48.10087" lon="7.19407">
        <ele>744.59997558594</ele>
        <time>2017-07-20T15:08:18Z</time>
      </trkpt>
      <trkpt lat="48.1012" lon="7.19411">
        <ele>744</ele>
        <time>2017-07-20T15:08:24Z</time>
      </trkpt>
      <trkpt lat="48.10143" lon="7.19405">
        <ele>743.40002441406</ele>
        <time>2017-07-20T15:08:28Z</time>
      </trkpt>
      <trkpt lat="48.10149" lon="7.19403">
        <ele>743.20001220703</ele>
        <time>2017-07-20T15:08:29Z</time>
      </trkpt>
      <trkpt lat="48.10155" lon="7.194">
        <ele>743.20001220703</ele>
        <time>2017-07-20T15:08:30Z</time>
      </trkpt>
      <trkpt lat="48.10166" lon="7.19392">
        <ele>743</ele>
        <time>2017-07-20T15:08:32Z</time>
      </trkpt>
      <trkpt lat="48.10181" lon="7.19377">
        <ele>742.79998779297</ele>
        <time>2017-07-20T15:08:35Z</time>
      </trkpt>
      <trkpt lat="48.10204" lon="7.19346">
        <ele>742.40002441406</ele>
        <time>2017-07-20T15:08:41Z</time>
      </trkpt>
      <trkpt lat="48.10208" lon="7.19332">
        <ele>742.20001220703</ele>
        <time>2017-07-20T15:08:43Z</time>
      </trkpt>
      <trkpt lat="48.10211" lon="7.19319">
        <ele>742</ele>
        <time>2017-07-20T15:08:45Z</time>
      </trkpt>
      <trkpt lat="48.10211" lon="7.19312">
        <ele>742</ele>
        <time>2017-07-20T15:08:46Z</time>
      </trkpt>
      <trkpt lat="48.10212" lon="7.19266">
        <ele>742.20001220703</ele>
        <time>2017-07-20T15:08:53Z</time>
      </trkpt>
      <trkpt lat="48.10208" lon="7.19224">
        <ele>742.59997558594</ele>
        <time>2017-07-20T15:08:59Z</time>
      </trkpt>
      <trkpt lat="48.10204" lon="7.19176">
        <ele>743</ele>
        <time>2017-07-20T15:09:06Z</time>
      </trkpt>
      <trkpt lat="48.10203" lon="7.19156">
        <ele>743.40002441406</ele>
        <time>2017-07-20T15:09:09Z</time>
      </trkpt>
      <trkpt lat="48.10202" lon="7.19136">
        <ele>743.59997558594</ele>
        <time>2017-07-20T15:09:12Z</time>
      </trkpt>
      <trkpt lat="48.10203" lon="7.19122">
        <ele>744</ele>
        <time>2017-07-20T15:09:14Z</time>
      </trkpt>
      <trkpt lat="48.10212" lon="7.19072">
        <ele>743.79998779297</ele>
        <time>2017-07-20T15:09:21Z</time>
      </trkpt>
      <trkpt lat="48.10228" lon="7.19003">
        <ele>744</ele>
        <time>2017-07-20T15:09:31Z</time>
      </trkpt>
      <trkpt lat="48.10234" lon="7.18975">
        <ele>744.40002441406</ele>
        <time>2017-07-20T15:09:35Z</time>
      </trkpt>
      <trkpt lat="48.10241" lon="7.18941">
        <ele>744.40002441406</ele>
        <time>2017-07-20T15:09:40Z</time>
      </trkpt>
      <trkpt lat="48.10248" lon="7.18883">
        <ele>745</ele>
        <time>2017-07-20T15:09:48Z</time>
      </trkpt>
      <trkpt lat="48.10252" lon="7.18847">
        <ele>745.40002441406</ele>
        <time>2017-07-20T15:09:53Z</time>
      </trkpt>
      <trkpt lat="48.10254" lon="7.18825">
        <ele>745.40002441406</ele>
        <time>2017-07-20T15:09:56Z</time>
      </trkpt>
      <trkpt lat="48.1026" lon="7.18771">
        <ele>745.79998779297</ele>
        <time>2017-07-20T15:10:04Z</time>
      </trkpt>
      <trkpt lat="48.10269" lon="7.18716">
        <ele>746.20001220703</ele>
        <time>2017-07-20T15:10:13Z</time>
      </trkpt>
      <trkpt lat="48.1028" lon="7.18697">
        <ele>746.40002441406</ele>
        <time>2017-07-20T15:10:17Z</time>
      </trkpt>
      <trkpt lat="48.10296" lon="7.18688">
        <ele>746.59997558594</ele>
        <time>2017-07-20T15:10:21Z</time>
      </trkpt>
      <trkpt lat="48.103" lon="7.18687">
        <ele>746.59997558594</ele>
        <time>2017-07-20T15:10:22Z</time>
      </trkpt>
      <trkpt lat="48.10331" lon="7.18679">
        <ele>747.40002441406</ele>
        <time>2017-07-20T15:10:30Z</time>
      </trkpt>
      <trkpt lat="48.10339" lon="7.18676">
        <ele>747.59997558594</ele>
        <time>2017-07-20T15:10:32Z</time>
      </trkpt>
      <trkpt lat="48.10343" lon="7.18674">
        <ele>747.59997558594</ele>
        <time>2017-07-20T15:10:33Z</time>
      </trkpt>
      <trkpt lat="48.10357" lon="7.18658">
        <ele>747.59997558594</ele>
        <time>2017-07-20T15:10:37Z</time>
      </trkpt>
      <trkpt lat="48.10361" lon="7.18636">
        <ele>747.59997558594</ele>
        <time>2017-07-20T15:10:40Z</time>
      </trkpt>
      <trkpt lat="48.10358" lon="7.18605">
        <ele>747.59997558594</ele>
        <time>2017-07-20T15:10:44Z</time>
      </trkpt>
      <trkpt lat="48.10357" lon="7.18597">
        <ele>747.40002441406</ele>
        <time>2017-07-20T15:10:45Z</time>
      </trkpt>
      <trkpt lat="48.10346" lon="7.18539">
        <ele>746.40002441406</ele>
        <time>2017-07-20T15:10:52Z</time>
      </trkpt>
      <trkpt lat="48.10341" lon="7.18523">
        <ele>746.20001220703</ele>
        <time>2017-07-20T15:10:54Z</time>
      </trkpt>
      <trkpt lat="48.10329" lon="7.18495">
        <ele>745.59997558594</ele>
        <time>2017-07-20T15:10:58Z</time>
      </trkpt>
      <trkpt lat="48.10321" lon="7.18482">
        <ele>745.40002441406</ele>
        <time>2017-07-20T15:11:00Z</time>
      </trkpt>
      <trkpt lat="48.10317" lon="7.18475">
        <ele>745.40002441406</ele>
        <time>2017-07-20T15:11:01Z</time>
      </trkpt>
      <trkpt lat="48.10301" lon="7.18451">
        <ele>745.20001220703</ele>
        <time>2017-07-20T15:11:05Z</time>
      </trkpt>
      <trkpt lat="48.10297" lon="7.18444">
        <ele>745</ele>
        <time>2017-07-20T15:11:06Z</time>
      </trkpt>
      <trkpt lat="48.10287" lon="7.18411">
        <ele>745</ele>
        <time>2017-07-20T15:11:10Z</time>
      </trkpt>
      <trkpt lat="48.1029" lon="7.18381">
        <ele>744.79998779297</ele>
        <time>2017-07-20T15:11:13Z</time>
      </trkpt>
      <trkpt lat="48.10304" lon="7.18358">
        <ele>744.20001220703</ele>
        <time>2017-07-20T15:11:16Z</time>
      </trkpt>
      <trkpt lat="48.10335" lon="7.18328">
        <ele>743.20001220703</ele>
        <time>2017-07-20T15:11:21Z</time>
      </trkpt>
      <trkpt lat="48.10342" lon="7.18323">
        <ele>743</ele>
        <time>2017-07-20T15:11:22Z</time>
      </trkpt>
      <trkpt lat="48.10355" lon="7.18317">
        <ele>742.20001220703</ele>
        <time>2017-07-20T15:11:24Z</time>
      </trkpt>
      <trkpt lat="48.10364" lon="7.18318">
        <ele>741.79998779297</ele>
        <time>2017-07-20T15:11:25Z</time>
      </trkpt>
      <trkpt lat="48.10386" lon="7.18326">
        <ele>740.40002441406</ele>
        <time>2017-07-20T15:11:27Z</time>
      </trkpt>
      <trkpt lat="48.10396" lon="7.18333">
        <ele>739.79998779297</ele>
        <time>2017-07-20T15:11:28Z</time>
      </trkpt>
      <trkpt lat="48.10405" lon="7.1834">
        <ele>739.40002441406</ele>
        <time>2017-07-20T15:11:29Z</time>
      </trkpt>
      <trkpt lat="48.10421" lon="7.1836">
        <ele>738.40002441406</ele>
        <time>2017-07-20T15:11:31Z</time>
      </trkpt>
      <trkpt lat="48.10428" lon="7.18371">
        <ele>737.79998779297</ele>
        <time>2017-07-20T15:11:32Z</time>
      </trkpt>
      <trkpt lat="48.10435" lon="7.18384">
        <ele>737.40002441406</ele>
        <time>2017-07-20T15:11:33Z</time>
      </trkpt>
      <trkpt lat="48.10441" lon="7.18397">
        <ele>736.79998779297</ele>
        <time>2017-07-20T15:11:34Z</time>
      </trkpt>
      <trkpt lat="48.10456" lon="7.1842">
        <ele>736</ele>
        <time>2017-07-20T15:11:36Z</time>
      </trkpt>
      <trkpt lat="48.10465" lon="7.1843">
        <ele>735.40002441406</ele>
        <time>2017-07-20T15:11:37Z</time>
      </trkpt>
      <trkpt lat="48.10484" lon="7.18444">
        <ele>734.20001220703</ele>
        <time>2017-07-20T15:11:39Z</time>
      </trkpt>
      <trkpt lat="48.10494" lon="7.18448">
        <ele>733.79998779297</ele>
        <time>2017-07-20T15:11:40Z</time>
      </trkpt>
      <trkpt lat="48.10504" lon="7.18451">
        <ele>733.20001220703</ele>
        <time>2017-07-20T15:11:41Z</time>
      </trkpt>
      <trkpt lat="48.10514" lon="7.18453">
        <ele>732.59997558594</ele>
        <time>2017-07-20T15:11:42Z</time>
      </trkpt>
      <trkpt lat="48.10525" lon="7.18455">
        <ele>732</ele>
        <time>2017-07-20T15:11:43Z</time>
      </trkpt>
      <trkpt lat="48.10535" lon="7.18455">
        <ele>731.40002441406</ele>
        <time>2017-07-20T15:11:44Z</time>
      </trkpt>
      <trkpt lat="48.10546" lon="7.18455">
        <ele>730.79998779297</ele>
        <time>2017-07-20T15:11:45Z</time>
      </trkpt>
      <trkpt lat="48.10567" lon="7.18455">
        <ele>729.40002441406</ele>
        <time>2017-07-20T15:11:47Z</time>
      </trkpt>
      <trkpt lat="48.10589" lon="7.18453">
        <ele>728.40002441406</ele>
        <time>2017-07-20T15:11:49Z</time>
      </trkpt>
      <trkpt lat="48.10599" lon="7.18449">
        <ele>727.79998779297</ele>
        <time>2017-07-20T15:11:50Z</time>
      </trkpt>
      <trkpt lat="48.10608" lon="7.18443">
        <ele>726.79998779297</ele>
        <time>2017-07-20T15:11:51Z</time>
      </trkpt>
      <trkpt lat="48.10623" lon="7.18423">
        <ele>725.79998779297</ele>
        <time>2017-07-20T15:11:53Z</time>
      </trkpt>
      <trkpt lat="48.10631" lon="7.18397">
        <ele>724.59997558594</ele>
        <time>2017-07-20T15:11:55Z</time>
      </trkpt>
      <trkpt lat="48.10632" lon="7.18382">
        <ele>724</ele>
        <time>2017-07-20T15:11:56Z</time>
      </trkpt>
      <trkpt lat="48.10631" lon="7.18367">
        <ele>723.40002441406</ele>
        <time>2017-07-20T15:11:57Z</time>
      </trkpt>
      <trkpt lat="48.1063" lon="7.18352">
        <ele>722.79998779297</ele>
        <time>2017-07-20T15:11:58Z</time>
      </trkpt>
      <trkpt lat="48.10629" lon="7.18338">
        <ele>722.40002441406</ele>
        <time>2017-07-20T15:11:59Z</time>
      </trkpt>
      <trkpt lat="48.10628" lon="7.18323">
        <ele>721.79998779297</ele>
        <time>2017-07-20T15:12:00Z</time>
      </trkpt>
      <trkpt lat="48.10629" lon="7.18308">
        <ele>721.40002441406</ele>
        <time>2017-07-20T15:12:01Z</time>
      </trkpt>
      <trkpt lat="48.10631" lon="7.18294">
        <ele>721</ele>
        <time>2017-07-20T15:12:02Z</time>
      </trkpt>
      <trkpt lat="48.10634" lon="7.1828">
        <ele>720.40002441406</ele>
        <time>2017-07-20T15:12:03Z</time>
      </trkpt>
      <trkpt lat="48.10639" lon="7.18267">
        <ele>719.79998779297</ele>
        <time>2017-07-20T15:12:04Z</time>
      </trkpt>
      <trkpt lat="48.10653" lon="7.18249">
        <ele>718.59997558594</ele>
        <time>2017-07-20T15:12:06Z</time>
      </trkpt>
      <trkpt lat="48.10672" lon="7.1824">
        <ele>717.40002441406</ele>
        <time>2017-07-20T15:12:08Z</time>
      </trkpt>
      <trkpt lat="48.10682" lon="7.18241">
        <ele>716.79998779297</ele>
        <time>2017-07-20T15:12:09Z</time>
      </trkpt>
      <trkpt lat="48.10693" lon="7.18243">
        <ele>716</ele>
        <time>2017-07-20T15:12:10Z</time>
      </trkpt>
      <trkpt lat="48.10704" lon="7.18246">
        <ele>715.40002441406</ele>
        <time>2017-07-20T15:12:11Z</time>
      </trkpt>
      <trkpt lat="48.10715" lon="7.18249">
        <ele>714.79998779297</ele>
        <time>2017-07-20T15:12:12Z</time>
      </trkpt>
      <trkpt lat="48.10737" lon="7.18256">
        <ele>713.59997558594</ele>
        <time>2017-07-20T15:12:14Z</time>
      </trkpt>
      <trkpt lat="48.10748" lon="7.18259">
        <ele>712.59997558594</ele>
        <time>2017-07-20T15:12:15Z</time>
      </trkpt>
      <trkpt lat="48.1078" lon="7.18266">
        <ele>711.20001220703</ele>
        <time>2017-07-20T15:12:18Z</time>
      </trkpt>
      <trkpt lat="48.10812" lon="7.18274">
        <ele>709.59997558594</ele>
        <time>2017-07-20T15:12:21Z</time>
      </trkpt>
      <trkpt lat="48.10822" lon="7.18276">
        <ele>709.20001220703</ele>
        <time>2017-07-20T15:12:22Z</time>
      </trkpt>
      <trkpt lat="48.10833" lon="7.18279">
        <ele>708.59997558594</ele>
        <time>2017-07-20T15:12:23Z</time>
      </trkpt>
      <trkpt lat="48.10853" lon="7.1828">
        <ele>707.79998779297</ele>
        <time>2017-07-20T15:12:25Z</time>
      </trkpt>
      <trkpt lat="48.10862" lon="7.18276">
        <ele>707.20001220703</ele>
        <time>2017-07-20T15:12:26Z</time>
      </trkpt>
      <trkpt lat="48.10877" lon="7.18258">
        <ele>706.20001220703</ele>
        <time>2017-07-20T15:12:28Z</time>
      </trkpt>
      <trkpt lat="48.10882" lon="7.18232">
        <ele>705.20001220703</ele>
        <time>2017-07-20T15:12:30Z</time>
      </trkpt>
      <trkpt lat="48.10881" lon="7.18218">
        <ele>704.79998779297</ele>
        <time>2017-07-20T15:12:31Z</time>
      </trkpt>
      <trkpt lat="48.10876" lon="7.18193">
        <ele>704</ele>
        <time>2017-07-20T15:12:33Z</time>
      </trkpt>
      <trkpt lat="48.10872" lon="7.1818">
        <ele>703.79998779297</ele>
        <time>2017-07-20T15:12:34Z</time>
      </trkpt>
      <trkpt lat="48.10861" lon="7.18142">
        <ele>702.79998779297</ele>
        <time>2017-07-20T15:12:37Z</time>
      </trkpt>
      <trkpt lat="48.10857" lon="7.18129">
        <ele>702.40002441406</ele>
        <time>2017-07-20T15:12:38Z</time>
      </trkpt>
      <trkpt lat="48.10853" lon="7.18117">
        <ele>701.59997558594</ele>
        <time>2017-07-20T15:12:39Z</time>
      </trkpt>
      <trkpt lat="48.10837" lon="7.18065">
        <ele>700.20001220703</ele>
        <time>2017-07-20T15:12:43Z</time>
      </trkpt>
      <trkpt lat="48.10833" lon="7.18052">
        <ele>699.79998779297</ele>
        <time>2017-07-20T15:12:44Z</time>
      </trkpt>
      <trkpt lat="48.10823" lon="7.18027">
        <ele>699</ele>
        <time>2017-07-20T15:12:46Z</time>
      </trkpt>
      <trkpt lat="48.10816" lon="7.18017">
        <ele>698.59997558594</ele>
        <time>2017-07-20T15:12:47Z</time>
      </trkpt>
      <trkpt lat="48.10801" lon="7.17999">
        <ele>697.59997558594</ele>
        <time>2017-07-20T15:12:49Z</time>
      </trkpt>
      <trkpt lat="48.10777" lon="7.17975">
        <ele>696.20001220703</ele>
        <time>2017-07-20T15:12:52Z</time>
      </trkpt>
      <trkpt lat="48.10752" lon="7.17953">
        <ele>695</ele>
        <time>2017-07-20T15:12:55Z</time>
      </trkpt>
      <trkpt lat="48.1073" lon="7.17927">
        <ele>693.59997558594</ele>
        <time>2017-07-20T15:12:58Z</time>
      </trkpt>
      <trkpt lat="48.10723" lon="7.17916">
        <ele>693.20001220703</ele>
        <time>2017-07-20T15:12:59Z</time>
      </trkpt>
      <trkpt lat="48.10713" lon="7.17894">
        <ele>692.20001220703</ele>
        <time>2017-07-20T15:13:01Z</time>
      </trkpt>
      <trkpt lat="48.1071" lon="7.17881">
        <ele>691.59997558594</ele>
        <time>2017-07-20T15:13:02Z</time>
      </trkpt>
      <trkpt lat="48.10709" lon="7.17865">
        <ele>690.79998779297</ele>
        <time>2017-07-20T15:13:03Z</time>
      </trkpt>
      <trkpt lat="48.10709" lon="7.17834">
        <ele>689.79998779297</ele>
        <time>2017-07-20T15:13:05Z</time>
      </trkpt>
      <trkpt lat="48.1071" lon="7.17819">
        <ele>689.40002441406</ele>
        <time>2017-07-20T15:13:06Z</time>
      </trkpt>
      <trkpt lat="48.10714" lon="7.17771">
        <ele>688</ele>
        <time>2017-07-20T15:13:09Z</time>
      </trkpt>
      <trkpt lat="48.10719" lon="7.1774">
        <ele>686.59997558594</ele>
        <time>2017-07-20T15:13:11Z</time>
      </trkpt>
      <trkpt lat="48.10727" lon="7.17709">
        <ele>685</ele>
        <time>2017-07-20T15:13:13Z</time>
      </trkpt>
      <trkpt lat="48.10738" lon="7.17682">
        <ele>683.59997558594</ele>
        <time>2017-07-20T15:13:15Z</time>
      </trkpt>
      <trkpt lat="48.10748" lon="7.17654">
        <ele>682</ele>
        <time>2017-07-20T15:13:17Z</time>
      </trkpt>
      <trkpt lat="48.10759" lon="7.17627">
        <ele>680.79998779297</ele>
        <time>2017-07-20T15:13:19Z</time>
      </trkpt>
      <trkpt lat="48.10764" lon="7.17614">
        <ele>680.20001220703</ele>
        <time>2017-07-20T15:13:20Z</time>
      </trkpt>
      <trkpt lat="48.10768" lon="7.176">
        <ele>679.40002441406</ele>
        <time>2017-07-20T15:13:21Z</time>
      </trkpt>
      <trkpt lat="48.10777" lon="7.17571">
        <ele>678.20001220703</ele>
        <time>2017-07-20T15:13:23Z</time>
      </trkpt>
      <trkpt lat="48.10784" lon="7.17543">
        <ele>677.20001220703</ele>
        <time>2017-07-20T15:13:25Z</time>
      </trkpt>
      <trkpt lat="48.10792" lon="7.17516">
        <ele>676</ele>
        <time>2017-07-20T15:13:27Z</time>
      </trkpt>
      <trkpt lat="48.10804" lon="7.17476">
        <ele>674.59997558594</ele>
        <time>2017-07-20T15:13:30Z</time>
      </trkpt>
      <trkpt lat="48.10809" lon="7.17464">
        <ele>674.20001220703</ele>
        <time>2017-07-20T15:13:31Z</time>
      </trkpt>
      <trkpt lat="48.10815" lon="7.17454">
        <ele>673.59997558594</ele>
        <time>2017-07-20T15:13:32Z</time>
      </trkpt>
      <trkpt lat="48.10831" lon="7.17439">
        <ele>672.40002441406</ele>
        <time>2017-07-20T15:13:34Z</time>
      </trkpt>
      <trkpt lat="48.10839" lon="7.17433">
        <ele>671.79998779297</ele>
        <time>2017-07-20T15:13:35Z</time>
      </trkpt>
      <trkpt lat="48.10847" lon="7.17429">
        <ele>671.40002441406</ele>
        <time>2017-07-20T15:13:36Z</time>
      </trkpt>
      <trkpt lat="48.10856" lon="7.17425">
        <ele>671</ele>
        <time>2017-07-20T15:13:37Z</time>
      </trkpt>
      <trkpt lat="48.10874" lon="7.17416">
        <ele>670.20001220703</ele>
        <time>2017-07-20T15:13:39Z</time>
      </trkpt>
      <trkpt lat="48.10902" lon="7.17398">
        <ele>669.20001220703</ele>
        <time>2017-07-20T15:13:42Z</time>
      </trkpt>
      <trkpt lat="48.1092" lon="7.17384">
        <ele>668.20001220703</ele>
        <time>2017-07-20T15:13:44Z</time>
      </trkpt>
      <trkpt lat="48.10929" lon="7.17376">
        <ele>667.79998779297</ele>
        <time>2017-07-20T15:13:45Z</time>
      </trkpt>
      <trkpt lat="48.10957" lon="7.17358">
        <ele>666.40002441406</ele>
        <time>2017-07-20T15:13:48Z</time>
      </trkpt>
      <trkpt lat="48.10967" lon="7.17354">
        <ele>666</ele>
        <time>2017-07-20T15:13:49Z</time>
      </trkpt>
      <trkpt lat="48.10988" lon="7.17351">
        <ele>664.40002441406</ele>
        <time>2017-07-20T15:13:51Z</time>
      </trkpt>
      <trkpt lat="48.11012" lon="7.17351">
        <ele>663</ele>
        <time>2017-07-20T15:13:53Z</time>
      </trkpt>
      <trkpt lat="48.11034" lon="7.17345">
        <ele>662</ele>
        <time>2017-07-20T15:13:55Z</time>
      </trkpt>
      <trkpt lat="48.11045" lon="7.1734">
        <ele>661.40002441406</ele>
        <time>2017-07-20T15:13:56Z</time>
      </trkpt>
      <trkpt lat="48.11056" lon="7.17336">
        <ele>660.79998779297</ele>
        <time>2017-07-20T15:13:57Z</time>
      </trkpt>
      <trkpt lat="48.11078" lon="7.17328">
        <ele>659.59997558594</ele>
        <time>2017-07-20T15:13:59Z</time>
      </trkpt>
      <trkpt lat="48.11099" lon="7.17322">
        <ele>658.40002441406</ele>
        <time>2017-07-20T15:14:01Z</time>
      </trkpt>
      <trkpt lat="48.11118" lon="7.1732">
        <ele>656.79998779297</ele>
        <time>2017-07-20T15:14:03Z</time>
      </trkpt>
      <trkpt lat="48.11138" lon="7.17327">
        <ele>655.40002441406</ele>
        <time>2017-07-20T15:14:05Z</time>
      </trkpt>
      <trkpt lat="48.11164" lon="7.17344">
        <ele>654.40002441406</ele>
        <time>2017-07-20T15:14:07Z</time>
      </trkpt>
      <trkpt lat="48.112" lon="7.17364">
        <ele>653.20001220703</ele>
        <time>2017-07-20T15:14:10Z</time>
      </trkpt>
      <trkpt lat="48.11222" lon="7.17374">
        <ele>652.40002441406</ele>
        <time>2017-07-20T15:14:12Z</time>
      </trkpt>
      <trkpt lat="48.11231" lon="7.1738">
        <ele>652.20001220703</ele>
        <time>2017-07-20T15:14:13Z</time>
      </trkpt>
      <trkpt lat="48.11241" lon="7.17385">
        <ele>651.79998779297</ele>
        <time>2017-07-20T15:14:14Z</time>
      </trkpt>
      <trkpt lat="48.1125" lon="7.17387">
        <ele>651.20001220703</ele>
        <time>2017-07-20T15:14:15Z</time>
      </trkpt>
      <trkpt lat="48.1126" lon="7.17387">
        <ele>650.79998779297</ele>
        <time>2017-07-20T15:14:16Z</time>
      </trkpt>
      <trkpt lat="48.1127" lon="7.17386">
        <ele>650.40002441406</ele>
        <time>2017-07-20T15:14:17Z</time>
      </trkpt>
      <trkpt lat="48.11282" lon="7.17368">
        <ele>650</ele>
        <time>2017-07-20T15:14:19Z</time>
      </trkpt>
      <trkpt lat="48.11285" lon="7.17357">
        <ele>649.79998779297</ele>
        <time>2017-07-20T15:14:20Z</time>
      </trkpt>
      <trkpt lat="48.11283" lon="7.17346">
        <ele>649.40002441406</ele>
        <time>2017-07-20T15:14:21Z</time>
      </trkpt>
      <trkpt lat="48.11262" lon="7.17321">
        <ele>648.40002441406</ele>
        <time>2017-07-20T15:14:24Z</time>
      </trkpt>
      <trkpt lat="48.11232" lon="7.17308">
        <ele>647.40002441406</ele>
        <time>2017-07-20T15:14:27Z</time>
      </trkpt>
      <trkpt lat="48.11222" lon="7.17304">
        <ele>647</ele>
        <time>2017-07-20T15:14:28Z</time>
      </trkpt>
      <trkpt lat="48.11201" lon="7.17296">
        <ele>646</ele>
        <time>2017-07-20T15:14:30Z</time>
      </trkpt>
      <trkpt lat="48.11181" lon="7.17288">
        <ele>644.79998779297</ele>
        <time>2017-07-20T15:14:32Z</time>
      </trkpt>
      <trkpt lat="48.1116" lon="7.1728">
        <ele>643.59997558594</ele>
        <time>2017-07-20T15:14:34Z</time>
      </trkpt>
      <trkpt lat="48.11149" lon="7.17276">
        <ele>643</ele>
        <time>2017-07-20T15:14:35Z</time>
      </trkpt>
      <trkpt lat="48.11139" lon="7.17272">
        <ele>642.40002441406</ele>
        <time>2017-07-20T15:14:36Z</time>
      </trkpt>
      <trkpt lat="48.11118" lon="7.17263">
        <ele>641.20001220703</ele>
        <time>2017-07-20T15:14:38Z</time>
      </trkpt>
      <trkpt lat="48.11107" lon="7.17259">
        <ele>639.79998779297</ele>
        <time>2017-07-20T15:14:39Z</time>
      </trkpt>
      <trkpt lat="48.11085" lon="7.1725">
        <ele>638.59997558594</ele>
        <time>2017-07-20T15:14:41Z</time>
      </trkpt>
      <trkpt lat="48.11062" lon="7.17246">
        <ele>637.40002441406</ele>
        <time>2017-07-20T15:14:43Z</time>
      </trkpt>
      <trkpt lat="48.1104" lon="7.17245">
        <ele>636</ele>
        <time>2017-07-20T15:14:45Z</time>
      </trkpt>
      <trkpt lat="48.11019" lon="7.17246">
        <ele>634.59997558594</ele>
        <time>2017-07-20T15:14:47Z</time>
      </trkpt>
      <trkpt lat="48.10996" lon="7.17248">
        <ele>633.40002441406</ele>
        <time>2017-07-20T15:14:49Z</time>
      </trkpt>
      <trkpt lat="48.10973" lon="7.1725">
        <ele>632</ele>
        <time>2017-07-20T15:14:51Z</time>
      </trkpt>
      <trkpt lat="48.10951" lon="7.17254">
        <ele>630.59997558594</ele>
        <time>2017-07-20T15:14:53Z</time>
      </trkpt>
      <trkpt lat="48.10929" lon="7.17259">
        <ele>629.20001220703</ele>
        <time>2017-07-20T15:14:55Z</time>
      </trkpt>
      <trkpt lat="48.10918" lon="7.17262">
        <ele>628.59997558594</ele>
        <time>2017-07-20T15:14:56Z</time>
      </trkpt>
      <trkpt lat="48.10908" lon="7.17265">
        <ele>628.20001220703</ele>
        <time>2017-07-20T15:14:57Z</time>
      </trkpt>
      <trkpt lat="48.10886" lon="7.17273">
        <ele>627</ele>
        <time>2017-07-20T15:14:59Z</time>
      </trkpt>
      <trkpt lat="48.10865" lon="7.17281">
        <ele>625.59997558594</ele>
        <time>2017-07-20T15:15:01Z</time>
      </trkpt>
      <trkpt lat="48.10842" lon="7.17289">
        <ele>623.59997558594</ele>
        <time>2017-07-20T15:15:03Z</time>
      </trkpt>
      <trkpt lat="48.1082" lon="7.17296">
        <ele>622.20001220703</ele>
        <time>2017-07-20T15:15:05Z</time>
      </trkpt>
      <trkpt lat="48.10796" lon="7.17299">
        <ele>620.79998779297</ele>
        <time>2017-07-20T15:15:07Z</time>
      </trkpt>
      <trkpt lat="48.10773" lon="7.17299">
        <ele>619</ele>
        <time>2017-07-20T15:15:09Z</time>
      </trkpt>
      <trkpt lat="48.10749" lon="7.17299">
        <ele>617.20001220703</ele>
        <time>2017-07-20T15:15:11Z</time>
      </trkpt>
      <trkpt lat="48.10738" lon="7.173">
        <ele>616.40002441406</ele>
        <time>2017-07-20T15:15:12Z</time>
      </trkpt>
      <trkpt lat="48.10728" lon="7.17303">
        <ele>615.59997558594</ele>
        <time>2017-07-20T15:15:13Z</time>
      </trkpt>
      <trkpt lat="48.1071" lon="7.17322">
        <ele>614.40002441406</ele>
        <time>2017-07-20T15:15:15Z</time>
      </trkpt>
      <trkpt lat="48.10698" lon="7.17349">
        <ele>613</ele>
        <time>2017-07-20T15:15:17Z</time>
      </trkpt>
      <trkpt lat="48.10693" lon="7.17365">
        <ele>612.20001220703</ele>
        <time>2017-07-20T15:15:18Z</time>
      </trkpt>
      <trkpt lat="48.10689" lon="7.1738">
        <ele>611.40002441406</ele>
        <time>2017-07-20T15:15:19Z</time>
      </trkpt>
      <trkpt lat="48.1068" lon="7.17409">
        <ele>609.79998779297</ele>
        <time>2017-07-20T15:15:21Z</time>
      </trkpt>
      <trkpt lat="48.10672" lon="7.17435">
        <ele>608.59997558594</ele>
        <time>2017-07-20T15:15:23Z</time>
      </trkpt>
      <trkpt lat="48.10665" lon="7.17444">
        <ele>608.20001220703</ele>
        <time>2017-07-20T15:15:24Z</time>
      </trkpt>
      <trkpt lat="48.10654" lon="7.17453">
        <ele>607.40002441406</ele>
        <time>2017-07-20T15:15:26Z</time>
      </trkpt>
      <trkpt lat="48.10651" lon="7.17453">
        <ele>606.40002441406</ele>
        <time>2017-07-20T15:15:27Z</time>
      </trkpt>
      <trkpt lat="48.10648" lon="7.17446">
        <ele>606</ele>
        <time>2017-07-20T15:15:28Z</time>
      </trkpt>
      <trkpt lat="48.10648" lon="7.17438">
        <ele>605.40002441406</ele>
        <time>2017-07-20T15:15:29Z</time>
      </trkpt>
      <trkpt lat="48.10645" lon="7.17422">
        <ele>605</ele>
        <time>2017-07-20T15:15:30Z</time>
      </trkpt>
      <trkpt lat="48.10642" lon="7.17404">
        <ele>604.40002441406</ele>
        <time>2017-07-20T15:15:31Z</time>
      </trkpt>
      <trkpt lat="48.10636" lon="7.17371">
        <ele>603.79998779297</ele>
        <time>2017-07-20T15:15:33Z</time>
      </trkpt>
      <trkpt lat="48.10627" lon="7.17328">
        <ele>602.79998779297</ele>
        <time>2017-07-20T15:15:36Z</time>
      </trkpt>
      <trkpt lat="48.10611" lon="7.17306">
        <ele>602</ele>
        <time>2017-07-20T15:15:38Z</time>
      </trkpt>
      <trkpt lat="48.106" lon="7.17299">
        <ele>601.79998779297</ele>
        <time>2017-07-20T15:15:39Z</time>
      </trkpt>
      <trkpt lat="48.10589" lon="7.17295">
        <ele>601.40002441406</ele>
        <time>2017-07-20T15:15:40Z</time>
      </trkpt>
      <trkpt lat="48.10579" lon="7.17292">
        <ele>601</ele>
        <time>2017-07-20T15:15:41Z</time>
      </trkpt>
      <trkpt lat="48.10568" lon="7.1729">
        <ele>600.59997558594</ele>
        <time>2017-07-20T15:15:42Z</time>
      </trkpt>
      <trkpt lat="48.10537" lon="7.17281">
        <ele>599.20001220703</ele>
        <time>2017-07-20T15:15:45Z</time>
      </trkpt>
      <trkpt lat="48.10527" lon="7.17276">
        <ele>598.79998779297</ele>
        <time>2017-07-20T15:15:46Z</time>
      </trkpt>
      <trkpt lat="48.10509" lon="7.17262">
        <ele>598</ele>
        <time>2017-07-20T15:15:48Z</time>
      </trkpt>
      <trkpt lat="48.10492" lon="7.17244">
        <ele>597</ele>
        <time>2017-07-20T15:15:50Z</time>
      </trkpt>
      <trkpt lat="48.10484" lon="7.17233">
        <ele>596</ele>
        <time>2017-07-20T15:15:51Z</time>
      </trkpt>
      <trkpt lat="48.10476" lon="7.17222">
        <ele>595.59997558594</ele>
        <time>2017-07-20T15:15:52Z</time>
      </trkpt>
      <trkpt lat="48.10469" lon="7.17211">
        <ele>595</ele>
        <time>2017-07-20T15:15:53Z</time>
      </trkpt>
      <trkpt lat="48.10454" lon="7.1719">
        <ele>593.79998779297</ele>
        <time>2017-07-20T15:15:55Z</time>
      </trkpt>
      <trkpt lat="48.10438" lon="7.17168">
        <ele>592.59997558594</ele>
        <time>2017-07-20T15:15:57Z</time>
      </trkpt>
      <trkpt lat="48.10426" lon="7.17147">
        <ele>591.59997558594</ele>
        <time>2017-07-20T15:15:59Z</time>
      </trkpt>
      <trkpt lat="48.10423" lon="7.17135">
        <ele>591.20001220703</ele>
        <time>2017-07-20T15:16:00Z</time>
      </trkpt>
      <trkpt lat="48.10425" lon="7.17114">
        <ele>590.40002441406</ele>
        <time>2017-07-20T15:16:02Z</time>
      </trkpt>
      <trkpt lat="48.10435" lon="7.17108">
        <ele>589.59997558594</ele>
        <time>2017-07-20T15:16:04Z</time>
      </trkpt>
      <trkpt lat="48.10442" lon="7.17114">
        <ele>589.20001220703</ele>
        <time>2017-07-20T15:16:05Z</time>
      </trkpt>
      <trkpt lat="48.10449" lon="7.17126">
        <ele>588.79998779297</ele>
        <time>2017-07-20T15:16:06Z</time>
      </trkpt>
      <trkpt lat="48.10458" lon="7.17149">
        <ele>588.20001220703</ele>
        <time>2017-07-20T15:16:08Z</time>
      </trkpt>
      <trkpt lat="48.10462" lon="7.1716">
        <ele>587.79998779297</ele>
        <time>2017-07-20T15:16:09Z</time>
      </trkpt>
      <trkpt lat="48.10468" lon="7.1717">
        <ele>587.59997558594</ele>
        <time>2017-07-20T15:16:10Z</time>
      </trkpt>
      <trkpt lat="48.1048" lon="7.1719">
        <ele>587</ele>
        <time>2017-07-20T15:16:12Z</time>
      </trkpt>
      <trkpt lat="48.10494" lon="7.17206">
        <ele>586.40002441406</ele>
        <time>2017-07-20T15:16:14Z</time>
      </trkpt>
      <trkpt lat="48.10502" lon="7.17213">
        <ele>585.59997558594</ele>
        <time>2017-07-20T15:16:15Z</time>
      </trkpt>
      <trkpt lat="48.10528" lon="7.17228">
        <ele>584.40002441406</ele>
        <time>2017-07-20T15:16:18Z</time>
      </trkpt>
      <trkpt lat="48.10537" lon="7.17231">
        <ele>584</ele>
        <time>2017-07-20T15:16:19Z</time>
      </trkpt>
      <trkpt lat="48.10557" lon="7.17236">
        <ele>583</ele>
        <time>2017-07-20T15:16:21Z</time>
      </trkpt>
      <trkpt lat="48.10567" lon="7.17238">
        <ele>582.40002441406</ele>
        <time>2017-07-20T15:16:22Z</time>
      </trkpt>
      <trkpt lat="48.10578" lon="7.17238">
        <ele>581.79998779297</ele>
        <time>2017-07-20T15:16:23Z</time>
      </trkpt>
      <trkpt lat="48.10598" lon="7.17236">
        <ele>580.79998779297</ele>
        <time>2017-07-20T15:16:25Z</time>
      </trkpt>
      <trkpt lat="48.1061" lon="7.17234">
        <ele>580.20001220703</ele>
        <time>2017-07-20T15:16:26Z</time>
      </trkpt>
      <trkpt lat="48.10621" lon="7.1723">
        <ele>579.40002441406</ele>
        <time>2017-07-20T15:16:27Z</time>
      </trkpt>
      <trkpt lat="48.10643" lon="7.17217">
        <ele>578</ele>
        <time>2017-07-20T15:16:29Z</time>
      </trkpt>
      <trkpt lat="48.10663" lon="7.17199">
        <ele>576.40002441406</ele>
        <time>2017-07-20T15:16:31Z</time>
      </trkpt>
      <trkpt lat="48.10672" lon="7.17188">
        <ele>575.59997558594</ele>
        <time>2017-07-20T15:16:32Z</time>
      </trkpt>
      <trkpt lat="48.1068" lon="7.17176">
        <ele>574.79998779297</ele>
        <time>2017-07-20T15:16:33Z</time>
      </trkpt>
      <trkpt lat="48.10696" lon="7.17151">
        <ele>573.20001220703</ele>
        <time>2017-07-20T15:16:35Z</time>
      </trkpt>
      <trkpt lat="48.10704" lon="7.17139">
        <ele>572.40002441406</ele>
        <time>2017-07-20T15:16:36Z</time>
      </trkpt>
      <trkpt lat="48.10713" lon="7.17128">
        <ele>571.59997558594</ele>
        <time>2017-07-20T15:16:37Z</time>
      </trkpt>
      <trkpt lat="48.10731" lon="7.17108">
        <ele>569.59997558594</ele>
        <time>2017-07-20T15:16:39Z</time>
      </trkpt>
      <trkpt lat="48.1074" lon="7.171">
        <ele>569</ele>
        <time>2017-07-20T15:16:40Z</time>
      </trkpt>
      <trkpt lat="48.1075" lon="7.17092">
        <ele>568.20001220703</ele>
        <time>2017-07-20T15:16:41Z</time>
      </trkpt>
      <trkpt lat="48.10769" lon="7.17081">
        <ele>566.79998779297</ele>
        <time>2017-07-20T15:16:43Z</time>
      </trkpt>
      <trkpt lat="48.10788" lon="7.17068">
        <ele>565.40002441406</ele>
        <time>2017-07-20T15:16:45Z</time>
      </trkpt>
      <trkpt lat="48.10808" lon="7.17056">
        <ele>564</ele>
        <time>2017-07-20T15:16:47Z</time>
      </trkpt>
      <trkpt lat="48.10819" lon="7.1705">
        <ele>563.40002441406</ele>
        <time>2017-07-20T15:16:48Z</time>
      </trkpt>
      <trkpt lat="48.10829" lon="7.17044">
        <ele>562.79998779297</ele>
        <time>2017-07-20T15:16:49Z</time>
      </trkpt>
      <trkpt lat="48.1085" lon="7.17031">
        <ele>561.40002441406</ele>
        <time>2017-07-20T15:16:51Z</time>
      </trkpt>
      <trkpt lat="48.10872" lon="7.17017">
        <ele>560</ele>
        <time>2017-07-20T15:16:53Z</time>
      </trkpt>
      <trkpt lat="48.10883" lon="7.1701">
        <ele>559.20001220703</ele>
        <time>2017-07-20T15:16:54Z</time>
      </trkpt>
      <trkpt lat="48.10894" lon="7.17003">
        <ele>558.40002441406</ele>
        <time>2017-07-20T15:16:55Z</time>
      </trkpt>
      <trkpt lat="48.10916" lon="7.16989">
        <ele>557</ele>
        <time>2017-07-20T15:16:57Z</time>
      </trkpt>
      <trkpt lat="48.10939" lon="7.16975">
        <ele>555.59997558594</ele>
        <time>2017-07-20T15:16:59Z</time>
      </trkpt>
      <trkpt lat="48.10961" lon="7.16962">
        <ele>553.79998779297</ele>
        <time>2017-07-20T15:17:01Z</time>
      </trkpt>
      <trkpt lat="48.10984" lon="7.16951">
        <ele>551.40002441406</ele>
        <time>2017-07-20T15:17:03Z</time>
      </trkpt>
      <trkpt lat="48.11006" lon="7.16942">
        <ele>550</ele>
        <time>2017-07-20T15:17:05Z</time>
      </trkpt>
      <trkpt lat="48.11017" lon="7.16938">
        <ele>549.20001220703</ele>
        <time>2017-07-20T15:17:06Z</time>
      </trkpt>
      <trkpt lat="48.11027" lon="7.16935">
        <ele>548.40002441406</ele>
        <time>2017-07-20T15:17:07Z</time>
      </trkpt>
      <trkpt lat="48.11045" lon="7.16929">
        <ele>546.79998779297</ele>
        <time>2017-07-20T15:17:09Z</time>
      </trkpt>
      <trkpt lat="48.11053" lon="7.16926">
        <ele>546</ele>
        <time>2017-07-20T15:17:10Z</time>
      </trkpt>
      <trkpt lat="48.11061" lon="7.16922">
        <ele>545.20001220703</ele>
        <time>2017-07-20T15:17:11Z</time>
      </trkpt>
      <trkpt lat="48.11077" lon="7.16911">
        <ele>543.79998779297</ele>
        <time>2017-07-20T15:17:13Z</time>
      </trkpt>
      <trkpt lat="48.11085" lon="7.16904">
        <ele>543.20001220703</ele>
        <time>2017-07-20T15:17:14Z</time>
      </trkpt>
      <trkpt lat="48.11099" lon="7.16889">
        <ele>542.40002441406</ele>
        <time>2017-07-20T15:17:16Z</time>
      </trkpt>
      <trkpt lat="48.11113" lon="7.16871">
        <ele>541</ele>
        <time>2017-07-20T15:17:18Z</time>
      </trkpt>
      <trkpt lat="48.11136" lon="7.16843">
        <ele>539.79998779297</ele>
        <time>2017-07-20T15:17:21Z</time>
      </trkpt>
      <trkpt lat="48.1116" lon="7.16815">
        <ele>538.20001220703</ele>
        <time>2017-07-20T15:17:24Z</time>
      </trkpt>
      <trkpt lat="48.11168" lon="7.16805">
        <ele>537.59997558594</ele>
        <time>2017-07-20T15:17:25Z</time>
      </trkpt>
      <trkpt lat="48.11176" lon="7.16796">
        <ele>537.20001220703</ele>
        <time>2017-07-20T15:17:26Z</time>
      </trkpt>
      <trkpt lat="48.11184" lon="7.16787">
        <ele>536.20001220703</ele>
        <time>2017-07-20T15:17:27Z</time>
      </trkpt>
      <trkpt lat="48.11208" lon="7.16759">
        <ele>534.59997558594</ele>
        <time>2017-07-20T15:17:30Z</time>
      </trkpt>
      <trkpt lat="48.11216" lon="7.1675">
        <ele>534.20001220703</ele>
        <time>2017-07-20T15:17:31Z</time>
      </trkpt>
      <trkpt lat="48.11233" lon="7.16735">
        <ele>533.20001220703</ele>
        <time>2017-07-20T15:17:33Z</time>
      </trkpt>
      <trkpt lat="48.11252" lon="7.16723">
        <ele>532.20001220703</ele>
        <time>2017-07-20T15:17:35Z</time>
      </trkpt>
      <trkpt lat="48.11272" lon="7.16716">
        <ele>531</ele>
        <time>2017-07-20T15:17:37Z</time>
      </trkpt>
      <trkpt lat="48.11283" lon="7.16714">
        <ele>530.40002441406</ele>
        <time>2017-07-20T15:17:38Z</time>
      </trkpt>
      <trkpt lat="48.11294" lon="7.16714">
        <ele>530</ele>
        <time>2017-07-20T15:17:39Z</time>
      </trkpt>
      <trkpt lat="48.11315" lon="7.16718">
        <ele>528.79998779297</ele>
        <time>2017-07-20T15:17:41Z</time>
      </trkpt>
      <trkpt lat="48.11336" lon="7.16728">
        <ele>527.79998779297</ele>
        <time>2017-07-20T15:17:43Z</time>
      </trkpt>
      <trkpt lat="48.11356" lon="7.16741">
        <ele>526.59997558594</ele>
        <time>2017-07-20T15:17:45Z</time>
      </trkpt>
      <trkpt lat="48.11375" lon="7.16758">
        <ele>525.40002441406</ele>
        <time>2017-07-20T15:17:47Z</time>
      </trkpt>
      <trkpt lat="48.11394" lon="7.16776">
        <ele>524.20001220703</ele>
        <time>2017-07-20T15:17:49Z</time>
      </trkpt>
      <trkpt lat="48.11414" lon="7.16791">
        <ele>523</ele>
        <time>2017-07-20T15:17:51Z</time>
      </trkpt>
      <trkpt lat="48.11424" lon="7.16797">
        <ele>521.59997558594</ele>
        <time>2017-07-20T15:17:52Z</time>
      </trkpt>
      <trkpt lat="48.11447" lon="7.16808">
        <ele>520.20001220703</ele>
        <time>2017-07-20T15:17:54Z</time>
      </trkpt>
      <trkpt lat="48.11471" lon="7.16818">
        <ele>518.20001220703</ele>
        <time>2017-07-20T15:17:56Z</time>
      </trkpt>
      <trkpt lat="48.11484" lon="7.16822">
        <ele>517.40002441406</ele>
        <time>2017-07-20T15:17:57Z</time>
      </trkpt>
      <trkpt lat="48.11496" lon="7.16825">
        <ele>516.40002441406</ele>
        <time>2017-07-20T15:17:58Z</time>
      </trkpt>
      <trkpt lat="48.11519" lon="7.16832">
        <ele>514.59997558594</ele>
        <time>2017-07-20T15:18:00Z</time>
      </trkpt>
      <trkpt lat="48.1153" lon="7.16837">
        <ele>513.79998779297</ele>
        <time>2017-07-20T15:18:01Z</time>
      </trkpt>
      <trkpt lat="48.11541" lon="7.16841">
        <ele>513</ele>
        <time>2017-07-20T15:18:02Z</time>
      </trkpt>
      <trkpt lat="48.11563" lon="7.16841">
        <ele>511.79998779297</ele>
        <time>2017-07-20T15:18:04Z</time>
      </trkpt>
      <trkpt lat="48.11575" lon="7.16839">
        <ele>511.20001220703</ele>
        <time>2017-07-20T15:18:05Z</time>
      </trkpt>
      <trkpt lat="48.11586" lon="7.16837">
        <ele>510.60000610352</ele>
        <time>2017-07-20T15:18:06Z</time>
      </trkpt>
      <trkpt lat="48.11608" lon="7.1683">
        <ele>509.20001220703</ele>
        <time>2017-07-20T15:18:08Z</time>
      </trkpt>
      <trkpt lat="48.11619" lon="7.16826">
        <ele>508.39999389648</ele>
        <time>2017-07-20T15:18:09Z</time>
      </trkpt>
      <trkpt lat="48.1163" lon="7.16823">
        <ele>507.79998779297</ele>
        <time>2017-07-20T15:18:10Z</time>
      </trkpt>
      <trkpt lat="48.11652" lon="7.16816">
        <ele>506.39999389648</ele>
        <time>2017-07-20T15:18:12Z</time>
      </trkpt>
      <trkpt lat="48.11674" lon="7.16807">
        <ele>505.20001220703</ele>
        <time>2017-07-20T15:18:14Z</time>
      </trkpt>
      <trkpt lat="48.11684" lon="7.168">
        <ele>504.60000610352</ele>
        <time>2017-07-20T15:18:15Z</time>
      </trkpt>
      <trkpt lat="48.11694" lon="7.16791">
        <ele>503.39999389648</ele>
        <time>2017-07-20T15:18:16Z</time>
      </trkpt>
      <trkpt lat="48.11713" lon="7.16774">
        <ele>502.20001220703</ele>
        <time>2017-07-20T15:18:18Z</time>
      </trkpt>
      <trkpt lat="48.11722" lon="7.16765">
        <ele>501.60000610352</ele>
        <time>2017-07-20T15:18:19Z</time>
      </trkpt>
      <trkpt lat="48.11731" lon="7.16756">
        <ele>501.20001220703</ele>
        <time>2017-07-20T15:18:20Z</time>
      </trkpt>
      <trkpt lat="48.11758" lon="7.16731">
        <ele>499.60000610352</ele>
        <time>2017-07-20T15:18:23Z</time>
      </trkpt>
      <trkpt lat="48.11775" lon="7.16714">
        <ele>499</ele>
        <time>2017-07-20T15:18:25Z</time>
      </trkpt>
      <trkpt lat="48.1179" lon="7.16695">
        <ele>498.60000610352</ele>
        <time>2017-07-20T15:18:27Z</time>
      </trkpt>
      <trkpt lat="48.11813" lon="7.16668">
        <ele>498</ele>
        <time>2017-07-20T15:18:30Z</time>
      </trkpt>
      <trkpt lat="48.11822" lon="7.1666">
        <ele>497.79998779297</ele>
        <time>2017-07-20T15:18:31Z</time>
      </trkpt>
      <trkpt lat="48.1183" lon="7.16653">
        <ele>497.39999389648</ele>
        <time>2017-07-20T15:18:32Z</time>
      </trkpt>
      <trkpt lat="48.11847" lon="7.16638">
        <ele>496.79998779297</ele>
        <time>2017-07-20T15:18:34Z</time>
      </trkpt>
      <trkpt lat="48.11864" lon="7.16623">
        <ele>496.20001220703</ele>
        <time>2017-07-20T15:18:36Z</time>
      </trkpt>
      <trkpt lat="48.11889" lon="7.16596">
        <ele>495</ele>
        <time>2017-07-20T15:18:39Z</time>
      </trkpt>
      <trkpt lat="48.11898" lon="7.16588">
        <ele>494</ele>
        <time>2017-07-20T15:18:40Z</time>
      </trkpt>
      <trkpt lat="48.11918" lon="7.16576">
        <ele>492.79998779297</ele>
        <time>2017-07-20T15:18:42Z</time>
      </trkpt>
      <trkpt lat="48.11929" lon="7.16572">
        <ele>492</ele>
        <time>2017-07-20T15:18:43Z</time>
      </trkpt>
      <trkpt lat="48.1194" lon="7.16569">
        <ele>491.39999389648</ele>
        <time>2017-07-20T15:18:44Z</time>
      </trkpt>
      <trkpt lat="48.11963" lon="7.16569">
        <ele>490</ele>
        <time>2017-07-20T15:18:46Z</time>
      </trkpt>
      <trkpt lat="48.11986" lon="7.16574">
        <ele>488.60000610352</ele>
        <time>2017-07-20T15:18:48Z</time>
      </trkpt>
      <trkpt lat="48.11998" lon="7.16578">
        <ele>487.79998779297</ele>
        <time>2017-07-20T15:18:49Z</time>
      </trkpt>
      <trkpt lat="48.12009" lon="7.16581">
        <ele>487.20001220703</ele>
        <time>2017-07-20T15:18:50Z</time>
      </trkpt>
      <trkpt lat="48.12032" lon="7.16584">
        <ele>486</ele>
        <time>2017-07-20T15:18:52Z</time>
      </trkpt>
      <trkpt lat="48.12056" lon="7.16583">
        <ele>484.39999389648</ele>
        <time>2017-07-20T15:18:54Z</time>
      </trkpt>
      <trkpt lat="48.12079" lon="7.16578">
        <ele>483</ele>
        <time>2017-07-20T15:18:56Z</time>
      </trkpt>
      <trkpt lat="48.12102" lon="7.16573">
        <ele>481.60000610352</ele>
        <time>2017-07-20T15:18:58Z</time>
      </trkpt>
      <trkpt lat="48.12113" lon="7.1657">
        <ele>481</ele>
        <time>2017-07-20T15:18:59Z</time>
      </trkpt>
      <trkpt lat="48.12124" lon="7.16566">
        <ele>480.39999389648</ele>
        <time>2017-07-20T15:19:00Z</time>
      </trkpt>
      <trkpt lat="48.12145" lon="7.16559">
        <ele>479.39999389648</ele>
        <time>2017-07-20T15:19:02Z</time>
      </trkpt>
      <trkpt lat="48.12164" lon="7.16552">
        <ele>478.39999389648</ele>
        <time>2017-07-20T15:19:04Z</time>
      </trkpt>
      <trkpt lat="48.12202" lon="7.16541">
        <ele>477.20001220703</ele>
        <time>2017-07-20T15:19:08Z</time>
      </trkpt>
      <trkpt lat="48.1223" lon="7.16533">
        <ele>476.20001220703</ele>
        <time>2017-07-20T15:19:11Z</time>
      </trkpt>
      <trkpt lat="48.12239" lon="7.16529">
        <ele>476</ele>
        <time>2017-07-20T15:19:12Z</time>
      </trkpt>
      <trkpt lat="48.12274" lon="7.16512">
        <ele>474.79998779297</ele>
        <time>2017-07-20T15:19:16Z</time>
      </trkpt>
      <trkpt lat="48.12282" lon="7.16507">
        <ele>474.60000610352</ele>
        <time>2017-07-20T15:19:17Z</time>
      </trkpt>
      <trkpt lat="48.12306" lon="7.16494">
        <ele>473.79998779297</ele>
        <time>2017-07-20T15:19:20Z</time>
      </trkpt>
      <trkpt lat="48.12322" lon="7.16488">
        <ele>473.20001220703</ele>
        <time>2017-07-20T15:19:22Z</time>
      </trkpt>
      <trkpt lat="48.12329" lon="7.16486">
        <ele>472.79998779297</ele>
        <time>2017-07-20T15:19:23Z</time>
      </trkpt>
      <trkpt lat="48.12353" lon="7.16486">
        <ele>471.39999389648</ele>
        <time>2017-07-20T15:19:26Z</time>
      </trkpt>
      <trkpt lat="48.12362" lon="7.16488">
        <ele>471</ele>
        <time>2017-07-20T15:19:27Z</time>
      </trkpt>
      <trkpt lat="48.12371" lon="7.16491">
        <ele>469.79998779297</ele>
        <time>2017-07-20T15:19:28Z</time>
      </trkpt>
      <trkpt lat="48.12388" lon="7.16498">
        <ele>468.79998779297</ele>
        <time>2017-07-20T15:19:30Z</time>
      </trkpt>
      <trkpt lat="48.12396" lon="7.16504">
        <ele>468.20001220703</ele>
        <time>2017-07-20T15:19:31Z</time>
      </trkpt>
      <trkpt lat="48.12404" lon="7.1651">
        <ele>467.39999389648</ele>
        <time>2017-07-20T15:19:32Z</time>
      </trkpt>
      <trkpt lat="48.12413" lon="7.16515">
        <ele>466.79998779297</ele>
        <time>2017-07-20T15:19:33Z</time>
      </trkpt>
      <trkpt lat="48.12422" lon="7.16517">
        <ele>466.20001220703</ele>
        <time>2017-07-20T15:19:34Z</time>
      </trkpt>
      <trkpt lat="48.12435" lon="7.1652">
        <ele>465.39999389648</ele>
        <time>2017-07-20T15:19:35Z</time>
      </trkpt>
      <trkpt lat="48.12446" lon="7.16518">
        <ele>464.79998779297</ele>
        <time>2017-07-20T15:19:36Z</time>
      </trkpt>
      <trkpt lat="48.12465" lon="7.1651">
        <ele>463.39999389648</ele>
        <time>2017-07-20T15:19:38Z</time>
      </trkpt>
      <trkpt lat="48.12484" lon="7.16503">
        <ele>462.20001220703</ele>
        <time>2017-07-20T15:19:40Z</time>
      </trkpt>
      <trkpt lat="48.12503" lon="7.16498">
        <ele>460.79998779297</ele>
        <time>2017-07-20T15:19:42Z</time>
      </trkpt>
      <trkpt lat="48.12511" lon="7.16497">
        <ele>460.20001220703</ele>
        <time>2017-07-20T15:19:43Z</time>
      </trkpt>
      <trkpt lat="48.1252" lon="7.16496">
        <ele>459.79998779297</ele>
        <time>2017-07-20T15:19:44Z</time>
      </trkpt>
      <trkpt lat="48.12537" lon="7.16495">
        <ele>458.60000610352</ele>
        <time>2017-07-20T15:19:46Z</time>
      </trkpt>
      <trkpt lat="48.12563" lon="7.16494">
        <ele>457.60000610352</ele>
        <time>2017-07-20T15:19:49Z</time>
      </trkpt>
      <trkpt lat="48.12601" lon="7.16498">
        <ele>456.39999389648</ele>
        <time>2017-07-20T15:19:54Z</time>
      </trkpt>
      <trkpt lat="48.12618" lon="7.16505">
        <ele>455.60000610352</ele>
        <time>2017-07-20T15:19:58Z</time>
      </trkpt>
      <trkpt lat="48.12621" lon="7.16506">
        <ele>455.39999389648</ele>
        <time>2017-07-20T15:19:59Z</time>
      </trkpt>
      <trkpt lat="48.12629" lon="7.16512">
        <ele>454.79998779297</ele>
        <time>2017-07-20T15:20:02Z</time>
      </trkpt>
      <trkpt lat="48.12642" lon="7.16524">
        <ele>454.20001220703</ele>
        <time>2017-07-20T15:20:07Z</time>
      </trkpt>
      <trkpt lat="48.12644" lon="7.16527">
        <ele>454</ele>
        <time>2017-07-20T15:20:08Z</time>
      </trkpt>
      <trkpt lat="48.12647" lon="7.16532">
        <ele>453.20001220703</ele>
        <time>2017-07-20T15:20:12Z</time>
      </trkpt>
      <trkpt lat="48.12648" lon="7.16528">
        <ele>452.20001220703</ele>
        <time>2017-07-20T15:20:18Z</time>
      </trkpt>
      <trkpt lat="48.12648" lon="7.16522">
        <ele>452</ele>
        <time>2017-07-20T15:20:28Z</time>
      </trkpt>
      <trkpt lat="48.12646" lon="7.16525">
        <ele>452.20001220703</ele>
        <time>2017-07-20T15:20:30Z</time>
      </trkpt>
      <trkpt lat="48.12645" lon="7.16526">
        <ele>452.20001220703</ele>
        <time>2017-07-20T15:20:31Z</time>
      </trkpt>
      <trkpt lat="48.12641" lon="7.16521">
        <ele>452.39999389648</ele>
        <time>2017-07-20T15:20:34Z</time>
      </trkpt>
      <trkpt lat="48.1264" lon="7.16519">
        <ele>452.39999389648</ele>
        <time>2017-07-20T15:20:35Z</time>
      </trkpt>
      <trkpt lat="48.12633" lon="7.16507">
        <ele>453.20001220703</ele>
        <time>2017-07-20T15:20:40Z</time>
      </trkpt>
      <trkpt lat="48.12631" lon="7.16504">
        <ele>453.39999389648</ele>
        <time>2017-07-20T15:20:41Z</time>
      </trkpt>
      <trkpt lat="48.12625" lon="7.16484">
        <ele>454</ele>
        <time>2017-07-20T15:20:47Z</time>
      </trkpt>
      <trkpt lat="48.12625" lon="7.16475">
        <ele>454.39999389648</ele>
        <time>2017-07-20T15:20:49Z</time>
      </trkpt>
      <trkpt lat="48.12626" lon="7.16459">
        <ele>454.79998779297</ele>
        <time>2017-07-20T15:20:53Z</time>
      </trkpt>
      <trkpt lat="48.12628" lon="7.16437">
        <ele>455.39999389648</ele>
        <time>2017-07-20T15:20:58Z</time>
      </trkpt>
      <trkpt lat="48.12629" lon="7.16419">
        <ele>455.79998779297</ele>
        <time>2017-07-20T15:21:02Z</time>
      </trkpt>
      <trkpt lat="48.12631" lon="7.16394">
        <ele>456.39999389648</ele>
        <time>2017-07-20T15:21:08Z</time>
      </trkpt>
      <trkpt lat="48.12632" lon="7.16386">
        <ele>456.60000610352</ele>
        <time>2017-07-20T15:21:10Z</time>
      </trkpt>
      <trkpt lat="48.12633" lon="7.16355">
        <ele>457.60000610352</ele>
        <time>2017-07-20T15:21:18Z</time>
      </trkpt>
      <trkpt lat="48.12635" lon="7.16328">
        <ele>458.60000610352</ele>
        <time>2017-07-20T15:21:25Z</time>
      </trkpt>
      <trkpt lat="48.12636" lon="7.16324">
        <ele>458.60000610352</ele>
        <time>2017-07-20T15:21:26Z</time>
      </trkpt>
      <trkpt lat="48.12636" lon="7.16301">
        <ele>459.60000610352</ele>
        <time>2017-07-20T15:21:32Z</time>
      </trkpt>
      <trkpt lat="48.12638" lon="7.16289">
        <ele>460</ele>
        <time>2017-07-20T15:21:35Z</time>
      </trkpt>
      <trkpt lat="48.1264" lon="7.16274">
        <ele>460.60000610352</ele>
        <time>2017-07-20T15:21:39Z</time>
      </trkpt>
      <trkpt lat="48.12642" lon="7.16258">
        <ele>461.20001220703</ele>
        <time>2017-07-20T15:21:43Z</time>
      </trkpt>
      <trkpt lat="48.12642" lon="7.16243">
        <ele>461.79998779297</ele>
        <time>2017-07-20T15:21:47Z</time>
      </trkpt>
      <trkpt lat="48.12643" lon="7.16231">
        <ele>462.20001220703</ele>
        <time>2017-07-20T15:21:50Z</time>
      </trkpt>
      <trkpt lat="48.12643" lon="7.16215">
        <ele>462.79998779297</ele>
        <time>2017-07-20T15:21:54Z</time>
      </trkpt>
      <trkpt lat="48.12644" lon="7.16199">
        <ele>463.39999389648</ele>
        <time>2017-07-20T15:21:58Z</time>
      </trkpt>
      <trkpt lat="48.12645" lon="7.16187">
        <ele>464</ele>
        <time>2017-07-20T15:22:01Z</time>
      </trkpt>
      <trkpt lat="48.12647" lon="7.16168">
        <ele>464.39999389648</ele>
        <time>2017-07-20T15:22:06Z</time>
      </trkpt>
      <trkpt lat="48.12645" lon="7.16155">
        <ele>465</ele>
        <time>2017-07-20T15:22:09Z</time>
      </trkpt>
      <trkpt lat="48.12643" lon="7.16133">
        <ele>465.60000610352</ele>
        <time>2017-07-20T15:22:14Z</time>
      </trkpt>
      <trkpt lat="48.12642" lon="7.16125">
        <ele>466</ele>
        <time>2017-07-20T15:22:16Z</time>
      </trkpt>
      <trkpt lat="48.1264" lon="7.16102">
        <ele>466.60000610352</ele>
        <time>2017-07-20T15:22:22Z</time>
      </trkpt>
      <trkpt lat="48.12638" lon="7.16086">
        <ele>467.20001220703</ele>
        <time>2017-07-20T15:22:26Z</time>
      </trkpt>
      <trkpt lat="48.12637" lon="7.16074">
        <ele>467.60000610352</ele>
        <time>2017-07-20T15:22:29Z</time>
      </trkpt>
      <trkpt lat="48.12634" lon="7.16059">
        <ele>468.20001220703</ele>
        <time>2017-07-20T15:22:33Z</time>
      </trkpt>
      <trkpt lat="48.12633" lon="7.16052">
        <ele>468.39999389648</ele>
        <time>2017-07-20T15:22:35Z</time>
      </trkpt>
      <trkpt lat="48.12632" lon="7.16035">
        <ele>469.39999389648</ele>
        <time>2017-07-20T15:22:40Z</time>
      </trkpt>
      <trkpt lat="48.12631" lon="7.16028">
        <ele>469.60000610352</ele>
        <time>2017-07-20T15:22:42Z</time>
      </trkpt>
      <trkpt lat="48.1263" lon="7.16007">
        <ele>470.39999389648</ele>
        <time>2017-07-20T15:22:48Z</time>
      </trkpt>
      <trkpt lat="48.1263" lon="7.16003">
        <ele>470.60000610352</ele>
        <time>2017-07-20T15:22:49Z</time>
      </trkpt>
      <trkpt lat="48.12626" lon="7.15989">
        <ele>471.39999389648</ele>
        <time>2017-07-20T15:22:55Z</time>
      </trkpt>
      <trkpt lat="48.12625" lon="7.15986">
        <ele>471.39999389648</ele>
        <time>2017-07-20T15:22:57Z</time>
      </trkpt>
      <trkpt lat="48.12625" lon="7.15984">
        <ele>471.60000610352</ele>
        <time>2017-07-20T15:22:58Z</time>
      </trkpt>
      <trkpt lat="48.12626" lon="7.15978">
        <ele>471.79998779297</ele>
        <time>2017-07-20T15:23:00Z</time>
      </trkpt>
      <trkpt lat="48.12626" lon="7.15975">
        <ele>471.79998779297</ele>
        <time>2017-07-20T15:23:01Z</time>
      </trkpt>
      <trkpt lat="48.12629" lon="7.1596">
        <ele>472.20001220703</ele>
        <time>2017-07-20T15:23:07Z</time>
      </trkpt>
      <trkpt lat="48.12629" lon="7.15956">
        <ele>473.20001220703</ele>
        <time>2017-07-20T15:28:51Z</time>
      </trkpt>
      <trkpt lat="48.1263" lon="7.15951">
        <ele>473.20001220703</ele>
        <time>2017-07-20T15:28:52Z</time>
      </trkpt>
      <trkpt lat="48.1263" lon="7.15922">
        <ele>473.39999389648</ele>
        <time>2017-07-20T15:28:58Z</time>
      </trkpt>
      <trkpt lat="48.12627" lon="7.15897">
        <ele>473.60000610352</ele>
        <time>2017-07-20T15:29:04Z</time>
      </trkpt>
      <trkpt lat="48.12627" lon="7.15885">
        <ele>474.20001220703</ele>
        <time>2017-07-20T15:29:08Z</time>
      </trkpt>
      <trkpt lat="48.12627" lon="7.15881">
        <ele>474.39999389648</ele>
        <time>2017-07-20T15:29:10Z</time>
      </trkpt>
      <trkpt lat="48.12635" lon="7.15877">
        <ele>474.60000610352</ele>
        <time>2017-07-20T15:29:14Z</time>
      </trkpt>
      <trkpt lat="48.12657" lon="7.1587">
        <ele>474.20001220703</ele>
        <time>2017-07-20T15:29:19Z</time>
      </trkpt>
      <trkpt lat="48.12667" lon="7.15862">
        <ele>473.39999389648</ele>
        <time>2017-07-20T15:29:23Z</time>
      </trkpt>
      <trkpt lat="48.12671" lon="7.15851">
        <ele>473.39999389648</ele>
        <time>2017-07-20T15:29:27Z</time>
      </trkpt>
      <trkpt lat="48.12666" lon="7.15827">
        <ele>473.39999389648</ele>
        <time>2017-07-20T15:29:32Z</time>
      </trkpt>
      <trkpt lat="48.12656" lon="7.15793">
        <ele>474.39999389648</ele>
        <time>2017-07-20T15:29:39Z</time>
      </trkpt>
      <trkpt lat="48.1265" lon="7.15768">
        <ele>475</ele>
        <time>2017-07-20T15:29:44Z</time>
      </trkpt>
      <trkpt lat="48.12649" lon="7.15763">
        <ele>475.20001220703</ele>
        <time>2017-07-20T15:29:45Z</time>
      </trkpt>
      <trkpt lat="48.12645" lon="7.15728">
        <ele>476</ele>
        <time>2017-07-20T15:29:52Z</time>
      </trkpt>
      <trkpt lat="48.12643" lon="7.15719">
        <ele>476.20001220703</ele>
        <time>2017-07-20T15:29:54Z</time>
      </trkpt>
      <trkpt lat="48.1264" lon="7.15689">
        <ele>476.79998779297</ele>
        <time>2017-07-20T15:30:00Z</time>
      </trkpt>
      <trkpt lat="48.12639" lon="7.1567">
        <ele>477.39999389648</ele>
        <time>2017-07-20T15:30:04Z</time>
      </trkpt>
      <trkpt lat="48.12635" lon="7.15653">
        <ele>477.79998779297</ele>
        <time>2017-07-20T15:30:08Z</time>
      </trkpt>
      <trkpt lat="48.12629" lon="7.15636">
        <ele>478.39999389648</ele>
        <time>2017-07-20T15:30:13Z</time>
      </trkpt>
      <trkpt lat="48.12618" lon="7.15623">
        <ele>479.39999389648</ele>
        <time>2017-07-20T15:30:19Z</time>
      </trkpt>
      <trkpt lat="48.12616" lon="7.15621">
        <ele>479.60000610352</ele>
        <time>2017-07-20T15:30:20Z</time>
      </trkpt>
      <trkpt lat="48.12613" lon="7.15619">
        <ele>479.79998779297</ele>
        <time>2017-07-20T15:30:22Z</time>
      </trkpt>
      <trkpt lat="48.1261" lon="7.15615">
        <ele>480</ele>
        <time>2017-07-20T15:30:25Z</time>
      </trkpt>
      <trkpt lat="48.12608" lon="7.15609">
        <ele>480.20001220703</ele>
        <time>2017-07-20T15:30:28Z</time>
      </trkpt>
      <trkpt lat="48.12607" lon="7.15603">
        <ele>480.39999389648</ele>
        <time>2017-07-20T15:30:31Z</time>
      </trkpt>
      <trkpt lat="48.12601" lon="7.15601">
        <ele>480.60000610352</ele>
        <time>2017-07-20T15:30:36Z</time>
      </trkpt>
      <trkpt lat="48.12599" lon="7.15601">
        <ele>480.60000610352</ele>
        <time>2017-07-20T15:30:37Z</time>
      </trkpt>
      <trkpt lat="48.12584" lon="7.15588">
        <ele>481.20001220703</ele>
        <time>2017-07-20T15:30:44Z</time>
      </trkpt>
      <trkpt lat="48.12578" lon="7.15582">
        <ele>481.79998779297</ele>
        <time>2017-07-20T15:30:47Z</time>
      </trkpt>
      <trkpt lat="48.12569" lon="7.15574">
        <ele>482.39999389648</ele>
        <time>2017-07-20T15:30:51Z</time>
      </trkpt>
      <trkpt lat="48.12567" lon="7.15569">
        <ele>482.79998779297</ele>
        <time>2017-07-20T15:30:53Z</time>
      </trkpt>
      <trkpt lat="48.12561" lon="7.15561">
        <ele>483.20001220703</ele>
        <time>2017-07-20T15:30:56Z</time>
      </trkpt>
      <trkpt lat="48.12554" lon="7.15546">
        <ele>483.79998779297</ele>
        <time>2017-07-20T15:31:01Z</time>
      </trkpt>
      <trkpt lat="48.12553" lon="7.15543">
        <ele>484</ele>
        <time>2017-07-20T15:31:02Z</time>
      </trkpt>
      <trkpt lat="48.12548" lon="7.1552">
        <ele>484.79998779297</ele>
        <time>2017-07-20T15:31:08Z</time>
      </trkpt>
      <trkpt lat="48.12548" lon="7.1551">
        <ele>485.39999389648</ele>
        <time>2017-07-20T15:31:11Z</time>
      </trkpt>
      <trkpt lat="48.12548" lon="7.15503">
        <ele>485.79998779297</ele>
        <time>2017-07-20T15:31:13Z</time>
      </trkpt>
      <trkpt lat="48.1255" lon="7.15482">
        <ele>486.60000610352</ele>
        <time>2017-07-20T15:31:19Z</time>
      </trkpt>
      <trkpt lat="48.12549" lon="7.15475">
        <ele>487</ele>
        <time>2017-07-20T15:31:21Z</time>
      </trkpt>
      <trkpt lat="48.12547" lon="7.15449">
        <ele>488.20001220703</ele>
        <time>2017-07-20T15:31:29Z</time>
      </trkpt>
      <trkpt lat="48.12547" lon="7.15445">
        <ele>488.39999389648</ele>
        <time>2017-07-20T15:31:30Z</time>
      </trkpt>
      <trkpt lat="48.12543" lon="7.15422">
        <ele>489.39999389648</ele>
        <time>2017-07-20T15:31:38Z</time>
      </trkpt>
      <trkpt lat="48.12538" lon="7.15409">
        <ele>490.20001220703</ele>
        <time>2017-07-20T15:31:43Z</time>
      </trkpt>
      <trkpt lat="48.12536" lon="7.15404">
        <ele>490.39999389648</ele>
        <time>2017-07-20T15:31:45Z</time>
      </trkpt>
      <trkpt lat="48.12532" lon="7.15388">
        <ele>491.20001220703</ele>
        <time>2017-07-20T15:31:50Z</time>
      </trkpt>
      <trkpt lat="48.12528" lon="7.15378">
        <ele>491.79998779297</ele>
        <time>2017-07-20T15:31:53Z</time>
      </trkpt>
      <trkpt lat="48.12526" lon="7.15372">
        <ele>492</ele>
        <time>2017-07-20T15:31:55Z</time>
      </trkpt>
      <trkpt lat="48.12519" lon="7.15358">
        <ele>492.79998779297</ele>
        <time>2017-07-20T15:32:00Z</time>
      </trkpt>
      <trkpt lat="48.12518" lon="7.15356">
        <ele>493</ele>
        <time>2017-07-20T15:32:01Z</time>
      </trkpt>
      <trkpt lat="48.12504" lon="7.15337">
        <ele>493.79998779297</ele>
        <time>2017-07-20T15:32:09Z</time>
      </trkpt>
      <trkpt lat="48.12487" lon="7.15316">
        <ele>495</ele>
        <time>2017-07-20T15:32:18Z</time>
      </trkpt>
      <trkpt lat="48.12469" lon="7.153">
        <ele>495.60000610352</ele>
        <time>2017-07-20T15:32:26Z</time>
      </trkpt>
      <trkpt lat="48.12458" lon="7.15292">
        <ele>496</ele>
        <time>2017-07-20T15:32:31Z</time>
      </trkpt>
      <trkpt lat="48.12451" lon="7.15289">
        <ele>496.20001220703</ele>
        <time>2017-07-20T15:32:34Z</time>
      </trkpt>
      <trkpt lat="48.12442" lon="7.15285">
        <ele>496.60000610352</ele>
        <time>2017-07-20T15:32:40Z</time>
      </trkpt>
      <trkpt lat="48.1245" lon="7.15279">
        <ele>496.39999389648</ele>
        <time>2017-07-20T15:34:00Z</time>
      </trkpt>
      <trkpt lat="48.1245" lon="7.15276">
        <ele>496.39999389648</ele>
        <time>2017-07-20T15:34:02Z</time>
      </trkpt>
      <trkpt lat="48.1245" lon="7.15278">
        <ele>497.60000610352</ele>
        <time>2017-07-20T15:37:47Z</time>
      </trkpt>
      <trkpt lat="48.12445" lon="7.15287">
        <ele>497.60000610352</ele>
        <time>2017-07-20T15:37:51Z</time>
      </trkpt>
      <trkpt lat="48.12439" lon="7.15287">
        <ele>497.60000610352</ele>
        <time>2017-07-20T15:37:54Z</time>
      </trkpt>
      <trkpt lat="48.12431" lon="7.15283">
        <ele>497.60000610352</ele>
        <time>2017-07-20T15:37:57Z</time>
      </trkpt>
      <trkpt lat="48.12406" lon="7.15278">
        <ele>498.39999389648</ele>
        <time>2017-07-20T15:38:05Z</time>
      </trkpt>
      <trkpt lat="48.12391" lon="7.15276">
        <ele>498.60000610352</ele>
        <time>2017-07-20T15:38:10Z</time>
      </trkpt>
      <trkpt lat="48.12381" lon="7.15275">
        <ele>498.79998779297</ele>
        <time>2017-07-20T15:38:13Z</time>
      </trkpt>
      <trkpt lat="48.12357" lon="7.15271">
        <ele>499.20001220703</ele>
        <time>2017-07-20T15:38:21Z</time>
      </trkpt>
      <trkpt lat="48.12336" lon="7.15256">
        <ele>499.79998779297</ele>
        <time>2017-07-20T15:38:28Z</time>
      </trkpt>
      <trkpt lat="48.12321" lon="7.15234">
        <ele>500.79998779297</ele>
        <time>2017-07-20T15:38:35Z</time>
      </trkpt>
      <trkpt lat="48.12304" lon="7.15207">
        <ele>501.79998779297</ele>
        <time>2017-07-20T15:38:44Z</time>
      </trkpt>
      <trkpt lat="48.12289" lon="7.15181">
        <ele>503</ele>
        <time>2017-07-20T15:38:52Z</time>
      </trkpt>
      <trkpt lat="48.12288" lon="7.15178">
        <ele>503.20001220703</ele>
        <time>2017-07-20T15:38:53Z</time>
      </trkpt>
      <trkpt lat="48.12271" lon="7.15152">
        <ele>504</ele>
        <time>2017-07-20T15:39:01Z</time>
      </trkpt>
      <trkpt lat="48.12269" lon="7.15149">
        <ele>504</ele>
        <time>2017-07-20T15:39:02Z</time>
      </trkpt>
      <trkpt lat="48.12248" lon="7.15116">
        <ele>505.20001220703</ele>
        <time>2017-07-20T15:39:13Z</time>
      </trkpt>
      <trkpt lat="48.12236" lon="7.15092">
        <ele>506.20001220703</ele>
        <time>2017-07-20T15:39:21Z</time>
      </trkpt>
      <trkpt lat="48.12235" lon="7.15089">
        <ele>506.39999389648</ele>
        <time>2017-07-20T15:39:22Z</time>
      </trkpt>
      <trkpt lat="48.12227" lon="7.15071">
        <ele>507.20001220703</ele>
        <time>2017-07-20T15:39:28Z</time>
      </trkpt>
      <trkpt lat="48.12224" lon="7.15067">
        <ele>507.79998779297</ele>
        <time>2017-07-20T15:39:30Z</time>
      </trkpt>
      <trkpt lat="48.12218" lon="7.15056">
        <ele>508.39999389648</ele>
        <time>2017-07-20T15:39:34Z</time>
      </trkpt>
      <trkpt lat="48.12215" lon="7.1505">
        <ele>508.60000610352</ele>
        <time>2017-07-20T15:39:36Z</time>
      </trkpt>
      <trkpt lat="48.12206" lon="7.15034">
        <ele>509.39999389648</ele>
        <time>2017-07-20T15:39:42Z</time>
      </trkpt>
      <trkpt lat="48.12202" lon="7.15026">
        <ele>510</ele>
        <time>2017-07-20T15:39:45Z</time>
      </trkpt>
      <trkpt lat="48.12196" lon="7.15015">
        <ele>510.60000610352</ele>
        <time>2017-07-20T15:39:49Z</time>
      </trkpt>
      <trkpt lat="48.12189" lon="7.15007">
        <ele>511.20001220703</ele>
        <time>2017-07-20T15:39:53Z</time>
      </trkpt>
      <trkpt lat="48.12186" lon="7.15">
        <ele>511.60000610352</ele>
        <time>2017-07-20T15:39:55Z</time>
      </trkpt>
      <trkpt lat="48.12179" lon="7.14987">
        <ele>512</ele>
        <time>2017-07-20T15:39:59Z</time>
      </trkpt>
      <trkpt lat="48.12165" lon="7.14963">
        <ele>512.59997558594</ele>
        <time>2017-07-20T15:40:07Z</time>
      </trkpt>
      <trkpt lat="48.12163" lon="7.14961">
        <ele>512.59997558594</ele>
        <time>2017-07-20T15:40:08Z</time>
      </trkpt>
      <trkpt lat="48.12151" lon="7.14944">
        <ele>513.59997558594</ele>
        <time>2017-07-20T15:40:15Z</time>
      </trkpt>
      <trkpt lat="48.1215" lon="7.14941">
        <ele>513.59997558594</ele>
        <time>2017-07-20T15:40:16Z</time>
      </trkpt>
      <trkpt lat="48.12139" lon="7.14921">
        <ele>514.40002441406</ele>
        <time>2017-07-20T15:40:23Z</time>
      </trkpt>
      <trkpt lat="48.12136" lon="7.14912">
        <ele>514.79998779297</ele>
        <time>2017-07-20T15:40:26Z</time>
      </trkpt>
      <trkpt lat="48.1213" lon="7.14902">
        <ele>515.40002441406</ele>
        <time>2017-07-20T15:40:30Z</time>
      </trkpt>
      <trkpt lat="48.12126" lon="7.14894">
        <ele>515.79998779297</ele>
        <time>2017-07-20T15:40:33Z</time>
      </trkpt>
      <trkpt lat="48.12117" lon="7.14873">
        <ele>516.79998779297</ele>
        <time>2017-07-20T15:40:40Z</time>
      </trkpt>
      <trkpt lat="48.12116" lon="7.1487">
        <ele>516.79998779297</ele>
        <time>2017-07-20T15:40:41Z</time>
      </trkpt>
      <trkpt lat="48.12107" lon="7.14854">
        <ele>518</ele>
        <time>2017-07-20T15:40:47Z</time>
      </trkpt>
      <trkpt lat="48.12106" lon="7.1485">
        <ele>518</ele>
        <time>2017-07-20T15:40:48Z</time>
      </trkpt>
      <trkpt lat="48.12095" lon="7.14832">
        <ele>519</ele>
        <time>2017-07-20T15:40:55Z</time>
      </trkpt>
      <trkpt lat="48.12094" lon="7.14829">
        <ele>519.20001220703</ele>
        <time>2017-07-20T15:40:56Z</time>
      </trkpt>
      <trkpt lat="48.12084" lon="7.14812">
        <ele>519.79998779297</ele>
        <time>2017-07-20T15:41:03Z</time>
      </trkpt>
      <trkpt lat="48.12081" lon="7.14807">
        <ele>520.20001220703</ele>
        <time>2017-07-20T15:41:05Z</time>
      </trkpt>
      <trkpt lat="48.12074" lon="7.14794">
        <ele>521.40002441406</ele>
        <time>2017-07-20T15:41:10Z</time>
      </trkpt>
      <trkpt lat="48.12074" lon="7.14791">
        <ele>521.59997558594</ele>
        <time>2017-07-20T15:41:11Z</time>
      </trkpt>
      <trkpt lat="48.12071" lon="7.14783">
        <ele>522</ele>
        <time>2017-07-20T15:41:14Z</time>
      </trkpt>
      <trkpt lat="48.12069" lon="7.1478">
        <ele>522.20001220703</ele>
        <time>2017-07-20T15:41:15Z</time>
      </trkpt>
      <trkpt lat="48.12068" lon="7.14777">
        <ele>522.40002441406</ele>
        <time>2017-07-20T15:41:16Z</time>
      </trkpt>
      <trkpt lat="48.12063" lon="7.14762">
        <ele>523.20001220703</ele>
        <time>2017-07-20T15:41:21Z</time>
      </trkpt>
      <trkpt lat="48.12062" lon="7.14759">
        <ele>523.40002441406</ele>
        <time>2017-07-20T15:41:22Z</time>
      </trkpt>
      <trkpt lat="48.12053" lon="7.14734">
        <ele>524.20001220703</ele>
        <time>2017-07-20T15:41:29Z</time>
      </trkpt>
      <trkpt lat="48.12052" lon="7.14731">
        <ele>524.40002441406</ele>
        <time>2017-07-20T15:41:30Z</time>
      </trkpt>
      <trkpt lat="48.12045" lon="7.14715">
        <ele>525</ele>
        <time>2017-07-20T15:41:35Z</time>
      </trkpt>
      <trkpt lat="48.1204" lon="7.14707">
        <ele>525.40002441406</ele>
        <time>2017-07-20T15:41:38Z</time>
      </trkpt>
      <trkpt lat="48.1203" lon="7.14691">
        <ele>526</ele>
        <time>2017-07-20T15:41:44Z</time>
      </trkpt>
      <trkpt lat="48.12024" lon="7.1468">
        <ele>526.59997558594</ele>
        <time>2017-07-20T15:41:48Z</time>
      </trkpt>
      <trkpt lat="48.12016" lon="7.14668">
        <ele>527.20001220703</ele>
        <time>2017-07-20T15:41:53Z</time>
      </trkpt>
      <trkpt lat="48.12007" lon="7.14654">
        <ele>527.59997558594</ele>
        <time>2017-07-20T15:41:58Z</time>
      </trkpt>
      <trkpt lat="48.12001" lon="7.14642">
        <ele>528</ele>
        <time>2017-07-20T15:42:02Z</time>
      </trkpt>
      <trkpt lat="48.11991" lon="7.14625">
        <ele>528.59997558594</ele>
        <time>2017-07-20T15:42:08Z</time>
      </trkpt>
      <trkpt lat="48.1199" lon="7.14622">
        <ele>528.79998779297</ele>
        <time>2017-07-20T15:42:09Z</time>
      </trkpt>
      <trkpt lat="48.11979" lon="7.146">
        <ele>529.59997558594</ele>
        <time>2017-07-20T15:42:16Z</time>
      </trkpt>
      <trkpt lat="48.11978" lon="7.14597">
        <ele>529.79998779297</ele>
        <time>2017-07-20T15:42:17Z</time>
      </trkpt>
      <trkpt lat="48.11969" lon="7.1458">
        <ele>530.59997558594</ele>
        <time>2017-07-20T15:42:23Z</time>
      </trkpt>
      <trkpt lat="48.11967" lon="7.14574">
        <ele>530.79998779297</ele>
        <time>2017-07-20T15:42:25Z</time>
      </trkpt>
      <trkpt lat="48.1196" lon="7.14563">
        <ele>531.40002441406</ele>
        <time>2017-07-20T15:42:29Z</time>
      </trkpt>
      <trkpt lat="48.11952" lon="7.14554">
        <ele>532</ele>
        <time>2017-07-20T15:42:33Z</time>
      </trkpt>
      <trkpt lat="48.11948" lon="7.1455">
        <ele>532.40002441406</ele>
        <time>2017-07-20T15:42:35Z</time>
      </trkpt>
      <trkpt lat="48.11933" lon="7.14539">
        <ele>533</ele>
        <time>2017-07-20T15:42:42Z</time>
      </trkpt>
      <trkpt lat="48.11911" lon="7.14521">
        <ele>534.20001220703</ele>
        <time>2017-07-20T15:42:52Z</time>
      </trkpt>
      <trkpt lat="48.11893" lon="7.14507">
        <ele>535.20001220703</ele>
        <time>2017-07-20T15:43:01Z</time>
      </trkpt>
      <trkpt lat="48.11891" lon="7.14506">
        <ele>535.20001220703</ele>
        <time>2017-07-20T15:43:02Z</time>
      </trkpt>
      <trkpt lat="48.11879" lon="7.14497">
        <ele>536</ele>
        <time>2017-07-20T15:43:08Z</time>
      </trkpt>
      <trkpt lat="48.11876" lon="7.14493">
        <ele>536.40002441406</ele>
        <time>2017-07-20T15:43:10Z</time>
      </trkpt>
      <trkpt lat="48.11865" lon="7.14482">
        <ele>537</ele>
        <time>2017-07-20T15:43:16Z</time>
      </trkpt>
      <trkpt lat="48.11861" lon="7.14478">
        <ele>537.40002441406</ele>
        <time>2017-07-20T15:43:18Z</time>
      </trkpt>
      <trkpt lat="48.11855" lon="7.14472">
        <ele>537.79998779297</ele>
        <time>2017-07-20T15:43:21Z</time>
      </trkpt>
      <trkpt lat="48.11853" lon="7.14469">
        <ele>537.79998779297</ele>
        <time>2017-07-20T15:43:22Z</time>
      </trkpt>
      <trkpt lat="48.11847" lon="7.1446">
        <ele>538.59997558594</ele>
        <time>2017-07-20T15:43:26Z</time>
      </trkpt>
      <trkpt lat="48.11841" lon="7.14454">
        <ele>539</ele>
        <time>2017-07-20T15:43:29Z</time>
      </trkpt>
      <trkpt lat="48.11835" lon="7.14443">
        <ele>539.59997558594</ele>
        <time>2017-07-20T15:43:33Z</time>
      </trkpt>
      <trkpt lat="48.11829" lon="7.14432">
        <ele>540.20001220703</ele>
        <time>2017-07-20T15:43:37Z</time>
      </trkpt>
      <trkpt lat="48.11824" lon="7.14421">
        <ele>540.59997558594</ele>
        <time>2017-07-20T15:43:41Z</time>
      </trkpt>
      <trkpt lat="48.11817" lon="7.14403">
        <ele>541.59997558594</ele>
        <time>2017-07-20T15:43:47Z</time>
      </trkpt>
      <trkpt lat="48.11816" lon="7.14399">
        <ele>541.79998779297</ele>
        <time>2017-07-20T15:43:48Z</time>
      </trkpt>
      <trkpt lat="48.11812" lon="7.14383">
        <ele>542.59997558594</ele>
        <time>2017-07-20T15:43:53Z</time>
      </trkpt>
      <trkpt lat="48.11811" lon="7.1438">
        <ele>542.79998779297</ele>
        <time>2017-07-20T15:43:54Z</time>
      </trkpt>
      <trkpt lat="48.11807" lon="7.14357">
        <ele>543.79998779297</ele>
        <time>2017-07-20T15:44:01Z</time>
      </trkpt>
      <trkpt lat="48.11806" lon="7.14354">
        <ele>543.79998779297</ele>
        <time>2017-07-20T15:44:02Z</time>
      </trkpt>
      <trkpt lat="48.11804" lon="7.14331">
        <ele>544.79998779297</ele>
        <time>2017-07-20T15:44:09Z</time>
      </trkpt>
      <trkpt lat="48.11804" lon="7.14327">
        <ele>545</ele>
        <time>2017-07-20T15:44:10Z</time>
      </trkpt>
      <trkpt lat="48.11803" lon="7.14308">
        <ele>546</ele>
        <time>2017-07-20T15:44:16Z</time>
      </trkpt>
      <trkpt lat="48.11804" lon="7.14298">
        <ele>546.59997558594</ele>
        <time>2017-07-20T15:44:19Z</time>
      </trkpt>
      <trkpt lat="48.11803" lon="7.14284">
        <ele>547</ele>
        <time>2017-07-20T15:44:23Z</time>
      </trkpt>
      <trkpt lat="48.11804" lon="7.14277">
        <ele>547.40002441406</ele>
        <time>2017-07-20T15:44:25Z</time>
      </trkpt>
      <trkpt lat="48.11804" lon="7.1426">
        <ele>548.20001220703</ele>
        <time>2017-07-20T15:44:30Z</time>
      </trkpt>
      <trkpt lat="48.11803" lon="7.14246">
        <ele>548.59997558594</ele>
        <time>2017-07-20T15:44:34Z</time>
      </trkpt>
      <trkpt lat="48.11802" lon="7.14235">
        <ele>549.20001220703</ele>
        <time>2017-07-20T15:44:37Z</time>
      </trkpt>
      <trkpt lat="48.11802" lon="7.14215">
        <ele>550.20001220703</ele>
        <time>2017-07-20T15:44:43Z</time>
      </trkpt>
      <trkpt lat="48.11801" lon="7.14192">
        <ele>551.20001220703</ele>
        <time>2017-07-20T15:44:50Z</time>
      </trkpt>
      <trkpt lat="48.11801" lon="7.14188">
        <ele>551.20001220703</ele>
        <time>2017-07-20T15:44:51Z</time>
      </trkpt>
      <trkpt lat="48.11799" lon="7.14163">
        <ele>552.40002441406</ele>
        <time>2017-07-20T15:44:58Z</time>
      </trkpt>
      <trkpt lat="48.11798" lon="7.14134">
        <ele>553.40002441406</ele>
        <time>2017-07-20T15:45:06Z</time>
      </trkpt>
      <trkpt lat="48.11795" lon="7.14104">
        <ele>554.40002441406</ele>
        <time>2017-07-20T15:45:14Z</time>
      </trkpt>
      <trkpt lat="48.11796" lon="7.14076">
        <ele>555.59997558594</ele>
        <time>2017-07-20T15:45:22Z</time>
      </trkpt>
      <trkpt lat="48.11795" lon="7.14073">
        <ele>555.79998779297</ele>
        <time>2017-07-20T15:45:23Z</time>
      </trkpt>
      <trkpt lat="48.11797" lon="7.14049">
        <ele>556.59997558594</ele>
        <time>2017-07-20T15:45:30Z</time>
      </trkpt>
      <trkpt lat="48.11797" lon="7.14045">
        <ele>556.79998779297</ele>
        <time>2017-07-20T15:45:31Z</time>
      </trkpt>
      <trkpt lat="48.11801" lon="7.14022">
        <ele>557.59997558594</ele>
        <time>2017-07-20T15:45:38Z</time>
      </trkpt>
      <trkpt lat="48.11801" lon="7.14019">
        <ele>557.79998779297</ele>
        <time>2017-07-20T15:45:39Z</time>
      </trkpt>
      <trkpt lat="48.11804" lon="7.14001">
        <ele>558.40002441406</ele>
        <time>2017-07-20T15:45:44Z</time>
      </trkpt>
      <trkpt lat="48.11806" lon="7.13988">
        <ele>558.79998779297</ele>
        <time>2017-07-20T15:45:48Z</time>
      </trkpt>
      <trkpt lat="48.11808" lon="7.13975">
        <ele>559.40002441406</ele>
        <time>2017-07-20T15:45:52Z</time>
      </trkpt>
      <trkpt lat="48.1181" lon="7.13963">
        <ele>560</ele>
        <time>2017-07-20T15:45:56Z</time>
      </trkpt>
      <trkpt lat="48.11811" lon="7.13953">
        <ele>560.40002441406</ele>
        <time>2017-07-20T15:45:59Z</time>
      </trkpt>
      <trkpt lat="48.11812" lon="7.13939">
        <ele>561</ele>
        <time>2017-07-20T15:46:03Z</time>
      </trkpt>
      <trkpt lat="48.11814" lon="7.13925">
        <ele>561.59997558594</ele>
        <time>2017-07-20T15:46:07Z</time>
      </trkpt>
      <trkpt lat="48.11815" lon="7.13912">
        <ele>562</ele>
        <time>2017-07-20T15:46:11Z</time>
      </trkpt>
      <trkpt lat="48.11816" lon="7.13899">
        <ele>562.59997558594</ele>
        <time>2017-07-20T15:46:15Z</time>
      </trkpt>
      <trkpt lat="48.11817" lon="7.13889">
        <ele>563.20001220703</ele>
        <time>2017-07-20T15:46:18Z</time>
      </trkpt>
      <trkpt lat="48.11819" lon="7.13867">
        <ele>564.20001220703</ele>
        <time>2017-07-20T15:46:25Z</time>
      </trkpt>
      <trkpt lat="48.11819" lon="7.13864">
        <ele>564.40002441406</ele>
        <time>2017-07-20T15:46:26Z</time>
      </trkpt>
      <trkpt lat="48.1182" lon="7.13839">
        <ele>565.40002441406</ele>
        <time>2017-07-20T15:46:34Z</time>
      </trkpt>
      <trkpt lat="48.11821" lon="7.13836">
        <ele>565.59997558594</ele>
        <time>2017-07-20T15:46:35Z</time>
      </trkpt>
      <trkpt lat="48.11822" lon="7.13817">
        <ele>566.59997558594</ele>
        <time>2017-07-20T15:46:41Z</time>
      </trkpt>
      <trkpt lat="48.11822" lon="7.1381">
        <ele>567</ele>
        <time>2017-07-20T15:46:43Z</time>
      </trkpt>
      <trkpt lat="48.11823" lon="7.13799">
        <ele>567.59997558594</ele>
        <time>2017-07-20T15:46:47Z</time>
      </trkpt>
      <trkpt lat="48.11825" lon="7.13785">
        <ele>568.20001220703</ele>
        <time>2017-07-20T15:46:52Z</time>
      </trkpt>
      <trkpt lat="48.11825" lon="7.13773">
        <ele>568.59997558594</ele>
        <time>2017-07-20T15:46:56Z</time>
      </trkpt>
      <trkpt lat="48.11827" lon="7.13764">
        <ele>569.20001220703</ele>
        <time>2017-07-20T15:46:59Z</time>
      </trkpt>
      <trkpt lat="48.11828" lon="7.13752">
        <ele>569.79998779297</ele>
        <time>2017-07-20T15:47:03Z</time>
      </trkpt>
      <trkpt lat="48.11829" lon="7.13749">
        <ele>569.79998779297</ele>
        <time>2017-07-20T15:47:04Z</time>
      </trkpt>
      <trkpt lat="48.1183" lon="7.13727">
        <ele>570.79998779297</ele>
        <time>2017-07-20T15:47:11Z</time>
      </trkpt>
      <trkpt lat="48.11832" lon="7.13705">
        <ele>572</ele>
        <time>2017-07-20T15:47:18Z</time>
      </trkpt>
      <trkpt lat="48.11832" lon="7.13688">
        <ele>573</ele>
        <time>2017-07-20T15:47:24Z</time>
      </trkpt>
      <trkpt lat="48.11833" lon="7.13682">
        <ele>573.40002441406</ele>
        <time>2017-07-20T15:47:26Z</time>
      </trkpt>
      <trkpt lat="48.11834" lon="7.1367">
        <ele>574</ele>
        <time>2017-07-20T15:47:30Z</time>
      </trkpt>
      <trkpt lat="48.11835" lon="7.13659">
        <ele>574.59997558594</ele>
        <time>2017-07-20T15:47:34Z</time>
      </trkpt>
      <trkpt lat="48.11835" lon="7.13647">
        <ele>575.20001220703</ele>
        <time>2017-07-20T15:47:38Z</time>
      </trkpt>
      <trkpt lat="48.11836" lon="7.13633">
        <ele>575.79998779297</ele>
        <time>2017-07-20T15:47:43Z</time>
      </trkpt>
      <trkpt lat="48.11837" lon="7.13628">
        <ele>576.40002441406</ele>
        <time>2017-07-20T15:47:45Z</time>
      </trkpt>
      <trkpt lat="48.11837" lon="7.13614">
        <ele>577.20001220703</ele>
        <time>2017-07-20T15:47:50Z</time>
      </trkpt>
      <trkpt lat="48.11837" lon="7.13611">
        <ele>577.40002441406</ele>
        <time>2017-07-20T15:47:51Z</time>
      </trkpt>
      <trkpt lat="48.11836" lon="7.13595">
        <ele>578.20001220703</ele>
        <time>2017-07-20T15:47:56Z</time>
      </trkpt>
      <trkpt lat="48.11836" lon="7.13589">
        <ele>578.40002441406</ele>
        <time>2017-07-20T15:47:58Z</time>
      </trkpt>
      <trkpt lat="48.11835" lon="7.13571">
        <ele>579.59997558594</ele>
        <time>2017-07-20T15:48:04Z</time>
      </trkpt>
      <trkpt lat="48.11834" lon="7.13568">
        <ele>579.59997558594</ele>
        <time>2017-07-20T15:48:05Z</time>
      </trkpt>
      <trkpt lat="48.1183" lon="7.13549">
        <ele>580.59997558594</ele>
        <time>2017-07-20T15:48:12Z</time>
      </trkpt>
      <trkpt lat="48.11829" lon="7.13546">
        <ele>580.79998779297</ele>
        <time>2017-07-20T15:48:13Z</time>
      </trkpt>
      <trkpt lat="48.11825" lon="7.13529">
        <ele>581.79998779297</ele>
        <time>2017-07-20T15:48:19Z</time>
      </trkpt>
      <trkpt lat="48.11823" lon="7.1352">
        <ele>582.20001220703</ele>
        <time>2017-07-20T15:48:22Z</time>
      </trkpt>
      <trkpt lat="48.1182" lon="7.13505">
        <ele>583</ele>
        <time>2017-07-20T15:48:27Z</time>
      </trkpt>
      <trkpt lat="48.11819" lon="7.135">
        <ele>583.20001220703</ele>
        <time>2017-07-20T15:48:29Z</time>
      </trkpt>
      <trkpt lat="48.11815" lon="7.13486">
        <ele>584</ele>
        <time>2017-07-20T15:48:34Z</time>
      </trkpt>
      <trkpt lat="48.11813" lon="7.13478">
        <ele>584.40002441406</ele>
        <time>2017-07-20T15:48:37Z</time>
      </trkpt>
      <trkpt lat="48.11807" lon="7.13461">
        <ele>585.20001220703</ele>
        <time>2017-07-20T15:48:43Z</time>
      </trkpt>
      <trkpt lat="48.11806" lon="7.13458">
        <ele>585.40002441406</ele>
        <time>2017-07-20T15:48:44Z</time>
      </trkpt>
      <trkpt lat="48.11799" lon="7.13431">
        <ele>586.40002441406</ele>
        <time>2017-07-20T15:48:53Z</time>
      </trkpt>
      <trkpt lat="48.11794" lon="7.13414">
        <ele>587.40002441406</ele>
        <time>2017-07-20T15:48:59Z</time>
      </trkpt>
      <trkpt lat="48.1179" lon="7.13402">
        <ele>587.79998779297</ele>
        <time>2017-07-20T15:49:03Z</time>
      </trkpt>
      <trkpt lat="48.11787" lon="7.13392">
        <ele>588.59997558594</ele>
        <time>2017-07-20T15:49:07Z</time>
      </trkpt>
      <trkpt lat="48.11786" lon="7.13386">
        <ele>588.79998779297</ele>
        <time>2017-07-20T15:49:09Z</time>
      </trkpt>
      <trkpt lat="48.11781" lon="7.13371">
        <ele>589.59997558594</ele>
        <time>2017-07-20T15:49:14Z</time>
      </trkpt>
      <trkpt lat="48.11777" lon="7.13357">
        <ele>590.40002441406</ele>
        <time>2017-07-20T15:49:19Z</time>
      </trkpt>
      <trkpt lat="48.11776" lon="7.13354">
        <ele>590.59997558594</ele>
        <time>2017-07-20T15:49:20Z</time>
      </trkpt>
      <trkpt lat="48.1177" lon="7.13331">
        <ele>591.59997558594</ele>
        <time>2017-07-20T15:49:28Z</time>
      </trkpt>
      <trkpt lat="48.1177" lon="7.13328">
        <ele>591.79998779297</ele>
        <time>2017-07-20T15:49:29Z</time>
      </trkpt>
      <trkpt lat="48.11766" lon="7.13313">
        <ele>592.59997558594</ele>
        <time>2017-07-20T15:49:34Z</time>
      </trkpt>
      <trkpt lat="48.11764" lon="7.13301">
        <ele>593.20001220703</ele>
        <time>2017-07-20T15:49:38Z</time>
      </trkpt>
      <trkpt lat="48.11761" lon="7.13286">
        <ele>593.79998779297</ele>
        <time>2017-07-20T15:49:43Z</time>
      </trkpt>
      <trkpt lat="48.1176" lon="7.13281">
        <ele>594</ele>
        <time>2017-07-20T15:49:45Z</time>
      </trkpt>
      <trkpt lat="48.11758" lon="7.13266">
        <ele>594.79998779297</ele>
        <time>2017-07-20T15:49:50Z</time>
      </trkpt>
      <trkpt lat="48.11759" lon="7.13263">
        <ele>594.79998779297</ele>
        <time>2017-07-20T15:49:51Z</time>
      </trkpt>
      <trkpt lat="48.11769" lon="7.1325">
        <ele>595.59997558594</ele>
        <time>2017-07-20T15:49:57Z</time>
      </trkpt>
      <trkpt lat="48.11777" lon="7.13246">
        <ele>596</ele>
        <time>2017-07-20T15:50:00Z</time>
      </trkpt>
      <trkpt lat="48.11787" lon="7.13241">
        <ele>596.40002441406</ele>
        <time>2017-07-20T15:50:04Z</time>
      </trkpt>
      <trkpt lat="48.118" lon="7.13231">
        <ele>597</ele>
        <time>2017-07-20T15:50:11Z</time>
      </trkpt>
      <trkpt lat="48.11802" lon="7.1323">
        <ele>597.20001220703</ele>
        <time>2017-07-20T15:50:12Z</time>
      </trkpt>
      <trkpt lat="48.11814" lon="7.13223">
        <ele>598.20001220703</ele>
        <time>2017-07-20T15:50:18Z</time>
      </trkpt>
      <trkpt lat="48.11816" lon="7.13222">
        <ele>598.59997558594</ele>
        <time>2017-07-20T15:50:19Z</time>
      </trkpt>
      <trkpt lat="48.11822" lon="7.13217">
        <ele>599.20001220703</ele>
        <time>2017-07-20T15:50:22Z</time>
      </trkpt>
      <trkpt lat="48.11826" lon="7.13215">
        <ele>599.59997558594</ele>
        <time>2017-07-20T15:50:24Z</time>
      </trkpt>
      <trkpt lat="48.11842" lon="7.13205">
        <ele>600</ele>
        <time>2017-07-20T15:50:32Z</time>
      </trkpt>
      <trkpt lat="48.11853" lon="7.13197">
        <ele>600.20001220703</ele>
        <time>2017-07-20T15:50:38Z</time>
      </trkpt>
      <trkpt lat="48.11857" lon="7.13195">
        <ele>600.40002441406</ele>
        <time>2017-07-20T15:50:40Z</time>
      </trkpt>
      <trkpt lat="48.11875" lon="7.13179">
        <ele>600</ele>
        <time>2017-07-20T15:50:48Z</time>
      </trkpt>
      <trkpt lat="48.11878" lon="7.13176">
        <ele>600</ele>
        <time>2017-07-20T15:50:49Z</time>
      </trkpt>
      <trkpt lat="48.11883" lon="7.13168">
        <ele>600</ele>
        <time>2017-07-20T15:50:52Z</time>
      </trkpt>
      <trkpt lat="48.11886" lon="7.13164">
        <ele>599.79998779297</ele>
        <time>2017-07-20T15:51:05Z</time>
      </trkpt>
      <trkpt lat="48.11887" lon="7.13165">
        <ele>599.79998779297</ele>
        <time>2017-07-20T15:51:06Z</time>
      </trkpt>
      <trkpt lat="48.11897" lon="7.13162">
        <ele>599.79998779297</ele>
        <time>2017-07-20T15:51:10Z</time>
      </trkpt>
      <trkpt lat="48.11903" lon="7.1316">
        <ele>599.59997558594</ele>
        <time>2017-07-20T15:51:12Z</time>
      </trkpt>
      <trkpt lat="48.1192" lon="7.13146">
        <ele>599.79998779297</ele>
        <time>2017-07-20T15:51:19Z</time>
      </trkpt>
      <trkpt lat="48.11936" lon="7.13135">
        <ele>600.59997558594</ele>
        <time>2017-07-20T15:51:26Z</time>
      </trkpt>
      <trkpt lat="48.11952" lon="7.13124">
        <ele>601.20001220703</ele>
        <time>2017-07-20T15:51:35Z</time>
      </trkpt>
      <trkpt lat="48.11956" lon="7.1312">
        <ele>601.40002441406</ele>
        <time>2017-07-20T15:51:37Z</time>
      </trkpt>
      <trkpt lat="48.11967" lon="7.13113">
        <ele>602.59997558594</ele>
        <time>2017-07-20T15:51:43Z</time>
      </trkpt>
      <trkpt lat="48.11976" lon="7.13108">
        <ele>603.79998779297</ele>
        <time>2017-07-20T15:51:48Z</time>
      </trkpt>
      <trkpt lat="48.11979" lon="7.13106">
        <ele>604.40002441406</ele>
        <time>2017-07-20T15:51:50Z</time>
      </trkpt>
      <trkpt lat="48.11984" lon="7.13105">
        <ele>605</ele>
        <time>2017-07-20T15:51:53Z</time>
      </trkpt>
      <trkpt lat="48.11987" lon="7.13106">
        <ele>605.59997558594</ele>
        <time>2017-07-20T15:51:55Z</time>
      </trkpt>
      <trkpt lat="48.11991" lon="7.13106">
        <ele>606.20001220703</ele>
        <time>2017-07-20T15:51:58Z</time>
      </trkpt>
      <trkpt lat="48.11998" lon="7.13112">
        <ele>607.20001220703</ele>
        <time>2017-07-20T15:52:04Z</time>
      </trkpt>
      <trkpt lat="48.11999" lon="7.13114">
        <ele>608</ele>
        <time>2017-07-20T15:57:11Z</time>
      </trkpt>
      <trkpt lat="48.11991" lon="7.13107">
        <ele>608</ele>
        <time>2017-07-20T15:57:18Z</time>
      </trkpt>
      <trkpt lat="48.11984" lon="7.13105">
        <ele>607.79998779297</ele>
        <time>2017-07-20T15:57:22Z</time>
      </trkpt>
      <trkpt lat="48.11982" lon="7.13105">
        <ele>607.59997558594</ele>
        <time>2017-07-20T15:57:23Z</time>
      </trkpt>
      <trkpt lat="48.11971" lon="7.13113">
        <ele>606.79998779297</ele>
        <time>2017-07-20T15:57:27Z</time>
      </trkpt>
      <trkpt lat="48.11968" lon="7.13115">
        <ele>606.40002441406</ele>
        <time>2017-07-20T15:57:28Z</time>
      </trkpt>
      <trkpt lat="48.11966" lon="7.13117">
        <ele>606.20001220703</ele>
        <time>2017-07-20T15:57:29Z</time>
      </trkpt>
      <trkpt lat="48.11958" lon="7.13122">
        <ele>605</ele>
        <time>2017-07-20T15:57:32Z</time>
      </trkpt>
      <trkpt lat="48.11952" lon="7.13127">
        <ele>604.40002441406</ele>
        <time>2017-07-20T15:57:34Z</time>
      </trkpt>
      <trkpt lat="48.11946" lon="7.13131">
        <ele>603.79998779297</ele>
        <time>2017-07-20T15:57:36Z</time>
      </trkpt>
      <trkpt lat="48.11935" lon="7.13138">
        <ele>602.59997558594</ele>
        <time>2017-07-20T15:57:39Z</time>
      </trkpt>
      <trkpt lat="48.11921" lon="7.13149">
        <ele>601.59997558594</ele>
        <time>2017-07-20T15:57:43Z</time>
      </trkpt>
      <trkpt lat="48.11914" lon="7.13152">
        <ele>601.20001220703</ele>
        <time>2017-07-20T15:57:45Z</time>
      </trkpt>
      <trkpt lat="48.11894" lon="7.13155">
        <ele>600.59997558594</ele>
        <time>2017-07-20T15:57:51Z</time>
      </trkpt>
      <trkpt lat="48.11884" lon="7.13151">
        <ele>600.59997558594</ele>
        <time>2017-07-20T15:57:57Z</time>
      </trkpt>
      <trkpt lat="48.11872" lon="7.13156">
        <ele>600.59997558594</ele>
        <time>2017-07-20T15:58:04Z</time>
      </trkpt>
      <trkpt lat="48.11862" lon="7.13162">
        <ele>600.59997558594</ele>
        <time>2017-07-20T15:58:11Z</time>
      </trkpt>
      <trkpt lat="48.11858" lon="7.13165">
        <ele>600.59997558594</ele>
        <time>2017-07-20T15:58:14Z</time>
      </trkpt>
      <trkpt lat="48.11854" lon="7.13167">
        <ele>600.59997558594</ele>
        <time>2017-07-20T15:58:17Z</time>
      </trkpt>
      <trkpt lat="48.11848" lon="7.13169">
        <ele>600.79998779297</ele>
        <time>2017-07-20T15:58:22Z</time>
      </trkpt>
      <trkpt lat="48.11835" lon="7.1319">
        <ele>633.59997558594</ele>
        <time>2017-07-21T05:57:21Z</time>
      </trkpt>
      <trkpt lat="48.11837" lon="7.13189">
        <ele>633.59997558594</ele>
        <time>2017-07-21T05:57:23Z</time>
      </trkpt>
      <trkpt lat="48.11841" lon="7.13187">
        <ele>632.79998779297</ele>
        <time>2017-07-21T05:57:55Z</time>
      </trkpt>
      <trkpt lat="48.11846" lon="7.13179">
        <ele>632.79998779297</ele>
        <time>2017-07-21T05:57:59Z</time>
      </trkpt>
      <trkpt lat="48.11847" lon="7.13177">
        <ele>632.79998779297</ele>
        <time>2017-07-21T05:58:00Z</time>
      </trkpt>
      <trkpt lat="48.1185" lon="7.13172">
        <ele>632.79998779297</ele>
        <time>2017-07-21T05:58:02Z</time>
      </trkpt>
      <trkpt lat="48.11857" lon="7.13167">
        <ele>632.79998779297</ele>
        <time>2017-07-21T05:58:06Z</time>
      </trkpt>
      <trkpt lat="48.11869" lon="7.13158">
        <ele>632.79998779297</ele>
        <time>2017-07-21T05:58:14Z</time>
      </trkpt>
      <trkpt lat="48.11877" lon="7.13156">
        <ele>632.79998779297</ele>
        <time>2017-07-21T05:58:20Z</time>
      </trkpt>
      <trkpt lat="48.11878" lon="7.13157">
        <ele>632.79998779297</ele>
        <time>2017-07-21T05:58:21Z</time>
      </trkpt>
      <trkpt lat="48.1188" lon="7.13162">
        <ele>633</ele>
        <time>2017-07-21T06:01:18Z</time>
      </trkpt>
      <trkpt lat="48.11881" lon="7.13164">
        <ele>633</ele>
        <time>2017-07-21T06:01:19Z</time>
      </trkpt>
      <trkpt lat="48.11881" lon="7.13167">
        <ele>633</ele>
        <time>2017-07-21T06:01:20Z</time>
      </trkpt>
      <trkpt lat="48.11877" lon="7.13175">
        <ele>633</ele>
        <time>2017-07-21T06:01:23Z</time>
      </trkpt>
      <trkpt lat="48.11868" lon="7.13183">
        <ele>632.59997558594</ele>
        <time>2017-07-21T06:01:29Z</time>
      </trkpt>
      <trkpt lat="48.11867" lon="7.13184">
        <ele>632.59997558594</ele>
        <time>2017-07-21T06:01:30Z</time>
      </trkpt>
      <trkpt lat="48.11865" lon="7.13187">
        <ele>632.40002441406</ele>
        <time>2017-07-21T06:01:32Z</time>
      </trkpt>
      <trkpt lat="48.11862" lon="7.13189">
        <ele>632.40002441406</ele>
        <time>2017-07-21T06:01:34Z</time>
      </trkpt>
      <trkpt lat="48.1185" lon="7.13197">
        <ele>632.79998779297</ele>
        <time>2017-07-21T06:01:41Z</time>
      </trkpt>
      <trkpt lat="48.11846" lon="7.13199">
        <ele>632.79998779297</ele>
        <time>2017-07-21T06:01:43Z</time>
      </trkpt>
      <trkpt lat="48.11844" lon="7.13202">
        <ele>632.79998779297</ele>
        <time>2017-07-21T06:01:45Z</time>
      </trkpt>
      <trkpt lat="48.11831" lon="7.13213">
        <ele>633</ele>
        <time>2017-07-21T06:01:53Z</time>
      </trkpt>
      <trkpt lat="48.11814" lon="7.13221">
        <ele>633</ele>
        <time>2017-07-21T06:01:58Z</time>
      </trkpt>
      <trkpt lat="48.11794" lon="7.13235">
        <ele>632.40002441406</ele>
        <time>2017-07-21T06:02:03Z</time>
      </trkpt>
      <trkpt lat="48.11786" lon="7.13241">
        <ele>632</ele>
        <time>2017-07-21T06:02:05Z</time>
      </trkpt>
      <trkpt lat="48.11777" lon="7.13248">
        <ele>631.40002441406</ele>
        <time>2017-07-21T06:02:07Z</time>
      </trkpt>
      <trkpt lat="48.11773" lon="7.1325">
        <ele>631.20001220703</ele>
        <time>2017-07-21T06:02:08Z</time>
      </trkpt>
      <trkpt lat="48.11762" lon="7.13254">
        <ele>630.40002441406</ele>
        <time>2017-07-21T06:02:11Z</time>
      </trkpt>
      <trkpt lat="48.1176" lon="7.13256">
        <ele>630</ele>
        <time>2017-07-21T06:02:12Z</time>
      </trkpt>
      <trkpt lat="48.11758" lon="7.13255">
        <ele>629.79998779297</ele>
        <time>2017-07-21T06:02:13Z</time>
      </trkpt>
      <trkpt lat="48.11755" lon="7.1325">
        <ele>629.59997558594</ele>
        <time>2017-07-21T06:02:15Z</time>
      </trkpt>
      <trkpt lat="48.11753" lon="7.1324">
        <ele>629.40002441406</ele>
        <time>2017-07-21T06:02:18Z</time>
      </trkpt>
      <trkpt lat="48.11753" lon="7.13237">
        <ele>629.40002441406</ele>
        <time>2017-07-21T06:02:19Z</time>
      </trkpt>
      <trkpt lat="48.11749" lon="7.13212">
        <ele>630.79998779297</ele>
        <time>2017-07-21T06:02:28Z</time>
      </trkpt>
      <trkpt lat="48.11747" lon="7.13197">
        <ele>631.40002441406</ele>
        <time>2017-07-21T06:02:33Z</time>
      </trkpt>
      <trkpt lat="48.11746" lon="7.13192">
        <ele>631.79998779297</ele>
        <time>2017-07-21T06:02:35Z</time>
      </trkpt>
      <trkpt lat="48.11746" lon="7.13185">
        <ele>632.20001220703</ele>
        <time>2017-07-21T06:02:38Z</time>
      </trkpt>
      <trkpt lat="48.11744" lon="7.13177">
        <ele>632.59997558594</ele>
        <time>2017-07-21T06:02:41Z</time>
      </trkpt>
      <trkpt lat="48.11742" lon="7.13161">
        <ele>633.79998779297</ele>
        <time>2017-07-21T06:02:47Z</time>
      </trkpt>
      <trkpt lat="48.11741" lon="7.13143">
        <ele>634.79998779297</ele>
        <time>2017-07-21T06:02:54Z</time>
      </trkpt>
      <trkpt lat="48.1174" lon="7.13138">
        <ele>635</ele>
        <time>2017-07-21T06:02:56Z</time>
      </trkpt>
      <trkpt lat="48.11737" lon="7.13124">
        <ele>635.79998779297</ele>
        <time>2017-07-21T06:03:02Z</time>
      </trkpt>
      <trkpt lat="48.11735" lon="7.13113">
        <ele>636.59997558594</ele>
        <time>2017-07-21T06:03:07Z</time>
      </trkpt>
      <trkpt lat="48.11735" lon="7.13109">
        <ele>637</ele>
        <time>2017-07-21T06:03:09Z</time>
      </trkpt>
      <trkpt lat="48.11732" lon="7.13096">
        <ele>637.40002441406</ele>
        <time>2017-07-21T06:03:14Z</time>
      </trkpt>
      <trkpt lat="48.11731" lon="7.13088">
        <ele>638</ele>
        <time>2017-07-21T06:03:18Z</time>
      </trkpt>
      <trkpt lat="48.11729" lon="7.13082">
        <ele>638.40002441406</ele>
        <time>2017-07-21T06:03:21Z</time>
      </trkpt>
      <trkpt lat="48.11725" lon="7.13068">
        <ele>639</ele>
        <time>2017-07-21T06:03:28Z</time>
      </trkpt>
      <trkpt lat="48.11723" lon="7.13064">
        <ele>639.20001220703</ele>
        <time>2017-07-21T06:03:30Z</time>
      </trkpt>
      <trkpt lat="48.11719" lon="7.13051">
        <ele>640.20001220703</ele>
        <time>2017-07-21T06:03:36Z</time>
      </trkpt>
      <trkpt lat="48.11718" lon="7.13049">
        <ele>640.20001220703</ele>
        <time>2017-07-21T06:03:37Z</time>
      </trkpt>
      <trkpt lat="48.11711" lon="7.13028">
        <ele>641.20001220703</ele>
        <time>2017-07-21T06:03:46Z</time>
      </trkpt>
      <trkpt lat="48.11704" lon="7.1301">
        <ele>642.20001220703</ele>
        <time>2017-07-21T06:03:55Z</time>
      </trkpt>
      <trkpt lat="48.11702" lon="7.13006">
        <ele>642.40002441406</ele>
        <time>2017-07-21T06:03:57Z</time>
      </trkpt>
      <trkpt lat="48.11695" lon="7.1299">
        <ele>643.20001220703</ele>
        <time>2017-07-21T06:04:04Z</time>
      </trkpt>
      <trkpt lat="48.11689" lon="7.12973">
        <ele>644.20001220703</ele>
        <time>2017-07-21T06:04:12Z</time>
      </trkpt>
      <trkpt lat="48.11681" lon="7.12956">
        <ele>645.20001220703</ele>
        <time>2017-07-21T06:04:20Z</time>
      </trkpt>
      <trkpt lat="48.11679" lon="7.12952">
        <ele>645.40002441406</ele>
        <time>2017-07-21T06:04:22Z</time>
      </trkpt>
      <trkpt lat="48.11677" lon="7.12943">
        <ele>645.79998779297</ele>
        <time>2017-07-21T06:04:26Z</time>
      </trkpt>
      <trkpt lat="48.11674" lon="7.12935">
        <ele>646.40002441406</ele>
        <time>2017-07-21T06:04:30Z</time>
      </trkpt>
      <trkpt lat="48.11669" lon="7.12925">
        <ele>647</ele>
        <time>2017-07-21T06:04:35Z</time>
      </trkpt>
      <trkpt lat="48.11666" lon="7.12916">
        <ele>647.40002441406</ele>
        <time>2017-07-21T06:04:39Z</time>
      </trkpt>
      <trkpt lat="48.11664" lon="7.12909">
        <ele>648</ele>
        <time>2017-07-21T06:04:42Z</time>
      </trkpt>
      <trkpt lat="48.11661" lon="7.129">
        <ele>648.40002441406</ele>
        <time>2017-07-21T06:04:46Z</time>
      </trkpt>
      <trkpt lat="48.11658" lon="7.12889">
        <ele>649.20001220703</ele>
        <time>2017-07-21T06:04:51Z</time>
      </trkpt>
      <trkpt lat="48.11656" lon="7.12883">
        <ele>649.59997558594</ele>
        <time>2017-07-21T06:04:54Z</time>
      </trkpt>
      <trkpt lat="48.11653" lon="7.12871">
        <ele>650</ele>
        <time>2017-07-21T06:04:59Z</time>
      </trkpt>
      <trkpt lat="48.11651" lon="7.12862">
        <ele>650.59997558594</ele>
        <time>2017-07-21T06:05:03Z</time>
      </trkpt>
      <trkpt lat="48.11649" lon="7.12853">
        <ele>651.20001220703</ele>
        <time>2017-07-21T06:05:07Z</time>
      </trkpt>
      <trkpt lat="48.11646" lon="7.12841">
        <ele>651.79998779297</ele>
        <time>2017-07-21T06:05:12Z</time>
      </trkpt>
      <trkpt lat="48.11646" lon="7.12837">
        <ele>652</ele>
        <time>2017-07-21T06:05:14Z</time>
      </trkpt>
      <trkpt lat="48.11646" lon="7.12832">
        <ele>652.40002441406</ele>
        <time>2017-07-21T06:05:16Z</time>
      </trkpt>
      <trkpt lat="48.11645" lon="7.12823">
        <ele>652.79998779297</ele>
        <time>2017-07-21T06:05:20Z</time>
      </trkpt>
      <trkpt lat="48.11644" lon="7.12814">
        <ele>653.40002441406</ele>
        <time>2017-07-21T06:05:24Z</time>
      </trkpt>
      <trkpt lat="48.11643" lon="7.12806">
        <ele>654</ele>
        <time>2017-07-21T06:05:28Z</time>
      </trkpt>
      <trkpt lat="48.11643" lon="7.12799">
        <ele>654.59997558594</ele>
        <time>2017-07-21T06:05:31Z</time>
      </trkpt>
      <trkpt lat="48.11642" lon="7.12793">
        <ele>655</ele>
        <time>2017-07-21T06:05:34Z</time>
      </trkpt>
      <trkpt lat="48.11642" lon="7.12783">
        <ele>655.79998779297</ele>
        <time>2017-07-21T06:05:39Z</time>
      </trkpt>
      <trkpt lat="48.11642" lon="7.12778">
        <ele>656</ele>
        <time>2017-07-21T06:05:41Z</time>
      </trkpt>
      <trkpt lat="48.11641" lon="7.12767">
        <ele>656.79998779297</ele>
        <time>2017-07-21T06:05:46Z</time>
      </trkpt>
      <trkpt lat="48.11642" lon="7.12762">
        <ele>657</ele>
        <time>2017-07-21T06:05:48Z</time>
      </trkpt>
      <trkpt lat="48.11643" lon="7.12746">
        <ele>658.20001220703</ele>
        <time>2017-07-21T06:05:55Z</time>
      </trkpt>
      <trkpt lat="48.11642" lon="7.12729">
        <ele>659.40002441406</ele>
        <time>2017-07-21T06:06:03Z</time>
      </trkpt>
      <trkpt lat="48.11642" lon="7.12716">
        <ele>660.20001220703</ele>
        <time>2017-07-21T06:06:09Z</time>
      </trkpt>
      <trkpt lat="48.11642" lon="7.12714">
        <ele>660.40002441406</ele>
        <time>2017-07-21T06:06:10Z</time>
      </trkpt>
      <trkpt lat="48.11643" lon="7.127">
        <ele>661.40002441406</ele>
        <time>2017-07-21T06:06:16Z</time>
      </trkpt>
      <trkpt lat="48.11643" lon="7.12698">
        <ele>661.40002441406</ele>
        <time>2017-07-21T06:06:17Z</time>
      </trkpt>
      <trkpt lat="48.11643" lon="7.12682">
        <ele>662.59997558594</ele>
        <time>2017-07-21T06:06:24Z</time>
      </trkpt>
      <trkpt lat="48.11643" lon="7.12678">
        <ele>663</ele>
        <time>2017-07-21T06:06:26Z</time>
      </trkpt>
      <trkpt lat="48.11643" lon="7.12667">
        <ele>663.79998779297</ele>
        <time>2017-07-21T06:06:31Z</time>
      </trkpt>
      <trkpt lat="48.11643" lon="7.12665">
        <ele>664</ele>
        <time>2017-07-21T06:06:32Z</time>
      </trkpt>
      <trkpt lat="48.11643" lon="7.1266">
        <ele>664.20001220703</ele>
        <time>2017-07-21T06:06:34Z</time>
      </trkpt>
      <trkpt lat="48.11643" lon="7.12651">
        <ele>664.79998779297</ele>
        <time>2017-07-21T06:06:38Z</time>
      </trkpt>
      <trkpt lat="48.11641" lon="7.12639">
        <ele>665.79998779297</ele>
        <time>2017-07-21T06:06:43Z</time>
      </trkpt>
      <trkpt lat="48.1164" lon="7.12637">
        <ele>665.79998779297</ele>
        <time>2017-07-21T06:06:44Z</time>
      </trkpt>
      <trkpt lat="48.11638" lon="7.12621">
        <ele>667</ele>
        <time>2017-07-21T06:06:51Z</time>
      </trkpt>
      <trkpt lat="48.11635" lon="7.12605">
        <ele>668</ele>
        <time>2017-07-21T06:06:58Z</time>
      </trkpt>
      <trkpt lat="48.11632" lon="7.1259">
        <ele>669</ele>
        <time>2017-07-21T06:07:05Z</time>
      </trkpt>
      <trkpt lat="48.11631" lon="7.12588">
        <ele>669.20001220703</ele>
        <time>2017-07-21T06:07:06Z</time>
      </trkpt>
      <trkpt lat="48.11628" lon="7.12578">
        <ele>670</ele>
        <time>2017-07-21T06:07:11Z</time>
      </trkpt>
      <trkpt lat="48.11626" lon="7.12569">
        <ele>670.59997558594</ele>
        <time>2017-07-21T06:07:15Z</time>
      </trkpt>
      <trkpt lat="48.11623" lon="7.12562">
        <ele>671.20001220703</ele>
        <time>2017-07-21T06:07:19Z</time>
      </trkpt>
      <trkpt lat="48.11619" lon="7.12553">
        <ele>672</ele>
        <time>2017-07-21T06:07:24Z</time>
      </trkpt>
      <trkpt lat="48.11617" lon="7.12547">
        <ele>672.40002441406</ele>
        <time>2017-07-21T06:07:27Z</time>
      </trkpt>
      <trkpt lat="48.11613" lon="7.12538">
        <ele>673.20001220703</ele>
        <time>2017-07-21T06:07:31Z</time>
      </trkpt>
      <trkpt lat="48.11612" lon="7.12535">
        <ele>673.40002441406</ele>
        <time>2017-07-21T06:07:33Z</time>
      </trkpt>
      <trkpt lat="48.11607" lon="7.12524">
        <ele>674.20001220703</ele>
        <time>2017-07-21T06:07:39Z</time>
      </trkpt>
      <trkpt lat="48.11606" lon="7.12519">
        <ele>674.59997558594</ele>
        <time>2017-07-21T06:07:41Z</time>
      </trkpt>
      <trkpt lat="48.11601" lon="7.12506">
        <ele>675.79998779297</ele>
        <time>2017-07-21T06:07:48Z</time>
      </trkpt>
      <trkpt lat="48.11599" lon="7.12502">
        <ele>676</ele>
        <time>2017-07-21T06:07:50Z</time>
      </trkpt>
      <trkpt lat="48.11595" lon="7.12493">
        <ele>677</ele>
        <time>2017-07-21T06:07:55Z</time>
      </trkpt>
      <trkpt lat="48.11592" lon="7.12488">
        <ele>677.40002441406</ele>
        <time>2017-07-21T06:07:58Z</time>
      </trkpt>
      <trkpt lat="48.11589" lon="7.12477">
        <ele>678</ele>
        <time>2017-07-21T06:08:03Z</time>
      </trkpt>
      <trkpt lat="48.11587" lon="7.12473">
        <ele>678.40002441406</ele>
        <time>2017-07-21T06:08:05Z</time>
      </trkpt>
      <trkpt lat="48.11583" lon="7.12464">
        <ele>679</ele>
        <time>2017-07-21T06:08:10Z</time>
      </trkpt>
      <trkpt lat="48.11581" lon="7.12458">
        <ele>679.59997558594</ele>
        <time>2017-07-21T06:08:13Z</time>
      </trkpt>
      <trkpt lat="48.11579" lon="7.12449">
        <ele>680.20001220703</ele>
        <time>2017-07-21T06:08:17Z</time>
      </trkpt>
      <trkpt lat="48.11575" lon="7.12441">
        <ele>681</ele>
        <time>2017-07-21T06:08:22Z</time>
      </trkpt>
      <trkpt lat="48.11574" lon="7.12437">
        <ele>681.20001220703</ele>
        <time>2017-07-21T06:08:24Z</time>
      </trkpt>
      <trkpt lat="48.1157" lon="7.12427">
        <ele>682</ele>
        <time>2017-07-21T06:08:29Z</time>
      </trkpt>
      <trkpt lat="48.11568" lon="7.12423">
        <ele>682.40002441406</ele>
        <time>2017-07-21T06:08:31Z</time>
      </trkpt>
      <trkpt lat="48.11563" lon="7.12412">
        <ele>683.20001220703</ele>
        <time>2017-07-21T06:08:37Z</time>
      </trkpt>
      <trkpt lat="48.11563" lon="7.1241">
        <ele>683.40002441406</ele>
        <time>2017-07-21T06:08:38Z</time>
      </trkpt>
      <trkpt lat="48.11562" lon="7.12408">
        <ele>683.40002441406</ele>
        <time>2017-07-21T06:08:39Z</time>
      </trkpt>
      <trkpt lat="48.11557" lon="7.12398">
        <ele>684.40002441406</ele>
        <time>2017-07-21T06:08:45Z</time>
      </trkpt>
      <trkpt lat="48.11552" lon="7.12381">
        <ele>685.59997558594</ele>
        <time>2017-07-21T06:08:53Z</time>
      </trkpt>
      <trkpt lat="48.11545" lon="7.12366">
        <ele>686.59997558594</ele>
        <time>2017-07-21T06:09:01Z</time>
      </trkpt>
      <trkpt lat="48.11545" lon="7.12364">
        <ele>686.79998779297</ele>
        <time>2017-07-21T06:09:02Z</time>
      </trkpt>
      <trkpt lat="48.11544" lon="7.12354">
        <ele>687.79998779297</ele>
        <time>2017-07-21T06:09:07Z</time>
      </trkpt>
      <trkpt lat="48.11544" lon="7.12352">
        <ele>687.79998779297</ele>
        <time>2017-07-21T06:09:08Z</time>
      </trkpt>
      <trkpt lat="48.11539" lon="7.12338">
        <ele>688.79998779297</ele>
        <time>2017-07-21T06:09:15Z</time>
      </trkpt>
      <trkpt lat="48.11536" lon="7.12323">
        <ele>690</ele>
        <time>2017-07-21T06:09:22Z</time>
      </trkpt>
      <trkpt lat="48.11535" lon="7.12321">
        <ele>690</ele>
        <time>2017-07-21T06:09:23Z</time>
      </trkpt>
      <trkpt lat="48.11533" lon="7.12308">
        <ele>691</ele>
        <time>2017-07-21T06:09:29Z</time>
      </trkpt>
      <trkpt lat="48.11533" lon="7.12302">
        <ele>691.59997558594</ele>
        <time>2017-07-21T06:09:32Z</time>
      </trkpt>
      <trkpt lat="48.11532" lon="7.12295">
        <ele>692</ele>
        <time>2017-07-21T06:09:35Z</time>
      </trkpt>
      <trkpt lat="48.11528" lon="7.12283">
        <ele>693</ele>
        <time>2017-07-21T06:09:41Z</time>
      </trkpt>
      <trkpt lat="48.11527" lon="7.12279">
        <ele>693.20001220703</ele>
        <time>2017-07-21T06:09:43Z</time>
      </trkpt>
      <trkpt lat="48.11525" lon="7.12264">
        <ele>694.20001220703</ele>
        <time>2017-07-21T06:09:50Z</time>
      </trkpt>
      <trkpt lat="48.11524" lon="7.12248">
        <ele>695.40002441406</ele>
        <time>2017-07-21T06:09:57Z</time>
      </trkpt>
      <trkpt lat="48.11522" lon="7.12233">
        <ele>696.40002441406</ele>
        <time>2017-07-21T06:10:04Z</time>
      </trkpt>
      <trkpt lat="48.11522" lon="7.12231">
        <ele>696.59997558594</ele>
        <time>2017-07-21T06:10:05Z</time>
      </trkpt>
      <trkpt lat="48.1152" lon="7.12219">
        <ele>697.40002441406</ele>
        <time>2017-07-21T06:10:11Z</time>
      </trkpt>
      <trkpt lat="48.11519" lon="7.12212">
        <ele>698</ele>
        <time>2017-07-21T06:10:14Z</time>
      </trkpt>
      <trkpt lat="48.11517" lon="7.12205">
        <ele>698.59997558594</ele>
        <time>2017-07-21T06:10:18Z</time>
      </trkpt>
      <trkpt lat="48.11515" lon="7.12194">
        <ele>699.40002441406</ele>
        <time>2017-07-21T06:10:23Z</time>
      </trkpt>
      <trkpt lat="48.11515" lon="7.12192">
        <ele>699.59997558594</ele>
        <time>2017-07-21T06:10:24Z</time>
      </trkpt>
      <trkpt lat="48.11513" lon="7.12177">
        <ele>700.59997558594</ele>
        <time>2017-07-21T06:10:31Z</time>
      </trkpt>
      <trkpt lat="48.11512" lon="7.12173">
        <ele>701</ele>
        <time>2017-07-21T06:10:33Z</time>
      </trkpt>
      <trkpt lat="48.11509" lon="7.12162">
        <ele>701.79998779297</ele>
        <time>2017-07-21T06:10:38Z</time>
      </trkpt>
      <trkpt lat="48.11509" lon="7.12158">
        <ele>702</ele>
        <time>2017-07-21T06:10:40Z</time>
      </trkpt>
      <trkpt lat="48.11505" lon="7.12149">
        <ele>702.79998779297</ele>
        <time>2017-07-21T06:10:45Z</time>
      </trkpt>
      <trkpt lat="48.11503" lon="7.12144">
        <ele>703.20001220703</ele>
        <time>2017-07-21T06:10:48Z</time>
      </trkpt>
      <trkpt lat="48.11501" lon="7.12135">
        <ele>703.79998779297</ele>
        <time>2017-07-21T06:10:52Z</time>
      </trkpt>
      <trkpt lat="48.11499" lon="7.12122">
        <ele>704.59997558594</ele>
        <time>2017-07-21T06:10:58Z</time>
      </trkpt>
      <trkpt lat="48.11497" lon="7.12119">
        <ele>704.79998779297</ele>
        <time>2017-07-21T06:11:00Z</time>
      </trkpt>
      <trkpt lat="48.11495" lon="7.12115">
        <ele>705</ele>
        <time>2017-07-21T06:11:02Z</time>
      </trkpt>
      <trkpt lat="48.11495" lon="7.12113">
        <ele>705.20001220703</ele>
        <time>2017-07-21T06:11:03Z</time>
      </trkpt>
      <trkpt lat="48.11494" lon="7.12105">
        <ele>705.59997558594</ele>
        <time>2017-07-21T06:11:06Z</time>
      </trkpt>
      <trkpt lat="48.11494" lon="7.12103">
        <ele>706</ele>
        <time>2017-07-21T06:11:07Z</time>
      </trkpt>
      <trkpt lat="48.11491" lon="7.12098">
        <ele>706.59997558594</ele>
        <time>2017-07-21T06:11:10Z</time>
      </trkpt>
      <trkpt lat="48.11489" lon="7.1209">
        <ele>707.20001220703</ele>
        <time>2017-07-21T06:11:14Z</time>
      </trkpt>
      <trkpt lat="48.11485" lon="7.1208">
        <ele>707.79998779297</ele>
        <time>2017-07-21T06:11:19Z</time>
      </trkpt>
      <trkpt lat="48.11483" lon="7.12074">
        <ele>708.20001220703</ele>
        <time>2017-07-21T06:11:22Z</time>
      </trkpt>
      <trkpt lat="48.11479" lon="7.12062">
        <ele>709.20001220703</ele>
        <time>2017-07-21T06:11:28Z</time>
      </trkpt>
      <trkpt lat="48.11478" lon="7.1206">
        <ele>709.40002441406</ele>
        <time>2017-07-21T06:11:29Z</time>
      </trkpt>
      <trkpt lat="48.11474" lon="7.12047">
        <ele>710.40002441406</ele>
        <time>2017-07-21T06:11:35Z</time>
      </trkpt>
      <trkpt lat="48.11473" lon="7.12042">
        <ele>710.59997558594</ele>
        <time>2017-07-21T06:11:37Z</time>
      </trkpt>
      <trkpt lat="48.11472" lon="7.1204">
        <ele>710.79998779297</ele>
        <time>2017-07-21T06:11:38Z</time>
      </trkpt>
      <trkpt lat="48.11469" lon="7.12031">
        <ele>711.59997558594</ele>
        <time>2017-07-21T06:11:43Z</time>
      </trkpt>
      <trkpt lat="48.11468" lon="7.1203">
        <ele>711.59997558594</ele>
        <time>2017-07-21T06:11:44Z</time>
      </trkpt>
      <trkpt lat="48.11461" lon="7.12023">
        <ele>712.40002441406</ele>
        <time>2017-07-21T06:11:49Z</time>
      </trkpt>
      <trkpt lat="48.1146" lon="7.12021">
        <ele>712.59997558594</ele>
        <time>2017-07-21T06:11:50Z</time>
      </trkpt>
      <trkpt lat="48.11457" lon="7.12012">
        <ele>713.20001220703</ele>
        <time>2017-07-21T06:11:55Z</time>
      </trkpt>
      <trkpt lat="48.11456" lon="7.1201">
        <ele>713.40002441406</ele>
        <time>2017-07-21T06:11:56Z</time>
      </trkpt>
      <trkpt lat="48.11455" lon="7.12009">
        <ele>713.59997558594</ele>
        <time>2017-07-21T06:11:57Z</time>
      </trkpt>
      <trkpt lat="48.1145" lon="7.11996">
        <ele>714.40002441406</ele>
        <time>2017-07-21T06:12:03Z</time>
      </trkpt>
      <trkpt lat="48.11449" lon="7.11992">
        <ele>714.59997558594</ele>
        <time>2017-07-21T06:12:05Z</time>
      </trkpt>
      <trkpt lat="48.11444" lon="7.11981">
        <ele>715.59997558594</ele>
        <time>2017-07-21T06:12:11Z</time>
      </trkpt>
      <trkpt lat="48.11442" lon="7.11977">
        <ele>715.79998779297</ele>
        <time>2017-07-21T06:12:13Z</time>
      </trkpt>
      <trkpt lat="48.11436" lon="7.11968">
        <ele>716.79998779297</ele>
        <time>2017-07-21T06:12:19Z</time>
      </trkpt>
      <trkpt lat="48.11434" lon="7.11967">
        <ele>717</ele>
        <time>2017-07-21T06:12:20Z</time>
      </trkpt>
      <trkpt lat="48.11429" lon="7.11959">
        <ele>717.59997558594</ele>
        <time>2017-07-21T06:12:25Z</time>
      </trkpt>
      <trkpt lat="48.11426" lon="7.11955">
        <ele>718</ele>
        <time>2017-07-21T06:12:28Z</time>
      </trkpt>
      <trkpt lat="48.11421" lon="7.1195">
        <ele>718.40002441406</ele>
        <time>2017-07-21T06:12:31Z</time>
      </trkpt>
      <trkpt lat="48.11417" lon="7.11944">
        <ele>718.79998779297</ele>
        <time>2017-07-21T06:12:34Z</time>
      </trkpt>
      <trkpt lat="48.11415" lon="7.11941">
        <ele>719</ele>
        <time>2017-07-21T06:12:36Z</time>
      </trkpt>
      <trkpt lat="48.11412" lon="7.11936">
        <ele>719.40002441406</ele>
        <time>2017-07-21T06:12:39Z</time>
      </trkpt>
      <trkpt lat="48.11406" lon="7.11926">
        <ele>720</ele>
        <time>2017-07-21T06:12:44Z</time>
      </trkpt>
      <trkpt lat="48.11405" lon="7.11924">
        <ele>720.20001220703</ele>
        <time>2017-07-21T06:12:45Z</time>
      </trkpt>
      <trkpt lat="48.11404" lon="7.11923">
        <ele>720.20001220703</ele>
        <time>2017-07-21T06:12:46Z</time>
      </trkpt>
      <trkpt lat="48.11393" lon="7.11911">
        <ele>721.20001220703</ele>
        <time>2017-07-21T06:12:53Z</time>
      </trkpt>
      <trkpt lat="48.11389" lon="7.11905">
        <ele>721.40002441406</ele>
        <time>2017-07-21T06:12:56Z</time>
      </trkpt>
      <trkpt lat="48.11383" lon="7.11898">
        <ele>722.20001220703</ele>
        <time>2017-07-21T06:13:01Z</time>
      </trkpt>
      <trkpt lat="48.11377" lon="7.11893">
        <ele>722.79998779297</ele>
        <time>2017-07-21T06:13:05Z</time>
      </trkpt>
      <trkpt lat="48.1137" lon="7.11889">
        <ele>723.40002441406</ele>
        <time>2017-07-21T06:13:09Z</time>
      </trkpt>
      <trkpt lat="48.11367" lon="7.11887">
        <ele>723.59997558594</ele>
        <time>2017-07-21T06:13:11Z</time>
      </trkpt>
      <trkpt lat="48.11357" lon="7.11883">
        <ele>724.40002441406</ele>
        <time>2017-07-21T06:13:17Z</time>
      </trkpt>
      <trkpt lat="48.11354" lon="7.11882">
        <ele>724.79998779297</ele>
        <time>2017-07-21T06:13:19Z</time>
      </trkpt>
      <trkpt lat="48.11345" lon="7.11882">
        <ele>725.59997558594</ele>
        <time>2017-07-21T06:13:24Z</time>
      </trkpt>
      <trkpt lat="48.11338" lon="7.11881">
        <ele>726</ele>
        <time>2017-07-21T06:13:28Z</time>
      </trkpt>
      <trkpt lat="48.11333" lon="7.11881">
        <ele>726.59997558594</ele>
        <time>2017-07-21T06:13:31Z</time>
      </trkpt>
      <trkpt lat="48.11325" lon="7.11881">
        <ele>727.20001220703</ele>
        <time>2017-07-21T06:13:35Z</time>
      </trkpt>
      <trkpt lat="48.11314" lon="7.11881">
        <ele>727.79998779297</ele>
        <time>2017-07-21T06:13:40Z</time>
      </trkpt>
      <trkpt lat="48.11311" lon="7.11881">
        <ele>728.20001220703</ele>
        <time>2017-07-21T06:13:42Z</time>
      </trkpt>
      <trkpt lat="48.11298" lon="7.11886">
        <ele>728.79998779297</ele>
        <time>2017-07-21T06:13:48Z</time>
      </trkpt>
      <trkpt lat="48.11296" lon="7.11887">
        <ele>729</ele>
        <time>2017-07-21T06:13:49Z</time>
      </trkpt>
      <trkpt lat="48.11282" lon="7.11893">
        <ele>730</ele>
        <time>2017-07-21T06:13:56Z</time>
      </trkpt>
      <trkpt lat="48.1128" lon="7.11894">
        <ele>730</ele>
        <time>2017-07-21T06:13:57Z</time>
      </trkpt>
      <trkpt lat="48.11272" lon="7.119">
        <ele>730.59997558594</ele>
        <time>2017-07-21T06:14:02Z</time>
      </trkpt>
      <trkpt lat="48.11264" lon="7.11903">
        <ele>731</ele>
        <time>2017-07-21T06:14:06Z</time>
      </trkpt>
      <trkpt lat="48.11257" lon="7.11906">
        <ele>731.40002441406</ele>
        <time>2017-07-21T06:14:09Z</time>
      </trkpt>
      <trkpt lat="48.11248" lon="7.1191">
        <ele>732.20001220703</ele>
        <time>2017-07-21T06:14:14Z</time>
      </trkpt>
      <trkpt lat="48.11245" lon="7.11912">
        <ele>732.40002441406</ele>
        <time>2017-07-21T06:14:16Z</time>
      </trkpt>
      <trkpt lat="48.11234" lon="7.11915">
        <ele>733.20001220703</ele>
        <time>2017-07-21T06:14:21Z</time>
      </trkpt>
      <trkpt lat="48.11226" lon="7.11917">
        <ele>733.79998779297</ele>
        <time>2017-07-21T06:14:25Z</time>
      </trkpt>
      <trkpt lat="48.11218" lon="7.11917">
        <ele>734.40002441406</ele>
        <time>2017-07-21T06:14:29Z</time>
      </trkpt>
      <trkpt lat="48.1121" lon="7.1192">
        <ele>734.79998779297</ele>
        <time>2017-07-21T06:14:33Z</time>
      </trkpt>
      <trkpt lat="48.11205" lon="7.1192">
        <ele>735.40002441406</ele>
        <time>2017-07-21T06:14:36Z</time>
      </trkpt>
      <trkpt lat="48.11197" lon="7.11917">
        <ele>735.79998779297</ele>
        <time>2017-07-21T06:14:40Z</time>
      </trkpt>
      <trkpt lat="48.11192" lon="7.11916">
        <ele>736.59997558594</ele>
        <time>2017-07-21T06:14:43Z</time>
      </trkpt>
      <trkpt lat="48.11185" lon="7.11911">
        <ele>737.40002441406</ele>
        <time>2017-07-21T06:14:48Z</time>
      </trkpt>
      <trkpt lat="48.11183" lon="7.1191">
        <ele>737.59997558594</ele>
        <time>2017-07-21T06:14:49Z</time>
      </trkpt>
      <trkpt lat="48.11176" lon="7.11902">
        <ele>738.40002441406</ele>
        <time>2017-07-21T06:14:54Z</time>
      </trkpt>
      <trkpt lat="48.11175" lon="7.119">
        <ele>738.59997558594</ele>
        <time>2017-07-21T06:14:55Z</time>
      </trkpt>
      <trkpt lat="48.11174" lon="7.11899">
        <ele>738.79998779297</ele>
        <time>2017-07-21T06:14:56Z</time>
      </trkpt>
      <trkpt lat="48.1117" lon="7.11893">
        <ele>740</ele>
        <time>2017-07-21T06:15:38Z</time>
      </trkpt>
      <trkpt lat="48.11164" lon="7.1189">
        <ele>740.20001220703</ele>
        <time>2017-07-21T06:15:42Z</time>
      </trkpt>
      <trkpt lat="48.1116" lon="7.11889">
        <ele>740.40002441406</ele>
        <time>2017-07-21T06:15:44Z</time>
      </trkpt>
      <trkpt lat="48.11158" lon="7.11886">
        <ele>740.59997558594</ele>
        <time>2017-07-21T06:15:46Z</time>
      </trkpt>
      <trkpt lat="48.11154" lon="7.11881">
        <ele>741.20001220703</ele>
        <time>2017-07-21T06:15:49Z</time>
      </trkpt>
      <trkpt lat="48.11151" lon="7.11878">
        <ele>741.59997558594</ele>
        <time>2017-07-21T06:15:51Z</time>
      </trkpt>
      <trkpt lat="48.11147" lon="7.11872">
        <ele>742</ele>
        <time>2017-07-21T06:15:54Z</time>
      </trkpt>
      <trkpt lat="48.11146" lon="7.11871">
        <ele>742.40002441406</ele>
        <time>2017-07-21T06:15:55Z</time>
      </trkpt>
      <trkpt lat="48.11143" lon="7.11869">
        <ele>742.59997558594</ele>
        <time>2017-07-21T06:15:57Z</time>
      </trkpt>
      <trkpt lat="48.11137" lon="7.11863">
        <ele>743.40002441406</ele>
        <time>2017-07-21T06:16:01Z</time>
      </trkpt>
      <trkpt lat="48.11136" lon="7.11861">
        <ele>743.59997558594</ele>
        <time>2017-07-21T06:16:02Z</time>
      </trkpt>
      <trkpt lat="48.11129" lon="7.11853">
        <ele>744.59997558594</ele>
        <time>2017-07-21T06:16:07Z</time>
      </trkpt>
      <trkpt lat="48.11124" lon="7.11848">
        <ele>745.20001220703</ele>
        <time>2017-07-21T06:16:11Z</time>
      </trkpt>
      <trkpt lat="48.11122" lon="7.11845">
        <ele>745.59997558594</ele>
        <time>2017-07-21T06:16:13Z</time>
      </trkpt>
      <trkpt lat="48.11117" lon="7.11841">
        <ele>746.20001220703</ele>
        <time>2017-07-21T06:16:17Z</time>
      </trkpt>
      <trkpt lat="48.11114" lon="7.11839">
        <ele>746.59997558594</ele>
        <time>2017-07-21T06:16:19Z</time>
      </trkpt>
      <trkpt lat="48.11108" lon="7.11832">
        <ele>747.40002441406</ele>
        <time>2017-07-21T06:16:24Z</time>
      </trkpt>
      <trkpt lat="48.11106" lon="7.11829">
        <ele>747.79998779297</ele>
        <time>2017-07-21T06:16:26Z</time>
      </trkpt>
      <trkpt lat="48.11099" lon="7.11819">
        <ele>748.79998779297</ele>
        <time>2017-07-21T06:16:33Z</time>
      </trkpt>
      <trkpt lat="48.11098" lon="7.11817">
        <ele>749</ele>
        <time>2017-07-21T06:16:34Z</time>
      </trkpt>
      <trkpt lat="48.1109" lon="7.11809">
        <ele>750</ele>
        <time>2017-07-21T06:16:40Z</time>
      </trkpt>
      <trkpt lat="48.11087" lon="7.11806">
        <ele>750.40002441406</ele>
        <time>2017-07-21T06:16:42Z</time>
      </trkpt>
      <trkpt lat="48.11083" lon="7.11801">
        <ele>751</ele>
        <time>2017-07-21T06:16:45Z</time>
      </trkpt>
      <trkpt lat="48.11076" lon="7.11795">
        <ele>752</ele>
        <time>2017-07-21T06:16:50Z</time>
      </trkpt>
      <trkpt lat="48.11074" lon="7.11791">
        <ele>752.20001220703</ele>
        <time>2017-07-21T06:16:52Z</time>
      </trkpt>
      <trkpt lat="48.11064" lon="7.11783">
        <ele>753.40002441406</ele>
        <time>2017-07-21T06:16:58Z</time>
      </trkpt>
      <trkpt lat="48.11062" lon="7.11782">
        <ele>753.59997558594</ele>
        <time>2017-07-21T06:16:59Z</time>
      </trkpt>
      <trkpt lat="48.11054" lon="7.11776">
        <ele>754.59997558594</ele>
        <time>2017-07-21T06:17:05Z</time>
      </trkpt>
      <trkpt lat="48.1105" lon="7.11771">
        <ele>755</ele>
        <time>2017-07-21T06:17:08Z</time>
      </trkpt>
      <trkpt lat="48.11044" lon="7.11767">
        <ele>755.79998779297</ele>
        <time>2017-07-21T06:17:12Z</time>
      </trkpt>
      <trkpt lat="48.1104" lon="7.11763">
        <ele>756.20001220703</ele>
        <time>2017-07-21T06:17:15Z</time>
      </trkpt>
      <trkpt lat="48.11036" lon="7.1176">
        <ele>756.79998779297</ele>
        <time>2017-07-21T06:17:18Z</time>
      </trkpt>
      <trkpt lat="48.11027" lon="7.11751">
        <ele>757.79998779297</ele>
        <time>2017-07-21T06:17:25Z</time>
      </trkpt>
      <trkpt lat="48.11019" lon="7.11742">
        <ele>758.59997558594</ele>
        <time>2017-07-21T06:17:32Z</time>
      </trkpt>
      <trkpt lat="48.11017" lon="7.11739">
        <ele>759</ele>
        <time>2017-07-21T06:17:34Z</time>
      </trkpt>
      <trkpt lat="48.11008" lon="7.11729">
        <ele>760</ele>
        <time>2017-07-21T06:17:41Z</time>
      </trkpt>
      <trkpt lat="48.10998" lon="7.11719">
        <ele>761</ele>
        <time>2017-07-21T06:17:48Z</time>
      </trkpt>
      <trkpt lat="48.10997" lon="7.11717">
        <ele>761.20001220703</ele>
        <time>2017-07-21T06:17:49Z</time>
      </trkpt>
      <trkpt lat="48.10988" lon="7.11702">
        <ele>762.20001220703</ele>
        <time>2017-07-21T06:17:56Z</time>
      </trkpt>
      <trkpt lat="48.10986" lon="7.11697">
        <ele>762.40002441406</ele>
        <time>2017-07-21T06:17:58Z</time>
      </trkpt>
      <trkpt lat="48.10979" lon="7.11682">
        <ele>763.20001220703</ele>
        <time>2017-07-21T06:18:05Z</time>
      </trkpt>
      <trkpt lat="48.10977" lon="7.11677">
        <ele>763.40002441406</ele>
        <time>2017-07-21T06:18:07Z</time>
      </trkpt>
      <trkpt lat="48.10974" lon="7.11657">
        <ele>764.40002441406</ele>
        <time>2017-07-21T06:18:14Z</time>
      </trkpt>
      <trkpt lat="48.10971" lon="7.11635">
        <ele>765.40002441406</ele>
        <time>2017-07-21T06:18:22Z</time>
      </trkpt>
      <trkpt lat="48.10971" lon="7.11629">
        <ele>765.79998779297</ele>
        <time>2017-07-21T06:18:24Z</time>
      </trkpt>
      <trkpt lat="48.1097" lon="7.11612">
        <ele>766.59997558594</ele>
        <time>2017-07-21T06:18:30Z</time>
      </trkpt>
      <trkpt lat="48.1097" lon="7.116">
        <ele>767.20001220703</ele>
        <time>2017-07-21T06:18:34Z</time>
      </trkpt>
      <trkpt lat="48.1097" lon="7.11593">
        <ele>767.59997558594</ele>
        <time>2017-07-21T06:18:37Z</time>
      </trkpt>
      <trkpt lat="48.1097" lon="7.11582">
        <ele>768.20001220703</ele>
        <time>2017-07-21T06:18:41Z</time>
      </trkpt>
      <trkpt lat="48.10971" lon="7.11577">
        <ele>768.59997558594</ele>
        <time>2017-07-21T06:18:43Z</time>
      </trkpt>
      <trkpt lat="48.10975" lon="7.11563">
        <ele>769.40002441406</ele>
        <time>2017-07-21T06:18:48Z</time>
      </trkpt>
      <trkpt lat="48.10976" lon="7.11561">
        <ele>769.59997558594</ele>
        <time>2017-07-21T06:18:49Z</time>
      </trkpt>
      <trkpt lat="48.10979" lon="7.11548">
        <ele>770.40002441406</ele>
        <time>2017-07-21T06:18:54Z</time>
      </trkpt>
      <trkpt lat="48.10981" lon="7.1154">
        <ele>770.79998779297</ele>
        <time>2017-07-21T06:18:57Z</time>
      </trkpt>
      <trkpt lat="48.10983" lon="7.11532">
        <ele>771</ele>
        <time>2017-07-21T06:19:00Z</time>
      </trkpt>
      <trkpt lat="48.10987" lon="7.1152">
        <ele>771.79998779297</ele>
        <time>2017-07-21T06:19:05Z</time>
      </trkpt>
      <trkpt lat="48.10989" lon="7.11512">
        <ele>772.20001220703</ele>
        <time>2017-07-21T06:19:08Z</time>
      </trkpt>
      <trkpt lat="48.10993" lon="7.115">
        <ele>772.79998779297</ele>
        <time>2017-07-21T06:19:13Z</time>
      </trkpt>
      <trkpt lat="48.10996" lon="7.11492">
        <ele>773.20001220703</ele>
        <time>2017-07-21T06:19:16Z</time>
      </trkpt>
      <trkpt lat="48.11001" lon="7.11477">
        <ele>774</ele>
        <time>2017-07-21T06:19:22Z</time>
      </trkpt>
      <trkpt lat="48.11006" lon="7.11469">
        <ele>774.40002441406</ele>
        <time>2017-07-21T06:19:26Z</time>
      </trkpt>
      <trkpt lat="48.11013" lon="7.11459">
        <ele>775</ele>
        <time>2017-07-21T06:19:31Z</time>
      </trkpt>
      <trkpt lat="48.11019" lon="7.11453">
        <ele>775.59997558594</ele>
        <time>2017-07-21T06:19:34Z</time>
      </trkpt>
      <trkpt lat="48.11028" lon="7.11446">
        <ele>776.20001220703</ele>
        <time>2017-07-21T06:19:39Z</time>
      </trkpt>
      <trkpt lat="48.11034" lon="7.11441">
        <ele>776.40002441406</ele>
        <time>2017-07-21T06:19:42Z</time>
      </trkpt>
      <trkpt lat="48.11048" lon="7.1143">
        <ele>777.20001220703</ele>
        <time>2017-07-21T06:19:49Z</time>
      </trkpt>
      <trkpt lat="48.1105" lon="7.11429">
        <ele>777.20001220703</ele>
        <time>2017-07-21T06:19:50Z</time>
      </trkpt>
      <trkpt lat="48.11071" lon="7.11412">
        <ele>778</ele>
        <time>2017-07-21T06:20:00Z</time>
      </trkpt>
      <trkpt lat="48.11073" lon="7.11411">
        <ele>778.20001220703</ele>
        <time>2017-07-21T06:20:01Z</time>
      </trkpt>
      <trkpt lat="48.11088" lon="7.11404">
        <ele>778.40002441406</ele>
        <time>2017-07-21T06:20:07Z</time>
      </trkpt>
      <trkpt lat="48.11113" lon="7.11392">
        <ele>778.79998779297</ele>
        <time>2017-07-21T06:20:16Z</time>
      </trkpt>
      <trkpt lat="48.11131" lon="7.11385">
        <ele>779.20001220703</ele>
        <time>2017-07-21T06:20:22Z</time>
      </trkpt>
      <trkpt lat="48.11138" lon="7.11384">
        <ele>779.20001220703</ele>
        <time>2017-07-21T06:20:24Z</time>
      </trkpt>
      <trkpt lat="48.11153" lon="7.11375">
        <ele>779.59997558594</ele>
        <time>2017-07-21T06:20:29Z</time>
      </trkpt>
      <trkpt lat="48.1117" lon="7.11366">
        <ele>780.20001220703</ele>
        <time>2017-07-21T06:20:35Z</time>
      </trkpt>
      <trkpt lat="48.11175" lon="7.11365">
        <ele>780.59997558594</ele>
        <time>2017-07-21T06:20:37Z</time>
      </trkpt>
      <trkpt lat="48.11189" lon="7.11353">
        <ele>781.40002441406</ele>
        <time>2017-07-21T06:20:43Z</time>
      </trkpt>
      <trkpt lat="48.11201" lon="7.11337">
        <ele>782.20001220703</ele>
        <time>2017-07-21T06:20:49Z</time>
      </trkpt>
      <trkpt lat="48.11203" lon="7.11334">
        <ele>782.40002441406</ele>
        <time>2017-07-21T06:20:50Z</time>
      </trkpt>
      <trkpt lat="48.11212" lon="7.1132">
        <ele>783.20001220703</ele>
        <time>2017-07-21T06:20:55Z</time>
      </trkpt>
      <trkpt lat="48.11216" lon="7.11315">
        <ele>783.59997558594</ele>
        <time>2017-07-21T06:20:57Z</time>
      </trkpt>
      <trkpt lat="48.11222" lon="7.11308">
        <ele>784</ele>
        <time>2017-07-21T06:21:00Z</time>
      </trkpt>
      <trkpt lat="48.11229" lon="7.11294">
        <ele>784.59997558594</ele>
        <time>2017-07-21T06:21:05Z</time>
      </trkpt>
      <trkpt lat="48.11233" lon="7.11287">
        <ele>785.20001220703</ele>
        <time>2017-07-21T06:21:08Z</time>
      </trkpt>
      <trkpt lat="48.11237" lon="7.11279">
        <ele>785.79998779297</ele>
        <time>2017-07-21T06:21:11Z</time>
      </trkpt>
      <trkpt lat="48.1124" lon="7.11272">
        <ele>786.20001220703</ele>
        <time>2017-07-21T06:21:14Z</time>
      </trkpt>
      <trkpt lat="48.11245" lon="7.11261">
        <ele>786.79998779297</ele>
        <time>2017-07-21T06:21:18Z</time>
      </trkpt>
      <trkpt lat="48.11248" lon="7.11253">
        <ele>787.40002441406</ele>
        <time>2017-07-21T06:21:21Z</time>
      </trkpt>
      <trkpt lat="48.11251" lon="7.11246">
        <ele>787.79998779297</ele>
        <time>2017-07-21T06:21:24Z</time>
      </trkpt>
      <trkpt lat="48.11258" lon="7.1123">
        <ele>788.79998779297</ele>
        <time>2017-07-21T06:21:30Z</time>
      </trkpt>
      <trkpt lat="48.11259" lon="7.11228">
        <ele>789</ele>
        <time>2017-07-21T06:21:31Z</time>
      </trkpt>
      <trkpt lat="48.11268" lon="7.11211">
        <ele>790</ele>
        <time>2017-07-21T06:21:38Z</time>
      </trkpt>
      <trkpt lat="48.11277" lon="7.11196">
        <ele>791</ele>
        <time>2017-07-21T06:21:45Z</time>
      </trkpt>
      <trkpt lat="48.11287" lon="7.11182">
        <ele>792.20001220703</ele>
        <time>2017-07-21T06:21:52Z</time>
      </trkpt>
      <trkpt lat="48.11289" lon="7.1118">
        <ele>792.40002441406</ele>
        <time>2017-07-21T06:21:53Z</time>
      </trkpt>
      <trkpt lat="48.113" lon="7.11171">
        <ele>793.20001220703</ele>
        <time>2017-07-21T06:21:59Z</time>
      </trkpt>
      <trkpt lat="48.11302" lon="7.11169">
        <ele>793.40002441406</ele>
        <time>2017-07-21T06:22:00Z</time>
      </trkpt>
      <trkpt lat="48.1131" lon="7.11163">
        <ele>794</ele>
        <time>2017-07-21T06:22:05Z</time>
      </trkpt>
      <trkpt lat="48.11314" lon="7.11161">
        <ele>794.20001220703</ele>
        <time>2017-07-21T06:22:07Z</time>
      </trkpt>
      <trkpt lat="48.11319" lon="7.11159">
        <ele>794.79998779297</ele>
        <time>2017-07-21T06:22:10Z</time>
      </trkpt>
      <trkpt lat="48.11325" lon="7.11157">
        <ele>795.40002441406</ele>
        <time>2017-07-21T06:22:13Z</time>
      </trkpt>
      <trkpt lat="48.11331" lon="7.11156">
        <ele>795.79998779297</ele>
        <time>2017-07-21T06:22:16Z</time>
      </trkpt>
      <trkpt lat="48.1134" lon="7.11157">
        <ele>796.59997558594</ele>
        <time>2017-07-21T06:22:21Z</time>
      </trkpt>
      <trkpt lat="48.11344" lon="7.11157">
        <ele>796.79998779297</ele>
        <time>2017-07-21T06:22:23Z</time>
      </trkpt>
      <trkpt lat="48.11354" lon="7.1116">
        <ele>797.59997558594</ele>
        <time>2017-07-21T06:22:29Z</time>
      </trkpt>
      <trkpt lat="48.11358" lon="7.11162">
        <ele>798</ele>
        <time>2017-07-21T06:22:31Z</time>
      </trkpt>
      <trkpt lat="48.11368" lon="7.11167">
        <ele>798.79998779297</ele>
        <time>2017-07-21T06:22:36Z</time>
      </trkpt>
      <trkpt lat="48.1137" lon="7.11168">
        <ele>798.79998779297</ele>
        <time>2017-07-21T06:22:37Z</time>
      </trkpt>
      <trkpt lat="48.11383" lon="7.11175">
        <ele>799.79998779297</ele>
        <time>2017-07-21T06:22:43Z</time>
      </trkpt>
      <trkpt lat="48.11385" lon="7.11176">
        <ele>800</ele>
        <time>2017-07-21T06:22:44Z</time>
      </trkpt>
      <trkpt lat="48.11395" lon="7.11182">
        <ele>800.79998779297</ele>
        <time>2017-07-21T06:22:50Z</time>
      </trkpt>
      <trkpt lat="48.11401" lon="7.11185">
        <ele>801.40002441406</ele>
        <time>2017-07-21T06:22:53Z</time>
      </trkpt>
      <trkpt lat="48.1141" lon="7.1119">
        <ele>802</ele>
        <time>2017-07-21T06:22:57Z</time>
      </trkpt>
      <trkpt lat="48.11419" lon="7.11195">
        <ele>802.59997558594</ele>
        <time>2017-07-21T06:23:01Z</time>
      </trkpt>
      <trkpt lat="48.11423" lon="7.11196">
        <ele>803</ele>
        <time>2017-07-21T06:23:03Z</time>
      </trkpt>
      <trkpt lat="48.11434" lon="7.11201">
        <ele>803.79998779297</ele>
        <time>2017-07-21T06:23:08Z</time>
      </trkpt>
      <trkpt lat="48.11437" lon="7.11201">
        <ele>804.20001220703</ele>
        <time>2017-07-21T06:23:09Z</time>
      </trkpt>
      <trkpt lat="48.11455" lon="7.11207">
        <ele>805.20001220703</ele>
        <time>2017-07-21T06:23:17Z</time>
      </trkpt>
      <trkpt lat="48.11472" lon="7.11215">
        <ele>806.20001220703</ele>
        <time>2017-07-21T06:23:25Z</time>
      </trkpt>
      <trkpt lat="48.11474" lon="7.11215">
        <ele>806.40002441406</ele>
        <time>2017-07-21T06:23:26Z</time>
      </trkpt>
      <trkpt lat="48.11491" lon="7.11222">
        <ele>807</ele>
        <time>2017-07-21T06:23:33Z</time>
      </trkpt>
      <trkpt lat="48.11498" lon="7.11226">
        <ele>807.20001220703</ele>
        <time>2017-07-21T06:23:36Z</time>
      </trkpt>
      <trkpt lat="48.11506" lon="7.11232">
        <ele>807.79998779297</ele>
        <time>2017-07-21T06:23:40Z</time>
      </trkpt>
      <trkpt lat="48.11517" lon="7.11246">
        <ele>808.40002441406</ele>
        <time>2017-07-21T06:23:46Z</time>
      </trkpt>
      <trkpt lat="48.11519" lon="7.11248">
        <ele>808.59997558594</ele>
        <time>2017-07-21T06:23:47Z</time>
      </trkpt>
      <trkpt lat="48.11532" lon="7.1127">
        <ele>809.40002441406</ele>
        <time>2017-07-21T06:23:55Z</time>
      </trkpt>
      <trkpt lat="48.11533" lon="7.11273">
        <ele>809.59997558594</ele>
        <time>2017-07-21T06:23:56Z</time>
      </trkpt>
      <trkpt lat="48.11539" lon="7.11289">
        <ele>810.40002441406</ele>
        <time>2017-07-21T06:24:01Z</time>
      </trkpt>
      <trkpt lat="48.11541" lon="7.11291">
        <ele>810.59997558594</ele>
        <time>2017-07-21T06:24:02Z</time>
      </trkpt>
      <trkpt lat="48.11549" lon="7.11309">
        <ele>811.20001220703</ele>
        <time>2017-07-21T06:24:08Z</time>
      </trkpt>
      <trkpt lat="48.11553" lon="7.11319">
        <ele>811.59997558594</ele>
        <time>2017-07-21T06:24:11Z</time>
      </trkpt>
      <trkpt lat="48.11558" lon="7.11332">
        <ele>812.20001220703</ele>
        <time>2017-07-21T06:24:15Z</time>
      </trkpt>
      <trkpt lat="48.11563" lon="7.11345">
        <ele>812.79998779297</ele>
        <time>2017-07-21T06:24:19Z</time>
      </trkpt>
      <trkpt lat="48.11569" lon="7.1136">
        <ele>813.59997558594</ele>
        <time>2017-07-21T06:24:23Z</time>
      </trkpt>
      <trkpt lat="48.11571" lon="7.11367">
        <ele>813.79998779297</ele>
        <time>2017-07-21T06:24:25Z</time>
      </trkpt>
      <trkpt lat="48.11577" lon="7.11383">
        <ele>814.59997558594</ele>
        <time>2017-07-21T06:24:30Z</time>
      </trkpt>
      <trkpt lat="48.11579" lon="7.11389">
        <ele>815</ele>
        <time>2017-07-21T06:24:32Z</time>
      </trkpt>
      <trkpt lat="48.11586" lon="7.11403">
        <ele>815.79998779297</ele>
        <time>2017-07-21T06:24:37Z</time>
      </trkpt>
      <trkpt lat="48.11587" lon="7.11405">
        <ele>816</ele>
        <time>2017-07-21T06:24:38Z</time>
      </trkpt>
      <trkpt lat="48.11595" lon="7.11421">
        <ele>816.79998779297</ele>
        <time>2017-07-21T06:24:44Z</time>
      </trkpt>
      <trkpt lat="48.11596" lon="7.11423">
        <ele>817.20001220703</ele>
        <time>2017-07-21T06:24:45Z</time>
      </trkpt>
      <trkpt lat="48.11604" lon="7.1144">
        <ele>818.40002441406</ele>
        <time>2017-07-21T06:24:52Z</time>
      </trkpt>
      <trkpt lat="48.11605" lon="7.11443">
        <ele>818.40002441406</ele>
        <time>2017-07-21T06:24:53Z</time>
      </trkpt>
      <trkpt lat="48.11613" lon="7.11458">
        <ele>819.40002441406</ele>
        <time>2017-07-21T06:24:59Z</time>
      </trkpt>
      <trkpt lat="48.11618" lon="7.11465">
        <ele>819.79998779297</ele>
        <time>2017-07-21T06:25:02Z</time>
      </trkpt>
      <trkpt lat="48.11628" lon="7.11479">
        <ele>820.59997558594</ele>
        <time>2017-07-21T06:25:08Z</time>
      </trkpt>
      <trkpt lat="48.11633" lon="7.11485">
        <ele>821.20001220703</ele>
        <time>2017-07-21T06:25:11Z</time>
      </trkpt>
      <trkpt lat="48.11638" lon="7.11493">
        <ele>821.59997558594</ele>
        <time>2017-07-21T06:25:14Z</time>
      </trkpt>
      <trkpt lat="48.11647" lon="7.11508">
        <ele>822.59997558594</ele>
        <time>2017-07-21T06:25:20Z</time>
      </trkpt>
      <trkpt lat="48.11648" lon="7.1151">
        <ele>822.59997558594</ele>
        <time>2017-07-21T06:25:21Z</time>
      </trkpt>
      <trkpt lat="48.11658" lon="7.11524">
        <ele>823.59997558594</ele>
        <time>2017-07-21T06:25:27Z</time>
      </trkpt>
      <trkpt lat="48.11662" lon="7.11529">
        <ele>823.79998779297</ele>
        <time>2017-07-21T06:25:29Z</time>
      </trkpt>
      <trkpt lat="48.11668" lon="7.11538">
        <ele>824.59997558594</ele>
        <time>2017-07-21T06:25:33Z</time>
      </trkpt>
      <trkpt lat="48.11671" lon="7.11542">
        <ele>825</ele>
        <time>2017-07-21T06:25:35Z</time>
      </trkpt>
      <trkpt lat="48.11678" lon="7.11553">
        <ele>825.59997558594</ele>
        <time>2017-07-21T06:25:40Z</time>
      </trkpt>
      <trkpt lat="48.11682" lon="7.11557">
        <ele>826</ele>
        <time>2017-07-21T06:25:42Z</time>
      </trkpt>
      <trkpt lat="48.11693" lon="7.11568">
        <ele>827</ele>
        <time>2017-07-21T06:25:48Z</time>
      </trkpt>
      <trkpt lat="48.11702" lon="7.11578">
        <ele>828</ele>
        <time>2017-07-21T06:25:54Z</time>
      </trkpt>
      <trkpt lat="48.11703" lon="7.1158">
        <ele>828</ele>
        <time>2017-07-21T06:25:55Z</time>
      </trkpt>
      <trkpt lat="48.11712" lon="7.1159">
        <ele>829.20001220703</ele>
        <time>2017-07-21T06:26:01Z</time>
      </trkpt>
      <trkpt lat="48.11724" lon="7.11598">
        <ele>830.20001220703</ele>
        <time>2017-07-21T06:26:08Z</time>
      </trkpt>
      <trkpt lat="48.11737" lon="7.11608">
        <ele>831.40002441406</ele>
        <time>2017-07-21T06:26:15Z</time>
      </trkpt>
      <trkpt lat="48.1175" lon="7.11616">
        <ele>832.40002441406</ele>
        <time>2017-07-21T06:26:21Z</time>
      </trkpt>
      <trkpt lat="48.11756" lon="7.11618">
        <ele>833</ele>
        <time>2017-07-21T06:26:24Z</time>
      </trkpt>
      <trkpt lat="48.11765" lon="7.11622">
        <ele>833.59997558594</ele>
        <time>2017-07-21T06:26:28Z</time>
      </trkpt>
      <trkpt lat="48.11774" lon="7.11626">
        <ele>834.20001220703</ele>
        <time>2017-07-21T06:26:33Z</time>
      </trkpt>
      <trkpt lat="48.11778" lon="7.11628">
        <ele>834.59997558594</ele>
        <time>2017-07-21T06:26:35Z</time>
      </trkpt>
      <trkpt lat="48.11789" lon="7.11633">
        <ele>835.20001220703</ele>
        <time>2017-07-21T06:26:40Z</time>
      </trkpt>
      <trkpt lat="48.11794" lon="7.11635">
        <ele>835.79998779297</ele>
        <time>2017-07-21T06:26:43Z</time>
      </trkpt>
      <trkpt lat="48.11806" lon="7.11637">
        <ele>837</ele>
        <time>2017-07-21T06:26:49Z</time>
      </trkpt>
      <trkpt lat="48.11816" lon="7.11641">
        <ele>837.79998779297</ele>
        <time>2017-07-21T06:26:55Z</time>
      </trkpt>
      <trkpt lat="48.11817" lon="7.11642">
        <ele>838</ele>
        <time>2017-07-21T06:26:56Z</time>
      </trkpt>
      <trkpt lat="48.11826" lon="7.11645">
        <ele>838.79998779297</ele>
        <time>2017-07-21T06:27:01Z</time>
      </trkpt>
      <trkpt lat="48.11832" lon="7.11646">
        <ele>839.20001220703</ele>
        <time>2017-07-21T06:27:04Z</time>
      </trkpt>
      <trkpt lat="48.11836" lon="7.11649">
        <ele>839.59997558594</ele>
        <time>2017-07-21T06:27:07Z</time>
      </trkpt>
      <trkpt lat="48.11843" lon="7.1165">
        <ele>840.40002441406</ele>
        <time>2017-07-21T06:27:10Z</time>
      </trkpt>
      <trkpt lat="48.11853" lon="7.11652">
        <ele>841</ele>
        <time>2017-07-21T06:27:15Z</time>
      </trkpt>
      <trkpt lat="48.1186" lon="7.11653">
        <ele>841.40002441406</ele>
        <time>2017-07-21T06:27:18Z</time>
      </trkpt>
      <trkpt lat="48.11869" lon="7.11655">
        <ele>842</ele>
        <time>2017-07-21T06:27:22Z</time>
      </trkpt>
      <trkpt lat="48.11875" lon="7.11654">
        <ele>842.40002441406</ele>
        <time>2017-07-21T06:27:25Z</time>
      </trkpt>
      <trkpt lat="48.11882" lon="7.11656">
        <ele>843</ele>
        <time>2017-07-21T06:27:29Z</time>
      </trkpt>
      <trkpt lat="48.11889" lon="7.11656">
        <ele>843.59997558594</ele>
        <time>2017-07-21T06:27:33Z</time>
      </trkpt>
      <trkpt lat="48.11893" lon="7.11656">
        <ele>844</ele>
        <time>2017-07-21T06:27:35Z</time>
      </trkpt>
      <trkpt lat="48.11906" lon="7.11657">
        <ele>844.79998779297</ele>
        <time>2017-07-21T06:27:41Z</time>
      </trkpt>
      <trkpt lat="48.11912" lon="7.11658">
        <ele>845.20001220703</ele>
        <time>2017-07-21T06:27:44Z</time>
      </trkpt>
      <trkpt lat="48.11921" lon="7.1166">
        <ele>845.79998779297</ele>
        <time>2017-07-21T06:27:48Z</time>
      </trkpt>
      <trkpt lat="48.11926" lon="7.11663">
        <ele>846.40002441406</ele>
        <time>2017-07-21T06:27:51Z</time>
      </trkpt>
      <trkpt lat="48.11934" lon="7.11668">
        <ele>847</ele>
        <time>2017-07-21T06:27:55Z</time>
      </trkpt>
      <trkpt lat="48.11938" lon="7.11668">
        <ele>847.40002441406</ele>
        <time>2017-07-21T06:27:57Z</time>
      </trkpt>
      <trkpt lat="48.11941" lon="7.11668">
        <ele>847.59997558594</ele>
        <time>2017-07-21T06:27:59Z</time>
      </trkpt>
      <trkpt lat="48.11947" lon="7.1167">
        <ele>848</ele>
        <time>2017-07-21T06:28:02Z</time>
      </trkpt>
      <trkpt lat="48.11949" lon="7.1167">
        <ele>848.20001220703</ele>
        <time>2017-07-21T06:28:03Z</time>
      </trkpt>
      <trkpt lat="48.11961" lon="7.11673">
        <ele>849</ele>
        <time>2017-07-21T06:28:10Z</time>
      </trkpt>
      <trkpt lat="48.11975" lon="7.11682">
        <ele>849.59997558594</ele>
        <time>2017-07-21T06:28:15Z</time>
      </trkpt>
      <trkpt lat="48.1198" lon="7.11684">
        <ele>850.20001220703</ele>
        <time>2017-07-21T06:28:18Z</time>
      </trkpt>
      <trkpt lat="48.11986" lon="7.11687">
        <ele>850.59997558594</ele>
        <time>2017-07-21T06:28:21Z</time>
      </trkpt>
      <trkpt lat="48.11992" lon="7.11692">
        <ele>851.20001220703</ele>
        <time>2017-07-21T06:28:24Z</time>
      </trkpt>
      <trkpt lat="48.12003" lon="7.11699">
        <ele>851.59997558594</ele>
        <time>2017-07-21T06:28:29Z</time>
      </trkpt>
      <trkpt lat="48.12013" lon="7.11704">
        <ele>852.20001220703</ele>
        <time>2017-07-21T06:28:33Z</time>
      </trkpt>
      <trkpt lat="48.12021" lon="7.1171">
        <ele>852.59997558594</ele>
        <time>2017-07-21T06:28:36Z</time>
      </trkpt>
      <trkpt lat="48.12033" lon="7.11719">
        <ele>853.20001220703</ele>
        <time>2017-07-21T06:28:43Z</time>
      </trkpt>
      <trkpt lat="48.12034" lon="7.11721">
        <ele>853.40002441406</ele>
        <time>2017-07-21T06:28:44Z</time>
      </trkpt>
      <trkpt lat="48.12047" lon="7.11732">
        <ele>854.20001220703</ele>
        <time>2017-07-21T06:28:51Z</time>
      </trkpt>
      <trkpt lat="48.12048" lon="7.11734">
        <ele>854.40002441406</ele>
        <time>2017-07-21T06:28:52Z</time>
      </trkpt>
      <trkpt lat="48.12063" lon="7.11747">
        <ele>855</ele>
        <time>2017-07-21T06:28:58Z</time>
      </trkpt>
      <trkpt lat="48.12069" lon="7.11752">
        <ele>855.40002441406</ele>
        <time>2017-07-21T06:29:01Z</time>
      </trkpt>
      <trkpt lat="48.12082" lon="7.1176">
        <ele>855.79998779297</ele>
        <time>2017-07-21T06:29:06Z</time>
      </trkpt>
      <trkpt lat="48.1209" lon="7.11764">
        <ele>856.40002441406</ele>
        <time>2017-07-21T06:29:09Z</time>
      </trkpt>
      <trkpt lat="48.12103" lon="7.11774">
        <ele>857.20001220703</ele>
        <time>2017-07-21T06:29:14Z</time>
      </trkpt>
      <trkpt lat="48.12108" lon="7.11777">
        <ele>857.40002441406</ele>
        <time>2017-07-21T06:29:16Z</time>
      </trkpt>
      <trkpt lat="48.12121" lon="7.11783">
        <ele>859.20001220703</ele>
        <time>2017-07-21T06:32:03Z</time>
      </trkpt>
      <trkpt lat="48.12128" lon="7.11788">
        <ele>859.59997558594</ele>
        <time>2017-07-21T06:32:07Z</time>
      </trkpt>
      <trkpt lat="48.12133" lon="7.11793">
        <ele>860.20001220703</ele>
        <time>2017-07-21T06:32:10Z</time>
      </trkpt>
      <trkpt lat="48.12136" lon="7.11796">
        <ele>860.20001220703</ele>
        <time>2017-07-21T06:32:11Z</time>
      </trkpt>
      <trkpt lat="48.12143" lon="7.11802">
        <ele>860.79998779297</ele>
        <time>2017-07-21T06:32:14Z</time>
      </trkpt>
      <trkpt lat="48.1215" lon="7.11807">
        <ele>861.40002441406</ele>
        <time>2017-07-21T06:32:17Z</time>
      </trkpt>
      <trkpt lat="48.12161" lon="7.11811">
        <ele>862.20001220703</ele>
        <time>2017-07-21T06:32:21Z</time>
      </trkpt>
      <trkpt lat="48.12163" lon="7.1181">
        <ele>862.40002441406</ele>
        <time>2017-07-21T06:32:22Z</time>
      </trkpt>
      <trkpt lat="48.12175" lon="7.11812">
        <ele>863.59997558594</ele>
        <time>2017-07-21T06:32:29Z</time>
      </trkpt>
      <trkpt lat="48.1219" lon="7.11814">
        <ele>864.59997558594</ele>
        <time>2017-07-21T06:32:36Z</time>
      </trkpt>
      <trkpt lat="48.12196" lon="7.11817">
        <ele>865</ele>
        <time>2017-07-21T06:32:38Z</time>
      </trkpt>
      <trkpt lat="48.12204" lon="7.11825">
        <ele>865.59997558594</ele>
        <time>2017-07-21T06:32:41Z</time>
      </trkpt>
      <trkpt lat="48.12209" lon="7.11827">
        <ele>865.79998779297</ele>
        <time>2017-07-21T06:32:43Z</time>
      </trkpt>
      <trkpt lat="48.1222" lon="7.11832">
        <ele>866.79998779297</ele>
        <time>2017-07-21T06:32:49Z</time>
      </trkpt>
      <trkpt lat="48.12236" lon="7.11841">
        <ele>868</ele>
        <time>2017-07-21T06:32:56Z</time>
      </trkpt>
      <trkpt lat="48.12249" lon="7.11848">
        <ele>869</ele>
        <time>2017-07-21T06:33:02Z</time>
      </trkpt>
      <trkpt lat="48.12253" lon="7.11851">
        <ele>869.40002441406</ele>
        <time>2017-07-21T06:33:04Z</time>
      </trkpt>
      <trkpt lat="48.12263" lon="7.11856">
        <ele>870</ele>
        <time>2017-07-21T06:33:09Z</time>
      </trkpt>
      <trkpt lat="48.12265" lon="7.11857">
        <ele>870.20001220703</ele>
        <time>2017-07-21T06:33:10Z</time>
      </trkpt>
      <trkpt lat="48.12277" lon="7.1187">
        <ele>871.20001220703</ele>
        <time>2017-07-21T06:33:17Z</time>
      </trkpt>
      <trkpt lat="48.12281" lon="7.11877">
        <ele>871.59997558594</ele>
        <time>2017-07-21T06:33:20Z</time>
      </trkpt>
      <trkpt lat="48.12285" lon="7.11885">
        <ele>872</ele>
        <time>2017-07-21T06:33:23Z</time>
      </trkpt>
      <trkpt lat="48.12288" lon="7.11891">
        <ele>872.40002441406</ele>
        <time>2017-07-21T06:33:25Z</time>
      </trkpt>
      <trkpt lat="48.12295" lon="7.11907">
        <ele>873.20001220703</ele>
        <time>2017-07-21T06:33:31Z</time>
      </trkpt>
      <trkpt lat="48.12297" lon="7.11909">
        <ele>873.40002441406</ele>
        <time>2017-07-21T06:33:32Z</time>
      </trkpt>
      <trkpt lat="48.12303" lon="7.11926">
        <ele>874.40002441406</ele>
        <time>2017-07-21T06:33:38Z</time>
      </trkpt>
      <trkpt lat="48.12305" lon="7.11929">
        <ele>874.59997558594</ele>
        <time>2017-07-21T06:33:39Z</time>
      </trkpt>
      <trkpt lat="48.12311" lon="7.11942">
        <ele>875.40002441406</ele>
        <time>2017-07-21T06:33:44Z</time>
      </trkpt>
      <trkpt lat="48.12313" lon="7.11947">
        <ele>875.79998779297</ele>
        <time>2017-07-21T06:33:46Z</time>
      </trkpt>
      <trkpt lat="48.12321" lon="7.1196">
        <ele>876.59997558594</ele>
        <time>2017-07-21T06:33:51Z</time>
      </trkpt>
      <trkpt lat="48.12326" lon="7.1197">
        <ele>877.20001220703</ele>
        <time>2017-07-21T06:33:55Z</time>
      </trkpt>
      <trkpt lat="48.1233" lon="7.11978">
        <ele>877.79998779297</ele>
        <time>2017-07-21T06:33:58Z</time>
      </trkpt>
      <trkpt lat="48.12335" lon="7.11988">
        <ele>878.40002441406</ele>
        <time>2017-07-21T06:34:02Z</time>
      </trkpt>
      <trkpt lat="48.12339" lon="7.11995">
        <ele>879</ele>
        <time>2017-07-21T06:34:05Z</time>
      </trkpt>
      <trkpt lat="48.12346" lon="7.12004">
        <ele>879.59997558594</ele>
        <time>2017-07-21T06:34:09Z</time>
      </trkpt>
      <trkpt lat="48.1235" lon="7.12011">
        <ele>880</ele>
        <time>2017-07-21T06:34:12Z</time>
      </trkpt>
      <trkpt lat="48.12356" lon="7.12023">
        <ele>880.79998779297</ele>
        <time>2017-07-21T06:34:17Z</time>
      </trkpt>
      <trkpt lat="48.12361" lon="7.12029">
        <ele>881.20001220703</ele>
        <time>2017-07-21T06:34:20Z</time>
      </trkpt>
      <trkpt lat="48.12369" lon="7.12041">
        <ele>882.40002441406</ele>
        <time>2017-07-21T06:34:26Z</time>
      </trkpt>
      <trkpt lat="48.12376" lon="7.12052">
        <ele>883.20001220703</ele>
        <time>2017-07-21T06:34:32Z</time>
      </trkpt>
      <trkpt lat="48.12378" lon="7.12054">
        <ele>883.40002441406</ele>
        <time>2017-07-21T06:34:33Z</time>
      </trkpt>
      <trkpt lat="48.12386" lon="7.12063">
        <ele>884.40002441406</ele>
        <time>2017-07-21T06:34:39Z</time>
      </trkpt>
      <trkpt lat="48.12388" lon="7.12064">
        <ele>884.59997558594</ele>
        <time>2017-07-21T06:34:40Z</time>
      </trkpt>
      <trkpt lat="48.12398" lon="7.12074">
        <ele>885.59997558594</ele>
        <time>2017-07-21T06:34:46Z</time>
      </trkpt>
      <trkpt lat="48.12413" lon="7.12089">
        <ele>886.59997558594</ele>
        <time>2017-07-21T06:34:53Z</time>
      </trkpt>
      <trkpt lat="48.12415" lon="7.1209">
        <ele>886.79998779297</ele>
        <time>2017-07-21T06:34:54Z</time>
      </trkpt>
      <trkpt lat="48.12427" lon="7.12101">
        <ele>887.79998779297</ele>
        <time>2017-07-21T06:35:01Z</time>
      </trkpt>
      <trkpt lat="48.12431" lon="7.12105">
        <ele>888</ele>
        <time>2017-07-21T06:35:03Z</time>
      </trkpt>
      <trkpt lat="48.12441" lon="7.12115">
        <ele>888.79998779297</ele>
        <time>2017-07-21T06:35:09Z</time>
      </trkpt>
      <trkpt lat="48.12444" lon="7.12118">
        <ele>889.20001220703</ele>
        <time>2017-07-21T06:35:11Z</time>
      </trkpt>
      <trkpt lat="48.12454" lon="7.12124">
        <ele>890</ele>
        <time>2017-07-21T06:35:16Z</time>
      </trkpt>
      <trkpt lat="48.12459" lon="7.12128">
        <ele>890.40002441406</ele>
        <time>2017-07-21T06:35:19Z</time>
      </trkpt>
      <trkpt lat="48.12468" lon="7.12135">
        <ele>891</ele>
        <time>2017-07-21T06:35:24Z</time>
      </trkpt>
      <trkpt lat="48.12474" lon="7.12137">
        <ele>891.40002441406</ele>
        <time>2017-07-21T06:35:27Z</time>
      </trkpt>
      <trkpt lat="48.12484" lon="7.12139">
        <ele>892.20001220703</ele>
        <time>2017-07-21T06:35:32Z</time>
      </trkpt>
      <trkpt lat="48.12488" lon="7.12139">
        <ele>892.59997558594</ele>
        <time>2017-07-21T06:35:34Z</time>
      </trkpt>
      <trkpt lat="48.12498" lon="7.12137">
        <ele>893.20001220703</ele>
        <time>2017-07-21T06:35:39Z</time>
      </trkpt>
      <trkpt lat="48.12506" lon="7.12136">
        <ele>893.79998779297</ele>
        <time>2017-07-21T06:35:43Z</time>
      </trkpt>
      <trkpt lat="48.12514" lon="7.12135">
        <ele>894.40002441406</ele>
        <time>2017-07-21T06:35:47Z</time>
      </trkpt>
      <trkpt lat="48.12518" lon="7.12132">
        <ele>894.59997558594</ele>
        <time>2017-07-21T06:35:49Z</time>
      </trkpt>
      <trkpt lat="48.12531" lon="7.12124">
        <ele>895.40002441406</ele>
        <time>2017-07-21T06:35:55Z</time>
      </trkpt>
      <trkpt lat="48.12535" lon="7.12121">
        <ele>895.79998779297</ele>
        <time>2017-07-21T06:35:57Z</time>
      </trkpt>
      <trkpt lat="48.12543" lon="7.1211">
        <ele>896.59997558594</ele>
        <time>2017-07-21T06:36:02Z</time>
      </trkpt>
      <trkpt lat="48.12552" lon="7.12099">
        <ele>897.20001220703</ele>
        <time>2017-07-21T06:36:07Z</time>
      </trkpt>
      <trkpt lat="48.12555" lon="7.12094">
        <ele>897.59997558594</ele>
        <time>2017-07-21T06:36:09Z</time>
      </trkpt>
      <trkpt lat="48.12565" lon="7.12077">
        <ele>898.40002441406</ele>
        <time>2017-07-21T06:36:15Z</time>
      </trkpt>
      <trkpt lat="48.12567" lon="7.12074">
        <ele>898.59997558594</ele>
        <time>2017-07-21T06:36:16Z</time>
      </trkpt>
      <trkpt lat="48.12577" lon="7.12057">
        <ele>899.40002441406</ele>
        <time>2017-07-21T06:36:22Z</time>
      </trkpt>
      <trkpt lat="48.12578" lon="7.12054">
        <ele>899.59997558594</ele>
        <time>2017-07-21T06:36:23Z</time>
      </trkpt>
      <trkpt lat="48.1259" lon="7.12035">
        <ele>900.59997558594</ele>
        <time>2017-07-21T06:36:30Z</time>
      </trkpt>
      <trkpt lat="48.12598" lon="7.12015">
        <ele>901.59997558594</ele>
        <time>2017-07-21T06:36:36Z</time>
      </trkpt>
      <trkpt lat="48.12599" lon="7.12012">
        <ele>901.79998779297</ele>
        <time>2017-07-21T06:36:37Z</time>
      </trkpt>
      <trkpt lat="48.12606" lon="7.11985">
        <ele>902.79998779297</ele>
        <time>2017-07-21T06:36:45Z</time>
      </trkpt>
      <trkpt lat="48.12607" lon="7.11982">
        <ele>903</ele>
        <time>2017-07-21T06:36:46Z</time>
      </trkpt>
      <trkpt lat="48.12609" lon="7.11962">
        <ele>904</ele>
        <time>2017-07-21T06:36:52Z</time>
      </trkpt>
      <trkpt lat="48.1261" lon="7.11955">
        <ele>904.40002441406</ele>
        <time>2017-07-21T06:36:54Z</time>
      </trkpt>
      <trkpt lat="48.1261" lon="7.11942">
        <ele>905.20001220703</ele>
        <time>2017-07-21T06:36:58Z</time>
      </trkpt>
      <trkpt lat="48.12609" lon="7.11935">
        <ele>905.59997558594</ele>
        <time>2017-07-21T06:37:00Z</time>
      </trkpt>
      <trkpt lat="48.12608" lon="7.11922">
        <ele>906.20001220703</ele>
        <time>2017-07-21T06:37:04Z</time>
      </trkpt>
      <trkpt lat="48.12607" lon="7.11916">
        <ele>906.59997558594</ele>
        <time>2017-07-21T06:37:06Z</time>
      </trkpt>
      <trkpt lat="48.12605" lon="7.11903">
        <ele>907.40002441406</ele>
        <time>2017-07-21T06:37:10Z</time>
      </trkpt>
      <trkpt lat="48.12602" lon="7.11894">
        <ele>907.79998779297</ele>
        <time>2017-07-21T06:37:13Z</time>
      </trkpt>
      <trkpt lat="48.12596" lon="7.11879">
        <ele>908.40002441406</ele>
        <time>2017-07-21T06:37:18Z</time>
      </trkpt>
      <trkpt lat="48.12591" lon="7.11868">
        <ele>909</ele>
        <time>2017-07-21T06:37:22Z</time>
      </trkpt>
      <trkpt lat="48.12586" lon="7.11858">
        <ele>909.59997558594</ele>
        <time>2017-07-21T06:37:26Z</time>
      </trkpt>
      <trkpt lat="48.12581" lon="7.11852">
        <ele>910</ele>
        <time>2017-07-21T06:37:29Z</time>
      </trkpt>
      <trkpt lat="48.12571" lon="7.11841">
        <ele>910.79998779297</ele>
        <time>2017-07-21T06:37:34Z</time>
      </trkpt>
      <trkpt lat="48.12566" lon="7.11834">
        <ele>911.20001220703</ele>
        <time>2017-07-21T06:37:37Z</time>
      </trkpt>
      <trkpt lat="48.12558" lon="7.11827">
        <ele>911.79998779297</ele>
        <time>2017-07-21T06:37:41Z</time>
      </trkpt>
      <trkpt lat="48.1255" lon="7.11821">
        <ele>912.40002441406</ele>
        <time>2017-07-21T06:37:45Z</time>
      </trkpt>
      <trkpt lat="48.12543" lon="7.11818">
        <ele>912.79998779297</ele>
        <time>2017-07-21T06:37:48Z</time>
      </trkpt>
      <trkpt lat="48.12533" lon="7.11815">
        <ele>913.59997558594</ele>
        <time>2017-07-21T06:37:52Z</time>
      </trkpt>
      <trkpt lat="48.12525" lon="7.11814">
        <ele>913.79998779297</ele>
        <time>2017-07-21T06:37:55Z</time>
      </trkpt>
      <trkpt lat="48.12515" lon="7.11811">
        <ele>914.59997558594</ele>
        <time>2017-07-21T06:37:59Z</time>
      </trkpt>
      <trkpt lat="48.12509" lon="7.11809">
        <ele>915</ele>
        <time>2017-07-21T06:38:02Z</time>
      </trkpt>
      <trkpt lat="48.12495" lon="7.11805">
        <ele>916</ele>
        <time>2017-07-21T06:38:08Z</time>
      </trkpt>
      <trkpt lat="48.12493" lon="7.11805">
        <ele>916</ele>
        <time>2017-07-21T06:38:09Z</time>
      </trkpt>
      <trkpt lat="48.12474" lon="7.118">
        <ele>917.20001220703</ele>
        <time>2017-07-21T06:38:17Z</time>
      </trkpt>
      <trkpt lat="48.12461" lon="7.11795">
        <ele>918.20001220703</ele>
        <time>2017-07-21T06:38:23Z</time>
      </trkpt>
      <trkpt lat="48.12459" lon="7.11794">
        <ele>918.40002441406</ele>
        <time>2017-07-21T06:38:24Z</time>
      </trkpt>
      <trkpt lat="48.12444" lon="7.11789">
        <ele>919.40002441406</ele>
        <time>2017-07-21T06:38:30Z</time>
      </trkpt>
      <trkpt lat="48.1244" lon="7.11786">
        <ele>919.59997558594</ele>
        <time>2017-07-21T06:38:32Z</time>
      </trkpt>
      <trkpt lat="48.12427" lon="7.1178">
        <ele>920.40002441406</ele>
        <time>2017-07-21T06:38:38Z</time>
      </trkpt>
      <trkpt lat="48.12423" lon="7.11778">
        <ele>920.79998779297</ele>
        <time>2017-07-21T06:38:40Z</time>
      </trkpt>
      <trkpt lat="48.12412" lon="7.11773">
        <ele>921.59997558594</ele>
        <time>2017-07-21T06:38:45Z</time>
      </trkpt>
      <trkpt lat="48.12407" lon="7.11768">
        <ele>922.20001220703</ele>
        <time>2017-07-21T06:38:48Z</time>
      </trkpt>
      <trkpt lat="48.12404" lon="7.11766">
        <ele>922.40002441406</ele>
        <time>2017-07-21T06:38:50Z</time>
      </trkpt>
      <trkpt lat="48.12402" lon="7.11765">
        <ele>922.59997558594</ele>
        <time>2017-07-21T06:38:52Z</time>
      </trkpt>
      <trkpt lat="48.12399" lon="7.11765">
        <ele>923</ele>
        <time>2017-07-21T06:38:54Z</time>
      </trkpt>
      <trkpt lat="48.12388" lon="7.11761">
        <ele>923.79998779297</ele>
        <time>2017-07-21T06:38:59Z</time>
      </trkpt>
      <trkpt lat="48.12386" lon="7.11759">
        <ele>924</ele>
        <time>2017-07-21T06:39:00Z</time>
      </trkpt>
      <trkpt lat="48.12376" lon="7.11753">
        <ele>924.79998779297</ele>
        <time>2017-07-21T06:39:05Z</time>
      </trkpt>
      <trkpt lat="48.12372" lon="7.11747">
        <ele>925</ele>
        <time>2017-07-21T06:39:07Z</time>
      </trkpt>
      <trkpt lat="48.12369" lon="7.11746">
        <ele>925.20001220703</ele>
        <time>2017-07-21T06:39:08Z</time>
      </trkpt>
      <trkpt lat="48.12359" lon="7.11737">
        <ele>926</ele>
        <time>2017-07-21T06:39:12Z</time>
      </trkpt>
      <trkpt lat="48.12344" lon="7.11725">
        <ele>927</ele>
        <time>2017-07-21T06:39:19Z</time>
      </trkpt>
      <trkpt lat="48.1233" lon="7.11709">
        <ele>928.20001220703</ele>
        <time>2017-07-21T06:39:27Z</time>
      </trkpt>
      <trkpt lat="48.12322" lon="7.11697">
        <ele>929.20001220703</ele>
        <time>2017-07-21T06:39:33Z</time>
      </trkpt>
      <trkpt lat="48.12321" lon="7.11695">
        <ele>929.59997558594</ele>
        <time>2017-07-21T06:39:34Z</time>
      </trkpt>
      <trkpt lat="48.12316" lon="7.11687">
        <ele>930.20001220703</ele>
        <time>2017-07-21T06:39:38Z</time>
      </trkpt>
      <trkpt lat="48.12312" lon="7.1168">
        <ele>930.79998779297</ele>
        <time>2017-07-21T06:39:41Z</time>
      </trkpt>
      <trkpt lat="48.12309" lon="7.11673">
        <ele>931.40002441406</ele>
        <time>2017-07-21T06:39:44Z</time>
      </trkpt>
      <trkpt lat="48.12306" lon="7.11667">
        <ele>932</ele>
        <time>2017-07-21T06:39:47Z</time>
      </trkpt>
      <trkpt lat="48.12302" lon="7.11656">
        <ele>932.40002441406</ele>
        <time>2017-07-21T06:39:51Z</time>
      </trkpt>
      <trkpt lat="48.12299" lon="7.11646">
        <ele>933</ele>
        <time>2017-07-21T06:39:54Z</time>
      </trkpt>
      <trkpt lat="48.12295" lon="7.11633">
        <ele>933.59997558594</ele>
        <time>2017-07-21T06:39:58Z</time>
      </trkpt>
      <trkpt lat="48.12292" lon="7.1162">
        <ele>934.40002441406</ele>
        <time>2017-07-21T06:40:02Z</time>
      </trkpt>
      <trkpt lat="48.12291" lon="7.1161">
        <ele>934.79998779297</ele>
        <time>2017-07-21T06:40:05Z</time>
      </trkpt>
      <trkpt lat="48.12287" lon="7.11599">
        <ele>935.40002441406</ele>
        <time>2017-07-21T06:40:09Z</time>
      </trkpt>
      <trkpt lat="48.12285" lon="7.11592">
        <ele>935.79998779297</ele>
        <time>2017-07-21T06:40:11Z</time>
      </trkpt>
      <trkpt lat="48.12281" lon="7.11571">
        <ele>936.79998779297</ele>
        <time>2017-07-21T06:40:17Z</time>
      </trkpt>
      <trkpt lat="48.12279" lon="7.11568">
        <ele>937</ele>
        <time>2017-07-21T06:40:18Z</time>
      </trkpt>
      <trkpt lat="48.12277" lon="7.11554">
        <ele>938</ele>
        <time>2017-07-21T06:40:23Z</time>
      </trkpt>
      <trkpt lat="48.12273" lon="7.11537">
        <ele>939</ele>
        <time>2017-07-21T06:40:29Z</time>
      </trkpt>
      <trkpt lat="48.12273" lon="7.11534">
        <ele>939.20001220703</ele>
        <time>2017-07-21T06:40:30Z</time>
      </trkpt>
      <trkpt lat="48.12268" lon="7.11522">
        <ele>940.20001220703</ele>
        <time>2017-07-21T06:40:35Z</time>
      </trkpt>
      <trkpt lat="48.12267" lon="7.1152">
        <ele>940.20001220703</ele>
        <time>2017-07-21T06:40:36Z</time>
      </trkpt>
      <trkpt lat="48.12266" lon="7.11516">
        <ele>940.59997558594</ele>
        <time>2017-07-21T06:40:38Z</time>
      </trkpt>
      <trkpt lat="48.12262" lon="7.11512">
        <ele>941.20001220703</ele>
        <time>2017-07-21T06:40:41Z</time>
      </trkpt>
      <trkpt lat="48.12258" lon="7.11505">
        <ele>941.79998779297</ele>
        <time>2017-07-21T06:40:44Z</time>
      </trkpt>
      <trkpt lat="48.12256" lon="7.11504">
        <ele>942</ele>
        <time>2017-07-21T06:40:45Z</time>
      </trkpt>
      <trkpt lat="48.12253" lon="7.11501">
        <ele>942.40002441406</ele>
        <time>2017-07-21T06:40:47Z</time>
      </trkpt>
      <trkpt lat="48.1224" lon="7.11488">
        <ele>943.40002441406</ele>
        <time>2017-07-21T06:40:54Z</time>
      </trkpt>
      <trkpt lat="48.12238" lon="7.11486">
        <ele>943.59997558594</ele>
        <time>2017-07-21T06:40:55Z</time>
      </trkpt>
      <trkpt lat="48.12228" lon="7.11477">
        <ele>944.40002441406</ele>
        <time>2017-07-21T06:41:00Z</time>
      </trkpt>
      <trkpt lat="48.12226" lon="7.11475">
        <ele>944.40002441406</ele>
        <time>2017-07-21T06:41:01Z</time>
      </trkpt>
      <trkpt lat="48.12215" lon="7.11466">
        <ele>945.59997558594</ele>
        <time>2017-07-21T06:41:07Z</time>
      </trkpt>
      <trkpt lat="48.12204" lon="7.11459">
        <ele>946.59997558594</ele>
        <time>2017-07-21T06:41:14Z</time>
      </trkpt>
      <trkpt lat="48.12192" lon="7.11452">
        <ele>947.79998779297</ele>
        <time>2017-07-21T06:41:20Z</time>
      </trkpt>
      <trkpt lat="48.12181" lon="7.11445">
        <ele>949</ele>
        <time>2017-07-21T06:41:27Z</time>
      </trkpt>
      <trkpt lat="48.12169" lon="7.11436">
        <ele>950.20001220703</ele>
        <time>2017-07-21T06:41:34Z</time>
      </trkpt>
      <trkpt lat="48.12167" lon="7.11436">
        <ele>950.40002441406</ele>
        <time>2017-07-21T06:41:35Z</time>
      </trkpt>
      <trkpt lat="48.12159" lon="7.11429">
        <ele>951.20001220703</ele>
        <time>2017-07-21T06:41:40Z</time>
      </trkpt>
      <trkpt lat="48.12151" lon="7.11419">
        <ele>952.20001220703</ele>
        <time>2017-07-21T06:41:46Z</time>
      </trkpt>
      <trkpt lat="48.12149" lon="7.11417">
        <ele>952.40002441406</ele>
        <time>2017-07-21T06:41:47Z</time>
      </trkpt>
      <trkpt lat="48.1214" lon="7.11409">
        <ele>953.20001220703</ele>
        <time>2017-07-21T06:41:52Z</time>
      </trkpt>
      <trkpt lat="48.12136" lon="7.11407">
        <ele>953.40002441406</ele>
        <time>2017-07-21T06:41:54Z</time>
      </trkpt>
      <trkpt lat="48.12128" lon="7.11399">
        <ele>954</ele>
        <time>2017-07-21T06:41:58Z</time>
      </trkpt>
      <trkpt lat="48.12123" lon="7.11395">
        <ele>954.59997558594</ele>
        <time>2017-07-21T06:42:01Z</time>
      </trkpt>
      <trkpt lat="48.12113" lon="7.11388">
        <ele>955.20001220703</ele>
        <time>2017-07-21T06:42:06Z</time>
      </trkpt>
      <trkpt lat="48.12107" lon="7.11385">
        <ele>955.59997558594</ele>
        <time>2017-07-21T06:42:09Z</time>
      </trkpt>
      <trkpt lat="48.121" lon="7.1138">
        <ele>956.20001220703</ele>
        <time>2017-07-21T06:42:12Z</time>
      </trkpt>
      <trkpt lat="48.12091" lon="7.11373">
        <ele>956.79998779297</ele>
        <time>2017-07-21T06:42:16Z</time>
      </trkpt>
      <trkpt lat="48.12086" lon="7.1137">
        <ele>957.20001220703</ele>
        <time>2017-07-21T06:42:19Z</time>
      </trkpt>
      <trkpt lat="48.1208" lon="7.11369">
        <ele>957.79998779297</ele>
        <time>2017-07-21T06:42:22Z</time>
      </trkpt>
      <trkpt lat="48.12069" lon="7.11367">
        <ele>958.79998779297</ele>
        <time>2017-07-21T06:42:27Z</time>
      </trkpt>
      <trkpt lat="48.12067" lon="7.11365">
        <ele>959</ele>
        <time>2017-07-21T06:42:28Z</time>
      </trkpt>
      <trkpt lat="48.12058" lon="7.11361">
        <ele>959.59997558594</ele>
        <time>2017-07-21T06:42:32Z</time>
      </trkpt>
      <trkpt lat="48.12051" lon="7.1136">
        <ele>960</ele>
        <time>2017-07-21T06:42:35Z</time>
      </trkpt>
      <trkpt lat="48.12041" lon="7.11354">
        <ele>960.59997558594</ele>
        <time>2017-07-21T06:42:39Z</time>
      </trkpt>
      <trkpt lat="48.12032" lon="7.11349">
        <ele>961</ele>
        <time>2017-07-21T06:42:42Z</time>
      </trkpt>
      <trkpt lat="48.12025" lon="7.11346">
        <ele>961.59997558594</ele>
        <time>2017-07-21T06:42:45Z</time>
      </trkpt>
      <trkpt lat="48.12018" lon="7.11343">
        <ele>962.20001220703</ele>
        <time>2017-07-21T06:42:48Z</time>
      </trkpt>
      <trkpt lat="48.12009" lon="7.1134">
        <ele>962.79998779297</ele>
        <time>2017-07-21T06:42:52Z</time>
      </trkpt>
      <trkpt lat="48.11999" lon="7.11336">
        <ele>963.40002441406</ele>
        <time>2017-07-21T06:42:56Z</time>
      </trkpt>
      <trkpt lat="48.11994" lon="7.11332">
        <ele>963.40002441406</ele>
        <time>2017-07-21T06:42:58Z</time>
      </trkpt>
      <trkpt lat="48.11981" lon="7.11322">
        <ele>964.20001220703</ele>
        <time>2017-07-21T06:43:04Z</time>
      </trkpt>
      <trkpt lat="48.11979" lon="7.11321">
        <ele>964.40002441406</ele>
        <time>2017-07-21T06:43:05Z</time>
      </trkpt>
      <trkpt lat="48.11968" lon="7.11296">
        <ele>965.20001220703</ele>
        <time>2017-07-21T06:43:12Z</time>
      </trkpt>
      <trkpt lat="48.11967" lon="7.11289">
        <ele>965.40002441406</ele>
        <time>2017-07-21T06:43:14Z</time>
      </trkpt>
      <trkpt lat="48.11967" lon="7.11268">
        <ele>966</ele>
        <time>2017-07-21T06:43:19Z</time>
      </trkpt>
      <trkpt lat="48.1197" lon="7.11257">
        <ele>966.40002441406</ele>
        <time>2017-07-21T06:43:22Z</time>
      </trkpt>
      <trkpt lat="48.11975" lon="7.1124">
        <ele>967.40002441406</ele>
        <time>2017-07-21T06:43:27Z</time>
      </trkpt>
      <trkpt lat="48.11975" lon="7.11237">
        <ele>967.40002441406</ele>
        <time>2017-07-21T06:43:28Z</time>
      </trkpt>
      <trkpt lat="48.11976" lon="7.11234">
        <ele>967.59997558594</ele>
        <time>2017-07-21T06:43:29Z</time>
      </trkpt>
      <trkpt lat="48.11982" lon="7.11224">
        <ele>968.40002441406</ele>
        <time>2017-07-21T06:43:33Z</time>
      </trkpt>
      <trkpt lat="48.11984" lon="7.11221">
        <ele>968.59997558594</ele>
        <time>2017-07-21T06:43:34Z</time>
      </trkpt>
      <trkpt lat="48.11994" lon="7.11209">
        <ele>969.79998779297</ele>
        <time>2017-07-21T06:43:40Z</time>
      </trkpt>
      <trkpt lat="48.12004" lon="7.11197">
        <ele>971</ele>
        <time>2017-07-21T06:43:46Z</time>
      </trkpt>
      <trkpt lat="48.12009" lon="7.11191">
        <ele>971.59997558594</ele>
        <time>2017-07-21T06:43:49Z</time>
      </trkpt>
      <trkpt lat="48.12013" lon="7.11186">
        <ele>972</ele>
        <time>2017-07-21T06:43:51Z</time>
      </trkpt>
      <trkpt lat="48.12024" lon="7.11174">
        <ele>972.79998779297</ele>
        <time>2017-07-21T06:43:57Z</time>
      </trkpt>
      <trkpt lat="48.12026" lon="7.11173">
        <ele>973</ele>
        <time>2017-07-21T06:43:58Z</time>
      </trkpt>
      <trkpt lat="48.12034" lon="7.11162">
        <ele>974</ele>
        <time>2017-07-21T06:44:03Z</time>
      </trkpt>
      <trkpt lat="48.12035" lon="7.1116">
        <ele>974.20001220703</ele>
        <time>2017-07-21T06:44:04Z</time>
      </trkpt>
      <trkpt lat="48.12046" lon="7.1115">
        <ele>975.20001220703</ele>
        <time>2017-07-21T06:44:10Z</time>
      </trkpt>
      <trkpt lat="48.12051" lon="7.11146">
        <ele>975.59997558594</ele>
        <time>2017-07-21T06:44:13Z</time>
      </trkpt>
      <trkpt lat="48.12056" lon="7.11141">
        <ele>976.20001220703</ele>
        <time>2017-07-21T06:44:16Z</time>
      </trkpt>
      <trkpt lat="48.12063" lon="7.11139">
        <ele>976.59997558594</ele>
        <time>2017-07-21T06:44:20Z</time>
      </trkpt>
      <trkpt lat="48.12069" lon="7.11137">
        <ele>977.20001220703</ele>
        <time>2017-07-21T06:44:23Z</time>
      </trkpt>
      <trkpt lat="48.12073" lon="7.11136">
        <ele>977.59997558594</ele>
        <time>2017-07-21T06:44:25Z</time>
      </trkpt>
      <trkpt lat="48.12084" lon="7.1113">
        <ele>978.40002441406</ele>
        <time>2017-07-21T06:44:31Z</time>
      </trkpt>
      <trkpt lat="48.1209" lon="7.11127">
        <ele>978.79998779297</ele>
        <time>2017-07-21T06:44:34Z</time>
      </trkpt>
      <trkpt lat="48.12098" lon="7.11121">
        <ele>979.40002441406</ele>
        <time>2017-07-21T06:44:38Z</time>
      </trkpt>
      <trkpt lat="48.12104" lon="7.11116">
        <ele>980</ele>
        <time>2017-07-21T06:44:41Z</time>
      </trkpt>
      <trkpt lat="48.12109" lon="7.11109">
        <ele>980.40002441406</ele>
        <time>2017-07-21T06:44:44Z</time>
      </trkpt>
      <trkpt lat="48.12113" lon="7.111">
        <ele>981.20001220703</ele>
        <time>2017-07-21T06:44:47Z</time>
      </trkpt>
      <trkpt lat="48.12114" lon="7.11098">
        <ele>981.40002441406</ele>
        <time>2017-07-21T06:44:48Z</time>
      </trkpt>
      <trkpt lat="48.12115" lon="7.11096">
        <ele>981.59997558594</ele>
        <time>2017-07-21T06:44:49Z</time>
      </trkpt>
      <trkpt lat="48.12119" lon="7.11087">
        <ele>982</ele>
        <time>2017-07-21T06:44:52Z</time>
      </trkpt>
      <trkpt lat="48.12125" lon="7.11078">
        <ele>982.59997558594</ele>
        <time>2017-07-21T06:44:56Z</time>
      </trkpt>
      <trkpt lat="48.12129" lon="7.11072">
        <ele>983</ele>
        <time>2017-07-21T06:44:59Z</time>
      </trkpt>
      <trkpt lat="48.12134" lon="7.11062">
        <ele>983.79998779297</ele>
        <time>2017-07-21T06:45:03Z</time>
      </trkpt>
      <trkpt lat="48.12136" lon="7.11058">
        <ele>984.59997558594</ele>
        <time>2017-07-21T06:45:22Z</time>
      </trkpt>
      <trkpt lat="48.12139" lon="7.11051">
        <ele>984.79998779297</ele>
        <time>2017-07-21T06:45:25Z</time>
      </trkpt>
      <trkpt lat="48.1214" lon="7.11048">
        <ele>984.79998779297</ele>
        <time>2017-07-21T06:45:26Z</time>
      </trkpt>
      <trkpt lat="48.12148" lon="7.11031">
        <ele>985.20001220703</ele>
        <time>2017-07-21T06:45:33Z</time>
      </trkpt>
      <trkpt lat="48.12153" lon="7.11021">
        <ele>985.79998779297</ele>
        <time>2017-07-21T06:45:37Z</time>
      </trkpt>
      <trkpt lat="48.12156" lon="7.11014">
        <ele>986.20001220703</ele>
        <time>2017-07-21T06:45:40Z</time>
      </trkpt>
      <trkpt lat="48.12161" lon="7.10999">
        <ele>987</ele>
        <time>2017-07-21T06:45:45Z</time>
      </trkpt>
      <trkpt lat="48.12162" lon="7.10996">
        <ele>987</ele>
        <time>2017-07-21T06:45:46Z</time>
      </trkpt>
      <trkpt lat="48.12169" lon="7.10971">
        <ele>988</ele>
        <time>2017-07-21T06:45:53Z</time>
      </trkpt>
      <trkpt lat="48.12173" lon="7.10951">
        <ele>989</ele>
        <time>2017-07-21T06:45:59Z</time>
      </trkpt>
      <trkpt lat="48.12173" lon="7.10944">
        <ele>989.40002441406</ele>
        <time>2017-07-21T06:46:01Z</time>
      </trkpt>
      <trkpt lat="48.12173" lon="7.10929">
        <ele>990.20001220703</ele>
        <time>2017-07-21T06:46:05Z</time>
      </trkpt>
      <trkpt lat="48.12174" lon="7.10918">
        <ele>990.59997558594</ele>
        <time>2017-07-21T06:46:08Z</time>
      </trkpt>
      <trkpt lat="48.12174" lon="7.10899">
        <ele>991.20001220703</ele>
        <time>2017-07-21T06:46:13Z</time>
      </trkpt>
      <trkpt lat="48.12174" lon="7.10892">
        <ele>991.40002441406</ele>
        <time>2017-07-21T06:46:15Z</time>
      </trkpt>
      <trkpt lat="48.12176" lon="7.10866">
        <ele>992.20001220703</ele>
        <time>2017-07-21T06:46:22Z</time>
      </trkpt>
      <trkpt lat="48.12176" lon="7.10862">
        <ele>992.40002441406</ele>
        <time>2017-07-21T06:46:23Z</time>
      </trkpt>
      <trkpt lat="48.1218" lon="7.10836">
        <ele>993</ele>
        <time>2017-07-21T06:46:29Z</time>
      </trkpt>
      <trkpt lat="48.12181" lon="7.10819">
        <ele>993.40002441406</ele>
        <time>2017-07-21T06:46:33Z</time>
      </trkpt>
      <trkpt lat="48.1218" lon="7.10804">
        <ele>993.79998779297</ele>
        <time>2017-07-21T06:46:36Z</time>
      </trkpt>
      <trkpt lat="48.12183" lon="7.10774">
        <ele>994.40002441406</ele>
        <time>2017-07-21T06:46:42Z</time>
      </trkpt>
      <trkpt lat="48.12185" lon="7.10763">
        <ele>994.59997558594</ele>
        <time>2017-07-21T06:46:44Z</time>
      </trkpt>
      <trkpt lat="48.12193" lon="7.10728">
        <ele>995.40002441406</ele>
        <time>2017-07-21T06:46:52Z</time>
      </trkpt>
      <trkpt lat="48.12194" lon="7.10724">
        <ele>995.59997558594</ele>
        <time>2017-07-21T06:46:53Z</time>
      </trkpt>
      <trkpt lat="48.12204" lon="7.10693">
        <ele>996.40002441406</ele>
        <time>2017-07-21T06:47:01Z</time>
      </trkpt>
      <trkpt lat="48.12213" lon="7.10673">
        <ele>996.79998779297</ele>
        <time>2017-07-21T06:47:06Z</time>
      </trkpt>
      <trkpt lat="48.12226" lon="7.10649">
        <ele>997</ele>
        <time>2017-07-21T06:47:12Z</time>
      </trkpt>
      <trkpt lat="48.12244" lon="7.1061">
        <ele>997.20001220703</ele>
        <time>2017-07-21T06:47:20Z</time>
      </trkpt>
      <trkpt lat="48.12254" lon="7.10586">
        <ele>997.40002441406</ele>
        <time>2017-07-21T06:47:25Z</time>
      </trkpt>
      <trkpt lat="48.12257" lon="7.10578">
        <ele>997.79998779297</ele>
        <time>2017-07-21T06:47:27Z</time>
      </trkpt>
      <trkpt lat="48.12267" lon="7.10559">
        <ele>998.59997558594</ele>
        <time>2017-07-21T06:47:32Z</time>
      </trkpt>
      <trkpt lat="48.12273" lon="7.10543">
        <ele>999.20001220703</ele>
        <time>2017-07-21T06:47:36Z</time>
      </trkpt>
      <trkpt lat="48.12278" lon="7.1053">
        <ele>999.59997558594</ele>
        <time>2017-07-21T06:47:40Z</time>
      </trkpt>
      <trkpt lat="48.12283" lon="7.10517">
        <ele>1000.200012207</ele>
        <time>2017-07-21T06:47:44Z</time>
      </trkpt>
      <trkpt lat="48.12285" lon="7.10511">
        <ele>1000.5999755859</ele>
        <time>2017-07-21T06:47:46Z</time>
      </trkpt>
      <trkpt lat="48.12291" lon="7.10497">
        <ele>1001.4000244141</ele>
        <time>2017-07-21T06:47:51Z</time>
      </trkpt>
      <trkpt lat="48.12292" lon="7.10494">
        <ele>1001.5999755859</ele>
        <time>2017-07-21T06:47:52Z</time>
      </trkpt>
      <trkpt lat="48.12296" lon="7.10475">
        <ele>1002.5999755859</ele>
        <time>2017-07-21T06:47:58Z</time>
      </trkpt>
      <trkpt lat="48.12297" lon="7.10472">
        <ele>1003</ele>
        <time>2017-07-21T06:47:59Z</time>
      </trkpt>
      <trkpt lat="48.12299" lon="7.1046">
        <ele>1003.799987793</ele>
        <time>2017-07-21T06:48:03Z</time>
      </trkpt>
      <trkpt lat="48.123" lon="7.10454">
        <ele>1004.200012207</ele>
        <time>2017-07-21T06:48:05Z</time>
      </trkpt>
      <trkpt lat="48.12301" lon="7.10444">
        <ele>1004.799987793</ele>
        <time>2017-07-21T06:48:08Z</time>
      </trkpt>
      <trkpt lat="48.12302" lon="7.10425">
        <ele>1005.799987793</ele>
        <time>2017-07-21T06:48:14Z</time>
      </trkpt>
      <trkpt lat="48.12299" lon="7.10408">
        <ele>1006.799987793</ele>
        <time>2017-07-21T06:48:20Z</time>
      </trkpt>
      <trkpt lat="48.12299" lon="7.10402">
        <ele>1007.200012207</ele>
        <time>2017-07-21T06:48:22Z</time>
      </trkpt>
      <trkpt lat="48.12297" lon="7.10391">
        <ele>1008</ele>
        <time>2017-07-21T06:48:25Z</time>
      </trkpt>
      <trkpt lat="48.12293" lon="7.1038">
        <ele>1008.5999755859</ele>
        <time>2017-07-21T06:48:29Z</time>
      </trkpt>
      <trkpt lat="48.12288" lon="7.10367">
        <ele>1009</ele>
        <time>2017-07-21T06:48:33Z</time>
      </trkpt>
      <trkpt lat="48.12285" lon="7.10362">
        <ele>1009.200012207</ele>
        <time>2017-07-21T06:48:35Z</time>
      </trkpt>
      <trkpt lat="48.12277" lon="7.10344">
        <ele>1010</ele>
        <time>2017-07-21T06:48:41Z</time>
      </trkpt>
      <trkpt lat="48.12276" lon="7.1034">
        <ele>1010.200012207</ele>
        <time>2017-07-21T06:48:42Z</time>
      </trkpt>
      <trkpt lat="48.12266" lon="7.10321">
        <ele>1010.799987793</ele>
        <time>2017-07-21T06:48:48Z</time>
      </trkpt>
      <trkpt lat="48.1226" lon="7.10313">
        <ele>1011.200012207</ele>
        <time>2017-07-21T06:48:51Z</time>
      </trkpt>
      <trkpt lat="48.12253" lon="7.10299">
        <ele>1011.5999755859</ele>
        <time>2017-07-21T06:48:55Z</time>
      </trkpt>
      <trkpt lat="48.12241" lon="7.10277">
        <ele>1012</ele>
        <time>2017-07-21T06:49:01Z</time>
      </trkpt>
      <trkpt lat="48.12228" lon="7.10253">
        <ele>1012.200012207</ele>
        <time>2017-07-21T06:49:07Z</time>
      </trkpt>
      <trkpt lat="48.12226" lon="7.10249">
        <ele>1012.200012207</ele>
        <time>2017-07-21T06:49:08Z</time>
      </trkpt>
      <trkpt lat="48.12213" lon="7.10226">
        <ele>1012.5999755859</ele>
        <time>2017-07-21T06:49:14Z</time>
      </trkpt>
      <trkpt lat="48.12197" lon="7.10198">
        <ele>1013.200012207</ele>
        <time>2017-07-21T06:49:21Z</time>
      </trkpt>
      <trkpt lat="48.12192" lon="7.10183">
        <ele>1013.200012207</ele>
        <time>2017-07-21T06:49:24Z</time>
      </trkpt>
      <trkpt lat="48.12186" lon="7.10168">
        <ele>1013.200012207</ele>
        <time>2017-07-21T06:49:27Z</time>
      </trkpt>
      <trkpt lat="48.12179" lon="7.10135">
        <ele>1013.5999755859</ele>
        <time>2017-07-21T06:49:33Z</time>
      </trkpt>
      <trkpt lat="48.12171" lon="7.10096">
        <ele>1014.200012207</ele>
        <time>2017-07-21T06:49:40Z</time>
      </trkpt>
      <trkpt lat="48.12169" lon="7.10084">
        <ele>1014.200012207</ele>
        <time>2017-07-21T06:49:42Z</time>
      </trkpt>
      <trkpt lat="48.12166" lon="7.10066">
        <ele>1014.4000244141</ele>
        <time>2017-07-21T06:49:45Z</time>
      </trkpt>
      <trkpt lat="48.12166" lon="7.1006">
        <ele>1014.5999755859</ele>
        <time>2017-07-21T06:49:46Z</time>
      </trkpt>
      <trkpt lat="48.12168" lon="7.10035">
        <ele>1015</ele>
        <time>2017-07-21T06:49:50Z</time>
      </trkpt>
      <trkpt lat="48.12168" lon="7.10024">
        <ele>1015.4000244141</ele>
        <time>2017-07-21T06:49:52Z</time>
      </trkpt>
      <trkpt lat="48.12177" lon="7.09975">
        <ele>1016.4000244141</ele>
        <time>2017-07-21T06:50:00Z</time>
      </trkpt>
      <trkpt lat="48.12178" lon="7.09969">
        <ele>1016.4000244141</ele>
        <time>2017-07-21T06:50:01Z</time>
      </trkpt>
      <trkpt lat="48.12189" lon="7.09946">
        <ele>1016.5999755859</ele>
        <time>2017-07-21T06:50:06Z</time>
      </trkpt>
      <trkpt lat="48.12201" lon="7.09936">
        <ele>1017.200012207</ele>
        <time>2017-07-21T06:50:10Z</time>
      </trkpt>
      <trkpt lat="48.12204" lon="7.09935">
        <ele>1017.4000244141</ele>
        <time>2017-07-21T06:50:11Z</time>
      </trkpt>
      <trkpt lat="48.12217" lon="7.09933">
        <ele>1018.4000244141</ele>
        <time>2017-07-21T06:50:16Z</time>
      </trkpt>
      <trkpt lat="48.1222" lon="7.09933">
        <ele>1018.4000244141</ele>
        <time>2017-07-21T06:50:17Z</time>
      </trkpt>
      <trkpt lat="48.12232" lon="7.09939">
        <ele>1019.4000244141</ele>
        <time>2017-07-21T06:50:22Z</time>
      </trkpt>
      <trkpt lat="48.12234" lon="7.0994">
        <ele>1019.5999755859</ele>
        <time>2017-07-21T06:50:23Z</time>
      </trkpt>
      <trkpt lat="48.12246" lon="7.09951">
        <ele>1020.799987793</ele>
        <time>2017-07-21T06:50:29Z</time>
      </trkpt>
      <trkpt lat="48.12248" lon="7.09952">
        <ele>1021</ele>
        <time>2017-07-21T06:50:30Z</time>
      </trkpt>
      <trkpt lat="48.12259" lon="7.0996">
        <ele>1022</ele>
        <time>2017-07-21T06:50:36Z</time>
      </trkpt>
      <trkpt lat="48.12268" lon="7.0997">
        <ele>1023</ele>
        <time>2017-07-21T06:50:42Z</time>
      </trkpt>
      <trkpt lat="48.12273" lon="7.09974">
        <ele>1023.4000244141</ele>
        <time>2017-07-21T06:50:45Z</time>
      </trkpt>
      <trkpt lat="48.12277" lon="7.09978">
        <ele>1024</ele>
        <time>2017-07-21T06:50:48Z</time>
      </trkpt>
      <trkpt lat="48.12284" lon="7.09983">
        <ele>1025</ele>
        <time>2017-07-21T06:50:53Z</time>
      </trkpt>
      <trkpt lat="48.12288" lon="7.09985">
        <ele>1025.1999511719</ele>
        <time>2017-07-21T06:50:55Z</time>
      </trkpt>
      <trkpt lat="48.12296" lon="7.09989">
        <ele>1025.8000488281</ele>
        <time>2017-07-21T06:51:00Z</time>
      </trkpt>
      <trkpt lat="48.12302" lon="7.0999">
        <ele>1026.1999511719</ele>
        <time>2017-07-21T06:51:03Z</time>
      </trkpt>
      <trkpt lat="48.12307" lon="7.09992">
        <ele>1026.8000488281</ele>
        <time>2017-07-21T06:51:06Z</time>
      </trkpt>
      <trkpt lat="48.12312" lon="7.09993">
        <ele>1027.1999511719</ele>
        <time>2017-07-21T06:51:09Z</time>
      </trkpt>
      <trkpt lat="48.12322" lon="7.09991">
        <ele>1028.1999511719</ele>
        <time>2017-07-21T06:51:14Z</time>
      </trkpt>
      <trkpt lat="48.12326" lon="7.0999">
        <ele>1028.4000244141</ele>
        <time>2017-07-21T06:51:16Z</time>
      </trkpt>
      <trkpt lat="48.12332" lon="7.09987">
        <ele>1029</ele>
        <time>2017-07-21T06:51:20Z</time>
      </trkpt>
      <trkpt lat="48.12337" lon="7.09983">
        <ele>1029.4000244141</ele>
        <time>2017-07-21T06:51:23Z</time>
      </trkpt>
      <trkpt lat="48.12346" lon="7.09975">
        <ele>1030.4000244141</ele>
        <time>2017-07-21T06:51:29Z</time>
      </trkpt>
      <trkpt lat="48.12348" lon="7.09971">
        <ele>1030.5999755859</ele>
        <time>2017-07-21T06:51:31Z</time>
      </trkpt>
      <trkpt lat="48.12354" lon="7.09954">
        <ele>1031.5999755859</ele>
        <time>2017-07-21T06:51:38Z</time>
      </trkpt>
      <trkpt lat="48.12359" lon="7.09937">
        <ele>1032.5999755859</ele>
        <time>2017-07-21T06:51:45Z</time>
      </trkpt>
      <trkpt lat="48.12359" lon="7.09934">
        <ele>1032.8000488281</ele>
        <time>2017-07-21T06:51:46Z</time>
      </trkpt>
      <trkpt lat="48.12364" lon="7.09917">
        <ele>1033.8000488281</ele>
        <time>2017-07-21T06:51:53Z</time>
      </trkpt>
      <trkpt lat="48.12365" lon="7.09912">
        <ele>1034.1999511719</ele>
        <time>2017-07-21T06:51:55Z</time>
      </trkpt>
      <trkpt lat="48.12366" lon="7.09899">
        <ele>1035.1999511719</ele>
        <time>2017-07-21T06:52:00Z</time>
      </trkpt>
      <trkpt lat="48.12368" lon="7.09888">
        <ele>1036</ele>
        <time>2017-07-21T06:52:04Z</time>
      </trkpt>
      <trkpt lat="48.12369" lon="7.09883">
        <ele>1036.1999511719</ele>
        <time>2017-07-21T06:52:06Z</time>
      </trkpt>
      <trkpt lat="48.12372" lon="7.09869">
        <ele>1037</ele>
        <time>2017-07-21T06:52:11Z</time>
      </trkpt>
      <trkpt lat="48.12373" lon="7.09866">
        <ele>1037.1999511719</ele>
        <time>2017-07-21T06:52:12Z</time>
      </trkpt>
      <trkpt lat="48.12376" lon="7.09851">
        <ele>1038.1999511719</ele>
        <time>2017-07-21T06:52:18Z</time>
      </trkpt>
      <trkpt lat="48.12377" lon="7.09848">
        <ele>1038.4000244141</ele>
        <time>2017-07-21T06:52:19Z</time>
      </trkpt>
      <trkpt lat="48.1238" lon="7.09837">
        <ele>1039.1999511719</ele>
        <time>2017-07-21T06:52:24Z</time>
      </trkpt>
      <trkpt lat="48.12381" lon="7.09835">
        <ele>1039.4000244141</ele>
        <time>2017-07-21T06:52:25Z</time>
      </trkpt>
      <trkpt lat="48.12383" lon="7.0983">
        <ele>1040</ele>
        <time>2017-07-21T06:52:27Z</time>
      </trkpt>
      <trkpt lat="48.12385" lon="7.09826">
        <ele>1040.4000244141</ele>
        <time>2017-07-21T06:52:29Z</time>
      </trkpt>
      <trkpt lat="48.12389" lon="7.0982">
        <ele>1041.4000244141</ele>
        <time>2017-07-21T06:52:33Z</time>
      </trkpt>
      <trkpt lat="48.1239" lon="7.09818">
        <ele>1041.4000244141</ele>
        <time>2017-07-21T06:52:34Z</time>
      </trkpt>
      <trkpt lat="48.12397" lon="7.09811">
        <ele>1042.4000244141</ele>
        <time>2017-07-21T06:52:40Z</time>
      </trkpt>
      <trkpt lat="48.12406" lon="7.09806">
        <ele>1043.5999755859</ele>
        <time>2017-07-21T06:52:46Z</time>
      </trkpt>
      <trkpt lat="48.12408" lon="7.09805">
        <ele>1043.8000488281</ele>
        <time>2017-07-21T06:52:47Z</time>
      </trkpt>
      <trkpt lat="48.12412" lon="7.098">
        <ele>1044.5999755859</ele>
        <time>2017-07-21T06:52:51Z</time>
      </trkpt>
      <trkpt lat="48.12416" lon="7.09796">
        <ele>1045</ele>
        <time>2017-07-21T06:52:54Z</time>
      </trkpt>
      <trkpt lat="48.12422" lon="7.09791">
        <ele>1045.5999755859</ele>
        <time>2017-07-21T06:52:58Z</time>
      </trkpt>
      <trkpt lat="48.12425" lon="7.09789">
        <ele>1046</ele>
        <time>2017-07-21T06:53:00Z</time>
      </trkpt>
      <trkpt lat="48.12431" lon="7.09785">
        <ele>1046.5999755859</ele>
        <time>2017-07-21T06:53:03Z</time>
      </trkpt>
      <trkpt lat="48.12437" lon="7.0978">
        <ele>1047.4000244141</ele>
        <time>2017-07-21T06:53:07Z</time>
      </trkpt>
      <trkpt lat="48.12441" lon="7.09777">
        <ele>1047.5999755859</ele>
        <time>2017-07-21T06:53:09Z</time>
      </trkpt>
      <trkpt lat="48.12451" lon="7.09769">
        <ele>1048.8000488281</ele>
        <time>2017-07-21T06:53:14Z</time>
      </trkpt>
      <trkpt lat="48.12453" lon="7.09768">
        <ele>1049</ele>
        <time>2017-07-21T06:53:15Z</time>
      </trkpt>
      <trkpt lat="48.12461" lon="7.0976">
        <ele>1049.8000488281</ele>
        <time>2017-07-21T06:53:20Z</time>
      </trkpt>
      <trkpt lat="48.12466" lon="7.09755">
        <ele>1050.4000244141</ele>
        <time>2017-07-21T06:53:23Z</time>
      </trkpt>
      <trkpt lat="48.12471" lon="7.09749">
        <ele>1050.8000488281</ele>
        <time>2017-07-21T06:53:26Z</time>
      </trkpt>
      <trkpt lat="48.12479" lon="7.09741">
        <ele>1051.8000488281</ele>
        <time>2017-07-21T06:53:31Z</time>
      </trkpt>
      <trkpt lat="48.1248" lon="7.09739">
        <ele>1052</ele>
        <time>2017-07-21T06:53:32Z</time>
      </trkpt>
      <trkpt lat="48.12486" lon="7.09729">
        <ele>1052.8000488281</ele>
        <time>2017-07-21T06:53:37Z</time>
      </trkpt>
      <trkpt lat="48.12488" lon="7.09727">
        <ele>1053</ele>
        <time>2017-07-21T06:53:38Z</time>
      </trkpt>
      <trkpt lat="48.12495" lon="7.09711">
        <ele>1054</ele>
        <time>2017-07-21T06:53:45Z</time>
      </trkpt>
      <trkpt lat="48.12502" lon="7.09693">
        <ele>1055.1999511719</ele>
        <time>2017-07-21T06:53:52Z</time>
      </trkpt>
      <trkpt lat="48.12504" lon="7.09686">
        <ele>1055.5999755859</ele>
        <time>2017-07-21T06:53:55Z</time>
      </trkpt>
      <trkpt lat="48.12505" lon="7.09674">
        <ele>1056.1999511719</ele>
        <time>2017-07-21T06:53:59Z</time>
      </trkpt>
      <trkpt lat="48.12507" lon="7.09667">
        <ele>1057</ele>
        <time>2017-07-21T06:54:02Z</time>
      </trkpt>
      <trkpt lat="48.12509" lon="7.09659">
        <ele>1057.1999511719</ele>
        <time>2017-07-21T06:54:05Z</time>
      </trkpt>
      <trkpt lat="48.12509" lon="7.09656">
        <ele>1057.4000244141</ele>
        <time>2017-07-21T06:54:06Z</time>
      </trkpt>
      <trkpt lat="48.12506" lon="7.09651">
        <ele>1057.5999755859</ele>
        <time>2017-07-21T06:54:08Z</time>
      </trkpt>
      <trkpt lat="48.12504" lon="7.09646">
        <ele>1058</ele>
        <time>2017-07-21T06:54:10Z</time>
      </trkpt>
      <trkpt lat="48.12502" lon="7.09638">
        <ele>1058.4000244141</ele>
        <time>2017-07-21T06:54:13Z</time>
      </trkpt>
      <trkpt lat="48.12502" lon="7.09633">
        <ele>1058.5999755859</ele>
        <time>2017-07-21T06:54:15Z</time>
      </trkpt>
      <trkpt lat="48.12501" lon="7.09621">
        <ele>1059.4000244141</ele>
        <time>2017-07-21T06:54:20Z</time>
      </trkpt>
      <trkpt lat="48.125" lon="7.09618">
        <ele>1059.5999755859</ele>
        <time>2017-07-21T06:54:21Z</time>
      </trkpt>
      <trkpt lat="48.12502" lon="7.09608">
        <ele>1060.4000244141</ele>
        <time>2017-07-21T06:54:26Z</time>
      </trkpt>
      <trkpt lat="48.12502" lon="7.09608">
        <ele>1060.4000244141</ele>
        <time>2017-07-21T06:54:27Z</time>
      </trkpt>
      <trkpt lat="48.12506" lon="7.09615">
        <ele>1060.8000488281</ele>
        <time>2017-07-21T06:55:20Z</time>
      </trkpt>
      <trkpt lat="48.12508" lon="7.09622">
        <ele>1061</ele>
        <time>2017-07-21T06:55:22Z</time>
      </trkpt>
      <trkpt lat="48.12515" lon="7.09624">
        <ele>1060.8000488281</ele>
        <time>2017-07-21T06:55:25Z</time>
      </trkpt>
      <trkpt lat="48.12521" lon="7.09622">
        <ele>1060.5999755859</ele>
        <time>2017-07-21T06:55:28Z</time>
      </trkpt>
      <trkpt lat="48.12528" lon="7.0962">
        <ele>1060.4000244141</ele>
        <time>2017-07-21T06:55:31Z</time>
      </trkpt>
      <trkpt lat="48.12536" lon="7.09609">
        <ele>1061</ele>
        <time>2017-07-21T06:55:37Z</time>
      </trkpt>
      <trkpt lat="48.12544" lon="7.096">
        <ele>1061.5999755859</ele>
        <time>2017-07-21T06:55:42Z</time>
      </trkpt>
      <trkpt lat="48.12546" lon="7.09599">
        <ele>1061.5999755859</ele>
        <time>2017-07-21T06:55:43Z</time>
      </trkpt>
      <trkpt lat="48.12553" lon="7.09591">
        <ele>1062.4000244141</ele>
        <time>2017-07-21T06:55:47Z</time>
      </trkpt>
      <trkpt lat="48.12554" lon="7.09589">
        <ele>1062.4000244141</ele>
        <time>2017-07-21T06:55:48Z</time>
      </trkpt>
      <trkpt lat="48.12563" lon="7.09585">
        <ele>1062.8000488281</ele>
        <time>2017-07-21T06:55:52Z</time>
      </trkpt>
      <trkpt lat="48.12568" lon="7.09584">
        <ele>1063.1999511719</ele>
        <time>2017-07-21T06:55:54Z</time>
      </trkpt>
      <trkpt lat="48.12577" lon="7.09573">
        <ele>1064</ele>
        <time>2017-07-21T06:55:59Z</time>
      </trkpt>
      <trkpt lat="48.12585" lon="7.09561">
        <ele>1065</ele>
        <time>2017-07-21T06:56:04Z</time>
      </trkpt>
      <trkpt lat="48.12588" lon="7.09557">
        <ele>1065.1999511719</ele>
        <time>2017-07-21T06:56:06Z</time>
      </trkpt>
      <trkpt lat="48.12595" lon="7.09544">
        <ele>1066</ele>
        <time>2017-07-21T06:56:11Z</time>
      </trkpt>
      <trkpt lat="48.12602" lon="7.09536">
        <ele>1066.5999755859</ele>
        <time>2017-07-21T06:56:15Z</time>
      </trkpt>
      <trkpt lat="48.12607" lon="7.09529">
        <ele>1067.1999511719</ele>
        <time>2017-07-21T06:56:18Z</time>
      </trkpt>
      <trkpt lat="48.12615" lon="7.09519">
        <ele>1067.8000488281</ele>
        <time>2017-07-21T06:56:23Z</time>
      </trkpt>
      <trkpt lat="48.12617" lon="7.09517">
        <ele>1068.1999511719</ele>
        <time>2017-07-21T06:56:24Z</time>
      </trkpt>
      <trkpt lat="48.12627" lon="7.09505">
        <ele>1069</ele>
        <time>2017-07-21T06:56:30Z</time>
      </trkpt>
      <trkpt lat="48.12631" lon="7.09501">
        <ele>1069.1999511719</ele>
        <time>2017-07-21T06:56:32Z</time>
      </trkpt>
      <trkpt lat="48.12645" lon="7.0949">
        <ele>1070.1999511719</ele>
        <time>2017-07-21T06:56:39Z</time>
      </trkpt>
      <trkpt lat="48.12663" lon="7.09476">
        <ele>1071.5999755859</ele>
        <time>2017-07-21T06:56:48Z</time>
      </trkpt>
      <trkpt lat="48.12676" lon="7.09464">
        <ele>1072.5999755859</ele>
        <time>2017-07-21T06:56:55Z</time>
      </trkpt>
      <trkpt lat="48.1268" lon="7.0946">
        <ele>1072.8000488281</ele>
        <time>2017-07-21T06:56:57Z</time>
      </trkpt>
      <trkpt lat="48.1269" lon="7.09452">
        <ele>1073.5999755859</ele>
        <time>2017-07-21T06:57:02Z</time>
      </trkpt>
      <trkpt lat="48.12698" lon="7.09446">
        <ele>1074</ele>
        <time>2017-07-21T06:57:05Z</time>
      </trkpt>
      <trkpt lat="48.12708" lon="7.09438">
        <ele>1074.5999755859</ele>
        <time>2017-07-21T06:57:09Z</time>
      </trkpt>
      <trkpt lat="48.12717" lon="7.09431">
        <ele>1075.4000244141</ele>
        <time>2017-07-21T06:57:13Z</time>
      </trkpt>
      <trkpt lat="48.12721" lon="7.09426">
        <ele>1075.8000488281</ele>
        <time>2017-07-21T06:57:15Z</time>
      </trkpt>
      <trkpt lat="48.12735" lon="7.09416">
        <ele>1076.5999755859</ele>
        <time>2017-07-21T06:57:21Z</time>
      </trkpt>
      <trkpt lat="48.12737" lon="7.09414">
        <ele>1076.8000488281</ele>
        <time>2017-07-21T06:57:22Z</time>
      </trkpt>
      <trkpt lat="48.12743" lon="7.09408">
        <ele>1077.1999511719</ele>
        <time>2017-07-21T06:57:25Z</time>
      </trkpt>
      <trkpt lat="48.12751" lon="7.094">
        <ele>1078</ele>
        <time>2017-07-21T06:57:29Z</time>
      </trkpt>
      <trkpt lat="48.1276" lon="7.09391">
        <ele>1078.4000244141</ele>
        <time>2017-07-21T06:57:33Z</time>
      </trkpt>
      <trkpt lat="48.12767" lon="7.09382">
        <ele>1079.1999511719</ele>
        <time>2017-07-21T06:57:37Z</time>
      </trkpt>
      <trkpt lat="48.12774" lon="7.09372">
        <ele>1079.8000488281</ele>
        <time>2017-07-21T06:57:41Z</time>
      </trkpt>
      <trkpt lat="48.1278" lon="7.09366">
        <ele>1080.1999511719</ele>
        <time>2017-07-21T06:57:44Z</time>
      </trkpt>
      <trkpt lat="48.12792" lon="7.0935">
        <ele>1081.1999511719</ele>
        <time>2017-07-21T06:57:51Z</time>
      </trkpt>
      <trkpt lat="48.12793" lon="7.09348">
        <ele>1081.4000244141</ele>
        <time>2017-07-21T06:57:52Z</time>
      </trkpt>
      <trkpt lat="48.12806" lon="7.09334">
        <ele>1082.1999511719</ele>
        <time>2017-07-21T06:57:58Z</time>
      </trkpt>
      <trkpt lat="48.12807" lon="7.09332">
        <ele>1082.4000244141</ele>
        <time>2017-07-21T06:57:59Z</time>
      </trkpt>
      <trkpt lat="48.1282" lon="7.09315">
        <ele>1083.4000244141</ele>
        <time>2017-07-21T06:58:06Z</time>
      </trkpt>
      <trkpt lat="48.12835" lon="7.09295">
        <ele>1084.4000244141</ele>
        <time>2017-07-21T06:58:14Z</time>
      </trkpt>
      <trkpt lat="48.12848" lon="7.09278">
        <ele>1085.4000244141</ele>
        <time>2017-07-21T06:58:21Z</time>
      </trkpt>
      <trkpt lat="48.1285" lon="7.09276">
        <ele>1085.5999755859</ele>
        <time>2017-07-21T06:58:22Z</time>
      </trkpt>
      <trkpt lat="48.12861" lon="7.09262">
        <ele>1086.5999755859</ele>
        <time>2017-07-21T06:58:28Z</time>
      </trkpt>
      <trkpt lat="48.12863" lon="7.09259">
        <ele>1086.8000488281</ele>
        <time>2017-07-21T06:58:29Z</time>
      </trkpt>
      <trkpt lat="48.12875" lon="7.09246">
        <ele>1087.5999755859</ele>
        <time>2017-07-21T06:58:35Z</time>
      </trkpt>
      <trkpt lat="48.12881" lon="7.0924">
        <ele>1088.1999511719</ele>
        <time>2017-07-21T06:58:38Z</time>
      </trkpt>
      <trkpt lat="48.12888" lon="7.09234">
        <ele>1088.8000488281</ele>
        <time>2017-07-21T06:58:41Z</time>
      </trkpt>
      <trkpt lat="48.12898" lon="7.09224">
        <ele>1089.8000488281</ele>
        <time>2017-07-21T06:58:46Z</time>
      </trkpt>
      <trkpt lat="48.129" lon="7.09222">
        <ele>1089.8000488281</ele>
        <time>2017-07-21T06:58:47Z</time>
      </trkpt>
      <trkpt lat="48.12911" lon="7.09213">
        <ele>1090.8000488281</ele>
        <time>2017-07-21T06:58:52Z</time>
      </trkpt>
      <trkpt lat="48.12915" lon="7.0921">
        <ele>1091.1999511719</ele>
        <time>2017-07-21T06:58:54Z</time>
      </trkpt>
      <trkpt lat="48.12929" lon="7.09199">
        <ele>1092</ele>
        <time>2017-07-21T06:59:00Z</time>
      </trkpt>
      <trkpt lat="48.12931" lon="7.09197">
        <ele>1092.1999511719</ele>
        <time>2017-07-21T06:59:01Z</time>
      </trkpt>
      <trkpt lat="48.12944" lon="7.0919">
        <ele>1093</ele>
        <time>2017-07-21T06:59:06Z</time>
      </trkpt>
      <trkpt lat="48.12949" lon="7.09189">
        <ele>1093.4000244141</ele>
        <time>2017-07-21T06:59:08Z</time>
      </trkpt>
      <trkpt lat="48.12965" lon="7.09184">
        <ele>1094.1999511719</ele>
        <time>2017-07-21T06:59:14Z</time>
      </trkpt>
      <trkpt lat="48.12983" lon="7.09182">
        <ele>1095</ele>
        <time>2017-07-21T06:59:21Z</time>
      </trkpt>
      <trkpt lat="48.12986" lon="7.09182">
        <ele>1095.1999511719</ele>
        <time>2017-07-21T06:59:22Z</time>
      </trkpt>
      <trkpt lat="48.13005" lon="7.09181">
        <ele>1096</ele>
        <time>2017-07-21T06:59:29Z</time>
      </trkpt>
      <trkpt lat="48.13011" lon="7.09182">
        <ele>1096.4000244141</ele>
        <time>2017-07-21T06:59:31Z</time>
      </trkpt>
      <trkpt lat="48.13024" lon="7.09181">
        <ele>1097</ele>
        <time>2017-07-21T06:59:36Z</time>
      </trkpt>
      <trkpt lat="48.13031" lon="7.09181">
        <ele>1097.4000244141</ele>
        <time>2017-07-21T06:59:39Z</time>
      </trkpt>
      <trkpt lat="48.13043" lon="7.09185">
        <ele>1097.8000488281</ele>
        <time>2017-07-21T06:59:43Z</time>
      </trkpt>
      <trkpt lat="48.13058" lon="7.09186">
        <ele>1098.4000244141</ele>
        <time>2017-07-21T06:59:49Z</time>
      </trkpt>
      <trkpt lat="48.13068" lon="7.09187">
        <ele>1098.8000488281</ele>
        <time>2017-07-21T06:59:54Z</time>
      </trkpt>
      <trkpt lat="48.1308" lon="7.0919">
        <ele>1099.4000244141</ele>
        <time>2017-07-21T06:59:59Z</time>
      </trkpt>
      <trkpt lat="48.13082" lon="7.0919">
        <ele>1099.4000244141</ele>
        <time>2017-07-21T07:00:00Z</time>
      </trkpt>
      <trkpt lat="48.13096" lon="7.09193">
        <ele>1099.8000488281</ele>
        <time>2017-07-21T07:00:05Z</time>
      </trkpt>
      <trkpt lat="48.13114" lon="7.09196">
        <ele>1100.4000244141</ele>
        <time>2017-07-21T07:00:11Z</time>
      </trkpt>
      <trkpt lat="48.13136" lon="7.09201">
        <ele>1101.1999511719</ele>
        <time>2017-07-21T07:00:18Z</time>
      </trkpt>
      <trkpt lat="48.13146" lon="7.09202">
        <ele>1101.5999755859</ele>
        <time>2017-07-21T07:00:21Z</time>
      </trkpt>
      <trkpt lat="48.1316" lon="7.09204">
        <ele>1102</ele>
        <time>2017-07-21T07:00:25Z</time>
      </trkpt>
      <trkpt lat="48.13186" lon="7.09211">
        <ele>1102.5999755859</ele>
        <time>2017-07-21T07:00:32Z</time>
      </trkpt>
      <trkpt lat="48.13193" lon="7.09211">
        <ele>1102.5999755859</ele>
        <time>2017-07-21T07:00:34Z</time>
      </trkpt>
      <trkpt lat="48.13214" lon="7.09217">
        <ele>1103</ele>
        <time>2017-07-21T07:00:39Z</time>
      </trkpt>
      <trkpt lat="48.13218" lon="7.09217">
        <ele>1103</ele>
        <time>2017-07-21T07:00:40Z</time>
      </trkpt>
      <trkpt lat="48.13246" lon="7.0922">
        <ele>1103.1999511719</ele>
        <time>2017-07-21T07:00:47Z</time>
      </trkpt>
      <trkpt lat="48.13266" lon="7.09221">
        <ele>1103.5999755859</ele>
        <time>2017-07-21T07:00:52Z</time>
      </trkpt>
      <trkpt lat="48.13274" lon="7.09222">
        <ele>1103.8000488281</ele>
        <time>2017-07-21T07:00:54Z</time>
      </trkpt>
      <trkpt lat="48.13298" lon="7.09227">
        <ele>1104.5999755859</ele>
        <time>2017-07-21T07:01:01Z</time>
      </trkpt>
      <trkpt lat="48.13301" lon="7.09228">
        <ele>1104.5999755859</ele>
        <time>2017-07-21T07:01:02Z</time>
      </trkpt>
      <trkpt lat="48.13321" lon="7.09239">
        <ele>1105.5999755859</ele>
        <time>2017-07-21T07:01:08Z</time>
      </trkpt>
      <trkpt lat="48.13324" lon="7.09242">
        <ele>1105.8000488281</ele>
        <time>2017-07-21T07:01:09Z</time>
      </trkpt>
      <trkpt lat="48.13336" lon="7.09257">
        <ele>1106.5999755859</ele>
        <time>2017-07-21T07:01:14Z</time>
      </trkpt>
      <trkpt lat="48.13338" lon="7.09259">
        <ele>1106.8000488281</ele>
        <time>2017-07-21T07:01:15Z</time>
      </trkpt>
      <trkpt lat="48.1335" lon="7.09271">
        <ele>1107.8000488281</ele>
        <time>2017-07-21T07:01:21Z</time>
      </trkpt>
      <trkpt lat="48.13353" lon="7.09273">
        <ele>1108</ele>
        <time>2017-07-21T07:01:22Z</time>
      </trkpt>
      <trkpt lat="48.13362" lon="7.09282">
        <ele>1109</ele>
        <time>2017-07-21T07:01:27Z</time>
      </trkpt>
      <trkpt lat="48.13369" lon="7.09285">
        <ele>1109.4000244141</ele>
        <time>2017-07-21T07:01:30Z</time>
      </trkpt>
      <trkpt lat="48.13374" lon="7.09287">
        <ele>1110</ele>
        <time>2017-07-21T07:01:33Z</time>
      </trkpt>
      <trkpt lat="48.13381" lon="7.0929">
        <ele>1110.8000488281</ele>
        <time>2017-07-21T07:01:37Z</time>
      </trkpt>
      <trkpt lat="48.13382" lon="7.0929">
        <ele>1111</ele>
        <time>2017-07-21T07:01:38Z</time>
      </trkpt>
      <trkpt lat="48.13391" lon="7.09289">
        <ele>1112</ele>
        <time>2017-07-21T07:01:43Z</time>
      </trkpt>
      <trkpt lat="48.13393" lon="7.09288">
        <ele>1112.1999511719</ele>
        <time>2017-07-21T07:01:44Z</time>
      </trkpt>
      <trkpt lat="48.13403" lon="7.09287">
        <ele>1113.1999511719</ele>
        <time>2017-07-21T07:01:50Z</time>
      </trkpt>
      <trkpt lat="48.13406" lon="7.09285">
        <ele>1113.5999755859</ele>
        <time>2017-07-21T07:01:52Z</time>
      </trkpt>
      <trkpt lat="48.13412" lon="7.09281">
        <ele>1114.4000244141</ele>
        <time>2017-07-21T07:01:56Z</time>
      </trkpt>
      <trkpt lat="48.13417" lon="7.0928">
        <ele>1114.8000488281</ele>
        <time>2017-07-21T07:01:59Z</time>
      </trkpt>
      <trkpt lat="48.13422" lon="7.09276">
        <ele>1115.5999755859</ele>
        <time>2017-07-21T07:02:02Z</time>
      </trkpt>
      <trkpt lat="48.13423" lon="7.09275">
        <ele>1115.8000488281</ele>
        <time>2017-07-21T07:02:03Z</time>
      </trkpt>
      <trkpt lat="48.13429" lon="7.09271">
        <ele>1116.1999511719</ele>
        <time>2017-07-21T07:02:06Z</time>
      </trkpt>
      <trkpt lat="48.13434" lon="7.09267">
        <ele>1116.5999755859</ele>
        <time>2017-07-21T07:02:09Z</time>
      </trkpt>
      <trkpt lat="48.13441" lon="7.09259">
        <ele>1117.1999511719</ele>
        <time>2017-07-21T07:02:13Z</time>
      </trkpt>
      <trkpt lat="48.13446" lon="7.09253">
        <ele>1117.8000488281</ele>
        <time>2017-07-21T07:02:16Z</time>
      </trkpt>
      <trkpt lat="48.13454" lon="7.09245">
        <ele>1118.4000244141</ele>
        <time>2017-07-21T07:02:21Z</time>
      </trkpt>
      <trkpt lat="48.13458" lon="7.09241">
        <ele>1118.8000488281</ele>
        <time>2017-07-21T07:02:23Z</time>
      </trkpt>
      <trkpt lat="48.13469" lon="7.09229">
        <ele>1119.8000488281</ele>
        <time>2017-07-21T07:02:30Z</time>
      </trkpt>
      <trkpt lat="48.13479" lon="7.09215">
        <ele>1120.8000488281</ele>
        <time>2017-07-21T07:02:37Z</time>
      </trkpt>
      <trkpt lat="48.13481" lon="7.09212">
        <ele>1121</ele>
        <time>2017-07-21T07:02:38Z</time>
      </trkpt>
      <trkpt lat="48.13487" lon="7.09201">
        <ele>1122</ele>
        <time>2017-07-21T07:02:43Z</time>
      </trkpt>
      <trkpt lat="48.1349" lon="7.09194">
        <ele>1122.5999755859</ele>
        <time>2017-07-21T07:02:46Z</time>
      </trkpt>
      <trkpt lat="48.13492" lon="7.09188">
        <ele>1123</ele>
        <time>2017-07-21T07:02:48Z</time>
      </trkpt>
      <trkpt lat="48.135" lon="7.09171">
        <ele>1124.1999511719</ele>
        <time>2017-07-21T07:02:55Z</time>
      </trkpt>
      <trkpt lat="48.13501" lon="7.09169">
        <ele>1124.1999511719</ele>
        <time>2017-07-21T07:02:56Z</time>
      </trkpt>
      <trkpt lat="48.13506" lon="7.09151">
        <ele>1125</ele>
        <time>2017-07-21T07:03:02Z</time>
      </trkpt>
      <trkpt lat="48.13507" lon="7.09149">
        <ele>1125.1999511719</ele>
        <time>2017-07-21T07:03:03Z</time>
      </trkpt>
      <trkpt lat="48.13509" lon="7.09138">
        <ele>1125.8000488281</ele>
        <time>2017-07-21T07:03:07Z</time>
      </trkpt>
      <trkpt lat="48.13512" lon="7.09127">
        <ele>1126.1999511719</ele>
        <time>2017-07-21T07:03:11Z</time>
      </trkpt>
      <trkpt lat="48.13513" lon="7.09113">
        <ele>1127</ele>
        <time>2017-07-21T07:03:16Z</time>
      </trkpt>
      <trkpt lat="48.13515" lon="7.09107">
        <ele>1127.1999511719</ele>
        <time>2017-07-21T07:03:18Z</time>
      </trkpt>
      <trkpt lat="48.13519" lon="7.09096">
        <ele>1127.8000488281</ele>
        <time>2017-07-21T07:03:22Z</time>
      </trkpt>
      <trkpt lat="48.13521" lon="7.09084">
        <ele>1128.4000244141</ele>
        <time>2017-07-21T07:03:26Z</time>
      </trkpt>
      <trkpt lat="48.13524" lon="7.09073">
        <ele>1129</ele>
        <time>2017-07-21T07:03:30Z</time>
      </trkpt>
      <trkpt lat="48.13526" lon="7.09064">
        <ele>1129.4000244141</ele>
        <time>2017-07-21T07:03:33Z</time>
      </trkpt>
      <trkpt lat="48.13529" lon="7.09047">
        <ele>1130.4000244141</ele>
        <time>2017-07-21T07:03:39Z</time>
      </trkpt>
      <trkpt lat="48.1353" lon="7.09045">
        <ele>1130.5999755859</ele>
        <time>2017-07-21T07:03:40Z</time>
      </trkpt>
      <trkpt lat="48.13534" lon="7.09032">
        <ele>1131.5999755859</ele>
        <time>2017-07-21T07:03:45Z</time>
      </trkpt>
      <trkpt lat="48.13536" lon="7.09027">
        <ele>1132</ele>
        <time>2017-07-21T07:03:47Z</time>
      </trkpt>
      <trkpt lat="48.13538" lon="7.09015">
        <ele>1132.5999755859</ele>
        <time>2017-07-21T07:03:51Z</time>
      </trkpt>
      <trkpt lat="48.13538" lon="7.09006">
        <ele>1133.1999511719</ele>
        <time>2017-07-21T07:03:54Z</time>
      </trkpt>
      <trkpt lat="48.1354" lon="7.09001">
        <ele>1133.5999755859</ele>
        <time>2017-07-21T07:03:56Z</time>
      </trkpt>
      <trkpt lat="48.13544" lon="7.08988">
        <ele>1134.8000488281</ele>
        <time>2017-07-21T07:04:01Z</time>
      </trkpt>
      <trkpt lat="48.13545" lon="7.08985">
        <ele>1135</ele>
        <time>2017-07-21T07:04:02Z</time>
      </trkpt>
      <trkpt lat="48.13549" lon="7.08972">
        <ele>1136</ele>
        <time>2017-07-21T07:04:07Z</time>
      </trkpt>
      <trkpt lat="48.13552" lon="7.08965">
        <ele>1136.5999755859</ele>
        <time>2017-07-21T07:04:10Z</time>
      </trkpt>
      <trkpt lat="48.13556" lon="7.08956">
        <ele>1137.1999511719</ele>
        <time>2017-07-21T07:04:14Z</time>
      </trkpt>
      <trkpt lat="48.13562" lon="7.08944">
        <ele>1138</ele>
        <time>2017-07-21T07:04:19Z</time>
      </trkpt>
      <trkpt lat="48.13564" lon="7.08939">
        <ele>1138.1999511719</ele>
        <time>2017-07-21T07:04:21Z</time>
      </trkpt>
      <trkpt lat="48.13571" lon="7.08924">
        <ele>1139.4000244141</ele>
        <time>2017-07-21T07:04:27Z</time>
      </trkpt>
      <trkpt lat="48.13573" lon="7.08919">
        <ele>1139.5999755859</ele>
        <time>2017-07-21T07:04:29Z</time>
      </trkpt>
      <trkpt lat="48.13581" lon="7.08909">
        <ele>1140.4000244141</ele>
        <time>2017-07-21T07:04:34Z</time>
      </trkpt>
      <trkpt lat="48.13582" lon="7.08907">
        <ele>1140.4000244141</ele>
        <time>2017-07-21T07:04:35Z</time>
      </trkpt>
      <trkpt lat="48.13594" lon="7.08894">
        <ele>1141.4000244141</ele>
        <time>2017-07-21T07:04:42Z</time>
      </trkpt>
      <trkpt lat="48.13596" lon="7.08892">
        <ele>1141.4000244141</ele>
        <time>2017-07-21T07:04:43Z</time>
      </trkpt>
      <trkpt lat="48.13606" lon="7.08881">
        <ele>1142.5999755859</ele>
        <time>2017-07-21T07:04:49Z</time>
      </trkpt>
      <trkpt lat="48.13609" lon="7.08878">
        <ele>1143</ele>
        <time>2017-07-21T07:04:51Z</time>
      </trkpt>
      <trkpt lat="48.13617" lon="7.08868">
        <ele>1143.5999755859</ele>
        <time>2017-07-21T07:04:57Z</time>
      </trkpt>
      <trkpt lat="48.13621" lon="7.08866">
        <ele>1144</ele>
        <time>2017-07-21T07:04:59Z</time>
      </trkpt>
      <trkpt lat="48.13633" lon="7.0886">
        <ele>1144.5999755859</ele>
        <time>2017-07-21T07:05:05Z</time>
      </trkpt>
      <trkpt lat="48.13635" lon="7.0886">
        <ele>1144.8000488281</ele>
        <time>2017-07-21T07:05:06Z</time>
      </trkpt>
      <trkpt lat="48.13643" lon="7.08854">
        <ele>1145.1999511719</ele>
        <time>2017-07-21T07:05:10Z</time>
      </trkpt>
      <trkpt lat="48.13646" lon="7.08848">
        <ele>1145.1999511719</ele>
        <time>2017-07-21T07:05:12Z</time>
      </trkpt>
      <trkpt lat="48.13646" lon="7.08841">
        <ele>1145.1999511719</ele>
        <time>2017-07-21T07:05:14Z</time>
      </trkpt>
      <trkpt lat="48.13643" lon="7.08828">
        <ele>1145.1999511719</ele>
        <time>2017-07-21T07:05:17Z</time>
      </trkpt>
      <trkpt lat="48.13642" lon="7.08821">
        <ele>1145.1999511719</ele>
        <time>2017-07-21T07:05:19Z</time>
      </trkpt>
      <trkpt lat="48.13644" lon="7.08798">
        <ele>1145.4000244141</ele>
        <time>2017-07-21T07:05:25Z</time>
      </trkpt>
      <trkpt lat="48.1365" lon="7.08774">
        <ele>1145.8000488281</ele>
        <time>2017-07-21T07:05:31Z</time>
      </trkpt>
      <trkpt lat="48.13656" lon="7.0875">
        <ele>1146.4000244141</ele>
        <time>2017-07-21T07:05:38Z</time>
      </trkpt>
      <trkpt lat="48.1366" lon="7.08735">
        <ele>1146.5999755859</ele>
        <time>2017-07-21T07:05:53Z</time>
      </trkpt>
      <trkpt lat="48.13661" lon="7.08733">
        <ele>1147</ele>
        <time>2017-07-21T07:05:54Z</time>
      </trkpt>
      <trkpt lat="48.13663" lon="7.08718">
        <ele>1147.1999511719</ele>
        <time>2017-07-21T07:05:59Z</time>
      </trkpt>
      <trkpt lat="48.13666" lon="7.08707">
        <ele>1147.1999511719</ele>
        <time>2017-07-21T07:06:03Z</time>
      </trkpt>
      <trkpt lat="48.13667" lon="7.08702">
        <ele>1147.1999511719</ele>
        <time>2017-07-21T07:06:05Z</time>
      </trkpt>
      <trkpt lat="48.13668" lon="7.08698">
        <ele>1147.4000244141</ele>
        <time>2017-07-21T07:06:07Z</time>
      </trkpt>
      <trkpt lat="48.13668" lon="7.08692">
        <ele>1150.1999511719</ele>
        <time>2017-07-21T07:06:21Z</time>
      </trkpt>
      <trkpt lat="48.1367" lon="7.08681">
        <ele>1149</ele>
        <time>2017-07-21T07:06:25Z</time>
      </trkpt>
      <trkpt lat="48.13671" lon="7.08675">
        <ele>1148</ele>
        <time>2017-07-21T07:06:27Z</time>
      </trkpt>
      <trkpt lat="48.13675" lon="7.08647">
        <ele>1148.1999511719</ele>
        <time>2017-07-21T07:06:36Z</time>
      </trkpt>
      <trkpt lat="48.13675" lon="7.08626">
        <ele>1149</ele>
        <time>2017-07-21T07:06:42Z</time>
      </trkpt>
      <trkpt lat="48.13675" lon="7.08622">
        <ele>1149</ele>
        <time>2017-07-21T07:06:43Z</time>
      </trkpt>
      <trkpt lat="48.13673" lon="7.08601">
        <ele>1149.5999755859</ele>
        <time>2017-07-21T07:06:48Z</time>
      </trkpt>
      <trkpt lat="48.13671" lon="7.08592">
        <ele>1150.1999511719</ele>
        <time>2017-07-21T07:06:50Z</time>
      </trkpt>
      <trkpt lat="48.13666" lon="7.08574">
        <ele>1150.5999755859</ele>
        <time>2017-07-21T07:06:54Z</time>
      </trkpt>
      <trkpt lat="48.13661" lon="7.08553">
        <ele>1151.4000244141</ele>
        <time>2017-07-21T07:07:00Z</time>
      </trkpt>
      <trkpt lat="48.1366" lon="7.08552">
        <ele>1151.4000244141</ele>
        <time>2017-07-21T07:07:01Z</time>
      </trkpt>
      <trkpt lat="48.13658" lon="7.08542">
        <ele>1151.8000488281</ele>
        <time>2017-07-21T07:07:04Z</time>
      </trkpt>
      <trkpt lat="48.13653" lon="7.08517">
        <ele>1152.4000244141</ele>
        <time>2017-07-21T07:07:11Z</time>
      </trkpt>
      <trkpt lat="48.13651" lon="7.08509">
        <ele>1152.5999755859</ele>
        <time>2017-07-21T07:07:13Z</time>
      </trkpt>
      <trkpt lat="48.13648" lon="7.08494">
        <ele>1153.4000244141</ele>
        <time>2017-07-21T07:07:17Z</time>
      </trkpt>
      <trkpt lat="48.13648" lon="7.08487">
        <ele>1153.8000488281</ele>
        <time>2017-07-21T07:07:19Z</time>
      </trkpt>
      <trkpt lat="48.13647" lon="7.08484">
        <ele>1153.8000488281</ele>
        <time>2017-07-21T07:07:20Z</time>
      </trkpt>
      <trkpt lat="48.13647" lon="7.08477">
        <ele>1154</ele>
        <time>2017-07-21T07:07:23Z</time>
      </trkpt>
      <trkpt lat="48.13645" lon="7.08479">
        <ele>1154.1999511719</ele>
        <time>2017-07-21T07:07:26Z</time>
      </trkpt>
      <trkpt lat="48.13647" lon="7.08496">
        <ele>1154.1999511719</ele>
        <time>2017-07-21T07:07:30Z</time>
      </trkpt>
      <trkpt lat="48.13655" lon="7.08533">
        <ele>1154</ele>
        <time>2017-07-21T07:07:36Z</time>
      </trkpt>
      <trkpt lat="48.13666" lon="7.08573">
        <ele>1152.5999755859</ele>
        <time>2017-07-21T07:07:43Z</time>
      </trkpt>
      <trkpt lat="48.13669" lon="7.08573">
        <ele>1152.4000244141</ele>
        <time>2017-07-21T07:07:44Z</time>
      </trkpt>
      <trkpt lat="48.13673" lon="7.08574">
        <ele>1152</ele>
        <time>2017-07-21T07:07:46Z</time>
      </trkpt>
      <trkpt lat="48.13672" lon="7.08571">
        <ele>1151</ele>
        <time>2017-07-21T07:09:09Z</time>
      </trkpt>
      <trkpt lat="48.13662" lon="7.08554">
        <ele>1151.4000244141</ele>
        <time>2017-07-21T07:09:15Z</time>
      </trkpt>
      <trkpt lat="48.13657" lon="7.08532">
        <ele>1152</ele>
        <time>2017-07-21T07:09:21Z</time>
      </trkpt>
      <trkpt lat="48.13656" lon="7.08528">
        <ele>1152.1999511719</ele>
        <time>2017-07-21T07:09:22Z</time>
      </trkpt>
      <trkpt lat="48.13652" lon="7.08506">
        <ele>1152.5999755859</ele>
        <time>2017-07-21T07:09:27Z</time>
      </trkpt>
      <trkpt lat="48.13649" lon="7.08489">
        <ele>1153.1999511719</ele>
        <time>2017-07-21T07:09:31Z</time>
      </trkpt>
      <trkpt lat="48.13646" lon="7.08472">
        <ele>1154</ele>
        <time>2017-07-21T07:09:35Z</time>
      </trkpt>
      <trkpt lat="48.13644" lon="7.08461">
        <ele>1154.4000244141</ele>
        <time>2017-07-21T07:09:38Z</time>
      </trkpt>
      <trkpt lat="48.13642" lon="7.08449">
        <ele>1154.5999755859</ele>
        <time>2017-07-21T07:09:41Z</time>
      </trkpt>
      <trkpt lat="48.13638" lon="7.08424">
        <ele>1155.1999511719</ele>
        <time>2017-07-21T07:09:47Z</time>
      </trkpt>
      <trkpt lat="48.13636" lon="7.08412">
        <ele>1155.4000244141</ele>
        <time>2017-07-21T07:09:50Z</time>
      </trkpt>
      <trkpt lat="48.13634" lon="7.08396">
        <ele>1155.5999755859</ele>
        <time>2017-07-21T07:09:53Z</time>
      </trkpt>
      <trkpt lat="48.13626" lon="7.08367">
        <ele>1155.8000488281</ele>
        <time>2017-07-21T07:09:59Z</time>
      </trkpt>
      <trkpt lat="48.13617" lon="7.08339">
        <ele>1156</ele>
        <time>2017-07-21T07:10:05Z</time>
      </trkpt>
      <trkpt lat="48.13606" lon="7.08305">
        <ele>1156.1999511719</ele>
        <time>2017-07-21T07:10:11Z</time>
      </trkpt>
      <trkpt lat="48.13599" lon="7.08283">
        <ele>1156.1999511719</ele>
        <time>2017-07-21T07:10:14Z</time>
      </trkpt>
      <trkpt lat="48.1359" lon="7.0826">
        <ele>1155.8000488281</ele>
        <time>2017-07-21T07:10:17Z</time>
      </trkpt>
      <trkpt lat="48.13564" lon="7.08209">
        <ele>1155.1999511719</ele>
        <time>2017-07-21T07:10:24Z</time>
      </trkpt>
      <trkpt lat="48.13534" lon="7.08158">
        <ele>1155.1999511719</ele>
        <time>2017-07-21T07:10:32Z</time>
      </trkpt>
      <trkpt lat="48.13504" lon="7.08104">
        <ele>1155.5999755859</ele>
        <time>2017-07-21T07:10:41Z</time>
      </trkpt>
      <trkpt lat="48.13473" lon="7.08066">
        <ele>1155.4000244141</ele>
        <time>2017-07-21T07:10:48Z</time>
      </trkpt>
      <trkpt lat="48.13438" lon="7.08031">
        <ele>1155.5999755859</ele>
        <time>2017-07-21T07:10:56Z</time>
      </trkpt>
      <trkpt lat="48.1339" lon="7.0799">
        <ele>1155.5999755859</ele>
        <time>2017-07-21T07:11:06Z</time>
      </trkpt>
      <trkpt lat="48.13385" lon="7.07986">
        <ele>1155.5999755859</ele>
        <time>2017-07-21T07:11:07Z</time>
      </trkpt>
      <trkpt lat="48.13355" lon="7.07958">
        <ele>1155.8000488281</ele>
        <time>2017-07-21T07:11:14Z</time>
      </trkpt>
      <trkpt lat="48.13328" lon="7.0793">
        <ele>1156.4000244141</ele>
        <time>2017-07-21T07:11:21Z</time>
      </trkpt>
      <trkpt lat="48.1332" lon="7.07922">
        <ele>1156.5999755859</ele>
        <time>2017-07-21T07:11:23Z</time>
      </trkpt>
      <trkpt lat="48.13289" lon="7.0789">
        <ele>1157</ele>
        <time>2017-07-21T07:11:31Z</time>
      </trkpt>
      <trkpt lat="48.13282" lon="7.0788">
        <ele>1157</ele>
        <time>2017-07-21T07:11:33Z</time>
      </trkpt>
      <trkpt lat="48.1327" lon="7.07867">
        <ele>1157</ele>
        <time>2017-07-21T07:11:36Z</time>
      </trkpt>
      <trkpt lat="48.13238" lon="7.07825">
        <ele>1157.1999511719</ele>
        <time>2017-07-21T07:11:45Z</time>
      </trkpt>
      <trkpt lat="48.13231" lon="7.07816">
        <ele>1157.5999755859</ele>
        <time>2017-07-21T07:11:47Z</time>
      </trkpt>
      <trkpt lat="48.13216" lon="7.078">
        <ele>1158</ele>
        <time>2017-07-21T07:11:51Z</time>
      </trkpt>
      <trkpt lat="48.13189" lon="7.07765">
        <ele>1158.5999755859</ele>
        <time>2017-07-21T07:11:59Z</time>
      </trkpt>
      <trkpt lat="48.13171" lon="7.0773">
        <ele>1159</ele>
        <time>2017-07-21T07:12:05Z</time>
      </trkpt>
      <trkpt lat="48.13167" lon="7.07718">
        <ele>1159</ele>
        <time>2017-07-21T07:12:07Z</time>
      </trkpt>
      <trkpt lat="48.13158" lon="7.07692">
        <ele>1159.1999511719</ele>
        <time>2017-07-21T07:12:11Z</time>
      </trkpt>
      <trkpt lat="48.13144" lon="7.07656">
        <ele>1159.5999755859</ele>
        <time>2017-07-21T07:12:17Z</time>
      </trkpt>
      <trkpt lat="48.13139" lon="7.07644">
        <ele>1159.8000488281</ele>
        <time>2017-07-21T07:12:19Z</time>
      </trkpt>
      <trkpt lat="48.13127" lon="7.07617">
        <ele>1160</ele>
        <time>2017-07-21T07:12:24Z</time>
      </trkpt>
      <trkpt lat="48.13126" lon="7.07612">
        <ele>1160.1999511719</ele>
        <time>2017-07-21T07:12:25Z</time>
      </trkpt>
      <trkpt lat="48.13117" lon="7.0758">
        <ele>1160.4000244141</ele>
        <time>2017-07-21T07:12:30Z</time>
      </trkpt>
      <trkpt lat="48.13114" lon="7.07558">
        <ele>1160.5999755859</ele>
        <time>2017-07-21T07:12:33Z</time>
      </trkpt>
      <trkpt lat="48.13111" lon="7.07529">
        <ele>1161</ele>
        <time>2017-07-21T07:12:37Z</time>
      </trkpt>
      <trkpt lat="48.13104" lon="7.07501">
        <ele>1161.1999511719</ele>
        <time>2017-07-21T07:12:41Z</time>
      </trkpt>
      <trkpt lat="48.131" lon="7.07486">
        <ele>1161.1999511719</ele>
        <time>2017-07-21T07:12:43Z</time>
      </trkpt>
      <trkpt lat="48.13088" lon="7.07441">
        <ele>1161.1999511719</ele>
        <time>2017-07-21T07:12:49Z</time>
      </trkpt>
      <trkpt lat="48.13085" lon="7.07435">
        <ele>1161.1999511719</ele>
        <time>2017-07-21T07:12:50Z</time>
      </trkpt>
      <trkpt lat="48.13079" lon="7.0742">
        <ele>1161.4000244141</ele>
        <time>2017-07-21T07:12:52Z</time>
      </trkpt>
      <trkpt lat="48.13077" lon="7.07413">
        <ele>1161.4000244141</ele>
        <time>2017-07-21T07:12:53Z</time>
      </trkpt>
      <trkpt lat="48.13059" lon="7.07351">
        <ele>1161.1999511719</ele>
        <time>2017-07-21T07:13:01Z</time>
      </trkpt>
      <trkpt lat="48.13036" lon="7.07284">
        <ele>1160.4000244141</ele>
        <time>2017-07-21T07:13:09Z</time>
      </trkpt>
      <trkpt lat="48.13018" lon="7.07244">
        <ele>1159.4000244141</ele>
        <time>2017-07-21T07:13:14Z</time>
      </trkpt>
      <trkpt lat="48.13005" lon="7.07222">
        <ele>1158.8000488281</ele>
        <time>2017-07-21T07:13:17Z</time>
      </trkpt>
      <trkpt lat="48.12992" lon="7.07211">
        <ele>1158.4000244141</ele>
        <time>2017-07-21T07:13:19Z</time>
      </trkpt>
      <trkpt lat="48.12961" lon="7.07194">
        <ele>1157.8000488281</ele>
        <time>2017-07-21T07:13:24Z</time>
      </trkpt>
      <trkpt lat="48.12955" lon="7.07193">
        <ele>1157.5999755859</ele>
        <time>2017-07-21T07:13:25Z</time>
      </trkpt>
      <trkpt lat="48.12935" lon="7.07194">
        <ele>1157.4000244141</ele>
        <time>2017-07-21T07:13:28Z</time>
      </trkpt>
      <trkpt lat="48.12929" lon="7.07196">
        <ele>1157.4000244141</ele>
        <time>2017-07-21T07:13:29Z</time>
      </trkpt>
      <trkpt lat="48.12922" lon="7.07199">
        <ele>1157.4000244141</ele>
        <time>2017-07-21T07:13:30Z</time>
      </trkpt>
      <trkpt lat="48.12916" lon="7.07203">
        <ele>1157.1999511719</ele>
        <time>2017-07-21T07:13:31Z</time>
      </trkpt>
      <trkpt lat="48.12888" lon="7.07216">
        <ele>1156.5999755859</ele>
        <time>2017-07-21T07:13:35Z</time>
      </trkpt>
      <trkpt lat="48.12876" lon="7.07226">
        <ele>1156.1999511719</ele>
        <time>2017-07-21T07:13:37Z</time>
      </trkpt>
      <trkpt lat="48.12857" lon="7.07242">
        <ele>1155.4000244141</ele>
        <time>2017-07-21T07:13:40Z</time>
      </trkpt>
      <trkpt lat="48.12844" lon="7.07252">
        <ele>1155</ele>
        <time>2017-07-21T07:13:42Z</time>
      </trkpt>
      <trkpt lat="48.1281" lon="7.07273">
        <ele>1154</ele>
        <time>2017-07-21T07:13:47Z</time>
      </trkpt>
      <trkpt lat="48.12803" lon="7.07277">
        <ele>1153.8000488281</ele>
        <time>2017-07-21T07:13:48Z</time>
      </trkpt>
      <trkpt lat="48.12775" lon="7.07291">
        <ele>1152.8000488281</ele>
        <time>2017-07-21T07:13:52Z</time>
      </trkpt>
      <trkpt lat="48.12753" lon="7.073">
        <ele>1152.1999511719</ele>
        <time>2017-07-21T07:13:55Z</time>
      </trkpt>
      <trkpt lat="48.1273" lon="7.07306">
        <ele>1151.5999755859</ele>
        <time>2017-07-21T07:13:58Z</time>
      </trkpt>
      <trkpt lat="48.12699" lon="7.0731">
        <ele>1150.8000488281</ele>
        <time>2017-07-21T07:14:02Z</time>
      </trkpt>
      <trkpt lat="48.12691" lon="7.07311">
        <ele>1150.5999755859</ele>
        <time>2017-07-21T07:14:03Z</time>
      </trkpt>
      <trkpt lat="48.12646" lon="7.07313">
        <ele>1149.8000488281</ele>
        <time>2017-07-21T07:14:09Z</time>
      </trkpt>
      <trkpt lat="48.12626" lon="7.07314">
        <ele>1149.5999755859</ele>
        <time>2017-07-21T07:14:12Z</time>
      </trkpt>
      <trkpt lat="48.126" lon="7.07316">
        <ele>1149.5999755859</ele>
        <time>2017-07-21T07:14:16Z</time>
      </trkpt>
      <trkpt lat="48.12567" lon="7.07314">
        <ele>1150</ele>
        <time>2017-07-21T07:14:22Z</time>
      </trkpt>
      <trkpt lat="48.12549" lon="7.07315">
        <ele>1150.5999755859</ele>
        <time>2017-07-21T07:14:26Z</time>
      </trkpt>
      <trkpt lat="48.12545" lon="7.07315">
        <ele>1150.5999755859</ele>
        <time>2017-07-21T07:14:27Z</time>
      </trkpt>
      <trkpt lat="48.1254" lon="7.07315">
        <ele>1150.5999755859</ele>
        <time>2017-07-21T07:14:28Z</time>
      </trkpt>
      <trkpt lat="48.12521" lon="7.0731">
        <ele>1151.1999511719</ele>
        <time>2017-07-21T07:14:32Z</time>
      </trkpt>
      <trkpt lat="48.12513" lon="7.07308">
        <ele>1151.5999755859</ele>
        <time>2017-07-21T07:14:34Z</time>
      </trkpt>
      <trkpt lat="48.12487" lon="7.07297">
        <ele>1152.5999755859</ele>
        <time>2017-07-21T07:14:41Z</time>
      </trkpt>
      <trkpt lat="48.1246" lon="7.07287">
        <ele>1153.5999755859</ele>
        <time>2017-07-21T07:14:49Z</time>
      </trkpt>
      <trkpt lat="48.12456" lon="7.07286">
        <ele>1154</ele>
        <time>2017-07-21T07:14:50Z</time>
      </trkpt>
      <trkpt lat="48.12436" lon="7.07277">
        <ele>1154.8000488281</ele>
        <time>2017-07-21T07:14:56Z</time>
      </trkpt>
      <trkpt lat="48.12433" lon="7.07275">
        <ele>1154.8000488281</ele>
        <time>2017-07-21T07:14:57Z</time>
      </trkpt>
      <trkpt lat="48.12415" lon="7.07264">
        <ele>1155.5999755859</ele>
        <time>2017-07-21T07:15:03Z</time>
      </trkpt>
      <trkpt lat="48.12412" lon="7.07261">
        <ele>1155.8000488281</ele>
        <time>2017-07-21T07:15:04Z</time>
      </trkpt>
      <trkpt lat="48.12394" lon="7.0724">
        <ele>1156.4000244141</ele>
        <time>2017-07-21T07:15:10Z</time>
      </trkpt>
      <trkpt lat="48.1238" lon="7.0721">
        <ele>1156.5999755859</ele>
        <time>2017-07-21T07:15:16Z</time>
      </trkpt>
      <trkpt lat="48.12371" lon="7.07187">
        <ele>1156.8000488281</ele>
        <time>2017-07-21T07:15:20Z</time>
      </trkpt>
      <trkpt lat="48.1237" lon="7.0718">
        <ele>1156.8000488281</ele>
        <time>2017-07-21T07:15:21Z</time>
      </trkpt>
      <trkpt lat="48.12367" lon="7.07167">
        <ele>1157</ele>
        <time>2017-07-21T07:15:23Z</time>
      </trkpt>
      <trkpt lat="48.12357" lon="7.07104">
        <ele>1157</ele>
        <time>2017-07-21T07:15:32Z</time>
      </trkpt>
      <trkpt lat="48.12353" lon="7.0705">
        <ele>1156</ele>
        <time>2017-07-21T07:15:39Z</time>
      </trkpt>
      <trkpt lat="48.1235" lon="7.07024">
        <ele>1155.8000488281</ele>
        <time>2017-07-21T07:15:42Z</time>
      </trkpt>
      <trkpt lat="48.12344" lon="7.06988">
        <ele>1155.1999511719</ele>
        <time>2017-07-21T07:15:46Z</time>
      </trkpt>
      <trkpt lat="48.1233" lon="7.06921">
        <ele>1155.1999511719</ele>
        <time>2017-07-21T07:15:54Z</time>
      </trkpt>
      <trkpt lat="48.12318" lon="7.06876">
        <ele>1155.5999755859</ele>
        <time>2017-07-21T07:16:00Z</time>
      </trkpt>
      <trkpt lat="48.1231" lon="7.0685">
        <ele>1156.1999511719</ele>
        <time>2017-07-21T07:16:04Z</time>
      </trkpt>
      <trkpt lat="48.12307" lon="7.06837">
        <ele>1156.5999755859</ele>
        <time>2017-07-21T07:16:06Z</time>
      </trkpt>
      <trkpt lat="48.12303" lon="7.06825">
        <ele>1156.8000488281</ele>
        <time>2017-07-21T07:16:08Z</time>
      </trkpt>
      <trkpt lat="48.12295" lon="7.06807">
        <ele>1157</ele>
        <time>2017-07-21T07:16:11Z</time>
      </trkpt>
      <trkpt lat="48.12282" lon="7.06768">
        <ele>1157.8000488281</ele>
        <time>2017-07-21T07:16:18Z</time>
      </trkpt>
      <trkpt lat="48.1227" lon="7.06723">
        <ele>1159</ele>
        <time>2017-07-21T07:16:26Z</time>
      </trkpt>
      <trkpt lat="48.12268" lon="7.06718">
        <ele>1159.1999511719</ele>
        <time>2017-07-21T07:16:27Z</time>
      </trkpt>
      <trkpt lat="48.12256" lon="7.06677">
        <ele>1160</ele>
        <time>2017-07-21T07:16:35Z</time>
      </trkpt>
      <trkpt lat="48.12244" lon="7.06641">
        <ele>1160.8000488281</ele>
        <time>2017-07-21T07:16:42Z</time>
      </trkpt>
      <trkpt lat="48.1224" lon="7.06625">
        <ele>1161.1999511719</ele>
        <time>2017-07-21T07:16:45Z</time>
      </trkpt>
      <trkpt lat="48.12232" lon="7.06602">
        <ele>1161.8000488281</ele>
        <time>2017-07-21T07:16:50Z</time>
      </trkpt>
      <trkpt lat="48.12227" lon="7.06591">
        <ele>1162.1999511719</ele>
        <time>2017-07-21T07:16:53Z</time>
      </trkpt>
      <trkpt lat="48.12223" lon="7.06582">
        <ele>1162.4000244141</ele>
        <time>2017-07-21T07:16:55Z</time>
      </trkpt>
      <trkpt lat="48.12213" lon="7.06557">
        <ele>1163.1999511719</ele>
        <time>2017-07-21T07:17:01Z</time>
      </trkpt>
      <trkpt lat="48.12211" lon="7.06553">
        <ele>1163.4000244141</ele>
        <time>2017-07-21T07:17:02Z</time>
      </trkpt>
      <trkpt lat="48.12189" lon="7.06521">
        <ele>1164.1999511719</ele>
        <time>2017-07-21T07:17:10Z</time>
      </trkpt>
      <trkpt lat="48.1217" lon="7.06502">
        <ele>1165.4000244141</ele>
        <time>2017-07-21T07:17:17Z</time>
      </trkpt>
      <trkpt lat="48.12165" lon="7.06498">
        <ele>1165.5999755859</ele>
        <time>2017-07-21T07:17:19Z</time>
      </trkpt>
      <trkpt lat="48.12147" lon="7.06494">
        <ele>1166.4000244141</ele>
        <time>2017-07-21T07:17:25Z</time>
      </trkpt>
      <trkpt lat="48.12131" lon="7.0649">
        <ele>1167</ele>
        <time>2017-07-21T07:17:31Z</time>
      </trkpt>
      <trkpt lat="48.1212" lon="7.06489">
        <ele>1167.4000244141</ele>
        <time>2017-07-21T07:17:35Z</time>
      </trkpt>
      <trkpt lat="48.12117" lon="7.06489">
        <ele>1167.5999755859</ele>
        <time>2017-07-21T07:17:36Z</time>
      </trkpt>
      <trkpt lat="48.12096" lon="7.06486">
        <ele>1168.5999755859</ele>
        <time>2017-07-21T07:17:42Z</time>
      </trkpt>
      <trkpt lat="48.12089" lon="7.06485">
        <ele>1168.8000488281</ele>
        <time>2017-07-21T07:17:44Z</time>
      </trkpt>
      <trkpt lat="48.12067" lon="7.06479">
        <ele>1169.5999755859</ele>
        <time>2017-07-21T07:17:50Z</time>
      </trkpt>
      <trkpt lat="48.12043" lon="7.06471">
        <ele>1170.5999755859</ele>
        <time>2017-07-21T07:17:57Z</time>
      </trkpt>
      <trkpt lat="48.1204" lon="7.06469">
        <ele>1170.5999755859</ele>
        <time>2017-07-21T07:17:58Z</time>
      </trkpt>
      <trkpt lat="48.12028" lon="7.06462">
        <ele>1171.1999511719</ele>
        <time>2017-07-21T07:18:02Z</time>
      </trkpt>
      <trkpt lat="48.12018" lon="7.06458">
        <ele>1171.8000488281</ele>
        <time>2017-07-21T07:18:05Z</time>
      </trkpt>
      <trkpt lat="48.12002" lon="7.06452">
        <ele>1172.1999511719</ele>
        <time>2017-07-21T07:18:10Z</time>
      </trkpt>
      <trkpt lat="48.11988" lon="7.06446">
        <ele>1172.8000488281</ele>
        <time>2017-07-21T07:18:15Z</time>
      </trkpt>
      <trkpt lat="48.11983" lon="7.06444">
        <ele>1172.8000488281</ele>
        <time>2017-07-21T07:18:17Z</time>
      </trkpt>
      <trkpt lat="48.11965" lon="7.06431">
        <ele>1173.8000488281</ele>
        <time>2017-07-21T07:18:24Z</time>
      </trkpt>
      <trkpt lat="48.11962" lon="7.06429">
        <ele>1174</ele>
        <time>2017-07-21T07:18:25Z</time>
      </trkpt>
      <trkpt lat="48.11946" lon="7.06416">
        <ele>1175</ele>
        <time>2017-07-21T07:18:31Z</time>
      </trkpt>
      <trkpt lat="48.11943" lon="7.06413">
        <ele>1175</ele>
        <time>2017-07-21T07:18:32Z</time>
      </trkpt>
      <trkpt lat="48.1192" lon="7.06391">
        <ele>1176</ele>
        <time>2017-07-21T07:18:40Z</time>
      </trkpt>
      <trkpt lat="48.11899" lon="7.06365">
        <ele>1177</ele>
        <time>2017-07-21T07:18:48Z</time>
      </trkpt>
      <trkpt lat="48.11876" lon="7.0634">
        <ele>1178.1999511719</ele>
        <time>2017-07-21T07:18:56Z</time>
      </trkpt>
      <trkpt lat="48.1186" lon="7.06322">
        <ele>1178.8000488281</ele>
        <time>2017-07-21T07:19:02Z</time>
      </trkpt>
      <trkpt lat="48.1185" lon="7.0631">
        <ele>1179.1999511719</ele>
        <time>2017-07-21T07:19:06Z</time>
      </trkpt>
      <trkpt lat="48.11837" lon="7.06294">
        <ele>1180</ele>
        <time>2017-07-21T07:19:11Z</time>
      </trkpt>
      <trkpt lat="48.11828" lon="7.06279">
        <ele>1180.4000244141</ele>
        <time>2017-07-21T07:19:15Z</time>
      </trkpt>
      <trkpt lat="48.11822" lon="7.06268">
        <ele>1180.5999755859</ele>
        <time>2017-07-21T07:19:18Z</time>
      </trkpt>
      <trkpt lat="48.11811" lon="7.06247">
        <ele>1181.4000244141</ele>
        <time>2017-07-21T07:19:23Z</time>
      </trkpt>
      <trkpt lat="48.11808" lon="7.06241">
        <ele>1181.5999755859</ele>
        <time>2017-07-21T07:19:25Z</time>
      </trkpt>
      <trkpt lat="48.11798" lon="7.06221">
        <ele>1182.1999511719</ele>
        <time>2017-07-21T07:19:30Z</time>
      </trkpt>
      <trkpt lat="48.11796" lon="7.06217">
        <ele>1182.4000244141</ele>
        <time>2017-07-21T07:19:31Z</time>
      </trkpt>
      <trkpt lat="48.11786" lon="7.062">
        <ele>1183</ele>
        <time>2017-07-21T07:19:35Z</time>
      </trkpt>
      <trkpt lat="48.11779" lon="7.06188">
        <ele>1183.5999755859</ele>
        <time>2017-07-21T07:19:38Z</time>
      </trkpt>
      <trkpt lat="48.11766" lon="7.06167">
        <ele>1184.4000244141</ele>
        <time>2017-07-21T07:19:43Z</time>
      </trkpt>
      <trkpt lat="48.11759" lon="7.06155">
        <ele>1184.5999755859</ele>
        <time>2017-07-21T07:19:46Z</time>
      </trkpt>
      <trkpt lat="48.11749" lon="7.0614">
        <ele>1185.1999511719</ele>
        <time>2017-07-21T07:19:50Z</time>
      </trkpt>
      <trkpt lat="48.11739" lon="7.06125">
        <ele>1185.8000488281</ele>
        <time>2017-07-21T07:19:54Z</time>
      </trkpt>
      <trkpt lat="48.11728" lon="7.0611">
        <ele>1186.4000244141</ele>
        <time>2017-07-21T07:19:58Z</time>
      </trkpt>
      <trkpt lat="48.11715" lon="7.06097">
        <ele>1186.8000488281</ele>
        <time>2017-07-21T07:20:02Z</time>
      </trkpt>
      <trkpt lat="48.11709" lon="7.06091">
        <ele>1187.1999511719</ele>
        <time>2017-07-21T07:20:04Z</time>
      </trkpt>
      <trkpt lat="48.11693" lon="7.06076">
        <ele>1188</ele>
        <time>2017-07-21T07:20:09Z</time>
      </trkpt>
      <trkpt lat="48.11681" lon="7.06067">
        <ele>1188.4000244141</ele>
        <time>2017-07-21T07:20:13Z</time>
      </trkpt>
      <trkpt lat="48.11668" lon="7.06056">
        <ele>1189</ele>
        <time>2017-07-21T07:20:17Z</time>
      </trkpt>
      <trkpt lat="48.11665" lon="7.06053">
        <ele>1189</ele>
        <time>2017-07-21T07:20:18Z</time>
      </trkpt>
      <trkpt lat="48.11647" lon="7.06036">
        <ele>1189.8000488281</ele>
        <time>2017-07-21T07:20:24Z</time>
      </trkpt>
      <trkpt lat="48.11641" lon="7.06031">
        <ele>1190</ele>
        <time>2017-07-21T07:20:26Z</time>
      </trkpt>
      <trkpt lat="48.11619" lon="7.06016">
        <ele>1191.1999511719</ele>
        <time>2017-07-21T07:20:33Z</time>
      </trkpt>
      <trkpt lat="48.11615" lon="7.06014">
        <ele>1191.1999511719</ele>
        <time>2017-07-21T07:20:34Z</time>
      </trkpt>
      <trkpt lat="48.11594" lon="7.05999">
        <ele>1192.1999511719</ele>
        <time>2017-07-21T07:20:41Z</time>
      </trkpt>
      <trkpt lat="48.1159" lon="7.05997">
        <ele>1192.1999511719</ele>
        <time>2017-07-21T07:20:42Z</time>
      </trkpt>
      <trkpt lat="48.11568" lon="7.05984">
        <ele>1192.8000488281</ele>
        <time>2017-07-21T07:20:49Z</time>
      </trkpt>
      <trkpt lat="48.11561" lon="7.05979">
        <ele>1193.1999511719</ele>
        <time>2017-07-21T07:20:51Z</time>
      </trkpt>
      <trkpt lat="48.11537" lon="7.05965">
        <ele>1194</ele>
        <time>2017-07-21T07:20:58Z</time>
      </trkpt>
      <trkpt lat="48.1153" lon="7.05961">
        <ele>1194.1999511719</ele>
        <time>2017-07-21T07:21:00Z</time>
      </trkpt>
      <trkpt lat="48.11509" lon="7.05948">
        <ele>1194.4000244141</ele>
        <time>2017-07-21T07:21:06Z</time>
      </trkpt>
      <trkpt lat="48.11478" lon="7.05924">
        <ele>1195.4000244141</ele>
        <time>2017-07-21T07:21:15Z</time>
      </trkpt>
      <trkpt lat="48.11471" lon="7.0592">
        <ele>1195.8000488281</ele>
        <time>2017-07-21T07:21:17Z</time>
      </trkpt>
      <trkpt lat="48.11445" lon="7.05898">
        <ele>1196.4000244141</ele>
        <time>2017-07-21T07:21:25Z</time>
      </trkpt>
      <trkpt lat="48.11442" lon="7.05896">
        <ele>1196.4000244141</ele>
        <time>2017-07-21T07:21:26Z</time>
      </trkpt>
      <trkpt lat="48.11416" lon="7.05882">
        <ele>1197.1999511719</ele>
        <time>2017-07-21T07:21:33Z</time>
      </trkpt>
      <trkpt lat="48.11412" lon="7.05881">
        <ele>1197.4000244141</ele>
        <time>2017-07-21T07:21:34Z</time>
      </trkpt>
      <trkpt lat="48.11384" lon="7.05875">
        <ele>1198.1999511719</ele>
        <time>2017-07-21T07:21:42Z</time>
      </trkpt>
      <trkpt lat="48.11376" lon="7.05875">
        <ele>1198.5999755859</ele>
        <time>2017-07-21T07:21:44Z</time>
      </trkpt>
      <trkpt lat="48.11361" lon="7.05874">
        <ele>1199.1999511719</ele>
        <time>2017-07-21T07:21:49Z</time>
      </trkpt>
      <trkpt lat="48.11351" lon="7.05876">
        <ele>1199.5999755859</ele>
        <time>2017-07-21T07:21:52Z</time>
      </trkpt>
      <trkpt lat="48.11341" lon="7.0588">
        <ele>1199.8000488281</ele>
        <time>2017-07-21T07:21:55Z</time>
      </trkpt>
      <trkpt lat="48.11325" lon="7.05889">
        <ele>1200.5999755859</ele>
        <time>2017-07-21T07:22:00Z</time>
      </trkpt>
      <trkpt lat="48.11319" lon="7.05892">
        <ele>1200.8000488281</ele>
        <time>2017-07-21T07:22:02Z</time>
      </trkpt>
      <trkpt lat="48.11306" lon="7.05909">
        <ele>1201</ele>
        <time>2017-07-21T07:22:07Z</time>
      </trkpt>
      <trkpt lat="48.11296" lon="7.05936">
        <ele>1201.1999511719</ele>
        <time>2017-07-21T07:22:13Z</time>
      </trkpt>
      <trkpt lat="48.11292" lon="7.05969">
        <ele>1201.4000244141</ele>
        <time>2017-07-21T07:22:19Z</time>
      </trkpt>
      <trkpt lat="48.11292" lon="7.05991">
        <ele>1201.5999755859</ele>
        <time>2017-07-21T07:22:23Z</time>
      </trkpt>
      <trkpt lat="48.11292" lon="7.06008">
        <ele>1201.8000488281</ele>
        <time>2017-07-21T07:22:26Z</time>
      </trkpt>
      <trkpt lat="48.11294" lon="7.06045">
        <ele>1202.1999511719</ele>
        <time>2017-07-21T07:22:33Z</time>
      </trkpt>
      <trkpt lat="48.11298" lon="7.06087">
        <ele>1202.8000488281</ele>
        <time>2017-07-21T07:22:41Z</time>
      </trkpt>
      <trkpt lat="48.11299" lon="7.06098">
        <ele>1203</ele>
        <time>2017-07-21T07:22:43Z</time>
      </trkpt>
      <trkpt lat="48.11301" lon="7.06134">
        <ele>1203.8000488281</ele>
        <time>2017-07-21T07:22:50Z</time>
      </trkpt>
      <trkpt lat="48.11303" lon="7.0618">
        <ele>1204.5999755859</ele>
        <time>2017-07-21T07:22:59Z</time>
      </trkpt>
      <trkpt lat="48.11304" lon="7.0619">
        <ele>1205</ele>
        <time>2017-07-21T07:23:01Z</time>
      </trkpt>
      <trkpt lat="48.11303" lon="7.06204">
        <ele>1205.4000244141</ele>
        <time>2017-07-21T07:23:04Z</time>
      </trkpt>
      <trkpt lat="48.11303" lon="7.06223">
        <ele>1206</ele>
        <time>2017-07-21T07:23:08Z</time>
      </trkpt>
      <trkpt lat="48.11303" lon="7.06252">
        <ele>1206.5999755859</ele>
        <time>2017-07-21T07:23:14Z</time>
      </trkpt>
      <trkpt lat="48.11303" lon="7.06257">
        <ele>1207</ele>
        <time>2017-07-21T07:23:15Z</time>
      </trkpt>
      <trkpt lat="48.11302" lon="7.06289">
        <ele>1208</ele>
        <time>2017-07-21T07:23:22Z</time>
      </trkpt>
      <trkpt lat="48.11301" lon="7.06299">
        <ele>1208.1999511719</ele>
        <time>2017-07-21T07:23:24Z</time>
      </trkpt>
      <trkpt lat="48.11297" lon="7.06331">
        <ele>1209</ele>
        <time>2017-07-21T07:23:31Z</time>
      </trkpt>
      <trkpt lat="48.11295" lon="7.06339">
        <ele>1209.1999511719</ele>
        <time>2017-07-21T07:23:33Z</time>
      </trkpt>
      <trkpt lat="48.11286" lon="7.0637">
        <ele>1210</ele>
        <time>2017-07-21T07:23:40Z</time>
      </trkpt>
      <trkpt lat="48.11272" lon="7.06399">
        <ele>1210.5999755859</ele>
        <time>2017-07-21T07:23:47Z</time>
      </trkpt>
      <trkpt lat="48.11258" lon="7.06421">
        <ele>1211.1999511719</ele>
        <time>2017-07-21T07:23:53Z</time>
      </trkpt>
      <trkpt lat="48.1125" lon="7.06432">
        <ele>1211.4000244141</ele>
        <time>2017-07-21T07:23:56Z</time>
      </trkpt>
      <trkpt lat="48.11228" lon="7.06457">
        <ele>1212.1999511719</ele>
        <time>2017-07-21T07:24:04Z</time>
      </trkpt>
      <trkpt lat="48.11203" lon="7.06485">
        <ele>1213</ele>
        <time>2017-07-21T07:24:13Z</time>
      </trkpt>
      <trkpt lat="48.11201" lon="7.06487">
        <ele>1213.1999511719</ele>
        <time>2017-07-21T07:24:14Z</time>
      </trkpt>
      <trkpt lat="48.11183" lon="7.06507">
        <ele>1214</ele>
        <time>2017-07-21T07:24:21Z</time>
      </trkpt>
      <trkpt lat="48.11176" lon="7.06515">
        <ele>1214.4000244141</ele>
        <time>2017-07-21T07:24:24Z</time>
      </trkpt>
      <trkpt lat="48.11166" lon="7.06525">
        <ele>1215.1999511719</ele>
        <time>2017-07-21T07:24:28Z</time>
      </trkpt>
      <trkpt lat="48.11163" lon="7.06528">
        <ele>1215.4000244141</ele>
        <time>2017-07-21T07:24:29Z</time>
      </trkpt>
      <trkpt lat="48.11146" lon="7.06537">
        <ele>1216</ele>
        <time>2017-07-21T07:24:35Z</time>
      </trkpt>
      <trkpt lat="48.11134" lon="7.06541">
        <ele>1216.4000244141</ele>
        <time>2017-07-21T07:24:39Z</time>
      </trkpt>
      <trkpt lat="48.11122" lon="7.06543">
        <ele>1217</ele>
        <time>2017-07-21T07:24:43Z</time>
      </trkpt>
      <trkpt lat="48.11106" lon="7.06545">
        <ele>1217.4000244141</ele>
        <time>2017-07-21T07:24:48Z</time>
      </trkpt>
      <trkpt lat="48.11093" lon="7.06547">
        <ele>1217.8000488281</ele>
        <time>2017-07-21T07:24:52Z</time>
      </trkpt>
      <trkpt lat="48.11071" lon="7.06546">
        <ele>1218.5999755859</ele>
        <time>2017-07-21T07:24:59Z</time>
      </trkpt>
      <trkpt lat="48.11062" lon="7.06545">
        <ele>1219</ele>
        <time>2017-07-21T07:25:02Z</time>
      </trkpt>
      <trkpt lat="48.11043" lon="7.06539">
        <ele>1219.5999755859</ele>
        <time>2017-07-21T07:25:08Z</time>
      </trkpt>
      <trkpt lat="48.11036" lon="7.06536">
        <ele>1219.5999755859</ele>
        <time>2017-07-21T07:25:10Z</time>
      </trkpt>
      <trkpt lat="48.1101" lon="7.06521">
        <ele>1219.8000488281</ele>
        <time>2017-07-21T07:25:18Z</time>
      </trkpt>
      <trkpt lat="48.10993" lon="7.06507">
        <ele>1220.4000244141</ele>
        <time>2017-07-21T07:25:25Z</time>
      </trkpt>
      <trkpt lat="48.10988" lon="7.06503">
        <ele>1220</ele>
        <time>2017-07-21T07:26:44Z</time>
      </trkpt>
      <trkpt lat="48.10977" lon="7.06493">
        <ele>1220.1999511719</ele>
        <time>2017-07-21T07:26:50Z</time>
      </trkpt>
      <trkpt lat="48.1096" lon="7.06479">
        <ele>1220.5999755859</ele>
        <time>2017-07-21T07:26:56Z</time>
      </trkpt>
      <trkpt lat="48.10957" lon="7.06476">
        <ele>1220.5999755859</ele>
        <time>2017-07-21T07:26:57Z</time>
      </trkpt>
      <trkpt lat="48.10931" lon="7.06457">
        <ele>1221.1999511719</ele>
        <time>2017-07-21T07:27:05Z</time>
      </trkpt>
      <trkpt lat="48.10916" lon="7.06443">
        <ele>1221.8000488281</ele>
        <time>2017-07-21T07:27:10Z</time>
      </trkpt>
      <trkpt lat="48.10904" lon="7.06431">
        <ele>1222</ele>
        <time>2017-07-21T07:27:14Z</time>
      </trkpt>
      <trkpt lat="48.10884" lon="7.06402">
        <ele>1222.4000244141</ele>
        <time>2017-07-21T07:27:21Z</time>
      </trkpt>
      <trkpt lat="48.10875" lon="7.06389">
        <ele>1222.5999755859</ele>
        <time>2017-07-21T07:27:24Z</time>
      </trkpt>
      <trkpt lat="48.10867" lon="7.06376">
        <ele>1222.4000244141</ele>
        <time>2017-07-21T07:27:27Z</time>
      </trkpt>
      <trkpt lat="48.10864" lon="7.06372">
        <ele>1222.4000244141</ele>
        <time>2017-07-21T07:27:28Z</time>
      </trkpt>
      <trkpt lat="48.10859" lon="7.06362">
        <ele>1222.4000244141</ele>
        <time>2017-07-21T07:27:30Z</time>
      </trkpt>
      <trkpt lat="48.10848" lon="7.06343">
        <ele>1222.4000244141</ele>
        <time>2017-07-21T07:27:34Z</time>
      </trkpt>
      <trkpt lat="48.10834" lon="7.06303">
        <ele>1222.5999755859</ele>
        <time>2017-07-21T07:27:41Z</time>
      </trkpt>
      <trkpt lat="48.10834" lon="7.06297">
        <ele>1222.8000488281</ele>
        <time>2017-07-21T07:27:42Z</time>
      </trkpt>
      <trkpt lat="48.10828" lon="7.06258">
        <ele>1223.1999511719</ele>
        <time>2017-07-21T07:27:48Z</time>
      </trkpt>
      <trkpt lat="48.10817" lon="7.06212">
        <ele>1223.4000244141</ele>
        <time>2017-07-21T07:27:55Z</time>
      </trkpt>
      <trkpt lat="48.10812" lon="7.06202">
        <ele>1223.4000244141</ele>
        <time>2017-07-21T07:27:57Z</time>
      </trkpt>
      <trkpt lat="48.10806" lon="7.0619">
        <ele>1223.4000244141</ele>
        <time>2017-07-21T07:27:59Z</time>
      </trkpt>
      <trkpt lat="48.10803" lon="7.06184">
        <ele>1223.1999511719</ele>
        <time>2017-07-21T07:28:00Z</time>
      </trkpt>
      <trkpt lat="48.10769" lon="7.06126">
        <ele>1223.4000244141</ele>
        <time>2017-07-21T07:28:10Z</time>
      </trkpt>
      <trkpt lat="48.10735" lon="7.06079">
        <ele>1223.8000488281</ele>
        <time>2017-07-21T07:28:19Z</time>
      </trkpt>
      <trkpt lat="48.10707" lon="7.06045">
        <ele>1223.5999755859</ele>
        <time>2017-07-21T07:28:26Z</time>
      </trkpt>
      <trkpt lat="48.10698" lon="7.06037">
        <ele>1223.5999755859</ele>
        <time>2017-07-21T07:28:28Z</time>
      </trkpt>
      <trkpt lat="48.10694" lon="7.06032">
        <ele>1223.5999755859</ele>
        <time>2017-07-21T07:28:29Z</time>
      </trkpt>
      <trkpt lat="48.10675" lon="7.06017">
        <ele>1223.5999755859</ele>
        <time>2017-07-21T07:28:33Z</time>
      </trkpt>
      <trkpt lat="48.10666" lon="7.06009">
        <ele>1223.5999755859</ele>
        <time>2017-07-21T07:28:35Z</time>
      </trkpt>
      <trkpt lat="48.10655" lon="7.06004">
        <ele>1223.5999755859</ele>
        <time>2017-07-21T07:28:37Z</time>
      </trkpt>
      <trkpt lat="48.10635" lon="7.05995">
        <ele>1223.5999755859</ele>
        <time>2017-07-21T07:28:41Z</time>
      </trkpt>
      <trkpt lat="48.10609" lon="7.05992">
        <ele>1223.8000488281</ele>
        <time>2017-07-21T07:28:46Z</time>
      </trkpt>
      <trkpt lat="48.10603" lon="7.05993">
        <ele>1223.8000488281</ele>
        <time>2017-07-21T07:28:47Z</time>
      </trkpt>
      <trkpt lat="48.10564" lon="7.05997">
        <ele>1223.8000488281</ele>
        <time>2017-07-21T07:28:54Z</time>
      </trkpt>
      <trkpt lat="48.10533" lon="7.06003">
        <ele>1223.8000488281</ele>
        <time>2017-07-21T07:29:00Z</time>
      </trkpt>
      <trkpt lat="48.10484" lon="7.06013">
        <ele>1223.5999755859</ele>
        <time>2017-07-21T07:29:09Z</time>
      </trkpt>
      <trkpt lat="48.10455" lon="7.06013">
        <ele>1223.1999511719</ele>
        <time>2017-07-21T07:29:14Z</time>
      </trkpt>
      <trkpt lat="48.10448" lon="7.06012">
        <ele>1222.8000488281</ele>
        <time>2017-07-21T07:29:15Z</time>
      </trkpt>
      <trkpt lat="48.10442" lon="7.0601">
        <ele>1222.5999755859</ele>
        <time>2017-07-21T07:29:16Z</time>
      </trkpt>
      <trkpt lat="48.10415" lon="7.06003">
        <ele>1221.5999755859</ele>
        <time>2017-07-21T07:29:20Z</time>
      </trkpt>
      <trkpt lat="48.10401" lon="7.05997">
        <ele>1221.1999511719</ele>
        <time>2017-07-21T07:29:22Z</time>
      </trkpt>
      <trkpt lat="48.10373" lon="7.05987">
        <ele>1220.5999755859</ele>
        <time>2017-07-21T07:29:26Z</time>
      </trkpt>
      <trkpt lat="48.10352" lon="7.05975">
        <ele>1219.8000488281</ele>
        <time>2017-07-21T07:29:29Z</time>
      </trkpt>
      <trkpt lat="48.10345" lon="7.05969">
        <ele>1219.4000244141</ele>
        <time>2017-07-21T07:29:30Z</time>
      </trkpt>
      <trkpt lat="48.10318" lon="7.05944">
        <ele>1218.1999511719</ele>
        <time>2017-07-21T07:29:34Z</time>
      </trkpt>
      <trkpt lat="48.10312" lon="7.05935">
        <ele>1218</ele>
        <time>2017-07-21T07:29:35Z</time>
      </trkpt>
      <trkpt lat="48.10294" lon="7.05909">
        <ele>1217.1999511719</ele>
        <time>2017-07-21T07:29:38Z</time>
      </trkpt>
      <trkpt lat="48.10288" lon="7.059">
        <ele>1217</ele>
        <time>2017-07-21T07:29:39Z</time>
      </trkpt>
      <trkpt lat="48.10272" lon="7.05871">
        <ele>1215.8000488281</ele>
        <time>2017-07-21T07:29:42Z</time>
      </trkpt>
      <trkpt lat="48.10262" lon="7.05851">
        <ele>1215</ele>
        <time>2017-07-21T07:29:44Z</time>
      </trkpt>
      <trkpt lat="48.10257" lon="7.0584">
        <ele>1214.5999755859</ele>
        <time>2017-07-21T07:29:45Z</time>
      </trkpt>
      <trkpt lat="48.1024" lon="7.05793">
        <ele>1213.4000244141</ele>
        <time>2017-07-21T07:29:49Z</time>
      </trkpt>
      <trkpt lat="48.10236" lon="7.05781">
        <ele>1213</ele>
        <time>2017-07-21T07:29:50Z</time>
      </trkpt>
      <trkpt lat="48.10228" lon="7.05758">
        <ele>1212.1999511719</ele>
        <time>2017-07-21T07:29:52Z</time>
      </trkpt>
      <trkpt lat="48.10213" lon="7.05709">
        <ele>1211</ele>
        <time>2017-07-21T07:29:56Z</time>
      </trkpt>
      <trkpt lat="48.1021" lon="7.05696">
        <ele>1210.5999755859</ele>
        <time>2017-07-21T07:29:57Z</time>
      </trkpt>
      <trkpt lat="48.10204" lon="7.05671">
        <ele>1210</ele>
        <time>2017-07-21T07:29:59Z</time>
      </trkpt>
      <trkpt lat="48.10191" lon="7.05619">
        <ele>1208.1999511719</ele>
        <time>2017-07-21T07:30:03Z</time>
      </trkpt>
      <trkpt lat="48.10187" lon="7.05607">
        <ele>1208</ele>
        <time>2017-07-21T07:30:04Z</time>
      </trkpt>
      <trkpt lat="48.10177" lon="7.05583">
        <ele>1207.1999511719</ele>
        <time>2017-07-21T07:30:06Z</time>
      </trkpt>
      <trkpt lat="48.10167" lon="7.05559">
        <ele>1206.5999755859</ele>
        <time>2017-07-21T07:30:08Z</time>
      </trkpt>
      <trkpt lat="48.10158" lon="7.05534">
        <ele>1206</ele>
        <time>2017-07-21T07:30:10Z</time>
      </trkpt>
      <trkpt lat="48.10153" lon="7.05523">
        <ele>1205.8000488281</ele>
        <time>2017-07-21T07:30:11Z</time>
      </trkpt>
      <trkpt lat="48.10142" lon="7.05501">
        <ele>1205.4000244141</ele>
        <time>2017-07-21T07:30:13Z</time>
      </trkpt>
      <trkpt lat="48.10137" lon="7.0549">
        <ele>1205</ele>
        <time>2017-07-21T07:30:14Z</time>
      </trkpt>
      <trkpt lat="48.10117" lon="7.05462">
        <ele>1204.1999511719</ele>
        <time>2017-07-21T07:30:17Z</time>
      </trkpt>
      <trkpt lat="48.10109" lon="7.05455">
        <ele>1203.8000488281</ele>
        <time>2017-07-21T07:30:18Z</time>
      </trkpt>
      <trkpt lat="48.10084" lon="7.05439">
        <ele>1203</ele>
        <time>2017-07-21T07:30:21Z</time>
      </trkpt>
      <trkpt lat="48.10075" lon="7.05437">
        <ele>1202.5999755859</ele>
        <time>2017-07-21T07:30:22Z</time>
      </trkpt>
      <trkpt lat="48.10066" lon="7.05435">
        <ele>1202.1999511719</ele>
        <time>2017-07-21T07:30:23Z</time>
      </trkpt>
      <trkpt lat="48.1004" lon="7.05428">
        <ele>1201.4000244141</ele>
        <time>2017-07-21T07:30:26Z</time>
      </trkpt>
      <trkpt lat="48.10031" lon="7.05426">
        <ele>1201.1999511719</ele>
        <time>2017-07-21T07:30:27Z</time>
      </trkpt>
      <trkpt lat="48.10012" lon="7.05426">
        <ele>1200.4000244141</ele>
        <time>2017-07-21T07:30:29Z</time>
      </trkpt>
      <trkpt lat="48.09984" lon="7.05425">
        <ele>1199.5999755859</ele>
        <time>2017-07-21T07:30:32Z</time>
      </trkpt>
      <trkpt lat="48.09975" lon="7.05425">
        <ele>1199.4000244141</ele>
        <time>2017-07-21T07:30:33Z</time>
      </trkpt>
      <trkpt lat="48.09947" lon="7.05423">
        <ele>1198.1999511719</ele>
        <time>2017-07-21T07:30:36Z</time>
      </trkpt>
      <trkpt lat="48.0993" lon="7.05418">
        <ele>1197.4000244141</ele>
        <time>2017-07-21T07:30:38Z</time>
      </trkpt>
      <trkpt lat="48.09921" lon="7.05415">
        <ele>1197</ele>
        <time>2017-07-21T07:30:39Z</time>
      </trkpt>
      <trkpt lat="48.09894" lon="7.05407">
        <ele>1196</ele>
        <time>2017-07-21T07:30:42Z</time>
      </trkpt>
      <trkpt lat="48.09868" lon="7.054">
        <ele>1195.1999511719</ele>
        <time>2017-07-21T07:30:45Z</time>
      </trkpt>
      <trkpt lat="48.09859" lon="7.05402">
        <ele>1195</ele>
        <time>2017-07-21T07:30:46Z</time>
      </trkpt>
      <trkpt lat="48.09841" lon="7.05406">
        <ele>1194.4000244141</ele>
        <time>2017-07-21T07:30:48Z</time>
      </trkpt>
      <trkpt lat="48.09823" lon="7.05409">
        <ele>1193.8000488281</ele>
        <time>2017-07-21T07:30:50Z</time>
      </trkpt>
      <trkpt lat="48.09805" lon="7.05412">
        <ele>1192.5999755859</ele>
        <time>2017-07-21T07:30:52Z</time>
      </trkpt>
      <trkpt lat="48.09786" lon="7.05412">
        <ele>1192</ele>
        <time>2017-07-21T07:30:54Z</time>
      </trkpt>
      <trkpt lat="48.09777" lon="7.05411">
        <ele>1191.5999755859</ele>
        <time>2017-07-21T07:30:55Z</time>
      </trkpt>
      <trkpt lat="48.09748" lon="7.05409">
        <ele>1190.4000244141</ele>
        <time>2017-07-21T07:30:58Z</time>
      </trkpt>
      <trkpt lat="48.0973" lon="7.05409">
        <ele>1189.5999755859</ele>
        <time>2017-07-21T07:31:00Z</time>
      </trkpt>
      <trkpt lat="48.09721" lon="7.05413">
        <ele>1189.1999511719</ele>
        <time>2017-07-21T07:31:01Z</time>
      </trkpt>
      <trkpt lat="48.09706" lon="7.05421">
        <ele>1188.4000244141</ele>
        <time>2017-07-21T07:31:03Z</time>
      </trkpt>
      <trkpt lat="48.09692" lon="7.05429">
        <ele>1188</ele>
        <time>2017-07-21T07:31:05Z</time>
      </trkpt>
      <trkpt lat="48.09676" lon="7.0544">
        <ele>1187.8000488281</ele>
        <time>2017-07-21T07:31:08Z</time>
      </trkpt>
      <trkpt lat="48.09658" lon="7.05454">
        <ele>1189.1999511719</ele>
        <time>2017-07-21T07:31:13Z</time>
      </trkpt>
      <trkpt lat="48.09649" lon="7.05463">
        <ele>1190.1999511719</ele>
        <time>2017-07-21T07:31:17Z</time>
      </trkpt>
      <trkpt lat="48.0964" lon="7.05474">
        <ele>1190.8000488281</ele>
        <time>2017-07-21T07:31:21Z</time>
      </trkpt>
      <trkpt lat="48.09633" lon="7.05481">
        <ele>1191.1999511719</ele>
        <time>2017-07-21T07:31:24Z</time>
      </trkpt>
      <trkpt lat="48.09623" lon="7.05494">
        <ele>1192.1999511719</ele>
        <time>2017-07-21T07:31:29Z</time>
      </trkpt>
      <trkpt lat="48.09621" lon="7.05496">
        <ele>1192.4000244141</ele>
        <time>2017-07-21T07:31:30Z</time>
      </trkpt>
      <trkpt lat="48.09612" lon="7.05508">
        <ele>1193.5999755859</ele>
        <time>2017-07-21T07:31:36Z</time>
      </trkpt>
      <trkpt lat="48.09608" lon="7.05514">
        <ele>1194.1999511719</ele>
        <time>2017-07-21T07:31:39Z</time>
      </trkpt>
      <trkpt lat="48.09604" lon="7.05521">
        <ele>1194.8000488281</ele>
        <time>2017-07-21T07:31:42Z</time>
      </trkpt>
      <trkpt lat="48.09596" lon="7.05534">
        <ele>1195.8000488281</ele>
        <time>2017-07-21T07:31:48Z</time>
      </trkpt>
      <trkpt lat="48.09595" lon="7.05536">
        <ele>1196</ele>
        <time>2017-07-21T07:31:49Z</time>
      </trkpt>
      <trkpt lat="48.09587" lon="7.05551">
        <ele>1197</ele>
        <time>2017-07-21T07:31:56Z</time>
      </trkpt>
      <trkpt lat="48.09585" lon="7.05552">
        <ele>1197</ele>
        <time>2017-07-21T07:31:57Z</time>
      </trkpt>
      <trkpt lat="48.09579" lon="7.05564">
        <ele>1198</ele>
        <time>2017-07-21T07:32:03Z</time>
      </trkpt>
      <trkpt lat="48.09578" lon="7.05569">
        <ele>1198.1999511719</ele>
        <time>2017-07-21T07:32:05Z</time>
      </trkpt>
      <trkpt lat="48.09571" lon="7.05583">
        <ele>1199.1999511719</ele>
        <time>2017-07-21T07:32:11Z</time>
      </trkpt>
      <trkpt lat="48.0957" lon="7.05585">
        <ele>1199.1999511719</ele>
        <time>2017-07-21T07:32:12Z</time>
      </trkpt>
      <trkpt lat="48.09563" lon="7.056">
        <ele>1200.1999511719</ele>
        <time>2017-07-21T07:32:19Z</time>
      </trkpt>
      <trkpt lat="48.0956" lon="7.05605">
        <ele>1200.5999755859</ele>
        <time>2017-07-21T07:32:22Z</time>
      </trkpt>
      <trkpt lat="48.09557" lon="7.05612">
        <ele>1201.1999511719</ele>
        <time>2017-07-21T07:32:25Z</time>
      </trkpt>
      <trkpt lat="48.09553" lon="7.05623">
        <ele>1202.1999511719</ele>
        <time>2017-07-21T07:32:30Z</time>
      </trkpt>
      <trkpt lat="48.09553" lon="7.05625">
        <ele>1202.4000244141</ele>
        <time>2017-07-21T07:32:31Z</time>
      </trkpt>
      <trkpt lat="48.09546" lon="7.05637">
        <ele>1203.4000244141</ele>
        <time>2017-07-21T07:32:37Z</time>
      </trkpt>
      <trkpt lat="48.09541" lon="7.0565">
        <ele>1204.4000244141</ele>
        <time>2017-07-21T07:32:43Z</time>
      </trkpt>
      <trkpt lat="48.0954" lon="7.05652">
        <ele>1204.5999755859</ele>
        <time>2017-07-21T07:32:44Z</time>
      </trkpt>
      <trkpt lat="48.09536" lon="7.05665">
        <ele>1205.4000244141</ele>
        <time>2017-07-21T07:32:50Z</time>
      </trkpt>
      <trkpt lat="48.09534" lon="7.05667">
        <ele>1205.5999755859</ele>
        <time>2017-07-21T07:32:51Z</time>
      </trkpt>
      <trkpt lat="48.0953" lon="7.05678">
        <ele>1206.5999755859</ele>
        <time>2017-07-21T07:32:56Z</time>
      </trkpt>
      <trkpt lat="48.09529" lon="7.05683">
        <ele>1206.8000488281</ele>
        <time>2017-07-21T07:32:58Z</time>
      </trkpt>
      <trkpt lat="48.09526" lon="7.05693">
        <ele>1207.5999755859</ele>
        <time>2017-07-21T07:33:02Z</time>
      </trkpt>
      <trkpt lat="48.09522" lon="7.05704">
        <ele>1208.5999755859</ele>
        <time>2017-07-21T07:33:07Z</time>
      </trkpt>
      <trkpt lat="48.09522" lon="7.05707">
        <ele>1208.5999755859</ele>
        <time>2017-07-21T07:33:08Z</time>
      </trkpt>
      <trkpt lat="48.09516" lon="7.05723">
        <ele>1209.8000488281</ele>
        <time>2017-07-21T07:33:15Z</time>
      </trkpt>
      <trkpt lat="48.09513" lon="7.05734">
        <ele>1210.8000488281</ele>
        <time>2017-07-21T07:33:20Z</time>
      </trkpt>
      <trkpt lat="48.09513" lon="7.05736">
        <ele>1211.1999511719</ele>
        <time>2017-07-21T07:33:21Z</time>
      </trkpt>
      <trkpt lat="48.09509" lon="7.05749">
        <ele>1211.8000488281</ele>
        <time>2017-07-21T07:33:27Z</time>
      </trkpt>
      <trkpt lat="48.09505" lon="7.05763">
        <ele>1212.8000488281</ele>
        <time>2017-07-21T07:33:33Z</time>
      </trkpt>
      <trkpt lat="48.09504" lon="7.05768">
        <ele>1213</ele>
        <time>2017-07-21T07:33:35Z</time>
      </trkpt>
      <trkpt lat="48.09502" lon="7.05782">
        <ele>1214</ele>
        <time>2017-07-21T07:33:41Z</time>
      </trkpt>
      <trkpt lat="48.09501" lon="7.05785">
        <ele>1214.1999511719</ele>
        <time>2017-07-21T07:33:42Z</time>
      </trkpt>
      <trkpt lat="48.09497" lon="7.05803">
        <ele>1215.1999511719</ele>
        <time>2017-07-21T07:33:49Z</time>
      </trkpt>
      <trkpt lat="48.09492" lon="7.05821">
        <ele>1216.1999511719</ele>
        <time>2017-07-21T07:33:56Z</time>
      </trkpt>
      <trkpt lat="48.09489" lon="7.05829">
        <ele>1216.5999755859</ele>
        <time>2017-07-21T07:33:59Z</time>
      </trkpt>
      <trkpt lat="48.09486" lon="7.0584">
        <ele>1217.4000244141</ele>
        <time>2017-07-21T07:34:03Z</time>
      </trkpt>
      <trkpt lat="48.09481" lon="7.05855">
        <ele>1218.1999511719</ele>
        <time>2017-07-21T07:34:08Z</time>
      </trkpt>
      <trkpt lat="48.0948" lon="7.05858">
        <ele>1218.4000244141</ele>
        <time>2017-07-21T07:34:09Z</time>
      </trkpt>
      <trkpt lat="48.09472" lon="7.05883">
        <ele>1219.4000244141</ele>
        <time>2017-07-21T07:34:17Z</time>
      </trkpt>
      <trkpt lat="48.09471" lon="7.05886">
        <ele>1219.5999755859</ele>
        <time>2017-07-21T07:34:18Z</time>
      </trkpt>
      <trkpt lat="48.09464" lon="7.05912">
        <ele>1220.5999755859</ele>
        <time>2017-07-21T07:34:26Z</time>
      </trkpt>
      <trkpt lat="48.09463" lon="7.05915">
        <ele>1220.5999755859</ele>
        <time>2017-07-21T07:34:27Z</time>
      </trkpt>
      <trkpt lat="48.09454" lon="7.05942">
        <ele>1221.5999755859</ele>
        <time>2017-07-21T07:34:35Z</time>
      </trkpt>
      <trkpt lat="48.09447" lon="7.05968">
        <ele>1222.4000244141</ele>
        <time>2017-07-21T07:34:42Z</time>
      </trkpt>
      <trkpt lat="48.09444" lon="7.05978">
        <ele>1222.8000488281</ele>
        <time>2017-07-21T07:34:45Z</time>
      </trkpt>
      <trkpt lat="48.09436" lon="7.05996">
        <ele>1223.5999755859</ele>
        <time>2017-07-21T07:34:51Z</time>
      </trkpt>
      <trkpt lat="48.09434" lon="7.05999">
        <ele>1223.8000488281</ele>
        <time>2017-07-21T07:34:52Z</time>
      </trkpt>
      <trkpt lat="48.09421" lon="7.0602">
        <ele>1224.8000488281</ele>
        <time>2017-07-21T07:34:59Z</time>
      </trkpt>
      <trkpt lat="48.09417" lon="7.06026">
        <ele>1225</ele>
        <time>2017-07-21T07:35:01Z</time>
      </trkpt>
      <trkpt lat="48.09405" lon="7.06035">
        <ele>1225.5999755859</ele>
        <time>2017-07-21T07:35:06Z</time>
      </trkpt>
      <trkpt lat="48.09391" lon="7.06041">
        <ele>1226</ele>
        <time>2017-07-21T07:35:11Z</time>
      </trkpt>
      <trkpt lat="48.09385" lon="7.06043">
        <ele>1226</ele>
        <time>2017-07-21T07:35:13Z</time>
      </trkpt>
      <trkpt lat="48.09363" lon="7.0605">
        <ele>1226.4000244141</ele>
        <time>2017-07-21T07:35:19Z</time>
      </trkpt>
      <trkpt lat="48.09341" lon="7.06057">
        <ele>1226.1999511719</ele>
        <time>2017-07-21T07:35:24Z</time>
      </trkpt>
      <trkpt lat="48.09336" lon="7.06058">
        <ele>1226.1999511719</ele>
        <time>2017-07-21T07:35:25Z</time>
      </trkpt>
      <trkpt lat="48.09316" lon="7.06063">
        <ele>1225.8000488281</ele>
        <time>2017-07-21T07:35:29Z</time>
      </trkpt>
      <trkpt lat="48.09306" lon="7.06061">
        <ele>1225.5999755859</ele>
        <time>2017-07-21T07:35:31Z</time>
      </trkpt>
      <trkpt lat="48.09301" lon="7.0606">
        <ele>1225.4000244141</ele>
        <time>2017-07-21T07:35:32Z</time>
      </trkpt>
      <trkpt lat="48.09284" lon="7.06047">
        <ele>1225.4000244141</ele>
        <time>2017-07-21T07:35:36Z</time>
      </trkpt>
      <trkpt lat="48.09274" lon="7.06034">
        <ele>1225.4000244141</ele>
        <time>2017-07-21T07:35:39Z</time>
      </trkpt>
      <trkpt lat="48.09266" lon="7.06019">
        <ele>1225.8000488281</ele>
        <time>2017-07-21T07:35:42Z</time>
      </trkpt>
      <trkpt lat="48.09249" lon="7.05983">
        <ele>1227</ele>
        <time>2017-07-21T07:35:49Z</time>
      </trkpt>
      <trkpt lat="48.09238" lon="7.05961">
        <ele>1227</ele>
        <time>2017-07-21T07:35:53Z</time>
      </trkpt>
      <trkpt lat="48.09233" lon="7.05948">
        <ele>1227</ele>
        <time>2017-07-21T07:35:55Z</time>
      </trkpt>
      <trkpt lat="48.09217" lon="7.05912">
        <ele>1226.4000244141</ele>
        <time>2017-07-21T07:36:00Z</time>
      </trkpt>
      <trkpt lat="48.092" lon="7.05866">
        <ele>1225</ele>
        <time>2017-07-21T07:36:05Z</time>
      </trkpt>
      <trkpt lat="48.09186" lon="7.05821">
        <ele>1223.5999755859</ele>
        <time>2017-07-21T07:36:09Z</time>
      </trkpt>
      <trkpt lat="48.09183" lon="7.05809">
        <ele>1223.1999511719</ele>
        <time>2017-07-21T07:36:10Z</time>
      </trkpt>
      <trkpt lat="48.09179" lon="7.05783">
        <ele>1222.1999511719</ele>
        <time>2017-07-21T07:36:12Z</time>
      </trkpt>
      <trkpt lat="48.09173" lon="7.05744">
        <ele>1220.8000488281</ele>
        <time>2017-07-21T07:36:15Z</time>
      </trkpt>
      <trkpt lat="48.09168" lon="7.0572">
        <ele>1220</ele>
        <time>2017-07-21T07:36:17Z</time>
      </trkpt>
      <trkpt lat="48.09164" lon="7.05709">
        <ele>1219.5999755859</ele>
        <time>2017-07-21T07:36:18Z</time>
      </trkpt>
      <trkpt lat="48.0916" lon="7.05698">
        <ele>1219.1999511719</ele>
        <time>2017-07-21T07:36:19Z</time>
      </trkpt>
      <trkpt lat="48.09146" lon="7.0567">
        <ele>1218.5999755859</ele>
        <time>2017-07-21T07:36:22Z</time>
      </trkpt>
      <trkpt lat="48.09136" lon="7.05654">
        <ele>1218.4000244141</ele>
        <time>2017-07-21T07:36:24Z</time>
      </trkpt>
      <trkpt lat="48.09113" lon="7.05624">
        <ele>1218.5999755859</ele>
        <time>2017-07-21T07:36:29Z</time>
      </trkpt>
      <trkpt lat="48.09109" lon="7.05619">
        <ele>1218.8000488281</ele>
        <time>2017-07-21T07:36:30Z</time>
      </trkpt>
      <trkpt lat="48.09098" lon="7.05604">
        <ele>1219</ele>
        <time>2017-07-21T07:36:33Z</time>
      </trkpt>
      <trkpt lat="48.09093" lon="7.05594">
        <ele>1219</ele>
        <time>2017-07-21T07:36:35Z</time>
      </trkpt>
      <trkpt lat="48.09087" lon="7.05577">
        <ele>1219.1999511719</ele>
        <time>2017-07-21T07:36:38Z</time>
      </trkpt>
      <trkpt lat="48.09083" lon="7.05555">
        <ele>1219.5999755859</ele>
        <time>2017-07-21T07:36:42Z</time>
      </trkpt>
      <trkpt lat="48.09083" lon="7.05549">
        <ele>1219.5999755859</ele>
        <time>2017-07-21T07:36:43Z</time>
      </trkpt>
      <trkpt lat="48.09083" lon="7.0551">
        <ele>1219.5999755859</ele>
        <time>2017-07-21T07:36:48Z</time>
      </trkpt>
      <trkpt lat="48.09087" lon="7.0546">
        <ele>1218.8000488281</ele>
        <time>2017-07-21T07:36:53Z</time>
      </trkpt>
      <trkpt lat="48.0909" lon="7.05436">
        <ele>1218.1999511719</ele>
        <time>2017-07-21T07:36:55Z</time>
      </trkpt>
      <trkpt lat="48.09095" lon="7.054">
        <ele>1217.1999511719</ele>
        <time>2017-07-21T07:36:58Z</time>
      </trkpt>
      <trkpt lat="48.09097" lon="7.05388">
        <ele>1216.8000488281</ele>
        <time>2017-07-21T07:36:59Z</time>
      </trkpt>
      <trkpt lat="48.091" lon="7.05354">
        <ele>1216</ele>
        <time>2017-07-21T07:37:02Z</time>
      </trkpt>
      <trkpt lat="48.09102" lon="7.05325">
        <ele>1215.8000488281</ele>
        <time>2017-07-21T07:37:05Z</time>
      </trkpt>
      <trkpt lat="48.09101" lon="7.05269">
        <ele>1216</ele>
        <time>2017-07-21T07:37:11Z</time>
      </trkpt>
      <trkpt lat="48.09092" lon="7.05233">
        <ele>1216</ele>
        <time>2017-07-21T07:37:15Z</time>
      </trkpt>
      <trkpt lat="48.09088" lon="7.05226">
        <ele>1216</ele>
        <time>2017-07-21T07:37:16Z</time>
      </trkpt>
      <trkpt lat="48.09077" lon="7.05208">
        <ele>1216.1999511719</ele>
        <time>2017-07-21T07:37:19Z</time>
      </trkpt>
      <trkpt lat="48.09074" lon="7.05204">
        <ele>1216.5999755859</ele>
        <time>2017-07-21T07:37:20Z</time>
      </trkpt>
      <trkpt lat="48.09071" lon="7.052">
        <ele>1216.8000488281</ele>
        <time>2017-07-21T07:37:21Z</time>
      </trkpt>
      <trkpt lat="48.09064" lon="7.05192">
        <ele>1217</ele>
        <time>2017-07-21T07:37:23Z</time>
      </trkpt>
      <trkpt lat="48.09055" lon="7.05181">
        <ele>1217.1999511719</ele>
        <time>2017-07-21T07:37:26Z</time>
      </trkpt>
      <trkpt lat="48.09038" lon="7.05154">
        <ele>1217.8000488281</ele>
        <time>2017-07-21T07:37:32Z</time>
      </trkpt>
      <trkpt lat="48.09034" lon="7.05143">
        <ele>1218</ele>
        <time>2017-07-21T07:37:34Z</time>
      </trkpt>
      <trkpt lat="48.09033" lon="7.05137">
        <ele>1218.1999511719</ele>
        <time>2017-07-21T07:37:35Z</time>
      </trkpt>
      <trkpt lat="48.09032" lon="7.05124">
        <ele>1218.5999755859</ele>
        <time>2017-07-21T07:37:37Z</time>
      </trkpt>
      <trkpt lat="48.09033" lon="7.05098">
        <ele>1219</ele>
        <time>2017-07-21T07:37:41Z</time>
      </trkpt>
      <trkpt lat="48.09034" lon="7.0509">
        <ele>1219.1999511719</ele>
        <time>2017-07-21T07:37:42Z</time>
      </trkpt>
      <trkpt lat="48.09035" lon="7.05076">
        <ele>1219.1999511719</ele>
        <time>2017-07-21T07:37:44Z</time>
      </trkpt>
      <trkpt lat="48.09037" lon="7.05061">
        <ele>1219.1999511719</ele>
        <time>2017-07-21T07:37:46Z</time>
      </trkpt>
      <trkpt lat="48.09042" lon="7.05034">
        <ele>1219.1999511719</ele>
        <time>2017-07-21T07:37:50Z</time>
      </trkpt>
      <trkpt lat="48.09049" lon="7.04983">
        <ele>1220.4000244141</ele>
        <time>2017-07-21T07:37:58Z</time>
      </trkpt>
      <trkpt lat="48.0905" lon="7.04977">
        <ele>1220.4000244141</ele>
        <time>2017-07-21T07:37:59Z</time>
      </trkpt>
      <trkpt lat="48.09052" lon="7.04964">
        <ele>1220.5999755859</ele>
        <time>2017-07-21T07:38:01Z</time>
      </trkpt>
      <trkpt lat="48.09056" lon="7.04937">
        <ele>1221</ele>
        <time>2017-07-21T07:38:05Z</time>
      </trkpt>
      <trkpt lat="48.09061" lon="7.04897">
        <ele>1221.4000244141</ele>
        <time>2017-07-21T07:38:11Z</time>
      </trkpt>
      <trkpt lat="48.09062" lon="7.04875">
        <ele>1221.5999755859</ele>
        <time>2017-07-21T07:38:14Z</time>
      </trkpt>
      <trkpt lat="48.09059" lon="7.04823">
        <ele>1222</ele>
        <time>2017-07-21T07:38:21Z</time>
      </trkpt>
      <trkpt lat="48.09058" lon="7.04816">
        <ele>1222.1999511719</ele>
        <time>2017-07-21T07:38:22Z</time>
      </trkpt>
      <trkpt lat="48.09053" lon="7.04798">
        <ele>1222.4000244141</ele>
        <time>2017-07-21T07:38:25Z</time>
      </trkpt>
      <trkpt lat="48.09047" lon="7.04783">
        <ele>1222.8000488281</ele>
        <time>2017-07-21T07:38:28Z</time>
      </trkpt>
      <trkpt lat="48.0904" lon="7.04766">
        <ele>1223.5999755859</ele>
        <time>2017-07-21T07:38:32Z</time>
      </trkpt>
      <trkpt lat="48.09034" lon="7.04756">
        <ele>1224.1999511719</ele>
        <time>2017-07-21T07:38:35Z</time>
      </trkpt>
      <trkpt lat="48.0903" lon="7.04749">
        <ele>1224.5999755859</ele>
        <time>2017-07-21T07:38:37Z</time>
      </trkpt>
      <trkpt lat="48.09024" lon="7.04741">
        <ele>1225.1999511719</ele>
        <time>2017-07-21T07:38:40Z</time>
      </trkpt>
      <trkpt lat="48.09017" lon="7.04735">
        <ele>1225.8000488281</ele>
        <time>2017-07-21T07:38:43Z</time>
      </trkpt>
      <trkpt lat="48.09011" lon="7.04727">
        <ele>1226.4000244141</ele>
        <time>2017-07-21T07:38:46Z</time>
      </trkpt>
      <trkpt lat="48.09004" lon="7.0472">
        <ele>1226.8000488281</ele>
        <time>2017-07-21T07:38:49Z</time>
      </trkpt>
      <trkpt lat="48.08995" lon="7.0471">
        <ele>1227.5999755859</ele>
        <time>2017-07-21T07:38:53Z</time>
      </trkpt>
      <trkpt lat="48.0899" lon="7.04706">
        <ele>1228</ele>
        <time>2017-07-21T07:38:55Z</time>
      </trkpt>
      <trkpt lat="48.08974" lon="7.04689">
        <ele>1229</ele>
        <time>2017-07-21T07:39:02Z</time>
      </trkpt>
      <trkpt lat="48.08971" lon="7.04687">
        <ele>1229.1999511719</ele>
        <time>2017-07-21T07:39:03Z</time>
      </trkpt>
      <trkpt lat="48.08951" lon="7.04671">
        <ele>1230</ele>
        <time>2017-07-21T07:39:11Z</time>
      </trkpt>
      <trkpt lat="48.08949" lon="7.04669">
        <ele>1230.1999511719</ele>
        <time>2017-07-21T07:39:12Z</time>
      </trkpt>
      <trkpt lat="48.08933" lon="7.04658">
        <ele>1231.1999511719</ele>
        <time>2017-07-21T07:39:18Z</time>
      </trkpt>
      <trkpt lat="48.08927" lon="7.04654">
        <ele>1231.4000244141</ele>
        <time>2017-07-21T07:39:20Z</time>
      </trkpt>
      <trkpt lat="48.08905" lon="7.04644">
        <ele>1231.8000488281</ele>
        <time>2017-07-21T07:39:27Z</time>
      </trkpt>
      <trkpt lat="48.089" lon="7.04643">
        <ele>1231.8000488281</ele>
        <time>2017-07-21T07:39:28Z</time>
      </trkpt>
      <trkpt lat="48.08883" lon="7.04643">
        <ele>1231.5999755859</ele>
        <time>2017-07-21T07:39:32Z</time>
      </trkpt>
      <trkpt lat="48.08878" lon="7.04644">
        <ele>1231.5999755859</ele>
        <time>2017-07-21T07:39:33Z</time>
      </trkpt>
      <trkpt lat="48.08862" lon="7.04651">
        <ele>1231.4000244141</ele>
        <time>2017-07-21T07:39:36Z</time>
      </trkpt>
      <trkpt lat="48.08851" lon="7.04659">
        <ele>1231</ele>
        <time>2017-07-21T07:39:38Z</time>
      </trkpt>
      <trkpt lat="48.08833" lon="7.04674">
        <ele>1230</ele>
        <time>2017-07-21T07:39:41Z</time>
      </trkpt>
      <trkpt lat="48.08814" lon="7.0469">
        <ele>1228.8000488281</ele>
        <time>2017-07-21T07:39:44Z</time>
      </trkpt>
      <trkpt lat="48.08794" lon="7.04708">
        <ele>1227.5999755859</ele>
        <time>2017-07-21T07:39:47Z</time>
      </trkpt>
      <trkpt lat="48.0877" lon="7.04724">
        <ele>1226.5999755859</ele>
        <time>2017-07-21T07:39:50Z</time>
      </trkpt>
      <trkpt lat="48.08744" lon="7.04736">
        <ele>1225.1999511719</ele>
        <time>2017-07-21T07:39:53Z</time>
      </trkpt>
      <trkpt lat="48.08725" lon="7.04742">
        <ele>1224.4000244141</ele>
        <time>2017-07-21T07:39:55Z</time>
      </trkpt>
      <trkpt lat="48.08715" lon="7.04745">
        <ele>1223.8000488281</ele>
        <time>2017-07-21T07:39:56Z</time>
      </trkpt>
      <trkpt lat="48.08695" lon="7.04748">
        <ele>1222.5999755859</ele>
        <time>2017-07-21T07:39:58Z</time>
      </trkpt>
      <trkpt lat="48.08675" lon="7.04749">
        <ele>1221.1999511719</ele>
        <time>2017-07-21T07:40:00Z</time>
      </trkpt>
      <trkpt lat="48.08664" lon="7.04747">
        <ele>1220.4000244141</ele>
        <time>2017-07-21T07:40:01Z</time>
      </trkpt>
      <trkpt lat="48.08654" lon="7.04744">
        <ele>1219.8000488281</ele>
        <time>2017-07-21T07:40:02Z</time>
      </trkpt>
      <trkpt lat="48.08635" lon="7.04735">
        <ele>1218.1999511719</ele>
        <time>2017-07-21T07:40:04Z</time>
      </trkpt>
      <trkpt lat="48.08625" lon="7.0473">
        <ele>1217.5999755859</ele>
        <time>2017-07-21T07:40:05Z</time>
      </trkpt>
      <trkpt lat="48.08616" lon="7.04725">
        <ele>1217.1999511719</ele>
        <time>2017-07-21T07:40:06Z</time>
      </trkpt>
      <trkpt lat="48.08588" lon="7.04709">
        <ele>1215.8000488281</ele>
        <time>2017-07-21T07:40:09Z</time>
      </trkpt>
      <trkpt lat="48.08561" lon="7.0469">
        <ele>1214.8000488281</ele>
        <time>2017-07-21T07:40:12Z</time>
      </trkpt>
      <trkpt lat="48.08553" lon="7.04683">
        <ele>1214.4000244141</ele>
        <time>2017-07-21T07:40:13Z</time>
      </trkpt>
      <trkpt lat="48.08521" lon="7.04652">
        <ele>1213.1999511719</ele>
        <time>2017-07-21T07:40:17Z</time>
      </trkpt>
      <trkpt lat="48.08513" lon="7.04644">
        <ele>1212.8000488281</ele>
        <time>2017-07-21T07:40:18Z</time>
      </trkpt>
      <trkpt lat="48.08498" lon="7.04627">
        <ele>1211.8000488281</ele>
        <time>2017-07-21T07:40:20Z</time>
      </trkpt>
      <trkpt lat="48.08477" lon="7.04596">
        <ele>1210.4000244141</ele>
        <time>2017-07-21T07:40:23Z</time>
      </trkpt>
      <trkpt lat="48.08455" lon="7.04567">
        <ele>1209</ele>
        <time>2017-07-21T07:40:26Z</time>
      </trkpt>
      <trkpt lat="48.08442" lon="7.04548">
        <ele>1207.8000488281</ele>
        <time>2017-07-21T07:40:28Z</time>
      </trkpt>
      <trkpt lat="48.08436" lon="7.04539">
        <ele>1207.4000244141</ele>
        <time>2017-07-21T07:40:29Z</time>
      </trkpt>
      <trkpt lat="48.08407" lon="7.04498">
        <ele>1206.5999755859</ele>
        <time>2017-07-21T07:40:34Z</time>
      </trkpt>
      <trkpt lat="48.08402" lon="7.0449">
        <ele>1206.5999755859</ele>
        <time>2017-07-21T07:40:35Z</time>
      </trkpt>
      <trkpt lat="48.08372" lon="7.04437">
        <ele>1206.5999755859</ele>
        <time>2017-07-21T07:40:42Z</time>
      </trkpt>
      <trkpt lat="48.08366" lon="7.04423">
        <ele>1206.8000488281</ele>
        <time>2017-07-21T07:40:44Z</time>
      </trkpt>
      <trkpt lat="48.08358" lon="7.04398">
        <ele>1207</ele>
        <time>2017-07-21T07:40:47Z</time>
      </trkpt>
      <trkpt lat="48.08356" lon="7.04389">
        <ele>1207</ele>
        <time>2017-07-21T07:40:48Z</time>
      </trkpt>
      <trkpt lat="48.08349" lon="7.04354">
        <ele>1205.8000488281</ele>
        <time>2017-07-21T07:40:52Z</time>
      </trkpt>
      <trkpt lat="48.08347" lon="7.04345">
        <ele>1205.5999755859</ele>
        <time>2017-07-21T07:40:53Z</time>
      </trkpt>
      <trkpt lat="48.08341" lon="7.04314">
        <ele>1204.5999755859</ele>
        <time>2017-07-21T07:40:56Z</time>
      </trkpt>
      <trkpt lat="48.08335" lon="7.0429">
        <ele>1203.8000488281</ele>
        <time>2017-07-21T07:40:58Z</time>
      </trkpt>
      <trkpt lat="48.0833" lon="7.04266">
        <ele>1203.1999511719</ele>
        <time>2017-07-21T07:41:00Z</time>
      </trkpt>
      <trkpt lat="48.08317" lon="7.0422">
        <ele>1202.4000244141</ele>
        <time>2017-07-21T07:41:04Z</time>
      </trkpt>
      <trkpt lat="48.08314" lon="7.04208">
        <ele>1202.1999511719</ele>
        <time>2017-07-21T07:41:05Z</time>
      </trkpt>
      <trkpt lat="48.08294" lon="7.04123">
        <ele>1201.4000244141</ele>
        <time>2017-07-21T07:41:12Z</time>
      </trkpt>
      <trkpt lat="48.08287" lon="7.04098">
        <ele>1201</ele>
        <time>2017-07-21T07:41:14Z</time>
      </trkpt>
      <trkpt lat="48.08275" lon="7.04037">
        <ele>1200.1999511719</ele>
        <time>2017-07-21T07:41:19Z</time>
      </trkpt>
      <trkpt lat="48.0827" lon="7.04011">
        <ele>1200</ele>
        <time>2017-07-21T07:41:21Z</time>
      </trkpt>
      <trkpt lat="48.08258" lon="7.03938">
        <ele>1199.1999511719</ele>
        <time>2017-07-21T07:41:27Z</time>
      </trkpt>
      <trkpt lat="48.08255" lon="7.03914">
        <ele>1198.8000488281</ele>
        <time>2017-07-21T07:41:29Z</time>
      </trkpt>
      <trkpt lat="48.08248" lon="7.03853">
        <ele>1198.4000244141</ele>
        <time>2017-07-21T07:41:34Z</time>
      </trkpt>
      <trkpt lat="48.08247" lon="7.03829">
        <ele>1198.1999511719</ele>
        <time>2017-07-21T07:41:36Z</time>
      </trkpt>
      <trkpt lat="48.0825" lon="7.03806">
        <ele>1198</ele>
        <time>2017-07-21T07:41:38Z</time>
      </trkpt>
      <trkpt lat="48.08253" lon="7.03782">
        <ele>1197.8000488281</ele>
        <time>2017-07-21T07:41:40Z</time>
      </trkpt>
      <trkpt lat="48.08258" lon="7.03735">
        <ele>1197</ele>
        <time>2017-07-21T07:41:44Z</time>
      </trkpt>
      <trkpt lat="48.08258" lon="7.03724">
        <ele>1196.5999755859</ele>
        <time>2017-07-21T07:41:45Z</time>
      </trkpt>
      <trkpt lat="48.08258" lon="7.03713">
        <ele>1196.4000244141</ele>
        <time>2017-07-21T07:41:46Z</time>
      </trkpt>
      <trkpt lat="48.08253" lon="7.03681">
        <ele>1196.1999511719</ele>
        <time>2017-07-21T07:41:49Z</time>
      </trkpt>
      <trkpt lat="48.0824" lon="7.03625">
        <ele>1196.1999511719</ele>
        <time>2017-07-21T07:41:55Z</time>
      </trkpt>
      <trkpt lat="48.08224" lon="7.03577">
        <ele>1196.4000244141</ele>
        <time>2017-07-21T07:42:01Z</time>
      </trkpt>
      <trkpt lat="48.08195" lon="7.03523">
        <ele>1196.1999511719</ele>
        <time>2017-07-21T07:42:08Z</time>
      </trkpt>
      <trkpt lat="48.08156" lon="7.0347">
        <ele>1195.8000488281</ele>
        <time>2017-07-21T07:42:16Z</time>
      </trkpt>
      <trkpt lat="48.08138" lon="7.03441">
        <ele>1195.5999755859</ele>
        <time>2017-07-21T07:42:20Z</time>
      </trkpt>
      <trkpt lat="48.08129" lon="7.03428">
        <ele>1195.4000244141</ele>
        <time>2017-07-21T07:42:22Z</time>
      </trkpt>
      <trkpt lat="48.0811" lon="7.03396">
        <ele>1195.4000244141</ele>
        <time>2017-07-21T07:42:27Z</time>
      </trkpt>
      <trkpt lat="48.08082" lon="7.03338">
        <ele>1195.5999755859</ele>
        <time>2017-07-21T07:42:35Z</time>
      </trkpt>
      <trkpt lat="48.08055" lon="7.03277">
        <ele>1195</ele>
        <time>2017-07-21T07:42:42Z</time>
      </trkpt>
      <trkpt lat="48.08036" lon="7.03219">
        <ele>1194.5999755859</ele>
        <time>2017-07-21T07:42:49Z</time>
      </trkpt>
      <trkpt lat="48.08026" lon="7.03192">
        <ele>1194.5999755859</ele>
        <time>2017-07-21T07:42:52Z</time>
      </trkpt>
      <trkpt lat="48.08015" lon="7.03163">
        <ele>1194.1999511719</ele>
        <time>2017-07-21T07:42:55Z</time>
      </trkpt>
      <trkpt lat="48.07999" lon="7.03123">
        <ele>1193.4000244141</ele>
        <time>2017-07-21T07:42:59Z</time>
      </trkpt>
      <trkpt lat="48.07986" lon="7.03095">
        <ele>1192.4000244141</ele>
        <time>2017-07-21T07:43:02Z</time>
      </trkpt>
      <trkpt lat="48.07981" lon="7.03085">
        <ele>1192</ele>
        <time>2017-07-21T07:43:03Z</time>
      </trkpt>
      <trkpt lat="48.07964" lon="7.03056">
        <ele>1190.8000488281</ele>
        <time>2017-07-21T07:43:06Z</time>
      </trkpt>
      <trkpt lat="48.07951" lon="7.03035">
        <ele>1189.8000488281</ele>
        <time>2017-07-21T07:43:08Z</time>
      </trkpt>
      <trkpt lat="48.07944" lon="7.03025">
        <ele>1189.4000244141</ele>
        <time>2017-07-21T07:43:09Z</time>
      </trkpt>
      <trkpt lat="48.07922" lon="7.02996">
        <ele>1188</ele>
        <time>2017-07-21T07:43:12Z</time>
      </trkpt>
      <trkpt lat="48.07915" lon="7.02986">
        <ele>1187.5999755859</ele>
        <time>2017-07-21T07:43:13Z</time>
      </trkpt>
      <trkpt lat="48.079" lon="7.02965">
        <ele>1186.4000244141</ele>
        <time>2017-07-21T07:43:15Z</time>
      </trkpt>
      <trkpt lat="48.07884" lon="7.02944">
        <ele>1185</ele>
        <time>2017-07-21T07:43:17Z</time>
      </trkpt>
      <trkpt lat="48.07861" lon="7.02914">
        <ele>1183.5999755859</ele>
        <time>2017-07-21T07:43:20Z</time>
      </trkpt>
      <trkpt lat="48.07845" lon="7.02893">
        <ele>1182.4000244141</ele>
        <time>2017-07-21T07:43:22Z</time>
      </trkpt>
      <trkpt lat="48.07837" lon="7.02883">
        <ele>1182</ele>
        <time>2017-07-21T07:43:23Z</time>
      </trkpt>
      <trkpt lat="48.07821" lon="7.02861">
        <ele>1181</ele>
        <time>2017-07-21T07:43:25Z</time>
      </trkpt>
      <trkpt lat="48.07798" lon="7.0283">
        <ele>1179.5999755859</ele>
        <time>2017-07-21T07:43:28Z</time>
      </trkpt>
      <trkpt lat="48.07774" lon="7.028">
        <ele>1178.4000244141</ele>
        <time>2017-07-21T07:43:31Z</time>
      </trkpt>
      <trkpt lat="48.07758" lon="7.0278">
        <ele>1177.1999511719</ele>
        <time>2017-07-21T07:43:33Z</time>
      </trkpt>
      <trkpt lat="48.07743" lon="7.02761">
        <ele>1176.1999511719</ele>
        <time>2017-07-21T07:43:35Z</time>
      </trkpt>
      <trkpt lat="48.07726" lon="7.02743">
        <ele>1175.1999511719</ele>
        <time>2017-07-21T07:43:37Z</time>
      </trkpt>
      <trkpt lat="48.07701" lon="7.02715">
        <ele>1173</ele>
        <time>2017-07-21T07:43:40Z</time>
      </trkpt>
      <trkpt lat="48.07686" lon="7.02694">
        <ele>1172.1999511719</ele>
        <time>2017-07-21T07:43:42Z</time>
      </trkpt>
      <trkpt lat="48.07679" lon="7.02682">
        <ele>1171.5999755859</ele>
        <time>2017-07-21T07:43:43Z</time>
      </trkpt>
      <trkpt lat="48.07666" lon="7.02655">
        <ele>1170.5999755859</ele>
        <time>2017-07-21T07:43:45Z</time>
      </trkpt>
      <trkpt lat="48.07661" lon="7.02642">
        <ele>1170</ele>
        <time>2017-07-21T07:43:46Z</time>
      </trkpt>
      <trkpt lat="48.07655" lon="7.02629">
        <ele>1169.4000244141</ele>
        <time>2017-07-21T07:43:47Z</time>
      </trkpt>
      <trkpt lat="48.07639" lon="7.02591">
        <ele>1168.1999511719</ele>
        <time>2017-07-21T07:43:50Z</time>
      </trkpt>
      <trkpt lat="48.07621" lon="7.02556">
        <ele>1167</ele>
        <time>2017-07-21T07:43:53Z</time>
      </trkpt>
      <trkpt lat="48.07585" lon="7.02494">
        <ele>1166.1999511719</ele>
        <time>2017-07-21T07:43:59Z</time>
      </trkpt>
      <trkpt lat="48.07579" lon="7.02485">
        <ele>1166.1999511719</ele>
        <time>2017-07-21T07:44:00Z</time>
      </trkpt>
      <trkpt lat="48.07551" lon="7.02447">
        <ele>1166.1999511719</ele>
        <time>2017-07-21T07:44:05Z</time>
      </trkpt>
      <trkpt lat="48.07521" lon="7.02409">
        <ele>1166.8000488281</ele>
        <time>2017-07-21T07:44:11Z</time>
      </trkpt>
      <trkpt lat="48.07492" lon="7.02373">
        <ele>1166.8000488281</ele>
        <time>2017-07-21T07:44:17Z</time>
      </trkpt>
      <trkpt lat="48.07467" lon="7.02341">
        <ele>1166.5999755859</ele>
        <time>2017-07-21T07:44:23Z</time>
      </trkpt>
      <trkpt lat="48.07444" lon="7.02317">
        <ele>1166.4000244141</ele>
        <time>2017-07-21T07:44:28Z</time>
      </trkpt>
      <trkpt lat="48.07435" lon="7.02305">
        <ele>1166.1999511719</ele>
        <time>2017-07-21T07:44:30Z</time>
      </trkpt>
      <trkpt lat="48.07415" lon="7.02283">
        <ele>1166</ele>
        <time>2017-07-21T07:44:34Z</time>
      </trkpt>
      <trkpt lat="48.07401" lon="7.02267">
        <ele>1165.8000488281</ele>
        <time>2017-07-21T07:44:37Z</time>
      </trkpt>
      <trkpt lat="48.07363" lon="7.02226">
        <ele>1165.4000244141</ele>
        <time>2017-07-21T07:44:44Z</time>
      </trkpt>
      <trkpt lat="48.07337" lon="7.02207">
        <ele>1165</ele>
        <time>2017-07-21T07:44:48Z</time>
      </trkpt>
      <trkpt lat="48.07317" lon="7.02194">
        <ele>1164.5999755859</ele>
        <time>2017-07-21T07:44:51Z</time>
      </trkpt>
      <trkpt lat="48.07276" lon="7.02171">
        <ele>1164</ele>
        <time>2017-07-21T07:44:57Z</time>
      </trkpt>
      <trkpt lat="48.07263" lon="7.02166">
        <ele>1163.8000488281</ele>
        <time>2017-07-21T07:44:59Z</time>
      </trkpt>
      <trkpt lat="48.07231" lon="7.02155">
        <ele>1163.1999511719</ele>
        <time>2017-07-21T07:45:04Z</time>
      </trkpt>
      <trkpt lat="48.07225" lon="7.02154">
        <ele>1163.1999511719</ele>
        <time>2017-07-21T07:45:05Z</time>
      </trkpt>
      <trkpt lat="48.07211" lon="7.02149">
        <ele>1162.8000488281</ele>
        <time>2017-07-21T07:45:07Z</time>
      </trkpt>
      <trkpt lat="48.07191" lon="7.02144">
        <ele>1162.4000244141</ele>
        <time>2017-07-21T07:45:10Z</time>
      </trkpt>
      <trkpt lat="48.07169" lon="7.02139">
        <ele>1161.8000488281</ele>
        <time>2017-07-21T07:45:13Z</time>
      </trkpt>
      <trkpt lat="48.0714" lon="7.02131">
        <ele>1160.8000488281</ele>
        <time>2017-07-21T07:45:17Z</time>
      </trkpt>
      <trkpt lat="48.07132" lon="7.02128">
        <ele>1160.5999755859</ele>
        <time>2017-07-21T07:45:18Z</time>
      </trkpt>
      <trkpt lat="48.07099" lon="7.02119">
        <ele>1159.4000244141</ele>
        <time>2017-07-21T07:45:22Z</time>
      </trkpt>
      <trkpt lat="48.07073" lon="7.02112">
        <ele>1158.4000244141</ele>
        <time>2017-07-21T07:45:25Z</time>
      </trkpt>
      <trkpt lat="48.07045" lon="7.02106">
        <ele>1156.8000488281</ele>
        <time>2017-07-21T07:45:28Z</time>
      </trkpt>
      <trkpt lat="48.07026" lon="7.02105">
        <ele>1155.8000488281</ele>
        <time>2017-07-21T07:45:30Z</time>
      </trkpt>
      <trkpt lat="48.06998" lon="7.02108">
        <ele>1154.4000244141</ele>
        <time>2017-07-21T07:45:33Z</time>
      </trkpt>
      <trkpt lat="48.06972" lon="7.02122">
        <ele>1153.1999511719</ele>
        <time>2017-07-21T07:45:36Z</time>
      </trkpt>
      <trkpt lat="48.06963" lon="7.02127">
        <ele>1152.8000488281</ele>
        <time>2017-07-21T07:45:37Z</time>
      </trkpt>
      <trkpt lat="48.06946" lon="7.0214">
        <ele>1151.8000488281</ele>
        <time>2017-07-21T07:45:39Z</time>
      </trkpt>
      <trkpt lat="48.0693" lon="7.02155">
        <ele>1150.4000244141</ele>
        <time>2017-07-21T07:45:41Z</time>
      </trkpt>
      <trkpt lat="48.06922" lon="7.02163">
        <ele>1150</ele>
        <time>2017-07-21T07:45:42Z</time>
      </trkpt>
      <trkpt lat="48.06905" lon="7.02178">
        <ele>1149.1999511719</ele>
        <time>2017-07-21T07:45:44Z</time>
      </trkpt>
      <trkpt lat="48.06878" lon="7.02191">
        <ele>1148</ele>
        <time>2017-07-21T07:45:47Z</time>
      </trkpt>
      <trkpt lat="48.06859" lon="7.0219">
        <ele>1147</ele>
        <time>2017-07-21T07:45:49Z</time>
      </trkpt>
      <trkpt lat="48.06849" lon="7.02186">
        <ele>1146.4000244141</ele>
        <time>2017-07-21T07:45:50Z</time>
      </trkpt>
      <trkpt lat="48.0684" lon="7.02182">
        <ele>1146</ele>
        <time>2017-07-21T07:45:51Z</time>
      </trkpt>
      <trkpt lat="48.06832" lon="7.02178">
        <ele>1145.8000488281</ele>
        <time>2017-07-21T07:45:52Z</time>
      </trkpt>
      <trkpt lat="48.06797" lon="7.02166">
        <ele>1145</ele>
        <time>2017-07-21T07:45:56Z</time>
      </trkpt>
      <trkpt lat="48.06788" lon="7.02163">
        <ele>1144.8000488281</ele>
        <time>2017-07-21T07:45:57Z</time>
      </trkpt>
      <trkpt lat="48.06743" lon="7.02155">
        <ele>1143.5999755859</ele>
        <time>2017-07-21T07:46:02Z</time>
      </trkpt>
      <trkpt lat="48.06717" lon="7.02155">
        <ele>1142.4000244141</ele>
        <time>2017-07-21T07:46:05Z</time>
      </trkpt>
      <trkpt lat="48.06709" lon="7.02156">
        <ele>1142</ele>
        <time>2017-07-21T07:46:06Z</time>
      </trkpt>
      <trkpt lat="48.06692" lon="7.02162">
        <ele>1141.5999755859</ele>
        <time>2017-07-21T07:46:08Z</time>
      </trkpt>
      <trkpt lat="48.06677" lon="7.02171">
        <ele>1141</ele>
        <time>2017-07-21T07:46:10Z</time>
      </trkpt>
      <trkpt lat="48.06646" lon="7.0219">
        <ele>1140</ele>
        <time>2017-07-21T07:46:14Z</time>
      </trkpt>
      <trkpt lat="48.06624" lon="7.02205">
        <ele>1138.8000488281</ele>
        <time>2017-07-21T07:46:17Z</time>
      </trkpt>
      <trkpt lat="48.06602" lon="7.02219">
        <ele>1137.8000488281</ele>
        <time>2017-07-21T07:46:20Z</time>
      </trkpt>
      <trkpt lat="48.06595" lon="7.02222">
        <ele>1137.4000244141</ele>
        <time>2017-07-21T07:46:21Z</time>
      </trkpt>
      <trkpt lat="48.06588" lon="7.02225">
        <ele>1137.1999511719</ele>
        <time>2017-07-21T07:46:22Z</time>
      </trkpt>
      <trkpt lat="48.06574" lon="7.0223">
        <ele>1136.8000488281</ele>
        <time>2017-07-21T07:46:24Z</time>
      </trkpt>
      <trkpt lat="48.06539" lon="7.02238">
        <ele>1136</ele>
        <time>2017-07-21T07:46:29Z</time>
      </trkpt>
      <trkpt lat="48.06499" lon="7.02249">
        <ele>1136.4000244141</ele>
        <time>2017-07-21T07:46:35Z</time>
      </trkpt>
      <trkpt lat="48.0647" lon="7.02254">
        <ele>1137.1999511719</ele>
        <time>2017-07-21T07:46:41Z</time>
      </trkpt>
      <trkpt lat="48.06452" lon="7.02256">
        <ele>1137.8000488281</ele>
        <time>2017-07-21T07:46:46Z</time>
      </trkpt>
      <trkpt lat="48.06449" lon="7.02258">
        <ele>1138</ele>
        <time>2017-07-21T07:46:47Z</time>
      </trkpt>
      <trkpt lat="48.06431" lon="7.02262">
        <ele>1138.8000488281</ele>
        <time>2017-07-21T07:46:53Z</time>
      </trkpt>
      <trkpt lat="48.06428" lon="7.02262">
        <ele>1139</ele>
        <time>2017-07-21T07:46:54Z</time>
      </trkpt>
      <trkpt lat="48.0641" lon="7.02259">
        <ele>1139.8000488281</ele>
        <time>2017-07-21T07:47:00Z</time>
      </trkpt>
      <trkpt lat="48.06405" lon="7.02257">
        <ele>1140</ele>
        <time>2017-07-21T07:47:02Z</time>
      </trkpt>
      <trkpt lat="48.06393" lon="7.02251">
        <ele>1140.4000244141</ele>
        <time>2017-07-21T07:47:08Z</time>
      </trkpt>
      <trkpt lat="48.06389" lon="7.02252">
        <ele>1140.5999755859</ele>
        <time>2017-07-21T07:47:12Z</time>
      </trkpt>
      <trkpt lat="48.06388" lon="7.02253">
        <ele>1140.5999755859</ele>
        <time>2017-07-21T07:47:13Z</time>
      </trkpt>
      <trkpt lat="48.06386" lon="7.02263">
        <ele>1140.8000488281</ele>
        <time>2017-07-21T07:47:18Z</time>
      </trkpt>
      <trkpt lat="48.06387" lon="7.02269">
        <ele>1141</ele>
        <time>2017-07-21T07:47:20Z</time>
      </trkpt>
      <trkpt lat="48.06387" lon="7.02279">
        <ele>1141</ele>
        <time>2017-07-21T07:47:23Z</time>
      </trkpt>
      <trkpt lat="48.06385" lon="7.02283">
        <ele>1140.5999755859</ele>
        <time>2017-07-21T07:55:03Z</time>
      </trkpt>
      <trkpt lat="48.06383" lon="7.02274">
        <ele>1140.5999755859</ele>
        <time>2017-07-21T07:55:07Z</time>
      </trkpt>
      <trkpt lat="48.06386" lon="7.02262">
        <ele>1140.5999755859</ele>
        <time>2017-07-21T07:55:12Z</time>
      </trkpt>
      <trkpt lat="48.06383" lon="7.02247">
        <ele>1140.5999755859</ele>
        <time>2017-07-21T07:55:16Z</time>
      </trkpt>
      <trkpt lat="48.06382" lon="7.02239">
        <ele>1140.5999755859</ele>
        <time>2017-07-21T07:55:18Z</time>
      </trkpt>
      <trkpt lat="48.06377" lon="7.02225">
        <ele>1140.5999755859</ele>
        <time>2017-07-21T07:55:22Z</time>
      </trkpt>
      <trkpt lat="48.0636" lon="7.02193">
        <ele>1140.4000244141</ele>
        <time>2017-07-21T07:55:31Z</time>
      </trkpt>
      <trkpt lat="48.06349" lon="7.02175">
        <ele>1140</ele>
        <time>2017-07-21T07:55:36Z</time>
      </trkpt>
      <trkpt lat="48.06344" lon="7.02167">
        <ele>1140</ele>
        <time>2017-07-21T07:55:38Z</time>
      </trkpt>
      <trkpt lat="48.06333" lon="7.02154">
        <ele>1139.5999755859</ele>
        <time>2017-07-21T07:55:42Z</time>
      </trkpt>
      <trkpt lat="48.06312" lon="7.02122">
        <ele>1139.1999511719</ele>
        <time>2017-07-21T07:55:50Z</time>
      </trkpt>
      <trkpt lat="48.06309" lon="7.02117">
        <ele>1139</ele>
        <time>2017-07-21T07:55:51Z</time>
      </trkpt>
      <trkpt lat="48.06303" lon="7.02108">
        <ele>1139</ele>
        <time>2017-07-21T07:55:53Z</time>
      </trkpt>
      <trkpt lat="48.06296" lon="7.02101">
        <ele>1138.8000488281</ele>
        <time>2017-07-21T07:55:55Z</time>
      </trkpt>
      <trkpt lat="48.06292" lon="7.02098">
        <ele>1138.8000488281</ele>
        <time>2017-07-21T07:55:56Z</time>
      </trkpt>
      <trkpt lat="48.06284" lon="7.02094">
        <ele>1138.8000488281</ele>
        <time>2017-07-21T07:55:58Z</time>
      </trkpt>
      <trkpt lat="48.06276" lon="7.02091">
        <ele>1138.5999755859</ele>
        <time>2017-07-21T07:56:00Z</time>
      </trkpt>
      <trkpt lat="48.06266" lon="7.02089">
        <ele>1138.4000244141</ele>
        <time>2017-07-21T07:56:04Z</time>
      </trkpt>
      <trkpt lat="48.06263" lon="7.02091">
        <ele>1137.8000488281</ele>
        <time>2017-07-21T07:56:13Z</time>
      </trkpt>
      <trkpt lat="48.06261" lon="7.02092">
        <ele>1137.8000488281</ele>
        <time>2017-07-21T07:56:14Z</time>
      </trkpt>
      <trkpt lat="48.0625" lon="7.02086">
        <ele>1137.8000488281</ele>
        <time>2017-07-21T07:56:19Z</time>
      </trkpt>
      <trkpt lat="48.06242" lon="7.02066">
        <ele>1137.5999755859</ele>
        <time>2017-07-21T07:56:23Z</time>
      </trkpt>
      <trkpt lat="48.06242" lon="7.02059">
        <ele>1137.4000244141</ele>
        <time>2017-07-21T07:56:24Z</time>
      </trkpt>
      <trkpt lat="48.06247" lon="7.0204">
        <ele>1137.1999511719</ele>
        <time>2017-07-21T07:56:27Z</time>
      </trkpt>
      <trkpt lat="48.06252" lon="7.02028">
        <ele>1137.1999511719</ele>
        <time>2017-07-21T07:56:29Z</time>
      </trkpt>
      <trkpt lat="48.06255" lon="7.02024">
        <ele>1137</ele>
        <time>2017-07-21T07:56:30Z</time>
      </trkpt>
      <trkpt lat="48.06264" lon="7.02016">
        <ele>1137</ele>
        <time>2017-07-21T07:56:32Z</time>
      </trkpt>
      <trkpt lat="48.06271" lon="7.01999">
        <ele>1136.8000488281</ele>
        <time>2017-07-21T07:56:35Z</time>
      </trkpt>
      <trkpt lat="48.06274" lon="7.01992">
        <ele>1136.8000488281</ele>
        <time>2017-07-21T07:56:36Z</time>
      </trkpt>
      <trkpt lat="48.06275" lon="7.01985">
        <ele>1136.8000488281</ele>
        <time>2017-07-21T07:56:37Z</time>
      </trkpt>
      <trkpt lat="48.06272" lon="7.01964">
        <ele>1136.8000488281</ele>
        <time>2017-07-21T07:56:40Z</time>
      </trkpt>
      <trkpt lat="48.06263" lon="7.0195">
        <ele>1136.4000244141</ele>
        <time>2017-07-21T07:56:43Z</time>
      </trkpt>
      <trkpt lat="48.06261" lon="7.01945">
        <ele>1136.4000244141</ele>
        <time>2017-07-21T07:56:44Z</time>
      </trkpt>
      <trkpt lat="48.06257" lon="7.01921">
        <ele>1136.8000488281</ele>
        <time>2017-07-21T07:56:49Z</time>
      </trkpt>
      <trkpt lat="48.06255" lon="7.01901">
        <ele>1137.8000488281</ele>
        <time>2017-07-21T07:56:54Z</time>
      </trkpt>
      <trkpt lat="48.06254" lon="7.01898">
        <ele>1137.8000488281</ele>
        <time>2017-07-21T07:56:55Z</time>
      </trkpt>
      <trkpt lat="48.06253" lon="7.01879">
        <ele>1138.8000488281</ele>
        <time>2017-07-21T07:57:00Z</time>
      </trkpt>
      <trkpt lat="48.06253" lon="7.01873">
        <ele>1139</ele>
        <time>2017-07-21T07:57:02Z</time>
      </trkpt>
      <trkpt lat="48.06251" lon="7.01857">
        <ele>1139.8000488281</ele>
        <time>2017-07-21T07:57:07Z</time>
      </trkpt>
      <trkpt lat="48.0625" lon="7.01844">
        <ele>1140.4000244141</ele>
        <time>2017-07-21T07:57:11Z</time>
      </trkpt>
      <trkpt lat="48.06249" lon="7.01831">
        <ele>1141</ele>
        <time>2017-07-21T07:57:15Z</time>
      </trkpt>
      <trkpt lat="48.06247" lon="7.01816">
        <ele>1141.8000488281</ele>
        <time>2017-07-21T07:57:20Z</time>
      </trkpt>
      <trkpt lat="48.06247" lon="7.0181">
        <ele>1142</ele>
        <time>2017-07-21T07:57:22Z</time>
      </trkpt>
      <trkpt lat="48.06245" lon="7.01784">
        <ele>1143</ele>
        <time>2017-07-21T07:57:30Z</time>
      </trkpt>
      <trkpt lat="48.06245" lon="7.01781">
        <ele>1143.1999511719</ele>
        <time>2017-07-21T07:57:31Z</time>
      </trkpt>
      <trkpt lat="48.06243" lon="7.01758">
        <ele>1144.1999511719</ele>
        <time>2017-07-21T07:57:38Z</time>
      </trkpt>
      <trkpt lat="48.06243" lon="7.01751">
        <ele>1144.4000244141</ele>
        <time>2017-07-21T07:57:40Z</time>
      </trkpt>
      <trkpt lat="48.06241" lon="7.01734">
        <ele>1145.1999511719</ele>
        <time>2017-07-21T07:57:45Z</time>
      </trkpt>
      <trkpt lat="48.0624" lon="7.01724">
        <ele>1145.8000488281</ele>
        <time>2017-07-21T07:57:48Z</time>
      </trkpt>
      <trkpt lat="48.06238" lon="7.01709">
        <ele>1146.4000244141</ele>
        <time>2017-07-21T07:57:53Z</time>
      </trkpt>
      <trkpt lat="48.06233" lon="7.01702">
        <ele>1146.8000488281</ele>
        <time>2017-07-21T07:57:56Z</time>
      </trkpt>
      <trkpt lat="48.06227" lon="7.01693">
        <ele>1147.4000244141</ele>
        <time>2017-07-21T07:58:00Z</time>
      </trkpt>
      <trkpt lat="48.06221" lon="7.01691">
        <ele>1147.8000488281</ele>
        <time>2017-07-21T07:58:03Z</time>
      </trkpt>
      <trkpt lat="48.06213" lon="7.01693">
        <ele>1148.5999755859</ele>
        <time>2017-07-21T07:58:07Z</time>
      </trkpt>
      <trkpt lat="48.0621" lon="7.01698">
        <ele>1148.8000488281</ele>
        <time>2017-07-21T07:58:09Z</time>
      </trkpt>
      <trkpt lat="48.06202" lon="7.01717">
        <ele>1149.5999755859</ele>
        <time>2017-07-21T07:58:16Z</time>
      </trkpt>
      <trkpt lat="48.062" lon="7.01737">
        <ele>1150.8000488281</ele>
        <time>2017-07-21T07:58:23Z</time>
      </trkpt>
      <trkpt lat="48.06201" lon="7.01759">
        <ele>1151.8000488281</ele>
        <time>2017-07-21T07:58:30Z</time>
      </trkpt>
      <trkpt lat="48.062" lon="7.01762">
        <ele>1152.1999511719</ele>
        <time>2017-07-21T07:58:31Z</time>
      </trkpt>
      <trkpt lat="48.06199" lon="7.01781">
        <ele>1153</ele>
        <time>2017-07-21T07:58:37Z</time>
      </trkpt>
      <trkpt lat="48.06199" lon="7.01794">
        <ele>1153.4000244141</ele>
        <time>2017-07-21T07:58:41Z</time>
      </trkpt>
      <trkpt lat="48.06199" lon="7.01807">
        <ele>1154</ele>
        <time>2017-07-21T07:58:45Z</time>
      </trkpt>
      <trkpt lat="48.06199" lon="7.01823">
        <ele>1154.5999755859</ele>
        <time>2017-07-21T07:58:50Z</time>
      </trkpt>
      <trkpt lat="48.06199" lon="7.01832">
        <ele>1155.1999511719</ele>
        <time>2017-07-21T07:58:53Z</time>
      </trkpt>
      <trkpt lat="48.06198" lon="7.01851">
        <ele>1156</ele>
        <time>2017-07-21T07:58:59Z</time>
      </trkpt>
      <trkpt lat="48.06199" lon="7.01857">
        <ele>1156.1999511719</ele>
        <time>2017-07-21T07:59:01Z</time>
      </trkpt>
      <trkpt lat="48.06197" lon="7.0188">
        <ele>1156.8000488281</ele>
        <time>2017-07-21T07:59:08Z</time>
      </trkpt>
      <trkpt lat="48.06197" lon="7.01886">
        <ele>1157.1999511719</ele>
        <time>2017-07-21T07:59:10Z</time>
      </trkpt>
      <trkpt lat="48.06196" lon="7.019">
        <ele>1157.5999755859</ele>
        <time>2017-07-21T07:59:14Z</time>
      </trkpt>
      <trkpt lat="48.06192" lon="7.01913">
        <ele>1158.1999511719</ele>
        <time>2017-07-21T07:59:18Z</time>
      </trkpt>
      <trkpt lat="48.06187" lon="7.01919">
        <ele>1158.8000488281</ele>
        <time>2017-07-21T07:59:21Z</time>
      </trkpt>
      <trkpt lat="48.06178" lon="7.0192">
        <ele>1159.1999511719</ele>
        <time>2017-07-21T07:59:25Z</time>
      </trkpt>
      <trkpt lat="48.06174" lon="7.01919">
        <ele>1159.5999755859</ele>
        <time>2017-07-21T07:59:27Z</time>
      </trkpt>
      <trkpt lat="48.06167" lon="7.01906">
        <ele>1160.4000244141</ele>
        <time>2017-07-21T07:59:32Z</time>
      </trkpt>
      <trkpt lat="48.06164" lon="7.01883">
        <ele>1161.4000244141</ele>
        <time>2017-07-21T07:59:39Z</time>
      </trkpt>
      <trkpt lat="48.06164" lon="7.01879">
        <ele>1161.4000244141</ele>
        <time>2017-07-21T07:59:40Z</time>
      </trkpt>
      <trkpt lat="48.06162" lon="7.01861">
        <ele>1162.1999511719</ele>
        <time>2017-07-21T07:59:45Z</time>
      </trkpt>
      <trkpt lat="48.06162" lon="7.01854">
        <ele>1162.5999755859</ele>
        <time>2017-07-21T07:59:47Z</time>
      </trkpt>
      <trkpt lat="48.06162" lon="7.01829">
        <ele>1163.1999511719</ele>
        <time>2017-07-21T07:59:54Z</time>
      </trkpt>
      <trkpt lat="48.06161" lon="7.01818">
        <ele>1163.5999755859</ele>
        <time>2017-07-21T07:59:57Z</time>
      </trkpt>
      <trkpt lat="48.0616" lon="7.01805">
        <ele>1164</ele>
        <time>2017-07-21T08:00:01Z</time>
      </trkpt>
      <trkpt lat="48.06159" lon="7.01787">
        <ele>1164.5999755859</ele>
        <time>2017-07-21T08:00:06Z</time>
      </trkpt>
      <trkpt lat="48.06159" lon="7.01776">
        <ele>1165.1999511719</ele>
        <time>2017-07-21T08:00:09Z</time>
      </trkpt>
      <trkpt lat="48.06158" lon="7.01757">
        <ele>1165.8000488281</ele>
        <time>2017-07-21T08:00:14Z</time>
      </trkpt>
      <trkpt lat="48.06157" lon="7.01749">
        <ele>1166</ele>
        <time>2017-07-21T08:00:16Z</time>
      </trkpt>
      <trkpt lat="48.06155" lon="7.01727">
        <ele>1166.8000488281</ele>
        <time>2017-07-21T08:00:22Z</time>
      </trkpt>
      <trkpt lat="48.06153" lon="7.01716">
        <ele>1167.1999511719</ele>
        <time>2017-07-21T08:00:25Z</time>
      </trkpt>
      <trkpt lat="48.06149" lon="7.01698">
        <ele>1167.8000488281</ele>
        <time>2017-07-21T08:00:30Z</time>
      </trkpt>
      <trkpt lat="48.06145" lon="7.01684">
        <ele>1168.8000488281</ele>
        <time>2017-07-21T08:00:34Z</time>
      </trkpt>
      <trkpt lat="48.06143" lon="7.01677">
        <ele>1169</ele>
        <time>2017-07-21T08:00:36Z</time>
      </trkpt>
      <trkpt lat="48.06136" lon="7.01658">
        <ele>1169.8000488281</ele>
        <time>2017-07-21T08:00:42Z</time>
      </trkpt>
      <trkpt lat="48.06133" lon="7.01652">
        <ele>1170</ele>
        <time>2017-07-21T08:00:44Z</time>
      </trkpt>
      <trkpt lat="48.06123" lon="7.01635">
        <ele>1171</ele>
        <time>2017-07-21T08:00:50Z</time>
      </trkpt>
      <trkpt lat="48.06121" lon="7.01633">
        <ele>1171</ele>
        <time>2017-07-21T08:00:51Z</time>
      </trkpt>
      <trkpt lat="48.06108" lon="7.01613">
        <ele>1172.1999511719</ele>
        <time>2017-07-21T08:00:59Z</time>
      </trkpt>
      <trkpt lat="48.06095" lon="7.01595">
        <ele>1173.1999511719</ele>
        <time>2017-07-21T08:01:07Z</time>
      </trkpt>
      <trkpt lat="48.06093" lon="7.01593">
        <ele>1173.4000244141</ele>
        <time>2017-07-21T08:01:08Z</time>
      </trkpt>
      <trkpt lat="48.06085" lon="7.01579">
        <ele>1174.4000244141</ele>
        <time>2017-07-21T08:01:14Z</time>
      </trkpt>
      <trkpt lat="48.06083" lon="7.01576">
        <ele>1174.4000244141</ele>
        <time>2017-07-21T08:01:15Z</time>
      </trkpt>
      <trkpt lat="48.0607" lon="7.01562">
        <ele>1175.5999755859</ele>
        <time>2017-07-21T08:01:22Z</time>
      </trkpt>
      <trkpt lat="48.0605" lon="7.01545">
        <ele>1176.8000488281</ele>
        <time>2017-07-21T08:01:31Z</time>
      </trkpt>
      <trkpt lat="48.06048" lon="7.01543">
        <ele>1176.8000488281</ele>
        <time>2017-07-21T08:01:32Z</time>
      </trkpt>
      <trkpt lat="48.06032" lon="7.01532">
        <ele>1177.8000488281</ele>
        <time>2017-07-21T08:01:39Z</time>
      </trkpt>
      <trkpt lat="48.0603" lon="7.01531">
        <ele>1178</ele>
        <time>2017-07-21T08:01:40Z</time>
      </trkpt>
      <trkpt lat="48.06014" lon="7.01521">
        <ele>1179</ele>
        <time>2017-07-21T08:01:47Z</time>
      </trkpt>
      <trkpt lat="48.05998" lon="7.01509">
        <ele>1180</ele>
        <time>2017-07-21T08:01:54Z</time>
      </trkpt>
      <trkpt lat="48.05981" lon="7.015">
        <ele>1181</ele>
        <time>2017-07-21T08:02:01Z</time>
      </trkpt>
      <trkpt lat="48.05979" lon="7.01498">
        <ele>1181</ele>
        <time>2017-07-21T08:02:02Z</time>
      </trkpt>
      <trkpt lat="48.05968" lon="7.0149">
        <ele>1182</ele>
        <time>2017-07-21T08:02:07Z</time>
      </trkpt>
      <trkpt lat="48.05961" lon="7.01486">
        <ele>1182.4000244141</ele>
        <time>2017-07-21T08:02:10Z</time>
      </trkpt>
      <trkpt lat="48.05948" lon="7.01479">
        <ele>1183</ele>
        <time>2017-07-21T08:02:15Z</time>
      </trkpt>
      <trkpt lat="48.05943" lon="7.01477">
        <ele>1183.4000244141</ele>
        <time>2017-07-21T08:02:17Z</time>
      </trkpt>
      <trkpt lat="48.05929" lon="7.01468">
        <ele>1184</ele>
        <time>2017-07-21T08:02:23Z</time>
      </trkpt>
      <trkpt lat="48.05927" lon="7.01466">
        <ele>1184.1999511719</ele>
        <time>2017-07-21T08:02:24Z</time>
      </trkpt>
      <trkpt lat="48.05914" lon="7.01459">
        <ele>1185</ele>
        <time>2017-07-21T08:02:30Z</time>
      </trkpt>
      <trkpt lat="48.05911" lon="7.01459">
        <ele>1185.1999511719</ele>
        <time>2017-07-21T08:02:31Z</time>
      </trkpt>
      <trkpt lat="48.05894" lon="7.01452">
        <ele>1186.1999511719</ele>
        <time>2017-07-21T08:02:38Z</time>
      </trkpt>
      <trkpt lat="48.05891" lon="7.01451">
        <ele>1186.4000244141</ele>
        <time>2017-07-21T08:02:39Z</time>
      </trkpt>
      <trkpt lat="48.05875" lon="7.01446">
        <ele>1187.1999511719</ele>
        <time>2017-07-21T08:02:46Z</time>
      </trkpt>
      <trkpt lat="48.05873" lon="7.01445">
        <ele>1187.4000244141</ele>
        <time>2017-07-21T08:02:47Z</time>
      </trkpt>
      <trkpt lat="48.05861" lon="7.01442">
        <ele>1188.1999511719</ele>
        <time>2017-07-21T08:02:53Z</time>
      </trkpt>
      <trkpt lat="48.05856" lon="7.0144">
        <ele>1188.5999755859</ele>
        <time>2017-07-21T08:02:55Z</time>
      </trkpt>
      <trkpt lat="48.05839" lon="7.01438">
        <ele>1189.4000244141</ele>
        <time>2017-07-21T08:03:02Z</time>
      </trkpt>
      <trkpt lat="48.05834" lon="7.01436">
        <ele>1189.5999755859</ele>
        <time>2017-07-21T08:03:04Z</time>
      </trkpt>
      <trkpt lat="48.05817" lon="7.01433">
        <ele>1190.1999511719</ele>
        <time>2017-07-21T08:03:10Z</time>
      </trkpt>
      <trkpt lat="48.05806" lon="7.01432">
        <ele>1190.5999755859</ele>
        <time>2017-07-21T08:03:14Z</time>
      </trkpt>
      <trkpt lat="48.05797" lon="7.01432">
        <ele>1191.1999511719</ele>
        <time>2017-07-21T08:03:18Z</time>
      </trkpt>
      <trkpt lat="48.05793" lon="7.01432">
        <ele>1191.8000488281</ele>
        <time>2017-07-21T08:03:20Z</time>
      </trkpt>
      <trkpt lat="48.05781" lon="7.01433">
        <ele>1192.4000244141</ele>
        <time>2017-07-21T08:03:25Z</time>
      </trkpt>
      <trkpt lat="48.05777" lon="7.01433">
        <ele>1192.8000488281</ele>
        <time>2017-07-21T08:03:27Z</time>
      </trkpt>
      <trkpt lat="48.05764" lon="7.01433">
        <ele>1193.4000244141</ele>
        <time>2017-07-21T08:03:32Z</time>
      </trkpt>
      <trkpt lat="48.05756" lon="7.01433">
        <ele>1193.8000488281</ele>
        <time>2017-07-21T08:03:36Z</time>
      </trkpt>
      <trkpt lat="48.05753" lon="7.01434">
        <ele>1194.1999511719</ele>
        <time>2017-07-21T08:03:38Z</time>
      </trkpt>
      <trkpt lat="48.05744" lon="7.01433">
        <ele>1195</ele>
        <time>2017-07-21T08:03:43Z</time>
      </trkpt>
      <trkpt lat="48.05742" lon="7.01434">
        <ele>1195.1999511719</ele>
        <time>2017-07-21T08:03:44Z</time>
      </trkpt>
      <trkpt lat="48.05723" lon="7.01434">
        <ele>1196.1999511719</ele>
        <time>2017-07-21T08:03:51Z</time>
      </trkpt>
      <trkpt lat="48.0572" lon="7.01433">
        <ele>1196.4000244141</ele>
        <time>2017-07-21T08:03:52Z</time>
      </trkpt>
      <trkpt lat="48.057" lon="7.01431">
        <ele>1197.4000244141</ele>
        <time>2017-07-21T08:03:59Z</time>
      </trkpt>
      <trkpt lat="48.05683" lon="7.01426">
        <ele>1198.1999511719</ele>
        <time>2017-07-21T08:04:06Z</time>
      </trkpt>
      <trkpt lat="48.05681" lon="7.01426">
        <ele>1198.5999755859</ele>
        <time>2017-07-21T08:04:07Z</time>
      </trkpt>
      <trkpt lat="48.05668" lon="7.01418">
        <ele>1199.5999755859</ele>
        <time>2017-07-21T08:04:13Z</time>
      </trkpt>
      <trkpt lat="48.05666" lon="7.01416">
        <ele>1199.8000488281</ele>
        <time>2017-07-21T08:04:14Z</time>
      </trkpt>
      <trkpt lat="48.05652" lon="7.01408">
        <ele>1200.5999755859</ele>
        <time>2017-07-21T08:04:20Z</time>
      </trkpt>
      <trkpt lat="48.05649" lon="7.01404">
        <ele>1200.8000488281</ele>
        <time>2017-07-21T08:04:22Z</time>
      </trkpt>
      <trkpt lat="48.05638" lon="7.01395">
        <ele>1201.8000488281</ele>
        <time>2017-07-21T08:04:28Z</time>
      </trkpt>
      <trkpt lat="48.05627" lon="7.01388">
        <ele>1203</ele>
        <time>2017-07-21T08:04:34Z</time>
      </trkpt>
      <trkpt lat="48.05626" lon="7.01386">
        <ele>1203</ele>
        <time>2017-07-21T08:04:35Z</time>
      </trkpt>
      <trkpt lat="48.05613" lon="7.01376">
        <ele>1204</ele>
        <time>2017-07-21T08:04:42Z</time>
      </trkpt>
      <trkpt lat="48.05611" lon="7.01375">
        <ele>1204.1999511719</ele>
        <time>2017-07-21T08:04:43Z</time>
      </trkpt>
      <trkpt lat="48.05599" lon="7.01366">
        <ele>1205</ele>
        <time>2017-07-21T08:04:50Z</time>
      </trkpt>
      <trkpt lat="48.05585" lon="7.01359">
        <ele>1205.8000488281</ele>
        <time>2017-07-21T08:04:56Z</time>
      </trkpt>
      <trkpt lat="48.05581" lon="7.01356">
        <ele>1206.1999511719</ele>
        <time>2017-07-21T08:04:59Z</time>
      </trkpt>
      <trkpt lat="48.05577" lon="7.01353">
        <ele>1206.4000244141</ele>
        <time>2017-07-21T08:05:01Z</time>
      </trkpt>
      <trkpt lat="48.05564" lon="7.01345">
        <ele>1207.1999511719</ele>
        <time>2017-07-21T08:05:07Z</time>
      </trkpt>
      <trkpt lat="48.0555" lon="7.01338">
        <ele>1208.1999511719</ele>
        <time>2017-07-21T08:05:14Z</time>
      </trkpt>
      <trkpt lat="48.05536" lon="7.01331">
        <ele>1209.4000244141</ele>
        <time>2017-07-21T08:05:21Z</time>
      </trkpt>
      <trkpt lat="48.05524" lon="7.01328">
        <ele>1210.4000244141</ele>
        <time>2017-07-21T08:05:28Z</time>
      </trkpt>
      <trkpt lat="48.05506" lon="7.01329">
        <ele>1211.1999511719</ele>
        <time>2017-07-21T08:05:35Z</time>
      </trkpt>
      <trkpt lat="48.05504" lon="7.01329">
        <ele>1211.4000244141</ele>
        <time>2017-07-21T08:05:36Z</time>
      </trkpt>
      <trkpt lat="48.05487" lon="7.01331">
        <ele>1212</ele>
        <time>2017-07-21T08:05:42Z</time>
      </trkpt>
      <trkpt lat="48.05482" lon="7.01331">
        <ele>1212.4000244141</ele>
        <time>2017-07-21T08:05:44Z</time>
      </trkpt>
      <trkpt lat="48.05471" lon="7.01337">
        <ele>1213</ele>
        <time>2017-07-21T08:05:49Z</time>
      </trkpt>
      <trkpt lat="48.05461" lon="7.01341">
        <ele>1213.4000244141</ele>
        <time>2017-07-21T08:05:53Z</time>
      </trkpt>
      <trkpt lat="48.05457" lon="7.01344">
        <ele>1213.8000488281</ele>
        <time>2017-07-21T08:05:55Z</time>
      </trkpt>
      <trkpt lat="48.05443" lon="7.01353">
        <ele>1214.5999755859</ele>
        <time>2017-07-21T08:06:01Z</time>
      </trkpt>
      <trkpt lat="48.05436" lon="7.01357">
        <ele>1215</ele>
        <time>2017-07-21T08:06:04Z</time>
      </trkpt>
      <trkpt lat="48.05428" lon="7.01362">
        <ele>1215.5999755859</ele>
        <time>2017-07-21T08:06:08Z</time>
      </trkpt>
      <trkpt lat="48.05422" lon="7.01368">
        <ele>1215.8000488281</ele>
        <time>2017-07-21T08:06:11Z</time>
      </trkpt>
      <trkpt lat="48.05409" lon="7.01378">
        <ele>1216.5999755859</ele>
        <time>2017-07-21T08:06:17Z</time>
      </trkpt>
      <trkpt lat="48.05404" lon="7.01381">
        <ele>1216.8000488281</ele>
        <time>2017-07-21T08:06:19Z</time>
      </trkpt>
      <trkpt lat="48.05391" lon="7.01391">
        <ele>1217.8000488281</ele>
        <time>2017-07-21T08:06:25Z</time>
      </trkpt>
      <trkpt lat="48.05386" lon="7.01393">
        <ele>1218</ele>
        <time>2017-07-21T08:06:27Z</time>
      </trkpt>
      <trkpt lat="48.05372" lon="7.01405">
        <ele>1218.8000488281</ele>
        <time>2017-07-21T08:06:33Z</time>
      </trkpt>
      <trkpt lat="48.0537" lon="7.01406">
        <ele>1219</ele>
        <time>2017-07-21T08:06:34Z</time>
      </trkpt>
      <trkpt lat="48.05351" lon="7.01416">
        <ele>1220</ele>
        <time>2017-07-21T08:06:41Z</time>
      </trkpt>
      <trkpt lat="48.05346" lon="7.01419">
        <ele>1220</ele>
        <time>2017-07-21T08:06:43Z</time>
      </trkpt>
      <trkpt lat="48.05324" lon="7.01427">
        <ele>1220.8000488281</ele>
        <time>2017-07-21T08:06:51Z</time>
      </trkpt>
      <trkpt lat="48.05318" lon="7.01428">
        <ele>1221</ele>
        <time>2017-07-21T08:06:53Z</time>
      </trkpt>
      <trkpt lat="48.05304" lon="7.01433">
        <ele>1221.4000244141</ele>
        <time>2017-07-21T08:06:58Z</time>
      </trkpt>
      <trkpt lat="48.05282" lon="7.01441">
        <ele>1221.8000488281</ele>
        <time>2017-07-21T08:07:05Z</time>
      </trkpt>
      <trkpt lat="48.05276" lon="7.01443">
        <ele>1222</ele>
        <time>2017-07-21T08:07:07Z</time>
      </trkpt>
      <trkpt lat="48.05257" lon="7.01448">
        <ele>1222.5999755859</ele>
        <time>2017-07-21T08:07:13Z</time>
      </trkpt>
      <trkpt lat="48.05246" lon="7.01452">
        <ele>1223</ele>
        <time>2017-07-21T08:07:17Z</time>
      </trkpt>
      <trkpt lat="48.05235" lon="7.01455">
        <ele>1223.5999755859</ele>
        <time>2017-07-21T08:07:21Z</time>
      </trkpt>
      <trkpt lat="48.0522" lon="7.01456">
        <ele>1224</ele>
        <time>2017-07-21T08:07:26Z</time>
      </trkpt>
      <trkpt lat="48.05212" lon="7.01456">
        <ele>1224.4000244141</ele>
        <time>2017-07-21T08:07:29Z</time>
      </trkpt>
      <trkpt lat="48.0519" lon="7.01456">
        <ele>1225</ele>
        <time>2017-07-21T08:07:36Z</time>
      </trkpt>
      <trkpt lat="48.05184" lon="7.01455">
        <ele>1225.1999511719</ele>
        <time>2017-07-21T08:07:38Z</time>
      </trkpt>
      <trkpt lat="48.05165" lon="7.0145">
        <ele>1226.1999511719</ele>
        <time>2017-07-21T08:07:45Z</time>
      </trkpt>
      <trkpt lat="48.05163" lon="7.0145">
        <ele>1226.1999511719</ele>
        <time>2017-07-21T08:07:46Z</time>
      </trkpt>
      <trkpt lat="48.05143" lon="7.01445">
        <ele>1227.1999511719</ele>
        <time>2017-07-21T08:07:53Z</time>
      </trkpt>
      <trkpt lat="48.0514" lon="7.01444">
        <ele>1227.1999511719</ele>
        <time>2017-07-21T08:07:54Z</time>
      </trkpt>
      <trkpt lat="48.05125" lon="7.01429">
        <ele>1228.1999511719</ele>
        <time>2017-07-21T08:08:01Z</time>
      </trkpt>
      <trkpt lat="48.05123" lon="7.01426">
        <ele>1228.4000244141</ele>
        <time>2017-07-21T08:08:02Z</time>
      </trkpt>
      <trkpt lat="48.05111" lon="7.01406">
        <ele>1229.1999511719</ele>
        <time>2017-07-21T08:08:08Z</time>
      </trkpt>
      <trkpt lat="48.05109" lon="7.01402">
        <ele>1229.4000244141</ele>
        <time>2017-07-21T08:08:09Z</time>
      </trkpt>
      <trkpt lat="48.051" lon="7.01377">
        <ele>1229.8000488281</ele>
        <time>2017-07-21T08:08:15Z</time>
      </trkpt>
      <trkpt lat="48.05097" lon="7.01347">
        <ele>1230</ele>
        <time>2017-07-21T08:08:21Z</time>
      </trkpt>
      <trkpt lat="48.05093" lon="7.01309">
        <ele>1230.1999511719</ele>
        <time>2017-07-21T08:08:28Z</time>
      </trkpt>
      <trkpt lat="48.0509" lon="7.01269">
        <ele>1230</ele>
        <time>2017-07-21T08:08:35Z</time>
      </trkpt>
      <trkpt lat="48.05088" lon="7.01224">
        <ele>1229.8000488281</ele>
        <time>2017-07-21T08:08:42Z</time>
      </trkpt>
      <trkpt lat="48.05085" lon="7.01189">
        <ele>1229.8000488281</ele>
        <time>2017-07-21T08:08:47Z</time>
      </trkpt>
      <trkpt lat="48.05086" lon="7.01175">
        <ele>1229.5999755859</ele>
        <time>2017-07-21T08:08:49Z</time>
      </trkpt>
      <trkpt lat="48.05082" lon="7.01149">
        <ele>1229.1999511719</ele>
        <time>2017-07-21T08:08:53Z</time>
      </trkpt>
      <trkpt lat="48.05082" lon="7.01143">
        <ele>1229</ele>
        <time>2017-07-21T08:08:54Z</time>
      </trkpt>
      <trkpt lat="48.05076" lon="7.01102">
        <ele>1228.8000488281</ele>
        <time>2017-07-21T08:09:00Z</time>
      </trkpt>
      <trkpt lat="48.05064" lon="7.01064">
        <ele>1228.1999511719</ele>
        <time>2017-07-21T08:09:05Z</time>
      </trkpt>
      <trkpt lat="48.0506" lon="7.01056">
        <ele>1228.1999511719</ele>
        <time>2017-07-21T08:09:06Z</time>
      </trkpt>
      <trkpt lat="48.05045" lon="7.01038">
        <ele>1227.5999755859</ele>
        <time>2017-07-21T08:09:09Z</time>
      </trkpt>
      <trkpt lat="48.05028" lon="7.01028">
        <ele>1227.4000244141</ele>
        <time>2017-07-21T08:09:12Z</time>
      </trkpt>
      <trkpt lat="48.05022" lon="7.01025">
        <ele>1227.4000244141</ele>
        <time>2017-07-21T08:09:13Z</time>
      </trkpt>
      <trkpt lat="48.04993" lon="7.01017">
        <ele>1227.8000488281</ele>
        <time>2017-07-21T08:09:19Z</time>
      </trkpt>
      <trkpt lat="48.04989" lon="7.01016">
        <ele>1228</ele>
        <time>2017-07-21T08:09:20Z</time>
      </trkpt>
      <trkpt lat="48.04969" lon="7.01008">
        <ele>1229</ele>
        <time>2017-07-21T08:09:25Z</time>
      </trkpt>
      <trkpt lat="48.04966" lon="7.01005">
        <ele>1229.1999511719</ele>
        <time>2017-07-21T08:09:26Z</time>
      </trkpt>
      <trkpt lat="48.04962" lon="7.01003">
        <ele>1229.4000244141</ele>
        <time>2017-07-21T08:09:27Z</time>
      </trkpt>
      <trkpt lat="48.04943" lon="7.00989">
        <ele>1229.8000488281</ele>
        <time>2017-07-21T08:09:32Z</time>
      </trkpt>
      <trkpt lat="48.04939" lon="7.00985">
        <ele>1229.8000488281</ele>
        <time>2017-07-21T08:09:33Z</time>
      </trkpt>
      <trkpt lat="48.0492" lon="7.00967">
        <ele>1229.8000488281</ele>
        <time>2017-07-21T08:09:38Z</time>
      </trkpt>
      <trkpt lat="48.049" lon="7.0095">
        <ele>1229.5999755859</ele>
        <time>2017-07-21T08:09:43Z</time>
      </trkpt>
      <trkpt lat="48.04896" lon="7.00946">
        <ele>1229.4000244141</ele>
        <time>2017-07-21T08:09:44Z</time>
      </trkpt>
      <trkpt lat="48.04861" lon="7.00913">
        <ele>1228.4000244141</ele>
        <time>2017-07-21T08:09:52Z</time>
      </trkpt>
      <trkpt lat="48.04847" lon="7.00902">
        <ele>1228.4000244141</ele>
        <time>2017-07-21T08:09:55Z</time>
      </trkpt>
      <trkpt lat="48.04824" lon="7.00887">
        <ele>1228</ele>
        <time>2017-07-21T08:10:00Z</time>
      </trkpt>
      <trkpt lat="48.04797" lon="7.0087">
        <ele>1227.5999755859</ele>
        <time>2017-07-21T08:10:07Z</time>
      </trkpt>
      <trkpt lat="48.04779" lon="7.00857">
        <ele>1228.4000244141</ele>
        <time>2017-07-21T08:10:13Z</time>
      </trkpt>
      <trkpt lat="48.04776" lon="7.00855">
        <ele>1228.5999755859</ele>
        <time>2017-07-21T08:10:14Z</time>
      </trkpt>
      <trkpt lat="48.04748" lon="7.00839">
        <ele>1229.4000244141</ele>
        <time>2017-07-21T08:10:22Z</time>
      </trkpt>
      <trkpt lat="48.04719" lon="7.00825">
        <ele>1230.1999511719</ele>
        <time>2017-07-21T08:10:30Z</time>
      </trkpt>
      <trkpt lat="48.04715" lon="7.00823">
        <ele>1230.5999755859</ele>
        <time>2017-07-21T08:10:31Z</time>
      </trkpt>
      <trkpt lat="48.04687" lon="7.00809">
        <ele>1231.4000244141</ele>
        <time>2017-07-21T08:10:37Z</time>
      </trkpt>
      <trkpt lat="48.04683" lon="7.00806">
        <ele>1231.5999755859</ele>
        <time>2017-07-21T08:10:38Z</time>
      </trkpt>
      <trkpt lat="48.04669" lon="7.00799">
        <ele>1231.8000488281</ele>
        <time>2017-07-21T08:10:41Z</time>
      </trkpt>
      <trkpt lat="48.04658" lon="7.00795">
        <ele>1231.5999755859</ele>
        <time>2017-07-21T08:10:43Z</time>
      </trkpt>
      <trkpt lat="48.04615" lon="7.00779">
        <ele>1231</ele>
        <time>2017-07-21T08:10:50Z</time>
      </trkpt>
      <trkpt lat="48.04598" lon="7.00764">
        <ele>1230.4000244141</ele>
        <time>2017-07-21T08:10:53Z</time>
      </trkpt>
      <trkpt lat="48.04592" lon="7.00758">
        <ele>1230.1999511719</ele>
        <time>2017-07-21T08:10:54Z</time>
      </trkpt>
      <trkpt lat="48.04587" lon="7.00752">
        <ele>1230</ele>
        <time>2017-07-21T08:10:55Z</time>
      </trkpt>
      <trkpt lat="48.0455" lon="7.00708">
        <ele>1229.4000244141</ele>
        <time>2017-07-21T08:11:02Z</time>
      </trkpt>
      <trkpt lat="48.0452" lon="7.0068">
        <ele>1229</ele>
        <time>2017-07-21T08:11:07Z</time>
      </trkpt>
      <trkpt lat="48.04514" lon="7.00676">
        <ele>1229</ele>
        <time>2017-07-21T08:11:08Z</time>
      </trkpt>
      <trkpt lat="48.0448" lon="7.00654">
        <ele>1229</ele>
        <time>2017-07-21T08:11:14Z</time>
      </trkpt>
      <trkpt lat="48.04449" lon="7.00618">
        <ele>1230</ele>
        <time>2017-07-21T08:11:21Z</time>
      </trkpt>
      <trkpt lat="48.04428" lon="7.00589">
        <ele>1230.4000244141</ele>
        <time>2017-07-21T08:11:26Z</time>
      </trkpt>
      <trkpt lat="48.04415" lon="7.00573">
        <ele>1230.5999755859</ele>
        <time>2017-07-21T08:11:29Z</time>
      </trkpt>
      <trkpt lat="48.04377" lon="7.00532">
        <ele>1231</ele>
        <time>2017-07-21T08:11:37Z</time>
      </trkpt>
      <trkpt lat="48.04333" lon="7.00473">
        <ele>1231</ele>
        <time>2017-07-21T08:11:47Z</time>
      </trkpt>
      <trkpt lat="48.04297" lon="7.00437">
        <ele>1231.1999511719</ele>
        <time>2017-07-21T08:11:54Z</time>
      </trkpt>
      <trkpt lat="48.04291" lon="7.00435">
        <ele>1231.1999511719</ele>
        <time>2017-07-21T08:11:55Z</time>
      </trkpt>
      <trkpt lat="48.04273" lon="7.00432">
        <ele>1231.1999511719</ele>
        <time>2017-07-21T08:11:58Z</time>
      </trkpt>
      <trkpt lat="48.04262" lon="7.00432">
        <ele>1231.1999511719</ele>
        <time>2017-07-21T08:12:00Z</time>
      </trkpt>
      <trkpt lat="48.0424" lon="7.00436">
        <ele>1231.5999755859</ele>
        <time>2017-07-21T08:12:04Z</time>
      </trkpt>
      <trkpt lat="48.04236" lon="7.00438">
        <ele>1231.8000488281</ele>
        <time>2017-07-21T08:12:05Z</time>
      </trkpt>
      <trkpt lat="48.04211" lon="7.0045">
        <ele>1232.5999755859</ele>
        <time>2017-07-21T08:12:10Z</time>
      </trkpt>
      <trkpt lat="48.04173" lon="7.00471">
        <ele>1233.4000244141</ele>
        <time>2017-07-21T08:12:18Z</time>
      </trkpt>
      <trkpt lat="48.04164" lon="7.00475">
        <ele>1233.5999755859</ele>
        <time>2017-07-21T08:12:20Z</time>
      </trkpt>
      <trkpt lat="48.04145" lon="7.00489">
        <ele>1234</ele>
        <time>2017-07-21T08:12:25Z</time>
      </trkpt>
      <trkpt lat="48.0413" lon="7.00506">
        <ele>1234.8000488281</ele>
        <time>2017-07-21T08:12:30Z</time>
      </trkpt>
      <trkpt lat="48.0412" lon="7.00517">
        <ele>1235.1999511719</ele>
        <time>2017-07-21T08:12:33Z</time>
      </trkpt>
      <trkpt lat="48.04104" lon="7.00539">
        <ele>1235.8000488281</ele>
        <time>2017-07-21T08:12:39Z</time>
      </trkpt>
      <trkpt lat="48.04098" lon="7.00547">
        <ele>1236.1999511719</ele>
        <time>2017-07-21T08:12:41Z</time>
      </trkpt>
      <trkpt lat="48.04088" lon="7.00558">
        <ele>1236.5999755859</ele>
        <time>2017-07-21T08:12:44Z</time>
      </trkpt>
      <trkpt lat="48.04077" lon="7.00569">
        <ele>1237</ele>
        <time>2017-07-21T08:12:47Z</time>
      </trkpt>
      <trkpt lat="48.04073" lon="7.00573">
        <ele>1237</ele>
        <time>2017-07-21T08:12:48Z</time>
      </trkpt>
      <trkpt lat="48.04045" lon="7.00607">
        <ele>1236.5999755859</ele>
        <time>2017-07-21T08:12:56Z</time>
      </trkpt>
      <trkpt lat="48.04022" lon="7.00639">
        <ele>1236.5999755859</ele>
        <time>2017-07-21T08:13:03Z</time>
      </trkpt>
      <trkpt lat="48.03996" lon="7.00687">
        <ele>1236.8000488281</ele>
        <time>2017-07-21T08:13:12Z</time>
      </trkpt>
      <trkpt lat="48.03978" lon="7.00735">
        <ele>1236.8000488281</ele>
        <time>2017-07-21T08:13:19Z</time>
      </trkpt>
      <trkpt lat="48.03968" lon="7.00755">
        <ele>1236.5999755859</ele>
        <time>2017-07-21T08:13:22Z</time>
      </trkpt>
      <trkpt lat="48.0396" lon="7.00765">
        <ele>1236.4000244141</ele>
        <time>2017-07-21T08:13:24Z</time>
      </trkpt>
      <trkpt lat="48.03936" lon="7.0078">
        <ele>1236.5999755859</ele>
        <time>2017-07-21T08:13:29Z</time>
      </trkpt>
      <trkpt lat="48.03902" lon="7.0079">
        <ele>1237.1999511719</ele>
        <time>2017-07-21T08:13:36Z</time>
      </trkpt>
      <trkpt lat="48.03856" lon="7.008">
        <ele>1237.4000244141</ele>
        <time>2017-07-21T08:13:45Z</time>
      </trkpt>
      <trkpt lat="48.03814" lon="7.00803">
        <ele>1237.4000244141</ele>
        <time>2017-07-21T08:13:53Z</time>
      </trkpt>
      <trkpt lat="48.03781" lon="7.00805">
        <ele>1238</ele>
        <time>2017-07-21T08:14:00Z</time>
      </trkpt>
      <trkpt lat="48.03776" lon="7.00805">
        <ele>1238</ele>
        <time>2017-07-21T08:14:01Z</time>
      </trkpt>
      <trkpt lat="48.03757" lon="7.00802">
        <ele>1238.1999511719</ele>
        <time>2017-07-21T08:14:05Z</time>
      </trkpt>
      <trkpt lat="48.03749" lon="7.00799">
        <ele>1238.4000244141</ele>
        <time>2017-07-21T08:14:07Z</time>
      </trkpt>
      <trkpt lat="48.03723" lon="7.00794">
        <ele>1239</ele>
        <time>2017-07-21T08:14:13Z</time>
      </trkpt>
      <trkpt lat="48.03715" lon="7.00792">
        <ele>1239.1999511719</ele>
        <time>2017-07-21T08:14:15Z</time>
      </trkpt>
      <trkpt lat="48.03689" lon="7.00785">
        <ele>1240</ele>
        <time>2017-07-21T08:14:22Z</time>
      </trkpt>
      <trkpt lat="48.03658" lon="7.00788">
        <ele>1240.8000488281</ele>
        <time>2017-07-21T08:14:30Z</time>
      </trkpt>
      <trkpt lat="48.03647" lon="7.00789">
        <ele>1241.1999511719</ele>
        <time>2017-07-21T08:14:33Z</time>
      </trkpt>
      <trkpt lat="48.03629" lon="7.00789">
        <ele>1241.5999755859</ele>
        <time>2017-07-21T08:14:38Z</time>
      </trkpt>
      <trkpt lat="48.03607" lon="7.00789">
        <ele>1242.1999511719</ele>
        <time>2017-07-21T08:14:44Z</time>
      </trkpt>
      <trkpt lat="48.03599" lon="7.00785">
        <ele>1242.4000244141</ele>
        <time>2017-07-21T08:14:46Z</time>
      </trkpt>
      <trkpt lat="48.03584" lon="7.00777">
        <ele>1242.8000488281</ele>
        <time>2017-07-21T08:14:50Z</time>
      </trkpt>
      <trkpt lat="48.03574" lon="7.00769">
        <ele>1242.8000488281</ele>
        <time>2017-07-21T08:14:53Z</time>
      </trkpt>
      <trkpt lat="48.03566" lon="7.0076">
        <ele>1243.4000244141</ele>
        <time>2017-07-21T08:14:56Z</time>
      </trkpt>
      <trkpt lat="48.03558" lon="7.00749">
        <ele>1244</ele>
        <time>2017-07-21T08:14:59Z</time>
      </trkpt>
      <trkpt lat="48.03553" lon="7.00742">
        <ele>1244.5999755859</ele>
        <time>2017-07-21T08:15:01Z</time>
      </trkpt>
      <trkpt lat="48.03541" lon="7.0072">
        <ele>1245.8000488281</ele>
        <time>2017-07-21T08:15:06Z</time>
      </trkpt>
      <trkpt lat="48.03529" lon="7.00695">
        <ele>1246.8000488281</ele>
        <time>2017-07-21T08:15:12Z</time>
      </trkpt>
      <trkpt lat="48.03524" lon="7.00687">
        <ele>1247.1999511719</ele>
        <time>2017-07-21T08:15:14Z</time>
      </trkpt>
      <trkpt lat="48.03514" lon="7.00671">
        <ele>1248</ele>
        <time>2017-07-21T08:15:18Z</time>
      </trkpt>
      <trkpt lat="48.03501" lon="7.00647">
        <ele>1248.4000244141</ele>
        <time>2017-07-21T08:15:23Z</time>
      </trkpt>
      <trkpt lat="48.03474" lon="7.00599">
        <ele>1248.8000488281</ele>
        <time>2017-07-21T08:15:33Z</time>
      </trkpt>
      <trkpt lat="48.03453" lon="7.00558">
        <ele>1249</ele>
        <time>2017-07-21T08:15:42Z</time>
      </trkpt>
      <trkpt lat="48.03443" lon="7.00532">
        <ele>1250</ele>
        <time>2017-07-21T08:15:48Z</time>
      </trkpt>
      <trkpt lat="48.03439" lon="7.00517">
        <ele>1250.5999755859</ele>
        <time>2017-07-21T08:15:51Z</time>
      </trkpt>
      <trkpt lat="48.03431" lon="7.00486">
        <ele>1251</ele>
        <time>2017-07-21T08:15:57Z</time>
      </trkpt>
      <trkpt lat="48.03427" lon="7.00465">
        <ele>1251.8000488281</ele>
        <time>2017-07-21T08:16:01Z</time>
      </trkpt>
      <trkpt lat="48.03423" lon="7.00443">
        <ele>1252.1999511719</ele>
        <time>2017-07-21T08:16:05Z</time>
      </trkpt>
      <trkpt lat="48.03419" lon="7.00421">
        <ele>1252.5999755859</ele>
        <time>2017-07-21T08:16:09Z</time>
      </trkpt>
      <trkpt lat="48.03411" lon="7.00395">
        <ele>1253.1999511719</ele>
        <time>2017-07-21T08:16:14Z</time>
      </trkpt>
      <trkpt lat="48.0341" lon="7.00389">
        <ele>1253.1999511719</ele>
        <time>2017-07-21T08:16:15Z</time>
      </trkpt>
      <trkpt lat="48.03395" lon="7.00349">
        <ele>1254</ele>
        <time>2017-07-21T08:16:23Z</time>
      </trkpt>
      <trkpt lat="48.03392" lon="7.00345">
        <ele>1254.1999511719</ele>
        <time>2017-07-21T08:16:24Z</time>
      </trkpt>
      <trkpt lat="48.0338" lon="7.00316">
        <ele>1255</ele>
        <time>2017-07-21T08:16:31Z</time>
      </trkpt>
      <trkpt lat="48.03379" lon="7.00311">
        <ele>1255.1999511719</ele>
        <time>2017-07-21T08:16:32Z</time>
      </trkpt>
      <trkpt lat="48.03366" lon="7.00284">
        <ele>1255.8000488281</ele>
        <time>2017-07-21T08:16:38Z</time>
      </trkpt>
      <trkpt lat="48.03356" lon="7.00262">
        <ele>1256.1999511719</ele>
        <time>2017-07-21T08:16:43Z</time>
      </trkpt>
      <trkpt lat="48.03348" lon="7.00243">
        <ele>1256.8000488281</ele>
        <time>2017-07-21T08:16:47Z</time>
      </trkpt>
      <trkpt lat="48.03331" lon="7.00219">
        <ele>1257.1999511719</ele>
        <time>2017-07-21T08:16:53Z</time>
      </trkpt>
      <trkpt lat="48.03319" lon="7.00197">
        <ele>1258</ele>
        <time>2017-07-21T08:16:58Z</time>
      </trkpt>
      <trkpt lat="48.03311" lon="7.00184">
        <ele>1258.4000244141</ele>
        <time>2017-07-21T08:17:01Z</time>
      </trkpt>
      <trkpt lat="48.03303" lon="7.00173">
        <ele>1258.8000488281</ele>
        <time>2017-07-21T08:17:04Z</time>
      </trkpt>
      <trkpt lat="48.03284" lon="7.00146">
        <ele>1259.1999511719</ele>
        <time>2017-07-21T08:17:11Z</time>
      </trkpt>
      <trkpt lat="48.03281" lon="7.00143">
        <ele>1259.1999511719</ele>
        <time>2017-07-21T08:17:12Z</time>
      </trkpt>
      <trkpt lat="48.03264" lon="7.00135">
        <ele>1259.1999511719</ele>
        <time>2017-07-21T08:17:16Z</time>
      </trkpt>
      <trkpt lat="48.03256" lon="7.00133">
        <ele>1259.4000244141</ele>
        <time>2017-07-21T08:17:18Z</time>
      </trkpt>
      <trkpt lat="48.03247" lon="7.00133">
        <ele>1259.4000244141</ele>
        <time>2017-07-21T08:17:20Z</time>
      </trkpt>
      <trkpt lat="48.03238" lon="7.00137">
        <ele>1259.4000244141</ele>
        <time>2017-07-21T08:17:22Z</time>
      </trkpt>
      <trkpt lat="48.03222" lon="7.00149">
        <ele>1259.4000244141</ele>
        <time>2017-07-21T08:17:26Z</time>
      </trkpt>
      <trkpt lat="48.03214" lon="7.00157">
        <ele>1259.4000244141</ele>
        <time>2017-07-21T08:17:28Z</time>
      </trkpt>
      <trkpt lat="48.03186" lon="7.00189">
        <ele>1259.4000244141</ele>
        <time>2017-07-21T08:17:36Z</time>
      </trkpt>
      <trkpt lat="48.03178" lon="7.00201">
        <ele>1259.5999755859</ele>
        <time>2017-07-21T08:17:39Z</time>
      </trkpt>
      <trkpt lat="48.03166" lon="7.0022">
        <ele>1259.8000488281</ele>
        <time>2017-07-21T08:17:43Z</time>
      </trkpt>
      <trkpt lat="48.03151" lon="7.00249">
        <ele>1259.5999755859</ele>
        <time>2017-07-21T08:17:50Z</time>
      </trkpt>
      <trkpt lat="48.03139" lon="7.00274">
        <ele>1259.4000244141</ele>
        <time>2017-07-21T08:17:55Z</time>
      </trkpt>
      <trkpt lat="48.03128" lon="7.00291">
        <ele>1259</ele>
        <time>2017-07-21T08:17:59Z</time>
      </trkpt>
      <trkpt lat="48.03103" lon="7.0032">
        <ele>1258.5999755859</ele>
        <time>2017-07-21T08:18:05Z</time>
      </trkpt>
      <trkpt lat="48.03099" lon="7.00326">
        <ele>1258.4000244141</ele>
        <time>2017-07-21T08:18:06Z</time>
      </trkpt>
      <trkpt lat="48.03074" lon="7.00353">
        <ele>1257.4000244141</ele>
        <time>2017-07-21T08:18:11Z</time>
      </trkpt>
      <trkpt lat="48.03059" lon="7.00372">
        <ele>1256.5999755859</ele>
        <time>2017-07-21T08:18:14Z</time>
      </trkpt>
      <trkpt lat="48.03049" lon="7.00384">
        <ele>1256</ele>
        <time>2017-07-21T08:18:16Z</time>
      </trkpt>
      <trkpt lat="48.03045" lon="7.00391">
        <ele>1255.8000488281</ele>
        <time>2017-07-21T08:18:17Z</time>
      </trkpt>
      <trkpt lat="48.03034" lon="7.00414">
        <ele>1255.4000244141</ele>
        <time>2017-07-21T08:18:20Z</time>
      </trkpt>
      <trkpt lat="48.03021" lon="7.00436">
        <ele>1255</ele>
        <time>2017-07-21T08:18:23Z</time>
      </trkpt>
      <trkpt lat="48.03005" lon="7.00455">
        <ele>1254.4000244141</ele>
        <time>2017-07-21T08:18:26Z</time>
      </trkpt>
      <trkpt lat="48.02985" lon="7.00462">
        <ele>1253.8000488281</ele>
        <time>2017-07-21T08:18:29Z</time>
      </trkpt>
      <trkpt lat="48.02979" lon="7.00463">
        <ele>1253.5999755859</ele>
        <time>2017-07-21T08:18:30Z</time>
      </trkpt>
      <trkpt lat="48.02965" lon="7.00459">
        <ele>1253</ele>
        <time>2017-07-21T08:18:32Z</time>
      </trkpt>
      <trkpt lat="48.02958" lon="7.00453">
        <ele>1252.8000488281</ele>
        <time>2017-07-21T08:18:33Z</time>
      </trkpt>
      <trkpt lat="48.02952" lon="7.00447">
        <ele>1252.5999755859</ele>
        <time>2017-07-21T08:18:34Z</time>
      </trkpt>
      <trkpt lat="48.02927" lon="7.00421">
        <ele>1251.4000244141</ele>
        <time>2017-07-21T08:18:38Z</time>
      </trkpt>
      <trkpt lat="48.02894" lon="7.00379">
        <ele>1250.4000244141</ele>
        <time>2017-07-21T08:18:44Z</time>
      </trkpt>
      <trkpt lat="48.02866" lon="7.00333">
        <ele>1250</ele>
        <time>2017-07-21T08:18:50Z</time>
      </trkpt>
      <trkpt lat="48.02851" lon="7.00294">
        <ele>1250.1999511719</ele>
        <time>2017-07-21T08:18:55Z</time>
      </trkpt>
      <trkpt lat="48.02844" lon="7.00247">
        <ele>1250.4000244141</ele>
        <time>2017-07-21T08:19:00Z</time>
      </trkpt>
      <trkpt lat="48.02837" lon="7.00188">
        <ele>1249.4000244141</ele>
        <time>2017-07-21T08:19:05Z</time>
      </trkpt>
      <trkpt lat="48.02831" lon="7.00137">
        <ele>1248.4000244141</ele>
        <time>2017-07-21T08:19:09Z</time>
      </trkpt>
      <trkpt lat="48.02823" lon="7.00084">
        <ele>1247</ele>
        <time>2017-07-21T08:19:13Z</time>
      </trkpt>
      <trkpt lat="48.02815" lon="7.0003">
        <ele>1246</ele>
        <time>2017-07-21T08:19:17Z</time>
      </trkpt>
      <trkpt lat="48.02808" lon="6.99991">
        <ele>1244.8000488281</ele>
        <time>2017-07-21T08:19:20Z</time>
      </trkpt>
      <trkpt lat="48.02802" lon="6.99966">
        <ele>1244.1999511719</ele>
        <time>2017-07-21T08:19:22Z</time>
      </trkpt>
      <trkpt lat="48.02794" lon="6.99941">
        <ele>1243.5999755859</ele>
        <time>2017-07-21T08:19:24Z</time>
      </trkpt>
      <trkpt lat="48.02783" lon="6.99905">
        <ele>1242.5999755859</ele>
        <time>2017-07-21T08:19:27Z</time>
      </trkpt>
      <trkpt lat="48.02779" lon="6.99893">
        <ele>1242.1999511719</ele>
        <time>2017-07-21T08:19:28Z</time>
      </trkpt>
      <trkpt lat="48.02765" lon="6.99857">
        <ele>1241.5999755859</ele>
        <time>2017-07-21T08:19:31Z</time>
      </trkpt>
      <trkpt lat="48.02751" lon="6.99825">
        <ele>1241</ele>
        <time>2017-07-21T08:19:34Z</time>
      </trkpt>
      <trkpt lat="48.02737" lon="6.99795">
        <ele>1240.4000244141</ele>
        <time>2017-07-21T08:19:37Z</time>
      </trkpt>
      <trkpt lat="48.02717" lon="6.99756">
        <ele>1240.1999511719</ele>
        <time>2017-07-21T08:19:41Z</time>
      </trkpt>
      <trkpt lat="48.02693" lon="6.99713">
        <ele>1239.4000244141</ele>
        <time>2017-07-21T08:19:46Z</time>
      </trkpt>
      <trkpt lat="48.02689" lon="6.99708">
        <ele>1239.1999511719</ele>
        <time>2017-07-21T08:19:47Z</time>
      </trkpt>
      <trkpt lat="48.02683" lon="6.99703">
        <ele>1239</ele>
        <time>2017-07-21T08:19:49Z</time>
      </trkpt>
      <trkpt lat="48.02676" lon="6.99695">
        <ele>1239</ele>
        <time>2017-07-21T08:19:53Z</time>
      </trkpt>
      <trkpt lat="48.02672" lon="6.99694">
        <ele>1239.4000244141</ele>
        <time>2017-07-21T08:19:56Z</time>
      </trkpt>
      <trkpt lat="48.02669" lon="6.99692">
        <ele>1240</ele>
        <time>2017-07-21T08:20:45Z</time>
      </trkpt>
      <trkpt lat="48.02668" lon="6.99693">
        <ele>1240</ele>
        <time>2017-07-21T08:20:46Z</time>
      </trkpt>
      <trkpt lat="48.0266" lon="6.99695">
        <ele>1240.1999511719</ele>
        <time>2017-07-21T08:20:50Z</time>
      </trkpt>
      <trkpt lat="48.02659" lon="6.99692">
        <ele>1240.1999511719</ele>
        <time>2017-07-21T08:20:51Z</time>
      </trkpt>
      <trkpt lat="48.02651" lon="6.99689">
        <ele>1240.1999511719</ele>
        <time>2017-07-21T08:20:55Z</time>
      </trkpt>
      <trkpt lat="48.02649" lon="6.99689">
        <ele>1240.5999755859</ele>
        <time>2017-07-21T08:20:56Z</time>
      </trkpt>
      <trkpt lat="48.02635" lon="6.99685">
        <ele>1241.1999511719</ele>
        <time>2017-07-21T08:21:02Z</time>
      </trkpt>
      <trkpt lat="48.02619" lon="6.99678">
        <ele>1241.5999755859</ele>
        <time>2017-07-21T08:21:07Z</time>
      </trkpt>
      <trkpt lat="48.02613" lon="6.99673">
        <ele>1242</ele>
        <time>2017-07-21T08:21:09Z</time>
      </trkpt>
      <trkpt lat="48.026" lon="6.9966">
        <ele>1242.8000488281</ele>
        <time>2017-07-21T08:21:14Z</time>
      </trkpt>
      <trkpt lat="48.02595" lon="6.99648">
        <ele>1243</ele>
        <time>2017-07-21T08:21:17Z</time>
      </trkpt>
      <trkpt lat="48.02589" lon="6.99637">
        <ele>1243.8000488281</ele>
        <time>2017-07-21T08:21:20Z</time>
      </trkpt>
      <trkpt lat="48.02583" lon="6.99621">
        <ele>1244.5999755859</ele>
        <time>2017-07-21T08:21:24Z</time>
      </trkpt>
      <trkpt lat="48.02581" lon="6.99618">
        <ele>1244.8000488281</ele>
        <time>2017-07-21T08:21:25Z</time>
      </trkpt>
      <trkpt lat="48.02571" lon="6.99601">
        <ele>1245.4000244141</ele>
        <time>2017-07-21T08:21:30Z</time>
      </trkpt>
      <trkpt lat="48.02552" lon="6.99573">
        <ele>1245.4000244141</ele>
        <time>2017-07-21T08:21:38Z</time>
      </trkpt>
      <trkpt lat="48.02538" lon="6.99547">
        <ele>1245.1999511719</ele>
        <time>2017-07-21T08:21:44Z</time>
      </trkpt>
      <trkpt lat="48.02516" lon="6.9952">
        <ele>1245</ele>
        <time>2017-07-21T08:21:50Z</time>
      </trkpt>
      <trkpt lat="48.02495" lon="6.99497">
        <ele>1244.4000244141</ele>
        <time>2017-07-21T08:21:54Z</time>
      </trkpt>
      <trkpt lat="48.02491" lon="6.99489">
        <ele>1244.1999511719</ele>
        <time>2017-07-21T08:21:55Z</time>
      </trkpt>
      <trkpt lat="48.02483" lon="6.9947">
        <ele>1243.5999755859</ele>
        <time>2017-07-21T08:21:57Z</time>
      </trkpt>
      <trkpt lat="48.02479" lon="6.99459">
        <ele>1243.4000244141</ele>
        <time>2017-07-21T08:21:58Z</time>
      </trkpt>
      <trkpt lat="48.02475" lon="6.99448">
        <ele>1243</ele>
        <time>2017-07-21T08:21:59Z</time>
      </trkpt>
      <trkpt lat="48.02472" lon="6.99436">
        <ele>1242.4000244141</ele>
        <time>2017-07-21T08:22:00Z</time>
      </trkpt>
      <trkpt lat="48.02463" lon="6.99398">
        <ele>1241.1999511719</ele>
        <time>2017-07-21T08:22:03Z</time>
      </trkpt>
      <trkpt lat="48.02461" lon="6.99384">
        <ele>1240.5999755859</ele>
        <time>2017-07-21T08:22:04Z</time>
      </trkpt>
      <trkpt lat="48.02458" lon="6.99369">
        <ele>1240</ele>
        <time>2017-07-21T08:22:05Z</time>
      </trkpt>
      <trkpt lat="48.0245" lon="6.99341">
        <ele>1239</ele>
        <time>2017-07-21T08:22:07Z</time>
      </trkpt>
      <trkpt lat="48.02445" lon="6.99328">
        <ele>1237.8000488281</ele>
        <time>2017-07-21T08:22:08Z</time>
      </trkpt>
      <trkpt lat="48.02434" lon="6.99301">
        <ele>1236.5999755859</ele>
        <time>2017-07-21T08:22:10Z</time>
      </trkpt>
      <trkpt lat="48.02422" lon="6.99272">
        <ele>1235.1999511719</ele>
        <time>2017-07-21T08:22:12Z</time>
      </trkpt>
      <trkpt lat="48.02416" lon="6.99257">
        <ele>1234.5999755859</ele>
        <time>2017-07-21T08:22:13Z</time>
      </trkpt>
      <trkpt lat="48.0241" lon="6.99243">
        <ele>1233.8000488281</ele>
        <time>2017-07-21T08:22:14Z</time>
      </trkpt>
      <trkpt lat="48.02397" lon="6.99213">
        <ele>1232.1999511719</ele>
        <time>2017-07-21T08:22:16Z</time>
      </trkpt>
      <trkpt lat="48.0239" lon="6.992">
        <ele>1231.4000244141</ele>
        <time>2017-07-21T08:22:17Z</time>
      </trkpt>
      <trkpt lat="48.02381" lon="6.99188">
        <ele>1230.5999755859</ele>
        <time>2017-07-21T08:22:18Z</time>
      </trkpt>
      <trkpt lat="48.0236" lon="6.99177">
        <ele>1228.8000488281</ele>
        <time>2017-07-21T08:22:20Z</time>
      </trkpt>
      <trkpt lat="48.02337" lon="6.99177">
        <ele>1227.4000244141</ele>
        <time>2017-07-21T08:22:22Z</time>
      </trkpt>
      <trkpt lat="48.02315" lon="6.99177">
        <ele>1225.8000488281</ele>
        <time>2017-07-21T08:22:24Z</time>
      </trkpt>
      <trkpt lat="48.02305" lon="6.99175">
        <ele>1225.1999511719</ele>
        <time>2017-07-21T08:22:25Z</time>
      </trkpt>
      <trkpt lat="48.02296" lon="6.99172">
        <ele>1224.5999755859</ele>
        <time>2017-07-21T08:22:26Z</time>
      </trkpt>
      <trkpt lat="48.02288" lon="6.99165">
        <ele>1224.1999511719</ele>
        <time>2017-07-21T08:22:27Z</time>
      </trkpt>
      <trkpt lat="48.02279" lon="6.99142">
        <ele>1223.1999511719</ele>
        <time>2017-07-21T08:22:29Z</time>
      </trkpt>
      <trkpt lat="48.02282" lon="6.99103">
        <ele>1222.1999511719</ele>
        <time>2017-07-21T08:22:32Z</time>
      </trkpt>
      <trkpt lat="48.02294" lon="6.99072">
        <ele>1222.1999511719</ele>
        <time>2017-07-21T08:22:35Z</time>
      </trkpt>
      <trkpt lat="48.02301" lon="6.99064">
        <ele>1222.1999511719</ele>
        <time>2017-07-21T08:22:36Z</time>
      </trkpt>
      <trkpt lat="48.02344" lon="6.99011">
        <ele>1222.5999755859</ele>
        <time>2017-07-21T08:22:43Z</time>
      </trkpt>
      <trkpt lat="48.02349" lon="6.99003">
        <ele>1222.5999755859</ele>
        <time>2017-07-21T08:22:44Z</time>
      </trkpt>
      <trkpt lat="48.02355" lon="6.98974">
        <ele>1222.5999755859</ele>
        <time>2017-07-21T08:22:47Z</time>
      </trkpt>
      <trkpt lat="48.0235" lon="6.98944">
        <ele>1222.5999755859</ele>
        <time>2017-07-21T08:22:50Z</time>
      </trkpt>
      <trkpt lat="48.02347" lon="6.98934">
        <ele>1222.5999755859</ele>
        <time>2017-07-21T08:22:51Z</time>
      </trkpt>
      <trkpt lat="48.02332" lon="6.989">
        <ele>1222.4000244141</ele>
        <time>2017-07-21T08:22:55Z</time>
      </trkpt>
      <trkpt lat="48.02322" lon="6.98885">
        <ele>1222.4000244141</ele>
        <time>2017-07-21T08:22:57Z</time>
      </trkpt>
      <trkpt lat="48.02301" lon="6.98859">
        <ele>1222.4000244141</ele>
        <time>2017-07-21T08:23:01Z</time>
      </trkpt>
      <trkpt lat="48.02271" lon="6.98831">
        <ele>1222.4000244141</ele>
        <time>2017-07-21T08:23:07Z</time>
      </trkpt>
      <trkpt lat="48.02233" lon="6.98802">
        <ele>1222.1999511719</ele>
        <time>2017-07-21T08:23:13Z</time>
      </trkpt>
      <trkpt lat="48.02202" lon="6.9878">
        <ele>1221.1999511719</ele>
        <time>2017-07-21T08:23:17Z</time>
      </trkpt>
      <trkpt lat="48.02186" lon="6.98768">
        <ele>1220.4000244141</ele>
        <time>2017-07-21T08:23:19Z</time>
      </trkpt>
      <trkpt lat="48.02178" lon="6.98762">
        <ele>1219.4000244141</ele>
        <time>2017-07-21T08:23:20Z</time>
      </trkpt>
      <trkpt lat="48.02151" lon="6.98747">
        <ele>1218.1999511719</ele>
        <time>2017-07-21T08:23:23Z</time>
      </trkpt>
      <trkpt lat="48.02142" lon="6.98744">
        <ele>1217.8000488281</ele>
        <time>2017-07-21T08:23:24Z</time>
      </trkpt>
      <trkpt lat="48.02133" lon="6.98742">
        <ele>1217.4000244141</ele>
        <time>2017-07-21T08:23:25Z</time>
      </trkpt>
      <trkpt lat="48.02123" lon="6.98741">
        <ele>1217</ele>
        <time>2017-07-21T08:23:26Z</time>
      </trkpt>
      <trkpt lat="48.02113" lon="6.9874">
        <ele>1216.4000244141</ele>
        <time>2017-07-21T08:23:27Z</time>
      </trkpt>
      <trkpt lat="48.02103" lon="6.98741">
        <ele>1216</ele>
        <time>2017-07-21T08:23:28Z</time>
      </trkpt>
      <trkpt lat="48.02093" lon="6.98742">
        <ele>1215.5999755859</ele>
        <time>2017-07-21T08:23:29Z</time>
      </trkpt>
      <trkpt lat="48.02064" lon="6.98745">
        <ele>1214.1999511719</ele>
        <time>2017-07-21T08:23:32Z</time>
      </trkpt>
      <trkpt lat="48.02032" lon="6.98744">
        <ele>1212.8000488281</ele>
        <time>2017-07-21T08:23:35Z</time>
      </trkpt>
      <trkpt lat="48.02021" lon="6.98741">
        <ele>1212.4000244141</ele>
        <time>2017-07-21T08:23:36Z</time>
      </trkpt>
      <trkpt lat="48.02001" lon="6.98729">
        <ele>1211.4000244141</ele>
        <time>2017-07-21T08:23:38Z</time>
      </trkpt>
      <trkpt lat="48.01992" lon="6.98722">
        <ele>1210.8000488281</ele>
        <time>2017-07-21T08:23:39Z</time>
      </trkpt>
      <trkpt lat="48.01972" lon="6.98708">
        <ele>1209.8000488281</ele>
        <time>2017-07-21T08:23:41Z</time>
      </trkpt>
      <trkpt lat="48.01944" lon="6.98691">
        <ele>1208</ele>
        <time>2017-07-21T08:23:44Z</time>
      </trkpt>
      <trkpt lat="48.01937" lon="6.98688">
        <ele>1207.4000244141</ele>
        <time>2017-07-21T08:23:45Z</time>
      </trkpt>
      <trkpt lat="48.01932" lon="6.98686">
        <ele>1207</ele>
        <time>2017-07-21T08:23:46Z</time>
      </trkpt>
      <trkpt lat="48.01927" lon="6.98685">
        <ele>1206.4000244141</ele>
        <time>2017-07-21T08:23:47Z</time>
      </trkpt>
      <trkpt lat="48.01924" lon="6.98686">
        <ele>1205.8000488281</ele>
        <time>2017-07-21T08:23:48Z</time>
      </trkpt>
      <trkpt lat="48.01918" lon="6.98686">
        <ele>1204.8000488281</ele>
        <time>2017-07-21T08:23:50Z</time>
      </trkpt>
      <trkpt lat="48.01914" lon="6.98684">
        <ele>1204</ele>
        <time>2017-07-21T08:23:52Z</time>
      </trkpt>
      <trkpt lat="48.01911" lon="6.98683">
        <ele>1203.5999755859</ele>
        <time>2017-07-21T08:23:53Z</time>
      </trkpt>
      <trkpt lat="48.01903" lon="6.98681">
        <ele>1202.8000488281</ele>
        <time>2017-07-21T08:23:57Z</time>
      </trkpt>
      <trkpt lat="48.019" lon="6.9868">
        <ele>1202</ele>
        <time>2017-07-21T08:24:19Z</time>
      </trkpt>
      <trkpt lat="48.01898" lon="6.98679">
        <ele>1202</ele>
        <time>2017-07-21T08:35:55Z</time>
      </trkpt>
      <trkpt lat="48.01893" lon="6.98673">
        <ele>1202</ele>
        <time>2017-07-21T08:35:58Z</time>
      </trkpt>
      <trkpt lat="48.01891" lon="6.98671">
        <ele>1202</ele>
        <time>2017-07-21T08:35:59Z</time>
      </trkpt>
      <trkpt lat="48.01876" lon="6.98663">
        <ele>1201.8000488281</ele>
        <time>2017-07-21T08:36:03Z</time>
      </trkpt>
      <trkpt lat="48.01854" lon="6.98648">
        <ele>1201</ele>
        <time>2017-07-21T08:36:08Z</time>
      </trkpt>
      <trkpt lat="48.01827" lon="6.98627">
        <ele>1199.8000488281</ele>
        <time>2017-07-21T08:36:13Z</time>
      </trkpt>
      <trkpt lat="48.01822" lon="6.98623">
        <ele>1199.5999755859</ele>
        <time>2017-07-21T08:36:14Z</time>
      </trkpt>
      <trkpt lat="48.01798" lon="6.98608">
        <ele>1198.5999755859</ele>
        <time>2017-07-21T08:36:18Z</time>
      </trkpt>
      <trkpt lat="48.01779" lon="6.98598">
        <ele>1198</ele>
        <time>2017-07-21T08:36:21Z</time>
      </trkpt>
      <trkpt lat="48.01749" lon="6.98583">
        <ele>1197.4000244141</ele>
        <time>2017-07-21T08:36:25Z</time>
      </trkpt>
      <trkpt lat="48.01725" lon="6.98573">
        <ele>1196.4000244141</ele>
        <time>2017-07-21T08:36:28Z</time>
      </trkpt>
      <trkpt lat="48.01717" lon="6.9857">
        <ele>1196</ele>
        <time>2017-07-21T08:36:29Z</time>
      </trkpt>
      <trkpt lat="48.01689" lon="6.98568">
        <ele>1195</ele>
        <time>2017-07-21T08:36:32Z</time>
      </trkpt>
      <trkpt lat="48.0168" lon="6.98568">
        <ele>1194.1999511719</ele>
        <time>2017-07-21T08:36:33Z</time>
      </trkpt>
      <trkpt lat="48.0167" lon="6.98569">
        <ele>1193.5999755859</ele>
        <time>2017-07-21T08:36:34Z</time>
      </trkpt>
      <trkpt lat="48.0164" lon="6.98568">
        <ele>1192.4000244141</ele>
        <time>2017-07-21T08:36:37Z</time>
      </trkpt>
      <trkpt lat="48.01621" lon="6.98565">
        <ele>1191.5999755859</ele>
        <time>2017-07-21T08:36:39Z</time>
      </trkpt>
      <trkpt lat="48.01611" lon="6.98561">
        <ele>1191.1999511719</ele>
        <time>2017-07-21T08:36:40Z</time>
      </trkpt>
      <trkpt lat="48.01594" lon="6.98554">
        <ele>1189.8000488281</ele>
        <time>2017-07-21T08:36:42Z</time>
      </trkpt>
      <trkpt lat="48.01576" lon="6.98547">
        <ele>1188.8000488281</ele>
        <time>2017-07-21T08:36:44Z</time>
      </trkpt>
      <trkpt lat="48.01568" lon="6.98543">
        <ele>1188.5999755859</ele>
        <time>2017-07-21T08:36:45Z</time>
      </trkpt>
      <trkpt lat="48.01535" lon="6.98529">
        <ele>1187.5999755859</ele>
        <time>2017-07-21T08:36:49Z</time>
      </trkpt>
      <trkpt lat="48.01521" lon="6.98523">
        <ele>1187.4000244141</ele>
        <time>2017-07-21T08:36:51Z</time>
      </trkpt>
      <trkpt lat="48.01491" lon="6.98508">
        <ele>1187.1999511719</ele>
        <time>2017-07-21T08:36:56Z</time>
      </trkpt>
      <trkpt lat="48.01486" lon="6.98503">
        <ele>1187.4000244141</ele>
        <time>2017-07-21T08:36:57Z</time>
      </trkpt>
      <trkpt lat="48.01459" lon="6.9848">
        <ele>1188</ele>
        <time>2017-07-21T08:37:03Z</time>
      </trkpt>
      <trkpt lat="48.01441" lon="6.98458">
        <ele>1188.5999755859</ele>
        <time>2017-07-21T08:37:08Z</time>
      </trkpt>
      <trkpt lat="48.01438" lon="6.98454">
        <ele>1188.8000488281</ele>
        <time>2017-07-21T08:37:09Z</time>
      </trkpt>
      <trkpt lat="48.0142" lon="6.98433">
        <ele>1189.5999755859</ele>
        <time>2017-07-21T08:37:15Z</time>
      </trkpt>
      <trkpt lat="48.01403" lon="6.98416">
        <ele>1190.8000488281</ele>
        <time>2017-07-21T08:37:21Z</time>
      </trkpt>
      <trkpt lat="48.01377" lon="6.98393">
        <ele>1191.8000488281</ele>
        <time>2017-07-21T08:37:30Z</time>
      </trkpt>
      <trkpt lat="48.01354" lon="6.9837">
        <ele>1192.4000244141</ele>
        <time>2017-07-21T08:37:37Z</time>
      </trkpt>
      <trkpt lat="48.01345" lon="6.98359">
        <ele>1192.8000488281</ele>
        <time>2017-07-21T08:37:40Z</time>
      </trkpt>
      <trkpt lat="48.01327" lon="6.98334">
        <ele>1193.4000244141</ele>
        <time>2017-07-21T08:37:46Z</time>
      </trkpt>
      <trkpt lat="48.01324" lon="6.9833">
        <ele>1193.5999755859</ele>
        <time>2017-07-21T08:37:47Z</time>
      </trkpt>
      <trkpt lat="48.01318" lon="6.98321">
        <ele>1193.8000488281</ele>
        <time>2017-07-21T08:37:49Z</time>
      </trkpt>
      <trkpt lat="48.013" lon="6.98297">
        <ele>1194.4000244141</ele>
        <time>2017-07-21T08:37:55Z</time>
      </trkpt>
      <trkpt lat="48.01287" lon="6.98281">
        <ele>1194.8000488281</ele>
        <time>2017-07-21T08:37:59Z</time>
      </trkpt>
      <trkpt lat="48.01275" lon="6.98265">
        <ele>1195.1999511719</ele>
        <time>2017-07-21T08:38:03Z</time>
      </trkpt>
      <trkpt lat="48.0126" lon="6.98246">
        <ele>1196</ele>
        <time>2017-07-21T08:38:08Z</time>
      </trkpt>
      <trkpt lat="48.01252" lon="6.98234">
        <ele>1196.5999755859</ele>
        <time>2017-07-21T08:38:11Z</time>
      </trkpt>
      <trkpt lat="48.01244" lon="6.9822">
        <ele>1197</ele>
        <time>2017-07-21T08:38:14Z</time>
      </trkpt>
      <trkpt lat="48.01234" lon="6.98202">
        <ele>1197.4000244141</ele>
        <time>2017-07-21T08:38:18Z</time>
      </trkpt>
      <trkpt lat="48.01227" lon="6.98182">
        <ele>1198</ele>
        <time>2017-07-21T08:38:22Z</time>
      </trkpt>
      <trkpt lat="48.01221" lon="6.98166">
        <ele>1198.5999755859</ele>
        <time>2017-07-21T08:38:25Z</time>
      </trkpt>
      <trkpt lat="48.01205" lon="6.98137">
        <ele>1199</ele>
        <time>2017-07-21T08:38:31Z</time>
      </trkpt>
      <trkpt lat="48.01203" lon="6.98132">
        <ele>1199.1999511719</ele>
        <time>2017-07-21T08:38:32Z</time>
      </trkpt>
      <trkpt lat="48.01193" lon="6.98111">
        <ele>1199.8000488281</ele>
        <time>2017-07-21T08:38:36Z</time>
      </trkpt>
      <trkpt lat="48.01188" lon="6.981">
        <ele>1200</ele>
        <time>2017-07-21T08:38:38Z</time>
      </trkpt>
      <trkpt lat="48.01186" lon="6.98094">
        <ele>1200.1999511719</ele>
        <time>2017-07-21T08:38:39Z</time>
      </trkpt>
      <trkpt lat="48.01177" lon="6.98061">
        <ele>1201.1999511719</ele>
        <time>2017-07-21T08:38:45Z</time>
      </trkpt>
      <trkpt lat="48.01171" lon="6.98051">
        <ele>1201.4000244141</ele>
        <time>2017-07-21T08:38:47Z</time>
      </trkpt>
      <trkpt lat="48.01162" lon="6.9803">
        <ele>1202</ele>
        <time>2017-07-21T08:38:51Z</time>
      </trkpt>
      <trkpt lat="48.0116" lon="6.98025">
        <ele>1202.1999511719</ele>
        <time>2017-07-21T08:38:52Z</time>
      </trkpt>
      <trkpt lat="48.01159" lon="6.98019">
        <ele>1202.4000244141</ele>
        <time>2017-07-21T08:38:53Z</time>
      </trkpt>
      <trkpt lat="48.01157" lon="6.98013">
        <ele>1202.4000244141</ele>
        <time>2017-07-21T08:38:54Z</time>
      </trkpt>
      <trkpt lat="48.01146" lon="6.97982">
        <ele>1203.1999511719</ele>
        <time>2017-07-21T08:39:00Z</time>
      </trkpt>
      <trkpt lat="48.01127" lon="6.9795">
        <ele>1204</ele>
        <time>2017-07-21T08:39:07Z</time>
      </trkpt>
      <trkpt lat="48.01121" lon="6.97942">
        <ele>1204.1999511719</ele>
        <time>2017-07-21T08:39:09Z</time>
      </trkpt>
      <trkpt lat="48.01117" lon="6.97939">
        <ele>1204.4000244141</ele>
        <time>2017-07-21T08:39:10Z</time>
      </trkpt>
      <trkpt lat="48.01106" lon="6.97931">
        <ele>1204.5999755859</ele>
        <time>2017-07-21T08:39:13Z</time>
      </trkpt>
      <trkpt lat="48.01082" lon="6.97909">
        <ele>1205.4000244141</ele>
        <time>2017-07-21T08:39:20Z</time>
      </trkpt>
      <trkpt lat="48.01079" lon="6.97904">
        <ele>1205.8000488281</ele>
        <time>2017-07-21T08:39:21Z</time>
      </trkpt>
      <trkpt lat="48.01074" lon="6.97881">
        <ele>1206.1999511719</ele>
        <time>2017-07-21T08:39:26Z</time>
      </trkpt>
      <trkpt lat="48.01073" lon="6.97875">
        <ele>1206.1999511719</ele>
        <time>2017-07-21T08:39:27Z</time>
      </trkpt>
      <trkpt lat="48.01071" lon="6.97862">
        <ele>1206.5999755859</ele>
        <time>2017-07-21T08:39:29Z</time>
      </trkpt>
      <trkpt lat="48.0107" lon="6.97856">
        <ele>1206.8000488281</ele>
        <time>2017-07-21T08:39:30Z</time>
      </trkpt>
      <trkpt lat="48.01063" lon="6.97838">
        <ele>1207.1999511719</ele>
        <time>2017-07-21T08:39:33Z</time>
      </trkpt>
      <trkpt lat="48.01046" lon="6.97797">
        <ele>1207.5999755859</ele>
        <time>2017-07-21T08:39:40Z</time>
      </trkpt>
      <trkpt lat="48.01026" lon="6.97759">
        <ele>1208.5999755859</ele>
        <time>2017-07-21T08:39:47Z</time>
      </trkpt>
      <trkpt lat="48.01008" lon="6.9772">
        <ele>1209.5999755859</ele>
        <time>2017-07-21T08:39:54Z</time>
      </trkpt>
      <trkpt lat="48.01006" lon="6.97714">
        <ele>1209.8000488281</ele>
        <time>2017-07-21T08:39:55Z</time>
      </trkpt>
      <trkpt lat="48.0099" lon="6.97671">
        <ele>1210.5999755859</ele>
        <time>2017-07-21T08:40:02Z</time>
      </trkpt>
      <trkpt lat="48.00985" lon="6.97658">
        <ele>1210.8000488281</ele>
        <time>2017-07-21T08:40:04Z</time>
      </trkpt>
      <trkpt lat="48.00973" lon="6.97615">
        <ele>1210.8000488281</ele>
        <time>2017-07-21T08:40:10Z</time>
      </trkpt>
      <trkpt lat="48.00966" lon="6.97586">
        <ele>1210.8000488281</ele>
        <time>2017-07-21T08:40:14Z</time>
      </trkpt>
      <trkpt lat="48.00967" lon="6.97561">
        <ele>1210.5999755859</ele>
        <time>2017-07-21T08:40:17Z</time>
      </trkpt>
      <trkpt lat="48.00969" lon="6.97554">
        <ele>1210.4000244141</ele>
        <time>2017-07-21T08:40:18Z</time>
      </trkpt>
      <trkpt lat="48.00974" lon="6.97538">
        <ele>1210.4000244141</ele>
        <time>2017-07-21T08:40:20Z</time>
      </trkpt>
      <trkpt lat="48.00979" lon="6.97524">
        <ele>1210.4000244141</ele>
        <time>2017-07-21T08:40:22Z</time>
      </trkpt>
      <trkpt lat="48.00984" lon="6.97509">
        <ele>1210.4000244141</ele>
        <time>2017-07-21T08:40:24Z</time>
      </trkpt>
      <trkpt lat="48.00999" lon="6.97481">
        <ele>1210.5999755859</ele>
        <time>2017-07-21T08:40:28Z</time>
      </trkpt>
      <trkpt lat="48.01012" lon="6.97446">
        <ele>1210.5999755859</ele>
        <time>2017-07-21T08:40:33Z</time>
      </trkpt>
      <trkpt lat="48.01014" lon="6.97439">
        <ele>1210.5999755859</ele>
        <time>2017-07-21T08:40:34Z</time>
      </trkpt>
      <trkpt lat="48.0101" lon="6.97404">
        <ele>1210.5999755859</ele>
        <time>2017-07-21T08:40:38Z</time>
      </trkpt>
      <trkpt lat="48.00994" lon="6.97387">
        <ele>1210.4000244141</ele>
        <time>2017-07-21T08:40:41Z</time>
      </trkpt>
      <trkpt lat="48.00967" lon="6.97382">
        <ele>1209.5999755859</ele>
        <time>2017-07-21T08:40:45Z</time>
      </trkpt>
      <trkpt lat="48.00945" lon="6.97383">
        <ele>1209</ele>
        <time>2017-07-21T08:40:48Z</time>
      </trkpt>
      <trkpt lat="48.00931" lon="6.97386">
        <ele>1208.8000488281</ele>
        <time>2017-07-21T08:40:50Z</time>
      </trkpt>
      <trkpt lat="48.00923" lon="6.97388">
        <ele>1208.5999755859</ele>
        <time>2017-07-21T08:40:51Z</time>
      </trkpt>
      <trkpt lat="48.00894" lon="6.974">
        <ele>1207.8000488281</ele>
        <time>2017-07-21T08:40:55Z</time>
      </trkpt>
      <trkpt lat="48.00881" lon="6.97407">
        <ele>1207.4000244141</ele>
        <time>2017-07-21T08:40:57Z</time>
      </trkpt>
      <trkpt lat="48.00856" lon="6.97427">
        <ele>1206.4000244141</ele>
        <time>2017-07-21T08:41:01Z</time>
      </trkpt>
      <trkpt lat="48.0085" lon="6.97433">
        <ele>1206.1999511719</ele>
        <time>2017-07-21T08:41:02Z</time>
      </trkpt>
      <trkpt lat="48.00836" lon="6.97454">
        <ele>1205.4000244141</ele>
        <time>2017-07-21T08:41:05Z</time>
      </trkpt>
      <trkpt lat="48.0083" lon="6.97461">
        <ele>1205.1999511719</ele>
        <time>2017-07-21T08:41:06Z</time>
      </trkpt>
      <trkpt lat="48.00809" lon="6.97493">
        <ele>1204.1999511719</ele>
        <time>2017-07-21T08:41:10Z</time>
      </trkpt>
      <trkpt lat="48.00804" lon="6.97501">
        <ele>1204</ele>
        <time>2017-07-21T08:41:11Z</time>
      </trkpt>
      <trkpt lat="48.00776" lon="6.97544">
        <ele>1202.8000488281</ele>
        <time>2017-07-21T08:41:16Z</time>
      </trkpt>
      <trkpt lat="48.00764" lon="6.9756">
        <ele>1202.4000244141</ele>
        <time>2017-07-21T08:41:18Z</time>
      </trkpt>
      <trkpt lat="48.00743" lon="6.97593">
        <ele>1201.4000244141</ele>
        <time>2017-07-21T08:41:22Z</time>
      </trkpt>
      <trkpt lat="48.00729" lon="6.9762">
        <ele>1200.5999755859</ele>
        <time>2017-07-21T08:41:25Z</time>
      </trkpt>
      <trkpt lat="48.0072" lon="6.97639">
        <ele>1200.1999511719</ele>
        <time>2017-07-21T08:41:27Z</time>
      </trkpt>
      <trkpt lat="48.00705" lon="6.97676">
        <ele>1199.1999511719</ele>
        <time>2017-07-21T08:41:31Z</time>
      </trkpt>
      <trkpt lat="48.00702" lon="6.97686">
        <ele>1199</ele>
        <time>2017-07-21T08:41:32Z</time>
      </trkpt>
      <trkpt lat="48.00681" lon="6.97744">
        <ele>1197.8000488281</ele>
        <time>2017-07-21T08:41:38Z</time>
      </trkpt>
      <trkpt lat="48.0066" lon="6.97797">
        <ele>1196.5999755859</ele>
        <time>2017-07-21T08:41:44Z</time>
      </trkpt>
      <trkpt lat="48.00646" lon="6.97821">
        <ele>1195.5999755859</ele>
        <time>2017-07-21T08:41:47Z</time>
      </trkpt>
      <trkpt lat="48.0064" lon="6.97828">
        <ele>1195.4000244141</ele>
        <time>2017-07-21T08:41:48Z</time>
      </trkpt>
      <trkpt lat="48.0063" lon="6.97843">
        <ele>1195.1999511719</ele>
        <time>2017-07-21T08:41:50Z</time>
      </trkpt>
      <trkpt lat="48.00611" lon="6.97862">
        <ele>1194.4000244141</ele>
        <time>2017-07-21T08:41:53Z</time>
      </trkpt>
      <trkpt lat="48.00597" lon="6.97871">
        <ele>1194</ele>
        <time>2017-07-21T08:41:55Z</time>
      </trkpt>
      <trkpt lat="48.00574" lon="6.97876">
        <ele>1193.1999511719</ele>
        <time>2017-07-21T08:41:58Z</time>
      </trkpt>
      <trkpt lat="48.00567" lon="6.97877">
        <ele>1193</ele>
        <time>2017-07-21T08:41:59Z</time>
      </trkpt>
      <trkpt lat="48.00552" lon="6.97875">
        <ele>1192.5999755859</ele>
        <time>2017-07-21T08:42:01Z</time>
      </trkpt>
      <trkpt lat="48.00539" lon="6.97872">
        <ele>1192.4000244141</ele>
        <time>2017-07-21T08:42:03Z</time>
      </trkpt>
      <trkpt lat="48.00527" lon="6.97868">
        <ele>1192.1999511719</ele>
        <time>2017-07-21T08:42:05Z</time>
      </trkpt>
      <trkpt lat="48.00512" lon="6.97862">
        <ele>1192.4000244141</ele>
        <time>2017-07-21T08:42:08Z</time>
      </trkpt>
      <trkpt lat="48.005" lon="6.97856">
        <ele>1193.4000244141</ele>
        <time>2017-07-21T08:42:11Z</time>
      </trkpt>
      <trkpt lat="48.00489" lon="6.97849">
        <ele>1194</ele>
        <time>2017-07-21T08:42:14Z</time>
      </trkpt>
      <trkpt lat="48.00484" lon="6.97844">
        <ele>1194.4000244141</ele>
        <time>2017-07-21T08:42:16Z</time>
      </trkpt>
      <trkpt lat="48.00473" lon="6.97834">
        <ele>1195.1999511719</ele>
        <time>2017-07-21T08:42:20Z</time>
      </trkpt>
      <trkpt lat="48.00467" lon="6.9783">
        <ele>1195.5999755859</ele>
        <time>2017-07-21T08:42:22Z</time>
      </trkpt>
      <trkpt lat="48.00455" lon="6.9782">
        <ele>1196.5999755859</ele>
        <time>2017-07-21T08:42:27Z</time>
      </trkpt>
      <trkpt lat="48.00452" lon="6.97818">
        <ele>1196.5999755859</ele>
        <time>2017-07-21T08:42:28Z</time>
      </trkpt>
      <trkpt lat="48.00439" lon="6.97806">
        <ele>1198</ele>
        <time>2017-07-21T08:42:34Z</time>
      </trkpt>
      <trkpt lat="48.00422" lon="6.97791">
        <ele>1199</ele>
        <time>2017-07-21T08:42:42Z</time>
      </trkpt>
      <trkpt lat="48.00419" lon="6.97789">
        <ele>1199.1999511719</ele>
        <time>2017-07-21T08:42:43Z</time>
      </trkpt>
      <trkpt lat="48.00407" lon="6.9778">
        <ele>1200.1999511719</ele>
        <time>2017-07-21T08:42:49Z</time>
      </trkpt>
      <trkpt lat="48.00405" lon="6.97778">
        <ele>1200.4000244141</ele>
        <time>2017-07-21T08:42:50Z</time>
      </trkpt>
      <trkpt lat="48.00397" lon="6.97771">
        <ele>1201.4000244141</ele>
        <time>2017-07-21T08:42:54Z</time>
      </trkpt>
      <trkpt lat="48.00388" lon="6.97762">
        <ele>1202.4000244141</ele>
        <time>2017-07-21T08:42:59Z</time>
      </trkpt>
      <trkpt lat="48.00386" lon="6.9776">
        <ele>1202.4000244141</ele>
        <time>2017-07-21T08:43:00Z</time>
      </trkpt>
      <trkpt lat="48.00378" lon="6.97754">
        <ele>1203</ele>
        <time>2017-07-21T08:43:04Z</time>
      </trkpt>
      <trkpt lat="48.00374" lon="6.97747">
        <ele>1203.4000244141</ele>
        <time>2017-07-21T08:43:07Z</time>
      </trkpt>
      <trkpt lat="48.00367" lon="6.97739">
        <ele>1204</ele>
        <time>2017-07-21T08:43:11Z</time>
      </trkpt>
      <trkpt lat="48.00361" lon="6.97731">
        <ele>1204.5999755859</ele>
        <time>2017-07-21T08:43:15Z</time>
      </trkpt>
      <trkpt lat="48.00354" lon="6.97723">
        <ele>1205.1999511719</ele>
        <time>2017-07-21T08:43:19Z</time>
      </trkpt>
      <trkpt lat="48.00349" lon="6.97716">
        <ele>1205.5999755859</ele>
        <time>2017-07-21T08:43:22Z</time>
      </trkpt>
      <trkpt lat="48.0034" lon="6.97706">
        <ele>1206.4000244141</ele>
        <time>2017-07-21T08:43:27Z</time>
      </trkpt>
      <trkpt lat="48.00337" lon="6.97702">
        <ele>1206.8000488281</ele>
        <time>2017-07-21T08:43:29Z</time>
      </trkpt>
      <trkpt lat="48.00324" lon="6.9769">
        <ele>1207.8000488281</ele>
        <time>2017-07-21T08:43:36Z</time>
      </trkpt>
      <trkpt lat="48.00311" lon="6.97678">
        <ele>1208.8000488281</ele>
        <time>2017-07-21T08:43:43Z</time>
      </trkpt>
      <trkpt lat="48.003" lon="6.97669">
        <ele>1209.8000488281</ele>
        <time>2017-07-21T08:43:49Z</time>
      </trkpt>
      <trkpt lat="48.00294" lon="6.97665">
        <ele>1210.4000244141</ele>
        <time>2017-07-21T08:43:52Z</time>
      </trkpt>
      <trkpt lat="48.00287" lon="6.97661">
        <ele>1210.8000488281</ele>
        <time>2017-07-21T08:43:55Z</time>
      </trkpt>
      <trkpt lat="48.00279" lon="6.97657">
        <ele>1211.4000244141</ele>
        <time>2017-07-21T08:43:59Z</time>
      </trkpt>
      <trkpt lat="48.00273" lon="6.97655">
        <ele>1211.8000488281</ele>
        <time>2017-07-21T08:44:02Z</time>
      </trkpt>
      <trkpt lat="48.00259" lon="6.97652">
        <ele>1212.5999755859</ele>
        <time>2017-07-21T08:44:08Z</time>
      </trkpt>
      <trkpt lat="48.00255" lon="6.97651">
        <ele>1213.1999511719</ele>
        <time>2017-07-21T08:44:10Z</time>
      </trkpt>
      <trkpt lat="48.00243" lon="6.97649">
        <ele>1214</ele>
        <time>2017-07-21T08:44:15Z</time>
      </trkpt>
      <trkpt lat="48.00241" lon="6.97649">
        <ele>1214.1999511719</ele>
        <time>2017-07-21T08:44:16Z</time>
      </trkpt>
      <trkpt lat="48.00227" lon="6.97646">
        <ele>1215.1999511719</ele>
        <time>2017-07-21T08:44:22Z</time>
      </trkpt>
      <trkpt lat="48.00225" lon="6.97646">
        <ele>1215.1999511719</ele>
        <time>2017-07-21T08:44:23Z</time>
      </trkpt>
      <trkpt lat="48.00209" lon="6.97642">
        <ele>1216.4000244141</ele>
        <time>2017-07-21T08:44:30Z</time>
      </trkpt>
      <trkpt lat="48.00196" lon="6.9764">
        <ele>1217.1999511719</ele>
        <time>2017-07-21T08:44:36Z</time>
      </trkpt>
      <trkpt lat="48.00194" lon="6.9764">
        <ele>1217.4000244141</ele>
        <time>2017-07-21T08:44:37Z</time>
      </trkpt>
      <trkpt lat="48.00183" lon="6.97637">
        <ele>1218.1999511719</ele>
        <time>2017-07-21T08:44:42Z</time>
      </trkpt>
      <trkpt lat="48.00179" lon="6.97637">
        <ele>1218.4000244141</ele>
        <time>2017-07-21T08:44:44Z</time>
      </trkpt>
      <trkpt lat="48.00172" lon="6.97635">
        <ele>1218.8000488281</ele>
        <time>2017-07-21T08:44:47Z</time>
      </trkpt>
      <trkpt lat="48.00162" lon="6.97631">
        <ele>1219.4000244141</ele>
        <time>2017-07-21T08:44:51Z</time>
      </trkpt>
      <trkpt lat="48.00152" lon="6.97628">
        <ele>1220</ele>
        <time>2017-07-21T08:44:55Z</time>
      </trkpt>
      <trkpt lat="48.00145" lon="6.97628">
        <ele>1220.5999755859</ele>
        <time>2017-07-21T08:44:58Z</time>
      </trkpt>
      <trkpt lat="48.00137" lon="6.97627">
        <ele>1221.4000244141</ele>
        <time>2017-07-21T08:45:02Z</time>
      </trkpt>
      <trkpt lat="48.00134" lon="6.97627">
        <ele>1221.5999755859</ele>
        <time>2017-07-21T08:45:03Z</time>
      </trkpt>
      <trkpt lat="48.00118" lon="6.97625">
        <ele>1222.5999755859</ele>
        <time>2017-07-21T08:45:10Z</time>
      </trkpt>
      <trkpt lat="48.00116" lon="6.97624">
        <ele>1222.8000488281</ele>
        <time>2017-07-21T08:45:11Z</time>
      </trkpt>
      <trkpt lat="48.00102" lon="6.97625">
        <ele>1223.5999755859</ele>
        <time>2017-07-21T08:45:17Z</time>
      </trkpt>
      <trkpt lat="48.001" lon="6.97626">
        <ele>1223.8000488281</ele>
        <time>2017-07-21T08:45:18Z</time>
      </trkpt>
      <trkpt lat="48.0008" lon="6.97622">
        <ele>1224.5999755859</ele>
        <time>2017-07-21T08:45:25Z</time>
      </trkpt>
      <trkpt lat="48.00062" lon="6.97617">
        <ele>1224.8000488281</ele>
        <time>2017-07-21T08:45:30Z</time>
      </trkpt>
      <trkpt lat="48.0005" lon="6.97611">
        <ele>1225</ele>
        <time>2017-07-21T08:45:33Z</time>
      </trkpt>
      <trkpt lat="48.0002" lon="6.9759">
        <ele>1225.4000244141</ele>
        <time>2017-07-21T08:45:42Z</time>
      </trkpt>
      <trkpt lat="48.00011" lon="6.97584">
        <ele>1225.8000488281</ele>
        <time>2017-07-21T08:45:45Z</time>
      </trkpt>
      <trkpt lat="47.99999" lon="6.97575">
        <ele>1226.8000488281</ele>
        <time>2017-07-21T08:45:49Z</time>
      </trkpt>
      <trkpt lat="47.99995" lon="6.97574">
        <ele>1227</ele>
        <time>2017-07-21T08:45:50Z</time>
      </trkpt>
      <trkpt lat="47.99975" lon="6.97565">
        <ele>1227.5999755859</ele>
        <time>2017-07-21T08:45:56Z</time>
      </trkpt>
      <trkpt lat="47.99965" lon="6.97565">
        <ele>1228</ele>
        <time>2017-07-21T08:45:59Z</time>
      </trkpt>
      <trkpt lat="47.99961" lon="6.97565">
        <ele>1228.1999511719</ele>
        <time>2017-07-21T08:46:00Z</time>
      </trkpt>
      <trkpt lat="47.99955" lon="6.97564">
        <ele>1228.5999755859</ele>
        <time>2017-07-21T08:46:02Z</time>
      </trkpt>
      <trkpt lat="47.99946" lon="6.97564">
        <ele>1229</ele>
        <time>2017-07-21T08:46:05Z</time>
      </trkpt>
      <trkpt lat="47.99933" lon="6.97567">
        <ele>1229.4000244141</ele>
        <time>2017-07-21T08:46:09Z</time>
      </trkpt>
      <trkpt lat="47.99921" lon="6.97569">
        <ele>1230</ele>
        <time>2017-07-21T08:46:13Z</time>
      </trkpt>
      <trkpt lat="47.99909" lon="6.97571">
        <ele>1230.4000244141</ele>
        <time>2017-07-21T08:46:17Z</time>
      </trkpt>
      <trkpt lat="47.99897" lon="6.97574">
        <ele>1231.1999511719</ele>
        <time>2017-07-21T08:46:21Z</time>
      </trkpt>
      <trkpt lat="47.99886" lon="6.97577">
        <ele>1231.5999755859</ele>
        <time>2017-07-21T08:46:25Z</time>
      </trkpt>
      <trkpt lat="47.99873" lon="6.97583">
        <ele>1232.1999511719</ele>
        <time>2017-07-21T08:46:29Z</time>
      </trkpt>
      <trkpt lat="47.99868" lon="6.97588">
        <ele>1232.5999755859</ele>
        <time>2017-07-21T08:46:31Z</time>
      </trkpt>
      <trkpt lat="47.99855" lon="6.97602">
        <ele>1233.4000244141</ele>
        <time>2017-07-21T08:46:36Z</time>
      </trkpt>
      <trkpt lat="47.99853" lon="6.97605">
        <ele>1233.4000244141</ele>
        <time>2017-07-21T08:46:37Z</time>
      </trkpt>
      <trkpt lat="47.99844" lon="6.97625">
        <ele>1234.1999511719</ele>
        <time>2017-07-21T08:46:42Z</time>
      </trkpt>
      <trkpt lat="47.99839" lon="6.97637">
        <ele>1234.4000244141</ele>
        <time>2017-07-21T08:46:45Z</time>
      </trkpt>
      <trkpt lat="47.99832" lon="6.97657">
        <ele>1235</ele>
        <time>2017-07-21T08:46:50Z</time>
      </trkpt>
      <trkpt lat="47.99826" lon="6.97666">
        <ele>1235.4000244141</ele>
        <time>2017-07-21T08:46:54Z</time>
      </trkpt>
      <trkpt lat="47.99825" lon="6.9767">
        <ele>1236.4000244141</ele>
        <time>2017-07-21T08:47:04Z</time>
      </trkpt>
      <trkpt lat="47.99825" lon="6.97672">
        <ele>1237.4000244141</ele>
        <time>2017-07-21T08:47:05Z</time>
      </trkpt>
      <trkpt lat="47.99825" lon="6.97675">
        <ele>1237.8000488281</ele>
        <time>2017-07-21T08:47:06Z</time>
      </trkpt>
      <trkpt lat="47.99821" lon="6.97683">
        <ele>1236</ele>
        <time>2017-07-21T08:47:09Z</time>
      </trkpt>
      <trkpt lat="47.99819" lon="6.97689">
        <ele>1235.5999755859</ele>
        <time>2017-07-21T08:47:11Z</time>
      </trkpt>
      <trkpt lat="47.99808" lon="6.97707">
        <ele>1235.5999755859</ele>
        <time>2017-07-21T08:47:17Z</time>
      </trkpt>
      <trkpt lat="47.99795" lon="6.97728">
        <ele>1236</ele>
        <time>2017-07-21T08:47:23Z</time>
      </trkpt>
      <trkpt lat="47.99786" lon="6.97743">
        <ele>1236.1999511719</ele>
        <time>2017-07-21T08:47:28Z</time>
      </trkpt>
      <trkpt lat="47.99785" lon="6.97747">
        <ele>1235.8000488281</ele>
        <time>2017-07-21T08:48:26Z</time>
      </trkpt>
      <trkpt lat="47.99784" lon="6.97749">
        <ele>1235.8000488281</ele>
        <time>2017-07-21T08:48:27Z</time>
      </trkpt>
      <trkpt lat="47.99775" lon="6.97761">
        <ele>1235.5999755859</ele>
        <time>2017-07-21T08:48:31Z</time>
      </trkpt>
      <trkpt lat="47.99761" lon="6.97771">
        <ele>1235.5999755859</ele>
        <time>2017-07-21T08:48:35Z</time>
      </trkpt>
      <trkpt lat="47.99758" lon="6.97774">
        <ele>1235.5999755859</ele>
        <time>2017-07-21T08:48:36Z</time>
      </trkpt>
      <trkpt lat="47.99746" lon="6.9778">
        <ele>1235.5999755859</ele>
        <time>2017-07-21T08:48:39Z</time>
      </trkpt>
      <trkpt lat="47.99733" lon="6.97782">
        <ele>1235.8000488281</ele>
        <time>2017-07-21T08:48:42Z</time>
      </trkpt>
      <trkpt lat="47.99705" lon="6.97789">
        <ele>1235.8000488281</ele>
        <time>2017-07-21T08:48:48Z</time>
      </trkpt>
      <trkpt lat="47.99678" lon="6.97789">
        <ele>1235.5999755859</ele>
        <time>2017-07-21T08:48:54Z</time>
      </trkpt>
      <trkpt lat="47.99648" lon="6.97788">
        <ele>1235.8000488281</ele>
        <time>2017-07-21T08:49:00Z</time>
      </trkpt>
      <trkpt lat="47.99612" lon="6.97792">
        <ele>1235.4000244141</ele>
        <time>2017-07-21T08:49:07Z</time>
      </trkpt>
      <trkpt lat="47.99565" lon="6.97788">
        <ele>1235.1999511719</ele>
        <time>2017-07-21T08:49:16Z</time>
      </trkpt>
      <trkpt lat="47.99517" lon="6.97784">
        <ele>1235.5999755859</ele>
        <time>2017-07-21T08:49:26Z</time>
      </trkpt>
      <trkpt lat="47.9948" lon="6.97782">
        <ele>1235.8000488281</ele>
        <time>2017-07-21T08:49:33Z</time>
      </trkpt>
      <trkpt lat="47.99437" lon="6.97788">
        <ele>1235.1999511719</ele>
        <time>2017-07-21T08:49:40Z</time>
      </trkpt>
      <trkpt lat="47.99422" lon="6.97789">
        <ele>1234.8000488281</ele>
        <time>2017-07-21T08:49:42Z</time>
      </trkpt>
      <trkpt lat="47.99398" lon="6.97791">
        <ele>1233.8000488281</ele>
        <time>2017-07-21T08:49:45Z</time>
      </trkpt>
      <trkpt lat="47.9939" lon="6.97792">
        <ele>1233.5999755859</ele>
        <time>2017-07-21T08:49:46Z</time>
      </trkpt>
      <trkpt lat="47.99365" lon="6.97797">
        <ele>1232.1999511719</ele>
        <time>2017-07-21T08:49:49Z</time>
      </trkpt>
      <trkpt lat="47.9935" lon="6.97802">
        <ele>1231.5999755859</ele>
        <time>2017-07-21T08:49:51Z</time>
      </trkpt>
      <trkpt lat="47.99328" lon="6.97809">
        <ele>1231</ele>
        <time>2017-07-21T08:49:54Z</time>
      </trkpt>
      <trkpt lat="47.99293" lon="6.97821">
        <ele>1230.5999755859</ele>
        <time>2017-07-21T08:49:59Z</time>
      </trkpt>
      <trkpt lat="47.9925" lon="6.97834">
        <ele>1230.8000488281</ele>
        <time>2017-07-21T08:50:06Z</time>
      </trkpt>
      <trkpt lat="47.99206" lon="6.97857">
        <ele>1230.4000244141</ele>
        <time>2017-07-21T08:50:13Z</time>
      </trkpt>
      <trkpt lat="47.9918" lon="6.9787">
        <ele>1230</ele>
        <time>2017-07-21T08:50:17Z</time>
      </trkpt>
      <trkpt lat="47.99167" lon="6.97876">
        <ele>1229.8000488281</ele>
        <time>2017-07-21T08:50:19Z</time>
      </trkpt>
      <trkpt lat="47.99127" lon="6.979">
        <ele>1229.1999511719</ele>
        <time>2017-07-21T08:50:25Z</time>
      </trkpt>
      <trkpt lat="47.99084" lon="6.9792">
        <ele>1229.4000244141</ele>
        <time>2017-07-21T08:50:32Z</time>
      </trkpt>
      <trkpt lat="47.99049" lon="6.9793">
        <ele>1229</ele>
        <time>2017-07-21T08:50:37Z</time>
      </trkpt>
      <trkpt lat="47.99033" lon="6.97932">
        <ele>1228.4000244141</ele>
        <time>2017-07-21T08:50:39Z</time>
      </trkpt>
      <trkpt lat="47.99015" lon="6.97931">
        <ele>1227.5999755859</ele>
        <time>2017-07-21T08:50:41Z</time>
      </trkpt>
      <trkpt lat="47.98997" lon="6.97928">
        <ele>1226.8000488281</ele>
        <time>2017-07-21T08:50:43Z</time>
      </trkpt>
      <trkpt lat="47.98987" lon="6.97925">
        <ele>1226.1999511719</ele>
        <time>2017-07-21T08:50:44Z</time>
      </trkpt>
      <trkpt lat="47.98968" lon="6.9792">
        <ele>1225.1999511719</ele>
        <time>2017-07-21T08:50:46Z</time>
      </trkpt>
      <trkpt lat="47.98948" lon="6.97915">
        <ele>1224</ele>
        <time>2017-07-21T08:50:48Z</time>
      </trkpt>
      <trkpt lat="47.98938" lon="6.97913">
        <ele>1223.4000244141</ele>
        <time>2017-07-21T08:50:49Z</time>
      </trkpt>
      <trkpt lat="47.98928" lon="6.97912">
        <ele>1222.8000488281</ele>
        <time>2017-07-21T08:50:50Z</time>
      </trkpt>
      <trkpt lat="47.98909" lon="6.97909">
        <ele>1221.5999755859</ele>
        <time>2017-07-21T08:50:52Z</time>
      </trkpt>
      <trkpt lat="47.98883" lon="6.97903">
        <ele>1220.8000488281</ele>
        <time>2017-07-21T08:50:55Z</time>
      </trkpt>
      <trkpt lat="47.98876" lon="6.97898">
        <ele>1220.5999755859</ele>
        <time>2017-07-21T08:50:56Z</time>
      </trkpt>
      <trkpt lat="47.98869" lon="6.97892">
        <ele>1220.5999755859</ele>
        <time>2017-07-21T08:50:57Z</time>
      </trkpt>
      <trkpt lat="47.98863" lon="6.97887">
        <ele>1220.5999755859</ele>
        <time>2017-07-21T08:50:58Z</time>
      </trkpt>
      <trkpt lat="47.98857" lon="6.97883">
        <ele>1220.8000488281</ele>
        <time>2017-07-21T08:50:59Z</time>
      </trkpt>
      <trkpt lat="47.98837" lon="6.97878">
        <ele>1221.1999511719</ele>
        <time>2017-07-21T08:51:02Z</time>
      </trkpt>
      <trkpt lat="47.9883" lon="6.97877">
        <ele>1221.4000244141</ele>
        <time>2017-07-21T08:51:03Z</time>
      </trkpt>
      <trkpt lat="47.98811" lon="6.97878">
        <ele>1221.5999755859</ele>
        <time>2017-07-21T08:51:06Z</time>
      </trkpt>
      <trkpt lat="47.98799" lon="6.97881">
        <ele>1221.8000488281</ele>
        <time>2017-07-21T08:51:08Z</time>
      </trkpt>
      <trkpt lat="47.98764" lon="6.97884">
        <ele>1222.4000244141</ele>
        <time>2017-07-21T08:51:14Z</time>
      </trkpt>
      <trkpt lat="47.98752" lon="6.97886">
        <ele>1222.8000488281</ele>
        <time>2017-07-21T08:51:16Z</time>
      </trkpt>
      <trkpt lat="47.98718" lon="6.97897">
        <ele>1222.8000488281</ele>
        <time>2017-07-21T08:51:22Z</time>
      </trkpt>
      <trkpt lat="47.98686" lon="6.97909">
        <ele>1223.1999511719</ele>
        <time>2017-07-21T08:51:28Z</time>
      </trkpt>
      <trkpt lat="47.98667" lon="6.97916">
        <ele>1223.8000488281</ele>
        <time>2017-07-21T08:51:32Z</time>
      </trkpt>
      <trkpt lat="47.98653" lon="6.9792">
        <ele>1224</ele>
        <time>2017-07-21T08:51:35Z</time>
      </trkpt>
      <trkpt lat="47.98618" lon="6.97933">
        <ele>1224.4000244141</ele>
        <time>2017-07-21T08:51:42Z</time>
      </trkpt>
      <trkpt lat="47.98572" lon="6.97942">
        <ele>1223.5999755859</ele>
        <time>2017-07-21T08:51:50Z</time>
      </trkpt>
      <trkpt lat="47.98532" lon="6.97948">
        <ele>1222.8000488281</ele>
        <time>2017-07-21T08:51:57Z</time>
      </trkpt>
      <trkpt lat="47.98525" lon="6.9795">
        <ele>1222.5999755859</ele>
        <time>2017-07-21T08:51:58Z</time>
      </trkpt>
      <trkpt lat="47.98495" lon="6.97971">
        <ele>1221.8000488281</ele>
        <time>2017-07-21T08:52:03Z</time>
      </trkpt>
      <trkpt lat="47.9849" lon="6.97977">
        <ele>1221.5999755859</ele>
        <time>2017-07-21T08:52:04Z</time>
      </trkpt>
      <trkpt lat="47.98461" lon="6.98008">
        <ele>1220.8000488281</ele>
        <time>2017-07-21T08:52:09Z</time>
      </trkpt>
      <trkpt lat="47.98456" lon="6.98016">
        <ele>1220.5999755859</ele>
        <time>2017-07-21T08:52:10Z</time>
      </trkpt>
      <trkpt lat="47.98438" lon="6.98039">
        <ele>1219.5999755859</ele>
        <time>2017-07-21T08:52:13Z</time>
      </trkpt>
      <trkpt lat="47.98419" lon="6.98061">
        <ele>1218.8000488281</ele>
        <time>2017-07-21T08:52:16Z</time>
      </trkpt>
      <trkpt lat="47.98413" lon="6.98069">
        <ele>1218.5999755859</ele>
        <time>2017-07-21T08:52:17Z</time>
      </trkpt>
      <trkpt lat="47.98382" lon="6.98101">
        <ele>1217.5999755859</ele>
        <time>2017-07-21T08:52:22Z</time>
      </trkpt>
      <trkpt lat="47.98376" lon="6.98107">
        <ele>1217.4000244141</ele>
        <time>2017-07-21T08:52:23Z</time>
      </trkpt>
      <trkpt lat="47.98333" lon="6.98144">
        <ele>1216.8000488281</ele>
        <time>2017-07-21T08:52:30Z</time>
      </trkpt>
      <trkpt lat="47.98294" lon="6.98179">
        <ele>1216.5999755859</ele>
        <time>2017-07-21T08:52:37Z</time>
      </trkpt>
      <trkpt lat="47.98287" lon="6.98185">
        <ele>1216.4000244141</ele>
        <time>2017-07-21T08:52:38Z</time>
      </trkpt>
      <trkpt lat="47.98259" lon="6.98213">
        <ele>1215.4000244141</ele>
        <time>2017-07-21T08:52:42Z</time>
      </trkpt>
      <trkpt lat="47.98251" lon="6.9822">
        <ele>1215</ele>
        <time>2017-07-21T08:52:43Z</time>
      </trkpt>
      <trkpt lat="47.98225" lon="6.98241">
        <ele>1213.5999755859</ele>
        <time>2017-07-21T08:52:46Z</time>
      </trkpt>
      <trkpt lat="47.98215" lon="6.98247">
        <ele>1213</ele>
        <time>2017-07-21T08:52:47Z</time>
      </trkpt>
      <trkpt lat="47.98204" lon="6.9825">
        <ele>1212.4000244141</ele>
        <time>2017-07-21T08:52:48Z</time>
      </trkpt>
      <trkpt lat="47.98183" lon="6.98254">
        <ele>1211</ele>
        <time>2017-07-21T08:52:50Z</time>
      </trkpt>
      <trkpt lat="47.98161" lon="6.98257">
        <ele>1209.5999755859</ele>
        <time>2017-07-21T08:52:52Z</time>
      </trkpt>
      <trkpt lat="47.98137" lon="6.98262">
        <ele>1208.1999511719</ele>
        <time>2017-07-21T08:52:54Z</time>
      </trkpt>
      <trkpt lat="47.98113" lon="6.98268">
        <ele>1206.5999755859</ele>
        <time>2017-07-21T08:52:56Z</time>
      </trkpt>
      <trkpt lat="47.98089" lon="6.98278">
        <ele>1204.8000488281</ele>
        <time>2017-07-21T08:52:58Z</time>
      </trkpt>
      <trkpt lat="47.98078" lon="6.98284">
        <ele>1203</ele>
        <time>2017-07-21T08:52:59Z</time>
      </trkpt>
      <trkpt lat="47.98066" lon="6.98292">
        <ele>1202.1999511719</ele>
        <time>2017-07-21T08:53:00Z</time>
      </trkpt>
      <trkpt lat="47.98056" lon="6.98302">
        <ele>1201.4000244141</ele>
        <time>2017-07-21T08:53:01Z</time>
      </trkpt>
      <trkpt lat="47.98034" lon="6.98322">
        <ele>1199.5999755859</ele>
        <time>2017-07-21T08:53:03Z</time>
      </trkpt>
      <trkpt lat="47.98012" lon="6.98341">
        <ele>1197.5999755859</ele>
        <time>2017-07-21T08:53:05Z</time>
      </trkpt>
      <trkpt lat="47.98" lon="6.9835">
        <ele>1196.5999755859</ele>
        <time>2017-07-21T08:53:06Z</time>
      </trkpt>
      <trkpt lat="47.97989" lon="6.98357">
        <ele>1195.4000244141</ele>
        <time>2017-07-21T08:53:07Z</time>
      </trkpt>
      <trkpt lat="47.97977" lon="6.98364">
        <ele>1194.4000244141</ele>
        <time>2017-07-21T08:53:08Z</time>
      </trkpt>
      <trkpt lat="47.97965" lon="6.98371">
        <ele>1193.1999511719</ele>
        <time>2017-07-21T08:53:09Z</time>
      </trkpt>
      <trkpt lat="47.97954" lon="6.98379">
        <ele>1192.1999511719</ele>
        <time>2017-07-21T08:53:10Z</time>
      </trkpt>
      <trkpt lat="47.97931" lon="6.9839">
        <ele>1190.4000244141</ele>
        <time>2017-07-21T08:53:12Z</time>
      </trkpt>
      <trkpt lat="47.97909" lon="6.98398">
        <ele>1189.1999511719</ele>
        <time>2017-07-21T08:53:14Z</time>
      </trkpt>
      <trkpt lat="47.97898" lon="6.984">
        <ele>1188.5999755859</ele>
        <time>2017-07-21T08:53:15Z</time>
      </trkpt>
      <trkpt lat="47.97876" lon="6.98402">
        <ele>1188</ele>
        <time>2017-07-21T08:53:17Z</time>
      </trkpt>
      <trkpt lat="47.97865" lon="6.98403">
        <ele>1187.8000488281</ele>
        <time>2017-07-21T08:53:18Z</time>
      </trkpt>
      <trkpt lat="47.97815" lon="6.98401">
        <ele>1187</ele>
        <time>2017-07-21T08:53:23Z</time>
      </trkpt>
      <trkpt lat="47.97806" lon="6.984">
        <ele>1187</ele>
        <time>2017-07-21T08:53:24Z</time>
      </trkpt>
      <trkpt lat="47.97761" lon="6.98403">
        <ele>1186.8000488281</ele>
        <time>2017-07-21T08:53:29Z</time>
      </trkpt>
      <trkpt lat="47.97711" lon="6.98413">
        <ele>1186.8000488281</ele>
        <time>2017-07-21T08:53:35Z</time>
      </trkpt>
      <trkpt lat="47.97666" lon="6.98426">
        <ele>1186.8000488281</ele>
        <time>2017-07-21T08:53:41Z</time>
      </trkpt>
      <trkpt lat="47.97618" lon="6.98446">
        <ele>1186.4000244141</ele>
        <time>2017-07-21T08:53:48Z</time>
      </trkpt>
      <trkpt lat="47.97589" lon="6.98471">
        <ele>1186.4000244141</ele>
        <time>2017-07-21T08:53:53Z</time>
      </trkpt>
      <trkpt lat="47.97556" lon="6.98508">
        <ele>1186.1999511719</ele>
        <time>2017-07-21T08:53:59Z</time>
      </trkpt>
      <trkpt lat="47.97542" lon="6.98529">
        <ele>1186</ele>
        <time>2017-07-21T08:54:02Z</time>
      </trkpt>
      <trkpt lat="47.97522" lon="6.98559">
        <ele>1185.8000488281</ele>
        <time>2017-07-21T08:54:06Z</time>
      </trkpt>
      <trkpt lat="47.97492" lon="6.98602">
        <ele>1184.8000488281</ele>
        <time>2017-07-21T08:54:12Z</time>
      </trkpt>
      <trkpt lat="47.97447" lon="6.98657">
        <ele>1184</ele>
        <time>2017-07-21T08:54:20Z</time>
      </trkpt>
      <trkpt lat="47.97435" lon="6.98671">
        <ele>1183.8000488281</ele>
        <time>2017-07-21T08:54:22Z</time>
      </trkpt>
      <trkpt lat="47.97412" lon="6.98696">
        <ele>1183.5999755859</ele>
        <time>2017-07-21T08:54:26Z</time>
      </trkpt>
      <trkpt lat="47.97407" lon="6.98703">
        <ele>1183.4000244141</ele>
        <time>2017-07-21T08:54:27Z</time>
      </trkpt>
      <trkpt lat="47.97372" lon="6.98745">
        <ele>1183</ele>
        <time>2017-07-21T08:54:33Z</time>
      </trkpt>
      <trkpt lat="47.97361" lon="6.98759">
        <ele>1182.8000488281</ele>
        <time>2017-07-21T08:54:35Z</time>
      </trkpt>
      <trkpt lat="47.97334" lon="6.98781">
        <ele>1182.4000244141</ele>
        <time>2017-07-21T08:54:39Z</time>
      </trkpt>
      <trkpt lat="47.9729" lon="6.98802">
        <ele>1181.8000488281</ele>
        <time>2017-07-21T08:54:45Z</time>
      </trkpt>
      <trkpt lat="47.97231" lon="6.98825">
        <ele>1180.8000488281</ele>
        <time>2017-07-21T08:54:53Z</time>
      </trkpt>
      <trkpt lat="47.97224" lon="6.98828">
        <ele>1180.8000488281</ele>
        <time>2017-07-21T08:54:54Z</time>
      </trkpt>
      <trkpt lat="47.97174" lon="6.9885">
        <ele>1179.8000488281</ele>
        <time>2017-07-21T08:55:01Z</time>
      </trkpt>
      <trkpt lat="47.97167" lon="6.98853">
        <ele>1179.5999755859</ele>
        <time>2017-07-21T08:55:02Z</time>
      </trkpt>
      <trkpt lat="47.97132" lon="6.98864">
        <ele>1179.1999511719</ele>
        <time>2017-07-21T08:55:07Z</time>
      </trkpt>
      <trkpt lat="47.97095" lon="6.98867">
        <ele>1178.4000244141</ele>
        <time>2017-07-21T08:55:12Z</time>
      </trkpt>
      <trkpt lat="47.97081" lon="6.98868">
        <ele>1178.1999511719</ele>
        <time>2017-07-21T08:55:14Z</time>
      </trkpt>
      <trkpt lat="47.97073" lon="6.98871">
        <ele>1178</ele>
        <time>2017-07-21T08:55:15Z</time>
      </trkpt>
      <trkpt lat="47.97046" lon="6.98881">
        <ele>1177.5999755859</ele>
        <time>2017-07-21T08:55:19Z</time>
      </trkpt>
      <trkpt lat="47.97039" lon="6.98884">
        <ele>1177.4000244141</ele>
        <time>2017-07-21T08:55:20Z</time>
      </trkpt>
      <trkpt lat="47.97003" lon="6.98905">
        <ele>1176.8000488281</ele>
        <time>2017-07-21T08:55:25Z</time>
      </trkpt>
      <trkpt lat="47.96981" lon="6.98914">
        <ele>1176.4000244141</ele>
        <time>2017-07-21T08:55:28Z</time>
      </trkpt>
      <trkpt lat="47.96959" lon="6.98919">
        <ele>1176</ele>
        <time>2017-07-21T08:55:31Z</time>
      </trkpt>
      <trkpt lat="47.96905" lon="6.98922">
        <ele>1175.4000244141</ele>
        <time>2017-07-21T08:55:38Z</time>
      </trkpt>
      <trkpt lat="47.96867" lon="6.98911">
        <ele>1175</ele>
        <time>2017-07-21T08:55:43Z</time>
      </trkpt>
      <trkpt lat="47.96818" lon="6.98894">
        <ele>1174.4000244141</ele>
        <time>2017-07-21T08:55:50Z</time>
      </trkpt>
      <trkpt lat="47.96767" lon="6.98893">
        <ele>1173.4000244141</ele>
        <time>2017-07-21T08:55:57Z</time>
      </trkpt>
      <trkpt lat="47.96752" lon="6.98892">
        <ele>1173.4000244141</ele>
        <time>2017-07-21T08:55:59Z</time>
      </trkpt>
      <trkpt lat="47.96724" lon="6.98891">
        <ele>1173</ele>
        <time>2017-07-21T08:56:03Z</time>
      </trkpt>
      <trkpt lat="47.96717" lon="6.98891">
        <ele>1173</ele>
        <time>2017-07-21T08:56:04Z</time>
      </trkpt>
      <trkpt lat="47.96668" lon="6.98894">
        <ele>1172.4000244141</ele>
        <time>2017-07-21T08:56:11Z</time>
      </trkpt>
      <trkpt lat="47.96661" lon="6.98895">
        <ele>1172.1999511719</ele>
        <time>2017-07-21T08:56:12Z</time>
      </trkpt>
      <trkpt lat="47.96618" lon="6.98905">
        <ele>1171.8000488281</ele>
        <time>2017-07-21T08:56:18Z</time>
      </trkpt>
      <trkpt lat="47.96605" lon="6.98912">
        <ele>1171.8000488281</ele>
        <time>2017-07-21T08:56:20Z</time>
      </trkpt>
      <trkpt lat="47.96587" lon="6.98928">
        <ele>1171.8000488281</ele>
        <time>2017-07-21T08:56:23Z</time>
      </trkpt>
      <trkpt lat="47.96582" lon="6.98935">
        <ele>1171.8000488281</ele>
        <time>2017-07-21T08:56:24Z</time>
      </trkpt>
      <trkpt lat="47.96579" lon="6.98955">
        <ele>1171.8000488281</ele>
        <time>2017-07-21T08:56:26Z</time>
      </trkpt>
      <trkpt lat="47.96584" lon="6.98995">
        <ele>1171.8000488281</ele>
        <time>2017-07-21T08:56:30Z</time>
      </trkpt>
      <trkpt lat="47.96601" lon="6.99028">
        <ele>1171.5999755859</ele>
        <time>2017-07-21T08:56:34Z</time>
      </trkpt>
      <trkpt lat="47.96613" lon="6.99053">
        <ele>1171.1999511719</ele>
        <time>2017-07-21T08:56:37Z</time>
      </trkpt>
      <trkpt lat="47.96625" lon="6.99078">
        <ele>1171.1999511719</ele>
        <time>2017-07-21T08:56:40Z</time>
      </trkpt>
      <trkpt lat="47.96656" lon="6.99148">
        <ele>1171</ele>
        <time>2017-07-21T08:56:48Z</time>
      </trkpt>
      <trkpt lat="47.96677" lon="6.99223">
        <ele>1170.4000244141</ele>
        <time>2017-07-21T08:56:56Z</time>
      </trkpt>
      <trkpt lat="47.96691" lon="6.99285">
        <ele>1170.4000244141</ele>
        <time>2017-07-21T08:57:03Z</time>
      </trkpt>
      <trkpt lat="47.96693" lon="6.99304">
        <ele>1170.5999755859</ele>
        <time>2017-07-21T08:57:05Z</time>
      </trkpt>
      <trkpt lat="47.96694" lon="6.99332">
        <ele>1170.5999755859</ele>
        <time>2017-07-21T08:57:08Z</time>
      </trkpt>
      <trkpt lat="47.96693" lon="6.99341">
        <ele>1170.5999755859</ele>
        <time>2017-07-21T08:57:09Z</time>
      </trkpt>
      <trkpt lat="47.96688" lon="6.99368">
        <ele>1170.5999755859</ele>
        <time>2017-07-21T08:57:12Z</time>
      </trkpt>
      <trkpt lat="47.96673" lon="6.99393">
        <ele>1170.5999755859</ele>
        <time>2017-07-21T08:57:16Z</time>
      </trkpt>
      <trkpt lat="47.96641" lon="6.99426">
        <ele>1170.5999755859</ele>
        <time>2017-07-21T08:57:22Z</time>
      </trkpt>
      <trkpt lat="47.96605" lon="6.9945">
        <ele>1170.4000244141</ele>
        <time>2017-07-21T08:57:28Z</time>
      </trkpt>
      <trkpt lat="47.96587" lon="6.99463">
        <ele>1170.4000244141</ele>
        <time>2017-07-21T08:57:31Z</time>
      </trkpt>
      <trkpt lat="47.96557" lon="6.9948">
        <ele>1170.5999755859</ele>
        <time>2017-07-21T08:57:36Z</time>
      </trkpt>
      <trkpt lat="47.96507" lon="6.99502">
        <ele>1170.5999755859</ele>
        <time>2017-07-21T08:57:44Z</time>
      </trkpt>
      <trkpt lat="47.96501" lon="6.99503">
        <ele>1170.5999755859</ele>
        <time>2017-07-21T08:57:45Z</time>
      </trkpt>
      <trkpt lat="47.96483" lon="6.99509">
        <ele>1170.8000488281</ele>
        <time>2017-07-21T08:57:48Z</time>
      </trkpt>
      <trkpt lat="47.96445" lon="6.99527">
        <ele>1170.8000488281</ele>
        <time>2017-07-21T08:57:54Z</time>
      </trkpt>
      <trkpt lat="47.96401" lon="6.99546">
        <ele>1171</ele>
        <time>2017-07-21T08:58:01Z</time>
      </trkpt>
      <trkpt lat="47.9636" lon="6.99566">
        <ele>1171.5999755859</ele>
        <time>2017-07-21T08:58:08Z</time>
      </trkpt>
      <trkpt lat="47.96325" lon="6.99587">
        <ele>1172.1999511719</ele>
        <time>2017-07-21T08:58:14Z</time>
      </trkpt>
      <trkpt lat="47.9632" lon="6.9959">
        <ele>1172.4000244141</ele>
        <time>2017-07-21T08:58:15Z</time>
      </trkpt>
      <trkpt lat="47.96281" lon="6.99608">
        <ele>1172.8000488281</ele>
        <time>2017-07-21T08:58:22Z</time>
      </trkpt>
      <trkpt lat="47.96262" lon="6.9962">
        <ele>1173.1999511719</ele>
        <time>2017-07-21T08:58:26Z</time>
      </trkpt>
      <trkpt lat="47.96251" lon="6.99625">
        <ele>1173.5999755859</ele>
        <time>2017-07-21T08:58:28Z</time>
      </trkpt>
      <trkpt lat="47.96218" lon="6.99643">
        <ele>1174.1999511719</ele>
        <time>2017-07-21T08:58:34Z</time>
      </trkpt>
      <trkpt lat="47.96207" lon="6.99649">
        <ele>1174.5999755859</ele>
        <time>2017-07-21T08:58:36Z</time>
      </trkpt>
      <trkpt lat="47.96189" lon="6.99665">
        <ele>1175.1999511719</ele>
        <time>2017-07-21T08:58:40Z</time>
      </trkpt>
      <trkpt lat="47.96177" lon="6.9969">
        <ele>1175.5999755859</ele>
        <time>2017-07-21T08:58:44Z</time>
      </trkpt>
      <trkpt lat="47.96175" lon="6.99697">
        <ele>1175.8000488281</ele>
        <time>2017-07-21T08:58:45Z</time>
      </trkpt>
      <trkpt lat="47.96163" lon="6.99726">
        <ele>1176.4000244141</ele>
        <time>2017-07-21T08:58:49Z</time>
      </trkpt>
      <trkpt lat="47.96157" lon="6.99747">
        <ele>1176.5999755859</ele>
        <time>2017-07-21T08:58:52Z</time>
      </trkpt>
      <trkpt lat="47.96153" lon="6.99763">
        <ele>1176.8000488281</ele>
        <time>2017-07-21T08:58:54Z</time>
      </trkpt>
      <trkpt lat="47.96151" lon="6.99771">
        <ele>1176.8000488281</ele>
        <time>2017-07-21T08:58:55Z</time>
      </trkpt>
      <trkpt lat="47.9614" lon="6.99819">
        <ele>1177.1999511719</ele>
        <time>2017-07-21T08:59:01Z</time>
      </trkpt>
      <trkpt lat="47.9613" lon="6.99868">
        <ele>1177.4000244141</ele>
        <time>2017-07-21T08:59:07Z</time>
      </trkpt>
      <trkpt lat="47.96113" lon="6.99944">
        <ele>1177.5999755859</ele>
        <time>2017-07-21T08:59:16Z</time>
      </trkpt>
      <trkpt lat="47.96112" lon="6.99953">
        <ele>1177.5999755859</ele>
        <time>2017-07-21T08:59:17Z</time>
      </trkpt>
      <trkpt lat="47.96108" lon="6.9998">
        <ele>1177.4000244141</ele>
        <time>2017-07-21T08:59:20Z</time>
      </trkpt>
      <trkpt lat="47.96096" lon="7.00032">
        <ele>1177.4000244141</ele>
        <time>2017-07-21T08:59:26Z</time>
      </trkpt>
      <trkpt lat="47.9608" lon="7.0009">
        <ele>1177.1999511719</ele>
        <time>2017-07-21T08:59:33Z</time>
      </trkpt>
      <trkpt lat="47.96056" lon="7.00134">
        <ele>1177.1999511719</ele>
        <time>2017-07-21T08:59:39Z</time>
      </trkpt>
      <trkpt lat="47.96034" lon="7.00166">
        <ele>1177.1999511719</ele>
        <time>2017-07-21T08:59:44Z</time>
      </trkpt>
      <trkpt lat="47.96025" lon="7.00179">
        <ele>1177.1999511719</ele>
        <time>2017-07-21T08:59:46Z</time>
      </trkpt>
      <trkpt lat="47.95995" lon="7.00218">
        <ele>1177.1999511719</ele>
        <time>2017-07-21T08:59:52Z</time>
      </trkpt>
      <trkpt lat="47.95953" lon="7.00268">
        <ele>1176.8000488281</ele>
        <time>2017-07-21T09:00:00Z</time>
      </trkpt>
      <trkpt lat="47.95912" lon="7.00308">
        <ele>1176.5999755859</ele>
        <time>2017-07-21T09:00:07Z</time>
      </trkpt>
      <trkpt lat="47.95879" lon="7.00325">
        <ele>1176.4000244141</ele>
        <time>2017-07-21T09:00:12Z</time>
      </trkpt>
      <trkpt lat="47.9584" lon="7.00346">
        <ele>1176.4000244141</ele>
        <time>2017-07-21T09:00:18Z</time>
      </trkpt>
      <trkpt lat="47.95789" lon="7.00381">
        <ele>1176</ele>
        <time>2017-07-21T09:00:26Z</time>
      </trkpt>
      <trkpt lat="47.95755" lon="7.00414">
        <ele>1175.8000488281</ele>
        <time>2017-07-21T09:00:32Z</time>
      </trkpt>
      <trkpt lat="47.95716" lon="7.00459">
        <ele>1175.4000244141</ele>
        <time>2017-07-21T09:00:39Z</time>
      </trkpt>
      <trkpt lat="47.95677" lon="7.00497">
        <ele>1174.8000488281</ele>
        <time>2017-07-21T09:00:46Z</time>
      </trkpt>
      <trkpt lat="47.95657" lon="7.00509">
        <ele>1174.8000488281</ele>
        <time>2017-07-21T09:00:49Z</time>
      </trkpt>
      <trkpt lat="47.95636" lon="7.0052">
        <ele>1174.5999755859</ele>
        <time>2017-07-21T09:00:52Z</time>
      </trkpt>
      <trkpt lat="47.95595" lon="7.00534">
        <ele>1174.5999755859</ele>
        <time>2017-07-21T09:00:58Z</time>
      </trkpt>
      <trkpt lat="47.95552" lon="7.00543">
        <ele>1174.5999755859</ele>
        <time>2017-07-21T09:01:04Z</time>
      </trkpt>
      <trkpt lat="47.95532" lon="7.00552">
        <ele>1174.5999755859</ele>
        <time>2017-07-21T09:01:07Z</time>
      </trkpt>
      <trkpt lat="47.95513" lon="7.00565">
        <ele>1174.5999755859</ele>
        <time>2017-07-21T09:01:10Z</time>
      </trkpt>
      <trkpt lat="47.95508" lon="7.00571">
        <ele>1174.5999755859</ele>
        <time>2017-07-21T09:01:11Z</time>
      </trkpt>
      <trkpt lat="47.955" lon="7.00587">
        <ele>1174.5999755859</ele>
        <time>2017-07-21T09:01:13Z</time>
      </trkpt>
      <trkpt lat="47.95488" lon="7.00615">
        <ele>1174.4000244141</ele>
        <time>2017-07-21T09:01:16Z</time>
      </trkpt>
      <trkpt lat="47.95483" lon="7.00635">
        <ele>1174.4000244141</ele>
        <time>2017-07-21T09:01:18Z</time>
      </trkpt>
      <trkpt lat="47.95478" lon="7.00675">
        <ele>1174.1999511719</ele>
        <time>2017-07-21T09:01:22Z</time>
      </trkpt>
      <trkpt lat="47.95477" lon="7.00685">
        <ele>1174</ele>
        <time>2017-07-21T09:01:23Z</time>
      </trkpt>
      <trkpt lat="47.95473" lon="7.00714">
        <ele>1173.5999755859</ele>
        <time>2017-07-21T09:01:26Z</time>
      </trkpt>
      <trkpt lat="47.95466" lon="7.00771">
        <ele>1173.5999755859</ele>
        <time>2017-07-21T09:01:32Z</time>
      </trkpt>
      <trkpt lat="47.95456" lon="7.00838">
        <ele>1173.5999755859</ele>
        <time>2017-07-21T09:01:39Z</time>
      </trkpt>
      <trkpt lat="47.9545" lon="7.00889">
        <ele>1173.4000244141</ele>
        <time>2017-07-21T09:01:44Z</time>
      </trkpt>
      <trkpt lat="47.95446" lon="7.00929">
        <ele>1173.1999511719</ele>
        <time>2017-07-21T09:01:48Z</time>
      </trkpt>
      <trkpt lat="47.95442" lon="7.0101">
        <ele>1172.8000488281</ele>
        <time>2017-07-21T09:01:56Z</time>
      </trkpt>
      <trkpt lat="47.95437" lon="7.0107">
        <ele>1172.5999755859</ele>
        <time>2017-07-21T09:02:02Z</time>
      </trkpt>
      <trkpt lat="47.95435" lon="7.0108">
        <ele>1172.5999755859</ele>
        <time>2017-07-21T09:02:03Z</time>
      </trkpt>
      <trkpt lat="47.95426" lon="7.01149">
        <ele>1172.1999511719</ele>
        <time>2017-07-21T09:02:10Z</time>
      </trkpt>
      <trkpt lat="47.95409" lon="7.01225">
        <ele>1171.8000488281</ele>
        <time>2017-07-21T09:02:18Z</time>
      </trkpt>
      <trkpt lat="47.954" lon="7.01262">
        <ele>1171.5999755859</ele>
        <time>2017-07-21T09:02:22Z</time>
      </trkpt>
      <trkpt lat="47.95389" lon="7.01307">
        <ele>1171.4000244141</ele>
        <time>2017-07-21T09:02:27Z</time>
      </trkpt>
      <trkpt lat="47.95371" lon="7.0138">
        <ele>1171.1999511719</ele>
        <time>2017-07-21T09:02:35Z</time>
      </trkpt>
      <trkpt lat="47.95358" lon="7.0143">
        <ele>1171.1999511719</ele>
        <time>2017-07-21T09:02:41Z</time>
      </trkpt>
      <trkpt lat="47.95351" lon="7.01467">
        <ele>1172.5999755859</ele>
        <time>2017-07-21T09:02:47Z</time>
      </trkpt>
      <trkpt lat="47.9535" lon="7.01472">
        <ele>1172.8000488281</ele>
        <time>2017-07-21T09:02:48Z</time>
      </trkpt>
      <trkpt lat="47.95349" lon="7.01491">
        <ele>1174</ele>
        <time>2017-07-21T09:02:52Z</time>
      </trkpt>
      <trkpt lat="47.95348" lon="7.01504">
        <ele>1174.8000488281</ele>
        <time>2017-07-21T09:02:55Z</time>
      </trkpt>
      <trkpt lat="47.95348" lon="7.01509">
        <ele>1175</ele>
        <time>2017-07-21T09:02:56Z</time>
      </trkpt>
      <trkpt lat="47.95346" lon="7.01525">
        <ele>1176.1999511719</ele>
        <time>2017-07-21T09:03:00Z</time>
      </trkpt>
      <trkpt lat="47.95346" lon="7.01542">
        <ele>1177.1999511719</ele>
        <time>2017-07-21T09:03:04Z</time>
      </trkpt>
      <trkpt lat="47.95346" lon="7.01563">
        <ele>1178.4000244141</ele>
        <time>2017-07-21T09:03:09Z</time>
      </trkpt>
      <trkpt lat="47.95346" lon="7.01567">
        <ele>1178.5999755859</ele>
        <time>2017-07-21T09:03:10Z</time>
      </trkpt>
      <trkpt lat="47.95345" lon="7.01585">
        <ele>1179.5999755859</ele>
        <time>2017-07-21T09:03:14Z</time>
      </trkpt>
      <trkpt lat="47.95344" lon="7.016">
        <ele>1180</ele>
        <time>2017-07-21T09:03:17Z</time>
      </trkpt>
      <trkpt lat="47.95343" lon="7.01619">
        <ele>1180.5999755859</ele>
        <time>2017-07-21T09:03:21Z</time>
      </trkpt>
      <trkpt lat="47.95341" lon="7.01644">
        <ele>1181.1999511719</ele>
        <time>2017-07-21T09:03:26Z</time>
      </trkpt>
      <trkpt lat="47.95334" lon="7.01678">
        <ele>1181.8000488281</ele>
        <time>2017-07-21T09:03:33Z</time>
      </trkpt>
      <trkpt lat="47.9532" lon="7.01715">
        <ele>1182.5999755859</ele>
        <time>2017-07-21T09:03:41Z</time>
      </trkpt>
      <trkpt lat="47.95312" lon="7.01734">
        <ele>1182.8000488281</ele>
        <time>2017-07-21T09:03:45Z</time>
      </trkpt>
      <trkpt lat="47.95301" lon="7.01761">
        <ele>1183</ele>
        <time>2017-07-21T09:03:50Z</time>
      </trkpt>
      <trkpt lat="47.95282" lon="7.01807">
        <ele>1182.5999755859</ele>
        <time>2017-07-21T09:03:57Z</time>
      </trkpt>
      <trkpt lat="47.9526" lon="7.01856">
        <ele>1183</ele>
        <time>2017-07-21T09:04:05Z</time>
      </trkpt>
      <trkpt lat="47.95257" lon="7.01861">
        <ele>1183</ele>
        <time>2017-07-21T09:04:06Z</time>
      </trkpt>
      <trkpt lat="47.95248" lon="7.01875">
        <ele>1183.1999511719</ele>
        <time>2017-07-21T09:04:09Z</time>
      </trkpt>
      <trkpt lat="47.9524" lon="7.01882">
        <ele>1183.1999511719</ele>
        <time>2017-07-21T09:04:11Z</time>
      </trkpt>
      <trkpt lat="47.95233" lon="7.01888">
        <ele>1183.5999755859</ele>
        <time>2017-07-21T09:04:13Z</time>
      </trkpt>
      <trkpt lat="47.95222" lon="7.01897">
        <ele>1183.8000488281</ele>
        <time>2017-07-21T09:04:16Z</time>
      </trkpt>
      <trkpt lat="47.95215" lon="7.01904">
        <ele>1184</ele>
        <time>2017-07-21T09:04:18Z</time>
      </trkpt>
      <trkpt lat="47.95191" lon="7.01923">
        <ele>1184.8000488281</ele>
        <time>2017-07-21T09:04:25Z</time>
      </trkpt>
      <trkpt lat="47.95184" lon="7.01928">
        <ele>1185.1999511719</ele>
        <time>2017-07-21T09:04:27Z</time>
      </trkpt>
      <trkpt lat="47.95165" lon="7.01944">
        <ele>1186</ele>
        <time>2017-07-21T09:04:33Z</time>
      </trkpt>
      <trkpt lat="47.95163" lon="7.01946">
        <ele>1186.1999511719</ele>
        <time>2017-07-21T09:04:34Z</time>
      </trkpt>
      <trkpt lat="47.95151" lon="7.01953">
        <ele>1187</ele>
        <time>2017-07-21T09:04:38Z</time>
      </trkpt>
      <trkpt lat="47.95143" lon="7.01958">
        <ele>1187.8000488281</ele>
        <time>2017-07-21T09:04:41Z</time>
      </trkpt>
      <trkpt lat="47.95134" lon="7.01961">
        <ele>1188.1999511719</ele>
        <time>2017-07-21T09:04:44Z</time>
      </trkpt>
      <trkpt lat="47.95118" lon="7.01963">
        <ele>1189.1999511719</ele>
        <time>2017-07-21T09:04:49Z</time>
      </trkpt>
      <trkpt lat="47.95115" lon="7.01962">
        <ele>1189.1999511719</ele>
        <time>2017-07-21T09:04:50Z</time>
      </trkpt>
      <trkpt lat="47.95095" lon="7.01959">
        <ele>1190.1999511719</ele>
        <time>2017-07-21T09:04:56Z</time>
      </trkpt>
      <trkpt lat="47.95085" lon="7.01957">
        <ele>1190.4000244141</ele>
        <time>2017-07-21T09:04:59Z</time>
      </trkpt>
      <trkpt lat="47.95069" lon="7.01954">
        <ele>1191</ele>
        <time>2017-07-21T09:05:04Z</time>
      </trkpt>
      <trkpt lat="47.95062" lon="7.01953">
        <ele>1191.4000244141</ele>
        <time>2017-07-21T09:05:06Z</time>
      </trkpt>
      <trkpt lat="47.95045" lon="7.01949">
        <ele>1192.1999511719</ele>
        <time>2017-07-21T09:05:12Z</time>
      </trkpt>
      <trkpt lat="47.95042" lon="7.01949">
        <ele>1192.4000244141</ele>
        <time>2017-07-21T09:05:13Z</time>
      </trkpt>
      <trkpt lat="47.95023" lon="7.01948">
        <ele>1193.1999511719</ele>
        <time>2017-07-21T09:05:20Z</time>
      </trkpt>
      <trkpt lat="47.95021" lon="7.01948">
        <ele>1193.4000244141</ele>
        <time>2017-07-21T09:05:21Z</time>
      </trkpt>
      <trkpt lat="47.95011" lon="7.01949">
        <ele>1194.5999755859</ele>
        <time>2017-07-21T09:05:25Z</time>
      </trkpt>
      <trkpt lat="47.95007" lon="7.0195">
        <ele>1195</ele>
        <time>2017-07-21T09:05:27Z</time>
      </trkpt>
      <trkpt lat="47.94997" lon="7.01952">
        <ele>1195.5999755859</ele>
        <time>2017-07-21T09:05:31Z</time>
      </trkpt>
      <trkpt lat="47.9499" lon="7.01954">
        <ele>1196</ele>
        <time>2017-07-21T09:05:34Z</time>
      </trkpt>
      <trkpt lat="47.94975" lon="7.0196">
        <ele>1196.5999755859</ele>
        <time>2017-07-21T09:05:40Z</time>
      </trkpt>
      <trkpt lat="47.94972" lon="7.01962">
        <ele>1196.8000488281</ele>
        <time>2017-07-21T09:05:41Z</time>
      </trkpt>
      <trkpt lat="47.94952" lon="7.01971">
        <ele>1197.8000488281</ele>
        <time>2017-07-21T09:05:49Z</time>
      </trkpt>
      <trkpt lat="47.94934" lon="7.0198">
        <ele>1199</ele>
        <time>2017-07-21T09:05:57Z</time>
      </trkpt>
      <trkpt lat="47.94918" lon="7.01985">
        <ele>1200</ele>
        <time>2017-07-21T09:06:04Z</time>
      </trkpt>
      <trkpt lat="47.94903" lon="7.01987">
        <ele>1201.1999511719</ele>
        <time>2017-07-21T09:06:10Z</time>
      </trkpt>
      <trkpt lat="47.949" lon="7.01988">
        <ele>1201.4000244141</ele>
        <time>2017-07-21T09:06:11Z</time>
      </trkpt>
      <trkpt lat="47.94891" lon="7.0199">
        <ele>1202.4000244141</ele>
        <time>2017-07-21T09:06:15Z</time>
      </trkpt>
      <trkpt lat="47.94884" lon="7.01991">
        <ele>1202.8000488281</ele>
        <time>2017-07-21T09:06:18Z</time>
      </trkpt>
      <trkpt lat="47.94876" lon="7.01994">
        <ele>1203.5999755859</ele>
        <time>2017-07-21T09:06:22Z</time>
      </trkpt>
      <trkpt lat="47.9487" lon="7.01995">
        <ele>1204.1999511719</ele>
        <time>2017-07-21T09:06:25Z</time>
      </trkpt>
      <trkpt lat="47.94867" lon="7.01996">
        <ele>1204.5999755859</ele>
        <time>2017-07-21T09:06:27Z</time>
      </trkpt>
      <trkpt lat="47.94856" lon="7.02001">
        <ele>1205.5999755859</ele>
        <time>2017-07-21T09:06:33Z</time>
      </trkpt>
      <trkpt lat="47.94848" lon="7.02004">
        <ele>1206.5999755859</ele>
        <time>2017-07-21T09:06:37Z</time>
      </trkpt>
      <trkpt lat="47.94839" lon="7.0201">
        <ele>1207.5999755859</ele>
        <time>2017-07-21T09:06:42Z</time>
      </trkpt>
      <trkpt lat="47.94838" lon="7.0201">
        <ele>1207.8000488281</ele>
        <time>2017-07-21T09:06:43Z</time>
      </trkpt>
      <trkpt lat="47.94826" lon="7.02017">
        <ele>1209</ele>
        <time>2017-07-21T09:06:49Z</time>
      </trkpt>
      <trkpt lat="47.94813" lon="7.02028">
        <ele>1210</ele>
        <time>2017-07-21T09:06:56Z</time>
      </trkpt>
      <trkpt lat="47.9481" lon="7.02029">
        <ele>1210</ele>
        <time>2017-07-21T09:06:57Z</time>
      </trkpt>
      <trkpt lat="47.94801" lon="7.02036">
        <ele>1210.5999755859</ele>
        <time>2017-07-21T09:07:01Z</time>
      </trkpt>
      <trkpt lat="47.94785" lon="7.02049">
        <ele>1211</ele>
        <time>2017-07-21T09:07:07Z</time>
      </trkpt>
      <trkpt lat="47.94782" lon="7.02051">
        <ele>1211.1999511719</ele>
        <time>2017-07-21T09:07:08Z</time>
      </trkpt>
      <trkpt lat="47.94756" lon="7.02071">
        <ele>1211.5999755859</ele>
        <time>2017-07-21T09:07:16Z</time>
      </trkpt>
      <trkpt lat="47.94739" lon="7.02079">
        <ele>1212</ele>
        <time>2017-07-21T09:07:21Z</time>
      </trkpt>
      <trkpt lat="47.94729" lon="7.02085">
        <ele>1212.4000244141</ele>
        <time>2017-07-21T09:07:24Z</time>
      </trkpt>
      <trkpt lat="47.9471" lon="7.02093">
        <ele>1212.8000488281</ele>
        <time>2017-07-21T09:07:30Z</time>
      </trkpt>
      <trkpt lat="47.94705" lon="7.02095">
        <ele>1213</ele>
        <time>2017-07-21T09:07:32Z</time>
      </trkpt>
      <trkpt lat="47.9469" lon="7.02103">
        <ele>1214</ele>
        <time>2017-07-21T09:07:37Z</time>
      </trkpt>
      <trkpt lat="47.94688" lon="7.02103">
        <ele>1214.1999511719</ele>
        <time>2017-07-21T09:07:38Z</time>
      </trkpt>
      <trkpt lat="47.94678" lon="7.02106">
        <ele>1214.8000488281</ele>
        <time>2017-07-21T09:07:42Z</time>
      </trkpt>
      <trkpt lat="47.94672" lon="7.02107">
        <ele>1215.1999511719</ele>
        <time>2017-07-21T09:07:44Z</time>
      </trkpt>
      <trkpt lat="47.94661" lon="7.02109">
        <ele>1215.8000488281</ele>
        <time>2017-07-21T09:07:48Z</time>
      </trkpt>
      <trkpt lat="47.94641" lon="7.02107">
        <ele>1216.1999511719</ele>
        <time>2017-07-21T09:07:54Z</time>
      </trkpt>
      <trkpt lat="47.94637" lon="7.02105">
        <ele>1216.4000244141</ele>
        <time>2017-07-21T09:07:55Z</time>
      </trkpt>
      <trkpt lat="47.94621" lon="7.02092">
        <ele>1216.8000488281</ele>
        <time>2017-07-21T09:08:00Z</time>
      </trkpt>
      <trkpt lat="47.94611" lon="7.0208">
        <ele>1217.4000244141</ele>
        <time>2017-07-21T09:08:04Z</time>
      </trkpt>
      <trkpt lat="47.94606" lon="7.02075">
        <ele>1217.8000488281</ele>
        <time>2017-07-21T09:08:06Z</time>
      </trkpt>
      <trkpt lat="47.94598" lon="7.02068">
        <ele>1218.4000244141</ele>
        <time>2017-07-21T09:08:09Z</time>
      </trkpt>
      <trkpt lat="47.94587" lon="7.02057">
        <ele>1219.4000244141</ele>
        <time>2017-07-21T09:08:13Z</time>
      </trkpt>
      <trkpt lat="47.94574" lon="7.02041">
        <ele>1220.5999755859</ele>
        <time>2017-07-21T09:08:18Z</time>
      </trkpt>
      <trkpt lat="47.94568" lon="7.02032">
        <ele>1221</ele>
        <time>2017-07-21T09:08:21Z</time>
      </trkpt>
      <trkpt lat="47.94561" lon="7.0202">
        <ele>1221.5999755859</ele>
        <time>2017-07-21T09:08:25Z</time>
      </trkpt>
      <trkpt lat="47.94557" lon="7.02015">
        <ele>1222</ele>
        <time>2017-07-21T09:08:27Z</time>
      </trkpt>
      <trkpt lat="47.9455" lon="7.02005">
        <ele>1222.8000488281</ele>
        <time>2017-07-21T09:08:31Z</time>
      </trkpt>
      <trkpt lat="47.94541" lon="7.01997">
        <ele>1223.4000244141</ele>
        <time>2017-07-21T09:08:35Z</time>
      </trkpt>
      <trkpt lat="47.94537" lon="7.01992">
        <ele>1224</ele>
        <time>2017-07-21T09:08:37Z</time>
      </trkpt>
      <trkpt lat="47.94529" lon="7.01983">
        <ele>1224.4000244141</ele>
        <time>2017-07-21T09:08:41Z</time>
      </trkpt>
      <trkpt lat="47.94524" lon="7.01976">
        <ele>1225</ele>
        <time>2017-07-21T09:08:44Z</time>
      </trkpt>
      <trkpt lat="47.94515" lon="7.01966">
        <ele>1225.8000488281</ele>
        <time>2017-07-21T09:08:49Z</time>
      </trkpt>
      <trkpt lat="47.94511" lon="7.01961">
        <ele>1226</ele>
        <time>2017-07-21T09:08:51Z</time>
      </trkpt>
      <trkpt lat="47.945" lon="7.0195">
        <ele>1226.8000488281</ele>
        <time>2017-07-21T09:08:56Z</time>
      </trkpt>
      <trkpt lat="47.94494" lon="7.01944">
        <ele>1227.1999511719</ele>
        <time>2017-07-21T09:08:59Z</time>
      </trkpt>
      <trkpt lat="47.94485" lon="7.01935">
        <ele>1228</ele>
        <time>2017-07-21T09:09:03Z</time>
      </trkpt>
      <trkpt lat="47.94481" lon="7.0193">
        <ele>1228.1999511719</ele>
        <time>2017-07-21T09:09:05Z</time>
      </trkpt>
      <trkpt lat="47.94469" lon="7.01919">
        <ele>1228.8000488281</ele>
        <time>2017-07-21T09:09:10Z</time>
      </trkpt>
      <trkpt lat="47.94457" lon="7.01916">
        <ele>1229.1999511719</ele>
        <time>2017-07-21T09:09:14Z</time>
      </trkpt>
      <trkpt lat="47.94449" lon="7.01916">
        <ele>1229.5999755859</ele>
        <time>2017-07-21T09:09:17Z</time>
      </trkpt>
      <trkpt lat="47.94437" lon="7.01915">
        <ele>1230.4000244141</ele>
        <time>2017-07-21T09:09:21Z</time>
      </trkpt>
      <trkpt lat="47.94431" lon="7.01916">
        <ele>1230.8000488281</ele>
        <time>2017-07-21T09:09:23Z</time>
      </trkpt>
      <trkpt lat="47.94425" lon="7.01917">
        <ele>1231.4000244141</ele>
        <time>2017-07-21T09:09:25Z</time>
      </trkpt>
      <trkpt lat="47.94407" lon="7.01922">
        <ele>1232.1999511719</ele>
        <time>2017-07-21T09:09:30Z</time>
      </trkpt>
      <trkpt lat="47.9439" lon="7.01933">
        <ele>1232.5999755859</ele>
        <time>2017-07-21T09:09:35Z</time>
      </trkpt>
      <trkpt lat="47.94382" lon="7.01938">
        <ele>1232.8000488281</ele>
        <time>2017-07-21T09:09:37Z</time>
      </trkpt>
      <trkpt lat="47.94354" lon="7.01958">
        <ele>1232.4000244141</ele>
        <time>2017-07-21T09:09:44Z</time>
      </trkpt>
      <trkpt lat="47.94325" lon="7.01983">
        <ele>1231.8000488281</ele>
        <time>2017-07-21T09:09:51Z</time>
      </trkpt>
      <trkpt lat="47.94301" lon="7.02012">
        <ele>1231.4000244141</ele>
        <time>2017-07-21T09:09:57Z</time>
      </trkpt>
      <trkpt lat="47.94297" lon="7.02018">
        <ele>1231.4000244141</ele>
        <time>2017-07-21T09:09:58Z</time>
      </trkpt>
      <trkpt lat="47.9427" lon="7.02056">
        <ele>1230.4000244141</ele>
        <time>2017-07-21T09:10:04Z</time>
      </trkpt>
      <trkpt lat="47.94266" lon="7.02064">
        <ele>1230</ele>
        <time>2017-07-21T09:10:05Z</time>
      </trkpt>
      <trkpt lat="47.94256" lon="7.02087">
        <ele>1229.1999511719</ele>
        <time>2017-07-21T09:10:08Z</time>
      </trkpt>
      <trkpt lat="47.94253" lon="7.02095">
        <ele>1228.8000488281</ele>
        <time>2017-07-21T09:10:09Z</time>
      </trkpt>
      <trkpt lat="47.94238" lon="7.02133">
        <ele>1227.8000488281</ele>
        <time>2017-07-21T09:10:13Z</time>
      </trkpt>
      <trkpt lat="47.94234" lon="7.02144">
        <ele>1227.4000244141</ele>
        <time>2017-07-21T09:10:14Z</time>
      </trkpt>
      <trkpt lat="47.94225" lon="7.02168">
        <ele>1226.5999755859</ele>
        <time>2017-07-21T09:10:16Z</time>
      </trkpt>
      <trkpt lat="47.94217" lon="7.02192">
        <ele>1225.5999755859</ele>
        <time>2017-07-21T09:10:18Z</time>
      </trkpt>
      <trkpt lat="47.94214" lon="7.02204">
        <ele>1225</ele>
        <time>2017-07-21T09:10:19Z</time>
      </trkpt>
      <trkpt lat="47.9421" lon="7.02217">
        <ele>1224.4000244141</ele>
        <time>2017-07-21T09:10:20Z</time>
      </trkpt>
      <trkpt lat="47.94202" lon="7.02242">
        <ele>1223.1999511719</ele>
        <time>2017-07-21T09:10:22Z</time>
      </trkpt>
      <trkpt lat="47.94194" lon="7.02266">
        <ele>1222</ele>
        <time>2017-07-21T09:10:24Z</time>
      </trkpt>
      <trkpt lat="47.94185" lon="7.02287">
        <ele>1221.1999511719</ele>
        <time>2017-07-21T09:10:26Z</time>
      </trkpt>
      <trkpt lat="47.94178" lon="7.02295">
        <ele>1220.5999755859</ele>
        <time>2017-07-21T09:10:27Z</time>
      </trkpt>
      <trkpt lat="47.94153" lon="7.02307">
        <ele>1219.5999755859</ele>
        <time>2017-07-21T09:10:30Z</time>
      </trkpt>
      <trkpt lat="47.94128" lon="7.02299">
        <ele>1218.8000488281</ele>
        <time>2017-07-21T09:10:33Z</time>
      </trkpt>
      <trkpt lat="47.9412" lon="7.02292">
        <ele>1218.5999755859</ele>
        <time>2017-07-21T09:10:34Z</time>
      </trkpt>
      <trkpt lat="47.94109" lon="7.02274">
        <ele>1217.8000488281</ele>
        <time>2017-07-21T09:10:36Z</time>
      </trkpt>
      <trkpt lat="47.94104" lon="7.02265">
        <ele>1217.4000244141</ele>
        <time>2017-07-21T09:10:37Z</time>
      </trkpt>
      <trkpt lat="47.94081" lon="7.02221">
        <ele>1217</ele>
        <time>2017-07-21T09:10:42Z</time>
      </trkpt>
      <trkpt lat="47.94056" lon="7.02184">
        <ele>1216.5999755859</ele>
        <time>2017-07-21T09:10:47Z</time>
      </trkpt>
      <trkpt lat="47.94037" lon="7.02167">
        <ele>1216.4000244141</ele>
        <time>2017-07-21T09:10:50Z</time>
      </trkpt>
      <trkpt lat="47.94024" lon="7.02155">
        <ele>1216.1999511719</ele>
        <time>2017-07-21T09:10:52Z</time>
      </trkpt>
      <trkpt lat="47.94013" lon="7.02143">
        <ele>1216.1999511719</ele>
        <time>2017-07-21T09:10:54Z</time>
      </trkpt>
      <trkpt lat="47.93995" lon="7.02127">
        <ele>1216</ele>
        <time>2017-07-21T09:10:57Z</time>
      </trkpt>
      <trkpt lat="47.93965" lon="7.02112">
        <ele>1216</ele>
        <time>2017-07-21T09:11:02Z</time>
      </trkpt>
      <trkpt lat="47.93938" lon="7.02109">
        <ele>1215.8000488281</ele>
        <time>2017-07-21T09:11:06Z</time>
      </trkpt>
      <trkpt lat="47.93931" lon="7.0211">
        <ele>1215.8000488281</ele>
        <time>2017-07-21T09:11:07Z</time>
      </trkpt>
      <trkpt lat="47.93902" lon="7.02129">
        <ele>1215.4000244141</ele>
        <time>2017-07-21T09:11:11Z</time>
      </trkpt>
      <trkpt lat="47.93895" lon="7.02135">
        <ele>1215.1999511719</ele>
        <time>2017-07-21T09:11:12Z</time>
      </trkpt>
      <trkpt lat="47.93874" lon="7.02155">
        <ele>1213.8000488281</ele>
        <time>2017-07-21T09:11:15Z</time>
      </trkpt>
      <trkpt lat="47.93853" lon="7.02174">
        <ele>1212.8000488281</ele>
        <time>2017-07-21T09:11:18Z</time>
      </trkpt>
      <trkpt lat="47.93833" lon="7.02193">
        <ele>1211.5999755859</ele>
        <time>2017-07-21T09:11:21Z</time>
      </trkpt>
      <trkpt lat="47.93813" lon="7.02208">
        <ele>1210.8000488281</ele>
        <time>2017-07-21T09:11:24Z</time>
      </trkpt>
      <trkpt lat="47.93805" lon="7.0221">
        <ele>1210.4000244141</ele>
        <time>2017-07-21T09:11:25Z</time>
      </trkpt>
      <trkpt lat="47.9379" lon="7.02207">
        <ele>1210</ele>
        <time>2017-07-21T09:11:27Z</time>
      </trkpt>
      <trkpt lat="47.93772" lon="7.02187">
        <ele>1209.5999755859</ele>
        <time>2017-07-21T09:11:30Z</time>
      </trkpt>
      <trkpt lat="47.93763" lon="7.02172">
        <ele>1209.4000244141</ele>
        <time>2017-07-21T09:11:32Z</time>
      </trkpt>
      <trkpt lat="47.93758" lon="7.02164">
        <ele>1209.4000244141</ele>
        <time>2017-07-21T09:11:33Z</time>
      </trkpt>
      <trkpt lat="47.93744" lon="7.02142">
        <ele>1209.5999755859</ele>
        <time>2017-07-21T09:11:36Z</time>
      </trkpt>
      <trkpt lat="47.93713" lon="7.02103">
        <ele>1210</ele>
        <time>2017-07-21T09:11:42Z</time>
      </trkpt>
      <trkpt lat="47.93696" lon="7.02087">
        <ele>1210.4000244141</ele>
        <time>2017-07-21T09:11:45Z</time>
      </trkpt>
      <trkpt lat="47.93679" lon="7.02074">
        <ele>1210.8000488281</ele>
        <time>2017-07-21T09:11:48Z</time>
      </trkpt>
      <trkpt lat="47.93632" lon="7.02045">
        <ele>1211</ele>
        <time>2017-07-21T09:11:55Z</time>
      </trkpt>
      <trkpt lat="47.93581" lon="7.02014">
        <ele>1209</ele>
        <time>2017-07-21T09:12:02Z</time>
      </trkpt>
      <trkpt lat="47.93568" lon="7.02006">
        <ele>1208.8000488281</ele>
        <time>2017-07-21T09:12:04Z</time>
      </trkpt>
      <trkpt lat="47.9354" lon="7.01988">
        <ele>1209</ele>
        <time>2017-07-21T09:12:09Z</time>
      </trkpt>
      <trkpt lat="47.93503" lon="7.01963">
        <ele>1210.1999511719</ele>
        <time>2017-07-21T09:12:16Z</time>
      </trkpt>
      <trkpt lat="47.93482" lon="7.01949">
        <ele>1210.4000244141</ele>
        <time>2017-07-21T09:12:20Z</time>
      </trkpt>
      <trkpt lat="47.93454" lon="7.01932">
        <ele>1210.5999755859</ele>
        <time>2017-07-21T09:12:25Z</time>
      </trkpt>
      <trkpt lat="47.93411" lon="7.01904">
        <ele>1210.4000244141</ele>
        <time>2017-07-21T09:12:33Z</time>
      </trkpt>
      <trkpt lat="47.93369" lon="7.01888">
        <ele>1211</ele>
        <time>2017-07-21T09:12:41Z</time>
      </trkpt>
      <trkpt lat="47.93359" lon="7.01886">
        <ele>1211.1999511719</ele>
        <time>2017-07-21T09:12:43Z</time>
      </trkpt>
      <trkpt lat="47.93333" lon="7.01883">
        <ele>1211.4000244141</ele>
        <time>2017-07-21T09:12:48Z</time>
      </trkpt>
      <trkpt lat="47.93296" lon="7.01889">
        <ele>1211.8000488281</ele>
        <time>2017-07-21T09:12:55Z</time>
      </trkpt>
      <trkpt lat="47.93255" lon="7.01907">
        <ele>1211.1999511719</ele>
        <time>2017-07-21T09:13:02Z</time>
      </trkpt>
      <trkpt lat="47.93218" lon="7.01936">
        <ele>1210.5999755859</ele>
        <time>2017-07-21T09:13:09Z</time>
      </trkpt>
      <trkpt lat="47.93183" lon="7.01964">
        <ele>1210.5999755859</ele>
        <time>2017-07-21T09:13:16Z</time>
      </trkpt>
      <trkpt lat="47.93153" lon="7.01987">
        <ele>1211</ele>
        <time>2017-07-21T09:13:23Z</time>
      </trkpt>
      <trkpt lat="47.93149" lon="7.0199">
        <ele>1211</ele>
        <time>2017-07-21T09:13:24Z</time>
      </trkpt>
      <trkpt lat="47.93131" lon="7.02001">
        <ele>1212</ele>
        <time>2017-07-21T09:13:29Z</time>
      </trkpt>
      <trkpt lat="47.93123" lon="7.02005">
        <ele>1212.1999511719</ele>
        <time>2017-07-21T09:13:31Z</time>
      </trkpt>
      <trkpt lat="47.93102" lon="7.02013">
        <ele>1213.1999511719</ele>
        <time>2017-07-21T09:13:37Z</time>
      </trkpt>
      <trkpt lat="47.93081" lon="7.02015">
        <ele>1214.1999511719</ele>
        <time>2017-07-21T09:13:43Z</time>
      </trkpt>
      <trkpt lat="47.93077" lon="7.02015">
        <ele>1214.4000244141</ele>
        <time>2017-07-21T09:13:44Z</time>
      </trkpt>
      <trkpt lat="47.93056" lon="7.02015">
        <ele>1215.4000244141</ele>
        <time>2017-07-21T09:13:50Z</time>
      </trkpt>
      <trkpt lat="47.93052" lon="7.02015">
        <ele>1215.4000244141</ele>
        <time>2017-07-21T09:13:51Z</time>
      </trkpt>
      <trkpt lat="47.93027" lon="7.02014">
        <ele>1216.4000244141</ele>
        <time>2017-07-21T09:13:58Z</time>
      </trkpt>
      <trkpt lat="47.93024" lon="7.02015">
        <ele>1216.5999755859</ele>
        <time>2017-07-21T09:13:59Z</time>
      </trkpt>
      <trkpt lat="47.92996" lon="7.02013">
        <ele>1217.5999755859</ele>
        <time>2017-07-21T09:14:07Z</time>
      </trkpt>
      <trkpt lat="47.92966" lon="7.02009">
        <ele>1218.5999755859</ele>
        <time>2017-07-21T09:14:15Z</time>
      </trkpt>
      <trkpt lat="47.92962" lon="7.02008">
        <ele>1218.5999755859</ele>
        <time>2017-07-21T09:14:16Z</time>
      </trkpt>
      <trkpt lat="47.92938" lon="7.02001">
        <ele>1219.1999511719</ele>
        <time>2017-07-21T09:14:22Z</time>
      </trkpt>
      <trkpt lat="47.92934" lon="7.01999">
        <ele>1219.1999511719</ele>
        <time>2017-07-21T09:14:23Z</time>
      </trkpt>
      <trkpt lat="47.92926" lon="7.01994">
        <ele>1219.1999511719</ele>
        <time>2017-07-21T09:14:25Z</time>
      </trkpt>
      <trkpt lat="47.92908" lon="7.01986">
        <ele>1219.4000244141</ele>
        <time>2017-07-21T09:14:29Z</time>
      </trkpt>
      <trkpt lat="47.92864" lon="7.01969">
        <ele>1219.5999755859</ele>
        <time>2017-07-21T09:14:38Z</time>
      </trkpt>
      <trkpt lat="47.9283" lon="7.01964">
        <ele>1219.5999755859</ele>
        <time>2017-07-21T09:14:45Z</time>
      </trkpt>
      <trkpt lat="47.92825" lon="7.01964">
        <ele>1219.5999755859</ele>
        <time>2017-07-21T09:14:46Z</time>
      </trkpt>
      <trkpt lat="47.92806" lon="7.01973">
        <ele>1219.5999755859</ele>
        <time>2017-07-21T09:14:50Z</time>
      </trkpt>
      <trkpt lat="47.92791" lon="7.01999">
        <ele>1219.5999755859</ele>
        <time>2017-07-21T09:14:54Z</time>
      </trkpt>
      <trkpt lat="47.92787" lon="7.02025">
        <ele>1219.4000244141</ele>
        <time>2017-07-21T09:14:57Z</time>
      </trkpt>
      <trkpt lat="47.92794" lon="7.02058">
        <ele>1219.1999511719</ele>
        <time>2017-07-21T09:15:01Z</time>
      </trkpt>
      <trkpt lat="47.92797" lon="7.02066">
        <ele>1219.1999511719</ele>
        <time>2017-07-21T09:15:02Z</time>
      </trkpt>
      <trkpt lat="47.92817" lon="7.02128">
        <ele>1218.5999755859</ele>
        <time>2017-07-21T09:15:09Z</time>
      </trkpt>
      <trkpt lat="47.92839" lon="7.022">
        <ele>1218</ele>
        <time>2017-07-21T09:15:17Z</time>
      </trkpt>
      <trkpt lat="47.92842" lon="7.0224">
        <ele>1217.5999755859</ele>
        <time>2017-07-21T09:15:21Z</time>
      </trkpt>
      <trkpt lat="47.92839" lon="7.02308">
        <ele>1216.8000488281</ele>
        <time>2017-07-21T09:15:28Z</time>
      </trkpt>
      <trkpt lat="47.92835" lon="7.02356">
        <ele>1216.5999755859</ele>
        <time>2017-07-21T09:15:33Z</time>
      </trkpt>
      <trkpt lat="47.92833" lon="7.02384">
        <ele>1216.4000244141</ele>
        <time>2017-07-21T09:15:36Z</time>
      </trkpt>
      <trkpt lat="47.92825" lon="7.02443">
        <ele>1215.5999755859</ele>
        <time>2017-07-21T09:15:42Z</time>
      </trkpt>
      <trkpt lat="47.92824" lon="7.02452">
        <ele>1215.4000244141</ele>
        <time>2017-07-21T09:15:43Z</time>
      </trkpt>
      <trkpt lat="47.92807" lon="7.0252">
        <ele>1214.5999755859</ele>
        <time>2017-07-21T09:15:50Z</time>
      </trkpt>
      <trkpt lat="47.92804" lon="7.0253">
        <ele>1214.4000244141</ele>
        <time>2017-07-21T09:15:51Z</time>
      </trkpt>
      <trkpt lat="47.92784" lon="7.02571">
        <ele>1213.5999755859</ele>
        <time>2017-07-21T09:15:56Z</time>
      </trkpt>
      <trkpt lat="47.92776" lon="7.02587">
        <ele>1213.1999511719</ele>
        <time>2017-07-21T09:15:58Z</time>
      </trkpt>
      <trkpt lat="47.92758" lon="7.02617">
        <ele>1212.5999755859</ele>
        <time>2017-07-21T09:16:02Z</time>
      </trkpt>
      <trkpt lat="47.92749" lon="7.02634">
        <ele>1212.1999511719</ele>
        <time>2017-07-21T09:16:04Z</time>
      </trkpt>
      <trkpt lat="47.92746" lon="7.02644">
        <ele>1212</ele>
        <time>2017-07-21T09:16:05Z</time>
      </trkpt>
      <trkpt lat="47.92743" lon="7.02653">
        <ele>1211.8000488281</ele>
        <time>2017-07-21T09:16:06Z</time>
      </trkpt>
      <trkpt lat="47.92741" lon="7.02674">
        <ele>1211.1999511719</ele>
        <time>2017-07-21T09:16:08Z</time>
      </trkpt>
      <trkpt lat="47.92741" lon="7.02697">
        <ele>1210.8000488281</ele>
        <time>2017-07-21T09:16:10Z</time>
      </trkpt>
      <trkpt lat="47.92741" lon="7.02741">
        <ele>1209.5999755859</ele>
        <time>2017-07-21T09:16:14Z</time>
      </trkpt>
      <trkpt lat="47.9274" lon="7.02772">
        <ele>1209</ele>
        <time>2017-07-21T09:16:17Z</time>
      </trkpt>
      <trkpt lat="47.92739" lon="7.0279">
        <ele>1208.4000244141</ele>
        <time>2017-07-21T09:16:19Z</time>
      </trkpt>
      <trkpt lat="47.92739" lon="7.02812">
        <ele>1207.5999755859</ele>
        <time>2017-07-21T09:16:22Z</time>
      </trkpt>
      <trkpt lat="47.92739" lon="7.02817">
        <ele>1207.1999511719</ele>
        <time>2017-07-21T09:16:23Z</time>
      </trkpt>
      <trkpt lat="47.9274" lon="7.02831">
        <ele>1206.4000244141</ele>
        <time>2017-07-21T09:16:26Z</time>
      </trkpt>
      <trkpt lat="47.92739" lon="7.02834">
        <ele>1206.1999511719</ele>
        <time>2017-07-21T09:16:27Z</time>
      </trkpt>
      <trkpt lat="47.92737" lon="7.02854">
        <ele>1205.4000244141</ele>
        <time>2017-07-21T09:16:31Z</time>
      </trkpt>
      <trkpt lat="47.92734" lon="7.02869">
        <ele>1205</ele>
        <time>2017-07-21T09:16:34Z</time>
      </trkpt>
      <trkpt lat="47.92734" lon="7.02877">
        <ele>1204.8000488281</ele>
        <time>2017-07-21T09:16:36Z</time>
      </trkpt>
      <trkpt lat="47.92732" lon="7.02882">
        <ele>1204.1999511719</ele>
        <time>2017-07-21T09:16:38Z</time>
      </trkpt>
      <trkpt lat="47.9273" lon="7.02884">
        <ele>1204</ele>
        <time>2017-07-21T09:16:39Z</time>
      </trkpt>
      <trkpt lat="47.92728" lon="7.02886">
        <ele>1203.8000488281</ele>
        <time>2017-07-21T09:16:40Z</time>
      </trkpt>
      <trkpt lat="47.92725" lon="7.02899">
        <ele>1203.5999755859</ele>
        <time>2017-07-21T09:16:43Z</time>
      </trkpt>
      <trkpt lat="47.92724" lon="7.02903">
        <ele>1203.4000244141</ele>
        <time>2017-07-21T09:16:44Z</time>
      </trkpt>
      <trkpt lat="47.92722" lon="7.02907">
        <ele>1203.4000244141</ele>
        <time>2017-07-21T09:16:45Z</time>
      </trkpt>
      <trkpt lat="47.92715" lon="7.0291">
        <ele>1203</ele>
        <time>2017-07-21T09:16:47Z</time>
      </trkpt>
      <trkpt lat="47.92711" lon="7.02911">
        <ele>1203</ele>
        <time>2017-07-21T09:16:48Z</time>
      </trkpt>
      <trkpt lat="47.92703" lon="7.02916">
        <ele>1202.8000488281</ele>
        <time>2017-07-21T09:16:50Z</time>
      </trkpt>
      <trkpt lat="47.92695" lon="7.02922">
        <ele>1202.5999755859</ele>
        <time>2017-07-21T09:16:52Z</time>
      </trkpt>
      <trkpt lat="47.92666" lon="7.02936">
        <ele>1201.8000488281</ele>
        <time>2017-07-21T09:16:57Z</time>
      </trkpt>
      <trkpt lat="47.92632" lon="7.02947">
        <ele>1200.8000488281</ele>
        <time>2017-07-21T09:17:02Z</time>
      </trkpt>
      <trkpt lat="47.92602" lon="7.02955">
        <ele>1199.8000488281</ele>
        <time>2017-07-21T09:17:06Z</time>
      </trkpt>
      <trkpt lat="47.9257" lon="7.02963">
        <ele>1198.5999755859</ele>
        <time>2017-07-21T09:17:10Z</time>
      </trkpt>
      <trkpt lat="47.92545" lon="7.0297">
        <ele>1197.5999755859</ele>
        <time>2017-07-21T09:17:13Z</time>
      </trkpt>
      <trkpt lat="47.92513" lon="7.02978">
        <ele>1196.4000244141</ele>
        <time>2017-07-21T09:17:17Z</time>
      </trkpt>
      <trkpt lat="47.92482" lon="7.02987">
        <ele>1195.1999511719</ele>
        <time>2017-07-21T09:17:21Z</time>
      </trkpt>
      <trkpt lat="47.92459" lon="7.02994">
        <ele>1194.5999755859</ele>
        <time>2017-07-21T09:17:24Z</time>
      </trkpt>
      <trkpt lat="47.92453" lon="7.02996">
        <ele>1194.1999511719</ele>
        <time>2017-07-21T09:17:25Z</time>
      </trkpt>
      <trkpt lat="47.92436" lon="7.03004">
        <ele>1193.4000244141</ele>
        <time>2017-07-21T09:17:28Z</time>
      </trkpt>
      <trkpt lat="47.92432" lon="7.03007">
        <ele>1193.1999511719</ele>
        <time>2017-07-21T09:17:29Z</time>
      </trkpt>
      <trkpt lat="47.92428" lon="7.03009">
        <ele>1193</ele>
        <time>2017-07-21T09:17:30Z</time>
      </trkpt>
      <trkpt lat="47.9242" lon="7.03012">
        <ele>1192.1999511719</ele>
        <time>2017-07-21T09:17:33Z</time>
      </trkpt>
      <trkpt lat="47.92419" lon="7.03012">
        <ele>1192</ele>
        <time>2017-07-21T09:17:34Z</time>
      </trkpt>
      <trkpt lat="47.92416" lon="7.03012">
        <ele>1191.5999755859</ele>
        <time>2017-07-21T09:17:36Z</time>
      </trkpt>
      <trkpt lat="47.92415" lon="7.03014">
        <ele>1191.1999511719</ele>
        <time>2017-07-21T09:17:38Z</time>
      </trkpt>
      <trkpt lat="47.92414" lon="7.03021">
        <ele>1151.1999511719</ele>
        <time>2017-07-21T09:40:04Z</time>
      </trkpt>
      <trkpt lat="47.9241" lon="7.03024">
        <ele>1151</ele>
        <time>2017-07-21T09:40:16Z</time>
      </trkpt>
      <trkpt lat="47.92407" lon="7.03028">
        <ele>1151</ele>
        <time>2017-07-21T09:40:18Z</time>
      </trkpt>
      <trkpt lat="47.92398" lon="7.03037">
        <ele>1151</ele>
        <time>2017-07-21T09:40:23Z</time>
      </trkpt>
      <trkpt lat="47.92383" lon="7.03053">
        <ele>1150.5999755859</ele>
        <time>2017-07-21T09:40:29Z</time>
      </trkpt>
      <trkpt lat="47.92368" lon="7.03069">
        <ele>1150.1999511719</ele>
        <time>2017-07-21T09:40:34Z</time>
      </trkpt>
      <trkpt lat="47.92365" lon="7.03071">
        <ele>1150</ele>
        <time>2017-07-21T09:40:35Z</time>
      </trkpt>
      <trkpt lat="47.92363" lon="7.03077">
        <ele>1149.1999511719</ele>
        <time>2017-07-21T09:40:50Z</time>
      </trkpt>
      <trkpt lat="47.92354" lon="7.03089">
        <ele>1149.1999511719</ele>
        <time>2017-07-21T09:40:55Z</time>
      </trkpt>
      <trkpt lat="47.92352" lon="7.03092">
        <ele>1149.1999511719</ele>
        <time>2017-07-21T09:40:56Z</time>
      </trkpt>
      <trkpt lat="47.92349" lon="7.03096">
        <ele>1149</ele>
        <time>2017-07-21T09:40:57Z</time>
      </trkpt>
      <trkpt lat="47.92338" lon="7.03114">
        <ele>1148.8000488281</ele>
        <time>2017-07-21T09:41:01Z</time>
      </trkpt>
      <trkpt lat="47.92317" lon="7.03164">
        <ele>1148.1999511719</ele>
        <time>2017-07-21T09:41:09Z</time>
      </trkpt>
      <trkpt lat="47.92314" lon="7.03171">
        <ele>1148</ele>
        <time>2017-07-21T09:41:10Z</time>
      </trkpt>
      <trkpt lat="47.92312" lon="7.03179">
        <ele>1148</ele>
        <time>2017-07-21T09:41:11Z</time>
      </trkpt>
      <trkpt lat="47.92304" lon="7.03216">
        <ele>1147.1999511719</ele>
        <time>2017-07-21T09:41:16Z</time>
      </trkpt>
      <trkpt lat="47.92301" lon="7.03231">
        <ele>1147</ele>
        <time>2017-07-21T09:41:18Z</time>
      </trkpt>
      <trkpt lat="47.92295" lon="7.03262">
        <ele>1146.4000244141</ele>
        <time>2017-07-21T09:41:22Z</time>
      </trkpt>
      <trkpt lat="47.9229" lon="7.03286">
        <ele>1146</ele>
        <time>2017-07-21T09:41:25Z</time>
      </trkpt>
      <trkpt lat="47.92283" lon="7.03322">
        <ele>1145.4000244141</ele>
        <time>2017-07-21T09:41:29Z</time>
      </trkpt>
      <trkpt lat="47.9228" lon="7.03342">
        <ele>1144.5999755859</ele>
        <time>2017-07-21T09:41:31Z</time>
      </trkpt>
      <trkpt lat="47.92271" lon="7.03387">
        <ele>1143.1999511719</ele>
        <time>2017-07-21T09:41:35Z</time>
      </trkpt>
      <trkpt lat="47.92268" lon="7.03413">
        <ele>1142.1999511719</ele>
        <time>2017-07-21T09:41:37Z</time>
      </trkpt>
      <trkpt lat="47.92268" lon="7.03427">
        <ele>1141.5999755859</ele>
        <time>2017-07-21T09:41:38Z</time>
      </trkpt>
      <trkpt lat="47.92269" lon="7.0344">
        <ele>1140.5999755859</ele>
        <time>2017-07-21T09:41:39Z</time>
      </trkpt>
      <trkpt lat="47.92271" lon="7.03466">
        <ele>1139.1999511719</ele>
        <time>2017-07-21T09:41:41Z</time>
      </trkpt>
      <trkpt lat="47.92273" lon="7.03491">
        <ele>1138</ele>
        <time>2017-07-21T09:41:43Z</time>
      </trkpt>
      <trkpt lat="47.92275" lon="7.03515">
        <ele>1137.4000244141</ele>
        <time>2017-07-21T09:41:45Z</time>
      </trkpt>
      <trkpt lat="47.92281" lon="7.03567">
        <ele>1137.4000244141</ele>
        <time>2017-07-21T09:41:50Z</time>
      </trkpt>
      <trkpt lat="47.92282" lon="7.0362">
        <ele>1138</ele>
        <time>2017-07-21T09:41:56Z</time>
      </trkpt>
      <trkpt lat="47.92277" lon="7.03653">
        <ele>1138.1999511719</ele>
        <time>2017-07-21T09:42:00Z</time>
      </trkpt>
      <trkpt lat="47.92274" lon="7.0366">
        <ele>1138.4000244141</ele>
        <time>2017-07-21T09:42:01Z</time>
      </trkpt>
      <trkpt lat="47.9226" lon="7.03686">
        <ele>1138.4000244141</ele>
        <time>2017-07-21T09:42:05Z</time>
      </trkpt>
      <trkpt lat="47.92256" lon="7.03693">
        <ele>1138.4000244141</ele>
        <time>2017-07-21T09:42:06Z</time>
      </trkpt>
      <trkpt lat="47.92238" lon="7.03725">
        <ele>1138.1999511719</ele>
        <time>2017-07-21T09:42:11Z</time>
      </trkpt>
      <trkpt lat="47.92234" lon="7.03731">
        <ele>1138</ele>
        <time>2017-07-21T09:42:12Z</time>
      </trkpt>
      <trkpt lat="47.92206" lon="7.03774">
        <ele>1137.8000488281</ele>
        <time>2017-07-21T09:42:19Z</time>
      </trkpt>
      <trkpt lat="47.92169" lon="7.03826">
        <ele>1137.5999755859</ele>
        <time>2017-07-21T09:42:28Z</time>
      </trkpt>
      <trkpt lat="47.92134" lon="7.03879">
        <ele>1137.8000488281</ele>
        <time>2017-07-21T09:42:37Z</time>
      </trkpt>
      <trkpt lat="47.9211" lon="7.03924">
        <ele>1137.8000488281</ele>
        <time>2017-07-21T09:42:44Z</time>
      </trkpt>
      <trkpt lat="47.92103" lon="7.03937">
        <ele>1137.8000488281</ele>
        <time>2017-07-21T09:42:46Z</time>
      </trkpt>
      <trkpt lat="47.92088" lon="7.03948">
        <ele>1137.8000488281</ele>
        <time>2017-07-21T09:42:49Z</time>
      </trkpt>
      <trkpt lat="47.92078" lon="7.03953">
        <ele>1137.8000488281</ele>
        <time>2017-07-21T09:42:51Z</time>
      </trkpt>
      <trkpt lat="47.92056" lon="7.03962">
        <ele>1137.8000488281</ele>
        <time>2017-07-21T09:42:55Z</time>
      </trkpt>
      <trkpt lat="47.92008" lon="7.03986">
        <ele>1137.8000488281</ele>
        <time>2017-07-21T09:43:04Z</time>
      </trkpt>
      <trkpt lat="47.91972" lon="7.04011">
        <ele>1137.8000488281</ele>
        <time>2017-07-21T09:43:11Z</time>
      </trkpt>
      <trkpt lat="47.91942" lon="7.0404">
        <ele>1137.8000488281</ele>
        <time>2017-07-21T09:43:18Z</time>
      </trkpt>
      <trkpt lat="47.91908" lon="7.04068">
        <ele>1137.8000488281</ele>
        <time>2017-07-21T09:43:25Z</time>
      </trkpt>
      <trkpt lat="47.91869" lon="7.04087">
        <ele>1137.8000488281</ele>
        <time>2017-07-21T09:43:32Z</time>
      </trkpt>
      <trkpt lat="47.9182" lon="7.04094">
        <ele>1138</ele>
        <time>2017-07-21T09:43:40Z</time>
      </trkpt>
      <trkpt lat="47.91814" lon="7.04096">
        <ele>1138</ele>
        <time>2017-07-21T09:43:41Z</time>
      </trkpt>
      <trkpt lat="47.91797" lon="7.04106">
        <ele>1138</ele>
        <time>2017-07-21T09:43:44Z</time>
      </trkpt>
      <trkpt lat="47.91792" lon="7.04111">
        <ele>1138</ele>
        <time>2017-07-21T09:43:45Z</time>
      </trkpt>
      <trkpt lat="47.91771" lon="7.0414">
        <ele>1138</ele>
        <time>2017-07-21T09:43:50Z</time>
      </trkpt>
      <trkpt lat="47.9174" lon="7.04185">
        <ele>1138</ele>
        <time>2017-07-21T09:43:58Z</time>
      </trkpt>
      <trkpt lat="47.91704" lon="7.04236">
        <ele>1138</ele>
        <time>2017-07-21T09:44:07Z</time>
      </trkpt>
      <trkpt lat="47.91662" lon="7.04283">
        <ele>1138</ele>
        <time>2017-07-21T09:44:16Z</time>
      </trkpt>
      <trkpt lat="47.91624" lon="7.04319">
        <ele>1138.1999511719</ele>
        <time>2017-07-21T09:44:24Z</time>
      </trkpt>
      <trkpt lat="47.91591" lon="7.04345">
        <ele>1138.1999511719</ele>
        <time>2017-07-21T09:44:31Z</time>
      </trkpt>
      <trkpt lat="47.91554" lon="7.04358">
        <ele>1138.4000244141</ele>
        <time>2017-07-21T09:44:37Z</time>
      </trkpt>
      <trkpt lat="47.91517" lon="7.04362">
        <ele>1138.1999511719</ele>
        <time>2017-07-21T09:44:43Z</time>
      </trkpt>
      <trkpt lat="47.91475" lon="7.04372">
        <ele>1138.1999511719</ele>
        <time>2017-07-21T09:44:50Z</time>
      </trkpt>
      <trkpt lat="47.91437" lon="7.0438">
        <ele>1138</ele>
        <time>2017-07-21T09:44:56Z</time>
      </trkpt>
      <trkpt lat="47.91405" lon="7.044">
        <ele>1138.1999511719</ele>
        <time>2017-07-21T09:45:02Z</time>
      </trkpt>
      <trkpt lat="47.91378" lon="7.04431">
        <ele>1138.1999511719</ele>
        <time>2017-07-21T09:45:08Z</time>
      </trkpt>
      <trkpt lat="47.91361" lon="7.04465">
        <ele>1138.1999511719</ele>
        <time>2017-07-21T09:45:13Z</time>
      </trkpt>
      <trkpt lat="47.91359" lon="7.04473">
        <ele>1138.1999511719</ele>
        <time>2017-07-21T09:45:14Z</time>
      </trkpt>
      <trkpt lat="47.91342" lon="7.04519">
        <ele>1138</ele>
        <time>2017-07-21T09:45:20Z</time>
      </trkpt>
      <trkpt lat="47.9132" lon="7.04569">
        <ele>1138</ele>
        <time>2017-07-21T09:45:27Z</time>
      </trkpt>
      <trkpt lat="47.91289" lon="7.0462">
        <ele>1138</ele>
        <time>2017-07-21T09:45:35Z</time>
      </trkpt>
      <trkpt lat="47.91255" lon="7.04679">
        <ele>1138.1999511719</ele>
        <time>2017-07-21T09:45:44Z</time>
      </trkpt>
      <trkpt lat="47.91246" lon="7.04719">
        <ele>1138.1999511719</ele>
        <time>2017-07-21T09:45:49Z</time>
      </trkpt>
      <trkpt lat="47.91244" lon="7.0477">
        <ele>1138</ele>
        <time>2017-07-21T09:45:55Z</time>
      </trkpt>
      <trkpt lat="47.91243" lon="7.04788">
        <ele>1138</ele>
        <time>2017-07-21T09:45:57Z</time>
      </trkpt>
      <trkpt lat="47.91238" lon="7.04815">
        <ele>1137.8000488281</ele>
        <time>2017-07-21T09:46:00Z</time>
      </trkpt>
      <trkpt lat="47.91223" lon="7.04843">
        <ele>1137.5999755859</ele>
        <time>2017-07-21T09:46:04Z</time>
      </trkpt>
      <trkpt lat="47.9121" lon="7.04863">
        <ele>1137.4000244141</ele>
        <time>2017-07-21T09:46:07Z</time>
      </trkpt>
      <trkpt lat="47.912" lon="7.04875">
        <ele>1137.4000244141</ele>
        <time>2017-07-21T09:46:09Z</time>
      </trkpt>
      <trkpt lat="47.91174" lon="7.04911">
        <ele>1137</ele>
        <time>2017-07-21T09:46:15Z</time>
      </trkpt>
      <trkpt lat="47.91167" lon="7.04922">
        <ele>1137</ele>
        <time>2017-07-21T09:46:17Z</time>
      </trkpt>
      <trkpt lat="47.91156" lon="7.04935">
        <ele>1137.1999511719</ele>
        <time>2017-07-21T09:46:20Z</time>
      </trkpt>
      <trkpt lat="47.9115" lon="7.04942">
        <ele>1137.4000244141</ele>
        <time>2017-07-21T09:46:22Z</time>
      </trkpt>
      <trkpt lat="47.91139" lon="7.04948">
        <ele>1138</ele>
        <time>2017-07-21T09:46:25Z</time>
      </trkpt>
      <trkpt lat="47.91132" lon="7.04952">
        <ele>1138.8000488281</ele>
        <time>2017-07-21T09:46:27Z</time>
      </trkpt>
      <trkpt lat="47.91121" lon="7.04956">
        <ele>1139.1999511719</ele>
        <time>2017-07-21T09:46:30Z</time>
      </trkpt>
      <trkpt lat="47.91108" lon="7.04956">
        <ele>1139.5999755859</ele>
        <time>2017-07-21T09:46:33Z</time>
      </trkpt>
      <trkpt lat="47.91077" lon="7.0495">
        <ele>1140.1999511719</ele>
        <time>2017-07-21T09:46:40Z</time>
      </trkpt>
      <trkpt lat="47.91046" lon="7.04946">
        <ele>1140.8000488281</ele>
        <time>2017-07-21T09:46:47Z</time>
      </trkpt>
      <trkpt lat="47.91028" lon="7.04949">
        <ele>1141.1999511719</ele>
        <time>2017-07-21T09:46:51Z</time>
      </trkpt>
      <trkpt lat="47.91015" lon="7.04955">
        <ele>1141.1999511719</ele>
        <time>2017-07-21T09:46:54Z</time>
      </trkpt>
      <trkpt lat="47.91011" lon="7.04958">
        <ele>1141.1999511719</ele>
        <time>2017-07-21T09:46:55Z</time>
      </trkpt>
      <trkpt lat="47.90997" lon="7.04975">
        <ele>1141.4000244141</ele>
        <time>2017-07-21T09:46:59Z</time>
      </trkpt>
      <trkpt lat="47.90992" lon="7.04986">
        <ele>1141.5999755859</ele>
        <time>2017-07-21T09:47:01Z</time>
      </trkpt>
      <trkpt lat="47.90988" lon="7.04997">
        <ele>1141.5999755859</ele>
        <time>2017-07-21T09:47:03Z</time>
      </trkpt>
      <trkpt lat="47.90983" lon="7.05007">
        <ele>1141.8000488281</ele>
        <time>2017-07-21T09:47:05Z</time>
      </trkpt>
      <trkpt lat="47.9098" lon="7.0503">
        <ele>1142.4000244141</ele>
        <time>2017-07-21T09:47:09Z</time>
      </trkpt>
      <trkpt lat="47.90981" lon="7.05043">
        <ele>1142.5999755859</ele>
        <time>2017-07-21T09:47:11Z</time>
      </trkpt>
      <trkpt lat="47.90982" lon="7.05061">
        <ele>1142.5999755859</ele>
        <time>2017-07-21T09:47:14Z</time>
      </trkpt>
      <trkpt lat="47.90987" lon="7.05087">
        <ele>1142.5999755859</ele>
        <time>2017-07-21T09:47:18Z</time>
      </trkpt>
      <trkpt lat="47.9099" lon="7.05094">
        <ele>1142.4000244141</ele>
        <time>2017-07-21T09:47:19Z</time>
      </trkpt>
      <trkpt lat="47.91011" lon="7.05138">
        <ele>1142.5999755859</ele>
        <time>2017-07-21T09:47:26Z</time>
      </trkpt>
      <trkpt lat="47.91037" lon="7.0519">
        <ele>1142.8000488281</ele>
        <time>2017-07-21T09:47:35Z</time>
      </trkpt>
      <trkpt lat="47.91039" lon="7.05196">
        <ele>1143</ele>
        <time>2017-07-21T09:47:36Z</time>
      </trkpt>
      <trkpt lat="47.91042" lon="7.05222">
        <ele>1143.1999511719</ele>
        <time>2017-07-21T09:47:40Z</time>
      </trkpt>
      <trkpt lat="47.91041" lon="7.05234">
        <ele>1143.4000244141</ele>
        <time>2017-07-21T09:47:42Z</time>
      </trkpt>
      <trkpt lat="47.91036" lon="7.05257">
        <ele>1143.8000488281</ele>
        <time>2017-07-21T09:47:46Z</time>
      </trkpt>
      <trkpt lat="47.9103" lon="7.05272">
        <ele>1144.4000244141</ele>
        <time>2017-07-21T09:47:49Z</time>
      </trkpt>
      <trkpt lat="47.91024" lon="7.05294">
        <ele>1144.8000488281</ele>
        <time>2017-07-21T09:47:53Z</time>
      </trkpt>
      <trkpt lat="47.91014" lon="7.05335">
        <ele>1145.1999511719</ele>
        <time>2017-07-21T09:48:00Z</time>
      </trkpt>
      <trkpt lat="47.91004" lon="7.05393">
        <ele>1145.4000244141</ele>
        <time>2017-07-21T09:48:09Z</time>
      </trkpt>
      <trkpt lat="47.91001" lon="7.05437">
        <ele>1146.5999755859</ele>
        <time>2017-07-21T09:48:16Z</time>
      </trkpt>
      <trkpt lat="47.90999" lon="7.05474">
        <ele>1147.5999755859</ele>
        <time>2017-07-21T09:48:22Z</time>
      </trkpt>
      <trkpt lat="47.90999" lon="7.0548">
        <ele>1147.8000488281</ele>
        <time>2017-07-21T09:48:23Z</time>
      </trkpt>
      <trkpt lat="47.91" lon="7.05505">
        <ele>1148.8000488281</ele>
        <time>2017-07-21T09:48:27Z</time>
      </trkpt>
      <trkpt lat="47.91002" lon="7.05518">
        <ele>1149</ele>
        <time>2017-07-21T09:48:29Z</time>
      </trkpt>
      <trkpt lat="47.91003" lon="7.05525">
        <ele>1149.1999511719</ele>
        <time>2017-07-21T09:48:30Z</time>
      </trkpt>
      <trkpt lat="47.91011" lon="7.05567">
        <ele>1149</ele>
        <time>2017-07-21T09:48:36Z</time>
      </trkpt>
      <trkpt lat="47.91025" lon="7.05602">
        <ele>1149</ele>
        <time>2017-07-21T09:48:42Z</time>
      </trkpt>
      <trkpt lat="47.91037" lon="7.05629">
        <ele>1150</ele>
        <time>2017-07-21T09:48:47Z</time>
      </trkpt>
      <trkpt lat="47.91043" lon="7.05645">
        <ele>1150.4000244141</ele>
        <time>2017-07-21T09:48:50Z</time>
      </trkpt>
      <trkpt lat="47.91046" lon="7.05663">
        <ele>1151</ele>
        <time>2017-07-21T09:48:53Z</time>
      </trkpt>
      <trkpt lat="47.91047" lon="7.0567">
        <ele>1151</ele>
        <time>2017-07-21T09:48:54Z</time>
      </trkpt>
      <trkpt lat="47.91047" lon="7.05677">
        <ele>1151</ele>
        <time>2017-07-21T09:48:55Z</time>
      </trkpt>
      <trkpt lat="47.9105" lon="7.05731">
        <ele>1150.5999755859</ele>
        <time>2017-07-21T09:49:02Z</time>
      </trkpt>
      <trkpt lat="47.91049" lon="7.05778">
        <ele>1150.4000244141</ele>
        <time>2017-07-21T09:49:08Z</time>
      </trkpt>
      <trkpt lat="47.9105" lon="7.05813">
        <ele>1150.5999755859</ele>
        <time>2017-07-21T09:49:13Z</time>
      </trkpt>
      <trkpt lat="47.91052" lon="7.05828">
        <ele>1150.8000488281</ele>
        <time>2017-07-21T09:49:15Z</time>
      </trkpt>
      <trkpt lat="47.91053" lon="7.0588">
        <ele>1151</ele>
        <time>2017-07-21T09:49:22Z</time>
      </trkpt>
      <trkpt lat="47.91056" lon="7.05896">
        <ele>1151</ele>
        <time>2017-07-21T09:49:24Z</time>
      </trkpt>
      <trkpt lat="47.91072" lon="7.05922">
        <ele>1151</ele>
        <time>2017-07-21T09:49:27Z</time>
      </trkpt>
      <trkpt lat="47.91075" lon="7.0593">
        <ele>1151</ele>
        <time>2017-07-21T09:49:28Z</time>
      </trkpt>
      <trkpt lat="47.91102" lon="7.05981">
        <ele>1150.8000488281</ele>
        <time>2017-07-21T09:49:35Z</time>
      </trkpt>
      <trkpt lat="47.91109" lon="7.05995">
        <ele>1151</ele>
        <time>2017-07-21T09:49:37Z</time>
      </trkpt>
      <trkpt lat="47.91124" lon="7.06017">
        <ele>1151.5999755859</ele>
        <time>2017-07-21T09:49:41Z</time>
      </trkpt>
      <trkpt lat="47.91134" lon="7.06049">
        <ele>1152</ele>
        <time>2017-07-21T09:49:46Z</time>
      </trkpt>
      <trkpt lat="47.91134" lon="7.06057">
        <ele>1152</ele>
        <time>2017-07-21T09:49:47Z</time>
      </trkpt>
      <trkpt lat="47.91131" lon="7.0608">
        <ele>1152.1999511719</ele>
        <time>2017-07-21T09:49:50Z</time>
      </trkpt>
      <trkpt lat="47.91129" lon="7.06094">
        <ele>1152.4000244141</ele>
        <time>2017-07-21T09:49:52Z</time>
      </trkpt>
      <trkpt lat="47.91127" lon="7.06108">
        <ele>1152.5999755859</ele>
        <time>2017-07-21T09:49:54Z</time>
      </trkpt>
      <trkpt lat="47.91123" lon="7.06129">
        <ele>1152.8000488281</ele>
        <time>2017-07-21T09:49:57Z</time>
      </trkpt>
      <trkpt lat="47.91118" lon="7.06158">
        <ele>1153</ele>
        <time>2017-07-21T09:50:01Z</time>
      </trkpt>
      <trkpt lat="47.91115" lon="7.06172">
        <ele>1153.4000244141</ele>
        <time>2017-07-21T09:50:03Z</time>
      </trkpt>
      <trkpt lat="47.91111" lon="7.06187">
        <ele>1153.5999755859</ele>
        <time>2017-07-21T09:50:05Z</time>
      </trkpt>
      <trkpt lat="47.91102" lon="7.0623">
        <ele>1154.1999511719</ele>
        <time>2017-07-21T09:50:11Z</time>
      </trkpt>
      <trkpt lat="47.91099" lon="7.06252">
        <ele>1154.1999511719</ele>
        <time>2017-07-21T09:50:14Z</time>
      </trkpt>
      <trkpt lat="47.91091" lon="7.06312">
        <ele>1154.8000488281</ele>
        <time>2017-07-21T09:50:22Z</time>
      </trkpt>
      <trkpt lat="47.91074" lon="7.06383">
        <ele>1154.5999755859</ele>
        <time>2017-07-21T09:50:31Z</time>
      </trkpt>
      <trkpt lat="47.91052" lon="7.06435">
        <ele>1154.4000244141</ele>
        <time>2017-07-21T09:50:38Z</time>
      </trkpt>
      <trkpt lat="47.91029" lon="7.06485">
        <ele>1155</ele>
        <time>2017-07-21T09:50:46Z</time>
      </trkpt>
      <trkpt lat="47.91026" lon="7.06491">
        <ele>1155.1999511719</ele>
        <time>2017-07-21T09:50:47Z</time>
      </trkpt>
      <trkpt lat="47.91008" lon="7.06532">
        <ele>1156</ele>
        <time>2017-07-21T09:50:54Z</time>
      </trkpt>
      <trkpt lat="47.90994" lon="7.06552">
        <ele>1156.1999511719</ele>
        <time>2017-07-21T09:50:58Z</time>
      </trkpt>
      <trkpt lat="47.90985" lon="7.06567">
        <ele>1156.5999755859</ele>
        <time>2017-07-21T09:51:01Z</time>
      </trkpt>
      <trkpt lat="47.9096" lon="7.06601">
        <ele>1156.8000488281</ele>
        <time>2017-07-21T09:51:08Z</time>
      </trkpt>
      <trkpt lat="47.90958" lon="7.06606">
        <ele>1156.8000488281</ele>
        <time>2017-07-21T09:51:09Z</time>
      </trkpt>
      <trkpt lat="47.90937" lon="7.06657">
        <ele>1157</ele>
        <time>2017-07-21T09:51:17Z</time>
      </trkpt>
      <trkpt lat="47.9093" lon="7.06671">
        <ele>1156.8000488281</ele>
        <time>2017-07-21T09:51:19Z</time>
      </trkpt>
      <trkpt lat="47.90914" lon="7.06693">
        <ele>1156.5999755859</ele>
        <time>2017-07-21T09:51:23Z</time>
      </trkpt>
      <trkpt lat="47.90886" lon="7.06716">
        <ele>1156.5999755859</ele>
        <time>2017-07-21T09:51:29Z</time>
      </trkpt>
      <trkpt lat="47.90863" lon="7.06738">
        <ele>1156.5999755859</ele>
        <time>2017-07-21T09:51:34Z</time>
      </trkpt>
      <trkpt lat="47.90856" lon="7.06749">
        <ele>1156.5999755859</ele>
        <time>2017-07-21T09:51:36Z</time>
      </trkpt>
      <trkpt lat="47.90847" lon="7.06766">
        <ele>1156.5999755859</ele>
        <time>2017-07-21T09:51:39Z</time>
      </trkpt>
      <trkpt lat="47.90841" lon="7.06775">
        <ele>1156.8000488281</ele>
        <time>2017-07-21T09:51:41Z</time>
      </trkpt>
      <trkpt lat="47.90828" lon="7.06788">
        <ele>1157.1999511719</ele>
        <time>2017-07-21T09:51:45Z</time>
      </trkpt>
      <trkpt lat="47.90825" lon="7.06792">
        <ele>1157.4000244141</ele>
        <time>2017-07-21T09:51:46Z</time>
      </trkpt>
      <trkpt lat="47.90804" lon="7.06823">
        <ele>1158.1999511719</ele>
        <time>2017-07-21T09:51:53Z</time>
      </trkpt>
      <trkpt lat="47.90795" lon="7.06838">
        <ele>1158.4000244141</ele>
        <time>2017-07-21T09:51:56Z</time>
      </trkpt>
      <trkpt lat="47.90786" lon="7.0686">
        <ele>1158.5999755859</ele>
        <time>2017-07-21T09:52:00Z</time>
      </trkpt>
      <trkpt lat="47.90775" lon="7.06899">
        <ele>1159.1999511719</ele>
        <time>2017-07-21T09:52:07Z</time>
      </trkpt>
      <trkpt lat="47.90773" lon="7.06909">
        <ele>1159.4000244141</ele>
        <time>2017-07-21T09:52:09Z</time>
      </trkpt>
      <trkpt lat="47.90767" lon="7.06941">
        <ele>1160</ele>
        <time>2017-07-21T09:52:15Z</time>
      </trkpt>
      <trkpt lat="47.90759" lon="7.06987">
        <ele>1160.4000244141</ele>
        <time>2017-07-21T09:52:23Z</time>
      </trkpt>
      <trkpt lat="47.90751" lon="7.07032">
        <ele>1161.1999511719</ele>
        <time>2017-07-21T09:52:31Z</time>
      </trkpt>
      <trkpt lat="47.90747" lon="7.07049">
        <ele>1161.5999755859</ele>
        <time>2017-07-21T09:52:34Z</time>
      </trkpt>
      <trkpt lat="47.90738" lon="7.07085">
        <ele>1161.8000488281</ele>
        <time>2017-07-21T09:52:40Z</time>
      </trkpt>
      <trkpt lat="47.90729" lon="7.07128">
        <ele>1162.1999511719</ele>
        <time>2017-07-21T09:52:48Z</time>
      </trkpt>
      <trkpt lat="47.90728" lon="7.07142">
        <ele>1162.5999755859</ele>
        <time>2017-07-21T09:52:51Z</time>
      </trkpt>
      <trkpt lat="47.90726" lon="7.07167">
        <ele>1163.5999755859</ele>
        <time>2017-07-21T09:52:56Z</time>
      </trkpt>
      <trkpt lat="47.90724" lon="7.07202">
        <ele>1164.8000488281</ele>
        <time>2017-07-21T09:53:03Z</time>
      </trkpt>
      <trkpt lat="47.90724" lon="7.07207">
        <ele>1165</ele>
        <time>2017-07-21T09:53:04Z</time>
      </trkpt>
      <trkpt lat="47.90722" lon="7.07226">
        <ele>1165.8000488281</ele>
        <time>2017-07-21T09:53:08Z</time>
      </trkpt>
      <trkpt lat="47.9072" lon="7.0725">
        <ele>1166.5999755859</ele>
        <time>2017-07-21T09:53:13Z</time>
      </trkpt>
      <trkpt lat="47.90719" lon="7.07255">
        <ele>1166.8000488281</ele>
        <time>2017-07-21T09:53:14Z</time>
      </trkpt>
      <trkpt lat="47.90718" lon="7.07273">
        <ele>1167.8000488281</ele>
        <time>2017-07-21T09:53:18Z</time>
      </trkpt>
      <trkpt lat="47.90717" lon="7.07283">
        <ele>1168.1999511719</ele>
        <time>2017-07-21T09:53:20Z</time>
      </trkpt>
      <trkpt lat="47.90715" lon="7.07301">
        <ele>1169</ele>
        <time>2017-07-21T09:53:24Z</time>
      </trkpt>
      <trkpt lat="47.90713" lon="7.0732">
        <ele>1169.4000244141</ele>
        <time>2017-07-21T09:53:28Z</time>
      </trkpt>
      <trkpt lat="47.90712" lon="7.07349">
        <ele>1170</ele>
        <time>2017-07-21T09:53:34Z</time>
      </trkpt>
      <trkpt lat="47.90712" lon="7.07359">
        <ele>1170.4000244141</ele>
        <time>2017-07-21T09:53:36Z</time>
      </trkpt>
      <trkpt lat="47.90714" lon="7.07394">
        <ele>1171.1999511719</ele>
        <time>2017-07-21T09:53:43Z</time>
      </trkpt>
      <trkpt lat="47.90713" lon="7.07404">
        <ele>1171.4000244141</ele>
        <time>2017-07-21T09:53:45Z</time>
      </trkpt>
      <trkpt lat="47.90716" lon="7.07435">
        <ele>1172.1999511719</ele>
        <time>2017-07-21T09:53:51Z</time>
      </trkpt>
      <trkpt lat="47.90716" lon="7.07441">
        <ele>1172.4000244141</ele>
        <time>2017-07-21T09:53:52Z</time>
      </trkpt>
      <trkpt lat="47.9072" lon="7.07483">
        <ele>1173</ele>
        <time>2017-07-21T09:54:00Z</time>
      </trkpt>
      <trkpt lat="47.90723" lon="7.07492">
        <ele>1173.1999511719</ele>
        <time>2017-07-21T09:54:02Z</time>
      </trkpt>
      <trkpt lat="47.9073" lon="7.07519">
        <ele>1174.1999511719</ele>
        <time>2017-07-21T09:54:08Z</time>
      </trkpt>
      <trkpt lat="47.90743" lon="7.07557">
        <ele>1175</ele>
        <time>2017-07-21T09:54:16Z</time>
      </trkpt>
      <trkpt lat="47.90751" lon="7.07585">
        <ele>1175.4000244141</ele>
        <time>2017-07-21T09:54:21Z</time>
      </trkpt>
      <trkpt lat="47.90756" lon="7.07602">
        <ele>1175.4000244141</ele>
        <time>2017-07-21T09:54:24Z</time>
      </trkpt>
      <trkpt lat="47.90764" lon="7.07637">
        <ele>1175.5999755859</ele>
        <time>2017-07-21T09:54:30Z</time>
      </trkpt>
      <trkpt lat="47.90767" lon="7.07649">
        <ele>1175.8000488281</ele>
        <time>2017-07-21T09:54:32Z</time>
      </trkpt>
      <trkpt lat="47.90775" lon="7.07687">
        <ele>1176.1999511719</ele>
        <time>2017-07-21T09:54:39Z</time>
      </trkpt>
      <trkpt lat="47.90776" lon="7.07693">
        <ele>1176.4000244141</ele>
        <time>2017-07-21T09:54:40Z</time>
      </trkpt>
      <trkpt lat="47.90778" lon="7.07728">
        <ele>1177</ele>
        <time>2017-07-21T09:54:46Z</time>
      </trkpt>
      <trkpt lat="47.90777" lon="7.07744">
        <ele>1177.5999755859</ele>
        <time>2017-07-21T09:54:49Z</time>
      </trkpt>
      <trkpt lat="47.90775" lon="7.07772">
        <ele>1178.1999511719</ele>
        <time>2017-07-21T09:54:54Z</time>
      </trkpt>
      <trkpt lat="47.90775" lon="7.07783">
        <ele>1178.5999755859</ele>
        <time>2017-07-21T09:54:56Z</time>
      </trkpt>
      <trkpt lat="47.90772" lon="7.07815">
        <ele>1179.1999511719</ele>
        <time>2017-07-21T09:55:02Z</time>
      </trkpt>
      <trkpt lat="47.90773" lon="7.07825">
        <ele>1179.5999755859</ele>
        <time>2017-07-21T09:55:04Z</time>
      </trkpt>
      <trkpt lat="47.90775" lon="7.07853">
        <ele>1180.1999511719</ele>
        <time>2017-07-21T09:55:09Z</time>
      </trkpt>
      <trkpt lat="47.90783" lon="7.0788">
        <ele>1180.4000244141</ele>
        <time>2017-07-21T09:55:14Z</time>
      </trkpt>
      <trkpt lat="47.90785" lon="7.07886">
        <ele>1180.5999755859</ele>
        <time>2017-07-21T09:55:15Z</time>
      </trkpt>
      <trkpt lat="47.90791" lon="7.07913">
        <ele>1181.4000244141</ele>
        <time>2017-07-21T09:55:21Z</time>
      </trkpt>
      <trkpt lat="47.90792" lon="7.07917">
        <ele>1181.5999755859</ele>
        <time>2017-07-21T09:55:22Z</time>
      </trkpt>
      <trkpt lat="47.90788" lon="7.07937">
        <ele>1182.1999511719</ele>
        <time>2017-07-21T09:55:26Z</time>
      </trkpt>
      <trkpt lat="47.90781" lon="7.07959">
        <ele>1182.5999755859</ele>
        <time>2017-07-21T09:55:30Z</time>
      </trkpt>
      <trkpt lat="47.90775" lon="7.07978">
        <ele>1183</ele>
        <time>2017-07-21T09:55:34Z</time>
      </trkpt>
      <trkpt lat="47.90769" lon="7.08016">
        <ele>1183.4000244141</ele>
        <time>2017-07-21T09:55:41Z</time>
      </trkpt>
      <trkpt lat="47.90764" lon="7.0805">
        <ele>1183.8000488281</ele>
        <time>2017-07-21T09:55:47Z</time>
      </trkpt>
      <trkpt lat="47.90763" lon="7.08057">
        <ele>1183.8000488281</ele>
        <time>2017-07-21T09:55:48Z</time>
      </trkpt>
      <trkpt lat="47.90764" lon="7.08088">
        <ele>1184</ele>
        <time>2017-07-21T09:55:53Z</time>
      </trkpt>
      <trkpt lat="47.90765" lon="7.08101">
        <ele>1184</ele>
        <time>2017-07-21T09:55:55Z</time>
      </trkpt>
      <trkpt lat="47.90766" lon="7.08161">
        <ele>1184</ele>
        <time>2017-07-21T09:56:03Z</time>
      </trkpt>
      <trkpt lat="47.90767" lon="7.08191">
        <ele>1184</ele>
        <time>2017-07-21T09:56:07Z</time>
      </trkpt>
      <trkpt lat="47.90769" lon="7.08205">
        <ele>1184.1999511719</ele>
        <time>2017-07-21T09:56:09Z</time>
      </trkpt>
      <trkpt lat="47.90772" lon="7.08218">
        <ele>1184.1999511719</ele>
        <time>2017-07-21T09:56:11Z</time>
      </trkpt>
      <trkpt lat="47.90777" lon="7.08244">
        <ele>1184.5999755859</ele>
        <time>2017-07-21T09:56:15Z</time>
      </trkpt>
      <trkpt lat="47.90784" lon="7.08269">
        <ele>1184.8000488281</ele>
        <time>2017-07-21T09:56:19Z</time>
      </trkpt>
      <trkpt lat="47.90787" lon="7.08282">
        <ele>1184.8000488281</ele>
        <time>2017-07-21T09:56:21Z</time>
      </trkpt>
      <trkpt lat="47.90791" lon="7.08295">
        <ele>1185</ele>
        <time>2017-07-21T09:56:23Z</time>
      </trkpt>
      <trkpt lat="47.90799" lon="7.08319">
        <ele>1185.4000244141</ele>
        <time>2017-07-21T09:56:27Z</time>
      </trkpt>
      <trkpt lat="47.90809" lon="7.08364">
        <ele>1185.8000488281</ele>
        <time>2017-07-21T09:56:34Z</time>
      </trkpt>
      <trkpt lat="47.90811" lon="7.08371">
        <ele>1185.8000488281</ele>
        <time>2017-07-21T09:56:35Z</time>
      </trkpt>
      <trkpt lat="47.90823" lon="7.08414">
        <ele>1186</ele>
        <time>2017-07-21T09:56:42Z</time>
      </trkpt>
      <trkpt lat="47.90837" lon="7.08452">
        <ele>1186.4000244141</ele>
        <time>2017-07-21T09:56:48Z</time>
      </trkpt>
      <trkpt lat="47.90838" lon="7.0846">
        <ele>1186.4000244141</ele>
        <time>2017-07-21T09:56:49Z</time>
      </trkpt>
      <trkpt lat="47.9084" lon="7.08474">
        <ele>1186.4000244141</ele>
        <time>2017-07-21T09:56:51Z</time>
      </trkpt>
      <trkpt lat="47.90842" lon="7.08486">
        <ele>1186.5999755859</ele>
        <time>2017-07-21T09:56:53Z</time>
      </trkpt>
      <trkpt lat="47.90844" lon="7.08505">
        <ele>1186.8000488281</ele>
        <time>2017-07-21T09:56:56Z</time>
      </trkpt>
      <trkpt lat="47.90844" lon="7.08534">
        <ele>1187.4000244141</ele>
        <time>2017-07-21T09:57:01Z</time>
      </trkpt>
      <trkpt lat="47.90817" lon="7.08578">
        <ele>1187.8000488281</ele>
        <time>2017-07-21T09:57:06Z</time>
      </trkpt>
      <trkpt lat="47.90813" lon="7.08585">
        <ele>1187.8000488281</ele>
        <time>2017-07-21T09:57:07Z</time>
      </trkpt>
      <trkpt lat="47.90797" lon="7.08616">
        <ele>1188.1999511719</ele>
        <time>2017-07-21T09:57:12Z</time>
      </trkpt>
      <trkpt lat="47.90794" lon="7.08621">
        <ele>1188.1999511719</ele>
        <time>2017-07-21T09:57:13Z</time>
      </trkpt>
      <trkpt lat="47.90783" lon="7.08634">
        <ele>1188.4000244141</ele>
        <time>2017-07-21T09:57:16Z</time>
      </trkpt>
      <trkpt lat="47.9077" lon="7.08635">
        <ele>1188.5999755859</ele>
        <time>2017-07-21T09:57:18Z</time>
      </trkpt>
      <trkpt lat="47.90754" lon="7.08636">
        <ele>1189</ele>
        <time>2017-07-21T09:57:21Z</time>
      </trkpt>
      <trkpt lat="47.90748" lon="7.08635">
        <ele>1189.1999511719</ele>
        <time>2017-07-21T09:57:22Z</time>
      </trkpt>
      <trkpt lat="47.90738" lon="7.08635">
        <ele>1189.4000244141</ele>
        <time>2017-07-21T09:57:24Z</time>
      </trkpt>
      <trkpt lat="47.90733" lon="7.08635">
        <ele>1189.5999755859</ele>
        <time>2017-07-21T09:57:25Z</time>
      </trkpt>
      <trkpt lat="47.90697" lon="7.0864">
        <ele>1190</ele>
        <time>2017-07-21T09:57:33Z</time>
      </trkpt>
      <trkpt lat="47.90675" lon="7.08653">
        <ele>1190</ele>
        <time>2017-07-21T09:57:38Z</time>
      </trkpt>
      <trkpt lat="47.90667" lon="7.08658">
        <ele>1190.1999511719</ele>
        <time>2017-07-21T09:57:40Z</time>
      </trkpt>
      <trkpt lat="47.90641" lon="7.08682">
        <ele>1190.5999755859</ele>
        <time>2017-07-21T09:57:47Z</time>
      </trkpt>
      <trkpt lat="47.90624" lon="7.087">
        <ele>1191.1999511719</ele>
        <time>2017-07-21T09:57:52Z</time>
      </trkpt>
      <trkpt lat="47.90621" lon="7.08706">
        <ele>1191.1999511719</ele>
        <time>2017-07-21T09:57:53Z</time>
      </trkpt>
      <trkpt lat="47.90606" lon="7.08736">
        <ele>1191.8000488281</ele>
        <time>2017-07-21T09:57:59Z</time>
      </trkpt>
      <trkpt lat="47.90603" lon="7.0876">
        <ele>1192.1999511719</ele>
        <time>2017-07-21T09:58:03Z</time>
      </trkpt>
      <trkpt lat="47.90603" lon="7.08766">
        <ele>1192.4000244141</ele>
        <time>2017-07-21T09:58:04Z</time>
      </trkpt>
      <trkpt lat="47.90594" lon="7.08823">
        <ele>1193</ele>
        <time>2017-07-21T09:58:13Z</time>
      </trkpt>
      <trkpt lat="47.90588" lon="7.08855">
        <ele>1193.1999511719</ele>
        <time>2017-07-21T09:58:18Z</time>
      </trkpt>
      <trkpt lat="47.90586" lon="7.08874">
        <ele>1193.4000244141</ele>
        <time>2017-07-21T09:58:21Z</time>
      </trkpt>
      <trkpt lat="47.9058" lon="7.08933">
        <ele>1193.1999511719</ele>
        <time>2017-07-21T09:58:29Z</time>
      </trkpt>
      <trkpt lat="47.90574" lon="7.08964">
        <ele>1192.8000488281</ele>
        <time>2017-07-21T09:58:33Z</time>
      </trkpt>
      <trkpt lat="47.90569" lon="7.08978">
        <ele>1192.5999755859</ele>
        <time>2017-07-21T09:58:35Z</time>
      </trkpt>
      <trkpt lat="47.90554" lon="7.08995">
        <ele>1192.1999511719</ele>
        <time>2017-07-21T09:58:39Z</time>
      </trkpt>
      <trkpt lat="47.9055" lon="7.08999">
        <ele>1192.1999511719</ele>
        <time>2017-07-21T09:58:40Z</time>
      </trkpt>
      <trkpt lat="47.90529" lon="7.09015">
        <ele>1192</ele>
        <time>2017-07-21T09:58:46Z</time>
      </trkpt>
      <trkpt lat="47.90521" lon="7.09018">
        <ele>1192.1999511719</ele>
        <time>2017-07-21T09:58:50Z</time>
      </trkpt>
      <trkpt lat="47.9052" lon="7.09023">
        <ele>1191.8000488281</ele>
        <time>2017-07-21T10:00:41Z</time>
      </trkpt>
      <trkpt lat="47.9052" lon="7.09025">
        <ele>1191.8000488281</ele>
        <time>2017-07-21T10:00:42Z</time>
      </trkpt>
      <trkpt lat="47.90514" lon="7.09028">
        <ele>1192</ele>
        <time>2017-07-21T10:00:46Z</time>
      </trkpt>
      <trkpt lat="47.90511" lon="7.09032">
        <ele>1192.1999511719</ele>
        <time>2017-07-21T10:00:48Z</time>
      </trkpt>
      <trkpt lat="47.90505" lon="7.09041">
        <ele>1192.5999755859</ele>
        <time>2017-07-21T10:00:52Z</time>
      </trkpt>
      <trkpt lat="47.90497" lon="7.09052">
        <ele>1193.1999511719</ele>
        <time>2017-07-21T10:00:57Z</time>
      </trkpt>
      <trkpt lat="47.90494" lon="7.09057">
        <ele>1193.5999755859</ele>
        <time>2017-07-21T10:00:59Z</time>
      </trkpt>
      <trkpt lat="47.90489" lon="7.09065">
        <ele>1194.1999511719</ele>
        <time>2017-07-21T10:01:03Z</time>
      </trkpt>
      <trkpt lat="47.90488" lon="7.09066">
        <ele>1194.4000244141</ele>
        <time>2017-07-21T10:01:04Z</time>
      </trkpt>
      <trkpt lat="47.9048" lon="7.09075">
        <ele>1195.1999511719</ele>
        <time>2017-07-21T10:01:09Z</time>
      </trkpt>
      <trkpt lat="47.90479" lon="7.09077">
        <ele>1195.4000244141</ele>
        <time>2017-07-21T10:01:10Z</time>
      </trkpt>
      <trkpt lat="47.90472" lon="7.09088">
        <ele>1196.5999755859</ele>
        <time>2017-07-21T10:01:16Z</time>
      </trkpt>
      <trkpt lat="47.90471" lon="7.0909">
        <ele>1196.5999755859</ele>
        <time>2017-07-21T10:01:17Z</time>
      </trkpt>
      <trkpt lat="47.90465" lon="7.09103">
        <ele>1197.5999755859</ele>
        <time>2017-07-21T10:01:23Z</time>
      </trkpt>
      <trkpt lat="47.90464" lon="7.09105">
        <ele>1197.8000488281</ele>
        <time>2017-07-21T10:01:24Z</time>
      </trkpt>
      <trkpt lat="47.90463" lon="7.0911">
        <ele>1198</ele>
        <time>2017-07-21T10:01:26Z</time>
      </trkpt>
      <trkpt lat="47.90459" lon="7.09119">
        <ele>1198.5999755859</ele>
        <time>2017-07-21T10:01:30Z</time>
      </trkpt>
      <trkpt lat="47.90458" lon="7.09122">
        <ele>1198.8000488281</ele>
        <time>2017-07-21T10:01:31Z</time>
      </trkpt>
      <trkpt lat="47.90457" lon="7.09138">
        <ele>1199.5999755859</ele>
        <time>2017-07-21T10:01:37Z</time>
      </trkpt>
      <trkpt lat="47.90456" lon="7.0914">
        <ele>1199.8000488281</ele>
        <time>2017-07-21T10:01:38Z</time>
      </trkpt>
      <trkpt lat="47.90457" lon="7.09143">
        <ele>1200</ele>
        <time>2017-07-21T10:01:39Z</time>
      </trkpt>
      <trkpt lat="47.90458" lon="7.0915">
        <ele>1200.5999755859</ele>
        <time>2017-07-21T10:01:42Z</time>
      </trkpt>
      <trkpt lat="47.90459" lon="7.09159">
        <ele>1201</ele>
        <time>2017-07-21T10:01:45Z</time>
      </trkpt>
      <trkpt lat="47.90458" lon="7.09172">
        <ele>1201.8000488281</ele>
        <time>2017-07-21T10:01:50Z</time>
      </trkpt>
      <trkpt lat="47.90458" lon="7.09178">
        <ele>1202</ele>
        <time>2017-07-21T10:01:52Z</time>
      </trkpt>
      <trkpt lat="47.90461" lon="7.09191">
        <ele>1202.8000488281</ele>
        <time>2017-07-21T10:01:57Z</time>
      </trkpt>
      <trkpt lat="47.90462" lon="7.09196">
        <ele>1203.1999511719</ele>
        <time>2017-07-21T10:01:59Z</time>
      </trkpt>
      <trkpt lat="47.90465" lon="7.09211">
        <ele>1204</ele>
        <time>2017-07-21T10:02:05Z</time>
      </trkpt>
      <trkpt lat="47.90466" lon="7.09213">
        <ele>1204.1999511719</ele>
        <time>2017-07-21T10:02:06Z</time>
      </trkpt>
      <trkpt lat="47.90471" lon="7.09231">
        <ele>1205.4000244141</ele>
        <time>2017-07-21T10:02:13Z</time>
      </trkpt>
      <trkpt lat="47.90471" lon="7.09234">
        <ele>1205.5999755859</ele>
        <time>2017-07-21T10:02:14Z</time>
      </trkpt>
      <trkpt lat="47.90475" lon="7.09248">
        <ele>1206.5999755859</ele>
        <time>2017-07-21T10:02:20Z</time>
      </trkpt>
      <trkpt lat="47.90476" lon="7.09254">
        <ele>1206.8000488281</ele>
        <time>2017-07-21T10:02:22Z</time>
      </trkpt>
      <trkpt lat="47.90481" lon="7.09268">
        <ele>1207.5999755859</ele>
        <time>2017-07-21T10:02:28Z</time>
      </trkpt>
      <trkpt lat="47.90482" lon="7.0927">
        <ele>1207.8000488281</ele>
        <time>2017-07-21T10:02:29Z</time>
      </trkpt>
      <trkpt lat="47.90487" lon="7.09281">
        <ele>1208.5999755859</ele>
        <time>2017-07-21T10:02:34Z</time>
      </trkpt>
      <trkpt lat="47.90488" lon="7.09284">
        <ele>1208.8000488281</ele>
        <time>2017-07-21T10:02:35Z</time>
      </trkpt>
      <trkpt lat="47.90493" lon="7.09298">
        <ele>1209.8000488281</ele>
        <time>2017-07-21T10:02:41Z</time>
      </trkpt>
      <trkpt lat="47.90494" lon="7.09303">
        <ele>1210</ele>
        <time>2017-07-21T10:02:43Z</time>
      </trkpt>
      <trkpt lat="47.90497" lon="7.0931">
        <ele>1210.4000244141</ele>
        <time>2017-07-21T10:02:46Z</time>
      </trkpt>
      <trkpt lat="47.90499" lon="7.09314">
        <ele>1210.8000488281</ele>
        <time>2017-07-21T10:02:48Z</time>
      </trkpt>
      <trkpt lat="47.905" lon="7.09317">
        <ele>1211</ele>
        <time>2017-07-21T10:02:49Z</time>
      </trkpt>
      <trkpt lat="47.90503" lon="7.09326">
        <ele>1211.8000488281</ele>
        <time>2017-07-21T10:02:53Z</time>
      </trkpt>
      <trkpt lat="47.90507" lon="7.0934">
        <ele>1212.8000488281</ele>
        <time>2017-07-21T10:02:59Z</time>
      </trkpt>
      <trkpt lat="47.90508" lon="7.09342">
        <ele>1212.8000488281</ele>
        <time>2017-07-21T10:03:00Z</time>
      </trkpt>
      <trkpt lat="47.90514" lon="7.09356">
        <ele>1213.8000488281</ele>
        <time>2017-07-21T10:03:06Z</time>
      </trkpt>
      <trkpt lat="47.90516" lon="7.09361">
        <ele>1214</ele>
        <time>2017-07-21T10:03:08Z</time>
      </trkpt>
      <trkpt lat="47.9052" lon="7.09374">
        <ele>1215.1999511719</ele>
        <time>2017-07-21T10:03:14Z</time>
      </trkpt>
      <trkpt lat="47.90521" lon="7.09377">
        <ele>1215.1999511719</ele>
        <time>2017-07-21T10:03:15Z</time>
      </trkpt>
      <trkpt lat="47.90525" lon="7.09389">
        <ele>1216.1999511719</ele>
        <time>2017-07-21T10:03:20Z</time>
      </trkpt>
      <trkpt lat="47.90528" lon="7.09395">
        <ele>1216.8000488281</ele>
        <time>2017-07-21T10:03:23Z</time>
      </trkpt>
      <trkpt lat="47.90532" lon="7.09405">
        <ele>1217.4000244141</ele>
        <time>2017-07-21T10:03:27Z</time>
      </trkpt>
      <trkpt lat="47.90535" lon="7.09413">
        <ele>1218</ele>
        <time>2017-07-21T10:03:30Z</time>
      </trkpt>
      <trkpt lat="47.90536" lon="7.09421">
        <ele>1218.4000244141</ele>
        <time>2017-07-21T10:03:33Z</time>
      </trkpt>
      <trkpt lat="47.90541" lon="7.09436">
        <ele>1219.4000244141</ele>
        <time>2017-07-21T10:03:39Z</time>
      </trkpt>
      <trkpt lat="47.90541" lon="7.09438">
        <ele>1219.4000244141</ele>
        <time>2017-07-21T10:03:40Z</time>
      </trkpt>
      <trkpt lat="47.90544" lon="7.09451">
        <ele>1220.4000244141</ele>
        <time>2017-07-21T10:03:45Z</time>
      </trkpt>
      <trkpt lat="47.90545" lon="7.09453">
        <ele>1220.5999755859</ele>
        <time>2017-07-21T10:03:46Z</time>
      </trkpt>
      <trkpt lat="47.9055" lon="7.09471">
        <ele>1221.5999755859</ele>
        <time>2017-07-21T10:03:53Z</time>
      </trkpt>
      <trkpt lat="47.90556" lon="7.09491">
        <ele>1222.8000488281</ele>
        <time>2017-07-21T10:04:01Z</time>
      </trkpt>
      <trkpt lat="47.90559" lon="7.09504">
        <ele>1223.8000488281</ele>
        <time>2017-07-21T10:04:06Z</time>
      </trkpt>
      <trkpt lat="47.90562" lon="7.09513">
        <ele>1224.5999755859</ele>
        <time>2017-07-21T10:04:10Z</time>
      </trkpt>
      <trkpt lat="47.90562" lon="7.09518">
        <ele>1225</ele>
        <time>2017-07-21T10:04:12Z</time>
      </trkpt>
      <trkpt lat="47.90564" lon="7.09522">
        <ele>1225.1999511719</ele>
        <time>2017-07-21T10:04:14Z</time>
      </trkpt>
      <trkpt lat="47.90565" lon="7.09527">
        <ele>1225.4000244141</ele>
        <time>2017-07-21T10:04:16Z</time>
      </trkpt>
      <trkpt lat="47.90567" lon="7.09535">
        <ele>1226</ele>
        <time>2017-07-21T10:04:19Z</time>
      </trkpt>
      <trkpt lat="47.90568" lon="7.09545">
        <ele>1226.8000488281</ele>
        <time>2017-07-21T10:04:23Z</time>
      </trkpt>
      <trkpt lat="47.90568" lon="7.0955">
        <ele>1227.1999511719</ele>
        <time>2017-07-21T10:04:25Z</time>
      </trkpt>
      <trkpt lat="47.9057" lon="7.0957">
        <ele>1228.1999511719</ele>
        <time>2017-07-21T10:04:32Z</time>
      </trkpt>
      <trkpt lat="47.9057" lon="7.09586">
        <ele>1229.4000244141</ele>
        <time>2017-07-21T10:04:38Z</time>
      </trkpt>
      <trkpt lat="47.9057" lon="7.09594">
        <ele>1229.8000488281</ele>
        <time>2017-07-21T10:04:41Z</time>
      </trkpt>
      <trkpt lat="47.90571" lon="7.09605">
        <ele>1230.5999755859</ele>
        <time>2017-07-21T10:04:45Z</time>
      </trkpt>
      <trkpt lat="47.90572" lon="7.09616">
        <ele>1231.1999511719</ele>
        <time>2017-07-21T10:04:49Z</time>
      </trkpt>
      <trkpt lat="47.90573" lon="7.09625">
        <ele>1231.5999755859</ele>
        <time>2017-07-21T10:04:52Z</time>
      </trkpt>
      <trkpt lat="47.90573" lon="7.0964">
        <ele>1232.8000488281</ele>
        <time>2017-07-21T10:04:57Z</time>
      </trkpt>
      <trkpt lat="47.90573" lon="7.09642">
        <ele>1233</ele>
        <time>2017-07-21T10:04:58Z</time>
      </trkpt>
      <trkpt lat="47.90574" lon="7.09653">
        <ele>1233.8000488281</ele>
        <time>2017-07-21T10:05:02Z</time>
      </trkpt>
      <trkpt lat="47.90574" lon="7.09668">
        <ele>1234.4000244141</ele>
        <time>2017-07-21T10:05:07Z</time>
      </trkpt>
      <trkpt lat="47.90573" lon="7.09676">
        <ele>1234.8000488281</ele>
        <time>2017-07-21T10:05:10Z</time>
      </trkpt>
      <trkpt lat="47.90572" lon="7.09688">
        <ele>1235.8000488281</ele>
        <time>2017-07-21T10:05:15Z</time>
      </trkpt>
      <trkpt lat="47.90572" lon="7.09691">
        <ele>1236</ele>
        <time>2017-07-21T10:05:16Z</time>
      </trkpt>
      <trkpt lat="47.9057" lon="7.09705">
        <ele>1237</ele>
        <time>2017-07-21T10:05:21Z</time>
      </trkpt>
      <trkpt lat="47.90569" lon="7.09711">
        <ele>1237.4000244141</ele>
        <time>2017-07-21T10:05:23Z</time>
      </trkpt>
      <trkpt lat="47.90569" lon="7.09726">
        <ele>1238.1999511719</ele>
        <time>2017-07-21T10:05:28Z</time>
      </trkpt>
      <trkpt lat="47.90569" lon="7.09734">
        <ele>1238.5999755859</ele>
        <time>2017-07-21T10:05:31Z</time>
      </trkpt>
      <trkpt lat="47.9057" lon="7.09746">
        <ele>1239.1999511719</ele>
        <time>2017-07-21T10:05:35Z</time>
      </trkpt>
      <trkpt lat="47.90571" lon="7.09757">
        <ele>1239.8000488281</ele>
        <time>2017-07-21T10:05:39Z</time>
      </trkpt>
      <trkpt lat="47.90572" lon="7.09762">
        <ele>1240.1999511719</ele>
        <time>2017-07-21T10:05:41Z</time>
      </trkpt>
      <trkpt lat="47.90574" lon="7.09781">
        <ele>1241.4000244141</ele>
        <time>2017-07-21T10:05:48Z</time>
      </trkpt>
      <trkpt lat="47.90575" lon="7.09798">
        <ele>1242.4000244141</ele>
        <time>2017-07-21T10:05:54Z</time>
      </trkpt>
      <trkpt lat="47.90576" lon="7.09806">
        <ele>1243</ele>
        <time>2017-07-21T10:05:57Z</time>
      </trkpt>
      <trkpt lat="47.90576" lon="7.09817">
        <ele>1243.5999755859</ele>
        <time>2017-07-21T10:06:01Z</time>
      </trkpt>
      <trkpt lat="47.90577" lon="7.09831">
        <ele>1244.5999755859</ele>
        <time>2017-07-21T10:06:06Z</time>
      </trkpt>
      <trkpt lat="47.90578" lon="7.0985">
        <ele>1245.5999755859</ele>
        <time>2017-07-21T10:06:13Z</time>
      </trkpt>
      <trkpt lat="47.90578" lon="7.09853">
        <ele>1245.8000488281</ele>
        <time>2017-07-21T10:06:14Z</time>
      </trkpt>
      <trkpt lat="47.90579" lon="7.09868">
        <ele>1246.8000488281</ele>
        <time>2017-07-21T10:06:20Z</time>
      </trkpt>
      <trkpt lat="47.90579" lon="7.09879">
        <ele>1247.4000244141</ele>
        <time>2017-07-21T10:06:24Z</time>
      </trkpt>
      <trkpt lat="47.90579" lon="7.09887">
        <ele>1247.8000488281</ele>
        <time>2017-07-21T10:06:27Z</time>
      </trkpt>
      <trkpt lat="47.90579" lon="7.09901">
        <ele>1248.8000488281</ele>
        <time>2017-07-21T10:06:32Z</time>
      </trkpt>
      <trkpt lat="47.9058" lon="7.09903">
        <ele>1248.8000488281</ele>
        <time>2017-07-21T10:06:33Z</time>
      </trkpt>
      <trkpt lat="47.9058" lon="7.0992">
        <ele>1250</ele>
        <time>2017-07-21T10:06:39Z</time>
      </trkpt>
      <trkpt lat="47.90581" lon="7.09938">
        <ele>1251</ele>
        <time>2017-07-21T10:06:46Z</time>
      </trkpt>
      <trkpt lat="47.90581" lon="7.09953">
        <ele>1252</ele>
        <time>2017-07-21T10:06:52Z</time>
      </trkpt>
      <trkpt lat="47.90581" lon="7.09958">
        <ele>1252.4000244141</ele>
        <time>2017-07-21T10:06:54Z</time>
      </trkpt>
      <trkpt lat="47.90581" lon="7.0997">
        <ele>1253</ele>
        <time>2017-07-21T10:06:58Z</time>
      </trkpt>
      <trkpt lat="47.90581" lon="7.09973">
        <ele>1253.1999511719</ele>
        <time>2017-07-21T10:06:59Z</time>
      </trkpt>
      <trkpt lat="47.90582" lon="7.09988">
        <ele>1254.1999511719</ele>
        <time>2017-07-21T10:07:04Z</time>
      </trkpt>
      <trkpt lat="47.90581" lon="7.09999">
        <ele>1254.8000488281</ele>
        <time>2017-07-21T10:07:08Z</time>
      </trkpt>
      <trkpt lat="47.90582" lon="7.10007">
        <ele>1255.1999511719</ele>
        <time>2017-07-21T10:07:11Z</time>
      </trkpt>
      <trkpt lat="47.90582" lon="7.10022">
        <ele>1256</ele>
        <time>2017-07-21T10:07:16Z</time>
      </trkpt>
      <trkpt lat="47.90582" lon="7.10025">
        <ele>1256.4000244141</ele>
        <time>2017-07-21T10:07:17Z</time>
      </trkpt>
      <trkpt lat="47.90584" lon="7.10046">
        <ele>1257.4000244141</ele>
        <time>2017-07-21T10:07:24Z</time>
      </trkpt>
      <trkpt lat="47.90584" lon="7.10049">
        <ele>1257.5999755859</ele>
        <time>2017-07-21T10:07:25Z</time>
      </trkpt>
      <trkpt lat="47.90585" lon="7.10063">
        <ele>1258.5999755859</ele>
        <time>2017-07-21T10:07:30Z</time>
      </trkpt>
      <trkpt lat="47.90586" lon="7.10075">
        <ele>1259.4000244141</ele>
        <time>2017-07-21T10:07:34Z</time>
      </trkpt>
      <trkpt lat="47.90587" lon="7.1008">
        <ele>1259.5999755859</ele>
        <time>2017-07-21T10:07:36Z</time>
      </trkpt>
      <trkpt lat="47.90586" lon="7.10094">
        <ele>1260.5999755859</ele>
        <time>2017-07-21T10:07:41Z</time>
      </trkpt>
      <trkpt lat="47.90586" lon="7.10111">
        <ele>1261.5999755859</ele>
        <time>2017-07-21T10:07:47Z</time>
      </trkpt>
      <trkpt lat="47.90586" lon="7.10117">
        <ele>1261.8000488281</ele>
        <time>2017-07-21T10:07:49Z</time>
      </trkpt>
      <trkpt lat="47.90586" lon="7.10136">
        <ele>1263</ele>
        <time>2017-07-21T10:07:56Z</time>
      </trkpt>
      <trkpt lat="47.90585" lon="7.10158">
        <ele>1264</ele>
        <time>2017-07-21T10:08:04Z</time>
      </trkpt>
      <trkpt lat="47.90585" lon="7.10181">
        <ele>1265.1999511719</ele>
        <time>2017-07-21T10:08:12Z</time>
      </trkpt>
      <trkpt lat="47.90588" lon="7.10195">
        <ele>1266.1999511719</ele>
        <time>2017-07-21T10:08:17Z</time>
      </trkpt>
      <trkpt lat="47.9059" lon="7.10204">
        <ele>1266.4000244141</ele>
        <time>2017-07-21T10:08:20Z</time>
      </trkpt>
      <trkpt lat="47.90593" lon="7.1022">
        <ele>1267.1999511719</ele>
        <time>2017-07-21T10:08:26Z</time>
      </trkpt>
      <trkpt lat="47.90596" lon="7.10229">
        <ele>1268</ele>
        <time>2017-07-21T10:08:29Z</time>
      </trkpt>
      <trkpt lat="47.90598" lon="7.10237">
        <ele>1268.4000244141</ele>
        <time>2017-07-21T10:08:32Z</time>
      </trkpt>
      <trkpt lat="47.90603" lon="7.10258">
        <ele>1269.4000244141</ele>
        <time>2017-07-21T10:08:39Z</time>
      </trkpt>
      <trkpt lat="47.9061" lon="7.10282">
        <ele>1270.5999755859</ele>
        <time>2017-07-21T10:08:47Z</time>
      </trkpt>
      <trkpt lat="47.90612" lon="7.10291">
        <ele>1271</ele>
        <time>2017-07-21T10:08:50Z</time>
      </trkpt>
      <trkpt lat="47.90615" lon="7.10299">
        <ele>1271.8000488281</ele>
        <time>2017-07-21T10:08:53Z</time>
      </trkpt>
      <trkpt lat="47.90619" lon="7.10313">
        <ele>1272.5999755859</ele>
        <time>2017-07-21T10:08:58Z</time>
      </trkpt>
      <trkpt lat="47.90621" lon="7.10319">
        <ele>1273</ele>
        <time>2017-07-21T10:09:00Z</time>
      </trkpt>
      <trkpt lat="47.90626" lon="7.10333">
        <ele>1273.5999755859</ele>
        <time>2017-07-21T10:09:05Z</time>
      </trkpt>
      <trkpt lat="47.90627" lon="7.10338">
        <ele>1274</ele>
        <time>2017-07-21T10:09:07Z</time>
      </trkpt>
      <trkpt lat="47.90634" lon="7.10352">
        <ele>1275</ele>
        <time>2017-07-21T10:09:13Z</time>
      </trkpt>
      <trkpt lat="47.90643" lon="7.10364">
        <ele>1276</ele>
        <time>2017-07-21T10:09:19Z</time>
      </trkpt>
      <trkpt lat="47.90647" lon="7.10366">
        <ele>1276.1999511719</ele>
        <time>2017-07-21T10:09:21Z</time>
      </trkpt>
      <trkpt lat="47.9066" lon="7.10377">
        <ele>1277</ele>
        <time>2017-07-21T10:09:28Z</time>
      </trkpt>
      <trkpt lat="47.90672" lon="7.10385">
        <ele>1277.8000488281</ele>
        <time>2017-07-21T10:09:35Z</time>
      </trkpt>
      <trkpt lat="47.90676" lon="7.1039">
        <ele>1278</ele>
        <time>2017-07-21T10:09:37Z</time>
      </trkpt>
      <trkpt lat="47.90679" lon="7.10404">
        <ele>1278.4000244141</ele>
        <time>2017-07-21T10:09:42Z</time>
      </trkpt>
      <trkpt lat="47.90675" lon="7.10417">
        <ele>1279.1999511719</ele>
        <time>2017-07-21T10:09:47Z</time>
      </trkpt>
      <trkpt lat="47.90663" lon="7.10419">
        <ele>1280</ele>
        <time>2017-07-21T10:09:52Z</time>
      </trkpt>
      <trkpt lat="47.9066" lon="7.10419">
        <ele>1280.1999511719</ele>
        <time>2017-07-21T10:09:53Z</time>
      </trkpt>
      <trkpt lat="47.90656" lon="7.10417">
        <ele>1280.4000244141</ele>
        <time>2017-07-21T10:09:55Z</time>
      </trkpt>
      <trkpt lat="47.90652" lon="7.10416">
        <ele>1280.4000244141</ele>
        <time>2017-07-21T10:09:57Z</time>
      </trkpt>
      <trkpt lat="47.90647" lon="7.10412">
        <ele>1281</ele>
        <time>2017-07-21T10:10:00Z</time>
      </trkpt>
      <trkpt lat="47.90643" lon="7.10411">
        <ele>1281.1999511719</ele>
        <time>2017-07-21T10:10:02Z</time>
      </trkpt>
      <trkpt lat="47.90639" lon="7.10409">
        <ele>1281.5999755859</ele>
        <time>2017-07-21T10:10:04Z</time>
      </trkpt>
      <trkpt lat="47.90634" lon="7.10405">
        <ele>1282.4000244141</ele>
        <time>2017-07-21T10:10:07Z</time>
      </trkpt>
      <trkpt lat="47.90624" lon="7.104">
        <ele>1283.1999511719</ele>
        <time>2017-07-21T10:10:12Z</time>
      </trkpt>
      <trkpt lat="47.9062" lon="7.10399">
        <ele>1283.5999755859</ele>
        <time>2017-07-21T10:10:14Z</time>
      </trkpt>
      <trkpt lat="47.90609" lon="7.1039">
        <ele>1284.4000244141</ele>
        <time>2017-07-21T10:10:20Z</time>
      </trkpt>
      <trkpt lat="47.90606" lon="7.10388">
        <ele>1284.5999755859</ele>
        <time>2017-07-21T10:10:22Z</time>
      </trkpt>
      <trkpt lat="47.90597" lon="7.10381">
        <ele>1285.1999511719</ele>
        <time>2017-07-21T10:10:27Z</time>
      </trkpt>
      <trkpt lat="47.90593" lon="7.10379">
        <ele>1285.8000488281</ele>
        <time>2017-07-21T10:10:29Z</time>
      </trkpt>
      <trkpt lat="47.90583" lon="7.10371">
        <ele>1286.8000488281</ele>
        <time>2017-07-21T10:10:35Z</time>
      </trkpt>
      <trkpt lat="47.9058" lon="7.10368">
        <ele>1287.1999511719</ele>
        <time>2017-07-21T10:10:37Z</time>
      </trkpt>
      <trkpt lat="47.90574" lon="7.10363">
        <ele>1287.8000488281</ele>
        <time>2017-07-21T10:10:41Z</time>
      </trkpt>
      <trkpt lat="47.90562" lon="7.10354">
        <ele>1289</ele>
        <time>2017-07-21T10:10:48Z</time>
      </trkpt>
      <trkpt lat="47.90561" lon="7.10354">
        <ele>1289</ele>
        <time>2017-07-21T10:10:49Z</time>
      </trkpt>
      <trkpt lat="47.90557" lon="7.10351">
        <ele>1289.4000244141</ele>
        <time>2017-07-21T10:10:51Z</time>
      </trkpt>
      <trkpt lat="47.90554" lon="7.10344">
        <ele>1290</ele>
        <time>2017-07-21T10:10:54Z</time>
      </trkpt>
      <trkpt lat="47.90552" lon="7.10342">
        <ele>1290.1999511719</ele>
        <time>2017-07-21T10:10:55Z</time>
      </trkpt>
      <trkpt lat="47.9054" lon="7.10329">
        <ele>1291.1999511719</ele>
        <time>2017-07-21T10:11:02Z</time>
      </trkpt>
      <trkpt lat="47.90536" lon="7.10322">
        <ele>1291.8000488281</ele>
        <time>2017-07-21T10:11:05Z</time>
      </trkpt>
      <trkpt lat="47.90532" lon="7.10315">
        <ele>1292.4000244141</ele>
        <time>2017-07-21T10:11:08Z</time>
      </trkpt>
      <trkpt lat="47.90524" lon="7.10305">
        <ele>1293.1999511719</ele>
        <time>2017-07-21T10:11:13Z</time>
      </trkpt>
      <trkpt lat="47.90522" lon="7.10302">
        <ele>1293.4000244141</ele>
        <time>2017-07-21T10:11:14Z</time>
      </trkpt>
      <trkpt lat="47.90512" lon="7.10295">
        <ele>1294.4000244141</ele>
        <time>2017-07-21T10:11:19Z</time>
      </trkpt>
      <trkpt lat="47.90509" lon="7.10296">
        <ele>1294.5999755859</ele>
        <time>2017-07-21T10:11:20Z</time>
      </trkpt>
      <trkpt lat="47.90499" lon="7.103">
        <ele>1295.5999755859</ele>
        <time>2017-07-21T10:11:24Z</time>
      </trkpt>
      <trkpt lat="47.90494" lon="7.10308">
        <ele>1296.4000244141</ele>
        <time>2017-07-21T10:11:27Z</time>
      </trkpt>
      <trkpt lat="47.90492" lon="7.10309">
        <ele>1296.5999755859</ele>
        <time>2017-07-21T10:11:28Z</time>
      </trkpt>
      <trkpt lat="47.90482" lon="7.1032">
        <ele>1297.5999755859</ele>
        <time>2017-07-21T10:11:33Z</time>
      </trkpt>
      <trkpt lat="47.90481" lon="7.10322">
        <ele>1297.8000488281</ele>
        <time>2017-07-21T10:11:34Z</time>
      </trkpt>
      <trkpt lat="47.90466" lon="7.1033">
        <ele>1298.5999755859</ele>
        <time>2017-07-21T10:11:41Z</time>
      </trkpt>
      <trkpt lat="47.90464" lon="7.10331">
        <ele>1298.5999755859</ele>
        <time>2017-07-21T10:11:42Z</time>
      </trkpt>
      <trkpt lat="47.90452" lon="7.10332">
        <ele>1299</ele>
        <time>2017-07-21T10:11:48Z</time>
      </trkpt>
      <trkpt lat="47.9044" lon="7.10334">
        <ele>1299</ele>
        <time>2017-07-21T10:11:55Z</time>
      </trkpt>
      <trkpt lat="47.90427" lon="7.10328">
        <ele>1299.1999511719</ele>
        <time>2017-07-21T10:12:02Z</time>
      </trkpt>
      <trkpt lat="47.90423" lon="7.10327">
        <ele>1299.1999511719</ele>
        <time>2017-07-21T10:12:04Z</time>
      </trkpt>
      <trkpt lat="47.90416" lon="7.10326">
        <ele>1299.1999511719</ele>
        <time>2017-07-21T10:12:07Z</time>
      </trkpt>
      <trkpt lat="47.90414" lon="7.10325">
        <ele>1299.1999511719</ele>
        <time>2017-07-21T10:12:08Z</time>
      </trkpt>
      <trkpt lat="47.90401" lon="7.10326">
        <ele>1299.4000244141</ele>
        <time>2017-07-21T10:12:14Z</time>
      </trkpt>
      <trkpt lat="47.90382" lon="7.10325">
        <ele>1299.1999511719</ele>
        <time>2017-07-21T10:12:21Z</time>
      </trkpt>
      <trkpt lat="47.90367" lon="7.10325">
        <ele>1299.1999511719</ele>
        <time>2017-07-21T10:12:25Z</time>
      </trkpt>
      <trkpt lat="47.90363" lon="7.10326">
        <ele>1299</ele>
        <time>2017-07-21T10:12:26Z</time>
      </trkpt>
      <trkpt lat="47.90353" lon="7.10329">
        <ele>1298.4000244141</ele>
        <time>2017-07-21T10:12:29Z</time>
      </trkpt>
      <trkpt lat="47.90351" lon="7.1033">
        <ele>1298.1999511719</ele>
        <time>2017-07-21T10:12:30Z</time>
      </trkpt>
      <trkpt lat="47.9035" lon="7.10331">
        <ele>1296.5999755859</ele>
        <time>2017-07-21T10:20:18Z</time>
      </trkpt>
      <trkpt lat="47.90348" lon="7.1033">
        <ele>1296.5999755859</ele>
        <time>2017-07-21T10:20:19Z</time>
      </trkpt>
      <trkpt lat="47.90337" lon="7.10323">
        <ele>1296.5999755859</ele>
        <time>2017-07-21T10:20:24Z</time>
      </trkpt>
      <trkpt lat="47.90314" lon="7.10324">
        <ele>1296</ele>
        <time>2017-07-21T10:20:29Z</time>
      </trkpt>
      <trkpt lat="47.90302" lon="7.10326">
        <ele>1295.5999755859</ele>
        <time>2017-07-21T10:20:31Z</time>
      </trkpt>
      <trkpt lat="47.90277" lon="7.10329">
        <ele>1294.1999511719</ele>
        <time>2017-07-21T10:20:35Z</time>
      </trkpt>
      <trkpt lat="47.90256" lon="7.1033">
        <ele>1293.1999511719</ele>
        <time>2017-07-21T10:20:38Z</time>
      </trkpt>
      <trkpt lat="47.90232" lon="7.10329">
        <ele>1291.5999755859</ele>
        <time>2017-07-21T10:20:41Z</time>
      </trkpt>
      <trkpt lat="47.90214" lon="7.10328">
        <ele>1290.4000244141</ele>
        <time>2017-07-21T10:20:43Z</time>
      </trkpt>
      <trkpt lat="47.90195" lon="7.10327">
        <ele>1289.1999511719</ele>
        <time>2017-07-21T10:20:45Z</time>
      </trkpt>
      <trkpt lat="47.90185" lon="7.10327">
        <ele>1288.5999755859</ele>
        <time>2017-07-21T10:20:46Z</time>
      </trkpt>
      <trkpt lat="47.90174" lon="7.10327">
        <ele>1287.8000488281</ele>
        <time>2017-07-21T10:20:47Z</time>
      </trkpt>
      <trkpt lat="47.90153" lon="7.10327">
        <ele>1286.1999511719</ele>
        <time>2017-07-21T10:20:49Z</time>
      </trkpt>
      <trkpt lat="47.90131" lon="7.10326">
        <ele>1284.5999755859</ele>
        <time>2017-07-21T10:20:51Z</time>
      </trkpt>
      <trkpt lat="47.9012" lon="7.10325">
        <ele>1283.5999755859</ele>
        <time>2017-07-21T10:20:52Z</time>
      </trkpt>
      <trkpt lat="47.9011" lon="7.10321">
        <ele>1282.8000488281</ele>
        <time>2017-07-21T10:20:53Z</time>
      </trkpt>
      <trkpt lat="47.90099" lon="7.10317">
        <ele>1281.1999511719</ele>
        <time>2017-07-21T10:20:54Z</time>
      </trkpt>
      <trkpt lat="47.90078" lon="7.10311">
        <ele>1279.8000488281</ele>
        <time>2017-07-21T10:20:56Z</time>
      </trkpt>
      <trkpt lat="47.90067" lon="7.10309">
        <ele>1279</ele>
        <time>2017-07-21T10:20:57Z</time>
      </trkpt>
      <trkpt lat="47.90056" lon="7.10308">
        <ele>1278.1999511719</ele>
        <time>2017-07-21T10:20:58Z</time>
      </trkpt>
      <trkpt lat="47.90033" lon="7.10309">
        <ele>1276.5999755859</ele>
        <time>2017-07-21T10:21:00Z</time>
      </trkpt>
      <trkpt lat="47.90021" lon="7.1031">
        <ele>1275.8000488281</ele>
        <time>2017-07-21T10:21:01Z</time>
      </trkpt>
      <trkpt lat="47.90009" lon="7.10312">
        <ele>1275</ele>
        <time>2017-07-21T10:21:02Z</time>
      </trkpt>
      <trkpt lat="47.89985" lon="7.10317">
        <ele>1273.4000244141</ele>
        <time>2017-07-21T10:21:04Z</time>
      </trkpt>
      <trkpt lat="47.89961" lon="7.10322">
        <ele>1271.5999755859</ele>
        <time>2017-07-21T10:21:06Z</time>
      </trkpt>
      <trkpt lat="47.89949" lon="7.10324">
        <ele>1270.8000488281</ele>
        <time>2017-07-21T10:21:07Z</time>
      </trkpt>
      <trkpt lat="47.89936" lon="7.10326">
        <ele>1269.8000488281</ele>
        <time>2017-07-21T10:21:08Z</time>
      </trkpt>
      <trkpt lat="47.89924" lon="7.10328">
        <ele>1268.8000488281</ele>
        <time>2017-07-21T10:21:09Z</time>
      </trkpt>
      <trkpt lat="47.89911" lon="7.1033">
        <ele>1267.8000488281</ele>
        <time>2017-07-21T10:21:10Z</time>
      </trkpt>
      <trkpt lat="47.89899" lon="7.10333">
        <ele>1266.8000488281</ele>
        <time>2017-07-21T10:21:11Z</time>
      </trkpt>
      <trkpt lat="47.89887" lon="7.10335">
        <ele>1265.5999755859</ele>
        <time>2017-07-21T10:21:12Z</time>
      </trkpt>
      <trkpt lat="47.89875" lon="7.10337">
        <ele>1264.5999755859</ele>
        <time>2017-07-21T10:21:13Z</time>
      </trkpt>
      <trkpt lat="47.89863" lon="7.10339">
        <ele>1263.5999755859</ele>
        <time>2017-07-21T10:21:14Z</time>
      </trkpt>
      <trkpt lat="47.8985" lon="7.1034">
        <ele>1262.5999755859</ele>
        <time>2017-07-21T10:21:15Z</time>
      </trkpt>
      <trkpt lat="47.89838" lon="7.10341">
        <ele>1261.4000244141</ele>
        <time>2017-07-21T10:21:16Z</time>
      </trkpt>
      <trkpt lat="47.89825" lon="7.10341">
        <ele>1260.4000244141</ele>
        <time>2017-07-21T10:21:17Z</time>
      </trkpt>
      <trkpt lat="47.89814" lon="7.10339">
        <ele>1258.4000244141</ele>
        <time>2017-07-21T10:21:18Z</time>
      </trkpt>
      <trkpt lat="47.89792" lon="7.10334">
        <ele>1256.5999755859</ele>
        <time>2017-07-21T10:21:20Z</time>
      </trkpt>
      <trkpt lat="47.8977" lon="7.1033">
        <ele>1254.5999755859</ele>
        <time>2017-07-21T10:21:22Z</time>
      </trkpt>
      <trkpt lat="47.8975" lon="7.10329">
        <ele>1252.8000488281</ele>
        <time>2017-07-21T10:21:24Z</time>
      </trkpt>
      <trkpt lat="47.8974" lon="7.10328">
        <ele>1252</ele>
        <time>2017-07-21T10:21:25Z</time>
      </trkpt>
      <trkpt lat="47.89731" lon="7.10328">
        <ele>1251.1999511719</ele>
        <time>2017-07-21T10:21:26Z</time>
      </trkpt>
      <trkpt lat="47.89712" lon="7.10329">
        <ele>1249.5999755859</ele>
        <time>2017-07-21T10:21:28Z</time>
      </trkpt>
      <trkpt lat="47.89703" lon="7.10334">
        <ele>1249</ele>
        <time>2017-07-21T10:21:29Z</time>
      </trkpt>
      <trkpt lat="47.89694" lon="7.10342">
        <ele>1248.1999511719</ele>
        <time>2017-07-21T10:21:30Z</time>
      </trkpt>
      <trkpt lat="47.89677" lon="7.10361">
        <ele>1246.5999755859</ele>
        <time>2017-07-21T10:21:32Z</time>
      </trkpt>
      <trkpt lat="47.8967" lon="7.10373">
        <ele>1245.8000488281</ele>
        <time>2017-07-21T10:21:33Z</time>
      </trkpt>
      <trkpt lat="47.89662" lon="7.10385">
        <ele>1244.8000488281</ele>
        <time>2017-07-21T10:21:34Z</time>
      </trkpt>
      <trkpt lat="47.89645" lon="7.10408">
        <ele>1242.8000488281</ele>
        <time>2017-07-21T10:21:36Z</time>
      </trkpt>
      <trkpt lat="47.89636" lon="7.10419">
        <ele>1241.8000488281</ele>
        <time>2017-07-21T10:21:37Z</time>
      </trkpt>
      <trkpt lat="47.89628" lon="7.10431">
        <ele>1240.8000488281</ele>
        <time>2017-07-21T10:21:38Z</time>
      </trkpt>
      <trkpt lat="47.89619" lon="7.10442">
        <ele>1239.8000488281</ele>
        <time>2017-07-21T10:21:39Z</time>
      </trkpt>
      <trkpt lat="47.8961" lon="7.10452">
        <ele>1238.8000488281</ele>
        <time>2017-07-21T10:21:40Z</time>
      </trkpt>
      <trkpt lat="47.89602" lon="7.10463">
        <ele>1237.5999755859</ele>
        <time>2017-07-21T10:21:41Z</time>
      </trkpt>
      <trkpt lat="47.89593" lon="7.10475">
        <ele>1235.5999755859</ele>
        <time>2017-07-21T10:21:42Z</time>
      </trkpt>
      <trkpt lat="47.89584" lon="7.10486">
        <ele>1234.5999755859</ele>
        <time>2017-07-21T10:21:43Z</time>
      </trkpt>
      <trkpt lat="47.89575" lon="7.10497">
        <ele>1233.4000244141</ele>
        <time>2017-07-21T10:21:44Z</time>
      </trkpt>
      <trkpt lat="47.89566" lon="7.10508">
        <ele>1232.1999511719</ele>
        <time>2017-07-21T10:21:45Z</time>
      </trkpt>
      <trkpt lat="47.89557" lon="7.1052">
        <ele>1231.1999511719</ele>
        <time>2017-07-21T10:21:46Z</time>
      </trkpt>
      <trkpt lat="47.89548" lon="7.10533">
        <ele>1230</ele>
        <time>2017-07-21T10:21:47Z</time>
      </trkpt>
      <trkpt lat="47.8954" lon="7.10546">
        <ele>1229</ele>
        <time>2017-07-21T10:21:48Z</time>
      </trkpt>
      <trkpt lat="47.89532" lon="7.1056">
        <ele>1227.8000488281</ele>
        <time>2017-07-21T10:21:49Z</time>
      </trkpt>
      <trkpt lat="47.89525" lon="7.10575">
        <ele>1226.5999755859</ele>
        <time>2017-07-21T10:21:50Z</time>
      </trkpt>
      <trkpt lat="47.89518" lon="7.1059">
        <ele>1225.4000244141</ele>
        <time>2017-07-21T10:21:51Z</time>
      </trkpt>
      <trkpt lat="47.89511" lon="7.10605">
        <ele>1224.4000244141</ele>
        <time>2017-07-21T10:21:52Z</time>
      </trkpt>
      <trkpt lat="47.89503" lon="7.10621">
        <ele>1223.1999511719</ele>
        <time>2017-07-21T10:21:53Z</time>
      </trkpt>
      <trkpt lat="47.89496" lon="7.10636">
        <ele>1222.1999511719</ele>
        <time>2017-07-21T10:21:54Z</time>
      </trkpt>
      <trkpt lat="47.89489" lon="7.10651">
        <ele>1221</ele>
        <time>2017-07-21T10:21:55Z</time>
      </trkpt>
      <trkpt lat="47.89482" lon="7.10667">
        <ele>1219.8000488281</ele>
        <time>2017-07-21T10:21:56Z</time>
      </trkpt>
      <trkpt lat="47.89475" lon="7.10682">
        <ele>1218.4000244141</ele>
        <time>2017-07-21T10:21:57Z</time>
      </trkpt>
      <trkpt lat="47.89468" lon="7.10696">
        <ele>1217.1999511719</ele>
        <time>2017-07-21T10:21:58Z</time>
      </trkpt>
      <trkpt lat="47.89461" lon="7.10709">
        <ele>1216</ele>
        <time>2017-07-21T10:21:59Z</time>
      </trkpt>
      <trkpt lat="47.89452" lon="7.1072">
        <ele>1214.8000488281</ele>
        <time>2017-07-21T10:22:00Z</time>
      </trkpt>
      <trkpt lat="47.89443" lon="7.10729">
        <ele>1213.8000488281</ele>
        <time>2017-07-21T10:22:01Z</time>
      </trkpt>
      <trkpt lat="47.89433" lon="7.10735">
        <ele>1212.8000488281</ele>
        <time>2017-07-21T10:22:02Z</time>
      </trkpt>
      <trkpt lat="47.89423" lon="7.10739">
        <ele>1211.8000488281</ele>
        <time>2017-07-21T10:22:03Z</time>
      </trkpt>
      <trkpt lat="47.89413" lon="7.10739">
        <ele>1211</ele>
        <time>2017-07-21T10:22:04Z</time>
      </trkpt>
      <trkpt lat="47.89402" lon="7.10736">
        <ele>1210.4000244141</ele>
        <time>2017-07-21T10:22:05Z</time>
      </trkpt>
      <trkpt lat="47.89393" lon="7.10728">
        <ele>1209.1999511719</ele>
        <time>2017-07-21T10:22:06Z</time>
      </trkpt>
      <trkpt lat="47.89385" lon="7.10717">
        <ele>1208.5999755859</ele>
        <time>2017-07-21T10:22:07Z</time>
      </trkpt>
      <trkpt lat="47.8938" lon="7.10704">
        <ele>1208</ele>
        <time>2017-07-21T10:22:08Z</time>
      </trkpt>
      <trkpt lat="47.89377" lon="7.10688">
        <ele>1207.4000244141</ele>
        <time>2017-07-21T10:22:09Z</time>
      </trkpt>
      <trkpt lat="47.89377" lon="7.10672">
        <ele>1207</ele>
        <time>2017-07-21T10:22:10Z</time>
      </trkpt>
      <trkpt lat="47.8938" lon="7.10657">
        <ele>1206.4000244141</ele>
        <time>2017-07-21T10:22:11Z</time>
      </trkpt>
      <trkpt lat="47.89385" lon="7.10643">
        <ele>1205.8000488281</ele>
        <time>2017-07-21T10:22:12Z</time>
      </trkpt>
      <trkpt lat="47.89396" lon="7.10616">
        <ele>1204.4000244141</ele>
        <time>2017-07-21T10:22:14Z</time>
      </trkpt>
      <trkpt lat="47.89401" lon="7.10603">
        <ele>1203.5999755859</ele>
        <time>2017-07-21T10:22:15Z</time>
      </trkpt>
      <trkpt lat="47.89404" lon="7.10591">
        <ele>1202.8000488281</ele>
        <time>2017-07-21T10:22:16Z</time>
      </trkpt>
      <trkpt lat="47.89405" lon="7.10579">
        <ele>1202</ele>
        <time>2017-07-21T10:22:17Z</time>
      </trkpt>
      <trkpt lat="47.89403" lon="7.10569">
        <ele>1201.4000244141</ele>
        <time>2017-07-21T10:22:18Z</time>
      </trkpt>
      <trkpt lat="47.89399" lon="7.10563">
        <ele>1200.8000488281</ele>
        <time>2017-07-21T10:22:19Z</time>
      </trkpt>
      <trkpt lat="47.89393" lon="7.10561">
        <ele>1200.1999511719</ele>
        <time>2017-07-21T10:22:20Z</time>
      </trkpt>
      <trkpt lat="47.89385" lon="7.10562">
        <ele>1199.4000244141</ele>
        <time>2017-07-21T10:22:22Z</time>
      </trkpt>
      <trkpt lat="47.89383" lon="7.10564">
        <ele>1199</ele>
        <time>2017-07-21T10:22:23Z</time>
      </trkpt>
      <trkpt lat="47.8938" lon="7.10567">
        <ele>1197.1999511719</ele>
        <time>2017-07-21T10:22:54Z</time>
      </trkpt>
      <trkpt lat="47.89379" lon="7.1057">
        <ele>1197.1999511719</ele>
        <time>2017-07-21T10:22:55Z</time>
      </trkpt>
      <trkpt lat="47.89378" lon="7.10574">
        <ele>1197.1999511719</ele>
        <time>2017-07-21T10:22:56Z</time>
      </trkpt>
      <trkpt lat="47.89367" lon="7.10599">
        <ele>1197</ele>
        <time>2017-07-21T10:23:01Z</time>
      </trkpt>
      <trkpt lat="47.89364" lon="7.10605">
        <ele>1196.8000488281</ele>
        <time>2017-07-21T10:23:02Z</time>
      </trkpt>
      <trkpt lat="47.89352" lon="7.10624">
        <ele>1196.5999755859</ele>
        <time>2017-07-21T10:23:05Z</time>
      </trkpt>
      <trkpt lat="47.89347" lon="7.1063">
        <ele>1196.4000244141</ele>
        <time>2017-07-21T10:23:06Z</time>
      </trkpt>
      <trkpt lat="47.8933" lon="7.10647">
        <ele>1196</ele>
        <time>2017-07-21T10:23:09Z</time>
      </trkpt>
      <trkpt lat="47.89318" lon="7.1066">
        <ele>1195.5999755859</ele>
        <time>2017-07-21T10:23:11Z</time>
      </trkpt>
      <trkpt lat="47.89306" lon="7.10673">
        <ele>1195</ele>
        <time>2017-07-21T10:23:13Z</time>
      </trkpt>
      <trkpt lat="47.89285" lon="7.10693">
        <ele>1193.8000488281</ele>
        <time>2017-07-21T10:23:16Z</time>
      </trkpt>
      <trkpt lat="47.89276" lon="7.10699">
        <ele>1193.4000244141</ele>
        <time>2017-07-21T10:23:17Z</time>
      </trkpt>
      <trkpt lat="47.89268" lon="7.10705">
        <ele>1192.4000244141</ele>
        <time>2017-07-21T10:23:18Z</time>
      </trkpt>
      <trkpt lat="47.89248" lon="7.10716">
        <ele>1191.4000244141</ele>
        <time>2017-07-21T10:23:20Z</time>
      </trkpt>
      <trkpt lat="47.89238" lon="7.10721">
        <ele>1190.5999755859</ele>
        <time>2017-07-21T10:23:21Z</time>
      </trkpt>
      <trkpt lat="47.89227" lon="7.10726">
        <ele>1189.8000488281</ele>
        <time>2017-07-21T10:23:22Z</time>
      </trkpt>
      <trkpt lat="47.89206" lon="7.10736">
        <ele>1188</ele>
        <time>2017-07-21T10:23:24Z</time>
      </trkpt>
      <trkpt lat="47.89194" lon="7.10742">
        <ele>1187</ele>
        <time>2017-07-21T10:23:25Z</time>
      </trkpt>
      <trkpt lat="47.89183" lon="7.10747">
        <ele>1186</ele>
        <time>2017-07-21T10:23:26Z</time>
      </trkpt>
      <trkpt lat="47.89171" lon="7.10752">
        <ele>1185</ele>
        <time>2017-07-21T10:23:27Z</time>
      </trkpt>
      <trkpt lat="47.8916" lon="7.10758">
        <ele>1184</ele>
        <time>2017-07-21T10:23:28Z</time>
      </trkpt>
      <trkpt lat="47.89137" lon="7.10768">
        <ele>1181.8000488281</ele>
        <time>2017-07-21T10:23:30Z</time>
      </trkpt>
      <trkpt lat="47.89125" lon="7.10773">
        <ele>1180.8000488281</ele>
        <time>2017-07-21T10:23:31Z</time>
      </trkpt>
      <trkpt lat="47.89113" lon="7.10778">
        <ele>1179.8000488281</ele>
        <time>2017-07-21T10:23:32Z</time>
      </trkpt>
      <trkpt lat="47.89091" lon="7.10791">
        <ele>1177.8000488281</ele>
        <time>2017-07-21T10:23:34Z</time>
      </trkpt>
      <trkpt lat="47.8908" lon="7.108">
        <ele>1177</ele>
        <time>2017-07-21T10:23:35Z</time>
      </trkpt>
      <trkpt lat="47.89069" lon="7.10809">
        <ele>1176</ele>
        <time>2017-07-21T10:23:36Z</time>
      </trkpt>
      <trkpt lat="47.89059" lon="7.10819">
        <ele>1175</ele>
        <time>2017-07-21T10:23:37Z</time>
      </trkpt>
      <trkpt lat="47.89039" lon="7.1084">
        <ele>1173</ele>
        <time>2017-07-21T10:23:39Z</time>
      </trkpt>
      <trkpt lat="47.89029" lon="7.1085">
        <ele>1172</ele>
        <time>2017-07-21T10:23:40Z</time>
      </trkpt>
      <trkpt lat="47.89018" lon="7.10859">
        <ele>1171</ele>
        <time>2017-07-21T10:23:41Z</time>
      </trkpt>
      <trkpt lat="47.89008" lon="7.10869">
        <ele>1168.8000488281</ele>
        <time>2017-07-21T10:23:42Z</time>
      </trkpt>
      <trkpt lat="47.88998" lon="7.10879">
        <ele>1167.8000488281</ele>
        <time>2017-07-21T10:23:43Z</time>
      </trkpt>
      <trkpt lat="47.88989" lon="7.10888">
        <ele>1166.5999755859</ele>
        <time>2017-07-21T10:23:44Z</time>
      </trkpt>
      <trkpt lat="47.8898" lon="7.10898">
        <ele>1165.5999755859</ele>
        <time>2017-07-21T10:23:45Z</time>
      </trkpt>
      <trkpt lat="47.88973" lon="7.1091">
        <ele>1164.4000244141</ele>
        <time>2017-07-21T10:23:46Z</time>
      </trkpt>
      <trkpt lat="47.88967" lon="7.10924">
        <ele>1163.4000244141</ele>
        <time>2017-07-21T10:23:47Z</time>
      </trkpt>
      <trkpt lat="47.88962" lon="7.1094">
        <ele>1162.4000244141</ele>
        <time>2017-07-21T10:23:48Z</time>
      </trkpt>
      <trkpt lat="47.88958" lon="7.10955">
        <ele>1161.4000244141</ele>
        <time>2017-07-21T10:23:49Z</time>
      </trkpt>
      <trkpt lat="47.88955" lon="7.10971">
        <ele>1160.4000244141</ele>
        <time>2017-07-21T10:23:50Z</time>
      </trkpt>
      <trkpt lat="47.88957" lon="7.11001">
        <ele>1158.4000244141</ele>
        <time>2017-07-21T10:23:52Z</time>
      </trkpt>
      <trkpt lat="47.88961" lon="7.11016">
        <ele>1157.1999511719</ele>
        <time>2017-07-21T10:23:53Z</time>
      </trkpt>
      <trkpt lat="47.88967" lon="7.1103">
        <ele>1156</ele>
        <time>2017-07-21T10:23:54Z</time>
      </trkpt>
      <trkpt lat="47.88974" lon="7.11043">
        <ele>1154.8000488281</ele>
        <time>2017-07-21T10:23:55Z</time>
      </trkpt>
      <trkpt lat="47.88981" lon="7.11057">
        <ele>1153.8000488281</ele>
        <time>2017-07-21T10:23:56Z</time>
      </trkpt>
      <trkpt lat="47.88988" lon="7.11071">
        <ele>1152.5999755859</ele>
        <time>2017-07-21T10:23:57Z</time>
      </trkpt>
      <trkpt lat="47.88996" lon="7.11085">
        <ele>1151.5999755859</ele>
        <time>2017-07-21T10:23:58Z</time>
      </trkpt>
      <trkpt lat="47.89004" lon="7.11098">
        <ele>1150.5999755859</ele>
        <time>2017-07-21T10:23:59Z</time>
      </trkpt>
      <trkpt lat="47.89013" lon="7.11112">
        <ele>1149.5999755859</ele>
        <time>2017-07-21T10:24:00Z</time>
      </trkpt>
      <trkpt lat="47.89022" lon="7.11125">
        <ele>1148.4000244141</ele>
        <time>2017-07-21T10:24:01Z</time>
      </trkpt>
      <trkpt lat="47.89031" lon="7.11138">
        <ele>1147.4000244141</ele>
        <time>2017-07-21T10:24:02Z</time>
      </trkpt>
      <trkpt lat="47.8904" lon="7.11152">
        <ele>1146.1999511719</ele>
        <time>2017-07-21T10:24:03Z</time>
      </trkpt>
      <trkpt lat="47.8905" lon="7.11164">
        <ele>1145</ele>
        <time>2017-07-21T10:24:04Z</time>
      </trkpt>
      <trkpt lat="47.8906" lon="7.11176">
        <ele>1143.8000488281</ele>
        <time>2017-07-21T10:24:05Z</time>
      </trkpt>
      <trkpt lat="47.89071" lon="7.11188">
        <ele>1142.8000488281</ele>
        <time>2017-07-21T10:24:06Z</time>
      </trkpt>
      <trkpt lat="47.89082" lon="7.11199">
        <ele>1140.4000244141</ele>
        <time>2017-07-21T10:24:07Z</time>
      </trkpt>
      <trkpt lat="47.89094" lon="7.11209">
        <ele>1139.1999511719</ele>
        <time>2017-07-21T10:24:08Z</time>
      </trkpt>
      <trkpt lat="47.89106" lon="7.11218">
        <ele>1138</ele>
        <time>2017-07-21T10:24:09Z</time>
      </trkpt>
      <trkpt lat="47.89119" lon="7.11225">
        <ele>1136.5999755859</ele>
        <time>2017-07-21T10:24:10Z</time>
      </trkpt>
      <trkpt lat="47.89131" lon="7.11231">
        <ele>1135.4000244141</ele>
        <time>2017-07-21T10:24:11Z</time>
      </trkpt>
      <trkpt lat="47.89143" lon="7.11236">
        <ele>1134</ele>
        <time>2017-07-21T10:24:12Z</time>
      </trkpt>
      <trkpt lat="47.89153" lon="7.11241">
        <ele>1132.5999755859</ele>
        <time>2017-07-21T10:24:13Z</time>
      </trkpt>
      <trkpt lat="47.89161" lon="7.11248">
        <ele>1131.1999511719</ele>
        <time>2017-07-21T10:24:14Z</time>
      </trkpt>
      <trkpt lat="47.89167" lon="7.11255">
        <ele>1130</ele>
        <time>2017-07-21T10:24:15Z</time>
      </trkpt>
      <trkpt lat="47.89171" lon="7.11264">
        <ele>1128.5999755859</ele>
        <time>2017-07-21T10:24:16Z</time>
      </trkpt>
      <trkpt lat="47.89171" lon="7.11274">
        <ele>1127.4000244141</ele>
        <time>2017-07-21T10:24:17Z</time>
      </trkpt>
      <trkpt lat="47.89169" lon="7.11282">
        <ele>1126.1999511719</ele>
        <time>2017-07-21T10:24:18Z</time>
      </trkpt>
      <trkpt lat="47.8916" lon="7.11288">
        <ele>1124.4000244141</ele>
        <time>2017-07-21T10:24:20Z</time>
      </trkpt>
      <trkpt lat="47.89143" lon="7.11283">
        <ele>1123.1999511719</ele>
        <time>2017-07-21T10:24:22Z</time>
      </trkpt>
      <trkpt lat="47.89107" lon="7.11277">
        <ele>1122</ele>
        <time>2017-07-21T10:24:25Z</time>
      </trkpt>
      <trkpt lat="47.89083" lon="7.11279">
        <ele>1121.1999511719</ele>
        <time>2017-07-21T10:24:27Z</time>
      </trkpt>
      <trkpt lat="47.89071" lon="7.11282">
        <ele>1120.8000488281</ele>
        <time>2017-07-21T10:24:28Z</time>
      </trkpt>
      <trkpt lat="47.89048" lon="7.11293">
        <ele>1119.4000244141</ele>
        <time>2017-07-21T10:24:30Z</time>
      </trkpt>
      <trkpt lat="47.89037" lon="7.113">
        <ele>1117.5999755859</ele>
        <time>2017-07-21T10:24:31Z</time>
      </trkpt>
      <trkpt lat="47.89026" lon="7.11308">
        <ele>1116.5999755859</ele>
        <time>2017-07-21T10:24:32Z</time>
      </trkpt>
      <trkpt lat="47.89017" lon="7.11319">
        <ele>1115.8000488281</ele>
        <time>2017-07-21T10:24:33Z</time>
      </trkpt>
      <trkpt lat="47.89009" lon="7.11332">
        <ele>1114.8000488281</ele>
        <time>2017-07-21T10:24:34Z</time>
      </trkpt>
      <trkpt lat="47.89002" lon="7.11345">
        <ele>1113.5999755859</ele>
        <time>2017-07-21T10:24:35Z</time>
      </trkpt>
      <trkpt lat="47.88992" lon="7.11376">
        <ele>1111.8000488281</ele>
        <time>2017-07-21T10:24:37Z</time>
      </trkpt>
      <trkpt lat="47.88989" lon="7.11409">
        <ele>1109.8000488281</ele>
        <time>2017-07-21T10:24:39Z</time>
      </trkpt>
      <trkpt lat="47.8899" lon="7.11426">
        <ele>1108.8000488281</ele>
        <time>2017-07-21T10:24:40Z</time>
      </trkpt>
      <trkpt lat="47.88993" lon="7.11441">
        <ele>1107.8000488281</ele>
        <time>2017-07-21T10:24:41Z</time>
      </trkpt>
      <trkpt lat="47.88998" lon="7.11456">
        <ele>1107</ele>
        <time>2017-07-21T10:24:42Z</time>
      </trkpt>
      <trkpt lat="47.89005" lon="7.11467">
        <ele>1106</ele>
        <time>2017-07-21T10:24:43Z</time>
      </trkpt>
      <trkpt lat="47.89014" lon="7.11474">
        <ele>1105</ele>
        <time>2017-07-21T10:24:44Z</time>
      </trkpt>
      <trkpt lat="47.89024" lon="7.11479">
        <ele>1104</ele>
        <time>2017-07-21T10:24:45Z</time>
      </trkpt>
      <trkpt lat="47.89034" lon="7.11483">
        <ele>1103</ele>
        <time>2017-07-21T10:24:46Z</time>
      </trkpt>
      <trkpt lat="47.89045" lon="7.11486">
        <ele>1102</ele>
        <time>2017-07-21T10:24:47Z</time>
      </trkpt>
      <trkpt lat="47.89067" lon="7.11492">
        <ele>1100.1999511719</ele>
        <time>2017-07-21T10:24:49Z</time>
      </trkpt>
      <trkpt lat="47.89089" lon="7.11503">
        <ele>1098.5999755859</ele>
        <time>2017-07-21T10:24:51Z</time>
      </trkpt>
      <trkpt lat="47.891" lon="7.11512">
        <ele>1097.5999755859</ele>
        <time>2017-07-21T10:24:52Z</time>
      </trkpt>
      <trkpt lat="47.8911" lon="7.11522">
        <ele>1096.5999755859</ele>
        <time>2017-07-21T10:24:53Z</time>
      </trkpt>
      <trkpt lat="47.89119" lon="7.11534">
        <ele>1095.5999755859</ele>
        <time>2017-07-21T10:24:54Z</time>
      </trkpt>
      <trkpt lat="47.89129" lon="7.11546">
        <ele>1093.4000244141</ele>
        <time>2017-07-21T10:24:55Z</time>
      </trkpt>
      <trkpt lat="47.89139" lon="7.11558">
        <ele>1092.1999511719</ele>
        <time>2017-07-21T10:24:56Z</time>
      </trkpt>
      <trkpt lat="47.89149" lon="7.1157">
        <ele>1091</ele>
        <time>2017-07-21T10:24:57Z</time>
      </trkpt>
      <trkpt lat="47.8916" lon="7.11582">
        <ele>1089.8000488281</ele>
        <time>2017-07-21T10:24:58Z</time>
      </trkpt>
      <trkpt lat="47.8917" lon="7.11594">
        <ele>1088.4000244141</ele>
        <time>2017-07-21T10:24:59Z</time>
      </trkpt>
      <trkpt lat="47.8918" lon="7.11607">
        <ele>1087.1999511719</ele>
        <time>2017-07-21T10:25:00Z</time>
      </trkpt>
      <trkpt lat="47.89191" lon="7.1162">
        <ele>1085.8000488281</ele>
        <time>2017-07-21T10:25:01Z</time>
      </trkpt>
      <trkpt lat="47.89201" lon="7.11633">
        <ele>1084.5999755859</ele>
        <time>2017-07-21T10:25:02Z</time>
      </trkpt>
      <trkpt lat="47.89212" lon="7.11646">
        <ele>1083.4000244141</ele>
        <time>2017-07-21T10:25:03Z</time>
      </trkpt>
      <trkpt lat="47.89223" lon="7.1166">
        <ele>1082.1999511719</ele>
        <time>2017-07-21T10:25:04Z</time>
      </trkpt>
      <trkpt lat="47.89234" lon="7.11673">
        <ele>1081</ele>
        <time>2017-07-21T10:25:05Z</time>
      </trkpt>
      <trkpt lat="47.89245" lon="7.11685">
        <ele>1079.8000488281</ele>
        <time>2017-07-21T10:25:06Z</time>
      </trkpt>
      <trkpt lat="47.89257" lon="7.11695">
        <ele>1078.4000244141</ele>
        <time>2017-07-21T10:25:07Z</time>
      </trkpt>
      <trkpt lat="47.89269" lon="7.11705">
        <ele>1077.1999511719</ele>
        <time>2017-07-21T10:25:08Z</time>
      </trkpt>
      <trkpt lat="47.89282" lon="7.11715">
        <ele>1075.8000488281</ele>
        <time>2017-07-21T10:25:09Z</time>
      </trkpt>
      <trkpt lat="47.89294" lon="7.11723">
        <ele>1074.5999755859</ele>
        <time>2017-07-21T10:25:10Z</time>
      </trkpt>
      <trkpt lat="47.89307" lon="7.11729">
        <ele>1073.4000244141</ele>
        <time>2017-07-21T10:25:11Z</time>
      </trkpt>
      <trkpt lat="47.8932" lon="7.11733">
        <ele>1072.1999511719</ele>
        <time>2017-07-21T10:25:12Z</time>
      </trkpt>
      <trkpt lat="47.89332" lon="7.11735">
        <ele>1071</ele>
        <time>2017-07-21T10:25:13Z</time>
      </trkpt>
      <trkpt lat="47.89342" lon="7.11738">
        <ele>1070</ele>
        <time>2017-07-21T10:25:14Z</time>
      </trkpt>
      <trkpt lat="47.89352" lon="7.11741">
        <ele>1069</ele>
        <time>2017-07-21T10:25:15Z</time>
      </trkpt>
      <trkpt lat="47.8936" lon="7.11746">
        <ele>1068</ele>
        <time>2017-07-21T10:25:16Z</time>
      </trkpt>
      <trkpt lat="47.89366" lon="7.11753">
        <ele>1067.1999511719</ele>
        <time>2017-07-21T10:25:17Z</time>
      </trkpt>
      <trkpt lat="47.8937" lon="7.11763">
        <ele>1066.5999755859</ele>
        <time>2017-07-21T10:25:18Z</time>
      </trkpt>
      <trkpt lat="47.89369" lon="7.11774">
        <ele>1065.1999511719</ele>
        <time>2017-07-21T10:25:19Z</time>
      </trkpt>
      <trkpt lat="47.89365" lon="7.11781">
        <ele>1064.5999755859</ele>
        <time>2017-07-21T10:25:20Z</time>
      </trkpt>
      <trkpt lat="47.89358" lon="7.11784">
        <ele>1064</ele>
        <time>2017-07-21T10:25:21Z</time>
      </trkpt>
      <trkpt lat="47.8935" lon="7.11785">
        <ele>1063.4000244141</ele>
        <time>2017-07-21T10:25:22Z</time>
      </trkpt>
      <trkpt lat="47.89342" lon="7.11784">
        <ele>1063</ele>
        <time>2017-07-21T10:25:23Z</time>
      </trkpt>
      <trkpt lat="47.89315" lon="7.11786">
        <ele>1061.8000488281</ele>
        <time>2017-07-21T10:25:26Z</time>
      </trkpt>
      <trkpt lat="47.89306" lon="7.11788">
        <ele>1061.4000244141</ele>
        <time>2017-07-21T10:25:27Z</time>
      </trkpt>
      <trkpt lat="47.89286" lon="7.11795">
        <ele>1060.4000244141</ele>
        <time>2017-07-21T10:25:29Z</time>
      </trkpt>
      <trkpt lat="47.89266" lon="7.11803">
        <ele>1059.1999511719</ele>
        <time>2017-07-21T10:25:31Z</time>
      </trkpt>
      <trkpt lat="47.89255" lon="7.11807">
        <ele>1058.5999755859</ele>
        <time>2017-07-21T10:25:32Z</time>
      </trkpt>
      <trkpt lat="47.89244" lon="7.1181">
        <ele>1057.8000488281</ele>
        <time>2017-07-21T10:25:33Z</time>
      </trkpt>
      <trkpt lat="47.8922" lon="7.11815">
        <ele>1056.4000244141</ele>
        <time>2017-07-21T10:25:35Z</time>
      </trkpt>
      <trkpt lat="47.89208" lon="7.11819">
        <ele>1055.5999755859</ele>
        <time>2017-07-21T10:25:36Z</time>
      </trkpt>
      <trkpt lat="47.89196" lon="7.11826">
        <ele>1054.5999755859</ele>
        <time>2017-07-21T10:25:37Z</time>
      </trkpt>
      <trkpt lat="47.89175" lon="7.11847">
        <ele>1052.8000488281</ele>
        <time>2017-07-21T10:25:39Z</time>
      </trkpt>
      <trkpt lat="47.89165" lon="7.1186">
        <ele>1051.5999755859</ele>
        <time>2017-07-21T10:25:40Z</time>
      </trkpt>
      <trkpt lat="47.89155" lon="7.11874">
        <ele>1050.4000244141</ele>
        <time>2017-07-21T10:25:41Z</time>
      </trkpt>
      <trkpt lat="47.89146" lon="7.11889">
        <ele>1049.4000244141</ele>
        <time>2017-07-21T10:25:42Z</time>
      </trkpt>
      <trkpt lat="47.89136" lon="7.11903">
        <ele>1047</ele>
        <time>2017-07-21T10:25:43Z</time>
      </trkpt>
      <trkpt lat="47.89125" lon="7.11916">
        <ele>1045.8000488281</ele>
        <time>2017-07-21T10:25:44Z</time>
      </trkpt>
      <trkpt lat="47.89115" lon="7.11929">
        <ele>1044.4000244141</ele>
        <time>2017-07-21T10:25:45Z</time>
      </trkpt>
      <trkpt lat="47.89103" lon="7.1194">
        <ele>1043.1999511719</ele>
        <time>2017-07-21T10:25:46Z</time>
      </trkpt>
      <trkpt lat="47.89092" lon="7.11951">
        <ele>1041.8000488281</ele>
        <time>2017-07-21T10:25:47Z</time>
      </trkpt>
      <trkpt lat="47.89079" lon="7.1196">
        <ele>1040.5999755859</ele>
        <time>2017-07-21T10:25:48Z</time>
      </trkpt>
      <trkpt lat="47.89067" lon="7.1197">
        <ele>1039.1999511719</ele>
        <time>2017-07-21T10:25:49Z</time>
      </trkpt>
      <trkpt lat="47.89055" lon="7.11979">
        <ele>1038</ele>
        <time>2017-07-21T10:25:50Z</time>
      </trkpt>
      <trkpt lat="47.89042" lon="7.11989">
        <ele>1036.8000488281</ele>
        <time>2017-07-21T10:25:51Z</time>
      </trkpt>
      <trkpt lat="47.8903" lon="7.11998">
        <ele>1035.5999755859</ele>
        <time>2017-07-21T10:25:52Z</time>
      </trkpt>
      <trkpt lat="47.89017" lon="7.12008">
        <ele>1034.1999511719</ele>
        <time>2017-07-21T10:25:53Z</time>
      </trkpt>
      <trkpt lat="47.89005" lon="7.12016">
        <ele>1033</ele>
        <time>2017-07-21T10:25:54Z</time>
      </trkpt>
      <trkpt lat="47.88992" lon="7.12025">
        <ele>1031.8000488281</ele>
        <time>2017-07-21T10:25:55Z</time>
      </trkpt>
      <trkpt lat="47.88979" lon="7.12032">
        <ele>1030.4000244141</ele>
        <time>2017-07-21T10:25:56Z</time>
      </trkpt>
      <trkpt lat="47.88967" lon="7.12038">
        <ele>1029.1999511719</ele>
        <time>2017-07-21T10:25:57Z</time>
      </trkpt>
      <trkpt lat="47.88955" lon="7.12045">
        <ele>1028.1999511719</ele>
        <time>2017-07-21T10:25:58Z</time>
      </trkpt>
      <trkpt lat="47.88943" lon="7.12053">
        <ele>1027.1999511719</ele>
        <time>2017-07-21T10:25:59Z</time>
      </trkpt>
      <trkpt lat="47.8892" lon="7.12069">
        <ele>1025.4000244141</ele>
        <time>2017-07-21T10:26:01Z</time>
      </trkpt>
      <trkpt lat="47.88897" lon="7.12088">
        <ele>1024</ele>
        <time>2017-07-21T10:26:03Z</time>
      </trkpt>
      <trkpt lat="47.88875" lon="7.1211">
        <ele>1022.4000244141</ele>
        <time>2017-07-21T10:26:05Z</time>
      </trkpt>
      <trkpt lat="47.88864" lon="7.12123">
        <ele>1021.200012207</ele>
        <time>2017-07-21T10:26:06Z</time>
      </trkpt>
      <trkpt lat="47.88853" lon="7.12137">
        <ele>1019</ele>
        <time>2017-07-21T10:26:07Z</time>
      </trkpt>
      <trkpt lat="47.88843" lon="7.12152">
        <ele>1017.799987793</ele>
        <time>2017-07-21T10:26:08Z</time>
      </trkpt>
      <trkpt lat="47.88833" lon="7.12168">
        <ele>1016.5999755859</ele>
        <time>2017-07-21T10:26:09Z</time>
      </trkpt>
      <trkpt lat="47.88823" lon="7.12183">
        <ele>1015.200012207</ele>
        <time>2017-07-21T10:26:10Z</time>
      </trkpt>
      <trkpt lat="47.88813" lon="7.122">
        <ele>1014</ele>
        <time>2017-07-21T10:26:11Z</time>
      </trkpt>
      <trkpt lat="47.88804" lon="7.12218">
        <ele>1012.5999755859</ele>
        <time>2017-07-21T10:26:12Z</time>
      </trkpt>
      <trkpt lat="47.88797" lon="7.12237">
        <ele>1011.4000244141</ele>
        <time>2017-07-21T10:26:13Z</time>
      </trkpt>
      <trkpt lat="47.88791" lon="7.12256">
        <ele>1010</ele>
        <time>2017-07-21T10:26:14Z</time>
      </trkpt>
      <trkpt lat="47.88785" lon="7.12275">
        <ele>1008.799987793</ele>
        <time>2017-07-21T10:26:15Z</time>
      </trkpt>
      <trkpt lat="47.88779" lon="7.12294">
        <ele>1007.4000244141</ele>
        <time>2017-07-21T10:26:16Z</time>
      </trkpt>
      <trkpt lat="47.88772" lon="7.12312">
        <ele>1006.200012207</ele>
        <time>2017-07-21T10:26:17Z</time>
      </trkpt>
      <trkpt lat="47.88766" lon="7.12328">
        <ele>1004.799987793</ele>
        <time>2017-07-21T10:26:18Z</time>
      </trkpt>
      <trkpt lat="47.88757" lon="7.12341">
        <ele>1003.4000244141</ele>
        <time>2017-07-21T10:26:19Z</time>
      </trkpt>
      <trkpt lat="47.88747" lon="7.12351">
        <ele>1002</ele>
        <time>2017-07-21T10:26:20Z</time>
      </trkpt>
      <trkpt lat="47.88736" lon="7.12357">
        <ele>1000.4000244141</ele>
        <time>2017-07-21T10:26:21Z</time>
      </trkpt>
      <trkpt lat="47.88724" lon="7.12359">
        <ele>999.20001220703</ele>
        <time>2017-07-21T10:26:22Z</time>
      </trkpt>
      <trkpt lat="47.88711" lon="7.12358">
        <ele>997.79998779297</ele>
        <time>2017-07-21T10:26:23Z</time>
      </trkpt>
      <trkpt lat="47.88699" lon="7.12354">
        <ele>996.59997558594</ele>
        <time>2017-07-21T10:26:24Z</time>
      </trkpt>
      <trkpt lat="47.88685" lon="7.12349">
        <ele>995.40002441406</ele>
        <time>2017-07-21T10:26:25Z</time>
      </trkpt>
      <trkpt lat="47.88672" lon="7.12341">
        <ele>994.20001220703</ele>
        <time>2017-07-21T10:26:26Z</time>
      </trkpt>
      <trkpt lat="47.88659" lon="7.12333">
        <ele>993.20001220703</ele>
        <time>2017-07-21T10:26:27Z</time>
      </trkpt>
      <trkpt lat="47.88646" lon="7.12324">
        <ele>992.20001220703</ele>
        <time>2017-07-21T10:26:28Z</time>
      </trkpt>
      <trkpt lat="47.88634" lon="7.12314">
        <ele>991.20001220703</ele>
        <time>2017-07-21T10:26:29Z</time>
      </trkpt>
      <trkpt lat="47.88623" lon="7.12301">
        <ele>990.20001220703</ele>
        <time>2017-07-21T10:26:30Z</time>
      </trkpt>
      <trkpt lat="47.88614" lon="7.12287">
        <ele>987.79998779297</ele>
        <time>2017-07-21T10:26:31Z</time>
      </trkpt>
      <trkpt lat="47.88605" lon="7.12272">
        <ele>986.79998779297</ele>
        <time>2017-07-21T10:26:32Z</time>
      </trkpt>
      <trkpt lat="47.88597" lon="7.12256">
        <ele>985.59997558594</ele>
        <time>2017-07-21T10:26:33Z</time>
      </trkpt>
      <trkpt lat="47.8859" lon="7.1224">
        <ele>984.40002441406</ele>
        <time>2017-07-21T10:26:34Z</time>
      </trkpt>
      <trkpt lat="47.88585" lon="7.1222">
        <ele>983.40002441406</ele>
        <time>2017-07-21T10:26:35Z</time>
      </trkpt>
      <trkpt lat="47.88579" lon="7.12201">
        <ele>982.20001220703</ele>
        <time>2017-07-21T10:26:36Z</time>
      </trkpt>
      <trkpt lat="47.88573" lon="7.12182">
        <ele>981</ele>
        <time>2017-07-21T10:26:37Z</time>
      </trkpt>
      <trkpt lat="47.88567" lon="7.12163">
        <ele>980</ele>
        <time>2017-07-21T10:26:38Z</time>
      </trkpt>
      <trkpt lat="47.88561" lon="7.12143">
        <ele>978.79998779297</ele>
        <time>2017-07-21T10:26:39Z</time>
      </trkpt>
      <trkpt lat="47.88555" lon="7.12124">
        <ele>977.79998779297</ele>
        <time>2017-07-21T10:26:40Z</time>
      </trkpt>
      <trkpt lat="47.88549" lon="7.12106">
        <ele>976.59997558594</ele>
        <time>2017-07-21T10:26:41Z</time>
      </trkpt>
      <trkpt lat="47.88544" lon="7.12087">
        <ele>975.59997558594</ele>
        <time>2017-07-21T10:26:42Z</time>
      </trkpt>
      <trkpt lat="47.88538" lon="7.12069">
        <ele>974.40002441406</ele>
        <time>2017-07-21T10:26:43Z</time>
      </trkpt>
      <trkpt lat="47.88538" lon="7.12048">
        <ele>973.40002441406</ele>
        <time>2017-07-21T10:26:44Z</time>
      </trkpt>
      <trkpt lat="47.8854" lon="7.12027">
        <ele>972.40002441406</ele>
        <time>2017-07-21T10:26:45Z</time>
      </trkpt>
      <trkpt lat="47.88542" lon="7.12006">
        <ele>971.20001220703</ele>
        <time>2017-07-21T10:26:46Z</time>
      </trkpt>
      <trkpt lat="47.88545" lon="7.11988">
        <ele>970.20001220703</ele>
        <time>2017-07-21T10:26:47Z</time>
      </trkpt>
      <trkpt lat="47.88548" lon="7.11972">
        <ele>969</ele>
        <time>2017-07-21T10:26:48Z</time>
      </trkpt>
      <trkpt lat="47.88552" lon="7.11958">
        <ele>968</ele>
        <time>2017-07-21T10:26:49Z</time>
      </trkpt>
      <trkpt lat="47.88554" lon="7.11946">
        <ele>967</ele>
        <time>2017-07-21T10:26:50Z</time>
      </trkpt>
      <trkpt lat="47.88554" lon="7.11935">
        <ele>966</ele>
        <time>2017-07-21T10:26:51Z</time>
      </trkpt>
      <trkpt lat="47.88553" lon="7.11927">
        <ele>965.40002441406</ele>
        <time>2017-07-21T10:26:52Z</time>
      </trkpt>
      <trkpt lat="47.88555" lon="7.11924">
        <ele>963.20001220703</ele>
        <time>2017-07-21T10:26:55Z</time>
      </trkpt>
      <trkpt lat="47.88554" lon="7.11933">
        <ele>962.59997558594</ele>
        <time>2017-07-21T10:26:56Z</time>
      </trkpt>
      <trkpt lat="47.88546" lon="7.11964">
        <ele>961.79998779297</ele>
        <time>2017-07-21T10:26:58Z</time>
      </trkpt>
      <trkpt lat="47.88532" lon="7.12013">
        <ele>960.40002441406</ele>
        <time>2017-07-21T10:27:01Z</time>
      </trkpt>
      <trkpt lat="47.88527" lon="7.1203">
        <ele>959.79998779297</ele>
        <time>2017-07-21T10:27:02Z</time>
      </trkpt>
      <trkpt lat="47.88524" lon="7.12047">
        <ele>959.20001220703</ele>
        <time>2017-07-21T10:27:03Z</time>
      </trkpt>
      <trkpt lat="47.88522" lon="7.12081">
        <ele>958.20001220703</ele>
        <time>2017-07-21T10:27:05Z</time>
      </trkpt>
      <trkpt lat="47.88522" lon="7.12099">
        <ele>957.59997558594</ele>
        <time>2017-07-21T10:27:06Z</time>
      </trkpt>
      <trkpt lat="47.88523" lon="7.12116">
        <ele>957</ele>
        <time>2017-07-21T10:27:07Z</time>
      </trkpt>
      <trkpt lat="47.88525" lon="7.1215">
        <ele>955.20001220703</ele>
        <time>2017-07-21T10:27:09Z</time>
      </trkpt>
      <trkpt lat="47.88527" lon="7.12186">
        <ele>953.40002441406</ele>
        <time>2017-07-21T10:27:11Z</time>
      </trkpt>
      <trkpt lat="47.88529" lon="7.12203">
        <ele>952.20001220703</ele>
        <time>2017-07-21T10:27:12Z</time>
      </trkpt>
      <trkpt lat="47.88531" lon="7.12222">
        <ele>951.20001220703</ele>
        <time>2017-07-21T10:27:13Z</time>
      </trkpt>
      <trkpt lat="47.88538" lon="7.12249">
        <ele>950</ele>
        <time>2017-07-21T10:27:14Z</time>
      </trkpt>
      <trkpt lat="47.88543" lon="7.12272">
        <ele>948.79998779297</ele>
        <time>2017-07-21T10:27:15Z</time>
      </trkpt>
      <trkpt lat="47.88548" lon="7.12295">
        <ele>947.79998779297</ele>
        <time>2017-07-21T10:27:16Z</time>
      </trkpt>
      <trkpt lat="47.88552" lon="7.12317">
        <ele>946.59997558594</ele>
        <time>2017-07-21T10:27:17Z</time>
      </trkpt>
      <trkpt lat="47.88556" lon="7.12338">
        <ele>945.59997558594</ele>
        <time>2017-07-21T10:27:18Z</time>
      </trkpt>
      <trkpt lat="47.8856" lon="7.1236">
        <ele>943.20001220703</ele>
        <time>2017-07-21T10:27:19Z</time>
      </trkpt>
      <trkpt lat="47.88564" lon="7.1238">
        <ele>942</ele>
        <time>2017-07-21T10:27:20Z</time>
      </trkpt>
      <trkpt lat="47.88568" lon="7.12401">
        <ele>940.79998779297</ele>
        <time>2017-07-21T10:27:21Z</time>
      </trkpt>
      <trkpt lat="47.88572" lon="7.12422">
        <ele>939.59997558594</ele>
        <time>2017-07-21T10:27:22Z</time>
      </trkpt>
      <trkpt lat="47.88576" lon="7.12443">
        <ele>938.40002441406</ele>
        <time>2017-07-21T10:27:23Z</time>
      </trkpt>
      <trkpt lat="47.8858" lon="7.12462">
        <ele>937</ele>
        <time>2017-07-21T10:27:24Z</time>
      </trkpt>
      <trkpt lat="47.88583" lon="7.12482">
        <ele>935.79998779297</ele>
        <time>2017-07-21T10:27:25Z</time>
      </trkpt>
      <trkpt lat="47.88586" lon="7.125">
        <ele>934.79998779297</ele>
        <time>2017-07-21T10:27:26Z</time>
      </trkpt>
      <trkpt lat="47.88588" lon="7.12518">
        <ele>933.59997558594</ele>
        <time>2017-07-21T10:27:27Z</time>
      </trkpt>
      <trkpt lat="47.88591" lon="7.12536">
        <ele>932.40002441406</ele>
        <time>2017-07-21T10:27:28Z</time>
      </trkpt>
      <trkpt lat="47.88594" lon="7.12554">
        <ele>931.20001220703</ele>
        <time>2017-07-21T10:27:29Z</time>
      </trkpt>
      <trkpt lat="47.88597" lon="7.12572">
        <ele>930</ele>
        <time>2017-07-21T10:27:30Z</time>
      </trkpt>
      <trkpt lat="47.88601" lon="7.12589">
        <ele>929</ele>
        <time>2017-07-21T10:27:31Z</time>
      </trkpt>
      <trkpt lat="47.88604" lon="7.12607">
        <ele>927.79998779297</ele>
        <time>2017-07-21T10:27:32Z</time>
      </trkpt>
      <trkpt lat="47.88607" lon="7.12626">
        <ele>926.79998779297</ele>
        <time>2017-07-21T10:27:33Z</time>
      </trkpt>
      <trkpt lat="47.88609" lon="7.12645">
        <ele>925.59997558594</ele>
        <time>2017-07-21T10:27:34Z</time>
      </trkpt>
      <trkpt lat="47.88611" lon="7.12664">
        <ele>924.59997558594</ele>
        <time>2017-07-21T10:27:35Z</time>
      </trkpt>
      <trkpt lat="47.88611" lon="7.12684">
        <ele>923.40002441406</ele>
        <time>2017-07-21T10:27:36Z</time>
      </trkpt>
      <trkpt lat="47.88612" lon="7.12704">
        <ele>922.40002441406</ele>
        <time>2017-07-21T10:27:37Z</time>
      </trkpt>
      <trkpt lat="47.88613" lon="7.12723">
        <ele>921.20001220703</ele>
        <time>2017-07-21T10:27:38Z</time>
      </trkpt>
      <trkpt lat="47.88612" lon="7.12741">
        <ele>920.20001220703</ele>
        <time>2017-07-21T10:27:39Z</time>
      </trkpt>
      <trkpt lat="47.88611" lon="7.12758">
        <ele>919</ele>
        <time>2017-07-21T10:27:40Z</time>
      </trkpt>
      <trkpt lat="47.88607" lon="7.12774">
        <ele>918</ele>
        <time>2017-07-21T10:27:41Z</time>
      </trkpt>
      <trkpt lat="47.88604" lon="7.12789">
        <ele>917</ele>
        <time>2017-07-21T10:27:42Z</time>
      </trkpt>
      <trkpt lat="47.886" lon="7.12803">
        <ele>915.40002441406</ele>
        <time>2017-07-21T10:27:43Z</time>
      </trkpt>
      <trkpt lat="47.8859" lon="7.12827">
        <ele>914.20001220703</ele>
        <time>2017-07-21T10:27:45Z</time>
      </trkpt>
      <trkpt lat="47.88584" lon="7.12838">
        <ele>913.79998779297</ele>
        <time>2017-07-21T10:27:46Z</time>
      </trkpt>
      <trkpt lat="47.88561" lon="7.1285">
        <ele>912.79998779297</ele>
        <time>2017-07-21T10:27:48Z</time>
      </trkpt>
      <trkpt lat="47.88537" lon="7.12861">
        <ele>911.59997558594</ele>
        <time>2017-07-21T10:27:50Z</time>
      </trkpt>
      <trkpt lat="47.88512" lon="7.12873">
        <ele>910.20001220703</ele>
        <time>2017-07-21T10:27:52Z</time>
      </trkpt>
      <trkpt lat="47.88501" lon="7.1288">
        <ele>909.40002441406</ele>
        <time>2017-07-21T10:27:53Z</time>
      </trkpt>
      <trkpt lat="47.8849" lon="7.12889">
        <ele>908.59997558594</ele>
        <time>2017-07-21T10:27:54Z</time>
      </trkpt>
      <trkpt lat="47.88469" lon="7.12911">
        <ele>906.59997558594</ele>
        <time>2017-07-21T10:27:56Z</time>
      </trkpt>
      <trkpt lat="47.88444" lon="7.12925">
        <ele>904.79998779297</ele>
        <time>2017-07-21T10:27:58Z</time>
      </trkpt>
      <trkpt lat="47.88422" lon="7.12943">
        <ele>903</ele>
        <time>2017-07-21T10:28:00Z</time>
      </trkpt>
      <trkpt lat="47.88407" lon="7.12947">
        <ele>902.20001220703</ele>
        <time>2017-07-21T10:28:01Z</time>
      </trkpt>
      <trkpt lat="47.88392" lon="7.12951">
        <ele>901.40002441406</ele>
        <time>2017-07-21T10:28:02Z</time>
      </trkpt>
      <trkpt lat="47.88362" lon="7.12956">
        <ele>900</ele>
        <time>2017-07-21T10:28:04Z</time>
      </trkpt>
      <trkpt lat="47.88348" lon="7.12953">
        <ele>899.20001220703</ele>
        <time>2017-07-21T10:28:05Z</time>
      </trkpt>
      <trkpt lat="47.88335" lon="7.12947">
        <ele>898.59997558594</ele>
        <time>2017-07-21T10:28:06Z</time>
      </trkpt>
      <trkpt lat="47.88322" lon="7.12942">
        <ele>897.40002441406</ele>
        <time>2017-07-21T10:28:07Z</time>
      </trkpt>
      <trkpt lat="47.88298" lon="7.12931">
        <ele>896.20001220703</ele>
        <time>2017-07-21T10:28:09Z</time>
      </trkpt>
      <trkpt lat="47.88273" lon="7.12917">
        <ele>894.79998779297</ele>
        <time>2017-07-21T10:28:11Z</time>
      </trkpt>
      <trkpt lat="47.88249" lon="7.12906">
        <ele>893.20001220703</ele>
        <time>2017-07-21T10:28:13Z</time>
      </trkpt>
      <trkpt lat="47.88236" lon="7.12901">
        <ele>892.40002441406</ele>
        <time>2017-07-21T10:28:14Z</time>
      </trkpt>
      <trkpt lat="47.88224" lon="7.12894">
        <ele>891.40002441406</ele>
        <time>2017-07-21T10:28:15Z</time>
      </trkpt>
      <trkpt lat="47.88199" lon="7.12883">
        <ele>889.40002441406</ele>
        <time>2017-07-21T10:28:17Z</time>
      </trkpt>
      <trkpt lat="47.88173" lon="7.12869">
        <ele>887.40002441406</ele>
        <time>2017-07-21T10:28:19Z</time>
      </trkpt>
      <trkpt lat="47.8816" lon="7.12863">
        <ele>886.40002441406</ele>
        <time>2017-07-21T10:28:20Z</time>
      </trkpt>
      <trkpt lat="47.88147" lon="7.12857">
        <ele>885.40002441406</ele>
        <time>2017-07-21T10:28:21Z</time>
      </trkpt>
      <trkpt lat="47.88135" lon="7.12851">
        <ele>884.20001220703</ele>
        <time>2017-07-21T10:28:22Z</time>
      </trkpt>
      <trkpt lat="47.88125" lon="7.12845">
        <ele>883</ele>
        <time>2017-07-21T10:28:23Z</time>
      </trkpt>
      <trkpt lat="47.88114" lon="7.1284">
        <ele>882</ele>
        <time>2017-07-21T10:28:24Z</time>
      </trkpt>
      <trkpt lat="47.88104" lon="7.12837">
        <ele>880.79998779297</ele>
        <time>2017-07-21T10:28:25Z</time>
      </trkpt>
      <trkpt lat="47.88094" lon="7.12836">
        <ele>879.59997558594</ele>
        <time>2017-07-21T10:28:26Z</time>
      </trkpt>
      <trkpt lat="47.88085" lon="7.12837">
        <ele>878.40002441406</ele>
        <time>2017-07-21T10:28:27Z</time>
      </trkpt>
      <trkpt lat="47.88076" lon="7.1284">
        <ele>877.20001220703</ele>
        <time>2017-07-21T10:28:28Z</time>
      </trkpt>
      <trkpt lat="47.88068" lon="7.12843">
        <ele>876</ele>
        <time>2017-07-21T10:28:29Z</time>
      </trkpt>
      <trkpt lat="47.88052" lon="7.12853">
        <ele>874.20001220703</ele>
        <time>2017-07-21T10:28:31Z</time>
      </trkpt>
      <trkpt lat="47.88044" lon="7.12859">
        <ele>873.40002441406</ele>
        <time>2017-07-21T10:28:32Z</time>
      </trkpt>
      <trkpt lat="47.88034" lon="7.12858">
        <ele>872.79998779297</ele>
        <time>2017-07-21T10:28:33Z</time>
      </trkpt>
      <trkpt lat="47.88016" lon="7.12856">
        <ele>871.59997558594</ele>
        <time>2017-07-21T10:28:35Z</time>
      </trkpt>
      <trkpt lat="47.88007" lon="7.12855">
        <ele>871.20001220703</ele>
        <time>2017-07-21T10:28:36Z</time>
      </trkpt>
      <trkpt lat="47.87989" lon="7.1285">
        <ele>870.59997558594</ele>
        <time>2017-07-21T10:28:38Z</time>
      </trkpt>
      <trkpt lat="47.87962" lon="7.12839">
        <ele>869.59997558594</ele>
        <time>2017-07-21T10:28:41Z</time>
      </trkpt>
      <trkpt lat="47.87954" lon="7.12833">
        <ele>869.20001220703</ele>
        <time>2017-07-21T10:28:42Z</time>
      </trkpt>
      <trkpt lat="47.87936" lon="7.12817">
        <ele>868.20001220703</ele>
        <time>2017-07-21T10:28:44Z</time>
      </trkpt>
      <trkpt lat="47.87927" lon="7.12808">
        <ele>867.40002441406</ele>
        <time>2017-07-21T10:28:45Z</time>
      </trkpt>
      <trkpt lat="47.87919" lon="7.128">
        <ele>866.59997558594</ele>
        <time>2017-07-21T10:28:46Z</time>
      </trkpt>
      <trkpt lat="47.87901" lon="7.12782">
        <ele>864.59997558594</ele>
        <time>2017-07-21T10:28:48Z</time>
      </trkpt>
      <trkpt lat="47.87893" lon="7.12773">
        <ele>863.59997558594</ele>
        <time>2017-07-21T10:28:49Z</time>
      </trkpt>
      <trkpt lat="47.87887" lon="7.12763">
        <ele>862.40002441406</ele>
        <time>2017-07-21T10:28:50Z</time>
      </trkpt>
      <trkpt lat="47.8788" lon="7.12739">
        <ele>860.59997558594</ele>
        <time>2017-07-21T10:28:52Z</time>
      </trkpt>
      <trkpt lat="47.87879" lon="7.12725">
        <ele>859.59997558594</ele>
        <time>2017-07-21T10:28:53Z</time>
      </trkpt>
      <trkpt lat="47.87877" lon="7.12713">
        <ele>858.79998779297</ele>
        <time>2017-07-21T10:28:54Z</time>
      </trkpt>
      <trkpt lat="47.87882" lon="7.12705">
        <ele>857.40002441406</ele>
        <time>2017-07-21T10:28:55Z</time>
      </trkpt>
      <trkpt lat="47.87887" lon="7.1269">
        <ele>856</ele>
        <time>2017-07-21T10:28:57Z</time>
      </trkpt>
      <trkpt lat="47.87896" lon="7.12684">
        <ele>854.40002441406</ele>
        <time>2017-07-21T10:28:59Z</time>
      </trkpt>
      <trkpt lat="47.87909" lon="7.12688">
        <ele>853.59997558594</ele>
        <time>2017-07-21T10:29:00Z</time>
      </trkpt>
      <trkpt lat="47.87916" lon="7.12687">
        <ele>852.79998779297</ele>
        <time>2017-07-21T10:29:01Z</time>
      </trkpt>
      <trkpt lat="47.87936" lon="7.12679">
        <ele>851.40002441406</ele>
        <time>2017-07-21T10:29:03Z</time>
      </trkpt>
      <trkpt lat="47.87944" lon="7.12677">
        <ele>850.59997558594</ele>
        <time>2017-07-21T10:29:04Z</time>
      </trkpt>
      <trkpt lat="47.87949" lon="7.12676">
        <ele>850.20001220703</ele>
        <time>2017-07-21T10:29:05Z</time>
      </trkpt>
      <trkpt lat="47.8795" lon="7.12676">
        <ele>849.79998779297</ele>
        <time>2017-07-21T10:29:06Z</time>
      </trkpt>
      <trkpt lat="47.87948" lon="7.12679">
        <ele>849.40002441406</ele>
        <time>2017-07-21T10:29:07Z</time>
      </trkpt>
      <trkpt lat="47.87949" lon="7.12683">
        <ele>849.20001220703</ele>
        <time>2017-07-21T10:29:08Z</time>
      </trkpt>
      <trkpt lat="47.87925" lon="7.12683">
        <ele>847.59997558594</ele>
        <time>2017-07-21T10:29:12Z</time>
      </trkpt>
      <trkpt lat="47.87909" lon="7.12676">
        <ele>846.59997558594</ele>
        <time>2017-07-21T10:29:14Z</time>
      </trkpt>
      <trkpt lat="47.8789" lon="7.12667">
        <ele>845.59997558594</ele>
        <time>2017-07-21T10:29:16Z</time>
      </trkpt>
      <trkpt lat="47.87879" lon="7.12661">
        <ele>845</ele>
        <time>2017-07-21T10:29:17Z</time>
      </trkpt>
      <trkpt lat="47.87868" lon="7.12657">
        <ele>844.20001220703</ele>
        <time>2017-07-21T10:29:18Z</time>
      </trkpt>
      <trkpt lat="47.87856" lon="7.12656">
        <ele>842.40002441406</ele>
        <time>2017-07-21T10:29:19Z</time>
      </trkpt>
      <trkpt lat="47.87844" lon="7.12656">
        <ele>841.40002441406</ele>
        <time>2017-07-21T10:29:20Z</time>
      </trkpt>
      <trkpt lat="47.87832" lon="7.12657">
        <ele>840.59997558594</ele>
        <time>2017-07-21T10:29:21Z</time>
      </trkpt>
      <trkpt lat="47.87806" lon="7.12659">
        <ele>838.59997558594</ele>
        <time>2017-07-21T10:29:23Z</time>
      </trkpt>
      <trkpt lat="47.87793" lon="7.12658">
        <ele>837.59997558594</ele>
        <time>2017-07-21T10:29:24Z</time>
      </trkpt>
      <trkpt lat="47.8778" lon="7.12658">
        <ele>836.40002441406</ele>
        <time>2017-07-21T10:29:25Z</time>
      </trkpt>
      <trkpt lat="47.87767" lon="7.12659">
        <ele>835.40002441406</ele>
        <time>2017-07-21T10:29:26Z</time>
      </trkpt>
      <trkpt lat="47.87754" lon="7.12662">
        <ele>834.40002441406</ele>
        <time>2017-07-21T10:29:27Z</time>
      </trkpt>
      <trkpt lat="47.87741" lon="7.12668">
        <ele>833.40002441406</ele>
        <time>2017-07-21T10:29:28Z</time>
      </trkpt>
      <trkpt lat="47.87729" lon="7.12673">
        <ele>832.40002441406</ele>
        <time>2017-07-21T10:29:29Z</time>
      </trkpt>
      <trkpt lat="47.87715" lon="7.12674">
        <ele>831.20001220703</ele>
        <time>2017-07-21T10:29:30Z</time>
      </trkpt>
      <trkpt lat="47.87701" lon="7.12672">
        <ele>830</ele>
        <time>2017-07-21T10:29:31Z</time>
      </trkpt>
      <trkpt lat="47.87688" lon="7.12668">
        <ele>828.79998779297</ele>
        <time>2017-07-21T10:29:32Z</time>
      </trkpt>
      <trkpt lat="47.87675" lon="7.12664">
        <ele>827.40002441406</ele>
        <time>2017-07-21T10:29:33Z</time>
      </trkpt>
      <trkpt lat="47.87662" lon="7.12661">
        <ele>826.20001220703</ele>
        <time>2017-07-21T10:29:34Z</time>
      </trkpt>
      <trkpt lat="47.87649" lon="7.12658">
        <ele>824.79998779297</ele>
        <time>2017-07-21T10:29:35Z</time>
      </trkpt>
      <trkpt lat="47.87636" lon="7.12654">
        <ele>823.59997558594</ele>
        <time>2017-07-21T10:29:36Z</time>
      </trkpt>
      <trkpt lat="47.87623" lon="7.12652">
        <ele>822.20001220703</ele>
        <time>2017-07-21T10:29:37Z</time>
      </trkpt>
      <trkpt lat="47.87611" lon="7.12653">
        <ele>821</ele>
        <time>2017-07-21T10:29:38Z</time>
      </trkpt>
      <trkpt lat="47.87599" lon="7.12655">
        <ele>819.79998779297</ele>
        <time>2017-07-21T10:29:39Z</time>
      </trkpt>
      <trkpt lat="47.87588" lon="7.12659">
        <ele>818.59997558594</ele>
        <time>2017-07-21T10:29:40Z</time>
      </trkpt>
      <trkpt lat="47.87578" lon="7.12665">
        <ele>817.20001220703</ele>
        <time>2017-07-21T10:29:41Z</time>
      </trkpt>
      <trkpt lat="47.87568" lon="7.12673">
        <ele>816</ele>
        <time>2017-07-21T10:29:42Z</time>
      </trkpt>
      <trkpt lat="47.8756" lon="7.12682">
        <ele>813.40002441406</ele>
        <time>2017-07-21T10:29:43Z</time>
      </trkpt>
      <trkpt lat="47.87551" lon="7.12691">
        <ele>812.40002441406</ele>
        <time>2017-07-21T10:29:44Z</time>
      </trkpt>
      <trkpt lat="47.87544" lon="7.127">
        <ele>811.20001220703</ele>
        <time>2017-07-21T10:29:45Z</time>
      </trkpt>
      <trkpt lat="47.87539" lon="7.12709">
        <ele>810.20001220703</ele>
        <time>2017-07-21T10:29:46Z</time>
      </trkpt>
      <trkpt lat="47.87535" lon="7.1272">
        <ele>808.20001220703</ele>
        <time>2017-07-21T10:29:48Z</time>
      </trkpt>
      <trkpt lat="47.87536" lon="7.12724">
        <ele>807.40002441406</ele>
        <time>2017-07-21T10:29:49Z</time>
      </trkpt>
      <trkpt lat="47.87537" lon="7.12727">
        <ele>806.40002441406</ele>
        <time>2017-07-21T10:29:50Z</time>
      </trkpt>
      <trkpt lat="47.87541" lon="7.12734">
        <ele>805.20001220703</ele>
        <time>2017-07-21T10:29:52Z</time>
      </trkpt>
      <trkpt lat="47.87542" lon="7.12738">
        <ele>805</ele>
        <time>2017-07-21T10:29:53Z</time>
      </trkpt>
      <trkpt lat="47.87546" lon="7.12744">
        <ele>804.59997558594</ele>
        <time>2017-07-21T10:29:55Z</time>
      </trkpt>
      <trkpt lat="47.87549" lon="7.12751">
        <ele>804.40002441406</ele>
        <time>2017-07-21T10:29:57Z</time>
      </trkpt>
      <trkpt lat="47.87549" lon="7.12754">
        <ele>804.40002441406</ele>
        <time>2017-07-21T10:29:58Z</time>
      </trkpt>
      <trkpt lat="47.87547" lon="7.12752">
        <ele>804.20001220703</ele>
        <time>2017-07-21T10:30:01Z</time>
      </trkpt>
      <trkpt lat="47.87547" lon="7.12748">
        <ele>803.79998779297</ele>
        <time>2017-07-21T10:31:35Z</time>
      </trkpt>
      <trkpt lat="47.87546" lon="7.12745">
        <ele>804</ele>
        <time>2017-07-21T10:31:36Z</time>
      </trkpt>
      <trkpt lat="47.8755" lon="7.12737">
        <ele>804.20001220703</ele>
        <time>2017-07-21T10:31:40Z</time>
      </trkpt>
      <trkpt lat="47.87548" lon="7.12729">
        <ele>804.20001220703</ele>
        <time>2017-07-21T10:31:43Z</time>
      </trkpt>
      <trkpt lat="47.87547" lon="7.12726">
        <ele>804.20001220703</ele>
        <time>2017-07-21T10:31:44Z</time>
      </trkpt>
      <trkpt lat="47.87547" lon="7.12722">
        <ele>804.20001220703</ele>
        <time>2017-07-21T10:31:45Z</time>
      </trkpt>
      <trkpt lat="47.87548" lon="7.12709">
        <ele>804.20001220703</ele>
        <time>2017-07-21T10:31:48Z</time>
      </trkpt>
      <trkpt lat="47.87557" lon="7.12695">
        <ele>804</ele>
        <time>2017-07-21T10:31:52Z</time>
      </trkpt>
      <trkpt lat="47.87563" lon="7.12687">
        <ele>804</ele>
        <time>2017-07-21T10:31:54Z</time>
      </trkpt>
      <trkpt lat="47.87569" lon="7.1268">
        <ele>804.20001220703</ele>
        <time>2017-07-21T10:31:56Z</time>
      </trkpt>
      <trkpt lat="47.87577" lon="7.12673">
        <ele>804.20001220703</ele>
        <time>2017-07-21T10:31:58Z</time>
      </trkpt>
      <trkpt lat="47.87596" lon="7.12651">
        <ele>804.20001220703</ele>
        <time>2017-07-21T10:32:03Z</time>
      </trkpt>
      <trkpt lat="47.876" lon="7.12647">
        <ele>804.20001220703</ele>
        <time>2017-07-21T10:32:04Z</time>
      </trkpt>
      <trkpt lat="47.87635" lon="7.12624">
        <ele>803.59997558594</ele>
        <time>2017-07-21T10:32:11Z</time>
      </trkpt>
      <trkpt lat="47.87647" lon="7.1262">
        <ele>803.20001220703</ele>
        <time>2017-07-21T10:32:13Z</time>
      </trkpt>
      <trkpt lat="47.87653" lon="7.12618">
        <ele>803.20001220703</ele>
        <time>2017-07-21T10:32:14Z</time>
      </trkpt>
      <trkpt lat="47.8766" lon="7.12616">
        <ele>803.20001220703</ele>
        <time>2017-07-21T10:32:15Z</time>
      </trkpt>
      <trkpt lat="47.87666" lon="7.12614">
        <ele>803</ele>
        <time>2017-07-21T10:32:16Z</time>
      </trkpt>
      <trkpt lat="47.87709" lon="7.1259">
        <ele>802.40002441406</ele>
        <time>2017-07-21T10:32:23Z</time>
      </trkpt>
      <trkpt lat="47.87716" lon="7.12585">
        <ele>802.20001220703</ele>
        <time>2017-07-21T10:32:24Z</time>
      </trkpt>
      <trkpt lat="47.87748" lon="7.12564">
        <ele>801.20001220703</ele>
        <time>2017-07-21T10:32:29Z</time>
      </trkpt>
      <trkpt lat="47.87755" lon="7.12563">
        <ele>801.20001220703</ele>
        <time>2017-07-21T10:32:30Z</time>
      </trkpt>
      <trkpt lat="47.87776" lon="7.12562">
        <ele>800.79998779297</ele>
        <time>2017-07-21T10:32:33Z</time>
      </trkpt>
      <trkpt lat="47.87804" lon="7.12566">
        <ele>800</ele>
        <time>2017-07-21T10:32:37Z</time>
      </trkpt>
      <trkpt lat="47.87817" lon="7.12565">
        <ele>799.59997558594</ele>
        <time>2017-07-21T10:32:39Z</time>
      </trkpt>
      <trkpt lat="47.87844" lon="7.12554">
        <ele>798.79998779297</ele>
        <time>2017-07-21T10:32:43Z</time>
      </trkpt>
      <trkpt lat="47.87858" lon="7.12542">
        <ele>798.20001220703</ele>
        <time>2017-07-21T10:32:45Z</time>
      </trkpt>
      <trkpt lat="47.87865" lon="7.12536">
        <ele>797.79998779297</ele>
        <time>2017-07-21T10:32:46Z</time>
      </trkpt>
      <trkpt lat="47.87873" lon="7.1253">
        <ele>797.40002441406</ele>
        <time>2017-07-21T10:32:47Z</time>
      </trkpt>
      <trkpt lat="47.87889" lon="7.12519">
        <ele>796.59997558594</ele>
        <time>2017-07-21T10:32:49Z</time>
      </trkpt>
      <trkpt lat="47.87918" lon="7.12506">
        <ele>795</ele>
        <time>2017-07-21T10:32:52Z</time>
      </trkpt>
      <trkpt lat="47.8794" lon="7.125">
        <ele>793.59997558594</ele>
        <time>2017-07-21T10:32:54Z</time>
      </trkpt>
      <trkpt lat="47.87952" lon="7.125">
        <ele>791.79998779297</ele>
        <time>2017-07-21T10:32:55Z</time>
      </trkpt>
      <trkpt lat="47.87963" lon="7.12501">
        <ele>790.79998779297</ele>
        <time>2017-07-21T10:32:56Z</time>
      </trkpt>
      <trkpt lat="47.87975" lon="7.12502">
        <ele>790</ele>
        <time>2017-07-21T10:32:57Z</time>
      </trkpt>
      <trkpt lat="47.87999" lon="7.12504">
        <ele>788.40002441406</ele>
        <time>2017-07-21T10:32:59Z</time>
      </trkpt>
      <trkpt lat="47.88023" lon="7.12507">
        <ele>787</ele>
        <time>2017-07-21T10:33:01Z</time>
      </trkpt>
      <trkpt lat="47.88049" lon="7.12514">
        <ele>785.40002441406</ele>
        <time>2017-07-21T10:33:03Z</time>
      </trkpt>
      <trkpt lat="47.88072" lon="7.12525">
        <ele>784</ele>
        <time>2017-07-21T10:33:05Z</time>
      </trkpt>
      <trkpt lat="47.88084" lon="7.12529">
        <ele>783.20001220703</ele>
        <time>2017-07-21T10:33:06Z</time>
      </trkpt>
      <trkpt lat="47.88095" lon="7.12533">
        <ele>782.40002441406</ele>
        <time>2017-07-21T10:33:07Z</time>
      </trkpt>
      <trkpt lat="47.88118" lon="7.12537">
        <ele>781</ele>
        <time>2017-07-21T10:33:09Z</time>
      </trkpt>
      <trkpt lat="47.88139" lon="7.12541">
        <ele>779.79998779297</ele>
        <time>2017-07-21T10:33:11Z</time>
      </trkpt>
      <trkpt lat="47.88167" lon="7.1255">
        <ele>778.40002441406</ele>
        <time>2017-07-21T10:33:14Z</time>
      </trkpt>
      <trkpt lat="47.88206" lon="7.1256">
        <ele>777.40002441406</ele>
        <time>2017-07-21T10:33:19Z</time>
      </trkpt>
      <trkpt lat="47.88228" lon="7.12539">
        <ele>777.20001220703</ele>
        <time>2017-07-21T10:33:22Z</time>
      </trkpt>
      <trkpt lat="47.88231" lon="7.12507">
        <ele>776.79998779297</ele>
        <time>2017-07-21T10:33:26Z</time>
      </trkpt>
      <trkpt lat="47.8822" lon="7.1247">
        <ele>776.40002441406</ele>
        <time>2017-07-21T10:33:29Z</time>
      </trkpt>
      <trkpt lat="47.88214" lon="7.12461">
        <ele>776.20001220703</ele>
        <time>2017-07-21T10:33:30Z</time>
      </trkpt>
      <trkpt lat="47.88201" lon="7.12442">
        <ele>775.79998779297</ele>
        <time>2017-07-21T10:33:32Z</time>
      </trkpt>
      <trkpt lat="47.88193" lon="7.12432">
        <ele>775.40002441406</ele>
        <time>2017-07-21T10:33:33Z</time>
      </trkpt>
      <trkpt lat="47.88186" lon="7.12422">
        <ele>775</ele>
        <time>2017-07-21T10:33:34Z</time>
      </trkpt>
      <trkpt lat="47.88166" lon="7.1239">
        <ele>773.79998779297</ele>
        <time>2017-07-21T10:33:37Z</time>
      </trkpt>
      <trkpt lat="47.88151" lon="7.12368">
        <ele>772.79998779297</ele>
        <time>2017-07-21T10:33:39Z</time>
      </trkpt>
      <trkpt lat="47.88144" lon="7.12357">
        <ele>772.40002441406</ele>
        <time>2017-07-21T10:33:40Z</time>
      </trkpt>
      <trkpt lat="47.88129" lon="7.12335">
        <ele>771.40002441406</ele>
        <time>2017-07-21T10:33:42Z</time>
      </trkpt>
      <trkpt lat="47.88114" lon="7.12315">
        <ele>769.79998779297</ele>
        <time>2017-07-21T10:33:44Z</time>
      </trkpt>
      <trkpt lat="47.88106" lon="7.12304">
        <ele>769.20001220703</ele>
        <time>2017-07-21T10:33:45Z</time>
      </trkpt>
      <trkpt lat="47.88098" lon="7.12293">
        <ele>768.59997558594</ele>
        <time>2017-07-21T10:33:46Z</time>
      </trkpt>
      <trkpt lat="47.88083" lon="7.1227">
        <ele>767.40002441406</ele>
        <time>2017-07-21T10:33:48Z</time>
      </trkpt>
      <trkpt lat="47.88068" lon="7.12248">
        <ele>766.20001220703</ele>
        <time>2017-07-21T10:33:50Z</time>
      </trkpt>
      <trkpt lat="47.88061" lon="7.12237">
        <ele>765.59997558594</ele>
        <time>2017-07-21T10:33:51Z</time>
      </trkpt>
      <trkpt lat="47.88053" lon="7.12226">
        <ele>765</ele>
        <time>2017-07-21T10:33:52Z</time>
      </trkpt>
      <trkpt lat="47.88038" lon="7.12207">
        <ele>763.79998779297</ele>
        <time>2017-07-21T10:33:54Z</time>
      </trkpt>
      <trkpt lat="47.88021" lon="7.1219">
        <ele>762.59997558594</ele>
        <time>2017-07-21T10:33:56Z</time>
      </trkpt>
      <trkpt lat="47.88004" lon="7.12175">
        <ele>761.40002441406</ele>
        <time>2017-07-21T10:33:58Z</time>
      </trkpt>
      <trkpt lat="47.87986" lon="7.12161">
        <ele>760.20001220703</ele>
        <time>2017-07-21T10:34:00Z</time>
      </trkpt>
      <trkpt lat="47.87977" lon="7.12153">
        <ele>759.59997558594</ele>
        <time>2017-07-21T10:34:01Z</time>
      </trkpt>
      <trkpt lat="47.87968" lon="7.12145">
        <ele>759</ele>
        <time>2017-07-21T10:34:02Z</time>
      </trkpt>
      <trkpt lat="47.8795" lon="7.12125">
        <ele>757.79998779297</ele>
        <time>2017-07-21T10:34:04Z</time>
      </trkpt>
      <trkpt lat="47.87933" lon="7.12104">
        <ele>756.59997558594</ele>
        <time>2017-07-21T10:34:06Z</time>
      </trkpt>
      <trkpt lat="47.87917" lon="7.12079">
        <ele>754.59997558594</ele>
        <time>2017-07-21T10:34:08Z</time>
      </trkpt>
      <trkpt lat="47.87901" lon="7.12055">
        <ele>752.79998779297</ele>
        <time>2017-07-21T10:34:10Z</time>
      </trkpt>
      <trkpt lat="47.87886" lon="7.12027">
        <ele>750.79998779297</ele>
        <time>2017-07-21T10:34:12Z</time>
      </trkpt>
      <trkpt lat="47.87877" lon="7.12014">
        <ele>749.59997558594</ele>
        <time>2017-07-21T10:34:13Z</time>
      </trkpt>
      <trkpt lat="47.87867" lon="7.12005">
        <ele>748.59997558594</ele>
        <time>2017-07-21T10:34:14Z</time>
      </trkpt>
      <trkpt lat="47.87857" lon="7.11995">
        <ele>747.59997558594</ele>
        <time>2017-07-21T10:34:15Z</time>
      </trkpt>
      <trkpt lat="47.87847" lon="7.11987">
        <ele>746.40002441406</ele>
        <time>2017-07-21T10:34:16Z</time>
      </trkpt>
      <trkpt lat="47.87837" lon="7.11978">
        <ele>745.40002441406</ele>
        <time>2017-07-21T10:34:17Z</time>
      </trkpt>
      <trkpt lat="47.87827" lon="7.11966">
        <ele>744.40002441406</ele>
        <time>2017-07-21T10:34:18Z</time>
      </trkpt>
      <trkpt lat="47.87817" lon="7.11953">
        <ele>743.20001220703</ele>
        <time>2017-07-21T10:34:19Z</time>
      </trkpt>
      <trkpt lat="47.87808" lon="7.11938">
        <ele>742.20001220703</ele>
        <time>2017-07-21T10:34:20Z</time>
      </trkpt>
      <trkpt lat="47.87798" lon="7.11924">
        <ele>741</ele>
        <time>2017-07-21T10:34:21Z</time>
      </trkpt>
      <trkpt lat="47.87788" lon="7.1191">
        <ele>739.79998779297</ele>
        <time>2017-07-21T10:34:22Z</time>
      </trkpt>
      <trkpt lat="47.87776" lon="7.11899">
        <ele>738.59997558594</ele>
        <time>2017-07-21T10:34:23Z</time>
      </trkpt>
      <trkpt lat="47.87764" lon="7.1189">
        <ele>737.20001220703</ele>
        <time>2017-07-21T10:34:24Z</time>
      </trkpt>
      <trkpt lat="47.87751" lon="7.11886">
        <ele>736</ele>
        <time>2017-07-21T10:34:25Z</time>
      </trkpt>
      <trkpt lat="47.87738" lon="7.11887">
        <ele>734.79998779297</ele>
        <time>2017-07-21T10:34:26Z</time>
      </trkpt>
      <trkpt lat="47.87724" lon="7.11889">
        <ele>733.59997558594</ele>
        <time>2017-07-21T10:34:27Z</time>
      </trkpt>
      <trkpt lat="47.87711" lon="7.11893">
        <ele>732.59997558594</ele>
        <time>2017-07-21T10:34:28Z</time>
      </trkpt>
      <trkpt lat="47.87698" lon="7.11895">
        <ele>731.40002441406</ele>
        <time>2017-07-21T10:34:29Z</time>
      </trkpt>
      <trkpt lat="47.87685" lon="7.11896">
        <ele>730.40002441406</ele>
        <time>2017-07-21T10:34:30Z</time>
      </trkpt>
      <trkpt lat="47.87674" lon="7.11898">
        <ele>729.40002441406</ele>
        <time>2017-07-21T10:34:31Z</time>
      </trkpt>
      <trkpt lat="47.87663" lon="7.11897">
        <ele>727</ele>
        <time>2017-07-21T10:34:32Z</time>
      </trkpt>
      <trkpt lat="47.87651" lon="7.11893">
        <ele>726</ele>
        <time>2017-07-21T10:34:33Z</time>
      </trkpt>
      <trkpt lat="47.87638" lon="7.11887">
        <ele>724.79998779297</ele>
        <time>2017-07-21T10:34:34Z</time>
      </trkpt>
      <trkpt lat="47.87626" lon="7.11879">
        <ele>723.79998779297</ele>
        <time>2017-07-21T10:34:35Z</time>
      </trkpt>
      <trkpt lat="47.87614" lon="7.11872">
        <ele>722.79998779297</ele>
        <time>2017-07-21T10:34:36Z</time>
      </trkpt>
      <trkpt lat="47.87602" lon="7.11864">
        <ele>722</ele>
        <time>2017-07-21T10:34:37Z</time>
      </trkpt>
      <trkpt lat="47.87591" lon="7.1186">
        <ele>721</ele>
        <time>2017-07-21T10:34:38Z</time>
      </trkpt>
      <trkpt lat="47.87582" lon="7.11857">
        <ele>720</ele>
        <time>2017-07-21T10:34:39Z</time>
      </trkpt>
      <trkpt lat="47.8767" lon="7.11763">
        <ele>718.40002441406</ele>
        <time>2017-07-21T10:34:41Z</time>
      </trkpt>
      <trkpt lat="47.8768" lon="7.11735">
        <ele>716.59997558594</ele>
        <time>2017-07-21T10:34:43Z</time>
      </trkpt>
      <trkpt lat="47.87688" lon="7.11708">
        <ele>714.59997558594</ele>
        <time>2017-07-21T10:34:45Z</time>
      </trkpt>
      <trkpt lat="47.87689" lon="7.117">
        <ele>713.79998779297</ele>
        <time>2017-07-21T10:34:46Z</time>
      </trkpt>
      <trkpt lat="47.87682" lon="7.11686">
        <ele>713</ele>
        <time>2017-07-21T10:34:47Z</time>
      </trkpt>
      <trkpt lat="47.8767" lon="7.1167">
        <ele>712</ele>
        <time>2017-07-21T10:34:48Z</time>
      </trkpt>
      <trkpt lat="47.87659" lon="7.11654">
        <ele>711</ele>
        <time>2017-07-21T10:34:49Z</time>
      </trkpt>
      <trkpt lat="47.87645" lon="7.11625">
        <ele>709.20001220703</ele>
        <time>2017-07-21T10:34:51Z</time>
      </trkpt>
      <trkpt lat="47.87641" lon="7.11611">
        <ele>708.40002441406</ele>
        <time>2017-07-21T10:34:52Z</time>
      </trkpt>
      <trkpt lat="47.87639" lon="7.11594">
        <ele>707.59997558594</ele>
        <time>2017-07-21T10:34:53Z</time>
      </trkpt>
      <trkpt lat="47.87643" lon="7.11576">
        <ele>706.79998779297</ele>
        <time>2017-07-21T10:34:54Z</time>
      </trkpt>
      <trkpt lat="47.87646" lon="7.11559">
        <ele>706</ele>
        <time>2017-07-21T10:34:55Z</time>
      </trkpt>
      <trkpt lat="47.87651" lon="7.11543">
        <ele>704.40002441406</ele>
        <time>2017-07-21T10:34:56Z</time>
      </trkpt>
      <trkpt lat="47.87658" lon="7.11526">
        <ele>703.59997558594</ele>
        <time>2017-07-21T10:34:57Z</time>
      </trkpt>
      <trkpt lat="47.87669" lon="7.11511">
        <ele>702.59997558594</ele>
        <time>2017-07-21T10:34:58Z</time>
      </trkpt>
      <trkpt lat="47.87682" lon="7.11501">
        <ele>701.79998779297</ele>
        <time>2017-07-21T10:34:59Z</time>
      </trkpt>
      <trkpt lat="47.87695" lon="7.11492">
        <ele>700.79998779297</ele>
        <time>2017-07-21T10:35:00Z</time>
      </trkpt>
      <trkpt lat="47.87715" lon="7.11468">
        <ele>698.79998779297</ele>
        <time>2017-07-21T10:35:02Z</time>
      </trkpt>
      <trkpt lat="47.8772" lon="7.11439">
        <ele>697.20001220703</ele>
        <time>2017-07-21T10:35:04Z</time>
      </trkpt>
      <trkpt lat="47.87712" lon="7.11412">
        <ele>695.20001220703</ele>
        <time>2017-07-21T10:35:06Z</time>
      </trkpt>
      <trkpt lat="47.87701" lon="7.11389">
        <ele>693.79998779297</ele>
        <time>2017-07-21T10:35:08Z</time>
      </trkpt>
      <trkpt lat="47.8769" lon="7.11366">
        <ele>693.20001220703</ele>
        <time>2017-07-21T10:35:10Z</time>
      </trkpt>
      <trkpt lat="47.87685" lon="7.11354">
        <ele>693</ele>
        <time>2017-07-21T10:35:11Z</time>
      </trkpt>
      <trkpt lat="47.87681" lon="7.11341">
        <ele>692.79998779297</ele>
        <time>2017-07-21T10:35:12Z</time>
      </trkpt>
      <trkpt lat="47.87674" lon="7.11315">
        <ele>692.79998779297</ele>
        <time>2017-07-21T10:35:14Z</time>
      </trkpt>
      <trkpt lat="47.87657" lon="7.11235">
        <ele>691.20001220703</ele>
        <time>2017-07-21T10:35:20Z</time>
      </trkpt>
      <trkpt lat="47.87653" lon="7.11222">
        <ele>691</ele>
        <time>2017-07-21T10:35:21Z</time>
      </trkpt>
      <trkpt lat="47.87646" lon="7.11195">
        <ele>690.20001220703</ele>
        <time>2017-07-21T10:35:23Z</time>
      </trkpt>
      <trkpt lat="47.87634" lon="7.11153">
        <ele>688.79998779297</ele>
        <time>2017-07-21T10:35:26Z</time>
      </trkpt>
      <trkpt lat="47.87626" lon="7.11124">
        <ele>687.40002441406</ele>
        <time>2017-07-21T10:35:28Z</time>
      </trkpt>
      <trkpt lat="47.87618" lon="7.11093">
        <ele>686.20001220703</ele>
        <time>2017-07-21T10:35:30Z</time>
      </trkpt>
      <trkpt lat="47.87611" lon="7.1106">
        <ele>684.59997558594</ele>
        <time>2017-07-21T10:35:32Z</time>
      </trkpt>
      <trkpt lat="47.87609" lon="7.11042">
        <ele>683.79998779297</ele>
        <time>2017-07-21T10:35:33Z</time>
      </trkpt>
      <trkpt lat="47.87608" lon="7.11024">
        <ele>683</ele>
        <time>2017-07-21T10:35:34Z</time>
      </trkpt>
      <trkpt lat="47.87603" lon="7.10991">
        <ele>681.20001220703</ele>
        <time>2017-07-21T10:35:36Z</time>
      </trkpt>
      <trkpt lat="47.87599" lon="7.10975">
        <ele>680.59997558594</ele>
        <time>2017-07-21T10:35:37Z</time>
      </trkpt>
      <trkpt lat="47.87594" lon="7.10961">
        <ele>679.79998779297</ele>
        <time>2017-07-21T10:35:38Z</time>
      </trkpt>
      <trkpt lat="47.87584" lon="7.10933">
        <ele>678.79998779297</ele>
        <time>2017-07-21T10:35:40Z</time>
      </trkpt>
      <trkpt lat="47.8758" lon="7.10919">
        <ele>678.40002441406</ele>
        <time>2017-07-21T10:35:41Z</time>
      </trkpt>
      <trkpt lat="47.87566" lon="7.10878">
        <ele>677.79998779297</ele>
        <time>2017-07-21T10:35:44Z</time>
      </trkpt>
      <trkpt lat="47.87559" lon="7.10866">
        <ele>677.40002441406</ele>
        <time>2017-07-21T10:35:45Z</time>
      </trkpt>
      <trkpt lat="47.87552" lon="7.10855">
        <ele>677.20001220703</ele>
        <time>2017-07-21T10:35:46Z</time>
      </trkpt>
      <trkpt lat="47.87536" lon="7.10837">
        <ele>676.40002441406</ele>
        <time>2017-07-21T10:35:48Z</time>
      </trkpt>
      <trkpt lat="47.87528" lon="7.10829">
        <ele>676.20001220703</ele>
        <time>2017-07-21T10:35:49Z</time>
      </trkpt>
      <trkpt lat="47.87519" lon="7.1082">
        <ele>675.79998779297</ele>
        <time>2017-07-21T10:35:50Z</time>
      </trkpt>
      <trkpt lat="47.87512" lon="7.10808">
        <ele>675.40002441406</ele>
        <time>2017-07-21T10:35:51Z</time>
      </trkpt>
      <trkpt lat="47.875" lon="7.10783">
        <ele>674.20001220703</ele>
        <time>2017-07-21T10:35:53Z</time>
      </trkpt>
      <trkpt lat="47.87495" lon="7.1077">
        <ele>673.59997558594</ele>
        <time>2017-07-21T10:35:54Z</time>
      </trkpt>
      <trkpt lat="47.8749" lon="7.10756">
        <ele>673.20001220703</ele>
        <time>2017-07-21T10:35:55Z</time>
      </trkpt>
      <trkpt lat="47.87478" lon="7.1073">
        <ele>671.79998779297</ele>
        <time>2017-07-21T10:35:57Z</time>
      </trkpt>
      <trkpt lat="47.87463" lon="7.10704">
        <ele>670.59997558594</ele>
        <time>2017-07-21T10:35:59Z</time>
      </trkpt>
      <trkpt lat="47.8745" lon="7.10678">
        <ele>669.40002441406</ele>
        <time>2017-07-21T10:36:01Z</time>
      </trkpt>
      <trkpt lat="47.87437" lon="7.10651">
        <ele>667.79998779297</ele>
        <time>2017-07-21T10:36:03Z</time>
      </trkpt>
      <trkpt lat="47.87423" lon="7.10624">
        <ele>666.40002441406</ele>
        <time>2017-07-21T10:36:05Z</time>
      </trkpt>
      <trkpt lat="47.87409" lon="7.10595">
        <ele>664.79998779297</ele>
        <time>2017-07-21T10:36:07Z</time>
      </trkpt>
      <trkpt lat="47.87404" lon="7.10578">
        <ele>663.20001220703</ele>
        <time>2017-07-21T10:36:08Z</time>
      </trkpt>
      <trkpt lat="47.87398" lon="7.10562">
        <ele>662.40002441406</ele>
        <time>2017-07-21T10:36:09Z</time>
      </trkpt>
      <trkpt lat="47.87393" lon="7.10547">
        <ele>661.40002441406</ele>
        <time>2017-07-21T10:36:10Z</time>
      </trkpt>
      <trkpt lat="47.87387" lon="7.10533">
        <ele>660.40002441406</ele>
        <time>2017-07-21T10:36:11Z</time>
      </trkpt>
      <trkpt lat="47.87379" lon="7.10521">
        <ele>659.20001220703</ele>
        <time>2017-07-21T10:36:12Z</time>
      </trkpt>
      <trkpt lat="47.87364" lon="7.10499">
        <ele>657.40002441406</ele>
        <time>2017-07-21T10:36:14Z</time>
      </trkpt>
      <trkpt lat="47.87352" lon="7.10476">
        <ele>655.79998779297</ele>
        <time>2017-07-21T10:36:16Z</time>
      </trkpt>
      <trkpt lat="47.87342" lon="7.10451">
        <ele>654.59997558594</ele>
        <time>2017-07-21T10:36:18Z</time>
      </trkpt>
      <trkpt lat="47.87335" lon="7.10424">
        <ele>654</ele>
        <time>2017-07-21T10:36:20Z</time>
      </trkpt>
      <trkpt lat="47.87332" lon="7.10398">
        <ele>653.40002441406</ele>
        <time>2017-07-21T10:36:22Z</time>
      </trkpt>
      <trkpt lat="47.87336" lon="7.10374">
        <ele>652.59997558594</ele>
        <time>2017-07-21T10:36:24Z</time>
      </trkpt>
      <trkpt lat="47.87339" lon="7.10362">
        <ele>652.20001220703</ele>
        <time>2017-07-21T10:36:25Z</time>
      </trkpt>
      <trkpt lat="47.87342" lon="7.1035">
        <ele>651.59997558594</ele>
        <time>2017-07-21T10:36:26Z</time>
      </trkpt>
      <trkpt lat="47.87345" lon="7.10339">
        <ele>650.79998779297</ele>
        <time>2017-07-21T10:36:27Z</time>
      </trkpt>
      <trkpt lat="47.87351" lon="7.10334">
        <ele>650.20001220703</ele>
        <time>2017-07-21T10:36:28Z</time>
      </trkpt>
      <trkpt lat="47.87355" lon="7.10329">
        <ele>649.79998779297</ele>
        <time>2017-07-21T10:36:29Z</time>
      </trkpt>
      <trkpt lat="47.8736" lon="7.10318">
        <ele>649.20001220703</ele>
        <time>2017-07-21T10:36:31Z</time>
      </trkpt>
      <trkpt lat="47.87361" lon="7.10307">
        <ele>648.79998779297</ele>
        <time>2017-07-21T10:36:33Z</time>
      </trkpt>
      <trkpt lat="47.87362" lon="7.10302">
        <ele>648.59997558594</ele>
        <time>2017-07-21T10:36:34Z</time>
      </trkpt>
      <trkpt lat="47.87362" lon="7.10298">
        <ele>648.59997558594</ele>
        <time>2017-07-21T10:36:35Z</time>
      </trkpt>
      <trkpt lat="47.87359" lon="7.10294">
        <ele>648.79998779297</ele>
        <time>2017-07-21T10:37:03Z</time>
      </trkpt>
      <trkpt lat="47.87351" lon="7.10286">
        <ele>648.79998779297</ele>
        <time>2017-07-21T10:37:07Z</time>
      </trkpt>
      <trkpt lat="47.87341" lon="7.10269">
        <ele>649</ele>
        <time>2017-07-21T10:37:13Z</time>
      </trkpt>
      <trkpt lat="47.87327" lon="7.10255">
        <ele>649.40002441406</ele>
        <time>2017-07-21T10:37:18Z</time>
      </trkpt>
      <trkpt lat="47.87315" lon="7.10234">
        <ele>649.59997558594</ele>
        <time>2017-07-21T10:37:22Z</time>
      </trkpt>
      <trkpt lat="47.87313" lon="7.10228">
        <ele>649.59997558594</ele>
        <time>2017-07-21T10:37:23Z</time>
      </trkpt>
      <trkpt lat="47.87308" lon="7.10196">
        <ele>649</ele>
        <time>2017-07-21T10:37:27Z</time>
      </trkpt>
      <trkpt lat="47.87312" lon="7.10169">
        <ele>648.40002441406</ele>
        <time>2017-07-21T10:37:30Z</time>
      </trkpt>
      <trkpt lat="47.87312" lon="7.1016">
        <ele>648.20001220703</ele>
        <time>2017-07-21T10:37:31Z</time>
      </trkpt>
      <trkpt lat="47.87304" lon="7.1013">
        <ele>647.59997558594</ele>
        <time>2017-07-21T10:37:34Z</time>
      </trkpt>
      <trkpt lat="47.87282" lon="7.10109">
        <ele>646.40002441406</ele>
        <time>2017-07-21T10:37:37Z</time>
      </trkpt>
      <trkpt lat="47.87256" lon="7.10101">
        <ele>645</ele>
        <time>2017-07-21T10:37:40Z</time>
      </trkpt>
      <trkpt lat="47.87229" lon="7.10092">
        <ele>643.59997558594</ele>
        <time>2017-07-21T10:37:43Z</time>
      </trkpt>
      <trkpt lat="47.87212" lon="7.10077">
        <ele>642.40002441406</ele>
        <time>2017-07-21T10:37:45Z</time>
      </trkpt>
      <trkpt lat="47.87191" lon="7.10046">
        <ele>640.79998779297</ele>
        <time>2017-07-21T10:37:48Z</time>
      </trkpt>
      <trkpt lat="47.87184" lon="7.10035">
        <ele>640.20001220703</ele>
        <time>2017-07-21T10:37:49Z</time>
      </trkpt>
      <trkpt lat="47.87177" lon="7.10024">
        <ele>639.79998779297</ele>
        <time>2017-07-21T10:37:50Z</time>
      </trkpt>
      <trkpt lat="47.87164" lon="7.10001">
        <ele>638.59997558594</ele>
        <time>2017-07-21T10:37:52Z</time>
      </trkpt>
      <trkpt lat="47.87152" lon="7.09976">
        <ele>637.59997558594</ele>
        <time>2017-07-21T10:37:54Z</time>
      </trkpt>
      <trkpt lat="47.87146" lon="7.09963">
        <ele>637</ele>
        <time>2017-07-21T10:37:55Z</time>
      </trkpt>
      <trkpt lat="47.87136" lon="7.09937">
        <ele>636.20001220703</ele>
        <time>2017-07-21T10:37:57Z</time>
      </trkpt>
      <trkpt lat="47.87121" lon="7.09896">
        <ele>635</ele>
        <time>2017-07-21T10:38:00Z</time>
      </trkpt>
      <trkpt lat="47.87115" lon="7.09882">
        <ele>634.59997558594</ele>
        <time>2017-07-21T10:38:01Z</time>
      </trkpt>
      <trkpt lat="47.87104" lon="7.09855">
        <ele>633.79998779297</ele>
        <time>2017-07-21T10:38:03Z</time>
      </trkpt>
      <trkpt lat="47.87092" lon="7.09826">
        <ele>632.59997558594</ele>
        <time>2017-07-21T10:38:05Z</time>
      </trkpt>
      <trkpt lat="47.8708" lon="7.09798">
        <ele>631.40002441406</ele>
        <time>2017-07-21T10:38:07Z</time>
      </trkpt>
      <trkpt lat="47.87073" lon="7.09784">
        <ele>630.20001220703</ele>
        <time>2017-07-21T10:38:08Z</time>
      </trkpt>
      <trkpt lat="47.87061" lon="7.09755">
        <ele>628.79998779297</ele>
        <time>2017-07-21T10:38:10Z</time>
      </trkpt>
      <trkpt lat="47.87049" lon="7.09726">
        <ele>627.20001220703</ele>
        <time>2017-07-21T10:38:12Z</time>
      </trkpt>
      <trkpt lat="47.87037" lon="7.09697">
        <ele>626</ele>
        <time>2017-07-21T10:38:14Z</time>
      </trkpt>
      <trkpt lat="47.87026" lon="7.09667">
        <ele>624.79998779297</ele>
        <time>2017-07-21T10:38:16Z</time>
      </trkpt>
      <trkpt lat="47.87015" lon="7.09638">
        <ele>623.79998779297</ele>
        <time>2017-07-21T10:38:18Z</time>
      </trkpt>
      <trkpt lat="47.87" lon="7.09594">
        <ele>622.40002441406</ele>
        <time>2017-07-21T10:38:21Z</time>
      </trkpt>
      <trkpt lat="47.8699" lon="7.09564">
        <ele>621.59997558594</ele>
        <time>2017-07-21T10:38:23Z</time>
      </trkpt>
      <trkpt lat="47.86986" lon="7.09549">
        <ele>621.20001220703</ele>
        <time>2017-07-21T10:38:24Z</time>
      </trkpt>
      <trkpt lat="47.86977" lon="7.09518">
        <ele>620</ele>
        <time>2017-07-21T10:38:26Z</time>
      </trkpt>
      <trkpt lat="47.86971" lon="7.09486">
        <ele>619</ele>
        <time>2017-07-21T10:38:28Z</time>
      </trkpt>
      <trkpt lat="47.86969" lon="7.09469">
        <ele>618.40002441406</ele>
        <time>2017-07-21T10:38:29Z</time>
      </trkpt>
      <trkpt lat="47.86968" lon="7.09452">
        <ele>617.79998779297</ele>
        <time>2017-07-21T10:38:30Z</time>
      </trkpt>
      <trkpt lat="47.86966" lon="7.09418">
        <ele>616.59997558594</ele>
        <time>2017-07-21T10:38:32Z</time>
      </trkpt>
      <trkpt lat="47.86965" lon="7.09403">
        <ele>615</ele>
        <time>2017-07-21T10:38:33Z</time>
      </trkpt>
      <trkpt lat="47.86964" lon="7.09386">
        <ele>614.20001220703</ele>
        <time>2017-07-21T10:38:34Z</time>
      </trkpt>
      <trkpt lat="47.86965" lon="7.09368">
        <ele>613.59997558594</ele>
        <time>2017-07-21T10:38:35Z</time>
      </trkpt>
      <trkpt lat="47.86966" lon="7.09332">
        <ele>612.20001220703</ele>
        <time>2017-07-21T10:38:37Z</time>
      </trkpt>
      <trkpt lat="47.86968" lon="7.09315">
        <ele>611.79998779297</ele>
        <time>2017-07-21T10:38:38Z</time>
      </trkpt>
      <trkpt lat="47.86971" lon="7.09298">
        <ele>611.20001220703</ele>
        <time>2017-07-21T10:38:39Z</time>
      </trkpt>
      <trkpt lat="47.86982" lon="7.0927">
        <ele>610</ele>
        <time>2017-07-21T10:38:41Z</time>
      </trkpt>
      <trkpt lat="47.86986" lon="7.09257">
        <ele>609.20001220703</ele>
        <time>2017-07-21T10:38:42Z</time>
      </trkpt>
      <trkpt lat="47.86987" lon="7.09247">
        <ele>608.59997558594</ele>
        <time>2017-07-21T10:38:43Z</time>
      </trkpt>
      <trkpt lat="47.86984" lon="7.09237">
        <ele>607.79998779297</ele>
        <time>2017-07-21T10:38:44Z</time>
      </trkpt>
      <trkpt lat="47.86979" lon="7.09229">
        <ele>607.40002441406</ele>
        <time>2017-07-21T10:38:45Z</time>
      </trkpt>
      <trkpt lat="47.8697" lon="7.09223">
        <ele>606.40002441406</ele>
        <time>2017-07-21T10:38:47Z</time>
      </trkpt>
      <trkpt lat="47.86966" lon="7.09226">
        <ele>606</ele>
        <time>2017-07-21T10:38:48Z</time>
      </trkpt>
      <trkpt lat="47.86959" lon="7.09243">
        <ele>605.20001220703</ele>
        <time>2017-07-21T10:38:50Z</time>
      </trkpt>
      <trkpt lat="47.86957" lon="7.09254">
        <ele>604.79998779297</ele>
        <time>2017-07-21T10:38:51Z</time>
      </trkpt>
      <trkpt lat="47.86955" lon="7.09267">
        <ele>604.59997558594</ele>
        <time>2017-07-21T10:38:52Z</time>
      </trkpt>
      <trkpt lat="47.86951" lon="7.09282">
        <ele>604.40002441406</ele>
        <time>2017-07-21T10:38:53Z</time>
      </trkpt>
      <trkpt lat="47.86944" lon="7.09312">
        <ele>603.79998779297</ele>
        <time>2017-07-21T10:38:55Z</time>
      </trkpt>
      <trkpt lat="47.86934" lon="7.09354">
        <ele>602.59997558594</ele>
        <time>2017-07-21T10:38:58Z</time>
      </trkpt>
      <trkpt lat="47.86926" lon="7.09382">
        <ele>601.79998779297</ele>
        <time>2017-07-21T10:39:00Z</time>
      </trkpt>
      <trkpt lat="47.86922" lon="7.09396">
        <ele>601.40002441406</ele>
        <time>2017-07-21T10:39:01Z</time>
      </trkpt>
      <trkpt lat="47.86912" lon="7.09437">
        <ele>600</ele>
        <time>2017-07-21T10:39:04Z</time>
      </trkpt>
      <trkpt lat="47.86913" lon="7.09453">
        <ele>599.40002441406</ele>
        <time>2017-07-21T10:39:05Z</time>
      </trkpt>
      <trkpt lat="47.86915" lon="7.09482">
        <ele>598.59997558594</ele>
        <time>2017-07-21T10:39:07Z</time>
      </trkpt>
      <trkpt lat="47.86917" lon="7.09496">
        <ele>598</ele>
        <time>2017-07-21T10:39:08Z</time>
      </trkpt>
      <trkpt lat="47.86918" lon="7.09508">
        <ele>597.40002441406</ele>
        <time>2017-07-21T10:39:09Z</time>
      </trkpt>
      <trkpt lat="47.86919" lon="7.09518">
        <ele>596.79998779297</ele>
        <time>2017-07-21T10:39:10Z</time>
      </trkpt>
      <trkpt lat="47.86919" lon="7.09526">
        <ele>596.20001220703</ele>
        <time>2017-07-21T10:39:11Z</time>
      </trkpt>
      <trkpt lat="47.8692" lon="7.09532">
        <ele>595.79998779297</ele>
        <time>2017-07-21T10:39:12Z</time>
      </trkpt>
      <trkpt lat="47.86916" lon="7.0953">
        <ele>595</ele>
        <time>2017-07-21T10:39:14Z</time>
      </trkpt>
      <trkpt lat="47.86915" lon="7.09523">
        <ele>594.59997558594</ele>
        <time>2017-07-21T10:39:15Z</time>
      </trkpt>
      <trkpt lat="47.86911" lon="7.09494">
        <ele>593.79998779297</ele>
        <time>2017-07-21T10:39:17Z</time>
      </trkpt>
      <trkpt lat="47.86906" lon="7.09459">
        <ele>593</ele>
        <time>2017-07-21T10:39:19Z</time>
      </trkpt>
      <trkpt lat="47.86903" lon="7.09441">
        <ele>592.59997558594</ele>
        <time>2017-07-21T10:39:20Z</time>
      </trkpt>
      <trkpt lat="47.869" lon="7.09423">
        <ele>591.59997558594</ele>
        <time>2017-07-21T10:39:21Z</time>
      </trkpt>
      <trkpt lat="47.86897" lon="7.09405">
        <ele>591.20001220703</ele>
        <time>2017-07-21T10:39:22Z</time>
      </trkpt>
      <trkpt lat="47.86888" lon="7.09357">
        <ele>589.79998779297</ele>
        <time>2017-07-21T10:39:25Z</time>
      </trkpt>
      <trkpt lat="47.86879" lon="7.09326">
        <ele>588.79998779297</ele>
        <time>2017-07-21T10:39:27Z</time>
      </trkpt>
      <trkpt lat="47.86874" lon="7.0931">
        <ele>588.40002441406</ele>
        <time>2017-07-21T10:39:28Z</time>
      </trkpt>
      <trkpt lat="47.86864" lon="7.09279">
        <ele>587.20001220703</ele>
        <time>2017-07-21T10:39:30Z</time>
      </trkpt>
      <trkpt lat="47.86857" lon="7.09247">
        <ele>586</ele>
        <time>2017-07-21T10:39:32Z</time>
      </trkpt>
      <trkpt lat="47.86856" lon="7.0923">
        <ele>585.40002441406</ele>
        <time>2017-07-21T10:39:33Z</time>
      </trkpt>
      <trkpt lat="47.86856" lon="7.09214">
        <ele>584.59997558594</ele>
        <time>2017-07-21T10:39:34Z</time>
      </trkpt>
      <trkpt lat="47.86861" lon="7.09181">
        <ele>583.20001220703</ele>
        <time>2017-07-21T10:39:36Z</time>
      </trkpt>
      <trkpt lat="47.86871" lon="7.09149">
        <ele>581.79998779297</ele>
        <time>2017-07-21T10:39:38Z</time>
      </trkpt>
      <trkpt lat="47.86878" lon="7.09135">
        <ele>581.20001220703</ele>
        <time>2017-07-21T10:39:39Z</time>
      </trkpt>
      <trkpt lat="47.86885" lon="7.09122">
        <ele>580.40002441406</ele>
        <time>2017-07-21T10:39:40Z</time>
      </trkpt>
      <trkpt lat="47.86903" lon="7.091">
        <ele>579</ele>
        <time>2017-07-21T10:39:42Z</time>
      </trkpt>
      <trkpt lat="47.86925" lon="7.09091">
        <ele>577.20001220703</ele>
        <time>2017-07-21T10:39:44Z</time>
      </trkpt>
      <trkpt lat="47.86936" lon="7.09091">
        <ele>576</ele>
        <time>2017-07-21T10:39:45Z</time>
      </trkpt>
      <trkpt lat="47.86957" lon="7.09096">
        <ele>575</ele>
        <time>2017-07-21T10:39:47Z</time>
      </trkpt>
      <trkpt lat="47.86965" lon="7.09098">
        <ele>574.40002441406</ele>
        <time>2017-07-21T10:39:48Z</time>
      </trkpt>
      <trkpt lat="47.86974" lon="7.091">
        <ele>574</ele>
        <time>2017-07-21T10:39:49Z</time>
      </trkpt>
      <trkpt lat="47.86982" lon="7.09099">
        <ele>573.40002441406</ele>
        <time>2017-07-21T10:39:50Z</time>
      </trkpt>
      <trkpt lat="47.86988" lon="7.09094">
        <ele>573</ele>
        <time>2017-07-21T10:39:51Z</time>
      </trkpt>
      <trkpt lat="47.86994" lon="7.09088">
        <ele>572.40002441406</ele>
        <time>2017-07-21T10:39:52Z</time>
      </trkpt>
      <trkpt lat="47.86996" lon="7.09082">
        <ele>572</ele>
        <time>2017-07-21T10:39:54Z</time>
      </trkpt>
      <trkpt lat="47.86992" lon="7.09083">
        <ele>571.59997558594</ele>
        <time>2017-07-21T10:39:55Z</time>
      </trkpt>
      <trkpt lat="47.86987" lon="7.09084">
        <ele>571.20001220703</ele>
        <time>2017-07-21T10:39:56Z</time>
      </trkpt>
      <trkpt lat="47.86971" lon="7.09081">
        <ele>570.59997558594</ele>
        <time>2017-07-21T10:39:57Z</time>
      </trkpt>
      <trkpt lat="47.86957" lon="7.09076">
        <ele>570</ele>
        <time>2017-07-21T10:39:58Z</time>
      </trkpt>
      <trkpt lat="47.86947" lon="7.09073">
        <ele>569.40002441406</ele>
        <time>2017-07-21T10:39:59Z</time>
      </trkpt>
      <trkpt lat="47.86925" lon="7.09064">
        <ele>568.40002441406</ele>
        <time>2017-07-21T10:40:01Z</time>
      </trkpt>
      <trkpt lat="47.86913" lon="7.09059">
        <ele>567.79998779297</ele>
        <time>2017-07-21T10:40:02Z</time>
      </trkpt>
      <trkpt lat="47.86888" lon="7.09051">
        <ele>566.79998779297</ele>
        <time>2017-07-21T10:40:04Z</time>
      </trkpt>
      <trkpt lat="47.86876" lon="7.09051">
        <ele>566.20001220703</ele>
        <time>2017-07-21T10:40:05Z</time>
      </trkpt>
      <trkpt lat="47.86864" lon="7.09053">
        <ele>565.59997558594</ele>
        <time>2017-07-21T10:40:06Z</time>
      </trkpt>
      <trkpt lat="47.86843" lon="7.09068">
        <ele>564</ele>
        <time>2017-07-21T10:40:08Z</time>
      </trkpt>
      <trkpt lat="47.86833" lon="7.09078">
        <ele>562.40002441406</ele>
        <time>2017-07-21T10:40:09Z</time>
      </trkpt>
      <trkpt lat="47.86822" lon="7.09089">
        <ele>561.59997558594</ele>
        <time>2017-07-21T10:40:10Z</time>
      </trkpt>
      <trkpt lat="47.86812" lon="7.091">
        <ele>560.59997558594</ele>
        <time>2017-07-21T10:40:11Z</time>
      </trkpt>
      <trkpt lat="47.86801" lon="7.09109">
        <ele>559.79998779297</ele>
        <time>2017-07-21T10:40:12Z</time>
      </trkpt>
      <trkpt lat="47.86789" lon="7.09118">
        <ele>559</ele>
        <time>2017-07-21T10:40:13Z</time>
      </trkpt>
      <trkpt lat="47.86767" lon="7.09137">
        <ele>557</ele>
        <time>2017-07-21T10:40:15Z</time>
      </trkpt>
      <trkpt lat="47.86756" lon="7.09147">
        <ele>556</ele>
        <time>2017-07-21T10:40:16Z</time>
      </trkpt>
      <trkpt lat="47.86746" lon="7.0916">
        <ele>555</ele>
        <time>2017-07-21T10:40:17Z</time>
      </trkpt>
      <trkpt lat="47.86728" lon="7.09188">
        <ele>553</ele>
        <time>2017-07-21T10:40:19Z</time>
      </trkpt>
      <trkpt lat="47.86709" lon="7.09217">
        <ele>551.20001220703</ele>
        <time>2017-07-21T10:40:21Z</time>
      </trkpt>
      <trkpt lat="47.86695" lon="7.0925">
        <ele>549.20001220703</ele>
        <time>2017-07-21T10:40:23Z</time>
      </trkpt>
      <trkpt lat="47.86691" lon="7.09268">
        <ele>548.20001220703</ele>
        <time>2017-07-21T10:40:24Z</time>
      </trkpt>
      <trkpt lat="47.86686" lon="7.09286">
        <ele>547.20001220703</ele>
        <time>2017-07-21T10:40:25Z</time>
      </trkpt>
      <trkpt lat="47.86687" lon="7.09306">
        <ele>546.20001220703</ele>
        <time>2017-07-21T10:40:26Z</time>
      </trkpt>
      <trkpt lat="47.8669" lon="7.09326">
        <ele>545.20001220703</ele>
        <time>2017-07-21T10:40:27Z</time>
      </trkpt>
      <trkpt lat="47.86694" lon="7.09346">
        <ele>544</ele>
        <time>2017-07-21T10:40:28Z</time>
      </trkpt>
      <trkpt lat="47.86699" lon="7.09365">
        <ele>543</ele>
        <time>2017-07-21T10:40:29Z</time>
      </trkpt>
      <trkpt lat="47.86703" lon="7.09385">
        <ele>541.79998779297</ele>
        <time>2017-07-21T10:40:30Z</time>
      </trkpt>
      <trkpt lat="47.86706" lon="7.09404">
        <ele>540.79998779297</ele>
        <time>2017-07-21T10:40:31Z</time>
      </trkpt>
      <trkpt lat="47.86709" lon="7.09423">
        <ele>539.59997558594</ele>
        <time>2017-07-21T10:40:32Z</time>
      </trkpt>
      <trkpt lat="47.86712" lon="7.09442">
        <ele>537.59997558594</ele>
        <time>2017-07-21T10:40:33Z</time>
      </trkpt>
      <trkpt lat="47.86715" lon="7.09461">
        <ele>536.40002441406</ele>
        <time>2017-07-21T10:40:34Z</time>
      </trkpt>
      <trkpt lat="47.86721" lon="7.09478">
        <ele>535.40002441406</ele>
        <time>2017-07-21T10:40:35Z</time>
      </trkpt>
      <trkpt lat="47.86727" lon="7.09495">
        <ele>534.59997558594</ele>
        <time>2017-07-21T10:40:36Z</time>
      </trkpt>
      <trkpt lat="47.86733" lon="7.09512">
        <ele>533.59997558594</ele>
        <time>2017-07-21T10:40:37Z</time>
      </trkpt>
      <trkpt lat="47.8674" lon="7.0953">
        <ele>532.59997558594</ele>
        <time>2017-07-21T10:40:38Z</time>
      </trkpt>
      <trkpt lat="47.86746" lon="7.09547">
        <ele>531.59997558594</ele>
        <time>2017-07-21T10:40:39Z</time>
      </trkpt>
      <trkpt lat="47.86752" lon="7.09564">
        <ele>530.59997558594</ele>
        <time>2017-07-21T10:40:40Z</time>
      </trkpt>
      <trkpt lat="47.86757" lon="7.09581">
        <ele>529.59997558594</ele>
        <time>2017-07-21T10:40:41Z</time>
      </trkpt>
      <trkpt lat="47.86764" lon="7.09616">
        <ele>527.79998779297</ele>
        <time>2017-07-21T10:40:43Z</time>
      </trkpt>
      <trkpt lat="47.86763" lon="7.09655">
        <ele>525.79998779297</ele>
        <time>2017-07-21T10:40:45Z</time>
      </trkpt>
      <trkpt lat="47.8676" lon="7.09672">
        <ele>524.79998779297</ele>
        <time>2017-07-21T10:40:46Z</time>
      </trkpt>
      <trkpt lat="47.86756" lon="7.09688">
        <ele>523.59997558594</ele>
        <time>2017-07-21T10:40:47Z</time>
      </trkpt>
      <trkpt lat="47.86754" lon="7.09705">
        <ele>522.59997558594</ele>
        <time>2017-07-21T10:40:48Z</time>
      </trkpt>
      <trkpt lat="47.86751" lon="7.09722">
        <ele>521.59997558594</ele>
        <time>2017-07-21T10:40:49Z</time>
      </trkpt>
      <trkpt lat="47.86749" lon="7.09737">
        <ele>520.40002441406</ele>
        <time>2017-07-21T10:40:50Z</time>
      </trkpt>
      <trkpt lat="47.86748" lon="7.0975">
        <ele>519.40002441406</ele>
        <time>2017-07-21T10:40:51Z</time>
      </trkpt>
      <trkpt lat="47.86746" lon="7.09757">
        <ele>518.40002441406</ele>
        <time>2017-07-21T10:40:52Z</time>
      </trkpt>
      <trkpt lat="47.86742" lon="7.09761">
        <ele>517.40002441406</ele>
        <time>2017-07-21T10:40:53Z</time>
      </trkpt>
      <trkpt lat="47.86738" lon="7.09764">
        <ele>516.59997558594</ele>
        <time>2017-07-21T10:40:54Z</time>
      </trkpt>
      <trkpt lat="47.86722" lon="7.0975">
        <ele>515.20001220703</ele>
        <time>2017-07-21T10:40:56Z</time>
      </trkpt>
      <trkpt lat="47.86716" lon="7.0974">
        <ele>514.20001220703</ele>
        <time>2017-07-21T10:40:57Z</time>
      </trkpt>
      <trkpt lat="47.8671" lon="7.09714">
        <ele>513.40002441406</ele>
        <time>2017-07-21T10:40:59Z</time>
      </trkpt>
      <trkpt lat="47.86709" lon="7.09698">
        <ele>512.79998779297</ele>
        <time>2017-07-21T10:41:00Z</time>
      </trkpt>
      <trkpt lat="47.86704" lon="7.09654">
        <ele>511.79998779297</ele>
        <time>2017-07-21T10:41:03Z</time>
      </trkpt>
      <trkpt lat="47.86698" lon="7.09624">
        <ele>511.20001220703</ele>
        <time>2017-07-21T10:41:05Z</time>
      </trkpt>
      <trkpt lat="47.86694" lon="7.09609">
        <ele>510.79998779297</ele>
        <time>2017-07-21T10:41:06Z</time>
      </trkpt>
      <trkpt lat="47.86678" lon="7.09568">
        <ele>509.60000610352</ele>
        <time>2017-07-21T10:41:09Z</time>
      </trkpt>
      <trkpt lat="47.86672" lon="7.09556">
        <ele>509.20001220703</ele>
        <time>2017-07-21T10:41:10Z</time>
      </trkpt>
      <trkpt lat="47.8666" lon="7.09533">
        <ele>508.60000610352</ele>
        <time>2017-07-21T10:41:12Z</time>
      </trkpt>
      <trkpt lat="47.86653" lon="7.09524">
        <ele>508.20001220703</ele>
        <time>2017-07-21T10:41:13Z</time>
      </trkpt>
      <trkpt lat="47.86638" lon="7.09504">
        <ele>507.79998779297</ele>
        <time>2017-07-21T10:41:15Z</time>
      </trkpt>
      <trkpt lat="47.86623" lon="7.09485">
        <ele>507.39999389648</ele>
        <time>2017-07-21T10:41:17Z</time>
      </trkpt>
      <trkpt lat="47.86592" lon="7.09445">
        <ele>506.20001220703</ele>
        <time>2017-07-21T10:41:21Z</time>
      </trkpt>
      <trkpt lat="47.86571" lon="7.09411">
        <ele>505</ele>
        <time>2017-07-21T10:41:24Z</time>
      </trkpt>
      <trkpt lat="47.86568" lon="7.09396">
        <ele>504.60000610352</ele>
        <time>2017-07-21T10:41:25Z</time>
      </trkpt>
      <trkpt lat="47.86565" lon="7.09381">
        <ele>504</ele>
        <time>2017-07-21T10:41:26Z</time>
      </trkpt>
      <trkpt lat="47.86564" lon="7.09364">
        <ele>503.39999389648</ele>
        <time>2017-07-21T10:41:27Z</time>
      </trkpt>
      <trkpt lat="47.86565" lon="7.09345">
        <ele>502.79998779297</ele>
        <time>2017-07-21T10:41:28Z</time>
      </trkpt>
      <trkpt lat="47.86565" lon="7.09328">
        <ele>502.39999389648</ele>
        <time>2017-07-21T10:41:29Z</time>
      </trkpt>
      <trkpt lat="47.86562" lon="7.09296">
        <ele>501.39999389648</ele>
        <time>2017-07-21T10:41:31Z</time>
      </trkpt>
      <trkpt lat="47.8656" lon="7.09263">
        <ele>500.60000610352</ele>
        <time>2017-07-21T10:41:33Z</time>
      </trkpt>
      <trkpt lat="47.86559" lon="7.09246">
        <ele>500</ele>
        <time>2017-07-21T10:41:34Z</time>
      </trkpt>
      <trkpt lat="47.86555" lon="7.09196">
        <ele>498.60000610352</ele>
        <time>2017-07-21T10:41:37Z</time>
      </trkpt>
      <trkpt lat="47.8655" lon="7.09149">
        <ele>497.20001220703</ele>
        <time>2017-07-21T10:41:40Z</time>
      </trkpt>
      <trkpt lat="47.86547" lon="7.09117">
        <ele>496.39999389648</ele>
        <time>2017-07-21T10:41:42Z</time>
      </trkpt>
      <trkpt lat="47.86545" lon="7.09102">
        <ele>496</ele>
        <time>2017-07-21T10:41:43Z</time>
      </trkpt>
      <trkpt lat="47.86543" lon="7.09072">
        <ele>494.79998779297</ele>
        <time>2017-07-21T10:41:45Z</time>
      </trkpt>
      <trkpt lat="47.86537" lon="7.09013">
        <ele>493.60000610352</ele>
        <time>2017-07-21T10:41:49Z</time>
      </trkpt>
      <trkpt lat="47.86524" lon="7.08961">
        <ele>492.39999389648</ele>
        <time>2017-07-21T10:41:53Z</time>
      </trkpt>
      <trkpt lat="47.8652" lon="7.08948">
        <ele>492</ele>
        <time>2017-07-21T10:41:54Z</time>
      </trkpt>
      <trkpt lat="47.86512" lon="7.08911">
        <ele>491.20001220703</ele>
        <time>2017-07-21T10:41:57Z</time>
      </trkpt>
      <trkpt lat="47.86498" lon="7.08875">
        <ele>490.60000610352</ele>
        <time>2017-07-21T10:42:00Z</time>
      </trkpt>
      <trkpt lat="47.86487" lon="7.08854">
        <ele>490</ele>
        <time>2017-07-21T10:42:02Z</time>
      </trkpt>
      <trkpt lat="47.86475" lon="7.08836">
        <ele>489.39999389648</ele>
        <time>2017-07-21T10:42:04Z</time>
      </trkpt>
      <trkpt lat="47.86462" lon="7.08819">
        <ele>489</ele>
        <time>2017-07-21T10:42:06Z</time>
      </trkpt>
      <trkpt lat="47.8644" lon="7.08795">
        <ele>487.60000610352</ele>
        <time>2017-07-21T10:42:09Z</time>
      </trkpt>
      <trkpt lat="47.8641" lon="7.08761">
        <ele>486.60000610352</ele>
        <time>2017-07-21T10:42:13Z</time>
      </trkpt>
      <trkpt lat="47.86397" lon="7.08741">
        <ele>485.79998779297</ele>
        <time>2017-07-21T10:42:15Z</time>
      </trkpt>
      <trkpt lat="47.8639" lon="7.08731">
        <ele>485.39999389648</ele>
        <time>2017-07-21T10:42:16Z</time>
      </trkpt>
      <trkpt lat="47.8637" lon="7.08701">
        <ele>484.20001220703</ele>
        <time>2017-07-21T10:42:19Z</time>
      </trkpt>
      <trkpt lat="47.86356" lon="7.08679">
        <ele>483.39999389648</ele>
        <time>2017-07-21T10:42:21Z</time>
      </trkpt>
      <trkpt lat="47.86349" lon="7.08667">
        <ele>482.79998779297</ele>
        <time>2017-07-21T10:42:22Z</time>
      </trkpt>
      <trkpt lat="47.86336" lon="7.08643">
        <ele>481.79998779297</ele>
        <time>2017-07-21T10:42:24Z</time>
      </trkpt>
      <trkpt lat="47.86323" lon="7.08618">
        <ele>480.39999389648</ele>
        <time>2017-07-21T10:42:26Z</time>
      </trkpt>
      <trkpt lat="47.86317" lon="7.08605">
        <ele>479.79998779297</ele>
        <time>2017-07-21T10:42:27Z</time>
      </trkpt>
      <trkpt lat="47.86311" lon="7.08591">
        <ele>479.20001220703</ele>
        <time>2017-07-21T10:42:28Z</time>
      </trkpt>
      <trkpt lat="47.86297" lon="7.08563">
        <ele>477.79998779297</ele>
        <time>2017-07-21T10:42:30Z</time>
      </trkpt>
      <trkpt lat="47.86283" lon="7.08535">
        <ele>476.39999389648</ele>
        <time>2017-07-21T10:42:32Z</time>
      </trkpt>
      <trkpt lat="47.86275" lon="7.08521">
        <ele>474.79998779297</ele>
        <time>2017-07-21T10:42:33Z</time>
      </trkpt>
      <trkpt lat="47.86259" lon="7.08492">
        <ele>473</ele>
        <time>2017-07-21T10:42:35Z</time>
      </trkpt>
      <trkpt lat="47.86242" lon="7.08463">
        <ele>471</ele>
        <time>2017-07-21T10:42:37Z</time>
      </trkpt>
      <trkpt lat="47.86234" lon="7.08448">
        <ele>469.79998779297</ele>
        <time>2017-07-21T10:42:38Z</time>
      </trkpt>
      <trkpt lat="47.86225" lon="7.08433">
        <ele>468.79998779297</ele>
        <time>2017-07-21T10:42:39Z</time>
      </trkpt>
      <trkpt lat="47.86216" lon="7.08418">
        <ele>467.60000610352</ele>
        <time>2017-07-21T10:42:40Z</time>
      </trkpt>
      <trkpt lat="47.86207" lon="7.08402">
        <ele>466.39999389648</ele>
        <time>2017-07-21T10:42:41Z</time>
      </trkpt>
      <trkpt lat="47.86198" lon="7.08387">
        <ele>465.20001220703</ele>
        <time>2017-07-21T10:42:42Z</time>
      </trkpt>
      <trkpt lat="47.86189" lon="7.08372">
        <ele>464</ele>
        <time>2017-07-21T10:42:43Z</time>
      </trkpt>
      <trkpt lat="47.86179" lon="7.08357">
        <ele>463</ele>
        <time>2017-07-21T10:42:44Z</time>
      </trkpt>
      <trkpt lat="47.8617" lon="7.08341">
        <ele>461.79998779297</ele>
        <time>2017-07-21T10:42:45Z</time>
      </trkpt>
      <trkpt lat="47.86161" lon="7.08325">
        <ele>460.60000610352</ele>
        <time>2017-07-21T10:42:46Z</time>
      </trkpt>
      <trkpt lat="47.86152" lon="7.08309">
        <ele>459.39999389648</ele>
        <time>2017-07-21T10:42:47Z</time>
      </trkpt>
      <trkpt lat="47.86143" lon="7.08292">
        <ele>458.20001220703</ele>
        <time>2017-07-21T10:42:48Z</time>
      </trkpt>
      <trkpt lat="47.86134" lon="7.08275">
        <ele>456.79998779297</ele>
        <time>2017-07-21T10:42:49Z</time>
      </trkpt>
      <trkpt lat="47.86125" lon="7.08257">
        <ele>455.60000610352</ele>
        <time>2017-07-21T10:42:50Z</time>
      </trkpt>
      <trkpt lat="47.86117" lon="7.0824">
        <ele>454.39999389648</ele>
        <time>2017-07-21T10:42:51Z</time>
      </trkpt>
      <trkpt lat="47.86107" lon="7.08223">
        <ele>453</ele>
        <time>2017-07-21T10:42:52Z</time>
      </trkpt>
      <trkpt lat="47.86098" lon="7.08207">
        <ele>451.79998779297</ele>
        <time>2017-07-21T10:42:53Z</time>
      </trkpt>
      <trkpt lat="47.86088" lon="7.0819">
        <ele>450.60000610352</ele>
        <time>2017-07-21T10:42:54Z</time>
      </trkpt>
      <trkpt lat="47.86078" lon="7.08174">
        <ele>449.39999389648</ele>
        <time>2017-07-21T10:42:55Z</time>
      </trkpt>
      <trkpt lat="47.86068" lon="7.08159">
        <ele>448.20001220703</ele>
        <time>2017-07-21T10:42:56Z</time>
      </trkpt>
      <trkpt lat="47.86057" lon="7.08143">
        <ele>445.60000610352</ele>
        <time>2017-07-21T10:42:57Z</time>
      </trkpt>
      <trkpt lat="47.86047" lon="7.08128">
        <ele>444.39999389648</ele>
        <time>2017-07-21T10:42:58Z</time>
      </trkpt>
      <trkpt lat="47.86036" lon="7.08114">
        <ele>443.20001220703</ele>
        <time>2017-07-21T10:42:59Z</time>
      </trkpt>
      <trkpt lat="47.86026" lon="7.081">
        <ele>442.20001220703</ele>
        <time>2017-07-21T10:43:00Z</time>
      </trkpt>
      <trkpt lat="47.86016" lon="7.08087">
        <ele>441</ele>
        <time>2017-07-21T10:43:01Z</time>
      </trkpt>
      <trkpt lat="47.86006" lon="7.08074">
        <ele>439.79998779297</ele>
        <time>2017-07-21T10:43:02Z</time>
      </trkpt>
      <trkpt lat="47.8599" lon="7.08068">
        <ele>438.39999389648</ele>
        <time>2017-07-21T10:43:03Z</time>
      </trkpt>
      <trkpt lat="47.85975" lon="7.0806">
        <ele>437.20001220703</ele>
        <time>2017-07-21T10:43:04Z</time>
      </trkpt>
      <trkpt lat="47.8596" lon="7.08055">
        <ele>436</ele>
        <time>2017-07-21T10:43:05Z</time>
      </trkpt>
      <trkpt lat="47.85945" lon="7.0805">
        <ele>434.79998779297</ele>
        <time>2017-07-21T10:43:06Z</time>
      </trkpt>
      <trkpt lat="47.85929" lon="7.08046">
        <ele>433.79998779297</ele>
        <time>2017-07-21T10:43:07Z</time>
      </trkpt>
      <trkpt lat="47.85914" lon="7.08042">
        <ele>432.60000610352</ele>
        <time>2017-07-21T10:43:08Z</time>
      </trkpt>
      <trkpt lat="47.85901" lon="7.08034">
        <ele>431.60000610352</ele>
        <time>2017-07-21T10:43:09Z</time>
      </trkpt>
      <trkpt lat="47.85888" lon="7.08026">
        <ele>430.79998779297</ele>
        <time>2017-07-21T10:43:10Z</time>
      </trkpt>
      <trkpt lat="47.85875" lon="7.08018">
        <ele>429.79998779297</ele>
        <time>2017-07-21T10:43:11Z</time>
      </trkpt>
      <trkpt lat="47.85862" lon="7.08014">
        <ele>429</ele>
        <time>2017-07-21T10:43:12Z</time>
      </trkpt>
      <trkpt lat="47.85849" lon="7.0801">
        <ele>428.20001220703</ele>
        <time>2017-07-21T10:43:13Z</time>
      </trkpt>
      <trkpt lat="47.85836" lon="7.08009">
        <ele>427.60000610352</ele>
        <time>2017-07-21T10:43:14Z</time>
      </trkpt>
      <trkpt lat="47.85824" lon="7.08009">
        <ele>426.79998779297</ele>
        <time>2017-07-21T10:43:15Z</time>
      </trkpt>
      <trkpt lat="47.85812" lon="7.08009">
        <ele>426.20001220703</ele>
        <time>2017-07-21T10:43:16Z</time>
      </trkpt>
      <trkpt lat="47.85799" lon="7.0801">
        <ele>425.60000610352</ele>
        <time>2017-07-21T10:43:17Z</time>
      </trkpt>
      <trkpt lat="47.85775" lon="7.08013">
        <ele>424.39999389648</ele>
        <time>2017-07-21T10:43:19Z</time>
      </trkpt>
      <trkpt lat="47.85751" lon="7.08014">
        <ele>422.20001220703</ele>
        <time>2017-07-21T10:43:21Z</time>
      </trkpt>
      <trkpt lat="47.85727" lon="7.08014">
        <ele>421</ele>
        <time>2017-07-21T10:43:23Z</time>
      </trkpt>
      <trkpt lat="47.85705" lon="7.08015">
        <ele>419.79998779297</ele>
        <time>2017-07-21T10:43:25Z</time>
      </trkpt>
      <trkpt lat="47.85674" lon="7.08016">
        <ele>418.39999389648</ele>
        <time>2017-07-21T10:43:28Z</time>
      </trkpt>
      <trkpt lat="47.85643" lon="7.08015">
        <ele>417</ele>
        <time>2017-07-21T10:43:31Z</time>
      </trkpt>
      <trkpt lat="47.85634" lon="7.08013">
        <ele>416.60000610352</ele>
        <time>2017-07-21T10:43:32Z</time>
      </trkpt>
      <trkpt lat="47.85614" lon="7.08012">
        <ele>415.79998779297</ele>
        <time>2017-07-21T10:43:34Z</time>
      </trkpt>
      <trkpt lat="47.85574" lon="7.08008">
        <ele>414.39999389648</ele>
        <time>2017-07-21T10:43:38Z</time>
      </trkpt>
      <trkpt lat="47.85554" lon="7.08006">
        <ele>413.39999389648</ele>
        <time>2017-07-21T10:43:40Z</time>
      </trkpt>
      <trkpt lat="47.85525" lon="7.08004">
        <ele>412</ele>
        <time>2017-07-21T10:43:43Z</time>
      </trkpt>
      <trkpt lat="47.85495" lon="7.08001">
        <ele>411</ele>
        <time>2017-07-21T10:43:46Z</time>
      </trkpt>
      <trkpt lat="47.85456" lon="7.07998">
        <ele>409.79998779297</ele>
        <time>2017-07-21T10:43:50Z</time>
      </trkpt>
      <trkpt lat="47.85427" lon="7.07993">
        <ele>408.20001220703</ele>
        <time>2017-07-21T10:43:53Z</time>
      </trkpt>
      <trkpt lat="47.85408" lon="7.07991">
        <ele>407</ele>
        <time>2017-07-21T10:43:55Z</time>
      </trkpt>
      <trkpt lat="47.85389" lon="7.07989">
        <ele>406</ele>
        <time>2017-07-21T10:43:57Z</time>
      </trkpt>
      <trkpt lat="47.8538" lon="7.07988">
        <ele>405.60000610352</ele>
        <time>2017-07-21T10:43:58Z</time>
      </trkpt>
      <trkpt lat="47.8536" lon="7.07986">
        <ele>404.79998779297</ele>
        <time>2017-07-21T10:44:00Z</time>
      </trkpt>
      <trkpt lat="47.85331" lon="7.07983">
        <ele>403.60000610352</ele>
        <time>2017-07-21T10:44:03Z</time>
      </trkpt>
      <trkpt lat="47.85303" lon="7.07979">
        <ele>402.20001220703</ele>
        <time>2017-07-21T10:44:06Z</time>
      </trkpt>
      <trkpt lat="47.85293" lon="7.07976">
        <ele>401.79998779297</ele>
        <time>2017-07-21T10:44:07Z</time>
      </trkpt>
      <trkpt lat="47.85275" lon="7.07969">
        <ele>400.79998779297</ele>
        <time>2017-07-21T10:44:09Z</time>
      </trkpt>
      <trkpt lat="47.85232" lon="7.07953">
        <ele>399.60000610352</ele>
        <time>2017-07-21T10:44:14Z</time>
      </trkpt>
      <trkpt lat="47.852" lon="7.07941">
        <ele>398.39999389648</ele>
        <time>2017-07-21T10:44:18Z</time>
      </trkpt>
      <trkpt lat="47.85178" lon="7.07941">
        <ele>397.60000610352</ele>
        <time>2017-07-21T10:44:21Z</time>
      </trkpt>
      <trkpt lat="47.85171" lon="7.07943">
        <ele>397.39999389648</ele>
        <time>2017-07-21T10:44:22Z</time>
      </trkpt>
      <trkpt lat="47.85164" lon="7.07949">
        <ele>397.20001220703</ele>
        <time>2017-07-21T10:44:23Z</time>
      </trkpt>
      <trkpt lat="47.85158" lon="7.07955">
        <ele>397</ele>
        <time>2017-07-21T10:44:24Z</time>
      </trkpt>
      <trkpt lat="47.85138" lon="7.0798">
        <ele>396.20001220703</ele>
        <time>2017-07-21T10:44:27Z</time>
      </trkpt>
      <trkpt lat="47.85126" lon="7.07995">
        <ele>395.79998779297</ele>
        <time>2017-07-21T10:44:29Z</time>
      </trkpt>
      <trkpt lat="47.85102" lon="7.08017">
        <ele>395.60000610352</ele>
        <time>2017-07-21T10:44:33Z</time>
      </trkpt>
      <trkpt lat="47.85097" lon="7.0802">
        <ele>395.60000610352</ele>
        <time>2017-07-21T10:44:34Z</time>
      </trkpt>
      <trkpt lat="47.85077" lon="7.08023">
        <ele>396.20001220703</ele>
        <time>2017-07-21T10:44:38Z</time>
      </trkpt>
      <trkpt lat="47.85073" lon="7.08023">
        <ele>396.20001220703</ele>
        <time>2017-07-21T10:44:39Z</time>
      </trkpt>
      <trkpt lat="47.85069" lon="7.08023">
        <ele>396.39999389648</ele>
        <time>2017-07-21T10:44:40Z</time>
      </trkpt>
      <trkpt lat="47.85056" lon="7.08015">
        <ele>396.60000610352</ele>
        <time>2017-07-21T10:44:43Z</time>
      </trkpt>
      <trkpt lat="47.85051" lon="7.0801">
        <ele>396.60000610352</ele>
        <time>2017-07-21T10:44:44Z</time>
      </trkpt>
      <trkpt lat="47.85034" lon="7.07985">
        <ele>396.39999389648</ele>
        <time>2017-07-21T10:44:48Z</time>
      </trkpt>
      <trkpt lat="47.85008" lon="7.07948">
        <ele>394.79998779297</ele>
        <time>2017-07-21T10:44:53Z</time>
      </trkpt>
      <trkpt lat="47.85003" lon="7.0794">
        <ele>394.39999389648</ele>
        <time>2017-07-21T10:44:54Z</time>
      </trkpt>
      <trkpt lat="47.84992" lon="7.07925">
        <ele>393.79998779297</ele>
        <time>2017-07-21T10:44:56Z</time>
      </trkpt>
      <trkpt lat="47.8498" lon="7.07912">
        <ele>393</ele>
        <time>2017-07-21T10:44:58Z</time>
      </trkpt>
      <trkpt lat="47.84972" lon="7.07906">
        <ele>392.79998779297</ele>
        <time>2017-07-21T10:44:59Z</time>
      </trkpt>
      <trkpt lat="47.84941" lon="7.07895">
        <ele>391.60000610352</ele>
        <time>2017-07-21T10:45:03Z</time>
      </trkpt>
      <trkpt lat="47.8491" lon="7.07886">
        <ele>390.39999389648</ele>
        <time>2017-07-21T10:45:07Z</time>
      </trkpt>
      <trkpt lat="47.84902" lon="7.07882">
        <ele>390.20001220703</ele>
        <time>2017-07-21T10:45:08Z</time>
      </trkpt>
      <trkpt lat="47.84889" lon="7.07871">
        <ele>389.79998779297</ele>
        <time>2017-07-21T10:45:10Z</time>
      </trkpt>
      <trkpt lat="47.84877" lon="7.07857">
        <ele>389.60000610352</ele>
        <time>2017-07-21T10:45:12Z</time>
      </trkpt>
      <trkpt lat="47.84871" lon="7.0785">
        <ele>389.39999389648</ele>
        <time>2017-07-21T10:45:13Z</time>
      </trkpt>
      <trkpt lat="47.8486" lon="7.07836">
        <ele>389</ele>
        <time>2017-07-21T10:45:15Z</time>
      </trkpt>
      <trkpt lat="47.84832" lon="7.07807">
        <ele>388.20001220703</ele>
        <time>2017-07-21T10:45:20Z</time>
      </trkpt>
      <trkpt lat="47.84827" lon="7.07801">
        <ele>388</ele>
        <time>2017-07-21T10:45:21Z</time>
      </trkpt>
      <trkpt lat="47.84799" lon="7.07771">
        <ele>387.39999389648</ele>
        <time>2017-07-21T10:45:26Z</time>
      </trkpt>
      <trkpt lat="47.84789" lon="7.07755">
        <ele>387.20001220703</ele>
        <time>2017-07-21T10:45:28Z</time>
      </trkpt>
      <trkpt lat="47.84777" lon="7.0773">
        <ele>386.79998779297</ele>
        <time>2017-07-21T10:45:31Z</time>
      </trkpt>
      <trkpt lat="47.84774" lon="7.07721">
        <ele>386.60000610352</ele>
        <time>2017-07-21T10:45:32Z</time>
      </trkpt>
      <trkpt lat="47.84762" lon="7.07694">
        <ele>386.20001220703</ele>
        <time>2017-07-21T10:45:35Z</time>
      </trkpt>
      <trkpt lat="47.84747" lon="7.07665">
        <ele>385.39999389648</ele>
        <time>2017-07-21T10:45:38Z</time>
      </trkpt>
      <trkpt lat="47.84741" lon="7.07656">
        <ele>385.20001220703</ele>
        <time>2017-07-21T10:45:39Z</time>
      </trkpt>
      <trkpt lat="47.8472" lon="7.0763">
        <ele>383.79998779297</ele>
        <time>2017-07-21T10:45:42Z</time>
      </trkpt>
      <trkpt lat="47.84715" lon="7.07618">
        <ele>383.20001220703</ele>
        <time>2017-07-21T10:45:43Z</time>
      </trkpt>
      <trkpt lat="47.84711" lon="7.07606">
        <ele>382.79998779297</ele>
        <time>2017-07-21T10:45:44Z</time>
      </trkpt>
      <trkpt lat="47.84709" lon="7.07594">
        <ele>381.79998779297</ele>
        <time>2017-07-21T10:45:45Z</time>
      </trkpt>
      <trkpt lat="47.84707" lon="7.07581">
        <ele>381.39999389648</ele>
        <time>2017-07-21T10:45:46Z</time>
      </trkpt>
      <trkpt lat="47.84706" lon="7.07569">
        <ele>381</ele>
        <time>2017-07-21T10:45:47Z</time>
      </trkpt>
      <trkpt lat="47.847" lon="7.07546">
        <ele>380.20001220703</ele>
        <time>2017-07-21T10:45:49Z</time>
      </trkpt>
      <trkpt lat="47.84695" lon="7.07536">
        <ele>379.79998779297</ele>
        <time>2017-07-21T10:45:50Z</time>
      </trkpt>
      <trkpt lat="47.84679" lon="7.07512">
        <ele>379</ele>
        <time>2017-07-21T10:45:53Z</time>
      </trkpt>
      <trkpt lat="47.84674" lon="7.07504">
        <ele>378.79998779297</ele>
        <time>2017-07-21T10:45:54Z</time>
      </trkpt>
      <trkpt lat="47.84652" lon="7.07475">
        <ele>378</ele>
        <time>2017-07-21T10:45:58Z</time>
      </trkpt>
      <trkpt lat="47.84641" lon="7.07461">
        <ele>377.39999389648</ele>
        <time>2017-07-21T10:46:00Z</time>
      </trkpt>
      <trkpt lat="47.84629" lon="7.07447">
        <ele>376.79998779297</ele>
        <time>2017-07-21T10:46:02Z</time>
      </trkpt>
      <trkpt lat="47.84602" lon="7.07419">
        <ele>375.79998779297</ele>
        <time>2017-07-21T10:46:07Z</time>
      </trkpt>
      <trkpt lat="47.8457" lon="7.07401">
        <ele>374.60000610352</ele>
        <time>2017-07-21T10:46:12Z</time>
      </trkpt>
      <trkpt lat="47.8453" lon="7.07386">
        <ele>373.60000610352</ele>
        <time>2017-07-21T10:46:18Z</time>
      </trkpt>
      <trkpt lat="47.84523" lon="7.07383">
        <ele>373.39999389648</ele>
        <time>2017-07-21T10:46:19Z</time>
      </trkpt>
      <trkpt lat="47.84504" lon="7.07374">
        <ele>372.60000610352</ele>
        <time>2017-07-21T10:46:22Z</time>
      </trkpt>
      <trkpt lat="47.84479" lon="7.07361">
        <ele>371.79998779297</ele>
        <time>2017-07-21T10:46:26Z</time>
      </trkpt>
      <trkpt lat="47.84467" lon="7.07357">
        <ele>371.39999389648</ele>
        <time>2017-07-21T10:46:28Z</time>
      </trkpt>
      <trkpt lat="47.84444" lon="7.07346">
        <ele>370.79998779297</ele>
        <time>2017-07-21T10:46:32Z</time>
      </trkpt>
      <trkpt lat="47.84432" lon="7.07342">
        <ele>370.39999389648</ele>
        <time>2017-07-21T10:46:34Z</time>
      </trkpt>
      <trkpt lat="47.84421" lon="7.07342">
        <ele>370</ele>
        <time>2017-07-21T10:46:36Z</time>
      </trkpt>
      <trkpt lat="47.84397" lon="7.07337">
        <ele>369.60000610352</ele>
        <time>2017-07-21T10:46:40Z</time>
      </trkpt>
      <trkpt lat="47.84386" lon="7.0733">
        <ele>369.20001220703</ele>
        <time>2017-07-21T10:46:42Z</time>
      </trkpt>
      <trkpt lat="47.84358" lon="7.07309">
        <ele>368</ele>
        <time>2017-07-21T10:46:47Z</time>
      </trkpt>
      <trkpt lat="47.84341" lon="7.07299">
        <ele>367.79998779297</ele>
        <time>2017-07-21T10:46:50Z</time>
      </trkpt>
      <trkpt lat="47.84308" lon="7.0728">
        <ele>367</ele>
        <time>2017-07-21T10:46:57Z</time>
      </trkpt>
      <trkpt lat="47.84308" lon="7.07285">
        <ele>365.79998779297</ele>
        <time>2017-07-21T10:47:54Z</time>
      </trkpt>
      <trkpt lat="47.84312" lon="7.07286">
        <ele>365.79998779297</ele>
        <time>2017-07-21T10:47:56Z</time>
      </trkpt>
      <trkpt lat="47.84331" lon="7.07297">
        <ele>365.79998779297</ele>
        <time>2017-07-21T10:48:03Z</time>
      </trkpt>
      <trkpt lat="47.84336" lon="7.07305">
        <ele>366</ele>
        <time>2017-07-21T10:48:06Z</time>
      </trkpt>
      <trkpt lat="47.84336" lon="7.07309">
        <ele>366</ele>
        <time>2017-07-21T10:48:07Z</time>
      </trkpt>
      <trkpt lat="47.84336" lon="7.07336">
        <ele>366.20001220703</ele>
        <time>2017-07-21T10:48:13Z</time>
      </trkpt>
      <trkpt lat="47.84332" lon="7.07349">
        <ele>366.39999389648</ele>
        <time>2017-07-21T10:48:16Z</time>
      </trkpt>
      <trkpt lat="47.84329" lon="7.07357">
        <ele>366.60000610352</ele>
        <time>2017-07-21T10:48:18Z</time>
      </trkpt>
      <trkpt lat="47.84329" lon="7.07361">
        <ele>366.79998779297</ele>
        <time>2017-07-21T10:48:19Z</time>
      </trkpt>
      <trkpt lat="47.84324" lon="7.07382">
        <ele>367.39999389648</ele>
        <time>2017-07-21T10:48:24Z</time>
      </trkpt>
      <trkpt lat="47.8432" lon="7.07401">
        <ele>368</ele>
        <time>2017-07-21T10:48:28Z</time>
      </trkpt>
      <trkpt lat="47.84319" lon="7.07408">
        <ele>368.20001220703</ele>
        <time>2017-07-21T10:48:30Z</time>
      </trkpt>
      <trkpt lat="47.84315" lon="7.07423">
        <ele>368.39999389648</ele>
        <time>2017-07-21T10:48:35Z</time>
      </trkpt>
      <trkpt lat="47.84309" lon="7.07451">
        <ele>368.60000610352</ele>
        <time>2017-07-21T10:48:42Z</time>
      </trkpt>
      <trkpt lat="47.8431" lon="7.07467">
        <ele>369</ele>
        <time>2017-07-21T10:48:46Z</time>
      </trkpt>
      <trkpt lat="47.84309" lon="7.07471">
        <ele>369.20001220703</ele>
        <time>2017-07-21T10:48:47Z</time>
      </trkpt>
      <trkpt lat="47.84304" lon="7.07497">
        <ele>369.60000610352</ele>
        <time>2017-07-21T10:48:53Z</time>
      </trkpt>
      <trkpt lat="47.84303" lon="7.07502">
        <ele>369.60000610352</ele>
        <time>2017-07-21T10:48:54Z</time>
      </trkpt>
      <trkpt lat="47.84299" lon="7.07531">
        <ele>369.79998779297</ele>
        <time>2017-07-21T10:49:00Z</time>
      </trkpt>
      <trkpt lat="47.84289" lon="7.0756">
        <ele>369.79998779297</ele>
        <time>2017-07-21T10:49:06Z</time>
      </trkpt>
      <trkpt lat="47.84287" lon="7.07564">
        <ele>369.79998779297</ele>
        <time>2017-07-21T10:49:07Z</time>
      </trkpt>
      <trkpt lat="47.84277" lon="7.07592">
        <ele>369.79998779297</ele>
        <time>2017-07-21T10:49:12Z</time>
      </trkpt>
      <trkpt lat="47.84261" lon="7.07641">
        <ele>369.79998779297</ele>
        <time>2017-07-21T10:49:21Z</time>
      </trkpt>
      <trkpt lat="47.84255" lon="7.07661">
        <ele>370</ele>
        <time>2017-07-21T10:49:25Z</time>
      </trkpt>
      <trkpt lat="47.84253" lon="7.07666">
        <ele>370</ele>
        <time>2017-07-21T10:49:26Z</time>
      </trkpt>
      <trkpt lat="47.84248" lon="7.07677">
        <ele>370</ele>
        <time>2017-07-21T10:49:28Z</time>
      </trkpt>
      <trkpt lat="47.84242" lon="7.07688">
        <ele>370</ele>
        <time>2017-07-21T10:49:30Z</time>
      </trkpt>
      <trkpt lat="47.84231" lon="7.07706">
        <ele>369.60000610352</ele>
        <time>2017-07-21T10:49:33Z</time>
      </trkpt>
      <trkpt lat="47.84222" lon="7.07717">
        <ele>369.20001220703</ele>
        <time>2017-07-21T10:49:35Z</time>
      </trkpt>
      <trkpt lat="47.84216" lon="7.07721">
        <ele>369</ele>
        <time>2017-07-21T10:49:36Z</time>
      </trkpt>
      <trkpt lat="47.84206" lon="7.07727">
        <ele>368.60000610352</ele>
        <time>2017-07-21T10:49:38Z</time>
      </trkpt>
      <trkpt lat="47.84193" lon="7.07734">
        <ele>367.79998779297</ele>
        <time>2017-07-21T10:49:42Z</time>
      </trkpt>
      <trkpt lat="47.84182" lon="7.07739">
        <ele>366.79998779297</ele>
        <time>2017-07-21T10:49:45Z</time>
      </trkpt>
      <trkpt lat="47.84178" lon="7.07742">
        <ele>366.60000610352</ele>
        <time>2017-07-21T10:49:46Z</time>
      </trkpt>
      <trkpt lat="47.84174" lon="7.07745">
        <ele>366.60000610352</ele>
        <time>2017-07-21T10:49:47Z</time>
      </trkpt>
      <trkpt lat="47.84169" lon="7.07748">
        <ele>366.39999389648</ele>
        <time>2017-07-21T10:49:48Z</time>
      </trkpt>
      <trkpt lat="47.84152" lon="7.07756">
        <ele>366</ele>
        <time>2017-07-21T10:49:52Z</time>
      </trkpt>
      <trkpt lat="47.84145" lon="7.07762">
        <ele>365.60000610352</ele>
        <time>2017-07-21T10:49:54Z</time>
      </trkpt>
      <trkpt lat="47.84136" lon="7.07781">
        <ele>365</ele>
        <time>2017-07-21T10:49:57Z</time>
      </trkpt>
      <trkpt lat="47.84133" lon="7.07789">
        <ele>365</ele>
        <time>2017-07-21T10:49:58Z</time>
      </trkpt>
      <trkpt lat="47.84128" lon="7.07805">
        <ele>364.60000610352</ele>
        <time>2017-07-21T10:50:00Z</time>
      </trkpt>
      <trkpt lat="47.84121" lon="7.07829">
        <ele>364.20001220703</ele>
        <time>2017-07-21T10:50:03Z</time>
      </trkpt>
      <trkpt lat="47.84118" lon="7.07837">
        <ele>364</ele>
        <time>2017-07-21T10:50:04Z</time>
      </trkpt>
      <trkpt lat="47.84105" lon="7.07865">
        <ele>363.39999389648</ele>
        <time>2017-07-21T10:50:08Z</time>
      </trkpt>
      <trkpt lat="47.84089" lon="7.079">
        <ele>363.20001220703</ele>
        <time>2017-07-21T10:50:13Z</time>
      </trkpt>
      <trkpt lat="47.84066" lon="7.07942">
        <ele>363.20001220703</ele>
        <time>2017-07-21T10:50:20Z</time>
      </trkpt>
      <trkpt lat="47.84039" lon="7.07987">
        <ele>362.79998779297</ele>
        <time>2017-07-21T10:50:28Z</time>
      </trkpt>
      <trkpt lat="47.84034" lon="7.0799">
        <ele>362.79998779297</ele>
        <time>2017-07-21T10:50:29Z</time>
      </trkpt>
      <trkpt lat="47.84019" lon="7.07999">
        <ele>362.60000610352</ele>
        <time>2017-07-21T10:50:32Z</time>
      </trkpt>
      <trkpt lat="47.84004" lon="7.08006">
        <ele>362.60000610352</ele>
        <time>2017-07-21T10:50:35Z</time>
      </trkpt>
      <trkpt lat="47.83985" lon="7.08016">
        <ele>362.39999389648</ele>
        <time>2017-07-21T10:50:39Z</time>
      </trkpt>
      <trkpt lat="47.83963" lon="7.08032">
        <ele>362.20001220703</ele>
        <time>2017-07-21T10:50:45Z</time>
      </trkpt>
      <trkpt lat="47.83954" lon="7.08049">
        <ele>362.20001220703</ele>
        <time>2017-07-21T10:50:50Z</time>
      </trkpt>
      <trkpt lat="47.83956" lon="7.08069">
        <ele>362</ele>
        <time>2017-07-21T10:50:54Z</time>
      </trkpt>
      <trkpt lat="47.83953" lon="7.0809">
        <ele>362.39999389648</ele>
        <time>2017-07-21T10:50:59Z</time>
      </trkpt>
      <trkpt lat="47.83949" lon="7.08109">
        <ele>363.20001220703</ele>
        <time>2017-07-21T10:51:05Z</time>
      </trkpt>
      <trkpt lat="47.83947" lon="7.08114">
        <ele>363.60000610352</ele>
        <time>2017-07-21T10:51:07Z</time>
      </trkpt>
      <trkpt lat="47.83941" lon="7.08131">
        <ele>364.39999389648</ele>
        <time>2017-07-21T10:51:13Z</time>
      </trkpt>
      <trkpt lat="47.83939" lon="7.08134">
        <ele>364.60000610352</ele>
        <time>2017-07-21T10:51:14Z</time>
      </trkpt>
      <trkpt lat="47.83933" lon="7.08149">
        <ele>365.79998779297</ele>
        <time>2017-07-21T10:51:19Z</time>
      </trkpt>
      <trkpt lat="47.83931" lon="7.08155">
        <ele>366.20001220703</ele>
        <time>2017-07-21T10:51:21Z</time>
      </trkpt>
      <trkpt lat="47.83928" lon="7.08164">
        <ele>367</ele>
        <time>2017-07-21T10:51:24Z</time>
      </trkpt>
      <trkpt lat="47.83925" lon="7.08176">
        <ele>367.60000610352</ele>
        <time>2017-07-21T10:51:28Z</time>
      </trkpt>
      <trkpt lat="47.83923" lon="7.08183">
        <ele>368</ele>
        <time>2017-07-21T10:51:30Z</time>
      </trkpt>
      <trkpt lat="47.83921" lon="7.08202">
        <ele>368.60000610352</ele>
        <time>2017-07-21T10:51:35Z</time>
      </trkpt>
      <trkpt lat="47.83916" lon="7.08225">
        <ele>369</ele>
        <time>2017-07-21T10:51:41Z</time>
      </trkpt>
      <trkpt lat="47.83916" lon="7.08228">
        <ele>369</ele>
        <time>2017-07-21T10:51:42Z</time>
      </trkpt>
      <trkpt lat="47.83906" lon="7.08254">
        <ele>369.79998779297</ele>
        <time>2017-07-21T10:51:50Z</time>
      </trkpt>
      <trkpt lat="47.83894" lon="7.08246">
        <ele>370</ele>
        <time>2017-07-21T10:51:54Z</time>
      </trkpt>
      <trkpt lat="47.8389" lon="7.08242">
        <ele>370</ele>
        <time>2017-07-21T10:51:55Z</time>
      </trkpt>
      <trkpt lat="47.83887" lon="7.08239">
        <ele>370</ele>
        <time>2017-07-21T10:51:56Z</time>
      </trkpt>
      <trkpt lat="47.83875" lon="7.08225">
        <ele>369.79998779297</ele>
        <time>2017-07-21T10:51:59Z</time>
      </trkpt>
      <trkpt lat="47.83869" lon="7.0822">
        <ele>369.60000610352</ele>
        <time>2017-07-21T10:52:00Z</time>
      </trkpt>
      <trkpt lat="47.8385" lon="7.08211">
        <ele>368.79998779297</ele>
        <time>2017-07-21T10:52:03Z</time>
      </trkpt>
      <trkpt lat="47.83833" lon="7.0821">
        <ele>368.20001220703</ele>
        <time>2017-07-21T10:52:06Z</time>
      </trkpt>
      <trkpt lat="47.83828" lon="7.08209">
        <ele>368</ele>
        <time>2017-07-21T10:52:07Z</time>
      </trkpt>
      <trkpt lat="47.83823" lon="7.08209">
        <ele>367.79998779297</ele>
        <time>2017-07-21T10:52:08Z</time>
      </trkpt>
      <trkpt lat="47.83787" lon="7.08206">
        <ele>367.39999389648</ele>
        <time>2017-07-21T10:52:15Z</time>
      </trkpt>
      <trkpt lat="47.83756" lon="7.08205">
        <ele>366.79998779297</ele>
        <time>2017-07-21T10:52:20Z</time>
      </trkpt>
      <trkpt lat="47.83736" lon="7.08204">
        <ele>365.79998779297</ele>
        <time>2017-07-21T10:52:23Z</time>
      </trkpt>
      <trkpt lat="47.83729" lon="7.08202">
        <ele>365.39999389648</ele>
        <time>2017-07-21T10:52:24Z</time>
      </trkpt>
      <trkpt lat="47.83714" lon="7.08197">
        <ele>364.79998779297</ele>
        <time>2017-07-21T10:52:26Z</time>
      </trkpt>
      <trkpt lat="47.83707" lon="7.08194">
        <ele>364.60000610352</ele>
        <time>2017-07-21T10:52:27Z</time>
      </trkpt>
      <trkpt lat="47.83695" lon="7.08188">
        <ele>364</ele>
        <time>2017-07-21T10:52:29Z</time>
      </trkpt>
      <trkpt lat="47.83684" lon="7.0818">
        <ele>363.60000610352</ele>
        <time>2017-07-21T10:52:31Z</time>
      </trkpt>
      <trkpt lat="47.83678" lon="7.08178">
        <ele>363.39999389648</ele>
        <time>2017-07-21T10:52:32Z</time>
      </trkpt>
      <trkpt lat="47.83661" lon="7.08177">
        <ele>363</ele>
        <time>2017-07-21T10:52:35Z</time>
      </trkpt>
      <trkpt lat="47.83625" lon="7.08183">
        <ele>362.39999389648</ele>
        <time>2017-07-21T10:52:41Z</time>
      </trkpt>
      <trkpt lat="47.83619" lon="7.08182">
        <ele>362.20001220703</ele>
        <time>2017-07-21T10:52:42Z</time>
      </trkpt>
      <trkpt lat="47.83606" lon="7.08178">
        <ele>361.79998779297</ele>
        <time>2017-07-21T10:52:44Z</time>
      </trkpt>
      <trkpt lat="47.83594" lon="7.08172">
        <ele>361.39999389648</ele>
        <time>2017-07-21T10:52:46Z</time>
      </trkpt>
      <trkpt lat="47.83587" lon="7.0817">
        <ele>361.20001220703</ele>
        <time>2017-07-21T10:52:47Z</time>
      </trkpt>
      <trkpt lat="47.83558" lon="7.08165">
        <ele>360.60000610352</ele>
        <time>2017-07-21T10:52:52Z</time>
      </trkpt>
      <trkpt lat="47.83524" lon="7.08159">
        <ele>360</ele>
        <time>2017-07-21T10:52:58Z</time>
      </trkpt>
      <trkpt lat="47.83519" lon="7.08157">
        <ele>360</ele>
        <time>2017-07-21T10:52:59Z</time>
      </trkpt>
      <trkpt lat="47.83474" lon="7.08137">
        <ele>360</ele>
        <time>2017-07-21T10:53:08Z</time>
      </trkpt>
      <trkpt lat="47.83444" lon="7.08124">
        <ele>359.60000610352</ele>
        <time>2017-07-21T10:53:14Z</time>
      </trkpt>
      <trkpt lat="47.83418" lon="7.08114">
        <ele>359</ele>
        <time>2017-07-21T10:53:19Z</time>
      </trkpt>
      <trkpt lat="47.83399" lon="7.08106">
        <ele>358.39999389648</ele>
        <time>2017-07-21T10:53:23Z</time>
      </trkpt>
      <trkpt lat="47.8338" lon="7.081">
        <ele>358</ele>
        <time>2017-07-21T10:53:27Z</time>
      </trkpt>
      <trkpt lat="47.83359" lon="7.08093">
        <ele>357.20001220703</ele>
        <time>2017-07-21T10:53:31Z</time>
      </trkpt>
      <trkpt lat="47.83348" lon="7.08091">
        <ele>356.79998779297</ele>
        <time>2017-07-21T10:53:33Z</time>
      </trkpt>
      <trkpt lat="47.83325" lon="7.08087">
        <ele>356.39999389648</ele>
        <time>2017-07-21T10:53:37Z</time>
      </trkpt>
      <trkpt lat="47.83313" lon="7.08087">
        <ele>356.20001220703</ele>
        <time>2017-07-21T10:53:39Z</time>
      </trkpt>
      <trkpt lat="47.83296" lon="7.0809">
        <ele>356</ele>
        <time>2017-07-21T10:53:42Z</time>
      </trkpt>
      <trkpt lat="47.83281" lon="7.08096">
        <ele>355.79998779297</ele>
        <time>2017-07-21T10:53:45Z</time>
      </trkpt>
      <trkpt lat="47.83276" lon="7.08099">
        <ele>355.79998779297</ele>
        <time>2017-07-21T10:53:46Z</time>
      </trkpt>
      <trkpt lat="47.83272" lon="7.08102">
        <ele>355.79998779297</ele>
        <time>2017-07-21T10:53:47Z</time>
      </trkpt>
      <trkpt lat="47.83267" lon="7.08106">
        <ele>355.60000610352</ele>
        <time>2017-07-21T10:53:48Z</time>
      </trkpt>
      <trkpt lat="47.8325" lon="7.08128">
        <ele>355</ele>
        <time>2017-07-21T10:53:52Z</time>
      </trkpt>
      <trkpt lat="47.8323" lon="7.08154">
        <ele>354.79998779297</ele>
        <time>2017-07-21T10:53:57Z</time>
      </trkpt>
      <trkpt lat="47.83227" lon="7.0816">
        <ele>354.79998779297</ele>
        <time>2017-07-21T10:53:58Z</time>
      </trkpt>
      <trkpt lat="47.83203" lon="7.0819">
        <ele>354.79998779297</ele>
        <time>2017-07-21T10:54:04Z</time>
      </trkpt>
      <trkpt lat="47.83184" lon="7.08216">
        <ele>354.60000610352</ele>
        <time>2017-07-21T10:54:09Z</time>
      </trkpt>
      <trkpt lat="47.83176" lon="7.08225">
        <ele>354.39999389648</ele>
        <time>2017-07-21T10:54:11Z</time>
      </trkpt>
      <trkpt lat="47.83152" lon="7.08244">
        <ele>354.20001220703</ele>
        <time>2017-07-21T10:54:16Z</time>
      </trkpt>
      <trkpt lat="47.83141" lon="7.08247">
        <ele>354.20001220703</ele>
        <time>2017-07-21T10:54:18Z</time>
      </trkpt>
      <trkpt lat="47.83126" lon="7.08249">
        <ele>354</ele>
        <time>2017-07-21T10:54:21Z</time>
      </trkpt>
      <trkpt lat="47.8311" lon="7.0825">
        <ele>354</ele>
        <time>2017-07-21T10:54:24Z</time>
      </trkpt>
      <trkpt lat="47.83086" lon="7.08251">
        <ele>354</ele>
        <time>2017-07-21T10:54:29Z</time>
      </trkpt>
      <trkpt lat="47.83077" lon="7.08253">
        <ele>354</ele>
        <time>2017-07-21T10:54:31Z</time>
      </trkpt>
      <trkpt lat="47.83065" lon="7.08257">
        <ele>354</ele>
        <time>2017-07-21T10:54:34Z</time>
      </trkpt>
      <trkpt lat="47.83054" lon="7.08262">
        <ele>354</ele>
        <time>2017-07-21T10:54:37Z</time>
      </trkpt>
      <trkpt lat="47.83045" lon="7.08261">
        <ele>354</ele>
        <time>2017-07-21T10:54:41Z</time>
      </trkpt>
      <trkpt lat="47.83044" lon="7.08259">
        <ele>354</ele>
        <time>2017-07-21T10:54:42Z</time>
      </trkpt>
      <trkpt lat="47.83042" lon="7.0826">
        <ele>354.20001220703</ele>
        <time>2017-07-21T10:55:09Z</time>
      </trkpt>
      <trkpt lat="47.8304" lon="7.08258">
        <ele>354.20001220703</ele>
        <time>2017-07-21T10:55:10Z</time>
      </trkpt>
      <trkpt lat="47.8304" lon="7.08243">
        <ele>354.20001220703</ele>
        <time>2017-07-21T10:55:14Z</time>
      </trkpt>
      <trkpt lat="47.83036" lon="7.08219">
        <ele>354.60000610352</ele>
        <time>2017-07-21T10:55:19Z</time>
      </trkpt>
      <trkpt lat="47.83028" lon="7.08177">
        <ele>354.20001220703</ele>
        <time>2017-07-21T10:55:26Z</time>
      </trkpt>
      <trkpt lat="47.83027" lon="7.08171">
        <ele>354.20001220703</ele>
        <time>2017-07-21T10:55:27Z</time>
      </trkpt>
      <trkpt lat="47.83022" lon="7.08145">
        <ele>353.79998779297</ele>
        <time>2017-07-21T10:55:31Z</time>
      </trkpt>
      <trkpt lat="47.83019" lon="7.08141">
        <ele>353.60000610352</ele>
        <time>2017-07-21T10:55:32Z</time>
      </trkpt>
      <trkpt lat="47.83008" lon="7.08139">
        <ele>353.39999389648</ele>
        <time>2017-07-21T10:55:35Z</time>
      </trkpt>
      <trkpt lat="47.82995" lon="7.08145">
        <ele>353.39999389648</ele>
        <time>2017-07-21T10:55:38Z</time>
      </trkpt>
      <trkpt lat="47.82986" lon="7.0815">
        <ele>353.20001220703</ele>
        <time>2017-07-21T10:55:40Z</time>
      </trkpt>
      <trkpt lat="47.82977" lon="7.08154">
        <ele>353</ele>
        <time>2017-07-21T10:55:42Z</time>
      </trkpt>
      <trkpt lat="47.82964" lon="7.08149">
        <ele>353</ele>
        <time>2017-07-21T10:55:45Z</time>
      </trkpt>
      <trkpt lat="47.82956" lon="7.08135">
        <ele>353</ele>
        <time>2017-07-21T10:55:48Z</time>
      </trkpt>
      <trkpt lat="47.82933" lon="7.08098">
        <ele>353.20001220703</ele>
        <time>2017-07-21T10:55:56Z</time>
      </trkpt>
      <trkpt lat="47.82911" lon="7.08056">
        <ele>353.79998779297</ele>
        <time>2017-07-21T10:56:05Z</time>
      </trkpt>
      <trkpt lat="47.82899" lon="7.08027">
        <ele>353.79998779297</ele>
        <time>2017-07-21T10:56:11Z</time>
      </trkpt>
      <trkpt lat="47.82891" lon="7.08008">
        <ele>354</ele>
        <time>2017-07-21T10:56:16Z</time>
      </trkpt>
      <trkpt lat="47.82888" lon="7.07997">
        <ele>354</ele>
        <time>2017-07-21T10:56:21Z</time>
      </trkpt>
      <trkpt lat="47.82888" lon="7.07996">
        <ele>354</ele>
        <time>2017-07-21T10:56:54Z</time>
      </trkpt>
      <trkpt lat="47.82887" lon="7.07993">
        <ele>354</ele>
        <time>2017-07-21T10:56:55Z</time>
      </trkpt>
      <trkpt lat="47.82889" lon="7.0799">
        <ele>354.20001220703</ele>
        <time>2017-07-21T10:56:56Z</time>
      </trkpt>
      <trkpt lat="47.82895" lon="7.07982">
        <ele>354.20001220703</ele>
        <time>2017-07-21T10:56:59Z</time>
      </trkpt>
      <trkpt lat="47.82898" lon="7.07978">
        <ele>354.20001220703</ele>
        <time>2017-07-21T10:57:00Z</time>
      </trkpt>
      <trkpt lat="47.82903" lon="7.07965">
        <ele>354.60000610352</ele>
        <time>2017-07-21T10:57:05Z</time>
      </trkpt>
      <trkpt lat="47.82895" lon="7.07944">
        <ele>354.60000610352</ele>
        <time>2017-07-21T10:57:10Z</time>
      </trkpt>
      <trkpt lat="47.82892" lon="7.07933">
        <ele>354.60000610352</ele>
        <time>2017-07-21T10:57:12Z</time>
      </trkpt>
      <trkpt lat="47.82884" lon="7.07912">
        <ele>354.60000610352</ele>
        <time>2017-07-21T10:57:16Z</time>
      </trkpt>
      <trkpt lat="47.82869" lon="7.07872">
        <ele>354.79998779297</ele>
        <time>2017-07-21T10:57:23Z</time>
      </trkpt>
      <trkpt lat="47.8286" lon="7.07841">
        <ele>354.79998779297</ele>
        <time>2017-07-21T10:57:28Z</time>
      </trkpt>
      <trkpt lat="47.82856" lon="7.07829">
        <ele>354.79998779297</ele>
        <time>2017-07-21T10:57:30Z</time>
      </trkpt>
      <trkpt lat="47.82848" lon="7.07795">
        <ele>355</ele>
        <time>2017-07-21T10:57:36Z</time>
      </trkpt>
      <trkpt lat="47.8284" lon="7.07759">
        <ele>355.20001220703</ele>
        <time>2017-07-21T10:57:42Z</time>
      </trkpt>
      <trkpt lat="47.82827" lon="7.07725">
        <ele>355.20001220703</ele>
        <time>2017-07-21T10:57:48Z</time>
      </trkpt>
      <trkpt lat="47.82825" lon="7.0772">
        <ele>355.20001220703</ele>
        <time>2017-07-21T10:57:49Z</time>
      </trkpt>
      <trkpt lat="47.82822" lon="7.07715">
        <ele>355.20001220703</ele>
        <time>2017-07-21T10:57:50Z</time>
      </trkpt>
      <trkpt lat="47.82808" lon="7.07703">
        <ele>355.39999389648</ele>
        <time>2017-07-21T10:57:54Z</time>
      </trkpt>
      <trkpt lat="47.82805" lon="7.07701">
        <ele>355.39999389648</ele>
        <time>2017-07-21T10:57:55Z</time>
      </trkpt>
      <trkpt lat="47.82778" lon="7.07686">
        <ele>355.60000610352</ele>
        <time>2017-07-21T10:58:02Z</time>
      </trkpt>
      <trkpt lat="47.82747" lon="7.07668">
        <ele>355.79998779297</ele>
        <time>2017-07-21T10:58:10Z</time>
      </trkpt>
      <trkpt lat="47.82741" lon="7.07662">
        <ele>355.79998779297</ele>
        <time>2017-07-21T10:58:12Z</time>
      </trkpt>
      <trkpt lat="47.82716" lon="7.07644">
        <ele>356.20001220703</ele>
        <time>2017-07-21T10:58:19Z</time>
      </trkpt>
      <trkpt lat="47.82691" lon="7.07621">
        <ele>356.79998779297</ele>
        <time>2017-07-21T10:58:27Z</time>
      </trkpt>
      <trkpt lat="47.82678" lon="7.07603">
        <ele>357.39999389648</ele>
        <time>2017-07-21T10:58:33Z</time>
      </trkpt>
      <trkpt lat="47.82673" lon="7.07595">
        <ele>358</ele>
        <time>2017-07-21T10:58:36Z</time>
      </trkpt>
      <trkpt lat="47.82666" lon="7.07585">
        <ele>358.39999389648</ele>
        <time>2017-07-21T10:58:40Z</time>
      </trkpt>
      <trkpt lat="47.82659" lon="7.07576">
        <ele>359</ele>
        <time>2017-07-21T10:58:44Z</time>
      </trkpt>
      <trkpt lat="47.82653" lon="7.07566">
        <ele>359.79998779297</ele>
        <time>2017-07-21T10:58:48Z</time>
      </trkpt>
      <trkpt lat="47.8265" lon="7.0756">
        <ele>360.20001220703</ele>
        <time>2017-07-21T10:58:50Z</time>
      </trkpt>
      <trkpt lat="47.82641" lon="7.07544">
        <ele>361.39999389648</ele>
        <time>2017-07-21T10:58:56Z</time>
      </trkpt>
      <trkpt lat="47.82636" lon="7.07534">
        <ele>362.39999389648</ele>
        <time>2017-07-21T10:59:00Z</time>
      </trkpt>
      <trkpt lat="47.82635" lon="7.07532">
        <ele>362.60000610352</ele>
        <time>2017-07-21T10:59:01Z</time>
      </trkpt>
      <trkpt lat="47.82629" lon="7.07514">
        <ele>363.60000610352</ele>
        <time>2017-07-21T10:59:08Z</time>
      </trkpt>
      <trkpt lat="47.82628" lon="7.07511">
        <ele>363.60000610352</ele>
        <time>2017-07-21T10:59:09Z</time>
      </trkpt>
      <trkpt lat="47.82623" lon="7.0749">
        <ele>364.20001220703</ele>
        <time>2017-07-21T10:59:16Z</time>
      </trkpt>
      <trkpt lat="47.82621" lon="7.0748">
        <ele>364.60000610352</ele>
        <time>2017-07-21T10:59:19Z</time>
      </trkpt>
      <trkpt lat="47.82619" lon="7.07467">
        <ele>365.20001220703</ele>
        <time>2017-07-21T10:59:23Z</time>
      </trkpt>
      <trkpt lat="47.82619" lon="7.07458">
        <ele>365.60000610352</ele>
        <time>2017-07-21T10:59:26Z</time>
      </trkpt>
      <trkpt lat="47.82617" lon="7.07446">
        <ele>366.39999389648</ele>
        <time>2017-07-21T10:59:30Z</time>
      </trkpt>
      <trkpt lat="47.82617" lon="7.07436">
        <ele>366.79998779297</ele>
        <time>2017-07-21T10:59:33Z</time>
      </trkpt>
      <trkpt lat="47.82617" lon="7.07421">
        <ele>367.39999389648</ele>
        <time>2017-07-21T10:59:37Z</time>
      </trkpt>
      <trkpt lat="47.82616" lon="7.07392">
        <ele>367.79998779297</ele>
        <time>2017-07-21T10:59:44Z</time>
      </trkpt>
      <trkpt lat="47.82616" lon="7.07362">
        <ele>367.60000610352</ele>
        <time>2017-07-21T10:59:50Z</time>
      </trkpt>
      <trkpt lat="47.82612" lon="7.0733">
        <ele>367.79998779297</ele>
        <time>2017-07-21T10:59:56Z</time>
      </trkpt>
      <trkpt lat="47.82612" lon="7.07312">
        <ele>367.79998779297</ele>
        <time>2017-07-21T10:59:59Z</time>
      </trkpt>
      <trkpt lat="47.82611" lon="7.07301">
        <ele>367.60000610352</ele>
        <time>2017-07-21T11:00:01Z</time>
      </trkpt>
      <trkpt lat="47.82609" lon="7.07272">
        <ele>367.20001220703</ele>
        <time>2017-07-21T11:00:06Z</time>
      </trkpt>
      <trkpt lat="47.82609" lon="7.07266">
        <ele>367.20001220703</ele>
        <time>2017-07-21T11:00:07Z</time>
      </trkpt>
      <trkpt lat="47.82608" lon="7.0726">
        <ele>367.20001220703</ele>
        <time>2017-07-21T11:00:08Z</time>
      </trkpt>
      <trkpt lat="47.82604" lon="7.07215">
        <ele>367.20001220703</ele>
        <time>2017-07-21T11:00:15Z</time>
      </trkpt>
      <trkpt lat="47.82602" lon="7.07209">
        <ele>367.20001220703</ele>
        <time>2017-07-21T11:00:16Z</time>
      </trkpt>
      <trkpt lat="47.82592" lon="7.07179">
        <ele>367.39999389648</ele>
        <time>2017-07-21T11:00:21Z</time>
      </trkpt>
      <trkpt lat="47.82577" lon="7.07157">
        <ele>367.60000610352</ele>
        <time>2017-07-21T11:00:26Z</time>
      </trkpt>
      <trkpt lat="47.82574" lon="7.07154">
        <ele>367.60000610352</ele>
        <time>2017-07-21T11:00:27Z</time>
      </trkpt>
      <trkpt lat="47.82563" lon="7.07146">
        <ele>367.79998779297</ele>
        <time>2017-07-21T11:00:30Z</time>
      </trkpt>
      <trkpt lat="47.82546" lon="7.07136">
        <ele>368.60000610352</ele>
        <time>2017-07-21T11:00:35Z</time>
      </trkpt>
      <trkpt lat="47.82536" lon="7.07135">
        <ele>368.79998779297</ele>
        <time>2017-07-21T11:00:38Z</time>
      </trkpt>
      <trkpt lat="47.82522" lon="7.07135">
        <ele>369.20001220703</ele>
        <time>2017-07-21T11:00:42Z</time>
      </trkpt>
      <trkpt lat="47.82505" lon="7.07137">
        <ele>370</ele>
        <time>2017-07-21T11:00:48Z</time>
      </trkpt>
      <trkpt lat="47.82499" lon="7.07138">
        <ele>370.20001220703</ele>
        <time>2017-07-21T11:00:50Z</time>
      </trkpt>
      <trkpt lat="47.82485" lon="7.07141">
        <ele>371</ele>
        <time>2017-07-21T11:00:55Z</time>
      </trkpt>
      <trkpt lat="47.82482" lon="7.07142">
        <ele>371.20001220703</ele>
        <time>2017-07-21T11:00:56Z</time>
      </trkpt>
      <trkpt lat="47.82464" lon="7.07144">
        <ele>372</ele>
        <time>2017-07-21T11:01:03Z</time>
      </trkpt>
      <trkpt lat="47.82446" lon="7.07147">
        <ele>373</ele>
        <time>2017-07-21T11:01:10Z</time>
      </trkpt>
      <trkpt lat="47.82442" lon="7.07148">
        <ele>373.20001220703</ele>
        <time>2017-07-21T11:01:12Z</time>
      </trkpt>
      <trkpt lat="47.82428" lon="7.07155">
        <ele>374</ele>
        <time>2017-07-21T11:01:18Z</time>
      </trkpt>
      <trkpt lat="47.82424" lon="7.07158">
        <ele>374.20001220703</ele>
        <time>2017-07-21T11:01:20Z</time>
      </trkpt>
      <trkpt lat="47.82412" lon="7.07168">
        <ele>375.20001220703</ele>
        <time>2017-07-21T11:01:25Z</time>
      </trkpt>
      <trkpt lat="47.8241" lon="7.0717">
        <ele>375.20001220703</ele>
        <time>2017-07-21T11:01:26Z</time>
      </trkpt>
      <trkpt lat="47.82396" lon="7.07181">
        <ele>376.39999389648</ele>
        <time>2017-07-21T11:01:33Z</time>
      </trkpt>
      <trkpt lat="47.82394" lon="7.07183">
        <ele>376.60000610352</ele>
        <time>2017-07-21T11:01:34Z</time>
      </trkpt>
      <trkpt lat="47.82385" lon="7.07185">
        <ele>377.39999389648</ele>
        <time>2017-07-21T11:01:38Z</time>
      </trkpt>
      <trkpt lat="47.8238" lon="7.07186">
        <ele>377.79998779297</ele>
        <time>2017-07-21T11:01:40Z</time>
      </trkpt>
      <trkpt lat="47.82371" lon="7.07189">
        <ele>378.39999389648</ele>
        <time>2017-07-21T11:01:44Z</time>
      </trkpt>
      <trkpt lat="47.82363" lon="7.07191">
        <ele>379.20001220703</ele>
        <time>2017-07-21T11:01:48Z</time>
      </trkpt>
      <trkpt lat="47.82361" lon="7.07191">
        <ele>379.39999389648</ele>
        <time>2017-07-21T11:01:49Z</time>
      </trkpt>
      <trkpt lat="47.82349" lon="7.07193">
        <ele>380.60000610352</ele>
        <time>2017-07-21T11:01:55Z</time>
      </trkpt>
      <trkpt lat="47.82345" lon="7.07195">
        <ele>381</ele>
        <time>2017-07-21T11:01:57Z</time>
      </trkpt>
      <trkpt lat="47.82334" lon="7.072">
        <ele>381.60000610352</ele>
        <time>2017-07-21T11:02:03Z</time>
      </trkpt>
      <trkpt lat="47.82331" lon="7.072">
        <ele>381.79998779297</ele>
        <time>2017-07-21T11:02:05Z</time>
      </trkpt>
      <trkpt lat="47.82321" lon="7.07205">
        <ele>382.60000610352</ele>
        <time>2017-07-21T11:02:10Z</time>
      </trkpt>
      <trkpt lat="47.82317" lon="7.07208">
        <ele>383</ele>
        <time>2017-07-21T11:02:12Z</time>
      </trkpt>
      <trkpt lat="47.82307" lon="7.07217">
        <ele>383.60000610352</ele>
        <time>2017-07-21T11:02:17Z</time>
      </trkpt>
      <trkpt lat="47.82302" lon="7.07222">
        <ele>384</ele>
        <time>2017-07-21T11:02:20Z</time>
      </trkpt>
      <trkpt lat="47.8229" lon="7.07238">
        <ele>384.60000610352</ele>
        <time>2017-07-21T11:02:27Z</time>
      </trkpt>
      <trkpt lat="47.82278" lon="7.07254">
        <ele>386</ele>
        <time>2017-07-21T11:02:35Z</time>
      </trkpt>
      <trkpt lat="47.82275" lon="7.07258">
        <ele>386.39999389648</ele>
        <time>2017-07-21T11:02:37Z</time>
      </trkpt>
      <trkpt lat="47.82269" lon="7.07267">
        <ele>387</ele>
        <time>2017-07-21T11:02:41Z</time>
      </trkpt>
      <trkpt lat="47.82262" lon="7.07278">
        <ele>387.79998779297</ele>
        <time>2017-07-21T11:02:46Z</time>
      </trkpt>
      <trkpt lat="47.82259" lon="7.07283">
        <ele>388.20001220703</ele>
        <time>2017-07-21T11:02:48Z</time>
      </trkpt>
      <trkpt lat="47.82253" lon="7.07294">
        <ele>389</ele>
        <time>2017-07-21T11:02:53Z</time>
      </trkpt>
      <trkpt lat="47.82251" lon="7.07299">
        <ele>389.20001220703</ele>
        <time>2017-07-21T11:02:55Z</time>
      </trkpt>
      <trkpt lat="47.82245" lon="7.07308">
        <ele>390</ele>
        <time>2017-07-21T11:02:59Z</time>
      </trkpt>
      <trkpt lat="47.82241" lon="7.07315">
        <ele>390.39999389648</ele>
        <time>2017-07-21T11:03:02Z</time>
      </trkpt>
      <trkpt lat="47.82238" lon="7.07322">
        <ele>390.79998779297</ele>
        <time>2017-07-21T11:03:05Z</time>
      </trkpt>
      <trkpt lat="47.82233" lon="7.07332">
        <ele>391.39999389648</ele>
        <time>2017-07-21T11:03:09Z</time>
      </trkpt>
      <trkpt lat="47.8223" lon="7.07338">
        <ele>392</ele>
        <time>2017-07-21T11:03:12Z</time>
      </trkpt>
      <trkpt lat="47.82226" lon="7.07348">
        <ele>392.60000610352</ele>
        <time>2017-07-21T11:03:16Z</time>
      </trkpt>
      <trkpt lat="47.82221" lon="7.07361">
        <ele>393.20001220703</ele>
        <time>2017-07-21T11:03:21Z</time>
      </trkpt>
      <trkpt lat="47.82218" lon="7.07369">
        <ele>393.60000610352</ele>
        <time>2017-07-21T11:03:24Z</time>
      </trkpt>
      <trkpt lat="47.82213" lon="7.07386">
        <ele>394.20001220703</ele>
        <time>2017-07-21T11:03:30Z</time>
      </trkpt>
      <trkpt lat="47.82211" lon="7.07395">
        <ele>394.79998779297</ele>
        <time>2017-07-21T11:03:33Z</time>
      </trkpt>
      <trkpt lat="47.82206" lon="7.07412">
        <ele>395.39999389648</ele>
        <time>2017-07-21T11:03:39Z</time>
      </trkpt>
      <trkpt lat="47.82203" lon="7.0742">
        <ele>395.79998779297</ele>
        <time>2017-07-21T11:03:42Z</time>
      </trkpt>
      <trkpt lat="47.82198" lon="7.07437">
        <ele>396.79998779297</ele>
        <time>2017-07-21T11:03:48Z</time>
      </trkpt>
      <trkpt lat="47.82198" lon="7.07439">
        <ele>396.79998779297</ele>
        <time>2017-07-21T11:03:49Z</time>
      </trkpt>
      <trkpt lat="47.82194" lon="7.07458">
        <ele>397.79998779297</ele>
        <time>2017-07-21T11:03:56Z</time>
      </trkpt>
      <trkpt lat="47.82193" lon="7.07461">
        <ele>398</ele>
        <time>2017-07-21T11:03:57Z</time>
      </trkpt>
      <trkpt lat="47.82188" lon="7.07474">
        <ele>398.60000610352</ele>
        <time>2017-07-21T11:04:02Z</time>
      </trkpt>
      <trkpt lat="47.82187" lon="7.07479">
        <ele>399</ele>
        <time>2017-07-21T11:04:04Z</time>
      </trkpt>
      <trkpt lat="47.82182" lon="7.07494">
        <ele>399.79998779297</ele>
        <time>2017-07-21T11:04:10Z</time>
      </trkpt>
      <trkpt lat="47.82181" lon="7.07497">
        <ele>400.20001220703</ele>
        <time>2017-07-21T11:04:11Z</time>
      </trkpt>
      <trkpt lat="47.82176" lon="7.0751">
        <ele>400.79998779297</ele>
        <time>2017-07-21T11:04:16Z</time>
      </trkpt>
      <trkpt lat="47.82171" lon="7.07516">
        <ele>401.20001220703</ele>
        <time>2017-07-21T11:04:19Z</time>
      </trkpt>
      <trkpt lat="47.82165" lon="7.0752">
        <ele>401.60000610352</ele>
        <time>2017-07-21T11:04:22Z</time>
      </trkpt>
      <trkpt lat="47.82153" lon="7.07518">
        <ele>401.79998779297</ele>
        <time>2017-07-21T11:04:27Z</time>
      </trkpt>
      <trkpt lat="47.82141" lon="7.07507">
        <ele>402.20001220703</ele>
        <time>2017-07-21T11:04:32Z</time>
      </trkpt>
      <trkpt lat="47.82139" lon="7.07504">
        <ele>402.39999389648</ele>
        <time>2017-07-21T11:04:33Z</time>
      </trkpt>
      <trkpt lat="47.82126" lon="7.07477">
        <ele>403</ele>
        <time>2017-07-21T11:04:40Z</time>
      </trkpt>
      <trkpt lat="47.82112" lon="7.07457">
        <ele>403.39999389648</ele>
        <time>2017-07-21T11:04:46Z</time>
      </trkpt>
      <trkpt lat="47.82109" lon="7.07454">
        <ele>403.39999389648</ele>
        <time>2017-07-21T11:04:47Z</time>
      </trkpt>
      <trkpt lat="47.82091" lon="7.07439">
        <ele>403.79998779297</ele>
        <time>2017-07-21T11:04:54Z</time>
      </trkpt>
      <trkpt lat="47.82081" lon="7.07435">
        <ele>404.39999389648</ele>
        <time>2017-07-21T11:04:58Z</time>
      </trkpt>
      <trkpt lat="47.82079" lon="7.07434">
        <ele>404.60000610352</ele>
        <time>2017-07-21T11:04:59Z</time>
      </trkpt>
      <trkpt lat="47.82065" lon="7.07432">
        <ele>405.39999389648</ele>
        <time>2017-07-21T11:05:04Z</time>
      </trkpt>
      <trkpt lat="47.82058" lon="7.07431">
        <ele>405.79998779297</ele>
        <time>2017-07-21T11:05:07Z</time>
      </trkpt>
      <trkpt lat="47.82044" lon="7.07431">
        <ele>406.60000610352</ele>
        <time>2017-07-21T11:05:13Z</time>
      </trkpt>
      <trkpt lat="47.82037" lon="7.07431">
        <ele>407.20001220703</ele>
        <time>2017-07-21T11:05:16Z</time>
      </trkpt>
      <trkpt lat="47.82033" lon="7.07431">
        <ele>407.60000610352</ele>
        <time>2017-07-21T11:05:18Z</time>
      </trkpt>
      <trkpt lat="47.82025" lon="7.07432">
        <ele>408.20001220703</ele>
        <time>2017-07-21T11:05:22Z</time>
      </trkpt>
      <trkpt lat="47.82021" lon="7.07433">
        <ele>408.60000610352</ele>
        <time>2017-07-21T11:05:24Z</time>
      </trkpt>
      <trkpt lat="47.82011" lon="7.07438">
        <ele>409.60000610352</ele>
        <time>2017-07-21T11:05:29Z</time>
      </trkpt>
      <trkpt lat="47.82009" lon="7.07438">
        <ele>409.79998779297</ele>
        <time>2017-07-21T11:05:30Z</time>
      </trkpt>
      <trkpt lat="47.81999" lon="7.07443">
        <ele>410.60000610352</ele>
        <time>2017-07-21T11:05:35Z</time>
      </trkpt>
      <trkpt lat="47.81995" lon="7.07444">
        <ele>410.79998779297</ele>
        <time>2017-07-21T11:05:37Z</time>
      </trkpt>
      <trkpt lat="47.81994" lon="7.07445">
        <ele>411</ele>
        <time>2017-07-21T11:05:38Z</time>
      </trkpt>
      <trkpt lat="47.81992" lon="7.0745">
        <ele>411.39999389648</ele>
        <time>2017-07-21T11:05:40Z</time>
      </trkpt>
      <trkpt lat="47.81989" lon="7.07459">
        <ele>412</ele>
        <time>2017-07-21T11:05:43Z</time>
      </trkpt>
      <trkpt lat="47.81989" lon="7.0747">
        <ele>412.20001220703</ele>
        <time>2017-07-21T11:05:46Z</time>
      </trkpt>
      <trkpt lat="47.81996" lon="7.07492">
        <ele>412.60000610352</ele>
        <time>2017-07-21T11:05:53Z</time>
      </trkpt>
      <trkpt lat="47.81999" lon="7.0751">
        <ele>413</ele>
        <time>2017-07-21T11:05:59Z</time>
      </trkpt>
      <trkpt lat="47.81998" lon="7.07516">
        <ele>413.20001220703</ele>
        <time>2017-07-21T11:06:01Z</time>
      </trkpt>
      <trkpt lat="47.81996" lon="7.0753">
        <ele>414</ele>
        <time>2017-07-21T11:06:06Z</time>
      </trkpt>
      <trkpt lat="47.81993" lon="7.07541">
        <ele>414.60000610352</ele>
        <time>2017-07-21T11:06:10Z</time>
      </trkpt>
      <trkpt lat="47.81991" lon="7.07545">
        <ele>415</ele>
        <time>2017-07-21T11:06:12Z</time>
      </trkpt>
      <trkpt lat="47.81983" lon="7.07553">
        <ele>415.79998779297</ele>
        <time>2017-07-21T11:06:17Z</time>
      </trkpt>
      <trkpt lat="47.81977" lon="7.07552">
        <ele>416</ele>
        <time>2017-07-21T11:06:20Z</time>
      </trkpt>
      <trkpt lat="47.81975" lon="7.07551">
        <ele>416.20001220703</ele>
        <time>2017-07-21T11:06:21Z</time>
      </trkpt>
      <trkpt lat="47.81974" lon="7.07549">
        <ele>416.39999389648</ele>
        <time>2017-07-21T11:06:22Z</time>
      </trkpt>
      <trkpt lat="47.81973" lon="7.07533">
        <ele>417.20001220703</ele>
        <time>2017-07-21T11:06:27Z</time>
      </trkpt>
      <trkpt lat="47.81973" lon="7.0753">
        <ele>417.20001220703</ele>
        <time>2017-07-21T11:06:28Z</time>
      </trkpt>
      <trkpt lat="47.81974" lon="7.07513">
        <ele>418.20001220703</ele>
        <time>2017-07-21T11:06:34Z</time>
      </trkpt>
      <trkpt lat="47.81973" lon="7.0751">
        <ele>418.39999389648</ele>
        <time>2017-07-21T11:06:35Z</time>
      </trkpt>
      <trkpt lat="47.81971" lon="7.07497">
        <ele>419</ele>
        <time>2017-07-21T11:06:40Z</time>
      </trkpt>
      <trkpt lat="47.8197" lon="7.07495">
        <ele>419.20001220703</ele>
        <time>2017-07-21T11:06:41Z</time>
      </trkpt>
      <trkpt lat="47.81967" lon="7.07477">
        <ele>420.20001220703</ele>
        <time>2017-07-21T11:06:48Z</time>
      </trkpt>
      <trkpt lat="47.81966" lon="7.0747">
        <ele>420.60000610352</ele>
        <time>2017-07-21T11:06:50Z</time>
      </trkpt>
      <trkpt lat="47.81965" lon="7.07455">
        <ele>421.20001220703</ele>
        <time>2017-07-21T11:06:56Z</time>
      </trkpt>
      <trkpt lat="47.81965" lon="7.07452">
        <ele>421.39999389648</ele>
        <time>2017-07-21T11:06:57Z</time>
      </trkpt>
      <trkpt lat="47.81964" lon="7.07435">
        <ele>422.39999389648</ele>
        <time>2017-07-21T11:07:03Z</time>
      </trkpt>
      <trkpt lat="47.81963" lon="7.07433">
        <ele>422.39999389648</ele>
        <time>2017-07-21T11:07:04Z</time>
      </trkpt>
      <trkpt lat="47.81961" lon="7.0742">
        <ele>423.20001220703</ele>
        <time>2017-07-21T11:07:09Z</time>
      </trkpt>
      <trkpt lat="47.81961" lon="7.07408">
        <ele>423.39999389648</ele>
        <time>2017-07-21T11:07:12Z</time>
      </trkpt>
      <trkpt lat="47.81962" lon="7.07405">
        <ele>423.39999389648</ele>
        <time>2017-07-21T11:07:13Z</time>
      </trkpt>
      <trkpt lat="47.8197" lon="7.07385">
        <ele>424.39999389648</ele>
        <time>2017-07-21T11:07:20Z</time>
      </trkpt>
      <trkpt lat="47.8197" lon="7.07383">
        <ele>424.60000610352</ele>
        <time>2017-07-21T11:07:21Z</time>
      </trkpt>
      <trkpt lat="47.81975" lon="7.07371">
        <ele>425.60000610352</ele>
        <time>2017-07-21T11:07:26Z</time>
      </trkpt>
      <trkpt lat="47.81979" lon="7.07362">
        <ele>426</ele>
        <time>2017-07-21T11:07:30Z</time>
      </trkpt>
      <trkpt lat="47.81983" lon="7.07352">
        <ele>426.60000610352</ele>
        <time>2017-07-21T11:07:34Z</time>
      </trkpt>
      <trkpt lat="47.81986" lon="7.07345">
        <ele>427</ele>
        <time>2017-07-21T11:07:37Z</time>
      </trkpt>
      <trkpt lat="47.81991" lon="7.07336">
        <ele>427.79998779297</ele>
        <time>2017-07-21T11:07:42Z</time>
      </trkpt>
      <trkpt lat="47.81993" lon="7.07335">
        <ele>428</ele>
        <time>2017-07-21T11:07:43Z</time>
      </trkpt>
      <trkpt lat="47.81997" lon="7.0733">
        <ele>429.60000610352</ele>
        <time>2017-07-21T11:08:03Z</time>
      </trkpt>
      <trkpt lat="47.81998" lon="7.0733">
        <ele>429.39999389648</ele>
        <time>2017-07-21T11:08:04Z</time>
      </trkpt>
      <trkpt lat="47.82006" lon="7.07325">
        <ele>428.79998779297</ele>
        <time>2017-07-21T11:08:11Z</time>
      </trkpt>
      <trkpt lat="47.82007" lon="7.07326">
        <ele>429</ele>
        <time>2017-07-21T11:08:12Z</time>
      </trkpt>
      <trkpt lat="47.82013" lon="7.0733">
        <ele>429.39999389648</ele>
        <time>2017-07-21T11:08:16Z</time>
      </trkpt>
      <trkpt lat="47.82015" lon="7.07329">
        <ele>429.39999389648</ele>
        <time>2017-07-21T11:08:17Z</time>
      </trkpt>
      <trkpt lat="47.82024" lon="7.07328">
        <ele>430</ele>
        <time>2017-07-21T11:08:23Z</time>
      </trkpt>
      <trkpt lat="47.8203" lon="7.07328">
        <ele>430.60000610352</ele>
        <time>2017-07-21T11:08:26Z</time>
      </trkpt>
      <trkpt lat="47.82038" lon="7.07327">
        <ele>431</ele>
        <time>2017-07-21T11:08:30Z</time>
      </trkpt>
      <trkpt lat="47.82046" lon="7.07328">
        <ele>431.60000610352</ele>
        <time>2017-07-21T11:08:34Z</time>
      </trkpt>
      <trkpt lat="47.82081" lon="7.07322">
        <ele>434.60000610352</ele>
        <time>2017-07-21T11:08:55Z</time>
      </trkpt>
      <trkpt lat="47.82091" lon="7.07314">
        <ele>435.39999389648</ele>
        <time>2017-07-21T11:08:59Z</time>
      </trkpt>
      <trkpt lat="47.82096" lon="7.07307">
        <ele>435.60000610352</ele>
        <time>2017-07-21T11:09:02Z</time>
      </trkpt>
      <trkpt lat="47.82099" lon="7.07297">
        <ele>436</ele>
        <time>2017-07-21T11:09:06Z</time>
      </trkpt>
      <trkpt lat="47.82101" lon="7.07291">
        <ele>436.20001220703</ele>
        <time>2017-07-21T11:09:08Z</time>
      </trkpt>
      <trkpt lat="47.82103" lon="7.07279">
        <ele>436.60000610352</ele>
        <time>2017-07-21T11:09:12Z</time>
      </trkpt>
      <trkpt lat="47.82104" lon="7.07263">
        <ele>437.79998779297</ele>
        <time>2017-07-21T11:09:19Z</time>
      </trkpt>
      <trkpt lat="47.82107" lon="7.07248">
        <ele>438.79998779297</ele>
        <time>2017-07-21T11:09:24Z</time>
      </trkpt>
      <trkpt lat="47.82109" lon="7.07232">
        <ele>439.79998779297</ele>
        <time>2017-07-21T11:09:30Z</time>
      </trkpt>
      <trkpt lat="47.82109" lon="7.0723">
        <ele>440</ele>
        <time>2017-07-21T11:09:31Z</time>
      </trkpt>
      <trkpt lat="47.82113" lon="7.07218">
        <ele>440.79998779297</ele>
        <time>2017-07-21T11:09:36Z</time>
      </trkpt>
      <trkpt lat="47.82114" lon="7.07216">
        <ele>441</ele>
        <time>2017-07-21T11:09:37Z</time>
      </trkpt>
      <trkpt lat="47.82115" lon="7.07198">
        <ele>441.79998779297</ele>
        <time>2017-07-21T11:09:43Z</time>
      </trkpt>
      <trkpt lat="47.82115" lon="7.07194">
        <ele>442</ele>
        <time>2017-07-21T11:09:44Z</time>
      </trkpt>
      <trkpt lat="47.82115" lon="7.07182">
        <ele>442.79998779297</ele>
        <time>2017-07-21T11:09:48Z</time>
      </trkpt>
      <trkpt lat="47.82114" lon="7.07179">
        <ele>443</ele>
        <time>2017-07-21T11:09:49Z</time>
      </trkpt>
      <trkpt lat="47.82114" lon="7.07175">
        <ele>443.20001220703</ele>
        <time>2017-07-21T11:09:50Z</time>
      </trkpt>
      <trkpt lat="47.82114" lon="7.07173">
        <ele>443.39999389648</ele>
        <time>2017-07-21T11:09:51Z</time>
      </trkpt>
      <trkpt lat="47.82115" lon="7.07161">
        <ele>444</ele>
        <time>2017-07-21T11:09:55Z</time>
      </trkpt>
      <trkpt lat="47.82115" lon="7.07158">
        <ele>444.20001220703</ele>
        <time>2017-07-21T11:09:56Z</time>
      </trkpt>
      <trkpt lat="47.82113" lon="7.07143">
        <ele>445</ele>
        <time>2017-07-21T11:10:01Z</time>
      </trkpt>
      <trkpt lat="47.82112" lon="7.07138">
        <ele>445.20001220703</ele>
        <time>2017-07-21T11:10:03Z</time>
      </trkpt>
      <trkpt lat="47.82109" lon="7.07128">
        <ele>445.79998779297</ele>
        <time>2017-07-21T11:10:07Z</time>
      </trkpt>
      <trkpt lat="47.82107" lon="7.07119">
        <ele>446.39999389648</ele>
        <time>2017-07-21T11:10:10Z</time>
      </trkpt>
      <trkpt lat="47.82105" lon="7.07108">
        <ele>447</ele>
        <time>2017-07-21T11:10:14Z</time>
      </trkpt>
      <trkpt lat="47.82103" lon="7.07105">
        <ele>447.20001220703</ele>
        <time>2017-07-21T11:10:15Z</time>
      </trkpt>
      <trkpt lat="47.82103" lon="7.071">
        <ele>447.60000610352</ele>
        <time>2017-07-21T11:10:17Z</time>
      </trkpt>
      <trkpt lat="47.821" lon="7.07092">
        <ele>448</ele>
        <time>2017-07-21T11:10:20Z</time>
      </trkpt>
      <trkpt lat="47.82099" lon="7.0709">
        <ele>448.20001220703</ele>
        <time>2017-07-21T11:10:21Z</time>
      </trkpt>
      <trkpt lat="47.82094" lon="7.07082">
        <ele>448.60000610352</ele>
        <time>2017-07-21T11:10:24Z</time>
      </trkpt>
      <trkpt lat="47.82091" lon="7.07075">
        <ele>449</ele>
        <time>2017-07-21T11:10:27Z</time>
      </trkpt>
      <trkpt lat="47.82084" lon="7.07063">
        <ele>449.79998779297</ele>
        <time>2017-07-21T11:10:32Z</time>
      </trkpt>
      <trkpt lat="47.82082" lon="7.07059">
        <ele>450</ele>
        <time>2017-07-21T11:10:34Z</time>
      </trkpt>
      <trkpt lat="47.82081" lon="7.07052">
        <ele>450.79998779297</ele>
        <time>2017-07-21T11:10:37Z</time>
      </trkpt>
      <trkpt lat="47.82075" lon="7.07043">
        <ele>451.39999389648</ele>
        <time>2017-07-21T11:10:41Z</time>
      </trkpt>
      <trkpt lat="47.82073" lon="7.07041">
        <ele>451.39999389648</ele>
        <time>2017-07-21T11:10:42Z</time>
      </trkpt>
      <trkpt lat="47.8207" lon="7.07038">
        <ele>451.79998779297</ele>
        <time>2017-07-21T11:10:44Z</time>
      </trkpt>
      <trkpt lat="47.82065" lon="7.07031">
        <ele>452.20001220703</ele>
        <time>2017-07-21T11:10:47Z</time>
      </trkpt>
      <trkpt lat="47.82061" lon="7.07027">
        <ele>452.60000610352</ele>
        <time>2017-07-21T11:10:49Z</time>
      </trkpt>
      <trkpt lat="47.82059" lon="7.07025">
        <ele>452.79998779297</ele>
        <time>2017-07-21T11:10:50Z</time>
      </trkpt>
      <trkpt lat="47.82053" lon="7.0702">
        <ele>453.20001220703</ele>
        <time>2017-07-21T11:10:53Z</time>
      </trkpt>
      <trkpt lat="47.82046" lon="7.07014">
        <ele>454</ele>
        <time>2017-07-21T11:10:57Z</time>
      </trkpt>
      <trkpt lat="47.82041" lon="7.07009">
        <ele>454.39999389648</ele>
        <time>2017-07-21T11:11:00Z</time>
      </trkpt>
      <trkpt lat="47.82033" lon="7.07">
        <ele>455</ele>
        <time>2017-07-21T11:11:05Z</time>
      </trkpt>
      <trkpt lat="47.8203" lon="7.06998">
        <ele>455.39999389648</ele>
        <time>2017-07-21T11:11:07Z</time>
      </trkpt>
      <trkpt lat="47.82023" lon="7.0699">
        <ele>456</ele>
        <time>2017-07-21T11:11:12Z</time>
      </trkpt>
      <trkpt lat="47.8202" lon="7.06987">
        <ele>456.39999389648</ele>
        <time>2017-07-21T11:11:14Z</time>
      </trkpt>
      <trkpt lat="47.82013" lon="7.06979">
        <ele>457</ele>
        <time>2017-07-21T11:11:18Z</time>
      </trkpt>
      <trkpt lat="47.82011" lon="7.06975">
        <ele>457.39999389648</ele>
        <time>2017-07-21T11:11:20Z</time>
      </trkpt>
      <trkpt lat="47.82008" lon="7.06968">
        <ele>458.20001220703</ele>
        <time>2017-07-21T11:11:24Z</time>
      </trkpt>
      <trkpt lat="47.81985" lon="7.06922">
        <ele>461.60000610352</ele>
        <time>2017-07-21T11:11:47Z</time>
      </trkpt>
      <trkpt lat="47.8198" lon="7.06913">
        <ele>462.39999389648</ele>
        <time>2017-07-21T11:11:52Z</time>
      </trkpt>
      <trkpt lat="47.81979" lon="7.06908">
        <ele>462.79998779297</ele>
        <time>2017-07-21T11:11:54Z</time>
      </trkpt>
      <trkpt lat="47.81974" lon="7.06889">
        <ele>464.20001220703</ele>
        <time>2017-07-21T11:12:02Z</time>
      </trkpt>
      <trkpt lat="47.81971" lon="7.06881">
        <ele>464.60000610352</ele>
        <time>2017-07-21T11:12:05Z</time>
      </trkpt>
      <trkpt lat="47.81967" lon="7.06869">
        <ele>465.20001220703</ele>
        <time>2017-07-21T11:12:09Z</time>
      </trkpt>
      <trkpt lat="47.81964" lon="7.06861">
        <ele>465.79998779297</ele>
        <time>2017-07-21T11:12:12Z</time>
      </trkpt>
      <trkpt lat="47.81959" lon="7.06851">
        <ele>466.39999389648</ele>
        <time>2017-07-21T11:12:16Z</time>
      </trkpt>
      <trkpt lat="47.81956" lon="7.06844">
        <ele>466.79998779297</ele>
        <time>2017-07-21T11:12:19Z</time>
      </trkpt>
      <trkpt lat="47.81955" lon="7.06833">
        <ele>467.39999389648</ele>
        <time>2017-07-21T11:12:23Z</time>
      </trkpt>
      <trkpt lat="47.81952" lon="7.06827">
        <ele>467.79998779297</ele>
        <time>2017-07-21T11:12:26Z</time>
      </trkpt>
      <trkpt lat="47.81951" lon="7.06825">
        <ele>467.79998779297</ele>
        <time>2017-07-21T11:12:27Z</time>
      </trkpt>
      <trkpt lat="47.81948" lon="7.06813">
        <ele>468.39999389648</ele>
        <time>2017-07-21T11:12:32Z</time>
      </trkpt>
      <trkpt lat="47.81947" lon="7.06799">
        <ele>469.60000610352</ele>
        <time>2017-07-21T11:12:39Z</time>
      </trkpt>
      <trkpt lat="47.81951" lon="7.06789">
        <ele>470</ele>
        <time>2017-07-21T11:12:43Z</time>
      </trkpt>
      <trkpt lat="47.81958" lon="7.06778">
        <ele>470.60000610352</ele>
        <time>2017-07-21T11:12:49Z</time>
      </trkpt>
      <trkpt lat="47.81962" lon="7.06772">
        <ele>471.39999389648</ele>
        <time>2017-07-21T11:12:54Z</time>
      </trkpt>
      <trkpt lat="47.81964" lon="7.0677">
        <ele>471.60000610352</ele>
        <time>2017-07-21T11:12:56Z</time>
      </trkpt>
      <trkpt lat="47.81966" lon="7.06768">
        <ele>472</ele>
        <time>2017-07-21T11:12:58Z</time>
      </trkpt>
      <trkpt lat="47.81972" lon="7.06763">
        <ele>472.79998779297</ele>
        <time>2017-07-21T11:13:02Z</time>
      </trkpt>
      <trkpt lat="47.81975" lon="7.06759">
        <ele>473.39999389648</ele>
        <time>2017-07-21T11:13:05Z</time>
      </trkpt>
      <trkpt lat="47.81979" lon="7.06756">
        <ele>473.79998779297</ele>
        <time>2017-07-21T11:13:08Z</time>
      </trkpt>
      <trkpt lat="47.81987" lon="7.06753">
        <ele>474.60000610352</ele>
        <time>2017-07-21T11:13:13Z</time>
      </trkpt>
      <trkpt lat="47.81989" lon="7.06753">
        <ele>474.60000610352</ele>
        <time>2017-07-21T11:13:14Z</time>
      </trkpt>
      <trkpt lat="47.81992" lon="7.06752">
        <ele>474.79998779297</ele>
        <time>2017-07-21T11:13:15Z</time>
      </trkpt>
      <trkpt lat="47.82003" lon="7.06751">
        <ele>475.60000610352</ele>
        <time>2017-07-21T11:13:20Z</time>
      </trkpt>
      <trkpt lat="47.82006" lon="7.06752">
        <ele>476</ele>
        <time>2017-07-21T11:13:22Z</time>
      </trkpt>
      <trkpt lat="47.82014" lon="7.06753">
        <ele>476.79998779297</ele>
        <time>2017-07-21T11:13:26Z</time>
      </trkpt>
      <trkpt lat="47.82016" lon="7.06752">
        <ele>477</ele>
        <time>2017-07-21T11:13:27Z</time>
      </trkpt>
      <trkpt lat="47.82027" lon="7.06749">
        <ele>478</ele>
        <time>2017-07-21T11:13:34Z</time>
      </trkpt>
      <trkpt lat="47.8203" lon="7.06748">
        <ele>478.39999389648</ele>
        <time>2017-07-21T11:13:36Z</time>
      </trkpt>
      <trkpt lat="47.82039" lon="7.06744">
        <ele>479</ele>
        <time>2017-07-21T11:13:41Z</time>
      </trkpt>
      <trkpt lat="47.82041" lon="7.06743">
        <ele>479.20001220703</ele>
        <time>2017-07-21T11:13:42Z</time>
      </trkpt>
      <trkpt lat="47.82046" lon="7.0674">
        <ele>479.79998779297</ele>
        <time>2017-07-21T11:13:45Z</time>
      </trkpt>
      <trkpt lat="47.82089" lon="7.06694">
        <ele>484.20001220703</ele>
        <time>2017-07-21T11:14:12Z</time>
      </trkpt>
      <trkpt lat="47.82092" lon="7.06689">
        <ele>484.60000610352</ele>
        <time>2017-07-21T11:14:14Z</time>
      </trkpt>
      <trkpt lat="47.821" lon="7.0668">
        <ele>485.39999389648</ele>
        <time>2017-07-21T11:14:18Z</time>
      </trkpt>
      <trkpt lat="47.82103" lon="7.06676">
        <ele>485.79998779297</ele>
        <time>2017-07-21T11:14:20Z</time>
      </trkpt>
      <trkpt lat="47.82108" lon="7.06668">
        <ele>486.39999389648</ele>
        <time>2017-07-21T11:14:24Z</time>
      </trkpt>
      <trkpt lat="47.8211" lon="7.06664">
        <ele>486.79998779297</ele>
        <time>2017-07-21T11:14:26Z</time>
      </trkpt>
      <trkpt lat="47.82112" lon="7.06652">
        <ele>487.39999389648</ele>
        <time>2017-07-21T11:14:30Z</time>
      </trkpt>
      <trkpt lat="47.82115" lon="7.0664">
        <ele>488.20001220703</ele>
        <time>2017-07-21T11:14:35Z</time>
      </trkpt>
      <trkpt lat="47.82115" lon="7.06637">
        <ele>488.60000610352</ele>
        <time>2017-07-21T11:14:36Z</time>
      </trkpt>
      <trkpt lat="47.82115" lon="7.06633">
        <ele>489</ele>
        <time>2017-07-21T11:14:38Z</time>
      </trkpt>
      <trkpt lat="47.82115" lon="7.06625">
        <ele>489.39999389648</ele>
        <time>2017-07-21T11:14:41Z</time>
      </trkpt>
      <trkpt lat="47.82114" lon="7.06621">
        <ele>489.79998779297</ele>
        <time>2017-07-21T11:14:43Z</time>
      </trkpt>
      <trkpt lat="47.82114" lon="7.06614">
        <ele>490.20001220703</ele>
        <time>2017-07-21T11:14:46Z</time>
      </trkpt>
      <trkpt lat="47.82114" lon="7.066">
        <ele>490.79998779297</ele>
        <time>2017-07-21T11:14:51Z</time>
      </trkpt>
      <trkpt lat="47.82114" lon="7.06594">
        <ele>491.20001220703</ele>
        <time>2017-07-21T11:14:53Z</time>
      </trkpt>
      <trkpt lat="47.82114" lon="7.06583">
        <ele>492</ele>
        <time>2017-07-21T11:14:58Z</time>
      </trkpt>
      <trkpt lat="47.82113" lon="7.06576">
        <ele>492.39999389648</ele>
        <time>2017-07-21T11:15:00Z</time>
      </trkpt>
      <trkpt lat="47.82113" lon="7.06573">
        <ele>492.60000610352</ele>
        <time>2017-07-21T11:15:01Z</time>
      </trkpt>
      <trkpt lat="47.82113" lon="7.06564">
        <ele>493.20001220703</ele>
        <time>2017-07-21T11:15:04Z</time>
      </trkpt>
      <trkpt lat="47.82112" lon="7.06561">
        <ele>493.20001220703</ele>
        <time>2017-07-21T11:15:05Z</time>
      </trkpt>
      <trkpt lat="47.8211" lon="7.06555">
        <ele>493.60000610352</ele>
        <time>2017-07-21T11:15:07Z</time>
      </trkpt>
      <trkpt lat="47.82107" lon="7.06539">
        <ele>494.20001220703</ele>
        <time>2017-07-21T11:15:12Z</time>
      </trkpt>
      <trkpt lat="47.82106" lon="7.06533">
        <ele>494.39999389648</ele>
        <time>2017-07-21T11:15:14Z</time>
      </trkpt>
      <trkpt lat="47.82102" lon="7.06514">
        <ele>495.20001220703</ele>
        <time>2017-07-21T11:15:20Z</time>
      </trkpt>
      <trkpt lat="47.821" lon="7.06509">
        <ele>495.60000610352</ele>
        <time>2017-07-21T11:15:22Z</time>
      </trkpt>
      <trkpt lat="47.82098" lon="7.06503">
        <ele>496.20001220703</ele>
        <time>2017-07-21T11:15:24Z</time>
      </trkpt>
      <trkpt lat="47.82093" lon="7.06491">
        <ele>496.79998779297</ele>
        <time>2017-07-21T11:15:29Z</time>
      </trkpt>
      <trkpt lat="47.82092" lon="7.06481">
        <ele>497.39999389648</ele>
        <time>2017-07-21T11:15:33Z</time>
      </trkpt>
      <trkpt lat="47.82087" lon="7.06472">
        <ele>498</ele>
        <time>2017-07-21T11:15:37Z</time>
      </trkpt>
      <trkpt lat="47.82082" lon="7.06466">
        <ele>498.39999389648</ele>
        <time>2017-07-21T11:15:40Z</time>
      </trkpt>
      <trkpt lat="47.8208" lon="7.06465">
        <ele>498.39999389648</ele>
        <time>2017-07-21T11:15:41Z</time>
      </trkpt>
      <trkpt lat="47.82077" lon="7.06461">
        <ele>498.79998779297</ele>
        <time>2017-07-21T11:15:43Z</time>
      </trkpt>
      <trkpt lat="47.82073" lon="7.06454">
        <ele>499.60000610352</ele>
        <time>2017-07-21T11:15:47Z</time>
      </trkpt>
      <trkpt lat="47.82072" lon="7.06449">
        <ele>500</ele>
        <time>2017-07-21T11:15:49Z</time>
      </trkpt>
      <trkpt lat="47.82069" lon="7.06441">
        <ele>500.60000610352</ele>
        <time>2017-07-21T11:15:53Z</time>
      </trkpt>
      <trkpt lat="47.82064" lon="7.06434">
        <ele>501.39999389648</ele>
        <time>2017-07-21T11:15:57Z</time>
      </trkpt>
      <trkpt lat="47.82062" lon="7.06431">
        <ele>501.79998779297</ele>
        <time>2017-07-21T11:15:59Z</time>
      </trkpt>
      <trkpt lat="47.82059" lon="7.06421">
        <ele>502.79998779297</ele>
        <time>2017-07-21T11:16:04Z</time>
      </trkpt>
      <trkpt lat="47.82058" lon="7.06419">
        <ele>503</ele>
        <time>2017-07-21T11:16:05Z</time>
      </trkpt>
      <trkpt lat="47.82054" lon="7.0641">
        <ele>503.79998779297</ele>
        <time>2017-07-21T11:16:10Z</time>
      </trkpt>
      <trkpt lat="47.82052" lon="7.06406">
        <ele>504.60000610352</ele>
        <time>2017-07-21T11:16:12Z</time>
      </trkpt>
      <trkpt lat="47.8203" lon="7.06351">
        <ele>509.39999389648</ele>
        <time>2017-07-21T11:16:40Z</time>
      </trkpt>
      <trkpt lat="47.82025" lon="7.06339">
        <ele>511</ele>
        <time>2017-07-21T11:17:04Z</time>
      </trkpt>
      <trkpt lat="47.82019" lon="7.06327">
        <ele>511.79998779297</ele>
        <time>2017-07-21T11:17:10Z</time>
      </trkpt>
      <trkpt lat="47.82014" lon="7.06201">
        <ele>522.20001220703</ele>
        <time>2017-07-21T11:18:10Z</time>
      </trkpt>
      <trkpt lat="47.82016" lon="7.06185">
        <ele>523</ele>
        <time>2017-07-21T11:18:14Z</time>
      </trkpt>
      <trkpt lat="47.82016" lon="7.06183">
        <ele>523.20001220703</ele>
        <time>2017-07-21T11:18:15Z</time>
      </trkpt>
      <trkpt lat="47.82016" lon="7.0618">
        <ele>523.40002441406</ele>
        <time>2017-07-21T11:18:16Z</time>
      </trkpt>
      <trkpt lat="47.82019" lon="7.06168">
        <ele>524.20001220703</ele>
        <time>2017-07-21T11:18:21Z</time>
      </trkpt>
      <trkpt lat="47.8202" lon="7.06167">
        <ele>524.40002441406</ele>
        <time>2017-07-21T11:18:22Z</time>
      </trkpt>
      <trkpt lat="47.82024" lon="7.06151">
        <ele>525.40002441406</ele>
        <time>2017-07-21T11:18:30Z</time>
      </trkpt>
      <trkpt lat="47.82025" lon="7.0615">
        <ele>525.40002441406</ele>
        <time>2017-07-21T11:18:31Z</time>
      </trkpt>
      <trkpt lat="47.82032" lon="7.06145">
        <ele>526.20001220703</ele>
        <time>2017-07-21T11:18:35Z</time>
      </trkpt>
      <trkpt lat="47.82033" lon="7.06144">
        <ele>526.40002441406</ele>
        <time>2017-07-21T11:18:36Z</time>
      </trkpt>
      <trkpt lat="47.82043" lon="7.0614">
        <ele>527.40002441406</ele>
        <time>2017-07-21T11:18:42Z</time>
      </trkpt>
      <trkpt lat="47.82045" lon="7.0614">
        <ele>527.40002441406</ele>
        <time>2017-07-21T11:18:43Z</time>
      </trkpt>
      <trkpt lat="47.82055" lon="7.06132">
        <ele>528</ele>
        <time>2017-07-21T11:18:48Z</time>
      </trkpt>
      <trkpt lat="47.8206" lon="7.06126">
        <ele>528.20001220703</ele>
        <time>2017-07-21T11:18:50Z</time>
      </trkpt>
      <trkpt lat="47.82065" lon="7.06116">
        <ele>528.40002441406</ele>
        <time>2017-07-21T11:18:53Z</time>
      </trkpt>
      <trkpt lat="47.82067" lon="7.06105">
        <ele>528.79998779297</ele>
        <time>2017-07-21T11:18:56Z</time>
      </trkpt>
      <trkpt lat="47.82061" lon="7.06088">
        <ele>529.40002441406</ele>
        <time>2017-07-21T11:19:02Z</time>
      </trkpt>
      <trkpt lat="47.82058" lon="7.06086">
        <ele>529.59997558594</ele>
        <time>2017-07-21T11:19:03Z</time>
      </trkpt>
      <trkpt lat="47.82047" lon="7.0608">
        <ele>530.40002441406</ele>
        <time>2017-07-21T11:19:08Z</time>
      </trkpt>
      <trkpt lat="47.82043" lon="7.0608">
        <ele>530.59997558594</ele>
        <time>2017-07-21T11:19:10Z</time>
      </trkpt>
      <trkpt lat="47.82034" lon="7.06084">
        <ele>531</ele>
        <time>2017-07-21T11:19:14Z</time>
      </trkpt>
      <trkpt lat="47.8202" lon="7.06097">
        <ele>531.79998779297</ele>
        <time>2017-07-21T11:19:20Z</time>
      </trkpt>
      <trkpt lat="47.82004" lon="7.06118">
        <ele>532.20001220703</ele>
        <time>2017-07-21T11:19:27Z</time>
      </trkpt>
      <trkpt lat="47.81991" lon="7.06138">
        <ele>532.40002441406</ele>
        <time>2017-07-21T11:19:34Z</time>
      </trkpt>
      <trkpt lat="47.81984" lon="7.0615">
        <ele>532.79998779297</ele>
        <time>2017-07-21T11:19:38Z</time>
      </trkpt>
      <trkpt lat="47.81978" lon="7.06158">
        <ele>533</ele>
        <time>2017-07-21T11:19:41Z</time>
      </trkpt>
      <trkpt lat="47.81968" lon="7.06187">
        <ele>533.59997558594</ele>
        <time>2017-07-21T11:19:48Z</time>
      </trkpt>
      <trkpt lat="47.81967" lon="7.06199">
        <ele>533.79998779297</ele>
        <time>2017-07-21T11:19:50Z</time>
      </trkpt>
      <trkpt lat="47.81962" lon="7.06215">
        <ele>534</ele>
        <time>2017-07-21T11:19:54Z</time>
      </trkpt>
      <trkpt lat="47.81955" lon="7.06238">
        <ele>534.79998779297</ele>
        <time>2017-07-21T11:20:00Z</time>
      </trkpt>
      <trkpt lat="47.81954" lon="7.06242">
        <ele>535</ele>
        <time>2017-07-21T11:20:01Z</time>
      </trkpt>
      <trkpt lat="47.81949" lon="7.06273">
        <ele>535.59997558594</ele>
        <time>2017-07-21T11:20:08Z</time>
      </trkpt>
      <trkpt lat="47.81948" lon="7.06282">
        <ele>535.79998779297</ele>
        <time>2017-07-21T11:20:10Z</time>
      </trkpt>
      <trkpt lat="47.81948" lon="7.06312">
        <ele>536.59997558594</ele>
        <time>2017-07-21T11:20:16Z</time>
      </trkpt>
      <trkpt lat="47.81952" lon="7.06325">
        <ele>537</ele>
        <time>2017-07-21T11:20:18Z</time>
      </trkpt>
      <trkpt lat="47.81956" lon="7.06353">
        <ele>537.20001220703</ele>
        <time>2017-07-21T11:20:23Z</time>
      </trkpt>
      <trkpt lat="47.81963" lon="7.06381">
        <ele>537.79998779297</ele>
        <time>2017-07-21T11:20:29Z</time>
      </trkpt>
      <trkpt lat="47.81964" lon="7.06391">
        <ele>538</ele>
        <time>2017-07-21T11:20:31Z</time>
      </trkpt>
      <trkpt lat="47.81969" lon="7.06417">
        <ele>538.79998779297</ele>
        <time>2017-07-21T11:20:37Z</time>
      </trkpt>
      <trkpt lat="47.8197" lon="7.06425">
        <ele>539</ele>
        <time>2017-07-21T11:20:39Z</time>
      </trkpt>
      <trkpt lat="47.81977" lon="7.0645">
        <ele>539.79998779297</ele>
        <time>2017-07-21T11:20:45Z</time>
      </trkpt>
      <trkpt lat="47.81978" lon="7.06456">
        <ele>540</ele>
        <time>2017-07-21T11:20:47Z</time>
      </trkpt>
      <trkpt lat="47.81979" lon="7.0647">
        <ele>540.40002441406</ele>
        <time>2017-07-21T11:20:51Z</time>
      </trkpt>
      <trkpt lat="47.81983" lon="7.06496">
        <ele>541.20001220703</ele>
        <time>2017-07-21T11:20:58Z</time>
      </trkpt>
      <trkpt lat="47.81983" lon="7.06524">
        <ele>542</ele>
        <time>2017-07-21T11:21:05Z</time>
      </trkpt>
      <trkpt lat="47.81979" lon="7.06527">
        <ele>542</ele>
        <time>2017-07-21T11:21:07Z</time>
      </trkpt>
      <trkpt lat="47.81976" lon="7.06526">
        <ele>542.20001220703</ele>
        <time>2017-07-21T11:21:08Z</time>
      </trkpt>
      <trkpt lat="47.81973" lon="7.06522">
        <ele>542.20001220703</ele>
        <time>2017-07-21T11:21:10Z</time>
      </trkpt>
      <trkpt lat="47.81972" lon="7.06515">
        <ele>542.40002441406</ele>
        <time>2017-07-21T11:21:12Z</time>
      </trkpt>
      <trkpt lat="47.81972" lon="7.06508">
        <ele>542.59997558594</ele>
        <time>2017-07-21T11:21:14Z</time>
      </trkpt>
      <trkpt lat="47.81973" lon="7.06494">
        <ele>543.20001220703</ele>
        <time>2017-07-21T11:21:19Z</time>
      </trkpt>
      <trkpt lat="47.81973" lon="7.06491">
        <ele>543.20001220703</ele>
        <time>2017-07-21T11:21:20Z</time>
      </trkpt>
      <trkpt lat="47.81972" lon="7.06473">
        <ele>544.40002441406</ele>
        <time>2017-07-21T11:21:26Z</time>
      </trkpt>
      <trkpt lat="47.81967" lon="7.06458">
        <ele>545.40002441406</ele>
        <time>2017-07-21T11:21:32Z</time>
      </trkpt>
      <trkpt lat="47.81961" lon="7.06439">
        <ele>546.40002441406</ele>
        <time>2017-07-21T11:21:38Z</time>
      </trkpt>
      <trkpt lat="47.8196" lon="7.06436">
        <ele>546.59997558594</ele>
        <time>2017-07-21T11:21:39Z</time>
      </trkpt>
      <trkpt lat="47.81956" lon="7.0642">
        <ele>547.59997558594</ele>
        <time>2017-07-21T11:21:45Z</time>
      </trkpt>
      <trkpt lat="47.81955" lon="7.06417">
        <ele>547.79998779297</ele>
        <time>2017-07-21T11:21:46Z</time>
      </trkpt>
      <trkpt lat="47.8195" lon="7.064">
        <ele>548.79998779297</ele>
        <time>2017-07-21T11:21:52Z</time>
      </trkpt>
      <trkpt lat="47.81949" lon="7.06398">
        <ele>549</ele>
        <time>2017-07-21T11:21:53Z</time>
      </trkpt>
      <trkpt lat="47.81947" lon="7.06389">
        <ele>549.59997558594</ele>
        <time>2017-07-21T11:21:57Z</time>
      </trkpt>
      <trkpt lat="47.81945" lon="7.06384">
        <ele>549.79998779297</ele>
        <time>2017-07-21T11:21:59Z</time>
      </trkpt>
      <trkpt lat="47.81938" lon="7.06367">
        <ele>550.79998779297</ele>
        <time>2017-07-21T11:22:05Z</time>
      </trkpt>
      <trkpt lat="47.81937" lon="7.06365">
        <ele>551</ele>
        <time>2017-07-21T11:22:06Z</time>
      </trkpt>
      <trkpt lat="47.81931" lon="7.06351">
        <ele>552</ele>
        <time>2017-07-21T11:22:12Z</time>
      </trkpt>
      <trkpt lat="47.81923" lon="7.06328">
        <ele>553.20001220703</ele>
        <time>2017-07-21T11:22:19Z</time>
      </trkpt>
      <trkpt lat="47.81917" lon="7.06308">
        <ele>554.40002441406</ele>
        <time>2017-07-21T11:22:26Z</time>
      </trkpt>
      <trkpt lat="47.81916" lon="7.06306">
        <ele>554.59997558594</ele>
        <time>2017-07-21T11:22:27Z</time>
      </trkpt>
      <trkpt lat="47.81913" lon="7.06292">
        <ele>555.40002441406</ele>
        <time>2017-07-21T11:22:32Z</time>
      </trkpt>
      <trkpt lat="47.81912" lon="7.0629">
        <ele>555.59997558594</ele>
        <time>2017-07-21T11:22:33Z</time>
      </trkpt>
      <trkpt lat="47.81908" lon="7.06273">
        <ele>556.40002441406</ele>
        <time>2017-07-21T11:22:39Z</time>
      </trkpt>
      <trkpt lat="47.81907" lon="7.06271">
        <ele>556.59997558594</ele>
        <time>2017-07-21T11:22:40Z</time>
      </trkpt>
      <trkpt lat="47.81906" lon="7.06254">
        <ele>557.59997558594</ele>
        <time>2017-07-21T11:22:46Z</time>
      </trkpt>
      <trkpt lat="47.81906" lon="7.06252">
        <ele>557.79998779297</ele>
        <time>2017-07-21T11:22:47Z</time>
      </trkpt>
      <trkpt lat="47.8191" lon="7.06236">
        <ele>558.79998779297</ele>
        <time>2017-07-21T11:22:53Z</time>
      </trkpt>
      <trkpt lat="47.81913" lon="7.0622">
        <ele>559.79998779297</ele>
        <time>2017-07-21T11:23:00Z</time>
      </trkpt>
      <trkpt lat="47.81913" lon="7.06217">
        <ele>560</ele>
        <time>2017-07-21T11:23:01Z</time>
      </trkpt>
      <trkpt lat="47.81913" lon="7.06204">
        <ele>560.79998779297</ele>
        <time>2017-07-21T11:23:06Z</time>
      </trkpt>
      <trkpt lat="47.81914" lon="7.06199">
        <ele>561</ele>
        <time>2017-07-21T11:23:08Z</time>
      </trkpt>
      <trkpt lat="47.81915" lon="7.06179">
        <ele>561.79998779297</ele>
        <time>2017-07-21T11:23:13Z</time>
      </trkpt>
      <trkpt lat="47.81916" lon="7.06169">
        <ele>562.20001220703</ele>
        <time>2017-07-21T11:23:16Z</time>
      </trkpt>
      <trkpt lat="47.81918" lon="7.06159">
        <ele>563</ele>
        <time>2017-07-21T11:23:20Z</time>
      </trkpt>
      <trkpt lat="47.81918" lon="7.06153">
        <ele>563.40002441406</ele>
        <time>2017-07-21T11:23:23Z</time>
      </trkpt>
      <trkpt lat="47.81917" lon="7.06145">
        <ele>564</ele>
        <time>2017-07-21T11:23:26Z</time>
      </trkpt>
      <trkpt lat="47.81917" lon="7.06131">
        <ele>564.79998779297</ele>
        <time>2017-07-21T11:23:31Z</time>
      </trkpt>
      <trkpt lat="47.81917" lon="7.06126">
        <ele>565.20001220703</ele>
        <time>2017-07-21T11:23:33Z</time>
      </trkpt>
      <trkpt lat="47.81918" lon="7.06111">
        <ele>566</ele>
        <time>2017-07-21T11:23:38Z</time>
      </trkpt>
      <trkpt lat="47.81919" lon="7.06104">
        <ele>566.20001220703</ele>
        <time>2017-07-21T11:23:40Z</time>
      </trkpt>
      <trkpt lat="47.8192" lon="7.0609">
        <ele>567</ele>
        <time>2017-07-21T11:23:44Z</time>
      </trkpt>
      <trkpt lat="47.81921" lon="7.06081">
        <ele>567.40002441406</ele>
        <time>2017-07-21T11:23:47Z</time>
      </trkpt>
      <trkpt lat="47.81921" lon="7.06068">
        <ele>568.20001220703</ele>
        <time>2017-07-21T11:23:52Z</time>
      </trkpt>
      <trkpt lat="47.81922" lon="7.06065">
        <ele>568.40002441406</ele>
        <time>2017-07-21T11:23:53Z</time>
      </trkpt>
      <trkpt lat="47.81922" lon="7.06048">
        <ele>569.40002441406</ele>
        <time>2017-07-21T11:23:59Z</time>
      </trkpt>
      <trkpt lat="47.81921" lon="7.06045">
        <ele>569.59997558594</ele>
        <time>2017-07-21T11:24:00Z</time>
      </trkpt>
      <trkpt lat="47.81913" lon="7.06028">
        <ele>570.40002441406</ele>
        <time>2017-07-21T11:24:05Z</time>
      </trkpt>
      <trkpt lat="47.81908" lon="7.06021">
        <ele>570.59997558594</ele>
        <time>2017-07-21T11:24:07Z</time>
      </trkpt>
      <trkpt lat="47.81899" lon="7.06011">
        <ele>571.20001220703</ele>
        <time>2017-07-21T11:24:11Z</time>
      </trkpt>
      <trkpt lat="47.81895" lon="7.06007">
        <ele>571.59997558594</ele>
        <time>2017-07-21T11:24:13Z</time>
      </trkpt>
      <trkpt lat="47.81883" lon="7.05996">
        <ele>572.79998779297</ele>
        <time>2017-07-21T11:24:20Z</time>
      </trkpt>
      <trkpt lat="47.81871" lon="7.0599">
        <ele>573.79998779297</ele>
        <time>2017-07-21T11:24:27Z</time>
      </trkpt>
      <trkpt lat="47.81859" lon="7.05979">
        <ele>575</ele>
        <time>2017-07-21T11:24:34Z</time>
      </trkpt>
      <trkpt lat="47.81856" lon="7.05977">
        <ele>575.20001220703</ele>
        <time>2017-07-21T11:24:36Z</time>
      </trkpt>
      <trkpt lat="47.81851" lon="7.0597">
        <ele>576</ele>
        <time>2017-07-21T11:24:41Z</time>
      </trkpt>
      <trkpt lat="47.81849" lon="7.05967">
        <ele>576.40002441406</ele>
        <time>2017-07-21T11:24:43Z</time>
      </trkpt>
      <trkpt lat="47.81848" lon="7.05965">
        <ele>576.59997558594</ele>
        <time>2017-07-21T11:24:44Z</time>
      </trkpt>
      <trkpt lat="47.81845" lon="7.05957">
        <ele>577.20001220703</ele>
        <time>2017-07-21T11:24:48Z</time>
      </trkpt>
      <trkpt lat="47.81843" lon="7.05954">
        <ele>577.40002441406</ele>
        <time>2017-07-21T11:24:50Z</time>
      </trkpt>
      <trkpt lat="47.81837" lon="7.05941">
        <ele>578.40002441406</ele>
        <time>2017-07-21T11:24:56Z</time>
      </trkpt>
      <trkpt lat="47.81835" lon="7.05937">
        <ele>578.59997558594</ele>
        <time>2017-07-21T11:24:57Z</time>
      </trkpt>
      <trkpt lat="47.81825" lon="7.05922">
        <ele>579.40002441406</ele>
        <time>2017-07-21T11:25:02Z</time>
      </trkpt>
      <trkpt lat="47.81821" lon="7.05916">
        <ele>579.79998779297</ele>
        <time>2017-07-21T11:25:04Z</time>
      </trkpt>
      <trkpt lat="47.81811" lon="7.05903">
        <ele>580.59997558594</ele>
        <time>2017-07-21T11:25:09Z</time>
      </trkpt>
      <trkpt lat="47.81804" lon="7.05895">
        <ele>581.20001220703</ele>
        <time>2017-07-21T11:25:13Z</time>
      </trkpt>
      <trkpt lat="47.818" lon="7.05889">
        <ele>581.59997558594</ele>
        <time>2017-07-21T11:25:16Z</time>
      </trkpt>
      <trkpt lat="47.8179" lon="7.05877">
        <ele>582.40002441406</ele>
        <time>2017-07-21T11:25:22Z</time>
      </trkpt>
      <trkpt lat="47.81787" lon="7.05873">
        <ele>582.79998779297</ele>
        <time>2017-07-21T11:25:24Z</time>
      </trkpt>
      <trkpt lat="47.81776" lon="7.05863">
        <ele>583.79998779297</ele>
        <time>2017-07-21T11:25:30Z</time>
      </trkpt>
      <trkpt lat="47.81765" lon="7.05853">
        <ele>584.79998779297</ele>
        <time>2017-07-21T11:25:37Z</time>
      </trkpt>
      <trkpt lat="47.81764" lon="7.05852">
        <ele>585</ele>
        <time>2017-07-21T11:25:38Z</time>
      </trkpt>
      <trkpt lat="47.81754" lon="7.05848">
        <ele>585.79998779297</ele>
        <time>2017-07-21T11:25:44Z</time>
      </trkpt>
      <trkpt lat="47.81751" lon="7.05848">
        <ele>586</ele>
        <time>2017-07-21T11:25:46Z</time>
      </trkpt>
      <trkpt lat="47.81741" lon="7.05843">
        <ele>587</ele>
        <time>2017-07-21T11:25:52Z</time>
      </trkpt>
      <trkpt lat="47.81724" lon="7.05834">
        <ele>588</ele>
        <time>2017-07-21T11:26:00Z</time>
      </trkpt>
      <trkpt lat="47.81713" lon="7.05825">
        <ele>589</ele>
        <time>2017-07-21T11:26:06Z</time>
      </trkpt>
      <trkpt lat="47.81711" lon="7.05825">
        <ele>589.20001220703</ele>
        <time>2017-07-21T11:26:07Z</time>
      </trkpt>
      <trkpt lat="47.81702" lon="7.05815">
        <ele>590.40002441406</ele>
        <time>2017-07-21T11:26:13Z</time>
      </trkpt>
      <trkpt lat="47.81691" lon="7.05805">
        <ele>591.40002441406</ele>
        <time>2017-07-21T11:26:20Z</time>
      </trkpt>
      <trkpt lat="47.8169" lon="7.05804">
        <ele>591.59997558594</ele>
        <time>2017-07-21T11:26:21Z</time>
      </trkpt>
      <trkpt lat="47.81681" lon="7.05794">
        <ele>592.40002441406</ele>
        <time>2017-07-21T11:26:27Z</time>
      </trkpt>
      <trkpt lat="47.81679" lon="7.05792">
        <ele>592.59997558594</ele>
        <time>2017-07-21T11:26:28Z</time>
      </trkpt>
      <trkpt lat="47.8167" lon="7.05783">
        <ele>593.59997558594</ele>
        <time>2017-07-21T11:26:34Z</time>
      </trkpt>
      <trkpt lat="47.81668" lon="7.05782">
        <ele>593.79998779297</ele>
        <time>2017-07-21T11:26:35Z</time>
      </trkpt>
      <trkpt lat="47.81657" lon="7.05777">
        <ele>594.59997558594</ele>
        <time>2017-07-21T11:26:41Z</time>
      </trkpt>
      <trkpt lat="47.81655" lon="7.05777">
        <ele>594.79998779297</ele>
        <time>2017-07-21T11:26:42Z</time>
      </trkpt>
      <trkpt lat="47.81645" lon="7.0578">
        <ele>595.59997558594</ele>
        <time>2017-07-21T11:26:47Z</time>
      </trkpt>
      <trkpt lat="47.81642" lon="7.05783">
        <ele>596</ele>
        <time>2017-07-21T11:26:49Z</time>
      </trkpt>
      <trkpt lat="47.81636" lon="7.0579">
        <ele>596.59997558594</ele>
        <time>2017-07-21T11:26:53Z</time>
      </trkpt>
      <trkpt lat="47.81629" lon="7.05794">
        <ele>597</ele>
        <time>2017-07-21T11:26:56Z</time>
      </trkpt>
      <trkpt lat="47.81618" lon="7.05796">
        <ele>598</ele>
        <time>2017-07-21T11:27:01Z</time>
      </trkpt>
      <trkpt lat="47.81609" lon="7.05798">
        <ele>598.40002441406</ele>
        <time>2017-07-21T11:27:05Z</time>
      </trkpt>
      <trkpt lat="47.81599" lon="7.05804">
        <ele>599</ele>
        <time>2017-07-21T11:27:10Z</time>
      </trkpt>
      <trkpt lat="47.81594" lon="7.05805">
        <ele>599.40002441406</ele>
        <time>2017-07-21T11:27:12Z</time>
      </trkpt>
      <trkpt lat="47.8157" lon="7.05807">
        <ele>599.79998779297</ele>
        <time>2017-07-21T11:27:21Z</time>
      </trkpt>
      <trkpt lat="47.81565" lon="7.05808">
        <ele>600.20001220703</ele>
        <time>2017-07-21T11:27:23Z</time>
      </trkpt>
      <trkpt lat="47.81552" lon="7.05809">
        <ele>600.79998779297</ele>
        <time>2017-07-21T11:27:28Z</time>
      </trkpt>
      <trkpt lat="47.81544" lon="7.05811">
        <ele>601.20001220703</ele>
        <time>2017-07-21T11:27:32Z</time>
      </trkpt>
      <trkpt lat="47.81536" lon="7.05811">
        <ele>601.40002441406</ele>
        <time>2017-07-21T11:27:35Z</time>
      </trkpt>
      <trkpt lat="47.8152" lon="7.05811">
        <ele>602.20001220703</ele>
        <time>2017-07-21T11:27:42Z</time>
      </trkpt>
      <trkpt lat="47.81515" lon="7.05813">
        <ele>602.40002441406</ele>
        <time>2017-07-21T11:27:44Z</time>
      </trkpt>
      <trkpt lat="47.81502" lon="7.05815">
        <ele>603.20001220703</ele>
        <time>2017-07-21T11:27:50Z</time>
      </trkpt>
      <trkpt lat="47.81498" lon="7.05815">
        <ele>603.40002441406</ele>
        <time>2017-07-21T11:27:52Z</time>
      </trkpt>
      <trkpt lat="47.81488" lon="7.05816">
        <ele>603.59997558594</ele>
        <time>2017-07-21T11:27:56Z</time>
      </trkpt>
      <trkpt lat="47.81472" lon="7.05819">
        <ele>604.20001220703</ele>
        <time>2017-07-21T11:28:02Z</time>
      </trkpt>
      <trkpt lat="47.8147" lon="7.05819">
        <ele>604.40002441406</ele>
        <time>2017-07-21T11:28:03Z</time>
      </trkpt>
      <trkpt lat="47.8145" lon="7.05815">
        <ele>605</ele>
        <time>2017-07-21T11:28:10Z</time>
      </trkpt>
      <trkpt lat="47.8144" lon="7.05812">
        <ele>605.40002441406</ele>
        <time>2017-07-21T11:28:14Z</time>
      </trkpt>
      <trkpt lat="47.81435" lon="7.05812">
        <ele>605.59997558594</ele>
        <time>2017-07-21T11:28:16Z</time>
      </trkpt>
      <trkpt lat="47.81424" lon="7.05804">
        <ele>606.59997558594</ele>
        <time>2017-07-21T11:28:22Z</time>
      </trkpt>
      <trkpt lat="47.81423" lon="7.05801">
        <ele>606.79998779297</ele>
        <time>2017-07-21T11:28:23Z</time>
      </trkpt>
      <trkpt lat="47.81418" lon="7.05787">
        <ele>607.59997558594</ele>
        <time>2017-07-21T11:28:29Z</time>
      </trkpt>
      <trkpt lat="47.81419" lon="7.05772">
        <ele>608.59997558594</ele>
        <time>2017-07-21T11:28:35Z</time>
      </trkpt>
      <trkpt lat="47.81419" lon="7.05769">
        <ele>608.79998779297</ele>
        <time>2017-07-21T11:28:36Z</time>
      </trkpt>
      <trkpt lat="47.8142" lon="7.0576">
        <ele>609.79998779297</ele>
        <time>2017-07-21T11:28:40Z</time>
      </trkpt>
      <trkpt lat="47.8142" lon="7.05751">
        <ele>610.59997558594</ele>
        <time>2017-07-21T11:28:44Z</time>
      </trkpt>
      <trkpt lat="47.81421" lon="7.05747">
        <ele>611</ele>
        <time>2017-07-21T11:28:46Z</time>
      </trkpt>
      <trkpt lat="47.81422" lon="7.05736">
        <ele>612</ele>
        <time>2017-07-21T11:28:51Z</time>
      </trkpt>
      <trkpt lat="47.81422" lon="7.05733">
        <ele>612.20001220703</ele>
        <time>2017-07-21T11:28:52Z</time>
      </trkpt>
      <trkpt lat="47.81424" lon="7.05722">
        <ele>613</ele>
        <time>2017-07-21T11:28:57Z</time>
      </trkpt>
      <trkpt lat="47.81427" lon="7.0571">
        <ele>614</ele>
        <time>2017-07-21T11:29:02Z</time>
      </trkpt>
      <trkpt lat="47.81428" lon="7.05703">
        <ele>614.79998779297</ele>
        <time>2017-07-21T11:29:06Z</time>
      </trkpt>
      <trkpt lat="47.81436" lon="7.05661">
        <ele>618.40002441406</ele>
        <time>2017-07-21T11:29:52Z</time>
      </trkpt>
      <trkpt lat="47.81438" lon="7.05654">
        <ele>619</ele>
        <time>2017-07-21T11:29:55Z</time>
      </trkpt>
      <trkpt lat="47.8144" lon="7.05647">
        <ele>619.40002441406</ele>
        <time>2017-07-21T11:29:58Z</time>
      </trkpt>
      <trkpt lat="47.81443" lon="7.05638">
        <ele>620.40002441406</ele>
        <time>2017-07-21T11:30:03Z</time>
      </trkpt>
      <trkpt lat="47.81444" lon="7.05636">
        <ele>620.59997558594</ele>
        <time>2017-07-21T11:30:04Z</time>
      </trkpt>
      <trkpt lat="47.81451" lon="7.05623">
        <ele>621.59997558594</ele>
        <time>2017-07-21T11:30:10Z</time>
      </trkpt>
      <trkpt lat="47.81452" lon="7.05621">
        <ele>621.79998779297</ele>
        <time>2017-07-21T11:30:11Z</time>
      </trkpt>
      <trkpt lat="47.81456" lon="7.05615">
        <ele>622.79998779297</ele>
        <time>2017-07-21T11:30:15Z</time>
      </trkpt>
      <trkpt lat="47.81458" lon="7.05609">
        <ele>623.20001220703</ele>
        <time>2017-07-21T11:30:18Z</time>
      </trkpt>
      <trkpt lat="47.81462" lon="7.05599">
        <ele>624</ele>
        <time>2017-07-21T11:30:23Z</time>
      </trkpt>
      <trkpt lat="47.81465" lon="7.05593">
        <ele>624.40002441406</ele>
        <time>2017-07-21T11:30:26Z</time>
      </trkpt>
      <trkpt lat="47.81469" lon="7.05583">
        <ele>625</ele>
        <time>2017-07-21T11:30:31Z</time>
      </trkpt>
      <trkpt lat="47.81473" lon="7.05576">
        <ele>625.59997558594</ele>
        <time>2017-07-21T11:30:35Z</time>
      </trkpt>
      <trkpt lat="47.81476" lon="7.05571">
        <ele>626.20001220703</ele>
        <time>2017-07-21T11:30:38Z</time>
      </trkpt>
      <trkpt lat="47.8148" lon="7.05563">
        <ele>627</ele>
        <time>2017-07-21T11:30:43Z</time>
      </trkpt>
      <trkpt lat="47.81481" lon="7.05561">
        <ele>627.20001220703</ele>
        <time>2017-07-21T11:30:44Z</time>
      </trkpt>
      <trkpt lat="47.81486" lon="7.05549">
        <ele>628.40002441406</ele>
        <time>2017-07-21T11:30:51Z</time>
      </trkpt>
      <trkpt lat="47.81492" lon="7.05534">
        <ele>629.40002441406</ele>
        <time>2017-07-21T11:30:58Z</time>
      </trkpt>
      <trkpt lat="47.81492" lon="7.05532">
        <ele>629.59997558594</ele>
        <time>2017-07-21T11:30:59Z</time>
      </trkpt>
      <trkpt lat="47.81493" lon="7.05523">
        <ele>630.40002441406</ele>
        <time>2017-07-21T11:31:03Z</time>
      </trkpt>
      <trkpt lat="47.81491" lon="7.05512">
        <ele>631.40002441406</ele>
        <time>2017-07-21T11:31:08Z</time>
      </trkpt>
      <trkpt lat="47.8149" lon="7.05509">
        <ele>631.59997558594</ele>
        <time>2017-07-21T11:31:09Z</time>
      </trkpt>
      <trkpt lat="47.81488" lon="7.05507">
        <ele>631.79998779297</ele>
        <time>2017-07-21T11:31:10Z</time>
      </trkpt>
      <trkpt lat="47.81482" lon="7.05501">
        <ele>632.20001220703</ele>
        <time>2017-07-21T11:31:13Z</time>
      </trkpt>
      <trkpt lat="47.81477" lon="7.05498">
        <ele>632.59997558594</ele>
        <time>2017-07-21T11:31:15Z</time>
      </trkpt>
      <trkpt lat="47.81475" lon="7.05496">
        <ele>632.79998779297</ele>
        <time>2017-07-21T11:31:16Z</time>
      </trkpt>
      <trkpt lat="47.81466" lon="7.05489">
        <ele>633.59997558594</ele>
        <time>2017-07-21T11:31:21Z</time>
      </trkpt>
      <trkpt lat="47.81464" lon="7.05488">
        <ele>633.59997558594</ele>
        <time>2017-07-21T11:31:22Z</time>
      </trkpt>
      <trkpt lat="47.81452" lon="7.05482">
        <ele>634.79998779297</ele>
        <time>2017-07-21T11:31:28Z</time>
      </trkpt>
      <trkpt lat="47.81448" lon="7.05479">
        <ele>635</ele>
        <time>2017-07-21T11:31:30Z</time>
      </trkpt>
      <trkpt lat="47.81437" lon="7.0547">
        <ele>635.79998779297</ele>
        <time>2017-07-21T11:31:36Z</time>
      </trkpt>
      <trkpt lat="47.81436" lon="7.05469">
        <ele>635.79998779297</ele>
        <time>2017-07-21T11:31:37Z</time>
      </trkpt>
      <trkpt lat="47.81426" lon="7.05459">
        <ele>636.79998779297</ele>
        <time>2017-07-21T11:31:43Z</time>
      </trkpt>
      <trkpt lat="47.81424" lon="7.05458">
        <ele>637</ele>
        <time>2017-07-21T11:31:44Z</time>
      </trkpt>
      <trkpt lat="47.81413" lon="7.05448">
        <ele>638</ele>
        <time>2017-07-21T11:31:50Z</time>
      </trkpt>
      <trkpt lat="47.81409" lon="7.05444">
        <ele>638.40002441406</ele>
        <time>2017-07-21T11:31:52Z</time>
      </trkpt>
      <trkpt lat="47.81403" lon="7.05437">
        <ele>639</ele>
        <time>2017-07-21T11:31:56Z</time>
      </trkpt>
      <trkpt lat="47.81392" lon="7.05424">
        <ele>640</ele>
        <time>2017-07-21T11:32:02Z</time>
      </trkpt>
      <trkpt lat="47.8139" lon="7.05422">
        <ele>640.20001220703</ele>
        <time>2017-07-21T11:32:03Z</time>
      </trkpt>
      <trkpt lat="47.8138" lon="7.05406">
        <ele>641.20001220703</ele>
        <time>2017-07-21T11:32:10Z</time>
      </trkpt>
      <trkpt lat="47.81378" lon="7.05401">
        <ele>641.40002441406</ele>
        <time>2017-07-21T11:32:12Z</time>
      </trkpt>
      <trkpt lat="47.81373" lon="7.05389">
        <ele>642</ele>
        <time>2017-07-21T11:32:17Z</time>
      </trkpt>
      <trkpt lat="47.81371" lon="7.05384">
        <ele>642.20001220703</ele>
        <time>2017-07-21T11:32:19Z</time>
      </trkpt>
      <trkpt lat="47.81368" lon="7.05378">
        <ele>642.59997558594</ele>
        <time>2017-07-21T11:32:22Z</time>
      </trkpt>
      <trkpt lat="47.81364" lon="7.05365">
        <ele>643.20001220703</ele>
        <time>2017-07-21T11:32:26Z</time>
      </trkpt>
      <trkpt lat="47.81363" lon="7.05358">
        <ele>643.59997558594</ele>
        <time>2017-07-21T11:32:28Z</time>
      </trkpt>
      <trkpt lat="47.81357" lon="7.05342">
        <ele>644.20001220703</ele>
        <time>2017-07-21T11:32:33Z</time>
      </trkpt>
      <trkpt lat="47.81356" lon="7.05338">
        <ele>644.40002441406</ele>
        <time>2017-07-21T11:32:34Z</time>
      </trkpt>
      <trkpt lat="47.81356" lon="7.05319">
        <ele>645.20001220703</ele>
        <time>2017-07-21T11:32:39Z</time>
      </trkpt>
      <trkpt lat="47.81355" lon="7.05312">
        <ele>645.40002441406</ele>
        <time>2017-07-21T11:32:41Z</time>
      </trkpt>
      <trkpt lat="47.81352" lon="7.05291">
        <ele>646.20001220703</ele>
        <time>2017-07-21T11:32:47Z</time>
      </trkpt>
      <trkpt lat="47.81351" lon="7.05282">
        <ele>646.59997558594</ele>
        <time>2017-07-21T11:32:50Z</time>
      </trkpt>
      <trkpt lat="47.81348" lon="7.05272">
        <ele>646.79998779297</ele>
        <time>2017-07-21T11:32:53Z</time>
      </trkpt>
      <trkpt lat="47.81343" lon="7.05252">
        <ele>647.59997558594</ele>
        <time>2017-07-21T11:32:59Z</time>
      </trkpt>
      <trkpt lat="47.81343" lon="7.05248">
        <ele>647.79998779297</ele>
        <time>2017-07-21T11:33:00Z</time>
      </trkpt>
      <trkpt lat="47.81337" lon="7.05226">
        <ele>648.59997558594</ele>
        <time>2017-07-21T11:33:07Z</time>
      </trkpt>
      <trkpt lat="47.81336" lon="7.05223">
        <ele>648.79998779297</ele>
        <time>2017-07-21T11:33:08Z</time>
      </trkpt>
      <trkpt lat="47.81331" lon="7.05202">
        <ele>649.79998779297</ele>
        <time>2017-07-21T11:33:14Z</time>
      </trkpt>
      <trkpt lat="47.81329" lon="7.05198">
        <ele>649.79998779297</ele>
        <time>2017-07-21T11:33:15Z</time>
      </trkpt>
      <trkpt lat="47.81322" lon="7.05175">
        <ele>650.79998779297</ele>
        <time>2017-07-21T11:33:22Z</time>
      </trkpt>
      <trkpt lat="47.81313" lon="7.05155">
        <ele>651.79998779297</ele>
        <time>2017-07-21T11:33:28Z</time>
      </trkpt>
      <trkpt lat="47.81305" lon="7.05138">
        <ele>653</ele>
        <time>2017-07-21T11:33:34Z</time>
      </trkpt>
      <trkpt lat="47.81304" lon="7.05135">
        <ele>653</ele>
        <time>2017-07-21T11:33:35Z</time>
      </trkpt>
      <trkpt lat="47.81298" lon="7.0512">
        <ele>654</ele>
        <time>2017-07-21T11:33:40Z</time>
      </trkpt>
      <trkpt lat="47.81296" lon="7.05117">
        <ele>654.20001220703</ele>
        <time>2017-07-21T11:33:41Z</time>
      </trkpt>
      <trkpt lat="47.81288" lon="7.051">
        <ele>655</ele>
        <time>2017-07-21T11:33:47Z</time>
      </trkpt>
      <trkpt lat="47.81286" lon="7.05098">
        <ele>655.20001220703</ele>
        <time>2017-07-21T11:33:48Z</time>
      </trkpt>
      <trkpt lat="47.81278" lon="7.05079">
        <ele>655.79998779297</ele>
        <time>2017-07-21T11:33:54Z</time>
      </trkpt>
      <trkpt lat="47.81272" lon="7.05071">
        <ele>656</ele>
        <time>2017-07-21T11:33:57Z</time>
      </trkpt>
      <trkpt lat="47.81266" lon="7.05063">
        <ele>656.20001220703</ele>
        <time>2017-07-21T11:34:00Z</time>
      </trkpt>
      <trkpt lat="47.81254" lon="7.05047">
        <ele>657</ele>
        <time>2017-07-21T11:34:07Z</time>
      </trkpt>
      <trkpt lat="47.81242" lon="7.05034">
        <ele>657.59997558594</ele>
        <time>2017-07-21T11:34:13Z</time>
      </trkpt>
      <trkpt lat="47.81238" lon="7.05026">
        <ele>658.20001220703</ele>
        <time>2017-07-21T11:34:16Z</time>
      </trkpt>
      <trkpt lat="47.81231" lon="7.05019">
        <ele>658.59997558594</ele>
        <time>2017-07-21T11:34:20Z</time>
      </trkpt>
      <trkpt lat="47.81224" lon="7.05011">
        <ele>659.20001220703</ele>
        <time>2017-07-21T11:34:24Z</time>
      </trkpt>
      <trkpt lat="47.8122" lon="7.05005">
        <ele>659.79998779297</ele>
        <time>2017-07-21T11:34:27Z</time>
      </trkpt>
      <trkpt lat="47.81215" lon="7.04997">
        <ele>660.40002441406</ele>
        <time>2017-07-21T11:34:31Z</time>
      </trkpt>
      <trkpt lat="47.81212" lon="7.04993">
        <ele>660.59997558594</ele>
        <time>2017-07-21T11:34:33Z</time>
      </trkpt>
      <trkpt lat="47.81205" lon="7.04984">
        <ele>661.40002441406</ele>
        <time>2017-07-21T11:34:38Z</time>
      </trkpt>
      <trkpt lat="47.81202" lon="7.04979">
        <ele>661.79998779297</ele>
        <time>2017-07-21T11:34:41Z</time>
      </trkpt>
      <trkpt lat="47.81198" lon="7.04972">
        <ele>662.40002441406</ele>
        <time>2017-07-21T11:34:44Z</time>
      </trkpt>
      <trkpt lat="47.81193" lon="7.04966">
        <ele>663</ele>
        <time>2017-07-21T11:34:48Z</time>
      </trkpt>
      <trkpt lat="47.81189" lon="7.04958">
        <ele>663.59997558594</ele>
        <time>2017-07-21T11:34:52Z</time>
      </trkpt>
      <trkpt lat="47.81185" lon="7.04952">
        <ele>664</ele>
        <time>2017-07-21T11:34:55Z</time>
      </trkpt>
      <trkpt lat="47.81179" lon="7.04942">
        <ele>664.59997558594</ele>
        <time>2017-07-21T11:35:00Z</time>
      </trkpt>
      <trkpt lat="47.81175" lon="7.04932">
        <ele>665.40002441406</ele>
        <time>2017-07-21T11:35:05Z</time>
      </trkpt>
      <trkpt lat="47.81173" lon="7.04928">
        <ele>665.59997558594</ele>
        <time>2017-07-21T11:35:07Z</time>
      </trkpt>
      <trkpt lat="47.81168" lon="7.04923">
        <ele>666</ele>
        <time>2017-07-21T11:35:10Z</time>
      </trkpt>
      <trkpt lat="47.81162" lon="7.04917">
        <ele>666.79998779297</ele>
        <time>2017-07-21T11:35:14Z</time>
      </trkpt>
      <trkpt lat="47.81158" lon="7.04911">
        <ele>667.40002441406</ele>
        <time>2017-07-21T11:35:17Z</time>
      </trkpt>
      <trkpt lat="47.81153" lon="7.04906">
        <ele>667.79998779297</ele>
        <time>2017-07-21T11:35:20Z</time>
      </trkpt>
      <trkpt lat="47.81146" lon="7.04896">
        <ele>668.79998779297</ele>
        <time>2017-07-21T11:35:25Z</time>
      </trkpt>
      <trkpt lat="47.81145" lon="7.04894">
        <ele>669.20001220703</ele>
        <time>2017-07-21T11:35:26Z</time>
      </trkpt>
      <trkpt lat="47.81137" lon="7.04885">
        <ele>670.20001220703</ele>
        <time>2017-07-21T11:35:32Z</time>
      </trkpt>
      <trkpt lat="47.81135" lon="7.04883">
        <ele>670.40002441406</ele>
        <time>2017-07-21T11:35:33Z</time>
      </trkpt>
      <trkpt lat="47.81128" lon="7.04874">
        <ele>671.40002441406</ele>
        <time>2017-07-21T11:35:39Z</time>
      </trkpt>
      <trkpt lat="47.81127" lon="7.04872">
        <ele>671.40002441406</ele>
        <time>2017-07-21T11:35:40Z</time>
      </trkpt>
      <trkpt lat="47.81119" lon="7.04865">
        <ele>672.40002441406</ele>
        <time>2017-07-21T11:35:46Z</time>
      </trkpt>
      <trkpt lat="47.81116" lon="7.04862">
        <ele>673</ele>
        <time>2017-07-21T11:35:49Z</time>
      </trkpt>
      <trkpt lat="47.81113" lon="7.04859">
        <ele>673.59997558594</ele>
        <time>2017-07-21T11:35:51Z</time>
      </trkpt>
      <trkpt lat="47.81108" lon="7.04851">
        <ele>674.59997558594</ele>
        <time>2017-07-21T11:35:56Z</time>
      </trkpt>
      <trkpt lat="47.81107" lon="7.04849">
        <ele>674.79998779297</ele>
        <time>2017-07-21T11:35:57Z</time>
      </trkpt>
      <trkpt lat="47.811" lon="7.04844">
        <ele>675.79998779297</ele>
        <time>2017-07-21T11:36:02Z</time>
      </trkpt>
      <trkpt lat="47.81097" lon="7.04839">
        <ele>676.20001220703</ele>
        <time>2017-07-21T11:36:05Z</time>
      </trkpt>
      <trkpt lat="47.81092" lon="7.04833">
        <ele>676.79998779297</ele>
        <time>2017-07-21T11:36:09Z</time>
      </trkpt>
      <trkpt lat="47.8109" lon="7.0483">
        <ele>677.20001220703</ele>
        <time>2017-07-21T11:36:11Z</time>
      </trkpt>
      <trkpt lat="47.81088" lon="7.04828">
        <ele>677.40002441406</ele>
        <time>2017-07-21T11:36:13Z</time>
      </trkpt>
      <trkpt lat="47.81085" lon="7.04826">
        <ele>677.79998779297</ele>
        <time>2017-07-21T11:36:15Z</time>
      </trkpt>
      <trkpt lat="47.81079" lon="7.04822">
        <ele>678.59997558594</ele>
        <time>2017-07-21T11:36:20Z</time>
      </trkpt>
      <trkpt lat="47.81076" lon="7.0482">
        <ele>679</ele>
        <time>2017-07-21T11:36:22Z</time>
      </trkpt>
      <trkpt lat="47.81052" lon="7.0482">
        <ele>682.59997558594</ele>
        <time>2017-07-21T11:36:43Z</time>
      </trkpt>
      <trkpt lat="47.81044" lon="7.04823">
        <ele>683.59997558594</ele>
        <time>2017-07-21T11:36:50Z</time>
      </trkpt>
      <trkpt lat="47.81041" lon="7.04824">
        <ele>684</ele>
        <time>2017-07-21T11:36:52Z</time>
      </trkpt>
      <trkpt lat="47.81033" lon="7.04826">
        <ele>684.79998779297</ele>
        <time>2017-07-21T11:36:57Z</time>
      </trkpt>
      <trkpt lat="47.81027" lon="7.04827">
        <ele>685.59997558594</ele>
        <time>2017-07-21T11:37:01Z</time>
      </trkpt>
      <trkpt lat="47.81025" lon="7.04827">
        <ele>686</ele>
        <time>2017-07-21T11:37:02Z</time>
      </trkpt>
      <trkpt lat="47.81019" lon="7.04826">
        <ele>686.40002441406</ele>
        <time>2017-07-21T11:37:05Z</time>
      </trkpt>
      <trkpt lat="47.81014" lon="7.04827">
        <ele>687</ele>
        <time>2017-07-21T11:37:09Z</time>
      </trkpt>
      <trkpt lat="47.81012" lon="7.04829">
        <ele>687.40002441406</ele>
        <time>2017-07-21T11:37:11Z</time>
      </trkpt>
      <trkpt lat="47.80968" lon="7.04749">
        <ele>696.40002441406</ele>
        <time>2017-07-21T11:38:00Z</time>
      </trkpt>
      <trkpt lat="47.80966" lon="7.04742">
        <ele>697</ele>
        <time>2017-07-21T11:38:03Z</time>
      </trkpt>
      <trkpt lat="47.80966" lon="7.04735">
        <ele>697.40002441406</ele>
        <time>2017-07-21T11:38:06Z</time>
      </trkpt>
      <trkpt lat="47.80961" lon="7.04726">
        <ele>697.79998779297</ele>
        <time>2017-07-21T11:38:10Z</time>
      </trkpt>
      <trkpt lat="47.80955" lon="7.04716">
        <ele>698.59997558594</ele>
        <time>2017-07-21T11:38:14Z</time>
      </trkpt>
      <trkpt lat="47.80953" lon="7.0471">
        <ele>699</ele>
        <time>2017-07-21T11:38:16Z</time>
      </trkpt>
      <trkpt lat="47.80952" lon="7.04708">
        <ele>699.20001220703</ele>
        <time>2017-07-21T11:38:17Z</time>
      </trkpt>
      <trkpt lat="47.80946" lon="7.047">
        <ele>699.79998779297</ele>
        <time>2017-07-21T11:38:21Z</time>
      </trkpt>
      <trkpt lat="47.80941" lon="7.04695">
        <ele>700.40002441406</ele>
        <time>2017-07-21T11:38:24Z</time>
      </trkpt>
      <trkpt lat="47.80937" lon="7.0469">
        <ele>701</ele>
        <time>2017-07-21T11:38:27Z</time>
      </trkpt>
      <trkpt lat="47.80931" lon="7.04678">
        <ele>702</ele>
        <time>2017-07-21T11:38:33Z</time>
      </trkpt>
      <trkpt lat="47.80925" lon="7.0467">
        <ele>703.20001220703</ele>
        <time>2017-07-21T11:38:38Z</time>
      </trkpt>
      <trkpt lat="47.80921" lon="7.04664">
        <ele>703.79998779297</ele>
        <time>2017-07-21T11:38:42Z</time>
      </trkpt>
      <trkpt lat="47.80918" lon="7.04662">
        <ele>704.20001220703</ele>
        <time>2017-07-21T11:38:44Z</time>
      </trkpt>
      <trkpt lat="47.8091" lon="7.04652">
        <ele>705.20001220703</ele>
        <time>2017-07-21T11:38:50Z</time>
      </trkpt>
      <trkpt lat="47.809" lon="7.04644">
        <ele>706.40002441406</ele>
        <time>2017-07-21T11:38:57Z</time>
      </trkpt>
      <trkpt lat="47.80894" lon="7.04638">
        <ele>707.40002441406</ele>
        <time>2017-07-21T11:39:02Z</time>
      </trkpt>
      <trkpt lat="47.80891" lon="7.04637">
        <ele>707.59997558594</ele>
        <time>2017-07-21T11:39:04Z</time>
      </trkpt>
      <trkpt lat="47.80883" lon="7.0463">
        <ele>708.59997558594</ele>
        <time>2017-07-21T11:39:09Z</time>
      </trkpt>
      <trkpt lat="47.80878" lon="7.04624">
        <ele>709.20001220703</ele>
        <time>2017-07-21T11:39:13Z</time>
      </trkpt>
      <trkpt lat="47.80874" lon="7.04619">
        <ele>709.59997558594</ele>
        <time>2017-07-21T11:39:16Z</time>
      </trkpt>
      <trkpt lat="47.80867" lon="7.04611">
        <ele>710.59997558594</ele>
        <time>2017-07-21T11:39:21Z</time>
      </trkpt>
      <trkpt lat="47.80865" lon="7.04608">
        <ele>710.79998779297</ele>
        <time>2017-07-21T11:39:23Z</time>
      </trkpt>
      <trkpt lat="47.80859" lon="7.04602">
        <ele>711.79998779297</ele>
        <time>2017-07-21T11:39:27Z</time>
      </trkpt>
      <trkpt lat="47.80858" lon="7.04601">
        <ele>712</ele>
        <time>2017-07-21T11:39:28Z</time>
      </trkpt>
      <trkpt lat="47.80849" lon="7.04593">
        <ele>713</ele>
        <time>2017-07-21T11:39:34Z</time>
      </trkpt>
      <trkpt lat="47.80847" lon="7.04593">
        <ele>713.20001220703</ele>
        <time>2017-07-21T11:39:35Z</time>
      </trkpt>
      <trkpt lat="47.80837" lon="7.04589">
        <ele>714</ele>
        <time>2017-07-21T11:39:41Z</time>
      </trkpt>
      <trkpt lat="47.80831" lon="7.04587">
        <ele>714.40002441406</ele>
        <time>2017-07-21T11:39:44Z</time>
      </trkpt>
      <trkpt lat="47.8082" lon="7.04588">
        <ele>714.79998779297</ele>
        <time>2017-07-21T11:39:49Z</time>
      </trkpt>
      <trkpt lat="47.80818" lon="7.04588">
        <ele>715</ele>
        <time>2017-07-21T11:39:50Z</time>
      </trkpt>
      <trkpt lat="47.80815" lon="7.04587">
        <ele>715.20001220703</ele>
        <time>2017-07-21T11:39:51Z</time>
      </trkpt>
      <trkpt lat="47.80806" lon="7.04583">
        <ele>715.59997558594</ele>
        <time>2017-07-21T11:39:55Z</time>
      </trkpt>
      <trkpt lat="47.80793" lon="7.04577">
        <ele>716</ele>
        <time>2017-07-21T11:40:00Z</time>
      </trkpt>
      <trkpt lat="47.80789" lon="7.04574">
        <ele>716.20001220703</ele>
        <time>2017-07-21T11:40:02Z</time>
      </trkpt>
      <trkpt lat="47.80786" lon="7.04569">
        <ele>716.40002441406</ele>
        <time>2017-07-21T11:40:05Z</time>
      </trkpt>
      <trkpt lat="47.80782" lon="7.04557">
        <ele>717.20001220703</ele>
        <time>2017-07-21T11:40:09Z</time>
      </trkpt>
      <trkpt lat="47.8078" lon="7.04552">
        <ele>717.40002441406</ele>
        <time>2017-07-21T11:40:10Z</time>
      </trkpt>
      <trkpt lat="47.80772" lon="7.04537">
        <ele>718.20001220703</ele>
        <time>2017-07-21T11:40:14Z</time>
      </trkpt>
      <trkpt lat="47.80769" lon="7.04529">
        <ele>718.59997558594</ele>
        <time>2017-07-21T11:40:16Z</time>
      </trkpt>
      <trkpt lat="47.80764" lon="7.0451">
        <ele>719.20001220703</ele>
        <time>2017-07-21T11:40:21Z</time>
      </trkpt>
      <trkpt lat="47.80763" lon="7.04507">
        <ele>719.40002441406</ele>
        <time>2017-07-21T11:40:22Z</time>
      </trkpt>
      <trkpt lat="47.80755" lon="7.04489">
        <ele>720.20001220703</ele>
        <time>2017-07-21T11:40:28Z</time>
      </trkpt>
      <trkpt lat="47.80751" lon="7.04482">
        <ele>720.40002441406</ele>
        <time>2017-07-21T11:40:30Z</time>
      </trkpt>
      <trkpt lat="47.80747" lon="7.0447">
        <ele>721</ele>
        <time>2017-07-21T11:40:34Z</time>
      </trkpt>
      <trkpt lat="47.80742" lon="7.04458">
        <ele>721.40002441406</ele>
        <time>2017-07-21T11:40:38Z</time>
      </trkpt>
      <trkpt lat="47.80737" lon="7.04446">
        <ele>722</ele>
        <time>2017-07-21T11:40:42Z</time>
      </trkpt>
      <trkpt lat="47.80729" lon="7.04424">
        <ele>722.59997558594</ele>
        <time>2017-07-21T11:40:48Z</time>
      </trkpt>
      <trkpt lat="47.80728" lon="7.0442">
        <ele>722.59997558594</ele>
        <time>2017-07-21T11:40:49Z</time>
      </trkpt>
      <trkpt lat="47.8072" lon="7.04405">
        <ele>723.20001220703</ele>
        <time>2017-07-21T11:40:54Z</time>
      </trkpt>
      <trkpt lat="47.80717" lon="7.04399">
        <ele>723.59997558594</ele>
        <time>2017-07-21T11:40:56Z</time>
      </trkpt>
      <trkpt lat="47.80711" lon="7.04383">
        <ele>724.20001220703</ele>
        <time>2017-07-21T11:41:01Z</time>
      </trkpt>
      <trkpt lat="47.80708" lon="7.04377">
        <ele>724.59997558594</ele>
        <time>2017-07-21T11:41:03Z</time>
      </trkpt>
      <trkpt lat="47.80701" lon="7.04365">
        <ele>725.20001220703</ele>
        <time>2017-07-21T11:41:07Z</time>
      </trkpt>
      <trkpt lat="47.80693" lon="7.04354">
        <ele>725.40002441406</ele>
        <time>2017-07-21T11:41:12Z</time>
      </trkpt>
      <trkpt lat="47.8069" lon="7.04348">
        <ele>725.79998779297</ele>
        <time>2017-07-21T11:41:14Z</time>
      </trkpt>
      <trkpt lat="47.80688" lon="7.0434">
        <ele>726.20001220703</ele>
        <time>2017-07-21T11:41:17Z</time>
      </trkpt>
      <trkpt lat="47.80678" lon="7.04319">
        <ele>726.79998779297</ele>
        <time>2017-07-21T11:41:23Z</time>
      </trkpt>
      <trkpt lat="47.80677" lon="7.04316">
        <ele>727</ele>
        <time>2017-07-21T11:41:24Z</time>
      </trkpt>
      <trkpt lat="47.80675" lon="7.04313">
        <ele>727</ele>
        <time>2017-07-21T11:41:25Z</time>
      </trkpt>
      <trkpt lat="47.80669" lon="7.04303">
        <ele>727.79998779297</ele>
        <time>2017-07-21T11:41:29Z</time>
      </trkpt>
      <trkpt lat="47.80668" lon="7.043">
        <ele>728</ele>
        <time>2017-07-21T11:41:30Z</time>
      </trkpt>
      <trkpt lat="47.80659" lon="7.04284">
        <ele>728.40002441406</ele>
        <time>2017-07-21T11:41:36Z</time>
      </trkpt>
      <trkpt lat="47.80651" lon="7.04273">
        <ele>729</ele>
        <time>2017-07-21T11:41:40Z</time>
      </trkpt>
      <trkpt lat="47.80646" lon="7.04264">
        <ele>729.59997558594</ele>
        <time>2017-07-21T11:41:43Z</time>
      </trkpt>
      <trkpt lat="47.80644" lon="7.04259">
        <ele>730</ele>
        <time>2017-07-21T11:41:45Z</time>
      </trkpt>
      <trkpt lat="47.80636" lon="7.04249">
        <ele>730.59997558594</ele>
        <time>2017-07-21T11:41:49Z</time>
      </trkpt>
      <trkpt lat="47.80617" lon="7.04227">
        <ele>730.20001220703</ele>
        <time>2017-07-21T11:41:56Z</time>
      </trkpt>
      <trkpt lat="47.8061" lon="7.04216">
        <ele>730</ele>
        <time>2017-07-21T11:41:58Z</time>
      </trkpt>
      <trkpt lat="47.80599" lon="7.04194">
        <ele>729.20001220703</ele>
        <time>2017-07-21T11:42:01Z</time>
      </trkpt>
      <trkpt lat="47.80595" lon="7.04186">
        <ele>729</ele>
        <time>2017-07-21T11:42:02Z</time>
      </trkpt>
      <trkpt lat="47.80576" lon="7.0415">
        <ele>728</ele>
        <time>2017-07-21T11:42:06Z</time>
      </trkpt>
      <trkpt lat="47.80571" lon="7.0414">
        <ele>727.59997558594</ele>
        <time>2017-07-21T11:42:07Z</time>
      </trkpt>
      <trkpt lat="47.80562" lon="7.04118">
        <ele>726.40002441406</ele>
        <time>2017-07-21T11:42:09Z</time>
      </trkpt>
      <trkpt lat="47.80554" lon="7.04093">
        <ele>725.20001220703</ele>
        <time>2017-07-21T11:42:11Z</time>
      </trkpt>
      <trkpt lat="47.80539" lon="7.04055">
        <ele>724</ele>
        <time>2017-07-21T11:42:14Z</time>
      </trkpt>
      <trkpt lat="47.80535" lon="7.04042">
        <ele>722.79998779297</ele>
        <time>2017-07-21T11:42:15Z</time>
      </trkpt>
      <trkpt lat="47.80524" lon="7.04016">
        <ele>721.59997558594</ele>
        <time>2017-07-21T11:42:17Z</time>
      </trkpt>
      <trkpt lat="47.80511" lon="7.03993">
        <ele>720.20001220703</ele>
        <time>2017-07-21T11:42:19Z</time>
      </trkpt>
      <trkpt lat="47.80497" lon="7.0397">
        <ele>719</ele>
        <time>2017-07-21T11:42:21Z</time>
      </trkpt>
      <trkpt lat="47.80491" lon="7.03959">
        <ele>718.40002441406</ele>
        <time>2017-07-21T11:42:22Z</time>
      </trkpt>
      <trkpt lat="47.80485" lon="7.03951">
        <ele>717.79998779297</ele>
        <time>2017-07-21T11:42:23Z</time>
      </trkpt>
      <trkpt lat="47.8048" lon="7.03943">
        <ele>716.20001220703</ele>
        <time>2017-07-21T11:42:25Z</time>
      </trkpt>
      <trkpt lat="47.80479" lon="7.0394">
        <ele>714.40002441406</ele>
        <time>2017-07-21T11:42:27Z</time>
      </trkpt>
      <trkpt lat="47.8048" lon="7.0394">
        <ele>713.40002441406</ele>
        <time>2017-07-21T11:42:28Z</time>
      </trkpt>
      <trkpt lat="47.80477" lon="7.03937">
        <ele>711</ele>
        <time>2017-07-21T11:42:58Z</time>
      </trkpt>
      <trkpt lat="47.80475" lon="7.03935">
        <ele>711</ele>
        <time>2017-07-21T11:42:59Z</time>
      </trkpt>
      <trkpt lat="47.80463" lon="7.03916">
        <ele>710.79998779297</ele>
        <time>2017-07-21T11:43:03Z</time>
      </trkpt>
      <trkpt lat="47.80446" lon="7.03888">
        <ele>709.79998779297</ele>
        <time>2017-07-21T11:43:07Z</time>
      </trkpt>
      <trkpt lat="47.80442" lon="7.0388">
        <ele>709.40002441406</ele>
        <time>2017-07-21T11:43:08Z</time>
      </trkpt>
      <trkpt lat="47.80429" lon="7.0385">
        <ele>708.40002441406</ele>
        <time>2017-07-21T11:43:11Z</time>
      </trkpt>
      <trkpt lat="47.80422" lon="7.03826">
        <ele>707.59997558594</ele>
        <time>2017-07-21T11:43:13Z</time>
      </trkpt>
      <trkpt lat="47.80419" lon="7.03812">
        <ele>707.20001220703</ele>
        <time>2017-07-21T11:43:14Z</time>
      </trkpt>
      <trkpt lat="47.80416" lon="7.03784">
        <ele>706.20001220703</ele>
        <time>2017-07-21T11:43:16Z</time>
      </trkpt>
      <trkpt lat="47.80417" lon="7.03768">
        <ele>705.79998779297</ele>
        <time>2017-07-21T11:43:17Z</time>
      </trkpt>
      <trkpt lat="47.80418" lon="7.03739">
        <ele>704.79998779297</ele>
        <time>2017-07-21T11:43:19Z</time>
      </trkpt>
      <trkpt lat="47.80421" lon="7.03708">
        <ele>703.79998779297</ele>
        <time>2017-07-21T11:43:21Z</time>
      </trkpt>
      <trkpt lat="47.80424" lon="7.03693">
        <ele>703.20001220703</ele>
        <time>2017-07-21T11:43:22Z</time>
      </trkpt>
      <trkpt lat="47.80434" lon="7.03668">
        <ele>702</ele>
        <time>2017-07-21T11:43:24Z</time>
      </trkpt>
      <trkpt lat="47.80439" lon="7.03658">
        <ele>701.40002441406</ele>
        <time>2017-07-21T11:43:25Z</time>
      </trkpt>
      <trkpt lat="47.80444" lon="7.03649">
        <ele>700.59997558594</ele>
        <time>2017-07-21T11:43:26Z</time>
      </trkpt>
      <trkpt lat="47.80452" lon="7.03644">
        <ele>699.40002441406</ele>
        <time>2017-07-21T11:43:27Z</time>
      </trkpt>
      <trkpt lat="47.8046" lon="7.03638">
        <ele>698.79998779297</ele>
        <time>2017-07-21T11:43:28Z</time>
      </trkpt>
      <trkpt lat="47.80475" lon="7.03622">
        <ele>698</ele>
        <time>2017-07-21T11:43:30Z</time>
      </trkpt>
      <trkpt lat="47.80496" lon="7.03597">
        <ele>696.59997558594</ele>
        <time>2017-07-21T11:43:33Z</time>
      </trkpt>
      <trkpt lat="47.80499" lon="7.03586">
        <ele>696</ele>
        <time>2017-07-21T11:43:34Z</time>
      </trkpt>
      <trkpt lat="47.80502" lon="7.03573">
        <ele>695.59997558594</ele>
        <time>2017-07-21T11:43:35Z</time>
      </trkpt>
      <trkpt lat="47.80505" lon="7.03548">
        <ele>694.40002441406</ele>
        <time>2017-07-21T11:43:37Z</time>
      </trkpt>
      <trkpt lat="47.80501" lon="7.0353">
        <ele>693.20001220703</ele>
        <time>2017-07-21T11:43:39Z</time>
      </trkpt>
      <trkpt lat="47.80495" lon="7.03527">
        <ele>692.59997558594</ele>
        <time>2017-07-21T11:43:40Z</time>
      </trkpt>
      <trkpt lat="47.80489" lon="7.03531">
        <ele>692</ele>
        <time>2017-07-21T11:43:41Z</time>
      </trkpt>
      <trkpt lat="47.80485" lon="7.0354">
        <ele>691.59997558594</ele>
        <time>2017-07-21T11:43:42Z</time>
      </trkpt>
      <trkpt lat="47.80483" lon="7.03551">
        <ele>691</ele>
        <time>2017-07-21T11:43:43Z</time>
      </trkpt>
      <trkpt lat="47.80484" lon="7.03561">
        <ele>690.40002441406</ele>
        <time>2017-07-21T11:43:44Z</time>
      </trkpt>
      <trkpt lat="47.80484" lon="7.03582">
        <ele>689.79998779297</ele>
        <time>2017-07-21T11:43:46Z</time>
      </trkpt>
      <trkpt lat="47.80484" lon="7.03593">
        <ele>689.59997558594</ele>
        <time>2017-07-21T11:43:47Z</time>
      </trkpt>
      <trkpt lat="47.80481" lon="7.03604">
        <ele>689.40002441406</ele>
        <time>2017-07-21T11:43:48Z</time>
      </trkpt>
      <trkpt lat="47.80472" lon="7.03624">
        <ele>688.59997558594</ele>
        <time>2017-07-21T11:43:50Z</time>
      </trkpt>
      <trkpt lat="47.80467" lon="7.03631">
        <ele>688</ele>
        <time>2017-07-21T11:43:51Z</time>
      </trkpt>
      <trkpt lat="47.8046" lon="7.03639">
        <ele>687.59997558594</ele>
        <time>2017-07-21T11:43:52Z</time>
      </trkpt>
      <trkpt lat="47.8044" lon="7.03653">
        <ele>686.59997558594</ele>
        <time>2017-07-21T11:43:55Z</time>
      </trkpt>
      <trkpt lat="47.80426" lon="7.03659">
        <ele>686</ele>
        <time>2017-07-21T11:43:57Z</time>
      </trkpt>
      <trkpt lat="47.80404" lon="7.0367">
        <ele>685.79998779297</ele>
        <time>2017-07-21T11:44:00Z</time>
      </trkpt>
      <trkpt lat="47.80399" lon="7.03679">
        <ele>685.59997558594</ele>
        <time>2017-07-21T11:44:01Z</time>
      </trkpt>
      <trkpt lat="47.80395" lon="7.0369">
        <ele>685.40002441406</ele>
        <time>2017-07-21T11:44:02Z</time>
      </trkpt>
      <trkpt lat="47.80383" lon="7.03734">
        <ele>684.40002441406</ele>
        <time>2017-07-21T11:44:06Z</time>
      </trkpt>
      <trkpt lat="47.80379" lon="7.03747">
        <ele>683.79998779297</ele>
        <time>2017-07-21T11:44:07Z</time>
      </trkpt>
      <trkpt lat="47.80372" lon="7.03772">
        <ele>682.79998779297</ele>
        <time>2017-07-21T11:44:09Z</time>
      </trkpt>
      <trkpt lat="47.80366" lon="7.03802">
        <ele>681.79998779297</ele>
        <time>2017-07-21T11:44:11Z</time>
      </trkpt>
      <trkpt lat="47.80366" lon="7.03818">
        <ele>681</ele>
        <time>2017-07-21T11:44:12Z</time>
      </trkpt>
      <trkpt lat="47.80368" lon="7.03835">
        <ele>680.40002441406</ele>
        <time>2017-07-21T11:44:13Z</time>
      </trkpt>
      <trkpt lat="47.80373" lon="7.03868">
        <ele>678.40002441406</ele>
        <time>2017-07-21T11:44:15Z</time>
      </trkpt>
      <trkpt lat="47.8038" lon="7.03899">
        <ele>676.79998779297</ele>
        <time>2017-07-21T11:44:17Z</time>
      </trkpt>
      <trkpt lat="47.80384" lon="7.03914">
        <ele>676</ele>
        <time>2017-07-21T11:44:18Z</time>
      </trkpt>
      <trkpt lat="47.80389" lon="7.03928">
        <ele>675.20001220703</ele>
        <time>2017-07-21T11:44:19Z</time>
      </trkpt>
      <trkpt lat="47.80398" lon="7.03958">
        <ele>673.59997558594</ele>
        <time>2017-07-21T11:44:21Z</time>
      </trkpt>
      <trkpt lat="47.80404" lon="7.03988">
        <ele>672.40002441406</ele>
        <time>2017-07-21T11:44:23Z</time>
      </trkpt>
      <trkpt lat="47.8041" lon="7.04017">
        <ele>671.20001220703</ele>
        <time>2017-07-21T11:44:25Z</time>
      </trkpt>
      <trkpt lat="47.80414" lon="7.0403">
        <ele>670.59997558594</ele>
        <time>2017-07-21T11:44:26Z</time>
      </trkpt>
      <trkpt lat="47.80424" lon="7.04053">
        <ele>669.79998779297</ele>
        <time>2017-07-21T11:44:28Z</time>
      </trkpt>
      <trkpt lat="47.80426" lon="7.04065">
        <ele>669.40002441406</ele>
        <time>2017-07-21T11:44:29Z</time>
      </trkpt>
      <trkpt lat="47.80426" lon="7.04088">
        <ele>668.59997558594</ele>
        <time>2017-07-21T11:44:31Z</time>
      </trkpt>
      <trkpt lat="47.80424" lon="7.04092">
        <ele>667.59997558594</ele>
        <time>2017-07-21T11:44:33Z</time>
      </trkpt>
      <trkpt lat="47.80423" lon="7.04086">
        <ele>667.20001220703</ele>
        <time>2017-07-21T11:44:34Z</time>
      </trkpt>
      <trkpt lat="47.80422" lon="7.04077">
        <ele>666.79998779297</ele>
        <time>2017-07-21T11:44:35Z</time>
      </trkpt>
      <trkpt lat="47.80417" lon="7.04055">
        <ele>666.20001220703</ele>
        <time>2017-07-21T11:44:37Z</time>
      </trkpt>
      <trkpt lat="47.80414" lon="7.04043">
        <ele>666</ele>
        <time>2017-07-21T11:44:38Z</time>
      </trkpt>
      <trkpt lat="47.80404" lon="7.04016">
        <ele>664.79998779297</ele>
        <time>2017-07-21T11:44:40Z</time>
      </trkpt>
      <trkpt lat="47.80393" lon="7.03986">
        <ele>663.79998779297</ele>
        <time>2017-07-21T11:44:42Z</time>
      </trkpt>
      <trkpt lat="47.80388" lon="7.03972">
        <ele>663.40002441406</ele>
        <time>2017-07-21T11:44:43Z</time>
      </trkpt>
      <trkpt lat="47.80371" lon="7.03929">
        <ele>662</ele>
        <time>2017-07-21T11:44:46Z</time>
      </trkpt>
      <trkpt lat="47.8036" lon="7.03897">
        <ele>660.79998779297</ele>
        <time>2017-07-21T11:44:48Z</time>
      </trkpt>
      <trkpt lat="47.80348" lon="7.03866">
        <ele>659.20001220703</ele>
        <time>2017-07-21T11:44:50Z</time>
      </trkpt>
      <trkpt lat="47.80335" lon="7.03838">
        <ele>657.79998779297</ele>
        <time>2017-07-21T11:44:52Z</time>
      </trkpt>
      <trkpt lat="47.80327" lon="7.03826">
        <ele>657</ele>
        <time>2017-07-21T11:44:53Z</time>
      </trkpt>
      <trkpt lat="47.80314" lon="7.03814">
        <ele>656.20001220703</ele>
        <time>2017-07-21T11:44:54Z</time>
      </trkpt>
      <trkpt lat="47.80292" lon="7.038">
        <ele>654.40002441406</ele>
        <time>2017-07-21T11:44:56Z</time>
      </trkpt>
      <trkpt lat="47.80268" lon="7.0379">
        <ele>652.59997558594</ele>
        <time>2017-07-21T11:44:58Z</time>
      </trkpt>
      <trkpt lat="47.80256" lon="7.03795">
        <ele>651.79998779297</ele>
        <time>2017-07-21T11:44:59Z</time>
      </trkpt>
      <trkpt lat="47.80243" lon="7.03795">
        <ele>650.79998779297</ele>
        <time>2017-07-21T11:45:00Z</time>
      </trkpt>
      <trkpt lat="47.80218" lon="7.0378">
        <ele>648.79998779297</ele>
        <time>2017-07-21T11:45:02Z</time>
      </trkpt>
      <trkpt lat="47.80207" lon="7.0377">
        <ele>647</ele>
        <time>2017-07-21T11:45:03Z</time>
      </trkpt>
      <trkpt lat="47.80187" lon="7.03749">
        <ele>645.59997558594</ele>
        <time>2017-07-21T11:45:05Z</time>
      </trkpt>
      <trkpt lat="47.80171" lon="7.03723">
        <ele>644.40002441406</ele>
        <time>2017-07-21T11:45:07Z</time>
      </trkpt>
      <trkpt lat="47.80153" lon="7.03697">
        <ele>642.79998779297</ele>
        <time>2017-07-21T11:45:09Z</time>
      </trkpt>
      <trkpt lat="47.80137" lon="7.0367">
        <ele>640.79998779297</ele>
        <time>2017-07-21T11:45:11Z</time>
      </trkpt>
      <trkpt lat="47.8012" lon="7.0365">
        <ele>639.20001220703</ele>
        <time>2017-07-21T11:45:13Z</time>
      </trkpt>
      <trkpt lat="47.80115" lon="7.03641">
        <ele>638.20001220703</ele>
        <time>2017-07-21T11:45:14Z</time>
      </trkpt>
      <trkpt lat="47.80112" lon="7.0363">
        <ele>637.40002441406</ele>
        <time>2017-07-21T11:45:15Z</time>
      </trkpt>
      <trkpt lat="47.80112" lon="7.03618">
        <ele>636.40002441406</ele>
        <time>2017-07-21T11:45:16Z</time>
      </trkpt>
      <trkpt lat="47.80116" lon="7.03608">
        <ele>635.40002441406</ele>
        <time>2017-07-21T11:45:17Z</time>
      </trkpt>
      <trkpt lat="47.80119" lon="7.03599">
        <ele>634.40002441406</ele>
        <time>2017-07-21T11:45:18Z</time>
      </trkpt>
      <trkpt lat="47.80129" lon="7.03592">
        <ele>632.59997558594</ele>
        <time>2017-07-21T11:45:20Z</time>
      </trkpt>
      <trkpt lat="47.80136" lon="7.03591">
        <ele>632.20001220703</ele>
        <time>2017-07-21T11:45:21Z</time>
      </trkpt>
      <trkpt lat="47.80141" lon="7.03588">
        <ele>631.79998779297</ele>
        <time>2017-07-21T11:45:22Z</time>
      </trkpt>
      <trkpt lat="47.80148" lon="7.03585">
        <ele>631.40002441406</ele>
        <time>2017-07-21T11:45:23Z</time>
      </trkpt>
      <trkpt lat="47.80168" lon="7.03579">
        <ele>630.20001220703</ele>
        <time>2017-07-21T11:45:26Z</time>
      </trkpt>
      <trkpt lat="47.80175" lon="7.03577">
        <ele>629.20001220703</ele>
        <time>2017-07-21T11:45:27Z</time>
      </trkpt>
      <trkpt lat="47.80183" lon="7.03574">
        <ele>628.59997558594</ele>
        <time>2017-07-21T11:45:28Z</time>
      </trkpt>
      <trkpt lat="47.80191" lon="7.03566">
        <ele>628</ele>
        <time>2017-07-21T11:45:29Z</time>
      </trkpt>
      <trkpt lat="47.80199" lon="7.0356">
        <ele>627.59997558594</ele>
        <time>2017-07-21T11:45:30Z</time>
      </trkpt>
      <trkpt lat="47.8021" lon="7.03558">
        <ele>627</ele>
        <time>2017-07-21T11:45:31Z</time>
      </trkpt>
      <trkpt lat="47.8023" lon="7.03563">
        <ele>625.79998779297</ele>
        <time>2017-07-21T11:45:33Z</time>
      </trkpt>
      <trkpt lat="47.80248" lon="7.03571">
        <ele>625.20001220703</ele>
        <time>2017-07-21T11:45:35Z</time>
      </trkpt>
      <trkpt lat="47.80257" lon="7.03572">
        <ele>624.79998779297</ele>
        <time>2017-07-21T11:45:36Z</time>
      </trkpt>
      <trkpt lat="47.80265" lon="7.03571">
        <ele>624.40002441406</ele>
        <time>2017-07-21T11:45:37Z</time>
      </trkpt>
      <trkpt lat="47.80282" lon="7.03565">
        <ele>623.59997558594</ele>
        <time>2017-07-21T11:45:39Z</time>
      </trkpt>
      <trkpt lat="47.80301" lon="7.03555">
        <ele>622.79998779297</ele>
        <time>2017-07-21T11:45:41Z</time>
      </trkpt>
      <trkpt lat="47.80309" lon="7.03548">
        <ele>622.40002441406</ele>
        <time>2017-07-21T11:45:42Z</time>
      </trkpt>
      <trkpt lat="47.80324" lon="7.03533">
        <ele>621.40002441406</ele>
        <time>2017-07-21T11:45:44Z</time>
      </trkpt>
      <trkpt lat="47.80331" lon="7.03525">
        <ele>621</ele>
        <time>2017-07-21T11:45:45Z</time>
      </trkpt>
      <trkpt lat="47.80346" lon="7.03508">
        <ele>619.79998779297</ele>
        <time>2017-07-21T11:45:47Z</time>
      </trkpt>
      <trkpt lat="47.80361" lon="7.0349">
        <ele>618.40002441406</ele>
        <time>2017-07-21T11:45:49Z</time>
      </trkpt>
      <trkpt lat="47.80367" lon="7.03479">
        <ele>617</ele>
        <time>2017-07-21T11:45:51Z</time>
      </trkpt>
      <trkpt lat="47.8036" lon="7.03471">
        <ele>616.59997558594</ele>
        <time>2017-07-21T11:45:53Z</time>
      </trkpt>
      <trkpt lat="47.80353" lon="7.03471">
        <ele>616.40002441406</ele>
        <time>2017-07-21T11:45:54Z</time>
      </trkpt>
      <trkpt lat="47.80335" lon="7.03459">
        <ele>616</ele>
        <time>2017-07-21T11:45:56Z</time>
      </trkpt>
      <trkpt lat="47.80327" lon="7.03452">
        <ele>615.79998779297</ele>
        <time>2017-07-21T11:45:57Z</time>
      </trkpt>
      <trkpt lat="47.80302" lon="7.03438">
        <ele>614.79998779297</ele>
        <time>2017-07-21T11:45:59Z</time>
      </trkpt>
      <trkpt lat="47.80289" lon="7.03435">
        <ele>614.40002441406</ele>
        <time>2017-07-21T11:46:00Z</time>
      </trkpt>
      <trkpt lat="47.80277" lon="7.03433">
        <ele>613.79998779297</ele>
        <time>2017-07-21T11:46:01Z</time>
      </trkpt>
      <trkpt lat="47.80255" lon="7.03427">
        <ele>613</ele>
        <time>2017-07-21T11:46:03Z</time>
      </trkpt>
      <trkpt lat="47.80231" lon="7.03414">
        <ele>612.20001220703</ele>
        <time>2017-07-21T11:46:05Z</time>
      </trkpt>
      <trkpt lat="47.80221" lon="7.03406">
        <ele>611.79998779297</ele>
        <time>2017-07-21T11:46:06Z</time>
      </trkpt>
      <trkpt lat="47.80196" lon="7.03375">
        <ele>610.79998779297</ele>
        <time>2017-07-21T11:46:09Z</time>
      </trkpt>
      <trkpt lat="47.8019" lon="7.03364">
        <ele>610.40002441406</ele>
        <time>2017-07-21T11:46:10Z</time>
      </trkpt>
      <trkpt lat="47.80177" lon="7.03355">
        <ele>610</ele>
        <time>2017-07-21T11:46:11Z</time>
      </trkpt>
      <trkpt lat="47.80165" lon="7.03348">
        <ele>609.59997558594</ele>
        <time>2017-07-21T11:46:12Z</time>
      </trkpt>
      <trkpt lat="47.80153" lon="7.03343">
        <ele>609.20001220703</ele>
        <time>2017-07-21T11:46:13Z</time>
      </trkpt>
      <trkpt lat="47.80142" lon="7.03339">
        <ele>608.59997558594</ele>
        <time>2017-07-21T11:46:14Z</time>
      </trkpt>
      <trkpt lat="47.80133" lon="7.03336">
        <ele>607.40002441406</ele>
        <time>2017-07-21T11:46:15Z</time>
      </trkpt>
      <trkpt lat="47.80113" lon="7.03329">
        <ele>606.20001220703</ele>
        <time>2017-07-21T11:46:17Z</time>
      </trkpt>
      <trkpt lat="47.80102" lon="7.03325">
        <ele>605.59997558594</ele>
        <time>2017-07-21T11:46:18Z</time>
      </trkpt>
      <trkpt lat="47.80091" lon="7.03319">
        <ele>605</ele>
        <time>2017-07-21T11:46:19Z</time>
      </trkpt>
      <trkpt lat="47.80068" lon="7.03303">
        <ele>603.79998779297</ele>
        <time>2017-07-21T11:46:21Z</time>
      </trkpt>
      <trkpt lat="47.80045" lon="7.03286">
        <ele>602</ele>
        <time>2017-07-21T11:46:23Z</time>
      </trkpt>
      <trkpt lat="47.80033" lon="7.03275">
        <ele>601</ele>
        <time>2017-07-21T11:46:24Z</time>
      </trkpt>
      <trkpt lat="47.80014" lon="7.0325">
        <ele>599.20001220703</ele>
        <time>2017-07-21T11:46:26Z</time>
      </trkpt>
      <trkpt lat="47.79999" lon="7.03222">
        <ele>597.59997558594</ele>
        <time>2017-07-21T11:46:28Z</time>
      </trkpt>
      <trkpt lat="47.79983" lon="7.03191">
        <ele>595.79998779297</ele>
        <time>2017-07-21T11:46:30Z</time>
      </trkpt>
      <trkpt lat="47.79975" lon="7.03176">
        <ele>595</ele>
        <time>2017-07-21T11:46:31Z</time>
      </trkpt>
      <trkpt lat="47.79966" lon="7.03161">
        <ele>594.20001220703</ele>
        <time>2017-07-21T11:46:32Z</time>
      </trkpt>
      <trkpt lat="47.79959" lon="7.03145">
        <ele>593.20001220703</ele>
        <time>2017-07-21T11:46:33Z</time>
      </trkpt>
      <trkpt lat="47.79954" lon="7.03127">
        <ele>592.40002441406</ele>
        <time>2017-07-21T11:46:34Z</time>
      </trkpt>
      <trkpt lat="47.79946" lon="7.03093">
        <ele>591</ele>
        <time>2017-07-21T11:46:36Z</time>
      </trkpt>
      <trkpt lat="47.79944" lon="7.03076">
        <ele>590.20001220703</ele>
        <time>2017-07-21T11:46:37Z</time>
      </trkpt>
      <trkpt lat="47.79943" lon="7.03061">
        <ele>589.40002441406</ele>
        <time>2017-07-21T11:46:38Z</time>
      </trkpt>
      <trkpt lat="47.79951" lon="7.03048">
        <ele>587.79998779297</ele>
        <time>2017-07-21T11:46:39Z</time>
      </trkpt>
      <trkpt lat="47.79957" lon="7.03035">
        <ele>587.20001220703</ele>
        <time>2017-07-21T11:46:40Z</time>
      </trkpt>
      <trkpt lat="47.79963" lon="7.03023">
        <ele>586.59997558594</ele>
        <time>2017-07-21T11:46:41Z</time>
      </trkpt>
      <trkpt lat="47.79973" lon="7.02995">
        <ele>585.40002441406</ele>
        <time>2017-07-21T11:46:43Z</time>
      </trkpt>
      <trkpt lat="47.79976" lon="7.0298">
        <ele>585</ele>
        <time>2017-07-21T11:46:44Z</time>
      </trkpt>
      <trkpt lat="47.79972" lon="7.02968">
        <ele>584.59997558594</ele>
        <time>2017-07-21T11:46:45Z</time>
      </trkpt>
      <trkpt lat="47.79967" lon="7.02958">
        <ele>584.20001220703</ele>
        <time>2017-07-21T11:46:46Z</time>
      </trkpt>
      <trkpt lat="47.7996" lon="7.02949">
        <ele>583.79998779297</ele>
        <time>2017-07-21T11:46:47Z</time>
      </trkpt>
      <trkpt lat="47.79954" lon="7.02941">
        <ele>583.40002441406</ele>
        <time>2017-07-21T11:46:48Z</time>
      </trkpt>
      <trkpt lat="47.79947" lon="7.02932">
        <ele>582.79998779297</ele>
        <time>2017-07-21T11:46:49Z</time>
      </trkpt>
      <trkpt lat="47.79932" lon="7.02915">
        <ele>581.59997558594</ele>
        <time>2017-07-21T11:46:51Z</time>
      </trkpt>
      <trkpt lat="47.79916" lon="7.02895">
        <ele>580.20001220703</ele>
        <time>2017-07-21T11:46:53Z</time>
      </trkpt>
      <trkpt lat="47.79904" lon="7.0287">
        <ele>578.79998779297</ele>
        <time>2017-07-21T11:46:55Z</time>
      </trkpt>
      <trkpt lat="47.79903" lon="7.02851">
        <ele>578</ele>
        <time>2017-07-21T11:46:56Z</time>
      </trkpt>
      <trkpt lat="47.799" lon="7.02834">
        <ele>577.40002441406</ele>
        <time>2017-07-21T11:46:57Z</time>
      </trkpt>
      <trkpt lat="47.79897" lon="7.028">
        <ele>576</ele>
        <time>2017-07-21T11:46:59Z</time>
      </trkpt>
      <trkpt lat="47.79892" lon="7.02767">
        <ele>574.59997558594</ele>
        <time>2017-07-21T11:47:01Z</time>
      </trkpt>
      <trkpt lat="47.79888" lon="7.02727">
        <ele>572.59997558594</ele>
        <time>2017-07-21T11:47:03Z</time>
      </trkpt>
      <trkpt lat="47.79888" lon="7.02707">
        <ele>571.59997558594</ele>
        <time>2017-07-21T11:47:04Z</time>
      </trkpt>
      <trkpt lat="47.79888" lon="7.02688">
        <ele>570.59997558594</ele>
        <time>2017-07-21T11:47:05Z</time>
      </trkpt>
      <trkpt lat="47.79893" lon="7.02656">
        <ele>568.79998779297</ele>
        <time>2017-07-21T11:47:07Z</time>
      </trkpt>
      <trkpt lat="47.79904" lon="7.02632">
        <ele>567</ele>
        <time>2017-07-21T11:47:09Z</time>
      </trkpt>
      <trkpt lat="47.79909" lon="7.02622">
        <ele>566.40002441406</ele>
        <time>2017-07-21T11:47:10Z</time>
      </trkpt>
      <trkpt lat="47.79914" lon="7.02611">
        <ele>565.79998779297</ele>
        <time>2017-07-21T11:47:11Z</time>
      </trkpt>
      <trkpt lat="47.79924" lon="7.02595">
        <ele>564.79998779297</ele>
        <time>2017-07-21T11:47:13Z</time>
      </trkpt>
      <trkpt lat="47.79923" lon="7.02589">
        <ele>564.40002441406</ele>
        <time>2017-07-21T11:47:14Z</time>
      </trkpt>
      <trkpt lat="47.7992" lon="7.02584">
        <ele>564.20001220703</ele>
        <time>2017-07-21T11:47:15Z</time>
      </trkpt>
      <trkpt lat="47.799" lon="7.02586">
        <ele>564</ele>
        <time>2017-07-21T11:47:17Z</time>
      </trkpt>
      <trkpt lat="47.79887" lon="7.02595">
        <ele>564</ele>
        <time>2017-07-21T11:47:19Z</time>
      </trkpt>
      <trkpt lat="47.79867" lon="7.02608">
        <ele>563.79998779297</ele>
        <time>2017-07-21T11:47:22Z</time>
      </trkpt>
      <trkpt lat="47.79849" lon="7.02618">
        <ele>563.79998779297</ele>
        <time>2017-07-21T11:47:25Z</time>
      </trkpt>
      <trkpt lat="47.79833" lon="7.0263">
        <ele>563.59997558594</ele>
        <time>2017-07-21T11:47:28Z</time>
      </trkpt>
      <trkpt lat="47.79825" lon="7.02639">
        <ele>563.79998779297</ele>
        <time>2017-07-21T11:47:30Z</time>
      </trkpt>
      <trkpt lat="47.79817" lon="7.02658">
        <ele>564</ele>
        <time>2017-07-21T11:47:33Z</time>
      </trkpt>
      <trkpt lat="47.79815" lon="7.02664">
        <ele>564</ele>
        <time>2017-07-21T11:47:34Z</time>
      </trkpt>
      <trkpt lat="47.7981" lon="7.0269">
        <ele>564.79998779297</ele>
        <time>2017-07-21T11:47:38Z</time>
      </trkpt>
      <trkpt lat="47.7981" lon="7.02697">
        <ele>565</ele>
        <time>2017-07-21T11:47:39Z</time>
      </trkpt>
      <trkpt lat="47.79811" lon="7.02725">
        <ele>566</ele>
        <time>2017-07-21T11:47:43Z</time>
      </trkpt>
      <trkpt lat="47.79812" lon="7.02731">
        <ele>566.40002441406</ele>
        <time>2017-07-21T11:47:44Z</time>
      </trkpt>
      <trkpt lat="47.79813" lon="7.02751">
        <ele>567.20001220703</ele>
        <time>2017-07-21T11:47:48Z</time>
      </trkpt>
      <trkpt lat="47.79806" lon="7.02773">
        <ele>567.40002441406</ele>
        <time>2017-07-21T11:47:53Z</time>
      </trkpt>
      <trkpt lat="47.79802" lon="7.02777">
        <ele>567.59997558594</ele>
        <time>2017-07-21T11:47:54Z</time>
      </trkpt>
      <trkpt lat="47.79786" lon="7.02784">
        <ele>567.20001220703</ele>
        <time>2017-07-21T11:47:57Z</time>
      </trkpt>
      <trkpt lat="47.79781" lon="7.02786">
        <ele>567</ele>
        <time>2017-07-21T11:47:58Z</time>
      </trkpt>
      <trkpt lat="47.79769" lon="7.02792">
        <ele>566.59997558594</ele>
        <time>2017-07-21T11:48:00Z</time>
      </trkpt>
      <trkpt lat="47.79756" lon="7.02801">
        <ele>566</ele>
        <time>2017-07-21T11:48:02Z</time>
      </trkpt>
      <trkpt lat="47.7975" lon="7.02806">
        <ele>565.79998779297</ele>
        <time>2017-07-21T11:48:03Z</time>
      </trkpt>
      <trkpt lat="47.79737" lon="7.02819">
        <ele>565.20001220703</ele>
        <time>2017-07-21T11:48:05Z</time>
      </trkpt>
      <trkpt lat="47.79731" lon="7.02827">
        <ele>565</ele>
        <time>2017-07-21T11:48:06Z</time>
      </trkpt>
      <trkpt lat="47.79726" lon="7.02836">
        <ele>564.59997558594</ele>
        <time>2017-07-21T11:48:07Z</time>
      </trkpt>
      <trkpt lat="47.79721" lon="7.02845">
        <ele>564.20001220703</ele>
        <time>2017-07-21T11:48:08Z</time>
      </trkpt>
      <trkpt lat="47.79715" lon="7.02853">
        <ele>563.79998779297</ele>
        <time>2017-07-21T11:48:09Z</time>
      </trkpt>
      <trkpt lat="47.79702" lon="7.02868">
        <ele>563.20001220703</ele>
        <time>2017-07-21T11:48:11Z</time>
      </trkpt>
      <trkpt lat="47.79694" lon="7.02874">
        <ele>562.79998779297</ele>
        <time>2017-07-21T11:48:12Z</time>
      </trkpt>
      <trkpt lat="47.79686" lon="7.02879">
        <ele>562.59997558594</ele>
        <time>2017-07-21T11:48:13Z</time>
      </trkpt>
      <trkpt lat="47.79678" lon="7.02884">
        <ele>562.20001220703</ele>
        <time>2017-07-21T11:48:14Z</time>
      </trkpt>
      <trkpt lat="47.79669" lon="7.02887">
        <ele>561.40002441406</ele>
        <time>2017-07-21T11:48:15Z</time>
      </trkpt>
      <trkpt lat="47.7966" lon="7.0289">
        <ele>560.79998779297</ele>
        <time>2017-07-21T11:48:16Z</time>
      </trkpt>
      <trkpt lat="47.79651" lon="7.02893">
        <ele>560.20001220703</ele>
        <time>2017-07-21T11:48:17Z</time>
      </trkpt>
      <trkpt lat="47.79643" lon="7.02897">
        <ele>559.79998779297</ele>
        <time>2017-07-21T11:48:18Z</time>
      </trkpt>
      <trkpt lat="47.79634" lon="7.02902">
        <ele>559.20001220703</ele>
        <time>2017-07-21T11:48:19Z</time>
      </trkpt>
      <trkpt lat="47.79617" lon="7.02913">
        <ele>558</ele>
        <time>2017-07-21T11:48:21Z</time>
      </trkpt>
      <trkpt lat="47.79608" lon="7.0292">
        <ele>557.40002441406</ele>
        <time>2017-07-21T11:48:22Z</time>
      </trkpt>
      <trkpt lat="47.796" lon="7.02927">
        <ele>557</ele>
        <time>2017-07-21T11:48:23Z</time>
      </trkpt>
      <trkpt lat="47.79585" lon="7.02942">
        <ele>555.79998779297</ele>
        <time>2017-07-21T11:48:25Z</time>
      </trkpt>
      <trkpt lat="47.79569" lon="7.02954">
        <ele>554.79998779297</ele>
        <time>2017-07-21T11:48:27Z</time>
      </trkpt>
      <trkpt lat="47.79561" lon="7.02959">
        <ele>554.20001220703</ele>
        <time>2017-07-21T11:48:28Z</time>
      </trkpt>
      <trkpt lat="47.79553" lon="7.02962">
        <ele>553.79998779297</ele>
        <time>2017-07-21T11:48:29Z</time>
      </trkpt>
      <trkpt lat="47.79534" lon="7.02969">
        <ele>552.59997558594</ele>
        <time>2017-07-21T11:48:32Z</time>
      </trkpt>
      <trkpt lat="47.79522" lon="7.02985">
        <ele>551.40002441406</ele>
        <time>2017-07-21T11:48:35Z</time>
      </trkpt>
      <trkpt lat="47.79518" lon="7.02988">
        <ele>551.20001220703</ele>
        <time>2017-07-21T11:48:36Z</time>
      </trkpt>
      <trkpt lat="47.79512" lon="7.02988">
        <ele>550.40002441406</ele>
        <time>2017-07-21T11:48:38Z</time>
      </trkpt>
      <trkpt lat="47.79509" lon="7.02983">
        <ele>549.20001220703</ele>
        <time>2017-07-21T11:48:39Z</time>
      </trkpt>
      <trkpt lat="47.79504" lon="7.02973">
        <ele>548</ele>
        <time>2017-07-21T11:48:41Z</time>
      </trkpt>
      <trkpt lat="47.79501" lon="7.02967">
        <ele>547.79998779297</ele>
        <time>2017-07-21T11:48:42Z</time>
      </trkpt>
      <trkpt lat="47.79486" lon="7.0293">
        <ele>547.40002441406</ele>
        <time>2017-07-21T11:48:48Z</time>
      </trkpt>
      <trkpt lat="47.79468" lon="7.02899">
        <ele>547.40002441406</ele>
        <time>2017-07-21T11:48:54Z</time>
      </trkpt>
      <trkpt lat="47.79465" lon="7.02895">
        <ele>547.40002441406</ele>
        <time>2017-07-21T11:48:55Z</time>
      </trkpt>
      <trkpt lat="47.79449" lon="7.02863">
        <ele>547.59997558594</ele>
        <time>2017-07-21T11:49:01Z</time>
      </trkpt>
      <trkpt lat="47.79448" lon="7.0284">
        <ele>547.79998779297</ele>
        <time>2017-07-21T11:49:04Z</time>
      </trkpt>
      <trkpt lat="47.79457" lon="7.02815">
        <ele>548</ele>
        <time>2017-07-21T11:49:08Z</time>
      </trkpt>
      <trkpt lat="47.79464" lon="7.02806">
        <ele>548</ele>
        <time>2017-07-21T11:49:10Z</time>
      </trkpt>
      <trkpt lat="47.79468" lon="7.02801">
        <ele>548</ele>
        <time>2017-07-21T11:49:11Z</time>
      </trkpt>
      <trkpt lat="47.7948" lon="7.02788">
        <ele>548.40002441406</ele>
        <time>2017-07-21T11:49:14Z</time>
      </trkpt>
      <trkpt lat="47.79488" lon="7.02778">
        <ele>548.40002441406</ele>
        <time>2017-07-21T11:49:16Z</time>
      </trkpt>
      <trkpt lat="47.79494" lon="7.02766">
        <ele>548.59997558594</ele>
        <time>2017-07-21T11:49:18Z</time>
      </trkpt>
      <trkpt lat="47.79496" lon="7.0276">
        <ele>548.59997558594</ele>
        <time>2017-07-21T11:49:19Z</time>
      </trkpt>
      <trkpt lat="47.79501" lon="7.02729">
        <ele>549</ele>
        <time>2017-07-21T11:49:24Z</time>
      </trkpt>
      <trkpt lat="47.79501" lon="7.02717">
        <ele>549.20001220703</ele>
        <time>2017-07-21T11:49:26Z</time>
      </trkpt>
      <trkpt lat="47.79499" lon="7.02697">
        <ele>549.79998779297</ele>
        <time>2017-07-21T11:49:30Z</time>
      </trkpt>
      <trkpt lat="47.79498" lon="7.02678">
        <ele>550.20001220703</ele>
        <time>2017-07-21T11:49:35Z</time>
      </trkpt>
      <trkpt lat="47.79498" lon="7.02675">
        <ele>550.40002441406</ele>
        <time>2017-07-21T11:49:36Z</time>
      </trkpt>
      <trkpt lat="47.79495" lon="7.0266">
        <ele>551.40002441406</ele>
        <time>2017-07-21T11:49:41Z</time>
      </trkpt>
      <trkpt lat="47.79494" lon="7.02657">
        <ele>551.59997558594</ele>
        <time>2017-07-21T11:49:42Z</time>
      </trkpt>
      <trkpt lat="47.7949" lon="7.02642">
        <ele>552.59997558594</ele>
        <time>2017-07-21T11:49:47Z</time>
      </trkpt>
      <trkpt lat="47.79484" lon="7.02632">
        <ele>553.40002441406</ele>
        <time>2017-07-21T11:49:51Z</time>
      </trkpt>
      <trkpt lat="47.79481" lon="7.02629">
        <ele>553.79998779297</ele>
        <time>2017-07-21T11:49:53Z</time>
      </trkpt>
      <trkpt lat="47.79478" lon="7.02627">
        <ele>554</ele>
        <time>2017-07-21T11:49:55Z</time>
      </trkpt>
      <trkpt lat="47.79475" lon="7.02626">
        <ele>554.40002441406</ele>
        <time>2017-07-21T11:49:57Z</time>
      </trkpt>
      <trkpt lat="47.7947" lon="7.02624">
        <ele>554.79998779297</ele>
        <time>2017-07-21T11:50:00Z</time>
      </trkpt>
      <trkpt lat="47.79466" lon="7.02624">
        <ele>555</ele>
        <time>2017-07-21T11:50:02Z</time>
      </trkpt>
      <trkpt lat="47.79459" lon="7.02625">
        <ele>555.59997558594</ele>
        <time>2017-07-21T11:50:06Z</time>
      </trkpt>
      <trkpt lat="47.79457" lon="7.02626">
        <ele>555.79998779297</ele>
        <time>2017-07-21T11:50:07Z</time>
      </trkpt>
      <trkpt lat="47.79456" lon="7.02628">
        <ele>556</ele>
        <time>2017-07-21T11:50:08Z</time>
      </trkpt>
      <trkpt lat="47.7945" lon="7.02637">
        <ele>557</ele>
        <time>2017-07-21T11:50:13Z</time>
      </trkpt>
      <trkpt lat="47.79447" lon="7.02643">
        <ele>557.59997558594</ele>
        <time>2017-07-21T11:50:16Z</time>
      </trkpt>
      <trkpt lat="47.79443" lon="7.02652">
        <ele>558</ele>
        <time>2017-07-21T11:50:20Z</time>
      </trkpt>
      <trkpt lat="47.7944" lon="7.02662">
        <ele>558.59997558594</ele>
        <time>2017-07-21T11:50:24Z</time>
      </trkpt>
      <trkpt lat="47.79437" lon="7.02669">
        <ele>559.20001220703</ele>
        <time>2017-07-21T11:50:28Z</time>
      </trkpt>
      <trkpt lat="47.79435" lon="7.02673">
        <ele>559.59997558594</ele>
        <time>2017-07-21T11:50:30Z</time>
      </trkpt>
      <trkpt lat="47.79432" lon="7.02685">
        <ele>560.20001220703</ele>
        <time>2017-07-21T11:50:35Z</time>
      </trkpt>
      <trkpt lat="47.7943" lon="7.02693">
        <ele>560.59997558594</ele>
        <time>2017-07-21T11:50:38Z</time>
      </trkpt>
      <trkpt lat="47.79424" lon="7.02707">
        <ele>561.40002441406</ele>
        <time>2017-07-21T11:50:44Z</time>
      </trkpt>
      <trkpt lat="47.79423" lon="7.02709">
        <ele>561.40002441406</ele>
        <time>2017-07-21T11:50:45Z</time>
      </trkpt>
      <trkpt lat="47.79417" lon="7.02726">
        <ele>562.40002441406</ele>
        <time>2017-07-21T11:50:52Z</time>
      </trkpt>
      <trkpt lat="47.79411" lon="7.02737">
        <ele>563.20001220703</ele>
        <time>2017-07-21T11:51:00Z</time>
      </trkpt>
      <trkpt lat="47.7941" lon="7.02738">
        <ele>563.40002441406</ele>
        <time>2017-07-21T11:51:01Z</time>
      </trkpt>
      <trkpt lat="47.794" lon="7.02743">
        <ele>564.40002441406</ele>
        <time>2017-07-21T11:51:07Z</time>
      </trkpt>
      <trkpt lat="47.79398" lon="7.02744">
        <ele>564.59997558594</ele>
        <time>2017-07-21T11:51:08Z</time>
      </trkpt>
      <trkpt lat="47.79389" lon="7.02746">
        <ele>565.20001220703</ele>
        <time>2017-07-21T11:51:13Z</time>
      </trkpt>
      <trkpt lat="47.79384" lon="7.02747">
        <ele>565.59997558594</ele>
        <time>2017-07-21T11:51:16Z</time>
      </trkpt>
      <trkpt lat="47.79381" lon="7.02747">
        <ele>566</ele>
        <time>2017-07-21T11:51:18Z</time>
      </trkpt>
      <trkpt lat="47.79374" lon="7.02746">
        <ele>566.79998779297</ele>
        <time>2017-07-21T11:51:23Z</time>
      </trkpt>
      <trkpt lat="47.7937" lon="7.02746">
        <ele>567</ele>
        <time>2017-07-21T11:51:25Z</time>
      </trkpt>
      <trkpt lat="47.79361" lon="7.02742">
        <ele>567.79998779297</ele>
        <time>2017-07-21T11:51:30Z</time>
      </trkpt>
      <trkpt lat="47.79355" lon="7.02739">
        <ele>568.40002441406</ele>
        <time>2017-07-21T11:51:34Z</time>
      </trkpt>
      <trkpt lat="47.79351" lon="7.02739">
        <ele>568.59997558594</ele>
        <time>2017-07-21T11:51:36Z</time>
      </trkpt>
      <trkpt lat="47.79342" lon="7.02736">
        <ele>569</ele>
        <time>2017-07-21T11:51:39Z</time>
      </trkpt>
      <trkpt lat="47.79336" lon="7.02733">
        <ele>569.20001220703</ele>
        <time>2017-07-21T11:51:41Z</time>
      </trkpt>
      <trkpt lat="47.79322" lon="7.02724">
        <ele>570</ele>
        <time>2017-07-21T11:51:48Z</time>
      </trkpt>
      <trkpt lat="47.79321" lon="7.02723">
        <ele>570.20001220703</ele>
        <time>2017-07-21T11:51:49Z</time>
      </trkpt>
      <trkpt lat="47.79313" lon="7.02712">
        <ele>571</ele>
        <time>2017-07-21T11:51:54Z</time>
      </trkpt>
      <trkpt lat="47.79309" lon="7.02706">
        <ele>571.40002441406</ele>
        <time>2017-07-21T11:51:57Z</time>
      </trkpt>
      <trkpt lat="47.793" lon="7.02693">
        <ele>572</ele>
        <time>2017-07-21T11:52:03Z</time>
      </trkpt>
      <trkpt lat="47.79297" lon="7.0269">
        <ele>572.40002441406</ele>
        <time>2017-07-21T11:52:05Z</time>
      </trkpt>
      <trkpt lat="47.79284" lon="7.0268">
        <ele>573.20001220703</ele>
        <time>2017-07-21T11:52:12Z</time>
      </trkpt>
      <trkpt lat="47.79282" lon="7.02679">
        <ele>573.20001220703</ele>
        <time>2017-07-21T11:52:13Z</time>
      </trkpt>
      <trkpt lat="47.79268" lon="7.02665">
        <ele>574.20001220703</ele>
        <time>2017-07-21T11:52:21Z</time>
      </trkpt>
      <trkpt lat="47.79255" lon="7.02657">
        <ele>575</ele>
        <time>2017-07-21T11:52:28Z</time>
      </trkpt>
      <trkpt lat="47.7925" lon="7.02654">
        <ele>575.20001220703</ele>
        <time>2017-07-21T11:52:31Z</time>
      </trkpt>
      <trkpt lat="47.79243" lon="7.0265">
        <ele>575.59997558594</ele>
        <time>2017-07-21T11:52:34Z</time>
      </trkpt>
      <trkpt lat="47.79227" lon="7.02644">
        <ele>576.20001220703</ele>
        <time>2017-07-21T11:52:40Z</time>
      </trkpt>
      <trkpt lat="47.79224" lon="7.02643">
        <ele>576.40002441406</ele>
        <time>2017-07-21T11:52:41Z</time>
      </trkpt>
      <trkpt lat="47.79213" lon="7.02642">
        <ele>577.20001220703</ele>
        <time>2017-07-21T11:52:47Z</time>
      </trkpt>
      <trkpt lat="47.79211" lon="7.02641">
        <ele>577.40002441406</ele>
        <time>2017-07-21T11:52:48Z</time>
      </trkpt>
      <trkpt lat="47.79193" lon="7.02637">
        <ele>578</ele>
        <time>2017-07-21T11:52:55Z</time>
      </trkpt>
      <trkpt lat="47.79181" lon="7.02633">
        <ele>578.59997558594</ele>
        <time>2017-07-21T11:52:59Z</time>
      </trkpt>
      <trkpt lat="47.79176" lon="7.02631">
        <ele>578.79998779297</ele>
        <time>2017-07-21T11:53:01Z</time>
      </trkpt>
      <trkpt lat="47.79158" lon="7.02622">
        <ele>579.59997558594</ele>
        <time>2017-07-21T11:53:07Z</time>
      </trkpt>
      <trkpt lat="47.79155" lon="7.0262">
        <ele>579.79998779297</ele>
        <time>2017-07-21T11:53:08Z</time>
      </trkpt>
      <trkpt lat="47.79132" lon="7.02606">
        <ele>580.40002441406</ele>
        <time>2017-07-21T11:53:14Z</time>
      </trkpt>
      <trkpt lat="47.79123" lon="7.02599">
        <ele>580.59997558594</ele>
        <time>2017-07-21T11:53:17Z</time>
      </trkpt>
      <trkpt lat="47.79109" lon="7.0259">
        <ele>581</ele>
        <time>2017-07-21T11:53:21Z</time>
      </trkpt>
      <trkpt lat="47.7909" lon="7.02581">
        <ele>581.79998779297</ele>
        <time>2017-07-21T11:53:27Z</time>
      </trkpt>
      <trkpt lat="47.79083" lon="7.02578">
        <ele>582</ele>
        <time>2017-07-21T11:53:29Z</time>
      </trkpt>
      <trkpt lat="47.7906" lon="7.02572">
        <ele>582.79998779297</ele>
        <time>2017-07-21T11:53:35Z</time>
      </trkpt>
      <trkpt lat="47.79049" lon="7.0257">
        <ele>583.20001220703</ele>
        <time>2017-07-21T11:53:37Z</time>
      </trkpt>
      <trkpt lat="47.79021" lon="7.02557">
        <ele>584</ele>
        <time>2017-07-21T11:53:43Z</time>
      </trkpt>
      <trkpt lat="47.79017" lon="7.02554">
        <ele>584</ele>
        <time>2017-07-21T11:53:44Z</time>
      </trkpt>
      <trkpt lat="47.79" lon="7.02532">
        <ele>584.79998779297</ele>
        <time>2017-07-21T11:53:50Z</time>
      </trkpt>
      <trkpt lat="47.78998" lon="7.02528">
        <ele>585.20001220703</ele>
        <time>2017-07-21T11:53:51Z</time>
      </trkpt>
      <trkpt lat="47.78985" lon="7.02503">
        <ele>586</ele>
        <time>2017-07-21T11:53:57Z</time>
      </trkpt>
      <trkpt lat="47.78982" lon="7.025">
        <ele>586.20001220703</ele>
        <time>2017-07-21T11:53:58Z</time>
      </trkpt>
      <trkpt lat="47.78969" lon="7.02489">
        <ele>587</ele>
        <time>2017-07-21T11:54:03Z</time>
      </trkpt>
      <trkpt lat="47.78963" lon="7.02485">
        <ele>587.20001220703</ele>
        <time>2017-07-21T11:54:05Z</time>
      </trkpt>
      <trkpt lat="47.78946" lon="7.02479">
        <ele>588.20001220703</ele>
        <time>2017-07-21T11:54:11Z</time>
      </trkpt>
      <trkpt lat="47.78942" lon="7.02481">
        <ele>588.40002441406</ele>
        <time>2017-07-21T11:54:12Z</time>
      </trkpt>
      <trkpt lat="47.78932" lon="7.02488">
        <ele>588.79998779297</ele>
        <time>2017-07-21T11:54:15Z</time>
      </trkpt>
      <trkpt lat="47.78918" lon="7.02504">
        <ele>589.40002441406</ele>
        <time>2017-07-21T11:54:20Z</time>
      </trkpt>
      <trkpt lat="47.78916" lon="7.02509">
        <ele>589.59997558594</ele>
        <time>2017-07-21T11:54:21Z</time>
      </trkpt>
      <trkpt lat="47.78902" lon="7.02536">
        <ele>590.20001220703</ele>
        <time>2017-07-21T11:54:27Z</time>
      </trkpt>
      <trkpt lat="47.78894" lon="7.02542">
        <ele>590.40002441406</ele>
        <time>2017-07-21T11:54:29Z</time>
      </trkpt>
      <trkpt lat="47.78887" lon="7.02545">
        <ele>590.59997558594</ele>
        <time>2017-07-21T11:54:31Z</time>
      </trkpt>
      <trkpt lat="47.7887" lon="7.02541">
        <ele>591.20001220703</ele>
        <time>2017-07-21T11:54:36Z</time>
      </trkpt>
      <trkpt lat="47.78863" lon="7.02539">
        <ele>591.59997558594</ele>
        <time>2017-07-21T11:54:38Z</time>
      </trkpt>
      <trkpt lat="47.78845" lon="7.02531">
        <ele>592.20001220703</ele>
        <time>2017-07-21T11:54:43Z</time>
      </trkpt>
      <trkpt lat="47.78833" lon="7.02526">
        <ele>592.59997558594</ele>
        <time>2017-07-21T11:54:46Z</time>
      </trkpt>
      <trkpt lat="47.78829" lon="7.02524">
        <ele>592.59997558594</ele>
        <time>2017-07-21T11:54:47Z</time>
      </trkpt>
      <trkpt lat="47.7882" lon="7.02519">
        <ele>593</ele>
        <time>2017-07-21T11:54:49Z</time>
      </trkpt>
      <trkpt lat="47.78798" lon="7.02498">
        <ele>593.40002441406</ele>
        <time>2017-07-21T11:54:55Z</time>
      </trkpt>
      <trkpt lat="47.78791" lon="7.02489">
        <ele>593.59997558594</ele>
        <time>2017-07-21T11:54:57Z</time>
      </trkpt>
      <trkpt lat="47.78785" lon="7.0248">
        <ele>593.79998779297</ele>
        <time>2017-07-21T11:54:59Z</time>
      </trkpt>
      <trkpt lat="47.78781" lon="7.02469">
        <ele>593.79998779297</ele>
        <time>2017-07-21T11:55:01Z</time>
      </trkpt>
      <trkpt lat="47.78778" lon="7.02442">
        <ele>594</ele>
        <time>2017-07-21T11:55:05Z</time>
      </trkpt>
      <trkpt lat="47.78778" lon="7.02434">
        <ele>594</ele>
        <time>2017-07-21T11:55:06Z</time>
      </trkpt>
      <trkpt lat="47.7878" lon="7.0241">
        <ele>593.79998779297</ele>
        <time>2017-07-21T11:55:09Z</time>
      </trkpt>
      <trkpt lat="47.78782" lon="7.02393">
        <ele>593.59997558594</ele>
        <time>2017-07-21T11:55:11Z</time>
      </trkpt>
      <trkpt lat="47.78794" lon="7.02346">
        <ele>593.20001220703</ele>
        <time>2017-07-21T11:55:16Z</time>
      </trkpt>
      <trkpt lat="47.78797" lon="7.02336">
        <ele>593</ele>
        <time>2017-07-21T11:55:17Z</time>
      </trkpt>
      <trkpt lat="47.7881" lon="7.02306">
        <ele>592.40002441406</ele>
        <time>2017-07-21T11:55:20Z</time>
      </trkpt>
      <trkpt lat="47.78815" lon="7.02296">
        <ele>592</ele>
        <time>2017-07-21T11:55:21Z</time>
      </trkpt>
      <trkpt lat="47.7883" lon="7.02262">
        <ele>591</ele>
        <time>2017-07-21T11:55:24Z</time>
      </trkpt>
      <trkpt lat="47.78839" lon="7.02238">
        <ele>590</ele>
        <time>2017-07-21T11:55:26Z</time>
      </trkpt>
      <trkpt lat="47.78843" lon="7.02225">
        <ele>589.20001220703</ele>
        <time>2017-07-21T11:55:27Z</time>
      </trkpt>
      <trkpt lat="47.78847" lon="7.02211">
        <ele>588.79998779297</ele>
        <time>2017-07-21T11:55:28Z</time>
      </trkpt>
      <trkpt lat="47.78856" lon="7.02169">
        <ele>587.40002441406</ele>
        <time>2017-07-21T11:55:31Z</time>
      </trkpt>
      <trkpt lat="47.78861" lon="7.02156">
        <ele>586.79998779297</ele>
        <time>2017-07-21T11:55:32Z</time>
      </trkpt>
      <trkpt lat="47.78867" lon="7.02144">
        <ele>586.20001220703</ele>
        <time>2017-07-21T11:55:33Z</time>
      </trkpt>
      <trkpt lat="47.78881" lon="7.02125">
        <ele>585.20001220703</ele>
        <time>2017-07-21T11:55:35Z</time>
      </trkpt>
      <trkpt lat="47.78889" lon="7.02117">
        <ele>584.59997558594</ele>
        <time>2017-07-21T11:55:36Z</time>
      </trkpt>
      <trkpt lat="47.78897" lon="7.02108">
        <ele>584.20001220703</ele>
        <time>2017-07-21T11:55:37Z</time>
      </trkpt>
      <trkpt lat="47.78909" lon="7.0209">
        <ele>583.40002441406</ele>
        <time>2017-07-21T11:55:39Z</time>
      </trkpt>
      <trkpt lat="47.78915" lon="7.02081">
        <ele>583</ele>
        <time>2017-07-21T11:55:40Z</time>
      </trkpt>
      <trkpt lat="47.78928" lon="7.02057">
        <ele>582</ele>
        <time>2017-07-21T11:55:43Z</time>
      </trkpt>
      <trkpt lat="47.78932" lon="7.0205">
        <ele>581.40002441406</ele>
        <time>2017-07-21T11:55:44Z</time>
      </trkpt>
      <trkpt lat="47.78934" lon="7.02042">
        <ele>581</ele>
        <time>2017-07-21T11:55:45Z</time>
      </trkpt>
      <trkpt lat="47.78935" lon="7.02033">
        <ele>580.20001220703</ele>
        <time>2017-07-21T11:55:46Z</time>
      </trkpt>
      <trkpt lat="47.78937" lon="7.02024">
        <ele>579.59997558594</ele>
        <time>2017-07-21T11:55:47Z</time>
      </trkpt>
      <trkpt lat="47.78937" lon="7.02015">
        <ele>578.59997558594</ele>
        <time>2017-07-21T11:55:48Z</time>
      </trkpt>
      <trkpt lat="47.78935" lon="7.02006">
        <ele>577.79998779297</ele>
        <time>2017-07-21T11:55:49Z</time>
      </trkpt>
      <trkpt lat="47.78835" lon="7.01945">
        <ele>576.79998779297</ele>
        <time>2017-07-21T11:55:50Z</time>
      </trkpt>
      <trkpt lat="47.78823" lon="7.01933">
        <ele>575.20001220703</ele>
        <time>2017-07-21T11:55:51Z</time>
      </trkpt>
      <trkpt lat="47.78814" lon="7.01923">
        <ele>574.20001220703</ele>
        <time>2017-07-21T11:55:52Z</time>
      </trkpt>
      <trkpt lat="47.78806" lon="7.01914">
        <ele>573.40002441406</ele>
        <time>2017-07-21T11:55:53Z</time>
      </trkpt>
      <trkpt lat="47.78799" lon="7.01903">
        <ele>572.59997558594</ele>
        <time>2017-07-21T11:55:54Z</time>
      </trkpt>
      <trkpt lat="47.78792" lon="7.01893">
        <ele>571.59997558594</ele>
        <time>2017-07-21T11:55:55Z</time>
      </trkpt>
      <trkpt lat="47.78784" lon="7.0188">
        <ele>570.59997558594</ele>
        <time>2017-07-21T11:55:56Z</time>
      </trkpt>
      <trkpt lat="47.78777" lon="7.01865">
        <ele>569.79998779297</ele>
        <time>2017-07-21T11:55:57Z</time>
      </trkpt>
      <trkpt lat="47.78763" lon="7.01833">
        <ele>567.79998779297</ele>
        <time>2017-07-21T11:55:59Z</time>
      </trkpt>
      <trkpt lat="47.78762" lon="7.01791">
        <ele>566.20001220703</ele>
        <time>2017-07-21T11:56:01Z</time>
      </trkpt>
      <trkpt lat="47.78772" lon="7.01748">
        <ele>564.20001220703</ele>
        <time>2017-07-21T11:56:03Z</time>
      </trkpt>
      <trkpt lat="47.78777" lon="7.01728">
        <ele>563.20001220703</ele>
        <time>2017-07-21T11:56:04Z</time>
      </trkpt>
      <trkpt lat="47.78781" lon="7.01708">
        <ele>562.20001220703</ele>
        <time>2017-07-21T11:56:05Z</time>
      </trkpt>
      <trkpt lat="47.7879" lon="7.01669">
        <ele>560.20001220703</ele>
        <time>2017-07-21T11:56:07Z</time>
      </trkpt>
      <trkpt lat="47.78798" lon="7.01631">
        <ele>558.40002441406</ele>
        <time>2017-07-21T11:56:09Z</time>
      </trkpt>
      <trkpt lat="47.78805" lon="7.01591">
        <ele>556.59997558594</ele>
        <time>2017-07-21T11:56:11Z</time>
      </trkpt>
      <trkpt lat="47.78809" lon="7.01572">
        <ele>555.59997558594</ele>
        <time>2017-07-21T11:56:12Z</time>
      </trkpt>
      <trkpt lat="47.78812" lon="7.01552">
        <ele>554.59997558594</ele>
        <time>2017-07-21T11:56:13Z</time>
      </trkpt>
      <trkpt lat="47.78815" lon="7.01533">
        <ele>553.40002441406</ele>
        <time>2017-07-21T11:56:14Z</time>
      </trkpt>
      <trkpt lat="47.78819" lon="7.01514">
        <ele>551.59997558594</ele>
        <time>2017-07-21T11:56:15Z</time>
      </trkpt>
      <trkpt lat="47.78828" lon="7.0148">
        <ele>549.59997558594</ele>
        <time>2017-07-21T11:56:17Z</time>
      </trkpt>
      <trkpt lat="47.78833" lon="7.01465">
        <ele>548.79998779297</ele>
        <time>2017-07-21T11:56:18Z</time>
      </trkpt>
      <trkpt lat="47.78839" lon="7.01452">
        <ele>548</ele>
        <time>2017-07-21T11:56:19Z</time>
      </trkpt>
      <trkpt lat="47.78846" lon="7.0144">
        <ele>547.20001220703</ele>
        <time>2017-07-21T11:56:20Z</time>
      </trkpt>
      <trkpt lat="47.78853" lon="7.0143">
        <ele>546.59997558594</ele>
        <time>2017-07-21T11:56:21Z</time>
      </trkpt>
      <trkpt lat="47.78867" lon="7.01418">
        <ele>545.40002441406</ele>
        <time>2017-07-21T11:56:23Z</time>
      </trkpt>
      <trkpt lat="47.78888" lon="7.01411">
        <ele>544.20001220703</ele>
        <time>2017-07-21T11:56:25Z</time>
      </trkpt>
      <trkpt lat="47.789" lon="7.01405">
        <ele>543.59997558594</ele>
        <time>2017-07-21T11:56:26Z</time>
      </trkpt>
      <trkpt lat="47.78911" lon="7.01395">
        <ele>543</ele>
        <time>2017-07-21T11:56:27Z</time>
      </trkpt>
      <trkpt lat="47.78926" lon="7.01376">
        <ele>542</ele>
        <time>2017-07-21T11:56:29Z</time>
      </trkpt>
      <trkpt lat="47.78937" lon="7.01364">
        <ele>540.79998779297</ele>
        <time>2017-07-21T11:56:31Z</time>
      </trkpt>
      <trkpt lat="47.78941" lon="7.01363">
        <ele>540.20001220703</ele>
        <time>2017-07-21T11:56:32Z</time>
      </trkpt>
      <trkpt lat="47.78944" lon="7.01359">
        <ele>539.59997558594</ele>
        <time>2017-07-21T11:56:33Z</time>
      </trkpt>
      <trkpt lat="47.78935" lon="7.01344">
        <ele>538.59997558594</ele>
        <time>2017-07-21T11:56:35Z</time>
      </trkpt>
      <trkpt lat="47.78897" lon="7.01319">
        <ele>537.20001220703</ele>
        <time>2017-07-21T11:56:38Z</time>
      </trkpt>
      <trkpt lat="47.78884" lon="7.01313">
        <ele>535.79998779297</ele>
        <time>2017-07-21T11:56:39Z</time>
      </trkpt>
      <trkpt lat="47.78863" lon="7.01304">
        <ele>534.79998779297</ele>
        <time>2017-07-21T11:56:41Z</time>
      </trkpt>
      <trkpt lat="47.78853" lon="7.01301">
        <ele>534.20001220703</ele>
        <time>2017-07-21T11:56:42Z</time>
      </trkpt>
      <trkpt lat="47.78843" lon="7.01297">
        <ele>533.59997558594</ele>
        <time>2017-07-21T11:56:43Z</time>
      </trkpt>
      <trkpt lat="47.78822" lon="7.01289">
        <ele>532.59997558594</ele>
        <time>2017-07-21T11:56:45Z</time>
      </trkpt>
      <trkpt lat="47.78798" lon="7.01277">
        <ele>531.40002441406</ele>
        <time>2017-07-21T11:56:47Z</time>
      </trkpt>
      <trkpt lat="47.78779" lon="7.01255">
        <ele>530</ele>
        <time>2017-07-21T11:56:49Z</time>
      </trkpt>
      <trkpt lat="47.78772" lon="7.01242">
        <ele>529.40002441406</ele>
        <time>2017-07-21T11:56:50Z</time>
      </trkpt>
      <trkpt lat="47.78767" lon="7.01228">
        <ele>528.40002441406</ele>
        <time>2017-07-21T11:56:51Z</time>
      </trkpt>
      <trkpt lat="47.78765" lon="7.01195">
        <ele>526.40002441406</ele>
        <time>2017-07-21T11:56:53Z</time>
      </trkpt>
      <trkpt lat="47.78766" lon="7.01179">
        <ele>525.20001220703</ele>
        <time>2017-07-21T11:56:54Z</time>
      </trkpt>
      <trkpt lat="47.78768" lon="7.01163">
        <ele>524.20001220703</ele>
        <time>2017-07-21T11:56:55Z</time>
      </trkpt>
      <trkpt lat="47.78774" lon="7.01146">
        <ele>523</ele>
        <time>2017-07-21T11:56:56Z</time>
      </trkpt>
      <trkpt lat="47.78781" lon="7.0113">
        <ele>521.79998779297</ele>
        <time>2017-07-21T11:56:57Z</time>
      </trkpt>
      <trkpt lat="47.78787" lon="7.01114">
        <ele>520.79998779297</ele>
        <time>2017-07-21T11:56:58Z</time>
      </trkpt>
      <trkpt lat="47.78797" lon="7.01083">
        <ele>518.79998779297</ele>
        <time>2017-07-21T11:57:00Z</time>
      </trkpt>
      <trkpt lat="47.78806" lon="7.01052">
        <ele>517</ele>
        <time>2017-07-21T11:57:02Z</time>
      </trkpt>
      <trkpt lat="47.78809" lon="7.01039">
        <ele>515.20001220703</ele>
        <time>2017-07-21T11:57:03Z</time>
      </trkpt>
      <trkpt lat="47.78811" lon="7.01027">
        <ele>514.40002441406</ele>
        <time>2017-07-21T11:57:04Z</time>
      </trkpt>
      <trkpt lat="47.78815" lon="7.01017">
        <ele>513.40002441406</ele>
        <time>2017-07-21T11:57:05Z</time>
      </trkpt>
      <trkpt lat="47.78824" lon="7.01002">
        <ele>511.39999389648</ele>
        <time>2017-07-21T11:57:07Z</time>
      </trkpt>
      <trkpt lat="47.78828" lon="7.00999">
        <ele>510.39999389648</ele>
        <time>2017-07-21T11:57:08Z</time>
      </trkpt>
      <trkpt lat="47.78833" lon="7.01009">
        <ele>508.79998779297</ele>
        <time>2017-07-21T11:57:10Z</time>
      </trkpt>
      <trkpt lat="47.78817" lon="7.0103">
        <ele>507.20001220703</ele>
        <time>2017-07-21T11:57:12Z</time>
      </trkpt>
      <trkpt lat="47.7881" lon="7.01042">
        <ele>506.60000610352</ele>
        <time>2017-07-21T11:57:13Z</time>
      </trkpt>
      <trkpt lat="47.78802" lon="7.01052">
        <ele>505.79998779297</ele>
        <time>2017-07-21T11:57:14Z</time>
      </trkpt>
      <trkpt lat="47.78793" lon="7.01062">
        <ele>504.79998779297</ele>
        <time>2017-07-21T11:57:15Z</time>
      </trkpt>
      <trkpt lat="47.78783" lon="7.01072">
        <ele>504</ele>
        <time>2017-07-21T11:57:16Z</time>
      </trkpt>
      <trkpt lat="47.78762" lon="7.01094">
        <ele>502.79998779297</ele>
        <time>2017-07-21T11:57:18Z</time>
      </trkpt>
      <trkpt lat="47.78744" lon="7.01112">
        <ele>501.79998779297</ele>
        <time>2017-07-21T11:57:20Z</time>
      </trkpt>
      <trkpt lat="47.78736" lon="7.01119">
        <ele>501.60000610352</ele>
        <time>2017-07-21T11:57:21Z</time>
      </trkpt>
      <trkpt lat="47.78695" lon="7.01146">
        <ele>500.20001220703</ele>
        <time>2017-07-21T11:57:25Z</time>
      </trkpt>
      <trkpt lat="47.78684" lon="7.01152">
        <ele>499.79998779297</ele>
        <time>2017-07-21T11:57:26Z</time>
      </trkpt>
      <trkpt lat="47.78672" lon="7.01157">
        <ele>499</ele>
        <time>2017-07-21T11:57:27Z</time>
      </trkpt>
      <trkpt lat="47.78662" lon="7.0116">
        <ele>498.39999389648</ele>
        <time>2017-07-21T11:57:28Z</time>
      </trkpt>
      <trkpt lat="47.78649" lon="7.01164">
        <ele>497.60000610352</ele>
        <time>2017-07-21T11:57:29Z</time>
      </trkpt>
      <trkpt lat="47.7864" lon="7.01165">
        <ele>496.79998779297</ele>
        <time>2017-07-21T11:57:30Z</time>
      </trkpt>
      <trkpt lat="47.78632" lon="7.01163">
        <ele>496</ele>
        <time>2017-07-21T11:57:31Z</time>
      </trkpt>
      <trkpt lat="47.78613" lon="7.01151">
        <ele>494.39999389648</ele>
        <time>2017-07-21T11:57:33Z</time>
      </trkpt>
      <trkpt lat="47.78604" lon="7.01145">
        <ele>493.60000610352</ele>
        <time>2017-07-21T11:57:34Z</time>
      </trkpt>
      <trkpt lat="47.78596" lon="7.01138">
        <ele>492.79998779297</ele>
        <time>2017-07-21T11:57:35Z</time>
      </trkpt>
      <trkpt lat="47.78587" lon="7.01135">
        <ele>492.20001220703</ele>
        <time>2017-07-21T11:57:36Z</time>
      </trkpt>
      <trkpt lat="47.78579" lon="7.01134">
        <ele>491.39999389648</ele>
        <time>2017-07-21T11:57:37Z</time>
      </trkpt>
      <trkpt lat="47.78561" lon="7.0114">
        <ele>489.79998779297</ele>
        <time>2017-07-21T11:57:39Z</time>
      </trkpt>
      <trkpt lat="47.78553" lon="7.01147">
        <ele>489</ele>
        <time>2017-07-21T11:57:40Z</time>
      </trkpt>
      <trkpt lat="47.78547" lon="7.01155">
        <ele>488.39999389648</ele>
        <time>2017-07-21T11:57:41Z</time>
      </trkpt>
      <trkpt lat="47.78542" lon="7.01165">
        <ele>487.60000610352</ele>
        <time>2017-07-21T11:57:42Z</time>
      </trkpt>
      <trkpt lat="47.78539" lon="7.01174">
        <ele>486.79998779297</ele>
        <time>2017-07-21T11:57:43Z</time>
      </trkpt>
      <trkpt lat="47.78537" lon="7.01193">
        <ele>485.60000610352</ele>
        <time>2017-07-21T11:57:45Z</time>
      </trkpt>
      <trkpt lat="47.78549" lon="7.01213">
        <ele>484.39999389648</ele>
        <time>2017-07-21T11:57:47Z</time>
      </trkpt>
      <trkpt lat="47.78556" lon="7.01219">
        <ele>484</ele>
        <time>2017-07-21T11:57:48Z</time>
      </trkpt>
      <trkpt lat="47.78573" lon="7.01222">
        <ele>483.39999389648</ele>
        <time>2017-07-21T11:57:50Z</time>
      </trkpt>
      <trkpt lat="47.78582" lon="7.01222">
        <ele>482.39999389648</ele>
        <time>2017-07-21T11:57:51Z</time>
      </trkpt>
      <trkpt lat="47.78598" lon="7.01221">
        <ele>481</ele>
        <time>2017-07-21T11:57:53Z</time>
      </trkpt>
      <trkpt lat="47.78612" lon="7.01222">
        <ele>479.60000610352</ele>
        <time>2017-07-21T11:57:55Z</time>
      </trkpt>
      <trkpt lat="47.78621" lon="7.01227">
        <ele>478.79998779297</ele>
        <time>2017-07-21T11:57:56Z</time>
      </trkpt>
      <trkpt lat="47.78627" lon="7.01238">
        <ele>478.20001220703</ele>
        <time>2017-07-21T11:57:57Z</time>
      </trkpt>
      <trkpt lat="47.78626" lon="7.01263">
        <ele>476.79998779297</ele>
        <time>2017-07-21T11:57:59Z</time>
      </trkpt>
      <trkpt lat="47.78611" lon="7.01295">
        <ele>475.39999389648</ele>
        <time>2017-07-21T11:58:02Z</time>
      </trkpt>
      <trkpt lat="47.78604" lon="7.01303">
        <ele>474.60000610352</ele>
        <time>2017-07-21T11:58:04Z</time>
      </trkpt>
      <trkpt lat="47.786" lon="7.01299">
        <ele>474</ele>
        <time>2017-07-21T11:58:05Z</time>
      </trkpt>
      <trkpt lat="47.78587" lon="7.01286">
        <ele>472.60000610352</ele>
        <time>2017-07-21T11:58:07Z</time>
      </trkpt>
      <trkpt lat="47.78579" lon="7.01279">
        <ele>471.79998779297</ele>
        <time>2017-07-21T11:58:08Z</time>
      </trkpt>
      <trkpt lat="47.7857" lon="7.01275">
        <ele>470.79998779297</ele>
        <time>2017-07-21T11:58:09Z</time>
      </trkpt>
      <trkpt lat="47.78549" lon="7.01269">
        <ele>469.20001220703</ele>
        <time>2017-07-21T11:58:11Z</time>
      </trkpt>
      <trkpt lat="47.78527" lon="7.0127">
        <ele>467.79998779297</ele>
        <time>2017-07-21T11:58:13Z</time>
      </trkpt>
      <trkpt lat="47.78516" lon="7.01272">
        <ele>467</ele>
        <time>2017-07-21T11:58:14Z</time>
      </trkpt>
      <trkpt lat="47.78505" lon="7.01274">
        <ele>465.60000610352</ele>
        <time>2017-07-21T11:58:15Z</time>
      </trkpt>
      <trkpt lat="47.78483" lon="7.01279">
        <ele>464.20001220703</ele>
        <time>2017-07-21T11:58:17Z</time>
      </trkpt>
      <trkpt lat="47.78472" lon="7.01279">
        <ele>463.60000610352</ele>
        <time>2017-07-21T11:58:18Z</time>
      </trkpt>
      <trkpt lat="47.78461" lon="7.01278">
        <ele>462.60000610352</ele>
        <time>2017-07-21T11:58:19Z</time>
      </trkpt>
      <trkpt lat="47.78441" lon="7.01273">
        <ele>460.79998779297</ele>
        <time>2017-07-21T11:58:21Z</time>
      </trkpt>
      <trkpt lat="47.78432" lon="7.01269">
        <ele>459.79998779297</ele>
        <time>2017-07-21T11:58:22Z</time>
      </trkpt>
      <trkpt lat="47.78424" lon="7.01262">
        <ele>458.60000610352</ele>
        <time>2017-07-21T11:58:23Z</time>
      </trkpt>
      <trkpt lat="47.78418" lon="7.01253">
        <ele>457.60000610352</ele>
        <time>2017-07-21T11:58:24Z</time>
      </trkpt>
      <trkpt lat="47.78413" lon="7.01242">
        <ele>456.39999389648</ele>
        <time>2017-07-21T11:58:25Z</time>
      </trkpt>
      <trkpt lat="47.78409" lon="7.01231">
        <ele>455.60000610352</ele>
        <time>2017-07-21T11:58:26Z</time>
      </trkpt>
      <trkpt lat="47.78405" lon="7.01219">
        <ele>454.60000610352</ele>
        <time>2017-07-21T11:58:27Z</time>
      </trkpt>
      <trkpt lat="47.784" lon="7.01194">
        <ele>453.39999389648</ele>
        <time>2017-07-21T11:58:29Z</time>
      </trkpt>
      <trkpt lat="47.78398" lon="7.01182">
        <ele>452.79998779297</ele>
        <time>2017-07-21T11:58:30Z</time>
      </trkpt>
      <trkpt lat="47.78395" lon="7.01168">
        <ele>452.20001220703</ele>
        <time>2017-07-21T11:58:31Z</time>
      </trkpt>
      <trkpt lat="47.78388" lon="7.01143">
        <ele>451.20001220703</ele>
        <time>2017-07-21T11:58:33Z</time>
      </trkpt>
      <trkpt lat="47.78384" lon="7.01132">
        <ele>450.79998779297</ele>
        <time>2017-07-21T11:58:34Z</time>
      </trkpt>
      <trkpt lat="47.78367" lon="7.01102">
        <ele>449.60000610352</ele>
        <time>2017-07-21T11:58:37Z</time>
      </trkpt>
      <trkpt lat="47.78357" lon="7.01084">
        <ele>449.20001220703</ele>
        <time>2017-07-21T11:58:39Z</time>
      </trkpt>
      <trkpt lat="47.78332" lon="7.01031">
        <ele>449.60000610352</ele>
        <time>2017-07-21T11:58:45Z</time>
      </trkpt>
      <trkpt lat="47.7832" lon="7.00994">
        <ele>450.60000610352</ele>
        <time>2017-07-21T11:58:50Z</time>
      </trkpt>
      <trkpt lat="47.7831" lon="7.00967">
        <ele>451.60000610352</ele>
        <time>2017-07-21T11:58:54Z</time>
      </trkpt>
      <trkpt lat="47.78309" lon="7.0096">
        <ele>452</ele>
        <time>2017-07-21T11:58:55Z</time>
      </trkpt>
      <trkpt lat="47.78307" lon="7.0095">
        <ele>452.79998779297</ele>
        <time>2017-07-21T11:58:57Z</time>
      </trkpt>
      <trkpt lat="47.78302" lon="7.00928">
        <ele>453.79998779297</ele>
        <time>2017-07-21T11:59:01Z</time>
      </trkpt>
      <trkpt lat="47.78299" lon="7.00923">
        <ele>454</ele>
        <time>2017-07-21T11:59:02Z</time>
      </trkpt>
      <trkpt lat="47.78296" lon="7.00911">
        <ele>454</ele>
        <time>2017-07-21T11:59:04Z</time>
      </trkpt>
      <trkpt lat="47.78286" lon="7.00862">
        <ele>453</ele>
        <time>2017-07-21T11:59:10Z</time>
      </trkpt>
      <trkpt lat="47.78284" lon="7.00852">
        <ele>452.79998779297</ele>
        <time>2017-07-21T11:59:11Z</time>
      </trkpt>
      <trkpt lat="47.7827" lon="7.00808">
        <ele>451.79998779297</ele>
        <time>2017-07-21T11:59:16Z</time>
      </trkpt>
      <trkpt lat="47.78263" lon="7.00793">
        <ele>451.60000610352</ele>
        <time>2017-07-21T11:59:18Z</time>
      </trkpt>
      <trkpt lat="47.78256" lon="7.00779">
        <ele>451.60000610352</ele>
        <time>2017-07-21T11:59:20Z</time>
      </trkpt>
      <trkpt lat="47.78249" lon="7.00766">
        <ele>451.79998779297</ele>
        <time>2017-07-21T11:59:22Z</time>
      </trkpt>
      <trkpt lat="47.78232" lon="7.00744">
        <ele>452.20001220703</ele>
        <time>2017-07-21T11:59:26Z</time>
      </trkpt>
      <trkpt lat="47.78222" lon="7.00736">
        <ele>452.20001220703</ele>
        <time>2017-07-21T11:59:28Z</time>
      </trkpt>
      <trkpt lat="47.78211" lon="7.00729">
        <ele>452.20001220703</ele>
        <time>2017-07-21T11:59:30Z</time>
      </trkpt>
      <trkpt lat="47.78195" lon="7.00721">
        <ele>452</ele>
        <time>2017-07-21T11:59:33Z</time>
      </trkpt>
      <trkpt lat="47.78105" lon="7.00685">
        <ele>452</ele>
        <time>2017-07-21T11:59:38Z</time>
      </trkpt>
      <trkpt lat="47.78093" lon="7.00676">
        <ele>452</ele>
        <time>2017-07-21T11:59:40Z</time>
      </trkpt>
      <trkpt lat="47.78069" lon="7.00638">
        <ele>452.39999389648</ele>
        <time>2017-07-21T11:59:47Z</time>
      </trkpt>
      <trkpt lat="47.78066" lon="7.00631">
        <ele>452.39999389648</ele>
        <time>2017-07-21T11:59:48Z</time>
      </trkpt>
      <trkpt lat="47.78053" lon="7.00606">
        <ele>452</ele>
        <time>2017-07-21T11:59:51Z</time>
      </trkpt>
      <trkpt lat="47.78034" lon="7.00566">
        <ele>450.39999389648</ele>
        <time>2017-07-21T11:59:55Z</time>
      </trkpt>
      <trkpt lat="47.78028" lon="7.00555">
        <ele>449.79998779297</ele>
        <time>2017-07-21T11:59:56Z</time>
      </trkpt>
      <trkpt lat="47.78022" lon="7.00544">
        <ele>449.39999389648</ele>
        <time>2017-07-21T11:59:57Z</time>
      </trkpt>
      <trkpt lat="47.78011" lon="7.00518">
        <ele>448</ele>
        <time>2017-07-21T11:59:59Z</time>
      </trkpt>
      <trkpt lat="47.78006" lon="7.00504">
        <ele>447.39999389648</ele>
        <time>2017-07-21T12:00:00Z</time>
      </trkpt>
      <trkpt lat="47.78001" lon="7.00488">
        <ele>446.60000610352</ele>
        <time>2017-07-21T12:00:01Z</time>
      </trkpt>
      <trkpt lat="47.77992" lon="7.00453">
        <ele>445</ele>
        <time>2017-07-21T12:00:03Z</time>
      </trkpt>
      <trkpt lat="47.77987" lon="7.00435">
        <ele>444.20001220703</ele>
        <time>2017-07-21T12:00:04Z</time>
      </trkpt>
      <trkpt lat="47.77982" lon="7.00418">
        <ele>443.39999389648</ele>
        <time>2017-07-21T12:00:05Z</time>
      </trkpt>
      <trkpt lat="47.77976" lon="7.00401">
        <ele>442.60000610352</ele>
        <time>2017-07-21T12:00:06Z</time>
      </trkpt>
      <trkpt lat="47.77968" lon="7.00385">
        <ele>441.60000610352</ele>
        <time>2017-07-21T12:00:07Z</time>
      </trkpt>
      <trkpt lat="47.77959" lon="7.00372">
        <ele>440.79998779297</ele>
        <time>2017-07-21T12:00:08Z</time>
      </trkpt>
      <trkpt lat="47.7795" lon="7.00359">
        <ele>439.79998779297</ele>
        <time>2017-07-21T12:00:09Z</time>
      </trkpt>
      <trkpt lat="47.77931" lon="7.00335">
        <ele>437.79998779297</ele>
        <time>2017-07-21T12:00:11Z</time>
      </trkpt>
      <trkpt lat="47.77914" lon="7.00312">
        <ele>436.20001220703</ele>
        <time>2017-07-21T12:00:13Z</time>
      </trkpt>
      <trkpt lat="47.77906" lon="7.00301">
        <ele>435.60000610352</ele>
        <time>2017-07-21T12:00:14Z</time>
      </trkpt>
      <trkpt lat="47.77898" lon="7.0029">
        <ele>435.20001220703</ele>
        <time>2017-07-21T12:00:15Z</time>
      </trkpt>
      <trkpt lat="47.7789" lon="7.0028">
        <ele>434.60000610352</ele>
        <time>2017-07-21T12:00:16Z</time>
      </trkpt>
      <trkpt lat="47.77872" lon="7.00262">
        <ele>434.39999389648</ele>
        <time>2017-07-21T12:00:18Z</time>
      </trkpt>
      <trkpt lat="47.77862" lon="7.00254">
        <ele>434.20001220703</ele>
        <time>2017-07-21T12:00:19Z</time>
      </trkpt>
      <trkpt lat="47.77831" lon="7.00229">
        <ele>432.79998779297</ele>
        <time>2017-07-21T12:00:22Z</time>
      </trkpt>
      <trkpt lat="47.7782" lon="7.00221">
        <ele>432.20001220703</ele>
        <time>2017-07-21T12:00:23Z</time>
      </trkpt>
      <trkpt lat="47.77808" lon="7.00214">
        <ele>431.39999389648</ele>
        <time>2017-07-21T12:00:24Z</time>
      </trkpt>
      <trkpt lat="47.77784" lon="7.00196">
        <ele>429.79998779297</ele>
        <time>2017-07-21T12:00:26Z</time>
      </trkpt>
      <trkpt lat="47.77759" lon="7.00179">
        <ele>427.79998779297</ele>
        <time>2017-07-21T12:00:28Z</time>
      </trkpt>
      <trkpt lat="47.77747" lon="7.0017">
        <ele>426.79998779297</ele>
        <time>2017-07-21T12:00:29Z</time>
      </trkpt>
      <trkpt lat="47.77736" lon="7.00161">
        <ele>425.60000610352</ele>
        <time>2017-07-21T12:00:30Z</time>
      </trkpt>
      <trkpt lat="47.77724" lon="7.0015">
        <ele>424.39999389648</ele>
        <time>2017-07-21T12:00:31Z</time>
      </trkpt>
      <trkpt lat="47.77713" lon="7.00139">
        <ele>423.20001220703</ele>
        <time>2017-07-21T12:00:32Z</time>
      </trkpt>
      <trkpt lat="47.77703" lon="7.00126">
        <ele>422.20001220703</ele>
        <time>2017-07-21T12:00:33Z</time>
      </trkpt>
      <trkpt lat="47.77693" lon="7.00114">
        <ele>421</ele>
        <time>2017-07-21T12:00:34Z</time>
      </trkpt>
      <trkpt lat="47.77684" lon="7.00103">
        <ele>419.79998779297</ele>
        <time>2017-07-21T12:00:35Z</time>
      </trkpt>
      <trkpt lat="47.77675" lon="7.00091">
        <ele>418.79998779297</ele>
        <time>2017-07-21T12:00:36Z</time>
      </trkpt>
      <trkpt lat="47.77666" lon="7.00079">
        <ele>417.79998779297</ele>
        <time>2017-07-21T12:00:37Z</time>
      </trkpt>
      <trkpt lat="47.77658" lon="7.00066">
        <ele>416.79998779297</ele>
        <time>2017-07-21T12:00:38Z</time>
      </trkpt>
      <trkpt lat="47.77642" lon="7.00042">
        <ele>413.60000610352</ele>
        <time>2017-07-21T12:00:40Z</time>
      </trkpt>
      <trkpt lat="47.77635" lon="7.00031">
        <ele>412.60000610352</ele>
        <time>2017-07-21T12:00:41Z</time>
      </trkpt>
      <trkpt lat="47.77629" lon="7.0002">
        <ele>411.60000610352</ele>
        <time>2017-07-21T12:00:42Z</time>
      </trkpt>
      <trkpt lat="47.77616" lon="6.99999">
        <ele>409.60000610352</ele>
        <time>2017-07-21T12:00:44Z</time>
      </trkpt>
      <trkpt lat="47.77604" lon="6.9998">
        <ele>408.39999389648</ele>
        <time>2017-07-21T12:00:46Z</time>
      </trkpt>
      <trkpt lat="47.77599" lon="6.99971">
        <ele>408</ele>
        <time>2017-07-21T12:00:47Z</time>
      </trkpt>
      <trkpt lat="47.77568" lon="6.99925">
        <ele>407.60000610352</ele>
        <time>2017-07-21T12:00:53Z</time>
      </trkpt>
      <trkpt lat="47.7756" lon="6.99911">
        <ele>407.39999389648</ele>
        <time>2017-07-21T12:00:55Z</time>
      </trkpt>
      <trkpt lat="47.77546" lon="6.99889">
        <ele>407</ele>
        <time>2017-07-21T12:00:59Z</time>
      </trkpt>
      <trkpt lat="47.77538" lon="6.99875">
        <ele>406.39999389648</ele>
        <time>2017-07-21T12:01:03Z</time>
      </trkpt>
      <trkpt lat="47.77537" lon="6.99873">
        <ele>406.20001220703</ele>
        <time>2017-07-21T12:01:04Z</time>
      </trkpt>
      <trkpt lat="47.77535" lon="6.9987">
        <ele>405.39999389648</ele>
        <time>2017-07-21T12:01:27Z</time>
      </trkpt>
      <trkpt lat="47.77535" lon="6.99868">
        <ele>405.39999389648</ele>
        <time>2017-07-21T12:01:28Z</time>
      </trkpt>
      <trkpt lat="47.77534" lon="6.99866">
        <ele>405.39999389648</ele>
        <time>2017-07-21T12:01:29Z</time>
      </trkpt>
      <trkpt lat="47.77527" lon="6.9986">
        <ele>405.60000610352</ele>
        <time>2017-07-21T12:01:32Z</time>
      </trkpt>
      <trkpt lat="47.7751" lon="6.99838">
        <ele>405.60000610352</ele>
        <time>2017-07-21T12:01:38Z</time>
      </trkpt>
      <trkpt lat="47.77487" lon="6.99805">
        <ele>405.20001220703</ele>
        <time>2017-07-21T12:01:45Z</time>
      </trkpt>
      <trkpt lat="47.77484" lon="6.998">
        <ele>405</ele>
        <time>2017-07-21T12:01:46Z</time>
      </trkpt>
      <trkpt lat="47.77473" lon="6.99782">
        <ele>405</ele>
        <time>2017-07-21T12:01:51Z</time>
      </trkpt>
      <trkpt lat="47.77466" lon="6.99764">
        <ele>404.39999389648</ele>
        <time>2017-07-21T12:01:57Z</time>
      </trkpt>
      <trkpt lat="47.7746" lon="6.99757">
        <ele>404.20001220703</ele>
        <time>2017-07-21T12:02:01Z</time>
      </trkpt>
      <trkpt lat="47.77457" lon="6.99758">
        <ele>404.20001220703</ele>
        <time>2017-07-21T12:02:02Z</time>
      </trkpt>
      <trkpt lat="47.77444" lon="6.99752">
        <ele>404.20001220703</ele>
        <time>2017-07-21T12:02:07Z</time>
      </trkpt>
      <trkpt lat="47.77432" lon="6.99749">
        <ele>404.20001220703</ele>
        <time>2017-07-21T12:02:12Z</time>
      </trkpt>
      <trkpt lat="47.77426" lon="6.99745">
        <ele>404.20001220703</ele>
        <time>2017-07-21T12:02:14Z</time>
      </trkpt>
      <trkpt lat="47.77415" lon="6.99739">
        <ele>404.39999389648</ele>
        <time>2017-07-21T12:02:18Z</time>
      </trkpt>
      <trkpt lat="47.77404" lon="6.99734">
        <ele>404.60000610352</ele>
        <time>2017-07-21T12:03:10Z</time>
      </trkpt>
      <trkpt lat="47.774" lon="6.99732">
        <ele>404.60000610352</ele>
        <time>2017-07-21T12:03:12Z</time>
      </trkpt>
      <trkpt lat="47.77397" lon="6.9973">
        <ele>404.60000610352</ele>
        <time>2017-07-21T12:03:13Z</time>
      </trkpt>
      <trkpt lat="47.77391" lon="6.99725">
        <ele>404.79998779297</ele>
        <time>2017-07-21T12:03:15Z</time>
      </trkpt>
      <trkpt lat="47.77384" lon="6.99721">
        <ele>405</ele>
        <time>2017-07-21T12:03:17Z</time>
      </trkpt>
      <trkpt lat="47.77358" lon="6.99707">
        <ele>405.60000610352</ele>
        <time>2017-07-21T12:03:26Z</time>
      </trkpt>
      <trkpt lat="47.77346" lon="6.99703">
        <ele>405.79998779297</ele>
        <time>2017-07-21T12:03:31Z</time>
      </trkpt>
      <trkpt lat="47.77342" lon="6.99698">
        <ele>406.20001220703</ele>
        <time>2017-07-21T12:04:18Z</time>
      </trkpt>
      <trkpt lat="47.77344" lon="6.99698">
        <ele>406.39999389648</ele>
        <time>2017-07-21T12:04:20Z</time>
      </trkpt>
      <trkpt lat="47.77353" lon="6.99705">
        <ele>406.60000610352</ele>
        <time>2017-07-21T12:04:25Z</time>
      </trkpt>
      <trkpt lat="47.77366" lon="6.99712">
        <ele>406.20001220703</ele>
        <time>2017-07-21T12:04:29Z</time>
      </trkpt>
      <trkpt lat="47.77373" lon="6.99716">
        <ele>405.79998779297</ele>
        <time>2017-07-21T12:04:31Z</time>
      </trkpt>
      <trkpt lat="47.77393" lon="6.99727">
        <ele>405.79998779297</ele>
        <time>2017-07-21T12:04:37Z</time>
      </trkpt>
      <trkpt lat="47.77411" lon="6.99738">
        <ele>405.39999389648</ele>
        <time>2017-07-21T12:04:42Z</time>
      </trkpt>
      <trkpt lat="47.77415" lon="6.99741">
        <ele>405.39999389648</ele>
        <time>2017-07-21T12:04:43Z</time>
      </trkpt>
      <trkpt lat="47.77422" lon="6.99745">
        <ele>405.20001220703</ele>
        <time>2017-07-21T12:04:45Z</time>
      </trkpt>
      <trkpt lat="47.77428" lon="6.99749">
        <ele>404.79998779297</ele>
        <time>2017-07-21T12:04:48Z</time>
      </trkpt>
      <trkpt lat="47.77428" lon="6.99751">
        <ele>404.39999389648</ele>
        <time>2017-07-21T12:04:49Z</time>
      </trkpt>
      <trkpt lat="47.77428" lon="6.99758">
        <ele>404.20001220703</ele>
        <time>2017-07-21T12:04:51Z</time>
      </trkpt>
      <trkpt lat="47.77425" lon="6.99763">
        <ele>404</ele>
        <time>2017-07-21T12:04:53Z</time>
      </trkpt>
      <trkpt lat="47.7742" lon="6.99777">
        <ele>404</ele>
        <time>2017-07-21T12:04:57Z</time>
      </trkpt>
      <trkpt lat="47.77412" lon="6.99811">
        <ele>403.79998779297</ele>
        <time>2017-07-21T12:05:03Z</time>
      </trkpt>
      <trkpt lat="47.77411" lon="6.99826">
        <ele>403.60000610352</ele>
        <time>2017-07-21T12:05:05Z</time>
      </trkpt>
      <trkpt lat="47.77412" lon="6.9985">
        <ele>403.39999389648</ele>
        <time>2017-07-21T12:05:09Z</time>
      </trkpt>
      <trkpt lat="47.77408" lon="6.99876">
        <ele>403.39999389648</ele>
        <time>2017-07-21T12:05:15Z</time>
      </trkpt>
      <trkpt lat="47.77403" lon="6.99912">
        <ele>403.39999389648</ele>
        <time>2017-07-21T12:05:21Z</time>
      </trkpt>
      <trkpt lat="47.77399" lon="6.99946">
        <ele>403.39999389648</ele>
        <time>2017-07-21T12:05:27Z</time>
      </trkpt>
      <trkpt lat="47.77397" lon="6.99958">
        <ele>403.20001220703</ele>
        <time>2017-07-21T12:05:29Z</time>
      </trkpt>
      <trkpt lat="47.77389" lon="6.99976">
        <ele>403</ele>
        <time>2017-07-21T12:05:33Z</time>
      </trkpt>
      <trkpt lat="47.77377" lon="6.99997">
        <ele>403</ele>
        <time>2017-07-21T12:05:39Z</time>
      </trkpt>
      <trkpt lat="47.77365" lon="7.00029">
        <ele>402.60000610352</ele>
        <time>2017-07-21T12:05:46Z</time>
      </trkpt>
      <trkpt lat="47.77369" lon="7.00038">
        <ele>402.60000610352</ele>
        <time>2017-07-21T12:05:48Z</time>
      </trkpt>
      <trkpt lat="47.77373" lon="7.00039">
        <ele>402.60000610352</ele>
        <time>2017-07-21T12:05:49Z</time>
      </trkpt>
      <trkpt lat="47.77385" lon="7.00051">
        <ele>402.60000610352</ele>
        <time>2017-07-21T12:05:53Z</time>
      </trkpt>
      <trkpt lat="47.77387" lon="7.00055">
        <ele>402.79998779297</ele>
        <time>2017-07-21T12:05:54Z</time>
      </trkpt>
      <trkpt lat="47.7739" lon="7.00063">
        <ele>402.79998779297</ele>
        <time>2017-07-21T12:05:57Z</time>
      </trkpt>
      <trkpt lat="47.77389" lon="7.00064">
        <ele>402.79998779297</ele>
        <time>2017-07-21T12:05:58Z</time>
      </trkpt>
      <trkpt lat="47.77386" lon="7.00059">
        <ele>402.79998779297</ele>
        <time>2017-07-21T12:06:01Z</time>
      </trkpt>
      <trkpt lat="47.77385" lon="7.00058">
        <ele>402.79998779297</ele>
        <time>2017-07-21T12:06:02Z</time>
      </trkpt>
      <trkpt lat="47.77381" lon="7.00059">
        <ele>402.79998779297</ele>
        <time>2017-07-21T12:06:05Z</time>
      </trkpt>
      <trkpt lat="47.77374" lon="7.00064">
        <ele>402.79998779297</ele>
        <time>2017-07-21T12:06:10Z</time>
      </trkpt>
      <trkpt lat="47.77372" lon="7.0007">
        <ele>402.60000610352</ele>
        <time>2017-07-21T12:06:13Z</time>
      </trkpt>
      <trkpt lat="47.7737" lon="7.00073">
        <ele>402.60000610352</ele>
        <time>2017-07-21T12:06:14Z</time>
      </trkpt>
      <trkpt lat="47.77369" lon="7.00081">
        <ele>402.60000610352</ele>
        <time>2017-07-21T12:06:16Z</time>
      </trkpt>
      <trkpt lat="47.7737" lon="7.00085">
        <ele>402.79998779297</ele>
        <time>2017-07-21T12:06:17Z</time>
      </trkpt>
      <trkpt lat="47.77369" lon="7.00098">
        <ele>402.79998779297</ele>
        <time>2017-07-21T12:06:21Z</time>
      </trkpt>
      <trkpt lat="47.77367" lon="7.00107">
        <ele>403</ele>
        <time>2017-07-21T12:06:26Z</time>
      </trkpt>
      <trkpt lat="47.77365" lon="7.0011">
        <ele>403</ele>
        <time>2017-07-21T12:06:28Z</time>
      </trkpt>
      <trkpt lat="47.77343" lon="7.00028">
        <ele>408.79998779297</ele>
        <time>2017-07-21T13:03:36Z</time>
      </trkpt>
      <trkpt lat="47.77343" lon="7.00032">
        <ele>408.79998779297</ele>
        <time>2017-07-21T13:03:48Z</time>
      </trkpt>
      <trkpt lat="47.77345" lon="7.00034">
        <ele>408.79998779297</ele>
        <time>2017-07-21T13:03:50Z</time>
      </trkpt>
      <trkpt lat="47.7735" lon="7.00043">
        <ele>408.79998779297</ele>
        <time>2017-07-21T13:03:56Z</time>
      </trkpt>
      <trkpt lat="47.77357" lon="7.00041">
        <ele>409</ele>
        <time>2017-07-21T13:04:00Z</time>
      </trkpt>
      <trkpt lat="47.77365" lon="7.00034">
        <ele>409</ele>
        <time>2017-07-21T13:04:04Z</time>
      </trkpt>
      <trkpt lat="47.77371" lon="7.00036">
        <ele>409.20001220703</ele>
        <time>2017-07-21T13:04:06Z</time>
      </trkpt>
      <trkpt lat="47.7738" lon="7.00047">
        <ele>409.39999389648</ele>
        <time>2017-07-21T13:04:10Z</time>
      </trkpt>
      <trkpt lat="47.77393" lon="7.00067">
        <ele>409.60000610352</ele>
        <time>2017-07-21T13:04:16Z</time>
      </trkpt>
      <trkpt lat="47.77408" lon="7.0009">
        <ele>409.79998779297</ele>
        <time>2017-07-21T13:04:22Z</time>
      </trkpt>
      <trkpt lat="47.7741" lon="7.00094">
        <ele>409.79998779297</ele>
        <time>2017-07-21T13:04:23Z</time>
      </trkpt>
      <trkpt lat="47.77427" lon="7.00115">
        <ele>410</ele>
        <time>2017-07-21T13:04:29Z</time>
      </trkpt>
      <trkpt lat="47.77444" lon="7.0013">
        <ele>410.20001220703</ele>
        <time>2017-07-21T13:04:35Z</time>
      </trkpt>
      <trkpt lat="47.77462" lon="7.00151">
        <ele>410.20001220703</ele>
        <time>2017-07-21T13:04:41Z</time>
      </trkpt>
      <trkpt lat="47.77478" lon="7.00169">
        <ele>410</ele>
        <time>2017-07-21T13:04:47Z</time>
      </trkpt>
      <trkpt lat="47.77485" lon="7.00177">
        <ele>410</ele>
        <time>2017-07-21T13:04:50Z</time>
      </trkpt>
      <trkpt lat="47.77491" lon="7.00179">
        <ele>410</ele>
        <time>2017-07-21T13:04:52Z</time>
      </trkpt>
      <trkpt lat="47.77503" lon="7.00175">
        <ele>410</ele>
        <time>2017-07-21T13:04:56Z</time>
      </trkpt>
      <trkpt lat="47.77505" lon="7.00174">
        <ele>410.20001220703</ele>
        <time>2017-07-21T13:04:57Z</time>
      </trkpt>
      <trkpt lat="47.77516" lon="7.00165">
        <ele>410.79998779297</ele>
        <time>2017-07-21T13:05:01Z</time>
      </trkpt>
      <trkpt lat="47.77519" lon="7.00164">
        <ele>411</ele>
        <time>2017-07-21T13:05:02Z</time>
      </trkpt>
      <trkpt lat="47.77545" lon="7.00149">
        <ele>411.60000610352</ele>
        <time>2017-07-21T13:05:10Z</time>
      </trkpt>
      <trkpt lat="47.7756" lon="7.00137">
        <ele>411.79998779297</ele>
        <time>2017-07-21T13:05:15Z</time>
      </trkpt>
      <trkpt lat="47.77563" lon="7.00134">
        <ele>412</ele>
        <time>2017-07-21T13:05:16Z</time>
      </trkpt>
      <trkpt lat="47.77577" lon="7.00119">
        <ele>412.20001220703</ele>
        <time>2017-07-21T13:05:21Z</time>
      </trkpt>
      <trkpt lat="47.77601" lon="7.00093">
        <ele>412.39999389648</ele>
        <time>2017-07-21T13:05:29Z</time>
      </trkpt>
      <trkpt lat="47.77624" lon="7.00076">
        <ele>413</ele>
        <time>2017-07-21T13:05:37Z</time>
      </trkpt>
      <trkpt lat="47.77639" lon="7.00058">
        <ele>413.79998779297</ele>
        <time>2017-07-21T13:05:44Z</time>
      </trkpt>
      <trkpt lat="47.77639" lon="7.00056">
        <ele>413.79998779297</ele>
        <time>2017-07-21T13:05:45Z</time>
      </trkpt>
      <trkpt lat="47.77642" lon="7.00051">
        <ele>413.79998779297</ele>
        <time>2017-07-21T13:05:49Z</time>
      </trkpt>
      <trkpt lat="47.77644" lon="7.00049">
        <ele>413.79998779297</ele>
        <time>2017-07-21T13:05:50Z</time>
      </trkpt>
      <trkpt lat="47.77648" lon="7.00042">
        <ele>413.79998779297</ele>
        <time>2017-07-21T13:05:54Z</time>
      </trkpt>
      <trkpt lat="47.77657" lon="7.00026">
        <ele>413.79998779297</ele>
        <time>2017-07-21T13:05:59Z</time>
      </trkpt>
      <trkpt lat="47.77672" lon="6.99999">
        <ele>413.79998779297</ele>
        <time>2017-07-21T13:06:05Z</time>
      </trkpt>
      <trkpt lat="47.77678" lon="6.99984">
        <ele>414</ele>
        <time>2017-07-21T13:06:08Z</time>
      </trkpt>
      <trkpt lat="47.7769" lon="6.99959">
        <ele>414.60000610352</ele>
        <time>2017-07-21T13:06:13Z</time>
      </trkpt>
      <trkpt lat="47.77706" lon="6.99924">
        <ele>415.20001220703</ele>
        <time>2017-07-21T13:06:20Z</time>
      </trkpt>
      <trkpt lat="47.77723" lon="6.99892">
        <ele>415.79998779297</ele>
        <time>2017-07-21T13:06:27Z</time>
      </trkpt>
      <trkpt lat="47.77731" lon="6.99875">
        <ele>416.20001220703</ele>
        <time>2017-07-21T13:06:31Z</time>
      </trkpt>
      <trkpt lat="47.77738" lon="6.99861">
        <ele>416.39999389648</ele>
        <time>2017-07-21T13:06:34Z</time>
      </trkpt>
      <trkpt lat="47.77756" lon="6.99826">
        <ele>417</ele>
        <time>2017-07-21T13:06:42Z</time>
      </trkpt>
      <trkpt lat="47.7776" lon="6.99818">
        <ele>417.20001220703</ele>
        <time>2017-07-21T13:06:44Z</time>
      </trkpt>
      <trkpt lat="47.77768" lon="6.998">
        <ele>417.60000610352</ele>
        <time>2017-07-21T13:06:48Z</time>
      </trkpt>
      <trkpt lat="47.77772" lon="6.99791">
        <ele>417.60000610352</ele>
        <time>2017-07-21T13:06:50Z</time>
      </trkpt>
      <trkpt lat="47.77785" lon="6.99759">
        <ele>417.79998779297</ele>
        <time>2017-07-21T13:06:58Z</time>
      </trkpt>
      <trkpt lat="47.77785" lon="6.99753">
        <ele>417.79998779297</ele>
        <time>2017-07-21T13:07:00Z</time>
      </trkpt>
      <trkpt lat="47.77784" lon="6.9975">
        <ele>417.79998779297</ele>
        <time>2017-07-21T13:07:01Z</time>
      </trkpt>
      <trkpt lat="47.77773" lon="6.9974">
        <ele>417.60000610352</ele>
        <time>2017-07-21T13:07:05Z</time>
      </trkpt>
      <trkpt lat="47.77766" lon="6.99733">
        <ele>417.39999389648</ele>
        <time>2017-07-21T13:07:07Z</time>
      </trkpt>
      <trkpt lat="47.7775" lon="6.99717">
        <ele>417.60000610352</ele>
        <time>2017-07-21T13:07:12Z</time>
      </trkpt>
      <trkpt lat="47.7773" lon="6.99693">
        <ele>418.39999389648</ele>
        <time>2017-07-21T13:07:19Z</time>
      </trkpt>
      <trkpt lat="47.77712" lon="6.9967">
        <ele>418.79998779297</ele>
        <time>2017-07-21T13:07:25Z</time>
      </trkpt>
      <trkpt lat="47.77705" lon="6.99661">
        <ele>418.60000610352</ele>
        <time>2017-07-21T13:07:27Z</time>
      </trkpt>
      <trkpt lat="47.7769" lon="6.99643">
        <ele>418</ele>
        <time>2017-07-21T13:07:32Z</time>
      </trkpt>
      <trkpt lat="47.77686" lon="6.99636">
        <ele>417.60000610352</ele>
        <time>2017-07-21T13:07:36Z</time>
      </trkpt>
      <trkpt lat="47.77685" lon="6.99629">
        <ele>417.20001220703</ele>
        <time>2017-07-21T13:07:39Z</time>
      </trkpt>
      <trkpt lat="47.77687" lon="6.99626">
        <ele>417.20001220703</ele>
        <time>2017-07-21T13:07:40Z</time>
      </trkpt>
      <trkpt lat="47.77691" lon="6.99619">
        <ele>417.20001220703</ele>
        <time>2017-07-21T13:07:43Z</time>
      </trkpt>
      <trkpt lat="47.77694" lon="6.99613">
        <ele>417.39999389648</ele>
        <time>2017-07-21T13:07:45Z</time>
      </trkpt>
      <trkpt lat="47.77707" lon="6.99594">
        <ele>417.79998779297</ele>
        <time>2017-07-21T13:07:51Z</time>
      </trkpt>
      <trkpt lat="47.7773" lon="6.99558">
        <ele>418.39999389648</ele>
        <time>2017-07-21T13:08:00Z</time>
      </trkpt>
      <trkpt lat="47.77751" lon="6.99532">
        <ele>419</ele>
        <time>2017-07-21T13:08:07Z</time>
      </trkpt>
      <trkpt lat="47.77781" lon="6.99501">
        <ele>419.39999389648</ele>
        <time>2017-07-21T13:08:16Z</time>
      </trkpt>
      <trkpt lat="47.77812" lon="6.9947">
        <ele>420.20001220703</ele>
        <time>2017-07-21T13:08:25Z</time>
      </trkpt>
      <trkpt lat="47.77819" lon="6.99463">
        <ele>420.39999389648</ele>
        <time>2017-07-21T13:08:27Z</time>
      </trkpt>
      <trkpt lat="47.77822" lon="6.99459">
        <ele>420.60000610352</ele>
        <time>2017-07-21T13:08:28Z</time>
      </trkpt>
      <trkpt lat="47.77835" lon="6.99444">
        <ele>420.79998779297</ele>
        <time>2017-07-21T13:08:32Z</time>
      </trkpt>
      <trkpt lat="47.7786" lon="6.9941">
        <ele>421.60000610352</ele>
        <time>2017-07-21T13:08:41Z</time>
      </trkpt>
      <trkpt lat="47.77881" lon="6.99378">
        <ele>422.39999389648</ele>
        <time>2017-07-21T13:08:49Z</time>
      </trkpt>
      <trkpt lat="47.77892" lon="6.99363">
        <ele>422.60000610352</ele>
        <time>2017-07-21T13:08:53Z</time>
      </trkpt>
      <trkpt lat="47.77903" lon="6.99346">
        <ele>423</ele>
        <time>2017-07-21T13:08:58Z</time>
      </trkpt>
      <trkpt lat="47.77912" lon="6.99335">
        <ele>423.60000610352</ele>
        <time>2017-07-21T13:09:03Z</time>
      </trkpt>
      <trkpt lat="47.77913" lon="6.99335">
        <ele>423.60000610352</ele>
        <time>2017-07-21T13:09:04Z</time>
      </trkpt>
      <trkpt lat="47.77914" lon="6.99334">
        <ele>423.60000610352</ele>
        <time>2017-07-21T13:09:05Z</time>
      </trkpt>
      <trkpt lat="47.77915" lon="6.99333">
        <ele>423.79998779297</ele>
        <time>2017-07-21T13:09:11Z</time>
      </trkpt>
      <trkpt lat="47.77918" lon="6.99329">
        <ele>423.79998779297</ele>
        <time>2017-07-21T13:09:13Z</time>
      </trkpt>
      <trkpt lat="47.7792" lon="6.99325">
        <ele>423.79998779297</ele>
        <time>2017-07-21T13:09:15Z</time>
      </trkpt>
      <trkpt lat="47.77927" lon="6.99322">
        <ele>423.79998779297</ele>
        <time>2017-07-21T13:09:18Z</time>
      </trkpt>
      <trkpt lat="47.77929" lon="6.99321">
        <ele>423.79998779297</ele>
        <time>2017-07-21T13:09:19Z</time>
      </trkpt>
      <trkpt lat="47.77942" lon="6.99321">
        <ele>423.60000610352</ele>
        <time>2017-07-21T13:09:23Z</time>
      </trkpt>
      <trkpt lat="47.77961" lon="6.99325">
        <ele>423.39999389648</ele>
        <time>2017-07-21T13:09:29Z</time>
      </trkpt>
      <trkpt lat="47.77963" lon="6.99323">
        <ele>423.39999389648</ele>
        <time>2017-07-21T13:09:30Z</time>
      </trkpt>
      <trkpt lat="47.77967" lon="6.99315">
        <ele>423.60000610352</ele>
        <time>2017-07-21T13:09:33Z</time>
      </trkpt>
      <trkpt lat="47.77967" lon="6.99296">
        <ele>423.60000610352</ele>
        <time>2017-07-21T13:09:37Z</time>
      </trkpt>
      <trkpt lat="47.77967" lon="6.99246">
        <ele>424</ele>
        <time>2017-07-21T13:09:46Z</time>
      </trkpt>
      <trkpt lat="47.77972" lon="6.9921">
        <ele>424</ele>
        <time>2017-07-21T13:09:52Z</time>
      </trkpt>
      <trkpt lat="47.77977" lon="6.99161">
        <ele>423.39999389648</ele>
        <time>2017-07-21T13:10:00Z</time>
      </trkpt>
      <trkpt lat="47.77977" lon="6.99137">
        <ele>423.60000610352</ele>
        <time>2017-07-21T13:10:04Z</time>
      </trkpt>
      <trkpt lat="47.77978" lon="6.99112">
        <ele>423.79998779297</ele>
        <time>2017-07-21T13:10:08Z</time>
      </trkpt>
      <trkpt lat="47.77978" lon="6.99066">
        <ele>424</ele>
        <time>2017-07-21T13:10:15Z</time>
      </trkpt>
      <trkpt lat="47.77975" lon="6.99013">
        <ele>424</ele>
        <time>2017-07-21T13:10:23Z</time>
      </trkpt>
      <trkpt lat="47.77964" lon="6.98957">
        <ele>423.60000610352</ele>
        <time>2017-07-21T13:10:31Z</time>
      </trkpt>
      <trkpt lat="47.77956" lon="6.98918">
        <ele>423.60000610352</ele>
        <time>2017-07-21T13:10:37Z</time>
      </trkpt>
      <trkpt lat="47.77942" lon="6.98873">
        <ele>424.20001220703</ele>
        <time>2017-07-21T13:10:45Z</time>
      </trkpt>
      <trkpt lat="47.77929" lon="6.98835">
        <ele>424.39999389648</ele>
        <time>2017-07-21T13:10:52Z</time>
      </trkpt>
      <trkpt lat="47.77921" lon="6.98814">
        <ele>424.79998779297</ele>
        <time>2017-07-21T13:10:56Z</time>
      </trkpt>
      <trkpt lat="47.77917" lon="6.98797">
        <ele>424.79998779297</ele>
        <time>2017-07-21T13:10:59Z</time>
      </trkpt>
      <trkpt lat="47.77911" lon="6.98772">
        <ele>425</ele>
        <time>2017-07-21T13:11:04Z</time>
      </trkpt>
      <trkpt lat="47.77905" lon="6.98738">
        <ele>425.20001220703</ele>
        <time>2017-07-21T13:11:10Z</time>
      </trkpt>
      <trkpt lat="47.77899" lon="6.98694">
        <ele>425.39999389648</ele>
        <time>2017-07-21T13:11:17Z</time>
      </trkpt>
      <trkpt lat="47.77899" lon="6.98687">
        <ele>425.60000610352</ele>
        <time>2017-07-21T13:11:18Z</time>
      </trkpt>
      <trkpt lat="47.77898" lon="6.98647">
        <ele>425.79998779297</ele>
        <time>2017-07-21T13:11:24Z</time>
      </trkpt>
      <trkpt lat="47.77899" lon="6.98628">
        <ele>426</ele>
        <time>2017-07-21T13:11:27Z</time>
      </trkpt>
      <trkpt lat="47.77905" lon="6.98587">
        <ele>426.20001220703</ele>
        <time>2017-07-21T13:11:34Z</time>
      </trkpt>
      <trkpt lat="47.77914" lon="6.98545">
        <ele>426.39999389648</ele>
        <time>2017-07-21T13:11:41Z</time>
      </trkpt>
      <trkpt lat="47.77925" lon="6.98497">
        <ele>426.60000610352</ele>
        <time>2017-07-21T13:11:49Z</time>
      </trkpt>
      <trkpt lat="47.77934" lon="6.98452">
        <ele>426.79998779297</ele>
        <time>2017-07-21T13:11:56Z</time>
      </trkpt>
      <trkpt lat="47.77936" lon="6.98432">
        <ele>426.79998779297</ele>
        <time>2017-07-21T13:11:59Z</time>
      </trkpt>
      <trkpt lat="47.77939" lon="6.98414">
        <ele>427</ele>
        <time>2017-07-21T13:12:02Z</time>
      </trkpt>
      <trkpt lat="47.77941" lon="6.98409">
        <ele>427</ele>
        <time>2017-07-21T13:12:03Z</time>
      </trkpt>
      <trkpt lat="47.77944" lon="6.98391">
        <ele>427.20001220703</ele>
        <time>2017-07-21T13:12:06Z</time>
      </trkpt>
      <trkpt lat="47.77947" lon="6.98378">
        <ele>427.39999389648</ele>
        <time>2017-07-21T13:12:08Z</time>
      </trkpt>
      <trkpt lat="47.77958" lon="6.98331">
        <ele>427.79998779297</ele>
        <time>2017-07-21T13:12:16Z</time>
      </trkpt>
      <trkpt lat="47.77959" lon="6.98324">
        <ele>427.79998779297</ele>
        <time>2017-07-21T13:12:17Z</time>
      </trkpt>
      <trkpt lat="47.77969" lon="6.98275">
        <ele>428.20001220703</ele>
        <time>2017-07-21T13:12:25Z</time>
      </trkpt>
      <trkpt lat="47.77979" lon="6.98227">
        <ele>428.60000610352</ele>
        <time>2017-07-21T13:12:33Z</time>
      </trkpt>
      <trkpt lat="47.77985" lon="6.98203">
        <ele>428.79998779297</ele>
        <time>2017-07-21T13:12:37Z</time>
      </trkpt>
      <trkpt lat="47.7799" lon="6.9818">
        <ele>429</ele>
        <time>2017-07-21T13:12:41Z</time>
      </trkpt>
      <trkpt lat="47.77994" lon="6.98161">
        <ele>429</ele>
        <time>2017-07-21T13:12:44Z</time>
      </trkpt>
      <trkpt lat="47.77999" lon="6.98144">
        <ele>429.20001220703</ele>
        <time>2017-07-21T13:12:47Z</time>
      </trkpt>
      <trkpt lat="47.78014" lon="6.98101">
        <ele>429.39999389648</ele>
        <time>2017-07-21T13:12:55Z</time>
      </trkpt>
      <trkpt lat="47.78031" lon="6.98068">
        <ele>429.60000610352</ele>
        <time>2017-07-21T13:13:02Z</time>
      </trkpt>
      <trkpt lat="47.78041" lon="6.98052">
        <ele>430</ele>
        <time>2017-07-21T13:13:06Z</time>
      </trkpt>
      <trkpt lat="47.78046" lon="6.98044">
        <ele>430</ele>
        <time>2017-07-21T13:13:08Z</time>
      </trkpt>
      <trkpt lat="47.78066" lon="6.98015">
        <ele>430.39999389648</ele>
        <time>2017-07-21T13:13:15Z</time>
      </trkpt>
      <trkpt lat="47.78084" lon="6.97988">
        <ele>430.60000610352</ele>
        <time>2017-07-21T13:13:21Z</time>
      </trkpt>
      <trkpt lat="47.78105" lon="6.97957">
        <ele>431</ele>
        <time>2017-07-21T13:13:27Z</time>
      </trkpt>
      <trkpt lat="47.78109" lon="6.97951">
        <ele>431</ele>
        <time>2017-07-21T13:13:28Z</time>
      </trkpt>
      <trkpt lat="47.78121" lon="6.97931">
        <ele>431.20001220703</ele>
        <time>2017-07-21T13:13:32Z</time>
      </trkpt>
      <trkpt lat="47.78127" lon="6.97917">
        <ele>431.60000610352</ele>
        <time>2017-07-21T13:13:36Z</time>
      </trkpt>
      <trkpt lat="47.78131" lon="6.9789">
        <ele>431.39999389648</ele>
        <time>2017-07-21T13:13:42Z</time>
      </trkpt>
      <trkpt lat="47.78142" lon="6.97864">
        <ele>431</ele>
        <time>2017-07-21T13:13:47Z</time>
      </trkpt>
      <trkpt lat="47.78162" lon="6.97815">
        <ele>431.20001220703</ele>
        <time>2017-07-21T13:13:55Z</time>
      </trkpt>
      <trkpt lat="47.78179" lon="6.97769">
        <ele>431.20001220703</ele>
        <time>2017-07-21T13:14:02Z</time>
      </trkpt>
      <trkpt lat="47.78199" lon="6.97724">
        <ele>431.39999389648</ele>
        <time>2017-07-21T13:14:09Z</time>
      </trkpt>
      <trkpt lat="47.78201" lon="6.97717">
        <ele>431.39999389648</ele>
        <time>2017-07-21T13:14:10Z</time>
      </trkpt>
      <trkpt lat="47.78214" lon="6.97684">
        <ele>431.60000610352</ele>
        <time>2017-07-21T13:14:15Z</time>
      </trkpt>
      <trkpt lat="47.78234" lon="6.97632">
        <ele>431.79998779297</ele>
        <time>2017-07-21T13:14:23Z</time>
      </trkpt>
      <trkpt lat="47.78239" lon="6.97619">
        <ele>432</ele>
        <time>2017-07-21T13:14:25Z</time>
      </trkpt>
      <trkpt lat="47.78252" lon="6.97588">
        <ele>432</ele>
        <time>2017-07-21T13:14:30Z</time>
      </trkpt>
      <trkpt lat="47.78268" lon="6.97545">
        <ele>432.20001220703</ele>
        <time>2017-07-21T13:14:37Z</time>
      </trkpt>
      <trkpt lat="47.78288" lon="6.97498">
        <ele>432.79998779297</ele>
        <time>2017-07-21T13:14:45Z</time>
      </trkpt>
      <trkpt lat="47.78301" lon="6.97462">
        <ele>433</ele>
        <time>2017-07-21T13:14:51Z</time>
      </trkpt>
      <trkpt lat="47.78303" lon="6.97456">
        <ele>433</ele>
        <time>2017-07-21T13:14:52Z</time>
      </trkpt>
      <trkpt lat="47.78311" lon="6.97438">
        <ele>433</ele>
        <time>2017-07-21T13:14:55Z</time>
      </trkpt>
      <trkpt lat="47.7832" lon="6.97414">
        <ele>433.20001220703</ele>
        <time>2017-07-21T13:14:59Z</time>
      </trkpt>
      <trkpt lat="47.7834" lon="6.97362">
        <ele>433.79998779297</ele>
        <time>2017-07-21T13:15:08Z</time>
      </trkpt>
      <trkpt lat="47.78345" lon="6.97351">
        <ele>434</ele>
        <time>2017-07-21T13:15:10Z</time>
      </trkpt>
      <trkpt lat="47.78356" lon="6.97323">
        <ele>434.20001220703</ele>
        <time>2017-07-21T13:15:15Z</time>
      </trkpt>
      <trkpt lat="47.78369" lon="6.97292">
        <ele>434.60000610352</ele>
        <time>2017-07-21T13:15:21Z</time>
      </trkpt>
      <trkpt lat="47.78378" lon="6.97265">
        <ele>435</ele>
        <time>2017-07-21T13:15:26Z</time>
      </trkpt>
      <trkpt lat="47.7838" lon="6.9726">
        <ele>435</ele>
        <time>2017-07-21T13:15:27Z</time>
      </trkpt>
      <trkpt lat="47.78394" lon="6.97228">
        <ele>435.39999389648</ele>
        <time>2017-07-21T13:15:33Z</time>
      </trkpt>
      <trkpt lat="47.78407" lon="6.97203">
        <ele>435.79998779297</ele>
        <time>2017-07-21T13:15:38Z</time>
      </trkpt>
      <trkpt lat="47.78416" lon="6.97182">
        <ele>436</ele>
        <time>2017-07-21T13:15:42Z</time>
      </trkpt>
      <trkpt lat="47.7842" lon="6.9717">
        <ele>436.20001220703</ele>
        <time>2017-07-21T13:15:44Z</time>
      </trkpt>
      <trkpt lat="47.78429" lon="6.97141">
        <ele>436.39999389648</ele>
        <time>2017-07-21T13:15:49Z</time>
      </trkpt>
      <trkpt lat="47.78431" lon="6.97135">
        <ele>436.39999389648</ele>
        <time>2017-07-21T13:15:50Z</time>
      </trkpt>
      <trkpt lat="47.78439" lon="6.97111">
        <ele>436.60000610352</ele>
        <time>2017-07-21T13:15:54Z</time>
      </trkpt>
      <trkpt lat="47.78448" lon="6.97095">
        <ele>436.79998779297</ele>
        <time>2017-07-21T13:15:57Z</time>
      </trkpt>
      <trkpt lat="47.78471" lon="6.97043">
        <ele>437</ele>
        <time>2017-07-21T13:16:06Z</time>
      </trkpt>
      <trkpt lat="47.78474" lon="6.97036">
        <ele>437</ele>
        <time>2017-07-21T13:16:07Z</time>
      </trkpt>
      <trkpt lat="47.78489" lon="6.96995">
        <ele>437.39999389648</ele>
        <time>2017-07-21T13:16:14Z</time>
      </trkpt>
      <trkpt lat="47.78508" lon="6.96949">
        <ele>437.79998779297</ele>
        <time>2017-07-21T13:16:22Z</time>
      </trkpt>
      <trkpt lat="47.7852" lon="6.96915">
        <ele>438.20001220703</ele>
        <time>2017-07-21T13:16:28Z</time>
      </trkpt>
      <trkpt lat="47.78531" lon="6.96886">
        <ele>438.60000610352</ele>
        <time>2017-07-21T13:16:33Z</time>
      </trkpt>
      <trkpt lat="47.78552" lon="6.96837">
        <ele>439.20001220703</ele>
        <time>2017-07-21T13:16:42Z</time>
      </trkpt>
      <trkpt lat="47.78557" lon="6.96826">
        <ele>439.39999389648</ele>
        <time>2017-07-21T13:16:44Z</time>
      </trkpt>
      <trkpt lat="47.78567" lon="6.96805">
        <ele>439.60000610352</ele>
        <time>2017-07-21T13:16:48Z</time>
      </trkpt>
      <trkpt lat="47.78587" lon="6.96773">
        <ele>440.20001220703</ele>
        <time>2017-07-21T13:16:55Z</time>
      </trkpt>
      <trkpt lat="47.7859" lon="6.96769">
        <ele>440.39999389648</ele>
        <time>2017-07-21T13:16:56Z</time>
      </trkpt>
      <trkpt lat="47.78614" lon="6.96734">
        <ele>440.60000610352</ele>
        <time>2017-07-21T13:17:03Z</time>
      </trkpt>
      <trkpt lat="47.78649" lon="6.9669">
        <ele>440.60000610352</ele>
        <time>2017-07-21T13:17:12Z</time>
      </trkpt>
      <trkpt lat="47.7869" lon="6.96646">
        <ele>440.60000610352</ele>
        <time>2017-07-21T13:17:22Z</time>
      </trkpt>
      <trkpt lat="47.78703" lon="6.96627">
        <ele>440.79998779297</ele>
        <time>2017-07-21T13:17:26Z</time>
      </trkpt>
      <trkpt lat="47.78709" lon="6.9662">
        <ele>441</ele>
        <time>2017-07-21T13:17:28Z</time>
      </trkpt>
      <trkpt lat="47.78729" lon="6.96599">
        <ele>441.20001220703</ele>
        <time>2017-07-21T13:17:34Z</time>
      </trkpt>
      <trkpt lat="47.78749" lon="6.96577">
        <ele>441.20001220703</ele>
        <time>2017-07-21T13:17:40Z</time>
      </trkpt>
      <trkpt lat="47.78752" lon="6.96574">
        <ele>441.20001220703</ele>
        <time>2017-07-21T13:17:41Z</time>
      </trkpt>
      <trkpt lat="47.7878" lon="6.96546">
        <ele>441.60000610352</ele>
        <time>2017-07-21T13:17:49Z</time>
      </trkpt>
      <trkpt lat="47.78798" lon="6.96525">
        <ele>441.79998779297</ele>
        <time>2017-07-21T13:17:54Z</time>
      </trkpt>
      <trkpt lat="47.78805" lon="6.96517">
        <ele>442</ele>
        <time>2017-07-21T13:17:56Z</time>
      </trkpt>
      <trkpt lat="47.78813" lon="6.96511">
        <ele>442</ele>
        <time>2017-07-21T13:17:58Z</time>
      </trkpt>
      <trkpt lat="47.78821" lon="6.96506">
        <ele>442.20001220703</ele>
        <time>2017-07-21T13:18:00Z</time>
      </trkpt>
      <trkpt lat="47.78825" lon="6.96503">
        <ele>442.39999389648</ele>
        <time>2017-07-21T13:18:01Z</time>
      </trkpt>
      <trkpt lat="47.78829" lon="6.965">
        <ele>442.60000610352</ele>
        <time>2017-07-21T13:18:02Z</time>
      </trkpt>
      <trkpt lat="47.7885" lon="6.96489">
        <ele>443</ele>
        <time>2017-07-21T13:18:07Z</time>
      </trkpt>
      <trkpt lat="47.78857" lon="6.96482">
        <ele>443</ele>
        <time>2017-07-21T13:18:09Z</time>
      </trkpt>
      <trkpt lat="47.78869" lon="6.96474">
        <ele>443.20001220703</ele>
        <time>2017-07-21T13:18:12Z</time>
      </trkpt>
      <trkpt lat="47.78884" lon="6.96464">
        <ele>443.39999389648</ele>
        <time>2017-07-21T13:18:16Z</time>
      </trkpt>
      <trkpt lat="47.789" lon="6.96453">
        <ele>443.60000610352</ele>
        <time>2017-07-21T13:18:20Z</time>
      </trkpt>
      <trkpt lat="47.78928" lon="6.96436">
        <ele>444</ele>
        <time>2017-07-21T13:18:27Z</time>
      </trkpt>
      <trkpt lat="47.78962" lon="6.96415">
        <ele>444.39999389648</ele>
        <time>2017-07-21T13:18:36Z</time>
      </trkpt>
      <trkpt lat="47.78974" lon="6.96408">
        <ele>444.60000610352</ele>
        <time>2017-07-21T13:18:39Z</time>
      </trkpt>
      <trkpt lat="47.7899" lon="6.96399">
        <ele>445</ele>
        <time>2017-07-21T13:18:43Z</time>
      </trkpt>
      <trkpt lat="47.79016" lon="6.9638">
        <ele>445.60000610352</ele>
        <time>2017-07-21T13:18:50Z</time>
      </trkpt>
      <trkpt lat="47.7902" lon="6.96378">
        <ele>445.60000610352</ele>
        <time>2017-07-21T13:18:51Z</time>
      </trkpt>
      <trkpt lat="47.79051" lon="6.96358">
        <ele>446</ele>
        <time>2017-07-21T13:18:59Z</time>
      </trkpt>
      <trkpt lat="47.79074" lon="6.96342">
        <ele>446.60000610352</ele>
        <time>2017-07-21T13:19:05Z</time>
      </trkpt>
      <trkpt lat="47.79103" lon="6.96328">
        <ele>447</ele>
        <time>2017-07-21T13:19:12Z</time>
      </trkpt>
      <trkpt lat="47.79131" lon="6.96309">
        <ele>447.60000610352</ele>
        <time>2017-07-21T13:19:19Z</time>
      </trkpt>
      <trkpt lat="47.7916" lon="6.96293">
        <ele>448</ele>
        <time>2017-07-21T13:19:26Z</time>
      </trkpt>
      <trkpt lat="47.79191" lon="6.96274">
        <ele>448.39999389648</ele>
        <time>2017-07-21T13:19:34Z</time>
      </trkpt>
      <trkpt lat="47.79198" lon="6.96269">
        <ele>448.60000610352</ele>
        <time>2017-07-21T13:19:36Z</time>
      </trkpt>
      <trkpt lat="47.79214" lon="6.9626">
        <ele>449</ele>
        <time>2017-07-21T13:19:40Z</time>
      </trkpt>
      <trkpt lat="47.79224" lon="6.96255">
        <ele>449.20001220703</ele>
        <time>2017-07-21T13:19:43Z</time>
      </trkpt>
      <trkpt lat="47.79235" lon="6.9625">
        <ele>449.60000610352</ele>
        <time>2017-07-21T13:19:46Z</time>
      </trkpt>
      <trkpt lat="47.79246" lon="6.96244">
        <ele>450</ele>
        <time>2017-07-21T13:19:49Z</time>
      </trkpt>
      <trkpt lat="47.79273" lon="6.96235">
        <ele>450.20001220703</ele>
        <time>2017-07-21T13:19:55Z</time>
      </trkpt>
      <trkpt lat="47.79311" lon="6.96214">
        <ele>450.60000610352</ele>
        <time>2017-07-21T13:20:04Z</time>
      </trkpt>
      <trkpt lat="47.79343" lon="6.96201">
        <ele>451.20001220703</ele>
        <time>2017-07-21T13:20:12Z</time>
      </trkpt>
      <trkpt lat="47.79364" lon="6.96196">
        <ele>451.60000610352</ele>
        <time>2017-07-21T13:20:17Z</time>
      </trkpt>
      <trkpt lat="47.79377" lon="6.96195">
        <ele>451.79998779297</ele>
        <time>2017-07-21T13:20:20Z</time>
      </trkpt>
      <trkpt lat="47.79411" lon="6.96197">
        <ele>452.39999389648</ele>
        <time>2017-07-21T13:20:28Z</time>
      </trkpt>
      <trkpt lat="47.79437" lon="6.96205">
        <ele>452.60000610352</ele>
        <time>2017-07-21T13:20:34Z</time>
      </trkpt>
      <trkpt lat="47.79441" lon="6.96207">
        <ele>452.79998779297</ele>
        <time>2017-07-21T13:20:35Z</time>
      </trkpt>
      <trkpt lat="47.79472" lon="6.96221">
        <ele>453.20001220703</ele>
        <time>2017-07-21T13:20:42Z</time>
      </trkpt>
      <trkpt lat="47.79489" lon="6.96223">
        <ele>453.79998779297</ele>
        <time>2017-07-21T13:20:46Z</time>
      </trkpt>
      <trkpt lat="47.79498" lon="6.96227">
        <ele>453.79998779297</ele>
        <time>2017-07-21T13:20:48Z</time>
      </trkpt>
      <trkpt lat="47.79518" lon="6.96232">
        <ele>453.79998779297</ele>
        <time>2017-07-21T13:20:52Z</time>
      </trkpt>
      <trkpt lat="47.79551" lon="6.9624">
        <ele>453.79998779297</ele>
        <time>2017-07-21T13:20:59Z</time>
      </trkpt>
      <trkpt lat="47.79585" lon="6.96234">
        <ele>453.79998779297</ele>
        <time>2017-07-21T13:21:06Z</time>
      </trkpt>
      <trkpt lat="47.79631" lon="6.96234">
        <ele>453.60000610352</ele>
        <time>2017-07-21T13:21:15Z</time>
      </trkpt>
      <trkpt lat="47.79679" lon="6.96231">
        <ele>453.79998779297</ele>
        <time>2017-07-21T13:21:24Z</time>
      </trkpt>
      <trkpt lat="47.79716" lon="6.96221">
        <ele>454</ele>
        <time>2017-07-21T13:21:31Z</time>
      </trkpt>
      <trkpt lat="47.79754" lon="6.96205">
        <ele>454</ele>
        <time>2017-07-21T13:21:38Z</time>
      </trkpt>
      <trkpt lat="47.7979" lon="6.96186">
        <ele>454</ele>
        <time>2017-07-21T13:21:45Z</time>
      </trkpt>
      <trkpt lat="47.79795" lon="6.96183">
        <ele>454</ele>
        <time>2017-07-21T13:21:46Z</time>
      </trkpt>
      <trkpt lat="47.79825" lon="6.9616">
        <ele>453.79998779297</ele>
        <time>2017-07-21T13:21:53Z</time>
      </trkpt>
      <trkpt lat="47.79852" lon="6.96133">
        <ele>454</ele>
        <time>2017-07-21T13:22:00Z</time>
      </trkpt>
      <trkpt lat="47.7986" lon="6.96123">
        <ele>453.79998779297</ele>
        <time>2017-07-21T13:22:04Z</time>
      </trkpt>
      <trkpt lat="47.79871" lon="6.96109">
        <ele>453.60000610352</ele>
        <time>2017-07-21T13:22:10Z</time>
      </trkpt>
      <trkpt lat="47.79879" lon="6.961">
        <ele>454.39999389648</ele>
        <time>2017-07-21T13:24:21Z</time>
      </trkpt>
      <trkpt lat="47.79887" lon="6.96088">
        <ele>454.39999389648</ele>
        <time>2017-07-21T13:24:26Z</time>
      </trkpt>
      <trkpt lat="47.79901" lon="6.96067">
        <ele>454.60000610352</ele>
        <time>2017-07-21T13:24:32Z</time>
      </trkpt>
      <trkpt lat="47.79906" lon="6.96059">
        <ele>454.79998779297</ele>
        <time>2017-07-21T13:24:34Z</time>
      </trkpt>
      <trkpt lat="47.79917" lon="6.96043">
        <ele>455.20001220703</ele>
        <time>2017-07-21T13:24:38Z</time>
      </trkpt>
      <trkpt lat="47.79934" lon="6.96011">
        <ele>455.79998779297</ele>
        <time>2017-07-21T13:24:45Z</time>
      </trkpt>
      <trkpt lat="47.79936" lon="6.96006">
        <ele>456</ele>
        <time>2017-07-21T13:24:46Z</time>
      </trkpt>
      <trkpt lat="47.79954" lon="6.95963">
        <ele>456.20001220703</ele>
        <time>2017-07-21T13:24:55Z</time>
      </trkpt>
      <trkpt lat="47.79966" lon="6.95924">
        <ele>456.60000610352</ele>
        <time>2017-07-21T13:25:03Z</time>
      </trkpt>
      <trkpt lat="47.79973" lon="6.95898">
        <ele>456.60000610352</ele>
        <time>2017-07-21T13:25:10Z</time>
      </trkpt>
      <trkpt lat="47.79974" lon="6.95897">
        <ele>456.60000610352</ele>
        <time>2017-07-21T13:25:11Z</time>
      </trkpt>
      <trkpt lat="47.79977" lon="6.95894">
        <ele>456.60000610352</ele>
        <time>2017-07-21T13:26:44Z</time>
      </trkpt>
      <trkpt lat="47.79982" lon="6.95884">
        <ele>456.60000610352</ele>
        <time>2017-07-21T13:26:49Z</time>
      </trkpt>
      <trkpt lat="47.79984" lon="6.95877">
        <ele>456.79998779297</ele>
        <time>2017-07-21T13:26:52Z</time>
      </trkpt>
      <trkpt lat="47.79985" lon="6.95874">
        <ele>456.79998779297</ele>
        <time>2017-07-21T13:26:53Z</time>
      </trkpt>
      <trkpt lat="47.79984" lon="6.95871">
        <ele>457</ele>
        <time>2017-07-21T13:26:54Z</time>
      </trkpt>
      <trkpt lat="47.79984" lon="6.95865">
        <ele>457</ele>
        <time>2017-07-21T13:26:56Z</time>
      </trkpt>
      <trkpt lat="47.79987" lon="6.95858">
        <ele>457</ele>
        <time>2017-07-21T13:26:58Z</time>
      </trkpt>
      <trkpt lat="47.79992" lon="6.95851">
        <ele>456.79998779297</ele>
        <time>2017-07-21T13:27:00Z</time>
      </trkpt>
      <trkpt lat="47.8" lon="6.95833">
        <ele>457</ele>
        <time>2017-07-21T13:27:04Z</time>
      </trkpt>
      <trkpt lat="47.8001" lon="6.95804">
        <ele>457</ele>
        <time>2017-07-21T13:27:10Z</time>
      </trkpt>
      <trkpt lat="47.80015" lon="6.95774">
        <ele>457</ele>
        <time>2017-07-21T13:27:16Z</time>
      </trkpt>
      <trkpt lat="47.80019" lon="6.95763">
        <ele>457.20001220703</ele>
        <time>2017-07-21T13:27:18Z</time>
      </trkpt>
      <trkpt lat="47.80023" lon="6.95752">
        <ele>457.20001220703</ele>
        <time>2017-07-21T13:27:20Z</time>
      </trkpt>
      <trkpt lat="47.80028" lon="6.95741">
        <ele>457.20001220703</ele>
        <time>2017-07-21T13:27:22Z</time>
      </trkpt>
      <trkpt lat="47.80044" lon="6.95696">
        <ele>457.20001220703</ele>
        <time>2017-07-21T13:27:30Z</time>
      </trkpt>
      <trkpt lat="47.80062" lon="6.95646">
        <ele>457.39999389648</ele>
        <time>2017-07-21T13:27:39Z</time>
      </trkpt>
      <trkpt lat="47.80071" lon="6.95626">
        <ele>457.60000610352</ele>
        <time>2017-07-21T13:27:43Z</time>
      </trkpt>
      <trkpt lat="47.80075" lon="6.95616">
        <ele>457.79998779297</ele>
        <time>2017-07-21T13:27:45Z</time>
      </trkpt>
      <trkpt lat="47.80081" lon="6.95602">
        <ele>458</ele>
        <time>2017-07-21T13:27:48Z</time>
      </trkpt>
      <trkpt lat="47.80089" lon="6.95584">
        <ele>458.20001220703</ele>
        <time>2017-07-21T13:27:52Z</time>
      </trkpt>
      <trkpt lat="47.80104" lon="6.95543">
        <ele>458.60000610352</ele>
        <time>2017-07-21T13:28:00Z</time>
      </trkpt>
      <trkpt lat="47.80109" lon="6.95534">
        <ele>458.79998779297</ele>
        <time>2017-07-21T13:28:02Z</time>
      </trkpt>
      <trkpt lat="47.80118" lon="6.95514">
        <ele>459</ele>
        <time>2017-07-21T13:28:06Z</time>
      </trkpt>
      <trkpt lat="47.80121" lon="6.9551">
        <ele>459</ele>
        <time>2017-07-21T13:28:07Z</time>
      </trkpt>
      <trkpt lat="47.80137" lon="6.95483">
        <ele>459.39999389648</ele>
        <time>2017-07-21T13:28:13Z</time>
      </trkpt>
      <trkpt lat="47.80143" lon="6.95474">
        <ele>459.39999389648</ele>
        <time>2017-07-21T13:28:15Z</time>
      </trkpt>
      <trkpt lat="47.80169" lon="6.95435">
        <ele>459.79998779297</ele>
        <time>2017-07-21T13:28:24Z</time>
      </trkpt>
      <trkpt lat="47.80187" lon="6.95409">
        <ele>459.79998779297</ele>
        <time>2017-07-21T13:28:31Z</time>
      </trkpt>
      <trkpt lat="47.80205" lon="6.95383">
        <ele>460</ele>
        <time>2017-07-21T13:28:37Z</time>
      </trkpt>
      <trkpt lat="47.80211" lon="6.95374">
        <ele>460</ele>
        <time>2017-07-21T13:28:39Z</time>
      </trkpt>
      <trkpt lat="47.80236" lon="6.95339">
        <ele>460.39999389648</ele>
        <time>2017-07-21T13:28:47Z</time>
      </trkpt>
      <trkpt lat="47.80243" lon="6.9533">
        <ele>460.39999389648</ele>
        <time>2017-07-21T13:28:49Z</time>
      </trkpt>
      <trkpt lat="47.80256" lon="6.95311">
        <ele>460.60000610352</ele>
        <time>2017-07-21T13:28:53Z</time>
      </trkpt>
      <trkpt lat="47.80282" lon="6.95272">
        <ele>460.79998779297</ele>
        <time>2017-07-21T13:29:01Z</time>
      </trkpt>
      <trkpt lat="47.80308" lon="6.95233">
        <ele>461</ele>
        <time>2017-07-21T13:29:09Z</time>
      </trkpt>
      <trkpt lat="47.80315" lon="6.95224">
        <ele>461</ele>
        <time>2017-07-21T13:29:11Z</time>
      </trkpt>
      <trkpt lat="47.80341" lon="6.95185">
        <ele>461.39999389648</ele>
        <time>2017-07-21T13:29:19Z</time>
      </trkpt>
      <trkpt lat="47.80368" lon="6.9514">
        <ele>461.60000610352</ele>
        <time>2017-07-21T13:29:28Z</time>
      </trkpt>
      <trkpt lat="47.8039" lon="6.95088">
        <ele>461.79998779297</ele>
        <time>2017-07-21T13:29:37Z</time>
      </trkpt>
      <trkpt lat="47.80394" lon="6.95076">
        <ele>462</ele>
        <time>2017-07-21T13:29:39Z</time>
      </trkpt>
      <trkpt lat="47.80413" lon="6.95033">
        <ele>462.39999389648</ele>
        <time>2017-07-21T13:29:47Z</time>
      </trkpt>
      <trkpt lat="47.80429" lon="6.94991">
        <ele>462.60000610352</ele>
        <time>2017-07-21T13:29:55Z</time>
      </trkpt>
      <trkpt lat="47.80442" lon="6.94958">
        <ele>463</ele>
        <time>2017-07-21T13:30:01Z</time>
      </trkpt>
      <trkpt lat="47.80444" lon="6.94953">
        <ele>463.20001220703</ele>
        <time>2017-07-21T13:30:02Z</time>
      </trkpt>
      <trkpt lat="47.80463" lon="6.94905">
        <ele>463.79998779297</ele>
        <time>2017-07-21T13:30:11Z</time>
      </trkpt>
      <trkpt lat="47.80474" lon="6.9488">
        <ele>464</ele>
        <time>2017-07-21T13:30:16Z</time>
      </trkpt>
      <trkpt lat="47.80478" lon="6.9487">
        <ele>464.20001220703</ele>
        <time>2017-07-21T13:30:18Z</time>
      </trkpt>
      <trkpt lat="47.80495" lon="6.9483">
        <ele>464.79998779297</ele>
        <time>2017-07-21T13:30:26Z</time>
      </trkpt>
      <trkpt lat="47.8051" lon="6.94794">
        <ele>465</ele>
        <time>2017-07-21T13:30:33Z</time>
      </trkpt>
      <trkpt lat="47.80512" lon="6.94788">
        <ele>465.20001220703</ele>
        <time>2017-07-21T13:30:34Z</time>
      </trkpt>
      <trkpt lat="47.80527" lon="6.94747">
        <ele>465.79998779297</ele>
        <time>2017-07-21T13:30:42Z</time>
      </trkpt>
      <trkpt lat="47.8054" lon="6.94716">
        <ele>466</ele>
        <time>2017-07-21T13:30:48Z</time>
      </trkpt>
      <trkpt lat="47.80543" lon="6.94711">
        <ele>466.20001220703</ele>
        <time>2017-07-21T13:30:49Z</time>
      </trkpt>
      <trkpt lat="47.80557" lon="6.94675">
        <ele>466.60000610352</ele>
        <time>2017-07-21T13:30:56Z</time>
      </trkpt>
      <trkpt lat="47.80572" lon="6.9464">
        <ele>467</ele>
        <time>2017-07-21T13:31:03Z</time>
      </trkpt>
      <trkpt lat="47.80579" lon="6.94624">
        <ele>467.20001220703</ele>
        <time>2017-07-21T13:31:06Z</time>
      </trkpt>
      <trkpt lat="47.8059" lon="6.94605">
        <ele>467.39999389648</ele>
        <time>2017-07-21T13:31:10Z</time>
      </trkpt>
      <trkpt lat="47.80614" lon="6.9456">
        <ele>468</ele>
        <time>2017-07-21T13:31:19Z</time>
      </trkpt>
      <trkpt lat="47.80616" lon="6.94555">
        <ele>468.20001220703</ele>
        <time>2017-07-21T13:31:20Z</time>
      </trkpt>
      <trkpt lat="47.8063" lon="6.94532">
        <ele>468.60000610352</ele>
        <time>2017-07-21T13:31:25Z</time>
      </trkpt>
      <trkpt lat="47.80651" lon="6.94494">
        <ele>469</ele>
        <time>2017-07-21T13:31:33Z</time>
      </trkpt>
      <trkpt lat="47.80656" lon="6.94484">
        <ele>469.20001220703</ele>
        <time>2017-07-21T13:31:35Z</time>
      </trkpt>
      <trkpt lat="47.80667" lon="6.94456">
        <ele>469.60000610352</ele>
        <time>2017-07-21T13:31:40Z</time>
      </trkpt>
      <trkpt lat="47.80679" lon="6.94418">
        <ele>470</ele>
        <time>2017-07-21T13:31:47Z</time>
      </trkpt>
      <trkpt lat="47.80686" lon="6.94396">
        <ele>470.20001220703</ele>
        <time>2017-07-21T13:31:51Z</time>
      </trkpt>
      <trkpt lat="47.80687" lon="6.9439">
        <ele>470.20001220703</ele>
        <time>2017-07-21T13:31:52Z</time>
      </trkpt>
      <trkpt lat="47.80689" lon="6.94385">
        <ele>470.20001220703</ele>
        <time>2017-07-21T13:31:53Z</time>
      </trkpt>
      <trkpt lat="47.80692" lon="6.94374">
        <ele>470.39999389648</ele>
        <time>2017-07-21T13:31:55Z</time>
      </trkpt>
      <trkpt lat="47.80697" lon="6.9436">
        <ele>470.60000610352</ele>
        <time>2017-07-21T13:31:58Z</time>
      </trkpt>
      <trkpt lat="47.80702" lon="6.94326">
        <ele>471.20001220703</ele>
        <time>2017-07-21T13:32:04Z</time>
      </trkpt>
      <trkpt lat="47.80704" lon="6.94309">
        <ele>471.20001220703</ele>
        <time>2017-07-21T13:32:08Z</time>
      </trkpt>
      <trkpt lat="47.8071" lon="6.94269">
        <ele>471.20001220703</ele>
        <time>2017-07-21T13:32:15Z</time>
      </trkpt>
      <trkpt lat="47.80713" lon="6.94241">
        <ele>471</ele>
        <time>2017-07-21T13:32:21Z</time>
      </trkpt>
      <trkpt lat="47.80718" lon="6.94206">
        <ele>471</ele>
        <time>2017-07-21T13:32:27Z</time>
      </trkpt>
      <trkpt lat="47.8072" lon="6.94186">
        <ele>471.20001220703</ele>
        <time>2017-07-21T13:32:30Z</time>
      </trkpt>
      <trkpt lat="47.80725" lon="6.94154">
        <ele>471.39999389648</ele>
        <time>2017-07-21T13:32:35Z</time>
      </trkpt>
      <trkpt lat="47.80727" lon="6.94127">
        <ele>471.39999389648</ele>
        <time>2017-07-21T13:32:39Z</time>
      </trkpt>
      <trkpt lat="47.8073" lon="6.94106">
        <ele>471.39999389648</ele>
        <time>2017-07-21T13:32:42Z</time>
      </trkpt>
      <trkpt lat="47.80738" lon="6.94054">
        <ele>471.60000610352</ele>
        <time>2017-07-21T13:32:50Z</time>
      </trkpt>
      <trkpt lat="47.80742" lon="6.94015">
        <ele>471.60000610352</ele>
        <time>2017-07-21T13:32:56Z</time>
      </trkpt>
      <trkpt lat="47.80748" lon="6.93964">
        <ele>471.79998779297</ele>
        <time>2017-07-21T13:33:04Z</time>
      </trkpt>
      <trkpt lat="47.80753" lon="6.93925">
        <ele>472</ele>
        <time>2017-07-21T13:33:11Z</time>
      </trkpt>
      <trkpt lat="47.80754" lon="6.93908">
        <ele>472.20001220703</ele>
        <time>2017-07-21T13:33:16Z</time>
      </trkpt>
      <trkpt lat="47.80755" lon="6.93904">
        <ele>472.20001220703</ele>
        <time>2017-07-21T13:33:18Z</time>
      </trkpt>
      <trkpt lat="47.80755" lon="6.93898">
        <ele>472.39999389648</ele>
        <time>2017-07-21T13:33:21Z</time>
      </trkpt>
      <trkpt lat="47.80757" lon="6.93882">
        <ele>472.60000610352</ele>
        <time>2017-07-21T13:33:25Z</time>
      </trkpt>
      <trkpt lat="47.8076" lon="6.93861">
        <ele>472.60000610352</ele>
        <time>2017-07-21T13:33:30Z</time>
      </trkpt>
      <trkpt lat="47.80764" lon="6.93842">
        <ele>472.60000610352</ele>
        <time>2017-07-21T13:33:34Z</time>
      </trkpt>
      <trkpt lat="47.80765" lon="6.93824">
        <ele>472.79998779297</ele>
        <time>2017-07-21T13:33:37Z</time>
      </trkpt>
      <trkpt lat="47.80766" lon="6.93818">
        <ele>472.79998779297</ele>
        <time>2017-07-21T13:33:38Z</time>
      </trkpt>
      <trkpt lat="47.80768" lon="6.93813">
        <ele>472.79998779297</ele>
        <time>2017-07-21T13:33:39Z</time>
      </trkpt>
      <trkpt lat="47.8077" lon="6.93795">
        <ele>473.20001220703</ele>
        <time>2017-07-21T13:33:42Z</time>
      </trkpt>
      <trkpt lat="47.80772" lon="6.93777">
        <ele>473.20001220703</ele>
        <time>2017-07-21T13:33:45Z</time>
      </trkpt>
      <trkpt lat="47.80778" lon="6.9373">
        <ele>473.79998779297</ele>
        <time>2017-07-21T13:33:53Z</time>
      </trkpt>
      <trkpt lat="47.8078" lon="6.93706">
        <ele>474.20001220703</ele>
        <time>2017-07-21T13:33:57Z</time>
      </trkpt>
      <trkpt lat="47.80782" lon="6.93695">
        <ele>474.39999389648</ele>
        <time>2017-07-21T13:33:59Z</time>
      </trkpt>
      <trkpt lat="47.80783" lon="6.93689">
        <ele>474.39999389648</ele>
        <time>2017-07-21T13:34:00Z</time>
      </trkpt>
      <trkpt lat="47.80786" lon="6.93655">
        <ele>474.79998779297</ele>
        <time>2017-07-21T13:34:06Z</time>
      </trkpt>
      <trkpt lat="47.80793" lon="6.93617">
        <ele>475.39999389648</ele>
        <time>2017-07-21T13:34:13Z</time>
      </trkpt>
      <trkpt lat="47.80796" lon="6.93581">
        <ele>475.79998779297</ele>
        <time>2017-07-21T13:34:19Z</time>
      </trkpt>
      <trkpt lat="47.80801" lon="6.93544">
        <ele>476.20001220703</ele>
        <time>2017-07-21T13:34:25Z</time>
      </trkpt>
      <trkpt lat="47.80803" lon="6.93532">
        <ele>476.39999389648</ele>
        <time>2017-07-21T13:34:27Z</time>
      </trkpt>
      <trkpt lat="47.80805" lon="6.93507">
        <ele>476.60000610352</ele>
        <time>2017-07-21T13:34:31Z</time>
      </trkpt>
      <trkpt lat="47.80809" lon="6.93471">
        <ele>477.20001220703</ele>
        <time>2017-07-21T13:34:37Z</time>
      </trkpt>
      <trkpt lat="47.80812" lon="6.93434">
        <ele>477.39999389648</ele>
        <time>2017-07-21T13:34:43Z</time>
      </trkpt>
      <trkpt lat="47.80813" lon="6.93423">
        <ele>477.60000610352</ele>
        <time>2017-07-21T13:34:45Z</time>
      </trkpt>
      <trkpt lat="47.80815" lon="6.93392">
        <ele>478</ele>
        <time>2017-07-21T13:34:50Z</time>
      </trkpt>
      <trkpt lat="47.80818" lon="6.9335">
        <ele>478.39999389648</ele>
        <time>2017-07-21T13:34:57Z</time>
      </trkpt>
      <trkpt lat="47.80819" lon="6.93339">
        <ele>478.60000610352</ele>
        <time>2017-07-21T13:35:00Z</time>
      </trkpt>
      <trkpt lat="47.80819" lon="6.93334">
        <ele>478.60000610352</ele>
        <time>2017-07-21T13:35:02Z</time>
      </trkpt>
      <trkpt lat="47.80818" lon="6.93326">
        <ele>478.60000610352</ele>
        <time>2017-07-21T13:35:39Z</time>
      </trkpt>
      <trkpt lat="47.80819" lon="6.93323">
        <ele>478.60000610352</ele>
        <time>2017-07-21T13:35:40Z</time>
      </trkpt>
      <trkpt lat="47.80822" lon="6.93302">
        <ele>478.79998779297</ele>
        <time>2017-07-21T13:35:45Z</time>
      </trkpt>
      <trkpt lat="47.80822" lon="6.93291">
        <ele>478.79998779297</ele>
        <time>2017-07-21T13:35:47Z</time>
      </trkpt>
      <trkpt lat="47.80823" lon="6.93264">
        <ele>479.20001220703</ele>
        <time>2017-07-21T13:35:52Z</time>
      </trkpt>
      <trkpt lat="47.80824" lon="6.93247">
        <ele>479.60000610352</ele>
        <time>2017-07-21T13:35:55Z</time>
      </trkpt>
      <trkpt lat="47.80827" lon="6.93222">
        <ele>479.60000610352</ele>
        <time>2017-07-21T13:35:59Z</time>
      </trkpt>
      <trkpt lat="47.80829" lon="6.93196">
        <ele>480.20001220703</ele>
        <time>2017-07-21T13:36:03Z</time>
      </trkpt>
      <trkpt lat="47.8083" lon="6.93184">
        <ele>480.20001220703</ele>
        <time>2017-07-21T13:36:05Z</time>
      </trkpt>
      <trkpt lat="47.80832" lon="6.93154">
        <ele>480.60000610352</ele>
        <time>2017-07-21T13:36:10Z</time>
      </trkpt>
      <trkpt lat="47.80835" lon="6.9313">
        <ele>480.79998779297</ele>
        <time>2017-07-21T13:36:14Z</time>
      </trkpt>
      <trkpt lat="47.80838" lon="6.93086">
        <ele>481.39999389648</ele>
        <time>2017-07-21T13:36:22Z</time>
      </trkpt>
      <trkpt lat="47.80839" lon="6.93072">
        <ele>481.60000610352</ele>
        <time>2017-07-21T13:36:25Z</time>
      </trkpt>
      <trkpt lat="47.80841" lon="6.93056">
        <ele>482</ele>
        <time>2017-07-21T13:36:28Z</time>
      </trkpt>
      <trkpt lat="47.80845" lon="6.93017">
        <ele>482.20001220703</ele>
        <time>2017-07-21T13:36:35Z</time>
      </trkpt>
      <trkpt lat="47.8085" lon="6.92981">
        <ele>482.60000610352</ele>
        <time>2017-07-21T13:36:41Z</time>
      </trkpt>
      <trkpt lat="47.80851" lon="6.9297">
        <ele>482.79998779297</ele>
        <time>2017-07-21T13:36:43Z</time>
      </trkpt>
      <trkpt lat="47.80855" lon="6.92928">
        <ele>483.20001220703</ele>
        <time>2017-07-21T13:36:50Z</time>
      </trkpt>
      <trkpt lat="47.80858" lon="6.92898">
        <ele>483.79998779297</ele>
        <time>2017-07-21T13:36:56Z</time>
      </trkpt>
      <trkpt lat="47.80865" lon="6.92861">
        <ele>484.20001220703</ele>
        <time>2017-07-21T13:37:03Z</time>
      </trkpt>
      <trkpt lat="47.80872" lon="6.92822">
        <ele>484.60000610352</ele>
        <time>2017-07-21T13:37:09Z</time>
      </trkpt>
      <trkpt lat="47.80874" lon="6.92816">
        <ele>484.79998779297</ele>
        <time>2017-07-21T13:37:10Z</time>
      </trkpt>
      <trkpt lat="47.80879" lon="6.92784">
        <ele>485.20001220703</ele>
        <time>2017-07-21T13:37:16Z</time>
      </trkpt>
      <trkpt lat="47.80884" lon="6.9275">
        <ele>485.39999389648</ele>
        <time>2017-07-21T13:37:22Z</time>
      </trkpt>
      <trkpt lat="47.80888" lon="6.92719">
        <ele>485.79998779297</ele>
        <time>2017-07-21T13:37:27Z</time>
      </trkpt>
      <trkpt lat="47.80889" lon="6.92693">
        <ele>485.79998779297</ele>
        <time>2017-07-21T13:37:31Z</time>
      </trkpt>
      <trkpt lat="47.80893" lon="6.9265">
        <ele>486.39999389648</ele>
        <time>2017-07-21T13:37:38Z</time>
      </trkpt>
      <trkpt lat="47.80896" lon="6.92619">
        <ele>486.60000610352</ele>
        <time>2017-07-21T13:37:43Z</time>
      </trkpt>
      <trkpt lat="47.80896" lon="6.92613">
        <ele>486.79998779297</ele>
        <time>2017-07-21T13:37:44Z</time>
      </trkpt>
      <trkpt lat="47.80896" lon="6.92595">
        <ele>486.79998779297</ele>
        <time>2017-07-21T13:37:47Z</time>
      </trkpt>
      <trkpt lat="47.80897" lon="6.9257">
        <ele>487.20001220703</ele>
        <time>2017-07-21T13:37:51Z</time>
      </trkpt>
      <trkpt lat="47.80897" lon="6.92528">
        <ele>487.79998779297</ele>
        <time>2017-07-21T13:37:58Z</time>
      </trkpt>
      <trkpt lat="47.80896" lon="6.92517">
        <ele>487.79998779297</ele>
        <time>2017-07-21T13:38:00Z</time>
      </trkpt>
      <trkpt lat="47.80895" lon="6.92493">
        <ele>488.20001220703</ele>
        <time>2017-07-21T13:38:04Z</time>
      </trkpt>
      <trkpt lat="47.80894" lon="6.92487">
        <ele>488.39999389648</ele>
        <time>2017-07-21T13:38:05Z</time>
      </trkpt>
      <trkpt lat="47.80894" lon="6.92459">
        <ele>488.79998779297</ele>
        <time>2017-07-21T13:38:10Z</time>
      </trkpt>
      <trkpt lat="47.80894" lon="6.92447">
        <ele>489</ele>
        <time>2017-07-21T13:38:12Z</time>
      </trkpt>
      <trkpt lat="47.80892" lon="6.92424">
        <ele>489.20001220703</ele>
        <time>2017-07-21T13:38:16Z</time>
      </trkpt>
      <trkpt lat="47.8089" lon="6.92384">
        <ele>489.60000610352</ele>
        <time>2017-07-21T13:38:23Z</time>
      </trkpt>
      <trkpt lat="47.8089" lon="6.92347">
        <ele>490</ele>
        <time>2017-07-21T13:38:29Z</time>
      </trkpt>
      <trkpt lat="47.8089" lon="6.92341">
        <ele>490.20001220703</ele>
        <time>2017-07-21T13:38:30Z</time>
      </trkpt>
      <trkpt lat="47.80888" lon="6.92293">
        <ele>490.60000610352</ele>
        <time>2017-07-21T13:38:38Z</time>
      </trkpt>
      <trkpt lat="47.80887" lon="6.9226">
        <ele>491.20001220703</ele>
        <time>2017-07-21T13:38:44Z</time>
      </trkpt>
      <trkpt lat="47.80883" lon="6.92222">
        <ele>491.60000610352</ele>
        <time>2017-07-21T13:38:50Z</time>
      </trkpt>
      <trkpt lat="47.80884" lon="6.92183">
        <ele>492.20001220703</ele>
        <time>2017-07-21T13:38:56Z</time>
      </trkpt>
      <trkpt lat="47.80882" lon="6.92143">
        <ele>492.60000610352</ele>
        <time>2017-07-21T13:39:03Z</time>
      </trkpt>
      <trkpt lat="47.8088" lon="6.92109">
        <ele>493</ele>
        <time>2017-07-21T13:39:09Z</time>
      </trkpt>
      <trkpt lat="47.8088" lon="6.92103">
        <ele>493.20001220703</ele>
        <time>2017-07-21T13:39:10Z</time>
      </trkpt>
      <trkpt lat="47.80876" lon="6.92076">
        <ele>493.39999389648</ele>
        <time>2017-07-21T13:39:15Z</time>
      </trkpt>
      <trkpt lat="47.80873" lon="6.92043">
        <ele>493.79998779297</ele>
        <time>2017-07-21T13:39:20Z</time>
      </trkpt>
      <trkpt lat="47.80867" lon="6.92">
        <ele>494.20001220703</ele>
        <time>2017-07-21T13:39:26Z</time>
      </trkpt>
      <trkpt lat="47.80866" lon="6.91988">
        <ele>494.20001220703</ele>
        <time>2017-07-21T13:39:28Z</time>
      </trkpt>
      <trkpt lat="47.80862" lon="6.91964">
        <ele>494.39999389648</ele>
        <time>2017-07-21T13:39:32Z</time>
      </trkpt>
      <trkpt lat="47.80855" lon="6.91918">
        <ele>495</ele>
        <time>2017-07-21T13:39:40Z</time>
      </trkpt>
      <trkpt lat="47.80845" lon="6.91896">
        <ele>495</ele>
        <time>2017-07-21T13:39:44Z</time>
      </trkpt>
      <trkpt lat="47.80835" lon="6.91872">
        <ele>495.20001220703</ele>
        <time>2017-07-21T13:39:48Z</time>
      </trkpt>
      <trkpt lat="47.80834" lon="6.91865">
        <ele>495.20001220703</ele>
        <time>2017-07-21T13:39:49Z</time>
      </trkpt>
      <trkpt lat="47.80832" lon="6.9185">
        <ele>495.20001220703</ele>
        <time>2017-07-21T13:39:51Z</time>
      </trkpt>
      <trkpt lat="47.80831" lon="6.91842">
        <ele>495.39999389648</ele>
        <time>2017-07-21T13:39:52Z</time>
      </trkpt>
      <trkpt lat="47.80826" lon="6.91791">
        <ele>495.39999389648</ele>
        <time>2017-07-21T13:39:59Z</time>
      </trkpt>
      <trkpt lat="47.80818" lon="6.91737">
        <ele>495.39999389648</ele>
        <time>2017-07-21T13:40:07Z</time>
      </trkpt>
      <trkpt lat="47.80807" lon="6.91684">
        <ele>495.39999389648</ele>
        <time>2017-07-21T13:40:15Z</time>
      </trkpt>
      <trkpt lat="47.80798" lon="6.91637">
        <ele>495.60000610352</ele>
        <time>2017-07-21T13:40:23Z</time>
      </trkpt>
      <trkpt lat="47.80798" lon="6.91625">
        <ele>495.60000610352</ele>
        <time>2017-07-21T13:40:25Z</time>
      </trkpt>
      <trkpt lat="47.80798" lon="6.91612">
        <ele>495.60000610352</ele>
        <time>2017-07-21T13:40:27Z</time>
      </trkpt>
      <trkpt lat="47.80797" lon="6.91607">
        <ele>495.60000610352</ele>
        <time>2017-07-21T13:40:28Z</time>
      </trkpt>
      <trkpt lat="47.80787" lon="6.91577">
        <ele>495.60000610352</ele>
        <time>2017-07-21T13:40:33Z</time>
      </trkpt>
      <trkpt lat="47.80774" lon="6.91539">
        <ele>495.60000610352</ele>
        <time>2017-07-21T13:40:39Z</time>
      </trkpt>
      <trkpt lat="47.80769" lon="6.91501">
        <ele>495.79998779297</ele>
        <time>2017-07-21T13:40:45Z</time>
      </trkpt>
      <trkpt lat="47.80765" lon="6.91473">
        <ele>496.20001220703</ele>
        <time>2017-07-21T13:40:50Z</time>
      </trkpt>
      <trkpt lat="47.80763" lon="6.91468">
        <ele>496.39999389648</ele>
        <time>2017-07-21T13:40:51Z</time>
      </trkpt>
      <trkpt lat="47.80752" lon="6.91443">
        <ele>497</ele>
        <time>2017-07-21T13:40:56Z</time>
      </trkpt>
      <trkpt lat="47.80742" lon="6.91424">
        <ele>497.20001220703</ele>
        <time>2017-07-21T13:41:00Z</time>
      </trkpt>
      <trkpt lat="47.80738" lon="6.91416">
        <ele>497.60000610352</ele>
        <time>2017-07-21T13:41:02Z</time>
      </trkpt>
      <trkpt lat="47.80728" lon="6.91391">
        <ele>498.39999389648</ele>
        <time>2017-07-21T13:41:08Z</time>
      </trkpt>
      <trkpt lat="47.80721" lon="6.91348">
        <ele>498.79998779297</ele>
        <time>2017-07-21T13:41:15Z</time>
      </trkpt>
      <trkpt lat="47.80709" lon="6.91292">
        <ele>498.60000610352</ele>
        <time>2017-07-21T13:41:23Z</time>
      </trkpt>
      <trkpt lat="47.80696" lon="6.91239">
        <ele>498.60000610352</ele>
        <time>2017-07-21T13:41:31Z</time>
      </trkpt>
      <trkpt lat="47.80681" lon="6.91189">
        <ele>498.79998779297</ele>
        <time>2017-07-21T13:41:39Z</time>
      </trkpt>
      <trkpt lat="47.8068" lon="6.91183">
        <ele>498.79998779297</ele>
        <time>2017-07-21T13:41:40Z</time>
      </trkpt>
      <trkpt lat="47.80673" lon="6.91154">
        <ele>499.20001220703</ele>
        <time>2017-07-21T13:41:45Z</time>
      </trkpt>
      <trkpt lat="47.80669" lon="6.91138">
        <ele>499.39999389648</ele>
        <time>2017-07-21T13:41:48Z</time>
      </trkpt>
      <trkpt lat="47.80663" lon="6.91113">
        <ele>499.79998779297</ele>
        <time>2017-07-21T13:41:53Z</time>
      </trkpt>
      <trkpt lat="47.80662" lon="6.91084">
        <ele>500.20001220703</ele>
        <time>2017-07-21T13:41:59Z</time>
      </trkpt>
      <trkpt lat="47.80662" lon="6.91075">
        <ele>500.39999389648</ele>
        <time>2017-07-21T13:42:01Z</time>
      </trkpt>
      <trkpt lat="47.80666" lon="6.91046">
        <ele>501.20001220703</ele>
        <time>2017-07-21T13:42:07Z</time>
      </trkpt>
      <trkpt lat="47.80667" lon="6.91037">
        <ele>501.60000610352</ele>
        <time>2017-07-21T13:42:09Z</time>
      </trkpt>
      <trkpt lat="47.80671" lon="6.91015">
        <ele>502.20001220703</ele>
        <time>2017-07-21T13:42:14Z</time>
      </trkpt>
      <trkpt lat="47.80675" lon="6.90997">
        <ele>502.60000610352</ele>
        <time>2017-07-21T13:42:18Z</time>
      </trkpt>
      <trkpt lat="47.80677" lon="6.90985">
        <ele>503</ele>
        <time>2017-07-21T13:42:21Z</time>
      </trkpt>
      <trkpt lat="47.80682" lon="6.90959">
        <ele>503.79998779297</ele>
        <time>2017-07-21T13:42:27Z</time>
      </trkpt>
      <trkpt lat="47.80683" lon="6.90946">
        <ele>504</ele>
        <time>2017-07-21T13:42:30Z</time>
      </trkpt>
      <trkpt lat="47.80684" lon="6.90917">
        <ele>504.79998779297</ele>
        <time>2017-07-21T13:42:36Z</time>
      </trkpt>
      <trkpt lat="47.80685" lon="6.90908">
        <ele>505</ele>
        <time>2017-07-21T13:42:38Z</time>
      </trkpt>
      <trkpt lat="47.80682" lon="6.9087">
        <ele>505.39999389648</ele>
        <time>2017-07-21T13:42:46Z</time>
      </trkpt>
      <trkpt lat="47.80682" lon="6.90845">
        <ele>505.79998779297</ele>
        <time>2017-07-21T13:42:51Z</time>
      </trkpt>
      <trkpt lat="47.80681" lon="6.90825">
        <ele>506.20001220703</ele>
        <time>2017-07-21T13:42:55Z</time>
      </trkpt>
      <trkpt lat="47.80684" lon="6.9081">
        <ele>506.39999389648</ele>
        <time>2017-07-21T13:42:58Z</time>
      </trkpt>
      <trkpt lat="47.80689" lon="6.90795">
        <ele>506.79998779297</ele>
        <time>2017-07-21T13:43:01Z</time>
      </trkpt>
      <trkpt lat="47.80691" lon="6.90785">
        <ele>507</ele>
        <time>2017-07-21T13:43:03Z</time>
      </trkpt>
      <trkpt lat="47.80699" lon="6.90754">
        <ele>507</ele>
        <time>2017-07-21T13:43:09Z</time>
      </trkpt>
      <trkpt lat="47.80701" lon="6.90728">
        <ele>506.79998779297</ele>
        <time>2017-07-21T13:43:13Z</time>
      </trkpt>
      <trkpt lat="47.807" lon="6.90708">
        <ele>506.79998779297</ele>
        <time>2017-07-21T13:43:16Z</time>
      </trkpt>
      <trkpt lat="47.80697" lon="6.90663">
        <ele>506.79998779297</ele>
        <time>2017-07-21T13:43:24Z</time>
      </trkpt>
      <trkpt lat="47.80696" lon="6.9065">
        <ele>506.79998779297</ele>
        <time>2017-07-21T13:43:26Z</time>
      </trkpt>
      <trkpt lat="47.80696" lon="6.90617">
        <ele>506.60000610352</ele>
        <time>2017-07-21T13:43:31Z</time>
      </trkpt>
      <trkpt lat="47.807" lon="6.906">
        <ele>506.20001220703</ele>
        <time>2017-07-21T13:43:34Z</time>
      </trkpt>
      <trkpt lat="47.80703" lon="6.90589">
        <ele>506.20001220703</ele>
        <time>2017-07-21T13:43:36Z</time>
      </trkpt>
      <trkpt lat="47.80709" lon="6.90564">
        <ele>506.20001220703</ele>
        <time>2017-07-21T13:43:41Z</time>
      </trkpt>
      <trkpt lat="47.80719" lon="6.90547">
        <ele>506.20001220703</ele>
        <time>2017-07-21T13:43:46Z</time>
      </trkpt>
      <trkpt lat="47.80741" lon="6.9053">
        <ele>506</ele>
        <time>2017-07-21T13:43:53Z</time>
      </trkpt>
      <trkpt lat="47.80757" lon="6.90514">
        <ele>506.20001220703</ele>
        <time>2017-07-21T13:43:58Z</time>
      </trkpt>
      <trkpt lat="47.80781" lon="6.90496">
        <ele>506.20001220703</ele>
        <time>2017-07-21T13:44:05Z</time>
      </trkpt>
      <trkpt lat="47.80799" lon="6.90477">
        <ele>506.39999389648</ele>
        <time>2017-07-21T13:44:12Z</time>
      </trkpt>
      <trkpt lat="47.80802" lon="6.90474">
        <ele>506.39999389648</ele>
        <time>2017-07-21T13:44:14Z</time>
      </trkpt>
      <trkpt lat="47.80802" lon="6.90469">
        <ele>506.20001220703</ele>
        <time>2017-07-21T13:45:38Z</time>
      </trkpt>
      <trkpt lat="47.80803" lon="6.90467">
        <ele>506.20001220703</ele>
        <time>2017-07-21T13:45:39Z</time>
      </trkpt>
      <trkpt lat="47.80805" lon="6.90462">
        <ele>506.20001220703</ele>
        <time>2017-07-21T13:45:41Z</time>
      </trkpt>
      <trkpt lat="47.80812" lon="6.90441">
        <ele>506.39999389648</ele>
        <time>2017-07-21T13:45:47Z</time>
      </trkpt>
      <trkpt lat="47.80821" lon="6.90417">
        <ele>506.79998779297</ele>
        <time>2017-07-21T13:45:53Z</time>
      </trkpt>
      <trkpt lat="47.80821" lon="6.90397">
        <ele>507.20001220703</ele>
        <time>2017-07-21T13:45:58Z</time>
      </trkpt>
      <trkpt lat="47.80814" lon="6.90381">
        <ele>507.79998779297</ele>
        <time>2017-07-21T13:46:03Z</time>
      </trkpt>
      <trkpt lat="47.80813" lon="6.90378">
        <ele>508</ele>
        <time>2017-07-21T13:46:04Z</time>
      </trkpt>
      <trkpt lat="47.80801" lon="6.90357">
        <ele>509.20001220703</ele>
        <time>2017-07-21T13:46:11Z</time>
      </trkpt>
      <trkpt lat="47.8079" lon="6.90331">
        <ele>509.60000610352</ele>
        <time>2017-07-21T13:46:18Z</time>
      </trkpt>
      <trkpt lat="47.80791" lon="6.90303">
        <ele>509.39999389648</ele>
        <time>2017-07-21T13:46:23Z</time>
      </trkpt>
      <trkpt lat="47.808" lon="6.90263">
        <ele>509.39999389648</ele>
        <time>2017-07-21T13:46:30Z</time>
      </trkpt>
      <trkpt lat="47.80812" lon="6.90217">
        <ele>508.60000610352</ele>
        <time>2017-07-21T13:46:37Z</time>
      </trkpt>
      <trkpt lat="47.8082" lon="6.90188">
        <ele>508.20001220703</ele>
        <time>2017-07-21T13:46:41Z</time>
      </trkpt>
      <trkpt lat="47.80823" lon="6.90181">
        <ele>508.20001220703</ele>
        <time>2017-07-21T13:46:42Z</time>
      </trkpt>
      <trkpt lat="47.80827" lon="6.90174">
        <ele>508</ele>
        <time>2017-07-21T13:46:43Z</time>
      </trkpt>
      <trkpt lat="47.8084" lon="6.90157">
        <ele>507.79998779297</ele>
        <time>2017-07-21T13:46:46Z</time>
      </trkpt>
      <trkpt lat="47.8085" lon="6.90147">
        <ele>507.60000610352</ele>
        <time>2017-07-21T13:46:48Z</time>
      </trkpt>
      <trkpt lat="47.80865" lon="6.90133">
        <ele>507</ele>
        <time>2017-07-21T13:46:51Z</time>
      </trkpt>
      <trkpt lat="47.80898" lon="6.901">
        <ele>506.60000610352</ele>
        <time>2017-07-21T13:46:58Z</time>
      </trkpt>
      <trkpt lat="47.80924" lon="6.90077">
        <ele>506.79998779297</ele>
        <time>2017-07-21T13:47:04Z</time>
      </trkpt>
      <trkpt lat="47.80952" lon="6.90043">
        <ele>506.79998779297</ele>
        <time>2017-07-21T13:47:11Z</time>
      </trkpt>
      <trkpt lat="47.80966" lon="6.9002">
        <ele>506.79998779297</ele>
        <time>2017-07-21T13:47:15Z</time>
      </trkpt>
      <trkpt lat="47.80971" lon="6.90008">
        <ele>507</ele>
        <time>2017-07-21T13:47:17Z</time>
      </trkpt>
      <trkpt lat="47.80979" lon="6.89981">
        <ele>507.20001220703</ele>
        <time>2017-07-21T13:47:21Z</time>
      </trkpt>
      <trkpt lat="47.80981" lon="6.89967">
        <ele>507.20001220703</ele>
        <time>2017-07-21T13:47:23Z</time>
      </trkpt>
      <trkpt lat="47.80992" lon="6.89923">
        <ele>507.20001220703</ele>
        <time>2017-07-21T13:47:30Z</time>
      </trkpt>
      <trkpt lat="47.81004" lon="6.89903">
        <ele>507.20001220703</ele>
        <time>2017-07-21T13:47:34Z</time>
      </trkpt>
      <trkpt lat="47.81008" lon="6.89899">
        <ele>507.39999389648</ele>
        <time>2017-07-21T13:47:35Z</time>
      </trkpt>
      <trkpt lat="47.81016" lon="6.89889">
        <ele>507.39999389648</ele>
        <time>2017-07-21T13:47:37Z</time>
      </trkpt>
      <trkpt lat="47.81028" lon="6.89866">
        <ele>507.20001220703</ele>
        <time>2017-07-21T13:47:41Z</time>
      </trkpt>
      <trkpt lat="47.81055" lon="6.89811">
        <ele>507.20001220703</ele>
        <time>2017-07-21T13:47:50Z</time>
      </trkpt>
      <trkpt lat="47.81082" lon="6.89786">
        <ele>507</ele>
        <time>2017-07-21T13:47:56Z</time>
      </trkpt>
      <trkpt lat="47.81087" lon="6.89782">
        <ele>507</ele>
        <time>2017-07-21T13:47:57Z</time>
      </trkpt>
      <trkpt lat="47.81102" lon="6.89759">
        <ele>507</ele>
        <time>2017-07-21T13:48:01Z</time>
      </trkpt>
      <trkpt lat="47.81105" lon="6.89744">
        <ele>507</ele>
        <time>2017-07-21T13:48:03Z</time>
      </trkpt>
      <trkpt lat="47.81109" lon="6.89722">
        <ele>507</ele>
        <time>2017-07-21T13:48:06Z</time>
      </trkpt>
      <trkpt lat="47.81109" lon="6.89682">
        <ele>507.20001220703</ele>
        <time>2017-07-21T13:48:12Z</time>
      </trkpt>
      <trkpt lat="47.81106" lon="6.89651">
        <ele>507.79998779297</ele>
        <time>2017-07-21T13:48:18Z</time>
      </trkpt>
      <trkpt lat="47.81105" lon="6.89641">
        <ele>508.20001220703</ele>
        <time>2017-07-21T13:48:20Z</time>
      </trkpt>
      <trkpt lat="47.81102" lon="6.8962">
        <ele>508.79998779297</ele>
        <time>2017-07-21T13:48:24Z</time>
      </trkpt>
      <trkpt lat="47.811" lon="6.89604">
        <ele>509.39999389648</ele>
        <time>2017-07-21T13:48:27Z</time>
      </trkpt>
      <trkpt lat="47.81098" lon="6.89584">
        <ele>509.39999389648</ele>
        <time>2017-07-21T13:48:30Z</time>
      </trkpt>
      <trkpt lat="47.81095" lon="6.8953">
        <ele>509.60000610352</ele>
        <time>2017-07-21T13:48:38Z</time>
      </trkpt>
      <trkpt lat="47.81098" lon="6.89471">
        <ele>509.39999389648</ele>
        <time>2017-07-21T13:48:46Z</time>
      </trkpt>
      <trkpt lat="47.811" lon="6.8945">
        <ele>509.39999389648</ele>
        <time>2017-07-21T13:48:49Z</time>
      </trkpt>
      <trkpt lat="47.81101" lon="6.89423">
        <ele>509.20001220703</ele>
        <time>2017-07-21T13:48:53Z</time>
      </trkpt>
      <trkpt lat="47.81103" lon="6.8936">
        <ele>509.60000610352</ele>
        <time>2017-07-21T13:49:02Z</time>
      </trkpt>
      <trkpt lat="47.81107" lon="6.89313">
        <ele>509.79998779297</ele>
        <time>2017-07-21T13:49:08Z</time>
      </trkpt>
      <trkpt lat="47.8112" lon="6.89269">
        <ele>509.20001220703</ele>
        <time>2017-07-21T13:49:14Z</time>
      </trkpt>
      <trkpt lat="47.8114" lon="6.89222">
        <ele>509</ele>
        <time>2017-07-21T13:49:21Z</time>
      </trkpt>
      <trkpt lat="47.81143" lon="6.89215">
        <ele>509</ele>
        <time>2017-07-21T13:49:22Z</time>
      </trkpt>
      <trkpt lat="47.81154" lon="6.89178">
        <ele>509</ele>
        <time>2017-07-21T13:49:27Z</time>
      </trkpt>
      <trkpt lat="47.81158" lon="6.89163">
        <ele>508.79998779297</ele>
        <time>2017-07-21T13:49:29Z</time>
      </trkpt>
      <trkpt lat="47.81162" lon="6.89131">
        <ele>508.60000610352</ele>
        <time>2017-07-21T13:49:33Z</time>
      </trkpt>
      <trkpt lat="47.81169" lon="6.89078">
        <ele>508.60000610352</ele>
        <time>2017-07-21T13:49:40Z</time>
      </trkpt>
      <trkpt lat="47.81178" lon="6.89022">
        <ele>508.60000610352</ele>
        <time>2017-07-21T13:49:48Z</time>
      </trkpt>
      <trkpt lat="47.8118" lon="6.89014">
        <ele>508.60000610352</ele>
        <time>2017-07-21T13:49:49Z</time>
      </trkpt>
      <trkpt lat="47.8119" lon="6.88987">
        <ele>508.79998779297</ele>
        <time>2017-07-21T13:49:53Z</time>
      </trkpt>
      <trkpt lat="47.812" lon="6.88953">
        <ele>509</ele>
        <time>2017-07-21T13:49:58Z</time>
      </trkpt>
      <trkpt lat="47.81203" lon="6.88939">
        <ele>509</ele>
        <time>2017-07-21T13:50:00Z</time>
      </trkpt>
      <trkpt lat="47.81215" lon="6.88878">
        <ele>509.20001220703</ele>
        <time>2017-07-21T13:50:08Z</time>
      </trkpt>
      <trkpt lat="47.81229" lon="6.88829">
        <ele>509.20001220703</ele>
        <time>2017-07-21T13:50:15Z</time>
      </trkpt>
      <trkpt lat="47.81231" lon="6.88823">
        <ele>509.39999389648</ele>
        <time>2017-07-21T13:50:16Z</time>
      </trkpt>
      <trkpt lat="47.81237" lon="6.88791">
        <ele>509.79998779297</ele>
        <time>2017-07-21T13:50:21Z</time>
      </trkpt>
      <trkpt lat="47.81238" lon="6.88784">
        <ele>509.79998779297</ele>
        <time>2017-07-21T13:50:22Z</time>
      </trkpt>
      <trkpt lat="47.81239" lon="6.88777">
        <ele>510</ele>
        <time>2017-07-21T13:50:23Z</time>
      </trkpt>
      <trkpt lat="47.81241" lon="6.88764">
        <ele>510.20001220703</ele>
        <time>2017-07-21T13:50:25Z</time>
      </trkpt>
      <trkpt lat="47.81243" lon="6.88757">
        <ele>510.20001220703</ele>
        <time>2017-07-21T13:50:26Z</time>
      </trkpt>
      <trkpt lat="47.81255" lon="6.88728">
        <ele>510.39999389648</ele>
        <time>2017-07-21T13:50:31Z</time>
      </trkpt>
      <trkpt lat="47.81261" lon="6.88718">
        <ele>510.60000610352</ele>
        <time>2017-07-21T13:50:33Z</time>
      </trkpt>
      <trkpt lat="47.81266" lon="6.88707">
        <ele>510.60000610352</ele>
        <time>2017-07-21T13:50:35Z</time>
      </trkpt>
      <trkpt lat="47.81279" lon="6.88681">
        <ele>511</ele>
        <time>2017-07-21T13:50:40Z</time>
      </trkpt>
      <trkpt lat="47.81293" lon="6.88652">
        <ele>511.39999389648</ele>
        <time>2017-07-21T13:50:46Z</time>
      </trkpt>
      <trkpt lat="47.81298" lon="6.88642">
        <ele>511.60000610352</ele>
        <time>2017-07-21T13:50:48Z</time>
      </trkpt>
      <trkpt lat="47.81308" lon="6.88609">
        <ele>512.20001220703</ele>
        <time>2017-07-21T13:50:54Z</time>
      </trkpt>
      <trkpt lat="47.81312" lon="6.88593">
        <ele>512.40002441406</ele>
        <time>2017-07-21T13:50:57Z</time>
      </trkpt>
      <trkpt lat="47.81321" lon="6.88568">
        <ele>513</ele>
        <time>2017-07-21T13:51:02Z</time>
      </trkpt>
      <trkpt lat="47.81332" lon="6.88542">
        <ele>513.59997558594</ele>
        <time>2017-07-21T13:51:08Z</time>
      </trkpt>
      <trkpt lat="47.81334" lon="6.88538">
        <ele>513.79998779297</ele>
        <time>2017-07-21T13:51:09Z</time>
      </trkpt>
      <trkpt lat="47.81341" lon="6.88516">
        <ele>514.79998779297</ele>
        <time>2017-07-21T13:51:15Z</time>
      </trkpt>
      <trkpt lat="47.81343" lon="6.88508">
        <ele>515.20001220703</ele>
        <time>2017-07-21T13:51:17Z</time>
      </trkpt>
      <trkpt lat="47.81344" lon="6.88504">
        <ele>515.40002441406</ele>
        <time>2017-07-21T13:51:18Z</time>
      </trkpt>
      <trkpt lat="47.81348" lon="6.88487">
        <ele>516</ele>
        <time>2017-07-21T13:51:23Z</time>
      </trkpt>
      <trkpt lat="47.81348" lon="6.88483">
        <ele>516</ele>
        <time>2017-07-21T13:51:24Z</time>
      </trkpt>
      <trkpt lat="47.81348" lon="6.88455">
        <ele>517</ele>
        <time>2017-07-21T13:51:32Z</time>
      </trkpt>
      <trkpt lat="47.81346" lon="6.88431">
        <ele>518</ele>
        <time>2017-07-21T13:51:39Z</time>
      </trkpt>
      <trkpt lat="47.81346" lon="6.88424">
        <ele>518.20001220703</ele>
        <time>2017-07-21T13:51:41Z</time>
      </trkpt>
      <trkpt lat="47.81344" lon="6.88405">
        <ele>519.20001220703</ele>
        <time>2017-07-21T13:51:47Z</time>
      </trkpt>
      <trkpt lat="47.81344" lon="6.88402">
        <ele>519.40002441406</ele>
        <time>2017-07-21T13:51:48Z</time>
      </trkpt>
      <trkpt lat="47.81342" lon="6.88387">
        <ele>520.20001220703</ele>
        <time>2017-07-21T13:51:53Z</time>
      </trkpt>
      <trkpt lat="47.81341" lon="6.88381">
        <ele>520.40002441406</ele>
        <time>2017-07-21T13:51:55Z</time>
      </trkpt>
      <trkpt lat="47.81341" lon="6.88364">
        <ele>521.40002441406</ele>
        <time>2017-07-21T13:52:00Z</time>
      </trkpt>
      <trkpt lat="47.81341" lon="6.88361">
        <ele>521.59997558594</ele>
        <time>2017-07-21T13:52:01Z</time>
      </trkpt>
      <trkpt lat="47.81339" lon="6.88346">
        <ele>522.59997558594</ele>
        <time>2017-07-21T13:52:06Z</time>
      </trkpt>
      <trkpt lat="47.81338" lon="6.88322">
        <ele>523.40002441406</ele>
        <time>2017-07-21T13:52:13Z</time>
      </trkpt>
      <trkpt lat="47.81337" lon="6.88315">
        <ele>523.59997558594</ele>
        <time>2017-07-21T13:52:15Z</time>
      </trkpt>
      <trkpt lat="47.81338" lon="6.88294">
        <ele>524</ele>
        <time>2017-07-21T13:52:20Z</time>
      </trkpt>
      <trkpt lat="47.81342" lon="6.88265">
        <ele>524.79998779297</ele>
        <time>2017-07-21T13:52:27Z</time>
      </trkpt>
      <trkpt lat="47.81343" lon="6.88257">
        <ele>525</ele>
        <time>2017-07-21T13:52:29Z</time>
      </trkpt>
      <trkpt lat="47.81348" lon="6.88237">
        <ele>526</ele>
        <time>2017-07-21T13:52:35Z</time>
      </trkpt>
      <trkpt lat="47.81355" lon="6.88216">
        <ele>527</ele>
        <time>2017-07-21T13:52:42Z</time>
      </trkpt>
      <trkpt lat="47.81363" lon="6.8819">
        <ele>528.20001220703</ele>
        <time>2017-07-21T13:52:50Z</time>
      </trkpt>
      <trkpt lat="47.81364" lon="6.88187">
        <ele>528.40002441406</ele>
        <time>2017-07-21T13:52:51Z</time>
      </trkpt>
      <trkpt lat="47.81369" lon="6.88167">
        <ele>529.20001220703</ele>
        <time>2017-07-21T13:52:57Z</time>
      </trkpt>
      <trkpt lat="47.81371" lon="6.88156">
        <ele>529.59997558594</ele>
        <time>2017-07-21T13:53:00Z</time>
      </trkpt>
      <trkpt lat="47.81373" lon="6.88138">
        <ele>530.20001220703</ele>
        <time>2017-07-21T13:53:05Z</time>
      </trkpt>
      <trkpt lat="47.81373" lon="6.88134">
        <ele>530.40002441406</ele>
        <time>2017-07-21T13:53:06Z</time>
      </trkpt>
      <trkpt lat="47.81377" lon="6.88103">
        <ele>530.79998779297</ele>
        <time>2017-07-21T13:53:14Z</time>
      </trkpt>
      <trkpt lat="47.81377" lon="6.88092">
        <ele>531.20001220703</ele>
        <time>2017-07-21T13:53:17Z</time>
      </trkpt>
      <trkpt lat="47.81376" lon="6.88076">
        <ele>532</ele>
        <time>2017-07-21T13:53:22Z</time>
      </trkpt>
      <trkpt lat="47.81376" lon="6.8807">
        <ele>532.40002441406</ele>
        <time>2017-07-21T13:53:24Z</time>
      </trkpt>
      <trkpt lat="47.81377" lon="6.88054">
        <ele>533.40002441406</ele>
        <time>2017-07-21T13:53:30Z</time>
      </trkpt>
      <trkpt lat="47.81377" lon="6.88052">
        <ele>533.59997558594</ele>
        <time>2017-07-21T13:53:31Z</time>
      </trkpt>
      <trkpt lat="47.81376" lon="6.88037">
        <ele>534.40002441406</ele>
        <time>2017-07-21T13:53:36Z</time>
      </trkpt>
      <trkpt lat="47.81376" lon="6.88035">
        <ele>534.59997558594</ele>
        <time>2017-07-21T13:53:37Z</time>
      </trkpt>
      <trkpt lat="47.81375" lon="6.88022">
        <ele>535.59997558594</ele>
        <time>2017-07-21T13:53:42Z</time>
      </trkpt>
      <trkpt lat="47.81374" lon="6.88017">
        <ele>536</ele>
        <time>2017-07-21T13:53:44Z</time>
      </trkpt>
      <trkpt lat="47.81372" lon="6.88004">
        <ele>536.79998779297</ele>
        <time>2017-07-21T13:53:49Z</time>
      </trkpt>
      <trkpt lat="47.81371" lon="6.87999">
        <ele>537.20001220703</ele>
        <time>2017-07-21T13:53:51Z</time>
      </trkpt>
      <trkpt lat="47.81368" lon="6.8799">
        <ele>537.79998779297</ele>
        <time>2017-07-21T13:53:55Z</time>
      </trkpt>
      <trkpt lat="47.81366" lon="6.87983">
        <ele>538.20001220703</ele>
        <time>2017-07-21T13:53:58Z</time>
      </trkpt>
      <trkpt lat="47.81364" lon="6.87972">
        <ele>538.79998779297</ele>
        <time>2017-07-21T13:54:02Z</time>
      </trkpt>
      <trkpt lat="47.81362" lon="6.87965">
        <ele>539.40002441406</ele>
        <time>2017-07-21T13:54:05Z</time>
      </trkpt>
      <trkpt lat="47.81362" lon="6.87962">
        <ele>539.59997558594</ele>
        <time>2017-07-21T13:54:06Z</time>
      </trkpt>
      <trkpt lat="47.81361" lon="6.87957">
        <ele>539.79998779297</ele>
        <time>2017-07-21T13:54:08Z</time>
      </trkpt>
      <trkpt lat="47.81359" lon="6.87941">
        <ele>540.79998779297</ele>
        <time>2017-07-21T13:54:14Z</time>
      </trkpt>
      <trkpt lat="47.81359" lon="6.87938">
        <ele>541</ele>
        <time>2017-07-21T13:54:15Z</time>
      </trkpt>
      <trkpt lat="47.81358" lon="6.87924">
        <ele>542</ele>
        <time>2017-07-21T13:54:21Z</time>
      </trkpt>
      <trkpt lat="47.81358" lon="6.87919">
        <ele>542.20001220703</ele>
        <time>2017-07-21T13:54:23Z</time>
      </trkpt>
      <trkpt lat="47.81358" lon="6.87909">
        <ele>543.20001220703</ele>
        <time>2017-07-21T13:54:27Z</time>
      </trkpt>
      <trkpt lat="47.81358" lon="6.87899">
        <ele>543.79998779297</ele>
        <time>2017-07-21T13:54:31Z</time>
      </trkpt>
      <trkpt lat="47.81356" lon="6.8789">
        <ele>544.20001220703</ele>
        <time>2017-07-21T13:54:34Z</time>
      </trkpt>
      <trkpt lat="47.81356" lon="6.87885">
        <ele>544.59997558594</ele>
        <time>2017-07-21T13:54:36Z</time>
      </trkpt>
      <trkpt lat="47.81356" lon="6.87875">
        <ele>545.40002441406</ele>
        <time>2017-07-21T13:54:40Z</time>
      </trkpt>
      <trkpt lat="47.81357" lon="6.87865">
        <ele>546</ele>
        <time>2017-07-21T13:54:44Z</time>
      </trkpt>
      <trkpt lat="47.81358" lon="6.87857">
        <ele>546.40002441406</ele>
        <time>2017-07-21T13:54:47Z</time>
      </trkpt>
      <trkpt lat="47.8136" lon="6.87848">
        <ele>547.20001220703</ele>
        <time>2017-07-21T13:54:51Z</time>
      </trkpt>
      <trkpt lat="47.81361" lon="6.87841">
        <ele>547.59997558594</ele>
        <time>2017-07-21T13:54:54Z</time>
      </trkpt>
      <trkpt lat="47.81363" lon="6.87828">
        <ele>548.40002441406</ele>
        <time>2017-07-21T13:54:59Z</time>
      </trkpt>
      <trkpt lat="47.81364" lon="6.87822">
        <ele>548.59997558594</ele>
        <time>2017-07-21T13:55:01Z</time>
      </trkpt>
      <trkpt lat="47.81368" lon="6.87807">
        <ele>549.59997558594</ele>
        <time>2017-07-21T13:55:07Z</time>
      </trkpt>
      <trkpt lat="47.81368" lon="6.87805">
        <ele>549.79998779297</ele>
        <time>2017-07-21T13:55:08Z</time>
      </trkpt>
      <trkpt lat="47.81372" lon="6.8779">
        <ele>550.59997558594</ele>
        <time>2017-07-21T13:55:14Z</time>
      </trkpt>
      <trkpt lat="47.81372" lon="6.87788">
        <ele>551</ele>
        <time>2017-07-21T13:55:15Z</time>
      </trkpt>
      <trkpt lat="47.81377" lon="6.87774">
        <ele>551.79998779297</ele>
        <time>2017-07-21T13:55:21Z</time>
      </trkpt>
      <trkpt lat="47.81378" lon="6.87769">
        <ele>552</ele>
        <time>2017-07-21T13:55:23Z</time>
      </trkpt>
      <trkpt lat="47.81384" lon="6.87754">
        <ele>552.79998779297</ele>
        <time>2017-07-21T13:55:29Z</time>
      </trkpt>
      <trkpt lat="47.81385" lon="6.87752">
        <ele>553</ele>
        <time>2017-07-21T13:55:30Z</time>
      </trkpt>
      <trkpt lat="47.81395" lon="6.87738">
        <ele>553.79998779297</ele>
        <time>2017-07-21T13:55:37Z</time>
      </trkpt>
      <trkpt lat="47.81398" lon="6.87735">
        <ele>554.20001220703</ele>
        <time>2017-07-21T13:55:39Z</time>
      </trkpt>
      <trkpt lat="47.81407" lon="6.87729">
        <ele>555</ele>
        <time>2017-07-21T13:55:44Z</time>
      </trkpt>
      <trkpt lat="47.81413" lon="6.87726">
        <ele>555.40002441406</ele>
        <time>2017-07-21T13:55:47Z</time>
      </trkpt>
      <trkpt lat="47.81426" lon="6.87724">
        <ele>556.20001220703</ele>
        <time>2017-07-21T13:55:53Z</time>
      </trkpt>
      <trkpt lat="47.81428" lon="6.87724">
        <ele>556.40002441406</ele>
        <time>2017-07-21T13:55:54Z</time>
      </trkpt>
      <trkpt lat="47.81439" lon="6.87723">
        <ele>557</ele>
        <time>2017-07-21T13:55:59Z</time>
      </trkpt>
      <trkpt lat="47.81446" lon="6.87722">
        <ele>557.40002441406</ele>
        <time>2017-07-21T13:56:02Z</time>
      </trkpt>
      <trkpt lat="47.81456" lon="6.8772">
        <ele>558.20001220703</ele>
        <time>2017-07-21T13:56:07Z</time>
      </trkpt>
      <trkpt lat="47.81462" lon="6.87721">
        <ele>558.59997558594</ele>
        <time>2017-07-21T13:56:10Z</time>
      </trkpt>
      <trkpt lat="47.81466" lon="6.87722">
        <ele>558.79998779297</ele>
        <time>2017-07-21T13:56:12Z</time>
      </trkpt>
      <trkpt lat="47.81478" lon="6.87722">
        <ele>559.59997558594</ele>
        <time>2017-07-21T13:56:18Z</time>
      </trkpt>
      <trkpt lat="47.8148" lon="6.87723">
        <ele>559.79998779297</ele>
        <time>2017-07-21T13:56:19Z</time>
      </trkpt>
      <trkpt lat="47.81494" lon="6.8772">
        <ele>560.59997558594</ele>
        <time>2017-07-21T13:56:26Z</time>
      </trkpt>
      <trkpt lat="47.81496" lon="6.87718">
        <ele>560.79998779297</ele>
        <time>2017-07-21T13:56:27Z</time>
      </trkpt>
      <trkpt lat="47.81505" lon="6.87715">
        <ele>561.20001220703</ele>
        <time>2017-07-21T13:56:32Z</time>
      </trkpt>
      <trkpt lat="47.81513" lon="6.87714">
        <ele>561.79998779297</ele>
        <time>2017-07-21T13:56:36Z</time>
      </trkpt>
      <trkpt lat="47.8152" lon="6.87713">
        <ele>562.20001220703</ele>
        <time>2017-07-21T13:56:40Z</time>
      </trkpt>
      <trkpt lat="47.8153" lon="6.87715">
        <ele>563</ele>
        <time>2017-07-21T13:56:45Z</time>
      </trkpt>
      <trkpt lat="47.81535" lon="6.87716">
        <ele>563.40002441406</ele>
        <time>2017-07-21T13:56:48Z</time>
      </trkpt>
      <trkpt lat="47.8154" lon="6.87715">
        <ele>564</ele>
        <time>2017-07-21T13:56:51Z</time>
      </trkpt>
      <trkpt lat="47.8155" lon="6.87709">
        <ele>565</ele>
        <time>2017-07-21T13:56:56Z</time>
      </trkpt>
      <trkpt lat="47.81552" lon="6.87708">
        <ele>565</ele>
        <time>2017-07-21T13:56:57Z</time>
      </trkpt>
      <trkpt lat="47.81565" lon="6.877">
        <ele>566</ele>
        <time>2017-07-21T13:57:04Z</time>
      </trkpt>
      <trkpt lat="47.81567" lon="6.87699">
        <ele>566.20001220703</ele>
        <time>2017-07-21T13:57:05Z</time>
      </trkpt>
      <trkpt lat="47.8158" lon="6.87693">
        <ele>567.20001220703</ele>
        <time>2017-07-21T13:57:12Z</time>
      </trkpt>
      <trkpt lat="47.81581" lon="6.87691">
        <ele>567.40002441406</ele>
        <time>2017-07-21T13:57:13Z</time>
      </trkpt>
      <trkpt lat="47.81589" lon="6.87684">
        <ele>568.20001220703</ele>
        <time>2017-07-21T13:57:18Z</time>
      </trkpt>
      <trkpt lat="47.81591" lon="6.87679">
        <ele>568.59997558594</ele>
        <time>2017-07-21T13:57:20Z</time>
      </trkpt>
      <trkpt lat="47.81599" lon="6.8767">
        <ele>569.40002441406</ele>
        <time>2017-07-21T13:57:26Z</time>
      </trkpt>
      <trkpt lat="47.816" lon="6.87668">
        <ele>569.40002441406</ele>
        <time>2017-07-21T13:57:27Z</time>
      </trkpt>
      <trkpt lat="47.81603" lon="6.87661">
        <ele>569.79998779297</ele>
        <time>2017-07-21T13:57:30Z</time>
      </trkpt>
      <trkpt lat="47.81603" lon="6.87655">
        <ele>570.20001220703</ele>
        <time>2017-07-21T13:57:32Z</time>
      </trkpt>
      <trkpt lat="47.81603" lon="6.8765">
        <ele>570.40002441406</ele>
        <time>2017-07-21T13:57:34Z</time>
      </trkpt>
      <trkpt lat="47.81602" lon="6.87646">
        <ele>570.59997558594</ele>
        <time>2017-07-21T13:57:36Z</time>
      </trkpt>
      <trkpt lat="47.81601" lon="6.87645">
        <ele>570.79998779297</ele>
        <time>2017-07-21T13:57:37Z</time>
      </trkpt>
      <trkpt lat="47.81595" lon="6.87642">
        <ele>571.40002441406</ele>
        <time>2017-07-21T13:57:40Z</time>
      </trkpt>
      <trkpt lat="47.81594" lon="6.87642">
        <ele>571.59997558594</ele>
        <time>2017-07-21T13:57:41Z</time>
      </trkpt>
      <trkpt lat="47.81588" lon="6.8764">
        <ele>572</ele>
        <time>2017-07-21T13:57:44Z</time>
      </trkpt>
      <trkpt lat="47.81581" lon="6.87637">
        <ele>572.40002441406</ele>
        <time>2017-07-21T13:57:48Z</time>
      </trkpt>
      <trkpt lat="47.81574" lon="6.87635">
        <ele>573.20001220703</ele>
        <time>2017-07-21T13:57:52Z</time>
      </trkpt>
      <trkpt lat="47.8157" lon="6.87635">
        <ele>573.59997558594</ele>
        <time>2017-07-21T13:57:54Z</time>
      </trkpt>
      <trkpt lat="47.81558" lon="6.87639">
        <ele>574.40002441406</ele>
        <time>2017-07-21T13:58:01Z</time>
      </trkpt>
      <trkpt lat="47.81556" lon="6.87641">
        <ele>574.59997558594</ele>
        <time>2017-07-21T13:58:02Z</time>
      </trkpt>
      <trkpt lat="47.81553" lon="6.87643">
        <ele>575</ele>
        <time>2017-07-21T13:58:04Z</time>
      </trkpt>
      <trkpt lat="47.81544" lon="6.87653">
        <ele>575.59997558594</ele>
        <time>2017-07-21T13:58:10Z</time>
      </trkpt>
      <trkpt lat="47.81535" lon="6.87661">
        <ele>576.20001220703</ele>
        <time>2017-07-21T13:58:16Z</time>
      </trkpt>
      <trkpt lat="47.81534" lon="6.8766">
        <ele>576.20001220703</ele>
        <time>2017-07-21T13:58:17Z</time>
      </trkpt>
      <trkpt lat="47.8153" lon="6.87662">
        <ele>576.79998779297</ele>
        <time>2017-07-21T13:58:20Z</time>
      </trkpt>
      <trkpt lat="47.81529" lon="6.87666">
        <ele>577</ele>
        <time>2017-07-21T13:58:22Z</time>
      </trkpt>
      <trkpt lat="47.81506" lon="6.8766">
        <ele>582.20001220703</ele>
        <time>2017-07-21T14:03:21Z</time>
      </trkpt>
      <trkpt lat="47.81511" lon="6.87652">
        <ele>584</ele>
        <time>2017-07-22T06:34:20Z</time>
      </trkpt>
      <trkpt lat="47.81508" lon="6.87653">
        <ele>584.40002441406</ele>
        <time>2017-07-22T06:34:35Z</time>
      </trkpt>
      <trkpt lat="47.81506" lon="6.87655">
        <ele>584.40002441406</ele>
        <time>2017-07-22T06:34:37Z</time>
      </trkpt>
      <trkpt lat="47.81507" lon="6.87665">
        <ele>583.79998779297</ele>
        <time>2017-07-22T06:34:42Z</time>
      </trkpt>
      <trkpt lat="47.81515" lon="6.87674">
        <ele>583</ele>
        <time>2017-07-22T06:34:47Z</time>
      </trkpt>
      <trkpt lat="47.81517" lon="6.87674">
        <ele>582.59997558594</ele>
        <time>2017-07-22T06:34:48Z</time>
      </trkpt>
      <trkpt lat="47.81522" lon="6.87672">
        <ele>581.59997558594</ele>
        <time>2017-07-22T06:34:51Z</time>
      </trkpt>
      <trkpt lat="47.81523" lon="6.87671">
        <ele>581.40002441406</ele>
        <time>2017-07-22T06:34:52Z</time>
      </trkpt>
      <trkpt lat="47.81525" lon="6.87664">
        <ele>581.20001220703</ele>
        <time>2017-07-22T06:34:56Z</time>
      </trkpt>
      <trkpt lat="47.81526" lon="6.8766">
        <ele>581.20001220703</ele>
        <time>2017-07-22T06:34:58Z</time>
      </trkpt>
      <trkpt lat="47.81527" lon="6.87647">
        <ele>581.79998779297</ele>
        <time>2017-07-22T06:35:04Z</time>
      </trkpt>
      <trkpt lat="47.81531" lon="6.87629">
        <ele>582.20001220703</ele>
        <time>2017-07-22T06:35:10Z</time>
      </trkpt>
      <trkpt lat="47.81535" lon="6.87623">
        <ele>582.59997558594</ele>
        <time>2017-07-22T06:35:13Z</time>
      </trkpt>
      <trkpt lat="47.81536" lon="6.87622">
        <ele>582.79998779297</ele>
        <time>2017-07-22T06:35:14Z</time>
      </trkpt>
      <trkpt lat="47.81538" lon="6.87621">
        <ele>583</ele>
        <time>2017-07-22T06:35:15Z</time>
      </trkpt>
      <trkpt lat="47.81545" lon="6.87618">
        <ele>583.40002441406</ele>
        <time>2017-07-22T06:35:19Z</time>
      </trkpt>
      <trkpt lat="47.81548" lon="6.87617">
        <ele>583.59997558594</ele>
        <time>2017-07-22T06:35:21Z</time>
      </trkpt>
      <trkpt lat="47.81551" lon="6.87615">
        <ele>583.79998779297</ele>
        <time>2017-07-22T06:35:23Z</time>
      </trkpt>
      <trkpt lat="47.81553" lon="6.87615">
        <ele>584</ele>
        <time>2017-07-22T06:35:24Z</time>
      </trkpt>
      <trkpt lat="47.81558" lon="6.87616">
        <ele>584.40002441406</ele>
        <time>2017-07-22T06:35:27Z</time>
      </trkpt>
      <trkpt lat="47.8156" lon="6.87615">
        <ele>584.79998779297</ele>
        <time>2017-07-22T06:35:29Z</time>
      </trkpt>
      <trkpt lat="47.81565" lon="6.87613">
        <ele>585.40002441406</ele>
        <time>2017-07-22T06:35:32Z</time>
      </trkpt>
      <trkpt lat="47.81566" lon="6.87609">
        <ele>585.59997558594</ele>
        <time>2017-07-22T06:35:34Z</time>
      </trkpt>
      <trkpt lat="47.81568" lon="6.87604">
        <ele>585.79998779297</ele>
        <time>2017-07-22T06:35:36Z</time>
      </trkpt>
      <trkpt lat="47.81568" lon="6.87596">
        <ele>586.20001220703</ele>
        <time>2017-07-22T06:35:39Z</time>
      </trkpt>
      <trkpt lat="47.81568" lon="6.87594">
        <ele>586.40002441406</ele>
        <time>2017-07-22T06:35:40Z</time>
      </trkpt>
      <trkpt lat="47.8156" lon="6.87586">
        <ele>586.79998779297</ele>
        <time>2017-07-22T06:35:45Z</time>
      </trkpt>
      <trkpt lat="47.81558" lon="6.87584">
        <ele>587</ele>
        <time>2017-07-22T06:35:46Z</time>
      </trkpt>
      <trkpt lat="47.81556" lon="6.87583">
        <ele>587</ele>
        <time>2017-07-22T06:35:47Z</time>
      </trkpt>
      <trkpt lat="47.81547" lon="6.87578">
        <ele>587.59997558594</ele>
        <time>2017-07-22T06:35:52Z</time>
      </trkpt>
      <trkpt lat="47.81542" lon="6.87573">
        <ele>588</ele>
        <time>2017-07-22T06:35:56Z</time>
      </trkpt>
      <trkpt lat="47.81542" lon="6.87571">
        <ele>588.20001220703</ele>
        <time>2017-07-22T06:35:57Z</time>
      </trkpt>
      <trkpt lat="47.81539" lon="6.87556">
        <ele>589.20001220703</ele>
        <time>2017-07-22T06:36:03Z</time>
      </trkpt>
      <trkpt lat="47.81539" lon="6.87553">
        <ele>589.20001220703</ele>
        <time>2017-07-22T06:36:04Z</time>
      </trkpt>
      <trkpt lat="47.81543" lon="6.87546">
        <ele>590</ele>
        <time>2017-07-22T06:36:08Z</time>
      </trkpt>
      <trkpt lat="47.81545" lon="6.87545">
        <ele>590</ele>
        <time>2017-07-22T06:36:09Z</time>
      </trkpt>
      <trkpt lat="47.81546" lon="6.87545">
        <ele>590.20001220703</ele>
        <time>2017-07-22T06:36:10Z</time>
      </trkpt>
      <trkpt lat="47.81557" lon="6.87546">
        <ele>591.20001220703</ele>
        <time>2017-07-22T06:36:16Z</time>
      </trkpt>
      <trkpt lat="47.81569" lon="6.87544">
        <ele>592</ele>
        <time>2017-07-22T06:36:23Z</time>
      </trkpt>
      <trkpt lat="47.81571" lon="6.87544">
        <ele>592.20001220703</ele>
        <time>2017-07-22T06:36:24Z</time>
      </trkpt>
      <trkpt lat="47.81573" lon="6.87544">
        <ele>592.40002441406</ele>
        <time>2017-07-22T06:36:25Z</time>
      </trkpt>
      <trkpt lat="47.81579" lon="6.87546">
        <ele>592.79998779297</ele>
        <time>2017-07-22T06:36:28Z</time>
      </trkpt>
      <trkpt lat="47.81584" lon="6.87544">
        <ele>593.20001220703</ele>
        <time>2017-07-22T06:36:31Z</time>
      </trkpt>
      <trkpt lat="47.8159" lon="6.87542">
        <ele>593.59997558594</ele>
        <time>2017-07-22T06:36:34Z</time>
      </trkpt>
      <trkpt lat="47.81601" lon="6.87534">
        <ele>594.40002441406</ele>
        <time>2017-07-22T06:36:40Z</time>
      </trkpt>
      <trkpt lat="47.81603" lon="6.87533">
        <ele>594.59997558594</ele>
        <time>2017-07-22T06:36:41Z</time>
      </trkpt>
      <trkpt lat="47.81614" lon="6.87536">
        <ele>595.20001220703</ele>
        <time>2017-07-22T06:36:47Z</time>
      </trkpt>
      <trkpt lat="47.81619" lon="6.87539">
        <ele>595.40002441406</ele>
        <time>2017-07-22T06:36:50Z</time>
      </trkpt>
      <trkpt lat="47.81628" lon="6.87546">
        <ele>596.20001220703</ele>
        <time>2017-07-22T06:36:55Z</time>
      </trkpt>
      <trkpt lat="47.81634" lon="6.8755">
        <ele>596.59997558594</ele>
        <time>2017-07-22T06:36:59Z</time>
      </trkpt>
      <trkpt lat="47.8164" lon="6.87555">
        <ele>597.20001220703</ele>
        <time>2017-07-22T06:37:03Z</time>
      </trkpt>
      <trkpt lat="47.81645" lon="6.87555">
        <ele>597.79998779297</ele>
        <time>2017-07-22T06:37:06Z</time>
      </trkpt>
      <trkpt lat="47.81649" lon="6.87553">
        <ele>598</ele>
        <time>2017-07-22T06:37:08Z</time>
      </trkpt>
      <trkpt lat="47.81657" lon="6.87551">
        <ele>598.79998779297</ele>
        <time>2017-07-22T06:37:12Z</time>
      </trkpt>
      <trkpt lat="47.81662" lon="6.87547">
        <ele>599.20001220703</ele>
        <time>2017-07-22T06:37:15Z</time>
      </trkpt>
      <trkpt lat="47.8167" lon="6.87533">
        <ele>599.79998779297</ele>
        <time>2017-07-22T06:37:21Z</time>
      </trkpt>
      <trkpt lat="47.81671" lon="6.8753">
        <ele>599.79998779297</ele>
        <time>2017-07-22T06:37:22Z</time>
      </trkpt>
      <trkpt lat="47.81678" lon="6.87512">
        <ele>600.79998779297</ele>
        <time>2017-07-22T06:37:30Z</time>
      </trkpt>
      <trkpt lat="47.8168" lon="6.8751">
        <ele>600.79998779297</ele>
        <time>2017-07-22T06:37:31Z</time>
      </trkpt>
      <trkpt lat="47.81692" lon="6.87497">
        <ele>601.79998779297</ele>
        <time>2017-07-22T06:37:39Z</time>
      </trkpt>
      <trkpt lat="47.81694" lon="6.87496">
        <ele>602</ele>
        <time>2017-07-22T06:37:40Z</time>
      </trkpt>
      <trkpt lat="47.81702" lon="6.87496">
        <ele>602.79998779297</ele>
        <time>2017-07-22T06:37:45Z</time>
      </trkpt>
      <trkpt lat="47.81704" lon="6.87497">
        <ele>603</ele>
        <time>2017-07-22T06:37:46Z</time>
      </trkpt>
      <trkpt lat="47.81705" lon="6.87499">
        <ele>603</ele>
        <time>2017-07-22T06:37:47Z</time>
      </trkpt>
      <trkpt lat="47.81714" lon="6.87501">
        <ele>604</ele>
        <time>2017-07-22T06:37:52Z</time>
      </trkpt>
      <trkpt lat="47.81716" lon="6.87502">
        <ele>604.20001220703</ele>
        <time>2017-07-22T06:37:53Z</time>
      </trkpt>
      <trkpt lat="47.81719" lon="6.87502">
        <ele>604.40002441406</ele>
        <time>2017-07-22T06:37:55Z</time>
      </trkpt>
      <trkpt lat="47.81723" lon="6.87498">
        <ele>605</ele>
        <time>2017-07-22T06:37:58Z</time>
      </trkpt>
      <trkpt lat="47.81725" lon="6.87496">
        <ele>605.20001220703</ele>
        <time>2017-07-22T06:37:59Z</time>
      </trkpt>
      <trkpt lat="47.81727" lon="6.87491">
        <ele>605.40002441406</ele>
        <time>2017-07-22T06:38:01Z</time>
      </trkpt>
      <trkpt lat="47.81726" lon="6.87484">
        <ele>605.79998779297</ele>
        <time>2017-07-22T06:38:04Z</time>
      </trkpt>
      <trkpt lat="47.8172" lon="6.87477">
        <ele>606.40002441406</ele>
        <time>2017-07-22T06:38:08Z</time>
      </trkpt>
      <trkpt lat="47.81716" lon="6.87476">
        <ele>606.59997558594</ele>
        <time>2017-07-22T06:38:10Z</time>
      </trkpt>
      <trkpt lat="47.81704" lon="6.87478">
        <ele>607.40002441406</ele>
        <time>2017-07-22T06:38:16Z</time>
      </trkpt>
      <trkpt lat="47.81691" lon="6.87477">
        <ele>607.79998779297</ele>
        <time>2017-07-22T06:38:21Z</time>
      </trkpt>
      <trkpt lat="47.81666" lon="6.87474">
        <ele>608.20001220703</ele>
        <time>2017-07-22T06:38:30Z</time>
      </trkpt>
      <trkpt lat="47.81658" lon="6.8747">
        <ele>608.40002441406</ele>
        <time>2017-07-22T06:38:33Z</time>
      </trkpt>
      <trkpt lat="47.8165" lon="6.87458">
        <ele>608.59997558594</ele>
        <time>2017-07-22T06:38:37Z</time>
      </trkpt>
      <trkpt lat="47.81649" lon="6.87441">
        <ele>609.40002441406</ele>
        <time>2017-07-22T06:38:42Z</time>
      </trkpt>
      <trkpt lat="47.81651" lon="6.87434">
        <ele>609.59997558594</ele>
        <time>2017-07-22T06:38:44Z</time>
      </trkpt>
      <trkpt lat="47.81654" lon="6.87419">
        <ele>610.40002441406</ele>
        <time>2017-07-22T06:38:49Z</time>
      </trkpt>
      <trkpt lat="47.81654" lon="6.87416">
        <ele>610.59997558594</ele>
        <time>2017-07-22T06:38:50Z</time>
      </trkpt>
      <trkpt lat="47.81653" lon="6.87402">
        <ele>611.79998779297</ele>
        <time>2017-07-22T06:38:55Z</time>
      </trkpt>
      <trkpt lat="47.81651" lon="6.87397">
        <ele>612</ele>
        <time>2017-07-22T06:38:57Z</time>
      </trkpt>
      <trkpt lat="47.81644" lon="6.87394">
        <ele>612.40002441406</ele>
        <time>2017-07-22T06:39:00Z</time>
      </trkpt>
      <trkpt lat="47.81638" lon="6.87392">
        <ele>612.79998779297</ele>
        <time>2017-07-22T06:39:03Z</time>
      </trkpt>
      <trkpt lat="47.81636" lon="6.87391">
        <ele>613.20001220703</ele>
        <time>2017-07-22T06:39:04Z</time>
      </trkpt>
      <trkpt lat="47.81629" lon="6.87387">
        <ele>613.79998779297</ele>
        <time>2017-07-22T06:39:08Z</time>
      </trkpt>
      <trkpt lat="47.81628" lon="6.87387">
        <ele>613.79998779297</ele>
        <time>2017-07-22T06:39:09Z</time>
      </trkpt>
      <trkpt lat="47.81626" lon="6.87386">
        <ele>614.20001220703</ele>
        <time>2017-07-22T06:39:11Z</time>
      </trkpt>
      <trkpt lat="47.81621" lon="6.87384">
        <ele>614.79998779297</ele>
        <time>2017-07-22T06:39:14Z</time>
      </trkpt>
      <trkpt lat="47.81618" lon="6.87381">
        <ele>615</ele>
        <time>2017-07-22T06:39:16Z</time>
      </trkpt>
      <trkpt lat="47.81611" lon="6.87377">
        <ele>615.79998779297</ele>
        <time>2017-07-22T06:39:20Z</time>
      </trkpt>
      <trkpt lat="47.8161" lon="6.87376">
        <ele>616</ele>
        <time>2017-07-22T06:39:21Z</time>
      </trkpt>
      <trkpt lat="47.81609" lon="6.87374">
        <ele>616</ele>
        <time>2017-07-22T06:39:22Z</time>
      </trkpt>
      <trkpt lat="47.81602" lon="6.87371">
        <ele>616.79998779297</ele>
        <time>2017-07-22T06:39:26Z</time>
      </trkpt>
      <trkpt lat="47.81599" lon="6.87369">
        <ele>617.20001220703</ele>
        <time>2017-07-22T06:39:28Z</time>
      </trkpt>
      <trkpt lat="47.8159" lon="6.87366">
        <ele>618.20001220703</ele>
        <time>2017-07-22T06:39:34Z</time>
      </trkpt>
      <trkpt lat="47.81588" lon="6.87366">
        <ele>618.40002441406</ele>
        <time>2017-07-22T06:39:35Z</time>
      </trkpt>
      <trkpt lat="47.81579" lon="6.87366">
        <ele>619.40002441406</ele>
        <time>2017-07-22T06:39:41Z</time>
      </trkpt>
      <trkpt lat="47.81578" lon="6.87365">
        <ele>619.40002441406</ele>
        <time>2017-07-22T06:39:42Z</time>
      </trkpt>
      <trkpt lat="47.81577" lon="6.87364">
        <ele>619.59997558594</ele>
        <time>2017-07-22T06:39:43Z</time>
      </trkpt>
      <trkpt lat="47.81574" lon="6.87361">
        <ele>620</ele>
        <time>2017-07-22T06:39:46Z</time>
      </trkpt>
      <trkpt lat="47.81572" lon="6.87363">
        <ele>620.59997558594</ele>
        <time>2017-07-22T06:40:04Z</time>
      </trkpt>
      <trkpt lat="47.81572" lon="6.87364">
        <ele>620.59997558594</ele>
        <time>2017-07-22T06:40:05Z</time>
      </trkpt>
      <trkpt lat="47.8157" lon="6.87369">
        <ele>620.59997558594</ele>
        <time>2017-07-22T06:40:08Z</time>
      </trkpt>
      <trkpt lat="47.81569" lon="6.87377">
        <ele>620.59997558594</ele>
        <time>2017-07-22T06:40:11Z</time>
      </trkpt>
      <trkpt lat="47.81564" lon="6.87385">
        <ele>620.59997558594</ele>
        <time>2017-07-22T06:40:14Z</time>
      </trkpt>
      <trkpt lat="47.8156" lon="6.87389">
        <ele>620.59997558594</ele>
        <time>2017-07-22T06:40:16Z</time>
      </trkpt>
      <trkpt lat="47.81544" lon="6.87406">
        <ele>621.20001220703</ele>
        <time>2017-07-22T06:40:23Z</time>
      </trkpt>
      <trkpt lat="47.81535" lon="6.87411">
        <ele>621.59997558594</ele>
        <time>2017-07-22T06:40:27Z</time>
      </trkpt>
      <trkpt lat="47.81531" lon="6.8741">
        <ele>622</ele>
        <time>2017-07-22T06:40:29Z</time>
      </trkpt>
      <trkpt lat="47.8152" lon="6.87406">
        <ele>622.59997558594</ele>
        <time>2017-07-22T06:40:34Z</time>
      </trkpt>
      <trkpt lat="47.81518" lon="6.87404">
        <ele>622.59997558594</ele>
        <time>2017-07-22T06:40:35Z</time>
      </trkpt>
      <trkpt lat="47.81516" lon="6.87402">
        <ele>622.79998779297</ele>
        <time>2017-07-22T06:40:36Z</time>
      </trkpt>
      <trkpt lat="47.81515" lon="6.87395">
        <ele>622.79998779297</ele>
        <time>2017-07-22T06:40:38Z</time>
      </trkpt>
      <trkpt lat="47.81512" lon="6.87373">
        <ele>623.20001220703</ele>
        <time>2017-07-22T06:40:43Z</time>
      </trkpt>
      <trkpt lat="47.81512" lon="6.87369">
        <ele>623.20001220703</ele>
        <time>2017-07-22T06:40:44Z</time>
      </trkpt>
      <trkpt lat="47.81515" lon="6.87362">
        <ele>623.40002441406</ele>
        <time>2017-07-22T06:40:46Z</time>
      </trkpt>
      <trkpt lat="47.81518" lon="6.87355">
        <ele>623.79998779297</ele>
        <time>2017-07-22T06:40:48Z</time>
      </trkpt>
      <trkpt lat="47.81531" lon="6.87339">
        <ele>624.59997558594</ele>
        <time>2017-07-22T06:40:54Z</time>
      </trkpt>
      <trkpt lat="47.81533" lon="6.87336">
        <ele>624.79998779297</ele>
        <time>2017-07-22T06:40:55Z</time>
      </trkpt>
      <trkpt lat="47.81543" lon="6.87319">
        <ele>625.59997558594</ele>
        <time>2017-07-22T06:41:01Z</time>
      </trkpt>
      <trkpt lat="47.81546" lon="6.87313">
        <ele>625.79998779297</ele>
        <time>2017-07-22T06:41:03Z</time>
      </trkpt>
      <trkpt lat="47.81551" lon="6.87296">
        <ele>626.40002441406</ele>
        <time>2017-07-22T06:41:08Z</time>
      </trkpt>
      <trkpt lat="47.81556" lon="6.87284">
        <ele>626.79998779297</ele>
        <time>2017-07-22T06:41:12Z</time>
      </trkpt>
      <trkpt lat="47.8156" lon="6.87273">
        <ele>627.79998779297</ele>
        <time>2017-07-22T06:44:33Z</time>
      </trkpt>
      <trkpt lat="47.81561" lon="6.87266">
        <ele>627.79998779297</ele>
        <time>2017-07-22T06:44:36Z</time>
      </trkpt>
      <trkpt lat="47.81563" lon="6.87256">
        <ele>628</ele>
        <time>2017-07-22T06:44:39Z</time>
      </trkpt>
      <trkpt lat="47.81563" lon="6.87248">
        <ele>628.40002441406</ele>
        <time>2017-07-22T06:44:42Z</time>
      </trkpt>
      <trkpt lat="47.81564" lon="6.87235">
        <ele>629</ele>
        <time>2017-07-22T06:44:47Z</time>
      </trkpt>
      <trkpt lat="47.81565" lon="6.87232">
        <ele>629</ele>
        <time>2017-07-22T06:44:48Z</time>
      </trkpt>
      <trkpt lat="47.81572" lon="6.87211">
        <ele>629.79998779297</ele>
        <time>2017-07-22T06:44:54Z</time>
      </trkpt>
      <trkpt lat="47.81573" lon="6.87207">
        <ele>630</ele>
        <time>2017-07-22T06:44:55Z</time>
      </trkpt>
      <trkpt lat="47.81582" lon="6.87186">
        <ele>631</ele>
        <time>2017-07-22T06:45:02Z</time>
      </trkpt>
      <trkpt lat="47.81583" lon="6.87183">
        <ele>631</ele>
        <time>2017-07-22T06:45:03Z</time>
      </trkpt>
      <trkpt lat="47.81593" lon="6.8716">
        <ele>631.59997558594</ele>
        <time>2017-07-22T06:45:10Z</time>
      </trkpt>
      <trkpt lat="47.81605" lon="6.87143">
        <ele>632.20001220703</ele>
        <time>2017-07-22T06:45:16Z</time>
      </trkpt>
      <trkpt lat="47.81606" lon="6.8714">
        <ele>632.20001220703</ele>
        <time>2017-07-22T06:45:17Z</time>
      </trkpt>
      <trkpt lat="47.81616" lon="6.8712">
        <ele>632.59997558594</ele>
        <time>2017-07-22T06:45:23Z</time>
      </trkpt>
      <trkpt lat="47.81621" lon="6.87096">
        <ele>633.20001220703</ele>
        <time>2017-07-22T06:45:29Z</time>
      </trkpt>
      <trkpt lat="47.81621" lon="6.87092">
        <ele>633.20001220703</ele>
        <time>2017-07-22T06:45:30Z</time>
      </trkpt>
      <trkpt lat="47.8162" lon="6.87066">
        <ele>633.40002441406</ele>
        <time>2017-07-22T06:45:36Z</time>
      </trkpt>
      <trkpt lat="47.81618" lon="6.87036">
        <ele>633.59997558594</ele>
        <time>2017-07-22T06:45:42Z</time>
      </trkpt>
      <trkpt lat="47.81622" lon="6.86999">
        <ele>633.59997558594</ele>
        <time>2017-07-22T06:45:48Z</time>
      </trkpt>
      <trkpt lat="47.81633" lon="6.86969">
        <ele>633.40002441406</ele>
        <time>2017-07-22T06:45:54Z</time>
      </trkpt>
      <trkpt lat="47.81643" lon="6.86951">
        <ele>634</ele>
        <time>2017-07-22T06:45:59Z</time>
      </trkpt>
      <trkpt lat="47.81646" lon="6.86944">
        <ele>634.20001220703</ele>
        <time>2017-07-22T06:46:01Z</time>
      </trkpt>
      <trkpt lat="47.81652" lon="6.86924">
        <ele>635</ele>
        <time>2017-07-22T06:46:07Z</time>
      </trkpt>
      <trkpt lat="47.81653" lon="6.86918">
        <ele>635.40002441406</ele>
        <time>2017-07-22T06:46:09Z</time>
      </trkpt>
      <trkpt lat="47.81656" lon="6.86902">
        <ele>636</ele>
        <time>2017-07-22T06:46:14Z</time>
      </trkpt>
      <trkpt lat="47.81657" lon="6.86896">
        <ele>636.59997558594</ele>
        <time>2017-07-22T06:46:16Z</time>
      </trkpt>
      <trkpt lat="47.81658" lon="6.86883">
        <ele>637.40002441406</ele>
        <time>2017-07-22T06:46:21Z</time>
      </trkpt>
      <trkpt lat="47.81658" lon="6.86878">
        <ele>637.79998779297</ele>
        <time>2017-07-22T06:46:23Z</time>
      </trkpt>
      <trkpt lat="47.81657" lon="6.86865">
        <ele>638.40002441406</ele>
        <time>2017-07-22T06:46:28Z</time>
      </trkpt>
      <trkpt lat="47.81657" lon="6.86859">
        <ele>638.79998779297</ele>
        <time>2017-07-22T06:46:30Z</time>
      </trkpt>
      <trkpt lat="47.81656" lon="6.86846">
        <ele>639.59997558594</ele>
        <time>2017-07-22T06:46:35Z</time>
      </trkpt>
      <trkpt lat="47.81656" lon="6.86842">
        <ele>639.79998779297</ele>
        <time>2017-07-22T06:46:37Z</time>
      </trkpt>
      <trkpt lat="47.81656" lon="6.8683">
        <ele>641</ele>
        <time>2017-07-22T06:46:42Z</time>
      </trkpt>
      <trkpt lat="47.81654" lon="6.86816">
        <ele>642</ele>
        <time>2017-07-22T06:46:48Z</time>
      </trkpt>
      <trkpt lat="47.81653" lon="6.86813">
        <ele>642.20001220703</ele>
        <time>2017-07-22T06:46:49Z</time>
      </trkpt>
      <trkpt lat="47.81651" lon="6.86801">
        <ele>643</ele>
        <time>2017-07-22T06:46:54Z</time>
      </trkpt>
      <trkpt lat="47.8165" lon="6.86795">
        <ele>643.40002441406</ele>
        <time>2017-07-22T06:46:56Z</time>
      </trkpt>
      <trkpt lat="47.81648" lon="6.86783">
        <ele>644</ele>
        <time>2017-07-22T06:47:01Z</time>
      </trkpt>
      <trkpt lat="47.81648" lon="6.86778">
        <ele>644.40002441406</ele>
        <time>2017-07-22T06:47:03Z</time>
      </trkpt>
      <trkpt lat="47.81646" lon="6.8677">
        <ele>645.20001220703</ele>
        <time>2017-07-22T06:47:07Z</time>
      </trkpt>
      <trkpt lat="47.81645" lon="6.86767">
        <ele>645.40002441406</ele>
        <time>2017-07-22T06:47:09Z</time>
      </trkpt>
      <trkpt lat="47.81645" lon="6.86764">
        <ele>645.59997558594</ele>
        <time>2017-07-22T06:47:10Z</time>
      </trkpt>
      <trkpt lat="47.81643" lon="6.86755">
        <ele>646.20001220703</ele>
        <time>2017-07-22T06:47:14Z</time>
      </trkpt>
      <trkpt lat="47.81643" lon="6.86753">
        <ele>646.40002441406</ele>
        <time>2017-07-22T06:47:15Z</time>
      </trkpt>
      <trkpt lat="47.81642" lon="6.86751">
        <ele>646.59997558594</ele>
        <time>2017-07-22T06:47:16Z</time>
      </trkpt>
      <trkpt lat="47.81642" lon="6.86746">
        <ele>647</ele>
        <time>2017-07-22T06:47:18Z</time>
      </trkpt>
      <trkpt lat="47.81642" lon="6.86742">
        <ele>647.40002441406</ele>
        <time>2017-07-22T06:47:20Z</time>
      </trkpt>
      <trkpt lat="47.81639" lon="6.86738">
        <ele>647.79998779297</ele>
        <time>2017-07-22T06:47:23Z</time>
      </trkpt>
      <trkpt lat="47.81637" lon="6.86732">
        <ele>648.40002441406</ele>
        <time>2017-07-22T06:47:26Z</time>
      </trkpt>
      <trkpt lat="47.81636" lon="6.8673">
        <ele>648.59997558594</ele>
        <time>2017-07-22T06:47:27Z</time>
      </trkpt>
      <trkpt lat="47.81635" lon="6.86727">
        <ele>648.79998779297</ele>
        <time>2017-07-22T06:47:28Z</time>
      </trkpt>
      <trkpt lat="47.81633" lon="6.86719">
        <ele>649.59997558594</ele>
        <time>2017-07-22T06:47:32Z</time>
      </trkpt>
      <trkpt lat="47.81632" lon="6.86714">
        <ele>649.79998779297</ele>
        <time>2017-07-22T06:47:34Z</time>
      </trkpt>
      <trkpt lat="47.81629" lon="6.86707">
        <ele>650.40002441406</ele>
        <time>2017-07-22T06:47:37Z</time>
      </trkpt>
      <trkpt lat="47.81627" lon="6.86702">
        <ele>650.59997558594</ele>
        <time>2017-07-22T06:47:39Z</time>
      </trkpt>
      <trkpt lat="47.81624" lon="6.86699">
        <ele>651</ele>
        <time>2017-07-22T06:47:41Z</time>
      </trkpt>
      <trkpt lat="47.81621" lon="6.8669">
        <ele>651.79998779297</ele>
        <time>2017-07-22T06:47:45Z</time>
      </trkpt>
      <trkpt lat="47.81619" lon="6.86686">
        <ele>652</ele>
        <time>2017-07-22T06:47:47Z</time>
      </trkpt>
      <trkpt lat="47.81615" lon="6.86674">
        <ele>653</ele>
        <time>2017-07-22T06:47:52Z</time>
      </trkpt>
      <trkpt lat="47.81611" lon="6.86666">
        <ele>653.40002441406</ele>
        <time>2017-07-22T06:47:55Z</time>
      </trkpt>
      <trkpt lat="47.8161" lon="6.86664">
        <ele>653.59997558594</ele>
        <time>2017-07-22T06:47:56Z</time>
      </trkpt>
      <trkpt lat="47.81609" lon="6.86658">
        <ele>654</ele>
        <time>2017-07-22T06:47:58Z</time>
      </trkpt>
      <trkpt lat="47.81606" lon="6.86652">
        <ele>654.20001220703</ele>
        <time>2017-07-22T06:48:00Z</time>
      </trkpt>
      <trkpt lat="47.81604" lon="6.86646">
        <ele>654.59997558594</ele>
        <time>2017-07-22T06:48:02Z</time>
      </trkpt>
      <trkpt lat="47.81604" lon="6.86643">
        <ele>654.79998779297</ele>
        <time>2017-07-22T06:48:03Z</time>
      </trkpt>
      <trkpt lat="47.81606" lon="6.86635">
        <ele>655.20001220703</ele>
        <time>2017-07-22T06:48:06Z</time>
      </trkpt>
      <trkpt lat="47.81608" lon="6.86627">
        <ele>655.59997558594</ele>
        <time>2017-07-22T06:48:09Z</time>
      </trkpt>
      <trkpt lat="47.8161" lon="6.86617">
        <ele>656.20001220703</ele>
        <time>2017-07-22T06:48:13Z</time>
      </trkpt>
      <trkpt lat="47.81615" lon="6.86607">
        <ele>657.40002441406</ele>
        <time>2017-07-22T06:48:18Z</time>
      </trkpt>
      <trkpt lat="47.81616" lon="6.86605">
        <ele>657.59997558594</ele>
        <time>2017-07-22T06:48:19Z</time>
      </trkpt>
      <trkpt lat="47.81617" lon="6.86591">
        <ele>658.40002441406</ele>
        <time>2017-07-22T06:48:24Z</time>
      </trkpt>
      <trkpt lat="47.81618" lon="6.86586">
        <ele>658.79998779297</ele>
        <time>2017-07-22T06:48:26Z</time>
      </trkpt>
      <trkpt lat="47.81618" lon="6.86576">
        <ele>659.40002441406</ele>
        <time>2017-07-22T06:48:30Z</time>
      </trkpt>
      <trkpt lat="47.81617" lon="6.86568">
        <ele>660</ele>
        <time>2017-07-22T06:48:33Z</time>
      </trkpt>
      <trkpt lat="47.81615" lon="6.8656">
        <ele>660.59997558594</ele>
        <time>2017-07-22T06:48:36Z</time>
      </trkpt>
      <trkpt lat="47.81614" lon="6.86548">
        <ele>661.59997558594</ele>
        <time>2017-07-22T06:48:41Z</time>
      </trkpt>
      <trkpt lat="47.81614" lon="6.86547">
        <ele>661.79998779297</ele>
        <time>2017-07-22T06:48:42Z</time>
      </trkpt>
      <trkpt lat="47.81612" lon="6.86533">
        <ele>662.79998779297</ele>
        <time>2017-07-22T06:48:48Z</time>
      </trkpt>
      <trkpt lat="47.81609" lon="6.86526">
        <ele>663.59997558594</ele>
        <time>2017-07-22T06:48:52Z</time>
      </trkpt>
      <trkpt lat="47.81608" lon="6.86525">
        <ele>663.79998779297</ele>
        <time>2017-07-22T06:48:53Z</time>
      </trkpt>
      <trkpt lat="47.81606" lon="6.86522">
        <ele>664.20001220703</ele>
        <time>2017-07-22T06:48:55Z</time>
      </trkpt>
      <trkpt lat="47.81603" lon="6.86515">
        <ele>665</ele>
        <time>2017-07-22T06:48:59Z</time>
      </trkpt>
      <trkpt lat="47.816" lon="6.8651">
        <ele>665.59997558594</ele>
        <time>2017-07-22T06:49:02Z</time>
      </trkpt>
      <trkpt lat="47.81597" lon="6.86507">
        <ele>666</ele>
        <time>2017-07-22T06:49:04Z</time>
      </trkpt>
      <trkpt lat="47.81596" lon="6.86505">
        <ele>666</ele>
        <time>2017-07-22T06:49:05Z</time>
      </trkpt>
      <trkpt lat="47.81593" lon="6.865">
        <ele>666.59997558594</ele>
        <time>2017-07-22T06:49:08Z</time>
      </trkpt>
      <trkpt lat="47.8159" lon="6.86494">
        <ele>667</ele>
        <time>2017-07-22T06:49:11Z</time>
      </trkpt>
      <trkpt lat="47.81588" lon="6.86492">
        <ele>667.20001220703</ele>
        <time>2017-07-22T06:49:13Z</time>
      </trkpt>
      <trkpt lat="47.81582" lon="6.86482">
        <ele>668.20001220703</ele>
        <time>2017-07-22T06:49:18Z</time>
      </trkpt>
      <trkpt lat="47.81578" lon="6.86477">
        <ele>668.79998779297</ele>
        <time>2017-07-22T06:49:21Z</time>
      </trkpt>
      <trkpt lat="47.81574" lon="6.86472">
        <ele>669.20001220703</ele>
        <time>2017-07-22T06:49:24Z</time>
      </trkpt>
      <trkpt lat="47.81571" lon="6.86465">
        <ele>670.20001220703</ele>
        <time>2017-07-22T06:49:28Z</time>
      </trkpt>
      <trkpt lat="47.81571" lon="6.86463">
        <ele>670.20001220703</ele>
        <time>2017-07-22T06:49:29Z</time>
      </trkpt>
      <trkpt lat="47.81566" lon="6.86452">
        <ele>671.20001220703</ele>
        <time>2017-07-22T06:49:35Z</time>
      </trkpt>
      <trkpt lat="47.81565" lon="6.86451">
        <ele>671.40002441406</ele>
        <time>2017-07-22T06:49:36Z</time>
      </trkpt>
      <trkpt lat="47.81562" lon="6.86441">
        <ele>672.20001220703</ele>
        <time>2017-07-22T06:49:41Z</time>
      </trkpt>
      <trkpt lat="47.81561" lon="6.86436">
        <ele>672.40002441406</ele>
        <time>2017-07-22T06:49:43Z</time>
      </trkpt>
      <trkpt lat="47.81559" lon="6.86432">
        <ele>672.59997558594</ele>
        <time>2017-07-22T06:49:44Z</time>
      </trkpt>
      <trkpt lat="47.81543" lon="6.86399">
        <ele>675</ele>
        <time>2017-07-22T06:49:57Z</time>
      </trkpt>
      <trkpt lat="47.81536" lon="6.86384">
        <ele>675.79998779297</ele>
        <time>2017-07-22T06:50:03Z</time>
      </trkpt>
      <trkpt lat="47.81535" lon="6.86381">
        <ele>676</ele>
        <time>2017-07-22T06:50:04Z</time>
      </trkpt>
      <trkpt lat="47.81527" lon="6.8637">
        <ele>677.20001220703</ele>
        <time>2017-07-22T06:50:11Z</time>
      </trkpt>
      <trkpt lat="47.81518" lon="6.86355">
        <ele>678.20001220703</ele>
        <time>2017-07-22T06:50:18Z</time>
      </trkpt>
      <trkpt lat="47.81517" lon="6.86353">
        <ele>678.40002441406</ele>
        <time>2017-07-22T06:50:19Z</time>
      </trkpt>
      <trkpt lat="47.81508" lon="6.86339">
        <ele>679.40002441406</ele>
        <time>2017-07-22T06:50:26Z</time>
      </trkpt>
      <trkpt lat="47.81504" lon="6.86325">
        <ele>680.20001220703</ele>
        <time>2017-07-22T06:50:32Z</time>
      </trkpt>
      <trkpt lat="47.81502" lon="6.86322">
        <ele>680.40002441406</ele>
        <time>2017-07-22T06:50:34Z</time>
      </trkpt>
      <trkpt lat="47.81493" lon="6.86309">
        <ele>681.59997558594</ele>
        <time>2017-07-22T06:50:40Z</time>
      </trkpt>
      <trkpt lat="47.81485" lon="6.86292">
        <ele>682.40002441406</ele>
        <time>2017-07-22T06:50:46Z</time>
      </trkpt>
      <trkpt lat="47.81483" lon="6.8629">
        <ele>682.59997558594</ele>
        <time>2017-07-22T06:50:47Z</time>
      </trkpt>
      <trkpt lat="47.81477" lon="6.86276">
        <ele>683.40002441406</ele>
        <time>2017-07-22T06:50:52Z</time>
      </trkpt>
      <trkpt lat="47.81475" lon="6.8627">
        <ele>683.79998779297</ele>
        <time>2017-07-22T06:50:54Z</time>
      </trkpt>
      <trkpt lat="47.81472" lon="6.86254">
        <ele>684.79998779297</ele>
        <time>2017-07-22T06:50:59Z</time>
      </trkpt>
      <trkpt lat="47.81472" lon="6.86251">
        <ele>685</ele>
        <time>2017-07-22T06:51:00Z</time>
      </trkpt>
      <trkpt lat="47.8147" lon="6.8624">
        <ele>685.79998779297</ele>
        <time>2017-07-22T06:51:04Z</time>
      </trkpt>
      <trkpt lat="47.81467" lon="6.86234">
        <ele>686.40002441406</ele>
        <time>2017-07-22T06:51:06Z</time>
      </trkpt>
      <trkpt lat="47.81462" lon="6.8622">
        <ele>687</ele>
        <time>2017-07-22T06:51:11Z</time>
      </trkpt>
      <trkpt lat="47.8146" lon="6.86212">
        <ele>687.40002441406</ele>
        <time>2017-07-22T06:51:13Z</time>
      </trkpt>
      <trkpt lat="47.81459" lon="6.862">
        <ele>688.20001220703</ele>
        <time>2017-07-22T06:51:17Z</time>
      </trkpt>
      <trkpt lat="47.81459" lon="6.86194">
        <ele>688.59997558594</ele>
        <time>2017-07-22T06:51:19Z</time>
      </trkpt>
      <trkpt lat="47.81461" lon="6.86182">
        <ele>689.40002441406</ele>
        <time>2017-07-22T06:51:23Z</time>
      </trkpt>
      <trkpt lat="47.81462" lon="6.86179">
        <ele>689.59997558594</ele>
        <time>2017-07-22T06:51:24Z</time>
      </trkpt>
      <trkpt lat="47.81466" lon="6.86165">
        <ele>690.79998779297</ele>
        <time>2017-07-22T06:51:28Z</time>
      </trkpt>
      <trkpt lat="47.81467" lon="6.86155">
        <ele>691.20001220703</ele>
        <time>2017-07-22T06:51:31Z</time>
      </trkpt>
      <trkpt lat="47.81466" lon="6.86146">
        <ele>691.79998779297</ele>
        <time>2017-07-22T06:51:34Z</time>
      </trkpt>
      <trkpt lat="47.81466" lon="6.86137">
        <ele>692.40002441406</ele>
        <time>2017-07-22T06:51:37Z</time>
      </trkpt>
      <trkpt lat="47.81468" lon="6.86128">
        <ele>693</ele>
        <time>2017-07-22T06:51:40Z</time>
      </trkpt>
      <trkpt lat="47.8147" lon="6.86113">
        <ele>693.59997558594</ele>
        <time>2017-07-22T06:51:44Z</time>
      </trkpt>
      <trkpt lat="47.81471" lon="6.86102">
        <ele>694</ele>
        <time>2017-07-22T06:51:48Z</time>
      </trkpt>
      <trkpt lat="47.81472" lon="6.86094">
        <ele>694.40002441406</ele>
        <time>2017-07-22T06:52:30Z</time>
      </trkpt>
      <trkpt lat="47.81478" lon="6.86086">
        <ele>694.59997558594</ele>
        <time>2017-07-22T06:52:34Z</time>
      </trkpt>
      <trkpt lat="47.81482" lon="6.86083">
        <ele>694.59997558594</ele>
        <time>2017-07-22T06:52:36Z</time>
      </trkpt>
      <trkpt lat="47.81495" lon="6.86078">
        <ele>694.79998779297</ele>
        <time>2017-07-22T06:52:41Z</time>
      </trkpt>
      <trkpt lat="47.81513" lon="6.86071">
        <ele>695</ele>
        <time>2017-07-22T06:52:47Z</time>
      </trkpt>
      <trkpt lat="47.81515" lon="6.86068">
        <ele>695.20001220703</ele>
        <time>2017-07-22T06:52:48Z</time>
      </trkpt>
      <trkpt lat="47.8152" lon="6.86051">
        <ele>696</ele>
        <time>2017-07-22T06:52:53Z</time>
      </trkpt>
      <trkpt lat="47.8152" lon="6.86048">
        <ele>696.20001220703</ele>
        <time>2017-07-22T06:52:54Z</time>
      </trkpt>
      <trkpt lat="47.81522" lon="6.86038">
        <ele>697</ele>
        <time>2017-07-22T06:52:58Z</time>
      </trkpt>
      <trkpt lat="47.81522" lon="6.86035">
        <ele>697.20001220703</ele>
        <time>2017-07-22T06:52:59Z</time>
      </trkpt>
      <trkpt lat="47.81523" lon="6.86033">
        <ele>697.40002441406</ele>
        <time>2017-07-22T06:53:00Z</time>
      </trkpt>
      <trkpt lat="47.81524" lon="6.86023">
        <ele>698.40002441406</ele>
        <time>2017-07-22T06:53:04Z</time>
      </trkpt>
      <trkpt lat="47.81525" lon="6.8602">
        <ele>698.59997558594</ele>
        <time>2017-07-22T06:53:05Z</time>
      </trkpt>
      <trkpt lat="47.81525" lon="6.86018">
        <ele>698.79998779297</ele>
        <time>2017-07-22T06:53:06Z</time>
      </trkpt>
      <trkpt lat="47.81526" lon="6.86008">
        <ele>699.59997558594</ele>
        <time>2017-07-22T06:53:10Z</time>
      </trkpt>
      <trkpt lat="47.81527" lon="6.86">
        <ele>700</ele>
        <time>2017-07-22T06:53:13Z</time>
      </trkpt>
      <trkpt lat="47.81528" lon="6.8599">
        <ele>700.59997558594</ele>
        <time>2017-07-22T06:53:16Z</time>
      </trkpt>
      <trkpt lat="47.8153" lon="6.85978">
        <ele>701.20001220703</ele>
        <time>2017-07-22T06:53:20Z</time>
      </trkpt>
      <trkpt lat="47.81531" lon="6.85968">
        <ele>701.79998779297</ele>
        <time>2017-07-22T06:53:23Z</time>
      </trkpt>
      <trkpt lat="47.81532" lon="6.85963">
        <ele>702.20001220703</ele>
        <time>2017-07-22T06:53:25Z</time>
      </trkpt>
      <trkpt lat="47.81534" lon="6.85956">
        <ele>702.79998779297</ele>
        <time>2017-07-22T06:53:28Z</time>
      </trkpt>
      <trkpt lat="47.81539" lon="6.85947">
        <ele>703.59997558594</ele>
        <time>2017-07-22T06:53:32Z</time>
      </trkpt>
      <trkpt lat="47.81541" lon="6.85944">
        <ele>704</ele>
        <time>2017-07-22T06:53:34Z</time>
      </trkpt>
      <trkpt lat="47.81543" lon="6.85942">
        <ele>704.20001220703</ele>
        <time>2017-07-22T06:53:35Z</time>
      </trkpt>
      <trkpt lat="47.81546" lon="6.85939">
        <ele>704.59997558594</ele>
        <time>2017-07-22T06:53:37Z</time>
      </trkpt>
      <trkpt lat="47.81549" lon="6.85934">
        <ele>705</ele>
        <time>2017-07-22T06:53:40Z</time>
      </trkpt>
      <trkpt lat="47.81556" lon="6.85926">
        <ele>705.79998779297</ele>
        <time>2017-07-22T06:53:45Z</time>
      </trkpt>
      <trkpt lat="47.81557" lon="6.85923">
        <ele>706</ele>
        <time>2017-07-22T06:53:46Z</time>
      </trkpt>
      <trkpt lat="47.81558" lon="6.85918">
        <ele>706.40002441406</ele>
        <time>2017-07-22T06:53:48Z</time>
      </trkpt>
      <trkpt lat="47.81559" lon="6.85913">
        <ele>707</ele>
        <time>2017-07-22T06:53:51Z</time>
      </trkpt>
      <trkpt lat="47.81559" lon="6.85911">
        <ele>707.20001220703</ele>
        <time>2017-07-22T06:53:52Z</time>
      </trkpt>
      <trkpt lat="47.81558" lon="6.85902">
        <ele>707.79998779297</ele>
        <time>2017-07-22T06:53:56Z</time>
      </trkpt>
      <trkpt lat="47.81558" lon="6.85897">
        <ele>708.20001220703</ele>
        <time>2017-07-22T06:53:58Z</time>
      </trkpt>
      <trkpt lat="47.81559" lon="6.85891">
        <ele>708.79998779297</ele>
        <time>2017-07-22T06:54:01Z</time>
      </trkpt>
      <trkpt lat="47.8156" lon="6.85889">
        <ele>708.79998779297</ele>
        <time>2017-07-22T06:54:02Z</time>
      </trkpt>
      <trkpt lat="47.81561" lon="6.85884">
        <ele>709.20001220703</ele>
        <time>2017-07-22T06:54:04Z</time>
      </trkpt>
      <trkpt lat="47.81563" lon="6.85875">
        <ele>709.79998779297</ele>
        <time>2017-07-22T06:54:08Z</time>
      </trkpt>
      <trkpt lat="47.81562" lon="6.85866">
        <ele>710.40002441406</ele>
        <time>2017-07-22T06:54:11Z</time>
      </trkpt>
      <trkpt lat="47.81563" lon="6.85855">
        <ele>711</ele>
        <time>2017-07-22T06:54:15Z</time>
      </trkpt>
      <trkpt lat="47.81564" lon="6.85849">
        <ele>711.40002441406</ele>
        <time>2017-07-22T06:54:17Z</time>
      </trkpt>
      <trkpt lat="47.81567" lon="6.85834">
        <ele>712.40002441406</ele>
        <time>2017-07-22T06:54:22Z</time>
      </trkpt>
      <trkpt lat="47.81567" lon="6.85831">
        <ele>712.59997558594</ele>
        <time>2017-07-22T06:54:23Z</time>
      </trkpt>
      <trkpt lat="47.81573" lon="6.85812">
        <ele>713.59997558594</ele>
        <time>2017-07-22T06:54:30Z</time>
      </trkpt>
      <trkpt lat="47.81574" lon="6.8581">
        <ele>713.79998779297</ele>
        <time>2017-07-22T06:54:31Z</time>
      </trkpt>
      <trkpt lat="47.8158" lon="6.85798">
        <ele>714.79998779297</ele>
        <time>2017-07-22T06:54:37Z</time>
      </trkpt>
      <trkpt lat="47.8158" lon="6.85796">
        <ele>715</ele>
        <time>2017-07-22T06:54:38Z</time>
      </trkpt>
      <trkpt lat="47.81583" lon="6.85787">
        <ele>715.79998779297</ele>
        <time>2017-07-22T06:54:42Z</time>
      </trkpt>
      <trkpt lat="47.81585" lon="6.85783">
        <ele>716.20001220703</ele>
        <time>2017-07-22T06:54:44Z</time>
      </trkpt>
      <trkpt lat="47.81588" lon="6.85771">
        <ele>717</ele>
        <time>2017-07-22T06:54:49Z</time>
      </trkpt>
      <trkpt lat="47.81588" lon="6.85767">
        <ele>717.40002441406</ele>
        <time>2017-07-22T06:54:51Z</time>
      </trkpt>
      <trkpt lat="47.81592" lon="6.85758">
        <ele>718</ele>
        <time>2017-07-22T06:54:56Z</time>
      </trkpt>
      <trkpt lat="47.81593" lon="6.85753">
        <ele>718.40002441406</ele>
        <time>2017-07-22T06:54:58Z</time>
      </trkpt>
      <trkpt lat="47.81594" lon="6.85749">
        <ele>718.79998779297</ele>
        <time>2017-07-22T06:55:00Z</time>
      </trkpt>
      <trkpt lat="47.81594" lon="6.85743">
        <ele>719.20001220703</ele>
        <time>2017-07-22T06:55:02Z</time>
      </trkpt>
      <trkpt lat="47.81595" lon="6.8574">
        <ele>719.20001220703</ele>
        <time>2017-07-22T06:55:03Z</time>
      </trkpt>
      <trkpt lat="47.81596" lon="6.85736">
        <ele>719.79998779297</ele>
        <time>2017-07-22T06:55:05Z</time>
      </trkpt>
      <trkpt lat="47.81599" lon="6.85729">
        <ele>720.20001220703</ele>
        <time>2017-07-22T06:55:08Z</time>
      </trkpt>
      <trkpt lat="47.816" lon="6.85726">
        <ele>720.40002441406</ele>
        <time>2017-07-22T06:55:09Z</time>
      </trkpt>
      <trkpt lat="47.81604" lon="6.85714">
        <ele>721.20001220703</ele>
        <time>2017-07-22T06:55:14Z</time>
      </trkpt>
      <trkpt lat="47.81607" lon="6.8571">
        <ele>721.59997558594</ele>
        <time>2017-07-22T06:55:16Z</time>
      </trkpt>
      <trkpt lat="47.81612" lon="6.85698">
        <ele>722.40002441406</ele>
        <time>2017-07-22T06:55:21Z</time>
      </trkpt>
      <trkpt lat="47.81613" lon="6.85693">
        <ele>722.79998779297</ele>
        <time>2017-07-22T06:55:23Z</time>
      </trkpt>
      <trkpt lat="47.81618" lon="6.85686">
        <ele>723.59997558594</ele>
        <time>2017-07-22T06:55:27Z</time>
      </trkpt>
      <trkpt lat="47.8162" lon="6.85684">
        <ele>723.59997558594</ele>
        <time>2017-07-22T06:55:28Z</time>
      </trkpt>
      <trkpt lat="47.81622" lon="6.8568">
        <ele>724.20001220703</ele>
        <time>2017-07-22T06:55:30Z</time>
      </trkpt>
      <trkpt lat="47.81625" lon="6.85674">
        <ele>724.59997558594</ele>
        <time>2017-07-22T06:55:33Z</time>
      </trkpt>
      <trkpt lat="47.81632" lon="6.85663">
        <ele>725.59997558594</ele>
        <time>2017-07-22T06:55:39Z</time>
      </trkpt>
      <trkpt lat="47.81634" lon="6.85662">
        <ele>725.79998779297</ele>
        <time>2017-07-22T06:55:40Z</time>
      </trkpt>
      <trkpt lat="47.81639" lon="6.85648">
        <ele>726.59997558594</ele>
        <time>2017-07-22T06:55:46Z</time>
      </trkpt>
      <trkpt lat="47.81639" lon="6.85645">
        <ele>726.79998779297</ele>
        <time>2017-07-22T06:55:47Z</time>
      </trkpt>
      <trkpt lat="47.81644" lon="6.85635">
        <ele>727.59997558594</ele>
        <time>2017-07-22T06:55:52Z</time>
      </trkpt>
      <trkpt lat="47.81644" lon="6.85633">
        <ele>728</ele>
        <time>2017-07-22T06:55:53Z</time>
      </trkpt>
      <trkpt lat="47.81647" lon="6.85618">
        <ele>729</ele>
        <time>2017-07-22T06:55:59Z</time>
      </trkpt>
      <trkpt lat="47.81649" lon="6.85613">
        <ele>729.40002441406</ele>
        <time>2017-07-22T06:56:01Z</time>
      </trkpt>
      <trkpt lat="47.81651" lon="6.85602">
        <ele>730</ele>
        <time>2017-07-22T06:56:05Z</time>
      </trkpt>
      <trkpt lat="47.81654" lon="6.85594">
        <ele>730.59997558594</ele>
        <time>2017-07-22T06:56:08Z</time>
      </trkpt>
      <trkpt lat="47.81657" lon="6.85587">
        <ele>731</ele>
        <time>2017-07-22T06:56:11Z</time>
      </trkpt>
      <trkpt lat="47.81659" lon="6.85579">
        <ele>731.59997558594</ele>
        <time>2017-07-22T06:56:14Z</time>
      </trkpt>
      <trkpt lat="47.81661" lon="6.85571">
        <ele>732.20001220703</ele>
        <time>2017-07-22T06:56:17Z</time>
      </trkpt>
      <trkpt lat="47.81663" lon="6.85569">
        <ele>732.40002441406</ele>
        <time>2017-07-22T06:56:18Z</time>
      </trkpt>
      <trkpt lat="47.81664" lon="6.85561">
        <ele>733</ele>
        <time>2017-07-22T06:56:21Z</time>
      </trkpt>
      <trkpt lat="47.81665" lon="6.85558">
        <ele>733.20001220703</ele>
        <time>2017-07-22T06:56:22Z</time>
      </trkpt>
      <trkpt lat="47.81665" lon="6.85556">
        <ele>733.40002441406</ele>
        <time>2017-07-22T06:56:23Z</time>
      </trkpt>
      <trkpt lat="47.81667" lon="6.85546">
        <ele>734</ele>
        <time>2017-07-22T06:56:27Z</time>
      </trkpt>
      <trkpt lat="47.8167" lon="6.85537">
        <ele>734.40002441406</ele>
        <time>2017-07-22T06:56:30Z</time>
      </trkpt>
      <trkpt lat="47.81673" lon="6.85531">
        <ele>735</ele>
        <time>2017-07-22T06:56:33Z</time>
      </trkpt>
      <trkpt lat="47.81673" lon="6.85528">
        <ele>735.20001220703</ele>
        <time>2017-07-22T06:56:34Z</time>
      </trkpt>
      <trkpt lat="47.81674" lon="6.85523">
        <ele>735.40002441406</ele>
        <time>2017-07-22T06:56:36Z</time>
      </trkpt>
      <trkpt lat="47.81675" lon="6.85515">
        <ele>736</ele>
        <time>2017-07-22T06:56:39Z</time>
      </trkpt>
      <trkpt lat="47.81675" lon="6.8551">
        <ele>736.59997558594</ele>
        <time>2017-07-22T06:56:41Z</time>
      </trkpt>
      <trkpt lat="47.81675" lon="6.85499">
        <ele>737.40002441406</ele>
        <time>2017-07-22T06:56:46Z</time>
      </trkpt>
      <trkpt lat="47.81675" lon="6.85494">
        <ele>737.79998779297</ele>
        <time>2017-07-22T06:56:48Z</time>
      </trkpt>
      <trkpt lat="47.81676" lon="6.85483">
        <ele>738.40002441406</ele>
        <time>2017-07-22T06:56:52Z</time>
      </trkpt>
      <trkpt lat="47.81676" lon="6.85478">
        <ele>738.79998779297</ele>
        <time>2017-07-22T06:56:54Z</time>
      </trkpt>
      <trkpt lat="47.81677" lon="6.85465">
        <ele>739.59997558594</ele>
        <time>2017-07-22T06:56:59Z</time>
      </trkpt>
      <trkpt lat="47.81677" lon="6.85462">
        <ele>739.79998779297</ele>
        <time>2017-07-22T06:57:00Z</time>
      </trkpt>
      <trkpt lat="47.81675" lon="6.85442">
        <ele>740.79998779297</ele>
        <time>2017-07-22T06:57:06Z</time>
      </trkpt>
      <trkpt lat="47.81676" lon="6.85439">
        <ele>741</ele>
        <time>2017-07-22T06:57:07Z</time>
      </trkpt>
      <trkpt lat="47.81677" lon="6.85426">
        <ele>741.59997558594</ele>
        <time>2017-07-22T06:57:11Z</time>
      </trkpt>
      <trkpt lat="47.81679" lon="6.85421">
        <ele>742.20001220703</ele>
        <time>2017-07-22T06:57:13Z</time>
      </trkpt>
      <trkpt lat="47.8168" lon="6.8541">
        <ele>743</ele>
        <time>2017-07-22T06:57:17Z</time>
      </trkpt>
      <trkpt lat="47.81681" lon="6.85407">
        <ele>743.20001220703</ele>
        <time>2017-07-22T06:57:18Z</time>
      </trkpt>
      <trkpt lat="47.81683" lon="6.85395">
        <ele>743.79998779297</ele>
        <time>2017-07-22T06:57:23Z</time>
      </trkpt>
      <trkpt lat="47.81678" lon="6.85385">
        <ele>744</ele>
        <time>2017-07-22T06:57:27Z</time>
      </trkpt>
      <trkpt lat="47.81672" lon="6.85382">
        <ele>744.20001220703</ele>
        <time>2017-07-22T06:57:29Z</time>
      </trkpt>
      <trkpt lat="47.81669" lon="6.85379">
        <ele>744.40002441406</ele>
        <time>2017-07-22T06:57:31Z</time>
      </trkpt>
      <trkpt lat="47.81654" lon="6.8537">
        <ele>745.40002441406</ele>
        <time>2017-07-22T06:57:38Z</time>
      </trkpt>
      <trkpt lat="47.81654" lon="6.85367">
        <ele>745.40002441406</ele>
        <time>2017-07-22T06:57:39Z</time>
      </trkpt>
      <trkpt lat="47.81651" lon="6.85356">
        <ele>746.20001220703</ele>
        <time>2017-07-22T06:57:43Z</time>
      </trkpt>
      <trkpt lat="47.81651" lon="6.85353">
        <ele>746.20001220703</ele>
        <time>2017-07-22T06:57:44Z</time>
      </trkpt>
      <trkpt lat="47.8165" lon="6.8535">
        <ele>746.40002441406</ele>
        <time>2017-07-22T06:57:45Z</time>
      </trkpt>
      <trkpt lat="47.81647" lon="6.85344">
        <ele>747</ele>
        <time>2017-07-22T06:57:48Z</time>
      </trkpt>
      <trkpt lat="47.81647" lon="6.85341">
        <ele>747.20001220703</ele>
        <time>2017-07-22T06:57:49Z</time>
      </trkpt>
      <trkpt lat="47.81646" lon="6.85337">
        <ele>747.59997558594</ele>
        <time>2017-07-22T06:57:51Z</time>
      </trkpt>
      <trkpt lat="47.81643" lon="6.85333">
        <ele>748.20001220703</ele>
        <time>2017-07-22T06:57:53Z</time>
      </trkpt>
      <trkpt lat="47.81642" lon="6.85327">
        <ele>748.59997558594</ele>
        <time>2017-07-22T06:57:56Z</time>
      </trkpt>
      <trkpt lat="47.8164" lon="6.85323">
        <ele>749</ele>
        <time>2017-07-22T06:57:58Z</time>
      </trkpt>
      <trkpt lat="47.81637" lon="6.85316">
        <ele>749.79998779297</ele>
        <time>2017-07-22T06:58:02Z</time>
      </trkpt>
      <trkpt lat="47.81634" lon="6.85308">
        <ele>750.20001220703</ele>
        <time>2017-07-22T06:58:05Z</time>
      </trkpt>
      <trkpt lat="47.81631" lon="6.85302">
        <ele>750.79998779297</ele>
        <time>2017-07-22T06:58:08Z</time>
      </trkpt>
      <trkpt lat="47.81628" lon="6.85297">
        <ele>751.20001220703</ele>
        <time>2017-07-22T06:58:11Z</time>
      </trkpt>
      <trkpt lat="47.81625" lon="6.85292">
        <ele>751.79998779297</ele>
        <time>2017-07-22T06:58:15Z</time>
      </trkpt>
      <trkpt lat="47.81621" lon="6.85283">
        <ele>752.59997558594</ele>
        <time>2017-07-22T06:58:18Z</time>
      </trkpt>
      <trkpt lat="47.81618" lon="6.85278">
        <ele>752.79998779297</ele>
        <time>2017-07-22T06:58:20Z</time>
      </trkpt>
      <trkpt lat="47.81611" lon="6.85267">
        <ele>753.79998779297</ele>
        <time>2017-07-22T06:58:25Z</time>
      </trkpt>
      <trkpt lat="47.81609" lon="6.85265">
        <ele>754</ele>
        <time>2017-07-22T06:58:26Z</time>
      </trkpt>
      <trkpt lat="47.816" lon="6.85258">
        <ele>754.79998779297</ele>
        <time>2017-07-22T06:58:32Z</time>
      </trkpt>
      <trkpt lat="47.81596" lon="6.85256">
        <ele>755</ele>
        <time>2017-07-22T06:58:34Z</time>
      </trkpt>
      <trkpt lat="47.81587" lon="6.85255">
        <ele>755.59997558594</ele>
        <time>2017-07-22T06:58:38Z</time>
      </trkpt>
      <trkpt lat="47.81568" lon="6.85254">
        <ele>756</ele>
        <time>2017-07-22T06:58:46Z</time>
      </trkpt>
      <trkpt lat="47.81553" lon="6.85256">
        <ele>757</ele>
        <time>2017-07-22T06:58:53Z</time>
      </trkpt>
      <trkpt lat="47.81549" lon="6.85258">
        <ele>757.20001220703</ele>
        <time>2017-07-22T06:58:55Z</time>
      </trkpt>
      <trkpt lat="47.81541" lon="6.85259">
        <ele>757.59997558594</ele>
        <time>2017-07-22T06:58:59Z</time>
      </trkpt>
      <trkpt lat="47.81531" lon="6.85257">
        <ele>758.20001220703</ele>
        <time>2017-07-22T06:59:03Z</time>
      </trkpt>
      <trkpt lat="47.81526" lon="6.85257">
        <ele>758.79998779297</ele>
        <time>2017-07-22T06:59:05Z</time>
      </trkpt>
      <trkpt lat="47.8152" lon="6.85259">
        <ele>759.40002441406</ele>
        <time>2017-07-22T06:59:08Z</time>
      </trkpt>
      <trkpt lat="47.81512" lon="6.85264">
        <ele>760</ele>
        <time>2017-07-22T06:59:12Z</time>
      </trkpt>
      <trkpt lat="47.81509" lon="6.85268">
        <ele>760.40002441406</ele>
        <time>2017-07-22T06:59:14Z</time>
      </trkpt>
      <trkpt lat="47.81501" lon="6.85277">
        <ele>761.20001220703</ele>
        <time>2017-07-22T06:59:20Z</time>
      </trkpt>
      <trkpt lat="47.815" lon="6.85279">
        <ele>761.40002441406</ele>
        <time>2017-07-22T06:59:21Z</time>
      </trkpt>
      <trkpt lat="47.81492" lon="6.85297">
        <ele>762.59997558594</ele>
        <time>2017-07-22T06:59:28Z</time>
      </trkpt>
      <trkpt lat="47.81481" lon="6.85307">
        <ele>763.59997558594</ele>
        <time>2017-07-22T06:59:34Z</time>
      </trkpt>
      <trkpt lat="47.81479" lon="6.85308">
        <ele>763.79998779297</ele>
        <time>2017-07-22T06:59:35Z</time>
      </trkpt>
      <trkpt lat="47.81465" lon="6.85318">
        <ele>764.40002441406</ele>
        <time>2017-07-22T06:59:43Z</time>
      </trkpt>
      <trkpt lat="47.8146" lon="6.85322">
        <ele>764.79998779297</ele>
        <time>2017-07-22T06:59:46Z</time>
      </trkpt>
      <trkpt lat="47.81452" lon="6.8533">
        <ele>765.59997558594</ele>
        <time>2017-07-22T06:59:51Z</time>
      </trkpt>
      <trkpt lat="47.81449" lon="6.85332">
        <ele>766</ele>
        <time>2017-07-22T06:59:53Z</time>
      </trkpt>
      <trkpt lat="47.81439" lon="6.85335">
        <ele>767</ele>
        <time>2017-07-22T06:59:59Z</time>
      </trkpt>
      <trkpt lat="47.81437" lon="6.85333">
        <ele>767.20001220703</ele>
        <time>2017-07-22T07:00:00Z</time>
      </trkpt>
      <trkpt lat="47.81433" lon="6.8533">
        <ele>767.59997558594</ele>
        <time>2017-07-22T07:00:04Z</time>
      </trkpt>
      <trkpt lat="47.81428" lon="6.85329">
        <ele>768.20001220703</ele>
        <time>2017-07-22T07:00:07Z</time>
      </trkpt>
      <trkpt lat="47.81419" lon="6.85331">
        <ele>769</ele>
        <time>2017-07-22T07:00:11Z</time>
      </trkpt>
      <trkpt lat="47.81418" lon="6.85331">
        <ele>769.20001220703</ele>
        <time>2017-07-22T07:00:12Z</time>
      </trkpt>
      <trkpt lat="47.81405" lon="6.85338">
        <ele>770.20001220703</ele>
        <time>2017-07-22T07:00:18Z</time>
      </trkpt>
      <trkpt lat="47.81404" lon="6.85339">
        <ele>770.40002441406</ele>
        <time>2017-07-22T07:00:19Z</time>
      </trkpt>
      <trkpt lat="47.81394" lon="6.85345">
        <ele>771.40002441406</ele>
        <time>2017-07-22T07:00:24Z</time>
      </trkpt>
      <trkpt lat="47.81389" lon="6.8535">
        <ele>771.79998779297</ele>
        <time>2017-07-22T07:00:27Z</time>
      </trkpt>
      <trkpt lat="47.81381" lon="6.85357">
        <ele>772.40002441406</ele>
        <time>2017-07-22T07:00:32Z</time>
      </trkpt>
      <trkpt lat="47.81378" lon="6.8536">
        <ele>772.79998779297</ele>
        <time>2017-07-22T07:00:34Z</time>
      </trkpt>
      <trkpt lat="47.81372" lon="6.85365">
        <ele>773.59997558594</ele>
        <time>2017-07-22T07:00:38Z</time>
      </trkpt>
      <trkpt lat="47.81369" lon="6.85368">
        <ele>773.79998779297</ele>
        <time>2017-07-22T07:00:40Z</time>
      </trkpt>
      <trkpt lat="47.81362" lon="6.85374">
        <ele>774.79998779297</ele>
        <time>2017-07-22T07:00:44Z</time>
      </trkpt>
      <trkpt lat="47.81357" lon="6.85378">
        <ele>775.20001220703</ele>
        <time>2017-07-22T07:00:47Z</time>
      </trkpt>
      <trkpt lat="47.81349" lon="6.85382">
        <ele>775.79998779297</ele>
        <time>2017-07-22T07:00:51Z</time>
      </trkpt>
      <trkpt lat="47.81347" lon="6.85383">
        <ele>776</ele>
        <time>2017-07-22T07:00:52Z</time>
      </trkpt>
      <trkpt lat="47.81338" lon="6.85393">
        <ele>777</ele>
        <time>2017-07-22T07:00:58Z</time>
      </trkpt>
      <trkpt lat="47.81337" lon="6.85395">
        <ele>777</ele>
        <time>2017-07-22T07:00:59Z</time>
      </trkpt>
      <trkpt lat="47.81336" lon="6.85412">
        <ele>778</ele>
        <time>2017-07-22T07:01:04Z</time>
      </trkpt>
      <trkpt lat="47.81336" lon="6.85415">
        <ele>778.20001220703</ele>
        <time>2017-07-22T07:01:05Z</time>
      </trkpt>
      <trkpt lat="47.81331" lon="6.85426">
        <ele>779.20001220703</ele>
        <time>2017-07-22T07:01:10Z</time>
      </trkpt>
      <trkpt lat="47.8133" lon="6.85427">
        <ele>779.40002441406</ele>
        <time>2017-07-22T07:01:11Z</time>
      </trkpt>
      <trkpt lat="47.81328" lon="6.8543">
        <ele>779.79998779297</ele>
        <time>2017-07-22T07:01:13Z</time>
      </trkpt>
      <trkpt lat="47.81325" lon="6.85435">
        <ele>780.20001220703</ele>
        <time>2017-07-22T07:01:16Z</time>
      </trkpt>
      <trkpt lat="47.81324" lon="6.85437">
        <ele>780.40002441406</ele>
        <time>2017-07-22T07:01:17Z</time>
      </trkpt>
      <trkpt lat="47.8132" lon="6.85443">
        <ele>780.79998779297</ele>
        <time>2017-07-22T07:01:20Z</time>
      </trkpt>
      <trkpt lat="47.81316" lon="6.85447">
        <ele>781.20001220703</ele>
        <time>2017-07-22T07:01:23Z</time>
      </trkpt>
      <trkpt lat="47.81316" lon="6.8545">
        <ele>781.40002441406</ele>
        <time>2017-07-22T07:01:24Z</time>
      </trkpt>
      <trkpt lat="47.81314" lon="6.8546">
        <ele>782.40002441406</ele>
        <time>2017-07-22T07:01:29Z</time>
      </trkpt>
      <trkpt lat="47.81314" lon="6.85468">
        <ele>782.79998779297</ele>
        <time>2017-07-22T07:01:32Z</time>
      </trkpt>
      <trkpt lat="47.81314" lon="6.85477">
        <ele>783.40002441406</ele>
        <time>2017-07-22T07:01:35Z</time>
      </trkpt>
      <trkpt lat="47.81312" lon="6.85488">
        <ele>784.20001220703</ele>
        <time>2017-07-22T07:01:39Z</time>
      </trkpt>
      <trkpt lat="47.81309" lon="6.85498">
        <ele>784.59997558594</ele>
        <time>2017-07-22T07:01:42Z</time>
      </trkpt>
      <trkpt lat="47.81308" lon="6.85509">
        <ele>785.40002441406</ele>
        <time>2017-07-22T07:01:46Z</time>
      </trkpt>
      <trkpt lat="47.81308" lon="6.85513">
        <ele>785.59997558594</ele>
        <time>2017-07-22T07:01:48Z</time>
      </trkpt>
      <trkpt lat="47.81308" lon="6.85524">
        <ele>786.20001220703</ele>
        <time>2017-07-22T07:01:52Z</time>
      </trkpt>
      <trkpt lat="47.81309" lon="6.85529">
        <ele>786.79998779297</ele>
        <time>2017-07-22T07:01:54Z</time>
      </trkpt>
      <trkpt lat="47.8131" lon="6.8553">
        <ele>787</ele>
        <time>2017-07-22T07:01:55Z</time>
      </trkpt>
      <trkpt lat="47.81312" lon="6.85538">
        <ele>787.40002441406</ele>
        <time>2017-07-22T07:01:58Z</time>
      </trkpt>
      <trkpt lat="47.81313" lon="6.85544">
        <ele>787.79998779297</ele>
        <time>2017-07-22T07:02:00Z</time>
      </trkpt>
      <trkpt lat="47.8131" lon="6.85556">
        <ele>788.59997558594</ele>
        <time>2017-07-22T07:02:04Z</time>
      </trkpt>
      <trkpt lat="47.81309" lon="6.85561">
        <ele>788.79998779297</ele>
        <time>2017-07-22T07:02:06Z</time>
      </trkpt>
      <trkpt lat="47.81305" lon="6.85569">
        <ele>789.20001220703</ele>
        <time>2017-07-22T07:02:09Z</time>
      </trkpt>
      <trkpt lat="47.813" lon="6.85581">
        <ele>789.79998779297</ele>
        <time>2017-07-22T07:02:13Z</time>
      </trkpt>
      <trkpt lat="47.813" lon="6.85583">
        <ele>790</ele>
        <time>2017-07-22T07:02:14Z</time>
      </trkpt>
      <trkpt lat="47.81302" lon="6.85595">
        <ele>791</ele>
        <time>2017-07-22T07:02:19Z</time>
      </trkpt>
      <trkpt lat="47.81303" lon="6.856">
        <ele>791.20001220703</ele>
        <time>2017-07-22T07:02:21Z</time>
      </trkpt>
      <trkpt lat="47.81304" lon="6.85612">
        <ele>792</ele>
        <time>2017-07-22T07:02:25Z</time>
      </trkpt>
      <trkpt lat="47.81303" lon="6.85617">
        <ele>792.40002441406</ele>
        <time>2017-07-22T07:02:27Z</time>
      </trkpt>
      <trkpt lat="47.81298" lon="6.85626">
        <ele>793</ele>
        <time>2017-07-22T07:02:31Z</time>
      </trkpt>
      <trkpt lat="47.81292" lon="6.85631">
        <ele>793.59997558594</ele>
        <time>2017-07-22T07:02:34Z</time>
      </trkpt>
      <trkpt lat="47.81286" lon="6.8564">
        <ele>794.20001220703</ele>
        <time>2017-07-22T07:02:38Z</time>
      </trkpt>
      <trkpt lat="47.81285" lon="6.85645">
        <ele>794.59997558594</ele>
        <time>2017-07-22T07:02:40Z</time>
      </trkpt>
      <trkpt lat="47.81284" lon="6.85656">
        <ele>795.20001220703</ele>
        <time>2017-07-22T07:02:44Z</time>
      </trkpt>
      <trkpt lat="47.81284" lon="6.85665">
        <ele>795.79998779297</ele>
        <time>2017-07-22T07:02:47Z</time>
      </trkpt>
      <trkpt lat="47.81283" lon="6.85675">
        <ele>796.40002441406</ele>
        <time>2017-07-22T07:02:51Z</time>
      </trkpt>
      <trkpt lat="47.81283" lon="6.85681">
        <ele>796.59997558594</ele>
        <time>2017-07-22T07:02:53Z</time>
      </trkpt>
      <trkpt lat="47.81282" lon="6.85693">
        <ele>797.40002441406</ele>
        <time>2017-07-22T07:02:58Z</time>
      </trkpt>
      <trkpt lat="47.81282" lon="6.85697">
        <ele>797.79998779297</ele>
        <time>2017-07-22T07:03:00Z</time>
      </trkpt>
      <trkpt lat="47.81282" lon="6.857">
        <ele>797.79998779297</ele>
        <time>2017-07-22T07:03:01Z</time>
      </trkpt>
      <trkpt lat="47.8128" lon="6.85711">
        <ele>798.79998779297</ele>
        <time>2017-07-22T07:03:05Z</time>
      </trkpt>
      <trkpt lat="47.81277" lon="6.85722">
        <ele>799.40002441406</ele>
        <time>2017-07-22T07:03:09Z</time>
      </trkpt>
      <trkpt lat="47.81278" lon="6.85725">
        <ele>799.40002441406</ele>
        <time>2017-07-22T07:03:10Z</time>
      </trkpt>
      <trkpt lat="47.81278" lon="6.85732">
        <ele>799.79998779297</ele>
        <time>2017-07-22T07:03:13Z</time>
      </trkpt>
      <trkpt lat="47.81278" lon="6.85737">
        <ele>800.20001220703</ele>
        <time>2017-07-22T07:03:15Z</time>
      </trkpt>
      <trkpt lat="47.81278" lon="6.85752">
        <ele>801</ele>
        <time>2017-07-22T07:03:20Z</time>
      </trkpt>
      <trkpt lat="47.81279" lon="6.8576">
        <ele>801.40002441406</ele>
        <time>2017-07-22T07:03:23Z</time>
      </trkpt>
      <trkpt lat="47.81281" lon="6.85768">
        <ele>802</ele>
        <time>2017-07-22T07:03:26Z</time>
      </trkpt>
      <trkpt lat="47.81281" lon="6.85775">
        <ele>802.40002441406</ele>
        <time>2017-07-22T07:03:29Z</time>
      </trkpt>
      <trkpt lat="47.81281" lon="6.85789">
        <ele>803</ele>
        <time>2017-07-22T07:03:34Z</time>
      </trkpt>
      <trkpt lat="47.81281" lon="6.85791">
        <ele>803.20001220703</ele>
        <time>2017-07-22T07:03:35Z</time>
      </trkpt>
      <trkpt lat="47.81279" lon="6.85809">
        <ele>804.20001220703</ele>
        <time>2017-07-22T07:03:41Z</time>
      </trkpt>
      <trkpt lat="47.81279" lon="6.85814">
        <ele>804.59997558594</ele>
        <time>2017-07-22T07:03:43Z</time>
      </trkpt>
      <trkpt lat="47.81277" lon="6.85823">
        <ele>805</ele>
        <time>2017-07-22T07:03:46Z</time>
      </trkpt>
      <trkpt lat="47.81277" lon="6.85829">
        <ele>805.20001220703</ele>
        <time>2017-07-22T07:03:48Z</time>
      </trkpt>
      <trkpt lat="47.81277" lon="6.85838">
        <ele>805.59997558594</ele>
        <time>2017-07-22T07:03:51Z</time>
      </trkpt>
      <trkpt lat="47.81276" lon="6.85848">
        <ele>806.40002441406</ele>
        <time>2017-07-22T07:03:54Z</time>
      </trkpt>
      <trkpt lat="47.81275" lon="6.85851">
        <ele>806.40002441406</ele>
        <time>2017-07-22T07:03:55Z</time>
      </trkpt>
      <trkpt lat="47.81273" lon="6.85858">
        <ele>807</ele>
        <time>2017-07-22T07:03:58Z</time>
      </trkpt>
      <trkpt lat="47.81272" lon="6.85867">
        <ele>807.40002441406</ele>
        <time>2017-07-22T07:04:01Z</time>
      </trkpt>
      <trkpt lat="47.81271" lon="6.85869">
        <ele>807.59997558594</ele>
        <time>2017-07-22T07:04:02Z</time>
      </trkpt>
      <trkpt lat="47.8127" lon="6.85883">
        <ele>808.59997558594</ele>
        <time>2017-07-22T07:04:07Z</time>
      </trkpt>
      <trkpt lat="47.8127" lon="6.85886">
        <ele>808.79998779297</ele>
        <time>2017-07-22T07:04:08Z</time>
      </trkpt>
      <trkpt lat="47.81266" lon="6.85903">
        <ele>809.59997558594</ele>
        <time>2017-07-22T07:04:13Z</time>
      </trkpt>
      <trkpt lat="47.81265" lon="6.85907">
        <ele>809.79998779297</ele>
        <time>2017-07-22T07:04:14Z</time>
      </trkpt>
      <trkpt lat="47.81261" lon="6.85925">
        <ele>810.79998779297</ele>
        <time>2017-07-22T07:04:20Z</time>
      </trkpt>
      <trkpt lat="47.81261" lon="6.85928">
        <ele>811</ele>
        <time>2017-07-22T07:04:21Z</time>
      </trkpt>
      <trkpt lat="47.8126" lon="6.85945">
        <ele>811.79998779297</ele>
        <time>2017-07-22T07:04:27Z</time>
      </trkpt>
      <trkpt lat="47.81259" lon="6.85954">
        <ele>812.20001220703</ele>
        <time>2017-07-22T07:04:30Z</time>
      </trkpt>
      <trkpt lat="47.81257" lon="6.85967">
        <ele>812.79998779297</ele>
        <time>2017-07-22T07:04:34Z</time>
      </trkpt>
      <trkpt lat="47.81256" lon="6.85972">
        <ele>813.20001220703</ele>
        <time>2017-07-22T07:04:36Z</time>
      </trkpt>
      <trkpt lat="47.81255" lon="6.85985">
        <ele>814</ele>
        <time>2017-07-22T07:04:41Z</time>
      </trkpt>
      <trkpt lat="47.81254" lon="6.85991">
        <ele>814.20001220703</ele>
        <time>2017-07-22T07:04:43Z</time>
      </trkpt>
      <trkpt lat="47.8125" lon="6.86005">
        <ele>815</ele>
        <time>2017-07-22T07:04:48Z</time>
      </trkpt>
      <trkpt lat="47.81246" lon="6.86026">
        <ele>816.20001220703</ele>
        <time>2017-07-22T07:04:55Z</time>
      </trkpt>
      <trkpt lat="47.81245" lon="6.86029">
        <ele>816.20001220703</ele>
        <time>2017-07-22T07:04:56Z</time>
      </trkpt>
      <trkpt lat="47.81239" lon="6.86046">
        <ele>817.20001220703</ele>
        <time>2017-07-22T07:05:03Z</time>
      </trkpt>
      <trkpt lat="47.81239" lon="6.86053">
        <ele>818</ele>
        <time>2017-07-22T07:05:06Z</time>
      </trkpt>
      <trkpt lat="47.81238" lon="6.86062">
        <ele>818.40002441406</ele>
        <time>2017-07-22T07:05:09Z</time>
      </trkpt>
      <trkpt lat="47.81229" lon="6.86086">
        <ele>819.40002441406</ele>
        <time>2017-07-22T07:05:17Z</time>
      </trkpt>
      <trkpt lat="47.81229" lon="6.8609">
        <ele>819.59997558594</ele>
        <time>2017-07-22T07:05:18Z</time>
      </trkpt>
      <trkpt lat="47.81221" lon="6.86109">
        <ele>820.40002441406</ele>
        <time>2017-07-22T07:05:25Z</time>
      </trkpt>
      <trkpt lat="47.81217" lon="6.86125">
        <ele>821.59997558594</ele>
        <time>2017-07-22T07:05:31Z</time>
      </trkpt>
      <trkpt lat="47.81217" lon="6.86127">
        <ele>821.79998779297</ele>
        <time>2017-07-22T07:05:32Z</time>
      </trkpt>
      <trkpt lat="47.81214" lon="6.8614">
        <ele>822.59997558594</ele>
        <time>2017-07-22T07:05:37Z</time>
      </trkpt>
      <trkpt lat="47.81213" lon="6.86146">
        <ele>823</ele>
        <time>2017-07-22T07:05:39Z</time>
      </trkpt>
      <trkpt lat="47.81209" lon="6.86158">
        <ele>823.79998779297</ele>
        <time>2017-07-22T07:05:44Z</time>
      </trkpt>
      <trkpt lat="47.8121" lon="6.8618">
        <ele>824.79998779297</ele>
        <time>2017-07-22T07:05:51Z</time>
      </trkpt>
      <trkpt lat="47.81213" lon="6.86205">
        <ele>826</ele>
        <time>2017-07-22T07:05:57Z</time>
      </trkpt>
      <trkpt lat="47.81214" lon="6.86211">
        <ele>826.20001220703</ele>
        <time>2017-07-22T07:05:59Z</time>
      </trkpt>
      <trkpt lat="47.81219" lon="6.86225">
        <ele>827</ele>
        <time>2017-07-22T07:06:04Z</time>
      </trkpt>
      <trkpt lat="47.81221" lon="6.8623">
        <ele>827.20001220703</ele>
        <time>2017-07-22T07:06:06Z</time>
      </trkpt>
      <trkpt lat="47.81225" lon="6.86244">
        <ele>828</ele>
        <time>2017-07-22T07:06:11Z</time>
      </trkpt>
      <trkpt lat="47.81229" lon="6.86262">
        <ele>829</ele>
        <time>2017-07-22T07:06:17Z</time>
      </trkpt>
      <trkpt lat="47.8123" lon="6.86282">
        <ele>830.20001220703</ele>
        <time>2017-07-22T07:06:24Z</time>
      </trkpt>
      <trkpt lat="47.81228" lon="6.86302">
        <ele>831.20001220703</ele>
        <time>2017-07-22T07:06:30Z</time>
      </trkpt>
      <trkpt lat="47.81227" lon="6.86305">
        <ele>831.40002441406</ele>
        <time>2017-07-22T07:06:31Z</time>
      </trkpt>
      <trkpt lat="47.81221" lon="6.86333">
        <ele>832.20001220703</ele>
        <time>2017-07-22T07:06:38Z</time>
      </trkpt>
      <trkpt lat="47.81221" lon="6.86336">
        <ele>832.40002441406</ele>
        <time>2017-07-22T07:06:39Z</time>
      </trkpt>
      <trkpt lat="47.81225" lon="6.86348">
        <ele>833.20001220703</ele>
        <time>2017-07-22T07:06:43Z</time>
      </trkpt>
      <trkpt lat="47.81226" lon="6.86351">
        <ele>833.40002441406</ele>
        <time>2017-07-22T07:06:44Z</time>
      </trkpt>
      <trkpt lat="47.81225" lon="6.8637">
        <ele>834.20001220703</ele>
        <time>2017-07-22T07:06:50Z</time>
      </trkpt>
      <trkpt lat="47.81226" lon="6.86375">
        <ele>834.40002441406</ele>
        <time>2017-07-22T07:06:52Z</time>
      </trkpt>
      <trkpt lat="47.81229" lon="6.86391">
        <ele>835.20001220703</ele>
        <time>2017-07-22T07:06:58Z</time>
      </trkpt>
      <trkpt lat="47.81229" lon="6.86394">
        <ele>835.40002441406</ele>
        <time>2017-07-22T07:06:59Z</time>
      </trkpt>
      <trkpt lat="47.81228" lon="6.8641">
        <ele>836.20001220703</ele>
        <time>2017-07-22T07:07:04Z</time>
      </trkpt>
      <trkpt lat="47.81228" lon="6.86416">
        <ele>836.59997558594</ele>
        <time>2017-07-22T07:07:06Z</time>
      </trkpt>
      <trkpt lat="47.81228" lon="6.86433">
        <ele>837.59997558594</ele>
        <time>2017-07-22T07:07:12Z</time>
      </trkpt>
      <trkpt lat="47.8123" lon="6.8645">
        <ele>838.79998779297</ele>
        <time>2017-07-22T07:07:18Z</time>
      </trkpt>
      <trkpt lat="47.8123" lon="6.86456">
        <ele>839</ele>
        <time>2017-07-22T07:07:20Z</time>
      </trkpt>
      <trkpt lat="47.8123" lon="6.86466">
        <ele>839.79998779297</ele>
        <time>2017-07-22T07:07:24Z</time>
      </trkpt>
      <trkpt lat="47.81232" lon="6.86477">
        <ele>840.40002441406</ele>
        <time>2017-07-22T07:07:28Z</time>
      </trkpt>
      <trkpt lat="47.81231" lon="6.86482">
        <ele>840.79998779297</ele>
        <time>2017-07-22T07:07:30Z</time>
      </trkpt>
      <trkpt lat="47.81233" lon="6.86499">
        <ele>842</ele>
        <time>2017-07-22T07:07:37Z</time>
      </trkpt>
      <trkpt lat="47.81233" lon="6.86523">
        <ele>843</ele>
        <time>2017-07-22T07:07:44Z</time>
      </trkpt>
      <trkpt lat="47.81233" lon="6.86526">
        <ele>843.20001220703</ele>
        <time>2017-07-22T07:07:45Z</time>
      </trkpt>
      <trkpt lat="47.81232" lon="6.86547">
        <ele>844</ele>
        <time>2017-07-22T07:07:51Z</time>
      </trkpt>
      <trkpt lat="47.81232" lon="6.86551">
        <ele>844.20001220703</ele>
        <time>2017-07-22T07:07:52Z</time>
      </trkpt>
      <trkpt lat="47.81231" lon="6.86565">
        <ele>845.20001220703</ele>
        <time>2017-07-22T07:07:57Z</time>
      </trkpt>
      <trkpt lat="47.81233" lon="6.86576">
        <ele>845.79998779297</ele>
        <time>2017-07-22T07:08:01Z</time>
      </trkpt>
      <trkpt lat="47.81236" lon="6.86585">
        <ele>846.40002441406</ele>
        <time>2017-07-22T07:08:04Z</time>
      </trkpt>
      <trkpt lat="47.81239" lon="6.86597">
        <ele>847.20001220703</ele>
        <time>2017-07-22T07:08:09Z</time>
      </trkpt>
      <trkpt lat="47.81239" lon="6.86602">
        <ele>847.59997558594</ele>
        <time>2017-07-22T07:08:11Z</time>
      </trkpt>
      <trkpt lat="47.81241" lon="6.86616">
        <ele>848.20001220703</ele>
        <time>2017-07-22T07:08:16Z</time>
      </trkpt>
      <trkpt lat="47.81242" lon="6.86621">
        <ele>848.79998779297</ele>
        <time>2017-07-22T07:08:18Z</time>
      </trkpt>
      <trkpt lat="47.81243" lon="6.86635">
        <ele>849.59997558594</ele>
        <time>2017-07-22T07:08:23Z</time>
      </trkpt>
      <trkpt lat="47.81243" lon="6.86641">
        <ele>849.79998779297</ele>
        <time>2017-07-22T07:08:25Z</time>
      </trkpt>
      <trkpt lat="47.81246" lon="6.86654">
        <ele>850.59997558594</ele>
        <time>2017-07-22T07:08:30Z</time>
      </trkpt>
      <trkpt lat="47.81247" lon="6.86659">
        <ele>851</ele>
        <time>2017-07-22T07:08:32Z</time>
      </trkpt>
      <trkpt lat="47.8125" lon="6.8667">
        <ele>851.59997558594</ele>
        <time>2017-07-22T07:08:37Z</time>
      </trkpt>
      <trkpt lat="47.81251" lon="6.86675">
        <ele>852</ele>
        <time>2017-07-22T07:08:39Z</time>
      </trkpt>
      <trkpt lat="47.81255" lon="6.86688">
        <ele>852.79998779297</ele>
        <time>2017-07-22T07:08:44Z</time>
      </trkpt>
      <trkpt lat="47.81256" lon="6.86694">
        <ele>853</ele>
        <time>2017-07-22T07:08:46Z</time>
      </trkpt>
      <trkpt lat="47.81257" lon="6.8671">
        <ele>853.79998779297</ele>
        <time>2017-07-22T07:08:51Z</time>
      </trkpt>
      <trkpt lat="47.81258" lon="6.86716">
        <ele>854.20001220703</ele>
        <time>2017-07-22T07:08:53Z</time>
      </trkpt>
      <trkpt lat="47.81259" lon="6.86732">
        <ele>855.20001220703</ele>
        <time>2017-07-22T07:08:59Z</time>
      </trkpt>
      <trkpt lat="47.81259" lon="6.86735">
        <ele>855.20001220703</ele>
        <time>2017-07-22T07:09:00Z</time>
      </trkpt>
      <trkpt lat="47.81265" lon="6.86748">
        <ele>856.40002441406</ele>
        <time>2017-07-22T07:09:06Z</time>
      </trkpt>
      <trkpt lat="47.81275" lon="6.8676">
        <ele>857.59997558594</ele>
        <time>2017-07-22T07:09:12Z</time>
      </trkpt>
      <trkpt lat="47.81278" lon="6.86774">
        <ele>858.40002441406</ele>
        <time>2017-07-22T07:09:17Z</time>
      </trkpt>
      <trkpt lat="47.81278" lon="6.86776">
        <ele>858.59997558594</ele>
        <time>2017-07-22T07:09:18Z</time>
      </trkpt>
      <trkpt lat="47.81285" lon="6.86793">
        <ele>859.79998779297</ele>
        <time>2017-07-22T07:09:24Z</time>
      </trkpt>
      <trkpt lat="47.81287" lon="6.8681">
        <ele>861</ele>
        <time>2017-07-22T07:09:30Z</time>
      </trkpt>
      <trkpt lat="47.81287" lon="6.86813">
        <ele>861.20001220703</ele>
        <time>2017-07-22T07:09:31Z</time>
      </trkpt>
      <trkpt lat="47.81289" lon="6.86828">
        <ele>862</ele>
        <time>2017-07-22T07:09:36Z</time>
      </trkpt>
      <trkpt lat="47.8129" lon="6.86833">
        <ele>862.40002441406</ele>
        <time>2017-07-22T07:09:38Z</time>
      </trkpt>
      <trkpt lat="47.81288" lon="6.86841">
        <ele>862.79998779297</ele>
        <time>2017-07-22T07:09:41Z</time>
      </trkpt>
      <trkpt lat="47.81287" lon="6.86848">
        <ele>863.20001220703</ele>
        <time>2017-07-22T07:09:43Z</time>
      </trkpt>
      <trkpt lat="47.81283" lon="6.86857">
        <ele>863.59997558594</ele>
        <time>2017-07-22T07:09:46Z</time>
      </trkpt>
      <trkpt lat="47.8128" lon="6.86864">
        <ele>864.40002441406</ele>
        <time>2017-07-22T07:09:49Z</time>
      </trkpt>
      <trkpt lat="47.81278" lon="6.86867">
        <ele>864.59997558594</ele>
        <time>2017-07-22T07:09:50Z</time>
      </trkpt>
      <trkpt lat="47.81273" lon="6.86879">
        <ele>865.40002441406</ele>
        <time>2017-07-22T07:09:55Z</time>
      </trkpt>
      <trkpt lat="47.81271" lon="6.86886">
        <ele>866.20001220703</ele>
        <time>2017-07-22T07:09:58Z</time>
      </trkpt>
      <trkpt lat="47.81268" lon="6.86893">
        <ele>866.59997558594</ele>
        <time>2017-07-22T07:10:01Z</time>
      </trkpt>
      <trkpt lat="47.81267" lon="6.86901">
        <ele>867.20001220703</ele>
        <time>2017-07-22T07:10:04Z</time>
      </trkpt>
      <trkpt lat="47.81266" lon="6.86904">
        <ele>867.20001220703</ele>
        <time>2017-07-22T07:10:05Z</time>
      </trkpt>
      <trkpt lat="47.81264" lon="6.86908">
        <ele>867.59997558594</ele>
        <time>2017-07-22T07:10:07Z</time>
      </trkpt>
      <trkpt lat="47.8126" lon="6.86922">
        <ele>868.79998779297</ele>
        <time>2017-07-22T07:10:13Z</time>
      </trkpt>
      <trkpt lat="47.8126" lon="6.86925">
        <ele>869</ele>
        <time>2017-07-22T07:10:14Z</time>
      </trkpt>
      <trkpt lat="47.81258" lon="6.86955">
        <ele>870.79998779297</ele>
        <time>2017-07-22T07:10:26Z</time>
      </trkpt>
      <trkpt lat="47.81257" lon="6.86962">
        <ele>871.40002441406</ele>
        <time>2017-07-22T07:10:29Z</time>
      </trkpt>
      <trkpt lat="47.81255" lon="6.86968">
        <ele>872</ele>
        <time>2017-07-22T07:10:32Z</time>
      </trkpt>
      <trkpt lat="47.81252" lon="6.86979">
        <ele>872.59997558594</ele>
        <time>2017-07-22T07:10:36Z</time>
      </trkpt>
      <trkpt lat="47.81251" lon="6.86985">
        <ele>873</ele>
        <time>2017-07-22T07:10:38Z</time>
      </trkpt>
      <trkpt lat="47.81248" lon="6.87">
        <ele>874.20001220703</ele>
        <time>2017-07-22T07:10:44Z</time>
      </trkpt>
      <trkpt lat="47.81243" lon="6.87009">
        <ele>874.79998779297</ele>
        <time>2017-07-22T07:10:47Z</time>
      </trkpt>
      <trkpt lat="47.81238" lon="6.87017">
        <ele>875.20001220703</ele>
        <time>2017-07-22T07:10:50Z</time>
      </trkpt>
      <trkpt lat="47.81225" lon="6.87034">
        <ele>876.20001220703</ele>
        <time>2017-07-22T07:10:57Z</time>
      </trkpt>
      <trkpt lat="47.81216" lon="6.87048">
        <ele>877.40002441406</ele>
        <time>2017-07-22T07:11:03Z</time>
      </trkpt>
      <trkpt lat="47.8121" lon="6.87059">
        <ele>878.40002441406</ele>
        <time>2017-07-22T07:11:08Z</time>
      </trkpt>
      <trkpt lat="47.81205" lon="6.87068">
        <ele>879.20001220703</ele>
        <time>2017-07-22T07:11:13Z</time>
      </trkpt>
      <trkpt lat="47.81204" lon="6.87071">
        <ele>879.59997558594</ele>
        <time>2017-07-22T07:11:15Z</time>
      </trkpt>
      <trkpt lat="47.81199" lon="6.87081">
        <ele>880.59997558594</ele>
        <time>2017-07-22T07:11:21Z</time>
      </trkpt>
      <trkpt lat="47.81198" lon="6.87083">
        <ele>880.59997558594</ele>
        <time>2017-07-22T07:11:22Z</time>
      </trkpt>
      <trkpt lat="47.81197" lon="6.87088">
        <ele>881</ele>
        <time>2017-07-22T07:11:24Z</time>
      </trkpt>
      <trkpt lat="47.81193" lon="6.87101">
        <ele>881.59997558594</ele>
        <time>2017-07-22T07:11:28Z</time>
      </trkpt>
      <trkpt lat="47.81183" lon="6.87116">
        <ele>882.79998779297</ele>
        <time>2017-07-22T07:11:34Z</time>
      </trkpt>
      <trkpt lat="47.8118" lon="6.87121">
        <ele>883.20001220703</ele>
        <time>2017-07-22T07:11:37Z</time>
      </trkpt>
      <trkpt lat="47.81176" lon="6.87123">
        <ele>883.79998779297</ele>
        <time>2017-07-22T07:11:40Z</time>
      </trkpt>
      <trkpt lat="47.8117" lon="6.87126">
        <ele>884.59997558594</ele>
        <time>2017-07-22T07:11:44Z</time>
      </trkpt>
      <trkpt lat="47.81167" lon="6.87127">
        <ele>885</ele>
        <time>2017-07-22T07:11:46Z</time>
      </trkpt>
      <trkpt lat="47.8116" lon="6.87128">
        <ele>885.79998779297</ele>
        <time>2017-07-22T07:11:50Z</time>
      </trkpt>
      <trkpt lat="47.81157" lon="6.87129">
        <ele>886</ele>
        <time>2017-07-22T07:11:52Z</time>
      </trkpt>
      <trkpt lat="47.81146" lon="6.87132">
        <ele>887.20001220703</ele>
        <time>2017-07-22T07:11:57Z</time>
      </trkpt>
      <trkpt lat="47.81139" lon="6.87134">
        <ele>887.79998779297</ele>
        <time>2017-07-22T07:12:01Z</time>
      </trkpt>
      <trkpt lat="47.81137" lon="6.87133">
        <ele>888.20001220703</ele>
        <time>2017-07-22T07:12:03Z</time>
      </trkpt>
      <trkpt lat="47.8113" lon="6.8713">
        <ele>889.20001220703</ele>
        <time>2017-07-22T07:12:08Z</time>
      </trkpt>
      <trkpt lat="47.81128" lon="6.8713">
        <ele>889.40002441406</ele>
        <time>2017-07-22T07:12:09Z</time>
      </trkpt>
      <trkpt lat="47.81122" lon="6.87126">
        <ele>890.20001220703</ele>
        <time>2017-07-22T07:12:14Z</time>
      </trkpt>
      <trkpt lat="47.81121" lon="6.87125">
        <ele>890.40002441406</ele>
        <time>2017-07-22T07:12:15Z</time>
      </trkpt>
      <trkpt lat="47.81112" lon="6.87119">
        <ele>891.59997558594</ele>
        <time>2017-07-22T07:12:20Z</time>
      </trkpt>
      <trkpt lat="47.81103" lon="6.87114">
        <ele>892.59997558594</ele>
        <time>2017-07-22T07:12:26Z</time>
      </trkpt>
      <trkpt lat="47.81102" lon="6.87114">
        <ele>892.79998779297</ele>
        <time>2017-07-22T07:12:27Z</time>
      </trkpt>
      <trkpt lat="47.81091" lon="6.87115">
        <ele>893.59997558594</ele>
        <time>2017-07-22T07:12:32Z</time>
      </trkpt>
      <trkpt lat="47.81089" lon="6.87115">
        <ele>893.79998779297</ele>
        <time>2017-07-22T07:12:33Z</time>
      </trkpt>
      <trkpt lat="47.81081" lon="6.87115">
        <ele>894.59997558594</ele>
        <time>2017-07-22T07:12:38Z</time>
      </trkpt>
      <trkpt lat="47.81075" lon="6.87116">
        <ele>895.20001220703</ele>
        <time>2017-07-22T07:12:41Z</time>
      </trkpt>
      <trkpt lat="47.81072" lon="6.87116">
        <ele>895.79998779297</ele>
        <time>2017-07-22T07:12:43Z</time>
      </trkpt>
      <trkpt lat="47.81061" lon="6.87117">
        <ele>896.59997558594</ele>
        <time>2017-07-22T07:12:49Z</time>
      </trkpt>
      <trkpt lat="47.8106" lon="6.87116">
        <ele>896.79998779297</ele>
        <time>2017-07-22T07:12:50Z</time>
      </trkpt>
      <trkpt lat="47.81051" lon="6.87118">
        <ele>897.79998779297</ele>
        <time>2017-07-22T07:12:56Z</time>
      </trkpt>
      <trkpt lat="47.8105" lon="6.87118">
        <ele>898</ele>
        <time>2017-07-22T07:12:57Z</time>
      </trkpt>
      <trkpt lat="47.8104" lon="6.87121">
        <ele>898.79998779297</ele>
        <time>2017-07-22T07:13:02Z</time>
      </trkpt>
      <trkpt lat="47.81035" lon="6.87123">
        <ele>899</ele>
        <time>2017-07-22T07:13:04Z</time>
      </trkpt>
      <trkpt lat="47.8103" lon="6.8712">
        <ele>899.59997558594</ele>
        <time>2017-07-22T07:13:07Z</time>
      </trkpt>
      <trkpt lat="47.81028" lon="6.87119">
        <ele>899.59997558594</ele>
        <time>2017-07-22T07:13:08Z</time>
      </trkpt>
      <trkpt lat="47.81026" lon="6.87116">
        <ele>900</ele>
        <time>2017-07-22T07:13:10Z</time>
      </trkpt>
      <trkpt lat="47.81025" lon="6.87114">
        <ele>900.20001220703</ele>
        <time>2017-07-22T07:13:11Z</time>
      </trkpt>
      <trkpt lat="47.81019" lon="6.87108">
        <ele>901</ele>
        <time>2017-07-22T07:13:15Z</time>
      </trkpt>
      <trkpt lat="47.81018" lon="6.87107">
        <ele>901.20001220703</ele>
        <time>2017-07-22T07:13:16Z</time>
      </trkpt>
      <trkpt lat="47.81009" lon="6.87097">
        <ele>902.40002441406</ele>
        <time>2017-07-22T07:13:23Z</time>
      </trkpt>
      <trkpt lat="47.81005" lon="6.87091">
        <ele>903</ele>
        <time>2017-07-22T07:13:27Z</time>
      </trkpt>
      <trkpt lat="47.80994" lon="6.87076">
        <ele>905.40002441406</ele>
        <time>2017-07-22T07:13:38Z</time>
      </trkpt>
      <trkpt lat="47.80984" lon="6.87072">
        <ele>906</ele>
        <time>2017-07-22T07:13:42Z</time>
      </trkpt>
      <trkpt lat="47.80975" lon="6.8707">
        <ele>906.40002441406</ele>
        <time>2017-07-22T07:13:45Z</time>
      </trkpt>
      <trkpt lat="47.80968" lon="6.87071">
        <ele>906.79998779297</ele>
        <time>2017-07-22T07:13:48Z</time>
      </trkpt>
      <trkpt lat="47.80956" lon="6.87069">
        <ele>907.59997558594</ele>
        <time>2017-07-22T07:13:53Z</time>
      </trkpt>
      <trkpt lat="47.8095" lon="6.87067">
        <ele>908.40002441406</ele>
        <time>2017-07-22T07:13:56Z</time>
      </trkpt>
      <trkpt lat="47.80947" lon="6.87065">
        <ele>908.59997558594</ele>
        <time>2017-07-22T07:13:58Z</time>
      </trkpt>
      <trkpt lat="47.8094" lon="6.87063">
        <ele>909.79998779297</ele>
        <time>2017-07-22T07:14:03Z</time>
      </trkpt>
      <trkpt lat="47.80938" lon="6.87063">
        <ele>910</ele>
        <time>2017-07-22T07:14:04Z</time>
      </trkpt>
      <trkpt lat="47.8093" lon="6.87055">
        <ele>910.79998779297</ele>
        <time>2017-07-22T07:14:09Z</time>
      </trkpt>
      <trkpt lat="47.80927" lon="6.87053">
        <ele>911.20001220703</ele>
        <time>2017-07-22T07:14:11Z</time>
      </trkpt>
      <trkpt lat="47.8092" lon="6.87049">
        <ele>912</ele>
        <time>2017-07-22T07:14:16Z</time>
      </trkpt>
      <trkpt lat="47.80917" lon="6.87046">
        <ele>912.40002441406</ele>
        <time>2017-07-22T07:14:18Z</time>
      </trkpt>
      <trkpt lat="47.80913" lon="6.87039">
        <ele>913</ele>
        <time>2017-07-22T07:14:22Z</time>
      </trkpt>
      <trkpt lat="47.8091" lon="6.87036">
        <ele>913.40002441406</ele>
        <time>2017-07-22T07:14:24Z</time>
      </trkpt>
      <trkpt lat="47.80901" lon="6.87033">
        <ele>914.20001220703</ele>
        <time>2017-07-22T07:14:29Z</time>
      </trkpt>
      <trkpt lat="47.80899" lon="6.87032">
        <ele>914.40002441406</ele>
        <time>2017-07-22T07:14:30Z</time>
      </trkpt>
      <trkpt lat="47.80892" lon="6.87029">
        <ele>915.20001220703</ele>
        <time>2017-07-22T07:14:35Z</time>
      </trkpt>
      <trkpt lat="47.8089" lon="6.87029">
        <ele>915.40002441406</ele>
        <time>2017-07-22T07:14:36Z</time>
      </trkpt>
      <trkpt lat="47.80879" lon="6.87026">
        <ele>916.40002441406</ele>
        <time>2017-07-22T07:14:42Z</time>
      </trkpt>
      <trkpt lat="47.80876" lon="6.87025">
        <ele>916.79998779297</ele>
        <time>2017-07-22T07:14:44Z</time>
      </trkpt>
      <trkpt lat="47.80868" lon="6.87024">
        <ele>917.59997558594</ele>
        <time>2017-07-22T07:14:48Z</time>
      </trkpt>
      <trkpt lat="47.80861" lon="6.87022">
        <ele>918.40002441406</ele>
        <time>2017-07-22T07:14:52Z</time>
      </trkpt>
      <trkpt lat="47.80859" lon="6.8702">
        <ele>918.59997558594</ele>
        <time>2017-07-22T07:14:54Z</time>
      </trkpt>
      <trkpt lat="47.80852" lon="6.87015">
        <ele>919.40002441406</ele>
        <time>2017-07-22T07:14:59Z</time>
      </trkpt>
      <trkpt lat="47.80846" lon="6.87014">
        <ele>919.59997558594</ele>
        <time>2017-07-22T07:15:01Z</time>
      </trkpt>
      <trkpt lat="47.80831" lon="6.87015">
        <ele>920.59997558594</ele>
        <time>2017-07-22T07:15:06Z</time>
      </trkpt>
      <trkpt lat="47.80829" lon="6.87016">
        <ele>920.79998779297</ele>
        <time>2017-07-22T07:15:07Z</time>
      </trkpt>
      <trkpt lat="47.80816" lon="6.87017">
        <ele>921.79998779297</ele>
        <time>2017-07-22T07:15:13Z</time>
      </trkpt>
      <trkpt lat="47.80814" lon="6.87017">
        <ele>922</ele>
        <time>2017-07-22T07:15:14Z</time>
      </trkpt>
      <trkpt lat="47.80804" lon="6.8702">
        <ele>922.79998779297</ele>
        <time>2017-07-22T07:15:19Z</time>
      </trkpt>
      <trkpt lat="47.808" lon="6.87022">
        <ele>923.20001220703</ele>
        <time>2017-07-22T07:15:21Z</time>
      </trkpt>
      <trkpt lat="47.80792" lon="6.87028">
        <ele>924</ele>
        <time>2017-07-22T07:15:26Z</time>
      </trkpt>
      <trkpt lat="47.80783" lon="6.87031">
        <ele>925</ele>
        <time>2017-07-22T07:15:31Z</time>
      </trkpt>
      <trkpt lat="47.80781" lon="6.87033">
        <ele>925</ele>
        <time>2017-07-22T07:15:32Z</time>
      </trkpt>
      <trkpt lat="47.8077" lon="6.8704">
        <ele>926.20001220703</ele>
        <time>2017-07-22T07:15:38Z</time>
      </trkpt>
      <trkpt lat="47.80762" lon="6.87047">
        <ele>927</ele>
        <time>2017-07-22T07:15:44Z</time>
      </trkpt>
      <trkpt lat="47.80761" lon="6.8705">
        <ele>927.20001220703</ele>
        <time>2017-07-22T07:15:46Z</time>
      </trkpt>
      <trkpt lat="47.80759" lon="6.8706">
        <ele>928</ele>
        <time>2017-07-22T07:15:51Z</time>
      </trkpt>
      <trkpt lat="47.80757" lon="6.87064">
        <ele>928.40002441406</ele>
        <time>2017-07-22T07:15:53Z</time>
      </trkpt>
      <trkpt lat="47.80751" lon="6.87074">
        <ele>929.20001220703</ele>
        <time>2017-07-22T07:15:58Z</time>
      </trkpt>
      <trkpt lat="47.80749" lon="6.87077">
        <ele>929.40002441406</ele>
        <time>2017-07-22T07:15:59Z</time>
      </trkpt>
      <trkpt lat="47.80742" lon="6.87087">
        <ele>930.40002441406</ele>
        <time>2017-07-22T07:16:05Z</time>
      </trkpt>
      <trkpt lat="47.80741" lon="6.87088">
        <ele>930.59997558594</ele>
        <time>2017-07-22T07:16:06Z</time>
      </trkpt>
      <trkpt lat="47.80731" lon="6.87098">
        <ele>931.59997558594</ele>
        <time>2017-07-22T07:16:12Z</time>
      </trkpt>
      <trkpt lat="47.80721" lon="6.87107">
        <ele>932.59997558594</ele>
        <time>2017-07-22T07:16:18Z</time>
      </trkpt>
      <trkpt lat="47.80719" lon="6.87108">
        <ele>932.79998779297</ele>
        <time>2017-07-22T07:16:19Z</time>
      </trkpt>
      <trkpt lat="47.80713" lon="6.87116">
        <ele>933.79998779297</ele>
        <time>2017-07-22T07:16:24Z</time>
      </trkpt>
      <trkpt lat="47.80709" lon="6.87119">
        <ele>934</ele>
        <time>2017-07-22T07:16:26Z</time>
      </trkpt>
      <trkpt lat="47.80702" lon="6.87127">
        <ele>934.79998779297</ele>
        <time>2017-07-22T07:16:31Z</time>
      </trkpt>
      <trkpt lat="47.80697" lon="6.87132">
        <ele>935.20001220703</ele>
        <time>2017-07-22T07:16:34Z</time>
      </trkpt>
      <trkpt lat="47.80691" lon="6.87137">
        <ele>935.79998779297</ele>
        <time>2017-07-22T07:16:38Z</time>
      </trkpt>
      <trkpt lat="47.80688" lon="6.8714">
        <ele>936.20001220703</ele>
        <time>2017-07-22T07:16:40Z</time>
      </trkpt>
      <trkpt lat="47.80685" lon="6.87146">
        <ele>937</ele>
        <time>2017-07-22T07:16:43Z</time>
      </trkpt>
      <trkpt lat="47.80681" lon="6.87154">
        <ele>937.59997558594</ele>
        <time>2017-07-22T07:16:47Z</time>
      </trkpt>
      <trkpt lat="47.80676" lon="6.87158">
        <ele>938</ele>
        <time>2017-07-22T07:16:50Z</time>
      </trkpt>
      <trkpt lat="47.8067" lon="6.87165">
        <ele>938.59997558594</ele>
        <time>2017-07-22T07:16:54Z</time>
      </trkpt>
      <trkpt lat="47.80666" lon="6.87168">
        <ele>939.20001220703</ele>
        <time>2017-07-22T07:16:57Z</time>
      </trkpt>
      <trkpt lat="47.8066" lon="6.87173">
        <ele>940</ele>
        <time>2017-07-22T07:17:01Z</time>
      </trkpt>
      <trkpt lat="47.80654" lon="6.87177">
        <ele>940.20001220703</ele>
        <time>2017-07-22T07:17:04Z</time>
      </trkpt>
      <trkpt lat="47.80649" lon="6.87181">
        <ele>941.20001220703</ele>
        <time>2017-07-22T07:17:08Z</time>
      </trkpt>
      <trkpt lat="47.80647" lon="6.87182">
        <ele>941.40002441406</ele>
        <time>2017-07-22T07:17:09Z</time>
      </trkpt>
      <trkpt lat="47.80638" lon="6.87185">
        <ele>942.40002441406</ele>
        <time>2017-07-22T07:17:14Z</time>
      </trkpt>
      <trkpt lat="47.80633" lon="6.87186">
        <ele>942.79998779297</ele>
        <time>2017-07-22T07:17:17Z</time>
      </trkpt>
      <trkpt lat="47.80625" lon="6.87189">
        <ele>943.40002441406</ele>
        <time>2017-07-22T07:17:21Z</time>
      </trkpt>
      <trkpt lat="47.80617" lon="6.87192">
        <ele>944.20001220703</ele>
        <time>2017-07-22T07:17:25Z</time>
      </trkpt>
      <trkpt lat="47.80614" lon="6.87192">
        <ele>944.59997558594</ele>
        <time>2017-07-22T07:17:27Z</time>
      </trkpt>
      <trkpt lat="47.80606" lon="6.87193">
        <ele>945.79998779297</ele>
        <time>2017-07-22T07:17:32Z</time>
      </trkpt>
      <trkpt lat="47.80593" lon="6.87199">
        <ele>946.79998779297</ele>
        <time>2017-07-22T07:17:39Z</time>
      </trkpt>
      <trkpt lat="47.80592" lon="6.872">
        <ele>947</ele>
        <time>2017-07-22T07:17:40Z</time>
      </trkpt>
      <trkpt lat="47.80583" lon="6.87208">
        <ele>948</ele>
        <time>2017-07-22T07:17:46Z</time>
      </trkpt>
      <trkpt lat="47.80577" lon="6.87212">
        <ele>948.59997558594</ele>
        <time>2017-07-22T07:17:50Z</time>
      </trkpt>
      <trkpt lat="47.80574" lon="6.87215">
        <ele>949</ele>
        <time>2017-07-22T07:17:52Z</time>
      </trkpt>
      <trkpt lat="47.80567" lon="6.87221">
        <ele>949.79998779297</ele>
        <time>2017-07-22T07:17:57Z</time>
      </trkpt>
      <trkpt lat="47.80565" lon="6.87222">
        <ele>950</ele>
        <time>2017-07-22T07:17:58Z</time>
      </trkpt>
      <trkpt lat="47.80556" lon="6.87229">
        <ele>951.20001220703</ele>
        <time>2017-07-22T07:18:05Z</time>
      </trkpt>
      <trkpt lat="47.80546" lon="6.87234">
        <ele>952</ele>
        <time>2017-07-22T07:18:11Z</time>
      </trkpt>
      <trkpt lat="47.80542" lon="6.87234">
        <ele>952.20001220703</ele>
        <time>2017-07-22T07:18:13Z</time>
      </trkpt>
      <trkpt lat="47.80534" lon="6.87228">
        <ele>953</ele>
        <time>2017-07-22T07:18:18Z</time>
      </trkpt>
      <trkpt lat="47.80532" lon="6.87223">
        <ele>953.20001220703</ele>
        <time>2017-07-22T07:18:20Z</time>
      </trkpt>
      <trkpt lat="47.80527" lon="6.87212">
        <ele>954</ele>
        <time>2017-07-22T07:18:25Z</time>
      </trkpt>
      <trkpt lat="47.80526" lon="6.87207">
        <ele>954.40002441406</ele>
        <time>2017-07-22T07:18:27Z</time>
      </trkpt>
      <trkpt lat="47.80522" lon="6.87194">
        <ele>955.20001220703</ele>
        <time>2017-07-22T07:18:32Z</time>
      </trkpt>
      <trkpt lat="47.80522" lon="6.87191">
        <ele>955.40002441406</ele>
        <time>2017-07-22T07:18:33Z</time>
      </trkpt>
      <trkpt lat="47.80522" lon="6.87175">
        <ele>956.40002441406</ele>
        <time>2017-07-22T07:18:40Z</time>
      </trkpt>
      <trkpt lat="47.80522" lon="6.87164">
        <ele>957.40002441406</ele>
        <time>2017-07-22T07:18:45Z</time>
      </trkpt>
      <trkpt lat="47.80521" lon="6.87157">
        <ele>958</ele>
        <time>2017-07-22T07:18:48Z</time>
      </trkpt>
      <trkpt lat="47.80522" lon="6.87142">
        <ele>959.40002441406</ele>
        <time>2017-07-22T07:18:56Z</time>
      </trkpt>
      <trkpt lat="47.80523" lon="6.87137">
        <ele>959.79998779297</ele>
        <time>2017-07-22T07:18:58Z</time>
      </trkpt>
      <trkpt lat="47.80523" lon="6.87132">
        <ele>960</ele>
        <time>2017-07-22T07:19:00Z</time>
      </trkpt>
      <trkpt lat="47.80523" lon="6.87128">
        <ele>960.40002441406</ele>
        <time>2017-07-22T07:19:02Z</time>
      </trkpt>
      <trkpt lat="47.80524" lon="6.8712">
        <ele>960.79998779297</ele>
        <time>2017-07-22T07:19:05Z</time>
      </trkpt>
      <trkpt lat="47.80525" lon="6.87111">
        <ele>961.59997558594</ele>
        <time>2017-07-22T07:19:08Z</time>
      </trkpt>
      <trkpt lat="47.80526" lon="6.87099">
        <ele>962.40002441406</ele>
        <time>2017-07-22T07:19:12Z</time>
      </trkpt>
      <trkpt lat="47.80526" lon="6.87095">
        <ele>962.59997558594</ele>
        <time>2017-07-22T07:19:13Z</time>
      </trkpt>
      <trkpt lat="47.80526" lon="6.87074">
        <ele>963.79998779297</ele>
        <time>2017-07-22T07:19:19Z</time>
      </trkpt>
      <trkpt lat="47.80526" lon="6.87071">
        <ele>964</ele>
        <time>2017-07-22T07:19:20Z</time>
      </trkpt>
      <trkpt lat="47.80527" lon="6.87058">
        <ele>964.79998779297</ele>
        <time>2017-07-22T07:19:25Z</time>
      </trkpt>
      <trkpt lat="47.80528" lon="6.8705">
        <ele>965.40002441406</ele>
        <time>2017-07-22T07:19:28Z</time>
      </trkpt>
      <trkpt lat="47.80529" lon="6.87045">
        <ele>966</ele>
        <time>2017-07-22T07:19:30Z</time>
      </trkpt>
      <trkpt lat="47.80533" lon="6.87027">
        <ele>966.79998779297</ele>
        <time>2017-07-22T07:19:37Z</time>
      </trkpt>
      <trkpt lat="47.80534" lon="6.87025">
        <ele>967.20001220703</ele>
        <time>2017-07-22T07:19:38Z</time>
      </trkpt>
      <trkpt lat="47.80538" lon="6.87013">
        <ele>968.20001220703</ele>
        <time>2017-07-22T07:19:44Z</time>
      </trkpt>
      <trkpt lat="47.80546" lon="6.87004">
        <ele>969.40002441406</ele>
        <time>2017-07-22T07:19:50Z</time>
      </trkpt>
      <trkpt lat="47.80547" lon="6.87002">
        <ele>969.59997558594</ele>
        <time>2017-07-22T07:19:51Z</time>
      </trkpt>
      <trkpt lat="47.80554" lon="6.86994">
        <ele>970.40002441406</ele>
        <time>2017-07-22T07:19:56Z</time>
      </trkpt>
      <trkpt lat="47.80559" lon="6.86988">
        <ele>971.20001220703</ele>
        <time>2017-07-22T07:20:00Z</time>
      </trkpt>
      <trkpt lat="47.80561" lon="6.86984">
        <ele>971.59997558594</ele>
        <time>2017-07-22T07:20:02Z</time>
      </trkpt>
      <trkpt lat="47.80568" lon="6.86976">
        <ele>972.40002441406</ele>
        <time>2017-07-22T07:20:07Z</time>
      </trkpt>
      <trkpt lat="47.80569" lon="6.86974">
        <ele>972.59997558594</ele>
        <time>2017-07-22T07:20:08Z</time>
      </trkpt>
      <trkpt lat="47.80575" lon="6.86965">
        <ele>973.40002441406</ele>
        <time>2017-07-22T07:20:13Z</time>
      </trkpt>
      <trkpt lat="47.80578" lon="6.86962">
        <ele>973.79998779297</ele>
        <time>2017-07-22T07:20:15Z</time>
      </trkpt>
      <trkpt lat="47.80587" lon="6.8695">
        <ele>974.79998779297</ele>
        <time>2017-07-22T07:20:22Z</time>
      </trkpt>
      <trkpt lat="47.80596" lon="6.86937">
        <ele>976</ele>
        <time>2017-07-22T07:20:29Z</time>
      </trkpt>
      <trkpt lat="47.80606" lon="6.86923">
        <ele>977</ele>
        <time>2017-07-22T07:20:36Z</time>
      </trkpt>
      <trkpt lat="47.80607" lon="6.8692">
        <ele>977</ele>
        <time>2017-07-22T07:20:37Z</time>
      </trkpt>
      <trkpt lat="47.80618" lon="6.86906">
        <ele>978</ele>
        <time>2017-07-22T07:20:44Z</time>
      </trkpt>
      <trkpt lat="47.80621" lon="6.86902">
        <ele>978.20001220703</ele>
        <time>2017-07-22T07:20:46Z</time>
      </trkpt>
      <trkpt lat="47.80629" lon="6.86886">
        <ele>979</ele>
        <time>2017-07-22T07:20:52Z</time>
      </trkpt>
      <trkpt lat="47.80631" lon="6.8688">
        <ele>979.40002441406</ele>
        <time>2017-07-22T07:20:54Z</time>
      </trkpt>
      <trkpt lat="47.80635" lon="6.86871">
        <ele>980</ele>
        <time>2017-07-22T07:20:58Z</time>
      </trkpt>
      <trkpt lat="47.80636" lon="6.86868">
        <ele>980.20001220703</ele>
        <time>2017-07-22T07:20:59Z</time>
      </trkpt>
      <trkpt lat="47.80638" lon="6.86852">
        <ele>981.40002441406</ele>
        <time>2017-07-22T07:21:05Z</time>
      </trkpt>
      <trkpt lat="47.80638" lon="6.8685">
        <ele>981.40002441406</ele>
        <time>2017-07-22T07:21:06Z</time>
      </trkpt>
      <trkpt lat="47.80635" lon="6.86834">
        <ele>982.40002441406</ele>
        <time>2017-07-22T07:21:12Z</time>
      </trkpt>
      <trkpt lat="47.80635" lon="6.86832">
        <ele>982.59997558594</ele>
        <time>2017-07-22T07:21:13Z</time>
      </trkpt>
      <trkpt lat="47.80634" lon="6.86819">
        <ele>983.40002441406</ele>
        <time>2017-07-22T07:21:18Z</time>
      </trkpt>
      <trkpt lat="47.80634" lon="6.86816">
        <ele>983.59997558594</ele>
        <time>2017-07-22T07:21:19Z</time>
      </trkpt>
      <trkpt lat="47.80632" lon="6.86801">
        <ele>984.59997558594</ele>
        <time>2017-07-22T07:21:25Z</time>
      </trkpt>
      <trkpt lat="47.80631" lon="6.86799">
        <ele>984.59997558594</ele>
        <time>2017-07-22T07:21:26Z</time>
      </trkpt>
      <trkpt lat="47.80629" lon="6.86788">
        <ele>985.59997558594</ele>
        <time>2017-07-22T07:21:30Z</time>
      </trkpt>
      <trkpt lat="47.80627" lon="6.86777">
        <ele>986.20001220703</ele>
        <time>2017-07-22T07:21:34Z</time>
      </trkpt>
      <trkpt lat="47.80627" lon="6.86769">
        <ele>986.79998779297</ele>
        <time>2017-07-22T07:21:37Z</time>
      </trkpt>
      <trkpt lat="47.80626" lon="6.86764">
        <ele>987.20001220703</ele>
        <time>2017-07-22T07:21:39Z</time>
      </trkpt>
      <trkpt lat="47.80626" lon="6.86752">
        <ele>987.79998779297</ele>
        <time>2017-07-22T07:21:43Z</time>
      </trkpt>
      <trkpt lat="47.80626" lon="6.8675">
        <ele>988</ele>
        <time>2017-07-22T07:21:44Z</time>
      </trkpt>
      <trkpt lat="47.80624" lon="6.86736">
        <ele>989</ele>
        <time>2017-07-22T07:21:49Z</time>
      </trkpt>
      <trkpt lat="47.80623" lon="6.86734">
        <ele>989</ele>
        <time>2017-07-22T07:21:50Z</time>
      </trkpt>
      <trkpt lat="47.80622" lon="6.86724">
        <ele>990</ele>
        <time>2017-07-22T07:21:55Z</time>
      </trkpt>
      <trkpt lat="47.80622" lon="6.8672">
        <ele>990.40002441406</ele>
        <time>2017-07-22T07:21:57Z</time>
      </trkpt>
      <trkpt lat="47.80621" lon="6.8671">
        <ele>991.20001220703</ele>
        <time>2017-07-22T07:22:02Z</time>
      </trkpt>
      <trkpt lat="47.80621" lon="6.86708">
        <ele>991.40002441406</ele>
        <time>2017-07-22T07:22:03Z</time>
      </trkpt>
      <trkpt lat="47.8062" lon="6.86698">
        <ele>992.20001220703</ele>
        <time>2017-07-22T07:22:08Z</time>
      </trkpt>
      <trkpt lat="47.8062" lon="6.86695">
        <ele>992.40002441406</ele>
        <time>2017-07-22T07:22:09Z</time>
      </trkpt>
      <trkpt lat="47.80617" lon="6.86678">
        <ele>993.20001220703</ele>
        <time>2017-07-22T07:22:15Z</time>
      </trkpt>
      <trkpt lat="47.80617" lon="6.86674">
        <ele>993.40002441406</ele>
        <time>2017-07-22T07:22:16Z</time>
      </trkpt>
      <trkpt lat="47.80617" lon="6.86667">
        <ele>993.79998779297</ele>
        <time>2017-07-22T07:22:18Z</time>
      </trkpt>
      <trkpt lat="47.80616" lon="6.8666">
        <ele>994.40002441406</ele>
        <time>2017-07-22T07:22:21Z</time>
      </trkpt>
      <trkpt lat="47.80616" lon="6.86658">
        <ele>994.59997558594</ele>
        <time>2017-07-22T07:22:22Z</time>
      </trkpt>
      <trkpt lat="47.80616" lon="6.86655">
        <ele>994.79998779297</ele>
        <time>2017-07-22T07:22:23Z</time>
      </trkpt>
      <trkpt lat="47.80615" lon="6.86645">
        <ele>995.59997558594</ele>
        <time>2017-07-22T07:22:27Z</time>
      </trkpt>
      <trkpt lat="47.80614" lon="6.8664">
        <ele>995.79998779297</ele>
        <time>2017-07-22T07:22:29Z</time>
      </trkpt>
      <trkpt lat="47.80613" lon="6.86627">
        <ele>996.59997558594</ele>
        <time>2017-07-22T07:22:34Z</time>
      </trkpt>
      <trkpt lat="47.80614" lon="6.86622">
        <ele>997</ele>
        <time>2017-07-22T07:22:36Z</time>
      </trkpt>
      <trkpt lat="47.80613" lon="6.86617">
        <ele>997.20001220703</ele>
        <time>2017-07-22T07:22:38Z</time>
      </trkpt>
      <trkpt lat="47.80612" lon="6.86608">
        <ele>997.79998779297</ele>
        <time>2017-07-22T07:22:41Z</time>
      </trkpt>
      <trkpt lat="47.80612" lon="6.86605">
        <ele>997.79998779297</ele>
        <time>2017-07-22T07:22:42Z</time>
      </trkpt>
      <trkpt lat="47.8061" lon="6.86592">
        <ele>998.79998779297</ele>
        <time>2017-07-22T07:22:47Z</time>
      </trkpt>
      <trkpt lat="47.8061" lon="6.86589">
        <ele>999</ele>
        <time>2017-07-22T07:22:48Z</time>
      </trkpt>
      <trkpt lat="47.8061" lon="6.86577">
        <ele>999.79998779297</ele>
        <time>2017-07-22T07:22:53Z</time>
      </trkpt>
      <trkpt lat="47.8061" lon="6.86575">
        <ele>1000</ele>
        <time>2017-07-22T07:22:54Z</time>
      </trkpt>
      <trkpt lat="47.80609" lon="6.86564">
        <ele>1000.799987793</ele>
        <time>2017-07-22T07:22:58Z</time>
      </trkpt>
      <trkpt lat="47.80609" lon="6.86561">
        <ele>1001</ele>
        <time>2017-07-22T07:22:59Z</time>
      </trkpt>
      <trkpt lat="47.80609" lon="6.86555">
        <ele>1001.200012207</ele>
        <time>2017-07-22T07:23:01Z</time>
      </trkpt>
      <trkpt lat="47.80608" lon="6.86542">
        <ele>1002</ele>
        <time>2017-07-22T07:23:06Z</time>
      </trkpt>
      <trkpt lat="47.80608" lon="6.8654">
        <ele>1002.4000244141</ele>
        <time>2017-07-22T07:23:07Z</time>
      </trkpt>
      <trkpt lat="47.80606" lon="6.86528">
        <ele>1003.200012207</ele>
        <time>2017-07-22T07:23:12Z</time>
      </trkpt>
      <trkpt lat="47.80606" lon="6.8652">
        <ele>1003.799987793</ele>
        <time>2017-07-22T07:23:15Z</time>
      </trkpt>
      <trkpt lat="47.80605" lon="6.86509">
        <ele>1004.200012207</ele>
        <time>2017-07-22T07:23:19Z</time>
      </trkpt>
      <trkpt lat="47.80605" lon="6.865">
        <ele>1004.799987793</ele>
        <time>2017-07-22T07:23:22Z</time>
      </trkpt>
      <trkpt lat="47.80605" lon="6.86492">
        <ele>1005.4000244141</ele>
        <time>2017-07-22T07:23:25Z</time>
      </trkpt>
      <trkpt lat="47.80605" lon="6.86483">
        <ele>1006</ele>
        <time>2017-07-22T07:23:28Z</time>
      </trkpt>
      <trkpt lat="47.80604" lon="6.86475">
        <ele>1006.799987793</ele>
        <time>2017-07-22T07:23:31Z</time>
      </trkpt>
      <trkpt lat="47.80603" lon="6.86467">
        <ele>1007.4000244141</ele>
        <time>2017-07-22T07:23:34Z</time>
      </trkpt>
      <trkpt lat="47.80601" lon="6.86457">
        <ele>1008</ele>
        <time>2017-07-22T07:23:37Z</time>
      </trkpt>
      <trkpt lat="47.80601" lon="6.86448">
        <ele>1008.4000244141</ele>
        <time>2017-07-22T07:23:40Z</time>
      </trkpt>
      <trkpt lat="47.806" lon="6.8644">
        <ele>1009</ele>
        <time>2017-07-22T07:23:43Z</time>
      </trkpt>
      <trkpt lat="47.806" lon="6.86432">
        <ele>1009.5999755859</ele>
        <time>2017-07-22T07:23:46Z</time>
      </trkpt>
      <trkpt lat="47.806" lon="6.86421">
        <ele>1010.200012207</ele>
        <time>2017-07-22T07:23:49Z</time>
      </trkpt>
      <trkpt lat="47.80599" lon="6.86406">
        <ele>1011</ele>
        <time>2017-07-22T07:23:53Z</time>
      </trkpt>
      <trkpt lat="47.80598" lon="6.86399">
        <ele>1011.5999755859</ele>
        <time>2017-07-22T07:23:55Z</time>
      </trkpt>
      <trkpt lat="47.80596" lon="6.86382">
        <ele>1012.799987793</ele>
        <time>2017-07-22T07:24:01Z</time>
      </trkpt>
      <trkpt lat="47.80597" lon="6.86379">
        <ele>1013</ele>
        <time>2017-07-22T07:24:02Z</time>
      </trkpt>
      <trkpt lat="47.80597" lon="6.86362">
        <ele>1013.799987793</ele>
        <time>2017-07-22T07:24:08Z</time>
      </trkpt>
      <trkpt lat="47.80598" lon="6.86357">
        <ele>1014.200012207</ele>
        <time>2017-07-22T07:24:10Z</time>
      </trkpt>
      <trkpt lat="47.80599" lon="6.86348">
        <ele>1014.799987793</ele>
        <time>2017-07-22T07:24:14Z</time>
      </trkpt>
      <trkpt lat="47.806" lon="6.86344">
        <ele>1015.200012207</ele>
        <time>2017-07-22T07:24:16Z</time>
      </trkpt>
      <trkpt lat="47.80601" lon="6.86338">
        <ele>1015.799987793</ele>
        <time>2017-07-22T07:24:19Z</time>
      </trkpt>
      <trkpt lat="47.80602" lon="6.86333">
        <ele>1016.200012207</ele>
        <time>2017-07-22T07:24:21Z</time>
      </trkpt>
      <trkpt lat="47.80602" lon="6.86324">
        <ele>1016.5999755859</ele>
        <time>2017-07-22T07:24:24Z</time>
      </trkpt>
      <trkpt lat="47.80602" lon="6.86319">
        <ele>1016.799987793</ele>
        <time>2017-07-22T07:24:26Z</time>
      </trkpt>
      <trkpt lat="47.80602" lon="6.86303">
        <ele>1017.799987793</ele>
        <time>2017-07-22T07:24:32Z</time>
      </trkpt>
      <trkpt lat="47.80602" lon="6.86298">
        <ele>1018</ele>
        <time>2017-07-22T07:24:34Z</time>
      </trkpt>
      <trkpt lat="47.80602" lon="6.86288">
        <ele>1018.799987793</ele>
        <time>2017-07-22T07:24:38Z</time>
      </trkpt>
      <trkpt lat="47.80601" lon="6.8628">
        <ele>1019.200012207</ele>
        <time>2017-07-22T07:24:41Z</time>
      </trkpt>
      <trkpt lat="47.80602" lon="6.8627">
        <ele>1019.799987793</ele>
        <time>2017-07-22T07:24:45Z</time>
      </trkpt>
      <trkpt lat="47.80602" lon="6.86264">
        <ele>1020.200012207</ele>
        <time>2017-07-22T07:24:47Z</time>
      </trkpt>
      <trkpt lat="47.80602" lon="6.86253">
        <ele>1020.799987793</ele>
        <time>2017-07-22T07:24:51Z</time>
      </trkpt>
      <trkpt lat="47.80602" lon="6.86246">
        <ele>1021.200012207</ele>
        <time>2017-07-22T07:24:54Z</time>
      </trkpt>
      <trkpt lat="47.80602" lon="6.86239">
        <ele>1021.799987793</ele>
        <time>2017-07-22T07:24:57Z</time>
      </trkpt>
      <trkpt lat="47.80602" lon="6.8623">
        <ele>1022.4000244141</ele>
        <time>2017-07-22T07:25:01Z</time>
      </trkpt>
      <trkpt lat="47.80602" lon="6.86222">
        <ele>1022.799987793</ele>
        <time>2017-07-22T07:25:04Z</time>
      </trkpt>
      <trkpt lat="47.80601" lon="6.86214">
        <ele>1023.4000244141</ele>
        <time>2017-07-22T07:25:07Z</time>
      </trkpt>
      <trkpt lat="47.80599" lon="6.862">
        <ele>1024.4000244141</ele>
        <time>2017-07-22T07:25:12Z</time>
      </trkpt>
      <trkpt lat="47.80599" lon="6.86197">
        <ele>1024.5999755859</ele>
        <time>2017-07-22T07:25:13Z</time>
      </trkpt>
      <trkpt lat="47.80598" lon="6.86184">
        <ele>1025.1999511719</ele>
        <time>2017-07-22T07:25:18Z</time>
      </trkpt>
      <trkpt lat="47.80597" lon="6.86178">
        <ele>1025.5999755859</ele>
        <time>2017-07-22T07:25:20Z</time>
      </trkpt>
      <trkpt lat="47.80598" lon="6.86168">
        <ele>1026.4000244141</ele>
        <time>2017-07-22T07:25:24Z</time>
      </trkpt>
      <trkpt lat="47.80598" lon="6.86162">
        <ele>1026.5999755859</ele>
        <time>2017-07-22T07:25:26Z</time>
      </trkpt>
      <trkpt lat="47.80598" lon="6.86147">
        <ele>1027.5999755859</ele>
        <time>2017-07-22T07:25:32Z</time>
      </trkpt>
      <trkpt lat="47.80597" lon="6.86132">
        <ele>1028.8000488281</ele>
        <time>2017-07-22T07:25:39Z</time>
      </trkpt>
      <trkpt lat="47.80596" lon="6.86111">
        <ele>1030</ele>
        <time>2017-07-22T07:25:46Z</time>
      </trkpt>
      <trkpt lat="47.80596" lon="6.86108">
        <ele>1030</ele>
        <time>2017-07-22T07:25:47Z</time>
      </trkpt>
      <trkpt lat="47.80593" lon="6.86092">
        <ele>1031</ele>
        <time>2017-07-22T07:25:53Z</time>
      </trkpt>
      <trkpt lat="47.80593" lon="6.86086">
        <ele>1031.4000244141</ele>
        <time>2017-07-22T07:25:55Z</time>
      </trkpt>
      <trkpt lat="47.80592" lon="6.86074">
        <ele>1032.1999511719</ele>
        <time>2017-07-22T07:25:59Z</time>
      </trkpt>
      <trkpt lat="47.80592" lon="6.86066">
        <ele>1032.5999755859</ele>
        <time>2017-07-22T07:26:02Z</time>
      </trkpt>
      <trkpt lat="47.80592" lon="6.86056">
        <ele>1033.1999511719</ele>
        <time>2017-07-22T07:26:06Z</time>
      </trkpt>
      <trkpt lat="47.8059" lon="6.86048">
        <ele>1034</ele>
        <time>2017-07-22T07:26:10Z</time>
      </trkpt>
      <trkpt lat="47.8059" lon="6.8604">
        <ele>1034.4000244141</ele>
        <time>2017-07-22T07:26:13Z</time>
      </trkpt>
      <trkpt lat="47.80589" lon="6.8603">
        <ele>1035.1999511719</ele>
        <time>2017-07-22T07:26:17Z</time>
      </trkpt>
      <trkpt lat="47.80588" lon="6.86022">
        <ele>1035.5999755859</ele>
        <time>2017-07-22T07:26:20Z</time>
      </trkpt>
      <trkpt lat="47.80588" lon="6.86016">
        <ele>1036.1999511719</ele>
        <time>2017-07-22T07:26:23Z</time>
      </trkpt>
      <trkpt lat="47.80588" lon="6.86011">
        <ele>1036.5999755859</ele>
        <time>2017-07-22T07:26:25Z</time>
      </trkpt>
      <trkpt lat="47.80586" lon="6.85993">
        <ele>1037.5999755859</ele>
        <time>2017-07-22T07:26:31Z</time>
      </trkpt>
      <trkpt lat="47.80586" lon="6.8599">
        <ele>1037.8000488281</ele>
        <time>2017-07-22T07:26:32Z</time>
      </trkpt>
      <trkpt lat="47.80587" lon="6.85976">
        <ele>1038.4000244141</ele>
        <time>2017-07-22T07:26:36Z</time>
      </trkpt>
      <trkpt lat="47.80587" lon="6.8597">
        <ele>1038.8000488281</ele>
        <time>2017-07-22T07:26:38Z</time>
      </trkpt>
      <trkpt lat="47.80587" lon="6.85967">
        <ele>1038.8000488281</ele>
        <time>2017-07-22T07:26:39Z</time>
      </trkpt>
      <trkpt lat="47.80586" lon="6.85951">
        <ele>1039.8000488281</ele>
        <time>2017-07-22T07:26:44Z</time>
      </trkpt>
      <trkpt lat="47.80585" lon="6.85948">
        <ele>1040</ele>
        <time>2017-07-22T07:26:45Z</time>
      </trkpt>
      <trkpt lat="47.80586" lon="6.8593">
        <ele>1041</ele>
        <time>2017-07-22T07:26:51Z</time>
      </trkpt>
      <trkpt lat="47.80586" lon="6.85927">
        <ele>1041.1999511719</ele>
        <time>2017-07-22T07:26:52Z</time>
      </trkpt>
      <trkpt lat="47.80586" lon="6.85911">
        <ele>1042.1999511719</ele>
        <time>2017-07-22T07:26:58Z</time>
      </trkpt>
      <trkpt lat="47.80586" lon="6.85906">
        <ele>1042.4000244141</ele>
        <time>2017-07-22T07:27:00Z</time>
      </trkpt>
      <trkpt lat="47.80588" lon="6.85893">
        <ele>1043.1999511719</ele>
        <time>2017-07-22T07:27:05Z</time>
      </trkpt>
      <trkpt lat="47.80589" lon="6.85882">
        <ele>1044.1999511719</ele>
        <time>2017-07-22T07:27:09Z</time>
      </trkpt>
      <trkpt lat="47.8059" lon="6.85879">
        <ele>1044.4000244141</ele>
        <time>2017-07-22T07:27:10Z</time>
      </trkpt>
      <trkpt lat="47.8059" lon="6.85858">
        <ele>1045</ele>
        <time>2017-07-22T07:27:17Z</time>
      </trkpt>
      <trkpt lat="47.8059" lon="6.85849">
        <ele>1045.4000244141</ele>
        <time>2017-07-22T07:27:20Z</time>
      </trkpt>
      <trkpt lat="47.8059" lon="6.85836">
        <ele>1046</ele>
        <time>2017-07-22T07:27:24Z</time>
      </trkpt>
      <trkpt lat="47.80592" lon="6.85828">
        <ele>1046.4000244141</ele>
        <time>2017-07-22T07:27:27Z</time>
      </trkpt>
      <trkpt lat="47.80592" lon="6.85825">
        <ele>1046.5999755859</ele>
        <time>2017-07-22T07:27:28Z</time>
      </trkpt>
      <trkpt lat="47.8059" lon="6.8581">
        <ele>1047</ele>
        <time>2017-07-22T07:27:32Z</time>
      </trkpt>
      <trkpt lat="47.80589" lon="6.85788">
        <ele>1047.1999511719</ele>
        <time>2017-07-22T07:27:37Z</time>
      </trkpt>
      <trkpt lat="47.80584" lon="6.85759">
        <ele>1047.1999511719</ele>
        <time>2017-07-22T07:27:43Z</time>
      </trkpt>
      <trkpt lat="47.80581" lon="6.85742">
        <ele>1047</ele>
        <time>2017-07-22T07:27:46Z</time>
      </trkpt>
      <trkpt lat="47.80576" lon="6.85714">
        <ele>1047</ele>
        <time>2017-07-22T07:27:51Z</time>
      </trkpt>
      <trkpt lat="47.8057" lon="6.85684">
        <ele>1047</ele>
        <time>2017-07-22T07:27:57Z</time>
      </trkpt>
      <trkpt lat="47.80565" lon="6.8566">
        <ele>1047.4000244141</ele>
        <time>2017-07-22T07:28:02Z</time>
      </trkpt>
      <trkpt lat="47.80561" lon="6.85643">
        <ele>1047.5999755859</ele>
        <time>2017-07-22T07:28:05Z</time>
      </trkpt>
      <trkpt lat="47.80553" lon="6.85594">
        <ele>1048</ele>
        <time>2017-07-22T07:28:13Z</time>
      </trkpt>
      <trkpt lat="47.80549" lon="6.85559">
        <ele>1048.5999755859</ele>
        <time>2017-07-22T07:28:19Z</time>
      </trkpt>
      <trkpt lat="47.80548" lon="6.85553">
        <ele>1048.8000488281</ele>
        <time>2017-07-22T07:28:20Z</time>
      </trkpt>
      <trkpt lat="47.80548" lon="6.85524">
        <ele>1049.5999755859</ele>
        <time>2017-07-22T07:28:25Z</time>
      </trkpt>
      <trkpt lat="47.80548" lon="6.85518">
        <ele>1049.8000488281</ele>
        <time>2017-07-22T07:28:26Z</time>
      </trkpt>
      <trkpt lat="47.80547" lon="6.85512">
        <ele>1050</ele>
        <time>2017-07-22T07:28:27Z</time>
      </trkpt>
      <trkpt lat="47.80544" lon="6.85495">
        <ele>1050.4000244141</ele>
        <time>2017-07-22T07:28:30Z</time>
      </trkpt>
      <trkpt lat="47.80543" lon="6.85485">
        <ele>1050.8000488281</ele>
        <time>2017-07-22T07:28:32Z</time>
      </trkpt>
      <trkpt lat="47.80538" lon="6.85457">
        <ele>1051.5999755859</ele>
        <time>2017-07-22T07:28:37Z</time>
      </trkpt>
      <trkpt lat="47.80537" lon="6.85447">
        <ele>1052</ele>
        <time>2017-07-22T07:28:39Z</time>
      </trkpt>
      <trkpt lat="47.8053" lon="6.85421">
        <ele>1053</ele>
        <time>2017-07-22T07:28:44Z</time>
      </trkpt>
      <trkpt lat="47.80527" lon="6.85412">
        <ele>1053.4000244141</ele>
        <time>2017-07-22T07:28:46Z</time>
      </trkpt>
      <trkpt lat="47.80513" lon="6.85378">
        <ele>1053.8000488281</ele>
        <time>2017-07-22T07:28:53Z</time>
      </trkpt>
      <trkpt lat="47.80495" lon="6.85339">
        <ele>1053.4000244141</ele>
        <time>2017-07-22T07:28:59Z</time>
      </trkpt>
      <trkpt lat="47.80474" lon="6.853">
        <ele>1052.4000244141</ele>
        <time>2017-07-22T07:29:05Z</time>
      </trkpt>
      <trkpt lat="47.80453" lon="6.85267">
        <ele>1051.8000488281</ele>
        <time>2017-07-22T07:29:10Z</time>
      </trkpt>
      <trkpt lat="47.80443" lon="6.85253">
        <ele>1051.5999755859</ele>
        <time>2017-07-22T07:29:12Z</time>
      </trkpt>
      <trkpt lat="47.80422" lon="6.85215">
        <ele>1050.8000488281</ele>
        <time>2017-07-22T07:29:17Z</time>
      </trkpt>
      <trkpt lat="47.80418" lon="6.85207">
        <ele>1050.8000488281</ele>
        <time>2017-07-22T07:29:18Z</time>
      </trkpt>
      <trkpt lat="47.80407" lon="6.85182">
        <ele>1050.5999755859</ele>
        <time>2017-07-22T07:29:22Z</time>
      </trkpt>
      <trkpt lat="47.80399" lon="6.85165">
        <ele>1051.4000244141</ele>
        <time>2017-07-22T07:29:27Z</time>
      </trkpt>
      <trkpt lat="47.80395" lon="6.85157">
        <ele>1052</ele>
        <time>2017-07-22T07:29:29Z</time>
      </trkpt>
      <trkpt lat="47.80388" lon="6.85138">
        <ele>1053</ele>
        <time>2017-07-22T07:29:33Z</time>
      </trkpt>
      <trkpt lat="47.80378" lon="6.85115">
        <ele>1054</ele>
        <time>2017-07-22T07:29:38Z</time>
      </trkpt>
      <trkpt lat="47.80374" lon="6.85105">
        <ele>1054.4000244141</ele>
        <time>2017-07-22T07:29:40Z</time>
      </trkpt>
      <trkpt lat="47.80366" lon="6.85088">
        <ele>1055.1999511719</ele>
        <time>2017-07-22T07:29:44Z</time>
      </trkpt>
      <trkpt lat="47.8036" lon="6.85078">
        <ele>1055.5999755859</ele>
        <time>2017-07-22T07:29:47Z</time>
      </trkpt>
      <trkpt lat="47.80348" lon="6.85055">
        <ele>1056.1999511719</ele>
        <time>2017-07-22T07:29:53Z</time>
      </trkpt>
      <trkpt lat="47.80343" lon="6.85047">
        <ele>1056.5999755859</ele>
        <time>2017-07-22T07:29:55Z</time>
      </trkpt>
      <trkpt lat="47.80323" lon="6.85021">
        <ele>1056.8000488281</ele>
        <time>2017-07-22T07:30:01Z</time>
      </trkpt>
      <trkpt lat="47.80312" lon="6.85006">
        <ele>1056.5999755859</ele>
        <time>2017-07-22T07:30:04Z</time>
      </trkpt>
      <trkpt lat="47.80303" lon="6.84989">
        <ele>1056</ele>
        <time>2017-07-22T07:30:07Z</time>
      </trkpt>
      <trkpt lat="47.80294" lon="6.8497">
        <ele>1055.5999755859</ele>
        <time>2017-07-22T07:30:10Z</time>
      </trkpt>
      <trkpt lat="47.8029" lon="6.84954">
        <ele>1055.4000244141</ele>
        <time>2017-07-22T07:30:12Z</time>
      </trkpt>
      <trkpt lat="47.80286" lon="6.84936">
        <ele>1055.1999511719</ele>
        <time>2017-07-22T07:30:14Z</time>
      </trkpt>
      <trkpt lat="47.80283" lon="6.84903">
        <ele>1055</ele>
        <time>2017-07-22T07:30:18Z</time>
      </trkpt>
      <trkpt lat="47.80282" lon="6.84864">
        <ele>1055.5999755859</ele>
        <time>2017-07-22T07:30:24Z</time>
      </trkpt>
      <trkpt lat="47.80283" lon="6.8485">
        <ele>1056.4000244141</ele>
        <time>2017-07-22T07:30:27Z</time>
      </trkpt>
      <trkpt lat="47.80285" lon="6.84833">
        <ele>1057</ele>
        <time>2017-07-22T07:30:31Z</time>
      </trkpt>
      <trkpt lat="47.80285" lon="6.84824">
        <ele>1057.4000244141</ele>
        <time>2017-07-22T07:30:33Z</time>
      </trkpt>
      <trkpt lat="47.80288" lon="6.84804">
        <ele>1058.4000244141</ele>
        <time>2017-07-22T07:30:38Z</time>
      </trkpt>
      <trkpt lat="47.80292" lon="6.84786">
        <ele>1059.8000488281</ele>
        <time>2017-07-22T07:30:43Z</time>
      </trkpt>
      <trkpt lat="47.80293" lon="6.84783">
        <ele>1060</ele>
        <time>2017-07-22T07:30:44Z</time>
      </trkpt>
      <trkpt lat="47.80298" lon="6.8477">
        <ele>1061</ele>
        <time>2017-07-22T07:30:48Z</time>
      </trkpt>
      <trkpt lat="47.803" lon="6.84765">
        <ele>1061.4000244141</ele>
        <time>2017-07-22T07:30:50Z</time>
      </trkpt>
      <trkpt lat="47.80305" lon="6.84753">
        <ele>1062</ele>
        <time>2017-07-22T07:30:54Z</time>
      </trkpt>
      <trkpt lat="47.8031" lon="6.84746">
        <ele>1062.4000244141</ele>
        <time>2017-07-22T07:30:57Z</time>
      </trkpt>
      <trkpt lat="47.80317" lon="6.84736">
        <ele>1063.1999511719</ele>
        <time>2017-07-22T07:31:01Z</time>
      </trkpt>
      <trkpt lat="47.80321" lon="6.84727">
        <ele>1063.5999755859</ele>
        <time>2017-07-22T07:31:04Z</time>
      </trkpt>
      <trkpt lat="47.80326" lon="6.8472">
        <ele>1064.4000244141</ele>
        <time>2017-07-22T07:31:07Z</time>
      </trkpt>
      <trkpt lat="47.80332" lon="6.84713">
        <ele>1065</ele>
        <time>2017-07-22T07:31:10Z</time>
      </trkpt>
      <trkpt lat="47.80336" lon="6.8471">
        <ele>1065.4000244141</ele>
        <time>2017-07-22T07:31:12Z</time>
      </trkpt>
      <trkpt lat="47.80343" lon="6.84704">
        <ele>1066.4000244141</ele>
        <time>2017-07-22T07:31:16Z</time>
      </trkpt>
      <trkpt lat="47.80345" lon="6.84703">
        <ele>1066.5999755859</ele>
        <time>2017-07-22T07:31:17Z</time>
      </trkpt>
      <trkpt lat="47.80358" lon="6.84698">
        <ele>1067.4000244141</ele>
        <time>2017-07-22T07:31:23Z</time>
      </trkpt>
      <trkpt lat="47.80363" lon="6.84697">
        <ele>1067.5999755859</ele>
        <time>2017-07-22T07:31:25Z</time>
      </trkpt>
      <trkpt lat="47.80375" lon="6.84696">
        <ele>1068.4000244141</ele>
        <time>2017-07-22T07:31:30Z</time>
      </trkpt>
      <trkpt lat="47.8038" lon="6.84696">
        <ele>1068.5999755859</ele>
        <time>2017-07-22T07:31:32Z</time>
      </trkpt>
      <trkpt lat="47.80392" lon="6.84697">
        <ele>1069.4000244141</ele>
        <time>2017-07-22T07:31:37Z</time>
      </trkpt>
      <trkpt lat="47.80399" lon="6.84701">
        <ele>1069.8000488281</ele>
        <time>2017-07-22T07:31:40Z</time>
      </trkpt>
      <trkpt lat="47.80407" lon="6.84705">
        <ele>1070.1999511719</ele>
        <time>2017-07-22T07:31:43Z</time>
      </trkpt>
      <trkpt lat="47.80421" lon="6.84716">
        <ele>1070.8000488281</ele>
        <time>2017-07-22T07:31:49Z</time>
      </trkpt>
      <trkpt lat="47.80438" lon="6.84728">
        <ele>1071.8000488281</ele>
        <time>2017-07-22T07:31:56Z</time>
      </trkpt>
      <trkpt lat="47.8044" lon="6.8473">
        <ele>1072</ele>
        <time>2017-07-22T07:31:57Z</time>
      </trkpt>
      <trkpt lat="47.80453" lon="6.8474">
        <ele>1073</ele>
        <time>2017-07-22T07:32:03Z</time>
      </trkpt>
      <trkpt lat="47.80455" lon="6.84742">
        <ele>1073</ele>
        <time>2017-07-22T07:32:04Z</time>
      </trkpt>
      <trkpt lat="47.80466" lon="6.84749">
        <ele>1074</ele>
        <time>2017-07-22T07:32:09Z</time>
      </trkpt>
      <trkpt lat="47.80474" lon="6.84755">
        <ele>1074.5999755859</ele>
        <time>2017-07-22T07:32:13Z</time>
      </trkpt>
      <trkpt lat="47.80478" lon="6.84759">
        <ele>1075</ele>
        <time>2017-07-22T07:32:15Z</time>
      </trkpt>
      <trkpt lat="47.80489" lon="6.84766">
        <ele>1076</ele>
        <time>2017-07-22T07:32:20Z</time>
      </trkpt>
      <trkpt lat="47.80493" lon="6.84769">
        <ele>1076.4000244141</ele>
        <time>2017-07-22T07:32:22Z</time>
      </trkpt>
      <trkpt lat="47.80499" lon="6.84774">
        <ele>1077.1999511719</ele>
        <time>2017-07-22T07:32:25Z</time>
      </trkpt>
      <trkpt lat="47.8051" lon="6.84782">
        <ele>1078</ele>
        <time>2017-07-22T07:32:30Z</time>
      </trkpt>
      <trkpt lat="47.80512" lon="6.84783">
        <ele>1078.1999511719</ele>
        <time>2017-07-22T07:32:31Z</time>
      </trkpt>
      <trkpt lat="47.80524" lon="6.8479">
        <ele>1079.1999511719</ele>
        <time>2017-07-22T07:32:36Z</time>
      </trkpt>
      <trkpt lat="47.80527" lon="6.84792">
        <ele>1079.4000244141</ele>
        <time>2017-07-22T07:32:37Z</time>
      </trkpt>
      <trkpt lat="47.80543" lon="6.848">
        <ele>1080.4000244141</ele>
        <time>2017-07-22T07:32:43Z</time>
      </trkpt>
      <trkpt lat="47.80546" lon="6.84801">
        <ele>1080.4000244141</ele>
        <time>2017-07-22T07:32:44Z</time>
      </trkpt>
      <trkpt lat="47.80556" lon="6.84806">
        <ele>1080.8000488281</ele>
        <time>2017-07-22T07:32:48Z</time>
      </trkpt>
      <trkpt lat="47.80571" lon="6.84808">
        <ele>1081.4000244141</ele>
        <time>2017-07-22T07:32:53Z</time>
      </trkpt>
      <trkpt lat="47.80588" lon="6.84815">
        <ele>1081.8000488281</ele>
        <time>2017-07-22T07:32:59Z</time>
      </trkpt>
      <trkpt lat="47.80608" lon="6.84824">
        <ele>1081.8000488281</ele>
        <time>2017-07-22T07:33:05Z</time>
      </trkpt>
      <trkpt lat="47.80637" lon="6.84831">
        <ele>1081.4000244141</ele>
        <time>2017-07-22T07:33:11Z</time>
      </trkpt>
      <trkpt lat="47.80672" lon="6.84836">
        <ele>1080.4000244141</ele>
        <time>2017-07-22T07:33:16Z</time>
      </trkpt>
      <trkpt lat="47.80696" lon="6.84838">
        <ele>1079.4000244141</ele>
        <time>2017-07-22T07:33:19Z</time>
      </trkpt>
      <trkpt lat="47.80719" lon="6.84838">
        <ele>1078.4000244141</ele>
        <time>2017-07-22T07:33:22Z</time>
      </trkpt>
      <trkpt lat="47.80727" lon="6.84838">
        <ele>1078</ele>
        <time>2017-07-22T07:33:23Z</time>
      </trkpt>
      <trkpt lat="47.80772" lon="6.84831">
        <ele>1077</ele>
        <time>2017-07-22T07:33:30Z</time>
      </trkpt>
      <trkpt lat="47.80826" lon="6.84818">
        <ele>1076.4000244141</ele>
        <time>2017-07-22T07:33:38Z</time>
      </trkpt>
      <trkpt lat="47.80859" lon="6.8481">
        <ele>1076.5999755859</ele>
        <time>2017-07-22T07:33:44Z</time>
      </trkpt>
      <trkpt lat="47.80892" lon="6.84804">
        <ele>1077.8000488281</ele>
        <time>2017-07-22T07:33:51Z</time>
      </trkpt>
      <trkpt lat="47.80896" lon="6.84802">
        <ele>1078.1999511719</ele>
        <time>2017-07-22T07:33:52Z</time>
      </trkpt>
      <trkpt lat="47.80909" lon="6.848">
        <ele>1079.1999511719</ele>
        <time>2017-07-22T07:33:55Z</time>
      </trkpt>
      <trkpt lat="47.80916" lon="6.84797">
        <ele>1080.1999511719</ele>
        <time>2017-07-22T07:33:57Z</time>
      </trkpt>
      <trkpt lat="47.8092" lon="6.84794">
        <ele>1080.5999755859</ele>
        <time>2017-07-22T07:33:58Z</time>
      </trkpt>
      <trkpt lat="47.80933" lon="6.84789">
        <ele>1081.4000244141</ele>
        <time>2017-07-22T07:34:01Z</time>
      </trkpt>
      <trkpt lat="47.80937" lon="6.84787">
        <ele>1081.5999755859</ele>
        <time>2017-07-22T07:34:02Z</time>
      </trkpt>
      <trkpt lat="47.80945" lon="6.8478">
        <ele>1082</ele>
        <time>2017-07-22T07:34:04Z</time>
      </trkpt>
      <trkpt lat="47.80954" lon="6.84772">
        <ele>1082.4000244141</ele>
        <time>2017-07-22T07:34:06Z</time>
      </trkpt>
      <trkpt lat="47.80973" lon="6.84752">
        <ele>1082.5999755859</ele>
        <time>2017-07-22T07:34:10Z</time>
      </trkpt>
      <trkpt lat="47.80998" lon="6.84715">
        <ele>1081.8000488281</ele>
        <time>2017-07-22T07:34:15Z</time>
      </trkpt>
      <trkpt lat="47.81008" lon="6.84702">
        <ele>1081.1999511719</ele>
        <time>2017-07-22T07:34:17Z</time>
      </trkpt>
      <trkpt lat="47.81018" lon="6.84681">
        <ele>1080</ele>
        <time>2017-07-22T07:34:20Z</time>
      </trkpt>
      <trkpt lat="47.81015" lon="6.84655">
        <ele>1078.8000488281</ele>
        <time>2017-07-22T07:34:23Z</time>
      </trkpt>
      <trkpt lat="47.81015" lon="6.84644">
        <ele>1078.8000488281</ele>
        <time>2017-07-22T07:34:24Z</time>
      </trkpt>
      <trkpt lat="47.81018" lon="6.84624">
        <ele>1078.4000244141</ele>
        <time>2017-07-22T07:34:26Z</time>
      </trkpt>
      <trkpt lat="47.81023" lon="6.84598">
        <ele>1077.8000488281</ele>
        <time>2017-07-22T07:34:29Z</time>
      </trkpt>
      <trkpt lat="47.81026" lon="6.84576">
        <ele>1078</ele>
        <time>2017-07-22T07:34:32Z</time>
      </trkpt>
      <trkpt lat="47.81028" lon="6.8455">
        <ele>1078.8000488281</ele>
        <time>2017-07-22T07:34:36Z</time>
      </trkpt>
      <trkpt lat="47.81029" lon="6.84532">
        <ele>1079.5999755859</ele>
        <time>2017-07-22T07:34:39Z</time>
      </trkpt>
      <trkpt lat="47.81029" lon="6.84522">
        <ele>1079.8000488281</ele>
        <time>2017-07-22T07:34:41Z</time>
      </trkpt>
      <trkpt lat="47.81032" lon="6.84503">
        <ele>1081</ele>
        <time>2017-07-22T07:34:45Z</time>
      </trkpt>
      <trkpt lat="47.81031" lon="6.84475">
        <ele>1081.8000488281</ele>
        <time>2017-07-22T07:34:51Z</time>
      </trkpt>
      <trkpt lat="47.81031" lon="6.84466">
        <ele>1082</ele>
        <time>2017-07-22T07:34:53Z</time>
      </trkpt>
      <trkpt lat="47.81033" lon="6.84454">
        <ele>1082.5999755859</ele>
        <time>2017-07-22T07:34:56Z</time>
      </trkpt>
      <trkpt lat="47.81033" lon="6.8444">
        <ele>1083.1999511719</ele>
        <time>2017-07-22T07:34:59Z</time>
      </trkpt>
      <trkpt lat="47.81034" lon="6.84423">
        <ele>1084.1999511719</ele>
        <time>2017-07-22T07:35:03Z</time>
      </trkpt>
      <trkpt lat="47.81034" lon="6.84419">
        <ele>1084.4000244141</ele>
        <time>2017-07-22T07:35:04Z</time>
      </trkpt>
      <trkpt lat="47.81035" lon="6.84395">
        <ele>1085.4000244141</ele>
        <time>2017-07-22T07:35:10Z</time>
      </trkpt>
      <trkpt lat="47.81035" lon="6.84367">
        <ele>1086.4000244141</ele>
        <time>2017-07-22T07:35:17Z</time>
      </trkpt>
      <trkpt lat="47.81035" lon="6.84363">
        <ele>1086.5999755859</ele>
        <time>2017-07-22T07:35:18Z</time>
      </trkpt>
      <trkpt lat="47.81033" lon="6.84338">
        <ele>1087.1999511719</ele>
        <time>2017-07-22T07:35:24Z</time>
      </trkpt>
      <trkpt lat="47.81032" lon="6.84326">
        <ele>1087.5999755859</ele>
        <time>2017-07-22T07:35:27Z</time>
      </trkpt>
      <trkpt lat="47.8103" lon="6.84306">
        <ele>1088.1999511719</ele>
        <time>2017-07-22T07:35:32Z</time>
      </trkpt>
      <trkpt lat="47.81029" lon="6.84303">
        <ele>1088.8000488281</ele>
        <time>2017-07-22T07:35:33Z</time>
      </trkpt>
      <trkpt lat="47.81027" lon="6.84282">
        <ele>1089.5999755859</ele>
        <time>2017-07-22T07:35:38Z</time>
      </trkpt>
      <trkpt lat="47.81027" lon="6.84279">
        <ele>1089.8000488281</ele>
        <time>2017-07-22T07:35:39Z</time>
      </trkpt>
      <trkpt lat="47.81028" lon="6.84258">
        <ele>1090.4000244141</ele>
        <time>2017-07-22T07:35:44Z</time>
      </trkpt>
      <trkpt lat="47.8103" lon="6.84243">
        <ele>1090.8000488281</ele>
        <time>2017-07-22T07:35:48Z</time>
      </trkpt>
      <trkpt lat="47.81031" lon="6.84228">
        <ele>1091.5999755859</ele>
        <time>2017-07-22T07:35:52Z</time>
      </trkpt>
      <trkpt lat="47.81031" lon="6.84217">
        <ele>1092</ele>
        <time>2017-07-22T07:35:55Z</time>
      </trkpt>
      <trkpt lat="47.81029" lon="6.8421">
        <ele>1092.4000244141</ele>
        <time>2017-07-22T07:35:57Z</time>
      </trkpt>
      <trkpt lat="47.81027" lon="6.84207">
        <ele>1092.5999755859</ele>
        <time>2017-07-22T07:35:58Z</time>
      </trkpt>
      <trkpt lat="47.81019" lon="6.84196">
        <ele>1093.1999511719</ele>
        <time>2017-07-22T07:36:02Z</time>
      </trkpt>
      <trkpt lat="47.81011" lon="6.84189">
        <ele>1093.8000488281</ele>
        <time>2017-07-22T07:36:05Z</time>
      </trkpt>
      <trkpt lat="47.81002" lon="6.84184">
        <ele>1094.1999511719</ele>
        <time>2017-07-22T07:36:08Z</time>
      </trkpt>
      <trkpt lat="47.80989" lon="6.84177">
        <ele>1094.8000488281</ele>
        <time>2017-07-22T07:36:13Z</time>
      </trkpt>
      <trkpt lat="47.80979" lon="6.84165">
        <ele>1095.4000244141</ele>
        <time>2017-07-22T07:36:18Z</time>
      </trkpt>
      <trkpt lat="47.80976" lon="6.84159">
        <ele>1095.8000488281</ele>
        <time>2017-07-22T07:36:20Z</time>
      </trkpt>
      <trkpt lat="47.8097" lon="6.84147">
        <ele>1096.5999755859</ele>
        <time>2017-07-22T07:36:24Z</time>
      </trkpt>
      <trkpt lat="47.80964" lon="6.84133">
        <ele>1097.4000244141</ele>
        <time>2017-07-22T07:36:28Z</time>
      </trkpt>
      <trkpt lat="47.8096" lon="6.84122">
        <ele>1097.5999755859</ele>
        <time>2017-07-22T07:36:31Z</time>
      </trkpt>
      <trkpt lat="47.80957" lon="6.84106">
        <ele>1098.1999511719</ele>
        <time>2017-07-22T07:36:35Z</time>
      </trkpt>
      <trkpt lat="47.80955" lon="6.8409">
        <ele>1098.8000488281</ele>
        <time>2017-07-22T07:36:39Z</time>
      </trkpt>
      <trkpt lat="47.80953" lon="6.84078">
        <ele>1099.1999511719</ele>
        <time>2017-07-22T07:36:42Z</time>
      </trkpt>
      <trkpt lat="47.80953" lon="6.84066">
        <ele>1099.8000488281</ele>
        <time>2017-07-22T07:36:45Z</time>
      </trkpt>
      <trkpt lat="47.80951" lon="6.84046">
        <ele>1100.5999755859</ele>
        <time>2017-07-22T07:36:50Z</time>
      </trkpt>
      <trkpt lat="47.80952" lon="6.84037">
        <ele>1101</ele>
        <time>2017-07-22T07:36:52Z</time>
      </trkpt>
      <trkpt lat="47.80954" lon="6.84018">
        <ele>1101.8000488281</ele>
        <time>2017-07-22T07:36:57Z</time>
      </trkpt>
      <trkpt lat="47.80955" lon="6.8401">
        <ele>1102</ele>
        <time>2017-07-22T07:36:59Z</time>
      </trkpt>
      <trkpt lat="47.80961" lon="6.83989">
        <ele>1103</ele>
        <time>2017-07-22T07:37:05Z</time>
      </trkpt>
      <trkpt lat="47.80962" lon="6.83986">
        <ele>1103.1999511719</ele>
        <time>2017-07-22T07:37:06Z</time>
      </trkpt>
      <trkpt lat="47.80972" lon="6.83973">
        <ele>1104.1999511719</ele>
        <time>2017-07-22T07:37:11Z</time>
      </trkpt>
      <trkpt lat="47.80975" lon="6.83972">
        <ele>1104.4000244141</ele>
        <time>2017-07-22T07:37:12Z</time>
      </trkpt>
      <trkpt lat="47.80988" lon="6.83964">
        <ele>1105.1999511719</ele>
        <time>2017-07-22T07:37:17Z</time>
      </trkpt>
      <trkpt lat="47.80999" lon="6.83959">
        <ele>1105.8000488281</ele>
        <time>2017-07-22T07:37:21Z</time>
      </trkpt>
      <trkpt lat="47.81007" lon="6.83954">
        <ele>1106.1999511719</ele>
        <time>2017-07-22T07:37:24Z</time>
      </trkpt>
      <trkpt lat="47.81027" lon="6.83946">
        <ele>1107.4000244141</ele>
        <time>2017-07-22T07:37:31Z</time>
      </trkpt>
      <trkpt lat="47.81044" lon="6.8394">
        <ele>1108.4000244141</ele>
        <time>2017-07-22T07:37:37Z</time>
      </trkpt>
      <trkpt lat="47.81053" lon="6.83938">
        <ele>1109</ele>
        <time>2017-07-22T07:37:40Z</time>
      </trkpt>
      <trkpt lat="47.81062" lon="6.83935">
        <ele>1109.5999755859</ele>
        <time>2017-07-22T07:37:43Z</time>
      </trkpt>
      <trkpt lat="47.8107" lon="6.83937">
        <ele>1110.1999511719</ele>
        <time>2017-07-22T07:37:46Z</time>
      </trkpt>
      <trkpt lat="47.81079" lon="6.83937">
        <ele>1110.5999755859</ele>
        <time>2017-07-22T07:37:49Z</time>
      </trkpt>
      <trkpt lat="47.8109" lon="6.83938">
        <ele>1111.1999511719</ele>
        <time>2017-07-22T07:37:53Z</time>
      </trkpt>
      <trkpt lat="47.81101" lon="6.83938">
        <ele>1112</ele>
        <time>2017-07-22T07:37:57Z</time>
      </trkpt>
      <trkpt lat="47.81109" lon="6.8394">
        <ele>1112.4000244141</ele>
        <time>2017-07-22T07:38:00Z</time>
      </trkpt>
      <trkpt lat="47.81118" lon="6.83942">
        <ele>1113</ele>
        <time>2017-07-22T07:38:03Z</time>
      </trkpt>
      <trkpt lat="47.81128" lon="6.83945">
        <ele>1113.5999755859</ele>
        <time>2017-07-22T07:38:07Z</time>
      </trkpt>
      <trkpt lat="47.81139" lon="6.83951">
        <ele>1114</ele>
        <time>2017-07-22T07:38:11Z</time>
      </trkpt>
      <trkpt lat="47.81147" lon="6.83955">
        <ele>1114.4000244141</ele>
        <time>2017-07-22T07:38:14Z</time>
      </trkpt>
      <trkpt lat="47.81162" lon="6.83966">
        <ele>1115.1999511719</ele>
        <time>2017-07-22T07:38:20Z</time>
      </trkpt>
      <trkpt lat="47.81167" lon="6.83969">
        <ele>1115.5999755859</ele>
        <time>2017-07-22T07:38:22Z</time>
      </trkpt>
      <trkpt lat="47.81177" lon="6.83975">
        <ele>1116.1999511719</ele>
        <time>2017-07-22T07:38:26Z</time>
      </trkpt>
      <trkpt lat="47.81187" lon="6.83981">
        <ele>1117</ele>
        <time>2017-07-22T07:38:30Z</time>
      </trkpt>
      <trkpt lat="47.81194" lon="6.83988">
        <ele>1117.4000244141</ele>
        <time>2017-07-22T07:38:33Z</time>
      </trkpt>
      <trkpt lat="47.81209" lon="6.84">
        <ele>1118.4000244141</ele>
        <time>2017-07-22T07:38:39Z</time>
      </trkpt>
      <trkpt lat="47.81225" lon="6.84016">
        <ele>1119.5999755859</ele>
        <time>2017-07-22T07:38:45Z</time>
      </trkpt>
      <trkpt lat="47.81227" lon="6.84018">
        <ele>1119.5999755859</ele>
        <time>2017-07-22T07:38:46Z</time>
      </trkpt>
      <trkpt lat="47.81239" lon="6.84031">
        <ele>1120.5999755859</ele>
        <time>2017-07-22T07:38:51Z</time>
      </trkpt>
      <trkpt lat="47.81244" lon="6.84036">
        <ele>1121</ele>
        <time>2017-07-22T07:38:53Z</time>
      </trkpt>
      <trkpt lat="47.81254" lon="6.84046">
        <ele>1121.5999755859</ele>
        <time>2017-07-22T07:38:57Z</time>
      </trkpt>
      <trkpt lat="47.81264" lon="6.84056">
        <ele>1122.1999511719</ele>
        <time>2017-07-22T07:39:01Z</time>
      </trkpt>
      <trkpt lat="47.81278" lon="6.84068">
        <ele>1122.8000488281</ele>
        <time>2017-07-22T07:39:06Z</time>
      </trkpt>
      <trkpt lat="47.81286" lon="6.84074">
        <ele>1123.4000244141</ele>
        <time>2017-07-22T07:39:09Z</time>
      </trkpt>
      <trkpt lat="47.81294" lon="6.84081">
        <ele>1124</ele>
        <time>2017-07-22T07:39:12Z</time>
      </trkpt>
      <trkpt lat="47.81309" lon="6.84096">
        <ele>1124.8000488281</ele>
        <time>2017-07-22T07:39:18Z</time>
      </trkpt>
      <trkpt lat="47.81314" lon="6.84101">
        <ele>1125</ele>
        <time>2017-07-22T07:39:20Z</time>
      </trkpt>
      <trkpt lat="47.81337" lon="6.84121">
        <ele>1126</ele>
        <time>2017-07-22T07:39:28Z</time>
      </trkpt>
      <trkpt lat="47.8134" lon="6.84124">
        <ele>1126</ele>
        <time>2017-07-22T07:39:29Z</time>
      </trkpt>
      <trkpt lat="47.81362" lon="6.84143">
        <ele>1126.8000488281</ele>
        <time>2017-07-22T07:39:36Z</time>
      </trkpt>
      <trkpt lat="47.81382" lon="6.84165">
        <ele>1127</ele>
        <time>2017-07-22T07:39:43Z</time>
      </trkpt>
      <trkpt lat="47.81405" lon="6.84191">
        <ele>1127.4000244141</ele>
        <time>2017-07-22T07:39:51Z</time>
      </trkpt>
      <trkpt lat="47.81434" lon="6.84221">
        <ele>1127.8000488281</ele>
        <time>2017-07-22T07:40:00Z</time>
      </trkpt>
      <trkpt lat="47.81462" lon="6.84238">
        <ele>1128</ele>
        <time>2017-07-22T07:40:08Z</time>
      </trkpt>
      <trkpt lat="47.81466" lon="6.84239">
        <ele>1128</ele>
        <time>2017-07-22T07:40:09Z</time>
      </trkpt>
      <trkpt lat="47.8149" lon="6.84243">
        <ele>1128.1999511719</ele>
        <time>2017-07-22T07:40:15Z</time>
      </trkpt>
      <trkpt lat="47.81494" lon="6.84243">
        <ele>1128.1999511719</ele>
        <time>2017-07-22T07:40:16Z</time>
      </trkpt>
      <trkpt lat="47.81518" lon="6.84243">
        <ele>1129</ele>
        <time>2017-07-22T07:40:23Z</time>
      </trkpt>
      <trkpt lat="47.81523" lon="6.84243">
        <ele>1129</ele>
        <time>2017-07-22T07:40:25Z</time>
      </trkpt>
      <trkpt lat="47.81527" lon="6.8424">
        <ele>1128.8000488281</ele>
        <time>2017-07-22T07:40:57Z</time>
      </trkpt>
      <trkpt lat="47.81531" lon="6.8424">
        <ele>1128.8000488281</ele>
        <time>2017-07-22T07:40:59Z</time>
      </trkpt>
      <trkpt lat="47.81551" lon="6.84239">
        <ele>1129.1999511719</ele>
        <time>2017-07-22T07:41:05Z</time>
      </trkpt>
      <trkpt lat="47.81582" lon="6.84237">
        <ele>1130.1999511719</ele>
        <time>2017-07-22T07:41:13Z</time>
      </trkpt>
      <trkpt lat="47.81589" lon="6.84236">
        <ele>1130.1999511719</ele>
        <time>2017-07-22T07:41:15Z</time>
      </trkpt>
      <trkpt lat="47.8162" lon="6.84233">
        <ele>1131.1999511719</ele>
        <time>2017-07-22T07:41:23Z</time>
      </trkpt>
      <trkpt lat="47.81632" lon="6.84233">
        <ele>1131.5999755859</ele>
        <time>2017-07-22T07:41:26Z</time>
      </trkpt>
      <trkpt lat="47.81647" lon="6.8423">
        <ele>1132.1999511719</ele>
        <time>2017-07-22T07:41:30Z</time>
      </trkpt>
      <trkpt lat="47.81661" lon="6.84229">
        <ele>1133.1999511719</ele>
        <time>2017-07-22T07:41:34Z</time>
      </trkpt>
      <trkpt lat="47.81667" lon="6.84228">
        <ele>1133.4000244141</ele>
        <time>2017-07-22T07:41:36Z</time>
      </trkpt>
      <trkpt lat="47.81684" lon="6.84224">
        <ele>1134.4000244141</ele>
        <time>2017-07-22T07:41:42Z</time>
      </trkpt>
      <trkpt lat="47.81687" lon="6.84224">
        <ele>1134.5999755859</ele>
        <time>2017-07-22T07:41:43Z</time>
      </trkpt>
      <trkpt lat="47.81703" lon="6.84219">
        <ele>1135.8000488281</ele>
        <time>2017-07-22T07:41:49Z</time>
      </trkpt>
      <trkpt lat="47.81706" lon="6.84218">
        <ele>1136</ele>
        <time>2017-07-22T07:41:50Z</time>
      </trkpt>
      <trkpt lat="47.81715" lon="6.84215">
        <ele>1136.8000488281</ele>
        <time>2017-07-22T07:41:54Z</time>
      </trkpt>
      <trkpt lat="47.81725" lon="6.84212">
        <ele>1138</ele>
        <time>2017-07-22T07:41:58Z</time>
      </trkpt>
      <trkpt lat="47.81737" lon="6.84208">
        <ele>1139</ele>
        <time>2017-07-22T07:42:03Z</time>
      </trkpt>
      <trkpt lat="47.81743" lon="6.84203">
        <ele>1139.5999755859</ele>
        <time>2017-07-22T07:42:06Z</time>
      </trkpt>
      <trkpt lat="47.81748" lon="6.84202">
        <ele>1140</ele>
        <time>2017-07-22T07:42:08Z</time>
      </trkpt>
      <trkpt lat="47.81759" lon="6.84197">
        <ele>1141.4000244141</ele>
        <time>2017-07-22T07:42:13Z</time>
      </trkpt>
      <trkpt lat="47.8177" lon="6.84191">
        <ele>1142.4000244141</ele>
        <time>2017-07-22T07:42:18Z</time>
      </trkpt>
      <trkpt lat="47.81777" lon="6.84189">
        <ele>1143.4000244141</ele>
        <time>2017-07-22T07:42:21Z</time>
      </trkpt>
      <trkpt lat="47.81789" lon="6.84181">
        <ele>1144.5999755859</ele>
        <time>2017-07-22T07:42:27Z</time>
      </trkpt>
      <trkpt lat="47.81794" lon="6.84179">
        <ele>1144.8000488281</ele>
        <time>2017-07-22T07:42:29Z</time>
      </trkpt>
      <trkpt lat="47.81805" lon="6.84173">
        <ele>1145.5999755859</ele>
        <time>2017-07-22T07:42:34Z</time>
      </trkpt>
      <trkpt lat="47.81814" lon="6.84167">
        <ele>1145.8000488281</ele>
        <time>2017-07-22T07:42:38Z</time>
      </trkpt>
      <trkpt lat="47.81828" lon="6.84158">
        <ele>1146.8000488281</ele>
        <time>2017-07-22T07:42:45Z</time>
      </trkpt>
      <trkpt lat="47.81832" lon="6.84155">
        <ele>1147.1999511719</ele>
        <time>2017-07-22T07:42:47Z</time>
      </trkpt>
      <trkpt lat="47.81838" lon="6.84152">
        <ele>1147.8000488281</ele>
        <time>2017-07-22T07:42:50Z</time>
      </trkpt>
      <trkpt lat="47.81851" lon="6.84144">
        <ele>1148.5999755859</ele>
        <time>2017-07-22T07:42:56Z</time>
      </trkpt>
      <trkpt lat="47.81855" lon="6.84141">
        <ele>1149</ele>
        <time>2017-07-22T07:42:58Z</time>
      </trkpt>
      <trkpt lat="47.81864" lon="6.84133">
        <ele>1150</ele>
        <time>2017-07-22T07:43:03Z</time>
      </trkpt>
      <trkpt lat="47.81868" lon="6.84131">
        <ele>1150.1999511719</ele>
        <time>2017-07-22T07:43:05Z</time>
      </trkpt>
      <trkpt lat="47.81876" lon="6.84126">
        <ele>1151</ele>
        <time>2017-07-22T07:43:09Z</time>
      </trkpt>
      <trkpt lat="47.81886" lon="6.84118">
        <ele>1151.8000488281</ele>
        <time>2017-07-22T07:43:14Z</time>
      </trkpt>
      <trkpt lat="47.81888" lon="6.84116">
        <ele>1152.1999511719</ele>
        <time>2017-07-22T07:43:15Z</time>
      </trkpt>
      <trkpt lat="47.81895" lon="6.8411">
        <ele>1153.1999511719</ele>
        <time>2017-07-22T07:43:19Z</time>
      </trkpt>
      <trkpt lat="47.81907" lon="6.841">
        <ele>1154.1999511719</ele>
        <time>2017-07-22T07:43:25Z</time>
      </trkpt>
      <trkpt lat="47.81908" lon="6.84098">
        <ele>1154.4000244141</ele>
        <time>2017-07-22T07:43:26Z</time>
      </trkpt>
      <trkpt lat="47.81918" lon="6.84091">
        <ele>1155.1999511719</ele>
        <time>2017-07-22T07:43:31Z</time>
      </trkpt>
      <trkpt lat="47.8192" lon="6.8409">
        <ele>1155.4000244141</ele>
        <time>2017-07-22T07:43:32Z</time>
      </trkpt>
      <trkpt lat="47.81934" lon="6.84076">
        <ele>1156.5999755859</ele>
        <time>2017-07-22T07:43:39Z</time>
      </trkpt>
      <trkpt lat="47.81937" lon="6.84074">
        <ele>1157</ele>
        <time>2017-07-22T07:43:40Z</time>
      </trkpt>
      <trkpt lat="47.81957" lon="6.84058">
        <ele>1157.5999755859</ele>
        <time>2017-07-22T07:43:48Z</time>
      </trkpt>
      <trkpt lat="47.81976" lon="6.84045">
        <ele>1158.1999511719</ele>
        <time>2017-07-22T07:43:55Z</time>
      </trkpt>
      <trkpt lat="47.81986" lon="6.84035">
        <ele>1158.8000488281</ele>
        <time>2017-07-22T07:43:59Z</time>
      </trkpt>
      <trkpt lat="47.81997" lon="6.84026">
        <ele>1159</ele>
        <time>2017-07-22T07:44:03Z</time>
      </trkpt>
      <trkpt lat="47.82016" lon="6.84005">
        <ele>1159.8000488281</ele>
        <time>2017-07-22T07:44:10Z</time>
      </trkpt>
      <trkpt lat="47.82018" lon="6.84002">
        <ele>1160</ele>
        <time>2017-07-22T07:44:11Z</time>
      </trkpt>
      <trkpt lat="47.82036" lon="6.83975">
        <ele>1160.5999755859</ele>
        <time>2017-07-22T07:44:18Z</time>
      </trkpt>
      <trkpt lat="47.82058" lon="6.83928">
        <ele>1160.8000488281</ele>
        <time>2017-07-22T07:44:27Z</time>
      </trkpt>
      <trkpt lat="47.8206" lon="6.83922">
        <ele>1160.8000488281</ele>
        <time>2017-07-22T07:44:28Z</time>
      </trkpt>
      <trkpt lat="47.82071" lon="6.83887">
        <ele>1161.1999511719</ele>
        <time>2017-07-22T07:44:34Z</time>
      </trkpt>
      <trkpt lat="47.8208" lon="6.83838">
        <ele>1161.5999755859</ele>
        <time>2017-07-22T07:44:42Z</time>
      </trkpt>
      <trkpt lat="47.82081" lon="6.83831">
        <ele>1161.5999755859</ele>
        <time>2017-07-22T07:44:43Z</time>
      </trkpt>
      <trkpt lat="47.82081" lon="6.83825">
        <ele>1161.5999755859</ele>
        <time>2017-07-22T07:44:44Z</time>
      </trkpt>
      <trkpt lat="47.82082" lon="6.83819">
        <ele>1161.8000488281</ele>
        <time>2017-07-22T07:44:45Z</time>
      </trkpt>
      <trkpt lat="47.82084" lon="6.83797">
        <ele>1162.4000244141</ele>
        <time>2017-07-22T07:44:49Z</time>
      </trkpt>
      <trkpt lat="47.82089" lon="6.83733">
        <ele>1162.4000244141</ele>
        <time>2017-07-22T07:45:00Z</time>
      </trkpt>
      <trkpt lat="47.8209" lon="6.83709">
        <ele>1162.5999755859</ele>
        <time>2017-07-22T07:45:05Z</time>
      </trkpt>
      <trkpt lat="47.82088" lon="6.83681">
        <ele>1162.5999755859</ele>
        <time>2017-07-22T07:45:10Z</time>
      </trkpt>
      <trkpt lat="47.82087" lon="6.83668">
        <ele>1162.5999755859</ele>
        <time>2017-07-22T07:45:12Z</time>
      </trkpt>
      <trkpt lat="47.82082" lon="6.83652">
        <ele>1162.4000244141</ele>
        <time>2017-07-22T07:45:15Z</time>
      </trkpt>
      <trkpt lat="47.82075" lon="6.83619">
        <ele>1161.8000488281</ele>
        <time>2017-07-22T07:45:21Z</time>
      </trkpt>
      <trkpt lat="47.82073" lon="6.83612">
        <ele>1161.5999755859</ele>
        <time>2017-07-22T07:45:22Z</time>
      </trkpt>
      <trkpt lat="47.8206" lon="6.83567">
        <ele>1161.1999511719</ele>
        <time>2017-07-22T07:45:29Z</time>
      </trkpt>
      <trkpt lat="47.82054" lon="6.83549">
        <ele>1161.1999511719</ele>
        <time>2017-07-22T07:45:32Z</time>
      </trkpt>
      <trkpt lat="47.82047" lon="6.83532">
        <ele>1161.1999511719</ele>
        <time>2017-07-22T07:45:35Z</time>
      </trkpt>
      <trkpt lat="47.82037" lon="6.83493">
        <ele>1161.5999755859</ele>
        <time>2017-07-22T07:45:43Z</time>
      </trkpt>
      <trkpt lat="47.82042" lon="6.83482">
        <ele>1161.5999755859</ele>
        <time>2017-07-22T07:45:46Z</time>
      </trkpt>
      <trkpt lat="47.82044" lon="6.83481">
        <ele>1161.5999755859</ele>
        <time>2017-07-22T07:45:47Z</time>
      </trkpt>
      <trkpt lat="47.82062" lon="6.83466">
        <ele>1161.4000244141</ele>
        <time>2017-07-22T07:45:55Z</time>
      </trkpt>
      <trkpt lat="47.82074" lon="6.83459">
        <ele>1161.8000488281</ele>
        <time>2017-07-22T07:46:02Z</time>
      </trkpt>
      <trkpt lat="47.82078" lon="6.83453">
        <ele>1161.8000488281</ele>
        <time>2017-07-22T07:46:05Z</time>
      </trkpt>
      <trkpt lat="47.82077" lon="6.83448">
        <ele>1161.8000488281</ele>
        <time>2017-07-22T07:46:07Z</time>
      </trkpt>
      <trkpt lat="47.82074" lon="6.83443">
        <ele>1161.5999755859</ele>
        <time>2017-07-22T07:48:00Z</time>
      </trkpt>
      <trkpt lat="47.82072" lon="6.83444">
        <ele>1161.5999755859</ele>
        <time>2017-07-22T07:48:01Z</time>
      </trkpt>
      <trkpt lat="47.8207" lon="6.8345">
        <ele>1161.5999755859</ele>
        <time>2017-07-22T07:48:03Z</time>
      </trkpt>
      <trkpt lat="47.82063" lon="6.83461">
        <ele>1161.8000488281</ele>
        <time>2017-07-22T07:48:08Z</time>
      </trkpt>
      <trkpt lat="47.8206" lon="6.83462">
        <ele>1161.8000488281</ele>
        <time>2017-07-22T07:48:09Z</time>
      </trkpt>
      <trkpt lat="47.82048" lon="6.83472">
        <ele>1162</ele>
        <time>2017-07-22T07:48:14Z</time>
      </trkpt>
      <trkpt lat="47.82033" lon="6.83489">
        <ele>1162</ele>
        <time>2017-07-22T07:48:21Z</time>
      </trkpt>
      <trkpt lat="47.82032" lon="6.83491">
        <ele>1161.8000488281</ele>
        <time>2017-07-22T07:48:22Z</time>
      </trkpt>
      <trkpt lat="47.82036" lon="6.83497">
        <ele>1161.5999755859</ele>
        <time>2017-07-22T07:52:43Z</time>
      </trkpt>
      <trkpt lat="47.82039" lon="6.83492">
        <ele>1161.5999755859</ele>
        <time>2017-07-22T07:52:45Z</time>
      </trkpt>
      <trkpt lat="47.82045" lon="6.83493">
        <ele>1161.5999755859</ele>
        <time>2017-07-22T07:52:48Z</time>
      </trkpt>
      <trkpt lat="47.82047" lon="6.83494">
        <ele>1161.5999755859</ele>
        <time>2017-07-22T07:52:49Z</time>
      </trkpt>
      <trkpt lat="47.8206" lon="6.83503">
        <ele>1161.8000488281</ele>
        <time>2017-07-22T07:52:56Z</time>
      </trkpt>
      <trkpt lat="47.82074" lon="6.83509">
        <ele>1162.8000488281</ele>
        <time>2017-07-22T07:53:03Z</time>
      </trkpt>
      <trkpt lat="47.82075" lon="6.83509">
        <ele>1163</ele>
        <time>2017-07-22T07:53:04Z</time>
      </trkpt>
      <trkpt lat="47.82087" lon="6.83514">
        <ele>1163.8000488281</ele>
        <time>2017-07-22T07:53:11Z</time>
      </trkpt>
      <trkpt lat="47.82089" lon="6.83515">
        <ele>1164</ele>
        <time>2017-07-22T07:53:12Z</time>
      </trkpt>
      <trkpt lat="47.82101" lon="6.83519">
        <ele>1164.5999755859</ele>
        <time>2017-07-22T07:53:19Z</time>
      </trkpt>
      <trkpt lat="47.8211" lon="6.83525">
        <ele>1165</ele>
        <time>2017-07-22T07:53:24Z</time>
      </trkpt>
      <trkpt lat="47.82111" lon="6.83527">
        <ele>1165</ele>
        <time>2017-07-22T07:53:25Z</time>
      </trkpt>
      <trkpt lat="47.82123" lon="6.83533">
        <ele>1165.5999755859</ele>
        <time>2017-07-22T07:53:32Z</time>
      </trkpt>
      <trkpt lat="47.82133" lon="6.8354">
        <ele>1166</ele>
        <time>2017-07-22T07:53:38Z</time>
      </trkpt>
      <trkpt lat="47.8214" lon="6.83543">
        <ele>1166.4000244141</ele>
        <time>2017-07-22T07:53:42Z</time>
      </trkpt>
      <trkpt lat="47.82149" lon="6.83551">
        <ele>1167.1999511719</ele>
        <time>2017-07-22T07:53:49Z</time>
      </trkpt>
      <trkpt lat="47.8216" lon="6.83563">
        <ele>1167.8000488281</ele>
        <time>2017-07-22T07:53:57Z</time>
      </trkpt>
      <trkpt lat="47.82162" lon="6.83566">
        <ele>1168.1999511719</ele>
        <time>2017-07-22T07:53:59Z</time>
      </trkpt>
      <trkpt lat="47.82168" lon="6.83577">
        <ele>1169</ele>
        <time>2017-07-22T07:54:05Z</time>
      </trkpt>
      <trkpt lat="47.8217" lon="6.8358">
        <ele>1169.4000244141</ele>
        <time>2017-07-22T07:54:07Z</time>
      </trkpt>
      <trkpt lat="47.82178" lon="6.83591">
        <ele>1170.4000244141</ele>
        <time>2017-07-22T07:54:14Z</time>
      </trkpt>
      <trkpt lat="47.82187" lon="6.83604">
        <ele>1171.5999755859</ele>
        <time>2017-07-22T07:54:22Z</time>
      </trkpt>
      <trkpt lat="47.82192" lon="6.83614">
        <ele>1172.8000488281</ele>
        <time>2017-07-22T07:54:28Z</time>
      </trkpt>
      <trkpt lat="47.82196" lon="6.83626">
        <ele>1173.8000488281</ele>
        <time>2017-07-22T07:54:35Z</time>
      </trkpt>
      <trkpt lat="47.82201" lon="6.83641">
        <ele>1174.8000488281</ele>
        <time>2017-07-22T07:54:42Z</time>
      </trkpt>
      <trkpt lat="47.82207" lon="6.83652">
        <ele>1176</ele>
        <time>2017-07-22T07:54:49Z</time>
      </trkpt>
      <trkpt lat="47.82208" lon="6.83653">
        <ele>1176.1999511719</ele>
        <time>2017-07-22T07:54:50Z</time>
      </trkpt>
      <trkpt lat="47.82214" lon="6.83662">
        <ele>1177.1999511719</ele>
        <time>2017-07-22T07:54:56Z</time>
      </trkpt>
      <trkpt lat="47.82216" lon="6.83667">
        <ele>1177.8000488281</ele>
        <time>2017-07-22T07:54:59Z</time>
      </trkpt>
      <trkpt lat="47.82218" lon="6.8367">
        <ele>1178.4000244141</ele>
        <time>2017-07-22T07:55:01Z</time>
      </trkpt>
      <trkpt lat="47.82224" lon="6.83678">
        <ele>1179.4000244141</ele>
        <time>2017-07-22T07:55:07Z</time>
      </trkpt>
      <trkpt lat="47.82228" lon="6.83685">
        <ele>1180.5999755859</ele>
        <time>2017-07-22T07:55:12Z</time>
      </trkpt>
      <trkpt lat="47.82229" lon="6.83687">
        <ele>1180.8000488281</ele>
        <time>2017-07-22T07:55:13Z</time>
      </trkpt>
      <trkpt lat="47.82234" lon="6.83694">
        <ele>1181.5999755859</ele>
        <time>2017-07-22T07:55:18Z</time>
      </trkpt>
      <trkpt lat="47.82237" lon="6.83697">
        <ele>1182.1999511719</ele>
        <time>2017-07-22T07:55:21Z</time>
      </trkpt>
      <trkpt lat="47.82239" lon="6.83702">
        <ele>1182.8000488281</ele>
        <time>2017-07-22T07:55:24Z</time>
      </trkpt>
      <trkpt lat="47.82245" lon="6.83709">
        <ele>1183.8000488281</ele>
        <time>2017-07-22T07:55:30Z</time>
      </trkpt>
      <trkpt lat="47.82246" lon="6.8371">
        <ele>1184</ele>
        <time>2017-07-22T07:55:31Z</time>
      </trkpt>
      <trkpt lat="47.82252" lon="6.83714">
        <ele>1185</ele>
        <time>2017-07-22T07:55:36Z</time>
      </trkpt>
      <trkpt lat="47.82252" lon="6.83716">
        <ele>1185.1999511719</ele>
        <time>2017-07-22T07:55:37Z</time>
      </trkpt>
      <trkpt lat="47.82254" lon="6.83717">
        <ele>1185.4000244141</ele>
        <time>2017-07-22T07:55:38Z</time>
      </trkpt>
      <trkpt lat="47.82257" lon="6.83721">
        <ele>1186</ele>
        <time>2017-07-22T07:55:41Z</time>
      </trkpt>
      <trkpt lat="47.82261" lon="6.83727">
        <ele>1186.8000488281</ele>
        <time>2017-07-22T07:55:46Z</time>
      </trkpt>
      <trkpt lat="47.82264" lon="6.83733">
        <ele>1187.1999511719</ele>
        <time>2017-07-22T07:55:49Z</time>
      </trkpt>
      <trkpt lat="47.82267" lon="6.83736">
        <ele>1187.5999755859</ele>
        <time>2017-07-22T07:55:52Z</time>
      </trkpt>
      <trkpt lat="47.82268" lon="6.83737">
        <ele>1187.8000488281</ele>
        <time>2017-07-22T07:55:53Z</time>
      </trkpt>
      <trkpt lat="47.8227" lon="6.83741">
        <ele>1188.1999511719</ele>
        <time>2017-07-22T07:55:56Z</time>
      </trkpt>
      <trkpt lat="47.82273" lon="6.83746">
        <ele>1189</ele>
        <time>2017-07-22T07:55:59Z</time>
      </trkpt>
      <trkpt lat="47.82273" lon="6.8375">
        <ele>1189.4000244141</ele>
        <time>2017-07-22T07:56:01Z</time>
      </trkpt>
      <trkpt lat="47.82274" lon="6.83752">
        <ele>1189.5999755859</ele>
        <time>2017-07-22T07:56:02Z</time>
      </trkpt>
      <trkpt lat="47.82277" lon="6.83756">
        <ele>1190</ele>
        <time>2017-07-22T07:56:05Z</time>
      </trkpt>
      <trkpt lat="47.8228" lon="6.83759">
        <ele>1190.5999755859</ele>
        <time>2017-07-22T07:56:08Z</time>
      </trkpt>
      <trkpt lat="47.82282" lon="6.83764">
        <ele>1191.1999511719</ele>
        <time>2017-07-22T07:56:11Z</time>
      </trkpt>
      <trkpt lat="47.82284" lon="6.83767">
        <ele>1191.5999755859</ele>
        <time>2017-07-22T07:56:13Z</time>
      </trkpt>
      <trkpt lat="47.82285" lon="6.83769">
        <ele>1191.8000488281</ele>
        <time>2017-07-22T07:56:14Z</time>
      </trkpt>
      <trkpt lat="47.8229" lon="6.83776">
        <ele>1193</ele>
        <time>2017-07-22T07:56:20Z</time>
      </trkpt>
      <trkpt lat="47.82291" lon="6.83777">
        <ele>1193.1999511719</ele>
        <time>2017-07-22T07:56:21Z</time>
      </trkpt>
      <trkpt lat="47.82293" lon="6.83781">
        <ele>1194.1999511719</ele>
        <time>2017-07-22T07:56:24Z</time>
      </trkpt>
      <trkpt lat="47.82299" lon="6.83789">
        <ele>1195</ele>
        <time>2017-07-22T07:56:30Z</time>
      </trkpt>
      <trkpt lat="47.823" lon="6.8379">
        <ele>1195.1999511719</ele>
        <time>2017-07-22T07:56:31Z</time>
      </trkpt>
      <trkpt lat="47.82307" lon="6.83795">
        <ele>1196.4000244141</ele>
        <time>2017-07-22T07:56:37Z</time>
      </trkpt>
      <trkpt lat="47.82308" lon="6.83796">
        <ele>1196.5999755859</ele>
        <time>2017-07-22T07:56:38Z</time>
      </trkpt>
      <trkpt lat="47.82314" lon="6.838">
        <ele>1197.4000244141</ele>
        <time>2017-07-22T07:56:43Z</time>
      </trkpt>
      <trkpt lat="47.82316" lon="6.83802">
        <ele>1197.8000488281</ele>
        <time>2017-07-22T07:56:45Z</time>
      </trkpt>
      <trkpt lat="47.82319" lon="6.83805">
        <ele>1198.5999755859</ele>
        <time>2017-07-22T07:56:48Z</time>
      </trkpt>
      <trkpt lat="47.82321" lon="6.83808">
        <ele>1199</ele>
        <time>2017-07-22T07:56:51Z</time>
      </trkpt>
      <trkpt lat="47.82325" lon="6.83815">
        <ele>1200.1999511719</ele>
        <time>2017-07-22T07:57:18Z</time>
      </trkpt>
      <trkpt lat="47.82327" lon="6.83817">
        <ele>1200.4000244141</ele>
        <time>2017-07-22T07:57:20Z</time>
      </trkpt>
      <trkpt lat="47.82332" lon="6.83823">
        <ele>1201.1999511719</ele>
        <time>2017-07-22T07:57:25Z</time>
      </trkpt>
      <trkpt lat="47.82335" lon="6.83826">
        <ele>1201.5999755859</ele>
        <time>2017-07-22T07:57:28Z</time>
      </trkpt>
      <trkpt lat="47.82337" lon="6.8383">
        <ele>1202.4000244141</ele>
        <time>2017-07-22T07:57:31Z</time>
      </trkpt>
      <trkpt lat="47.82338" lon="6.8383">
        <ele>1202.5999755859</ele>
        <time>2017-07-22T07:57:32Z</time>
      </trkpt>
      <trkpt lat="47.82341" lon="6.83831">
        <ele>1203.1999511719</ele>
        <time>2017-07-22T07:57:34Z</time>
      </trkpt>
      <trkpt lat="47.82342" lon="6.83831">
        <ele>1203.4000244141</ele>
        <time>2017-07-22T07:57:35Z</time>
      </trkpt>
      <trkpt lat="47.82345" lon="6.83835">
        <ele>1204</ele>
        <time>2017-07-22T07:57:38Z</time>
      </trkpt>
      <trkpt lat="47.82348" lon="6.83837">
        <ele>1204.4000244141</ele>
        <time>2017-07-22T07:57:40Z</time>
      </trkpt>
      <trkpt lat="47.82354" lon="6.83844">
        <ele>1205.5999755859</ele>
        <time>2017-07-22T07:57:46Z</time>
      </trkpt>
      <trkpt lat="47.82357" lon="6.83846">
        <ele>1206</ele>
        <time>2017-07-22T07:57:48Z</time>
      </trkpt>
      <trkpt lat="47.82359" lon="6.8385">
        <ele>1206.5999755859</ele>
        <time>2017-07-22T07:57:51Z</time>
      </trkpt>
      <trkpt lat="47.8236" lon="6.83853">
        <ele>1207</ele>
        <time>2017-07-22T07:57:53Z</time>
      </trkpt>
      <trkpt lat="47.82363" lon="6.83857">
        <ele>1207.8000488281</ele>
        <time>2017-07-22T07:57:56Z</time>
      </trkpt>
      <trkpt lat="47.82364" lon="6.83858">
        <ele>1208</ele>
        <time>2017-07-22T07:57:57Z</time>
      </trkpt>
      <trkpt lat="47.82367" lon="6.83861">
        <ele>1208.5999755859</ele>
        <time>2017-07-22T07:58:00Z</time>
      </trkpt>
      <trkpt lat="47.82368" lon="6.83862">
        <ele>1208.8000488281</ele>
        <time>2017-07-22T07:58:01Z</time>
      </trkpt>
      <trkpt lat="47.82375" lon="6.83866">
        <ele>1210</ele>
        <time>2017-07-22T07:58:07Z</time>
      </trkpt>
      <trkpt lat="47.82378" lon="6.83869">
        <ele>1210.8000488281</ele>
        <time>2017-07-22T07:58:10Z</time>
      </trkpt>
      <trkpt lat="47.82381" lon="6.83869">
        <ele>1211.1999511719</ele>
        <time>2017-07-22T07:58:12Z</time>
      </trkpt>
      <trkpt lat="47.82382" lon="6.8387">
        <ele>1211.5999755859</ele>
        <time>2017-07-22T07:58:13Z</time>
      </trkpt>
      <trkpt lat="47.82389" lon="6.83872">
        <ele>1212.4000244141</ele>
        <time>2017-07-22T07:58:18Z</time>
      </trkpt>
      <trkpt lat="47.8239" lon="6.83872">
        <ele>1212.5999755859</ele>
        <time>2017-07-22T07:58:19Z</time>
      </trkpt>
      <trkpt lat="47.82393" lon="6.83874">
        <ele>1213.5999755859</ele>
        <time>2017-07-22T07:58:22Z</time>
      </trkpt>
      <trkpt lat="47.82398" lon="6.83875">
        <ele>1214.4000244141</ele>
        <time>2017-07-22T07:58:26Z</time>
      </trkpt>
      <trkpt lat="47.82401" lon="6.83875">
        <ele>1214.8000488281</ele>
        <time>2017-07-22T07:58:28Z</time>
      </trkpt>
      <trkpt lat="47.82409" lon="6.83879">
        <ele>1215.8000488281</ele>
        <time>2017-07-22T07:58:34Z</time>
      </trkpt>
      <trkpt lat="47.82415" lon="6.83881">
        <ele>1216.8000488281</ele>
        <time>2017-07-22T07:58:39Z</time>
      </trkpt>
      <trkpt lat="47.82416" lon="6.83881">
        <ele>1217</ele>
        <time>2017-07-22T07:58:40Z</time>
      </trkpt>
      <trkpt lat="47.82422" lon="6.83883">
        <ele>1218</ele>
        <time>2017-07-22T07:58:44Z</time>
      </trkpt>
      <trkpt lat="47.82427" lon="6.83883">
        <ele>1219</ele>
        <time>2017-07-22T07:58:48Z</time>
      </trkpt>
      <trkpt lat="47.82433" lon="6.83884">
        <ele>1220.1999511719</ele>
        <time>2017-07-22T07:58:53Z</time>
      </trkpt>
      <trkpt lat="47.82436" lon="6.83886">
        <ele>1220.5999755859</ele>
        <time>2017-07-22T07:58:55Z</time>
      </trkpt>
      <trkpt lat="47.82439" lon="6.83888">
        <ele>1221.1999511719</ele>
        <time>2017-07-22T07:58:58Z</time>
      </trkpt>
      <trkpt lat="47.82444" lon="6.83892">
        <ele>1221.8000488281</ele>
        <time>2017-07-22T07:59:02Z</time>
      </trkpt>
      <trkpt lat="47.82445" lon="6.83895">
        <ele>1222.4000244141</ele>
        <time>2017-07-22T07:59:04Z</time>
      </trkpt>
      <trkpt lat="47.8245" lon="6.83899">
        <ele>1223</ele>
        <time>2017-07-22T07:59:08Z</time>
      </trkpt>
      <trkpt lat="47.82451" lon="6.83899">
        <ele>1223</ele>
        <time>2017-07-22T07:59:09Z</time>
      </trkpt>
      <trkpt lat="47.82452" lon="6.83899">
        <ele>1223.4000244141</ele>
        <time>2017-07-22T07:59:10Z</time>
      </trkpt>
      <trkpt lat="47.82456" lon="6.839">
        <ele>1224</ele>
        <time>2017-07-22T07:59:13Z</time>
      </trkpt>
      <trkpt lat="47.82459" lon="6.83899">
        <ele>1224.4000244141</ele>
        <time>2017-07-22T08:06:56Z</time>
      </trkpt>
      <trkpt lat="47.8246" lon="6.83901">
        <ele>1224.4000244141</ele>
        <time>2017-07-22T08:06:57Z</time>
      </trkpt>
      <trkpt lat="47.8246" lon="6.83911">
        <ele>1224.4000244141</ele>
        <time>2017-07-22T08:07:02Z</time>
      </trkpt>
      <trkpt lat="47.82463" lon="6.83921">
        <ele>1224.5999755859</ele>
        <time>2017-07-22T08:07:06Z</time>
      </trkpt>
      <trkpt lat="47.82463" lon="6.83924">
        <ele>1224.5999755859</ele>
        <time>2017-07-22T08:07:07Z</time>
      </trkpt>
      <trkpt lat="47.82468" lon="6.83939">
        <ele>1224.5999755859</ele>
        <time>2017-07-22T08:07:12Z</time>
      </trkpt>
      <trkpt lat="47.82475" lon="6.83955">
        <ele>1224.8000488281</ele>
        <time>2017-07-22T08:07:17Z</time>
      </trkpt>
      <trkpt lat="47.82478" lon="6.8398">
        <ele>1225</ele>
        <time>2017-07-22T08:07:24Z</time>
      </trkpt>
      <trkpt lat="47.82484" lon="6.83997">
        <ele>1225</ele>
        <time>2017-07-22T08:07:29Z</time>
      </trkpt>
      <trkpt lat="47.82487" lon="6.84013">
        <ele>1225.5999755859</ele>
        <time>2017-07-22T08:08:54Z</time>
      </trkpt>
      <trkpt lat="47.82487" lon="6.84019">
        <ele>1225.5999755859</ele>
        <time>2017-07-22T08:08:57Z</time>
      </trkpt>
      <trkpt lat="47.82488" lon="6.84028">
        <ele>1225.5999755859</ele>
        <time>2017-07-22T08:09:00Z</time>
      </trkpt>
      <trkpt lat="47.82488" lon="6.8404">
        <ele>1225.5999755859</ele>
        <time>2017-07-22T08:09:03Z</time>
      </trkpt>
      <trkpt lat="47.82487" lon="6.84061">
        <ele>1225.8000488281</ele>
        <time>2017-07-22T08:09:09Z</time>
      </trkpt>
      <trkpt lat="47.82486" lon="6.84086">
        <ele>1225.8000488281</ele>
        <time>2017-07-22T08:09:16Z</time>
      </trkpt>
      <trkpt lat="47.8249" lon="6.84106">
        <ele>1225.8000488281</ele>
        <time>2017-07-22T08:09:22Z</time>
      </trkpt>
      <trkpt lat="47.82492" lon="6.84126">
        <ele>1226</ele>
        <time>2017-07-22T08:09:28Z</time>
      </trkpt>
      <trkpt lat="47.82496" lon="6.84155">
        <ele>1226.5999755859</ele>
        <time>2017-07-22T08:09:36Z</time>
      </trkpt>
      <trkpt lat="47.82498" lon="6.84167">
        <ele>1226.8000488281</ele>
        <time>2017-07-22T08:09:39Z</time>
      </trkpt>
      <trkpt lat="47.82501" lon="6.84179">
        <ele>1227</ele>
        <time>2017-07-22T08:09:42Z</time>
      </trkpt>
      <trkpt lat="47.82507" lon="6.84205">
        <ele>1227.5999755859</ele>
        <time>2017-07-22T08:09:50Z</time>
      </trkpt>
      <trkpt lat="47.82511" lon="6.8422">
        <ele>1227.8000488281</ele>
        <time>2017-07-22T08:09:55Z</time>
      </trkpt>
      <trkpt lat="47.82512" lon="6.84223">
        <ele>1228</ele>
        <time>2017-07-22T08:09:56Z</time>
      </trkpt>
      <trkpt lat="47.8251" lon="6.84239">
        <ele>1228.4000244141</ele>
        <time>2017-07-22T08:10:01Z</time>
      </trkpt>
      <trkpt lat="47.82496" lon="6.84273">
        <ele>1228.8000488281</ele>
        <time>2017-07-22T08:10:10Z</time>
      </trkpt>
      <trkpt lat="47.82483" lon="6.84304">
        <ele>1228</ele>
        <time>2017-07-22T08:10:18Z</time>
      </trkpt>
      <trkpt lat="47.82469" lon="6.84329">
        <ele>1227.1999511719</ele>
        <time>2017-07-22T08:10:24Z</time>
      </trkpt>
      <trkpt lat="47.82461" lon="6.84346">
        <ele>1226.8000488281</ele>
        <time>2017-07-22T08:10:27Z</time>
      </trkpt>
      <trkpt lat="47.82452" lon="6.84368">
        <ele>1225.5999755859</ele>
        <time>2017-07-22T08:10:31Z</time>
      </trkpt>
      <trkpt lat="47.8245" lon="6.84374">
        <ele>1225.4000244141</ele>
        <time>2017-07-22T08:10:32Z</time>
      </trkpt>
      <trkpt lat="47.82439" lon="6.84399">
        <ele>1224.8000488281</ele>
        <time>2017-07-22T08:10:38Z</time>
      </trkpt>
      <trkpt lat="47.82437" lon="6.84403">
        <ele>1224.5999755859</ele>
        <time>2017-07-22T08:10:39Z</time>
      </trkpt>
      <trkpt lat="47.82426" lon="6.84427">
        <ele>1224.4000244141</ele>
        <time>2017-07-22T08:10:46Z</time>
      </trkpt>
      <trkpt lat="47.82414" lon="6.84451">
        <ele>1224.8000488281</ele>
        <time>2017-07-22T08:10:54Z</time>
      </trkpt>
      <trkpt lat="47.82406" lon="6.8447">
        <ele>1225.4000244141</ele>
        <time>2017-07-22T08:11:01Z</time>
      </trkpt>
      <trkpt lat="47.824" lon="6.84479">
        <ele>1225.5999755859</ele>
        <time>2017-07-22T08:11:05Z</time>
      </trkpt>
      <trkpt lat="47.82396" lon="6.84486">
        <ele>1226</ele>
        <time>2017-07-22T08:11:08Z</time>
      </trkpt>
      <trkpt lat="47.82388" lon="6.84493">
        <ele>1226.8000488281</ele>
        <time>2017-07-22T08:11:13Z</time>
      </trkpt>
      <trkpt lat="47.82386" lon="6.84494">
        <ele>1226.8000488281</ele>
        <time>2017-07-22T08:11:14Z</time>
      </trkpt>
      <trkpt lat="47.82374" lon="6.84502">
        <ele>1227.5999755859</ele>
        <time>2017-07-22T08:11:21Z</time>
      </trkpt>
      <trkpt lat="47.82373" lon="6.84504">
        <ele>1227.8000488281</ele>
        <time>2017-07-22T08:11:22Z</time>
      </trkpt>
      <trkpt lat="47.82366" lon="6.8451">
        <ele>1228.5999755859</ele>
        <time>2017-07-22T08:11:27Z</time>
      </trkpt>
      <trkpt lat="47.82363" lon="6.84516">
        <ele>1228.8000488281</ele>
        <time>2017-07-22T08:11:30Z</time>
      </trkpt>
      <trkpt lat="47.82359" lon="6.84521">
        <ele>1229</ele>
        <time>2017-07-22T08:11:33Z</time>
      </trkpt>
      <trkpt lat="47.82349" lon="6.84528">
        <ele>1229.8000488281</ele>
        <time>2017-07-22T08:11:39Z</time>
      </trkpt>
      <trkpt lat="47.82348" lon="6.84529">
        <ele>1230</ele>
        <time>2017-07-22T08:11:40Z</time>
      </trkpt>
      <trkpt lat="47.82339" lon="6.84539">
        <ele>1230.8000488281</ele>
        <time>2017-07-22T08:11:46Z</time>
      </trkpt>
      <trkpt lat="47.82333" lon="6.84545">
        <ele>1231.1999511719</ele>
        <time>2017-07-22T08:11:50Z</time>
      </trkpt>
      <trkpt lat="47.8233" lon="6.84548">
        <ele>1231.4000244141</ele>
        <time>2017-07-22T08:11:52Z</time>
      </trkpt>
      <trkpt lat="47.82324" lon="6.84556">
        <ele>1232</ele>
        <time>2017-07-22T08:11:57Z</time>
      </trkpt>
      <trkpt lat="47.82322" lon="6.84558">
        <ele>1232.1999511719</ele>
        <time>2017-07-22T08:11:58Z</time>
      </trkpt>
      <trkpt lat="47.82319" lon="6.84561">
        <ele>1232.4000244141</ele>
        <time>2017-07-22T08:12:00Z</time>
      </trkpt>
      <trkpt lat="47.82311" lon="6.84571">
        <ele>1232.8000488281</ele>
        <time>2017-07-22T08:12:06Z</time>
      </trkpt>
      <trkpt lat="47.82302" lon="6.84581">
        <ele>1233</ele>
        <time>2017-07-22T08:12:11Z</time>
      </trkpt>
      <trkpt lat="47.82298" lon="6.84584">
        <ele>1233.1999511719</ele>
        <time>2017-07-22T08:12:13Z</time>
      </trkpt>
      <trkpt lat="47.82288" lon="6.84587">
        <ele>1233.4000244141</ele>
        <time>2017-07-22T08:12:18Z</time>
      </trkpt>
      <trkpt lat="47.82282" lon="6.84583">
        <ele>1233.4000244141</ele>
        <time>2017-07-22T08:12:21Z</time>
      </trkpt>
      <trkpt lat="47.82279" lon="6.84579">
        <ele>1233.4000244141</ele>
        <time>2017-07-22T08:12:23Z</time>
      </trkpt>
      <trkpt lat="47.82273" lon="6.84572">
        <ele>1233.1999511719</ele>
        <time>2017-07-22T08:12:26Z</time>
      </trkpt>
      <trkpt lat="47.82271" lon="6.84569">
        <ele>1233.1999511719</ele>
        <time>2017-07-22T08:12:27Z</time>
      </trkpt>
      <trkpt lat="47.82266" lon="6.84564">
        <ele>1233.1999511719</ele>
        <time>2017-07-22T08:12:29Z</time>
      </trkpt>
      <trkpt lat="47.82249" lon="6.84543">
        <ele>1233.1999511719</ele>
        <time>2017-07-22T08:12:37Z</time>
      </trkpt>
      <trkpt lat="47.82245" lon="6.84532">
        <ele>1233.4000244141</ele>
        <time>2017-07-22T08:12:41Z</time>
      </trkpt>
      <trkpt lat="47.82239" lon="6.84518">
        <ele>1234.4000244141</ele>
        <time>2017-07-22T08:12:47Z</time>
      </trkpt>
      <trkpt lat="47.8223" lon="6.84504">
        <ele>1234.8000488281</ele>
        <time>2017-07-22T08:12:53Z</time>
      </trkpt>
      <trkpt lat="47.82221" lon="6.84493">
        <ele>1234.5999755859</ele>
        <time>2017-07-22T08:12:58Z</time>
      </trkpt>
      <trkpt lat="47.82204" lon="6.84477">
        <ele>1233.8000488281</ele>
        <time>2017-07-22T08:13:05Z</time>
      </trkpt>
      <trkpt lat="47.82193" lon="6.84465">
        <ele>1233.1999511719</ele>
        <time>2017-07-22T08:13:09Z</time>
      </trkpt>
      <trkpt lat="47.82188" lon="6.8446">
        <ele>1232.5999755859</ele>
        <time>2017-07-22T08:13:11Z</time>
      </trkpt>
      <trkpt lat="47.82178" lon="6.84452">
        <ele>1232.1999511719</ele>
        <time>2017-07-22T08:13:15Z</time>
      </trkpt>
      <trkpt lat="47.82173" lon="6.84449">
        <ele>1231.5999755859</ele>
        <time>2017-07-22T08:13:17Z</time>
      </trkpt>
      <trkpt lat="47.82162" lon="6.84442">
        <ele>1231</ele>
        <time>2017-07-22T08:13:21Z</time>
      </trkpt>
      <trkpt lat="47.82158" lon="6.84442">
        <ele>1230.4000244141</ele>
        <time>2017-07-22T08:13:23Z</time>
      </trkpt>
      <trkpt lat="47.82154" lon="6.8444">
        <ele>1230</ele>
        <time>2017-07-22T08:13:25Z</time>
      </trkpt>
      <trkpt lat="47.82148" lon="6.84438">
        <ele>1229.8000488281</ele>
        <time>2017-07-22T08:13:28Z</time>
      </trkpt>
      <trkpt lat="47.82144" lon="6.84433">
        <ele>1229.5999755859</ele>
        <time>2017-07-22T08:13:31Z</time>
      </trkpt>
      <trkpt lat="47.82143" lon="6.84429">
        <ele>1228.4000244141</ele>
        <time>2017-07-22T08:14:22Z</time>
      </trkpt>
      <trkpt lat="47.82139" lon="6.84425">
        <ele>1228.4000244141</ele>
        <time>2017-07-22T08:14:25Z</time>
      </trkpt>
      <trkpt lat="47.82131" lon="6.84412">
        <ele>1227.5999755859</ele>
        <time>2017-07-22T08:14:32Z</time>
      </trkpt>
      <trkpt lat="47.8213" lon="6.84409">
        <ele>1227.1999511719</ele>
        <time>2017-07-22T08:14:33Z</time>
      </trkpt>
      <trkpt lat="47.82127" lon="6.844">
        <ele>1226.1999511719</ele>
        <time>2017-07-22T08:14:37Z</time>
      </trkpt>
      <trkpt lat="47.82127" lon="6.84396">
        <ele>1225.8000488281</ele>
        <time>2017-07-22T08:14:38Z</time>
      </trkpt>
      <trkpt lat="47.82128" lon="6.84383">
        <ele>1224.8000488281</ele>
        <time>2017-07-22T08:14:41Z</time>
      </trkpt>
      <trkpt lat="47.82129" lon="6.84375">
        <ele>1224.1999511719</ele>
        <time>2017-07-22T08:14:43Z</time>
      </trkpt>
      <trkpt lat="47.82132" lon="6.84367">
        <ele>1223.5999755859</ele>
        <time>2017-07-22T08:14:46Z</time>
      </trkpt>
      <trkpt lat="47.82134" lon="6.84362">
        <ele>1222.5999755859</ele>
        <time>2017-07-22T08:14:48Z</time>
      </trkpt>
      <trkpt lat="47.82139" lon="6.84354">
        <ele>1221.4000244141</ele>
        <time>2017-07-22T08:14:51Z</time>
      </trkpt>
      <trkpt lat="47.82144" lon="6.84343">
        <ele>1220.5999755859</ele>
        <time>2017-07-22T08:14:54Z</time>
      </trkpt>
      <trkpt lat="47.82146" lon="6.84341">
        <ele>1220.4000244141</ele>
        <time>2017-07-22T08:14:55Z</time>
      </trkpt>
      <trkpt lat="47.8215" lon="6.84334">
        <ele>1219.1999511719</ele>
        <time>2017-07-22T08:14:58Z</time>
      </trkpt>
      <trkpt lat="47.82152" lon="6.84329">
        <ele>1218.1999511719</ele>
        <time>2017-07-22T08:15:00Z</time>
      </trkpt>
      <trkpt lat="47.82153" lon="6.84327">
        <ele>1217.8000488281</ele>
        <time>2017-07-22T08:15:01Z</time>
      </trkpt>
      <trkpt lat="47.82157" lon="6.84318">
        <ele>1216.5999755859</ele>
        <time>2017-07-22T08:15:05Z</time>
      </trkpt>
      <trkpt lat="47.82157" lon="6.84317">
        <ele>1216.1999511719</ele>
        <time>2017-07-22T08:15:06Z</time>
      </trkpt>
      <trkpt lat="47.82158" lon="6.84314">
        <ele>1213.5999755859</ele>
        <time>2017-07-22T08:15:12Z</time>
      </trkpt>
      <trkpt lat="47.82159" lon="6.84311">
        <ele>1213.5999755859</ele>
        <time>2017-07-22T08:15:13Z</time>
      </trkpt>
      <trkpt lat="47.82164" lon="6.84294">
        <ele>1212.4000244141</ele>
        <time>2017-07-22T08:15:19Z</time>
      </trkpt>
      <trkpt lat="47.82165" lon="6.84286">
        <ele>1211.1999511719</ele>
        <time>2017-07-22T08:15:22Z</time>
      </trkpt>
      <trkpt lat="47.82164" lon="6.84284">
        <ele>1210.8000488281</ele>
        <time>2017-07-22T08:15:23Z</time>
      </trkpt>
      <trkpt lat="47.82163" lon="6.84282">
        <ele>1210.1999511719</ele>
        <time>2017-07-22T08:15:24Z</time>
      </trkpt>
      <trkpt lat="47.82158" lon="6.84278">
        <ele>1208.8000488281</ele>
        <time>2017-07-22T08:15:27Z</time>
      </trkpt>
      <trkpt lat="47.82155" lon="6.84279">
        <ele>1208.1999511719</ele>
        <time>2017-07-22T08:15:29Z</time>
      </trkpt>
      <trkpt lat="47.82151" lon="6.84279">
        <ele>1207.8000488281</ele>
        <time>2017-07-22T08:15:31Z</time>
      </trkpt>
      <trkpt lat="47.82142" lon="6.8428">
        <ele>1206.8000488281</ele>
        <time>2017-07-22T08:15:35Z</time>
      </trkpt>
      <trkpt lat="47.82136" lon="6.8428">
        <ele>1205.5999755859</ele>
        <time>2017-07-22T08:15:38Z</time>
      </trkpt>
      <trkpt lat="47.82134" lon="6.84279">
        <ele>1205.4000244141</ele>
        <time>2017-07-22T08:15:39Z</time>
      </trkpt>
      <trkpt lat="47.82129" lon="6.84277">
        <ele>1204.5999755859</ele>
        <time>2017-07-22T08:15:42Z</time>
      </trkpt>
      <trkpt lat="47.82126" lon="6.84275">
        <ele>1204.1999511719</ele>
        <time>2017-07-22T08:15:44Z</time>
      </trkpt>
      <trkpt lat="47.82126" lon="6.84272">
        <ele>1204</ele>
        <time>2017-07-22T08:15:45Z</time>
      </trkpt>
      <trkpt lat="47.82126" lon="6.84265">
        <ele>1203.4000244141</ele>
        <time>2017-07-22T08:15:47Z</time>
      </trkpt>
      <trkpt lat="47.82128" lon="6.84261">
        <ele>1202.8000488281</ele>
        <time>2017-07-22T08:15:48Z</time>
      </trkpt>
      <trkpt lat="47.8213" lon="6.84258">
        <ele>1202.4000244141</ele>
        <time>2017-07-22T08:15:49Z</time>
      </trkpt>
      <trkpt lat="47.82133" lon="6.84251">
        <ele>1201.1999511719</ele>
        <time>2017-07-22T08:15:51Z</time>
      </trkpt>
      <trkpt lat="47.82134" lon="6.84249">
        <ele>1201</ele>
        <time>2017-07-22T08:15:52Z</time>
      </trkpt>
      <trkpt lat="47.82135" lon="6.84246">
        <ele>1200.5999755859</ele>
        <time>2017-07-22T08:15:53Z</time>
      </trkpt>
      <trkpt lat="47.82135" lon="6.84243">
        <ele>1200.4000244141</ele>
        <time>2017-07-22T08:15:54Z</time>
      </trkpt>
      <trkpt lat="47.82134" lon="6.84241">
        <ele>1200</ele>
        <time>2017-07-22T08:15:55Z</time>
      </trkpt>
      <trkpt lat="47.82132" lon="6.84239">
        <ele>1199.5999755859</ele>
        <time>2017-07-22T08:15:57Z</time>
      </trkpt>
      <trkpt lat="47.82128" lon="6.84239">
        <ele>1199</ele>
        <time>2017-07-22T08:15:59Z</time>
      </trkpt>
      <trkpt lat="47.82124" lon="6.84242">
        <ele>1198.4000244141</ele>
        <time>2017-07-22T08:16:01Z</time>
      </trkpt>
      <trkpt lat="47.82118" lon="6.84247">
        <ele>1197.8000488281</ele>
        <time>2017-07-22T08:16:04Z</time>
      </trkpt>
      <trkpt lat="47.82112" lon="6.84253">
        <ele>1197</ele>
        <time>2017-07-22T08:16:07Z</time>
      </trkpt>
      <trkpt lat="47.82109" lon="6.84254">
        <ele>1196.5999755859</ele>
        <time>2017-07-22T08:16:08Z</time>
      </trkpt>
      <trkpt lat="47.82099" lon="6.84257">
        <ele>1196</ele>
        <time>2017-07-22T08:16:12Z</time>
      </trkpt>
      <trkpt lat="47.82097" lon="6.84257">
        <ele>1195.5999755859</ele>
        <time>2017-07-22T08:16:13Z</time>
      </trkpt>
      <trkpt lat="47.82091" lon="6.8426">
        <ele>1194.5999755859</ele>
        <time>2017-07-22T08:16:16Z</time>
      </trkpt>
      <trkpt lat="47.82086" lon="6.84261">
        <ele>1194</ele>
        <time>2017-07-22T08:16:18Z</time>
      </trkpt>
      <trkpt lat="47.8208" lon="6.84264">
        <ele>1193.4000244141</ele>
        <time>2017-07-22T08:16:21Z</time>
      </trkpt>
      <trkpt lat="47.82073" lon="6.84268">
        <ele>1192.1999511719</ele>
        <time>2017-07-22T08:16:24Z</time>
      </trkpt>
      <trkpt lat="47.82067" lon="6.84271">
        <ele>1191</ele>
        <time>2017-07-22T08:16:27Z</time>
      </trkpt>
      <trkpt lat="47.82061" lon="6.84274">
        <ele>1190.5999755859</ele>
        <time>2017-07-22T08:16:29Z</time>
      </trkpt>
      <trkpt lat="47.82056" lon="6.84276">
        <ele>1190</ele>
        <time>2017-07-22T08:16:31Z</time>
      </trkpt>
      <trkpt lat="47.82043" lon="6.84283">
        <ele>1188.8000488281</ele>
        <time>2017-07-22T08:16:36Z</time>
      </trkpt>
      <trkpt lat="47.82034" lon="6.84286">
        <ele>1187.8000488281</ele>
        <time>2017-07-22T08:16:40Z</time>
      </trkpt>
      <trkpt lat="47.82031" lon="6.84288">
        <ele>1187</ele>
        <time>2017-07-22T08:16:42Z</time>
      </trkpt>
      <trkpt lat="47.82029" lon="6.84288">
        <ele>1186.8000488281</ele>
        <time>2017-07-22T08:16:43Z</time>
      </trkpt>
      <trkpt lat="47.82024" lon="6.84292">
        <ele>1185.8000488281</ele>
        <time>2017-07-22T08:16:46Z</time>
      </trkpt>
      <trkpt lat="47.8202" lon="6.84292">
        <ele>1184.8000488281</ele>
        <time>2017-07-22T08:16:48Z</time>
      </trkpt>
      <trkpt lat="47.82018" lon="6.84291">
        <ele>1184.5999755859</ele>
        <time>2017-07-22T08:16:49Z</time>
      </trkpt>
      <trkpt lat="47.82017" lon="6.84286">
        <ele>1184.1999511719</ele>
        <time>2017-07-22T08:16:51Z</time>
      </trkpt>
      <trkpt lat="47.82019" lon="6.84279">
        <ele>1183.4000244141</ele>
        <time>2017-07-22T08:16:53Z</time>
      </trkpt>
      <trkpt lat="47.8202" lon="6.84273">
        <ele>1182.5999755859</ele>
        <time>2017-07-22T08:16:55Z</time>
      </trkpt>
      <trkpt lat="47.82021" lon="6.84271">
        <ele>1182.1999511719</ele>
        <time>2017-07-22T08:16:56Z</time>
      </trkpt>
      <trkpt lat="47.82023" lon="6.84259">
        <ele>1181</ele>
        <time>2017-07-22T08:17:00Z</time>
      </trkpt>
      <trkpt lat="47.82023" lon="6.84256">
        <ele>1180.8000488281</ele>
        <time>2017-07-22T08:17:01Z</time>
      </trkpt>
      <trkpt lat="47.82025" lon="6.84245">
        <ele>1180</ele>
        <time>2017-07-22T08:17:04Z</time>
      </trkpt>
      <trkpt lat="47.82026" lon="6.84232">
        <ele>1178.8000488281</ele>
        <time>2017-07-22T08:17:08Z</time>
      </trkpt>
      <trkpt lat="47.82027" lon="6.8422">
        <ele>1177.5999755859</ele>
        <time>2017-07-22T08:17:11Z</time>
      </trkpt>
      <trkpt lat="47.82028" lon="6.8421">
        <ele>1176.4000244141</ele>
        <time>2017-07-22T08:17:13Z</time>
      </trkpt>
      <trkpt lat="47.82029" lon="6.84201">
        <ele>1175.1999511719</ele>
        <time>2017-07-22T08:17:16Z</time>
      </trkpt>
      <trkpt lat="47.82029" lon="6.84198">
        <ele>1174.8000488281</ele>
        <time>2017-07-22T08:17:17Z</time>
      </trkpt>
      <trkpt lat="47.82029" lon="6.84186">
        <ele>1174</ele>
        <time>2017-07-22T08:17:20Z</time>
      </trkpt>
      <trkpt lat="47.82028" lon="6.84178">
        <ele>1173.4000244141</ele>
        <time>2017-07-22T08:17:22Z</time>
      </trkpt>
      <trkpt lat="47.82028" lon="6.84174">
        <ele>1172.8000488281</ele>
        <time>2017-07-22T08:17:24Z</time>
      </trkpt>
      <trkpt lat="47.82028" lon="6.84168">
        <ele>1172</ele>
        <time>2017-07-22T08:17:26Z</time>
      </trkpt>
      <trkpt lat="47.82028" lon="6.84164">
        <ele>1171.8000488281</ele>
        <time>2017-07-22T08:17:27Z</time>
      </trkpt>
      <trkpt lat="47.82027" lon="6.84152">
        <ele>1170.4000244141</ele>
        <time>2017-07-22T08:17:31Z</time>
      </trkpt>
      <trkpt lat="47.82027" lon="6.84148">
        <ele>1170</ele>
        <time>2017-07-22T08:17:32Z</time>
      </trkpt>
      <trkpt lat="47.82026" lon="6.8414">
        <ele>1169.4000244141</ele>
        <time>2017-07-22T08:17:34Z</time>
      </trkpt>
      <trkpt lat="47.82026" lon="6.8413">
        <ele>1168.1999511719</ele>
        <time>2017-07-22T08:17:37Z</time>
      </trkpt>
      <trkpt lat="47.82025" lon="6.84108">
        <ele>1167</ele>
        <time>2017-07-22T08:17:41Z</time>
      </trkpt>
      <trkpt lat="47.82024" lon="6.84095">
        <ele>1165.8000488281</ele>
        <time>2017-07-22T08:17:44Z</time>
      </trkpt>
      <trkpt lat="47.82021" lon="6.84082">
        <ele>1164.5999755859</ele>
        <time>2017-07-22T08:17:48Z</time>
      </trkpt>
      <trkpt lat="47.82019" lon="6.84079">
        <ele>1164.4000244141</ele>
        <time>2017-07-22T08:17:49Z</time>
      </trkpt>
      <trkpt lat="47.82011" lon="6.84074">
        <ele>1163.4000244141</ele>
        <time>2017-07-22T08:17:53Z</time>
      </trkpt>
      <trkpt lat="47.82001" lon="6.84067">
        <ele>1162.4000244141</ele>
        <time>2017-07-22T08:17:57Z</time>
      </trkpt>
      <trkpt lat="47.81999" lon="6.84065">
        <ele>1162.1999511719</ele>
        <time>2017-07-22T08:17:58Z</time>
      </trkpt>
      <trkpt lat="47.81996" lon="6.84061">
        <ele>1161.1999511719</ele>
        <time>2017-07-22T08:18:00Z</time>
      </trkpt>
      <trkpt lat="47.81993" lon="6.84058">
        <ele>1160.5999755859</ele>
        <time>2017-07-22T08:18:02Z</time>
      </trkpt>
      <trkpt lat="47.8199" lon="6.84058">
        <ele>1160.4000244141</ele>
        <time>2017-07-22T08:18:03Z</time>
      </trkpt>
      <trkpt lat="47.81988" lon="6.84058">
        <ele>1160.1999511719</ele>
        <time>2017-07-22T08:18:04Z</time>
      </trkpt>
      <trkpt lat="47.81976" lon="6.84056">
        <ele>1159.8000488281</ele>
        <time>2017-07-22T08:18:08Z</time>
      </trkpt>
      <trkpt lat="47.81963" lon="6.8405">
        <ele>1159</ele>
        <time>2017-07-22T08:18:12Z</time>
      </trkpt>
      <trkpt lat="47.81959" lon="6.84052">
        <ele>1158.8000488281</ele>
        <time>2017-07-22T08:18:13Z</time>
      </trkpt>
      <trkpt lat="47.81951" lon="6.84057">
        <ele>1158.4000244141</ele>
        <time>2017-07-22T08:18:15Z</time>
      </trkpt>
      <trkpt lat="47.81943" lon="6.84064">
        <ele>1158</ele>
        <time>2017-07-22T08:18:17Z</time>
      </trkpt>
      <trkpt lat="47.8194" lon="6.84068">
        <ele>1157.8000488281</ele>
        <time>2017-07-22T08:18:18Z</time>
      </trkpt>
      <trkpt lat="47.81927" lon="6.84077">
        <ele>1157.1999511719</ele>
        <time>2017-07-22T08:18:21Z</time>
      </trkpt>
      <trkpt lat="47.81922" lon="6.84078">
        <ele>1157.1999511719</ele>
        <time>2017-07-22T08:18:22Z</time>
      </trkpt>
      <trkpt lat="47.81915" lon="6.84085">
        <ele>1156.8000488281</ele>
        <time>2017-07-22T08:18:24Z</time>
      </trkpt>
      <trkpt lat="47.81911" lon="6.8409">
        <ele>1156.5999755859</ele>
        <time>2017-07-22T08:18:25Z</time>
      </trkpt>
      <trkpt lat="47.81906" lon="6.84094">
        <ele>1156.4000244141</ele>
        <time>2017-07-22T08:18:26Z</time>
      </trkpt>
      <trkpt lat="47.8189" lon="6.84107">
        <ele>1155.8000488281</ele>
        <time>2017-07-22T08:18:29Z</time>
      </trkpt>
      <trkpt lat="47.81861" lon="6.8413">
        <ele>1154.4000244141</ele>
        <time>2017-07-22T08:18:33Z</time>
      </trkpt>
      <trkpt lat="47.81853" lon="6.84136">
        <ele>1154</ele>
        <time>2017-07-22T08:18:34Z</time>
      </trkpt>
      <trkpt lat="47.81835" lon="6.84148">
        <ele>1153</ele>
        <time>2017-07-22T08:18:36Z</time>
      </trkpt>
      <trkpt lat="47.81816" lon="6.84159">
        <ele>1151.8000488281</ele>
        <time>2017-07-22T08:18:38Z</time>
      </trkpt>
      <trkpt lat="47.81807" lon="6.84165">
        <ele>1151</ele>
        <time>2017-07-22T08:18:39Z</time>
      </trkpt>
      <trkpt lat="47.81797" lon="6.84172">
        <ele>1150.4000244141</ele>
        <time>2017-07-22T08:18:40Z</time>
      </trkpt>
      <trkpt lat="47.81777" lon="6.84183">
        <ele>1148.8000488281</ele>
        <time>2017-07-22T08:18:42Z</time>
      </trkpt>
      <trkpt lat="47.81757" lon="6.84192">
        <ele>1147.4000244141</ele>
        <time>2017-07-22T08:18:44Z</time>
      </trkpt>
      <trkpt lat="47.81746" lon="6.84197">
        <ele>1146.5999755859</ele>
        <time>2017-07-22T08:18:45Z</time>
      </trkpt>
      <trkpt lat="47.81735" lon="6.84202">
        <ele>1146</ele>
        <time>2017-07-22T08:18:46Z</time>
      </trkpt>
      <trkpt lat="47.81713" lon="6.84211">
        <ele>1144</ele>
        <time>2017-07-22T08:18:48Z</time>
      </trkpt>
      <trkpt lat="47.81689" lon="6.84217">
        <ele>1142.4000244141</ele>
        <time>2017-07-22T08:18:50Z</time>
      </trkpt>
      <trkpt lat="47.81677" lon="6.8422">
        <ele>1141.5999755859</ele>
        <time>2017-07-22T08:18:51Z</time>
      </trkpt>
      <trkpt lat="47.81665" lon="6.84222">
        <ele>1140.5999755859</ele>
        <time>2017-07-22T08:18:52Z</time>
      </trkpt>
      <trkpt lat="47.81653" lon="6.84224">
        <ele>1139.5999755859</ele>
        <time>2017-07-22T08:18:53Z</time>
      </trkpt>
      <trkpt lat="47.81629" lon="6.84227">
        <ele>1137.5999755859</ele>
        <time>2017-07-22T08:18:55Z</time>
      </trkpt>
      <trkpt lat="47.81606" lon="6.84229">
        <ele>1136</ele>
        <time>2017-07-22T08:18:57Z</time>
      </trkpt>
      <trkpt lat="47.81595" lon="6.84229">
        <ele>1135.1999511719</ele>
        <time>2017-07-22T08:18:58Z</time>
      </trkpt>
      <trkpt lat="47.81584" lon="6.84229">
        <ele>1134.4000244141</ele>
        <time>2017-07-22T08:18:59Z</time>
      </trkpt>
      <trkpt lat="47.81562" lon="6.8423">
        <ele>1133.1999511719</ele>
        <time>2017-07-22T08:19:01Z</time>
      </trkpt>
      <trkpt lat="47.81542" lon="6.84233">
        <ele>1132</ele>
        <time>2017-07-22T08:19:03Z</time>
      </trkpt>
      <trkpt lat="47.81521" lon="6.84235">
        <ele>1131</ele>
        <time>2017-07-22T08:19:05Z</time>
      </trkpt>
      <trkpt lat="47.81493" lon="6.84237">
        <ele>1129.8000488281</ele>
        <time>2017-07-22T08:19:08Z</time>
      </trkpt>
      <trkpt lat="47.81475" lon="6.84236">
        <ele>1129.1999511719</ele>
        <time>2017-07-22T08:19:10Z</time>
      </trkpt>
      <trkpt lat="47.81467" lon="6.84233">
        <ele>1129</ele>
        <time>2017-07-22T08:19:11Z</time>
      </trkpt>
      <trkpt lat="47.81459" lon="6.8423">
        <ele>1128.4000244141</ele>
        <time>2017-07-22T08:19:12Z</time>
      </trkpt>
      <trkpt lat="47.81444" lon="6.84223">
        <ele>1128</ele>
        <time>2017-07-22T08:19:14Z</time>
      </trkpt>
      <trkpt lat="47.8143" lon="6.84213">
        <ele>1127.5999755859</ele>
        <time>2017-07-22T08:19:16Z</time>
      </trkpt>
      <trkpt lat="47.81419" lon="6.842">
        <ele>1127.4000244141</ele>
        <time>2017-07-22T08:19:18Z</time>
      </trkpt>
      <trkpt lat="47.81382" lon="6.84159">
        <ele>1126.5999755859</ele>
        <time>2017-07-22T08:19:25Z</time>
      </trkpt>
      <trkpt lat="47.81366" lon="6.84142">
        <ele>1126.4000244141</ele>
        <time>2017-07-22T08:19:28Z</time>
      </trkpt>
      <trkpt lat="47.81347" lon="6.84118">
        <ele>1126.1999511719</ele>
        <time>2017-07-22T08:19:32Z</time>
      </trkpt>
      <trkpt lat="47.81337" lon="6.84107">
        <ele>1126</ele>
        <time>2017-07-22T08:19:34Z</time>
      </trkpt>
      <trkpt lat="47.81323" lon="6.84094">
        <ele>1125.4000244141</ele>
        <time>2017-07-22T08:19:38Z</time>
      </trkpt>
      <trkpt lat="47.81322" lon="6.84092">
        <ele>1124.4000244141</ele>
        <time>2017-07-22T08:24:46Z</time>
      </trkpt>
      <trkpt lat="47.81311" lon="6.84083">
        <ele>1124.1999511719</ele>
        <time>2017-07-22T08:24:51Z</time>
      </trkpt>
      <trkpt lat="47.81293" lon="6.84067">
        <ele>1124</ele>
        <time>2017-07-22T08:24:56Z</time>
      </trkpt>
      <trkpt lat="47.8127" lon="6.84046">
        <ele>1123.1999511719</ele>
        <time>2017-07-22T08:25:01Z</time>
      </trkpt>
      <trkpt lat="47.81265" lon="6.84041">
        <ele>1123.1999511719</ele>
        <time>2017-07-22T08:25:02Z</time>
      </trkpt>
      <trkpt lat="47.81238" lon="6.84014">
        <ele>1122.1999511719</ele>
        <time>2017-07-22T08:25:07Z</time>
      </trkpt>
      <trkpt lat="47.81232" lon="6.84008">
        <ele>1122</ele>
        <time>2017-07-22T08:25:08Z</time>
      </trkpt>
      <trkpt lat="47.81206" lon="6.83984">
        <ele>1120.8000488281</ele>
        <time>2017-07-22T08:25:12Z</time>
      </trkpt>
      <trkpt lat="47.81192" lon="6.83973">
        <ele>1120</ele>
        <time>2017-07-22T08:25:14Z</time>
      </trkpt>
      <trkpt lat="47.81185" lon="6.83968">
        <ele>1119.8000488281</ele>
        <time>2017-07-22T08:25:15Z</time>
      </trkpt>
      <trkpt lat="47.81154" lon="6.83949">
        <ele>1118.4000244141</ele>
        <time>2017-07-22T08:25:19Z</time>
      </trkpt>
      <trkpt lat="47.81138" lon="6.83939">
        <ele>1117.1999511719</ele>
        <time>2017-07-22T08:25:21Z</time>
      </trkpt>
      <trkpt lat="47.81121" lon="6.83932">
        <ele>1115.8000488281</ele>
        <time>2017-07-22T08:25:23Z</time>
      </trkpt>
      <trkpt lat="47.81103" lon="6.83929">
        <ele>1114.8000488281</ele>
        <time>2017-07-22T08:25:25Z</time>
      </trkpt>
      <trkpt lat="47.81093" lon="6.83928">
        <ele>1114.4000244141</ele>
        <time>2017-07-22T08:25:26Z</time>
      </trkpt>
      <trkpt lat="47.81074" lon="6.83927">
        <ele>1113.4000244141</ele>
        <time>2017-07-22T08:25:28Z</time>
      </trkpt>
      <trkpt lat="47.81055" lon="6.83928">
        <ele>1112.4000244141</ele>
        <time>2017-07-22T08:25:30Z</time>
      </trkpt>
      <trkpt lat="47.81036" lon="6.83933">
        <ele>1111.4000244141</ele>
        <time>2017-07-22T08:25:32Z</time>
      </trkpt>
      <trkpt lat="47.81027" lon="6.83938">
        <ele>1111</ele>
        <time>2017-07-22T08:25:33Z</time>
      </trkpt>
      <trkpt lat="47.81008" lon="6.83948">
        <ele>1110</ele>
        <time>2017-07-22T08:25:35Z</time>
      </trkpt>
      <trkpt lat="47.80999" lon="6.83953">
        <ele>1109.5999755859</ele>
        <time>2017-07-22T08:25:36Z</time>
      </trkpt>
      <trkpt lat="47.8099" lon="6.83957">
        <ele>1108.4000244141</ele>
        <time>2017-07-22T08:25:37Z</time>
      </trkpt>
      <trkpt lat="47.80972" lon="6.8397">
        <ele>1107</ele>
        <time>2017-07-22T08:25:39Z</time>
      </trkpt>
      <trkpt lat="47.80965" lon="6.83978">
        <ele>1106.5999755859</ele>
        <time>2017-07-22T08:25:40Z</time>
      </trkpt>
      <trkpt lat="47.80958" lon="6.83988">
        <ele>1106</ele>
        <time>2017-07-22T08:25:41Z</time>
      </trkpt>
      <trkpt lat="47.80949" lon="6.84014">
        <ele>1105.1999511719</ele>
        <time>2017-07-22T08:25:43Z</time>
      </trkpt>
      <trkpt lat="47.80945" lon="6.84028">
        <ele>1104.5999755859</ele>
        <time>2017-07-22T08:25:44Z</time>
      </trkpt>
      <trkpt lat="47.80942" lon="6.84058">
        <ele>1103.5999755859</ele>
        <time>2017-07-22T08:25:46Z</time>
      </trkpt>
      <trkpt lat="47.80942" lon="6.84074">
        <ele>1103</ele>
        <time>2017-07-22T08:25:47Z</time>
      </trkpt>
      <trkpt lat="47.80943" lon="6.84089">
        <ele>1102.1999511719</ele>
        <time>2017-07-22T08:25:48Z</time>
      </trkpt>
      <trkpt lat="47.80945" lon="6.8412">
        <ele>1101</ele>
        <time>2017-07-22T08:25:50Z</time>
      </trkpt>
      <trkpt lat="47.80949" lon="6.84134">
        <ele>1100.4000244141</ele>
        <time>2017-07-22T08:25:51Z</time>
      </trkpt>
      <trkpt lat="47.80953" lon="6.84148">
        <ele>1100</ele>
        <time>2017-07-22T08:25:52Z</time>
      </trkpt>
      <trkpt lat="47.80963" lon="6.84175">
        <ele>1098.8000488281</ele>
        <time>2017-07-22T08:25:54Z</time>
      </trkpt>
      <trkpt lat="47.80969" lon="6.84187">
        <ele>1098.4000244141</ele>
        <time>2017-07-22T08:25:55Z</time>
      </trkpt>
      <trkpt lat="47.80976" lon="6.84197">
        <ele>1097.8000488281</ele>
        <time>2017-07-22T08:25:56Z</time>
      </trkpt>
      <trkpt lat="47.80993" lon="6.84214">
        <ele>1096.5999755859</ele>
        <time>2017-07-22T08:25:58Z</time>
      </trkpt>
      <trkpt lat="47.81001" lon="6.84222">
        <ele>1096</ele>
        <time>2017-07-22T08:25:59Z</time>
      </trkpt>
      <trkpt lat="47.81007" lon="6.84231">
        <ele>1095.4000244141</ele>
        <time>2017-07-22T08:26:00Z</time>
      </trkpt>
      <trkpt lat="47.81012" lon="6.84244">
        <ele>1094.1999511719</ele>
        <time>2017-07-22T08:26:01Z</time>
      </trkpt>
      <trkpt lat="47.81017" lon="6.84271">
        <ele>1093</ele>
        <time>2017-07-22T08:26:03Z</time>
      </trkpt>
      <trkpt lat="47.81017" lon="6.84284">
        <ele>1092.4000244141</ele>
        <time>2017-07-22T08:26:04Z</time>
      </trkpt>
      <trkpt lat="47.81018" lon="6.84297">
        <ele>1091.8000488281</ele>
        <time>2017-07-22T08:26:05Z</time>
      </trkpt>
      <trkpt lat="47.8102" lon="6.84325">
        <ele>1090.5999755859</ele>
        <time>2017-07-22T08:26:07Z</time>
      </trkpt>
      <trkpt lat="47.81024" lon="6.84369">
        <ele>1089.1999511719</ele>
        <time>2017-07-22T08:26:10Z</time>
      </trkpt>
      <trkpt lat="47.81025" lon="6.84384">
        <ele>1088.5999755859</ele>
        <time>2017-07-22T08:26:11Z</time>
      </trkpt>
      <trkpt lat="47.81026" lon="6.84399">
        <ele>1088</ele>
        <time>2017-07-22T08:26:12Z</time>
      </trkpt>
      <trkpt lat="47.81026" lon="6.84429">
        <ele>1087</ele>
        <time>2017-07-22T08:26:14Z</time>
      </trkpt>
      <trkpt lat="47.81027" lon="6.8446">
        <ele>1085.8000488281</ele>
        <time>2017-07-22T08:26:16Z</time>
      </trkpt>
      <trkpt lat="47.81026" lon="6.84475">
        <ele>1085.1999511719</ele>
        <time>2017-07-22T08:26:17Z</time>
      </trkpt>
      <trkpt lat="47.81026" lon="6.84492">
        <ele>1084.8000488281</ele>
        <time>2017-07-22T08:26:18Z</time>
      </trkpt>
      <trkpt lat="47.81024" lon="6.84522">
        <ele>1083.4000244141</ele>
        <time>2017-07-22T08:26:20Z</time>
      </trkpt>
      <trkpt lat="47.81021" lon="6.8455">
        <ele>1082.1999511719</ele>
        <time>2017-07-22T08:26:22Z</time>
      </trkpt>
      <trkpt lat="47.81019" lon="6.8459">
        <ele>1080.1999511719</ele>
        <time>2017-07-22T08:26:25Z</time>
      </trkpt>
      <trkpt lat="47.81016" lon="6.84616">
        <ele>1079.4000244141</ele>
        <time>2017-07-22T08:26:27Z</time>
      </trkpt>
      <trkpt lat="47.81013" lon="6.84627">
        <ele>1079</ele>
        <time>2017-07-22T08:26:28Z</time>
      </trkpt>
      <trkpt lat="47.81006" lon="6.84643">
        <ele>1078</ele>
        <time>2017-07-22T08:26:30Z</time>
      </trkpt>
      <trkpt lat="47.81001" lon="6.84651">
        <ele>1076.5999755859</ele>
        <time>2017-07-22T08:26:32Z</time>
      </trkpt>
      <trkpt lat="47.81" lon="6.84652">
        <ele>1076</ele>
        <time>2017-07-22T08:26:33Z</time>
      </trkpt>
      <trkpt lat="47.80998" lon="6.84652">
        <ele>1073.8000488281</ele>
        <time>2017-07-22T08:26:44Z</time>
      </trkpt>
      <trkpt lat="47.80996" lon="6.84656">
        <ele>1073.8000488281</ele>
        <time>2017-07-22T08:26:46Z</time>
      </trkpt>
      <trkpt lat="47.80982" lon="6.84674">
        <ele>1073.4000244141</ele>
        <time>2017-07-22T08:26:51Z</time>
      </trkpt>
      <trkpt lat="47.80962" lon="6.84686">
        <ele>1072.8000488281</ele>
        <time>2017-07-22T08:26:55Z</time>
      </trkpt>
      <trkpt lat="47.80957" lon="6.84687">
        <ele>1072.4000244141</ele>
        <time>2017-07-22T08:26:56Z</time>
      </trkpt>
      <trkpt lat="47.80939" lon="6.84691">
        <ele>1071.5999755859</ele>
        <time>2017-07-22T08:26:59Z</time>
      </trkpt>
      <trkpt lat="47.80924" lon="6.84693">
        <ele>1070.8000488281</ele>
        <time>2017-07-22T08:27:01Z</time>
      </trkpt>
      <trkpt lat="47.80909" lon="6.84696">
        <ele>1070.1999511719</ele>
        <time>2017-07-22T08:27:03Z</time>
      </trkpt>
      <trkpt lat="47.80887" lon="6.84704">
        <ele>1069.1999511719</ele>
        <time>2017-07-22T08:27:06Z</time>
      </trkpt>
      <trkpt lat="47.80868" lon="6.84715">
        <ele>1067.8000488281</ele>
        <time>2017-07-22T08:27:09Z</time>
      </trkpt>
      <trkpt lat="47.80847" lon="6.84728">
        <ele>1066.8000488281</ele>
        <time>2017-07-22T08:27:11Z</time>
      </trkpt>
      <trkpt lat="47.80838" lon="6.84734">
        <ele>1066.4000244141</ele>
        <time>2017-07-22T08:27:12Z</time>
      </trkpt>
      <trkpt lat="47.8082" lon="6.84743">
        <ele>1065</ele>
        <time>2017-07-22T08:27:14Z</time>
      </trkpt>
      <trkpt lat="47.80811" lon="6.84745">
        <ele>1064.4000244141</ele>
        <time>2017-07-22T08:27:15Z</time>
      </trkpt>
      <trkpt lat="47.80799" lon="6.84747">
        <ele>1063.8000488281</ele>
        <time>2017-07-22T08:27:16Z</time>
      </trkpt>
      <trkpt lat="47.80766" lon="6.84748">
        <ele>1062.4000244141</ele>
        <time>2017-07-22T08:27:19Z</time>
      </trkpt>
      <trkpt lat="47.80745" lon="6.84747">
        <ele>1061.4000244141</ele>
        <time>2017-07-22T08:27:21Z</time>
      </trkpt>
      <trkpt lat="47.80734" lon="6.84746">
        <ele>1061</ele>
        <time>2017-07-22T08:27:22Z</time>
      </trkpt>
      <trkpt lat="47.80712" lon="6.84741">
        <ele>1059.8000488281</ele>
        <time>2017-07-22T08:27:24Z</time>
      </trkpt>
      <trkpt lat="47.8069" lon="6.84735">
        <ele>1058.8000488281</ele>
        <time>2017-07-22T08:27:26Z</time>
      </trkpt>
      <trkpt lat="47.8068" lon="6.8473">
        <ele>1058.1999511719</ele>
        <time>2017-07-22T08:27:27Z</time>
      </trkpt>
      <trkpt lat="47.8067" lon="6.84724">
        <ele>1057.5999755859</ele>
        <time>2017-07-22T08:27:28Z</time>
      </trkpt>
      <trkpt lat="47.80649" lon="6.84712">
        <ele>1056.4000244141</ele>
        <time>2017-07-22T08:27:30Z</time>
      </trkpt>
      <trkpt lat="47.80628" lon="6.847">
        <ele>1055.1999511719</ele>
        <time>2017-07-22T08:27:32Z</time>
      </trkpt>
      <trkpt lat="47.80617" lon="6.84694">
        <ele>1054.5999755859</ele>
        <time>2017-07-22T08:27:33Z</time>
      </trkpt>
      <trkpt lat="47.80606" lon="6.84689">
        <ele>1054</ele>
        <time>2017-07-22T08:27:34Z</time>
      </trkpt>
      <trkpt lat="47.80585" lon="6.84681">
        <ele>1052.8000488281</ele>
        <time>2017-07-22T08:27:36Z</time>
      </trkpt>
      <trkpt lat="47.80575" lon="6.84678">
        <ele>1051.5999755859</ele>
        <time>2017-07-22T08:27:37Z</time>
      </trkpt>
      <trkpt lat="47.80564" lon="6.84677">
        <ele>1051</ele>
        <time>2017-07-22T08:27:38Z</time>
      </trkpt>
      <trkpt lat="47.80554" lon="6.84675">
        <ele>1050.5999755859</ele>
        <time>2017-07-22T08:27:39Z</time>
      </trkpt>
      <trkpt lat="47.80539" lon="6.84672">
        <ele>1049.5999755859</ele>
        <time>2017-07-22T08:27:41Z</time>
      </trkpt>
      <trkpt lat="47.80533" lon="6.84669">
        <ele>1049.1999511719</ele>
        <time>2017-07-22T08:27:42Z</time>
      </trkpt>
      <trkpt lat="47.80526" lon="6.84656">
        <ele>1048.1999511719</ele>
        <time>2017-07-22T08:27:44Z</time>
      </trkpt>
      <trkpt lat="47.80529" lon="6.84647">
        <ele>1048</ele>
        <time>2017-07-22T08:27:45Z</time>
      </trkpt>
      <trkpt lat="47.80532" lon="6.84642">
        <ele>1047.8000488281</ele>
        <time>2017-07-22T08:27:46Z</time>
      </trkpt>
      <trkpt lat="47.8054" lon="6.84645">
        <ele>1047.1999511719</ele>
        <time>2017-07-22T08:27:48Z</time>
      </trkpt>
      <trkpt lat="47.80546" lon="6.84649">
        <ele>1047</ele>
        <time>2017-07-22T08:27:49Z</time>
      </trkpt>
      <trkpt lat="47.80554" lon="6.84652">
        <ele>1046.8000488281</ele>
        <time>2017-07-22T08:27:50Z</time>
      </trkpt>
      <trkpt lat="47.80561" lon="6.84655">
        <ele>1046.5999755859</ele>
        <time>2017-07-22T08:27:51Z</time>
      </trkpt>
      <trkpt lat="47.80569" lon="6.84657">
        <ele>1046.4000244141</ele>
        <time>2017-07-22T08:27:52Z</time>
      </trkpt>
      <trkpt lat="47.80586" lon="6.84663">
        <ele>1045.8000488281</ele>
        <time>2017-07-22T08:27:54Z</time>
      </trkpt>
      <trkpt lat="47.80613" lon="6.84669">
        <ele>1044.5999755859</ele>
        <time>2017-07-22T08:27:57Z</time>
      </trkpt>
      <trkpt lat="47.8064" lon="6.84673">
        <ele>1043.4000244141</ele>
        <time>2017-07-22T08:28:00Z</time>
      </trkpt>
      <trkpt lat="47.80658" lon="6.84673">
        <ele>1042.1999511719</ele>
        <time>2017-07-22T08:28:02Z</time>
      </trkpt>
      <trkpt lat="47.80678" lon="6.84673">
        <ele>1041.4000244141</ele>
        <time>2017-07-22T08:28:04Z</time>
      </trkpt>
      <trkpt lat="47.80688" lon="6.84672">
        <ele>1040.8000488281</ele>
        <time>2017-07-22T08:28:05Z</time>
      </trkpt>
      <trkpt lat="47.80721" lon="6.84669">
        <ele>1039.4000244141</ele>
        <time>2017-07-22T08:28:08Z</time>
      </trkpt>
      <trkpt lat="47.80742" lon="6.84665">
        <ele>1038.1999511719</ele>
        <time>2017-07-22T08:28:10Z</time>
      </trkpt>
      <trkpt lat="47.80763" lon="6.84657">
        <ele>1037.1999511719</ele>
        <time>2017-07-22T08:28:12Z</time>
      </trkpt>
      <trkpt lat="47.80773" lon="6.84651">
        <ele>1036.5999755859</ele>
        <time>2017-07-22T08:28:13Z</time>
      </trkpt>
      <trkpt lat="47.80783" lon="6.84643">
        <ele>1036</ele>
        <time>2017-07-22T08:28:14Z</time>
      </trkpt>
      <trkpt lat="47.80801" lon="6.8462">
        <ele>1035</ele>
        <time>2017-07-22T08:28:16Z</time>
      </trkpt>
      <trkpt lat="47.80809" lon="6.84609">
        <ele>1034.5999755859</ele>
        <time>2017-07-22T08:28:17Z</time>
      </trkpt>
      <trkpt lat="47.80818" lon="6.84598">
        <ele>1034</ele>
        <time>2017-07-22T08:28:18Z</time>
      </trkpt>
      <trkpt lat="47.80835" lon="6.84576">
        <ele>1033</ele>
        <time>2017-07-22T08:28:20Z</time>
      </trkpt>
      <trkpt lat="47.80852" lon="6.84555">
        <ele>1031.8000488281</ele>
        <time>2017-07-22T08:28:22Z</time>
      </trkpt>
      <trkpt lat="47.8086" lon="6.84543">
        <ele>1031.1999511719</ele>
        <time>2017-07-22T08:28:23Z</time>
      </trkpt>
      <trkpt lat="47.80869" lon="6.84531">
        <ele>1030.5999755859</ele>
        <time>2017-07-22T08:28:24Z</time>
      </trkpt>
      <trkpt lat="47.80877" lon="6.8452">
        <ele>1029.5999755859</ele>
        <time>2017-07-22T08:28:25Z</time>
      </trkpt>
      <trkpt lat="47.80893" lon="6.84499">
        <ele>1028.4000244141</ele>
        <time>2017-07-22T08:28:27Z</time>
      </trkpt>
      <trkpt lat="47.809" lon="6.8449">
        <ele>1028</ele>
        <time>2017-07-22T08:28:28Z</time>
      </trkpt>
      <trkpt lat="47.80906" lon="6.8448">
        <ele>1027.4000244141</ele>
        <time>2017-07-22T08:28:29Z</time>
      </trkpt>
      <trkpt lat="47.80907" lon="6.84456">
        <ele>1026.1999511719</ele>
        <time>2017-07-22T08:28:31Z</time>
      </trkpt>
      <trkpt lat="47.809" lon="6.84433">
        <ele>1025.1999511719</ele>
        <time>2017-07-22T08:28:33Z</time>
      </trkpt>
      <trkpt lat="47.80896" lon="6.84423">
        <ele>1024.5999755859</ele>
        <time>2017-07-22T08:28:34Z</time>
      </trkpt>
      <trkpt lat="47.80894" lon="6.84416">
        <ele>1024.1999511719</ele>
        <time>2017-07-22T08:28:35Z</time>
      </trkpt>
      <trkpt lat="47.80893" lon="6.84409">
        <ele>1023.799987793</ele>
        <time>2017-07-22T08:28:36Z</time>
      </trkpt>
      <trkpt lat="47.8089" lon="6.84407">
        <ele>1022.5999755859</ele>
        <time>2017-07-22T08:28:39Z</time>
      </trkpt>
      <trkpt lat="47.80874" lon="6.84428">
        <ele>1022</ele>
        <time>2017-07-22T08:28:41Z</time>
      </trkpt>
      <trkpt lat="47.80864" lon="6.84441">
        <ele>1021.5999755859</ele>
        <time>2017-07-22T08:28:42Z</time>
      </trkpt>
      <trkpt lat="47.80851" lon="6.84458">
        <ele>1021.200012207</ele>
        <time>2017-07-22T08:28:43Z</time>
      </trkpt>
      <trkpt lat="47.80839" lon="6.84473">
        <ele>1020.5999755859</ele>
        <time>2017-07-22T08:28:44Z</time>
      </trkpt>
      <trkpt lat="47.80828" lon="6.84488">
        <ele>1020.200012207</ele>
        <time>2017-07-22T08:28:45Z</time>
      </trkpt>
      <trkpt lat="47.80797" lon="6.84528">
        <ele>1019</ele>
        <time>2017-07-22T08:28:48Z</time>
      </trkpt>
      <trkpt lat="47.80776" lon="6.84551">
        <ele>1017.799987793</ele>
        <time>2017-07-22T08:28:50Z</time>
      </trkpt>
      <trkpt lat="47.80743" lon="6.84561">
        <ele>1016.4000244141</ele>
        <time>2017-07-22T08:28:53Z</time>
      </trkpt>
      <trkpt lat="47.80721" lon="6.84557">
        <ele>1015.200012207</ele>
        <time>2017-07-22T08:28:55Z</time>
      </trkpt>
      <trkpt lat="47.80699" lon="6.84553">
        <ele>1014.200012207</ele>
        <time>2017-07-22T08:28:57Z</time>
      </trkpt>
      <trkpt lat="47.80677" lon="6.84548">
        <ele>1013</ele>
        <time>2017-07-22T08:28:59Z</time>
      </trkpt>
      <trkpt lat="47.80655" lon="6.84545">
        <ele>1011.5999755859</ele>
        <time>2017-07-22T08:29:01Z</time>
      </trkpt>
      <trkpt lat="47.80632" lon="6.84537">
        <ele>1010.4000244141</ele>
        <time>2017-07-22T08:29:03Z</time>
      </trkpt>
      <trkpt lat="47.80611" lon="6.84526">
        <ele>1009.4000244141</ele>
        <time>2017-07-22T08:29:05Z</time>
      </trkpt>
      <trkpt lat="47.8059" lon="6.84515">
        <ele>1008.200012207</ele>
        <time>2017-07-22T08:29:07Z</time>
      </trkpt>
      <trkpt lat="47.80569" lon="6.84503">
        <ele>1007</ele>
        <time>2017-07-22T08:29:09Z</time>
      </trkpt>
      <trkpt lat="47.80549" lon="6.84489">
        <ele>1006</ele>
        <time>2017-07-22T08:29:11Z</time>
      </trkpt>
      <trkpt lat="47.80539" lon="6.84483">
        <ele>1005.4000244141</ele>
        <time>2017-07-22T08:29:12Z</time>
      </trkpt>
      <trkpt lat="47.80529" lon="6.84475">
        <ele>1004.799987793</ele>
        <time>2017-07-22T08:29:13Z</time>
      </trkpt>
      <trkpt lat="47.8052" lon="6.84465">
        <ele>1003.5999755859</ele>
        <time>2017-07-22T08:29:14Z</time>
      </trkpt>
      <trkpt lat="47.805" lon="6.84449">
        <ele>1002.200012207</ele>
        <time>2017-07-22T08:29:16Z</time>
      </trkpt>
      <trkpt lat="47.8049" lon="6.8444">
        <ele>1001.5999755859</ele>
        <time>2017-07-22T08:29:17Z</time>
      </trkpt>
      <trkpt lat="47.80479" lon="6.84433">
        <ele>1001</ele>
        <time>2017-07-22T08:29:18Z</time>
      </trkpt>
      <trkpt lat="47.80459" lon="6.84419">
        <ele>999.59997558594</ele>
        <time>2017-07-22T08:29:20Z</time>
      </trkpt>
      <trkpt lat="47.80438" lon="6.84406">
        <ele>998.20001220703</ele>
        <time>2017-07-22T08:29:22Z</time>
      </trkpt>
      <trkpt lat="47.80416" lon="6.84396">
        <ele>996.79998779297</ele>
        <time>2017-07-22T08:29:24Z</time>
      </trkpt>
      <trkpt lat="47.80394" lon="6.84388">
        <ele>995.59997558594</ele>
        <time>2017-07-22T08:29:26Z</time>
      </trkpt>
      <trkpt lat="47.80383" lon="6.84385">
        <ele>995</ele>
        <time>2017-07-22T08:29:27Z</time>
      </trkpt>
      <trkpt lat="47.80372" lon="6.84382">
        <ele>994.40002441406</ele>
        <time>2017-07-22T08:29:28Z</time>
      </trkpt>
      <trkpt lat="47.80349" lon="6.84378">
        <ele>993</ele>
        <time>2017-07-22T08:29:30Z</time>
      </trkpt>
      <trkpt lat="47.80326" lon="6.84375">
        <ele>991.79998779297</ele>
        <time>2017-07-22T08:29:32Z</time>
      </trkpt>
      <trkpt lat="47.80303" lon="6.84372">
        <ele>990.59997558594</ele>
        <time>2017-07-22T08:29:34Z</time>
      </trkpt>
      <trkpt lat="47.80279" lon="6.84367">
        <ele>989.40002441406</ele>
        <time>2017-07-22T08:29:36Z</time>
      </trkpt>
      <trkpt lat="47.80267" lon="6.84364">
        <ele>988.79998779297</ele>
        <time>2017-07-22T08:29:37Z</time>
      </trkpt>
      <trkpt lat="47.80256" lon="6.84358">
        <ele>987.79998779297</ele>
        <time>2017-07-22T08:29:38Z</time>
      </trkpt>
      <trkpt lat="47.80233" lon="6.84346">
        <ele>986.59997558594</ele>
        <time>2017-07-22T08:29:40Z</time>
      </trkpt>
      <trkpt lat="47.80211" lon="6.84335">
        <ele>985.20001220703</ele>
        <time>2017-07-22T08:29:42Z</time>
      </trkpt>
      <trkpt lat="47.80188" lon="6.84327">
        <ele>983.79998779297</ele>
        <time>2017-07-22T08:29:44Z</time>
      </trkpt>
      <trkpt lat="47.80167" lon="6.84333">
        <ele>982.59997558594</ele>
        <time>2017-07-22T08:29:46Z</time>
      </trkpt>
      <trkpt lat="47.80156" lon="6.84345">
        <ele>982</ele>
        <time>2017-07-22T08:29:47Z</time>
      </trkpt>
      <trkpt lat="47.80148" lon="6.84359">
        <ele>981.40002441406</ele>
        <time>2017-07-22T08:29:48Z</time>
      </trkpt>
      <trkpt lat="47.80134" lon="6.84386">
        <ele>980</ele>
        <time>2017-07-22T08:29:50Z</time>
      </trkpt>
      <trkpt lat="47.80123" lon="6.84415">
        <ele>978.59997558594</ele>
        <time>2017-07-22T08:29:52Z</time>
      </trkpt>
      <trkpt lat="47.80112" lon="6.84445">
        <ele>977.40002441406</ele>
        <time>2017-07-22T08:29:54Z</time>
      </trkpt>
      <trkpt lat="47.80107" lon="6.8446">
        <ele>976.79998779297</ele>
        <time>2017-07-22T08:29:55Z</time>
      </trkpt>
      <trkpt lat="47.80102" lon="6.84475">
        <ele>976.20001220703</ele>
        <time>2017-07-22T08:29:56Z</time>
      </trkpt>
      <trkpt lat="47.80088" lon="6.84502">
        <ele>975</ele>
        <time>2017-07-22T08:29:58Z</time>
      </trkpt>
      <trkpt lat="47.80078" lon="6.84512">
        <ele>974.40002441406</ele>
        <time>2017-07-22T08:29:59Z</time>
      </trkpt>
      <trkpt lat="47.80068" lon="6.84521">
        <ele>974</ele>
        <time>2017-07-22T08:30:00Z</time>
      </trkpt>
      <trkpt lat="47.80045" lon="6.84534">
        <ele>972.59997558594</ele>
        <time>2017-07-22T08:30:02Z</time>
      </trkpt>
      <trkpt lat="47.8001" lon="6.84546">
        <ele>971.40002441406</ele>
        <time>2017-07-22T08:30:05Z</time>
      </trkpt>
      <trkpt lat="47.79999" lon="6.84547">
        <ele>971</ele>
        <time>2017-07-22T08:30:06Z</time>
      </trkpt>
      <trkpt lat="47.79976" lon="6.84547">
        <ele>969.79998779297</ele>
        <time>2017-07-22T08:30:08Z</time>
      </trkpt>
      <trkpt lat="47.79952" lon="6.84542">
        <ele>968.59997558594</ele>
        <time>2017-07-22T08:30:10Z</time>
      </trkpt>
      <trkpt lat="47.79928" lon="6.84534">
        <ele>967.20001220703</ele>
        <time>2017-07-22T08:30:12Z</time>
      </trkpt>
      <trkpt lat="47.79918" lon="6.84526">
        <ele>966.59997558594</ele>
        <time>2017-07-22T08:30:13Z</time>
      </trkpt>
      <trkpt lat="47.79908" lon="6.84517">
        <ele>966</ele>
        <time>2017-07-22T08:30:14Z</time>
      </trkpt>
      <trkpt lat="47.79888" lon="6.84498">
        <ele>964.59997558594</ele>
        <time>2017-07-22T08:30:16Z</time>
      </trkpt>
      <trkpt lat="47.79869" lon="6.84477">
        <ele>963.20001220703</ele>
        <time>2017-07-22T08:30:18Z</time>
      </trkpt>
      <trkpt lat="47.7985" lon="6.84455">
        <ele>962</ele>
        <time>2017-07-22T08:30:20Z</time>
      </trkpt>
      <trkpt lat="47.79834" lon="6.84428">
        <ele>960.59997558594</ele>
        <time>2017-07-22T08:30:22Z</time>
      </trkpt>
      <trkpt lat="47.79817" lon="6.84401">
        <ele>959.20001220703</ele>
        <time>2017-07-22T08:30:24Z</time>
      </trkpt>
      <trkpt lat="47.798" lon="6.84375">
        <ele>957</ele>
        <time>2017-07-22T08:30:26Z</time>
      </trkpt>
      <trkpt lat="47.79781" lon="6.84353">
        <ele>955.79998779297</ele>
        <time>2017-07-22T08:30:28Z</time>
      </trkpt>
      <trkpt lat="47.79761" lon="6.84336">
        <ele>954.59997558594</ele>
        <time>2017-07-22T08:30:30Z</time>
      </trkpt>
      <trkpt lat="47.79741" lon="6.84317">
        <ele>953.40002441406</ele>
        <time>2017-07-22T08:30:32Z</time>
      </trkpt>
      <trkpt lat="47.79731" lon="6.84306">
        <ele>952.59997558594</ele>
        <time>2017-07-22T08:30:33Z</time>
      </trkpt>
      <trkpt lat="47.79721" lon="6.84296">
        <ele>952</ele>
        <time>2017-07-22T08:30:34Z</time>
      </trkpt>
      <trkpt lat="47.79699" lon="6.84277">
        <ele>950.79998779297</ele>
        <time>2017-07-22T08:30:36Z</time>
      </trkpt>
      <trkpt lat="47.79678" lon="6.84261">
        <ele>949.40002441406</ele>
        <time>2017-07-22T08:30:38Z</time>
      </trkpt>
      <trkpt lat="47.7966" lon="6.84244">
        <ele>948</ele>
        <time>2017-07-22T08:30:40Z</time>
      </trkpt>
      <trkpt lat="47.79653" lon="6.84236">
        <ele>947.20001220703</ele>
        <time>2017-07-22T08:30:41Z</time>
      </trkpt>
      <trkpt lat="47.79645" lon="6.84228">
        <ele>946.59997558594</ele>
        <time>2017-07-22T08:30:42Z</time>
      </trkpt>
      <trkpt lat="47.79634" lon="6.84214">
        <ele>945</ele>
        <time>2017-07-22T08:30:44Z</time>
      </trkpt>
      <trkpt lat="47.7963" lon="6.84207">
        <ele>944.20001220703</ele>
        <time>2017-07-22T08:30:45Z</time>
      </trkpt>
      <trkpt lat="47.79629" lon="6.842">
        <ele>943.59997558594</ele>
        <time>2017-07-22T08:30:46Z</time>
      </trkpt>
      <trkpt lat="47.79625" lon="6.84193">
        <ele>942.59997558594</ele>
        <time>2017-07-22T08:30:48Z</time>
      </trkpt>
      <trkpt lat="47.79621" lon="6.84195">
        <ele>941.79998779297</ele>
        <time>2017-07-22T08:30:50Z</time>
      </trkpt>
      <trkpt lat="47.7962" lon="6.842">
        <ele>941.59997558594</ele>
        <time>2017-07-22T08:30:51Z</time>
      </trkpt>
      <trkpt lat="47.79622" lon="6.84206">
        <ele>941.40002441406</ele>
        <time>2017-07-22T08:30:52Z</time>
      </trkpt>
      <trkpt lat="47.79625" lon="6.84212">
        <ele>941.20001220703</ele>
        <time>2017-07-22T08:30:53Z</time>
      </trkpt>
      <trkpt lat="47.79629" lon="6.8422">
        <ele>940.79998779297</ele>
        <time>2017-07-22T08:30:54Z</time>
      </trkpt>
      <trkpt lat="47.79633" lon="6.84228">
        <ele>940.40002441406</ele>
        <time>2017-07-22T08:30:55Z</time>
      </trkpt>
      <trkpt lat="47.79645" lon="6.84245">
        <ele>939.40002441406</ele>
        <time>2017-07-22T08:30:57Z</time>
      </trkpt>
      <trkpt lat="47.79651" lon="6.84251">
        <ele>938.79998779297</ele>
        <time>2017-07-22T08:30:58Z</time>
      </trkpt>
      <trkpt lat="47.79682" lon="6.84278">
        <ele>937.59997558594</ele>
        <time>2017-07-22T08:31:01Z</time>
      </trkpt>
      <trkpt lat="47.79717" lon="6.84287">
        <ele>937</ele>
        <time>2017-07-22T08:31:04Z</time>
      </trkpt>
      <trkpt lat="47.79729" lon="6.8429">
        <ele>936.79998779297</ele>
        <time>2017-07-22T08:31:05Z</time>
      </trkpt>
      <trkpt lat="47.79743" lon="6.84292">
        <ele>936.59997558594</ele>
        <time>2017-07-22T08:31:06Z</time>
      </trkpt>
      <trkpt lat="47.798" lon="6.84308">
        <ele>935.20001220703</ele>
        <time>2017-07-22T08:31:10Z</time>
      </trkpt>
      <trkpt lat="47.79826" lon="6.84322">
        <ele>934</ele>
        <time>2017-07-22T08:31:12Z</time>
      </trkpt>
      <trkpt lat="47.79839" lon="6.84329">
        <ele>933.40002441406</ele>
        <time>2017-07-22T08:31:13Z</time>
      </trkpt>
      <trkpt lat="47.79851" lon="6.84337">
        <ele>932.40002441406</ele>
        <time>2017-07-22T08:31:14Z</time>
      </trkpt>
      <trkpt lat="47.79863" lon="6.84345">
        <ele>932</ele>
        <time>2017-07-22T08:31:15Z</time>
      </trkpt>
      <trkpt lat="47.79887" lon="6.84362">
        <ele>930.79998779297</ele>
        <time>2017-07-22T08:31:17Z</time>
      </trkpt>
      <trkpt lat="47.79913" lon="6.8438">
        <ele>929.59997558594</ele>
        <time>2017-07-22T08:31:19Z</time>
      </trkpt>
      <trkpt lat="47.79937" lon="6.84396">
        <ele>928.40002441406</ele>
        <time>2017-07-22T08:31:21Z</time>
      </trkpt>
      <trkpt lat="47.7996" lon="6.84407">
        <ele>927.20001220703</ele>
        <time>2017-07-22T08:31:23Z</time>
      </trkpt>
      <trkpt lat="47.79971" lon="6.84411">
        <ele>926.59997558594</ele>
        <time>2017-07-22T08:31:24Z</time>
      </trkpt>
      <trkpt lat="47.79982" lon="6.84413">
        <ele>926</ele>
        <time>2017-07-22T08:31:25Z</time>
      </trkpt>
      <trkpt lat="47.80001" lon="6.84411">
        <ele>925</ele>
        <time>2017-07-22T08:31:27Z</time>
      </trkpt>
      <trkpt lat="47.80018" lon="6.8439">
        <ele>924</ele>
        <time>2017-07-22T08:31:29Z</time>
      </trkpt>
      <trkpt lat="47.80023" lon="6.84376">
        <ele>923.79998779297</ele>
        <time>2017-07-22T08:31:30Z</time>
      </trkpt>
      <trkpt lat="47.80032" lon="6.84348">
        <ele>923.20001220703</ele>
        <time>2017-07-22T08:31:32Z</time>
      </trkpt>
      <trkpt lat="47.80042" lon="6.84303">
        <ele>922.59997558594</ele>
        <time>2017-07-22T08:31:35Z</time>
      </trkpt>
      <trkpt lat="47.80048" lon="6.84274">
        <ele>921.79998779297</ele>
        <time>2017-07-22T08:31:37Z</time>
      </trkpt>
      <trkpt lat="47.80051" lon="6.8426">
        <ele>920.79998779297</ele>
        <time>2017-07-22T08:31:38Z</time>
      </trkpt>
      <trkpt lat="47.80058" lon="6.84232">
        <ele>919.79998779297</ele>
        <time>2017-07-22T08:31:40Z</time>
      </trkpt>
      <trkpt lat="47.80063" lon="6.84218">
        <ele>919.20001220703</ele>
        <time>2017-07-22T08:31:41Z</time>
      </trkpt>
      <trkpt lat="47.8007" lon="6.84204">
        <ele>918.59997558594</ele>
        <time>2017-07-22T08:31:42Z</time>
      </trkpt>
      <trkpt lat="47.80085" lon="6.84177">
        <ele>917.59997558594</ele>
        <time>2017-07-22T08:31:44Z</time>
      </trkpt>
      <trkpt lat="47.80093" lon="6.84166">
        <ele>917</ele>
        <time>2017-07-22T08:31:45Z</time>
      </trkpt>
      <trkpt lat="47.801" lon="6.84155">
        <ele>916.40002441406</ele>
        <time>2017-07-22T08:31:46Z</time>
      </trkpt>
      <trkpt lat="47.80117" lon="6.84135">
        <ele>915</ele>
        <time>2017-07-22T08:31:48Z</time>
      </trkpt>
      <trkpt lat="47.80134" lon="6.84115">
        <ele>913.79998779297</ele>
        <time>2017-07-22T08:31:50Z</time>
      </trkpt>
      <trkpt lat="47.80143" lon="6.84106">
        <ele>913.20001220703</ele>
        <time>2017-07-22T08:31:51Z</time>
      </trkpt>
      <trkpt lat="47.80152" lon="6.84099">
        <ele>912.79998779297</ele>
        <time>2017-07-22T08:31:52Z</time>
      </trkpt>
      <trkpt lat="47.80173" lon="6.84093">
        <ele>911.79998779297</ele>
        <time>2017-07-22T08:31:54Z</time>
      </trkpt>
      <trkpt lat="47.80198" lon="6.84092">
        <ele>910.59997558594</ele>
        <time>2017-07-22T08:31:56Z</time>
      </trkpt>
      <trkpt lat="47.80223" lon="6.84097">
        <ele>909.20001220703</ele>
        <time>2017-07-22T08:31:58Z</time>
      </trkpt>
      <trkpt lat="47.80235" lon="6.841">
        <ele>908.59997558594</ele>
        <time>2017-07-22T08:31:59Z</time>
      </trkpt>
      <trkpt lat="47.80247" lon="6.84104">
        <ele>908</ele>
        <time>2017-07-22T08:32:00Z</time>
      </trkpt>
      <trkpt lat="47.8027" lon="6.84114">
        <ele>906</ele>
        <time>2017-07-22T08:32:02Z</time>
      </trkpt>
      <trkpt lat="47.80281" lon="6.84119">
        <ele>905.40002441406</ele>
        <time>2017-07-22T08:32:03Z</time>
      </trkpt>
      <trkpt lat="47.80292" lon="6.84124">
        <ele>904.79998779297</ele>
        <time>2017-07-22T08:32:04Z</time>
      </trkpt>
      <trkpt lat="47.80313" lon="6.84131">
        <ele>903.40002441406</ele>
        <time>2017-07-22T08:32:06Z</time>
      </trkpt>
      <trkpt lat="47.80325" lon="6.84131">
        <ele>902.59997558594</ele>
        <time>2017-07-22T08:32:07Z</time>
      </trkpt>
      <trkpt lat="47.80337" lon="6.8413">
        <ele>902</ele>
        <time>2017-07-22T08:32:08Z</time>
      </trkpt>
      <trkpt lat="47.80362" lon="6.84129">
        <ele>900.59997558594</ele>
        <time>2017-07-22T08:32:10Z</time>
      </trkpt>
      <trkpt lat="47.80387" lon="6.84126">
        <ele>899</ele>
        <time>2017-07-22T08:32:12Z</time>
      </trkpt>
      <trkpt lat="47.80413" lon="6.84126">
        <ele>897.59997558594</ele>
        <time>2017-07-22T08:32:14Z</time>
      </trkpt>
      <trkpt lat="47.80438" lon="6.84128">
        <ele>896.20001220703</ele>
        <time>2017-07-22T08:32:16Z</time>
      </trkpt>
      <trkpt lat="47.80462" lon="6.84131">
        <ele>894.79998779297</ele>
        <time>2017-07-22T08:32:18Z</time>
      </trkpt>
      <trkpt lat="47.80486" lon="6.84132">
        <ele>893.40002441406</ele>
        <time>2017-07-22T08:32:20Z</time>
      </trkpt>
      <trkpt lat="47.80498" lon="6.84136">
        <ele>892.59997558594</ele>
        <time>2017-07-22T08:32:21Z</time>
      </trkpt>
      <trkpt lat="47.80509" lon="6.84141">
        <ele>892</ele>
        <time>2017-07-22T08:32:22Z</time>
      </trkpt>
      <trkpt lat="47.80528" lon="6.84149">
        <ele>890.20001220703</ele>
        <time>2017-07-22T08:32:24Z</time>
      </trkpt>
      <trkpt lat="47.80536" lon="6.8415">
        <ele>889.20001220703</ele>
        <time>2017-07-22T08:32:25Z</time>
      </trkpt>
      <trkpt lat="47.80545" lon="6.84146">
        <ele>887.40002441406</ele>
        <time>2017-07-22T08:32:26Z</time>
      </trkpt>
      <trkpt lat="47.80554" lon="6.84141">
        <ele>886.79998779297</ele>
        <time>2017-07-22T08:32:27Z</time>
      </trkpt>
      <trkpt lat="47.8056" lon="6.84137">
        <ele>886</ele>
        <time>2017-07-22T08:32:28Z</time>
      </trkpt>
      <trkpt lat="47.80561" lon="6.84131">
        <ele>885.40002441406</ele>
        <time>2017-07-22T08:32:29Z</time>
      </trkpt>
      <trkpt lat="47.80558" lon="6.84122">
        <ele>885</ele>
        <time>2017-07-22T08:32:30Z</time>
      </trkpt>
      <trkpt lat="47.80553" lon="6.84116">
        <ele>884.59997558594</ele>
        <time>2017-07-22T08:32:31Z</time>
      </trkpt>
      <trkpt lat="47.80531" lon="6.84112">
        <ele>884</ele>
        <time>2017-07-22T08:32:33Z</time>
      </trkpt>
      <trkpt lat="47.8052" lon="6.84111">
        <ele>883.79998779297</ele>
        <time>2017-07-22T08:32:34Z</time>
      </trkpt>
      <trkpt lat="47.80509" lon="6.84108">
        <ele>883.59997558594</ele>
        <time>2017-07-22T08:32:35Z</time>
      </trkpt>
      <trkpt lat="47.80489" lon="6.84101">
        <ele>882.79998779297</ele>
        <time>2017-07-22T08:32:37Z</time>
      </trkpt>
      <trkpt lat="47.80478" lon="6.84096">
        <ele>882.40002441406</ele>
        <time>2017-07-22T08:32:38Z</time>
      </trkpt>
      <trkpt lat="47.80446" lon="6.84083">
        <ele>881</ele>
        <time>2017-07-22T08:32:41Z</time>
      </trkpt>
      <trkpt lat="47.80424" lon="6.84075">
        <ele>879.59997558594</ele>
        <time>2017-07-22T08:32:43Z</time>
      </trkpt>
      <trkpt lat="47.80401" lon="6.84063">
        <ele>878.40002441406</ele>
        <time>2017-07-22T08:32:45Z</time>
      </trkpt>
      <trkpt lat="47.80378" lon="6.8405">
        <ele>877.20001220703</ele>
        <time>2017-07-22T08:32:47Z</time>
      </trkpt>
      <trkpt lat="47.80356" lon="6.84036">
        <ele>876.20001220703</ele>
        <time>2017-07-22T08:32:49Z</time>
      </trkpt>
      <trkpt lat="47.80344" lon="6.84031">
        <ele>874.79998779297</ele>
        <time>2017-07-22T08:32:50Z</time>
      </trkpt>
      <trkpt lat="47.80332" lon="6.84027">
        <ele>874</ele>
        <time>2017-07-22T08:32:51Z</time>
      </trkpt>
      <trkpt lat="47.8032" lon="6.84023">
        <ele>873.20001220703</ele>
        <time>2017-07-22T08:32:52Z</time>
      </trkpt>
      <trkpt lat="47.80308" lon="6.8402">
        <ele>872.40002441406</ele>
        <time>2017-07-22T08:32:53Z</time>
      </trkpt>
      <trkpt lat="47.80295" lon="6.84015">
        <ele>871.79998779297</ele>
        <time>2017-07-22T08:32:54Z</time>
      </trkpt>
      <trkpt lat="47.8027" lon="6.84004">
        <ele>870.20001220703</ele>
        <time>2017-07-22T08:32:56Z</time>
      </trkpt>
      <trkpt lat="47.80258" lon="6.83997">
        <ele>869.40002441406</ele>
        <time>2017-07-22T08:32:57Z</time>
      </trkpt>
      <trkpt lat="47.80246" lon="6.83989">
        <ele>868.59997558594</ele>
        <time>2017-07-22T08:32:58Z</time>
      </trkpt>
      <trkpt lat="47.80224" lon="6.83974">
        <ele>867</ele>
        <time>2017-07-22T08:33:00Z</time>
      </trkpt>
      <trkpt lat="47.80202" lon="6.83962">
        <ele>865.40002441406</ele>
        <time>2017-07-22T08:33:02Z</time>
      </trkpt>
      <trkpt lat="47.8019" lon="6.83958">
        <ele>864.79998779297</ele>
        <time>2017-07-22T08:33:03Z</time>
      </trkpt>
      <trkpt lat="47.80178" lon="6.83955">
        <ele>864</ele>
        <time>2017-07-22T08:33:04Z</time>
      </trkpt>
      <trkpt lat="47.80153" lon="6.8395">
        <ele>862.20001220703</ele>
        <time>2017-07-22T08:33:06Z</time>
      </trkpt>
      <trkpt lat="47.80128" lon="6.83946">
        <ele>860.40002441406</ele>
        <time>2017-07-22T08:33:08Z</time>
      </trkpt>
      <trkpt lat="47.80116" lon="6.83944">
        <ele>859.40002441406</ele>
        <time>2017-07-22T08:33:09Z</time>
      </trkpt>
      <trkpt lat="47.80104" lon="6.83942">
        <ele>858.59997558594</ele>
        <time>2017-07-22T08:33:10Z</time>
      </trkpt>
      <trkpt lat="47.8008" lon="6.83944">
        <ele>857</ele>
        <time>2017-07-22T08:33:12Z</time>
      </trkpt>
      <trkpt lat="47.8006" lon="6.83959">
        <ele>854.59997558594</ele>
        <time>2017-07-22T08:33:14Z</time>
      </trkpt>
      <trkpt lat="47.80051" lon="6.83969">
        <ele>853.79998779297</ele>
        <time>2017-07-22T08:33:15Z</time>
      </trkpt>
      <trkpt lat="47.80039" lon="6.83977">
        <ele>853</ele>
        <time>2017-07-22T08:33:16Z</time>
      </trkpt>
      <trkpt lat="47.80013" lon="6.8399">
        <ele>851.20001220703</ele>
        <time>2017-07-22T08:33:18Z</time>
      </trkpt>
      <trkpt lat="47.80001" lon="6.83997">
        <ele>850.40002441406</ele>
        <time>2017-07-22T08:33:19Z</time>
      </trkpt>
      <trkpt lat="47.79994" lon="6.84003">
        <ele>849.59997558594</ele>
        <time>2017-07-22T08:33:20Z</time>
      </trkpt>
      <trkpt lat="47.79985" lon="6.8403">
        <ele>848.20001220703</ele>
        <time>2017-07-22T08:33:22Z</time>
      </trkpt>
      <trkpt lat="47.79977" lon="6.84057">
        <ele>847</ele>
        <time>2017-07-22T08:33:24Z</time>
      </trkpt>
      <trkpt lat="47.79973" lon="6.84068">
        <ele>846.40002441406</ele>
        <time>2017-07-22T08:33:25Z</time>
      </trkpt>
      <trkpt lat="47.79968" lon="6.84077">
        <ele>845.79998779297</ele>
        <time>2017-07-22T08:33:26Z</time>
      </trkpt>
      <trkpt lat="47.79949" lon="6.84089">
        <ele>844.40002441406</ele>
        <time>2017-07-22T08:33:28Z</time>
      </trkpt>
      <trkpt lat="47.79936" lon="6.84093">
        <ele>844</ele>
        <time>2017-07-22T08:33:29Z</time>
      </trkpt>
      <trkpt lat="47.79921" lon="6.84095">
        <ele>843.40002441406</ele>
        <time>2017-07-22T08:33:30Z</time>
      </trkpt>
      <trkpt lat="47.79893" lon="6.84097">
        <ele>842.40002441406</ele>
        <time>2017-07-22T08:33:32Z</time>
      </trkpt>
      <trkpt lat="47.79875" lon="6.84077">
        <ele>841.20001220703</ele>
        <time>2017-07-22T08:33:34Z</time>
      </trkpt>
      <trkpt lat="47.79856" lon="6.84061">
        <ele>839.79998779297</ele>
        <time>2017-07-22T08:33:36Z</time>
      </trkpt>
      <trkpt lat="47.79847" lon="6.84055">
        <ele>839</ele>
        <time>2017-07-22T08:33:37Z</time>
      </trkpt>
      <trkpt lat="47.79838" lon="6.8405">
        <ele>837.59997558594</ele>
        <time>2017-07-22T08:33:38Z</time>
      </trkpt>
      <trkpt lat="47.79819" lon="6.84042">
        <ele>836.20001220703</ele>
        <time>2017-07-22T08:33:40Z</time>
      </trkpt>
      <trkpt lat="47.79801" lon="6.84026">
        <ele>835</ele>
        <time>2017-07-22T08:33:42Z</time>
      </trkpt>
      <trkpt lat="47.79792" lon="6.84016">
        <ele>834.40002441406</ele>
        <time>2017-07-22T08:33:43Z</time>
      </trkpt>
      <trkpt lat="47.79786" lon="6.84003">
        <ele>833.79998779297</ele>
        <time>2017-07-22T08:33:44Z</time>
      </trkpt>
      <trkpt lat="47.79779" lon="6.83991">
        <ele>833.20001220703</ele>
        <time>2017-07-22T08:33:45Z</time>
      </trkpt>
      <trkpt lat="47.79771" lon="6.83981">
        <ele>832.40002441406</ele>
        <time>2017-07-22T08:33:46Z</time>
      </trkpt>
      <trkpt lat="47.79751" lon="6.83967">
        <ele>831</ele>
        <time>2017-07-22T08:33:48Z</time>
      </trkpt>
      <trkpt lat="47.79732" lon="6.8396">
        <ele>829.59997558594</ele>
        <time>2017-07-22T08:33:50Z</time>
      </trkpt>
      <trkpt lat="47.79723" lon="6.8396">
        <ele>828.79998779297</ele>
        <time>2017-07-22T08:33:51Z</time>
      </trkpt>
      <trkpt lat="47.79712" lon="6.83963">
        <ele>828</ele>
        <time>2017-07-22T08:33:52Z</time>
      </trkpt>
      <trkpt lat="47.79691" lon="6.83968">
        <ele>826</ele>
        <time>2017-07-22T08:33:54Z</time>
      </trkpt>
      <trkpt lat="47.79683" lon="6.83974">
        <ele>825</ele>
        <time>2017-07-22T08:33:55Z</time>
      </trkpt>
      <trkpt lat="47.79679" lon="6.83983">
        <ele>824.20001220703</ele>
        <time>2017-07-22T08:33:56Z</time>
      </trkpt>
      <trkpt lat="47.79677" lon="6.83993">
        <ele>823.40002441406</ele>
        <time>2017-07-22T08:33:57Z</time>
      </trkpt>
      <trkpt lat="47.79678" lon="6.84007">
        <ele>822.59997558594</ele>
        <time>2017-07-22T08:33:58Z</time>
      </trkpt>
      <trkpt lat="47.7968" lon="6.84021">
        <ele>822.20001220703</ele>
        <time>2017-07-22T08:33:59Z</time>
      </trkpt>
      <trkpt lat="47.79687" lon="6.8404">
        <ele>821.59997558594</ele>
        <time>2017-07-22T08:34:01Z</time>
      </trkpt>
      <trkpt lat="47.79692" lon="6.84049">
        <ele>821</ele>
        <time>2017-07-22T08:34:02Z</time>
      </trkpt>
      <trkpt lat="47.79698" lon="6.84055">
        <ele>820.79998779297</ele>
        <time>2017-07-22T08:34:03Z</time>
      </trkpt>
      <trkpt lat="47.79717" lon="6.84033">
        <ele>820.40002441406</ele>
        <time>2017-07-22T08:34:04Z</time>
      </trkpt>
      <trkpt lat="47.79726" lon="6.84033">
        <ele>820.20001220703</ele>
        <time>2017-07-22T08:34:05Z</time>
      </trkpt>
      <trkpt lat="47.79736" lon="6.84032">
        <ele>819.79998779297</ele>
        <time>2017-07-22T08:34:06Z</time>
      </trkpt>
      <trkpt lat="47.79751" lon="6.84021">
        <ele>819.20001220703</ele>
        <time>2017-07-22T08:34:07Z</time>
      </trkpt>
      <trkpt lat="47.79772" lon="6.84023">
        <ele>818.20001220703</ele>
        <time>2017-07-22T08:34:09Z</time>
      </trkpt>
      <trkpt lat="47.79784" lon="6.84021">
        <ele>817.79998779297</ele>
        <time>2017-07-22T08:34:10Z</time>
      </trkpt>
      <trkpt lat="47.798" lon="6.84012">
        <ele>817.20001220703</ele>
        <time>2017-07-22T08:34:11Z</time>
      </trkpt>
      <trkpt lat="47.79824" lon="6.84002">
        <ele>816</ele>
        <time>2017-07-22T08:34:13Z</time>
      </trkpt>
      <trkpt lat="47.79843" lon="6.83999">
        <ele>814.79998779297</ele>
        <time>2017-07-22T08:34:15Z</time>
      </trkpt>
      <trkpt lat="47.79865" lon="6.83998">
        <ele>813.59997558594</ele>
        <time>2017-07-22T08:34:17Z</time>
      </trkpt>
      <trkpt lat="47.79887" lon="6.84002">
        <ele>812.20001220703</ele>
        <time>2017-07-22T08:34:19Z</time>
      </trkpt>
      <trkpt lat="47.79909" lon="6.83998">
        <ele>811</ele>
        <time>2017-07-22T08:34:21Z</time>
      </trkpt>
      <trkpt lat="47.7993" lon="6.83981">
        <ele>809.59997558594</ele>
        <time>2017-07-22T08:34:23Z</time>
      </trkpt>
      <trkpt lat="47.79952" lon="6.8395">
        <ele>808.40002441406</ele>
        <time>2017-07-22T08:34:25Z</time>
      </trkpt>
      <trkpt lat="47.79963" lon="6.83935">
        <ele>807</ele>
        <time>2017-07-22T08:34:26Z</time>
      </trkpt>
      <trkpt lat="47.79984" lon="6.83907">
        <ele>805.59997558594</ele>
        <time>2017-07-22T08:34:28Z</time>
      </trkpt>
      <trkpt lat="47.79996" lon="6.83895">
        <ele>804.79998779297</ele>
        <time>2017-07-22T08:34:29Z</time>
      </trkpt>
      <trkpt lat="47.80008" lon="6.83887">
        <ele>804.20001220703</ele>
        <time>2017-07-22T08:34:30Z</time>
      </trkpt>
      <trkpt lat="47.80035" lon="6.83873">
        <ele>802.59997558594</ele>
        <time>2017-07-22T08:34:32Z</time>
      </trkpt>
      <trkpt lat="47.80047" lon="6.83869">
        <ele>801.79998779297</ele>
        <time>2017-07-22T08:34:33Z</time>
      </trkpt>
      <trkpt lat="47.80059" lon="6.83865">
        <ele>801</ele>
        <time>2017-07-22T08:34:34Z</time>
      </trkpt>
      <trkpt lat="47.80081" lon="6.83855">
        <ele>799.59997558594</ele>
        <time>2017-07-22T08:34:36Z</time>
      </trkpt>
      <trkpt lat="47.80094" lon="6.8385">
        <ele>798.79998779297</ele>
        <time>2017-07-22T08:34:37Z</time>
      </trkpt>
      <trkpt lat="47.80106" lon="6.83845">
        <ele>798.20001220703</ele>
        <time>2017-07-22T08:34:38Z</time>
      </trkpt>
      <trkpt lat="47.8013" lon="6.83834">
        <ele>796.79998779297</ele>
        <time>2017-07-22T08:34:40Z</time>
      </trkpt>
      <trkpt lat="47.80141" lon="6.83829">
        <ele>796.20001220703</ele>
        <time>2017-07-22T08:34:41Z</time>
      </trkpt>
      <trkpt lat="47.80152" lon="6.83825">
        <ele>795.40002441406</ele>
        <time>2017-07-22T08:34:42Z</time>
      </trkpt>
      <trkpt lat="47.80164" lon="6.83816">
        <ele>794.79998779297</ele>
        <time>2017-07-22T08:34:43Z</time>
      </trkpt>
      <trkpt lat="47.80176" lon="6.838">
        <ele>794</ele>
        <time>2017-07-22T08:34:44Z</time>
      </trkpt>
      <trkpt lat="47.80186" lon="6.83766">
        <ele>792.59997558594</ele>
        <time>2017-07-22T08:34:46Z</time>
      </trkpt>
      <trkpt lat="47.80188" lon="6.83732">
        <ele>791.20001220703</ele>
        <time>2017-07-22T08:34:48Z</time>
      </trkpt>
      <trkpt lat="47.80186" lon="6.83717">
        <ele>790.59997558594</ele>
        <time>2017-07-22T08:34:49Z</time>
      </trkpt>
      <trkpt lat="47.80184" lon="6.83704">
        <ele>789.59997558594</ele>
        <time>2017-07-22T08:34:50Z</time>
      </trkpt>
      <trkpt lat="47.80179" lon="6.83678">
        <ele>789</ele>
        <time>2017-07-22T08:34:52Z</time>
      </trkpt>
      <trkpt lat="47.80176" lon="6.83662">
        <ele>788.79998779297</ele>
        <time>2017-07-22T08:34:53Z</time>
      </trkpt>
      <trkpt lat="47.80174" lon="6.83645">
        <ele>788.40002441406</ele>
        <time>2017-07-22T08:34:54Z</time>
      </trkpt>
      <trkpt lat="47.80168" lon="6.83596">
        <ele>786.79998779297</ele>
        <time>2017-07-22T08:34:57Z</time>
      </trkpt>
      <trkpt lat="47.80163" lon="6.83565">
        <ele>785.59997558594</ele>
        <time>2017-07-22T08:34:59Z</time>
      </trkpt>
      <trkpt lat="47.80153" lon="6.83533">
        <ele>784.20001220703</ele>
        <time>2017-07-22T08:35:01Z</time>
      </trkpt>
      <trkpt lat="47.80142" lon="6.83501">
        <ele>782.79998779297</ele>
        <time>2017-07-22T08:35:03Z</time>
      </trkpt>
      <trkpt lat="47.80134" lon="6.8347">
        <ele>781</ele>
        <time>2017-07-22T08:35:05Z</time>
      </trkpt>
      <trkpt lat="47.80125" lon="6.83439">
        <ele>779.40002441406</ele>
        <time>2017-07-22T08:35:07Z</time>
      </trkpt>
      <trkpt lat="47.80122" lon="6.83424">
        <ele>778.59997558594</ele>
        <time>2017-07-22T08:35:08Z</time>
      </trkpt>
      <trkpt lat="47.80124" lon="6.8341">
        <ele>777.79998779297</ele>
        <time>2017-07-22T08:35:09Z</time>
      </trkpt>
      <trkpt lat="47.80128" lon="6.83397">
        <ele>777</ele>
        <time>2017-07-22T08:35:10Z</time>
      </trkpt>
      <trkpt lat="47.80136" lon="6.83387">
        <ele>776</ele>
        <time>2017-07-22T08:35:11Z</time>
      </trkpt>
      <trkpt lat="47.80144" lon="6.83367">
        <ele>774.20001220703</ele>
        <time>2017-07-22T08:35:13Z</time>
      </trkpt>
      <trkpt lat="47.80145" lon="6.83358">
        <ele>772.40002441406</ele>
        <time>2017-07-22T08:35:14Z</time>
      </trkpt>
      <trkpt lat="47.80139" lon="6.83343">
        <ele>770.79998779297</ele>
        <time>2017-07-22T08:35:16Z</time>
      </trkpt>
      <trkpt lat="47.80134" lon="6.8334">
        <ele>769.40002441406</ele>
        <time>2017-07-22T08:35:18Z</time>
      </trkpt>
      <trkpt lat="47.8013" lon="6.83347">
        <ele>769</ele>
        <time>2017-07-22T08:35:19Z</time>
      </trkpt>
      <trkpt lat="47.80124" lon="6.8336">
        <ele>768.59997558594</ele>
        <time>2017-07-22T08:35:20Z</time>
      </trkpt>
      <trkpt lat="47.80113" lon="6.83372">
        <ele>768.20001220703</ele>
        <time>2017-07-22T08:35:21Z</time>
      </trkpt>
      <trkpt lat="47.80083" lon="6.83411">
        <ele>766.79998779297</ele>
        <time>2017-07-22T08:35:24Z</time>
      </trkpt>
      <trkpt lat="47.80067" lon="6.83434">
        <ele>765.79998779297</ele>
        <time>2017-07-22T08:35:26Z</time>
      </trkpt>
      <trkpt lat="47.80059" lon="6.83446">
        <ele>765.40002441406</ele>
        <time>2017-07-22T08:35:27Z</time>
      </trkpt>
      <trkpt lat="47.80049" lon="6.83473">
        <ele>764.40002441406</ele>
        <time>2017-07-22T08:35:29Z</time>
      </trkpt>
      <trkpt lat="47.80045" lon="6.83488">
        <ele>764</ele>
        <time>2017-07-22T08:35:30Z</time>
      </trkpt>
      <trkpt lat="47.80041" lon="6.8352">
        <ele>762.79998779297</ele>
        <time>2017-07-22T08:35:32Z</time>
      </trkpt>
      <trkpt lat="47.80039" lon="6.83554">
        <ele>762</ele>
        <time>2017-07-22T08:35:34Z</time>
      </trkpt>
      <trkpt lat="47.8004" lon="6.83571">
        <ele>761.59997558594</ele>
        <time>2017-07-22T08:35:35Z</time>
      </trkpt>
      <trkpt lat="47.80042" lon="6.83589">
        <ele>761.20001220703</ele>
        <time>2017-07-22T08:35:36Z</time>
      </trkpt>
      <trkpt lat="47.80042" lon="6.83621">
        <ele>759.40002441406</ele>
        <time>2017-07-22T08:35:38Z</time>
      </trkpt>
      <trkpt lat="47.80035" lon="6.83649">
        <ele>757.79998779297</ele>
        <time>2017-07-22T08:35:40Z</time>
      </trkpt>
      <trkpt lat="47.80022" lon="6.83667">
        <ele>756.20001220703</ele>
        <time>2017-07-22T08:35:42Z</time>
      </trkpt>
      <trkpt lat="47.80002" lon="6.83676">
        <ele>754.20001220703</ele>
        <time>2017-07-22T08:35:44Z</time>
      </trkpt>
      <trkpt lat="47.79983" lon="6.83694">
        <ele>752.40002441406</ele>
        <time>2017-07-22T08:35:46Z</time>
      </trkpt>
      <trkpt lat="47.79971" lon="6.83699">
        <ele>751.59997558594</ele>
        <time>2017-07-22T08:35:47Z</time>
      </trkpt>
      <trkpt lat="47.79959" lon="6.83702">
        <ele>750.79998779297</ele>
        <time>2017-07-22T08:35:48Z</time>
      </trkpt>
      <trkpt lat="47.79934" lon="6.837">
        <ele>749.20001220703</ele>
        <time>2017-07-22T08:35:50Z</time>
      </trkpt>
      <trkpt lat="47.79922" lon="6.83698">
        <ele>748.40002441406</ele>
        <time>2017-07-22T08:35:51Z</time>
      </trkpt>
      <trkpt lat="47.7991" lon="6.83696">
        <ele>747.59997558594</ele>
        <time>2017-07-22T08:35:52Z</time>
      </trkpt>
      <trkpt lat="47.79886" lon="6.83687">
        <ele>745.79998779297</ele>
        <time>2017-07-22T08:35:54Z</time>
      </trkpt>
      <trkpt lat="47.79874" lon="6.8368">
        <ele>745</ele>
        <time>2017-07-22T08:35:55Z</time>
      </trkpt>
      <trkpt lat="47.79862" lon="6.83673">
        <ele>744</ele>
        <time>2017-07-22T08:35:56Z</time>
      </trkpt>
      <trkpt lat="47.79849" lon="6.83669">
        <ele>743.20001220703</ele>
        <time>2017-07-22T08:35:57Z</time>
      </trkpt>
      <trkpt lat="47.79837" lon="6.83668">
        <ele>742.40002441406</ele>
        <time>2017-07-22T08:35:58Z</time>
      </trkpt>
      <trkpt lat="47.79824" lon="6.83667">
        <ele>741.59997558594</ele>
        <time>2017-07-22T08:35:59Z</time>
      </trkpt>
      <trkpt lat="47.79812" lon="6.83665">
        <ele>740.79998779297</ele>
        <time>2017-07-22T08:36:00Z</time>
      </trkpt>
      <trkpt lat="47.79788" lon="6.83664">
        <ele>738.40002441406</ele>
        <time>2017-07-22T08:36:02Z</time>
      </trkpt>
      <trkpt lat="47.79765" lon="6.83666">
        <ele>736.59997558594</ele>
        <time>2017-07-22T08:36:04Z</time>
      </trkpt>
      <trkpt lat="47.79746" lon="6.83663">
        <ele>734.59997558594</ele>
        <time>2017-07-22T08:36:06Z</time>
      </trkpt>
      <trkpt lat="47.79739" lon="6.83662">
        <ele>733.79998779297</ele>
        <time>2017-07-22T08:36:07Z</time>
      </trkpt>
      <trkpt lat="47.79733" lon="6.83657">
        <ele>732.79998779297</ele>
        <time>2017-07-22T08:36:08Z</time>
      </trkpt>
      <trkpt lat="47.7973" lon="6.83641">
        <ele>731</ele>
        <time>2017-07-22T08:36:10Z</time>
      </trkpt>
      <trkpt lat="47.79741" lon="6.83628">
        <ele>729.20001220703</ele>
        <time>2017-07-22T08:36:12Z</time>
      </trkpt>
      <trkpt lat="47.79753" lon="6.83625">
        <ele>728</ele>
        <time>2017-07-22T08:36:14Z</time>
      </trkpt>
      <trkpt lat="47.7976" lon="6.83625">
        <ele>727.40002441406</ele>
        <time>2017-07-22T08:36:15Z</time>
      </trkpt>
      <trkpt lat="47.79768" lon="6.83623">
        <ele>727</ele>
        <time>2017-07-22T08:36:16Z</time>
      </trkpt>
      <trkpt lat="47.79777" lon="6.83623">
        <ele>726.59997558594</ele>
        <time>2017-07-22T08:36:17Z</time>
      </trkpt>
      <trkpt lat="47.79794" lon="6.83621">
        <ele>725.59997558594</ele>
        <time>2017-07-22T08:36:19Z</time>
      </trkpt>
      <trkpt lat="47.79802" lon="6.83619">
        <ele>725</ele>
        <time>2017-07-22T08:36:20Z</time>
      </trkpt>
      <trkpt lat="47.7982" lon="6.83613">
        <ele>723.79998779297</ele>
        <time>2017-07-22T08:36:22Z</time>
      </trkpt>
      <trkpt lat="47.7983" lon="6.83609">
        <ele>723.20001220703</ele>
        <time>2017-07-22T08:36:23Z</time>
      </trkpt>
      <trkpt lat="47.79841" lon="6.83606">
        <ele>722.59997558594</ele>
        <time>2017-07-22T08:36:24Z</time>
      </trkpt>
      <trkpt lat="47.79863" lon="6.83595">
        <ele>720.40002441406</ele>
        <time>2017-07-22T08:36:26Z</time>
      </trkpt>
      <trkpt lat="47.79874" lon="6.83585">
        <ele>719.59997558594</ele>
        <time>2017-07-22T08:36:27Z</time>
      </trkpt>
      <trkpt lat="47.79884" lon="6.83571">
        <ele>719</ele>
        <time>2017-07-22T08:36:28Z</time>
      </trkpt>
      <trkpt lat="47.79894" lon="6.83542">
        <ele>717.79998779297</ele>
        <time>2017-07-22T08:36:30Z</time>
      </trkpt>
      <trkpt lat="47.79895" lon="6.83513">
        <ele>716.79998779297</ele>
        <time>2017-07-22T08:36:32Z</time>
      </trkpt>
      <trkpt lat="47.79896" lon="6.83497">
        <ele>716.20001220703</ele>
        <time>2017-07-22T08:36:33Z</time>
      </trkpt>
      <trkpt lat="47.79899" lon="6.83483">
        <ele>715.59997558594</ele>
        <time>2017-07-22T08:36:34Z</time>
      </trkpt>
      <trkpt lat="47.7991" lon="6.83439">
        <ele>714.40002441406</ele>
        <time>2017-07-22T08:36:37Z</time>
      </trkpt>
      <trkpt lat="47.79915" lon="6.83424">
        <ele>713.79998779297</ele>
        <time>2017-07-22T08:36:38Z</time>
      </trkpt>
      <trkpt lat="47.79919" lon="6.83409">
        <ele>713.40002441406</ele>
        <time>2017-07-22T08:36:39Z</time>
      </trkpt>
      <trkpt lat="47.79932" lon="6.8338">
        <ele>712</ele>
        <time>2017-07-22T08:36:41Z</time>
      </trkpt>
      <trkpt lat="47.7994" lon="6.83367">
        <ele>711.40002441406</ele>
        <time>2017-07-22T08:36:42Z</time>
      </trkpt>
      <trkpt lat="47.79949" lon="6.83356">
        <ele>710.79998779297</ele>
        <time>2017-07-22T08:36:43Z</time>
      </trkpt>
      <trkpt lat="47.79967" lon="6.83337">
        <ele>709.20001220703</ele>
        <time>2017-07-22T08:36:45Z</time>
      </trkpt>
      <trkpt lat="47.79984" lon="6.83318">
        <ele>708</ele>
        <time>2017-07-22T08:36:47Z</time>
      </trkpt>
      <trkpt lat="47.8" lon="6.83303">
        <ele>706.79998779297</ele>
        <time>2017-07-22T08:36:49Z</time>
      </trkpt>
      <trkpt lat="47.80007" lon="6.83291">
        <ele>705.79998779297</ele>
        <time>2017-07-22T08:36:50Z</time>
      </trkpt>
      <trkpt lat="47.80012" lon="6.83277">
        <ele>705.40002441406</ele>
        <time>2017-07-22T08:36:51Z</time>
      </trkpt>
      <trkpt lat="47.80014" lon="6.83261">
        <ele>704.79998779297</ele>
        <time>2017-07-22T08:36:52Z</time>
      </trkpt>
      <trkpt lat="47.80015" lon="6.83227">
        <ele>703.79998779297</ele>
        <time>2017-07-22T08:36:54Z</time>
      </trkpt>
      <trkpt lat="47.80013" lon="6.83209">
        <ele>703.40002441406</ele>
        <time>2017-07-22T08:36:55Z</time>
      </trkpt>
      <trkpt lat="47.80012" lon="6.83193">
        <ele>702.59997558594</ele>
        <time>2017-07-22T08:36:56Z</time>
      </trkpt>
      <trkpt lat="47.80005" lon="6.83181">
        <ele>702</ele>
        <time>2017-07-22T08:36:57Z</time>
      </trkpt>
      <trkpt lat="47.79998" lon="6.83171">
        <ele>701.20001220703</ele>
        <time>2017-07-22T08:36:58Z</time>
      </trkpt>
      <trkpt lat="47.79981" lon="6.83156">
        <ele>700</ele>
        <time>2017-07-22T08:37:00Z</time>
      </trkpt>
      <trkpt lat="47.79972" lon="6.8315">
        <ele>699.59997558594</ele>
        <time>2017-07-22T08:37:01Z</time>
      </trkpt>
      <trkpt lat="47.79952" lon="6.83152">
        <ele>698.79998779297</ele>
        <time>2017-07-22T08:37:03Z</time>
      </trkpt>
      <trkpt lat="47.79941" lon="6.83156">
        <ele>698.40002441406</ele>
        <time>2017-07-22T08:37:04Z</time>
      </trkpt>
      <trkpt lat="47.79913" lon="6.83185">
        <ele>697.79998779297</ele>
        <time>2017-07-22T08:37:07Z</time>
      </trkpt>
      <trkpt lat="47.79896" lon="6.83211">
        <ele>697.20001220703</ele>
        <time>2017-07-22T08:37:09Z</time>
      </trkpt>
      <trkpt lat="47.79884" lon="6.83221">
        <ele>696.79998779297</ele>
        <time>2017-07-22T08:37:10Z</time>
      </trkpt>
      <trkpt lat="47.79862" lon="6.83229">
        <ele>695.79998779297</ele>
        <time>2017-07-22T08:37:12Z</time>
      </trkpt>
      <trkpt lat="47.7985" lon="6.83229">
        <ele>695.40002441406</ele>
        <time>2017-07-22T08:37:13Z</time>
      </trkpt>
      <trkpt lat="47.79839" lon="6.83225">
        <ele>694</ele>
        <time>2017-07-22T08:37:14Z</time>
      </trkpt>
      <trkpt lat="47.79828" lon="6.83222">
        <ele>693.40002441406</ele>
        <time>2017-07-22T08:37:15Z</time>
      </trkpt>
      <trkpt lat="47.79817" lon="6.8322">
        <ele>692.79998779297</ele>
        <time>2017-07-22T08:37:16Z</time>
      </trkpt>
      <trkpt lat="47.79795" lon="6.83213">
        <ele>691.59997558594</ele>
        <time>2017-07-22T08:37:18Z</time>
      </trkpt>
      <trkpt lat="47.79773" lon="6.83204">
        <ele>690.20001220703</ele>
        <time>2017-07-22T08:37:20Z</time>
      </trkpt>
      <trkpt lat="47.79761" lon="6.83199">
        <ele>689.59997558594</ele>
        <time>2017-07-22T08:37:21Z</time>
      </trkpt>
      <trkpt lat="47.79751" lon="6.83193">
        <ele>689</ele>
        <time>2017-07-22T08:37:22Z</time>
      </trkpt>
      <trkpt lat="47.7973" lon="6.83185">
        <ele>687.79998779297</ele>
        <time>2017-07-22T08:37:24Z</time>
      </trkpt>
      <trkpt lat="47.79719" lon="6.83184">
        <ele>687</ele>
        <time>2017-07-22T08:37:25Z</time>
      </trkpt>
      <trkpt lat="47.79708" lon="6.83184">
        <ele>686.40002441406</ele>
        <time>2017-07-22T08:37:26Z</time>
      </trkpt>
      <trkpt lat="47.79684" lon="6.8318">
        <ele>685</ele>
        <time>2017-07-22T08:37:28Z</time>
      </trkpt>
      <trkpt lat="47.79661" lon="6.83171">
        <ele>683.79998779297</ele>
        <time>2017-07-22T08:37:30Z</time>
      </trkpt>
      <trkpt lat="47.79638" lon="6.83161">
        <ele>682.40002441406</ele>
        <time>2017-07-22T08:37:32Z</time>
      </trkpt>
      <trkpt lat="47.79627" lon="6.83155">
        <ele>681.79998779297</ele>
        <time>2017-07-22T08:37:33Z</time>
      </trkpt>
      <trkpt lat="47.79615" lon="6.8315">
        <ele>681</ele>
        <time>2017-07-22T08:37:34Z</time>
      </trkpt>
      <trkpt lat="47.79592" lon="6.83138">
        <ele>679.40002441406</ele>
        <time>2017-07-22T08:37:36Z</time>
      </trkpt>
      <trkpt lat="47.7957" lon="6.83123">
        <ele>677.40002441406</ele>
        <time>2017-07-22T08:37:38Z</time>
      </trkpt>
      <trkpt lat="47.79559" lon="6.83117">
        <ele>676.79998779297</ele>
        <time>2017-07-22T08:37:39Z</time>
      </trkpt>
      <trkpt lat="47.79548" lon="6.83115">
        <ele>676.20001220703</ele>
        <time>2017-07-22T08:37:40Z</time>
      </trkpt>
      <trkpt lat="47.79535" lon="6.83119">
        <ele>675.40002441406</ele>
        <time>2017-07-22T08:37:41Z</time>
      </trkpt>
      <trkpt lat="47.79523" lon="6.83124">
        <ele>674.79998779297</ele>
        <time>2017-07-22T08:37:42Z</time>
      </trkpt>
      <trkpt lat="47.79498" lon="6.83134">
        <ele>673.40002441406</ele>
        <time>2017-07-22T08:37:44Z</time>
      </trkpt>
      <trkpt lat="47.79474" lon="6.83141">
        <ele>672.20001220703</ele>
        <time>2017-07-22T08:37:46Z</time>
      </trkpt>
      <trkpt lat="47.79462" lon="6.83143">
        <ele>671.59997558594</ele>
        <time>2017-07-22T08:37:47Z</time>
      </trkpt>
      <trkpt lat="47.79448" lon="6.83145">
        <ele>671</ele>
        <time>2017-07-22T08:37:48Z</time>
      </trkpt>
      <trkpt lat="47.79436" lon="6.8314">
        <ele>670.20001220703</ele>
        <time>2017-07-22T08:37:49Z</time>
      </trkpt>
      <trkpt lat="47.79427" lon="6.83131">
        <ele>669.59997558594</ele>
        <time>2017-07-22T08:37:50Z</time>
      </trkpt>
      <trkpt lat="47.79406" lon="6.83113">
        <ele>668.20001220703</ele>
        <time>2017-07-22T08:37:52Z</time>
      </trkpt>
      <trkpt lat="47.79385" lon="6.83098">
        <ele>666.59997558594</ele>
        <time>2017-07-22T08:37:54Z</time>
      </trkpt>
      <trkpt lat="47.79374" lon="6.83093">
        <ele>665.79998779297</ele>
        <time>2017-07-22T08:37:55Z</time>
      </trkpt>
      <trkpt lat="47.79362" lon="6.8309">
        <ele>665</ele>
        <time>2017-07-22T08:37:56Z</time>
      </trkpt>
      <trkpt lat="47.79339" lon="6.83085">
        <ele>663.40002441406</ele>
        <time>2017-07-22T08:37:58Z</time>
      </trkpt>
      <trkpt lat="47.79327" lon="6.83082">
        <ele>662.59997558594</ele>
        <time>2017-07-22T08:37:59Z</time>
      </trkpt>
      <trkpt lat="47.79316" lon="6.83079">
        <ele>662</ele>
        <time>2017-07-22T08:38:00Z</time>
      </trkpt>
      <trkpt lat="47.79293" lon="6.83067">
        <ele>660</ele>
        <time>2017-07-22T08:38:02Z</time>
      </trkpt>
      <trkpt lat="47.79283" lon="6.8306">
        <ele>659.40002441406</ele>
        <time>2017-07-22T08:38:03Z</time>
      </trkpt>
      <trkpt lat="47.79274" lon="6.83048">
        <ele>658.79998779297</ele>
        <time>2017-07-22T08:38:04Z</time>
      </trkpt>
      <trkpt lat="47.79256" lon="6.83024">
        <ele>657.20001220703</ele>
        <time>2017-07-22T08:38:06Z</time>
      </trkpt>
      <trkpt lat="47.79238" lon="6.83">
        <ele>655.59997558594</ele>
        <time>2017-07-22T08:38:08Z</time>
      </trkpt>
      <trkpt lat="47.79222" lon="6.82975">
        <ele>654.20001220703</ele>
        <time>2017-07-22T08:38:10Z</time>
      </trkpt>
      <trkpt lat="47.79207" lon="6.8295">
        <ele>653</ele>
        <time>2017-07-22T08:38:12Z</time>
      </trkpt>
      <trkpt lat="47.79199" lon="6.82939">
        <ele>652.20001220703</ele>
        <time>2017-07-22T08:38:13Z</time>
      </trkpt>
      <trkpt lat="47.79193" lon="6.82928">
        <ele>651.59997558594</ele>
        <time>2017-07-22T08:38:14Z</time>
      </trkpt>
      <trkpt lat="47.79179" lon="6.82911">
        <ele>650.40002441406</ele>
        <time>2017-07-22T08:38:16Z</time>
      </trkpt>
      <trkpt lat="47.79173" lon="6.82904">
        <ele>650</ele>
        <time>2017-07-22T08:38:17Z</time>
      </trkpt>
      <trkpt lat="47.79167" lon="6.82902">
        <ele>649.79998779297</ele>
        <time>2017-07-22T08:38:18Z</time>
      </trkpt>
      <trkpt lat="47.79154" lon="6.82907">
        <ele>649.20001220703</ele>
        <time>2017-07-22T08:38:20Z</time>
      </trkpt>
      <trkpt lat="47.7913" lon="6.82927">
        <ele>648.40002441406</ele>
        <time>2017-07-22T08:38:23Z</time>
      </trkpt>
      <trkpt lat="47.79105" lon="6.82951">
        <ele>648</ele>
        <time>2017-07-22T08:38:25Z</time>
      </trkpt>
      <trkpt lat="47.79084" lon="6.82968">
        <ele>646.79998779297</ele>
        <time>2017-07-22T08:38:27Z</time>
      </trkpt>
      <trkpt lat="47.79063" lon="6.82984">
        <ele>645.59997558594</ele>
        <time>2017-07-22T08:38:29Z</time>
      </trkpt>
      <trkpt lat="47.79052" lon="6.82987">
        <ele>645</ele>
        <time>2017-07-22T08:38:30Z</time>
      </trkpt>
      <trkpt lat="47.79042" lon="6.82987">
        <ele>644.59997558594</ele>
        <time>2017-07-22T08:38:31Z</time>
      </trkpt>
      <trkpt lat="47.79032" lon="6.82983">
        <ele>644</ele>
        <time>2017-07-22T08:38:32Z</time>
      </trkpt>
      <trkpt lat="47.79023" lon="6.82978">
        <ele>643.20001220703</ele>
        <time>2017-07-22T08:38:33Z</time>
      </trkpt>
      <trkpt lat="47.79014" lon="6.82973">
        <ele>642.59997558594</ele>
        <time>2017-07-22T08:38:34Z</time>
      </trkpt>
      <trkpt lat="47.79004" lon="6.8297">
        <ele>642</ele>
        <time>2017-07-22T08:38:35Z</time>
      </trkpt>
      <trkpt lat="47.78974" lon="6.82969">
        <ele>640.59997558594</ele>
        <time>2017-07-22T08:38:38Z</time>
      </trkpt>
      <trkpt lat="47.78963" lon="6.82972">
        <ele>640</ele>
        <time>2017-07-22T08:38:39Z</time>
      </trkpt>
      <trkpt lat="47.78953" lon="6.82975">
        <ele>639.59997558594</ele>
        <time>2017-07-22T08:38:40Z</time>
      </trkpt>
      <trkpt lat="47.78934" lon="6.82981">
        <ele>638.40002441406</ele>
        <time>2017-07-22T08:38:42Z</time>
      </trkpt>
      <trkpt lat="47.78924" lon="6.82984">
        <ele>637.79998779297</ele>
        <time>2017-07-22T08:38:43Z</time>
      </trkpt>
      <trkpt lat="47.78915" lon="6.82988">
        <ele>637.20001220703</ele>
        <time>2017-07-22T08:38:44Z</time>
      </trkpt>
      <trkpt lat="47.78894" lon="6.82998">
        <ele>636.20001220703</ele>
        <time>2017-07-22T08:38:46Z</time>
      </trkpt>
      <trkpt lat="47.78873" lon="6.83011">
        <ele>634.79998779297</ele>
        <time>2017-07-22T08:38:48Z</time>
      </trkpt>
      <trkpt lat="47.78862" lon="6.83018">
        <ele>634.40002441406</ele>
        <time>2017-07-22T08:38:49Z</time>
      </trkpt>
      <trkpt lat="47.78851" lon="6.83025">
        <ele>633.20001220703</ele>
        <time>2017-07-22T08:38:50Z</time>
      </trkpt>
      <trkpt lat="47.78829" lon="6.8304">
        <ele>632</ele>
        <time>2017-07-22T08:38:52Z</time>
      </trkpt>
      <trkpt lat="47.78806" lon="6.83056">
        <ele>630.59997558594</ele>
        <time>2017-07-22T08:38:54Z</time>
      </trkpt>
      <trkpt lat="47.78784" lon="6.83072">
        <ele>629.40002441406</ele>
        <time>2017-07-22T08:38:56Z</time>
      </trkpt>
      <trkpt lat="47.78773" lon="6.8308">
        <ele>628.59997558594</ele>
        <time>2017-07-22T08:38:57Z</time>
      </trkpt>
      <trkpt lat="47.78761" lon="6.8309">
        <ele>628</ele>
        <time>2017-07-22T08:38:58Z</time>
      </trkpt>
      <trkpt lat="47.78739" lon="6.83109">
        <ele>626.59997558594</ele>
        <time>2017-07-22T08:39:00Z</time>
      </trkpt>
      <trkpt lat="47.78718" lon="6.83129">
        <ele>625.40002441406</ele>
        <time>2017-07-22T08:39:02Z</time>
      </trkpt>
      <trkpt lat="47.78708" lon="6.83138">
        <ele>624.79998779297</ele>
        <time>2017-07-22T08:39:03Z</time>
      </trkpt>
      <trkpt lat="47.78698" lon="6.83147">
        <ele>624</ele>
        <time>2017-07-22T08:39:04Z</time>
      </trkpt>
      <trkpt lat="47.78678" lon="6.83167">
        <ele>622.79998779297</ele>
        <time>2017-07-22T08:39:06Z</time>
      </trkpt>
      <trkpt lat="47.78659" lon="6.83185">
        <ele>621.40002441406</ele>
        <time>2017-07-22T08:39:08Z</time>
      </trkpt>
      <trkpt lat="47.78638" lon="6.83205">
        <ele>620.20001220703</ele>
        <time>2017-07-22T08:39:10Z</time>
      </trkpt>
      <trkpt lat="47.78628" lon="6.83214">
        <ele>619.59997558594</ele>
        <time>2017-07-22T08:39:11Z</time>
      </trkpt>
      <trkpt lat="47.78617" lon="6.83224">
        <ele>618.79998779297</ele>
        <time>2017-07-22T08:39:12Z</time>
      </trkpt>
      <trkpt lat="47.786" lon="6.8324">
        <ele>617</ele>
        <time>2017-07-22T08:39:14Z</time>
      </trkpt>
      <trkpt lat="47.78583" lon="6.83258">
        <ele>616</ele>
        <time>2017-07-22T08:39:16Z</time>
      </trkpt>
      <trkpt lat="47.78575" lon="6.83268">
        <ele>615.40002441406</ele>
        <time>2017-07-22T08:39:17Z</time>
      </trkpt>
      <trkpt lat="47.78568" lon="6.83278">
        <ele>614.79998779297</ele>
        <time>2017-07-22T08:39:18Z</time>
      </trkpt>
      <trkpt lat="47.78553" lon="6.83301">
        <ele>613.40002441406</ele>
        <time>2017-07-22T08:39:20Z</time>
      </trkpt>
      <trkpt lat="47.78537" lon="6.83324">
        <ele>612</ele>
        <time>2017-07-22T08:39:22Z</time>
      </trkpt>
      <trkpt lat="47.78522" lon="6.83349">
        <ele>610.40002441406</ele>
        <time>2017-07-22T08:39:24Z</time>
      </trkpt>
      <trkpt lat="47.78505" lon="6.83374">
        <ele>609</ele>
        <time>2017-07-22T08:39:26Z</time>
      </trkpt>
      <trkpt lat="47.78488" lon="6.83401">
        <ele>607.79998779297</ele>
        <time>2017-07-22T08:39:28Z</time>
      </trkpt>
      <trkpt lat="47.78479" lon="6.83415">
        <ele>607.20001220703</ele>
        <time>2017-07-22T08:39:29Z</time>
      </trkpt>
      <trkpt lat="47.7847" lon="6.83424">
        <ele>606.40002441406</ele>
        <time>2017-07-22T08:39:30Z</time>
      </trkpt>
      <trkpt lat="47.78445" lon="6.83437">
        <ele>605</ele>
        <time>2017-07-22T08:39:32Z</time>
      </trkpt>
      <trkpt lat="47.7842" lon="6.83442">
        <ele>603.40002441406</ele>
        <time>2017-07-22T08:39:34Z</time>
      </trkpt>
      <trkpt lat="47.78407" lon="6.83444">
        <ele>602.40002441406</ele>
        <time>2017-07-22T08:39:35Z</time>
      </trkpt>
      <trkpt lat="47.78395" lon="6.83446">
        <ele>601.40002441406</ele>
        <time>2017-07-22T08:39:36Z</time>
      </trkpt>
      <trkpt lat="47.78373" lon="6.83444">
        <ele>598.59997558594</ele>
        <time>2017-07-22T08:39:38Z</time>
      </trkpt>
      <trkpt lat="47.78353" lon="6.8344">
        <ele>597</ele>
        <time>2017-07-22T08:39:40Z</time>
      </trkpt>
      <trkpt lat="47.78343" lon="6.83438">
        <ele>596.20001220703</ele>
        <time>2017-07-22T08:39:41Z</time>
      </trkpt>
      <trkpt lat="47.78333" lon="6.83437">
        <ele>595.59997558594</ele>
        <time>2017-07-22T08:39:42Z</time>
      </trkpt>
      <trkpt lat="47.78313" lon="6.83436">
        <ele>594.40002441406</ele>
        <time>2017-07-22T08:39:44Z</time>
      </trkpt>
      <trkpt lat="47.78292" lon="6.83433">
        <ele>593.20001220703</ele>
        <time>2017-07-22T08:39:46Z</time>
      </trkpt>
      <trkpt lat="47.78282" lon="6.83429">
        <ele>592.79998779297</ele>
        <time>2017-07-22T08:39:47Z</time>
      </trkpt>
      <trkpt lat="47.78263" lon="6.83417">
        <ele>591.79998779297</ele>
        <time>2017-07-22T08:39:49Z</time>
      </trkpt>
      <trkpt lat="47.78255" lon="6.8341">
        <ele>591.40002441406</ele>
        <time>2017-07-22T08:39:50Z</time>
      </trkpt>
      <trkpt lat="47.78246" lon="6.83404">
        <ele>591</ele>
        <time>2017-07-22T08:39:51Z</time>
      </trkpt>
      <trkpt lat="47.78238" lon="6.83397">
        <ele>590.59997558594</ele>
        <time>2017-07-22T08:39:52Z</time>
      </trkpt>
      <trkpt lat="47.782" lon="6.83367">
        <ele>589.20001220703</ele>
        <time>2017-07-22T08:39:56Z</time>
      </trkpt>
      <trkpt lat="47.7819" lon="6.83359">
        <ele>588.79998779297</ele>
        <time>2017-07-22T08:39:57Z</time>
      </trkpt>
      <trkpt lat="47.78168" lon="6.83344">
        <ele>587.79998779297</ele>
        <time>2017-07-22T08:39:59Z</time>
      </trkpt>
      <trkpt lat="47.78149" lon="6.8333">
        <ele>586.20001220703</ele>
        <time>2017-07-22T08:40:01Z</time>
      </trkpt>
      <trkpt lat="47.78141" lon="6.83325">
        <ele>585.40002441406</ele>
        <time>2017-07-22T08:40:02Z</time>
      </trkpt>
      <trkpt lat="47.78134" lon="6.83322">
        <ele>583.79998779297</ele>
        <time>2017-07-22T08:40:03Z</time>
      </trkpt>
      <trkpt lat="47.78127" lon="6.8332">
        <ele>583</ele>
        <time>2017-07-22T08:40:04Z</time>
      </trkpt>
      <trkpt lat="47.7812" lon="6.8332">
        <ele>582.40002441406</ele>
        <time>2017-07-22T08:40:05Z</time>
      </trkpt>
      <trkpt lat="47.78107" lon="6.83317">
        <ele>581.20001220703</ele>
        <time>2017-07-22T08:40:07Z</time>
      </trkpt>
      <trkpt lat="47.78093" lon="6.83314">
        <ele>580</ele>
        <time>2017-07-22T08:40:09Z</time>
      </trkpt>
      <trkpt lat="47.78074" lon="6.83323">
        <ele>578.59997558594</ele>
        <time>2017-07-22T08:40:11Z</time>
      </trkpt>
      <trkpt lat="47.78048" lon="6.83344">
        <ele>577.20001220703</ele>
        <time>2017-07-22T08:40:13Z</time>
      </trkpt>
      <trkpt lat="47.78023" lon="6.83355">
        <ele>575.79998779297</ele>
        <time>2017-07-22T08:40:15Z</time>
      </trkpt>
      <trkpt lat="47.78011" lon="6.83359">
        <ele>575.20001220703</ele>
        <time>2017-07-22T08:40:16Z</time>
      </trkpt>
      <trkpt lat="47.77998" lon="6.83363">
        <ele>574.59997558594</ele>
        <time>2017-07-22T08:40:17Z</time>
      </trkpt>
      <trkpt lat="47.77972" lon="6.8337">
        <ele>573.59997558594</ele>
        <time>2017-07-22T08:40:19Z</time>
      </trkpt>
      <trkpt lat="47.77936" lon="6.83384">
        <ele>572.20001220703</ele>
        <time>2017-07-22T08:40:22Z</time>
      </trkpt>
      <trkpt lat="47.77924" lon="6.83389">
        <ele>571.79998779297</ele>
        <time>2017-07-22T08:40:23Z</time>
      </trkpt>
      <trkpt lat="47.77908" lon="6.83389">
        <ele>571</ele>
        <time>2017-07-22T08:40:25Z</time>
      </trkpt>
      <trkpt lat="47.779" lon="6.83389">
        <ele>570.59997558594</ele>
        <time>2017-07-22T08:40:26Z</time>
      </trkpt>
      <trkpt lat="47.77894" lon="6.83388">
        <ele>569.79998779297</ele>
        <time>2017-07-22T08:40:27Z</time>
      </trkpt>
      <trkpt lat="47.77872" lon="6.83401">
        <ele>569</ele>
        <time>2017-07-22T08:40:30Z</time>
      </trkpt>
      <trkpt lat="47.7786" lon="6.83419">
        <ele>568.59997558594</ele>
        <time>2017-07-22T08:40:32Z</time>
      </trkpt>
      <trkpt lat="47.77856" lon="6.8343">
        <ele>568.59997558594</ele>
        <time>2017-07-22T08:40:33Z</time>
      </trkpt>
      <trkpt lat="47.77848" lon="6.83453">
        <ele>568.20001220703</ele>
        <time>2017-07-22T08:40:35Z</time>
      </trkpt>
      <trkpt lat="47.77845" lon="6.83465">
        <ele>568.20001220703</ele>
        <time>2017-07-22T08:40:36Z</time>
      </trkpt>
      <trkpt lat="47.77842" lon="6.83477">
        <ele>568</ele>
        <time>2017-07-22T08:40:37Z</time>
      </trkpt>
      <trkpt lat="47.77838" lon="6.83501">
        <ele>567.59997558594</ele>
        <time>2017-07-22T08:40:39Z</time>
      </trkpt>
      <trkpt lat="47.77835" lon="6.83526">
        <ele>567.40002441406</ele>
        <time>2017-07-22T08:40:41Z</time>
      </trkpt>
      <trkpt lat="47.77832" lon="6.83536">
        <ele>567.20001220703</ele>
        <time>2017-07-22T08:40:42Z</time>
      </trkpt>
      <trkpt lat="47.77821" lon="6.8355">
        <ele>566.79998779297</ele>
        <time>2017-07-22T08:40:44Z</time>
      </trkpt>
      <trkpt lat="47.77815" lon="6.83554">
        <ele>566.59997558594</ele>
        <time>2017-07-22T08:40:45Z</time>
      </trkpt>
      <trkpt lat="47.77796" lon="6.83548">
        <ele>566.20001220703</ele>
        <time>2017-07-22T08:40:47Z</time>
      </trkpt>
      <trkpt lat="47.77778" lon="6.83537">
        <ele>565.79998779297</ele>
        <time>2017-07-22T08:40:49Z</time>
      </trkpt>
      <trkpt lat="47.77768" lon="6.8353">
        <ele>565.40002441406</ele>
        <time>2017-07-22T08:40:50Z</time>
      </trkpt>
      <trkpt lat="47.77759" lon="6.83524">
        <ele>564.59997558594</ele>
        <time>2017-07-22T08:40:51Z</time>
      </trkpt>
      <trkpt lat="47.77749" lon="6.83518">
        <ele>563.79998779297</ele>
        <time>2017-07-22T08:40:52Z</time>
      </trkpt>
      <trkpt lat="47.77729" lon="6.83505">
        <ele>562.40002441406</ele>
        <time>2017-07-22T08:40:54Z</time>
      </trkpt>
      <trkpt lat="47.7772" lon="6.83495">
        <ele>561.59997558594</ele>
        <time>2017-07-22T08:40:55Z</time>
      </trkpt>
      <trkpt lat="47.77711" lon="6.83482">
        <ele>560.79998779297</ele>
        <time>2017-07-22T08:40:56Z</time>
      </trkpt>
      <trkpt lat="47.77692" lon="6.83469">
        <ele>559.20001220703</ele>
        <time>2017-07-22T08:40:58Z</time>
      </trkpt>
      <trkpt lat="47.77684" lon="6.83459">
        <ele>558.40002441406</ele>
        <time>2017-07-22T08:40:59Z</time>
      </trkpt>
      <trkpt lat="47.77675" lon="6.83449">
        <ele>557.79998779297</ele>
        <time>2017-07-22T08:41:00Z</time>
      </trkpt>
      <trkpt lat="47.77657" lon="6.83429">
        <ele>556.59997558594</ele>
        <time>2017-07-22T08:41:02Z</time>
      </trkpt>
      <trkpt lat="47.77638" lon="6.83409">
        <ele>555.40002441406</ele>
        <time>2017-07-22T08:41:04Z</time>
      </trkpt>
      <trkpt lat="47.7763" lon="6.83397">
        <ele>555</ele>
        <time>2017-07-22T08:41:05Z</time>
      </trkpt>
      <trkpt lat="47.7762" lon="6.83387">
        <ele>554.40002441406</ele>
        <time>2017-07-22T08:41:06Z</time>
      </trkpt>
      <trkpt lat="47.77602" lon="6.83366">
        <ele>553</ele>
        <time>2017-07-22T08:41:08Z</time>
      </trkpt>
      <trkpt lat="47.77584" lon="6.83347">
        <ele>551.59997558594</ele>
        <time>2017-07-22T08:41:10Z</time>
      </trkpt>
      <trkpt lat="47.77567" lon="6.83328">
        <ele>550.40002441406</ele>
        <time>2017-07-22T08:41:12Z</time>
      </trkpt>
      <trkpt lat="47.77559" lon="6.83319">
        <ele>549.79998779297</ele>
        <time>2017-07-22T08:41:13Z</time>
      </trkpt>
      <trkpt lat="47.77551" lon="6.8331">
        <ele>549.40002441406</ele>
        <time>2017-07-22T08:41:14Z</time>
      </trkpt>
      <trkpt lat="47.77535" lon="6.8329">
        <ele>548</ele>
        <time>2017-07-22T08:41:16Z</time>
      </trkpt>
      <trkpt lat="47.77521" lon="6.83267">
        <ele>547.20001220703</ele>
        <time>2017-07-22T08:41:18Z</time>
      </trkpt>
      <trkpt lat="47.77514" lon="6.83255">
        <ele>546.79998779297</ele>
        <time>2017-07-22T08:41:19Z</time>
      </trkpt>
      <trkpt lat="47.77492" lon="6.83202">
        <ele>545.40002441406</ele>
        <time>2017-07-22T08:41:23Z</time>
      </trkpt>
      <trkpt lat="47.77471" lon="6.83148">
        <ele>544.20001220703</ele>
        <time>2017-07-22T08:41:27Z</time>
      </trkpt>
      <trkpt lat="47.77466" lon="6.83136">
        <ele>544</ele>
        <time>2017-07-22T08:41:28Z</time>
      </trkpt>
      <trkpt lat="47.77452" lon="6.83097">
        <ele>543.20001220703</ele>
        <time>2017-07-22T08:41:31Z</time>
      </trkpt>
      <trkpt lat="47.77431" lon="6.83049">
        <ele>542.40002441406</ele>
        <time>2017-07-22T08:41:35Z</time>
      </trkpt>
      <trkpt lat="47.77426" lon="6.83038">
        <ele>542.20001220703</ele>
        <time>2017-07-22T08:41:36Z</time>
      </trkpt>
      <trkpt lat="47.77402" lon="6.82995">
        <ele>541</ele>
        <time>2017-07-22T08:41:40Z</time>
      </trkpt>
      <trkpt lat="47.77396" lon="6.82984">
        <ele>540.79998779297</ele>
        <time>2017-07-22T08:41:41Z</time>
      </trkpt>
      <trkpt lat="47.7737" lon="6.82946">
        <ele>539.79998779297</ele>
        <time>2017-07-22T08:41:45Z</time>
      </trkpt>
      <trkpt lat="47.77363" lon="6.82939">
        <ele>539.59997558594</ele>
        <time>2017-07-22T08:41:46Z</time>
      </trkpt>
      <trkpt lat="47.77341" lon="6.82921">
        <ele>538.79998779297</ele>
        <time>2017-07-22T08:41:49Z</time>
      </trkpt>
      <trkpt lat="47.77333" lon="6.82917">
        <ele>538.59997558594</ele>
        <time>2017-07-22T08:41:50Z</time>
      </trkpt>
      <trkpt lat="47.77294" lon="6.82904">
        <ele>538</ele>
        <time>2017-07-22T08:41:55Z</time>
      </trkpt>
      <trkpt lat="47.77257" lon="6.82901">
        <ele>537.59997558594</ele>
        <time>2017-07-22T08:42:00Z</time>
      </trkpt>
      <trkpt lat="47.77249" lon="6.82902">
        <ele>537.59997558594</ele>
        <time>2017-07-22T08:42:01Z</time>
      </trkpt>
      <trkpt lat="47.77204" lon="6.82901">
        <ele>537</ele>
        <time>2017-07-22T08:42:07Z</time>
      </trkpt>
      <trkpt lat="47.77182" lon="6.82893">
        <ele>536.59997558594</ele>
        <time>2017-07-22T08:42:10Z</time>
      </trkpt>
      <trkpt lat="47.77168" lon="6.82886">
        <ele>536.20001220703</ele>
        <time>2017-07-22T08:42:12Z</time>
      </trkpt>
      <trkpt lat="47.77116" lon="6.82856">
        <ele>535.79998779297</ele>
        <time>2017-07-22T08:42:20Z</time>
      </trkpt>
      <trkpt lat="47.77074" lon="6.82838">
        <ele>535.59997558594</ele>
        <time>2017-07-22T08:42:26Z</time>
      </trkpt>
      <trkpt lat="47.77066" lon="6.82836">
        <ele>535.20001220703</ele>
        <time>2017-07-22T08:42:27Z</time>
      </trkpt>
      <trkpt lat="47.77042" lon="6.82826">
        <ele>534.40002441406</ele>
        <time>2017-07-22T08:42:30Z</time>
      </trkpt>
      <trkpt lat="47.77011" lon="6.82817">
        <ele>533.20001220703</ele>
        <time>2017-07-22T08:42:34Z</time>
      </trkpt>
      <trkpt lat="47.76973" lon="6.82806">
        <ele>532</ele>
        <time>2017-07-22T08:42:39Z</time>
      </trkpt>
      <trkpt lat="47.76959" lon="6.82801">
        <ele>531.79998779297</ele>
        <time>2017-07-22T08:42:41Z</time>
      </trkpt>
      <trkpt lat="47.76929" lon="6.82787">
        <ele>531</ele>
        <time>2017-07-22T08:42:45Z</time>
      </trkpt>
      <trkpt lat="47.76915" lon="6.82777">
        <ele>530.40002441406</ele>
        <time>2017-07-22T08:42:47Z</time>
      </trkpt>
      <trkpt lat="47.7689" lon="6.82752">
        <ele>530</ele>
        <time>2017-07-22T08:42:51Z</time>
      </trkpt>
      <trkpt lat="47.76884" lon="6.82746">
        <ele>529.79998779297</ele>
        <time>2017-07-22T08:42:52Z</time>
      </trkpt>
      <trkpt lat="47.76856" lon="6.82711">
        <ele>529.59997558594</ele>
        <time>2017-07-22T08:42:57Z</time>
      </trkpt>
      <trkpt lat="47.7684" lon="6.82691">
        <ele>529.40002441406</ele>
        <time>2017-07-22T08:43:00Z</time>
      </trkpt>
      <trkpt lat="47.76826" lon="6.82674">
        <ele>529.40002441406</ele>
        <time>2017-07-22T08:43:03Z</time>
      </trkpt>
      <trkpt lat="47.7681" lon="6.82661">
        <ele>529.59997558594</ele>
        <time>2017-07-22T08:43:06Z</time>
      </trkpt>
      <trkpt lat="47.76774" lon="6.82633">
        <ele>530</ele>
        <time>2017-07-22T08:43:13Z</time>
      </trkpt>
      <trkpt lat="47.76748" lon="6.82613">
        <ele>530.59997558594</ele>
        <time>2017-07-22T08:43:19Z</time>
      </trkpt>
      <trkpt lat="47.76739" lon="6.82608">
        <ele>531</ele>
        <time>2017-07-22T08:43:21Z</time>
      </trkpt>
      <trkpt lat="47.76715" lon="6.82593">
        <ele>531.40002441406</ele>
        <time>2017-07-22T08:43:26Z</time>
      </trkpt>
      <trkpt lat="47.76699" lon="6.82577">
        <ele>531.20001220703</ele>
        <time>2017-07-22T08:43:29Z</time>
      </trkpt>
      <trkpt lat="47.76689" lon="6.82561">
        <ele>530.79998779297</ele>
        <time>2017-07-22T08:43:31Z</time>
      </trkpt>
      <trkpt lat="47.76672" lon="6.82534">
        <ele>529.79998779297</ele>
        <time>2017-07-22T08:43:34Z</time>
      </trkpt>
      <trkpt lat="47.76665" lon="6.82527">
        <ele>529.40002441406</ele>
        <time>2017-07-22T08:43:35Z</time>
      </trkpt>
      <trkpt lat="47.76657" lon="6.8252">
        <ele>529</ele>
        <time>2017-07-22T08:43:36Z</time>
      </trkpt>
      <trkpt lat="47.76649" lon="6.82515">
        <ele>528.40002441406</ele>
        <time>2017-07-22T08:43:37Z</time>
      </trkpt>
      <trkpt lat="47.76632" lon="6.82508">
        <ele>527</ele>
        <time>2017-07-22T08:43:39Z</time>
      </trkpt>
      <trkpt lat="47.76623" lon="6.82505">
        <ele>526.59997558594</ele>
        <time>2017-07-22T08:43:40Z</time>
      </trkpt>
      <trkpt lat="47.76605" lon="6.82498">
        <ele>525.59997558594</ele>
        <time>2017-07-22T08:43:42Z</time>
      </trkpt>
      <trkpt lat="47.76578" lon="6.82487">
        <ele>524.40002441406</ele>
        <time>2017-07-22T08:43:45Z</time>
      </trkpt>
      <trkpt lat="47.76552" lon="6.82475">
        <ele>523.20001220703</ele>
        <time>2017-07-22T08:43:48Z</time>
      </trkpt>
      <trkpt lat="47.76521" lon="6.82453">
        <ele>522.20001220703</ele>
        <time>2017-07-22T08:43:52Z</time>
      </trkpt>
      <trkpt lat="47.76515" lon="6.82446">
        <ele>522</ele>
        <time>2017-07-22T08:43:53Z</time>
      </trkpt>
      <trkpt lat="47.76492" lon="6.82409">
        <ele>521.59997558594</ele>
        <time>2017-07-22T08:43:57Z</time>
      </trkpt>
      <trkpt lat="47.76488" lon="6.82398">
        <ele>521.40002441406</ele>
        <time>2017-07-22T08:43:58Z</time>
      </trkpt>
      <trkpt lat="47.7648" lon="6.82373">
        <ele>521</ele>
        <time>2017-07-22T08:44:00Z</time>
      </trkpt>
      <trkpt lat="47.76475" lon="6.8236">
        <ele>520.79998779297</ele>
        <time>2017-07-22T08:44:01Z</time>
      </trkpt>
      <trkpt lat="47.76467" lon="6.82334">
        <ele>520</ele>
        <time>2017-07-22T08:44:03Z</time>
      </trkpt>
      <trkpt lat="47.76455" lon="6.82309">
        <ele>519</ele>
        <time>2017-07-22T08:44:05Z</time>
      </trkpt>
      <trkpt lat="47.76448" lon="6.823">
        <ele>518.40002441406</ele>
        <time>2017-07-22T08:44:06Z</time>
      </trkpt>
      <trkpt lat="47.7644" lon="6.8229">
        <ele>517.79998779297</ele>
        <time>2017-07-22T08:44:07Z</time>
      </trkpt>
      <trkpt lat="47.76415" lon="6.82268">
        <ele>516.40002441406</ele>
        <time>2017-07-22T08:44:10Z</time>
      </trkpt>
      <trkpt lat="47.76381" lon="6.82247">
        <ele>515.20001220703</ele>
        <time>2017-07-22T08:44:14Z</time>
      </trkpt>
      <trkpt lat="47.76372" lon="6.82242">
        <ele>515</ele>
        <time>2017-07-22T08:44:15Z</time>
      </trkpt>
      <trkpt lat="47.76331" lon="6.82217">
        <ele>514.20001220703</ele>
        <time>2017-07-22T08:44:20Z</time>
      </trkpt>
      <trkpt lat="47.76322" lon="6.82214">
        <ele>514</ele>
        <time>2017-07-22T08:44:21Z</time>
      </trkpt>
      <trkpt lat="47.7627" lon="6.822">
        <ele>513.20001220703</ele>
        <time>2017-07-22T08:44:27Z</time>
      </trkpt>
      <trkpt lat="47.76253" lon="6.82193">
        <ele>513</ele>
        <time>2017-07-22T08:44:29Z</time>
      </trkpt>
      <trkpt lat="47.76222" lon="6.82172">
        <ele>512.20001220703</ele>
        <time>2017-07-22T08:44:33Z</time>
      </trkpt>
      <trkpt lat="47.76207" lon="6.82161">
        <ele>512</ele>
        <time>2017-07-22T08:44:35Z</time>
      </trkpt>
      <trkpt lat="47.76164" lon="6.8213">
        <ele>511.39999389648</ele>
        <time>2017-07-22T08:44:41Z</time>
      </trkpt>
      <trkpt lat="47.76115" lon="6.82101">
        <ele>510.79998779297</ele>
        <time>2017-07-22T08:44:48Z</time>
      </trkpt>
      <trkpt lat="47.76108" lon="6.82097">
        <ele>510.60000610352</ele>
        <time>2017-07-22T08:44:49Z</time>
      </trkpt>
      <trkpt lat="47.76055" lon="6.82066">
        <ele>510</ele>
        <time>2017-07-22T08:44:57Z</time>
      </trkpt>
      <trkpt lat="47.76036" lon="6.82053">
        <ele>509.79998779297</ele>
        <time>2017-07-22T08:45:00Z</time>
      </trkpt>
      <trkpt lat="47.76002" lon="6.82032">
        <ele>509.20001220703</ele>
        <time>2017-07-22T08:45:05Z</time>
      </trkpt>
      <trkpt lat="47.75975" lon="6.82017">
        <ele>508.60000610352</ele>
        <time>2017-07-22T08:45:09Z</time>
      </trkpt>
      <trkpt lat="47.75948" lon="6.82007">
        <ele>508.39999389648</ele>
        <time>2017-07-22T08:45:13Z</time>
      </trkpt>
      <trkpt lat="47.75902" lon="6.81989">
        <ele>507.79998779297</ele>
        <time>2017-07-22T08:45:20Z</time>
      </trkpt>
      <trkpt lat="47.75873" lon="6.81966">
        <ele>507.60000610352</ele>
        <time>2017-07-22T08:45:25Z</time>
      </trkpt>
      <trkpt lat="47.75842" lon="6.81934">
        <ele>507.60000610352</ele>
        <time>2017-07-22T08:45:32Z</time>
      </trkpt>
      <trkpt lat="47.75837" lon="6.81932">
        <ele>507.60000610352</ele>
        <time>2017-07-22T08:45:33Z</time>
      </trkpt>
      <trkpt lat="47.7582" lon="6.81929">
        <ele>507.39999389648</ele>
        <time>2017-07-22T08:45:36Z</time>
      </trkpt>
      <trkpt lat="47.758" lon="6.81924">
        <ele>507</ele>
        <time>2017-07-22T08:45:39Z</time>
      </trkpt>
      <trkpt lat="47.7578" lon="6.81917">
        <ele>506.39999389648</ele>
        <time>2017-07-22T08:45:42Z</time>
      </trkpt>
      <trkpt lat="47.75739" lon="6.81903">
        <ele>505.79998779297</ele>
        <time>2017-07-22T08:45:48Z</time>
      </trkpt>
      <trkpt lat="47.75713" lon="6.81898">
        <ele>505.60000610352</ele>
        <time>2017-07-22T08:45:52Z</time>
      </trkpt>
      <trkpt lat="47.75706" lon="6.81897">
        <ele>505.60000610352</ele>
        <time>2017-07-22T08:45:53Z</time>
      </trkpt>
      <trkpt lat="47.75655" lon="6.81895">
        <ele>505.79998779297</ele>
        <time>2017-07-22T08:46:01Z</time>
      </trkpt>
      <trkpt lat="47.75648" lon="6.81895">
        <ele>505.79998779297</ele>
        <time>2017-07-22T08:46:02Z</time>
      </trkpt>
      <trkpt lat="47.75622" lon="6.81899">
        <ele>505.39999389648</ele>
        <time>2017-07-22T08:46:06Z</time>
      </trkpt>
      <trkpt lat="47.75615" lon="6.819">
        <ele>505.39999389648</ele>
        <time>2017-07-22T08:46:07Z</time>
      </trkpt>
      <trkpt lat="47.75571" lon="6.81914">
        <ele>505</ele>
        <time>2017-07-22T08:46:14Z</time>
      </trkpt>
      <trkpt lat="47.75521" lon="6.81929">
        <ele>504.60000610352</ele>
        <time>2017-07-22T08:46:22Z</time>
      </trkpt>
      <trkpt lat="47.75489" lon="6.81935">
        <ele>504.39999389648</ele>
        <time>2017-07-22T08:46:27Z</time>
      </trkpt>
      <trkpt lat="47.75481" lon="6.81935">
        <ele>504.39999389648</ele>
        <time>2017-07-22T08:46:28Z</time>
      </trkpt>
      <trkpt lat="47.75474" lon="6.81933">
        <ele>504.20001220703</ele>
        <time>2017-07-22T08:46:29Z</time>
      </trkpt>
      <trkpt lat="47.75455" lon="6.8192">
        <ele>504</ele>
        <time>2017-07-22T08:46:32Z</time>
      </trkpt>
      <trkpt lat="47.75444" lon="6.81909">
        <ele>503.79998779297</ele>
        <time>2017-07-22T08:46:34Z</time>
      </trkpt>
      <trkpt lat="47.75426" lon="6.81894">
        <ele>503.60000610352</ele>
        <time>2017-07-22T08:46:37Z</time>
      </trkpt>
      <trkpt lat="47.7542" lon="6.81891">
        <ele>503.60000610352</ele>
        <time>2017-07-22T08:46:38Z</time>
      </trkpt>
      <trkpt lat="47.75394" lon="6.81882">
        <ele>503.39999389648</ele>
        <time>2017-07-22T08:46:42Z</time>
      </trkpt>
      <trkpt lat="47.75387" lon="6.81882">
        <ele>503.39999389648</ele>
        <time>2017-07-22T08:46:43Z</time>
      </trkpt>
      <trkpt lat="47.7538" lon="6.81882">
        <ele>503.39999389648</ele>
        <time>2017-07-22T08:46:44Z</time>
      </trkpt>
      <trkpt lat="47.75363" lon="6.81882">
        <ele>503.20001220703</ele>
        <time>2017-07-22T08:46:47Z</time>
      </trkpt>
      <trkpt lat="47.75343" lon="6.81882">
        <ele>503</ele>
        <time>2017-07-22T08:46:51Z</time>
      </trkpt>
      <trkpt lat="47.75331" lon="6.81883">
        <ele>502.79998779297</ele>
        <time>2017-07-22T08:46:55Z</time>
      </trkpt>
      <trkpt lat="47.75326" lon="6.81886">
        <ele>502.20001220703</ele>
        <time>2017-07-22T08:49:16Z</time>
      </trkpt>
      <trkpt lat="47.75323" lon="6.81888">
        <ele>502.20001220703</ele>
        <time>2017-07-22T08:49:18Z</time>
      </trkpt>
      <trkpt lat="47.75308" lon="6.81896">
        <ele>502</ele>
        <time>2017-07-22T08:49:23Z</time>
      </trkpt>
      <trkpt lat="47.75304" lon="6.81899">
        <ele>502</ele>
        <time>2017-07-22T08:49:24Z</time>
      </trkpt>
      <trkpt lat="47.75278" lon="6.81915">
        <ele>502</ele>
        <time>2017-07-22T08:49:30Z</time>
      </trkpt>
      <trkpt lat="47.75239" lon="6.81938">
        <ele>501.79998779297</ele>
        <time>2017-07-22T08:49:38Z</time>
      </trkpt>
      <trkpt lat="47.75203" lon="6.81957">
        <ele>501.20001220703</ele>
        <time>2017-07-22T08:49:45Z</time>
      </trkpt>
      <trkpt lat="47.75193" lon="6.81963">
        <ele>501</ele>
        <time>2017-07-22T08:49:47Z</time>
      </trkpt>
      <trkpt lat="47.75185" lon="6.8197">
        <ele>501</ele>
        <time>2017-07-22T08:49:49Z</time>
      </trkpt>
      <trkpt lat="47.7518" lon="6.8198">
        <ele>501</ele>
        <time>2017-07-22T08:49:51Z</time>
      </trkpt>
      <trkpt lat="47.75178" lon="6.82">
        <ele>501</ele>
        <time>2017-07-22T08:49:55Z</time>
      </trkpt>
      <trkpt lat="47.75184" lon="6.81999">
        <ele>501</ele>
        <time>2017-07-22T08:51:46Z</time>
      </trkpt>
      <trkpt lat="47.75181" lon="6.8199">
        <ele>501</ele>
        <time>2017-07-22T08:51:49Z</time>
      </trkpt>
      <trkpt lat="47.75172" lon="6.81975">
        <ele>501</ele>
        <time>2017-07-22T08:51:53Z</time>
      </trkpt>
      <trkpt lat="47.75169" lon="6.81972">
        <ele>500.79998779297</ele>
        <time>2017-07-22T08:51:54Z</time>
      </trkpt>
      <trkpt lat="47.75155" lon="6.81969">
        <ele>500.79998779297</ele>
        <time>2017-07-22T08:51:57Z</time>
      </trkpt>
      <trkpt lat="47.75149" lon="6.81968">
        <ele>500.79998779297</ele>
        <time>2017-07-22T08:51:58Z</time>
      </trkpt>
      <trkpt lat="47.75122" lon="6.81957">
        <ele>500.79998779297</ele>
        <time>2017-07-22T08:52:03Z</time>
      </trkpt>
      <trkpt lat="47.75085" lon="6.81941">
        <ele>501</ele>
        <time>2017-07-22T08:52:10Z</time>
      </trkpt>
      <trkpt lat="47.75053" lon="6.81939">
        <ele>501.20001220703</ele>
        <time>2017-07-22T08:52:16Z</time>
      </trkpt>
      <trkpt lat="47.75022" lon="6.81948">
        <ele>501.39999389648</ele>
        <time>2017-07-22T08:52:23Z</time>
      </trkpt>
      <trkpt lat="47.75002" lon="6.81963">
        <ele>501.39999389648</ele>
        <time>2017-07-22T08:52:29Z</time>
      </trkpt>
      <trkpt lat="47.74968" lon="6.81988">
        <ele>501.79998779297</ele>
        <time>2017-07-22T08:52:38Z</time>
      </trkpt>
      <trkpt lat="47.74952" lon="6.82">
        <ele>502.20001220703</ele>
        <time>2017-07-22T08:52:42Z</time>
      </trkpt>
      <trkpt lat="47.74942" lon="6.8201">
        <ele>502.79998779297</ele>
        <time>2017-07-22T08:52:45Z</time>
      </trkpt>
      <trkpt lat="47.74911" lon="6.82034">
        <ele>503</ele>
        <time>2017-07-22T08:52:52Z</time>
      </trkpt>
      <trkpt lat="47.74873" lon="6.82068">
        <ele>502.79998779297</ele>
        <time>2017-07-22T08:53:00Z</time>
      </trkpt>
      <trkpt lat="47.74864" lon="6.82078">
        <ele>502.79998779297</ele>
        <time>2017-07-22T08:53:02Z</time>
      </trkpt>
      <trkpt lat="47.74833" lon="6.82112">
        <ele>502.60000610352</ele>
        <time>2017-07-22T08:53:09Z</time>
      </trkpt>
      <trkpt lat="47.74799" lon="6.82151">
        <ele>502</ele>
        <time>2017-07-22T08:53:16Z</time>
      </trkpt>
      <trkpt lat="47.74775" lon="6.82183">
        <ele>501.20001220703</ele>
        <time>2017-07-22T08:53:21Z</time>
      </trkpt>
      <trkpt lat="47.7476" lon="6.82202">
        <ele>500.79998779297</ele>
        <time>2017-07-22T08:53:24Z</time>
      </trkpt>
      <trkpt lat="47.74736" lon="6.82233">
        <ele>500.20001220703</ele>
        <time>2017-07-22T08:53:29Z</time>
      </trkpt>
      <trkpt lat="47.74715" lon="6.82256">
        <ele>500.20001220703</ele>
        <time>2017-07-22T08:53:33Z</time>
      </trkpt>
      <trkpt lat="47.74675" lon="6.823">
        <ele>500</ele>
        <time>2017-07-22T08:53:41Z</time>
      </trkpt>
      <trkpt lat="47.74656" lon="6.8233">
        <ele>500</ele>
        <time>2017-07-22T08:53:46Z</time>
      </trkpt>
      <trkpt lat="47.74621" lon="6.82378">
        <ele>499.60000610352</ele>
        <time>2017-07-22T08:53:54Z</time>
      </trkpt>
      <trkpt lat="47.74598" lon="6.82402">
        <ele>499</ele>
        <time>2017-07-22T08:53:58Z</time>
      </trkpt>
      <trkpt lat="47.74584" lon="6.82413">
        <ele>498.60000610352</ele>
        <time>2017-07-22T08:54:00Z</time>
      </trkpt>
      <trkpt lat="47.7457" lon="6.82423">
        <ele>497.79998779297</ele>
        <time>2017-07-22T08:54:02Z</time>
      </trkpt>
      <trkpt lat="47.74561" lon="6.82426">
        <ele>497.60000610352</ele>
        <time>2017-07-22T08:54:03Z</time>
      </trkpt>
      <trkpt lat="47.74551" lon="6.8243">
        <ele>496.60000610352</ele>
        <time>2017-07-22T08:54:04Z</time>
      </trkpt>
      <trkpt lat="47.74533" lon="6.82437">
        <ele>495.60000610352</ele>
        <time>2017-07-22T08:54:06Z</time>
      </trkpt>
      <trkpt lat="47.74507" lon="6.82449">
        <ele>494.20001220703</ele>
        <time>2017-07-22T08:54:09Z</time>
      </trkpt>
      <trkpt lat="47.74491" lon="6.82456">
        <ele>493.60000610352</ele>
        <time>2017-07-22T08:54:11Z</time>
      </trkpt>
      <trkpt lat="47.74476" lon="6.82462">
        <ele>493</ele>
        <time>2017-07-22T08:54:13Z</time>
      </trkpt>
      <trkpt lat="47.74445" lon="6.8247">
        <ele>492</ele>
        <time>2017-07-22T08:54:17Z</time>
      </trkpt>
      <trkpt lat="47.74437" lon="6.82472">
        <ele>491.60000610352</ele>
        <time>2017-07-22T08:54:18Z</time>
      </trkpt>
      <trkpt lat="47.74415" lon="6.82476">
        <ele>491</ele>
        <time>2017-07-22T08:54:21Z</time>
      </trkpt>
      <trkpt lat="47.74407" lon="6.82478">
        <ele>490.60000610352</ele>
        <time>2017-07-22T08:54:22Z</time>
      </trkpt>
      <trkpt lat="47.74372" lon="6.82484">
        <ele>489.60000610352</ele>
        <time>2017-07-22T08:54:26Z</time>
      </trkpt>
      <trkpt lat="47.74362" lon="6.82485">
        <ele>489.20001220703</ele>
        <time>2017-07-22T08:54:27Z</time>
      </trkpt>
      <trkpt lat="47.74352" lon="6.82485">
        <ele>488.20001220703</ele>
        <time>2017-07-22T08:54:28Z</time>
      </trkpt>
      <trkpt lat="47.74325" lon="6.8249">
        <ele>486.79998779297</ele>
        <time>2017-07-22T08:54:31Z</time>
      </trkpt>
      <trkpt lat="47.74316" lon="6.82493">
        <ele>486.39999389648</ele>
        <time>2017-07-22T08:54:32Z</time>
      </trkpt>
      <trkpt lat="47.74292" lon="6.825">
        <ele>485.79998779297</ele>
        <time>2017-07-22T08:54:35Z</time>
      </trkpt>
      <trkpt lat="47.74269" lon="6.82506">
        <ele>485.20001220703</ele>
        <time>2017-07-22T08:54:38Z</time>
      </trkpt>
      <trkpt lat="47.74253" lon="6.82509">
        <ele>484.60000610352</ele>
        <time>2017-07-22T08:54:40Z</time>
      </trkpt>
      <trkpt lat="47.74225" lon="6.82518">
        <ele>484.39999389648</ele>
        <time>2017-07-22T08:54:44Z</time>
      </trkpt>
      <trkpt lat="47.742" lon="6.82534">
        <ele>483.79998779297</ele>
        <time>2017-07-22T08:54:48Z</time>
      </trkpt>
      <trkpt lat="47.74187" lon="6.82558">
        <ele>483.60000610352</ele>
        <time>2017-07-22T08:54:51Z</time>
      </trkpt>
      <trkpt lat="47.74184" lon="6.82568">
        <ele>483.39999389648</ele>
        <time>2017-07-22T08:54:52Z</time>
      </trkpt>
      <trkpt lat="47.74172" lon="6.8261">
        <ele>482.79998779297</ele>
        <time>2017-07-22T08:54:56Z</time>
      </trkpt>
      <trkpt lat="47.74163" lon="6.8263">
        <ele>482.39999389648</ele>
        <time>2017-07-22T08:54:58Z</time>
      </trkpt>
      <trkpt lat="47.74144" lon="6.82669">
        <ele>481.39999389648</ele>
        <time>2017-07-22T08:55:02Z</time>
      </trkpt>
      <trkpt lat="47.7414" lon="6.82677">
        <ele>481.20001220703</ele>
        <time>2017-07-22T08:55:03Z</time>
      </trkpt>
      <trkpt lat="47.74134" lon="6.82683">
        <ele>480.79998779297</ele>
        <time>2017-07-22T08:55:04Z</time>
      </trkpt>
      <trkpt lat="47.74127" lon="6.82687">
        <ele>480.60000610352</ele>
        <time>2017-07-22T08:55:05Z</time>
      </trkpt>
      <trkpt lat="47.74113" lon="6.82694">
        <ele>479.79998779297</ele>
        <time>2017-07-22T08:55:07Z</time>
      </trkpt>
      <trkpt lat="47.74078" lon="6.82712">
        <ele>479</ele>
        <time>2017-07-22T08:55:12Z</time>
      </trkpt>
      <trkpt lat="47.7407" lon="6.82716">
        <ele>478.79998779297</ele>
        <time>2017-07-22T08:55:13Z</time>
      </trkpt>
      <trkpt lat="47.74063" lon="6.82719">
        <ele>478.79998779297</ele>
        <time>2017-07-22T08:55:14Z</time>
      </trkpt>
      <trkpt lat="47.7405" lon="6.82726">
        <ele>478.39999389648</ele>
        <time>2017-07-22T08:55:16Z</time>
      </trkpt>
      <trkpt lat="47.74024" lon="6.82738">
        <ele>477.79998779297</ele>
        <time>2017-07-22T08:55:20Z</time>
      </trkpt>
      <trkpt lat="47.74018" lon="6.82741">
        <ele>477.79998779297</ele>
        <time>2017-07-22T08:55:21Z</time>
      </trkpt>
      <trkpt lat="47.73988" lon="6.82754">
        <ele>477.79998779297</ele>
        <time>2017-07-22T08:55:26Z</time>
      </trkpt>
      <trkpt lat="47.73959" lon="6.82759">
        <ele>478.20001220703</ele>
        <time>2017-07-22T08:55:31Z</time>
      </trkpt>
      <trkpt lat="47.7392" lon="6.82771">
        <ele>478.39999389648</ele>
        <time>2017-07-22T08:55:38Z</time>
      </trkpt>
      <trkpt lat="47.73879" lon="6.82798">
        <ele>478</ele>
        <time>2017-07-22T08:55:45Z</time>
      </trkpt>
      <trkpt lat="47.73845" lon="6.82824">
        <ele>477.39999389648</ele>
        <time>2017-07-22T08:55:51Z</time>
      </trkpt>
      <trkpt lat="47.73839" lon="6.82828">
        <ele>477.39999389648</ele>
        <time>2017-07-22T08:55:52Z</time>
      </trkpt>
      <trkpt lat="47.73808" lon="6.82852">
        <ele>477</ele>
        <time>2017-07-22T08:55:57Z</time>
      </trkpt>
      <trkpt lat="47.73796" lon="6.8286">
        <ele>476.60000610352</ele>
        <time>2017-07-22T08:55:59Z</time>
      </trkpt>
      <trkpt lat="47.7377" lon="6.82877">
        <ele>476.20001220703</ele>
        <time>2017-07-22T08:56:03Z</time>
      </trkpt>
      <trkpt lat="47.73731" lon="6.82896">
        <ele>475.79998779297</ele>
        <time>2017-07-22T08:56:09Z</time>
      </trkpt>
      <trkpt lat="47.73704" lon="6.82907">
        <ele>475.60000610352</ele>
        <time>2017-07-22T08:56:13Z</time>
      </trkpt>
      <trkpt lat="47.73683" lon="6.82913">
        <ele>475.39999389648</ele>
        <time>2017-07-22T08:56:16Z</time>
      </trkpt>
      <trkpt lat="47.73647" lon="6.82923">
        <ele>474.60000610352</ele>
        <time>2017-07-22T08:56:21Z</time>
      </trkpt>
      <trkpt lat="47.73625" lon="6.82928">
        <ele>474</ele>
        <time>2017-07-22T08:56:24Z</time>
      </trkpt>
      <trkpt lat="47.73596" lon="6.82935">
        <ele>473.39999389648</ele>
        <time>2017-07-22T08:56:28Z</time>
      </trkpt>
      <trkpt lat="47.73566" lon="6.82943">
        <ele>472.79998779297</ele>
        <time>2017-07-22T08:56:32Z</time>
      </trkpt>
      <trkpt lat="47.73551" lon="6.82946">
        <ele>472.39999389648</ele>
        <time>2017-07-22T08:56:34Z</time>
      </trkpt>
      <trkpt lat="47.73522" lon="6.82954">
        <ele>472</ele>
        <time>2017-07-22T08:56:38Z</time>
      </trkpt>
      <trkpt lat="47.73472" lon="6.82969">
        <ele>471.60000610352</ele>
        <time>2017-07-22T08:56:45Z</time>
      </trkpt>
      <trkpt lat="47.73457" lon="6.82973">
        <ele>471.39999389648</ele>
        <time>2017-07-22T08:56:47Z</time>
      </trkpt>
      <trkpt lat="47.73419" lon="6.82983">
        <ele>470.79998779297</ele>
        <time>2017-07-22T08:56:52Z</time>
      </trkpt>
      <trkpt lat="47.73381" lon="6.82991">
        <ele>470.39999389648</ele>
        <time>2017-07-22T08:56:57Z</time>
      </trkpt>
      <trkpt lat="47.73373" lon="6.82992">
        <ele>470.20001220703</ele>
        <time>2017-07-22T08:56:58Z</time>
      </trkpt>
      <trkpt lat="47.7333" lon="6.82994">
        <ele>470</ele>
        <time>2017-07-22T08:57:04Z</time>
      </trkpt>
      <trkpt lat="47.73302" lon="6.82996">
        <ele>469.79998779297</ele>
        <time>2017-07-22T08:57:08Z</time>
      </trkpt>
      <trkpt lat="47.73294" lon="6.82998">
        <ele>469.79998779297</ele>
        <time>2017-07-22T08:57:09Z</time>
      </trkpt>
      <trkpt lat="47.73266" lon="6.82999">
        <ele>469.39999389648</ele>
        <time>2017-07-22T08:57:13Z</time>
      </trkpt>
      <trkpt lat="47.73245" lon="6.82998">
        <ele>469.39999389648</ele>
        <time>2017-07-22T08:57:16Z</time>
      </trkpt>
      <trkpt lat="47.73238" lon="6.82997">
        <ele>469.20001220703</ele>
        <time>2017-07-22T08:57:17Z</time>
      </trkpt>
      <trkpt lat="47.73231" lon="6.82998">
        <ele>469.20001220703</ele>
        <time>2017-07-22T08:57:18Z</time>
      </trkpt>
      <trkpt lat="47.73195" lon="6.83003">
        <ele>468.79998779297</ele>
        <time>2017-07-22T08:57:23Z</time>
      </trkpt>
      <trkpt lat="47.73165" lon="6.83018">
        <ele>468.39999389648</ele>
        <time>2017-07-22T08:57:27Z</time>
      </trkpt>
      <trkpt lat="47.7315" lon="6.83031">
        <ele>468.20001220703</ele>
        <time>2017-07-22T08:57:29Z</time>
      </trkpt>
      <trkpt lat="47.73122" lon="6.83054">
        <ele>467.39999389648</ele>
        <time>2017-07-22T08:57:33Z</time>
      </trkpt>
      <trkpt lat="47.73115" lon="6.83059">
        <ele>467.20001220703</ele>
        <time>2017-07-22T08:57:34Z</time>
      </trkpt>
      <trkpt lat="47.73092" lon="6.83068">
        <ele>466.39999389648</ele>
        <time>2017-07-22T08:57:37Z</time>
      </trkpt>
      <trkpt lat="47.73084" lon="6.8307">
        <ele>466.39999389648</ele>
        <time>2017-07-22T08:57:38Z</time>
      </trkpt>
      <trkpt lat="47.73067" lon="6.83072">
        <ele>466</ele>
        <time>2017-07-22T08:57:40Z</time>
      </trkpt>
      <trkpt lat="47.73024" lon="6.83072">
        <ele>465.20001220703</ele>
        <time>2017-07-22T08:57:45Z</time>
      </trkpt>
      <trkpt lat="47.73015" lon="6.83072">
        <ele>465</ele>
        <time>2017-07-22T08:57:46Z</time>
      </trkpt>
      <trkpt lat="47.72956" lon="6.83074">
        <ele>464</ele>
        <time>2017-07-22T08:57:53Z</time>
      </trkpt>
      <trkpt lat="47.72947" lon="6.83075">
        <ele>463.79998779297</ele>
        <time>2017-07-22T08:57:54Z</time>
      </trkpt>
      <trkpt lat="47.72904" lon="6.83087">
        <ele>463</ele>
        <time>2017-07-22T08:57:59Z</time>
      </trkpt>
      <trkpt lat="47.72886" lon="6.83093">
        <ele>462.60000610352</ele>
        <time>2017-07-22T08:58:01Z</time>
      </trkpt>
      <trkpt lat="47.72833" lon="6.83108">
        <ele>461.60000610352</ele>
        <time>2017-07-22T08:58:07Z</time>
      </trkpt>
      <trkpt lat="47.72825" lon="6.8311">
        <ele>461.39999389648</ele>
        <time>2017-07-22T08:58:08Z</time>
      </trkpt>
      <trkpt lat="47.72766" lon="6.83126">
        <ele>460.60000610352</ele>
        <time>2017-07-22T08:58:15Z</time>
      </trkpt>
      <trkpt lat="47.72757" lon="6.83128">
        <ele>460.39999389648</ele>
        <time>2017-07-22T08:58:16Z</time>
      </trkpt>
      <trkpt lat="47.72748" lon="6.8313">
        <ele>460.39999389648</ele>
        <time>2017-07-22T08:58:17Z</time>
      </trkpt>
      <trkpt lat="47.72688" lon="6.83143">
        <ele>459.60000610352</ele>
        <time>2017-07-22T08:58:24Z</time>
      </trkpt>
      <trkpt lat="47.72679" lon="6.83144">
        <ele>459.39999389648</ele>
        <time>2017-07-22T08:58:25Z</time>
      </trkpt>
      <trkpt lat="47.72619" lon="6.83157">
        <ele>458.60000610352</ele>
        <time>2017-07-22T08:58:32Z</time>
      </trkpt>
      <trkpt lat="47.7261" lon="6.83159">
        <ele>458.39999389648</ele>
        <time>2017-07-22T08:58:33Z</time>
      </trkpt>
      <trkpt lat="47.72548" lon="6.8317">
        <ele>457.39999389648</ele>
        <time>2017-07-22T08:58:40Z</time>
      </trkpt>
      <trkpt lat="47.72539" lon="6.83172">
        <ele>457.20001220703</ele>
        <time>2017-07-22T08:58:41Z</time>
      </trkpt>
      <trkpt lat="47.72478" lon="6.83181">
        <ele>456.39999389648</ele>
        <time>2017-07-22T08:58:48Z</time>
      </trkpt>
      <trkpt lat="47.72469" lon="6.83182">
        <ele>456.39999389648</ele>
        <time>2017-07-22T08:58:49Z</time>
      </trkpt>
      <trkpt lat="47.72416" lon="6.83189">
        <ele>455.39999389648</ele>
        <time>2017-07-22T08:58:55Z</time>
      </trkpt>
      <trkpt lat="47.72407" lon="6.8319">
        <ele>455.20001220703</ele>
        <time>2017-07-22T08:58:56Z</time>
      </trkpt>
      <trkpt lat="47.72344" lon="6.83196">
        <ele>454.60000610352</ele>
        <time>2017-07-22T08:59:03Z</time>
      </trkpt>
      <trkpt lat="47.72336" lon="6.83197">
        <ele>454.39999389648</ele>
        <time>2017-07-22T08:59:04Z</time>
      </trkpt>
      <trkpt lat="47.72327" lon="6.83199">
        <ele>454.20001220703</ele>
        <time>2017-07-22T08:59:05Z</time>
      </trkpt>
      <trkpt lat="47.72272" lon="6.83206">
        <ele>453</ele>
        <time>2017-07-22T08:59:11Z</time>
      </trkpt>
      <trkpt lat="47.72263" lon="6.83208">
        <ele>452.79998779297</ele>
        <time>2017-07-22T08:59:12Z</time>
      </trkpt>
      <trkpt lat="47.72219" lon="6.83216">
        <ele>452</ele>
        <time>2017-07-22T08:59:17Z</time>
      </trkpt>
      <trkpt lat="47.72193" lon="6.83221">
        <ele>451.60000610352</ele>
        <time>2017-07-22T08:59:20Z</time>
      </trkpt>
      <trkpt lat="47.72134" lon="6.83233">
        <ele>450.79998779297</ele>
        <time>2017-07-22T08:59:27Z</time>
      </trkpt>
      <trkpt lat="47.72117" lon="6.83237">
        <ele>450.60000610352</ele>
        <time>2017-07-22T08:59:29Z</time>
      </trkpt>
      <trkpt lat="47.7206" lon="6.83251">
        <ele>449.79998779297</ele>
        <time>2017-07-22T08:59:36Z</time>
      </trkpt>
      <trkpt lat="47.72052" lon="6.83253">
        <ele>449.79998779297</ele>
        <time>2017-07-22T08:59:37Z</time>
      </trkpt>
      <trkpt lat="47.71994" lon="6.83258">
        <ele>449</ele>
        <time>2017-07-22T08:59:44Z</time>
      </trkpt>
      <trkpt lat="47.71986" lon="6.83257">
        <ele>448.79998779297</ele>
        <time>2017-07-22T08:59:45Z</time>
      </trkpt>
      <trkpt lat="47.71928" lon="6.83257">
        <ele>447.79998779297</ele>
        <time>2017-07-22T08:59:52Z</time>
      </trkpt>
      <trkpt lat="47.7192" lon="6.83256">
        <ele>447.79998779297</ele>
        <time>2017-07-22T08:59:53Z</time>
      </trkpt>
      <trkpt lat="47.7187" lon="6.83257">
        <ele>446.60000610352</ele>
        <time>2017-07-22T08:59:59Z</time>
      </trkpt>
      <trkpt lat="47.71853" lon="6.83257">
        <ele>446.39999389648</ele>
        <time>2017-07-22T09:00:01Z</time>
      </trkpt>
      <trkpt lat="47.71812" lon="6.83262">
        <ele>445.60000610352</ele>
        <time>2017-07-22T09:00:06Z</time>
      </trkpt>
      <trkpt lat="47.71804" lon="6.83264">
        <ele>445.39999389648</ele>
        <time>2017-07-22T09:00:07Z</time>
      </trkpt>
      <trkpt lat="47.71797" lon="6.83268">
        <ele>445.20001220703</ele>
        <time>2017-07-22T09:00:08Z</time>
      </trkpt>
      <trkpt lat="47.71773" lon="6.83283">
        <ele>444.79998779297</ele>
        <time>2017-07-22T09:00:11Z</time>
      </trkpt>
      <trkpt lat="47.71752" lon="6.83304">
        <ele>444.39999389648</ele>
        <time>2017-07-22T09:00:14Z</time>
      </trkpt>
      <trkpt lat="47.71738" lon="6.83318">
        <ele>444.20001220703</ele>
        <time>2017-07-22T09:00:16Z</time>
      </trkpt>
      <trkpt lat="47.71713" lon="6.83346">
        <ele>443.39999389648</ele>
        <time>2017-07-22T09:00:20Z</time>
      </trkpt>
      <trkpt lat="47.71693" lon="6.83364">
        <ele>442.79998779297</ele>
        <time>2017-07-22T09:00:23Z</time>
      </trkpt>
      <trkpt lat="47.71658" lon="6.834">
        <ele>442.20001220703</ele>
        <time>2017-07-22T09:00:28Z</time>
      </trkpt>
      <trkpt lat="47.71651" lon="6.83407">
        <ele>442.20001220703</ele>
        <time>2017-07-22T09:00:29Z</time>
      </trkpt>
      <trkpt lat="47.71609" lon="6.83447">
        <ele>441.79998779297</ele>
        <time>2017-07-22T09:00:35Z</time>
      </trkpt>
      <trkpt lat="47.71561" lon="6.83494">
        <ele>441.60000610352</ele>
        <time>2017-07-22T09:00:42Z</time>
      </trkpt>
      <trkpt lat="47.71554" lon="6.835">
        <ele>441.39999389648</ele>
        <time>2017-07-22T09:00:43Z</time>
      </trkpt>
      <trkpt lat="47.71532" lon="6.83516">
        <ele>441.20001220703</ele>
        <time>2017-07-22T09:00:46Z</time>
      </trkpt>
      <trkpt lat="47.71516" lon="6.83524">
        <ele>440.79998779297</ele>
        <time>2017-07-22T09:00:48Z</time>
      </trkpt>
      <trkpt lat="47.71507" lon="6.83526">
        <ele>440.60000610352</ele>
        <time>2017-07-22T09:00:49Z</time>
      </trkpt>
      <trkpt lat="47.71481" lon="6.83527">
        <ele>439.79998779297</ele>
        <time>2017-07-22T09:00:52Z</time>
      </trkpt>
      <trkpt lat="47.71472" lon="6.83528">
        <ele>439.60000610352</ele>
        <time>2017-07-22T09:00:53Z</time>
      </trkpt>
      <trkpt lat="47.71437" lon="6.83532">
        <ele>438.79998779297</ele>
        <time>2017-07-22T09:00:57Z</time>
      </trkpt>
      <trkpt lat="47.71429" lon="6.83535">
        <ele>438.60000610352</ele>
        <time>2017-07-22T09:00:58Z</time>
      </trkpt>
      <trkpt lat="47.71381" lon="6.83563">
        <ele>437.79998779297</ele>
        <time>2017-07-22T09:01:04Z</time>
      </trkpt>
      <trkpt lat="47.71373" lon="6.83569">
        <ele>437.60000610352</ele>
        <time>2017-07-22T09:01:05Z</time>
      </trkpt>
      <trkpt lat="47.71334" lon="6.83595">
        <ele>436.79998779297</ele>
        <time>2017-07-22T09:01:10Z</time>
      </trkpt>
      <trkpt lat="47.71317" lon="6.83603">
        <ele>436.60000610352</ele>
        <time>2017-07-22T09:01:12Z</time>
      </trkpt>
      <trkpt lat="47.7131" lon="6.83606">
        <ele>436.60000610352</ele>
        <time>2017-07-22T09:01:13Z</time>
      </trkpt>
      <trkpt lat="47.71303" lon="6.83608">
        <ele>436.39999389648</ele>
        <time>2017-07-22T09:01:14Z</time>
      </trkpt>
      <trkpt lat="47.71293" lon="6.83611">
        <ele>436</ele>
        <time>2017-07-22T09:01:16Z</time>
      </trkpt>
      <trkpt lat="47.71284" lon="6.83613">
        <ele>435.79998779297</ele>
        <time>2017-07-22T09:01:18Z</time>
      </trkpt>
      <trkpt lat="47.71275" lon="6.83614">
        <ele>435.39999389648</ele>
        <time>2017-07-22T09:01:20Z</time>
      </trkpt>
      <trkpt lat="47.71258" lon="6.83611">
        <ele>435</ele>
        <time>2017-07-22T09:01:24Z</time>
      </trkpt>
      <trkpt lat="47.71227" lon="6.83602">
        <ele>434.60000610352</ele>
        <time>2017-07-22T09:01:31Z</time>
      </trkpt>
      <trkpt lat="47.71207" lon="6.83597">
        <ele>434.60000610352</ele>
        <time>2017-07-22T09:01:35Z</time>
      </trkpt>
      <trkpt lat="47.71196" lon="6.83595">
        <ele>434.60000610352</ele>
        <time>2017-07-22T09:01:37Z</time>
      </trkpt>
      <trkpt lat="47.71179" lon="6.83592">
        <ele>434.39999389648</ele>
        <time>2017-07-22T09:01:40Z</time>
      </trkpt>
      <trkpt lat="47.71155" lon="6.83586">
        <ele>434</ele>
        <time>2017-07-22T09:01:44Z</time>
      </trkpt>
      <trkpt lat="47.71122" lon="6.83572">
        <ele>433.39999389648</ele>
        <time>2017-07-22T09:01:49Z</time>
      </trkpt>
      <trkpt lat="47.71116" lon="6.83568">
        <ele>433.39999389648</ele>
        <time>2017-07-22T09:01:50Z</time>
      </trkpt>
      <trkpt lat="47.71109" lon="6.83566">
        <ele>433.20001220703</ele>
        <time>2017-07-22T09:01:51Z</time>
      </trkpt>
      <trkpt lat="47.71088" lon="6.83567">
        <ele>433</ele>
        <time>2017-07-22T09:01:54Z</time>
      </trkpt>
      <trkpt lat="47.71067" lon="6.83574">
        <ele>432.79998779297</ele>
        <time>2017-07-22T09:01:57Z</time>
      </trkpt>
      <trkpt lat="47.71052" lon="6.83578">
        <ele>432.79998779297</ele>
        <time>2017-07-22T09:01:59Z</time>
      </trkpt>
      <trkpt lat="47.7102" lon="6.83579">
        <ele>432.20001220703</ele>
        <time>2017-07-22T09:02:03Z</time>
      </trkpt>
      <trkpt lat="47.70997" lon="6.83578">
        <ele>432</ele>
        <time>2017-07-22T09:02:06Z</time>
      </trkpt>
      <trkpt lat="47.70943" lon="6.83572">
        <ele>431.20001220703</ele>
        <time>2017-07-22T09:02:13Z</time>
      </trkpt>
      <trkpt lat="47.70935" lon="6.83572">
        <ele>431.20001220703</ele>
        <time>2017-07-22T09:02:14Z</time>
      </trkpt>
      <trkpt lat="47.70898" lon="6.83582">
        <ele>430.79998779297</ele>
        <time>2017-07-22T09:02:19Z</time>
      </trkpt>
      <trkpt lat="47.70854" lon="6.83609">
        <ele>430.20001220703</ele>
        <time>2017-07-22T09:02:25Z</time>
      </trkpt>
      <trkpt lat="47.70847" lon="6.83615">
        <ele>430.20001220703</ele>
        <time>2017-07-22T09:02:26Z</time>
      </trkpt>
      <trkpt lat="47.70818" lon="6.83633">
        <ele>429.60000610352</ele>
        <time>2017-07-22T09:02:30Z</time>
      </trkpt>
      <trkpt lat="47.70768" lon="6.83661">
        <ele>429.20001220703</ele>
        <time>2017-07-22T09:02:37Z</time>
      </trkpt>
      <trkpt lat="47.70761" lon="6.83665">
        <ele>429.20001220703</ele>
        <time>2017-07-22T09:02:38Z</time>
      </trkpt>
      <trkpt lat="47.70746" lon="6.83671">
        <ele>429</ele>
        <time>2017-07-22T09:02:40Z</time>
      </trkpt>
      <trkpt lat="47.70738" lon="6.83673">
        <ele>429</ele>
        <time>2017-07-22T09:02:41Z</time>
      </trkpt>
      <trkpt lat="47.7069" lon="6.83682">
        <ele>428.39999389648</ele>
        <time>2017-07-22T09:02:47Z</time>
      </trkpt>
      <trkpt lat="47.70665" lon="6.83683">
        <ele>428</ele>
        <time>2017-07-22T09:02:50Z</time>
      </trkpt>
      <trkpt lat="47.70634" lon="6.83683">
        <ele>427.79998779297</ele>
        <time>2017-07-22T09:02:54Z</time>
      </trkpt>
      <trkpt lat="47.70611" lon="6.83686">
        <ele>427.39999389648</ele>
        <time>2017-07-22T09:02:57Z</time>
      </trkpt>
      <trkpt lat="47.70597" lon="6.83692">
        <ele>427.20001220703</ele>
        <time>2017-07-22T09:02:59Z</time>
      </trkpt>
      <trkpt lat="47.70584" lon="6.83698">
        <ele>427</ele>
        <time>2017-07-22T09:03:01Z</time>
      </trkpt>
      <trkpt lat="47.70558" lon="6.83706">
        <ele>426.79998779297</ele>
        <time>2017-07-22T09:03:05Z</time>
      </trkpt>
      <trkpt lat="47.70518" lon="6.83704">
        <ele>426.20001220703</ele>
        <time>2017-07-22T09:03:11Z</time>
      </trkpt>
      <trkpt lat="47.70511" lon="6.83702">
        <ele>426</ele>
        <time>2017-07-22T09:03:12Z</time>
      </trkpt>
      <trkpt lat="47.70491" lon="6.83693">
        <ele>425.79998779297</ele>
        <time>2017-07-22T09:03:15Z</time>
      </trkpt>
      <trkpt lat="47.70437" lon="6.83668">
        <ele>425.20001220703</ele>
        <time>2017-07-22T09:03:23Z</time>
      </trkpt>
      <trkpt lat="47.70417" lon="6.8366">
        <ele>425</ele>
        <time>2017-07-22T09:03:26Z</time>
      </trkpt>
      <trkpt lat="47.70389" lon="6.83647">
        <ele>424.39999389648</ele>
        <time>2017-07-22T09:03:30Z</time>
      </trkpt>
      <trkpt lat="47.70344" lon="6.83624">
        <ele>424.20001220703</ele>
        <time>2017-07-22T09:03:37Z</time>
      </trkpt>
      <trkpt lat="47.7033" lon="6.83619">
        <ele>424</ele>
        <time>2017-07-22T09:03:39Z</time>
      </trkpt>
      <trkpt lat="47.70298" lon="6.83602">
        <ele>423.39999389648</ele>
        <time>2017-07-22T09:03:44Z</time>
      </trkpt>
      <trkpt lat="47.70259" lon="6.83585">
        <ele>423</ele>
        <time>2017-07-22T09:03:50Z</time>
      </trkpt>
      <trkpt lat="47.70247" lon="6.83579">
        <ele>422.79998779297</ele>
        <time>2017-07-22T09:03:52Z</time>
      </trkpt>
      <trkpt lat="47.70221" lon="6.83566">
        <ele>422.39999389648</ele>
        <time>2017-07-22T09:03:56Z</time>
      </trkpt>
      <trkpt lat="47.70169" lon="6.83543">
        <ele>421.79998779297</ele>
        <time>2017-07-22T09:04:04Z</time>
      </trkpt>
      <trkpt lat="47.70162" lon="6.8354">
        <ele>421.60000610352</ele>
        <time>2017-07-22T09:04:05Z</time>
      </trkpt>
      <trkpt lat="47.70121" lon="6.83526">
        <ele>421.20001220703</ele>
        <time>2017-07-22T09:04:11Z</time>
      </trkpt>
      <trkpt lat="47.70085" lon="6.83518">
        <ele>420.60000610352</ele>
        <time>2017-07-22T09:04:16Z</time>
      </trkpt>
      <trkpt lat="47.70064" lon="6.83514">
        <ele>420.20001220703</ele>
        <time>2017-07-22T09:04:19Z</time>
      </trkpt>
      <trkpt lat="47.70012" lon="6.83503">
        <ele>419.60000610352</ele>
        <time>2017-07-22T09:04:26Z</time>
      </trkpt>
      <trkpt lat="47.69997" lon="6.835">
        <ele>419.39999389648</ele>
        <time>2017-07-22T09:04:28Z</time>
      </trkpt>
      <trkpt lat="47.6994" lon="6.83489">
        <ele>418.79998779297</ele>
        <time>2017-07-22T09:04:36Z</time>
      </trkpt>
      <trkpt lat="47.69933" lon="6.83488">
        <ele>418.79998779297</ele>
        <time>2017-07-22T09:04:37Z</time>
      </trkpt>
      <trkpt lat="47.69906" lon="6.83486">
        <ele>418.60000610352</ele>
        <time>2017-07-22T09:04:41Z</time>
      </trkpt>
      <trkpt lat="47.69892" lon="6.83487">
        <ele>418.39999389648</ele>
        <time>2017-07-22T09:04:43Z</time>
      </trkpt>
      <trkpt lat="47.69884" lon="6.83488">
        <ele>418.39999389648</ele>
        <time>2017-07-22T09:04:44Z</time>
      </trkpt>
      <trkpt lat="47.69841" lon="6.83492">
        <ele>417.79998779297</ele>
        <time>2017-07-22T09:04:50Z</time>
      </trkpt>
      <trkpt lat="47.6982" lon="6.83493">
        <ele>417.39999389648</ele>
        <time>2017-07-22T09:04:53Z</time>
      </trkpt>
      <trkpt lat="47.69783" lon="6.83497">
        <ele>416.79998779297</ele>
        <time>2017-07-22T09:04:58Z</time>
      </trkpt>
      <trkpt lat="47.69749" lon="6.83501">
        <ele>416.39999389648</ele>
        <time>2017-07-22T09:05:03Z</time>
      </trkpt>
      <trkpt lat="47.69729" lon="6.83503">
        <ele>416</ele>
        <time>2017-07-22T09:05:06Z</time>
      </trkpt>
      <trkpt lat="47.69684" lon="6.83508">
        <ele>415.39999389648</ele>
        <time>2017-07-22T09:05:13Z</time>
      </trkpt>
      <trkpt lat="47.69653" lon="6.83511">
        <ele>415.20001220703</ele>
        <time>2017-07-22T09:05:18Z</time>
      </trkpt>
      <trkpt lat="47.69615" lon="6.83516">
        <ele>414.79998779297</ele>
        <time>2017-07-22T09:05:24Z</time>
      </trkpt>
      <trkpt lat="47.69574" lon="6.83516">
        <ele>414.39999389648</ele>
        <time>2017-07-22T09:05:30Z</time>
      </trkpt>
      <trkpt lat="47.69567" lon="6.83515">
        <ele>414.20001220703</ele>
        <time>2017-07-22T09:05:31Z</time>
      </trkpt>
      <trkpt lat="47.69528" lon="6.83509">
        <ele>413.60000610352</ele>
        <time>2017-07-22T09:05:36Z</time>
      </trkpt>
      <trkpt lat="47.69497" lon="6.83503">
        <ele>413.20001220703</ele>
        <time>2017-07-22T09:05:40Z</time>
      </trkpt>
      <trkpt lat="47.69465" lon="6.83495">
        <ele>412.79998779297</ele>
        <time>2017-07-22T09:05:44Z</time>
      </trkpt>
      <trkpt lat="47.69425" lon="6.83489">
        <ele>412.20001220703</ele>
        <time>2017-07-22T09:05:49Z</time>
      </trkpt>
      <trkpt lat="47.69417" lon="6.83488">
        <ele>412.20001220703</ele>
        <time>2017-07-22T09:05:50Z</time>
      </trkpt>
      <trkpt lat="47.6938" lon="6.83493">
        <ele>411.79998779297</ele>
        <time>2017-07-22T09:05:55Z</time>
      </trkpt>
      <trkpt lat="47.69328" lon="6.83508">
        <ele>411.20001220703</ele>
        <time>2017-07-22T09:06:02Z</time>
      </trkpt>
      <trkpt lat="47.6932" lon="6.83511">
        <ele>411</ele>
        <time>2017-07-22T09:06:03Z</time>
      </trkpt>
      <trkpt lat="47.69276" lon="6.83536">
        <ele>410.39999389648</ele>
        <time>2017-07-22T09:06:09Z</time>
      </trkpt>
      <trkpt lat="47.6924" lon="6.83558">
        <ele>410</ele>
        <time>2017-07-22T09:06:14Z</time>
      </trkpt>
      <trkpt lat="47.69232" lon="6.83563">
        <ele>409.79998779297</ele>
        <time>2017-07-22T09:06:15Z</time>
      </trkpt>
      <trkpt lat="47.69181" lon="6.83592">
        <ele>409.20001220703</ele>
        <time>2017-07-22T09:06:22Z</time>
      </trkpt>
      <trkpt lat="47.6916" lon="6.83598">
        <ele>409</ele>
        <time>2017-07-22T09:06:25Z</time>
      </trkpt>
      <trkpt lat="47.69145" lon="6.83599">
        <ele>409</ele>
        <time>2017-07-22T09:06:27Z</time>
      </trkpt>
      <trkpt lat="47.69137" lon="6.83599">
        <ele>409</ele>
        <time>2017-07-22T09:06:28Z</time>
      </trkpt>
      <trkpt lat="47.6912" lon="6.83598">
        <ele>408.79998779297</ele>
        <time>2017-07-22T09:06:30Z</time>
      </trkpt>
      <trkpt lat="47.69113" lon="6.83595">
        <ele>408.79998779297</ele>
        <time>2017-07-22T09:06:31Z</time>
      </trkpt>
      <trkpt lat="47.69069" lon="6.83582">
        <ele>408.20001220703</ele>
        <time>2017-07-22T09:06:37Z</time>
      </trkpt>
      <trkpt lat="47.69054" lon="6.83578">
        <ele>408</ele>
        <time>2017-07-22T09:06:39Z</time>
      </trkpt>
      <trkpt lat="47.69018" lon="6.83571">
        <ele>407.60000610352</ele>
        <time>2017-07-22T09:06:44Z</time>
      </trkpt>
      <trkpt lat="47.68968" lon="6.83566">
        <ele>407.20001220703</ele>
        <time>2017-07-22T09:06:51Z</time>
      </trkpt>
      <trkpt lat="47.68932" lon="6.83564">
        <ele>407</ele>
        <time>2017-07-22T09:06:56Z</time>
      </trkpt>
      <trkpt lat="47.68918" lon="6.83566">
        <ele>406.79998779297</ele>
        <time>2017-07-22T09:06:58Z</time>
      </trkpt>
      <trkpt lat="47.68879" lon="6.83565">
        <ele>406.60000610352</ele>
        <time>2017-07-22T09:07:04Z</time>
      </trkpt>
      <trkpt lat="47.68873" lon="6.83565">
        <ele>406.60000610352</ele>
        <time>2017-07-22T09:07:05Z</time>
      </trkpt>
      <trkpt lat="47.68863" lon="6.83575">
        <ele>406.60000610352</ele>
        <time>2017-07-22T09:07:07Z</time>
      </trkpt>
      <trkpt lat="47.68845" lon="6.83596">
        <ele>406.79998779297</ele>
        <time>2017-07-22T09:07:11Z</time>
      </trkpt>
      <trkpt lat="47.68827" lon="6.83618">
        <ele>407.39999389648</ele>
        <time>2017-07-22T09:07:15Z</time>
      </trkpt>
      <trkpt lat="47.68819" lon="6.8363">
        <ele>408.20001220703</ele>
        <time>2017-07-22T09:07:17Z</time>
      </trkpt>
      <trkpt lat="47.68807" lon="6.83649">
        <ele>408.39999389648</ele>
        <time>2017-07-22T09:07:20Z</time>
      </trkpt>
      <trkpt lat="47.68776" lon="6.83702">
        <ele>408.39999389648</ele>
        <time>2017-07-22T09:07:27Z</time>
      </trkpt>
      <trkpt lat="47.6874" lon="6.83772">
        <ele>407.39999389648</ele>
        <time>2017-07-22T09:07:35Z</time>
      </trkpt>
      <trkpt lat="47.68736" lon="6.83782">
        <ele>407.20001220703</ele>
        <time>2017-07-22T09:07:36Z</time>
      </trkpt>
      <trkpt lat="47.68723" lon="6.83808">
        <ele>406.60000610352</ele>
        <time>2017-07-22T09:07:40Z</time>
      </trkpt>
      <trkpt lat="47.68708" lon="6.83815">
        <ele>406.60000610352</ele>
        <time>2017-07-22T09:07:44Z</time>
      </trkpt>
      <trkpt lat="47.68704" lon="6.83817">
        <ele>406.60000610352</ele>
        <time>2017-07-22T09:07:45Z</time>
      </trkpt>
      <trkpt lat="47.68692" lon="6.83831">
        <ele>406.60000610352</ele>
        <time>2017-07-22T09:07:48Z</time>
      </trkpt>
      <trkpt lat="47.68688" lon="6.83836">
        <ele>406.60000610352</ele>
        <time>2017-07-22T09:07:49Z</time>
      </trkpt>
      <trkpt lat="47.68661" lon="6.83859">
        <ele>406.79998779297</ele>
        <time>2017-07-22T09:07:55Z</time>
      </trkpt>
      <trkpt lat="47.68639" lon="6.83873">
        <ele>407.60000610352</ele>
        <time>2017-07-22T09:08:00Z</time>
      </trkpt>
      <trkpt lat="47.6863" lon="6.83879">
        <ele>407.79998779297</ele>
        <time>2017-07-22T09:08:02Z</time>
      </trkpt>
      <trkpt lat="47.68616" lon="6.83887">
        <ele>408.20001220703</ele>
        <time>2017-07-22T09:08:05Z</time>
      </trkpt>
      <trkpt lat="47.68607" lon="6.8389">
        <ele>408.60000610352</ele>
        <time>2017-07-22T09:08:07Z</time>
      </trkpt>
      <trkpt lat="47.68597" lon="6.83892">
        <ele>408.79998779297</ele>
        <time>2017-07-22T09:08:09Z</time>
      </trkpt>
      <trkpt lat="47.68578" lon="6.83896">
        <ele>409.20001220703</ele>
        <time>2017-07-22T09:08:13Z</time>
      </trkpt>
      <trkpt lat="47.68562" lon="6.83897">
        <ele>409.60000610352</ele>
        <time>2017-07-22T09:08:16Z</time>
      </trkpt>
      <trkpt lat="47.68513" lon="6.839">
        <ele>410.20001220703</ele>
        <time>2017-07-22T09:08:26Z</time>
      </trkpt>
      <trkpt lat="47.68466" lon="6.83911">
        <ele>409.60000610352</ele>
        <time>2017-07-22T09:08:34Z</time>
      </trkpt>
      <trkpt lat="47.68426" lon="6.83923">
        <ele>409</ele>
        <time>2017-07-22T09:08:40Z</time>
      </trkpt>
      <trkpt lat="47.68397" lon="6.83929">
        <ele>408.20001220703</ele>
        <time>2017-07-22T09:08:44Z</time>
      </trkpt>
      <trkpt lat="47.68374" lon="6.83936">
        <ele>407.79998779297</ele>
        <time>2017-07-22T09:08:47Z</time>
      </trkpt>
      <trkpt lat="47.68344" lon="6.83945">
        <ele>407.20001220703</ele>
        <time>2017-07-22T09:08:51Z</time>
      </trkpt>
      <trkpt lat="47.68314" lon="6.83953">
        <ele>406.39999389648</ele>
        <time>2017-07-22T09:08:55Z</time>
      </trkpt>
      <trkpt lat="47.683" lon="6.83957">
        <ele>406</ele>
        <time>2017-07-22T09:08:57Z</time>
      </trkpt>
      <trkpt lat="47.68248" lon="6.83972">
        <ele>405.20001220703</ele>
        <time>2017-07-22T09:09:04Z</time>
      </trkpt>
      <trkpt lat="47.6824" lon="6.83974">
        <ele>405</ele>
        <time>2017-07-22T09:09:05Z</time>
      </trkpt>
      <trkpt lat="47.68219" lon="6.8398">
        <ele>404.79998779297</ele>
        <time>2017-07-22T09:09:08Z</time>
      </trkpt>
      <trkpt lat="47.68204" lon="6.83984">
        <ele>404.79998779297</ele>
        <time>2017-07-22T09:09:10Z</time>
      </trkpt>
      <trkpt lat="47.6816" lon="6.83997">
        <ele>405</ele>
        <time>2017-07-22T09:09:16Z</time>
      </trkpt>
      <trkpt lat="47.68113" lon="6.84008">
        <ele>405.20001220703</ele>
        <time>2017-07-22T09:09:23Z</time>
      </trkpt>
      <trkpt lat="47.68065" lon="6.84017">
        <ele>405.20001220703</ele>
        <time>2017-07-22T09:09:30Z</time>
      </trkpt>
      <trkpt lat="47.68016" lon="6.84027">
        <ele>405</ele>
        <time>2017-07-22T09:09:37Z</time>
      </trkpt>
      <trkpt lat="47.67963" lon="6.84037">
        <ele>404.20001220703</ele>
        <time>2017-07-22T09:09:44Z</time>
      </trkpt>
      <trkpt lat="47.67941" lon="6.84041">
        <ele>404</ele>
        <time>2017-07-22T09:09:47Z</time>
      </trkpt>
      <trkpt lat="47.67912" lon="6.84046">
        <ele>403.79998779297</ele>
        <time>2017-07-22T09:09:51Z</time>
      </trkpt>
      <trkpt lat="47.67871" lon="6.84049">
        <ele>403.79998779297</ele>
        <time>2017-07-22T09:09:57Z</time>
      </trkpt>
      <trkpt lat="47.67835" lon="6.84052">
        <ele>404</ele>
        <time>2017-07-22T09:10:03Z</time>
      </trkpt>
      <trkpt lat="47.67804" lon="6.84057">
        <ele>404.20001220703</ele>
        <time>2017-07-22T09:10:08Z</time>
      </trkpt>
      <trkpt lat="47.67772" lon="6.84054">
        <ele>404.39999389648</ele>
        <time>2017-07-22T09:10:13Z</time>
      </trkpt>
      <trkpt lat="47.6774" lon="6.84051">
        <ele>404.39999389648</ele>
        <time>2017-07-22T09:10:18Z</time>
      </trkpt>
      <trkpt lat="47.67722" lon="6.84053">
        <ele>404.20001220703</ele>
        <time>2017-07-22T09:10:21Z</time>
      </trkpt>
      <trkpt lat="47.67715" lon="6.84052">
        <ele>404.39999389648</ele>
        <time>2017-07-22T09:10:22Z</time>
      </trkpt>
      <trkpt lat="47.67687" lon="6.84052">
        <ele>404.79998779297</ele>
        <time>2017-07-22T09:10:27Z</time>
      </trkpt>
      <trkpt lat="47.6767" lon="6.84054">
        <ele>405</ele>
        <time>2017-07-22T09:10:30Z</time>
      </trkpt>
      <trkpt lat="47.67653" lon="6.84059">
        <ele>404.79998779297</ele>
        <time>2017-07-22T09:10:33Z</time>
      </trkpt>
      <trkpt lat="47.67622" lon="6.84072">
        <ele>404.20001220703</ele>
        <time>2017-07-22T09:10:38Z</time>
      </trkpt>
      <trkpt lat="47.67612" lon="6.84078">
        <ele>404</ele>
        <time>2017-07-22T09:10:40Z</time>
      </trkpt>
      <trkpt lat="47.67589" lon="6.8409">
        <ele>403.79998779297</ele>
        <time>2017-07-22T09:10:44Z</time>
      </trkpt>
      <trkpt lat="47.67552" lon="6.84114">
        <ele>402.79998779297</ele>
        <time>2017-07-22T09:10:49Z</time>
      </trkpt>
      <trkpt lat="47.67546" lon="6.84118">
        <ele>402.39999389648</ele>
        <time>2017-07-22T09:10:50Z</time>
      </trkpt>
      <trkpt lat="47.67532" lon="6.84127">
        <ele>401.79998779297</ele>
        <time>2017-07-22T09:10:52Z</time>
      </trkpt>
      <trkpt lat="47.67518" lon="6.84135">
        <ele>400.79998779297</ele>
        <time>2017-07-22T09:10:54Z</time>
      </trkpt>
      <trkpt lat="47.67506" lon="6.84144">
        <ele>400.20001220703</ele>
        <time>2017-07-22T09:10:56Z</time>
      </trkpt>
      <trkpt lat="47.675" lon="6.8415">
        <ele>400</ele>
        <time>2017-07-22T09:10:57Z</time>
      </trkpt>
      <trkpt lat="47.6749" lon="6.84158">
        <ele>399.60000610352</ele>
        <time>2017-07-22T09:10:59Z</time>
      </trkpt>
      <trkpt lat="47.67486" lon="6.84162">
        <ele>399.20001220703</ele>
        <time>2017-07-22T09:11:00Z</time>
      </trkpt>
      <trkpt lat="47.67478" lon="6.84171">
        <ele>398.20001220703</ele>
        <time>2017-07-22T09:11:03Z</time>
      </trkpt>
      <trkpt lat="47.67476" lon="6.84174">
        <ele>398</ele>
        <time>2017-07-22T09:11:04Z</time>
      </trkpt>
      <trkpt lat="47.67468" lon="6.84195">
        <ele>397.39999389648</ele>
        <time>2017-07-22T09:11:08Z</time>
      </trkpt>
      <trkpt lat="47.67462" lon="6.84212">
        <ele>397.20001220703</ele>
        <time>2017-07-22T09:11:10Z</time>
      </trkpt>
      <trkpt lat="47.67456" lon="6.84231">
        <ele>396.79998779297</ele>
        <time>2017-07-22T09:11:12Z</time>
      </trkpt>
      <trkpt lat="47.67443" lon="6.84272">
        <ele>396</ele>
        <time>2017-07-22T09:11:16Z</time>
      </trkpt>
      <trkpt lat="47.67438" lon="6.8428">
        <ele>395.60000610352</ele>
        <time>2017-07-22T09:11:17Z</time>
      </trkpt>
      <trkpt lat="47.67425" lon="6.84293">
        <ele>394.79998779297</ele>
        <time>2017-07-22T09:11:19Z</time>
      </trkpt>
      <trkpt lat="47.67418" lon="6.843">
        <ele>394.60000610352</ele>
        <time>2017-07-22T09:11:20Z</time>
      </trkpt>
      <trkpt lat="47.67395" lon="6.84319">
        <ele>393.79998779297</ele>
        <time>2017-07-22T09:11:23Z</time>
      </trkpt>
      <trkpt lat="47.6737" lon="6.84337">
        <ele>392.79998779297</ele>
        <time>2017-07-22T09:11:26Z</time>
      </trkpt>
      <trkpt lat="47.67362" lon="6.84345">
        <ele>392.39999389648</ele>
        <time>2017-07-22T09:11:27Z</time>
      </trkpt>
      <trkpt lat="47.67346" lon="6.84357">
        <ele>391.60000610352</ele>
        <time>2017-07-22T09:11:29Z</time>
      </trkpt>
      <trkpt lat="47.67332" lon="6.84371">
        <ele>391</ele>
        <time>2017-07-22T09:11:31Z</time>
      </trkpt>
      <trkpt lat="47.67324" lon="6.84376">
        <ele>390.79998779297</ele>
        <time>2017-07-22T09:11:32Z</time>
      </trkpt>
      <trkpt lat="47.67301" lon="6.84384">
        <ele>390.60000610352</ele>
        <time>2017-07-22T09:11:35Z</time>
      </trkpt>
      <trkpt lat="47.67293" lon="6.84386">
        <ele>390.39999389648</ele>
        <time>2017-07-22T09:11:36Z</time>
      </trkpt>
      <trkpt lat="47.67284" lon="6.84386">
        <ele>390.20001220703</ele>
        <time>2017-07-22T09:11:37Z</time>
      </trkpt>
      <trkpt lat="47.67262" lon="6.84381">
        <ele>390</ele>
        <time>2017-07-22T09:11:40Z</time>
      </trkpt>
      <trkpt lat="47.67235" lon="6.84363">
        <ele>389.79998779297</ele>
        <time>2017-07-22T09:11:44Z</time>
      </trkpt>
      <trkpt lat="47.67215" lon="6.84347">
        <ele>389.39999389648</ele>
        <time>2017-07-22T09:11:47Z</time>
      </trkpt>
      <trkpt lat="47.6719" lon="6.84325">
        <ele>389</ele>
        <time>2017-07-22T09:11:51Z</time>
      </trkpt>
      <trkpt lat="47.67166" lon="6.84305">
        <ele>389</ele>
        <time>2017-07-22T09:11:55Z</time>
      </trkpt>
      <trkpt lat="47.67155" lon="6.84295">
        <ele>389</ele>
        <time>2017-07-22T09:11:57Z</time>
      </trkpt>
      <trkpt lat="47.67118" lon="6.84268">
        <ele>388.79998779297</ele>
        <time>2017-07-22T09:12:03Z</time>
      </trkpt>
      <trkpt lat="47.67107" lon="6.84257">
        <ele>388.60000610352</ele>
        <time>2017-07-22T09:12:05Z</time>
      </trkpt>
      <trkpt lat="47.67092" lon="6.84235">
        <ele>388.39999389648</ele>
        <time>2017-07-22T09:12:08Z</time>
      </trkpt>
      <trkpt lat="47.67057" lon="6.84178">
        <ele>388.79998779297</ele>
        <time>2017-07-22T09:12:16Z</time>
      </trkpt>
      <trkpt lat="47.6704" lon="6.8416">
        <ele>388.60000610352</ele>
        <time>2017-07-22T09:12:20Z</time>
      </trkpt>
      <trkpt lat="47.6703" lon="6.84173">
        <ele>388.39999389648</ele>
        <time>2017-07-22T09:12:22Z</time>
      </trkpt>
      <trkpt lat="47.67012" lon="6.84185">
        <ele>388</ele>
        <time>2017-07-22T09:12:25Z</time>
      </trkpt>
      <trkpt lat="47.66997" lon="6.84184">
        <ele>387.79998779297</ele>
        <time>2017-07-22T09:12:27Z</time>
      </trkpt>
      <trkpt lat="47.66982" lon="6.8418">
        <ele>387.39999389648</ele>
        <time>2017-07-22T09:12:29Z</time>
      </trkpt>
      <trkpt lat="47.66975" lon="6.84178">
        <ele>387.20001220703</ele>
        <time>2017-07-22T09:12:30Z</time>
      </trkpt>
      <trkpt lat="47.66932" lon="6.84168">
        <ele>386.60000610352</ele>
        <time>2017-07-22T09:12:36Z</time>
      </trkpt>
      <trkpt lat="47.66895" lon="6.84174">
        <ele>386.39999389648</ele>
        <time>2017-07-22T09:12:41Z</time>
      </trkpt>
      <trkpt lat="47.6686" lon="6.84184">
        <ele>386.20001220703</ele>
        <time>2017-07-22T09:12:46Z</time>
      </trkpt>
      <trkpt lat="47.66826" lon="6.84185">
        <ele>386</ele>
        <time>2017-07-22T09:12:51Z</time>
      </trkpt>
      <trkpt lat="47.66804" lon="6.84186">
        <ele>385.60000610352</ele>
        <time>2017-07-22T09:12:54Z</time>
      </trkpt>
      <trkpt lat="47.66797" lon="6.84188">
        <ele>385.39999389648</ele>
        <time>2017-07-22T09:12:55Z</time>
      </trkpt>
      <trkpt lat="47.66755" lon="6.84203">
        <ele>385.20001220703</ele>
        <time>2017-07-22T09:13:01Z</time>
      </trkpt>
      <trkpt lat="47.66717" lon="6.84228">
        <ele>385</ele>
        <time>2017-07-22T09:13:07Z</time>
      </trkpt>
      <trkpt lat="47.66683" lon="6.84252">
        <ele>385</ele>
        <time>2017-07-22T09:13:12Z</time>
      </trkpt>
      <trkpt lat="47.66669" lon="6.84257">
        <ele>385</ele>
        <time>2017-07-22T09:13:14Z</time>
      </trkpt>
      <trkpt lat="47.66657" lon="6.84258">
        <ele>385</ele>
        <time>2017-07-22T09:13:16Z</time>
      </trkpt>
      <trkpt lat="47.66647" lon="6.84254">
        <ele>385</ele>
        <time>2017-07-22T09:13:18Z</time>
      </trkpt>
      <trkpt lat="47.66634" lon="6.84245">
        <ele>385</ele>
        <time>2017-07-22T09:13:22Z</time>
      </trkpt>
      <trkpt lat="47.6663" lon="6.84245">
        <ele>385.60000610352</ele>
        <time>2017-07-22T09:13:34Z</time>
      </trkpt>
      <trkpt lat="47.66633" lon="6.84249">
        <ele>385.39999389648</ele>
        <time>2017-07-22T09:13:36Z</time>
      </trkpt>
      <trkpt lat="47.6664" lon="6.84255">
        <ele>385.39999389648</ele>
        <time>2017-07-22T09:13:40Z</time>
      </trkpt>
      <trkpt lat="47.66636" lon="6.84272">
        <ele>385.20001220703</ele>
        <time>2017-07-22T09:13:45Z</time>
      </trkpt>
      <trkpt lat="47.6662" lon="6.84286">
        <ele>384.79998779297</ele>
        <time>2017-07-22T09:13:49Z</time>
      </trkpt>
      <trkpt lat="47.66615" lon="6.84291">
        <ele>384.79998779297</ele>
        <time>2017-07-22T09:13:50Z</time>
      </trkpt>
      <trkpt lat="47.6659" lon="6.84313">
        <ele>384.39999389648</ele>
        <time>2017-07-22T09:13:55Z</time>
      </trkpt>
      <trkpt lat="47.66557" lon="6.84345">
        <ele>384.39999389648</ele>
        <time>2017-07-22T09:14:01Z</time>
      </trkpt>
      <trkpt lat="47.66536" lon="6.84371">
        <ele>384</ele>
        <time>2017-07-22T09:14:05Z</time>
      </trkpt>
      <trkpt lat="47.66522" lon="6.84388">
        <ele>383.60000610352</ele>
        <time>2017-07-22T09:14:08Z</time>
      </trkpt>
      <trkpt lat="47.6651" lon="6.84403">
        <ele>383.20001220703</ele>
        <time>2017-07-22T09:14:12Z</time>
      </trkpt>
      <trkpt lat="47.66507" lon="6.84407">
        <ele>383</ele>
        <time>2017-07-22T09:14:14Z</time>
      </trkpt>
      <trkpt lat="47.66502" lon="6.8441">
        <ele>382.39999389648</ele>
        <time>2017-07-22T09:14:26Z</time>
      </trkpt>
      <trkpt lat="47.66495" lon="6.84411">
        <ele>382.39999389648</ele>
        <time>2017-07-22T09:14:30Z</time>
      </trkpt>
      <trkpt lat="47.66493" lon="6.84411">
        <ele>382.39999389648</ele>
        <time>2017-07-22T09:14:31Z</time>
      </trkpt>
      <trkpt lat="47.66488" lon="6.84402">
        <ele>382.39999389648</ele>
        <time>2017-07-22T09:14:34Z</time>
      </trkpt>
      <trkpt lat="47.6648" lon="6.84384">
        <ele>382.79998779297</ele>
        <time>2017-07-22T09:14:39Z</time>
      </trkpt>
      <trkpt lat="47.66479" lon="6.84381">
        <ele>382.79998779297</ele>
        <time>2017-07-22T09:14:40Z</time>
      </trkpt>
      <trkpt lat="47.66472" lon="6.84384">
        <ele>382.79998779297</ele>
        <time>2017-07-22T09:14:43Z</time>
      </trkpt>
      <trkpt lat="47.66469" lon="6.84388">
        <ele>382.79998779297</ele>
        <time>2017-07-22T09:14:44Z</time>
      </trkpt>
      <trkpt lat="47.66465" lon="6.84392">
        <ele>382.79998779297</ele>
        <time>2017-07-22T09:14:45Z</time>
      </trkpt>
      <trkpt lat="47.66461" lon="6.84397">
        <ele>382.60000610352</ele>
        <time>2017-07-22T09:14:46Z</time>
      </trkpt>
      <trkpt lat="47.66457" lon="6.84401">
        <ele>382.60000610352</ele>
        <time>2017-07-22T09:14:47Z</time>
      </trkpt>
      <trkpt lat="47.66434" lon="6.84427">
        <ele>382.39999389648</ele>
        <time>2017-07-22T09:14:52Z</time>
      </trkpt>
      <trkpt lat="47.66422" lon="6.84441">
        <ele>382.20001220703</ele>
        <time>2017-07-22T09:14:56Z</time>
      </trkpt>
      <trkpt lat="47.66423" lon="6.84442">
        <ele>382.20001220703</ele>
        <time>2017-07-22T09:14:57Z</time>
      </trkpt>
      <trkpt lat="47.66423" lon="6.84446">
        <ele>382</ele>
        <time>2017-07-22T09:14:59Z</time>
      </trkpt>
      <trkpt lat="47.66415" lon="6.84453">
        <ele>381.79998779297</ele>
        <time>2017-07-22T09:15:03Z</time>
      </trkpt>
      <trkpt lat="47.66399" lon="6.84472">
        <ele>381.79998779297</ele>
        <time>2017-07-22T09:15:08Z</time>
      </trkpt>
      <trkpt lat="47.66385" lon="6.84496">
        <ele>381.79998779297</ele>
        <time>2017-07-22T09:15:12Z</time>
      </trkpt>
      <trkpt lat="47.66381" lon="6.845">
        <ele>381.79998779297</ele>
        <time>2017-07-22T09:15:13Z</time>
      </trkpt>
      <trkpt lat="47.66366" lon="6.84513">
        <ele>381.79998779297</ele>
        <time>2017-07-22T09:15:16Z</time>
      </trkpt>
      <trkpt lat="47.66361" lon="6.84517">
        <ele>381.79998779297</ele>
        <time>2017-07-22T09:15:17Z</time>
      </trkpt>
      <trkpt lat="47.66356" lon="6.8452">
        <ele>381.79998779297</ele>
        <time>2017-07-22T09:15:18Z</time>
      </trkpt>
      <trkpt lat="47.66341" lon="6.84528">
        <ele>381.79998779297</ele>
        <time>2017-07-22T09:15:21Z</time>
      </trkpt>
      <trkpt lat="47.66327" lon="6.84536">
        <ele>381.79998779297</ele>
        <time>2017-07-22T09:15:24Z</time>
      </trkpt>
      <trkpt lat="47.66324" lon="6.84541">
        <ele>381.60000610352</ele>
        <time>2017-07-22T09:15:25Z</time>
      </trkpt>
      <trkpt lat="47.66315" lon="6.84563">
        <ele>381.39999389648</ele>
        <time>2017-07-22T09:15:28Z</time>
      </trkpt>
      <trkpt lat="47.66311" lon="6.8457">
        <ele>381.39999389648</ele>
        <time>2017-07-22T09:15:29Z</time>
      </trkpt>
      <trkpt lat="47.66284" lon="6.84631">
        <ele>381</ele>
        <time>2017-07-22T09:15:37Z</time>
      </trkpt>
      <trkpt lat="47.66274" lon="6.84653">
        <ele>381</ele>
        <time>2017-07-22T09:15:40Z</time>
      </trkpt>
      <trkpt lat="47.66269" lon="6.8467">
        <ele>381</ele>
        <time>2017-07-22T09:15:42Z</time>
      </trkpt>
      <trkpt lat="47.66264" lon="6.84697">
        <ele>381.20001220703</ele>
        <time>2017-07-22T09:15:45Z</time>
      </trkpt>
      <trkpt lat="47.66265" lon="6.84716">
        <ele>381.20001220703</ele>
        <time>2017-07-22T09:15:47Z</time>
      </trkpt>
      <trkpt lat="47.66271" lon="6.84744">
        <ele>380.79998779297</ele>
        <time>2017-07-22T09:15:50Z</time>
      </trkpt>
      <trkpt lat="47.66275" lon="6.84761">
        <ele>380.60000610352</ele>
        <time>2017-07-22T09:15:52Z</time>
      </trkpt>
      <trkpt lat="47.6628" lon="6.84777">
        <ele>380.39999389648</ele>
        <time>2017-07-22T09:15:54Z</time>
      </trkpt>
      <trkpt lat="47.66284" lon="6.8479">
        <ele>380.39999389648</ele>
        <time>2017-07-22T09:15:56Z</time>
      </trkpt>
      <trkpt lat="47.66283" lon="6.84794">
        <ele>380.39999389648</ele>
        <time>2017-07-22T09:15:57Z</time>
      </trkpt>
      <trkpt lat="47.66271" lon="6.84797">
        <ele>380</ele>
        <time>2017-07-22T09:16:00Z</time>
      </trkpt>
      <trkpt lat="47.66258" lon="6.84807">
        <ele>379.79998779297</ele>
        <time>2017-07-22T09:16:03Z</time>
      </trkpt>
      <trkpt lat="47.6625" lon="6.84821">
        <ele>380</ele>
        <time>2017-07-22T09:16:07Z</time>
      </trkpt>
      <trkpt lat="47.66239" lon="6.84831">
        <ele>379.79998779297</ele>
        <time>2017-07-22T09:16:11Z</time>
      </trkpt>
      <trkpt lat="47.66234" lon="6.84833">
        <ele>379.79998779297</ele>
        <time>2017-07-22T09:16:12Z</time>
      </trkpt>
      <trkpt lat="47.66219" lon="6.84836">
        <ele>379.79998779297</ele>
        <time>2017-07-22T09:16:15Z</time>
      </trkpt>
      <trkpt lat="47.66205" lon="6.84844">
        <ele>379.79998779297</ele>
        <time>2017-07-22T09:16:18Z</time>
      </trkpt>
      <trkpt lat="47.66188" lon="6.84851">
        <ele>379.79998779297</ele>
        <time>2017-07-22T09:16:21Z</time>
      </trkpt>
      <trkpt lat="47.66159" lon="6.84871">
        <ele>380</ele>
        <time>2017-07-22T09:16:27Z</time>
      </trkpt>
      <trkpt lat="47.66145" lon="6.84885">
        <ele>379.79998779297</ele>
        <time>2017-07-22T09:16:30Z</time>
      </trkpt>
      <trkpt lat="47.6614" lon="6.84887">
        <ele>379.60000610352</ele>
        <time>2017-07-22T09:16:31Z</time>
      </trkpt>
      <trkpt lat="47.66118" lon="6.84896">
        <ele>379.39999389648</ele>
        <time>2017-07-22T09:16:35Z</time>
      </trkpt>
      <trkpt lat="47.66107" lon="6.849">
        <ele>379.39999389648</ele>
        <time>2017-07-22T09:16:37Z</time>
      </trkpt>
      <trkpt lat="47.6608" lon="6.8491">
        <ele>379.20001220703</ele>
        <time>2017-07-22T09:16:42Z</time>
      </trkpt>
      <trkpt lat="47.66069" lon="6.84909">
        <ele>379.20001220703</ele>
        <time>2017-07-22T09:16:44Z</time>
      </trkpt>
      <trkpt lat="47.66057" lon="6.84906">
        <ele>379.20001220703</ele>
        <time>2017-07-22T09:16:46Z</time>
      </trkpt>
      <trkpt lat="47.6604" lon="6.84896">
        <ele>379</ele>
        <time>2017-07-22T09:16:49Z</time>
      </trkpt>
      <trkpt lat="47.66013" lon="6.84882">
        <ele>378.79998779297</ele>
        <time>2017-07-22T09:16:54Z</time>
      </trkpt>
      <trkpt lat="47.66008" lon="6.84882">
        <ele>378.79998779297</ele>
        <time>2017-07-22T09:16:55Z</time>
      </trkpt>
      <trkpt lat="47.65999" lon="6.84891">
        <ele>378.79998779297</ele>
        <time>2017-07-22T09:16:58Z</time>
      </trkpt>
      <trkpt lat="47.65997" lon="6.84894">
        <ele>378.79998779297</ele>
        <time>2017-07-22T09:17:00Z</time>
      </trkpt>
      <trkpt lat="47.65995" lon="6.84892">
        <ele>378.79998779297</ele>
        <time>2017-07-22T09:17:02Z</time>
      </trkpt>
      <trkpt lat="47.65986" lon="6.84891">
        <ele>379</ele>
        <time>2017-07-22T09:17:07Z</time>
      </trkpt>
      <trkpt lat="47.65977" lon="6.84884">
        <ele>379.20001220703</ele>
        <time>2017-07-22T09:17:11Z</time>
      </trkpt>
      <trkpt lat="47.65975" lon="6.84884">
        <ele>379.20001220703</ele>
        <time>2017-07-22T09:17:12Z</time>
      </trkpt>
      <trkpt lat="47.65972" lon="6.84889">
        <ele>379.39999389648</ele>
        <time>2017-07-22T09:17:14Z</time>
      </trkpt>
      <trkpt lat="47.65975" lon="6.84886">
        <ele>379.39999389648</ele>
        <time>2017-07-22T09:17:16Z</time>
      </trkpt>
      <trkpt lat="47.65983" lon="6.8489">
        <ele>379.39999389648</ele>
        <time>2017-07-22T09:20:00Z</time>
      </trkpt>
      <trkpt lat="47.65988" lon="6.8489">
        <ele>379.39999389648</ele>
        <time>2017-07-22T09:20:02Z</time>
      </trkpt>
      <trkpt lat="47.65998" lon="6.8488">
        <ele>379.39999389648</ele>
        <time>2017-07-22T09:20:06Z</time>
      </trkpt>
      <trkpt lat="47.65995" lon="6.84855">
        <ele>379.39999389648</ele>
        <time>2017-07-22T09:20:10Z</time>
      </trkpt>
      <trkpt lat="47.65991" lon="6.84837">
        <ele>379.39999389648</ele>
        <time>2017-07-22T09:20:13Z</time>
      </trkpt>
      <trkpt lat="47.65987" lon="6.84817">
        <ele>379.20001220703</ele>
        <time>2017-07-22T09:20:16Z</time>
      </trkpt>
      <trkpt lat="47.65978" lon="6.84767">
        <ele>379.60000610352</ele>
        <time>2017-07-22T09:20:24Z</time>
      </trkpt>
      <trkpt lat="47.65975" lon="6.84753">
        <ele>379.60000610352</ele>
        <time>2017-07-22T09:20:28Z</time>
      </trkpt>
      <trkpt lat="47.65971" lon="6.8475">
        <ele>379.39999389648</ele>
        <time>2017-07-22T09:20:30Z</time>
      </trkpt>
      <trkpt lat="47.65964" lon="6.84751">
        <ele>379.39999389648</ele>
        <time>2017-07-22T09:20:32Z</time>
      </trkpt>
      <trkpt lat="47.65952" lon="6.84757">
        <ele>379.39999389648</ele>
        <time>2017-07-22T09:20:35Z</time>
      </trkpt>
      <trkpt lat="47.65948" lon="6.84758">
        <ele>379.60000610352</ele>
        <time>2017-07-22T09:20:36Z</time>
      </trkpt>
      <trkpt lat="47.65943" lon="6.8476">
        <ele>379.60000610352</ele>
        <time>2017-07-22T09:20:37Z</time>
      </trkpt>
      <trkpt lat="47.65935" lon="6.84765">
        <ele>379.79998779297</ele>
        <time>2017-07-22T09:20:39Z</time>
      </trkpt>
      <trkpt lat="47.65931" lon="6.84766">
        <ele>379.79998779297</ele>
        <time>2017-07-22T09:20:40Z</time>
      </trkpt>
      <trkpt lat="47.65924" lon="6.84769">
        <ele>379.79998779297</ele>
        <time>2017-07-22T09:20:42Z</time>
      </trkpt>
      <trkpt lat="47.65901" lon="6.84781">
        <ele>379.60000610352</ele>
        <time>2017-07-22T09:20:50Z</time>
      </trkpt>
      <trkpt lat="47.65884" lon="6.84787">
        <ele>379.60000610352</ele>
        <time>2017-07-22T09:20:56Z</time>
      </trkpt>
      <trkpt lat="47.65864" lon="6.84797">
        <ele>379.39999389648</ele>
        <time>2017-07-22T09:21:01Z</time>
      </trkpt>
      <trkpt lat="47.65854" lon="6.848">
        <ele>379.39999389648</ele>
        <time>2017-07-22T09:21:03Z</time>
      </trkpt>
      <trkpt lat="47.65834" lon="6.84809">
        <ele>379.20001220703</ele>
        <time>2017-07-22T09:21:07Z</time>
      </trkpt>
      <trkpt lat="47.65797" lon="6.84824">
        <ele>379</ele>
        <time>2017-07-22T09:21:14Z</time>
      </trkpt>
      <trkpt lat="47.65759" lon="6.8484">
        <ele>379</ele>
        <time>2017-07-22T09:21:21Z</time>
      </trkpt>
      <trkpt lat="47.65729" lon="6.84853">
        <ele>379</ele>
        <time>2017-07-22T09:21:27Z</time>
      </trkpt>
      <trkpt lat="47.65685" lon="6.84872">
        <ele>379</ele>
        <time>2017-07-22T09:21:35Z</time>
      </trkpt>
      <trkpt lat="47.65654" lon="6.84884">
        <ele>378.79998779297</ele>
        <time>2017-07-22T09:21:40Z</time>
      </trkpt>
      <trkpt lat="47.65649" lon="6.84886">
        <ele>378.79998779297</ele>
        <time>2017-07-22T09:21:41Z</time>
      </trkpt>
      <trkpt lat="47.65628" lon="6.84896">
        <ele>378.79998779297</ele>
        <time>2017-07-22T09:21:45Z</time>
      </trkpt>
      <trkpt lat="47.65599" lon="6.84906">
        <ele>378.60000610352</ele>
        <time>2017-07-22T09:21:51Z</time>
      </trkpt>
      <trkpt lat="47.65592" lon="6.84909">
        <ele>378.39999389648</ele>
        <time>2017-07-22T09:21:54Z</time>
      </trkpt>
      <trkpt lat="47.65591" lon="6.84912">
        <ele>378.39999389648</ele>
        <time>2017-07-22T09:21:55Z</time>
      </trkpt>
      <trkpt lat="47.65591" lon="6.84932">
        <ele>378.20001220703</ele>
        <time>2017-07-22T09:21:59Z</time>
      </trkpt>
      <trkpt lat="47.65596" lon="6.84968">
        <ele>378</ele>
        <time>2017-07-22T09:22:04Z</time>
      </trkpt>
      <trkpt lat="47.65601" lon="6.85009">
        <ele>377.79998779297</ele>
        <time>2017-07-22T09:22:09Z</time>
      </trkpt>
      <trkpt lat="47.65603" lon="6.85025">
        <ele>377.60000610352</ele>
        <time>2017-07-22T09:22:11Z</time>
      </trkpt>
      <trkpt lat="47.65608" lon="6.85055">
        <ele>377.60000610352</ele>
        <time>2017-07-22T09:22:16Z</time>
      </trkpt>
      <trkpt lat="47.65611" lon="6.85061">
        <ele>377.60000610352</ele>
        <time>2017-07-22T09:22:20Z</time>
      </trkpt>
      <trkpt lat="47.65612" lon="6.8505">
        <ele>377.60000610352</ele>
        <time>2017-07-22T09:22:23Z</time>
      </trkpt>
      <trkpt lat="47.65611" lon="6.85044">
        <ele>377.60000610352</ele>
        <time>2017-07-22T09:22:24Z</time>
      </trkpt>
      <trkpt lat="47.65608" lon="6.85018">
        <ele>377.60000610352</ele>
        <time>2017-07-22T09:22:28Z</time>
      </trkpt>
      <trkpt lat="47.65601" lon="6.84969">
        <ele>377.79998779297</ele>
        <time>2017-07-22T09:22:35Z</time>
      </trkpt>
      <trkpt lat="47.65596" lon="6.84935">
        <ele>377.79998779297</ele>
        <time>2017-07-22T09:22:41Z</time>
      </trkpt>
      <trkpt lat="47.65593" lon="6.84921">
        <ele>378</ele>
        <time>2017-07-22T09:22:45Z</time>
      </trkpt>
      <trkpt lat="47.65593" lon="6.84917">
        <ele>378</ele>
        <time>2017-07-22T09:23:17Z</time>
      </trkpt>
      <trkpt lat="47.65592" lon="6.84914">
        <ele>378</ele>
        <time>2017-07-22T09:23:18Z</time>
      </trkpt>
      <trkpt lat="47.65579" lon="6.84912">
        <ele>378</ele>
        <time>2017-07-22T09:23:22Z</time>
      </trkpt>
      <trkpt lat="47.65567" lon="6.84914">
        <ele>378</ele>
        <time>2017-07-22T09:23:25Z</time>
      </trkpt>
      <trkpt lat="47.65559" lon="6.84916">
        <ele>378</ele>
        <time>2017-07-22T09:23:27Z</time>
      </trkpt>
      <trkpt lat="47.65527" lon="6.84922">
        <ele>378</ele>
        <time>2017-07-22T09:23:34Z</time>
      </trkpt>
      <trkpt lat="47.65523" lon="6.84922">
        <ele>378</ele>
        <time>2017-07-22T09:23:35Z</time>
      </trkpt>
      <trkpt lat="47.65513" lon="6.84924">
        <ele>377.79998779297</ele>
        <time>2017-07-22T09:23:39Z</time>
      </trkpt>
      <trkpt lat="47.65511" lon="6.84929">
        <ele>377.39999389648</ele>
        <time>2017-07-22T09:23:48Z</time>
      </trkpt>
      <trkpt lat="47.65506" lon="6.84934">
        <ele>377.39999389648</ele>
        <time>2017-07-22T09:23:55Z</time>
      </trkpt>
      <trkpt lat="47.65501" lon="6.8493">
        <ele>377.20001220703</ele>
        <time>2017-07-22T09:23:57Z</time>
      </trkpt>
      <trkpt lat="47.65494" lon="6.84921">
        <ele>377.20001220703</ele>
        <time>2017-07-22T09:23:59Z</time>
      </trkpt>
      <trkpt lat="47.65487" lon="6.84911">
        <ele>377.39999389648</ele>
        <time>2017-07-22T09:24:01Z</time>
      </trkpt>
      <trkpt lat="47.6547" lon="6.84887">
        <ele>377.79998779297</ele>
        <time>2017-07-22T09:24:06Z</time>
      </trkpt>
      <trkpt lat="47.65464" lon="6.84878">
        <ele>377.79998779297</ele>
        <time>2017-07-22T09:24:08Z</time>
      </trkpt>
      <trkpt lat="47.65458" lon="6.84869">
        <ele>378</ele>
        <time>2017-07-22T09:24:10Z</time>
      </trkpt>
      <trkpt lat="47.65448" lon="6.84853">
        <ele>378.20001220703</ele>
        <time>2017-07-22T09:24:14Z</time>
      </trkpt>
      <trkpt lat="47.65441" lon="6.84842">
        <ele>378.20001220703</ele>
        <time>2017-07-22T09:24:19Z</time>
      </trkpt>
      <trkpt lat="47.65437" lon="6.84841">
        <ele>377.79998779297</ele>
        <time>2017-07-22T09:24:33Z</time>
      </trkpt>
      <trkpt lat="47.65434" lon="6.84841">
        <ele>377.79998779297</ele>
        <time>2017-07-22T09:24:34Z</time>
      </trkpt>
      <trkpt lat="47.65422" lon="6.84856">
        <ele>377.60000610352</ele>
        <time>2017-07-22T09:24:39Z</time>
      </trkpt>
      <trkpt lat="47.65413" lon="6.84869">
        <ele>377.60000610352</ele>
        <time>2017-07-22T09:24:42Z</time>
      </trkpt>
      <trkpt lat="47.65406" lon="6.84879">
        <ele>377.79998779297</ele>
        <time>2017-07-22T09:24:44Z</time>
      </trkpt>
      <trkpt lat="47.6539" lon="6.84898">
        <ele>378</ele>
        <time>2017-07-22T09:24:48Z</time>
      </trkpt>
      <trkpt lat="47.6538" lon="6.84907">
        <ele>378.20001220703</ele>
        <time>2017-07-22T09:24:50Z</time>
      </trkpt>
      <trkpt lat="47.65351" lon="6.84933">
        <ele>378</ele>
        <time>2017-07-22T09:24:56Z</time>
      </trkpt>
      <trkpt lat="47.65345" lon="6.84937">
        <ele>378</ele>
        <time>2017-07-22T09:24:57Z</time>
      </trkpt>
      <trkpt lat="47.65327" lon="6.84954">
        <ele>378.20001220703</ele>
        <time>2017-07-22T09:25:01Z</time>
      </trkpt>
      <trkpt lat="47.65292" lon="6.84985">
        <ele>377.79998779297</ele>
        <time>2017-07-22T09:25:09Z</time>
      </trkpt>
      <trkpt lat="47.65289" lon="6.84987">
        <ele>377.60000610352</ele>
        <time>2017-07-22T09:25:12Z</time>
      </trkpt>
      <trkpt lat="47.65287" lon="6.84993">
        <ele>377.39999389648</ele>
        <time>2017-07-22T09:25:26Z</time>
      </trkpt>
      <trkpt lat="47.65286" lon="6.84996">
        <ele>377.39999389648</ele>
        <time>2017-07-22T09:25:27Z</time>
      </trkpt>
      <trkpt lat="47.65284" lon="6.84998">
        <ele>377.60000610352</ele>
        <time>2017-07-22T09:25:28Z</time>
      </trkpt>
      <trkpt lat="47.65275" lon="6.85006">
        <ele>377.60000610352</ele>
        <time>2017-07-22T09:25:31Z</time>
      </trkpt>
      <trkpt lat="47.65254" lon="6.85024">
        <ele>377.39999389648</ele>
        <time>2017-07-22T09:25:36Z</time>
      </trkpt>
      <trkpt lat="47.65226" lon="6.8505">
        <ele>377.60000610352</ele>
        <time>2017-07-22T09:25:42Z</time>
      </trkpt>
      <trkpt lat="47.65223" lon="6.85055">
        <ele>377.79998779297</ele>
        <time>2017-07-22T09:25:43Z</time>
      </trkpt>
      <trkpt lat="47.65215" lon="6.85063">
        <ele>377.60000610352</ele>
        <time>2017-07-22T09:25:45Z</time>
      </trkpt>
      <trkpt lat="47.65211" lon="6.85067">
        <ele>377.60000610352</ele>
        <time>2017-07-22T09:25:46Z</time>
      </trkpt>
      <trkpt lat="47.65182" lon="6.8509">
        <ele>377</ele>
        <time>2017-07-22T09:25:53Z</time>
      </trkpt>
      <trkpt lat="47.65161" lon="6.85108">
        <ele>377</ele>
        <time>2017-07-22T09:25:58Z</time>
      </trkpt>
      <trkpt lat="47.65152" lon="6.85116">
        <ele>377</ele>
        <time>2017-07-22T09:26:00Z</time>
      </trkpt>
      <trkpt lat="47.65139" lon="6.85128">
        <ele>376.79998779297</ele>
        <time>2017-07-22T09:26:03Z</time>
      </trkpt>
      <trkpt lat="47.65107" lon="6.85163">
        <ele>376.79998779297</ele>
        <time>2017-07-22T09:26:10Z</time>
      </trkpt>
      <trkpt lat="47.65072" lon="6.85195">
        <ele>376.60000610352</ele>
        <time>2017-07-22T09:26:17Z</time>
      </trkpt>
      <trkpt lat="47.65041" lon="6.8522">
        <ele>376.79998779297</ele>
        <time>2017-07-22T09:26:23Z</time>
      </trkpt>
      <trkpt lat="47.65023" lon="6.85238">
        <ele>376.39999389648</ele>
        <time>2017-07-22T09:26:28Z</time>
      </trkpt>
      <trkpt lat="47.65015" lon="6.85242">
        <ele>376.20001220703</ele>
        <time>2017-07-22T09:26:30Z</time>
      </trkpt>
      <trkpt lat="47.65005" lon="6.8525">
        <ele>376.20001220703</ele>
        <time>2017-07-22T09:26:32Z</time>
      </trkpt>
      <trkpt lat="47.64995" lon="6.85258">
        <ele>376</ele>
        <time>2017-07-22T09:26:34Z</time>
      </trkpt>
      <trkpt lat="47.64976" lon="6.85272">
        <ele>376.20001220703</ele>
        <time>2017-07-22T09:26:38Z</time>
      </trkpt>
      <trkpt lat="47.6496" lon="6.85286">
        <ele>376</ele>
        <time>2017-07-22T09:26:43Z</time>
      </trkpt>
      <trkpt lat="47.64955" lon="6.85291">
        <ele>375.79998779297</ele>
        <time>2017-07-22T09:26:46Z</time>
      </trkpt>
      <trkpt lat="47.64952" lon="6.85293">
        <ele>375.60000610352</ele>
        <time>2017-07-22T09:26:47Z</time>
      </trkpt>
      <trkpt lat="47.64939" lon="6.85306">
        <ele>375.60000610352</ele>
        <time>2017-07-22T09:26:51Z</time>
      </trkpt>
      <trkpt lat="47.64925" lon="6.85317">
        <ele>375.60000610352</ele>
        <time>2017-07-22T09:26:54Z</time>
      </trkpt>
      <trkpt lat="47.64916" lon="6.85323">
        <ele>375.79998779297</ele>
        <time>2017-07-22T09:26:56Z</time>
      </trkpt>
      <trkpt lat="47.64893" lon="6.85349">
        <ele>375.60000610352</ele>
        <time>2017-07-22T09:27:02Z</time>
      </trkpt>
      <trkpt lat="47.64896" lon="6.85367">
        <ele>375.60000610352</ele>
        <time>2017-07-22T09:27:05Z</time>
      </trkpt>
      <trkpt lat="47.64898" lon="6.85374">
        <ele>375.60000610352</ele>
        <time>2017-07-22T09:27:06Z</time>
      </trkpt>
      <trkpt lat="47.64904" lon="6.85407">
        <ele>375.39999389648</ele>
        <time>2017-07-22T09:27:11Z</time>
      </trkpt>
      <trkpt lat="47.64907" lon="6.85437">
        <ele>375.39999389648</ele>
        <time>2017-07-22T09:27:15Z</time>
      </trkpt>
      <trkpt lat="47.6491" lon="6.85452">
        <ele>375.20001220703</ele>
        <time>2017-07-22T09:27:17Z</time>
      </trkpt>
      <trkpt lat="47.64922" lon="6.85505">
        <ele>374.60000610352</ele>
        <time>2017-07-22T09:27:24Z</time>
      </trkpt>
      <trkpt lat="47.64924" lon="6.85512">
        <ele>374.60000610352</ele>
        <time>2017-07-22T09:27:25Z</time>
      </trkpt>
      <trkpt lat="47.64929" lon="6.85536">
        <ele>374.20001220703</ele>
        <time>2017-07-22T09:27:29Z</time>
      </trkpt>
      <trkpt lat="47.6493" lon="6.85542">
        <ele>374.20001220703</ele>
        <time>2017-07-22T09:27:30Z</time>
      </trkpt>
      <trkpt lat="47.64936" lon="6.85582">
        <ele>374</ele>
        <time>2017-07-22T09:27:37Z</time>
      </trkpt>
      <trkpt lat="47.6494" lon="6.85601">
        <ele>373.60000610352</ele>
        <time>2017-07-22T09:27:40Z</time>
      </trkpt>
      <trkpt lat="47.64947" lon="6.85621">
        <ele>373.20001220703</ele>
        <time>2017-07-22T09:27:44Z</time>
      </trkpt>
      <trkpt lat="47.64948" lon="6.85622">
        <ele>373</ele>
        <time>2017-07-22T09:27:45Z</time>
      </trkpt>
      <trkpt lat="47.64952" lon="6.85621">
        <ele>373</ele>
        <time>2017-07-22T09:27:47Z</time>
      </trkpt>
      <trkpt lat="47.64964" lon="6.85605">
        <ele>373</ele>
        <time>2017-07-22T09:27:51Z</time>
      </trkpt>
      <trkpt lat="47.64988" lon="6.85573">
        <ele>373</ele>
        <time>2017-07-22T09:27:57Z</time>
      </trkpt>
      <trkpt lat="47.6501" lon="6.85545">
        <ele>373.39999389648</ele>
        <time>2017-07-22T09:28:03Z</time>
      </trkpt>
      <trkpt lat="47.65022" lon="6.8555">
        <ele>373.39999389648</ele>
        <time>2017-07-22T09:28:06Z</time>
      </trkpt>
      <trkpt lat="47.65029" lon="6.85573">
        <ele>373.39999389648</ele>
        <time>2017-07-22T09:28:09Z</time>
      </trkpt>
      <trkpt lat="47.65031" lon="6.8558">
        <ele>373.39999389648</ele>
        <time>2017-07-22T09:28:10Z</time>
      </trkpt>
      <trkpt lat="47.65035" lon="6.85595">
        <ele>373.39999389648</ele>
        <time>2017-07-22T09:28:12Z</time>
      </trkpt>
      <trkpt lat="47.6504" lon="6.85617">
        <ele>373.60000610352</ele>
        <time>2017-07-22T09:28:15Z</time>
      </trkpt>
      <trkpt lat="47.65051" lon="6.85668">
        <ele>373.60000610352</ele>
        <time>2017-07-22T09:28:22Z</time>
      </trkpt>
      <trkpt lat="47.65052" lon="6.85674">
        <ele>373.39999389648</ele>
        <time>2017-07-22T09:28:25Z</time>
      </trkpt>
      <trkpt lat="47.65053" lon="6.85669">
        <ele>372.79998779297</ele>
        <time>2017-07-22T09:28:38Z</time>
      </trkpt>
      <trkpt lat="47.6505" lon="6.85666">
        <ele>372.79998779297</ele>
        <time>2017-07-22T09:28:40Z</time>
      </trkpt>
      <trkpt lat="47.65044" lon="6.85663">
        <ele>372.79998779297</ele>
        <time>2017-07-22T09:28:43Z</time>
      </trkpt>
      <trkpt lat="47.65041" lon="6.85665">
        <ele>372.79998779297</ele>
        <time>2017-07-22T09:28:44Z</time>
      </trkpt>
      <trkpt lat="47.65027" lon="6.85679">
        <ele>372.60000610352</ele>
        <time>2017-07-22T09:28:48Z</time>
      </trkpt>
      <trkpt lat="47.65023" lon="6.85683">
        <ele>372.60000610352</ele>
        <time>2017-07-22T09:28:49Z</time>
      </trkpt>
      <trkpt lat="47.6502" lon="6.85688">
        <ele>372.39999389648</ele>
        <time>2017-07-22T09:28:50Z</time>
      </trkpt>
      <trkpt lat="47.65008" lon="6.857">
        <ele>372</ele>
        <time>2017-07-22T09:28:53Z</time>
      </trkpt>
      <trkpt lat="47.64982" lon="6.85729">
        <ele>371.79998779297</ele>
        <time>2017-07-22T09:28:59Z</time>
      </trkpt>
      <trkpt lat="47.64947" lon="6.85767">
        <ele>371.60000610352</ele>
        <time>2017-07-22T09:29:07Z</time>
      </trkpt>
      <trkpt lat="47.64925" lon="6.85791">
        <ele>371.60000610352</ele>
        <time>2017-07-22T09:29:12Z</time>
      </trkpt>
      <trkpt lat="47.6492" lon="6.85796">
        <ele>371.39999389648</ele>
        <time>2017-07-22T09:29:13Z</time>
      </trkpt>
      <trkpt lat="47.6489" lon="6.85826">
        <ele>371.39999389648</ele>
        <time>2017-07-22T09:29:19Z</time>
      </trkpt>
      <trkpt lat="47.64884" lon="6.8583">
        <ele>371.39999389648</ele>
        <time>2017-07-22T09:29:20Z</time>
      </trkpt>
      <trkpt lat="47.64844" lon="6.85857">
        <ele>371.20001220703</ele>
        <time>2017-07-22T09:29:27Z</time>
      </trkpt>
      <trkpt lat="47.64804" lon="6.85884">
        <ele>371</ele>
        <time>2017-07-22T09:29:34Z</time>
      </trkpt>
      <trkpt lat="47.648" lon="6.85885">
        <ele>371</ele>
        <time>2017-07-22T09:29:35Z</time>
      </trkpt>
      <trkpt lat="47.64797" lon="6.85884">
        <ele>371</ele>
        <time>2017-07-22T09:29:37Z</time>
      </trkpt>
      <trkpt lat="47.64792" lon="6.85886">
        <ele>370.20001220703</ele>
        <time>2017-07-22T09:29:53Z</time>
      </trkpt>
      <trkpt lat="47.64782" lon="6.85896">
        <ele>370.20001220703</ele>
        <time>2017-07-22T09:29:58Z</time>
      </trkpt>
      <trkpt lat="47.64763" lon="6.85911">
        <ele>370.20001220703</ele>
        <time>2017-07-22T09:30:03Z</time>
      </trkpt>
      <trkpt lat="47.64726" lon="6.85936">
        <ele>370.60000610352</ele>
        <time>2017-07-22T09:30:11Z</time>
      </trkpt>
      <trkpt lat="47.64695" lon="6.85958">
        <ele>370.60000610352</ele>
        <time>2017-07-22T09:30:17Z</time>
      </trkpt>
      <trkpt lat="47.64653" lon="6.85984">
        <ele>370.60000610352</ele>
        <time>2017-07-22T09:30:25Z</time>
      </trkpt>
      <trkpt lat="47.6462" lon="6.86005">
        <ele>370.79998779297</ele>
        <time>2017-07-22T09:30:31Z</time>
      </trkpt>
      <trkpt lat="47.64574" lon="6.8603">
        <ele>370.79998779297</ele>
        <time>2017-07-22T09:30:39Z</time>
      </trkpt>
      <trkpt lat="47.64532" lon="6.86044">
        <ele>370.60000610352</ele>
        <time>2017-07-22T09:30:46Z</time>
      </trkpt>
      <trkpt lat="47.64491" lon="6.86056">
        <ele>370.60000610352</ele>
        <time>2017-07-22T09:30:53Z</time>
      </trkpt>
      <trkpt lat="47.64463" lon="6.86069">
        <ele>370.60000610352</ele>
        <time>2017-07-22T09:30:58Z</time>
      </trkpt>
      <trkpt lat="47.64423" lon="6.86087">
        <ele>370.60000610352</ele>
        <time>2017-07-22T09:31:05Z</time>
      </trkpt>
      <trkpt lat="47.64418" lon="6.86088">
        <ele>370.60000610352</ele>
        <time>2017-07-22T09:31:06Z</time>
      </trkpt>
      <trkpt lat="47.64401" lon="6.86094">
        <ele>370.60000610352</ele>
        <time>2017-07-22T09:31:09Z</time>
      </trkpt>
      <trkpt lat="47.64373" lon="6.86105">
        <ele>370.79998779297</ele>
        <time>2017-07-22T09:31:14Z</time>
      </trkpt>
      <trkpt lat="47.64368" lon="6.86108">
        <ele>370.79998779297</ele>
        <time>2017-07-22T09:31:15Z</time>
      </trkpt>
      <trkpt lat="47.64346" lon="6.8612">
        <ele>371</ele>
        <time>2017-07-22T09:31:19Z</time>
      </trkpt>
      <trkpt lat="47.64334" lon="6.86123">
        <ele>371</ele>
        <time>2017-07-22T09:31:21Z</time>
      </trkpt>
      <trkpt lat="47.64301" lon="6.86137">
        <ele>371</ele>
        <time>2017-07-22T09:31:27Z</time>
      </trkpt>
      <trkpt lat="47.64274" lon="6.86152">
        <ele>371</ele>
        <time>2017-07-22T09:31:32Z</time>
      </trkpt>
      <trkpt lat="47.64272" lon="6.86152">
        <ele>371</ele>
        <time>2017-07-22T09:31:33Z</time>
      </trkpt>
      <trkpt lat="47.64263" lon="6.86144">
        <ele>371</ele>
        <time>2017-07-22T09:31:37Z</time>
      </trkpt>
      <trkpt lat="47.64253" lon="6.86137">
        <ele>371.20001220703</ele>
        <time>2017-07-22T09:31:40Z</time>
      </trkpt>
      <trkpt lat="47.64246" lon="6.86128">
        <ele>371.39999389648</ele>
        <time>2017-07-22T09:31:42Z</time>
      </trkpt>
      <trkpt lat="47.6423" lon="6.86107">
        <ele>371.39999389648</ele>
        <time>2017-07-22T09:31:47Z</time>
      </trkpt>
      <trkpt lat="47.64215" lon="6.86084">
        <ele>370.79998779297</ele>
        <time>2017-07-22T09:31:53Z</time>
      </trkpt>
      <trkpt lat="47.64211" lon="6.86082">
        <ele>370.79998779297</ele>
        <time>2017-07-22T09:31:54Z</time>
      </trkpt>
      <trkpt lat="47.64202" lon="6.86074">
        <ele>370.79998779297</ele>
        <time>2017-07-22T09:31:56Z</time>
      </trkpt>
      <trkpt lat="47.64197" lon="6.8607">
        <ele>370.79998779297</ele>
        <time>2017-07-22T09:31:57Z</time>
      </trkpt>
      <trkpt lat="47.64161" lon="6.86042">
        <ele>370.39999389648</ele>
        <time>2017-07-22T09:32:04Z</time>
      </trkpt>
      <trkpt lat="47.64121" lon="6.86009">
        <ele>370.39999389648</ele>
        <time>2017-07-22T09:32:12Z</time>
      </trkpt>
      <trkpt lat="47.64099" lon="6.85989">
        <ele>370.39999389648</ele>
        <time>2017-07-22T09:32:18Z</time>
      </trkpt>
      <trkpt lat="47.64088" lon="6.85968">
        <ele>370.39999389648</ele>
        <time>2017-07-22T09:32:23Z</time>
      </trkpt>
      <trkpt lat="47.64082" lon="6.8595">
        <ele>370.39999389648</ele>
        <time>2017-07-22T09:32:29Z</time>
      </trkpt>
      <trkpt lat="47.64077" lon="6.85936">
        <ele>370.39999389648</ele>
        <time>2017-07-22T09:32:34Z</time>
      </trkpt>
      <trkpt lat="47.64067" lon="6.85917">
        <ele>370.20001220703</ele>
        <time>2017-07-22T09:32:39Z</time>
      </trkpt>
      <trkpt lat="47.64056" lon="6.85909">
        <ele>370.20001220703</ele>
        <time>2017-07-22T09:32:42Z</time>
      </trkpt>
      <trkpt lat="47.64051" lon="6.85907">
        <ele>370.39999389648</ele>
        <time>2017-07-22T09:32:43Z</time>
      </trkpt>
      <trkpt lat="47.64042" lon="6.85904">
        <ele>370.39999389648</ele>
        <time>2017-07-22T09:32:45Z</time>
      </trkpt>
      <trkpt lat="47.64022" lon="6.85899">
        <ele>370.60000610352</ele>
        <time>2017-07-22T09:32:49Z</time>
      </trkpt>
      <trkpt lat="47.64017" lon="6.85897">
        <ele>370.60000610352</ele>
        <time>2017-07-22T09:32:50Z</time>
      </trkpt>
      <trkpt lat="47.63995" lon="6.85892">
        <ele>370.39999389648</ele>
        <time>2017-07-22T09:32:54Z</time>
      </trkpt>
      <trkpt lat="47.6396" lon="6.85883">
        <ele>370.39999389648</ele>
        <time>2017-07-22T09:33:00Z</time>
      </trkpt>
      <trkpt lat="47.63955" lon="6.85881">
        <ele>370.39999389648</ele>
        <time>2017-07-22T09:33:01Z</time>
      </trkpt>
      <trkpt lat="47.63933" lon="6.85874">
        <ele>370.39999389648</ele>
        <time>2017-07-22T09:33:05Z</time>
      </trkpt>
      <trkpt lat="47.63895" lon="6.85862">
        <ele>370.60000610352</ele>
        <time>2017-07-22T09:33:12Z</time>
      </trkpt>
      <trkpt lat="47.63878" lon="6.85859">
        <ele>370.79998779297</ele>
        <time>2017-07-22T09:33:15Z</time>
      </trkpt>
      <trkpt lat="47.63856" lon="6.85857">
        <ele>370.60000610352</ele>
        <time>2017-07-22T09:33:19Z</time>
      </trkpt>
      <trkpt lat="47.63833" lon="6.85855">
        <ele>370.20001220703</ele>
        <time>2017-07-22T09:33:23Z</time>
      </trkpt>
      <trkpt lat="47.63816" lon="6.85854">
        <ele>370</ele>
        <time>2017-07-22T09:33:26Z</time>
      </trkpt>
      <trkpt lat="47.63794" lon="6.85853">
        <ele>370.39999389648</ele>
        <time>2017-07-22T09:33:30Z</time>
      </trkpt>
      <trkpt lat="47.63784" lon="6.85856">
        <ele>370.39999389648</ele>
        <time>2017-07-22T09:33:32Z</time>
      </trkpt>
      <trkpt lat="47.63779" lon="6.85858">
        <ele>370.39999389648</ele>
        <time>2017-07-22T09:33:33Z</time>
      </trkpt>
      <trkpt lat="47.63776" lon="6.85862">
        <ele>370.39999389648</ele>
        <time>2017-07-22T09:33:34Z</time>
      </trkpt>
      <trkpt lat="47.63773" lon="6.85868">
        <ele>370.39999389648</ele>
        <time>2017-07-22T09:33:36Z</time>
      </trkpt>
      <trkpt lat="47.63761" lon="6.85874">
        <ele>370.20001220703</ele>
        <time>2017-07-22T09:33:40Z</time>
      </trkpt>
      <trkpt lat="47.63734" lon="6.85883">
        <ele>370</ele>
        <time>2017-07-22T09:33:45Z</time>
      </trkpt>
      <trkpt lat="47.63692" lon="6.859">
        <ele>370</ele>
        <time>2017-07-22T09:33:52Z</time>
      </trkpt>
      <trkpt lat="47.63688" lon="6.85907">
        <ele>369.79998779297</ele>
        <time>2017-07-22T09:33:53Z</time>
      </trkpt>
      <trkpt lat="47.63674" lon="6.8594">
        <ele>369.79998779297</ele>
        <time>2017-07-22T09:33:57Z</time>
      </trkpt>
      <trkpt lat="47.6366" lon="6.85976">
        <ele>369.79998779297</ele>
        <time>2017-07-22T09:34:02Z</time>
      </trkpt>
      <trkpt lat="47.6366" lon="6.85981">
        <ele>369.60000610352</ele>
        <time>2017-07-22T09:34:04Z</time>
      </trkpt>
      <trkpt lat="47.63661" lon="6.8598">
        <ele>369.60000610352</ele>
        <time>2017-07-22T09:34:05Z</time>
      </trkpt>
      <trkpt lat="47.63664" lon="6.85975">
        <ele>369.60000610352</ele>
        <time>2017-07-22T09:34:06Z</time>
      </trkpt>
      <trkpt lat="47.63667" lon="6.85967">
        <ele>369.39999389648</ele>
        <time>2017-07-22T09:34:08Z</time>
      </trkpt>
      <trkpt lat="47.63672" lon="6.85951">
        <ele>369.60000610352</ele>
        <time>2017-07-22T09:34:13Z</time>
      </trkpt>
      <trkpt lat="47.63668" lon="6.85941">
        <ele>369.79998779297</ele>
        <time>2017-07-22T09:34:16Z</time>
      </trkpt>
      <trkpt lat="47.63653" lon="6.85923">
        <ele>369.79998779297</ele>
        <time>2017-07-22T09:34:21Z</time>
      </trkpt>
      <trkpt lat="47.6365" lon="6.85921">
        <ele>369.60000610352</ele>
        <time>2017-07-22T09:34:24Z</time>
      </trkpt>
      <trkpt lat="47.63645" lon="6.85929">
        <ele>369.39999389648</ele>
        <time>2017-07-22T09:34:28Z</time>
      </trkpt>
      <trkpt lat="47.63633" lon="6.85945">
        <ele>369.39999389648</ele>
        <time>2017-07-22T09:34:32Z</time>
      </trkpt>
      <trkpt lat="47.63629" lon="6.85949">
        <ele>369.39999389648</ele>
        <time>2017-07-22T09:34:33Z</time>
      </trkpt>
      <trkpt lat="47.63596" lon="6.85979">
        <ele>369.60000610352</ele>
        <time>2017-07-22T09:34:40Z</time>
      </trkpt>
      <trkpt lat="47.6356" lon="6.86011">
        <ele>369.20001220703</ele>
        <time>2017-07-22T09:34:47Z</time>
      </trkpt>
      <trkpt lat="47.6355" lon="6.86019">
        <ele>369</ele>
        <time>2017-07-22T09:34:49Z</time>
      </trkpt>
      <trkpt lat="47.63539" lon="6.86028">
        <ele>369</ele>
        <time>2017-07-22T09:34:51Z</time>
      </trkpt>
      <trkpt lat="47.63516" lon="6.8604">
        <ele>369.20001220703</ele>
        <time>2017-07-22T09:34:55Z</time>
      </trkpt>
      <trkpt lat="47.63481" lon="6.86059">
        <ele>368.79998779297</ele>
        <time>2017-07-22T09:35:01Z</time>
      </trkpt>
      <trkpt lat="47.63475" lon="6.86061">
        <ele>368.79998779297</ele>
        <time>2017-07-22T09:35:02Z</time>
      </trkpt>
      <trkpt lat="47.63432" lon="6.86078">
        <ele>368.20001220703</ele>
        <time>2017-07-22T09:35:09Z</time>
      </trkpt>
      <trkpt lat="47.63415" lon="6.86084">
        <ele>368.79998779297</ele>
        <time>2017-07-22T09:35:13Z</time>
      </trkpt>
      <trkpt lat="47.634" lon="6.86092">
        <ele>369.39999389648</ele>
        <time>2017-07-22T09:35:18Z</time>
      </trkpt>
      <trkpt lat="47.6339" lon="6.86096">
        <ele>369.20001220703</ele>
        <time>2017-07-22T09:35:20Z</time>
      </trkpt>
      <trkpt lat="47.63375" lon="6.86105">
        <ele>369.20001220703</ele>
        <time>2017-07-22T09:35:23Z</time>
      </trkpt>
      <trkpt lat="47.63329" lon="6.86132">
        <ele>368.79998779297</ele>
        <time>2017-07-22T09:35:31Z</time>
      </trkpt>
      <trkpt lat="47.63296" lon="6.86151">
        <ele>369</ele>
        <time>2017-07-22T09:35:37Z</time>
      </trkpt>
      <trkpt lat="47.63289" lon="6.86153">
        <ele>369</ele>
        <time>2017-07-22T09:35:39Z</time>
      </trkpt>
      <trkpt lat="47.63287" lon="6.86151">
        <ele>368.79998779297</ele>
        <time>2017-07-22T09:35:40Z</time>
      </trkpt>
      <trkpt lat="47.63284" lon="6.86137">
        <ele>368.39999389648</ele>
        <time>2017-07-22T09:35:44Z</time>
      </trkpt>
      <trkpt lat="47.63282" lon="6.86128">
        <ele>368.39999389648</ele>
        <time>2017-07-22T09:35:47Z</time>
      </trkpt>
      <trkpt lat="47.6328" lon="6.86128">
        <ele>368.39999389648</ele>
        <time>2017-07-22T09:35:48Z</time>
      </trkpt>
      <trkpt lat="47.6327" lon="6.86135">
        <ele>368.20001220703</ele>
        <time>2017-07-22T09:35:51Z</time>
      </trkpt>
      <trkpt lat="47.63266" lon="6.86138">
        <ele>368.20001220703</ele>
        <time>2017-07-22T09:35:52Z</time>
      </trkpt>
      <trkpt lat="47.63262" lon="6.8614">
        <ele>368</ele>
        <time>2017-07-22T09:35:53Z</time>
      </trkpt>
      <trkpt lat="47.63239" lon="6.86154">
        <ele>368</ele>
        <time>2017-07-22T09:35:58Z</time>
      </trkpt>
      <trkpt lat="47.63207" lon="6.8617">
        <ele>368</ele>
        <time>2017-07-22T09:36:04Z</time>
      </trkpt>
      <trkpt lat="47.63167" lon="6.8619">
        <ele>368</ele>
        <time>2017-07-22T09:36:11Z</time>
      </trkpt>
      <trkpt lat="47.63133" lon="6.86209">
        <ele>367.60000610352</ele>
        <time>2017-07-22T09:36:18Z</time>
      </trkpt>
      <trkpt lat="47.63129" lon="6.8621">
        <ele>367.20001220703</ele>
        <time>2017-07-22T09:36:28Z</time>
      </trkpt>
      <trkpt lat="47.63119" lon="6.86218">
        <ele>367.20001220703</ele>
        <time>2017-07-22T09:36:32Z</time>
      </trkpt>
      <trkpt lat="47.631" lon="6.86229">
        <ele>367</ele>
        <time>2017-07-22T09:36:37Z</time>
      </trkpt>
      <trkpt lat="47.63095" lon="6.8623">
        <ele>367</ele>
        <time>2017-07-22T09:36:38Z</time>
      </trkpt>
      <trkpt lat="47.63059" lon="6.86239">
        <ele>367</ele>
        <time>2017-07-22T09:36:45Z</time>
      </trkpt>
      <trkpt lat="47.63012" lon="6.86253">
        <ele>366.79998779297</ele>
        <time>2017-07-22T09:36:54Z</time>
      </trkpt>
      <trkpt lat="47.62979" lon="6.86262">
        <ele>367</ele>
        <time>2017-07-22T09:37:00Z</time>
      </trkpt>
      <trkpt lat="47.62956" lon="6.86263">
        <ele>367</ele>
        <time>2017-07-22T09:37:04Z</time>
      </trkpt>
      <trkpt lat="47.62951" lon="6.86263">
        <ele>367</ele>
        <time>2017-07-22T09:37:05Z</time>
      </trkpt>
      <trkpt lat="47.62919" lon="6.86268">
        <ele>366.79998779297</ele>
        <time>2017-07-22T09:37:11Z</time>
      </trkpt>
      <trkpt lat="47.62884" lon="6.86274">
        <ele>367</ele>
        <time>2017-07-22T09:37:18Z</time>
      </trkpt>
      <trkpt lat="47.62875" lon="6.86276">
        <ele>367.20001220703</ele>
        <time>2017-07-22T09:37:20Z</time>
      </trkpt>
      <trkpt lat="47.62863" lon="6.86277">
        <ele>367</ele>
        <time>2017-07-22T09:37:23Z</time>
      </trkpt>
      <trkpt lat="47.62859" lon="6.86282">
        <ele>367</ele>
        <time>2017-07-22T09:37:25Z</time>
      </trkpt>
      <trkpt lat="47.62858" lon="6.86287">
        <ele>367</ele>
        <time>2017-07-22T09:37:26Z</time>
      </trkpt>
      <trkpt lat="47.62859" lon="6.86306">
        <ele>366.79998779297</ele>
        <time>2017-07-22T09:37:29Z</time>
      </trkpt>
      <trkpt lat="47.62859" lon="6.86314">
        <ele>366.60000610352</ele>
        <time>2017-07-22T09:37:30Z</time>
      </trkpt>
      <trkpt lat="47.62861" lon="6.86372">
        <ele>366.39999389648</ele>
        <time>2017-07-22T09:37:37Z</time>
      </trkpt>
      <trkpt lat="47.62861" lon="6.86397">
        <ele>366.20001220703</ele>
        <time>2017-07-22T09:37:40Z</time>
      </trkpt>
      <trkpt lat="47.62859" lon="6.86414">
        <ele>366</ele>
        <time>2017-07-22T09:37:42Z</time>
      </trkpt>
      <trkpt lat="47.62858" lon="6.86422">
        <ele>366</ele>
        <time>2017-07-22T09:37:43Z</time>
      </trkpt>
      <trkpt lat="47.62856" lon="6.86436">
        <ele>365.79998779297</ele>
        <time>2017-07-22T09:37:45Z</time>
      </trkpt>
      <trkpt lat="47.62853" lon="6.86445">
        <ele>365.60000610352</ele>
        <time>2017-07-22T09:37:47Z</time>
      </trkpt>
      <trkpt lat="47.6285" lon="6.86449">
        <ele>365.60000610352</ele>
        <time>2017-07-22T09:37:53Z</time>
      </trkpt>
      <trkpt lat="47.62843" lon="6.86459">
        <ele>365.39999389648</ele>
        <time>2017-07-22T09:37:57Z</time>
      </trkpt>
      <trkpt lat="47.6284" lon="6.86461">
        <ele>365.39999389648</ele>
        <time>2017-07-22T09:38:32Z</time>
      </trkpt>
      <trkpt lat="47.62839" lon="6.86462">
        <ele>365.39999389648</ele>
        <time>2017-07-22T09:38:33Z</time>
      </trkpt>
      <trkpt lat="47.62836" lon="6.86464">
        <ele>365.39999389648</ele>
        <time>2017-07-22T09:38:35Z</time>
      </trkpt>
      <trkpt lat="47.62828" lon="6.86467">
        <ele>365.39999389648</ele>
        <time>2017-07-22T09:38:38Z</time>
      </trkpt>
      <trkpt lat="47.62816" lon="6.86468">
        <ele>365.60000610352</ele>
        <time>2017-07-22T09:38:43Z</time>
      </trkpt>
      <trkpt lat="47.62795" lon="6.86462">
        <ele>365.79998779297</ele>
        <time>2017-07-22T09:38:47Z</time>
      </trkpt>
      <trkpt lat="47.62784" lon="6.86458">
        <ele>365.79998779297</ele>
        <time>2017-07-22T09:38:49Z</time>
      </trkpt>
      <trkpt lat="47.62768" lon="6.8645">
        <ele>365.79998779297</ele>
        <time>2017-07-22T09:38:52Z</time>
      </trkpt>
      <trkpt lat="47.62762" lon="6.86447">
        <ele>365.79998779297</ele>
        <time>2017-07-22T09:38:53Z</time>
      </trkpt>
      <trkpt lat="47.62727" lon="6.86424">
        <ele>365.60000610352</ele>
        <time>2017-07-22T09:39:00Z</time>
      </trkpt>
      <trkpt lat="47.62715" lon="6.86414">
        <ele>365.60000610352</ele>
        <time>2017-07-22T09:39:03Z</time>
      </trkpt>
      <trkpt lat="47.62703" lon="6.86399">
        <ele>365.79998779297</ele>
        <time>2017-07-22T09:39:06Z</time>
      </trkpt>
      <trkpt lat="47.62677" lon="6.86361">
        <ele>366</ele>
        <time>2017-07-22T09:39:13Z</time>
      </trkpt>
      <trkpt lat="47.62652" lon="6.86328">
        <ele>366</ele>
        <time>2017-07-22T09:39:19Z</time>
      </trkpt>
      <trkpt lat="47.62619" lon="6.86306">
        <ele>366</ele>
        <time>2017-07-22T09:39:25Z</time>
      </trkpt>
      <trkpt lat="47.62579" lon="6.86294">
        <ele>365.79998779297</ele>
        <time>2017-07-22T09:39:32Z</time>
      </trkpt>
      <trkpt lat="47.62554" lon="6.86297">
        <ele>365.60000610352</ele>
        <time>2017-07-22T09:39:36Z</time>
      </trkpt>
      <trkpt lat="47.6251" lon="6.86311">
        <ele>365</ele>
        <time>2017-07-22T09:39:43Z</time>
      </trkpt>
      <trkpt lat="47.62473" lon="6.86328">
        <ele>364.60000610352</ele>
        <time>2017-07-22T09:39:49Z</time>
      </trkpt>
      <trkpt lat="47.6245" lon="6.86335">
        <ele>364.79998779297</ele>
        <time>2017-07-22T09:39:53Z</time>
      </trkpt>
      <trkpt lat="47.62444" lon="6.86335">
        <ele>364.79998779297</ele>
        <time>2017-07-22T09:39:54Z</time>
      </trkpt>
      <trkpt lat="47.62408" lon="6.86338">
        <ele>364.79998779297</ele>
        <time>2017-07-22T09:40:00Z</time>
      </trkpt>
      <trkpt lat="47.62364" lon="6.86329">
        <ele>364.79998779297</ele>
        <time>2017-07-22T09:40:07Z</time>
      </trkpt>
      <trkpt lat="47.62324" lon="6.86306">
        <ele>364.60000610352</ele>
        <time>2017-07-22T09:40:14Z</time>
      </trkpt>
      <trkpt lat="47.62278" lon="6.86281">
        <ele>364.60000610352</ele>
        <time>2017-07-22T09:40:22Z</time>
      </trkpt>
      <trkpt lat="47.6223" lon="6.86262">
        <ele>364.60000610352</ele>
        <time>2017-07-22T09:40:30Z</time>
      </trkpt>
      <trkpt lat="47.62192" lon="6.86249">
        <ele>364.60000610352</ele>
        <time>2017-07-22T09:40:36Z</time>
      </trkpt>
      <trkpt lat="47.62174" lon="6.86242">
        <ele>364.20001220703</ele>
        <time>2017-07-22T09:40:40Z</time>
      </trkpt>
      <trkpt lat="47.62171" lon="6.8624">
        <ele>364</ele>
        <time>2017-07-22T09:40:42Z</time>
      </trkpt>
      <trkpt lat="47.62164" lon="6.86236">
        <ele>363.39999389648</ele>
        <time>2017-07-22T09:40:45Z</time>
      </trkpt>
      <trkpt lat="47.62156" lon="6.86232">
        <ele>363.39999389648</ele>
        <time>2017-07-22T09:40:48Z</time>
      </trkpt>
      <trkpt lat="47.62152" lon="6.86238">
        <ele>363.39999389648</ele>
        <time>2017-07-22T09:40:50Z</time>
      </trkpt>
      <trkpt lat="47.62149" lon="6.86247">
        <ele>363.39999389648</ele>
        <time>2017-07-22T09:40:52Z</time>
      </trkpt>
      <trkpt lat="47.62146" lon="6.86254">
        <ele>363.20001220703</ele>
        <time>2017-07-22T09:40:54Z</time>
      </trkpt>
      <trkpt lat="47.62144" lon="6.86257">
        <ele>363.20001220703</ele>
        <time>2017-07-22T09:40:55Z</time>
      </trkpt>
      <trkpt lat="47.62126" lon="6.86274">
        <ele>363</ele>
        <time>2017-07-22T09:41:01Z</time>
      </trkpt>
      <trkpt lat="47.62107" lon="6.86294">
        <ele>363.20001220703</ele>
        <time>2017-07-22T09:41:07Z</time>
      </trkpt>
      <trkpt lat="47.62089" lon="6.86303">
        <ele>363</ele>
        <time>2017-07-22T09:41:11Z</time>
      </trkpt>
      <trkpt lat="47.62084" lon="6.86305">
        <ele>363</ele>
        <time>2017-07-22T09:41:12Z</time>
      </trkpt>
      <trkpt lat="47.62079" lon="6.86306">
        <ele>363</ele>
        <time>2017-07-22T09:41:13Z</time>
      </trkpt>
      <trkpt lat="47.62065" lon="6.86304">
        <ele>363</ele>
        <time>2017-07-22T09:41:16Z</time>
      </trkpt>
      <trkpt lat="47.62051" lon="6.86301">
        <ele>363</ele>
        <time>2017-07-22T09:41:19Z</time>
      </trkpt>
      <trkpt lat="47.62048" lon="6.86303">
        <ele>363</ele>
        <time>2017-07-22T09:41:20Z</time>
      </trkpt>
      <trkpt lat="47.62043" lon="6.86322">
        <ele>363</ele>
        <time>2017-07-22T09:41:23Z</time>
      </trkpt>
      <trkpt lat="47.62041" lon="6.86335">
        <ele>363</ele>
        <time>2017-07-22T09:41:25Z</time>
      </trkpt>
      <trkpt lat="47.62039" lon="6.86341">
        <ele>363</ele>
        <time>2017-07-22T09:41:26Z</time>
      </trkpt>
      <trkpt lat="47.62037" lon="6.86344">
        <ele>362.79998779297</ele>
        <time>2017-07-22T09:41:27Z</time>
      </trkpt>
      <trkpt lat="47.62027" lon="6.86347">
        <ele>362.79998779297</ele>
        <time>2017-07-22T09:41:29Z</time>
      </trkpt>
      <trkpt lat="47.62004" lon="6.86355">
        <ele>363</ele>
        <time>2017-07-22T09:41:33Z</time>
      </trkpt>
      <trkpt lat="47.61998" lon="6.86356">
        <ele>363</ele>
        <time>2017-07-22T09:41:34Z</time>
      </trkpt>
      <trkpt lat="47.61957" lon="6.86366">
        <ele>362.79998779297</ele>
        <time>2017-07-22T09:41:41Z</time>
      </trkpt>
      <trkpt lat="47.61914" lon="6.86377">
        <ele>362.60000610352</ele>
        <time>2017-07-22T09:41:48Z</time>
      </trkpt>
      <trkpt lat="47.61859" lon="6.86391">
        <ele>362.60000610352</ele>
        <time>2017-07-22T09:41:57Z</time>
      </trkpt>
      <trkpt lat="47.61823" lon="6.86392">
        <ele>362.39999389648</ele>
        <time>2017-07-22T09:42:03Z</time>
      </trkpt>
      <trkpt lat="47.61813" lon="6.86392">
        <ele>362.20001220703</ele>
        <time>2017-07-22T09:42:06Z</time>
      </trkpt>
      <trkpt lat="47.61807" lon="6.86394">
        <ele>361.60000610352</ele>
        <time>2017-07-22T09:42:13Z</time>
      </trkpt>
      <trkpt lat="47.61806" lon="6.86409">
        <ele>361.39999389648</ele>
        <time>2017-07-22T09:42:18Z</time>
      </trkpt>
      <trkpt lat="47.61809" lon="6.86419">
        <ele>361.60000610352</ele>
        <time>2017-07-22T09:42:54Z</time>
      </trkpt>
      <trkpt lat="47.6181" lon="6.86435">
        <ele>361.39999389648</ele>
        <time>2017-07-22T09:42:58Z</time>
      </trkpt>
      <trkpt lat="47.61811" lon="6.86471">
        <ele>361.60000610352</ele>
        <time>2017-07-22T09:43:04Z</time>
      </trkpt>
      <trkpt lat="47.61807" lon="6.86509">
        <ele>361.79998779297</ele>
        <time>2017-07-22T09:43:11Z</time>
      </trkpt>
      <trkpt lat="47.61794" lon="6.86507">
        <ele>361.79998779297</ele>
        <time>2017-07-22T09:43:14Z</time>
      </trkpt>
      <trkpt lat="47.61772" lon="6.86498">
        <ele>361.79998779297</ele>
        <time>2017-07-22T09:43:18Z</time>
      </trkpt>
      <trkpt lat="47.61766" lon="6.86497">
        <ele>361.79998779297</ele>
        <time>2017-07-22T09:43:19Z</time>
      </trkpt>
      <trkpt lat="47.61726" lon="6.86484">
        <ele>361.79998779297</ele>
        <time>2017-07-22T09:43:26Z</time>
      </trkpt>
      <trkpt lat="47.61693" lon="6.86478">
        <ele>361.60000610352</ele>
        <time>2017-07-22T09:43:32Z</time>
      </trkpt>
      <trkpt lat="47.61688" lon="6.86476">
        <ele>361.60000610352</ele>
        <time>2017-07-22T09:43:33Z</time>
      </trkpt>
      <trkpt lat="47.61678" lon="6.8647">
        <ele>361.39999389648</ele>
        <time>2017-07-22T09:43:36Z</time>
      </trkpt>
      <trkpt lat="47.61675" lon="6.86466">
        <ele>360.79998779297</ele>
        <time>2017-07-22T09:43:48Z</time>
      </trkpt>
      <trkpt lat="47.6167" lon="6.86462">
        <ele>360.79998779297</ele>
        <time>2017-07-22T09:43:50Z</time>
      </trkpt>
      <trkpt lat="47.61656" lon="6.86451">
        <ele>360.79998779297</ele>
        <time>2017-07-22T09:43:54Z</time>
      </trkpt>
      <trkpt lat="47.61648" lon="6.86443">
        <ele>360.79998779297</ele>
        <time>2017-07-22T09:43:56Z</time>
      </trkpt>
      <trkpt lat="47.61632" lon="6.86424">
        <ele>361</ele>
        <time>2017-07-22T09:44:00Z</time>
      </trkpt>
      <trkpt lat="47.61628" lon="6.86418">
        <ele>361</ele>
        <time>2017-07-22T09:44:01Z</time>
      </trkpt>
      <trkpt lat="47.616" lon="6.86381">
        <ele>360.79998779297</ele>
        <time>2017-07-22T09:44:08Z</time>
      </trkpt>
      <trkpt lat="47.6159" lon="6.86361">
        <ele>360.79998779297</ele>
        <time>2017-07-22T09:44:12Z</time>
      </trkpt>
      <trkpt lat="47.61585" lon="6.86355">
        <ele>360.79998779297</ele>
        <time>2017-07-22T09:44:14Z</time>
      </trkpt>
      <trkpt lat="47.61581" lon="6.86348">
        <ele>360.79998779297</ele>
        <time>2017-07-22T09:44:17Z</time>
      </trkpt>
      <trkpt lat="47.6158" lon="6.86346">
        <ele>360.60000610352</ele>
        <time>2017-07-22T09:44:19Z</time>
      </trkpt>
      <trkpt lat="47.6158" lon="6.86348">
        <ele>360.39999389648</ele>
        <time>2017-07-22T09:44:20Z</time>
      </trkpt>
      <trkpt lat="47.61587" lon="6.86357">
        <ele>360.39999389648</ele>
        <time>2017-07-22T09:44:24Z</time>
      </trkpt>
      <trkpt lat="47.61599" lon="6.86375">
        <ele>360.20001220703</ele>
        <time>2017-07-22T09:44:29Z</time>
      </trkpt>
      <trkpt lat="47.61608" lon="6.86367">
        <ele>360.60000610352</ele>
        <time>2017-07-22T09:44:32Z</time>
      </trkpt>
      <trkpt lat="47.61612" lon="6.86363">
        <ele>360.60000610352</ele>
        <time>2017-07-22T09:44:33Z</time>
      </trkpt>
      <trkpt lat="47.6163" lon="6.86344">
        <ele>360.79998779297</ele>
        <time>2017-07-22T09:44:38Z</time>
      </trkpt>
      <trkpt lat="47.61639" lon="6.86334">
        <ele>360.60000610352</ele>
        <time>2017-07-22T09:44:42Z</time>
      </trkpt>
      <trkpt lat="47.61643" lon="6.86331">
        <ele>360.60000610352</ele>
        <time>2017-07-22T09:44:45Z</time>
      </trkpt>
      <trkpt lat="47.61644" lon="6.8633">
        <ele>360.60000610352</ele>
        <time>2017-07-22T09:44:49Z</time>
      </trkpt>
      <trkpt lat="47.61643" lon="6.8633">
        <ele>360.60000610352</ele>
        <time>2017-07-22T09:45:34Z</time>
      </trkpt>
      <trkpt lat="47.61642" lon="6.86329">
        <ele>360.60000610352</ele>
        <time>2017-07-22T09:45:36Z</time>
      </trkpt>
      <trkpt lat="47.61636" lon="6.86334">
        <ele>360.39999389648</ele>
        <time>2017-07-22T09:45:40Z</time>
      </trkpt>
      <trkpt lat="47.61634" lon="6.86337">
        <ele>360.39999389648</ele>
        <time>2017-07-22T09:45:41Z</time>
      </trkpt>
      <trkpt lat="47.61622" lon="6.86355">
        <ele>360.20001220703</ele>
        <time>2017-07-22T09:45:45Z</time>
      </trkpt>
      <trkpt lat="47.61615" lon="6.86364">
        <ele>360.20001220703</ele>
        <time>2017-07-22T09:45:47Z</time>
      </trkpt>
      <trkpt lat="47.61607" lon="6.86373">
        <ele>360.20001220703</ele>
        <time>2017-07-22T09:45:49Z</time>
      </trkpt>
      <trkpt lat="47.61604" lon="6.86377">
        <ele>360.20001220703</ele>
        <time>2017-07-22T09:45:50Z</time>
      </trkpt>
      <trkpt lat="47.61593" lon="6.86375">
        <ele>360.20001220703</ele>
        <time>2017-07-22T09:45:53Z</time>
      </trkpt>
      <trkpt lat="47.61578" lon="6.86349">
        <ele>360.79998779297</ele>
        <time>2017-07-22T09:45:57Z</time>
      </trkpt>
      <trkpt lat="47.61565" lon="6.8633">
        <ele>360.79998779297</ele>
        <time>2017-07-22T09:46:01Z</time>
      </trkpt>
      <trkpt lat="47.61556" lon="6.86322">
        <ele>360.79998779297</ele>
        <time>2017-07-22T09:46:03Z</time>
      </trkpt>
      <trkpt lat="47.61542" lon="6.86315">
        <ele>360.79998779297</ele>
        <time>2017-07-22T09:46:06Z</time>
      </trkpt>
      <trkpt lat="47.61533" lon="6.8631">
        <ele>360.60000610352</ele>
        <time>2017-07-22T09:46:08Z</time>
      </trkpt>
      <trkpt lat="47.61521" lon="6.86306">
        <ele>360.39999389648</ele>
        <time>2017-07-22T09:46:11Z</time>
      </trkpt>
      <trkpt lat="47.61511" lon="6.86295">
        <ele>360.39999389648</ele>
        <time>2017-07-22T09:46:14Z</time>
      </trkpt>
      <trkpt lat="47.61506" lon="6.86287">
        <ele>360.39999389648</ele>
        <time>2017-07-22T09:46:16Z</time>
      </trkpt>
      <trkpt lat="47.61498" lon="6.86278">
        <ele>360.39999389648</ele>
        <time>2017-07-22T09:46:20Z</time>
      </trkpt>
      <trkpt lat="47.61494" lon="6.86268">
        <ele>360.39999389648</ele>
        <time>2017-07-22T09:46:23Z</time>
      </trkpt>
      <trkpt lat="47.61493" lon="6.86255">
        <ele>360.20001220703</ele>
        <time>2017-07-22T09:46:26Z</time>
      </trkpt>
      <trkpt lat="47.61492" lon="6.8625">
        <ele>360.20001220703</ele>
        <time>2017-07-22T09:46:27Z</time>
      </trkpt>
      <trkpt lat="47.61487" lon="6.86241">
        <ele>360.39999389648</ele>
        <time>2017-07-22T09:46:29Z</time>
      </trkpt>
      <trkpt lat="47.61478" lon="6.86233">
        <ele>360.60000610352</ele>
        <time>2017-07-22T09:46:31Z</time>
      </trkpt>
      <trkpt lat="47.61457" lon="6.86219">
        <ele>360.60000610352</ele>
        <time>2017-07-22T09:46:35Z</time>
      </trkpt>
      <trkpt lat="47.61446" lon="6.8621">
        <ele>360.79998779297</ele>
        <time>2017-07-22T09:46:37Z</time>
      </trkpt>
      <trkpt lat="47.61435" lon="6.86203">
        <ele>360.60000610352</ele>
        <time>2017-07-22T09:46:39Z</time>
      </trkpt>
      <trkpt lat="47.61419" lon="6.86196">
        <ele>360.60000610352</ele>
        <time>2017-07-22T09:46:42Z</time>
      </trkpt>
      <trkpt lat="47.61413" lon="6.86194">
        <ele>360.60000610352</ele>
        <time>2017-07-22T09:46:43Z</time>
      </trkpt>
      <trkpt lat="47.61379" lon="6.86188">
        <ele>360.20001220703</ele>
        <time>2017-07-22T09:46:49Z</time>
      </trkpt>
      <trkpt lat="47.61365" lon="6.86183">
        <ele>359.79998779297</ele>
        <time>2017-07-22T09:46:52Z</time>
      </trkpt>
      <trkpt lat="47.61361" lon="6.86179">
        <ele>359.79998779297</ele>
        <time>2017-07-22T09:46:53Z</time>
      </trkpt>
      <trkpt lat="47.61348" lon="6.86166">
        <ele>359.60000610352</ele>
        <time>2017-07-22T09:46:56Z</time>
      </trkpt>
      <trkpt lat="47.61335" lon="6.86152">
        <ele>359.20001220703</ele>
        <time>2017-07-22T09:46:59Z</time>
      </trkpt>
      <trkpt lat="47.61315" lon="6.86127">
        <ele>358.79998779297</ele>
        <time>2017-07-22T09:47:05Z</time>
      </trkpt>
      <trkpt lat="47.61308" lon="6.86122">
        <ele>358.79998779297</ele>
        <time>2017-07-22T09:47:07Z</time>
      </trkpt>
      <trkpt lat="47.61299" lon="6.86123">
        <ele>358.79998779297</ele>
        <time>2017-07-22T09:47:09Z</time>
      </trkpt>
      <trkpt lat="47.61291" lon="6.86142">
        <ele>358.79998779297</ele>
        <time>2017-07-22T09:47:12Z</time>
      </trkpt>
      <trkpt lat="47.61289" lon="6.8615">
        <ele>358.79998779297</ele>
        <time>2017-07-22T09:47:13Z</time>
      </trkpt>
      <trkpt lat="47.61284" lon="6.86168">
        <ele>358.79998779297</ele>
        <time>2017-07-22T09:47:15Z</time>
      </trkpt>
      <trkpt lat="47.61281" lon="6.86177">
        <ele>358.60000610352</ele>
        <time>2017-07-22T09:47:16Z</time>
      </trkpt>
      <trkpt lat="47.61277" lon="6.86184">
        <ele>358.60000610352</ele>
        <time>2017-07-22T09:47:17Z</time>
      </trkpt>
      <trkpt lat="47.61254" lon="6.86221">
        <ele>357.79998779297</ele>
        <time>2017-07-22T09:47:22Z</time>
      </trkpt>
      <trkpt lat="47.61224" lon="6.86259">
        <ele>357.79998779297</ele>
        <time>2017-07-22T09:47:28Z</time>
      </trkpt>
      <trkpt lat="47.61193" lon="6.86292">
        <ele>357.60000610352</ele>
        <time>2017-07-22T09:47:34Z</time>
      </trkpt>
      <trkpt lat="47.61183" lon="6.86304">
        <ele>357.39999389648</ele>
        <time>2017-07-22T09:47:36Z</time>
      </trkpt>
      <trkpt lat="47.61161" lon="6.86326">
        <ele>357.20001220703</ele>
        <time>2017-07-22T09:47:40Z</time>
      </trkpt>
      <trkpt lat="47.61134" lon="6.86356">
        <ele>357</ele>
        <time>2017-07-22T09:47:45Z</time>
      </trkpt>
      <trkpt lat="47.61129" lon="6.86359">
        <ele>356.79998779297</ele>
        <time>2017-07-22T09:47:46Z</time>
      </trkpt>
      <trkpt lat="47.6111" lon="6.86363">
        <ele>356.79998779297</ele>
        <time>2017-07-22T09:47:49Z</time>
      </trkpt>
      <trkpt lat="47.61081" lon="6.86366">
        <ele>357.20001220703</ele>
        <time>2017-07-22T09:47:54Z</time>
      </trkpt>
      <trkpt lat="47.61076" lon="6.86368">
        <ele>357.20001220703</ele>
        <time>2017-07-22T09:47:55Z</time>
      </trkpt>
      <trkpt lat="47.61063" lon="6.86385">
        <ele>357.20001220703</ele>
        <time>2017-07-22T09:47:58Z</time>
      </trkpt>
      <trkpt lat="47.61058" lon="6.86391">
        <ele>357.20001220703</ele>
        <time>2017-07-22T09:47:59Z</time>
      </trkpt>
      <trkpt lat="47.6103" lon="6.86427">
        <ele>357.20001220703</ele>
        <time>2017-07-22T09:48:05Z</time>
      </trkpt>
      <trkpt lat="47.61003" lon="6.86471">
        <ele>356.79998779297</ele>
        <time>2017-07-22T09:48:11Z</time>
      </trkpt>
      <trkpt lat="47.60981" lon="6.86493">
        <ele>356.39999389648</ele>
        <time>2017-07-22T09:48:15Z</time>
      </trkpt>
      <trkpt lat="47.60975" lon="6.86498">
        <ele>356.39999389648</ele>
        <time>2017-07-22T09:48:16Z</time>
      </trkpt>
      <trkpt lat="47.60939" lon="6.8652">
        <ele>355.79998779297</ele>
        <time>2017-07-22T09:48:22Z</time>
      </trkpt>
      <trkpt lat="47.60921" lon="6.86515">
        <ele>355.60000610352</ele>
        <time>2017-07-22T09:48:25Z</time>
      </trkpt>
      <trkpt lat="47.60911" lon="6.86506">
        <ele>355.60000610352</ele>
        <time>2017-07-22T09:48:27Z</time>
      </trkpt>
      <trkpt lat="47.60897" lon="6.86492">
        <ele>355.79998779297</ele>
        <time>2017-07-22T09:48:30Z</time>
      </trkpt>
      <trkpt lat="47.60871" lon="6.86457">
        <ele>356</ele>
        <time>2017-07-22T09:48:36Z</time>
      </trkpt>
      <trkpt lat="47.60861" lon="6.86449">
        <ele>356</ele>
        <time>2017-07-22T09:48:38Z</time>
      </trkpt>
      <trkpt lat="47.60849" lon="6.86448">
        <ele>356</ele>
        <time>2017-07-22T09:48:40Z</time>
      </trkpt>
      <trkpt lat="47.60831" lon="6.8646">
        <ele>356</ele>
        <time>2017-07-22T09:48:43Z</time>
      </trkpt>
      <trkpt lat="47.60818" lon="6.86478">
        <ele>356</ele>
        <time>2017-07-22T09:48:46Z</time>
      </trkpt>
      <trkpt lat="47.60811" lon="6.86491">
        <ele>356</ele>
        <time>2017-07-22T09:48:48Z</time>
      </trkpt>
      <trkpt lat="47.60786" lon="6.86532">
        <ele>356</ele>
        <time>2017-07-22T09:48:54Z</time>
      </trkpt>
      <trkpt lat="47.60781" lon="6.86535">
        <ele>356</ele>
        <time>2017-07-22T09:48:55Z</time>
      </trkpt>
      <trkpt lat="47.60762" lon="6.86534">
        <ele>355.79998779297</ele>
        <time>2017-07-22T09:48:58Z</time>
      </trkpt>
      <trkpt lat="47.60746" lon="6.86521">
        <ele>355.79998779297</ele>
        <time>2017-07-22T09:49:01Z</time>
      </trkpt>
      <trkpt lat="47.60741" lon="6.86517">
        <ele>355.79998779297</ele>
        <time>2017-07-22T09:49:02Z</time>
      </trkpt>
      <trkpt lat="47.60729" lon="6.86517">
        <ele>356</ele>
        <time>2017-07-22T09:49:04Z</time>
      </trkpt>
      <trkpt lat="47.60712" lon="6.86532">
        <ele>356</ele>
        <time>2017-07-22T09:49:07Z</time>
      </trkpt>
      <trkpt lat="47.60707" lon="6.86539">
        <ele>356</ele>
        <time>2017-07-22T09:49:08Z</time>
      </trkpt>
      <trkpt lat="47.60679" lon="6.8657">
        <ele>355.79998779297</ele>
        <time>2017-07-22T09:49:13Z</time>
      </trkpt>
      <trkpt lat="47.60651" lon="6.86603">
        <ele>355.39999389648</ele>
        <time>2017-07-22T09:49:18Z</time>
      </trkpt>
      <trkpt lat="47.60646" lon="6.8661">
        <ele>355.20001220703</ele>
        <time>2017-07-22T09:49:19Z</time>
      </trkpt>
      <trkpt lat="47.60641" lon="6.86617">
        <ele>355.20001220703</ele>
        <time>2017-07-22T09:49:20Z</time>
      </trkpt>
      <trkpt lat="47.6063" lon="6.8664">
        <ele>355</ele>
        <time>2017-07-22T09:49:23Z</time>
      </trkpt>
      <trkpt lat="47.60618" lon="6.86662">
        <ele>355</ele>
        <time>2017-07-22T09:49:26Z</time>
      </trkpt>
      <trkpt lat="47.60608" lon="6.86674">
        <ele>355</ele>
        <time>2017-07-22T09:49:28Z</time>
      </trkpt>
      <trkpt lat="47.60586" lon="6.86691">
        <ele>355.20001220703</ele>
        <time>2017-07-22T09:49:32Z</time>
      </trkpt>
      <trkpt lat="47.6058" lon="6.86694">
        <ele>355.20001220703</ele>
        <time>2017-07-22T09:49:33Z</time>
      </trkpt>
      <trkpt lat="47.60564" lon="6.86688">
        <ele>355.20001220703</ele>
        <time>2017-07-22T09:49:36Z</time>
      </trkpt>
      <trkpt lat="47.60562" lon="6.86686">
        <ele>355.20001220703</ele>
        <time>2017-07-22T09:49:37Z</time>
      </trkpt>
      <trkpt lat="47.6056" lon="6.86686">
        <ele>355.20001220703</ele>
        <time>2017-07-22T09:49:38Z</time>
      </trkpt>
      <trkpt lat="47.60558" lon="6.86688">
        <ele>355.20001220703</ele>
        <time>2017-07-22T09:49:39Z</time>
      </trkpt>
      <trkpt lat="47.60551" lon="6.86698">
        <ele>354.60000610352</ele>
        <time>2017-07-22T09:49:43Z</time>
      </trkpt>
      <trkpt lat="47.60548" lon="6.867">
        <ele>354.60000610352</ele>
        <time>2017-07-22T09:49:44Z</time>
      </trkpt>
      <trkpt lat="47.60529" lon="6.86705">
        <ele>354.60000610352</ele>
        <time>2017-07-22T09:49:48Z</time>
      </trkpt>
      <trkpt lat="47.605" lon="6.86705">
        <ele>354.60000610352</ele>
        <time>2017-07-22T09:49:53Z</time>
      </trkpt>
      <trkpt lat="47.60458" lon="6.86696">
        <ele>354.60000610352</ele>
        <time>2017-07-22T09:50:00Z</time>
      </trkpt>
      <trkpt lat="47.60452" lon="6.86694">
        <ele>354.60000610352</ele>
        <time>2017-07-22T09:50:01Z</time>
      </trkpt>
      <trkpt lat="47.60435" lon="6.86688">
        <ele>354.60000610352</ele>
        <time>2017-07-22T09:50:04Z</time>
      </trkpt>
      <trkpt lat="47.60429" lon="6.86687">
        <ele>354.60000610352</ele>
        <time>2017-07-22T09:50:05Z</time>
      </trkpt>
      <trkpt lat="47.60388" lon="6.8668">
        <ele>354.60000610352</ele>
        <time>2017-07-22T09:50:12Z</time>
      </trkpt>
      <trkpt lat="47.60341" lon="6.86671">
        <ele>355</ele>
        <time>2017-07-22T09:50:20Z</time>
      </trkpt>
      <trkpt lat="47.60296" lon="6.86654">
        <ele>355</ele>
        <time>2017-07-22T09:50:28Z</time>
      </trkpt>
      <trkpt lat="47.60281" lon="6.86647">
        <ele>354.79998779297</ele>
        <time>2017-07-22T09:50:31Z</time>
      </trkpt>
      <trkpt lat="47.60272" lon="6.86638">
        <ele>355</ele>
        <time>2017-07-22T09:50:33Z</time>
      </trkpt>
      <trkpt lat="47.60267" lon="6.86635">
        <ele>355</ele>
        <time>2017-07-22T09:50:34Z</time>
      </trkpt>
      <trkpt lat="47.60252" lon="6.8663">
        <ele>355.20001220703</ele>
        <time>2017-07-22T09:50:37Z</time>
      </trkpt>
      <trkpt lat="47.60247" lon="6.8663">
        <ele>355.20001220703</ele>
        <time>2017-07-22T09:50:38Z</time>
      </trkpt>
      <trkpt lat="47.60213" lon="6.86628">
        <ele>354.79998779297</ele>
        <time>2017-07-22T09:50:45Z</time>
      </trkpt>
      <trkpt lat="47.60204" lon="6.86628">
        <ele>355</ele>
        <time>2017-07-22T09:50:47Z</time>
      </trkpt>
      <trkpt lat="47.60191" lon="6.8662">
        <ele>355.39999389648</ele>
        <time>2017-07-22T09:50:50Z</time>
      </trkpt>
      <trkpt lat="47.60183" lon="6.86612">
        <ele>355.60000610352</ele>
        <time>2017-07-22T09:50:52Z</time>
      </trkpt>
      <trkpt lat="47.60178" lon="6.86609">
        <ele>355.60000610352</ele>
        <time>2017-07-22T09:50:53Z</time>
      </trkpt>
      <trkpt lat="47.60169" lon="6.86607">
        <ele>355.60000610352</ele>
        <time>2017-07-22T09:50:55Z</time>
      </trkpt>
      <trkpt lat="47.60155" lon="6.86612">
        <ele>355.20001220703</ele>
        <time>2017-07-22T09:50:58Z</time>
      </trkpt>
      <trkpt lat="47.60146" lon="6.86616">
        <ele>355</ele>
        <time>2017-07-22T09:51:00Z</time>
      </trkpt>
      <trkpt lat="47.60134" lon="6.86621">
        <ele>354.79998779297</ele>
        <time>2017-07-22T09:51:03Z</time>
      </trkpt>
      <trkpt lat="47.60122" lon="6.86621">
        <ele>354.79998779297</ele>
        <time>2017-07-22T09:51:06Z</time>
      </trkpt>
      <trkpt lat="47.60105" lon="6.86613">
        <ele>354.79998779297</ele>
        <time>2017-07-22T09:51:11Z</time>
      </trkpt>
      <trkpt lat="47.60097" lon="6.86612">
        <ele>354.39999389648</ele>
        <time>2017-07-22T09:51:14Z</time>
      </trkpt>
      <trkpt lat="47.60097" lon="6.86614">
        <ele>354.39999389648</ele>
        <time>2017-07-22T09:51:15Z</time>
      </trkpt>
      <trkpt lat="47.60098" lon="6.86616">
        <ele>354.20001220703</ele>
        <time>2017-07-22T09:51:16Z</time>
      </trkpt>
      <trkpt lat="47.60103" lon="6.86615">
        <ele>354.20001220703</ele>
        <time>2017-07-22T09:51:18Z</time>
      </trkpt>
      <trkpt lat="47.60108" lon="6.86616">
        <ele>354</ele>
        <time>2017-07-22T09:51:20Z</time>
      </trkpt>
      <trkpt lat="47.60122" lon="6.8662">
        <ele>354.20001220703</ele>
        <time>2017-07-22T09:51:24Z</time>
      </trkpt>
      <trkpt lat="47.60144" lon="6.86618">
        <ele>354.39999389648</ele>
        <time>2017-07-22T09:51:29Z</time>
      </trkpt>
      <trkpt lat="47.6017" lon="6.86608">
        <ele>354.79998779297</ele>
        <time>2017-07-22T09:51:35Z</time>
      </trkpt>
      <trkpt lat="47.60173" lon="6.86604">
        <ele>354.79998779297</ele>
        <time>2017-07-22T09:51:36Z</time>
      </trkpt>
      <trkpt lat="47.60174" lon="6.86587">
        <ele>354.79998779297</ele>
        <time>2017-07-22T09:51:39Z</time>
      </trkpt>
      <trkpt lat="47.60165" lon="6.86563">
        <ele>355</ele>
        <time>2017-07-22T09:51:43Z</time>
      </trkpt>
      <trkpt lat="47.60162" lon="6.86557">
        <ele>355</ele>
        <time>2017-07-22T09:51:44Z</time>
      </trkpt>
      <trkpt lat="47.60145" lon="6.8652">
        <ele>355.39999389648</ele>
        <time>2017-07-22T09:51:50Z</time>
      </trkpt>
      <trkpt lat="47.60139" lon="6.86507">
        <ele>355.39999389648</ele>
        <time>2017-07-22T09:51:52Z</time>
      </trkpt>
      <trkpt lat="47.60121" lon="6.86456">
        <ele>355.20001220703</ele>
        <time>2017-07-22T09:52:00Z</time>
      </trkpt>
      <trkpt lat="47.60108" lon="6.86417">
        <ele>355.60000610352</ele>
        <time>2017-07-22T09:52:07Z</time>
      </trkpt>
      <trkpt lat="47.60095" lon="6.86411">
        <ele>355.79998779297</ele>
        <time>2017-07-22T09:52:10Z</time>
      </trkpt>
      <trkpt lat="47.60083" lon="6.86397">
        <ele>355.79998779297</ele>
        <time>2017-07-22T09:52:13Z</time>
      </trkpt>
      <trkpt lat="47.60079" lon="6.86374">
        <ele>355.79998779297</ele>
        <time>2017-07-22T09:52:16Z</time>
      </trkpt>
      <trkpt lat="47.60076" lon="6.86305">
        <ele>355.39999389648</ele>
        <time>2017-07-22T09:52:25Z</time>
      </trkpt>
      <trkpt lat="47.60074" lon="6.86268">
        <ele>355.60000610352</ele>
        <time>2017-07-22T09:52:31Z</time>
      </trkpt>
      <trkpt lat="47.60073" lon="6.8626">
        <ele>355.39999389648</ele>
        <time>2017-07-22T09:52:34Z</time>
      </trkpt>
      <trkpt lat="47.60072" lon="6.86266">
        <ele>355</ele>
        <time>2017-07-22T09:55:03Z</time>
      </trkpt>
      <trkpt lat="47.60072" lon="6.86269">
        <ele>355</ele>
        <time>2017-07-22T09:55:04Z</time>
      </trkpt>
      <trkpt lat="47.60073" lon="6.86289">
        <ele>355</ele>
        <time>2017-07-22T09:55:08Z</time>
      </trkpt>
      <trkpt lat="47.60073" lon="6.86332">
        <ele>355</ele>
        <time>2017-07-22T09:55:14Z</time>
      </trkpt>
      <trkpt lat="47.60078" lon="6.86402">
        <ele>354.79998779297</ele>
        <time>2017-07-22T09:55:23Z</time>
      </trkpt>
      <trkpt lat="47.6008" lon="6.86408">
        <ele>354.79998779297</ele>
        <time>2017-07-22T09:55:24Z</time>
      </trkpt>
      <trkpt lat="47.60095" lon="6.86429">
        <ele>354.79998779297</ele>
        <time>2017-07-22T09:55:28Z</time>
      </trkpt>
      <trkpt lat="47.601" lon="6.86432">
        <ele>354.79998779297</ele>
        <time>2017-07-22T09:55:29Z</time>
      </trkpt>
      <trkpt lat="47.60112" lon="6.86445">
        <ele>354.79998779297</ele>
        <time>2017-07-22T09:55:32Z</time>
      </trkpt>
      <trkpt lat="47.60115" lon="6.86451">
        <ele>354.79998779297</ele>
        <time>2017-07-22T09:55:33Z</time>
      </trkpt>
      <trkpt lat="47.60126" lon="6.8649">
        <ele>355</ele>
        <time>2017-07-22T09:55:38Z</time>
      </trkpt>
      <trkpt lat="47.60139" lon="6.86519">
        <ele>354.79998779297</ele>
        <time>2017-07-22T09:55:42Z</time>
      </trkpt>
      <trkpt lat="47.60152" lon="6.86549">
        <ele>354.79998779297</ele>
        <time>2017-07-22T09:55:46Z</time>
      </trkpt>
      <trkpt lat="47.60173" lon="6.86596">
        <ele>354.60000610352</ele>
        <time>2017-07-22T09:55:53Z</time>
      </trkpt>
      <trkpt lat="47.60173" lon="6.86603">
        <ele>354.60000610352</ele>
        <time>2017-07-22T09:55:54Z</time>
      </trkpt>
      <trkpt lat="47.60165" lon="6.86613">
        <ele>354.39999389648</ele>
        <time>2017-07-22T09:55:57Z</time>
      </trkpt>
      <trkpt lat="47.60161" lon="6.86615">
        <ele>354.39999389648</ele>
        <time>2017-07-22T09:55:58Z</time>
      </trkpt>
      <trkpt lat="47.60156" lon="6.86617">
        <ele>354.39999389648</ele>
        <time>2017-07-22T09:55:59Z</time>
      </trkpt>
      <trkpt lat="47.60145" lon="6.86621">
        <ele>354.39999389648</ele>
        <time>2017-07-22T09:56:01Z</time>
      </trkpt>
      <trkpt lat="47.60122" lon="6.8662">
        <ele>354.39999389648</ele>
        <time>2017-07-22T09:56:05Z</time>
      </trkpt>
      <trkpt lat="47.60116" lon="6.86619">
        <ele>354.39999389648</ele>
        <time>2017-07-22T09:56:06Z</time>
      </trkpt>
      <trkpt lat="47.60074" lon="6.86606">
        <ele>354.39999389648</ele>
        <time>2017-07-22T09:56:13Z</time>
      </trkpt>
      <trkpt lat="47.60033" lon="6.86595">
        <ele>354.39999389648</ele>
        <time>2017-07-22T09:56:20Z</time>
      </trkpt>
      <trkpt lat="47.60022" lon="6.86592">
        <ele>354.39999389648</ele>
        <time>2017-07-22T09:56:22Z</time>
      </trkpt>
      <trkpt lat="47.59985" lon="6.86584">
        <ele>354.39999389648</ele>
        <time>2017-07-22T09:56:29Z</time>
      </trkpt>
      <trkpt lat="47.59947" lon="6.86585">
        <ele>353.79998779297</ele>
        <time>2017-07-22T09:56:36Z</time>
      </trkpt>
      <trkpt lat="47.59903" lon="6.86587">
        <ele>353.20001220703</ele>
        <time>2017-07-22T09:56:44Z</time>
      </trkpt>
      <trkpt lat="47.59886" lon="6.86583">
        <ele>353.20001220703</ele>
        <time>2017-07-22T09:56:47Z</time>
      </trkpt>
      <trkpt lat="47.59876" lon="6.86575">
        <ele>353</ele>
        <time>2017-07-22T09:56:49Z</time>
      </trkpt>
      <trkpt lat="47.59866" lon="6.86569">
        <ele>353</ele>
        <time>2017-07-22T09:56:51Z</time>
      </trkpt>
      <trkpt lat="47.59855" lon="6.86569">
        <ele>353</ele>
        <time>2017-07-22T09:56:53Z</time>
      </trkpt>
      <trkpt lat="47.59821" lon="6.86575">
        <ele>353.20001220703</ele>
        <time>2017-07-22T09:56:59Z</time>
      </trkpt>
      <trkpt lat="47.59776" lon="6.86581">
        <ele>353.20001220703</ele>
        <time>2017-07-22T09:57:08Z</time>
      </trkpt>
      <trkpt lat="47.59765" lon="6.86579">
        <ele>353.20001220703</ele>
        <time>2017-07-22T09:57:10Z</time>
      </trkpt>
      <trkpt lat="47.59747" lon="6.86574">
        <ele>353.20001220703</ele>
        <time>2017-07-22T09:57:13Z</time>
      </trkpt>
      <trkpt lat="47.59736" lon="6.86574">
        <ele>353.20001220703</ele>
        <time>2017-07-22T09:57:15Z</time>
      </trkpt>
      <trkpt lat="47.59707" lon="6.86579">
        <ele>353</ele>
        <time>2017-07-22T09:57:20Z</time>
      </trkpt>
      <trkpt lat="47.59661" lon="6.86596">
        <ele>353.20001220703</ele>
        <time>2017-07-22T09:57:28Z</time>
      </trkpt>
      <trkpt lat="47.5963" lon="6.86598">
        <ele>353</ele>
        <time>2017-07-22T09:57:33Z</time>
      </trkpt>
      <trkpt lat="47.59594" lon="6.86586">
        <ele>352.79998779297</ele>
        <time>2017-07-22T09:57:39Z</time>
      </trkpt>
      <trkpt lat="47.59555" lon="6.8657">
        <ele>353</ele>
        <time>2017-07-22T09:57:46Z</time>
      </trkpt>
      <trkpt lat="47.59527" lon="6.86548">
        <ele>353.60000610352</ele>
        <time>2017-07-22T09:57:52Z</time>
      </trkpt>
      <trkpt lat="47.59508" lon="6.86536">
        <ele>353.79998779297</ele>
        <time>2017-07-22T09:57:56Z</time>
      </trkpt>
      <trkpt lat="47.59503" lon="6.86535">
        <ele>353.79998779297</ele>
        <time>2017-07-22T09:57:57Z</time>
      </trkpt>
      <trkpt lat="47.59489" lon="6.86529">
        <ele>353.79998779297</ele>
        <time>2017-07-22T09:58:00Z</time>
      </trkpt>
      <trkpt lat="47.5948" lon="6.86523">
        <ele>354</ele>
        <time>2017-07-22T09:58:02Z</time>
      </trkpt>
      <trkpt lat="47.59441" lon="6.86502">
        <ele>354.20001220703</ele>
        <time>2017-07-22T09:58:11Z</time>
      </trkpt>
      <trkpt lat="47.59417" lon="6.86489">
        <ele>353.79998779297</ele>
        <time>2017-07-22T09:58:17Z</time>
      </trkpt>
      <trkpt lat="47.59413" lon="6.86486">
        <ele>353.79998779297</ele>
        <time>2017-07-22T09:58:18Z</time>
      </trkpt>
      <trkpt lat="47.59402" lon="6.86476">
        <ele>353.79998779297</ele>
        <time>2017-07-22T09:58:21Z</time>
      </trkpt>
      <trkpt lat="47.59399" lon="6.86472">
        <ele>353.79998779297</ele>
        <time>2017-07-22T09:58:22Z</time>
      </trkpt>
      <trkpt lat="47.59391" lon="6.86463">
        <ele>353.79998779297</ele>
        <time>2017-07-22T09:58:24Z</time>
      </trkpt>
      <trkpt lat="47.59376" lon="6.86444">
        <ele>353.60000610352</ele>
        <time>2017-07-22T09:58:28Z</time>
      </trkpt>
      <trkpt lat="47.59369" lon="6.86434">
        <ele>353.60000610352</ele>
        <time>2017-07-22T09:58:30Z</time>
      </trkpt>
      <trkpt lat="47.59347" lon="6.86391">
        <ele>353.39999389648</ele>
        <time>2017-07-22T09:58:37Z</time>
      </trkpt>
      <trkpt lat="47.59328" lon="6.86356">
        <ele>353.20001220703</ele>
        <time>2017-07-22T09:58:43Z</time>
      </trkpt>
      <trkpt lat="47.59324" lon="6.86351">
        <ele>353.20001220703</ele>
        <time>2017-07-22T09:58:44Z</time>
      </trkpt>
      <trkpt lat="47.59292" lon="6.86317">
        <ele>353</ele>
        <time>2017-07-22T09:58:52Z</time>
      </trkpt>
      <trkpt lat="47.59264" lon="6.86294">
        <ele>352.60000610352</ele>
        <time>2017-07-22T09:58:58Z</time>
      </trkpt>
      <trkpt lat="47.59219" lon="6.86265">
        <ele>352.79998779297</ele>
        <time>2017-07-22T09:59:08Z</time>
      </trkpt>
      <trkpt lat="47.59187" lon="6.86249">
        <ele>352.60000610352</ele>
        <time>2017-07-22T09:59:15Z</time>
      </trkpt>
      <trkpt lat="47.59149" lon="6.86233">
        <ele>352.79998779297</ele>
        <time>2017-07-22T09:59:23Z</time>
      </trkpt>
      <trkpt lat="47.59107" lon="6.86218">
        <ele>353</ele>
        <time>2017-07-22T09:59:32Z</time>
      </trkpt>
      <trkpt lat="47.59103" lon="6.86217">
        <ele>353</ele>
        <time>2017-07-22T09:59:33Z</time>
      </trkpt>
      <trkpt lat="47.59088" lon="6.86221">
        <ele>353</ele>
        <time>2017-07-22T09:59:36Z</time>
      </trkpt>
      <trkpt lat="47.59079" lon="6.86226">
        <ele>353</ele>
        <time>2017-07-22T09:59:38Z</time>
      </trkpt>
      <trkpt lat="47.59062" lon="6.86238">
        <ele>353.20001220703</ele>
        <time>2017-07-22T09:59:42Z</time>
      </trkpt>
      <trkpt lat="47.59054" lon="6.86243">
        <ele>353.20001220703</ele>
        <time>2017-07-22T09:59:44Z</time>
      </trkpt>
      <trkpt lat="47.59047" lon="6.86242">
        <ele>353.39999389648</ele>
        <time>2017-07-22T09:59:46Z</time>
      </trkpt>
      <trkpt lat="47.59032" lon="6.86225">
        <ele>353.39999389648</ele>
        <time>2017-07-22T09:59:51Z</time>
      </trkpt>
      <trkpt lat="47.59027" lon="6.86212">
        <ele>353.60000610352</ele>
        <time>2017-07-22T09:59:53Z</time>
      </trkpt>
      <trkpt lat="47.59015" lon="6.86188">
        <ele>353.39999389648</ele>
        <time>2017-07-22T09:59:57Z</time>
      </trkpt>
      <trkpt lat="47.59" lon="6.86151">
        <ele>353.39999389648</ele>
        <time>2017-07-22T10:00:03Z</time>
      </trkpt>
      <trkpt lat="47.5898" lon="6.86107">
        <ele>353</ele>
        <time>2017-07-22T10:00:10Z</time>
      </trkpt>
      <trkpt lat="47.58974" lon="6.86095">
        <ele>353</ele>
        <time>2017-07-22T10:00:12Z</time>
      </trkpt>
      <trkpt lat="47.58964" lon="6.86075">
        <ele>353</ele>
        <time>2017-07-22T10:00:15Z</time>
      </trkpt>
      <trkpt lat="47.58945" lon="6.86036">
        <ele>352.79998779297</ele>
        <time>2017-07-22T10:00:21Z</time>
      </trkpt>
      <trkpt lat="47.58929" lon="6.86005">
        <ele>352.60000610352</ele>
        <time>2017-07-22T10:00:26Z</time>
      </trkpt>
      <trkpt lat="47.58912" lon="6.8597">
        <ele>352.20001220703</ele>
        <time>2017-07-22T10:00:33Z</time>
      </trkpt>
      <trkpt lat="47.58909" lon="6.85951">
        <ele>352</ele>
        <time>2017-07-22T10:00:37Z</time>
      </trkpt>
      <trkpt lat="47.58908" lon="6.85946">
        <ele>351.79998779297</ele>
        <time>2017-07-22T10:00:39Z</time>
      </trkpt>
      <trkpt lat="47.58906" lon="6.85943">
        <ele>351.60000610352</ele>
        <time>2017-07-22T10:00:41Z</time>
      </trkpt>
      <trkpt lat="47.58905" lon="6.85943">
        <ele>351.60000610352</ele>
        <time>2017-07-22T10:00:44Z</time>
      </trkpt>
      <trkpt lat="47.58904" lon="6.85938">
        <ele>351.60000610352</ele>
        <time>2017-07-22T10:00:46Z</time>
      </trkpt>
      <trkpt lat="47.58904" lon="6.85935">
        <ele>351.60000610352</ele>
        <time>2017-07-22T10:00:47Z</time>
      </trkpt>
      <trkpt lat="47.58904" lon="6.85924">
        <ele>351.79998779297</ele>
        <time>2017-07-22T10:00:50Z</time>
      </trkpt>
      <trkpt lat="47.58898" lon="6.85914">
        <ele>352</ele>
        <time>2017-07-22T10:00:54Z</time>
      </trkpt>
      <trkpt lat="47.5889" lon="6.85907">
        <ele>352</ele>
        <time>2017-07-22T10:00:57Z</time>
      </trkpt>
      <trkpt lat="47.58885" lon="6.85903">
        <ele>352.20001220703</ele>
        <time>2017-07-22T10:00:59Z</time>
      </trkpt>
      <trkpt lat="47.58874" lon="6.85898">
        <ele>353.39999389648</ele>
        <time>2017-07-22T10:01:04Z</time>
      </trkpt>
      <trkpt lat="47.5887" lon="6.85897">
        <ele>353.60000610352</ele>
        <time>2017-07-22T10:01:05Z</time>
      </trkpt>
      <trkpt lat="47.5885" lon="6.85891">
        <ele>354</ele>
        <time>2017-07-22T10:01:10Z</time>
      </trkpt>
      <trkpt lat="47.58845" lon="6.8589">
        <ele>354.20001220703</ele>
        <time>2017-07-22T10:01:11Z</time>
      </trkpt>
      <trkpt lat="47.58822" lon="6.85885">
        <ele>354.20001220703</ele>
        <time>2017-07-22T10:01:16Z</time>
      </trkpt>
      <trkpt lat="47.58802" lon="6.8588">
        <ele>354.39999389648</ele>
        <time>2017-07-22T10:01:20Z</time>
      </trkpt>
      <trkpt lat="47.5878" lon="6.85876">
        <ele>354.39999389648</ele>
        <time>2017-07-22T10:01:24Z</time>
      </trkpt>
      <trkpt lat="47.58744" lon="6.85867">
        <ele>354.39999389648</ele>
        <time>2017-07-22T10:01:31Z</time>
      </trkpt>
      <trkpt lat="47.58708" lon="6.85864">
        <ele>354.39999389648</ele>
        <time>2017-07-22T10:01:38Z</time>
      </trkpt>
      <trkpt lat="47.58682" lon="6.85861">
        <ele>355</ele>
        <time>2017-07-22T10:01:44Z</time>
      </trkpt>
      <trkpt lat="47.58674" lon="6.8586">
        <ele>355.60000610352</ele>
        <time>2017-07-22T10:01:46Z</time>
      </trkpt>
      <trkpt lat="47.5867" lon="6.85858">
        <ele>356.20001220703</ele>
        <time>2017-07-22T10:01:47Z</time>
      </trkpt>
      <trkpt lat="47.58664" lon="6.85849">
        <ele>356.60000610352</ele>
        <time>2017-07-22T10:01:49Z</time>
      </trkpt>
      <trkpt lat="47.58663" lon="6.85829">
        <ele>357.39999389648</ele>
        <time>2017-07-22T10:01:53Z</time>
      </trkpt>
      <trkpt lat="47.58664" lon="6.85824">
        <ele>357.60000610352</ele>
        <time>2017-07-22T10:01:54Z</time>
      </trkpt>
      <trkpt lat="47.58665" lon="6.85819">
        <ele>357.60000610352</ele>
        <time>2017-07-22T10:01:55Z</time>
      </trkpt>
      <trkpt lat="47.5867" lon="6.85791">
        <ele>357.79998779297</ele>
        <time>2017-07-22T10:02:00Z</time>
      </trkpt>
      <trkpt lat="47.58673" lon="6.85753">
        <ele>357.39999389648</ele>
        <time>2017-07-22T10:02:07Z</time>
      </trkpt>
      <trkpt lat="47.58674" lon="6.85726">
        <ele>357.60000610352</ele>
        <time>2017-07-22T10:02:12Z</time>
      </trkpt>
      <trkpt lat="47.58676" lon="6.85688">
        <ele>357.79998779297</ele>
        <time>2017-07-22T10:02:18Z</time>
      </trkpt>
      <trkpt lat="47.58679" lon="6.85683">
        <ele>358</ele>
        <time>2017-07-22T10:02:20Z</time>
      </trkpt>
      <trkpt lat="47.5868" lon="6.85685">
        <ele>358</ele>
        <time>2017-07-22T10:02:21Z</time>
      </trkpt>
      <trkpt lat="47.58682" lon="6.85704">
        <ele>358</ele>
        <time>2017-07-22T10:02:24Z</time>
      </trkpt>
      <trkpt lat="47.58682" lon="6.85713">
        <ele>358</ele>
        <time>2017-07-22T10:02:25Z</time>
      </trkpt>
      <trkpt lat="47.58683" lon="6.85723">
        <ele>357.79998779297</ele>
        <time>2017-07-22T10:02:26Z</time>
      </trkpt>
      <trkpt lat="47.58686" lon="6.85742">
        <ele>357</ele>
        <time>2017-07-22T10:02:28Z</time>
      </trkpt>
      <trkpt lat="47.58688" lon="6.85752">
        <ele>356.60000610352</ele>
        <time>2017-07-22T10:02:29Z</time>
      </trkpt>
      <trkpt lat="47.58691" lon="6.85767">
        <ele>355</ele>
        <time>2017-07-22T10:02:31Z</time>
      </trkpt>
      <trkpt lat="47.58691" lon="6.85774">
        <ele>354.39999389648</ele>
        <time>2017-07-22T10:02:32Z</time>
      </trkpt>
      <trkpt lat="47.58691" lon="6.85778">
        <ele>353.60000610352</ele>
        <time>2017-07-22T10:02:33Z</time>
      </trkpt>
      <trkpt lat="47.58691" lon="6.85785">
        <ele>352.39999389648</ele>
        <time>2017-07-22T10:02:35Z</time>
      </trkpt>
      <trkpt lat="47.58692" lon="6.85804">
        <ele>351.39999389648</ele>
        <time>2017-07-22T10:02:39Z</time>
      </trkpt>
      <trkpt lat="47.58695" lon="6.85818">
        <ele>351.39999389648</ele>
        <time>2017-07-22T10:02:42Z</time>
      </trkpt>
      <trkpt lat="47.58698" lon="6.85821">
        <ele>351.39999389648</ele>
        <time>2017-07-22T10:02:43Z</time>
      </trkpt>
      <trkpt lat="47.58711" lon="6.85826">
        <ele>351.60000610352</ele>
        <time>2017-07-22T10:02:47Z</time>
      </trkpt>
      <trkpt lat="47.58728" lon="6.85831">
        <ele>352.39999389648</ele>
        <time>2017-07-22T10:02:52Z</time>
      </trkpt>
      <trkpt lat="47.58729" lon="6.85834">
        <ele>352.60000610352</ele>
        <time>2017-07-22T10:02:53Z</time>
      </trkpt>
      <trkpt lat="47.58725" lon="6.85834">
        <ele>353.20001220703</ele>
        <time>2017-07-22T10:02:56Z</time>
      </trkpt>
      <trkpt lat="47.58722" lon="6.85833">
        <ele>353.39999389648</ele>
        <time>2017-07-22T10:02:57Z</time>
      </trkpt>
      <trkpt lat="47.5871" lon="6.8583">
        <ele>354</ele>
        <time>2017-07-22T10:03:00Z</time>
      </trkpt>
      <trkpt lat="47.5868" lon="6.85821">
        <ele>354.39999389648</ele>
        <time>2017-07-22T10:03:07Z</time>
      </trkpt>
      <trkpt lat="47.5867" lon="6.85821">
        <ele>354.39999389648</ele>
        <time>2017-07-22T10:03:09Z</time>
      </trkpt>
      <trkpt lat="47.58662" lon="6.85818">
        <ele>354.39999389648</ele>
        <time>2017-07-22T10:03:11Z</time>
      </trkpt>
      <trkpt lat="47.58657" lon="6.85815">
        <ele>354.39999389648</ele>
        <time>2017-07-22T10:03:12Z</time>
      </trkpt>
      <trkpt lat="47.58653" lon="6.85812">
        <ele>354.39999389648</ele>
        <time>2017-07-22T10:03:13Z</time>
      </trkpt>
      <trkpt lat="47.58648" lon="6.85809">
        <ele>354.39999389648</ele>
        <time>2017-07-22T10:03:14Z</time>
      </trkpt>
      <trkpt lat="47.58639" lon="6.85805">
        <ele>354.60000610352</ele>
        <time>2017-07-22T10:03:16Z</time>
      </trkpt>
      <trkpt lat="47.58613" lon="6.85794">
        <ele>354.60000610352</ele>
        <time>2017-07-22T10:03:21Z</time>
      </trkpt>
      <trkpt lat="47.58576" lon="6.85781">
        <ele>354.60000610352</ele>
        <time>2017-07-22T10:03:28Z</time>
      </trkpt>
      <trkpt lat="47.58537" lon="6.85766">
        <ele>354.60000610352</ele>
        <time>2017-07-22T10:03:35Z</time>
      </trkpt>
      <trkpt lat="47.58486" lon="6.85746">
        <ele>354.39999389648</ele>
        <time>2017-07-22T10:03:44Z</time>
      </trkpt>
      <trkpt lat="47.5844" lon="6.85729">
        <ele>354.79998779297</ele>
        <time>2017-07-22T10:03:52Z</time>
      </trkpt>
      <trkpt lat="47.584" lon="6.85717">
        <ele>354.79998779297</ele>
        <time>2017-07-22T10:03:59Z</time>
      </trkpt>
      <trkpt lat="47.58352" lon="6.85705">
        <ele>354.79998779297</ele>
        <time>2017-07-22T10:04:07Z</time>
      </trkpt>
      <trkpt lat="47.5831" lon="6.85694">
        <ele>355</ele>
        <time>2017-07-22T10:04:14Z</time>
      </trkpt>
      <trkpt lat="47.58257" lon="6.85682">
        <ele>354.79998779297</ele>
        <time>2017-07-22T10:04:23Z</time>
      </trkpt>
      <trkpt lat="47.58239" lon="6.85692">
        <ele>355</ele>
        <time>2017-07-22T10:04:26Z</time>
      </trkpt>
      <trkpt lat="47.58227" lon="6.857">
        <ele>355</ele>
        <time>2017-07-22T10:04:28Z</time>
      </trkpt>
      <trkpt lat="47.58216" lon="6.85698">
        <ele>355</ele>
        <time>2017-07-22T10:04:30Z</time>
      </trkpt>
      <trkpt lat="47.58205" lon="6.85695">
        <ele>355</ele>
        <time>2017-07-22T10:04:32Z</time>
      </trkpt>
      <trkpt lat="47.58193" lon="6.85699">
        <ele>355</ele>
        <time>2017-07-22T10:04:34Z</time>
      </trkpt>
      <trkpt lat="47.58177" lon="6.85709">
        <ele>355</ele>
        <time>2017-07-22T10:04:37Z</time>
      </trkpt>
      <trkpt lat="47.58172" lon="6.85715">
        <ele>355</ele>
        <time>2017-07-22T10:04:38Z</time>
      </trkpt>
      <trkpt lat="47.58167" lon="6.8572">
        <ele>355</ele>
        <time>2017-07-22T10:04:39Z</time>
      </trkpt>
      <trkpt lat="47.5815" lon="6.85753">
        <ele>354.79998779297</ele>
        <time>2017-07-22T10:04:44Z</time>
      </trkpt>
      <trkpt lat="47.58149" lon="6.8576">
        <ele>354.79998779297</ele>
        <time>2017-07-22T10:04:45Z</time>
      </trkpt>
      <trkpt lat="47.58145" lon="6.85768">
        <ele>354.79998779297</ele>
        <time>2017-07-22T10:04:47Z</time>
      </trkpt>
      <trkpt lat="47.5813" lon="6.85792">
        <ele>354.79998779297</ele>
        <time>2017-07-22T10:04:52Z</time>
      </trkpt>
      <trkpt lat="47.58109" lon="6.85822">
        <ele>355</ele>
        <time>2017-07-22T10:04:58Z</time>
      </trkpt>
      <trkpt lat="47.58099" lon="6.85831">
        <ele>354.60000610352</ele>
        <time>2017-07-22T10:05:02Z</time>
      </trkpt>
      <trkpt lat="47.58079" lon="6.85853">
        <ele>354.39999389648</ele>
        <time>2017-07-22T10:05:07Z</time>
      </trkpt>
      <trkpt lat="47.58052" lon="6.85881">
        <ele>354.60000610352</ele>
        <time>2017-07-22T10:05:13Z</time>
      </trkpt>
      <trkpt lat="47.58027" lon="6.85903">
        <ele>353.79998779297</ele>
        <time>2017-07-22T10:05:17Z</time>
      </trkpt>
      <trkpt lat="47.58021" lon="6.85906">
        <ele>353.60000610352</ele>
        <time>2017-07-22T10:05:18Z</time>
      </trkpt>
      <trkpt lat="47.58014" lon="6.85909">
        <ele>353.39999389648</ele>
        <time>2017-07-22T10:05:19Z</time>
      </trkpt>
      <trkpt lat="47.57994" lon="6.85912">
        <ele>352.60000610352</ele>
        <time>2017-07-22T10:05:22Z</time>
      </trkpt>
      <trkpt lat="47.57987" lon="6.85912">
        <ele>352.39999389648</ele>
        <time>2017-07-22T10:05:23Z</time>
      </trkpt>
      <trkpt lat="47.57975" lon="6.85914">
        <ele>352.20001220703</ele>
        <time>2017-07-22T10:05:25Z</time>
      </trkpt>
      <trkpt lat="47.57963" lon="6.85914">
        <ele>352.20001220703</ele>
        <time>2017-07-22T10:05:27Z</time>
      </trkpt>
      <trkpt lat="47.57923" lon="6.85913">
        <ele>352</ele>
        <time>2017-07-22T10:05:33Z</time>
      </trkpt>
      <trkpt lat="47.5787" lon="6.85911">
        <ele>352</ele>
        <time>2017-07-22T10:05:41Z</time>
      </trkpt>
      <trkpt lat="47.57823" lon="6.85912">
        <ele>352</ele>
        <time>2017-07-22T10:05:48Z</time>
      </trkpt>
      <trkpt lat="47.57777" lon="6.8591">
        <ele>352.20001220703</ele>
        <time>2017-07-22T10:05:55Z</time>
      </trkpt>
      <trkpt lat="47.57739" lon="6.85911">
        <ele>352.20001220703</ele>
        <time>2017-07-22T10:06:01Z</time>
      </trkpt>
      <trkpt lat="47.57685" lon="6.85911">
        <ele>352.20001220703</ele>
        <time>2017-07-22T10:06:09Z</time>
      </trkpt>
      <trkpt lat="47.57643" lon="6.85911">
        <ele>352.39999389648</ele>
        <time>2017-07-22T10:06:15Z</time>
      </trkpt>
      <trkpt lat="47.57618" lon="6.8591">
        <ele>352.39999389648</ele>
        <time>2017-07-22T10:06:19Z</time>
      </trkpt>
      <trkpt lat="47.57577" lon="6.85911">
        <ele>352.20001220703</ele>
        <time>2017-07-22T10:06:25Z</time>
      </trkpt>
      <trkpt lat="47.57571" lon="6.85911">
        <ele>352.20001220703</ele>
        <time>2017-07-22T10:06:26Z</time>
      </trkpt>
      <trkpt lat="47.57519" lon="6.85911">
        <ele>352.39999389648</ele>
        <time>2017-07-22T10:06:34Z</time>
      </trkpt>
      <trkpt lat="47.57467" lon="6.8591">
        <ele>352.39999389648</ele>
        <time>2017-07-22T10:06:42Z</time>
      </trkpt>
      <trkpt lat="47.57423" lon="6.85912">
        <ele>352.39999389648</ele>
        <time>2017-07-22T10:06:49Z</time>
      </trkpt>
      <trkpt lat="47.57376" lon="6.85908">
        <ele>352.60000610352</ele>
        <time>2017-07-22T10:06:57Z</time>
      </trkpt>
      <trkpt lat="47.57365" lon="6.85909">
        <ele>352.39999389648</ele>
        <time>2017-07-22T10:06:59Z</time>
      </trkpt>
      <trkpt lat="47.57351" lon="6.8591">
        <ele>352.39999389648</ele>
        <time>2017-07-22T10:07:01Z</time>
      </trkpt>
      <trkpt lat="47.57324" lon="6.8591">
        <ele>350.79998779297</ele>
        <time>2017-07-22T10:07:05Z</time>
      </trkpt>
      <trkpt lat="47.57312" lon="6.8591">
        <ele>350.20001220703</ele>
        <time>2017-07-22T10:07:07Z</time>
      </trkpt>
      <trkpt lat="47.57286" lon="6.85909">
        <ele>349.79998779297</ele>
        <time>2017-07-22T10:07:11Z</time>
      </trkpt>
      <trkpt lat="47.5726" lon="6.85909">
        <ele>349.79998779297</ele>
        <time>2017-07-22T10:07:15Z</time>
      </trkpt>
      <trkpt lat="47.57209" lon="6.85908">
        <ele>350</ele>
        <time>2017-07-22T10:07:23Z</time>
      </trkpt>
      <trkpt lat="47.57152" lon="6.85907">
        <ele>350</ele>
        <time>2017-07-22T10:07:32Z</time>
      </trkpt>
      <trkpt lat="47.57146" lon="6.85907">
        <ele>350</ele>
        <time>2017-07-22T10:07:33Z</time>
      </trkpt>
      <trkpt lat="47.57097" lon="6.85908">
        <ele>350</ele>
        <time>2017-07-22T10:07:41Z</time>
      </trkpt>
      <trkpt lat="47.57067" lon="6.8591">
        <ele>350</ele>
        <time>2017-07-22T10:07:46Z</time>
      </trkpt>
      <trkpt lat="47.57054" lon="6.85913">
        <ele>350</ele>
        <time>2017-07-22T10:07:48Z</time>
      </trkpt>
      <trkpt lat="47.57021" lon="6.85919">
        <ele>350</ele>
        <time>2017-07-22T10:07:54Z</time>
      </trkpt>
      <trkpt lat="47.57004" lon="6.85923">
        <ele>350</ele>
        <time>2017-07-22T10:07:57Z</time>
      </trkpt>
      <trkpt lat="47.56983" lon="6.85931">
        <ele>349.79998779297</ele>
        <time>2017-07-22T10:08:01Z</time>
      </trkpt>
      <trkpt lat="47.56939" lon="6.85951">
        <ele>349.60000610352</ele>
        <time>2017-07-22T10:08:09Z</time>
      </trkpt>
      <trkpt lat="47.56906" lon="6.85967">
        <ele>349.60000610352</ele>
        <time>2017-07-22T10:08:15Z</time>
      </trkpt>
      <trkpt lat="47.56871" lon="6.85983">
        <ele>349.60000610352</ele>
        <time>2017-07-22T10:08:21Z</time>
      </trkpt>
      <trkpt lat="47.56827" lon="6.86004">
        <ele>349.39999389648</ele>
        <time>2017-07-22T10:08:29Z</time>
      </trkpt>
      <trkpt lat="47.5678" lon="6.86026">
        <ele>349.39999389648</ele>
        <time>2017-07-22T10:08:37Z</time>
      </trkpt>
      <trkpt lat="47.56742" lon="6.86047">
        <ele>349.39999389648</ele>
        <time>2017-07-22T10:08:44Z</time>
      </trkpt>
      <trkpt lat="47.56731" lon="6.86051">
        <ele>349.39999389648</ele>
        <time>2017-07-22T10:08:46Z</time>
      </trkpt>
      <trkpt lat="47.56719" lon="6.86054">
        <ele>349.60000610352</ele>
        <time>2017-07-22T10:08:49Z</time>
      </trkpt>
      <trkpt lat="47.56708" lon="6.86056">
        <ele>350.60000610352</ele>
        <time>2017-07-22T10:08:54Z</time>
      </trkpt>
      <trkpt lat="47.56694" lon="6.86058">
        <ele>350.79998779297</ele>
        <time>2017-07-22T10:08:58Z</time>
      </trkpt>
      <trkpt lat="47.56669" lon="6.86064">
        <ele>350.20001220703</ele>
        <time>2017-07-22T10:09:02Z</time>
      </trkpt>
      <trkpt lat="47.56641" lon="6.86077">
        <ele>348.79998779297</ele>
        <time>2017-07-22T10:09:06Z</time>
      </trkpt>
      <trkpt lat="47.56634" lon="6.86081">
        <ele>348.39999389648</ele>
        <time>2017-07-22T10:09:07Z</time>
      </trkpt>
      <trkpt lat="47.56616" lon="6.8609">
        <ele>347.79998779297</ele>
        <time>2017-07-22T10:09:10Z</time>
      </trkpt>
      <trkpt lat="47.56593" lon="6.86102">
        <ele>347.20001220703</ele>
        <time>2017-07-22T10:09:14Z</time>
      </trkpt>
      <trkpt lat="47.56585" lon="6.86088">
        <ele>346.79998779297</ele>
        <time>2017-07-22T10:09:17Z</time>
      </trkpt>
      <trkpt lat="47.56586" lon="6.86081">
        <ele>346.79998779297</ele>
        <time>2017-07-22T10:09:18Z</time>
      </trkpt>
      <trkpt lat="47.56584" lon="6.8607">
        <ele>346.60000610352</ele>
        <time>2017-07-22T10:09:20Z</time>
      </trkpt>
      <trkpt lat="47.56572" lon="6.8607">
        <ele>346.39999389648</ele>
        <time>2017-07-22T10:09:23Z</time>
      </trkpt>
      <trkpt lat="47.56568" lon="6.86073">
        <ele>346.20001220703</ele>
        <time>2017-07-22T10:09:24Z</time>
      </trkpt>
      <trkpt lat="47.56553" lon="6.86079">
        <ele>346</ele>
        <time>2017-07-22T10:09:27Z</time>
      </trkpt>
      <trkpt lat="47.56547" lon="6.86083">
        <ele>346</ele>
        <time>2017-07-22T10:09:28Z</time>
      </trkpt>
      <trkpt lat="47.56542" lon="6.86085">
        <ele>346</ele>
        <time>2017-07-22T10:09:29Z</time>
      </trkpt>
      <trkpt lat="47.5652" lon="6.86094">
        <ele>346</ele>
        <time>2017-07-22T10:09:33Z</time>
      </trkpt>
      <trkpt lat="47.56495" lon="6.86107">
        <ele>346.20001220703</ele>
        <time>2017-07-22T10:09:38Z</time>
      </trkpt>
      <trkpt lat="47.56491" lon="6.86112">
        <ele>346.20001220703</ele>
        <time>2017-07-22T10:09:39Z</time>
      </trkpt>
      <trkpt lat="47.56484" lon="6.86135">
        <ele>346.39999389648</ele>
        <time>2017-07-22T10:09:42Z</time>
      </trkpt>
      <trkpt lat="47.56483" lon="6.86151">
        <ele>346.60000610352</ele>
        <time>2017-07-22T10:09:44Z</time>
      </trkpt>
      <trkpt lat="47.56481" lon="6.86159">
        <ele>346.60000610352</ele>
        <time>2017-07-22T10:09:45Z</time>
      </trkpt>
      <trkpt lat="47.56473" lon="6.86172">
        <ele>346.79998779297</ele>
        <time>2017-07-22T10:09:47Z</time>
      </trkpt>
      <trkpt lat="47.56458" lon="6.86182">
        <ele>347</ele>
        <time>2017-07-22T10:09:50Z</time>
      </trkpt>
      <trkpt lat="47.56452" lon="6.86184">
        <ele>347</ele>
        <time>2017-07-22T10:09:51Z</time>
      </trkpt>
      <trkpt lat="47.5643" lon="6.86194">
        <ele>346.79998779297</ele>
        <time>2017-07-22T10:09:55Z</time>
      </trkpt>
      <trkpt lat="47.56392" lon="6.86213">
        <ele>346.60000610352</ele>
        <time>2017-07-22T10:10:02Z</time>
      </trkpt>
      <trkpt lat="47.56349" lon="6.86234">
        <ele>346.60000610352</ele>
        <time>2017-07-22T10:10:10Z</time>
      </trkpt>
      <trkpt lat="47.56301" lon="6.86256">
        <ele>346.60000610352</ele>
        <time>2017-07-22T10:10:19Z</time>
      </trkpt>
      <trkpt lat="47.56249" lon="6.8628">
        <ele>346.39999389648</ele>
        <time>2017-07-22T10:10:28Z</time>
      </trkpt>
      <trkpt lat="47.56207" lon="6.86301">
        <ele>346.60000610352</ele>
        <time>2017-07-22T10:10:35Z</time>
      </trkpt>
      <trkpt lat="47.56157" lon="6.86323">
        <ele>346.39999389648</ele>
        <time>2017-07-22T10:10:43Z</time>
      </trkpt>
      <trkpt lat="47.56102" lon="6.86349">
        <ele>346.60000610352</ele>
        <time>2017-07-22T10:10:52Z</time>
      </trkpt>
      <trkpt lat="47.56048" lon="6.86376">
        <ele>346.39999389648</ele>
        <time>2017-07-22T10:11:01Z</time>
      </trkpt>
      <trkpt lat="47.55995" lon="6.86402">
        <ele>346.20001220703</ele>
        <time>2017-07-22T10:11:10Z</time>
      </trkpt>
      <trkpt lat="47.55941" lon="6.86427">
        <ele>346.20001220703</ele>
        <time>2017-07-22T10:11:19Z</time>
      </trkpt>
      <trkpt lat="47.55935" lon="6.86429">
        <ele>346.20001220703</ele>
        <time>2017-07-22T10:11:20Z</time>
      </trkpt>
      <trkpt lat="47.55894" lon="6.86445">
        <ele>346.39999389648</ele>
        <time>2017-07-22T10:11:27Z</time>
      </trkpt>
      <trkpt lat="47.55877" lon="6.8645">
        <ele>346.39999389648</ele>
        <time>2017-07-22T10:11:30Z</time>
      </trkpt>
      <trkpt lat="47.5586" lon="6.86458">
        <ele>346.39999389648</ele>
        <time>2017-07-22T10:11:33Z</time>
      </trkpt>
      <trkpt lat="47.55849" lon="6.86465">
        <ele>346.39999389648</ele>
        <time>2017-07-22T10:11:35Z</time>
      </trkpt>
      <trkpt lat="47.55825" lon="6.86466">
        <ele>346.20001220703</ele>
        <time>2017-07-22T10:11:39Z</time>
      </trkpt>
      <trkpt lat="47.55819" lon="6.86466">
        <ele>346.20001220703</ele>
        <time>2017-07-22T10:11:40Z</time>
      </trkpt>
      <trkpt lat="47.55801" lon="6.86471">
        <ele>346.20001220703</ele>
        <time>2017-07-22T10:11:43Z</time>
      </trkpt>
      <trkpt lat="47.5577" lon="6.86476">
        <ele>346.39999389648</ele>
        <time>2017-07-22T10:11:48Z</time>
      </trkpt>
      <trkpt lat="47.55728" lon="6.86485">
        <ele>346.39999389648</ele>
        <time>2017-07-22T10:11:55Z</time>
      </trkpt>
      <trkpt lat="47.55691" lon="6.86491">
        <ele>346.39999389648</ele>
        <time>2017-07-22T10:12:01Z</time>
      </trkpt>
      <trkpt lat="47.55653" lon="6.86499">
        <ele>346.39999389648</ele>
        <time>2017-07-22T10:12:07Z</time>
      </trkpt>
      <trkpt lat="47.55615" lon="6.86508">
        <ele>346.20001220703</ele>
        <time>2017-07-22T10:12:13Z</time>
      </trkpt>
      <trkpt lat="47.55608" lon="6.8651">
        <ele>346.20001220703</ele>
        <time>2017-07-22T10:12:14Z</time>
      </trkpt>
      <trkpt lat="47.55557" lon="6.8652">
        <ele>346.39999389648</ele>
        <time>2017-07-22T10:12:22Z</time>
      </trkpt>
      <trkpt lat="47.55499" lon="6.86532">
        <ele>346.20001220703</ele>
        <time>2017-07-22T10:12:31Z</time>
      </trkpt>
      <trkpt lat="47.55447" lon="6.86543">
        <ele>346.20001220703</ele>
        <time>2017-07-22T10:12:39Z</time>
      </trkpt>
      <trkpt lat="47.55388" lon="6.86554">
        <ele>346.20001220703</ele>
        <time>2017-07-22T10:12:48Z</time>
      </trkpt>
      <trkpt lat="47.55342" lon="6.86564">
        <ele>346.20001220703</ele>
        <time>2017-07-22T10:12:55Z</time>
      </trkpt>
      <trkpt lat="47.55296" lon="6.86573">
        <ele>346.20001220703</ele>
        <time>2017-07-22T10:13:02Z</time>
      </trkpt>
      <trkpt lat="47.55251" lon="6.86582">
        <ele>346.20001220703</ele>
        <time>2017-07-22T10:13:09Z</time>
      </trkpt>
      <trkpt lat="47.55205" lon="6.86592">
        <ele>346.20001220703</ele>
        <time>2017-07-22T10:13:16Z</time>
      </trkpt>
      <trkpt lat="47.55154" lon="6.86603">
        <ele>346.20001220703</ele>
        <time>2017-07-22T10:13:24Z</time>
      </trkpt>
      <trkpt lat="47.55109" lon="6.86613">
        <ele>346.20001220703</ele>
        <time>2017-07-22T10:13:31Z</time>
      </trkpt>
      <trkpt lat="47.5507" lon="6.86618">
        <ele>346.20001220703</ele>
        <time>2017-07-22T10:13:37Z</time>
      </trkpt>
      <trkpt lat="47.55017" lon="6.86627">
        <ele>346.39999389648</ele>
        <time>2017-07-22T10:13:45Z</time>
      </trkpt>
      <trkpt lat="47.54971" lon="6.86632">
        <ele>346.20001220703</ele>
        <time>2017-07-22T10:13:52Z</time>
      </trkpt>
      <trkpt lat="47.54922" lon="6.86631">
        <ele>346.20001220703</ele>
        <time>2017-07-22T10:14:00Z</time>
      </trkpt>
      <trkpt lat="47.54903" lon="6.86625">
        <ele>346.20001220703</ele>
        <time>2017-07-22T10:14:04Z</time>
      </trkpt>
      <trkpt lat="47.54898" lon="6.86627">
        <ele>346.20001220703</ele>
        <time>2017-07-22T10:14:05Z</time>
      </trkpt>
      <trkpt lat="47.5487" lon="6.86627">
        <ele>346.20001220703</ele>
        <time>2017-07-22T10:14:09Z</time>
      </trkpt>
      <trkpt lat="47.54846" lon="6.86624">
        <ele>345.39999389648</ele>
        <time>2017-07-22T10:14:12Z</time>
      </trkpt>
      <trkpt lat="47.54829" lon="6.86622">
        <ele>345</ele>
        <time>2017-07-22T10:14:14Z</time>
      </trkpt>
      <trkpt lat="47.54805" lon="6.86616">
        <ele>344.39999389648</ele>
        <time>2017-07-22T10:14:17Z</time>
      </trkpt>
      <trkpt lat="47.54774" lon="6.86609">
        <ele>343.60000610352</ele>
        <time>2017-07-22T10:14:21Z</time>
      </trkpt>
      <trkpt lat="47.54722" lon="6.86592">
        <ele>343.60000610352</ele>
        <time>2017-07-22T10:14:28Z</time>
      </trkpt>
      <trkpt lat="47.54664" lon="6.86571">
        <ele>343.60000610352</ele>
        <time>2017-07-22T10:14:36Z</time>
      </trkpt>
      <trkpt lat="47.54609" lon="6.8655">
        <ele>343.60000610352</ele>
        <time>2017-07-22T10:14:44Z</time>
      </trkpt>
      <trkpt lat="47.54567" lon="6.86536">
        <ele>343.79998779297</ele>
        <time>2017-07-22T10:14:50Z</time>
      </trkpt>
      <trkpt lat="47.54527" lon="6.86524">
        <ele>343.79998779297</ele>
        <time>2017-07-22T10:14:56Z</time>
      </trkpt>
      <trkpt lat="47.54521" lon="6.86525">
        <ele>343.79998779297</ele>
        <time>2017-07-22T10:14:57Z</time>
      </trkpt>
      <trkpt lat="47.54508" lon="6.86523">
        <ele>343.79998779297</ele>
        <time>2017-07-22T10:14:59Z</time>
      </trkpt>
      <trkpt lat="47.54496" lon="6.86512">
        <ele>343.79998779297</ele>
        <time>2017-07-22T10:15:01Z</time>
      </trkpt>
      <trkpt lat="47.54482" lon="6.86505">
        <ele>343.79998779297</ele>
        <time>2017-07-22T10:15:03Z</time>
      </trkpt>
      <trkpt lat="47.5447" lon="6.86502">
        <ele>343.79998779297</ele>
        <time>2017-07-22T10:15:05Z</time>
      </trkpt>
      <trkpt lat="47.5445" lon="6.86494">
        <ele>343.79998779297</ele>
        <time>2017-07-22T10:15:09Z</time>
      </trkpt>
      <trkpt lat="47.54444" lon="6.86493">
        <ele>343.60000610352</ele>
        <time>2017-07-22T10:15:10Z</time>
      </trkpt>
      <trkpt lat="47.54414" lon="6.86483">
        <ele>343.60000610352</ele>
        <time>2017-07-22T10:15:15Z</time>
      </trkpt>
      <trkpt lat="47.54363" lon="6.86464">
        <ele>344</ele>
        <time>2017-07-22T10:15:23Z</time>
      </trkpt>
      <trkpt lat="47.54318" lon="6.86448">
        <ele>344</ele>
        <time>2017-07-22T10:15:30Z</time>
      </trkpt>
      <trkpt lat="47.54259" lon="6.86428">
        <ele>344</ele>
        <time>2017-07-22T10:15:39Z</time>
      </trkpt>
      <trkpt lat="47.54207" lon="6.8641">
        <ele>344</ele>
        <time>2017-07-22T10:15:47Z</time>
      </trkpt>
      <trkpt lat="47.54162" lon="6.86394">
        <ele>343.79998779297</ele>
        <time>2017-07-22T10:15:54Z</time>
      </trkpt>
      <trkpt lat="47.54115" lon="6.86377">
        <ele>344</ele>
        <time>2017-07-22T10:16:01Z</time>
      </trkpt>
      <trkpt lat="47.54061" lon="6.8636">
        <ele>344</ele>
        <time>2017-07-22T10:16:09Z</time>
      </trkpt>
      <trkpt lat="47.54054" lon="6.86358">
        <ele>344</ele>
        <time>2017-07-22T10:16:10Z</time>
      </trkpt>
      <trkpt lat="47.54002" lon="6.86339">
        <ele>343.79998779297</ele>
        <time>2017-07-22T10:16:18Z</time>
      </trkpt>
      <trkpt lat="47.53947" lon="6.86319">
        <ele>343.79998779297</ele>
        <time>2017-07-22T10:16:26Z</time>
      </trkpt>
      <trkpt lat="47.53906" lon="6.86309">
        <ele>344</ele>
        <time>2017-07-22T10:16:32Z</time>
      </trkpt>
      <trkpt lat="47.53886" lon="6.86299">
        <ele>344.20001220703</ele>
        <time>2017-07-22T10:16:35Z</time>
      </trkpt>
      <trkpt lat="47.53874" lon="6.86291">
        <ele>344.20001220703</ele>
        <time>2017-07-22T10:16:37Z</time>
      </trkpt>
      <trkpt lat="47.5386" lon="6.86285">
        <ele>344</ele>
        <time>2017-07-22T10:16:39Z</time>
      </trkpt>
      <trkpt lat="47.53838" lon="6.86278">
        <ele>343.60000610352</ele>
        <time>2017-07-22T10:16:42Z</time>
      </trkpt>
      <trkpt lat="47.5383" lon="6.86276">
        <ele>343.39999389648</ele>
        <time>2017-07-22T10:16:43Z</time>
      </trkpt>
      <trkpt lat="47.53797" lon="6.86265">
        <ele>342.39999389648</ele>
        <time>2017-07-22T10:16:47Z</time>
      </trkpt>
      <trkpt lat="47.53788" lon="6.86262">
        <ele>342</ele>
        <time>2017-07-22T10:16:48Z</time>
      </trkpt>
      <trkpt lat="47.53739" lon="6.86245">
        <ele>341.39999389648</ele>
        <time>2017-07-22T10:16:54Z</time>
      </trkpt>
      <trkpt lat="47.53685" lon="6.86226">
        <ele>341.20001220703</ele>
        <time>2017-07-22T10:17:01Z</time>
      </trkpt>
      <trkpt lat="47.53628" lon="6.86206">
        <ele>341.39999389648</ele>
        <time>2017-07-22T10:17:09Z</time>
      </trkpt>
      <trkpt lat="47.53579" lon="6.86188">
        <ele>341.39999389648</ele>
        <time>2017-07-22T10:17:16Z</time>
      </trkpt>
      <trkpt lat="47.53532" lon="6.86171">
        <ele>341.39999389648</ele>
        <time>2017-07-22T10:17:23Z</time>
      </trkpt>
      <trkpt lat="47.53499" lon="6.86159">
        <ele>341.60000610352</ele>
        <time>2017-07-22T10:17:28Z</time>
      </trkpt>
      <trkpt lat="47.53451" lon="6.86141">
        <ele>341.60000610352</ele>
        <time>2017-07-22T10:17:35Z</time>
      </trkpt>
      <trkpt lat="47.534" lon="6.86124">
        <ele>341.39999389648</ele>
        <time>2017-07-22T10:17:42Z</time>
      </trkpt>
      <trkpt lat="47.53343" lon="6.86104">
        <ele>341.39999389648</ele>
        <time>2017-07-22T10:17:50Z</time>
      </trkpt>
      <trkpt lat="47.53287" lon="6.86085">
        <ele>341.39999389648</ele>
        <time>2017-07-22T10:17:58Z</time>
      </trkpt>
      <trkpt lat="47.5324" lon="6.86068">
        <ele>341.60000610352</ele>
        <time>2017-07-22T10:18:05Z</time>
      </trkpt>
      <trkpt lat="47.53193" lon="6.86052">
        <ele>341.79998779297</ele>
        <time>2017-07-22T10:18:12Z</time>
      </trkpt>
      <trkpt lat="47.53155" lon="6.86038">
        <ele>342</ele>
        <time>2017-07-22T10:18:18Z</time>
      </trkpt>
      <trkpt lat="47.53108" lon="6.86022">
        <ele>342</ele>
        <time>2017-07-22T10:18:25Z</time>
      </trkpt>
      <trkpt lat="47.53061" lon="6.86005">
        <ele>342</ele>
        <time>2017-07-22T10:18:32Z</time>
      </trkpt>
      <trkpt lat="47.53015" lon="6.85988">
        <ele>341.79998779297</ele>
        <time>2017-07-22T10:18:39Z</time>
      </trkpt>
      <trkpt lat="47.5298" lon="6.85977">
        <ele>341.79998779297</ele>
        <time>2017-07-22T10:18:45Z</time>
      </trkpt>
      <trkpt lat="47.52974" lon="6.85978">
        <ele>341.79998779297</ele>
        <time>2017-07-22T10:18:46Z</time>
      </trkpt>
      <trkpt lat="47.52962" lon="6.85976">
        <ele>341.79998779297</ele>
        <time>2017-07-22T10:18:48Z</time>
      </trkpt>
      <trkpt lat="47.5295" lon="6.85969">
        <ele>341.60000610352</ele>
        <time>2017-07-22T10:18:50Z</time>
      </trkpt>
      <trkpt lat="47.52926" lon="6.85959">
        <ele>341.60000610352</ele>
        <time>2017-07-22T10:18:54Z</time>
      </trkpt>
      <trkpt lat="47.5292" lon="6.85958">
        <ele>341.79998779297</ele>
        <time>2017-07-22T10:18:55Z</time>
      </trkpt>
      <trkpt lat="47.52897" lon="6.85959">
        <ele>342</ele>
        <time>2017-07-22T10:18:59Z</time>
      </trkpt>
      <trkpt lat="47.52863" lon="6.85963">
        <ele>341.79998779297</ele>
        <time>2017-07-22T10:19:05Z</time>
      </trkpt>
      <trkpt lat="47.52823" lon="6.85973">
        <ele>341.79998779297</ele>
        <time>2017-07-22T10:19:11Z</time>
      </trkpt>
      <trkpt lat="47.52786" lon="6.85993">
        <ele>342</ele>
        <time>2017-07-22T10:19:17Z</time>
      </trkpt>
      <trkpt lat="47.5275" lon="6.86018">
        <ele>342</ele>
        <time>2017-07-22T10:19:23Z</time>
      </trkpt>
      <trkpt lat="47.52715" lon="6.86046">
        <ele>342</ele>
        <time>2017-07-22T10:19:29Z</time>
      </trkpt>
      <trkpt lat="47.52697" lon="6.86058">
        <ele>342</ele>
        <time>2017-07-22T10:19:32Z</time>
      </trkpt>
      <trkpt lat="47.52679" lon="6.8607">
        <ele>342.20001220703</ele>
        <time>2017-07-22T10:19:35Z</time>
      </trkpt>
      <trkpt lat="47.52639" lon="6.86104">
        <ele>341.79998779297</ele>
        <time>2017-07-22T10:19:42Z</time>
      </trkpt>
      <trkpt lat="47.52596" lon="6.86136">
        <ele>342</ele>
        <time>2017-07-22T10:19:49Z</time>
      </trkpt>
      <trkpt lat="47.52554" lon="6.86171">
        <ele>342</ele>
        <time>2017-07-22T10:19:56Z</time>
      </trkpt>
      <trkpt lat="47.52516" lon="6.86214">
        <ele>342</ele>
        <time>2017-07-22T10:20:03Z</time>
      </trkpt>
      <trkpt lat="47.52484" lon="6.86266">
        <ele>342.20001220703</ele>
        <time>2017-07-22T10:20:10Z</time>
      </trkpt>
      <trkpt lat="47.52453" lon="6.86332">
        <ele>342.20001220703</ele>
        <time>2017-07-22T10:20:18Z</time>
      </trkpt>
      <trkpt lat="47.52432" lon="6.86396">
        <ele>342</ele>
        <time>2017-07-22T10:20:25Z</time>
      </trkpt>
      <trkpt lat="47.52417" lon="6.86464">
        <ele>342</ele>
        <time>2017-07-22T10:20:32Z</time>
      </trkpt>
      <trkpt lat="47.52405" lon="6.86549">
        <ele>342</ele>
        <time>2017-07-22T10:20:40Z</time>
      </trkpt>
      <trkpt lat="47.52399" lon="6.86588">
        <ele>342</ele>
        <time>2017-07-22T10:20:44Z</time>
      </trkpt>
      <trkpt lat="47.52396" lon="6.86606">
        <ele>341.79998779297</ele>
        <time>2017-07-22T10:20:46Z</time>
      </trkpt>
      <trkpt lat="47.52395" lon="6.86653">
        <ele>341.79998779297</ele>
        <time>2017-07-22T10:20:51Z</time>
      </trkpt>
      <trkpt lat="47.52389" lon="6.8668">
        <ele>341.79998779297</ele>
        <time>2017-07-22T10:20:54Z</time>
      </trkpt>
      <trkpt lat="47.52387" lon="6.86699">
        <ele>341.79998779297</ele>
        <time>2017-07-22T10:20:56Z</time>
      </trkpt>
      <trkpt lat="47.52382" lon="6.86728">
        <ele>341.79998779297</ele>
        <time>2017-07-22T10:20:59Z</time>
      </trkpt>
      <trkpt lat="47.52373" lon="6.86808">
        <ele>342</ele>
        <time>2017-07-22T10:21:07Z</time>
      </trkpt>
      <trkpt lat="47.52371" lon="6.86817">
        <ele>341.79998779297</ele>
        <time>2017-07-22T10:21:08Z</time>
      </trkpt>
      <trkpt lat="47.52365" lon="6.86863">
        <ele>341.60000610352</ele>
        <time>2017-07-22T10:21:13Z</time>
      </trkpt>
      <trkpt lat="47.52359" lon="6.86917">
        <ele>341.60000610352</ele>
        <time>2017-07-22T10:21:19Z</time>
      </trkpt>
      <trkpt lat="47.52352" lon="6.8698">
        <ele>341.60000610352</ele>
        <time>2017-07-22T10:21:26Z</time>
      </trkpt>
      <trkpt lat="47.52349" lon="6.86986">
        <ele>341.39999389648</ele>
        <time>2017-07-22T10:23:03Z</time>
      </trkpt>
      <trkpt lat="47.5235" lon="6.86988">
        <ele>341.39999389648</ele>
        <time>2017-07-22T10:23:04Z</time>
      </trkpt>
      <trkpt lat="47.52351" lon="6.86992">
        <ele>341.39999389648</ele>
        <time>2017-07-22T10:23:05Z</time>
      </trkpt>
      <trkpt lat="47.52352" lon="6.8702">
        <ele>341.39999389648</ele>
        <time>2017-07-22T10:23:09Z</time>
      </trkpt>
      <trkpt lat="47.52352" lon="6.87026">
        <ele>341.39999389648</ele>
        <time>2017-07-22T10:23:10Z</time>
      </trkpt>
      <trkpt lat="47.5235" lon="6.87047">
        <ele>341.39999389648</ele>
        <time>2017-07-22T10:23:13Z</time>
      </trkpt>
      <trkpt lat="47.52349" lon="6.87055">
        <ele>341.39999389648</ele>
        <time>2017-07-22T10:23:14Z</time>
      </trkpt>
      <trkpt lat="47.5234" lon="6.87113">
        <ele>341.79998779297</ele>
        <time>2017-07-22T10:23:21Z</time>
      </trkpt>
      <trkpt lat="47.52338" lon="6.87131">
        <ele>342</ele>
        <time>2017-07-22T10:23:23Z</time>
      </trkpt>
      <trkpt lat="47.52332" lon="6.87167">
        <ele>342</ele>
        <time>2017-07-22T10:23:27Z</time>
      </trkpt>
      <trkpt lat="47.52323" lon="6.87231">
        <ele>342</ele>
        <time>2017-07-22T10:23:34Z</time>
      </trkpt>
      <trkpt lat="47.52314" lon="6.87293">
        <ele>342</ele>
        <time>2017-07-22T10:23:41Z</time>
      </trkpt>
      <trkpt lat="47.52304" lon="6.87367">
        <ele>342</ele>
        <time>2017-07-22T10:23:49Z</time>
      </trkpt>
      <trkpt lat="47.52297" lon="6.87453">
        <ele>342</ele>
        <time>2017-07-22T10:23:58Z</time>
      </trkpt>
      <trkpt lat="47.52297" lon="6.87463">
        <ele>342</ele>
        <time>2017-07-22T10:23:59Z</time>
      </trkpt>
      <trkpt lat="47.52298" lon="6.87511">
        <ele>342</ele>
        <time>2017-07-22T10:24:04Z</time>
      </trkpt>
      <trkpt lat="47.523" lon="6.87529">
        <ele>342</ele>
        <time>2017-07-22T10:24:06Z</time>
      </trkpt>
      <trkpt lat="47.52303" lon="6.87557">
        <ele>342.20001220703</ele>
        <time>2017-07-22T10:24:09Z</time>
      </trkpt>
      <trkpt lat="47.5231" lon="6.87594">
        <ele>342.20001220703</ele>
        <time>2017-07-22T10:24:13Z</time>
      </trkpt>
      <trkpt lat="47.52325" lon="6.87675">
        <ele>342.20001220703</ele>
        <time>2017-07-22T10:24:22Z</time>
      </trkpt>
      <trkpt lat="47.5234" lon="6.87759">
        <ele>342.20001220703</ele>
        <time>2017-07-22T10:24:31Z</time>
      </trkpt>
      <trkpt lat="47.52353" lon="6.87823">
        <ele>342.20001220703</ele>
        <time>2017-07-22T10:24:38Z</time>
      </trkpt>
      <trkpt lat="47.5236" lon="6.8784">
        <ele>342.20001220703</ele>
        <time>2017-07-22T10:24:40Z</time>
      </trkpt>
      <trkpt lat="47.52366" lon="6.87858">
        <ele>342.20001220703</ele>
        <time>2017-07-22T10:24:42Z</time>
      </trkpt>
      <trkpt lat="47.52366" lon="6.87881">
        <ele>342.20001220703</ele>
        <time>2017-07-22T10:24:45Z</time>
      </trkpt>
      <trkpt lat="47.52359" lon="6.87905">
        <ele>342.20001220703</ele>
        <time>2017-07-22T10:24:48Z</time>
      </trkpt>
      <trkpt lat="47.52353" lon="6.87923">
        <ele>342.20001220703</ele>
        <time>2017-07-22T10:24:50Z</time>
      </trkpt>
      <trkpt lat="47.52328" lon="6.88003">
        <ele>342.20001220703</ele>
        <time>2017-07-22T10:24:59Z</time>
      </trkpt>
      <trkpt lat="47.52326" lon="6.88027">
        <ele>342.20001220703</ele>
        <time>2017-07-22T10:25:02Z</time>
      </trkpt>
      <trkpt lat="47.52319" lon="6.88041">
        <ele>341.79998779297</ele>
        <time>2017-07-22T10:25:05Z</time>
      </trkpt>
      <trkpt lat="47.52302" lon="6.88059">
        <ele>341.60000610352</ele>
        <time>2017-07-22T10:25:10Z</time>
      </trkpt>
      <trkpt lat="47.5228" lon="6.88082">
        <ele>341.39999389648</ele>
        <time>2017-07-22T10:25:17Z</time>
      </trkpt>
      <trkpt lat="47.52273" lon="6.88088">
        <ele>341.39999389648</ele>
        <time>2017-07-22T10:25:19Z</time>
      </trkpt>
      <trkpt lat="47.52262" lon="6.88097">
        <ele>341.39999389648</ele>
        <time>2017-07-22T10:25:22Z</time>
      </trkpt>
      <trkpt lat="47.52246" lon="6.88105">
        <ele>341.20001220703</ele>
        <time>2017-07-22T10:25:27Z</time>
      </trkpt>
      <trkpt lat="47.52242" lon="6.88108">
        <ele>341.79998779297</ele>
        <time>2017-07-22T10:25:30Z</time>
      </trkpt>
      <trkpt lat="47.5224" lon="6.88108">
        <ele>342</ele>
        <time>2017-07-22T10:25:31Z</time>
      </trkpt>
      <trkpt lat="47.52237" lon="6.88112">
        <ele>342.39999389648</ele>
        <time>2017-07-22T10:25:36Z</time>
      </trkpt>
      <trkpt lat="47.52234" lon="6.88117">
        <ele>342</ele>
        <time>2017-07-22T10:27:01Z</time>
      </trkpt>
      <trkpt lat="47.52231" lon="6.8812">
        <ele>342</ele>
        <time>2017-07-22T10:27:03Z</time>
      </trkpt>
      <trkpt lat="47.52219" lon="6.88133">
        <ele>341.79998779297</ele>
        <time>2017-07-22T10:27:07Z</time>
      </trkpt>
      <trkpt lat="47.52196" lon="6.88162">
        <ele>341.20001220703</ele>
        <time>2017-07-22T10:27:12Z</time>
      </trkpt>
      <trkpt lat="47.52186" lon="6.88173">
        <ele>341</ele>
        <time>2017-07-22T10:27:14Z</time>
      </trkpt>
      <trkpt lat="47.52159" lon="6.88195">
        <ele>340.60000610352</ele>
        <time>2017-07-22T10:27:19Z</time>
      </trkpt>
      <trkpt lat="47.5213" lon="6.88206">
        <ele>340.79998779297</ele>
        <time>2017-07-22T10:27:24Z</time>
      </trkpt>
      <trkpt lat="47.52106" lon="6.8821">
        <ele>341</ele>
        <time>2017-07-22T10:27:28Z</time>
      </trkpt>
      <trkpt lat="47.52093" lon="6.88208">
        <ele>341.20001220703</ele>
        <time>2017-07-22T10:27:30Z</time>
      </trkpt>
      <trkpt lat="47.52052" lon="6.88189">
        <ele>341</ele>
        <time>2017-07-22T10:27:37Z</time>
      </trkpt>
      <trkpt lat="47.52022" lon="6.88156">
        <ele>341</ele>
        <time>2017-07-22T10:27:43Z</time>
      </trkpt>
      <trkpt lat="47.52002" lon="6.88119">
        <ele>340.60000610352</ele>
        <time>2017-07-22T10:27:48Z</time>
      </trkpt>
      <trkpt lat="47.51993" lon="6.88094">
        <ele>340.20001220703</ele>
        <time>2017-07-22T10:27:51Z</time>
      </trkpt>
      <trkpt lat="47.51991" lon="6.88087">
        <ele>340</ele>
        <time>2017-07-22T10:27:52Z</time>
      </trkpt>
      <trkpt lat="47.51986" lon="6.88074">
        <ele>340</ele>
        <time>2017-07-22T10:27:54Z</time>
      </trkpt>
      <trkpt lat="47.51978" lon="6.88049">
        <ele>340</ele>
        <time>2017-07-22T10:27:58Z</time>
      </trkpt>
      <trkpt lat="47.51974" lon="6.88022">
        <ele>340.20001220703</ele>
        <time>2017-07-22T10:28:02Z</time>
      </trkpt>
      <trkpt lat="47.51972" lon="6.88015">
        <ele>340.20001220703</ele>
        <time>2017-07-22T10:28:03Z</time>
      </trkpt>
      <trkpt lat="47.51959" lon="6.87981">
        <ele>340.20001220703</ele>
        <time>2017-07-22T10:28:07Z</time>
      </trkpt>
      <trkpt lat="47.51943" lon="6.8793">
        <ele>338.60000610352</ele>
        <time>2017-07-22T10:28:12Z</time>
      </trkpt>
      <trkpt lat="47.51934" lon="6.87902">
        <ele>338.20001220703</ele>
        <time>2017-07-22T10:28:15Z</time>
      </trkpt>
      <trkpt lat="47.51918" lon="6.8785">
        <ele>337.79998779297</ele>
        <time>2017-07-22T10:28:21Z</time>
      </trkpt>
      <trkpt lat="47.51899" lon="6.87792">
        <ele>337.60000610352</ele>
        <time>2017-07-22T10:28:28Z</time>
      </trkpt>
      <trkpt lat="47.51896" lon="6.87783">
        <ele>337.60000610352</ele>
        <time>2017-07-22T10:28:29Z</time>
      </trkpt>
      <trkpt lat="47.51873" lon="6.87714">
        <ele>337.20001220703</ele>
        <time>2017-07-22T10:28:37Z</time>
      </trkpt>
      <trkpt lat="47.51855" lon="6.87654">
        <ele>337.20001220703</ele>
        <time>2017-07-22T10:28:44Z</time>
      </trkpt>
      <trkpt lat="47.51831" lon="6.87577">
        <ele>337.20001220703</ele>
        <time>2017-07-22T10:28:53Z</time>
      </trkpt>
      <trkpt lat="47.51828" lon="6.87569">
        <ele>337.20001220703</ele>
        <time>2017-07-22T10:28:54Z</time>
      </trkpt>
      <trkpt lat="47.51806" lon="6.87499">
        <ele>337.20001220703</ele>
        <time>2017-07-22T10:29:03Z</time>
      </trkpt>
      <trkpt lat="47.51793" lon="6.87458">
        <ele>337.20001220703</ele>
        <time>2017-07-22T10:29:09Z</time>
      </trkpt>
      <trkpt lat="47.51779" lon="6.87408">
        <ele>337</ele>
        <time>2017-07-22T10:29:16Z</time>
      </trkpt>
      <trkpt lat="47.51777" lon="6.874">
        <ele>337</ele>
        <time>2017-07-22T10:29:17Z</time>
      </trkpt>
      <trkpt lat="47.51764" lon="6.87361">
        <ele>337</ele>
        <time>2017-07-22T10:29:22Z</time>
      </trkpt>
      <trkpt lat="47.51744" lon="6.87295">
        <ele>337</ele>
        <time>2017-07-22T10:29:30Z</time>
      </trkpt>
      <trkpt lat="47.51726" lon="6.87236">
        <ele>337</ele>
        <time>2017-07-22T10:29:37Z</time>
      </trkpt>
      <trkpt lat="47.51703" lon="6.87159">
        <ele>337</ele>
        <time>2017-07-22T10:29:46Z</time>
      </trkpt>
      <trkpt lat="47.5168" lon="6.87085">
        <ele>336.60000610352</ele>
        <time>2017-07-22T10:29:55Z</time>
      </trkpt>
      <trkpt lat="47.51669" lon="6.87052">
        <ele>336.60000610352</ele>
        <time>2017-07-22T10:29:59Z</time>
      </trkpt>
      <trkpt lat="47.51664" lon="6.87035">
        <ele>336.60000610352</ele>
        <time>2017-07-22T10:30:01Z</time>
      </trkpt>
      <trkpt lat="47.51645" lon="6.86975">
        <ele>336.79998779297</ele>
        <time>2017-07-22T10:30:08Z</time>
      </trkpt>
      <trkpt lat="47.51624" lon="6.86906">
        <ele>336.60000610352</ele>
        <time>2017-07-22T10:30:16Z</time>
      </trkpt>
      <trkpt lat="47.51621" lon="6.86897">
        <ele>336.60000610352</ele>
        <time>2017-07-22T10:30:17Z</time>
      </trkpt>
      <trkpt lat="47.51599" lon="6.86827">
        <ele>336.79998779297</ele>
        <time>2017-07-22T10:30:25Z</time>
      </trkpt>
      <trkpt lat="47.51572" lon="6.86746">
        <ele>336.60000610352</ele>
        <time>2017-07-22T10:30:34Z</time>
      </trkpt>
      <trkpt lat="47.51553" lon="6.86684">
        <ele>336.60000610352</ele>
        <time>2017-07-22T10:30:41Z</time>
      </trkpt>
      <trkpt lat="47.51533" lon="6.86622">
        <ele>336.60000610352</ele>
        <time>2017-07-22T10:30:48Z</time>
      </trkpt>
      <trkpt lat="47.51511" lon="6.8655">
        <ele>336.60000610352</ele>
        <time>2017-07-22T10:30:56Z</time>
      </trkpt>
      <trkpt lat="47.51486" lon="6.8647">
        <ele>336.79998779297</ele>
        <time>2017-07-22T10:31:05Z</time>
      </trkpt>
      <trkpt lat="47.51481" lon="6.86453">
        <ele>336.79998779297</ele>
        <time>2017-07-22T10:31:07Z</time>
      </trkpt>
      <trkpt lat="47.51457" lon="6.86374">
        <ele>336.60000610352</ele>
        <time>2017-07-22T10:31:16Z</time>
      </trkpt>
      <trkpt lat="47.51455" lon="6.86365">
        <ele>336.60000610352</ele>
        <time>2017-07-22T10:31:17Z</time>
      </trkpt>
      <trkpt lat="47.51431" lon="6.86285">
        <ele>336.79998779297</ele>
        <time>2017-07-22T10:31:26Z</time>
      </trkpt>
      <trkpt lat="47.51411" lon="6.86224">
        <ele>336.60000610352</ele>
        <time>2017-07-22T10:31:33Z</time>
      </trkpt>
      <trkpt lat="47.51385" lon="6.86146">
        <ele>336.60000610352</ele>
        <time>2017-07-22T10:31:42Z</time>
      </trkpt>
      <trkpt lat="47.51363" lon="6.86076">
        <ele>336.39999389648</ele>
        <time>2017-07-22T10:31:50Z</time>
      </trkpt>
      <trkpt lat="47.5135" lon="6.86034">
        <ele>336.39999389648</ele>
        <time>2017-07-22T10:31:55Z</time>
      </trkpt>
      <trkpt lat="47.51342" lon="6.86008">
        <ele>336.39999389648</ele>
        <time>2017-07-22T10:31:58Z</time>
      </trkpt>
      <trkpt lat="47.51319" lon="6.85934">
        <ele>336.39999389648</ele>
        <time>2017-07-22T10:32:07Z</time>
      </trkpt>
      <trkpt lat="47.51314" lon="6.85918">
        <ele>336.39999389648</ele>
        <time>2017-07-22T10:32:09Z</time>
      </trkpt>
      <trkpt lat="47.513" lon="6.85864">
        <ele>336.39999389648</ele>
        <time>2017-07-22T10:32:16Z</time>
      </trkpt>
      <trkpt lat="47.51295" lon="6.85851">
        <ele>336.60000610352</ele>
        <time>2017-07-22T10:32:19Z</time>
      </trkpt>
      <trkpt lat="47.51287" lon="6.85852">
        <ele>337</ele>
        <time>2017-07-22T10:32:22Z</time>
      </trkpt>
      <trkpt lat="47.51282" lon="6.85857">
        <ele>337.39999389648</ele>
        <time>2017-07-22T10:32:24Z</time>
      </trkpt>
      <trkpt lat="47.51276" lon="6.85861">
        <ele>337.60000610352</ele>
        <time>2017-07-22T10:32:26Z</time>
      </trkpt>
      <trkpt lat="47.51273" lon="6.85863">
        <ele>337.79998779297</ele>
        <time>2017-07-22T10:32:27Z</time>
      </trkpt>
      <trkpt lat="47.51255" lon="6.85875">
        <ele>337.79998779297</ele>
        <time>2017-07-22T10:32:32Z</time>
      </trkpt>
      <trkpt lat="47.5125" lon="6.85876">
        <ele>337.60000610352</ele>
        <time>2017-07-22T10:32:34Z</time>
      </trkpt>
      <trkpt lat="47.51249" lon="6.85874">
        <ele>337.39999389648</ele>
        <time>2017-07-22T10:32:35Z</time>
      </trkpt>
      <trkpt lat="47.51253" lon="6.85867">
        <ele>336.60000610352</ele>
        <time>2017-07-22T10:32:37Z</time>
      </trkpt>
      <trkpt lat="47.51257" lon="6.85865">
        <ele>336.39999389648</ele>
        <time>2017-07-22T10:32:38Z</time>
      </trkpt>
      <trkpt lat="47.51267" lon="6.85846">
        <ele>335.79998779297</ele>
        <time>2017-07-22T10:32:41Z</time>
      </trkpt>
      <trkpt lat="47.51267" lon="6.85838">
        <ele>335.60000610352</ele>
        <time>2017-07-22T10:32:42Z</time>
      </trkpt>
      <trkpt lat="47.51262" lon="6.85821">
        <ele>335.39999389648</ele>
        <time>2017-07-22T10:32:44Z</time>
      </trkpt>
      <trkpt lat="47.5126" lon="6.85814">
        <ele>335.20001220703</ele>
        <time>2017-07-22T10:32:45Z</time>
      </trkpt>
      <trkpt lat="47.51247" lon="6.85774">
        <ele>335</ele>
        <time>2017-07-22T10:32:50Z</time>
      </trkpt>
      <trkpt lat="47.51225" lon="6.85707">
        <ele>334.79998779297</ele>
        <time>2017-07-22T10:32:58Z</time>
      </trkpt>
      <trkpt lat="47.51217" lon="6.85681">
        <ele>334.60000610352</ele>
        <time>2017-07-22T10:33:01Z</time>
      </trkpt>
      <trkpt lat="47.51201" lon="6.8563">
        <ele>334.39999389648</ele>
        <time>2017-07-22T10:33:07Z</time>
      </trkpt>
      <trkpt lat="47.51179" lon="6.85561">
        <ele>334.39999389648</ele>
        <time>2017-07-22T10:33:15Z</time>
      </trkpt>
      <trkpt lat="47.51161" lon="6.855">
        <ele>334.60000610352</ele>
        <time>2017-07-22T10:33:22Z</time>
      </trkpt>
      <trkpt lat="47.51142" lon="6.8544">
        <ele>334.60000610352</ele>
        <time>2017-07-22T10:33:29Z</time>
      </trkpt>
      <trkpt lat="47.51134" lon="6.85413">
        <ele>334.60000610352</ele>
        <time>2017-07-22T10:33:32Z</time>
      </trkpt>
      <trkpt lat="47.51112" lon="6.85343">
        <ele>334</ele>
        <time>2017-07-22T10:33:40Z</time>
      </trkpt>
      <trkpt lat="47.51094" lon="6.85284">
        <ele>334</ele>
        <time>2017-07-22T10:33:47Z</time>
      </trkpt>
      <trkpt lat="47.51077" lon="6.85227">
        <ele>334</ele>
        <time>2017-07-22T10:33:54Z</time>
      </trkpt>
      <trkpt lat="47.51059" lon="6.85169">
        <ele>334</ele>
        <time>2017-07-22T10:34:01Z</time>
      </trkpt>
      <trkpt lat="47.51041" lon="6.85112">
        <ele>334</ele>
        <time>2017-07-22T10:34:08Z</time>
      </trkpt>
      <trkpt lat="47.51028" lon="6.85082">
        <ele>333.79998779297</ele>
        <time>2017-07-22T10:34:13Z</time>
      </trkpt>
      <trkpt lat="47.51019" lon="6.85087">
        <ele>333.79998779297</ele>
        <time>2017-07-22T10:34:16Z</time>
      </trkpt>
      <trkpt lat="47.51013" lon="6.85087">
        <ele>333.60000610352</ele>
        <time>2017-07-22T10:34:19Z</time>
      </trkpt>
      <trkpt lat="47.51013" lon="6.85088">
        <ele>333.60000610352</ele>
        <time>2017-07-22T10:34:21Z</time>
      </trkpt>
      <trkpt lat="47.51016" lon="6.85088">
        <ele>333.39999389648</ele>
        <time>2017-07-22T10:34:22Z</time>
      </trkpt>
      <trkpt lat="47.51025" lon="6.85082">
        <ele>333.20001220703</ele>
        <time>2017-07-22T10:34:26Z</time>
      </trkpt>
      <trkpt lat="47.51032" lon="6.85082">
        <ele>333.39999389648</ele>
        <time>2017-07-22T10:38:28Z</time>
      </trkpt>
      <trkpt lat="47.51029" lon="6.85086">
        <ele>333.39999389648</ele>
        <time>2017-07-22T10:38:31Z</time>
      </trkpt>
      <trkpt lat="47.51016" lon="6.85086">
        <ele>333.39999389648</ele>
        <time>2017-07-22T10:38:35Z</time>
      </trkpt>
      <trkpt lat="47.51006" lon="6.85072">
        <ele>333.39999389648</ele>
        <time>2017-07-22T10:38:38Z</time>
      </trkpt>
      <trkpt lat="47.50997" lon="6.85042">
        <ele>333</ele>
        <time>2017-07-22T10:38:42Z</time>
      </trkpt>
      <trkpt lat="47.50995" lon="6.85034">
        <ele>333</ele>
        <time>2017-07-22T10:38:43Z</time>
      </trkpt>
      <trkpt lat="47.5098" lon="6.84988">
        <ele>333</ele>
        <time>2017-07-22T10:38:49Z</time>
      </trkpt>
      <trkpt lat="47.50971" lon="6.84948">
        <ele>333</ele>
        <time>2017-07-22T10:38:54Z</time>
      </trkpt>
      <trkpt lat="47.5097" lon="6.8494">
        <ele>333</ele>
        <time>2017-07-22T10:38:55Z</time>
      </trkpt>
      <trkpt lat="47.5097" lon="6.8489">
        <ele>333</ele>
        <time>2017-07-22T10:39:01Z</time>
      </trkpt>
      <trkpt lat="47.50963" lon="6.84861">
        <ele>333.20001220703</ele>
        <time>2017-07-22T10:39:05Z</time>
      </trkpt>
      <trkpt lat="47.50949" lon="6.84818">
        <ele>333.39999389648</ele>
        <time>2017-07-22T10:39:11Z</time>
      </trkpt>
      <trkpt lat="47.50933" lon="6.84765">
        <ele>333.39999389648</ele>
        <time>2017-07-22T10:39:18Z</time>
      </trkpt>
      <trkpt lat="47.50914" lon="6.84693">
        <ele>333.60000610352</ele>
        <time>2017-07-22T10:39:27Z</time>
      </trkpt>
      <trkpt lat="47.50899" lon="6.84649">
        <ele>333</ele>
        <time>2017-07-22T10:39:32Z</time>
      </trkpt>
      <trkpt lat="47.50873" lon="6.84601">
        <ele>332.60000610352</ele>
        <time>2017-07-22T10:39:38Z</time>
      </trkpt>
      <trkpt lat="47.50869" lon="6.84594">
        <ele>332.60000610352</ele>
        <time>2017-07-22T10:39:39Z</time>
      </trkpt>
      <trkpt lat="47.50839" lon="6.84545">
        <ele>332.39999389648</ele>
        <time>2017-07-22T10:39:46Z</time>
      </trkpt>
      <trkpt lat="47.50811" lon="6.84493">
        <ele>332.39999389648</ele>
        <time>2017-07-22T10:39:53Z</time>
      </trkpt>
      <trkpt lat="47.50784" lon="6.84439">
        <ele>332.39999389648</ele>
        <time>2017-07-22T10:40:00Z</time>
      </trkpt>
      <trkpt lat="47.50755" lon="6.84377">
        <ele>332.20001220703</ele>
        <time>2017-07-22T10:40:08Z</time>
      </trkpt>
      <trkpt lat="47.50726" lon="6.84304">
        <ele>332.20001220703</ele>
        <time>2017-07-22T10:40:17Z</time>
      </trkpt>
      <trkpt lat="47.50705" lon="6.84252">
        <ele>332.39999389648</ele>
        <time>2017-07-22T10:40:24Z</time>
      </trkpt>
      <trkpt lat="47.50686" lon="6.84206">
        <ele>332.39999389648</ele>
        <time>2017-07-22T10:40:31Z</time>
      </trkpt>
      <trkpt lat="47.50686" lon="6.84198">
        <ele>332.39999389648</ele>
        <time>2017-07-22T10:40:32Z</time>
      </trkpt>
      <trkpt lat="47.50691" lon="6.84172">
        <ele>332.20001220703</ele>
        <time>2017-07-22T10:40:35Z</time>
      </trkpt>
      <trkpt lat="47.50688" lon="6.84146">
        <ele>331.20001220703</ele>
        <time>2017-07-22T10:40:38Z</time>
      </trkpt>
      <trkpt lat="47.50683" lon="6.84131">
        <ele>330.60000610352</ele>
        <time>2017-07-22T10:40:40Z</time>
      </trkpt>
      <trkpt lat="47.50679" lon="6.84127">
        <ele>330.39999389648</ele>
        <time>2017-07-22T10:40:41Z</time>
      </trkpt>
      <trkpt lat="47.50666" lon="6.8412">
        <ele>330.20001220703</ele>
        <time>2017-07-22T10:40:44Z</time>
      </trkpt>
      <trkpt lat="47.50661" lon="6.84119">
        <ele>330.20001220703</ele>
        <time>2017-07-22T10:40:45Z</time>
      </trkpt>
      <trkpt lat="47.5065" lon="6.84105">
        <ele>330.60000610352</ele>
        <time>2017-07-22T10:40:49Z</time>
      </trkpt>
      <trkpt lat="47.50646" lon="6.84093">
        <ele>331.20001220703</ele>
        <time>2017-07-22T10:40:51Z</time>
      </trkpt>
      <trkpt lat="47.50639" lon="6.84071">
        <ele>331.60000610352</ele>
        <time>2017-07-22T10:40:54Z</time>
      </trkpt>
      <trkpt lat="47.50637" lon="6.84064">
        <ele>331.79998779297</ele>
        <time>2017-07-22T10:40:55Z</time>
      </trkpt>
      <trkpt lat="47.50623" lon="6.84009">
        <ele>332</ele>
        <time>2017-07-22T10:41:02Z</time>
      </trkpt>
      <trkpt lat="47.50612" lon="6.83962">
        <ele>332</ele>
        <time>2017-07-22T10:41:08Z</time>
      </trkpt>
      <trkpt lat="47.50602" lon="6.83926">
        <ele>332.20001220703</ele>
        <time>2017-07-22T10:41:13Z</time>
      </trkpt>
      <trkpt lat="47.50599" lon="6.83919">
        <ele>332.20001220703</ele>
        <time>2017-07-22T10:41:14Z</time>
      </trkpt>
      <trkpt lat="47.50597" lon="6.83912">
        <ele>332.39999389648</ele>
        <time>2017-07-22T10:41:15Z</time>
      </trkpt>
      <trkpt lat="47.50585" lon="6.83858">
        <ele>332.60000610352</ele>
        <time>2017-07-22T10:41:22Z</time>
      </trkpt>
      <trkpt lat="47.5057" lon="6.83794">
        <ele>332.60000610352</ele>
        <time>2017-07-22T10:41:30Z</time>
      </trkpt>
      <trkpt lat="47.50557" lon="6.83725">
        <ele>332.60000610352</ele>
        <time>2017-07-22T10:41:38Z</time>
      </trkpt>
      <trkpt lat="47.5054" lon="6.83664">
        <ele>332.60000610352</ele>
        <time>2017-07-22T10:41:45Z</time>
      </trkpt>
      <trkpt lat="47.50518" lon="6.83598">
        <ele>332.60000610352</ele>
        <time>2017-07-22T10:41:53Z</time>
      </trkpt>
      <trkpt lat="47.50498" lon="6.83539">
        <ele>332.39999389648</ele>
        <time>2017-07-22T10:42:00Z</time>
      </trkpt>
      <trkpt lat="47.50476" lon="6.83464">
        <ele>332</ele>
        <time>2017-07-22T10:42:08Z</time>
      </trkpt>
      <trkpt lat="47.5046" lon="6.8339">
        <ele>331.79998779297</ele>
        <time>2017-07-22T10:42:16Z</time>
      </trkpt>
      <trkpt lat="47.50459" lon="6.83373">
        <ele>331.79998779297</ele>
        <time>2017-07-22T10:42:18Z</time>
      </trkpt>
      <trkpt lat="47.50463" lon="6.83347">
        <ele>332</ele>
        <time>2017-07-22T10:42:21Z</time>
      </trkpt>
      <trkpt lat="47.50473" lon="6.83315">
        <ele>331.60000610352</ele>
        <time>2017-07-22T10:42:25Z</time>
      </trkpt>
      <trkpt lat="47.5047" lon="6.83304">
        <ele>330.79998779297</ele>
        <time>2017-07-22T10:42:27Z</time>
      </trkpt>
      <trkpt lat="47.50466" lon="6.833">
        <ele>330.39999389648</ele>
        <time>2017-07-22T10:42:28Z</time>
      </trkpt>
      <trkpt lat="47.50457" lon="6.83295">
        <ele>330.20001220703</ele>
        <time>2017-07-22T10:42:30Z</time>
      </trkpt>
      <trkpt lat="47.50453" lon="6.83291">
        <ele>330</ele>
        <time>2017-07-22T10:42:31Z</time>
      </trkpt>
      <trkpt lat="47.5045" lon="6.83285">
        <ele>329.79998779297</ele>
        <time>2017-07-22T10:42:32Z</time>
      </trkpt>
      <trkpt lat="47.50447" lon="6.8328">
        <ele>329.79998779297</ele>
        <time>2017-07-22T10:42:33Z</time>
      </trkpt>
      <trkpt lat="47.50443" lon="6.83269">
        <ele>329.60000610352</ele>
        <time>2017-07-22T10:42:35Z</time>
      </trkpt>
      <trkpt lat="47.50437" lon="6.83251">
        <ele>330.39999389648</ele>
        <time>2017-07-22T10:42:38Z</time>
      </trkpt>
      <trkpt lat="47.50435" lon="6.83245">
        <ele>330.79998779297</ele>
        <time>2017-07-22T10:42:39Z</time>
      </trkpt>
      <trkpt lat="47.50429" lon="6.83217">
        <ele>331.79998779297</ele>
        <time>2017-07-22T10:42:43Z</time>
      </trkpt>
      <trkpt lat="47.50424" lon="6.83195">
        <ele>332</ele>
        <time>2017-07-22T10:42:46Z</time>
      </trkpt>
      <trkpt lat="47.50412" lon="6.8315">
        <ele>332.20001220703</ele>
        <time>2017-07-22T10:42:52Z</time>
      </trkpt>
      <trkpt lat="47.50412" lon="6.83142">
        <ele>332.20001220703</ele>
        <time>2017-07-22T10:42:53Z</time>
      </trkpt>
      <trkpt lat="47.50405" lon="6.83092">
        <ele>332</ele>
        <time>2017-07-22T10:42:59Z</time>
      </trkpt>
      <trkpt lat="47.50394" lon="6.83022">
        <ele>332.20001220703</ele>
        <time>2017-07-22T10:43:07Z</time>
      </trkpt>
      <trkpt lat="47.50387" lon="6.8297">
        <ele>332.20001220703</ele>
        <time>2017-07-22T10:43:13Z</time>
      </trkpt>
      <trkpt lat="47.50376" lon="6.82901">
        <ele>332.39999389648</ele>
        <time>2017-07-22T10:43:21Z</time>
      </trkpt>
      <trkpt lat="47.50364" lon="6.82836">
        <ele>332</ele>
        <time>2017-07-22T10:43:28Z</time>
      </trkpt>
      <trkpt lat="47.50352" lon="6.82777">
        <ele>332</ele>
        <time>2017-07-22T10:43:35Z</time>
      </trkpt>
      <trkpt lat="47.5035" lon="6.82763">
        <ele>332.20001220703</ele>
        <time>2017-07-22T10:43:37Z</time>
      </trkpt>
      <trkpt lat="47.50346" lon="6.82732">
        <ele>332</ele>
        <time>2017-07-22T10:43:41Z</time>
      </trkpt>
      <trkpt lat="47.50347" lon="6.82674">
        <ele>332</ele>
        <time>2017-07-22T10:43:48Z</time>
      </trkpt>
      <trkpt lat="47.50348" lon="6.82603">
        <ele>331.79998779297</ele>
        <time>2017-07-22T10:43:56Z</time>
      </trkpt>
      <trkpt lat="47.50352" lon="6.82564">
        <ele>332.20001220703</ele>
        <time>2017-07-22T10:44:01Z</time>
      </trkpt>
      <trkpt lat="47.50355" lon="6.82559">
        <ele>332.20001220703</ele>
        <time>2017-07-22T10:44:02Z</time>
      </trkpt>
      <trkpt lat="47.50361" lon="6.82547">
        <ele>332.20001220703</ele>
        <time>2017-07-22T10:44:04Z</time>
      </trkpt>
      <trkpt lat="47.50366" lon="6.82543">
        <ele>332.20001220703</ele>
        <time>2017-07-22T10:44:06Z</time>
      </trkpt>
      <trkpt lat="47.50371" lon="6.82536">
        <ele>332.20001220703</ele>
        <time>2017-07-22T10:44:09Z</time>
      </trkpt>
      <trkpt lat="47.50373" lon="6.82528">
        <ele>332</ele>
        <time>2017-07-22T10:44:12Z</time>
      </trkpt>
      <trkpt lat="47.50377" lon="6.82512">
        <ele>331.79998779297</ele>
        <time>2017-07-22T10:44:17Z</time>
      </trkpt>
      <trkpt lat="47.50378" lon="6.8249">
        <ele>331.79998779297</ele>
        <time>2017-07-22T10:44:21Z</time>
      </trkpt>
      <trkpt lat="47.50374" lon="6.82478">
        <ele>331.79998779297</ele>
        <time>2017-07-22T10:44:22Z</time>
      </trkpt>
      <trkpt lat="47.50366" lon="6.82447">
        <ele>331.79998779297</ele>
        <time>2017-07-22T10:44:25Z</time>
      </trkpt>
      <trkpt lat="47.50363" lon="6.82437">
        <ele>331.79998779297</ele>
        <time>2017-07-22T10:44:26Z</time>
      </trkpt>
      <trkpt lat="47.50349" lon="6.82403">
        <ele>331.79998779297</ele>
        <time>2017-07-22T10:44:30Z</time>
      </trkpt>
      <trkpt lat="47.50348" lon="6.82393">
        <ele>331.79998779297</ele>
        <time>2017-07-22T10:44:31Z</time>
      </trkpt>
      <trkpt lat="47.50346" lon="6.82338">
        <ele>331.79998779297</ele>
        <time>2017-07-22T10:44:37Z</time>
      </trkpt>
      <trkpt lat="47.50349" lon="6.82283">
        <ele>331.60000610352</ele>
        <time>2017-07-22T10:44:43Z</time>
      </trkpt>
      <trkpt lat="47.50355" lon="6.82209">
        <ele>331.79998779297</ele>
        <time>2017-07-22T10:44:51Z</time>
      </trkpt>
      <trkpt lat="47.50356" lon="6.82199">
        <ele>332</ele>
        <time>2017-07-22T10:44:52Z</time>
      </trkpt>
      <trkpt lat="47.50362" lon="6.82137">
        <ele>332</ele>
        <time>2017-07-22T10:45:00Z</time>
      </trkpt>
      <trkpt lat="47.50369" lon="6.82074">
        <ele>332.20001220703</ele>
        <time>2017-07-22T10:45:07Z</time>
      </trkpt>
      <trkpt lat="47.50374" lon="6.82006">
        <ele>332</ele>
        <time>2017-07-22T10:45:14Z</time>
      </trkpt>
      <trkpt lat="47.5038" lon="6.81934">
        <ele>332</ele>
        <time>2017-07-22T10:45:21Z</time>
      </trkpt>
      <trkpt lat="47.50384" lon="6.81873">
        <ele>331.79998779297</ele>
        <time>2017-07-22T10:45:27Z</time>
      </trkpt>
      <trkpt lat="47.50389" lon="6.81817">
        <ele>332</ele>
        <time>2017-07-22T10:45:33Z</time>
      </trkpt>
      <trkpt lat="47.50394" lon="6.81753">
        <ele>332</ele>
        <time>2017-07-22T10:45:40Z</time>
      </trkpt>
      <trkpt lat="47.504" lon="6.81685">
        <ele>332</ele>
        <time>2017-07-22T10:45:47Z</time>
      </trkpt>
      <trkpt lat="47.50404" lon="6.81627">
        <ele>331.79998779297</ele>
        <time>2017-07-22T10:45:53Z</time>
      </trkpt>
      <trkpt lat="47.50404" lon="6.81618">
        <ele>331.79998779297</ele>
        <time>2017-07-22T10:45:54Z</time>
      </trkpt>
      <trkpt lat="47.50409" lon="6.81543">
        <ele>331.79998779297</ele>
        <time>2017-07-22T10:46:02Z</time>
      </trkpt>
      <trkpt lat="47.50412" lon="6.81464">
        <ele>331.60000610352</ele>
        <time>2017-07-22T10:46:10Z</time>
      </trkpt>
      <trkpt lat="47.50413" lon="6.81409">
        <ele>332</ele>
        <time>2017-07-22T10:46:15Z</time>
      </trkpt>
      <trkpt lat="47.50414" lon="6.81398">
        <ele>332</ele>
        <time>2017-07-22T10:46:16Z</time>
      </trkpt>
      <trkpt lat="47.50416" lon="6.81368">
        <ele>332</ele>
        <time>2017-07-22T10:46:19Z</time>
      </trkpt>
      <trkpt lat="47.50419" lon="6.81303">
        <ele>332</ele>
        <time>2017-07-22T10:46:26Z</time>
      </trkpt>
      <trkpt lat="47.50423" lon="6.81249">
        <ele>332.20001220703</ele>
        <time>2017-07-22T10:46:32Z</time>
      </trkpt>
      <trkpt lat="47.50425" lon="6.81241">
        <ele>332.20001220703</ele>
        <time>2017-07-22T10:46:33Z</time>
      </trkpt>
      <trkpt lat="47.50436" lon="6.81191">
        <ele>332.60000610352</ele>
        <time>2017-07-22T10:46:39Z</time>
      </trkpt>
      <trkpt lat="47.5044" lon="6.81139">
        <ele>332.20001220703</ele>
        <time>2017-07-22T10:46:45Z</time>
      </trkpt>
      <trkpt lat="47.5044" lon="6.81131">
        <ele>332</ele>
        <time>2017-07-22T10:46:46Z</time>
      </trkpt>
      <trkpt lat="47.50442" lon="6.81094">
        <ele>331.79998779297</ele>
        <time>2017-07-22T10:46:50Z</time>
      </trkpt>
      <trkpt lat="47.50443" lon="6.81047">
        <ele>331.60000610352</ele>
        <time>2017-07-22T10:46:55Z</time>
      </trkpt>
      <trkpt lat="47.50446" lon="6.80991">
        <ele>331.39999389648</ele>
        <time>2017-07-22T10:47:01Z</time>
      </trkpt>
      <trkpt lat="47.5045" lon="6.80927">
        <ele>331.60000610352</ele>
        <time>2017-07-22T10:47:08Z</time>
      </trkpt>
      <trkpt lat="47.50452" lon="6.80855">
        <ele>331.60000610352</ele>
        <time>2017-07-22T10:47:16Z</time>
      </trkpt>
      <trkpt lat="47.50448" lon="6.80815">
        <ele>331.79998779297</ele>
        <time>2017-07-22T10:47:21Z</time>
      </trkpt>
      <trkpt lat="47.50453" lon="6.80781">
        <ele>332.39999389648</ele>
        <time>2017-07-22T10:47:25Z</time>
      </trkpt>
      <trkpt lat="47.50459" lon="6.80722">
        <ele>331.79998779297</ele>
        <time>2017-07-22T10:47:31Z</time>
      </trkpt>
      <trkpt lat="47.50462" lon="6.80639">
        <ele>331.39999389648</ele>
        <time>2017-07-22T10:47:40Z</time>
      </trkpt>
      <trkpt lat="47.50462" lon="6.8063">
        <ele>331.39999389648</ele>
        <time>2017-07-22T10:47:41Z</time>
      </trkpt>
      <trkpt lat="47.50465" lon="6.80577">
        <ele>331.39999389648</ele>
        <time>2017-07-22T10:47:47Z</time>
      </trkpt>
      <trkpt lat="47.50466" lon="6.80569">
        <ele>331.39999389648</ele>
        <time>2017-07-22T10:47:48Z</time>
      </trkpt>
      <trkpt lat="47.50469" lon="6.80517">
        <ele>331.39999389648</ele>
        <time>2017-07-22T10:47:54Z</time>
      </trkpt>
      <trkpt lat="47.5047" lon="6.80475">
        <ele>331.20001220703</ele>
        <time>2017-07-22T10:47:59Z</time>
      </trkpt>
      <trkpt lat="47.50469" lon="6.80468">
        <ele>331.20001220703</ele>
        <time>2017-07-22T10:48:00Z</time>
      </trkpt>
      <trkpt lat="47.50465" lon="6.8044">
        <ele>331.39999389648</ele>
        <time>2017-07-22T10:48:05Z</time>
      </trkpt>
      <trkpt lat="47.50462" lon="6.80431">
        <ele>332</ele>
        <time>2017-07-22T10:48:09Z</time>
      </trkpt>
      <trkpt lat="47.50453" lon="6.80423">
        <ele>332.39999389648</ele>
        <time>2017-07-22T10:48:15Z</time>
      </trkpt>
      <trkpt lat="47.50445" lon="6.80424">
        <ele>332.79998779297</ele>
        <time>2017-07-22T10:48:21Z</time>
      </trkpt>
      <trkpt lat="47.50444" lon="6.80424">
        <ele>333</ele>
        <time>2017-07-22T10:48:22Z</time>
      </trkpt>
      <trkpt lat="47.50437" lon="6.80436">
        <ele>333.39999389648</ele>
        <time>2017-07-22T10:48:27Z</time>
      </trkpt>
      <trkpt lat="47.50438" lon="6.80444">
        <ele>333.60000610352</ele>
        <time>2017-07-22T10:48:29Z</time>
      </trkpt>
      <trkpt lat="47.5044" lon="6.80451">
        <ele>333.79998779297</ele>
        <time>2017-07-22T10:48:31Z</time>
      </trkpt>
      <trkpt lat="47.50452" lon="6.80457">
        <ele>334.39999389648</ele>
        <time>2017-07-22T10:48:36Z</time>
      </trkpt>
      <trkpt lat="47.50455" lon="6.80456">
        <ele>334.60000610352</ele>
        <time>2017-07-22T10:48:37Z</time>
      </trkpt>
      <trkpt lat="47.50461" lon="6.80454">
        <ele>335</ele>
        <time>2017-07-22T10:48:39Z</time>
      </trkpt>
      <trkpt lat="47.50473" lon="6.80456">
        <ele>335.60000610352</ele>
        <time>2017-07-22T10:48:43Z</time>
      </trkpt>
      <trkpt lat="47.50491" lon="6.80457">
        <ele>335.79998779297</ele>
        <time>2017-07-22T10:48:49Z</time>
      </trkpt>
      <trkpt lat="47.50509" lon="6.80457">
        <ele>335.60000610352</ele>
        <time>2017-07-22T10:48:54Z</time>
      </trkpt>
      <trkpt lat="47.50533" lon="6.80461">
        <ele>334.60000610352</ele>
        <time>2017-07-22T10:49:00Z</time>
      </trkpt>
      <trkpt lat="47.50535" lon="6.80461">
        <ele>334</ele>
        <time>2017-07-22T10:49:18Z</time>
      </trkpt>
      <trkpt lat="47.50547" lon="6.80461">
        <ele>334.39999389648</ele>
        <time>2017-07-22T10:49:23Z</time>
      </trkpt>
      <trkpt lat="47.50569" lon="6.80462">
        <ele>335</ele>
        <time>2017-07-22T10:49:30Z</time>
      </trkpt>
      <trkpt lat="47.50573" lon="6.80464">
        <ele>335</ele>
        <time>2017-07-22T10:49:31Z</time>
      </trkpt>
      <trkpt lat="47.50582" lon="6.80468">
        <ele>335</ele>
        <time>2017-07-22T10:49:34Z</time>
      </trkpt>
      <trkpt lat="47.50586" lon="6.80453">
        <ele>334.79998779297</ele>
        <time>2017-07-22T10:49:37Z</time>
      </trkpt>
      <trkpt lat="47.50586" lon="6.80447">
        <ele>334.60000610352</ele>
        <time>2017-07-22T10:49:38Z</time>
      </trkpt>
      <trkpt lat="47.50588" lon="6.80444">
        <ele>334.20001220703</ele>
        <time>2017-07-22T10:49:39Z</time>
      </trkpt>
      <trkpt lat="47.5059" lon="6.80441">
        <ele>333.79998779297</ele>
        <time>2017-07-22T10:49:40Z</time>
      </trkpt>
      <trkpt lat="47.50593" lon="6.80439">
        <ele>333.60000610352</ele>
        <time>2017-07-22T10:49:41Z</time>
      </trkpt>
      <trkpt lat="47.50603" lon="6.80427">
        <ele>332.79998779297</ele>
        <time>2017-07-22T10:49:44Z</time>
      </trkpt>
      <trkpt lat="47.50611" lon="6.80417">
        <ele>332.20001220703</ele>
        <time>2017-07-22T10:49:46Z</time>
      </trkpt>
      <trkpt lat="47.50614" lon="6.80412">
        <ele>331.79998779297</ele>
        <time>2017-07-22T10:49:47Z</time>
      </trkpt>
      <trkpt lat="47.50616" lon="6.80405">
        <ele>331.60000610352</ele>
        <time>2017-07-22T10:49:48Z</time>
      </trkpt>
      <trkpt lat="47.50619" lon="6.80391">
        <ele>331.20001220703</ele>
        <time>2017-07-22T10:49:50Z</time>
      </trkpt>
      <trkpt lat="47.50624" lon="6.8037">
        <ele>330.60000610352</ele>
        <time>2017-07-22T10:49:53Z</time>
      </trkpt>
      <trkpt lat="47.50632" lon="6.80343">
        <ele>330.39999389648</ele>
        <time>2017-07-22T10:49:57Z</time>
      </trkpt>
      <trkpt lat="47.50635" lon="6.80328">
        <ele>330.39999389648</ele>
        <time>2017-07-22T10:49:59Z</time>
      </trkpt>
      <trkpt lat="47.50635" lon="6.80306">
        <ele>330.39999389648</ele>
        <time>2017-07-22T10:50:02Z</time>
      </trkpt>
      <trkpt lat="47.50635" lon="6.80283">
        <ele>330.20001220703</ele>
        <time>2017-07-22T10:50:05Z</time>
      </trkpt>
      <trkpt lat="47.5063" lon="6.80269">
        <ele>330</ele>
        <time>2017-07-22T10:50:07Z</time>
      </trkpt>
      <trkpt lat="47.50625" lon="6.80258">
        <ele>330</ele>
        <time>2017-07-22T10:50:09Z</time>
      </trkpt>
      <trkpt lat="47.50614" lon="6.80242">
        <ele>330.20001220703</ele>
        <time>2017-07-22T10:50:12Z</time>
      </trkpt>
      <trkpt lat="47.50613" lon="6.80222">
        <ele>330.20001220703</ele>
        <time>2017-07-22T10:50:15Z</time>
      </trkpt>
      <trkpt lat="47.50613" lon="6.80215">
        <ele>330.39999389648</ele>
        <time>2017-07-22T10:50:16Z</time>
      </trkpt>
      <trkpt lat="47.50616" lon="6.80187">
        <ele>330.39999389648</ele>
        <time>2017-07-22T10:50:20Z</time>
      </trkpt>
      <trkpt lat="47.50628" lon="6.8018">
        <ele>330.60000610352</ele>
        <time>2017-07-22T10:50:23Z</time>
      </trkpt>
      <trkpt lat="47.50632" lon="6.80178">
        <ele>330.60000610352</ele>
        <time>2017-07-22T10:50:24Z</time>
      </trkpt>
      <trkpt lat="47.50651" lon="6.8017">
        <ele>331</ele>
        <time>2017-07-22T10:50:29Z</time>
      </trkpt>
      <trkpt lat="47.50671" lon="6.80161">
        <ele>331.39999389648</ele>
        <time>2017-07-22T10:50:35Z</time>
      </trkpt>
      <trkpt lat="47.50673" lon="6.80157">
        <ele>331.39999389648</ele>
        <time>2017-07-22T10:50:37Z</time>
      </trkpt>
      <trkpt lat="47.50675" lon="6.80154">
        <ele>331.20001220703</ele>
        <time>2017-07-22T10:50:39Z</time>
      </trkpt>
      <trkpt lat="47.50677" lon="6.80161">
        <ele>330.79998779297</ele>
        <time>2017-07-22T10:50:42Z</time>
      </trkpt>
      <trkpt lat="47.5068" lon="6.80158">
        <ele>330.39999389648</ele>
        <time>2017-07-22T10:50:45Z</time>
      </trkpt>
      <trkpt lat="47.50684" lon="6.80148">
        <ele>330.20001220703</ele>
        <time>2017-07-22T10:50:49Z</time>
      </trkpt>
      <trkpt lat="47.50691" lon="6.80126">
        <ele>329.60000610352</ele>
        <time>2017-07-22T10:50:53Z</time>
      </trkpt>
      <trkpt lat="47.50694" lon="6.8012">
        <ele>329.60000610352</ele>
        <time>2017-07-22T10:50:54Z</time>
      </trkpt>
      <trkpt lat="47.50696" lon="6.80114">
        <ele>329.39999389648</ele>
        <time>2017-07-22T10:50:55Z</time>
      </trkpt>
      <trkpt lat="47.507" lon="6.80093">
        <ele>329.20001220703</ele>
        <time>2017-07-22T10:50:58Z</time>
      </trkpt>
      <trkpt lat="47.50707" lon="6.8005">
        <ele>329.20001220703</ele>
        <time>2017-07-22T10:51:04Z</time>
      </trkpt>
      <trkpt lat="47.50709" lon="6.80036">
        <ele>329.39999389648</ele>
        <time>2017-07-22T10:51:06Z</time>
      </trkpt>
      <trkpt lat="47.50712" lon="6.80017">
        <ele>329.39999389648</ele>
        <time>2017-07-22T10:51:09Z</time>
      </trkpt>
      <trkpt lat="47.50713" lon="6.80004">
        <ele>329.39999389648</ele>
        <time>2017-07-22T10:51:11Z</time>
      </trkpt>
      <trkpt lat="47.50713" lon="6.79963">
        <ele>329.39999389648</ele>
        <time>2017-07-22T10:51:17Z</time>
      </trkpt>
      <trkpt lat="47.50714" lon="6.79957">
        <ele>329.39999389648</ele>
        <time>2017-07-22T10:51:18Z</time>
      </trkpt>
      <trkpt lat="47.50723" lon="6.79943">
        <ele>329.60000610352</ele>
        <time>2017-07-22T10:51:21Z</time>
      </trkpt>
      <trkpt lat="47.50727" lon="6.79939">
        <ele>329.60000610352</ele>
        <time>2017-07-22T10:51:22Z</time>
      </trkpt>
      <trkpt lat="47.50735" lon="6.79933">
        <ele>329.60000610352</ele>
        <time>2017-07-22T10:51:25Z</time>
      </trkpt>
      <trkpt lat="47.5074" lon="6.79936">
        <ele>329.39999389648</ele>
        <time>2017-07-22T10:51:43Z</time>
      </trkpt>
      <trkpt lat="47.50742" lon="6.79938">
        <ele>329.39999389648</ele>
        <time>2017-07-22T10:51:44Z</time>
      </trkpt>
      <trkpt lat="47.50752" lon="6.79955">
        <ele>329.39999389648</ele>
        <time>2017-07-22T10:51:48Z</time>
      </trkpt>
      <trkpt lat="47.50754" lon="6.79962">
        <ele>329.39999389648</ele>
        <time>2017-07-22T10:51:49Z</time>
      </trkpt>
      <trkpt lat="47.50759" lon="6.79974">
        <ele>329.20001220703</ele>
        <time>2017-07-22T10:51:51Z</time>
      </trkpt>
      <trkpt lat="47.5077" lon="6.79997">
        <ele>329.39999389648</ele>
        <time>2017-07-22T10:51:55Z</time>
      </trkpt>
      <trkpt lat="47.50792" lon="6.8004">
        <ele>329.60000610352</ele>
        <time>2017-07-22T10:52:03Z</time>
      </trkpt>
      <trkpt lat="47.50813" lon="6.80077">
        <ele>329.79998779297</ele>
        <time>2017-07-22T10:52:10Z</time>
      </trkpt>
      <trkpt lat="47.50816" lon="6.80081">
        <ele>330</ele>
        <time>2017-07-22T10:52:11Z</time>
      </trkpt>
      <trkpt lat="47.50826" lon="6.80084">
        <ele>330</ele>
        <time>2017-07-22T10:52:14Z</time>
      </trkpt>
      <trkpt lat="47.50836" lon="6.80069">
        <ele>330.20001220703</ele>
        <time>2017-07-22T10:52:18Z</time>
      </trkpt>
      <trkpt lat="47.50847" lon="6.8005">
        <ele>330.39999389648</ele>
        <time>2017-07-22T10:52:22Z</time>
      </trkpt>
      <trkpt lat="47.5085" lon="6.80045">
        <ele>330.39999389648</ele>
        <time>2017-07-22T10:52:23Z</time>
      </trkpt>
      <trkpt lat="47.50856" lon="6.80036">
        <ele>330.60000610352</ele>
        <time>2017-07-22T10:52:25Z</time>
      </trkpt>
      <trkpt lat="47.5086" lon="6.80028">
        <ele>330.79998779297</ele>
        <time>2017-07-22T10:52:27Z</time>
      </trkpt>
      <trkpt lat="47.50862" lon="6.80021">
        <ele>330.79998779297</ele>
        <time>2017-07-22T10:52:29Z</time>
      </trkpt>
      <trkpt lat="47.50862" lon="6.80015">
        <ele>330.79998779297</ele>
        <time>2017-07-22T10:52:31Z</time>
      </trkpt>
      <trkpt lat="47.50859" lon="6.80003">
        <ele>331</ele>
        <time>2017-07-22T10:52:34Z</time>
      </trkpt>
      <trkpt lat="47.50857" lon="6.79998">
        <ele>331</ele>
        <time>2017-07-22T10:52:35Z</time>
      </trkpt>
      <trkpt lat="47.50846" lon="6.79962">
        <ele>331.20001220703</ele>
        <time>2017-07-22T10:52:41Z</time>
      </trkpt>
      <trkpt lat="47.50831" lon="6.7991">
        <ele>331.39999389648</ele>
        <time>2017-07-22T10:52:49Z</time>
      </trkpt>
      <trkpt lat="47.50823" lon="6.79871">
        <ele>331.39999389648</ele>
        <time>2017-07-22T10:52:55Z</time>
      </trkpt>
      <trkpt lat="47.50822" lon="6.79865">
        <ele>331.60000610352</ele>
        <time>2017-07-22T10:52:56Z</time>
      </trkpt>
      <trkpt lat="47.50819" lon="6.7983">
        <ele>331.60000610352</ele>
        <time>2017-07-22T10:53:01Z</time>
      </trkpt>
      <trkpt lat="47.5082" lon="6.79796">
        <ele>331.20001220703</ele>
        <time>2017-07-22T10:53:07Z</time>
      </trkpt>
      <trkpt lat="47.5082" lon="6.79779">
        <ele>330.60000610352</ele>
        <time>2017-07-22T10:53:11Z</time>
      </trkpt>
      <trkpt lat="47.5082" lon="6.79768">
        <ele>330.60000610352</ele>
        <time>2017-07-22T10:53:13Z</time>
      </trkpt>
      <trkpt lat="47.50824" lon="6.7976">
        <ele>330.39999389648</ele>
        <time>2017-07-22T10:53:15Z</time>
      </trkpt>
      <trkpt lat="47.50845" lon="6.79725">
        <ele>330.39999389648</ele>
        <time>2017-07-22T10:53:23Z</time>
      </trkpt>
      <trkpt lat="47.50866" lon="6.79709">
        <ele>330.60000610352</ele>
        <time>2017-07-22T10:53:29Z</time>
      </trkpt>
      <trkpt lat="47.50871" lon="6.79699">
        <ele>330.20001220703</ele>
        <time>2017-07-22T10:53:32Z</time>
      </trkpt>
      <trkpt lat="47.50867" lon="6.79691">
        <ele>330</ele>
        <time>2017-07-22T10:53:34Z</time>
      </trkpt>
      <trkpt lat="47.50864" lon="6.7968">
        <ele>330</ele>
        <time>2017-07-22T10:53:36Z</time>
      </trkpt>
      <trkpt lat="47.50858" lon="6.79667">
        <ele>330</ele>
        <time>2017-07-22T10:53:38Z</time>
      </trkpt>
      <trkpt lat="47.50848" lon="6.79646">
        <ele>329.79998779297</ele>
        <time>2017-07-22T10:53:41Z</time>
      </trkpt>
      <trkpt lat="47.50839" lon="6.79626">
        <ele>329.39999389648</ele>
        <time>2017-07-22T10:53:44Z</time>
      </trkpt>
      <trkpt lat="47.50833" lon="6.79615">
        <ele>329.39999389648</ele>
        <time>2017-07-22T10:53:46Z</time>
      </trkpt>
      <trkpt lat="47.50832" lon="6.79609">
        <ele>329.39999389648</ele>
        <time>2017-07-22T10:53:47Z</time>
      </trkpt>
      <trkpt lat="47.50834" lon="6.79593">
        <ele>329.39999389648</ele>
        <time>2017-07-22T10:53:50Z</time>
      </trkpt>
      <trkpt lat="47.50845" lon="6.79581">
        <ele>330</ele>
        <time>2017-07-22T10:53:54Z</time>
      </trkpt>
      <trkpt lat="47.50848" lon="6.79579">
        <ele>330</ele>
        <time>2017-07-22T10:53:55Z</time>
      </trkpt>
      <trkpt lat="47.50862" lon="6.79573">
        <ele>330.20001220703</ele>
        <time>2017-07-22T10:53:59Z</time>
      </trkpt>
      <trkpt lat="47.50866" lon="6.79575">
        <ele>330.20001220703</ele>
        <time>2017-07-22T10:54:01Z</time>
      </trkpt>
      <trkpt lat="47.50867" lon="6.79575">
        <ele>330</ele>
        <time>2017-07-22T10:54:02Z</time>
      </trkpt>
      <trkpt lat="47.50871" lon="6.79568">
        <ele>329.79998779297</ele>
        <time>2017-07-22T10:54:06Z</time>
      </trkpt>
      <trkpt lat="47.50875" lon="6.79567">
        <ele>329.79998779297</ele>
        <time>2017-07-22T10:54:16Z</time>
      </trkpt>
      <trkpt lat="47.50877" lon="6.79566">
        <ele>329.79998779297</ele>
        <time>2017-07-22T10:54:17Z</time>
      </trkpt>
      <trkpt lat="47.50889" lon="6.79561">
        <ele>329.60000610352</ele>
        <time>2017-07-22T10:54:22Z</time>
      </trkpt>
      <trkpt lat="47.509" lon="6.79561">
        <ele>329.60000610352</ele>
        <time>2017-07-22T10:54:26Z</time>
      </trkpt>
      <trkpt lat="47.50904" lon="6.79566">
        <ele>329.39999389648</ele>
        <time>2017-07-22T10:54:28Z</time>
      </trkpt>
      <trkpt lat="47.50907" lon="6.79573">
        <ele>329.20001220703</ele>
        <time>2017-07-22T10:54:30Z</time>
      </trkpt>
      <trkpt lat="47.50911" lon="6.79584">
        <ele>329.20001220703</ele>
        <time>2017-07-22T10:54:34Z</time>
      </trkpt>
      <trkpt lat="47.50911" lon="6.79591">
        <ele>329.20001220703</ele>
        <time>2017-07-22T10:54:38Z</time>
      </trkpt>
      <trkpt lat="47.50917" lon="6.79594">
        <ele>300.20001220703</ele>
        <time>2017-07-22T11:22:27Z</time>
      </trkpt>
      <trkpt lat="47.50916" lon="6.79591">
        <ele>300.20001220703</ele>
        <time>2017-07-22T11:22:30Z</time>
      </trkpt>
      <trkpt lat="47.50916" lon="6.79585">
        <ele>300.39999389648</ele>
        <time>2017-07-22T11:22:33Z</time>
      </trkpt>
      <trkpt lat="47.50913" lon="6.79571">
        <ele>300.39999389648</ele>
        <time>2017-07-22T11:22:37Z</time>
      </trkpt>
      <trkpt lat="47.50911" lon="6.79564">
        <ele>300.39999389648</ele>
        <time>2017-07-22T11:22:39Z</time>
      </trkpt>
      <trkpt lat="47.50908" lon="6.79559">
        <ele>300.39999389648</ele>
        <time>2017-07-22T11:22:41Z</time>
      </trkpt>
      <trkpt lat="47.50903" lon="6.7956">
        <ele>300.60000610352</ele>
        <time>2017-07-22T11:22:43Z</time>
      </trkpt>
      <trkpt lat="47.50898" lon="6.79563">
        <ele>300.60000610352</ele>
        <time>2017-07-22T11:22:45Z</time>
      </trkpt>
      <trkpt lat="47.50888" lon="6.79568">
        <ele>300.39999389648</ele>
        <time>2017-07-22T11:22:49Z</time>
      </trkpt>
      <trkpt lat="47.50874" lon="6.79574">
        <ele>300.79998779297</ele>
        <time>2017-07-22T11:22:55Z</time>
      </trkpt>
      <trkpt lat="47.50873" lon="6.79575">
        <ele>301</ele>
        <time>2017-07-22T11:22:56Z</time>
      </trkpt>
      <trkpt lat="47.50865" lon="6.79578">
        <ele>301</ele>
        <time>2017-07-22T11:23:00Z</time>
      </trkpt>
      <trkpt lat="47.50849" lon="6.79584">
        <ele>301.20001220703</ele>
        <time>2017-07-22T11:23:06Z</time>
      </trkpt>
      <trkpt lat="47.50835" lon="6.79587">
        <ele>301.20001220703</ele>
        <time>2017-07-22T11:23:10Z</time>
      </trkpt>
      <trkpt lat="47.50829" lon="6.79591">
        <ele>301.20001220703</ele>
        <time>2017-07-22T11:23:12Z</time>
      </trkpt>
      <trkpt lat="47.50826" lon="6.79594">
        <ele>301.39999389648</ele>
        <time>2017-07-22T11:23:13Z</time>
      </trkpt>
      <trkpt lat="47.50812" lon="6.79604">
        <ele>301.39999389648</ele>
        <time>2017-07-22T11:23:18Z</time>
      </trkpt>
      <trkpt lat="47.50799" lon="6.79615">
        <ele>301.20001220703</ele>
        <time>2017-07-22T11:23:24Z</time>
      </trkpt>
      <trkpt lat="47.50786" lon="6.79613">
        <ele>301.39999389648</ele>
        <time>2017-07-22T11:23:28Z</time>
      </trkpt>
      <trkpt lat="47.50769" lon="6.79598">
        <ele>301.39999389648</ele>
        <time>2017-07-22T11:23:34Z</time>
      </trkpt>
      <trkpt lat="47.50758" lon="6.796">
        <ele>301.20001220703</ele>
        <time>2017-07-22T11:23:37Z</time>
      </trkpt>
      <trkpt lat="47.50754" lon="6.79603">
        <ele>301.20001220703</ele>
        <time>2017-07-22T11:23:38Z</time>
      </trkpt>
      <trkpt lat="47.50744" lon="6.79613">
        <ele>301</ele>
        <time>2017-07-22T11:23:41Z</time>
      </trkpt>
      <trkpt lat="47.50738" lon="6.79623">
        <ele>301</ele>
        <time>2017-07-22T11:23:43Z</time>
      </trkpt>
      <trkpt lat="47.50728" lon="6.79643">
        <ele>301</ele>
        <time>2017-07-22T11:23:47Z</time>
      </trkpt>
      <trkpt lat="47.50725" lon="6.79655">
        <ele>301</ele>
        <time>2017-07-22T11:23:49Z</time>
      </trkpt>
      <trkpt lat="47.5072" lon="6.79674">
        <ele>301</ele>
        <time>2017-07-22T11:23:52Z</time>
      </trkpt>
      <trkpt lat="47.50718" lon="6.79693">
        <ele>301</ele>
        <time>2017-07-22T11:23:55Z</time>
      </trkpt>
      <trkpt lat="47.50717" lon="6.79743">
        <ele>300.60000610352</ele>
        <time>2017-07-22T11:24:02Z</time>
      </trkpt>
      <trkpt lat="47.50717" lon="6.79757">
        <ele>300.39999389648</ele>
        <time>2017-07-22T11:24:04Z</time>
      </trkpt>
      <trkpt lat="47.50716" lon="6.7977">
        <ele>300.39999389648</ele>
        <time>2017-07-22T11:24:06Z</time>
      </trkpt>
      <trkpt lat="47.50714" lon="6.79776">
        <ele>300.20001220703</ele>
        <time>2017-07-22T11:24:07Z</time>
      </trkpt>
      <trkpt lat="47.50711" lon="6.7978">
        <ele>300.20001220703</ele>
        <time>2017-07-22T11:24:08Z</time>
      </trkpt>
      <trkpt lat="47.50698" lon="6.79782">
        <ele>300.20001220703</ele>
        <time>2017-07-22T11:24:11Z</time>
      </trkpt>
      <trkpt lat="47.50685" lon="6.7977">
        <ele>300.39999389648</ele>
        <time>2017-07-22T11:24:14Z</time>
      </trkpt>
      <trkpt lat="47.50682" lon="6.79766">
        <ele>300.60000610352</ele>
        <time>2017-07-22T11:24:15Z</time>
      </trkpt>
      <trkpt lat="47.50674" lon="6.79758">
        <ele>300.60000610352</ele>
        <time>2017-07-22T11:24:17Z</time>
      </trkpt>
      <trkpt lat="47.50659" lon="6.79741">
        <ele>300.60000610352</ele>
        <time>2017-07-22T11:24:21Z</time>
      </trkpt>
      <trkpt lat="47.5064" lon="6.79719">
        <ele>300.79998779297</ele>
        <time>2017-07-22T11:24:26Z</time>
      </trkpt>
      <trkpt lat="47.50634" lon="6.7971">
        <ele>300.79998779297</ele>
        <time>2017-07-22T11:24:28Z</time>
      </trkpt>
      <trkpt lat="47.50623" lon="6.79696">
        <ele>301</ele>
        <time>2017-07-22T11:24:31Z</time>
      </trkpt>
      <trkpt lat="47.50614" lon="6.79683">
        <ele>301.20001220703</ele>
        <time>2017-07-22T11:24:34Z</time>
      </trkpt>
      <trkpt lat="47.50608" lon="6.79674">
        <ele>301.20001220703</ele>
        <time>2017-07-22T11:24:36Z</time>
      </trkpt>
      <trkpt lat="47.50605" lon="6.79669">
        <ele>301.39999389648</ele>
        <time>2017-07-22T11:24:37Z</time>
      </trkpt>
      <trkpt lat="47.50596" lon="6.7965">
        <ele>301.79998779297</ele>
        <time>2017-07-22T11:24:41Z</time>
      </trkpt>
      <trkpt lat="47.50586" lon="6.79627">
        <ele>302.39999389648</ele>
        <time>2017-07-22T11:24:46Z</time>
      </trkpt>
      <trkpt lat="47.50581" lon="6.79619">
        <ele>302.60000610352</ele>
        <time>2017-07-22T11:24:48Z</time>
      </trkpt>
      <trkpt lat="47.50568" lon="6.79588">
        <ele>302.79998779297</ele>
        <time>2017-07-22T11:24:54Z</time>
      </trkpt>
      <trkpt lat="47.50563" lon="6.79578">
        <ele>302.79998779297</ele>
        <time>2017-07-22T11:24:56Z</time>
      </trkpt>
      <trkpt lat="47.50557" lon="6.79554">
        <ele>302.79998779297</ele>
        <time>2017-07-22T11:25:01Z</time>
      </trkpt>
      <trkpt lat="47.5055" lon="6.79531">
        <ele>303.39999389648</ele>
        <time>2017-07-22T11:25:07Z</time>
      </trkpt>
      <trkpt lat="47.50549" lon="6.79528">
        <ele>303.60000610352</ele>
        <time>2017-07-22T11:25:08Z</time>
      </trkpt>
      <trkpt lat="47.50538" lon="6.79512">
        <ele>304.20001220703</ele>
        <time>2017-07-22T11:25:13Z</time>
      </trkpt>
      <trkpt lat="47.50536" lon="6.7951">
        <ele>304.39999389648</ele>
        <time>2017-07-22T11:25:14Z</time>
      </trkpt>
      <trkpt lat="47.50529" lon="6.79503">
        <ele>304.79998779297</ele>
        <time>2017-07-22T11:25:17Z</time>
      </trkpt>
      <trkpt lat="47.50517" lon="6.79498">
        <ele>305.39999389648</ele>
        <time>2017-07-22T11:25:21Z</time>
      </trkpt>
      <trkpt lat="47.50499" lon="6.79498">
        <ele>305.79998779297</ele>
        <time>2017-07-22T11:25:27Z</time>
      </trkpt>
      <trkpt lat="47.50497" lon="6.79498">
        <ele>306</ele>
        <time>2017-07-22T11:25:28Z</time>
      </trkpt>
      <trkpt lat="47.50494" lon="6.79498">
        <ele>306.39999389648</ele>
        <time>2017-07-22T11:25:31Z</time>
      </trkpt>
      <trkpt lat="47.50492" lon="6.79501">
        <ele>306.60000610352</ele>
        <time>2017-07-22T11:25:33Z</time>
      </trkpt>
      <trkpt lat="47.50497" lon="6.79502">
        <ele>306.79998779297</ele>
        <time>2017-07-22T11:25:36Z</time>
      </trkpt>
      <trkpt lat="47.505" lon="6.79501">
        <ele>306.79998779297</ele>
        <time>2017-07-22T11:25:37Z</time>
      </trkpt>
      <trkpt lat="47.50513" lon="6.79502">
        <ele>307</ele>
        <time>2017-07-22T11:25:41Z</time>
      </trkpt>
      <trkpt lat="47.50523" lon="6.795">
        <ele>306.79998779297</ele>
        <time>2017-07-22T11:25:43Z</time>
      </trkpt>
      <trkpt lat="47.5053" lon="6.79497">
        <ele>306.60000610352</ele>
        <time>2017-07-22T11:25:45Z</time>
      </trkpt>
      <trkpt lat="47.50545" lon="6.79488">
        <ele>306.20001220703</ele>
        <time>2017-07-22T11:25:49Z</time>
      </trkpt>
      <trkpt lat="47.50552" lon="6.7948">
        <ele>305.60000610352</ele>
        <time>2017-07-22T11:25:51Z</time>
      </trkpt>
      <trkpt lat="47.50556" lon="6.79476">
        <ele>305.39999389648</ele>
        <time>2017-07-22T11:25:52Z</time>
      </trkpt>
      <trkpt lat="47.5056" lon="6.79471">
        <ele>305.20001220703</ele>
        <time>2017-07-22T11:25:53Z</time>
      </trkpt>
      <trkpt lat="47.50573" lon="6.79457">
        <ele>304.39999389648</ele>
        <time>2017-07-22T11:25:56Z</time>
      </trkpt>
      <trkpt lat="47.50577" lon="6.79453">
        <ele>304.20001220703</ele>
        <time>2017-07-22T11:25:57Z</time>
      </trkpt>
      <trkpt lat="47.50584" lon="6.79443">
        <ele>303.39999389648</ele>
        <time>2017-07-22T11:26:00Z</time>
      </trkpt>
      <trkpt lat="47.50586" lon="6.79441">
        <ele>303</ele>
        <time>2017-07-22T11:26:01Z</time>
      </trkpt>
      <trkpt lat="47.50587" lon="6.79438">
        <ele>302.20001220703</ele>
        <time>2017-07-22T11:26:03Z</time>
      </trkpt>
      <trkpt lat="47.50588" lon="6.79435">
        <ele>301.60000610352</ele>
        <time>2017-07-22T11:26:06Z</time>
      </trkpt>
      <trkpt lat="47.50587" lon="6.79434">
        <ele>301.20001220703</ele>
        <time>2017-07-22T11:26:08Z</time>
      </trkpt>
      <trkpt lat="47.50584" lon="6.79435">
        <ele>301</ele>
        <time>2017-07-22T11:26:09Z</time>
      </trkpt>
      <trkpt lat="47.50567" lon="6.79447">
        <ele>300.39999389648</ele>
        <time>2017-07-22T11:26:15Z</time>
      </trkpt>
      <trkpt lat="47.50548" lon="6.79462">
        <ele>300.39999389648</ele>
        <time>2017-07-22T11:26:21Z</time>
      </trkpt>
      <trkpt lat="47.50546" lon="6.79463">
        <ele>300.39999389648</ele>
        <time>2017-07-22T11:26:22Z</time>
      </trkpt>
      <trkpt lat="47.50541" lon="6.79463">
        <ele>300.39999389648</ele>
        <time>2017-07-22T11:26:25Z</time>
      </trkpt>
      <trkpt lat="47.50532" lon="6.79469">
        <ele>300.39999389648</ele>
        <time>2017-07-22T11:26:30Z</time>
      </trkpt>
      <trkpt lat="47.50528" lon="6.79472">
        <ele>300.39999389648</ele>
        <time>2017-07-22T11:26:32Z</time>
      </trkpt>
      <trkpt lat="47.50519" lon="6.79475">
        <ele>300.39999389648</ele>
        <time>2017-07-22T11:26:35Z</time>
      </trkpt>
      <trkpt lat="47.50509" lon="6.79466">
        <ele>300.60000610352</ele>
        <time>2017-07-22T11:26:39Z</time>
      </trkpt>
      <trkpt lat="47.50506" lon="6.79463">
        <ele>300.79998779297</ele>
        <time>2017-07-22T11:26:40Z</time>
      </trkpt>
      <trkpt lat="47.50502" lon="6.79456">
        <ele>300.79998779297</ele>
        <time>2017-07-22T11:26:42Z</time>
      </trkpt>
      <trkpt lat="47.50496" lon="6.79451">
        <ele>301</ele>
        <time>2017-07-22T11:26:44Z</time>
      </trkpt>
      <trkpt lat="47.50487" lon="6.79442">
        <ele>301</ele>
        <time>2017-07-22T11:26:47Z</time>
      </trkpt>
      <trkpt lat="47.50486" lon="6.79436">
        <ele>301</ele>
        <time>2017-07-22T11:26:48Z</time>
      </trkpt>
      <trkpt lat="47.50486" lon="6.79418">
        <ele>300.79998779297</ele>
        <time>2017-07-22T11:26:51Z</time>
      </trkpt>
      <trkpt lat="47.50486" lon="6.79412">
        <ele>300.79998779297</ele>
        <time>2017-07-22T11:26:52Z</time>
      </trkpt>
      <trkpt lat="47.50485" lon="6.79406">
        <ele>300.79998779297</ele>
        <time>2017-07-22T11:26:53Z</time>
      </trkpt>
      <trkpt lat="47.50478" lon="6.79366">
        <ele>300.79998779297</ele>
        <time>2017-07-22T11:27:00Z</time>
      </trkpt>
      <trkpt lat="47.50476" lon="6.79354">
        <ele>300.79998779297</ele>
        <time>2017-07-22T11:27:02Z</time>
      </trkpt>
      <trkpt lat="47.50473" lon="6.79329">
        <ele>301</ele>
        <time>2017-07-22T11:27:06Z</time>
      </trkpt>
      <trkpt lat="47.50471" lon="6.79317">
        <ele>301.20001220703</ele>
        <time>2017-07-22T11:27:08Z</time>
      </trkpt>
      <trkpt lat="47.50468" lon="6.79299">
        <ele>301.20001220703</ele>
        <time>2017-07-22T11:27:11Z</time>
      </trkpt>
      <trkpt lat="47.50467" lon="6.79292">
        <ele>301.20001220703</ele>
        <time>2017-07-22T11:27:12Z</time>
      </trkpt>
      <trkpt lat="47.50458" lon="6.7924">
        <ele>301.20001220703</ele>
        <time>2017-07-22T11:27:20Z</time>
      </trkpt>
      <trkpt lat="47.50452" lon="6.79196">
        <ele>301.20001220703</ele>
        <time>2017-07-22T11:27:27Z</time>
      </trkpt>
      <trkpt lat="47.50446" lon="6.79162">
        <ele>301.20001220703</ele>
        <time>2017-07-22T11:27:32Z</time>
      </trkpt>
      <trkpt lat="47.50441" lon="6.7915">
        <ele>301.20001220703</ele>
        <time>2017-07-22T11:27:34Z</time>
      </trkpt>
      <trkpt lat="47.50431" lon="6.79133">
        <ele>301.20001220703</ele>
        <time>2017-07-22T11:27:37Z</time>
      </trkpt>
      <trkpt lat="47.50421" lon="6.79109">
        <ele>301</ele>
        <time>2017-07-22T11:27:41Z</time>
      </trkpt>
      <trkpt lat="47.50419" lon="6.79097">
        <ele>301</ele>
        <time>2017-07-22T11:27:43Z</time>
      </trkpt>
      <trkpt lat="47.50414" lon="6.79051">
        <ele>300.79998779297</ele>
        <time>2017-07-22T11:27:50Z</time>
      </trkpt>
      <trkpt lat="47.50408" lon="6.78999">
        <ele>300.60000610352</ele>
        <time>2017-07-22T11:27:57Z</time>
      </trkpt>
      <trkpt lat="47.50405" lon="6.78947">
        <ele>300.79998779297</ele>
        <time>2017-07-22T11:28:04Z</time>
      </trkpt>
      <trkpt lat="47.50405" lon="6.7894">
        <ele>300.79998779297</ele>
        <time>2017-07-22T11:28:05Z</time>
      </trkpt>
      <trkpt lat="47.50404" lon="6.7891">
        <ele>300.79998779297</ele>
        <time>2017-07-22T11:28:09Z</time>
      </trkpt>
      <trkpt lat="47.50405" lon="6.78856">
        <ele>300.60000610352</ele>
        <time>2017-07-22T11:28:16Z</time>
      </trkpt>
      <trkpt lat="47.50407" lon="6.78827">
        <ele>300.60000610352</ele>
        <time>2017-07-22T11:28:20Z</time>
      </trkpt>
      <trkpt lat="47.50409" lon="6.78805">
        <ele>300.39999389648</ele>
        <time>2017-07-22T11:28:23Z</time>
      </trkpt>
      <trkpt lat="47.50414" lon="6.7875">
        <ele>300.39999389648</ele>
        <time>2017-07-22T11:28:30Z</time>
      </trkpt>
      <trkpt lat="47.50418" lon="6.7873">
        <ele>300.39999389648</ele>
        <time>2017-07-22T11:28:33Z</time>
      </trkpt>
      <trkpt lat="47.50421" lon="6.78716">
        <ele>300.39999389648</ele>
        <time>2017-07-22T11:28:35Z</time>
      </trkpt>
      <trkpt lat="47.50431" lon="6.78663">
        <ele>300.20001220703</ele>
        <time>2017-07-22T11:28:42Z</time>
      </trkpt>
      <trkpt lat="47.50433" lon="6.78656">
        <ele>300.20001220703</ele>
        <time>2017-07-22T11:28:43Z</time>
      </trkpt>
      <trkpt lat="47.50443" lon="6.78613">
        <ele>300.39999389648</ele>
        <time>2017-07-22T11:28:49Z</time>
      </trkpt>
      <trkpt lat="47.50456" lon="6.78553">
        <ele>300.39999389648</ele>
        <time>2017-07-22T11:28:57Z</time>
      </trkpt>
      <trkpt lat="47.50461" lon="6.7853">
        <ele>300.39999389648</ele>
        <time>2017-07-22T11:29:00Z</time>
      </trkpt>
      <trkpt lat="47.50466" lon="6.78508">
        <ele>300.39999389648</ele>
        <time>2017-07-22T11:29:03Z</time>
      </trkpt>
      <trkpt lat="47.5048" lon="6.78446">
        <ele>300.20001220703</ele>
        <time>2017-07-22T11:29:11Z</time>
      </trkpt>
      <trkpt lat="47.50485" lon="6.78421">
        <ele>300</ele>
        <time>2017-07-22T11:29:14Z</time>
      </trkpt>
      <trkpt lat="47.50492" lon="6.78387">
        <ele>299.60000610352</ele>
        <time>2017-07-22T11:29:18Z</time>
      </trkpt>
      <trkpt lat="47.50504" lon="6.78318">
        <ele>299.39999389648</ele>
        <time>2017-07-22T11:29:26Z</time>
      </trkpt>
      <trkpt lat="47.50512" lon="6.78266">
        <ele>299</ele>
        <time>2017-07-22T11:29:32Z</time>
      </trkpt>
      <trkpt lat="47.50514" lon="6.78257">
        <ele>299</ele>
        <time>2017-07-22T11:29:33Z</time>
      </trkpt>
      <trkpt lat="47.50521" lon="6.78224">
        <ele>298.79998779297</ele>
        <time>2017-07-22T11:29:37Z</time>
      </trkpt>
      <trkpt lat="47.50534" lon="6.78159">
        <ele>298.79998779297</ele>
        <time>2017-07-22T11:29:45Z</time>
      </trkpt>
      <trkpt lat="47.5054" lon="6.78127">
        <ele>298.79998779297</ele>
        <time>2017-07-22T11:29:49Z</time>
      </trkpt>
      <trkpt lat="47.50542" lon="6.78111">
        <ele>298.79998779297</ele>
        <time>2017-07-22T11:29:51Z</time>
      </trkpt>
      <trkpt lat="47.50548" lon="6.78074">
        <ele>299</ele>
        <time>2017-07-22T11:29:56Z</time>
      </trkpt>
      <trkpt lat="47.50549" lon="6.78058">
        <ele>299</ele>
        <time>2017-07-22T11:29:58Z</time>
      </trkpt>
      <trkpt lat="47.50549" lon="6.78011">
        <ele>299</ele>
        <time>2017-07-22T11:30:04Z</time>
      </trkpt>
      <trkpt lat="47.50544" lon="6.77977">
        <ele>299</ele>
        <time>2017-07-22T11:30:09Z</time>
      </trkpt>
      <trkpt lat="47.50534" lon="6.77936">
        <ele>299.20001220703</ele>
        <time>2017-07-22T11:30:15Z</time>
      </trkpt>
      <trkpt lat="47.50525" lon="6.7789">
        <ele>299.20001220703</ele>
        <time>2017-07-22T11:30:21Z</time>
      </trkpt>
      <trkpt lat="47.50513" lon="6.77845">
        <ele>299</ele>
        <time>2017-07-22T11:30:27Z</time>
      </trkpt>
      <trkpt lat="47.50501" lon="6.77801">
        <ele>298.79998779297</ele>
        <time>2017-07-22T11:30:33Z</time>
      </trkpt>
      <trkpt lat="47.50498" lon="6.77786">
        <ele>298.60000610352</ele>
        <time>2017-07-22T11:30:35Z</time>
      </trkpt>
      <trkpt lat="47.50479" lon="6.77728">
        <ele>298.60000610352</ele>
        <time>2017-07-22T11:30:43Z</time>
      </trkpt>
      <trkpt lat="47.50474" lon="6.77714">
        <ele>298.60000610352</ele>
        <time>2017-07-22T11:30:45Z</time>
      </trkpt>
      <trkpt lat="47.50466" lon="6.77693">
        <ele>298.60000610352</ele>
        <time>2017-07-22T11:30:48Z</time>
      </trkpt>
      <trkpt lat="47.50463" lon="6.77687">
        <ele>298.39999389648</ele>
        <time>2017-07-22T11:30:49Z</time>
      </trkpt>
      <trkpt lat="47.50455" lon="6.77668">
        <ele>298.20001220703</ele>
        <time>2017-07-22T11:30:53Z</time>
      </trkpt>
      <trkpt lat="47.50453" lon="6.77659">
        <ele>298</ele>
        <time>2017-07-22T11:32:57Z</time>
      </trkpt>
      <trkpt lat="47.50446" lon="6.77646">
        <ele>298</ele>
        <time>2017-07-22T11:33:02Z</time>
      </trkpt>
      <trkpt lat="47.50435" lon="6.77627">
        <ele>298</ele>
        <time>2017-07-22T11:33:07Z</time>
      </trkpt>
      <trkpt lat="47.50432" lon="6.77622">
        <ele>298</ele>
        <time>2017-07-22T11:33:08Z</time>
      </trkpt>
      <trkpt lat="47.50417" lon="6.776">
        <ele>298.39999389648</ele>
        <time>2017-07-22T11:33:13Z</time>
      </trkpt>
      <trkpt lat="47.50406" lon="6.77587">
        <ele>298.39999389648</ele>
        <time>2017-07-22T11:33:16Z</time>
      </trkpt>
      <trkpt lat="47.50395" lon="6.77573">
        <ele>298.39999389648</ele>
        <time>2017-07-22T11:33:19Z</time>
      </trkpt>
      <trkpt lat="47.50383" lon="6.77559">
        <ele>298.39999389648</ele>
        <time>2017-07-22T11:33:22Z</time>
      </trkpt>
      <trkpt lat="47.50375" lon="6.77555">
        <ele>298.39999389648</ele>
        <time>2017-07-22T11:33:24Z</time>
      </trkpt>
      <trkpt lat="47.50361" lon="6.7755">
        <ele>298.39999389648</ele>
        <time>2017-07-22T11:33:27Z</time>
      </trkpt>
      <trkpt lat="47.50348" lon="6.77539">
        <ele>298.60000610352</ele>
        <time>2017-07-22T11:33:30Z</time>
      </trkpt>
      <trkpt lat="47.50344" lon="6.77535">
        <ele>298.60000610352</ele>
        <time>2017-07-22T11:33:31Z</time>
      </trkpt>
      <trkpt lat="47.50318" lon="6.7751">
        <ele>298.39999389648</ele>
        <time>2017-07-22T11:33:36Z</time>
      </trkpt>
      <trkpt lat="47.5027" lon="6.77466">
        <ele>297.20001220703</ele>
        <time>2017-07-22T11:33:45Z</time>
      </trkpt>
      <trkpt lat="47.50245" lon="6.77443">
        <ele>297.20001220703</ele>
        <time>2017-07-22T11:33:50Z</time>
      </trkpt>
      <trkpt lat="47.50237" lon="6.7743">
        <ele>297.20001220703</ele>
        <time>2017-07-22T11:33:52Z</time>
      </trkpt>
      <trkpt lat="47.50218" lon="6.77411">
        <ele>297</ele>
        <time>2017-07-22T11:33:56Z</time>
      </trkpt>
      <trkpt lat="47.50214" lon="6.77408">
        <ele>297</ele>
        <time>2017-07-22T11:33:57Z</time>
      </trkpt>
      <trkpt lat="47.50204" lon="6.77402">
        <ele>296.79998779297</ele>
        <time>2017-07-22T11:33:59Z</time>
      </trkpt>
      <trkpt lat="47.50189" lon="6.77393">
        <ele>296.79998779297</ele>
        <time>2017-07-22T11:34:02Z</time>
      </trkpt>
      <trkpt lat="47.50179" lon="6.77387">
        <ele>296.79998779297</ele>
        <time>2017-07-22T11:34:04Z</time>
      </trkpt>
      <trkpt lat="47.50164" lon="6.77378">
        <ele>296.79998779297</ele>
        <time>2017-07-22T11:34:07Z</time>
      </trkpt>
      <trkpt lat="47.50143" lon="6.77369">
        <ele>297</ele>
        <time>2017-07-22T11:34:11Z</time>
      </trkpt>
      <trkpt lat="47.50127" lon="6.77371">
        <ele>297.20001220703</ele>
        <time>2017-07-22T11:34:14Z</time>
      </trkpt>
      <trkpt lat="47.50123" lon="6.77372">
        <ele>297.20001220703</ele>
        <time>2017-07-22T11:34:15Z</time>
      </trkpt>
      <trkpt lat="47.50116" lon="6.7737">
        <ele>297.79998779297</ele>
        <time>2017-07-22T11:34:19Z</time>
      </trkpt>
      <trkpt lat="47.50115" lon="6.77369">
        <ele>298</ele>
        <time>2017-07-22T11:34:20Z</time>
      </trkpt>
      <trkpt lat="47.50113" lon="6.77368">
        <ele>298.60000610352</ele>
        <time>2017-07-22T11:34:33Z</time>
      </trkpt>
      <trkpt lat="47.50101" lon="6.77376">
        <ele>298.39999389648</ele>
        <time>2017-07-22T11:34:37Z</time>
      </trkpt>
      <trkpt lat="47.50097" lon="6.77377">
        <ele>298.39999389648</ele>
        <time>2017-07-22T11:34:38Z</time>
      </trkpt>
      <trkpt lat="47.50071" lon="6.77385">
        <ele>298</ele>
        <time>2017-07-22T11:34:44Z</time>
      </trkpt>
      <trkpt lat="47.50062" lon="6.77376">
        <ele>298</ele>
        <time>2017-07-22T11:34:47Z</time>
      </trkpt>
      <trkpt lat="47.50054" lon="6.77363">
        <ele>298.20001220703</ele>
        <time>2017-07-22T11:34:50Z</time>
      </trkpt>
      <trkpt lat="47.50048" lon="6.77356">
        <ele>298.20001220703</ele>
        <time>2017-07-22T11:34:52Z</time>
      </trkpt>
      <trkpt lat="47.5004" lon="6.77343">
        <ele>298.60000610352</ele>
        <time>2017-07-22T11:34:55Z</time>
      </trkpt>
      <trkpt lat="47.50037" lon="6.77333">
        <ele>298.79998779297</ele>
        <time>2017-07-22T11:34:57Z</time>
      </trkpt>
      <trkpt lat="47.50036" lon="6.77327">
        <ele>299</ele>
        <time>2017-07-22T11:34:58Z</time>
      </trkpt>
      <trkpt lat="47.50034" lon="6.77321">
        <ele>299.20001220703</ele>
        <time>2017-07-22T11:34:59Z</time>
      </trkpt>
      <trkpt lat="47.50029" lon="6.77292">
        <ele>300</ele>
        <time>2017-07-22T11:35:04Z</time>
      </trkpt>
      <trkpt lat="47.50027" lon="6.77279">
        <ele>300</ele>
        <time>2017-07-22T11:35:06Z</time>
      </trkpt>
      <trkpt lat="47.50019" lon="6.77243">
        <ele>300.20001220703</ele>
        <time>2017-07-22T11:35:12Z</time>
      </trkpt>
      <trkpt lat="47.50012" lon="6.77233">
        <ele>300.20001220703</ele>
        <time>2017-07-22T11:35:15Z</time>
      </trkpt>
      <trkpt lat="47.50008" lon="6.77233">
        <ele>300.20001220703</ele>
        <time>2017-07-22T11:35:16Z</time>
      </trkpt>
      <trkpt lat="47.5" lon="6.77236">
        <ele>300</ele>
        <time>2017-07-22T11:35:18Z</time>
      </trkpt>
      <trkpt lat="47.4998" lon="6.77244">
        <ele>299.60000610352</ele>
        <time>2017-07-22T11:35:22Z</time>
      </trkpt>
      <trkpt lat="47.4997" lon="6.7725">
        <ele>299.39999389648</ele>
        <time>2017-07-22T11:35:24Z</time>
      </trkpt>
      <trkpt lat="47.49954" lon="6.77258">
        <ele>299</ele>
        <time>2017-07-22T11:35:27Z</time>
      </trkpt>
      <trkpt lat="47.49932" lon="6.7727">
        <ele>298.79998779297</ele>
        <time>2017-07-22T11:35:31Z</time>
      </trkpt>
      <trkpt lat="47.499" lon="6.77289">
        <ele>298.79998779297</ele>
        <time>2017-07-22T11:35:37Z</time>
      </trkpt>
      <trkpt lat="47.49894" lon="6.77291">
        <ele>298.79998779297</ele>
        <time>2017-07-22T11:35:38Z</time>
      </trkpt>
      <trkpt lat="47.49851" lon="6.773">
        <ele>298.79998779297</ele>
        <time>2017-07-22T11:35:45Z</time>
      </trkpt>
      <trkpt lat="47.49803" lon="6.77304">
        <ele>298.79998779297</ele>
        <time>2017-07-22T11:35:53Z</time>
      </trkpt>
      <trkpt lat="47.49757" lon="6.77311">
        <ele>298.79998779297</ele>
        <time>2017-07-22T11:36:01Z</time>
      </trkpt>
      <trkpt lat="47.49728" lon="6.77328">
        <ele>298.60000610352</ele>
        <time>2017-07-22T11:36:07Z</time>
      </trkpt>
      <trkpt lat="47.4972" lon="6.77332">
        <ele>298.60000610352</ele>
        <time>2017-07-22T11:36:09Z</time>
      </trkpt>
      <trkpt lat="47.4971" lon="6.77334">
        <ele>298.20001220703</ele>
        <time>2017-07-22T11:36:12Z</time>
      </trkpt>
      <trkpt lat="47.49707" lon="6.77335">
        <ele>298</ele>
        <time>2017-07-22T11:36:13Z</time>
      </trkpt>
      <trkpt lat="47.4969" lon="6.77336">
        <ele>297.60000610352</ele>
        <time>2017-07-22T11:36:18Z</time>
      </trkpt>
      <trkpt lat="47.49686" lon="6.77337">
        <ele>297.60000610352</ele>
        <time>2017-07-22T11:36:19Z</time>
      </trkpt>
      <trkpt lat="47.49666" lon="6.77343">
        <ele>297.60000610352</ele>
        <time>2017-07-22T11:36:23Z</time>
      </trkpt>
      <trkpt lat="47.49619" lon="6.77355">
        <ele>298</ele>
        <time>2017-07-22T11:36:31Z</time>
      </trkpt>
      <trkpt lat="47.49566" lon="6.77361">
        <ele>297.60000610352</ele>
        <time>2017-07-22T11:36:40Z</time>
      </trkpt>
      <trkpt lat="47.49513" lon="6.77358">
        <ele>298</ele>
        <time>2017-07-22T11:36:49Z</time>
      </trkpt>
      <trkpt lat="47.49474" lon="6.77354">
        <ele>298.20001220703</ele>
        <time>2017-07-22T11:36:56Z</time>
      </trkpt>
      <trkpt lat="47.49424" lon="6.77351">
        <ele>297.79998779297</ele>
        <time>2017-07-22T11:37:05Z</time>
      </trkpt>
      <trkpt lat="47.49368" lon="6.77347">
        <ele>297.79998779297</ele>
        <time>2017-07-22T11:37:15Z</time>
      </trkpt>
      <trkpt lat="47.49336" lon="6.77341">
        <ele>297.79998779297</ele>
        <time>2017-07-22T11:37:21Z</time>
      </trkpt>
      <trkpt lat="47.49331" lon="6.77337">
        <ele>297.79998779297</ele>
        <time>2017-07-22T11:37:22Z</time>
      </trkpt>
      <trkpt lat="47.4932" lon="6.7733">
        <ele>297.79998779297</ele>
        <time>2017-07-22T11:37:24Z</time>
      </trkpt>
      <trkpt lat="47.49307" lon="6.77328">
        <ele>297.60000610352</ele>
        <time>2017-07-22T11:37:26Z</time>
      </trkpt>
      <trkpt lat="47.49273" lon="6.77325">
        <ele>296.79998779297</ele>
        <time>2017-07-22T11:37:31Z</time>
      </trkpt>
      <trkpt lat="47.49262" lon="6.77327">
        <ele>296.60000610352</ele>
        <time>2017-07-22T11:37:33Z</time>
      </trkpt>
      <trkpt lat="47.49243" lon="6.77337">
        <ele>296.79998779297</ele>
        <time>2017-07-22T11:37:37Z</time>
      </trkpt>
      <trkpt lat="47.49238" lon="6.77338">
        <ele>297</ele>
        <time>2017-07-22T11:37:38Z</time>
      </trkpt>
      <trkpt lat="47.49222" lon="6.77336">
        <ele>297.39999389648</ele>
        <time>2017-07-22T11:37:41Z</time>
      </trkpt>
      <trkpt lat="47.49187" lon="6.77333">
        <ele>297.60000610352</ele>
        <time>2017-07-22T11:37:48Z</time>
      </trkpt>
      <trkpt lat="47.49135" lon="6.7733">
        <ele>297.39999389648</ele>
        <time>2017-07-22T11:37:58Z</time>
      </trkpt>
      <trkpt lat="47.49091" lon="6.77327">
        <ele>297</ele>
        <time>2017-07-22T11:38:06Z</time>
      </trkpt>
      <trkpt lat="47.49037" lon="6.77323">
        <ele>297</ele>
        <time>2017-07-22T11:38:15Z</time>
      </trkpt>
      <trkpt lat="47.4899" lon="6.7732">
        <ele>297</ele>
        <time>2017-07-22T11:38:23Z</time>
      </trkpt>
      <trkpt lat="47.4895" lon="6.77314">
        <ele>297.39999389648</ele>
        <time>2017-07-22T11:38:30Z</time>
      </trkpt>
      <trkpt lat="47.48902" lon="6.77295">
        <ele>297</ele>
        <time>2017-07-22T11:38:38Z</time>
      </trkpt>
      <trkpt lat="47.48866" lon="6.77283">
        <ele>297.20001220703</ele>
        <time>2017-07-22T11:38:44Z</time>
      </trkpt>
      <trkpt lat="47.48828" lon="6.77261">
        <ele>297.20001220703</ele>
        <time>2017-07-22T11:38:51Z</time>
      </trkpt>
      <trkpt lat="47.4878" lon="6.77224">
        <ele>297</ele>
        <time>2017-07-22T11:39:00Z</time>
      </trkpt>
      <trkpt lat="47.48731" lon="6.77189">
        <ele>297</ele>
        <time>2017-07-22T11:39:09Z</time>
      </trkpt>
      <trkpt lat="47.48683" lon="6.77147">
        <ele>296.79998779297</ele>
        <time>2017-07-22T11:39:18Z</time>
      </trkpt>
      <trkpt lat="47.48639" lon="6.77099">
        <ele>296.79998779297</ele>
        <time>2017-07-22T11:39:27Z</time>
      </trkpt>
      <trkpt lat="47.48627" lon="6.77087">
        <ele>297</ele>
        <time>2017-07-22T11:39:30Z</time>
      </trkpt>
      <trkpt lat="47.48619" lon="6.77082">
        <ele>297</ele>
        <time>2017-07-22T11:39:32Z</time>
      </trkpt>
      <trkpt lat="47.48599" lon="6.77069">
        <ele>298</ele>
        <time>2017-07-22T11:39:36Z</time>
      </trkpt>
      <trkpt lat="47.48589" lon="6.77062">
        <ele>298</ele>
        <time>2017-07-22T11:39:38Z</time>
      </trkpt>
      <trkpt lat="47.48574" lon="6.77054">
        <ele>298</ele>
        <time>2017-07-22T11:39:41Z</time>
      </trkpt>
      <trkpt lat="47.48559" lon="6.77046">
        <ele>298</ele>
        <time>2017-07-22T11:39:44Z</time>
      </trkpt>
      <trkpt lat="47.48536" lon="6.77039">
        <ele>298</ele>
        <time>2017-07-22T11:39:48Z</time>
      </trkpt>
      <trkpt lat="47.48526" lon="6.77028">
        <ele>297.79998779297</ele>
        <time>2017-07-22T11:39:50Z</time>
      </trkpt>
      <trkpt lat="47.4852" lon="6.77025">
        <ele>297.60000610352</ele>
        <time>2017-07-22T11:39:51Z</time>
      </trkpt>
      <trkpt lat="47.48514" lon="6.77021">
        <ele>297.39999389648</ele>
        <time>2017-07-22T11:39:52Z</time>
      </trkpt>
      <trkpt lat="47.48508" lon="6.77016">
        <ele>297.20001220703</ele>
        <time>2017-07-22T11:39:53Z</time>
      </trkpt>
      <trkpt lat="47.48491" lon="6.77003">
        <ele>297</ele>
        <time>2017-07-22T11:39:56Z</time>
      </trkpt>
      <trkpt lat="47.4848" lon="6.76995">
        <ele>297.20001220703</ele>
        <time>2017-07-22T11:39:58Z</time>
      </trkpt>
      <trkpt lat="47.48451" lon="6.76975">
        <ele>297</ele>
        <time>2017-07-22T11:40:03Z</time>
      </trkpt>
      <trkpt lat="47.4844" lon="6.76967">
        <ele>297</ele>
        <time>2017-07-22T11:40:05Z</time>
      </trkpt>
      <trkpt lat="47.48411" lon="6.76951">
        <ele>296.79998779297</ele>
        <time>2017-07-22T11:40:10Z</time>
      </trkpt>
      <trkpt lat="47.48399" lon="6.76946">
        <ele>296.79998779297</ele>
        <time>2017-07-22T11:40:12Z</time>
      </trkpt>
      <trkpt lat="47.48376" lon="6.76933">
        <ele>296.60000610352</ele>
        <time>2017-07-22T11:40:16Z</time>
      </trkpt>
      <trkpt lat="47.48325" lon="6.76899">
        <ele>296.60000610352</ele>
        <time>2017-07-22T11:40:25Z</time>
      </trkpt>
      <trkpt lat="47.48289" lon="6.76867">
        <ele>296.39999389648</ele>
        <time>2017-07-22T11:40:32Z</time>
      </trkpt>
      <trkpt lat="47.48275" lon="6.76851">
        <ele>296.39999389648</ele>
        <time>2017-07-22T11:40:35Z</time>
      </trkpt>
      <trkpt lat="47.48263" lon="6.76833">
        <ele>296.39999389648</ele>
        <time>2017-07-22T11:40:38Z</time>
      </trkpt>
      <trkpt lat="47.48242" lon="6.76804">
        <ele>296.39999389648</ele>
        <time>2017-07-22T11:40:43Z</time>
      </trkpt>
      <trkpt lat="47.48231" lon="6.76798">
        <ele>296.60000610352</ele>
        <time>2017-07-22T11:40:45Z</time>
      </trkpt>
      <trkpt lat="47.48191" lon="6.76777">
        <ele>296.60000610352</ele>
        <time>2017-07-22T11:40:52Z</time>
      </trkpt>
      <trkpt lat="47.48185" lon="6.76773">
        <ele>296.60000610352</ele>
        <time>2017-07-22T11:40:53Z</time>
      </trkpt>
      <trkpt lat="47.4817" lon="6.76757">
        <ele>296.39999389648</ele>
        <time>2017-07-22T11:40:56Z</time>
      </trkpt>
      <trkpt lat="47.48145" lon="6.76716">
        <ele>296.39999389648</ele>
        <time>2017-07-22T11:41:02Z</time>
      </trkpt>
      <trkpt lat="47.48129" lon="6.76679">
        <ele>296.39999389648</ele>
        <time>2017-07-22T11:41:07Z</time>
      </trkpt>
      <trkpt lat="47.48121" lon="6.76667">
        <ele>296.39999389648</ele>
        <time>2017-07-22T11:41:09Z</time>
      </trkpt>
      <trkpt lat="47.48108" lon="6.76645">
        <ele>297</ele>
        <time>2017-07-22T11:41:13Z</time>
      </trkpt>
      <trkpt lat="47.481" lon="6.76628">
        <ele>297.20001220703</ele>
        <time>2017-07-22T11:41:16Z</time>
      </trkpt>
      <trkpt lat="47.48097" lon="6.76598">
        <ele>297.20001220703</ele>
        <time>2017-07-22T11:41:20Z</time>
      </trkpt>
      <trkpt lat="47.48106" lon="6.76571">
        <ele>296.79998779297</ele>
        <time>2017-07-22T11:41:24Z</time>
      </trkpt>
      <trkpt lat="47.4811" lon="6.76566">
        <ele>296.79998779297</ele>
        <time>2017-07-22T11:41:25Z</time>
      </trkpt>
      <trkpt lat="47.48121" lon="6.7654">
        <ele>296.79998779297</ele>
        <time>2017-07-22T11:41:30Z</time>
      </trkpt>
      <trkpt lat="47.4812" lon="6.76536">
        <ele>297</ele>
        <time>2017-07-22T11:41:31Z</time>
      </trkpt>
      <trkpt lat="47.48116" lon="6.76528">
        <ele>297.39999389648</ele>
        <time>2017-07-22T11:41:33Z</time>
      </trkpt>
      <trkpt lat="47.48112" lon="6.76521">
        <ele>297.79998779297</ele>
        <time>2017-07-22T11:41:35Z</time>
      </trkpt>
      <trkpt lat="47.48108" lon="6.76513">
        <ele>298</ele>
        <time>2017-07-22T11:41:38Z</time>
      </trkpt>
      <trkpt lat="47.48107" lon="6.76511">
        <ele>298</ele>
        <time>2017-07-22T11:41:39Z</time>
      </trkpt>
      <trkpt lat="47.48105" lon="6.76511">
        <ele>298</ele>
        <time>2017-07-22T11:41:40Z</time>
      </trkpt>
      <trkpt lat="47.481" lon="6.76515">
        <ele>298</ele>
        <time>2017-07-22T11:41:43Z</time>
      </trkpt>
      <trkpt lat="47.48082" lon="6.76531">
        <ele>298</ele>
        <time>2017-07-22T11:41:49Z</time>
      </trkpt>
      <trkpt lat="47.48058" lon="6.76554">
        <ele>298.79998779297</ele>
        <time>2017-07-22T11:41:56Z</time>
      </trkpt>
      <trkpt lat="47.48046" lon="6.76564">
        <ele>299</ele>
        <time>2017-07-22T11:41:59Z</time>
      </trkpt>
      <trkpt lat="47.48026" lon="6.76581">
        <ele>299.20001220703</ele>
        <time>2017-07-22T11:42:04Z</time>
      </trkpt>
      <trkpt lat="47.47993" lon="6.76604">
        <ele>299</ele>
        <time>2017-07-22T11:42:12Z</time>
      </trkpt>
      <trkpt lat="47.47989" lon="6.76606">
        <ele>299</ele>
        <time>2017-07-22T11:42:13Z</time>
      </trkpt>
      <trkpt lat="47.47965" lon="6.76619">
        <ele>299</ele>
        <time>2017-07-22T11:42:19Z</time>
      </trkpt>
      <trkpt lat="47.4796" lon="6.76623">
        <ele>298.79998779297</ele>
        <time>2017-07-22T11:42:23Z</time>
      </trkpt>
      <trkpt lat="47.47961" lon="6.76625">
        <ele>298.79998779297</ele>
        <time>2017-07-22T11:42:24Z</time>
      </trkpt>
      <trkpt lat="47.47966" lon="6.76631">
        <ele>298.79998779297</ele>
        <time>2017-07-22T11:42:27Z</time>
      </trkpt>
      <trkpt lat="47.47972" lon="6.76654">
        <ele>298.39999389648</ele>
        <time>2017-07-22T11:42:31Z</time>
      </trkpt>
      <trkpt lat="47.47975" lon="6.76661">
        <ele>298</ele>
        <time>2017-07-22T11:42:33Z</time>
      </trkpt>
      <trkpt lat="47.47977" lon="6.76658">
        <ele>297.60000610352</ele>
        <time>2017-07-22T11:42:34Z</time>
      </trkpt>
      <trkpt lat="47.47974" lon="6.76644">
        <ele>297</ele>
        <time>2017-07-22T11:42:37Z</time>
      </trkpt>
      <trkpt lat="47.47972" lon="6.76631">
        <ele>297</ele>
        <time>2017-07-22T11:42:39Z</time>
      </trkpt>
      <trkpt lat="47.4797" lon="6.76625">
        <ele>297</ele>
        <time>2017-07-22T11:42:40Z</time>
      </trkpt>
      <trkpt lat="47.47967" lon="6.76611">
        <ele>296.79998779297</ele>
        <time>2017-07-22T11:42:42Z</time>
      </trkpt>
      <trkpt lat="47.47962" lon="6.76598">
        <ele>296.79998779297</ele>
        <time>2017-07-22T11:42:44Z</time>
      </trkpt>
      <trkpt lat="47.47957" lon="6.76594">
        <ele>296.60000610352</ele>
        <time>2017-07-22T11:42:45Z</time>
      </trkpt>
      <trkpt lat="47.47951" lon="6.76575">
        <ele>296.39999389648</ele>
        <time>2017-07-22T11:42:48Z</time>
      </trkpt>
      <trkpt lat="47.47948" lon="6.76569">
        <ele>296.60000610352</ele>
        <time>2017-07-22T11:42:49Z</time>
      </trkpt>
      <trkpt lat="47.47939" lon="6.76534">
        <ele>297.39999389648</ele>
        <time>2017-07-22T11:42:54Z</time>
      </trkpt>
      <trkpt lat="47.47921" lon="6.76461">
        <ele>297.79998779297</ele>
        <time>2017-07-22T11:43:04Z</time>
      </trkpt>
      <trkpt lat="47.47903" lon="6.76403">
        <ele>297.60000610352</ele>
        <time>2017-07-22T11:43:12Z</time>
      </trkpt>
      <trkpt lat="47.47884" lon="6.76363">
        <ele>297.60000610352</ele>
        <time>2017-07-22T11:43:18Z</time>
      </trkpt>
      <trkpt lat="47.47854" lon="6.76306">
        <ele>297.39999389648</ele>
        <time>2017-07-22T11:43:27Z</time>
      </trkpt>
      <trkpt lat="47.47835" lon="6.76278">
        <ele>297.39999389648</ele>
        <time>2017-07-22T11:43:32Z</time>
      </trkpt>
      <trkpt lat="47.47825" lon="6.7627">
        <ele>297.39999389648</ele>
        <time>2017-07-22T11:43:34Z</time>
      </trkpt>
      <trkpt lat="47.47815" lon="6.76263">
        <ele>297.20001220703</ele>
        <time>2017-07-22T11:43:36Z</time>
      </trkpt>
      <trkpt lat="47.47799" lon="6.76256">
        <ele>297</ele>
        <time>2017-07-22T11:43:39Z</time>
      </trkpt>
      <trkpt lat="47.47794" lon="6.76254">
        <ele>297.20001220703</ele>
        <time>2017-07-22T11:43:40Z</time>
      </trkpt>
      <trkpt lat="47.47789" lon="6.76251">
        <ele>297.20001220703</ele>
        <time>2017-07-22T11:43:41Z</time>
      </trkpt>
      <trkpt lat="47.47776" lon="6.76236">
        <ele>297.20001220703</ele>
        <time>2017-07-22T11:43:44Z</time>
      </trkpt>
      <trkpt lat="47.47772" lon="6.7623">
        <ele>297.39999389648</ele>
        <time>2017-07-22T11:43:45Z</time>
      </trkpt>
      <trkpt lat="47.47746" lon="6.76189">
        <ele>297.39999389648</ele>
        <time>2017-07-22T11:43:52Z</time>
      </trkpt>
      <trkpt lat="47.47709" lon="6.76132">
        <ele>297.79998779297</ele>
        <time>2017-07-22T11:44:02Z</time>
      </trkpt>
      <trkpt lat="47.47683" lon="6.76091">
        <ele>297.79998779297</ele>
        <time>2017-07-22T11:44:09Z</time>
      </trkpt>
      <trkpt lat="47.47679" lon="6.76086">
        <ele>297.79998779297</ele>
        <time>2017-07-22T11:44:10Z</time>
      </trkpt>
      <trkpt lat="47.47672" lon="6.76074">
        <ele>297.60000610352</ele>
        <time>2017-07-22T11:44:12Z</time>
      </trkpt>
      <trkpt lat="47.47665" lon="6.76051">
        <ele>297.79998779297</ele>
        <time>2017-07-22T11:44:15Z</time>
      </trkpt>
      <trkpt lat="47.47664" lon="6.7601">
        <ele>297.79998779297</ele>
        <time>2017-07-22T11:44:20Z</time>
      </trkpt>
      <trkpt lat="47.47674" lon="6.75979">
        <ele>297.79998779297</ele>
        <time>2017-07-22T11:44:24Z</time>
      </trkpt>
      <trkpt lat="47.47677" lon="6.75972">
        <ele>297.79998779297</ele>
        <time>2017-07-22T11:44:25Z</time>
      </trkpt>
      <trkpt lat="47.47695" lon="6.75927">
        <ele>298</ele>
        <time>2017-07-22T11:44:31Z</time>
      </trkpt>
      <trkpt lat="47.47696" lon="6.75918">
        <ele>298</ele>
        <time>2017-07-22T11:44:32Z</time>
      </trkpt>
      <trkpt lat="47.47697" lon="6.75872">
        <ele>297.60000610352</ele>
        <time>2017-07-22T11:44:37Z</time>
      </trkpt>
      <trkpt lat="47.47701" lon="6.75793">
        <ele>297.20001220703</ele>
        <time>2017-07-22T11:44:46Z</time>
      </trkpt>
      <trkpt lat="47.47702" lon="6.75783">
        <ele>297.20001220703</ele>
        <time>2017-07-22T11:44:47Z</time>
      </trkpt>
      <trkpt lat="47.47702" lon="6.75774">
        <ele>297</ele>
        <time>2017-07-22T11:44:48Z</time>
      </trkpt>
      <trkpt lat="47.47702" lon="6.75738">
        <ele>297</ele>
        <time>2017-07-22T11:44:52Z</time>
      </trkpt>
      <trkpt lat="47.47703" lon="6.75709">
        <ele>297</ele>
        <time>2017-07-22T11:44:57Z</time>
      </trkpt>
      <trkpt lat="47.47704" lon="6.75696">
        <ele>297</ele>
        <time>2017-07-22T11:44:59Z</time>
      </trkpt>
      <trkpt lat="47.47705" lon="6.7568">
        <ele>297</ele>
        <time>2017-07-22T11:45:01Z</time>
      </trkpt>
      <trkpt lat="47.47706" lon="6.75632">
        <ele>296.60000610352</ele>
        <time>2017-07-22T11:45:06Z</time>
      </trkpt>
      <trkpt lat="47.47707" lon="6.75572">
        <ele>295.79998779297</ele>
        <time>2017-07-22T11:45:12Z</time>
      </trkpt>
      <trkpt lat="47.47707" lon="6.75554">
        <ele>295.79998779297</ele>
        <time>2017-07-22T11:45:14Z</time>
      </trkpt>
      <trkpt lat="47.4771" lon="6.75481">
        <ele>295.79998779297</ele>
        <time>2017-07-22T11:45:22Z</time>
      </trkpt>
      <trkpt lat="47.47711" lon="6.7541">
        <ele>295.79998779297</ele>
        <time>2017-07-22T11:45:30Z</time>
      </trkpt>
      <trkpt lat="47.47711" lon="6.75392">
        <ele>295.60000610352</ele>
        <time>2017-07-22T11:45:32Z</time>
      </trkpt>
      <trkpt lat="47.47712" lon="6.75358">
        <ele>295.60000610352</ele>
        <time>2017-07-22T11:45:36Z</time>
      </trkpt>
      <trkpt lat="47.47715" lon="6.75275">
        <ele>295.60000610352</ele>
        <time>2017-07-22T11:45:46Z</time>
      </trkpt>
      <trkpt lat="47.47716" lon="6.75218">
        <ele>295.79998779297</ele>
        <time>2017-07-22T11:45:53Z</time>
      </trkpt>
      <trkpt lat="47.47719" lon="6.75143">
        <ele>295.60000610352</ele>
        <time>2017-07-22T11:46:02Z</time>
      </trkpt>
      <trkpt lat="47.47722" lon="6.75065">
        <ele>295.20001220703</ele>
        <time>2017-07-22T11:46:11Z</time>
      </trkpt>
      <trkpt lat="47.47726" lon="6.74978">
        <ele>295.20001220703</ele>
        <time>2017-07-22T11:46:21Z</time>
      </trkpt>
      <trkpt lat="47.47727" lon="6.74917">
        <ele>295</ele>
        <time>2017-07-22T11:46:28Z</time>
      </trkpt>
      <trkpt lat="47.47726" lon="6.74852">
        <ele>295.20001220703</ele>
        <time>2017-07-22T11:46:36Z</time>
      </trkpt>
      <trkpt lat="47.47727" lon="6.74797">
        <ele>295.39999389648</ele>
        <time>2017-07-22T11:46:43Z</time>
      </trkpt>
      <trkpt lat="47.4773" lon="6.74734">
        <ele>295.20001220703</ele>
        <time>2017-07-22T11:46:51Z</time>
      </trkpt>
      <trkpt lat="47.47731" lon="6.7467">
        <ele>295.20001220703</ele>
        <time>2017-07-22T11:46:59Z</time>
      </trkpt>
      <trkpt lat="47.47729" lon="6.74589">
        <ele>295.20001220703</ele>
        <time>2017-07-22T11:47:09Z</time>
      </trkpt>
      <trkpt lat="47.47725" lon="6.74539">
        <ele>295.20001220703</ele>
        <time>2017-07-22T11:47:15Z</time>
      </trkpt>
      <trkpt lat="47.47721" lon="6.74525">
        <ele>295.20001220703</ele>
        <time>2017-07-22T11:47:17Z</time>
      </trkpt>
      <trkpt lat="47.47716" lon="6.74495">
        <ele>295.20001220703</ele>
        <time>2017-07-22T11:47:21Z</time>
      </trkpt>
      <trkpt lat="47.47714" lon="6.74472">
        <ele>295.39999389648</ele>
        <time>2017-07-22T11:47:24Z</time>
      </trkpt>
      <trkpt lat="47.47713" lon="6.7445">
        <ele>295.39999389648</ele>
        <time>2017-07-22T11:47:27Z</time>
      </trkpt>
      <trkpt lat="47.47719" lon="6.74439">
        <ele>295.39999389648</ele>
        <time>2017-07-22T11:47:29Z</time>
      </trkpt>
      <trkpt lat="47.47721" lon="6.74416">
        <ele>295.39999389648</ele>
        <time>2017-07-22T11:47:32Z</time>
      </trkpt>
      <trkpt lat="47.47718" lon="6.74401">
        <ele>295</ele>
        <time>2017-07-22T11:47:34Z</time>
      </trkpt>
      <trkpt lat="47.47714" lon="6.74369">
        <ele>295</ele>
        <time>2017-07-22T11:47:38Z</time>
      </trkpt>
      <trkpt lat="47.47705" lon="6.74297">
        <ele>295.20001220703</ele>
        <time>2017-07-22T11:47:47Z</time>
      </trkpt>
      <trkpt lat="47.47695" lon="6.7423">
        <ele>295.20001220703</ele>
        <time>2017-07-22T11:47:55Z</time>
      </trkpt>
      <trkpt lat="47.47686" lon="6.74179">
        <ele>295</ele>
        <time>2017-07-22T11:48:01Z</time>
      </trkpt>
      <trkpt lat="47.47671" lon="6.74103">
        <ele>295</ele>
        <time>2017-07-22T11:48:10Z</time>
      </trkpt>
      <trkpt lat="47.47657" lon="6.7403">
        <ele>295</ele>
        <time>2017-07-22T11:48:19Z</time>
      </trkpt>
      <trkpt lat="47.47645" lon="6.73966">
        <ele>295</ele>
        <time>2017-07-22T11:48:27Z</time>
      </trkpt>
      <trkpt lat="47.47634" lon="6.73916">
        <ele>295</ele>
        <time>2017-07-22T11:48:33Z</time>
      </trkpt>
      <trkpt lat="47.47624" lon="6.73861">
        <ele>295.20001220703</ele>
        <time>2017-07-22T11:48:40Z</time>
      </trkpt>
      <trkpt lat="47.4761" lon="6.7379">
        <ele>295</ele>
        <time>2017-07-22T11:48:49Z</time>
      </trkpt>
      <trkpt lat="47.47599" lon="6.73731">
        <ele>294.79998779297</ele>
        <time>2017-07-22T11:48:57Z</time>
      </trkpt>
      <trkpt lat="47.47598" lon="6.73724">
        <ele>294.79998779297</ele>
        <time>2017-07-22T11:48:58Z</time>
      </trkpt>
      <trkpt lat="47.47587" lon="6.73669">
        <ele>294.79998779297</ele>
        <time>2017-07-22T11:49:05Z</time>
      </trkpt>
      <trkpt lat="47.47576" lon="6.73596">
        <ele>294.60000610352</ele>
        <time>2017-07-22T11:49:14Z</time>
      </trkpt>
      <trkpt lat="47.47574" lon="6.73589">
        <ele>294.60000610352</ele>
        <time>2017-07-22T11:49:15Z</time>
      </trkpt>
      <trkpt lat="47.47565" lon="6.73586">
        <ele>294.60000610352</ele>
        <time>2017-07-22T11:49:17Z</time>
      </trkpt>
      <trkpt lat="47.47553" lon="6.73579">
        <ele>294.39999389648</ele>
        <time>2017-07-22T11:49:20Z</time>
      </trkpt>
      <trkpt lat="47.47551" lon="6.7356">
        <ele>294</ele>
        <time>2017-07-22T11:49:23Z</time>
      </trkpt>
      <trkpt lat="47.4755" lon="6.73553">
        <ele>293.79998779297</ele>
        <time>2017-07-22T11:49:24Z</time>
      </trkpt>
      <trkpt lat="47.47549" lon="6.73546">
        <ele>293.79998779297</ele>
        <time>2017-07-22T11:49:25Z</time>
      </trkpt>
      <trkpt lat="47.47545" lon="6.73512">
        <ele>293.79998779297</ele>
        <time>2017-07-22T11:49:29Z</time>
      </trkpt>
      <trkpt lat="47.47541" lon="6.73487">
        <ele>293.60000610352</ele>
        <time>2017-07-22T11:49:32Z</time>
      </trkpt>
      <trkpt lat="47.47534" lon="6.73453">
        <ele>293.39999389648</ele>
        <time>2017-07-22T11:49:36Z</time>
      </trkpt>
      <trkpt lat="47.47523" lon="6.73411">
        <ele>293.39999389648</ele>
        <time>2017-07-22T11:49:42Z</time>
      </trkpt>
      <trkpt lat="47.47512" lon="6.73373">
        <ele>293.39999389648</ele>
        <time>2017-07-22T11:49:48Z</time>
      </trkpt>
      <trkpt lat="47.4751" lon="6.73368">
        <ele>293.39999389648</ele>
        <time>2017-07-22T11:49:49Z</time>
      </trkpt>
      <trkpt lat="47.47503" lon="6.73365">
        <ele>293.39999389648</ele>
        <time>2017-07-22T11:49:51Z</time>
      </trkpt>
      <trkpt lat="47.47485" lon="6.73362">
        <ele>293.39999389648</ele>
        <time>2017-07-22T11:49:55Z</time>
      </trkpt>
      <trkpt lat="47.47476" lon="6.73344">
        <ele>293.20001220703</ele>
        <time>2017-07-22T11:49:58Z</time>
      </trkpt>
      <trkpt lat="47.47474" lon="6.73337">
        <ele>293.20001220703</ele>
        <time>2017-07-22T11:49:59Z</time>
      </trkpt>
      <trkpt lat="47.47467" lon="6.7331">
        <ele>293.39999389648</ele>
        <time>2017-07-22T11:50:03Z</time>
      </trkpt>
      <trkpt lat="47.47464" lon="6.73296">
        <ele>293.79998779297</ele>
        <time>2017-07-22T11:50:05Z</time>
      </trkpt>
      <trkpt lat="47.47453" lon="6.7327">
        <ele>294.39999389648</ele>
        <time>2017-07-22T11:50:10Z</time>
      </trkpt>
      <trkpt lat="47.47442" lon="6.73241">
        <ele>295</ele>
        <time>2017-07-22T11:50:15Z</time>
      </trkpt>
      <trkpt lat="47.47441" lon="6.73236">
        <ele>295</ele>
        <time>2017-07-22T11:50:16Z</time>
      </trkpt>
      <trkpt lat="47.47436" lon="6.73206">
        <ele>295.39999389648</ele>
        <time>2017-07-22T11:50:22Z</time>
      </trkpt>
      <trkpt lat="47.47435" lon="6.73194">
        <ele>295.39999389648</ele>
        <time>2017-07-22T11:50:24Z</time>
      </trkpt>
      <trkpt lat="47.47432" lon="6.73178">
        <ele>295.60000610352</ele>
        <time>2017-07-22T11:50:27Z</time>
      </trkpt>
      <trkpt lat="47.47427" lon="6.7316">
        <ele>295.60000610352</ele>
        <time>2017-07-22T11:50:32Z</time>
      </trkpt>
      <trkpt lat="47.47427" lon="6.73157">
        <ele>295.60000610352</ele>
        <time>2017-07-22T11:50:33Z</time>
      </trkpt>
      <trkpt lat="47.47426" lon="6.73148">
        <ele>296</ele>
        <time>2017-07-22T11:50:36Z</time>
      </trkpt>
      <trkpt lat="47.47425" lon="6.73135">
        <ele>296.20001220703</ele>
        <time>2017-07-22T11:50:39Z</time>
      </trkpt>
      <trkpt lat="47.47429" lon="6.73107">
        <ele>296.39999389648</ele>
        <time>2017-07-22T11:50:44Z</time>
      </trkpt>
      <trkpt lat="47.47433" lon="6.73078">
        <ele>296.79998779297</ele>
        <time>2017-07-22T11:50:50Z</time>
      </trkpt>
      <trkpt lat="47.47431" lon="6.73056">
        <ele>296.60000610352</ele>
        <time>2017-07-22T11:50:55Z</time>
      </trkpt>
      <trkpt lat="47.4742" lon="6.73041">
        <ele>296.60000610352</ele>
        <time>2017-07-22T11:50:59Z</time>
      </trkpt>
      <trkpt lat="47.47408" lon="6.73039">
        <ele>296.60000610352</ele>
        <time>2017-07-22T11:51:03Z</time>
      </trkpt>
      <trkpt lat="47.474" lon="6.73036">
        <ele>297</ele>
        <time>2017-07-22T11:51:06Z</time>
      </trkpt>
      <trkpt lat="47.4739" lon="6.73031">
        <ele>298.20001220703</ele>
        <time>2017-07-22T11:51:10Z</time>
      </trkpt>
      <trkpt lat="47.47379" lon="6.73029">
        <ele>299.39999389648</ele>
        <time>2017-07-22T11:51:14Z</time>
      </trkpt>
      <trkpt lat="47.47374" lon="6.73028">
        <ele>299.60000610352</ele>
        <time>2017-07-22T11:51:16Z</time>
      </trkpt>
      <trkpt lat="47.47356" lon="6.73024">
        <ele>300.39999389648</ele>
        <time>2017-07-22T11:51:22Z</time>
      </trkpt>
      <trkpt lat="47.47353" lon="6.73024">
        <ele>300.39999389648</ele>
        <time>2017-07-22T11:51:23Z</time>
      </trkpt>
      <trkpt lat="47.47334" lon="6.73015">
        <ele>300.79998779297</ele>
        <time>2017-07-22T11:51:29Z</time>
      </trkpt>
      <trkpt lat="47.47323" lon="6.72997">
        <ele>301.39999389648</ele>
        <time>2017-07-22T11:51:35Z</time>
      </trkpt>
      <trkpt lat="47.47312" lon="6.72983">
        <ele>302.39999389648</ele>
        <time>2017-07-22T11:51:40Z</time>
      </trkpt>
      <trkpt lat="47.47311" lon="6.72979">
        <ele>302.60000610352</ele>
        <time>2017-07-22T11:51:41Z</time>
      </trkpt>
      <trkpt lat="47.47295" lon="6.72955">
        <ele>303.60000610352</ele>
        <time>2017-07-22T11:51:49Z</time>
      </trkpt>
      <trkpt lat="47.47278" lon="6.72932">
        <ele>304.20001220703</ele>
        <time>2017-07-22T11:51:57Z</time>
      </trkpt>
      <trkpt lat="47.47269" lon="6.72921">
        <ele>304.60000610352</ele>
        <time>2017-07-22T11:52:01Z</time>
      </trkpt>
      <trkpt lat="47.47264" lon="6.72914">
        <ele>305</ele>
        <time>2017-07-22T11:52:03Z</time>
      </trkpt>
      <trkpt lat="47.4725" lon="6.72899">
        <ele>305.79998779297</ele>
        <time>2017-07-22T11:52:09Z</time>
      </trkpt>
      <trkpt lat="47.47244" lon="6.72894">
        <ele>305.79998779297</ele>
        <time>2017-07-22T11:52:11Z</time>
      </trkpt>
      <trkpt lat="47.47223" lon="6.72885">
        <ele>306.79998779297</ele>
        <time>2017-07-22T11:52:18Z</time>
      </trkpt>
      <trkpt lat="47.472" lon="6.7288">
        <ele>307.79998779297</ele>
        <time>2017-07-22T11:52:25Z</time>
      </trkpt>
      <trkpt lat="47.47196" lon="6.72879">
        <ele>308</ele>
        <time>2017-07-22T11:52:26Z</time>
      </trkpt>
      <trkpt lat="47.47173" lon="6.72867">
        <ele>308.60000610352</ele>
        <time>2017-07-22T11:52:33Z</time>
      </trkpt>
      <trkpt lat="47.47158" lon="6.72857">
        <ele>308.79998779297</ele>
        <time>2017-07-22T11:52:38Z</time>
      </trkpt>
      <trkpt lat="47.47149" lon="6.72851">
        <ele>309</ele>
        <time>2017-07-22T11:52:41Z</time>
      </trkpt>
      <trkpt lat="47.47126" lon="6.7283">
        <ele>309.79998779297</ele>
        <time>2017-07-22T11:52:49Z</time>
      </trkpt>
      <trkpt lat="47.47123" lon="6.72828">
        <ele>310</ele>
        <time>2017-07-22T11:52:50Z</time>
      </trkpt>
      <trkpt lat="47.47104" lon="6.72809">
        <ele>310.60000610352</ele>
        <time>2017-07-22T11:52:57Z</time>
      </trkpt>
      <trkpt lat="47.47093" lon="6.72801">
        <ele>311</ele>
        <time>2017-07-22T11:53:01Z</time>
      </trkpt>
      <trkpt lat="47.47086" lon="6.72794">
        <ele>311.39999389648</ele>
        <time>2017-07-22T11:53:04Z</time>
      </trkpt>
      <trkpt lat="47.47075" lon="6.72783">
        <ele>312</ele>
        <time>2017-07-22T11:53:09Z</time>
      </trkpt>
      <trkpt lat="47.47065" lon="6.72774">
        <ele>312.60000610352</ele>
        <time>2017-07-22T11:53:14Z</time>
      </trkpt>
      <trkpt lat="47.47059" lon="6.72767">
        <ele>313</ele>
        <time>2017-07-22T11:53:17Z</time>
      </trkpt>
      <trkpt lat="47.47048" lon="6.72753">
        <ele>314.20001220703</ele>
        <time>2017-07-22T11:53:23Z</time>
      </trkpt>
      <trkpt lat="47.47046" lon="6.72751">
        <ele>314.20001220703</ele>
        <time>2017-07-22T11:53:24Z</time>
      </trkpt>
      <trkpt lat="47.47038" lon="6.7274">
        <ele>315.20001220703</ele>
        <time>2017-07-22T11:53:29Z</time>
      </trkpt>
      <trkpt lat="47.47036" lon="6.72737">
        <ele>315.39999389648</ele>
        <time>2017-07-22T11:53:30Z</time>
      </trkpt>
      <trkpt lat="47.47029" lon="6.72728">
        <ele>316.20001220703</ele>
        <time>2017-07-22T11:53:34Z</time>
      </trkpt>
      <trkpt lat="47.47028" lon="6.72726">
        <ele>316.39999389648</ele>
        <time>2017-07-22T11:53:35Z</time>
      </trkpt>
      <trkpt lat="47.47022" lon="6.72712">
        <ele>317.39999389648</ele>
        <time>2017-07-22T11:53:40Z</time>
      </trkpt>
      <trkpt lat="47.4702" lon="6.72707">
        <ele>317.79998779297</ele>
        <time>2017-07-22T11:53:42Z</time>
      </trkpt>
      <trkpt lat="47.47015" lon="6.72697">
        <ele>318.39999389648</ele>
        <time>2017-07-22T11:53:46Z</time>
      </trkpt>
      <trkpt lat="47.47011" lon="6.72692">
        <ele>319</ele>
        <time>2017-07-22T11:53:49Z</time>
      </trkpt>
      <trkpt lat="47.47007" lon="6.72686">
        <ele>319.60000610352</ele>
        <time>2017-07-22T11:53:52Z</time>
      </trkpt>
      <trkpt lat="47.47" lon="6.72676">
        <ele>320.39999389648</ele>
        <time>2017-07-22T11:53:57Z</time>
      </trkpt>
      <trkpt lat="47.47" lon="6.72674">
        <ele>320.79998779297</ele>
        <time>2017-07-22T11:53:58Z</time>
      </trkpt>
      <trkpt lat="47.46992" lon="6.72666">
        <ele>321.60000610352</ele>
        <time>2017-07-22T11:54:03Z</time>
      </trkpt>
      <trkpt lat="47.46988" lon="6.72663">
        <ele>322</ele>
        <time>2017-07-22T11:54:05Z</time>
      </trkpt>
      <trkpt lat="47.46975" lon="6.72649">
        <ele>323</ele>
        <time>2017-07-22T11:54:13Z</time>
      </trkpt>
      <trkpt lat="47.46961" lon="6.72636">
        <ele>324.20001220703</ele>
        <time>2017-07-22T11:54:21Z</time>
      </trkpt>
      <trkpt lat="47.46948" lon="6.72625">
        <ele>325.20001220703</ele>
        <time>2017-07-22T11:54:28Z</time>
      </trkpt>
      <trkpt lat="47.46946" lon="6.72623">
        <ele>325.39999389648</ele>
        <time>2017-07-22T11:54:29Z</time>
      </trkpt>
      <trkpt lat="47.46935" lon="6.7261">
        <ele>326.39999389648</ele>
        <time>2017-07-22T11:54:36Z</time>
      </trkpt>
      <trkpt lat="47.46931" lon="6.72607">
        <ele>326.60000610352</ele>
        <time>2017-07-22T11:54:38Z</time>
      </trkpt>
      <trkpt lat="47.46923" lon="6.726">
        <ele>327.39999389648</ele>
        <time>2017-07-22T11:54:42Z</time>
      </trkpt>
      <trkpt lat="47.46918" lon="6.72595">
        <ele>327.79998779297</ele>
        <time>2017-07-22T11:54:45Z</time>
      </trkpt>
      <trkpt lat="47.46912" lon="6.7259">
        <ele>328.60000610352</ele>
        <time>2017-07-22T11:54:48Z</time>
      </trkpt>
      <trkpt lat="47.46906" lon="6.72584">
        <ele>329.20001220703</ele>
        <time>2017-07-22T11:54:52Z</time>
      </trkpt>
      <trkpt lat="47.46902" lon="6.72581">
        <ele>329.60000610352</ele>
        <time>2017-07-22T11:54:54Z</time>
      </trkpt>
      <trkpt lat="47.46893" lon="6.72573">
        <ele>330.79998779297</ele>
        <time>2017-07-22T11:54:59Z</time>
      </trkpt>
      <trkpt lat="47.46883" lon="6.72561">
        <ele>332</ele>
        <time>2017-07-22T11:55:05Z</time>
      </trkpt>
      <trkpt lat="47.46881" lon="6.7256">
        <ele>332.20001220703</ele>
        <time>2017-07-22T11:55:06Z</time>
      </trkpt>
      <trkpt lat="47.46873" lon="6.72556">
        <ele>333.20001220703</ele>
        <time>2017-07-22T11:55:10Z</time>
      </trkpt>
      <trkpt lat="47.46869" lon="6.72552">
        <ele>333.39999389648</ele>
        <time>2017-07-22T11:55:12Z</time>
      </trkpt>
      <trkpt lat="47.46857" lon="6.72538">
        <ele>334.20001220703</ele>
        <time>2017-07-22T11:55:19Z</time>
      </trkpt>
      <trkpt lat="47.46853" lon="6.72533">
        <ele>334.60000610352</ele>
        <time>2017-07-22T11:55:21Z</time>
      </trkpt>
      <trkpt lat="47.46842" lon="6.72523">
        <ele>335.39999389648</ele>
        <time>2017-07-22T11:55:27Z</time>
      </trkpt>
      <trkpt lat="47.46838" lon="6.72519">
        <ele>335.79998779297</ele>
        <time>2017-07-22T11:55:29Z</time>
      </trkpt>
      <trkpt lat="47.46824" lon="6.72506">
        <ele>336.60000610352</ele>
        <time>2017-07-22T11:55:36Z</time>
      </trkpt>
      <trkpt lat="47.4682" lon="6.72503">
        <ele>336.60000610352</ele>
        <time>2017-07-22T11:55:38Z</time>
      </trkpt>
      <trkpt lat="47.46807" lon="6.72494">
        <ele>337.60000610352</ele>
        <time>2017-07-22T11:55:44Z</time>
      </trkpt>
      <trkpt lat="47.46802" lon="6.72489">
        <ele>338</ele>
        <time>2017-07-22T11:55:47Z</time>
      </trkpt>
      <trkpt lat="47.4679" lon="6.72481">
        <ele>338.60000610352</ele>
        <time>2017-07-22T11:55:53Z</time>
      </trkpt>
      <trkpt lat="47.46788" lon="6.72479">
        <ele>338.79998779297</ele>
        <time>2017-07-22T11:55:54Z</time>
      </trkpt>
      <trkpt lat="47.46775" lon="6.72474">
        <ele>339.60000610352</ele>
        <time>2017-07-22T11:56:00Z</time>
      </trkpt>
      <trkpt lat="47.46768" lon="6.72469">
        <ele>340</ele>
        <time>2017-07-22T11:56:03Z</time>
      </trkpt>
      <trkpt lat="47.46757" lon="6.72464">
        <ele>340.60000610352</ele>
        <time>2017-07-22T11:56:08Z</time>
      </trkpt>
      <trkpt lat="47.46752" lon="6.72457">
        <ele>341.20001220703</ele>
        <time>2017-07-22T11:56:11Z</time>
      </trkpt>
      <trkpt lat="47.46742" lon="6.72448">
        <ele>341.79998779297</ele>
        <time>2017-07-22T11:56:16Z</time>
      </trkpt>
      <trkpt lat="47.46734" lon="6.7244">
        <ele>342.39999389648</ele>
        <time>2017-07-22T11:56:20Z</time>
      </trkpt>
      <trkpt lat="47.46731" lon="6.72435">
        <ele>343</ele>
        <time>2017-07-22T11:56:22Z</time>
      </trkpt>
      <trkpt lat="47.46723" lon="6.72423">
        <ele>343.79998779297</ele>
        <time>2017-07-22T11:56:27Z</time>
      </trkpt>
      <trkpt lat="47.46722" lon="6.7242">
        <ele>344</ele>
        <time>2017-07-22T11:56:28Z</time>
      </trkpt>
      <trkpt lat="47.4671" lon="6.72404">
        <ele>345</ele>
        <time>2017-07-22T11:56:35Z</time>
      </trkpt>
      <trkpt lat="47.46708" lon="6.72401">
        <ele>345.20001220703</ele>
        <time>2017-07-22T11:56:36Z</time>
      </trkpt>
      <trkpt lat="47.46699" lon="6.72385">
        <ele>346.20001220703</ele>
        <time>2017-07-22T11:56:42Z</time>
      </trkpt>
      <trkpt lat="47.46698" lon="6.72382">
        <ele>346.20001220703</ele>
        <time>2017-07-22T11:56:43Z</time>
      </trkpt>
      <trkpt lat="47.46688" lon="6.72362">
        <ele>347.20001220703</ele>
        <time>2017-07-22T11:56:50Z</time>
      </trkpt>
      <trkpt lat="47.46675" lon="6.72341">
        <ele>347.79998779297</ele>
        <time>2017-07-22T11:56:58Z</time>
      </trkpt>
      <trkpt lat="47.4667" lon="6.72331">
        <ele>348.20001220703</ele>
        <time>2017-07-22T11:57:01Z</time>
      </trkpt>
      <trkpt lat="47.46662" lon="6.72311">
        <ele>348.39999389648</ele>
        <time>2017-07-22T11:57:06Z</time>
      </trkpt>
      <trkpt lat="47.46654" lon="6.72279">
        <ele>348.60000610352</ele>
        <time>2017-07-22T11:57:12Z</time>
      </trkpt>
      <trkpt lat="47.4664" lon="6.7223">
        <ele>348.79998779297</ele>
        <time>2017-07-22T11:57:20Z</time>
      </trkpt>
      <trkpt lat="47.46634" lon="6.72211">
        <ele>348.60000610352</ele>
        <time>2017-07-22T11:57:23Z</time>
      </trkpt>
      <trkpt lat="47.4663" lon="6.72199">
        <ele>348.60000610352</ele>
        <time>2017-07-22T11:57:25Z</time>
      </trkpt>
      <trkpt lat="47.46626" lon="6.72185">
        <ele>348.39999389648</ele>
        <time>2017-07-22T11:57:27Z</time>
      </trkpt>
      <trkpt lat="47.46621" lon="6.72172">
        <ele>348</ele>
        <time>2017-07-22T11:57:29Z</time>
      </trkpt>
      <trkpt lat="47.46615" lon="6.72158">
        <ele>347.79998779297</ele>
        <time>2017-07-22T11:57:31Z</time>
      </trkpt>
      <trkpt lat="47.46608" lon="6.72144">
        <ele>347.60000610352</ele>
        <time>2017-07-22T11:57:33Z</time>
      </trkpt>
      <trkpt lat="47.46604" lon="6.72131">
        <ele>347.20001220703</ele>
        <time>2017-07-22T11:57:35Z</time>
      </trkpt>
      <trkpt lat="47.46603" lon="6.72125">
        <ele>347.20001220703</ele>
        <time>2017-07-22T11:57:36Z</time>
      </trkpt>
      <trkpt lat="47.46593" lon="6.72086">
        <ele>346.79998779297</ele>
        <time>2017-07-22T11:57:43Z</time>
      </trkpt>
      <trkpt lat="47.46589" lon="6.72066">
        <ele>346.60000610352</ele>
        <time>2017-07-22T11:57:46Z</time>
      </trkpt>
      <trkpt lat="47.46584" lon="6.72044">
        <ele>346.39999389648</ele>
        <time>2017-07-22T11:57:49Z</time>
      </trkpt>
      <trkpt lat="47.46575" lon="6.72008">
        <ele>346.20001220703</ele>
        <time>2017-07-22T11:57:54Z</time>
      </trkpt>
      <trkpt lat="47.46569" lon="6.71985">
        <ele>345.79998779297</ele>
        <time>2017-07-22T11:57:57Z</time>
      </trkpt>
      <trkpt lat="47.46562" lon="6.71961">
        <ele>345.39999389648</ele>
        <time>2017-07-22T11:58:00Z</time>
      </trkpt>
      <trkpt lat="47.46558" lon="6.71952">
        <ele>345.20001220703</ele>
        <time>2017-07-22T11:58:01Z</time>
      </trkpt>
      <trkpt lat="47.46554" lon="6.71943">
        <ele>344.79998779297</ele>
        <time>2017-07-22T11:58:02Z</time>
      </trkpt>
      <trkpt lat="47.46541" lon="6.71913">
        <ele>343.39999389648</ele>
        <time>2017-07-22T11:58:06Z</time>
      </trkpt>
      <trkpt lat="47.46534" lon="6.71899">
        <ele>342.39999389648</ele>
        <time>2017-07-22T11:58:08Z</time>
      </trkpt>
      <trkpt lat="47.46529" lon="6.71884">
        <ele>341.20001220703</ele>
        <time>2017-07-22T11:58:10Z</time>
      </trkpt>
      <trkpt lat="47.46525" lon="6.71869">
        <ele>340.20001220703</ele>
        <time>2017-07-22T11:58:12Z</time>
      </trkpt>
      <trkpt lat="47.46523" lon="6.71862">
        <ele>340</ele>
        <time>2017-07-22T11:58:13Z</time>
      </trkpt>
      <trkpt lat="47.4651" lon="6.71811">
        <ele>339.20001220703</ele>
        <time>2017-07-22T11:58:19Z</time>
      </trkpt>
      <trkpt lat="47.46504" lon="6.71792">
        <ele>338.60000610352</ele>
        <time>2017-07-22T11:58:21Z</time>
      </trkpt>
      <trkpt lat="47.46494" lon="6.7176">
        <ele>337.39999389648</ele>
        <time>2017-07-22T11:58:24Z</time>
      </trkpt>
      <trkpt lat="47.46481" lon="6.71729">
        <ele>336.20001220703</ele>
        <time>2017-07-22T11:58:27Z</time>
      </trkpt>
      <trkpt lat="47.4647" lon="6.71708">
        <ele>335</ele>
        <time>2017-07-22T11:58:29Z</time>
      </trkpt>
      <trkpt lat="47.4646" lon="6.71684">
        <ele>333.79998779297</ele>
        <time>2017-07-22T11:58:31Z</time>
      </trkpt>
      <trkpt lat="47.46449" lon="6.71659">
        <ele>332.39999389648</ele>
        <time>2017-07-22T11:58:33Z</time>
      </trkpt>
      <trkpt lat="47.46443" lon="6.71647">
        <ele>331.79998779297</ele>
        <time>2017-07-22T11:58:34Z</time>
      </trkpt>
      <trkpt lat="47.46437" lon="6.71636">
        <ele>331.39999389648</ele>
        <time>2017-07-22T11:58:35Z</time>
      </trkpt>
      <trkpt lat="47.46426" lon="6.71617">
        <ele>330</ele>
        <time>2017-07-22T11:58:37Z</time>
      </trkpt>
      <trkpt lat="47.4642" lon="6.71608">
        <ele>329.39999389648</ele>
        <time>2017-07-22T11:58:38Z</time>
      </trkpt>
      <trkpt lat="47.46411" lon="6.71593">
        <ele>329</ele>
        <time>2017-07-22T11:58:40Z</time>
      </trkpt>
      <trkpt lat="47.46402" lon="6.7158">
        <ele>328.79998779297</ele>
        <time>2017-07-22T11:58:42Z</time>
      </trkpt>
      <trkpt lat="47.46388" lon="6.71556">
        <ele>330.20001220703</ele>
        <time>2017-07-22T11:58:46Z</time>
      </trkpt>
      <trkpt lat="47.46381" lon="6.71544">
        <ele>330.79998779297</ele>
        <time>2017-07-22T11:58:48Z</time>
      </trkpt>
      <trkpt lat="47.46379" lon="6.71538">
        <ele>331</ele>
        <time>2017-07-22T11:58:49Z</time>
      </trkpt>
      <trkpt lat="47.46374" lon="6.71525">
        <ele>331.39999389648</ele>
        <time>2017-07-22T11:58:51Z</time>
      </trkpt>
      <trkpt lat="47.46368" lon="6.71508">
        <ele>332.20001220703</ele>
        <time>2017-07-22T11:58:54Z</time>
      </trkpt>
      <trkpt lat="47.46365" lon="6.71497">
        <ele>332.60000610352</ele>
        <time>2017-07-22T11:58:56Z</time>
      </trkpt>
      <trkpt lat="47.46359" lon="6.71482">
        <ele>333.60000610352</ele>
        <time>2017-07-22T11:58:59Z</time>
      </trkpt>
      <trkpt lat="47.46356" lon="6.71477">
        <ele>333.79998779297</ele>
        <time>2017-07-22T11:59:00Z</time>
      </trkpt>
      <trkpt lat="47.46347" lon="6.71465">
        <ele>335</ele>
        <time>2017-07-22T11:59:03Z</time>
      </trkpt>
      <trkpt lat="47.46335" lon="6.71451">
        <ele>336.20001220703</ele>
        <time>2017-07-22T11:59:07Z</time>
      </trkpt>
      <trkpt lat="47.46332" lon="6.71447">
        <ele>336.39999389648</ele>
        <time>2017-07-22T11:59:08Z</time>
      </trkpt>
      <trkpt lat="47.46319" lon="6.71434">
        <ele>337.20001220703</ele>
        <time>2017-07-22T11:59:12Z</time>
      </trkpt>
      <trkpt lat="47.46316" lon="6.7143">
        <ele>337.39999389648</ele>
        <time>2017-07-22T11:59:13Z</time>
      </trkpt>
      <trkpt lat="47.46296" lon="6.71402">
        <ele>338.20001220703</ele>
        <time>2017-07-22T11:59:20Z</time>
      </trkpt>
      <trkpt lat="47.46291" lon="6.71392">
        <ele>338.39999389648</ele>
        <time>2017-07-22T11:59:22Z</time>
      </trkpt>
      <trkpt lat="47.46282" lon="6.71378">
        <ele>338.79998779297</ele>
        <time>2017-07-22T11:59:26Z</time>
      </trkpt>
      <trkpt lat="47.46274" lon="6.71362">
        <ele>339</ele>
        <time>2017-07-22T11:59:31Z</time>
      </trkpt>
      <trkpt lat="47.46268" lon="6.71339">
        <ele>339</ele>
        <time>2017-07-22T11:59:36Z</time>
      </trkpt>
      <trkpt lat="47.46254" lon="6.71308">
        <ele>339</ele>
        <time>2017-07-22T11:59:42Z</time>
      </trkpt>
      <trkpt lat="47.46229" lon="6.71265">
        <ele>338</ele>
        <time>2017-07-22T11:59:48Z</time>
      </trkpt>
      <trkpt lat="47.46225" lon="6.71256">
        <ele>337.79998779297</ele>
        <time>2017-07-22T11:59:49Z</time>
      </trkpt>
      <trkpt lat="47.4622" lon="6.71246">
        <ele>337.39999389648</ele>
        <time>2017-07-22T11:59:50Z</time>
      </trkpt>
      <trkpt lat="47.46206" lon="6.71215">
        <ele>336.20001220703</ele>
        <time>2017-07-22T11:59:53Z</time>
      </trkpt>
      <trkpt lat="47.46188" lon="6.71181">
        <ele>335</ele>
        <time>2017-07-22T11:59:56Z</time>
      </trkpt>
      <trkpt lat="47.46176" lon="6.71158">
        <ele>333.20001220703</ele>
        <time>2017-07-22T11:59:58Z</time>
      </trkpt>
      <trkpt lat="47.4617" lon="6.71146">
        <ele>332.60000610352</ele>
        <time>2017-07-22T11:59:59Z</time>
      </trkpt>
      <trkpt lat="47.46164" lon="6.71135">
        <ele>332</ele>
        <time>2017-07-22T12:00:00Z</time>
      </trkpt>
      <trkpt lat="47.46153" lon="6.71113">
        <ele>331</ele>
        <time>2017-07-22T12:00:02Z</time>
      </trkpt>
      <trkpt lat="47.46147" lon="6.71104">
        <ele>330.39999389648</ele>
        <time>2017-07-22T12:00:03Z</time>
      </trkpt>
      <trkpt lat="47.46142" lon="6.71094">
        <ele>330</ele>
        <time>2017-07-22T12:00:04Z</time>
      </trkpt>
      <trkpt lat="47.46132" lon="6.71075">
        <ele>328.79998779297</ele>
        <time>2017-07-22T12:00:06Z</time>
      </trkpt>
      <trkpt lat="47.46122" lon="6.71055">
        <ele>327.79998779297</ele>
        <time>2017-07-22T12:00:08Z</time>
      </trkpt>
      <trkpt lat="47.46108" lon="6.71023">
        <ele>326.39999389648</ele>
        <time>2017-07-22T12:00:11Z</time>
      </trkpt>
      <trkpt lat="47.46094" lon="6.70988">
        <ele>325.39999389648</ele>
        <time>2017-07-22T12:00:14Z</time>
      </trkpt>
      <trkpt lat="47.46079" lon="6.70952">
        <ele>324.20001220703</ele>
        <time>2017-07-22T12:00:17Z</time>
      </trkpt>
      <trkpt lat="47.46074" lon="6.70939">
        <ele>323.79998779297</ele>
        <time>2017-07-22T12:00:18Z</time>
      </trkpt>
      <trkpt lat="47.4607" lon="6.70927">
        <ele>323.20001220703</ele>
        <time>2017-07-22T12:00:19Z</time>
      </trkpt>
      <trkpt lat="47.46064" lon="6.70902">
        <ele>321.79998779297</ele>
        <time>2017-07-22T12:00:21Z</time>
      </trkpt>
      <trkpt lat="47.4606" lon="6.70889">
        <ele>320.79998779297</ele>
        <time>2017-07-22T12:00:22Z</time>
      </trkpt>
      <trkpt lat="47.46058" lon="6.70876">
        <ele>320</ele>
        <time>2017-07-22T12:00:23Z</time>
      </trkpt>
      <trkpt lat="47.46055" lon="6.70863">
        <ele>319.39999389648</ele>
        <time>2017-07-22T12:00:24Z</time>
      </trkpt>
      <trkpt lat="47.4605" lon="6.70824">
        <ele>318.20001220703</ele>
        <time>2017-07-22T12:00:27Z</time>
      </trkpt>
      <trkpt lat="47.4605" lon="6.70811">
        <ele>317.79998779297</ele>
        <time>2017-07-22T12:00:28Z</time>
      </trkpt>
      <trkpt lat="47.4605" lon="6.70785">
        <ele>317</ele>
        <time>2017-07-22T12:00:30Z</time>
      </trkpt>
      <trkpt lat="47.46052" lon="6.70748">
        <ele>315.79998779297</ele>
        <time>2017-07-22T12:00:33Z</time>
      </trkpt>
      <trkpt lat="47.46054" lon="6.70736">
        <ele>315.60000610352</ele>
        <time>2017-07-22T12:00:34Z</time>
      </trkpt>
      <trkpt lat="47.46061" lon="6.7068">
        <ele>315.39999389648</ele>
        <time>2017-07-22T12:00:39Z</time>
      </trkpt>
      <trkpt lat="47.46061" lon="6.70669">
        <ele>315.20001220703</ele>
        <time>2017-07-22T12:00:40Z</time>
      </trkpt>
      <trkpt lat="47.46057" lon="6.70628">
        <ele>314.79998779297</ele>
        <time>2017-07-22T12:00:44Z</time>
      </trkpt>
      <trkpt lat="47.46056" lon="6.70617">
        <ele>314.60000610352</ele>
        <time>2017-07-22T12:00:45Z</time>
      </trkpt>
      <trkpt lat="47.46047" lon="6.70547">
        <ele>313.79998779297</ele>
        <time>2017-07-22T12:00:52Z</time>
      </trkpt>
      <trkpt lat="47.4604" lon="6.70519">
        <ele>313.60000610352</ele>
        <time>2017-07-22T12:00:55Z</time>
      </trkpt>
      <trkpt lat="47.46031" lon="6.7049">
        <ele>313</ele>
        <time>2017-07-22T12:00:58Z</time>
      </trkpt>
      <trkpt lat="47.46018" lon="6.7045">
        <ele>312.39999389648</ele>
        <time>2017-07-22T12:01:02Z</time>
      </trkpt>
      <trkpt lat="47.46011" lon="6.70429">
        <ele>312</ele>
        <time>2017-07-22T12:01:04Z</time>
      </trkpt>
      <trkpt lat="47.46004" lon="6.70408">
        <ele>311.39999389648</ele>
        <time>2017-07-22T12:01:06Z</time>
      </trkpt>
      <trkpt lat="47.45992" lon="6.70364">
        <ele>310.20001220703</ele>
        <time>2017-07-22T12:01:10Z</time>
      </trkpt>
      <trkpt lat="47.4598" lon="6.70308">
        <ele>309.20001220703</ele>
        <time>2017-07-22T12:01:15Z</time>
      </trkpt>
      <trkpt lat="47.45972" lon="6.70264">
        <ele>308.20001220703</ele>
        <time>2017-07-22T12:01:19Z</time>
      </trkpt>
      <trkpt lat="47.4597" lon="6.70253">
        <ele>308</ele>
        <time>2017-07-22T12:01:20Z</time>
      </trkpt>
      <trkpt lat="47.4596" lon="6.70208">
        <ele>306.79998779297</ele>
        <time>2017-07-22T12:01:24Z</time>
      </trkpt>
      <trkpt lat="47.45954" lon="6.70174">
        <ele>306.20001220703</ele>
        <time>2017-07-22T12:01:27Z</time>
      </trkpt>
      <trkpt lat="47.45949" lon="6.70152">
        <ele>305.79998779297</ele>
        <time>2017-07-22T12:01:29Z</time>
      </trkpt>
      <trkpt lat="47.45944" lon="6.70105">
        <ele>305</ele>
        <time>2017-07-22T12:01:33Z</time>
      </trkpt>
      <trkpt lat="47.45943" lon="6.70093">
        <ele>304.60000610352</ele>
        <time>2017-07-22T12:01:34Z</time>
      </trkpt>
      <trkpt lat="47.45942" lon="6.70033">
        <ele>303.39999389648</ele>
        <time>2017-07-22T12:01:39Z</time>
      </trkpt>
      <trkpt lat="47.45943" lon="6.70022">
        <ele>303.20001220703</ele>
        <time>2017-07-22T12:01:40Z</time>
      </trkpt>
      <trkpt lat="47.45947" lon="6.69975">
        <ele>302.20001220703</ele>
        <time>2017-07-22T12:01:44Z</time>
      </trkpt>
      <trkpt lat="47.4595" lon="6.69953">
        <ele>302.20001220703</ele>
        <time>2017-07-22T12:01:46Z</time>
      </trkpt>
      <trkpt lat="47.45958" lon="6.69867">
        <ele>301</ele>
        <time>2017-07-22T12:01:54Z</time>
      </trkpt>
      <trkpt lat="47.4596" lon="6.69844">
        <ele>300.39999389648</ele>
        <time>2017-07-22T12:01:56Z</time>
      </trkpt>
      <trkpt lat="47.4596" lon="6.69821">
        <ele>300</ele>
        <time>2017-07-22T12:01:58Z</time>
      </trkpt>
      <trkpt lat="47.4596" lon="6.6981">
        <ele>299.39999389648</ele>
        <time>2017-07-22T12:01:59Z</time>
      </trkpt>
      <trkpt lat="47.45957" lon="6.69787">
        <ele>298.60000610352</ele>
        <time>2017-07-22T12:02:01Z</time>
      </trkpt>
      <trkpt lat="47.45952" lon="6.69752">
        <ele>297.39999389648</ele>
        <time>2017-07-22T12:02:04Z</time>
      </trkpt>
      <trkpt lat="47.45948" lon="6.69718">
        <ele>296.39999389648</ele>
        <time>2017-07-22T12:02:07Z</time>
      </trkpt>
      <trkpt lat="47.45946" lon="6.69707">
        <ele>296</ele>
        <time>2017-07-22T12:02:08Z</time>
      </trkpt>
      <trkpt lat="47.45941" lon="6.69674">
        <ele>295.39999389648</ele>
        <time>2017-07-22T12:02:11Z</time>
      </trkpt>
      <trkpt lat="47.4593" lon="6.69621">
        <ele>294.39999389648</ele>
        <time>2017-07-22T12:02:16Z</time>
      </trkpt>
      <trkpt lat="47.45927" lon="6.69611">
        <ele>294.20001220703</ele>
        <time>2017-07-22T12:02:17Z</time>
      </trkpt>
      <trkpt lat="47.45911" lon="6.6955">
        <ele>293</ele>
        <time>2017-07-22T12:02:23Z</time>
      </trkpt>
      <trkpt lat="47.45908" lon="6.6954">
        <ele>293</ele>
        <time>2017-07-22T12:02:24Z</time>
      </trkpt>
      <trkpt lat="47.45892" lon="6.69501">
        <ele>292.79998779297</ele>
        <time>2017-07-22T12:02:28Z</time>
      </trkpt>
      <trkpt lat="47.45874" lon="6.69465">
        <ele>291.79998779297</ele>
        <time>2017-07-22T12:02:32Z</time>
      </trkpt>
      <trkpt lat="47.45864" lon="6.69449">
        <ele>291.60000610352</ele>
        <time>2017-07-22T12:02:34Z</time>
      </trkpt>
      <trkpt lat="47.45824" lon="6.69394">
        <ele>291</ele>
        <time>2017-07-22T12:02:42Z</time>
      </trkpt>
      <trkpt lat="47.45793" lon="6.69364">
        <ele>290.79998779297</ele>
        <time>2017-07-22T12:02:48Z</time>
      </trkpt>
      <trkpt lat="47.45774" lon="6.69347">
        <ele>290.79998779297</ele>
        <time>2017-07-22T12:02:52Z</time>
      </trkpt>
      <trkpt lat="47.45757" lon="6.69332">
        <ele>290.20001220703</ele>
        <time>2017-07-22T12:02:56Z</time>
      </trkpt>
      <trkpt lat="47.45748" lon="6.69325">
        <ele>290.20001220703</ele>
        <time>2017-07-22T12:02:58Z</time>
      </trkpt>
      <trkpt lat="47.45737" lon="6.69315">
        <ele>290</ele>
        <time>2017-07-22T12:03:01Z</time>
      </trkpt>
      <trkpt lat="47.45734" lon="6.69311">
        <ele>290</ele>
        <time>2017-07-22T12:03:02Z</time>
      </trkpt>
      <trkpt lat="47.45721" lon="6.69302">
        <ele>289.79998779297</ele>
        <time>2017-07-22T12:03:05Z</time>
      </trkpt>
      <trkpt lat="47.45717" lon="6.69298">
        <ele>289.60000610352</ele>
        <time>2017-07-22T12:03:06Z</time>
      </trkpt>
      <trkpt lat="47.45692" lon="6.69276">
        <ele>289.20001220703</ele>
        <time>2017-07-22T12:03:12Z</time>
      </trkpt>
      <trkpt lat="47.45664" lon="6.69248">
        <ele>289</ele>
        <time>2017-07-22T12:03:19Z</time>
      </trkpt>
      <trkpt lat="47.45644" lon="6.69226">
        <ele>289.20001220703</ele>
        <time>2017-07-22T12:03:24Z</time>
      </trkpt>
      <trkpt lat="47.45637" lon="6.69217">
        <ele>289.20001220703</ele>
        <time>2017-07-22T12:03:26Z</time>
      </trkpt>
      <trkpt lat="47.45633" lon="6.69213">
        <ele>289.20001220703</ele>
        <time>2017-07-22T12:03:27Z</time>
      </trkpt>
      <trkpt lat="47.4562" lon="6.69197">
        <ele>289</ele>
        <time>2017-07-22T12:03:31Z</time>
      </trkpt>
      <trkpt lat="47.45603" lon="6.69176">
        <ele>289</ele>
        <time>2017-07-22T12:03:36Z</time>
      </trkpt>
      <trkpt lat="47.45598" lon="6.69167">
        <ele>289</ele>
        <time>2017-07-22T12:03:38Z</time>
      </trkpt>
      <trkpt lat="47.45579" lon="6.69139">
        <ele>289</ele>
        <time>2017-07-22T12:03:44Z</time>
      </trkpt>
      <trkpt lat="47.45552" lon="6.69112">
        <ele>289</ele>
        <time>2017-07-22T12:03:50Z</time>
      </trkpt>
      <trkpt lat="47.45547" lon="6.69107">
        <ele>289</ele>
        <time>2017-07-22T12:03:51Z</time>
      </trkpt>
      <trkpt lat="47.45523" lon="6.69083">
        <ele>289.20001220703</ele>
        <time>2017-07-22T12:03:56Z</time>
      </trkpt>
      <trkpt lat="47.45487" lon="6.6906">
        <ele>289.39999389648</ele>
        <time>2017-07-22T12:04:03Z</time>
      </trkpt>
      <trkpt lat="47.45477" lon="6.69053">
        <ele>289.39999389648</ele>
        <time>2017-07-22T12:04:05Z</time>
      </trkpt>
      <trkpt lat="47.45462" lon="6.69045">
        <ele>289.39999389648</ele>
        <time>2017-07-22T12:04:08Z</time>
      </trkpt>
      <trkpt lat="47.45457" lon="6.69041">
        <ele>289.39999389648</ele>
        <time>2017-07-22T12:04:09Z</time>
      </trkpt>
      <trkpt lat="47.45438" lon="6.69023">
        <ele>289.20001220703</ele>
        <time>2017-07-22T12:04:13Z</time>
      </trkpt>
      <trkpt lat="47.45434" lon="6.69017">
        <ele>289.20001220703</ele>
        <time>2017-07-22T12:04:14Z</time>
      </trkpt>
      <trkpt lat="47.4542" lon="6.68992">
        <ele>289</ele>
        <time>2017-07-22T12:04:18Z</time>
      </trkpt>
      <trkpt lat="47.45414" lon="6.6898">
        <ele>289</ele>
        <time>2017-07-22T12:04:20Z</time>
      </trkpt>
      <trkpt lat="47.45411" lon="6.68975">
        <ele>288.79998779297</ele>
        <time>2017-07-22T12:04:21Z</time>
      </trkpt>
      <trkpt lat="47.45408" lon="6.68963">
        <ele>288.60000610352</ele>
        <time>2017-07-22T12:04:23Z</time>
      </trkpt>
      <trkpt lat="47.45412" lon="6.68952">
        <ele>288.60000610352</ele>
        <time>2017-07-22T12:04:25Z</time>
      </trkpt>
      <trkpt lat="47.45421" lon="6.68946">
        <ele>288.39999389648</ele>
        <time>2017-07-22T12:04:27Z</time>
      </trkpt>
      <trkpt lat="47.45426" lon="6.68942">
        <ele>288.39999389648</ele>
        <time>2017-07-22T12:04:28Z</time>
      </trkpt>
      <trkpt lat="47.4543" lon="6.68937">
        <ele>288.20001220703</ele>
        <time>2017-07-22T12:04:29Z</time>
      </trkpt>
      <trkpt lat="47.45469" lon="6.68904">
        <ele>288.39999389648</ele>
        <time>2017-07-22T12:04:37Z</time>
      </trkpt>
      <trkpt lat="47.45474" lon="6.68901">
        <ele>288.39999389648</ele>
        <time>2017-07-22T12:04:38Z</time>
      </trkpt>
      <trkpt lat="47.4549" lon="6.68893">
        <ele>288.39999389648</ele>
        <time>2017-07-22T12:04:41Z</time>
      </trkpt>
      <trkpt lat="47.455" lon="6.68886">
        <ele>288.39999389648</ele>
        <time>2017-07-22T12:04:43Z</time>
      </trkpt>
      <trkpt lat="47.45505" lon="6.6888">
        <ele>288.60000610352</ele>
        <time>2017-07-22T12:04:44Z</time>
      </trkpt>
      <trkpt lat="47.45519" lon="6.68862">
        <ele>288.79998779297</ele>
        <time>2017-07-22T12:04:48Z</time>
      </trkpt>
      <trkpt lat="47.4552" lon="6.68857">
        <ele>289</ele>
        <time>2017-07-22T12:04:49Z</time>
      </trkpt>
      <trkpt lat="47.45514" lon="6.68846">
        <ele>289.39999389648</ele>
        <time>2017-07-22T12:04:52Z</time>
      </trkpt>
      <trkpt lat="47.45511" lon="6.68842">
        <ele>289.39999389648</ele>
        <time>2017-07-22T12:04:53Z</time>
      </trkpt>
      <trkpt lat="47.45494" lon="6.68826">
        <ele>289.60000610352</ele>
        <time>2017-07-22T12:04:57Z</time>
      </trkpt>
      <trkpt lat="47.4549" lon="6.68821">
        <ele>289.60000610352</ele>
        <time>2017-07-22T12:04:58Z</time>
      </trkpt>
      <trkpt lat="47.45468" lon="6.68798">
        <ele>290</ele>
        <time>2017-07-22T12:05:03Z</time>
      </trkpt>
      <trkpt lat="47.45459" lon="6.68789">
        <ele>290</ele>
        <time>2017-07-22T12:05:05Z</time>
      </trkpt>
      <trkpt lat="47.45429" lon="6.68755">
        <ele>290</ele>
        <time>2017-07-22T12:05:12Z</time>
      </trkpt>
      <trkpt lat="47.4539" lon="6.68712">
        <ele>289.60000610352</ele>
        <time>2017-07-22T12:05:21Z</time>
      </trkpt>
      <trkpt lat="47.45356" lon="6.68672">
        <ele>289.79998779297</ele>
        <time>2017-07-22T12:05:29Z</time>
      </trkpt>
      <trkpt lat="47.45316" lon="6.68628">
        <ele>289.20001220703</ele>
        <time>2017-07-22T12:05:38Z</time>
      </trkpt>
      <trkpt lat="47.4528" lon="6.68586">
        <ele>289</ele>
        <time>2017-07-22T12:05:46Z</time>
      </trkpt>
      <trkpt lat="47.45247" lon="6.68538">
        <ele>289</ele>
        <time>2017-07-22T12:05:54Z</time>
      </trkpt>
      <trkpt lat="47.45211" lon="6.68482">
        <ele>289.20001220703</ele>
        <time>2017-07-22T12:06:03Z</time>
      </trkpt>
      <trkpt lat="47.45177" lon="6.68419">
        <ele>289.20001220703</ele>
        <time>2017-07-22T12:06:12Z</time>
      </trkpt>
      <trkpt lat="47.45149" lon="6.6836">
        <ele>289.20001220703</ele>
        <time>2017-07-22T12:06:20Z</time>
      </trkpt>
      <trkpt lat="47.45119" lon="6.68293">
        <ele>289.39999389648</ele>
        <time>2017-07-22T12:06:29Z</time>
      </trkpt>
      <trkpt lat="47.45113" lon="6.68278">
        <ele>289.60000610352</ele>
        <time>2017-07-22T12:06:31Z</time>
      </trkpt>
      <trkpt lat="47.45088" lon="6.68208">
        <ele>289.39999389648</ele>
        <time>2017-07-22T12:06:40Z</time>
      </trkpt>
      <trkpt lat="47.45066" lon="6.68134">
        <ele>289.20001220703</ele>
        <time>2017-07-22T12:06:49Z</time>
      </trkpt>
      <trkpt lat="47.45064" lon="6.68125">
        <ele>289.20001220703</ele>
        <time>2017-07-22T12:06:50Z</time>
      </trkpt>
      <trkpt lat="47.45046" lon="6.68059">
        <ele>289.20001220703</ele>
        <time>2017-07-22T12:06:58Z</time>
      </trkpt>
      <trkpt lat="47.45031" lon="6.67982">
        <ele>289.20001220703</ele>
        <time>2017-07-22T12:07:07Z</time>
      </trkpt>
      <trkpt lat="47.45018" lon="6.67897">
        <ele>289.20001220703</ele>
        <time>2017-07-22T12:07:17Z</time>
      </trkpt>
      <trkpt lat="47.45009" lon="6.67829">
        <ele>289.20001220703</ele>
        <time>2017-07-22T12:07:25Z</time>
      </trkpt>
      <trkpt lat="47.45004" lon="6.6776">
        <ele>289.39999389648</ele>
        <time>2017-07-22T12:07:33Z</time>
      </trkpt>
      <trkpt lat="47.44998" lon="6.6768">
        <ele>289.39999389648</ele>
        <time>2017-07-22T12:07:42Z</time>
      </trkpt>
      <trkpt lat="47.44997" lon="6.67672">
        <ele>289.39999389648</ele>
        <time>2017-07-22T12:07:43Z</time>
      </trkpt>
      <trkpt lat="47.44993" lon="6.67596">
        <ele>289.60000610352</ele>
        <time>2017-07-22T12:07:52Z</time>
      </trkpt>
      <trkpt lat="47.44989" lon="6.67539">
        <ele>289.20001220703</ele>
        <time>2017-07-22T12:07:59Z</time>
      </trkpt>
      <trkpt lat="47.44985" lon="6.67483">
        <ele>289.20001220703</ele>
        <time>2017-07-22T12:08:05Z</time>
      </trkpt>
      <trkpt lat="47.4498" lon="6.67438">
        <ele>288.60000610352</ele>
        <time>2017-07-22T12:08:09Z</time>
      </trkpt>
      <trkpt lat="47.44977" lon="6.67405">
        <ele>287.60000610352</ele>
        <time>2017-07-22T12:08:12Z</time>
      </trkpt>
      <trkpt lat="47.44975" lon="6.67383">
        <ele>287.39999389648</ele>
        <time>2017-07-22T12:08:14Z</time>
      </trkpt>
      <trkpt lat="47.4497" lon="6.67311">
        <ele>287.20001220703</ele>
        <time>2017-07-22T12:08:21Z</time>
      </trkpt>
      <trkpt lat="47.44964" lon="6.67232">
        <ele>287.20001220703</ele>
        <time>2017-07-22T12:08:29Z</time>
      </trkpt>
      <trkpt lat="47.44957" lon="6.67145">
        <ele>286.79998779297</ele>
        <time>2017-07-22T12:08:38Z</time>
      </trkpt>
      <trkpt lat="47.44952" lon="6.6708">
        <ele>287</ele>
        <time>2017-07-22T12:08:45Z</time>
      </trkpt>
      <trkpt lat="47.44948" lon="6.67013">
        <ele>286.79998779297</ele>
        <time>2017-07-22T12:08:52Z</time>
      </trkpt>
      <trkpt lat="47.44941" lon="6.66925">
        <ele>287.39999389648</ele>
        <time>2017-07-22T12:09:01Z</time>
      </trkpt>
      <trkpt lat="47.44934" lon="6.66849">
        <ele>287.39999389648</ele>
        <time>2017-07-22T12:09:09Z</time>
      </trkpt>
      <trkpt lat="47.44928" lon="6.66783">
        <ele>287.39999389648</ele>
        <time>2017-07-22T12:09:16Z</time>
      </trkpt>
      <trkpt lat="47.44923" lon="6.66709">
        <ele>287.20001220703</ele>
        <time>2017-07-22T12:09:24Z</time>
      </trkpt>
      <trkpt lat="47.44916" lon="6.66623">
        <ele>287</ele>
        <time>2017-07-22T12:09:33Z</time>
      </trkpt>
      <trkpt lat="47.4491" lon="6.66535">
        <ele>287.20001220703</ele>
        <time>2017-07-22T12:09:42Z</time>
      </trkpt>
      <trkpt lat="47.44904" lon="6.66459">
        <ele>287.20001220703</ele>
        <time>2017-07-22T12:09:50Z</time>
      </trkpt>
      <trkpt lat="47.44897" lon="6.66383">
        <ele>287.20001220703</ele>
        <time>2017-07-22T12:09:58Z</time>
      </trkpt>
      <trkpt lat="47.44891" lon="6.66296">
        <ele>287.20001220703</ele>
        <time>2017-07-22T12:10:07Z</time>
      </trkpt>
      <trkpt lat="47.44885" lon="6.6621">
        <ele>287.20001220703</ele>
        <time>2017-07-22T12:10:16Z</time>
      </trkpt>
      <trkpt lat="47.44879" lon="6.6613">
        <ele>287.20001220703</ele>
        <time>2017-07-22T12:10:24Z</time>
      </trkpt>
      <trkpt lat="47.44876" lon="6.661">
        <ele>287.20001220703</ele>
        <time>2017-07-22T12:10:27Z</time>
      </trkpt>
      <trkpt lat="47.44872" lon="6.66038">
        <ele>287.20001220703</ele>
        <time>2017-07-22T12:10:33Z</time>
      </trkpt>
      <trkpt lat="47.44866" lon="6.65957">
        <ele>287.39999389648</ele>
        <time>2017-07-22T12:10:41Z</time>
      </trkpt>
      <trkpt lat="47.44864" lon="6.65927">
        <ele>287.39999389648</ele>
        <time>2017-07-22T12:10:44Z</time>
      </trkpt>
      <trkpt lat="47.44857" lon="6.65847">
        <ele>287.79998779297</ele>
        <time>2017-07-22T12:10:52Z</time>
      </trkpt>
      <trkpt lat="47.44856" lon="6.65836">
        <ele>287.79998779297</ele>
        <time>2017-07-22T12:10:53Z</time>
      </trkpt>
      <trkpt lat="47.4485" lon="6.65756">
        <ele>287.79998779297</ele>
        <time>2017-07-22T12:11:01Z</time>
      </trkpt>
      <trkpt lat="47.44849" lon="6.65737">
        <ele>287.79998779297</ele>
        <time>2017-07-22T12:11:03Z</time>
      </trkpt>
      <trkpt lat="47.44844" lon="6.65668">
        <ele>287.60000610352</ele>
        <time>2017-07-22T12:11:10Z</time>
      </trkpt>
      <trkpt lat="47.44836" lon="6.65581">
        <ele>287.79998779297</ele>
        <time>2017-07-22T12:11:19Z</time>
      </trkpt>
      <trkpt lat="47.44835" lon="6.65552">
        <ele>287.79998779297</ele>
        <time>2017-07-22T12:11:22Z</time>
      </trkpt>
      <trkpt lat="47.44828" lon="6.65464">
        <ele>287.60000610352</ele>
        <time>2017-07-22T12:11:31Z</time>
      </trkpt>
      <trkpt lat="47.44821" lon="6.6538">
        <ele>287.60000610352</ele>
        <time>2017-07-22T12:11:40Z</time>
      </trkpt>
      <trkpt lat="47.44819" lon="6.65352">
        <ele>287.60000610352</ele>
        <time>2017-07-22T12:11:43Z</time>
      </trkpt>
      <trkpt lat="47.44813" lon="6.6527">
        <ele>287.60000610352</ele>
        <time>2017-07-22T12:11:52Z</time>
      </trkpt>
      <trkpt lat="47.44807" lon="6.65191">
        <ele>287.79998779297</ele>
        <time>2017-07-22T12:12:01Z</time>
      </trkpt>
      <trkpt lat="47.448" lon="6.65106">
        <ele>287.79998779297</ele>
        <time>2017-07-22T12:12:11Z</time>
      </trkpt>
      <trkpt lat="47.44795" lon="6.65021">
        <ele>287.79998779297</ele>
        <time>2017-07-22T12:12:21Z</time>
      </trkpt>
      <trkpt lat="47.44789" lon="6.64974">
        <ele>287.60000610352</ele>
        <time>2017-07-22T12:12:27Z</time>
      </trkpt>
      <trkpt lat="47.44786" lon="6.64957">
        <ele>287.60000610352</ele>
        <time>2017-07-22T12:12:31Z</time>
      </trkpt>
      <trkpt lat="47.44785" lon="6.64936">
        <ele>287.20001220703</ele>
        <time>2017-07-22T12:12:35Z</time>
      </trkpt>
      <trkpt lat="47.44784" lon="6.64922">
        <ele>287</ele>
        <time>2017-07-22T12:12:37Z</time>
      </trkpt>
      <trkpt lat="47.44784" lon="6.649">
        <ele>286.20001220703</ele>
        <time>2017-07-22T12:12:40Z</time>
      </trkpt>
      <trkpt lat="47.44783" lon="6.64891">
        <ele>286</ele>
        <time>2017-07-22T12:12:41Z</time>
      </trkpt>
      <trkpt lat="47.4478" lon="6.64855">
        <ele>285.20001220703</ele>
        <time>2017-07-22T12:12:45Z</time>
      </trkpt>
      <trkpt lat="47.44778" lon="6.64828">
        <ele>285</ele>
        <time>2017-07-22T12:12:48Z</time>
      </trkpt>
      <trkpt lat="47.44774" lon="6.64765">
        <ele>285</ele>
        <time>2017-07-22T12:12:55Z</time>
      </trkpt>
      <trkpt lat="47.44768" lon="6.64704">
        <ele>285</ele>
        <time>2017-07-22T12:13:02Z</time>
      </trkpt>
      <trkpt lat="47.44764" lon="6.64651">
        <ele>285.20001220703</ele>
        <time>2017-07-22T12:13:08Z</time>
      </trkpt>
      <trkpt lat="47.44759" lon="6.6458">
        <ele>285.20001220703</ele>
        <time>2017-07-22T12:13:16Z</time>
      </trkpt>
      <trkpt lat="47.44752" lon="6.645">
        <ele>285</ele>
        <time>2017-07-22T12:13:25Z</time>
      </trkpt>
      <trkpt lat="47.44752" lon="6.64491">
        <ele>285</ele>
        <time>2017-07-22T12:13:26Z</time>
      </trkpt>
      <trkpt lat="47.44747" lon="6.64428">
        <ele>285</ele>
        <time>2017-07-22T12:13:33Z</time>
      </trkpt>
      <trkpt lat="47.44746" lon="6.64419">
        <ele>285</ele>
        <time>2017-07-22T12:13:34Z</time>
      </trkpt>
      <trkpt lat="47.4474" lon="6.64357">
        <ele>285</ele>
        <time>2017-07-22T12:13:41Z</time>
      </trkpt>
      <trkpt lat="47.44737" lon="6.64301">
        <ele>285</ele>
        <time>2017-07-22T12:13:48Z</time>
      </trkpt>
      <trkpt lat="47.44733" lon="6.64248">
        <ele>285.20001220703</ele>
        <time>2017-07-22T12:13:54Z</time>
      </trkpt>
      <trkpt lat="47.44726" lon="6.64167">
        <ele>285.20001220703</ele>
        <time>2017-07-22T12:14:03Z</time>
      </trkpt>
      <trkpt lat="47.44721" lon="6.64098">
        <ele>285</ele>
        <time>2017-07-22T12:14:11Z</time>
      </trkpt>
      <trkpt lat="47.44716" lon="6.64034">
        <ele>284.79998779297</ele>
        <time>2017-07-22T12:14:19Z</time>
      </trkpt>
      <trkpt lat="47.44711" lon="6.63979">
        <ele>284.79998779297</ele>
        <time>2017-07-22T12:14:26Z</time>
      </trkpt>
      <trkpt lat="47.44707" lon="6.63917">
        <ele>284.79998779297</ele>
        <time>2017-07-22T12:14:33Z</time>
      </trkpt>
      <trkpt lat="47.44701" lon="6.63835">
        <ele>285</ele>
        <time>2017-07-22T12:14:42Z</time>
      </trkpt>
      <trkpt lat="47.44699" lon="6.63817">
        <ele>285.20001220703</ele>
        <time>2017-07-22T12:14:44Z</time>
      </trkpt>
      <trkpt lat="47.44693" lon="6.63731">
        <ele>285.20001220703</ele>
        <time>2017-07-22T12:14:53Z</time>
      </trkpt>
      <trkpt lat="47.44686" lon="6.63648">
        <ele>285.20001220703</ele>
        <time>2017-07-22T12:15:02Z</time>
      </trkpt>
      <trkpt lat="47.44685" lon="6.63639">
        <ele>285.20001220703</ele>
        <time>2017-07-22T12:15:03Z</time>
      </trkpt>
      <trkpt lat="47.4468" lon="6.63564">
        <ele>285.20001220703</ele>
        <time>2017-07-22T12:15:11Z</time>
      </trkpt>
      <trkpt lat="47.44674" lon="6.63492">
        <ele>285.20001220703</ele>
        <time>2017-07-22T12:15:19Z</time>
      </trkpt>
      <trkpt lat="47.44669" lon="6.6342">
        <ele>285</ele>
        <time>2017-07-22T12:15:27Z</time>
      </trkpt>
      <trkpt lat="47.44663" lon="6.63339">
        <ele>285.20001220703</ele>
        <time>2017-07-22T12:15:36Z</time>
      </trkpt>
      <trkpt lat="47.44662" lon="6.63321">
        <ele>285.20001220703</ele>
        <time>2017-07-22T12:15:38Z</time>
      </trkpt>
      <trkpt lat="47.44657" lon="6.6325">
        <ele>285.39999389648</ele>
        <time>2017-07-22T12:15:46Z</time>
      </trkpt>
      <trkpt lat="47.4465" lon="6.63169">
        <ele>285.20001220703</ele>
        <time>2017-07-22T12:15:55Z</time>
      </trkpt>
      <trkpt lat="47.44647" lon="6.63151">
        <ele>285.20001220703</ele>
        <time>2017-07-22T12:15:57Z</time>
      </trkpt>
      <trkpt lat="47.44639" lon="6.63128">
        <ele>285.20001220703</ele>
        <time>2017-07-22T12:16:00Z</time>
      </trkpt>
      <trkpt lat="47.4461" lon="6.63084">
        <ele>285</ele>
        <time>2017-07-22T12:16:07Z</time>
      </trkpt>
      <trkpt lat="47.4459" lon="6.63066">
        <ele>285</ele>
        <time>2017-07-22T12:16:11Z</time>
      </trkpt>
      <trkpt lat="47.44585" lon="6.63062">
        <ele>285</ele>
        <time>2017-07-22T12:16:12Z</time>
      </trkpt>
      <trkpt lat="47.44576" lon="6.63055">
        <ele>285</ele>
        <time>2017-07-22T12:16:14Z</time>
      </trkpt>
      <trkpt lat="47.44564" lon="6.63053">
        <ele>285</ele>
        <time>2017-07-22T12:16:16Z</time>
      </trkpt>
      <trkpt lat="47.44545" lon="6.63048">
        <ele>285</ele>
        <time>2017-07-22T12:16:19Z</time>
      </trkpt>
      <trkpt lat="47.44539" lon="6.63045">
        <ele>285</ele>
        <time>2017-07-22T12:16:20Z</time>
      </trkpt>
      <trkpt lat="47.44491" lon="6.63024">
        <ele>285</ele>
        <time>2017-07-22T12:16:28Z</time>
      </trkpt>
      <trkpt lat="47.44448" lon="6.63004">
        <ele>285</ele>
        <time>2017-07-22T12:16:35Z</time>
      </trkpt>
      <trkpt lat="47.44403" lon="6.62981">
        <ele>285</ele>
        <time>2017-07-22T12:16:42Z</time>
      </trkpt>
      <trkpt lat="47.44365" lon="6.62962">
        <ele>285.39999389648</ele>
        <time>2017-07-22T12:16:48Z</time>
      </trkpt>
      <trkpt lat="47.44335" lon="6.62947">
        <ele>285.20001220703</ele>
        <time>2017-07-22T12:16:53Z</time>
      </trkpt>
      <trkpt lat="47.44323" lon="6.62941">
        <ele>285.20001220703</ele>
        <time>2017-07-22T12:16:55Z</time>
      </trkpt>
      <trkpt lat="47.44279" lon="6.62922">
        <ele>285.20001220703</ele>
        <time>2017-07-22T12:17:02Z</time>
      </trkpt>
      <trkpt lat="47.44224" lon="6.62905">
        <ele>285.39999389648</ele>
        <time>2017-07-22T12:17:10Z</time>
      </trkpt>
      <trkpt lat="47.44185" lon="6.62895">
        <ele>285.39999389648</ele>
        <time>2017-07-22T12:17:16Z</time>
      </trkpt>
      <trkpt lat="47.44179" lon="6.62896">
        <ele>285.20001220703</ele>
        <time>2017-07-22T12:17:17Z</time>
      </trkpt>
      <trkpt lat="47.44159" lon="6.62896">
        <ele>285</ele>
        <time>2017-07-22T12:17:20Z</time>
      </trkpt>
      <trkpt lat="47.44146" lon="6.62892">
        <ele>285.20001220703</ele>
        <time>2017-07-22T12:17:22Z</time>
      </trkpt>
      <trkpt lat="47.44095" lon="6.62874">
        <ele>285.20001220703</ele>
        <time>2017-07-22T12:17:30Z</time>
      </trkpt>
      <trkpt lat="47.44083" lon="6.62867">
        <ele>285.20001220703</ele>
        <time>2017-07-22T12:17:32Z</time>
      </trkpt>
      <trkpt lat="47.44071" lon="6.62856">
        <ele>285.20001220703</ele>
        <time>2017-07-22T12:17:34Z</time>
      </trkpt>
      <trkpt lat="47.44066" lon="6.62852">
        <ele>285.20001220703</ele>
        <time>2017-07-22T12:17:35Z</time>
      </trkpt>
      <trkpt lat="47.44047" lon="6.62844">
        <ele>285.20001220703</ele>
        <time>2017-07-22T12:17:38Z</time>
      </trkpt>
      <trkpt lat="47.44003" lon="6.6283">
        <ele>285</ele>
        <time>2017-07-22T12:17:45Z</time>
      </trkpt>
      <trkpt lat="47.43946" lon="6.62813">
        <ele>285</ele>
        <time>2017-07-22T12:17:54Z</time>
      </trkpt>
      <trkpt lat="47.43933" lon="6.62813">
        <ele>285.20001220703</ele>
        <time>2017-07-22T12:17:56Z</time>
      </trkpt>
      <trkpt lat="47.4392" lon="6.62817">
        <ele>285.20001220703</ele>
        <time>2017-07-22T12:17:58Z</time>
      </trkpt>
      <trkpt lat="47.43876" lon="6.6284">
        <ele>285</ele>
        <time>2017-07-22T12:18:05Z</time>
      </trkpt>
      <trkpt lat="47.43835" lon="6.62864">
        <ele>285.20001220703</ele>
        <time>2017-07-22T12:18:12Z</time>
      </trkpt>
      <trkpt lat="47.4383" lon="6.62869">
        <ele>285.20001220703</ele>
        <time>2017-07-22T12:18:13Z</time>
      </trkpt>
      <trkpt lat="47.43814" lon="6.62888">
        <ele>285.60000610352</ele>
        <time>2017-07-22T12:18:17Z</time>
      </trkpt>
      <trkpt lat="47.43792" lon="6.62903">
        <ele>286.39999389648</ele>
        <time>2017-07-22T12:18:21Z</time>
      </trkpt>
      <trkpt lat="47.43752" lon="6.62928">
        <ele>285.39999389648</ele>
        <time>2017-07-22T12:18:27Z</time>
      </trkpt>
      <trkpt lat="47.43746" lon="6.62932">
        <ele>285.39999389648</ele>
        <time>2017-07-22T12:18:28Z</time>
      </trkpt>
      <trkpt lat="47.43706" lon="6.62956">
        <ele>285.20001220703</ele>
        <time>2017-07-22T12:18:34Z</time>
      </trkpt>
      <trkpt lat="47.43654" lon="6.62989">
        <ele>284.79998779297</ele>
        <time>2017-07-22T12:18:42Z</time>
      </trkpt>
      <trkpt lat="47.43602" lon="6.63022">
        <ele>284.79998779297</ele>
        <time>2017-07-22T12:18:50Z</time>
      </trkpt>
      <trkpt lat="47.43596" lon="6.63027">
        <ele>284.79998779297</ele>
        <time>2017-07-22T12:18:51Z</time>
      </trkpt>
      <trkpt lat="47.43547" lon="6.63059">
        <ele>284.79998779297</ele>
        <time>2017-07-22T12:19:00Z</time>
      </trkpt>
      <trkpt lat="47.43496" lon="6.63089">
        <ele>285</ele>
        <time>2017-07-22T12:19:08Z</time>
      </trkpt>
      <trkpt lat="47.4349" lon="6.63092">
        <ele>285</ele>
        <time>2017-07-22T12:19:09Z</time>
      </trkpt>
      <trkpt lat="47.43437" lon="6.6312">
        <ele>285</ele>
        <time>2017-07-22T12:19:17Z</time>
      </trkpt>
      <trkpt lat="47.43384" lon="6.63142">
        <ele>285</ele>
        <time>2017-07-22T12:19:25Z</time>
      </trkpt>
      <trkpt lat="47.43325" lon="6.63161">
        <ele>285</ele>
        <time>2017-07-22T12:19:34Z</time>
      </trkpt>
      <trkpt lat="47.43319" lon="6.63162">
        <ele>285</ele>
        <time>2017-07-22T12:19:35Z</time>
      </trkpt>
      <trkpt lat="47.43266" lon="6.63171">
        <ele>285</ele>
        <time>2017-07-22T12:19:43Z</time>
      </trkpt>
      <trkpt lat="47.43209" lon="6.63174">
        <ele>285</ele>
        <time>2017-07-22T12:19:52Z</time>
      </trkpt>
      <trkpt lat="47.43202" lon="6.63174">
        <ele>285</ele>
        <time>2017-07-22T12:19:53Z</time>
      </trkpt>
      <trkpt lat="47.43144" lon="6.63166">
        <ele>285</ele>
        <time>2017-07-22T12:20:02Z</time>
      </trkpt>
      <trkpt lat="47.43092" lon="6.6315">
        <ele>284.79998779297</ele>
        <time>2017-07-22T12:20:10Z</time>
      </trkpt>
      <trkpt lat="47.43042" lon="6.63131">
        <ele>285</ele>
        <time>2017-07-22T12:20:18Z</time>
      </trkpt>
      <trkpt lat="47.43008" lon="6.63114">
        <ele>285.39999389648</ele>
        <time>2017-07-22T12:20:24Z</time>
      </trkpt>
      <trkpt lat="47.42971" lon="6.63088">
        <ele>285.20001220703</ele>
        <time>2017-07-22T12:20:30Z</time>
      </trkpt>
      <trkpt lat="47.42918" lon="6.63045">
        <ele>284.79998779297</ele>
        <time>2017-07-22T12:20:39Z</time>
      </trkpt>
      <trkpt lat="47.42879" lon="6.63008">
        <ele>284.60000610352</ele>
        <time>2017-07-22T12:20:46Z</time>
      </trkpt>
      <trkpt lat="47.42833" lon="6.62957">
        <ele>284.79998779297</ele>
        <time>2017-07-22T12:20:55Z</time>
      </trkpt>
      <trkpt lat="47.42828" lon="6.6295">
        <ele>284.79998779297</ele>
        <time>2017-07-22T12:20:56Z</time>
      </trkpt>
      <trkpt lat="47.42786" lon="6.62888">
        <ele>284.79998779297</ele>
        <time>2017-07-22T12:21:05Z</time>
      </trkpt>
      <trkpt lat="47.4275" lon="6.62817">
        <ele>284.79998779297</ele>
        <time>2017-07-22T12:21:14Z</time>
      </trkpt>
      <trkpt lat="47.42747" lon="6.62808">
        <ele>284.79998779297</ele>
        <time>2017-07-22T12:21:15Z</time>
      </trkpt>
      <trkpt lat="47.42717" lon="6.62731">
        <ele>284.60000610352</ele>
        <time>2017-07-22T12:21:24Z</time>
      </trkpt>
      <trkpt lat="47.42697" lon="6.6266">
        <ele>284.60000610352</ele>
        <time>2017-07-22T12:21:32Z</time>
      </trkpt>
      <trkpt lat="47.42678" lon="6.62579">
        <ele>284.39999389648</ele>
        <time>2017-07-22T12:21:41Z</time>
      </trkpt>
      <trkpt lat="47.42675" lon="6.6256">
        <ele>284.39999389648</ele>
        <time>2017-07-22T12:21:43Z</time>
      </trkpt>
      <trkpt lat="47.42671" lon="6.62542">
        <ele>284.39999389648</ele>
        <time>2017-07-22T12:21:45Z</time>
      </trkpt>
      <trkpt lat="47.42663" lon="6.62496">
        <ele>284.20001220703</ele>
        <time>2017-07-22T12:21:50Z</time>
      </trkpt>
      <trkpt lat="47.42649" lon="6.62412">
        <ele>284.39999389648</ele>
        <time>2017-07-22T12:21:59Z</time>
      </trkpt>
      <trkpt lat="47.42648" lon="6.62403">
        <ele>284.39999389648</ele>
        <time>2017-07-22T12:22:00Z</time>
      </trkpt>
      <trkpt lat="47.42638" lon="6.62319">
        <ele>284.60000610352</ele>
        <time>2017-07-22T12:22:09Z</time>
      </trkpt>
      <trkpt lat="47.42637" lon="6.62309">
        <ele>284.60000610352</ele>
        <time>2017-07-22T12:22:10Z</time>
      </trkpt>
      <trkpt lat="47.4263" lon="6.62225">
        <ele>284.79998779297</ele>
        <time>2017-07-22T12:22:19Z</time>
      </trkpt>
      <trkpt lat="47.42626" lon="6.62151">
        <ele>284.79998779297</ele>
        <time>2017-07-22T12:22:27Z</time>
      </trkpt>
      <trkpt lat="47.42624" lon="6.62068">
        <ele>284.79998779297</ele>
        <time>2017-07-22T12:22:36Z</time>
      </trkpt>
      <trkpt lat="47.42624" lon="6.62059">
        <ele>284.60000610352</ele>
        <time>2017-07-22T12:22:37Z</time>
      </trkpt>
      <trkpt lat="47.42627" lon="6.61977">
        <ele>284.39999389648</ele>
        <time>2017-07-22T12:22:46Z</time>
      </trkpt>
      <trkpt lat="47.42636" lon="6.61895">
        <ele>284.60000610352</ele>
        <time>2017-07-22T12:22:55Z</time>
      </trkpt>
      <trkpt lat="47.42646" lon="6.61819">
        <ele>284.60000610352</ele>
        <time>2017-07-22T12:23:04Z</time>
      </trkpt>
      <trkpt lat="47.42659" lon="6.61753">
        <ele>284.60000610352</ele>
        <time>2017-07-22T12:23:12Z</time>
      </trkpt>
      <trkpt lat="47.42672" lon="6.61689">
        <ele>284.60000610352</ele>
        <time>2017-07-22T12:23:20Z</time>
      </trkpt>
      <trkpt lat="47.42688" lon="6.61624">
        <ele>284.60000610352</ele>
        <time>2017-07-22T12:23:28Z</time>
      </trkpt>
      <trkpt lat="47.42704" lon="6.6156">
        <ele>284.60000610352</ele>
        <time>2017-07-22T12:23:36Z</time>
      </trkpt>
      <trkpt lat="47.42721" lon="6.615">
        <ele>284.60000610352</ele>
        <time>2017-07-22T12:23:44Z</time>
      </trkpt>
      <trkpt lat="47.4274" lon="6.61439">
        <ele>284.60000610352</ele>
        <time>2017-07-22T12:23:52Z</time>
      </trkpt>
      <trkpt lat="47.4276" lon="6.61382">
        <ele>284.39999389648</ele>
        <time>2017-07-22T12:24:00Z</time>
      </trkpt>
      <trkpt lat="47.42785" lon="6.61319">
        <ele>284.20001220703</ele>
        <time>2017-07-22T12:24:09Z</time>
      </trkpt>
      <trkpt lat="47.42794" lon="6.61292">
        <ele>284</ele>
        <time>2017-07-22T12:24:14Z</time>
      </trkpt>
      <trkpt lat="47.42801" lon="6.61295">
        <ele>284.39999389648</ele>
        <time>2017-07-22T12:24:17Z</time>
      </trkpt>
      <trkpt lat="47.42803" lon="6.61296">
        <ele>284.60000610352</ele>
        <time>2017-07-22T12:24:18Z</time>
      </trkpt>
      <trkpt lat="47.42815" lon="6.613">
        <ele>285.20001220703</ele>
        <time>2017-07-22T12:24:22Z</time>
      </trkpt>
      <trkpt lat="47.42823" lon="6.61282">
        <ele>285.20001220703</ele>
        <time>2017-07-22T12:24:25Z</time>
      </trkpt>
      <trkpt lat="47.42826" lon="6.61265">
        <ele>285</ele>
        <time>2017-07-22T12:24:27Z</time>
      </trkpt>
      <trkpt lat="47.42834" lon="6.61239">
        <ele>284.20001220703</ele>
        <time>2017-07-22T12:24:30Z</time>
      </trkpt>
      <trkpt lat="47.42852" lon="6.61191">
        <ele>283.20001220703</ele>
        <time>2017-07-22T12:24:36Z</time>
      </trkpt>
      <trkpt lat="47.42855" lon="6.61183">
        <ele>283.20001220703</ele>
        <time>2017-07-22T12:24:37Z</time>
      </trkpt>
      <trkpt lat="47.42875" lon="6.6113">
        <ele>283.39999389648</ele>
        <time>2017-07-22T12:24:44Z</time>
      </trkpt>
      <trkpt lat="47.42897" lon="6.61076">
        <ele>283.60000610352</ele>
        <time>2017-07-22T12:24:51Z</time>
      </trkpt>
      <trkpt lat="47.4292" lon="6.61021">
        <ele>283.39999389648</ele>
        <time>2017-07-22T12:24:58Z</time>
      </trkpt>
      <trkpt lat="47.42947" lon="6.6096">
        <ele>283.39999389648</ele>
        <time>2017-07-22T12:25:06Z</time>
      </trkpt>
      <trkpt lat="47.42977" lon="6.60891">
        <ele>283.39999389648</ele>
        <time>2017-07-22T12:25:15Z</time>
      </trkpt>
      <trkpt lat="47.43004" lon="6.60829">
        <ele>283.60000610352</ele>
        <time>2017-07-22T12:25:23Z</time>
      </trkpt>
      <trkpt lat="47.43025" lon="6.60783">
        <ele>283.60000610352</ele>
        <time>2017-07-22T12:25:29Z</time>
      </trkpt>
      <trkpt lat="47.43056" lon="6.60713">
        <ele>283.39999389648</ele>
        <time>2017-07-22T12:25:38Z</time>
      </trkpt>
      <trkpt lat="47.43089" lon="6.6064">
        <ele>283.20001220703</ele>
        <time>2017-07-22T12:25:47Z</time>
      </trkpt>
      <trkpt lat="47.43118" lon="6.60573">
        <ele>283</ele>
        <time>2017-07-22T12:25:55Z</time>
      </trkpt>
      <trkpt lat="47.43122" lon="6.60564">
        <ele>283</ele>
        <time>2017-07-22T12:25:56Z</time>
      </trkpt>
      <trkpt lat="47.43148" lon="6.60504">
        <ele>283</ele>
        <time>2017-07-22T12:26:03Z</time>
      </trkpt>
      <trkpt lat="47.4318" lon="6.60434">
        <ele>283</ele>
        <time>2017-07-22T12:26:11Z</time>
      </trkpt>
      <trkpt lat="47.43187" lon="6.60415">
        <ele>283</ele>
        <time>2017-07-22T12:26:13Z</time>
      </trkpt>
      <trkpt lat="47.43218" lon="6.60346">
        <ele>282.79998779297</ele>
        <time>2017-07-22T12:26:21Z</time>
      </trkpt>
      <trkpt lat="47.43222" lon="6.60337">
        <ele>282.79998779297</ele>
        <time>2017-07-22T12:26:22Z</time>
      </trkpt>
      <trkpt lat="47.43252" lon="6.60267">
        <ele>282.79998779297</ele>
        <time>2017-07-22T12:26:30Z</time>
      </trkpt>
      <trkpt lat="47.4326" lon="6.6025">
        <ele>282.79998779297</ele>
        <time>2017-07-22T12:26:32Z</time>
      </trkpt>
      <trkpt lat="47.43291" lon="6.60181">
        <ele>282.79998779297</ele>
        <time>2017-07-22T12:26:40Z</time>
      </trkpt>
      <trkpt lat="47.43295" lon="6.60173">
        <ele>282.79998779297</ele>
        <time>2017-07-22T12:26:41Z</time>
      </trkpt>
      <trkpt lat="47.43327" lon="6.60108">
        <ele>282.79998779297</ele>
        <time>2017-07-22T12:26:49Z</time>
      </trkpt>
      <trkpt lat="47.43355" lon="6.60066">
        <ele>282.79998779297</ele>
        <time>2017-07-22T12:26:55Z</time>
      </trkpt>
      <trkpt lat="47.4338" lon="6.60036">
        <ele>282.79998779297</ele>
        <time>2017-07-22T12:27:00Z</time>
      </trkpt>
      <trkpt lat="47.43419" lon="6.60001">
        <ele>283</ele>
        <time>2017-07-22T12:27:07Z</time>
      </trkpt>
      <trkpt lat="47.43458" lon="6.5998">
        <ele>282.79998779297</ele>
        <time>2017-07-22T12:27:13Z</time>
      </trkpt>
      <trkpt lat="47.43495" lon="6.59961">
        <ele>282.79998779297</ele>
        <time>2017-07-22T12:27:19Z</time>
      </trkpt>
      <trkpt lat="47.43546" lon="6.59935">
        <ele>282.79998779297</ele>
        <time>2017-07-22T12:27:27Z</time>
      </trkpt>
      <trkpt lat="47.43603" lon="6.59907">
        <ele>282.79998779297</ele>
        <time>2017-07-22T12:27:36Z</time>
      </trkpt>
      <trkpt lat="47.43644" lon="6.59885">
        <ele>282.79998779297</ele>
        <time>2017-07-22T12:27:43Z</time>
      </trkpt>
      <trkpt lat="47.4368" lon="6.59868">
        <ele>283</ele>
        <time>2017-07-22T12:27:49Z</time>
      </trkpt>
      <trkpt lat="47.43722" lon="6.59853">
        <ele>283</ele>
        <time>2017-07-22T12:27:56Z</time>
      </trkpt>
      <trkpt lat="47.4378" lon="6.59834">
        <ele>283</ele>
        <time>2017-07-22T12:28:05Z</time>
      </trkpt>
      <trkpt lat="47.43822" lon="6.59823">
        <ele>282.79998779297</ele>
        <time>2017-07-22T12:28:12Z</time>
      </trkpt>
      <trkpt lat="47.43834" lon="6.59819">
        <ele>282.79998779297</ele>
        <time>2017-07-22T12:28:14Z</time>
      </trkpt>
      <trkpt lat="47.43853" lon="6.59816">
        <ele>282.60000610352</ele>
        <time>2017-07-22T12:28:17Z</time>
      </trkpt>
      <trkpt lat="47.43906" lon="6.59806">
        <ele>282.79998779297</ele>
        <time>2017-07-22T12:28:25Z</time>
      </trkpt>
      <trkpt lat="47.43957" lon="6.59796">
        <ele>282.79998779297</ele>
        <time>2017-07-22T12:28:33Z</time>
      </trkpt>
      <trkpt lat="47.44008" lon="6.59786">
        <ele>283</ele>
        <time>2017-07-22T12:28:41Z</time>
      </trkpt>
      <trkpt lat="47.44067" lon="6.59774">
        <ele>282.79998779297</ele>
        <time>2017-07-22T12:28:50Z</time>
      </trkpt>
      <trkpt lat="47.4412" lon="6.59764">
        <ele>282.79998779297</ele>
        <time>2017-07-22T12:28:58Z</time>
      </trkpt>
      <trkpt lat="47.44166" lon="6.59757">
        <ele>282.79998779297</ele>
        <time>2017-07-22T12:29:05Z</time>
      </trkpt>
      <trkpt lat="47.4422" lon="6.59745">
        <ele>282.60000610352</ele>
        <time>2017-07-22T12:29:13Z</time>
      </trkpt>
      <trkpt lat="47.44227" lon="6.59744">
        <ele>282.60000610352</ele>
        <time>2017-07-22T12:29:14Z</time>
      </trkpt>
      <trkpt lat="47.44282" lon="6.59733">
        <ele>283</ele>
        <time>2017-07-22T12:29:23Z</time>
      </trkpt>
      <trkpt lat="47.44328" lon="6.59725">
        <ele>282.79998779297</ele>
        <time>2017-07-22T12:29:30Z</time>
      </trkpt>
      <trkpt lat="47.44367" lon="6.59717">
        <ele>282.79998779297</ele>
        <time>2017-07-22T12:29:36Z</time>
      </trkpt>
      <trkpt lat="47.44405" lon="6.59714">
        <ele>283</ele>
        <time>2017-07-22T12:29:42Z</time>
      </trkpt>
      <trkpt lat="47.44463" lon="6.5971">
        <ele>282.79998779297</ele>
        <time>2017-07-22T12:29:51Z</time>
      </trkpt>
      <trkpt lat="47.44468" lon="6.59709">
        <ele>282.79998779297</ele>
        <time>2017-07-22T12:29:52Z</time>
      </trkpt>
      <trkpt lat="47.44507" lon="6.59708">
        <ele>282.60000610352</ele>
        <time>2017-07-22T12:29:59Z</time>
      </trkpt>
      <trkpt lat="47.44551" lon="6.59706">
        <ele>282.60000610352</ele>
        <time>2017-07-22T12:30:07Z</time>
      </trkpt>
      <trkpt lat="47.44591" lon="6.59709">
        <ele>282.79998779297</ele>
        <time>2017-07-22T12:30:14Z</time>
      </trkpt>
      <trkpt lat="47.44647" lon="6.59713">
        <ele>282.60000610352</ele>
        <time>2017-07-22T12:30:23Z</time>
      </trkpt>
      <trkpt lat="47.4467" lon="6.59715">
        <ele>282.20001220703</ele>
        <time>2017-07-22T12:30:27Z</time>
      </trkpt>
      <trkpt lat="47.44681" lon="6.59715">
        <ele>282</ele>
        <time>2017-07-22T12:30:29Z</time>
      </trkpt>
      <trkpt lat="47.44721" lon="6.59709">
        <ele>282.39999389648</ele>
        <time>2017-07-22T12:30:36Z</time>
      </trkpt>
      <trkpt lat="47.44762" lon="6.59698">
        <ele>282.20001220703</ele>
        <time>2017-07-22T12:30:43Z</time>
      </trkpt>
      <trkpt lat="47.44802" lon="6.59682">
        <ele>282.39999389648</ele>
        <time>2017-07-22T12:30:50Z</time>
      </trkpt>
      <trkpt lat="47.44847" lon="6.59659">
        <ele>282.39999389648</ele>
        <time>2017-07-22T12:30:58Z</time>
      </trkpt>
      <trkpt lat="47.44901" lon="6.59625">
        <ele>282.20001220703</ele>
        <time>2017-07-22T12:31:08Z</time>
      </trkpt>
      <trkpt lat="47.44922" lon="6.59611">
        <ele>282.20001220703</ele>
        <time>2017-07-22T12:31:12Z</time>
      </trkpt>
      <trkpt lat="47.44939" lon="6.59601">
        <ele>282.20001220703</ele>
        <time>2017-07-22T12:31:15Z</time>
      </trkpt>
      <trkpt lat="47.44969" lon="6.59578">
        <ele>282</ele>
        <time>2017-07-22T12:31:21Z</time>
      </trkpt>
      <trkpt lat="47.45001" lon="6.59551">
        <ele>282</ele>
        <time>2017-07-22T12:31:28Z</time>
      </trkpt>
      <trkpt lat="47.45036" lon="6.59522">
        <ele>281.79998779297</ele>
        <time>2017-07-22T12:31:35Z</time>
      </trkpt>
      <trkpt lat="47.45076" lon="6.59489">
        <ele>282</ele>
        <time>2017-07-22T12:31:43Z</time>
      </trkpt>
      <trkpt lat="47.45089" lon="6.59474">
        <ele>282</ele>
        <time>2017-07-22T12:31:46Z</time>
      </trkpt>
      <trkpt lat="47.45098" lon="6.59461">
        <ele>281.79998779297</ele>
        <time>2017-07-22T12:31:48Z</time>
      </trkpt>
      <trkpt lat="47.45106" lon="6.59445">
        <ele>281.39999389648</ele>
        <time>2017-07-22T12:31:50Z</time>
      </trkpt>
      <trkpt lat="47.45114" lon="6.59431">
        <ele>281</ele>
        <time>2017-07-22T12:31:52Z</time>
      </trkpt>
      <trkpt lat="47.45141" lon="6.59395">
        <ele>280.20001220703</ele>
        <time>2017-07-22T12:31:58Z</time>
      </trkpt>
      <trkpt lat="47.45145" lon="6.59389">
        <ele>280.20001220703</ele>
        <time>2017-07-22T12:31:59Z</time>
      </trkpt>
      <trkpt lat="47.45158" lon="6.59362">
        <ele>280.39999389648</ele>
        <time>2017-07-22T12:32:03Z</time>
      </trkpt>
      <trkpt lat="47.45179" lon="6.59311">
        <ele>280.39999389648</ele>
        <time>2017-07-22T12:32:10Z</time>
      </trkpt>
      <trkpt lat="47.45186" lon="6.59288">
        <ele>280.39999389648</ele>
        <time>2017-07-22T12:32:13Z</time>
      </trkpt>
      <trkpt lat="47.45193" lon="6.59266">
        <ele>280.39999389648</ele>
        <time>2017-07-22T12:32:16Z</time>
      </trkpt>
      <trkpt lat="47.45205" lon="6.59209">
        <ele>280.39999389648</ele>
        <time>2017-07-22T12:32:23Z</time>
      </trkpt>
      <trkpt lat="47.45217" lon="6.59133">
        <ele>280.39999389648</ele>
        <time>2017-07-22T12:32:32Z</time>
      </trkpt>
      <trkpt lat="47.45221" lon="6.59108">
        <ele>280.60000610352</ele>
        <time>2017-07-22T12:32:35Z</time>
      </trkpt>
      <trkpt lat="47.45221" lon="6.5909">
        <ele>280.60000610352</ele>
        <time>2017-07-22T12:32:37Z</time>
      </trkpt>
      <trkpt lat="47.45222" lon="6.59082">
        <ele>280.60000610352</ele>
        <time>2017-07-22T12:32:38Z</time>
      </trkpt>
      <trkpt lat="47.45224" lon="6.59057">
        <ele>280.60000610352</ele>
        <time>2017-07-22T12:32:41Z</time>
      </trkpt>
      <trkpt lat="47.45223" lon="6.5904">
        <ele>280.79998779297</ele>
        <time>2017-07-22T12:32:43Z</time>
      </trkpt>
      <trkpt lat="47.45225" lon="6.59007">
        <ele>280.79998779297</ele>
        <time>2017-07-22T12:32:47Z</time>
      </trkpt>
      <trkpt lat="47.45226" lon="6.58999">
        <ele>280.79998779297</ele>
        <time>2017-07-22T12:32:48Z</time>
      </trkpt>
      <trkpt lat="47.45233" lon="6.58951">
        <ele>280.79998779297</ele>
        <time>2017-07-22T12:32:54Z</time>
      </trkpt>
      <trkpt lat="47.45226" lon="6.58921">
        <ele>280.39999389648</ele>
        <time>2017-07-22T12:32:58Z</time>
      </trkpt>
      <trkpt lat="47.45219" lon="6.58908">
        <ele>280.20001220703</ele>
        <time>2017-07-22T12:33:00Z</time>
      </trkpt>
      <trkpt lat="47.45213" lon="6.58893">
        <ele>280.20001220703</ele>
        <time>2017-07-22T12:33:02Z</time>
      </trkpt>
      <trkpt lat="47.45195" lon="6.58837">
        <ele>280.79998779297</ele>
        <time>2017-07-22T12:33:09Z</time>
      </trkpt>
      <trkpt lat="47.45187" lon="6.58814">
        <ele>280.60000610352</ele>
        <time>2017-07-22T12:33:12Z</time>
      </trkpt>
      <trkpt lat="47.45184" lon="6.58797">
        <ele>280.60000610352</ele>
        <time>2017-07-22T12:33:14Z</time>
      </trkpt>
      <trkpt lat="47.45169" lon="6.58749">
        <ele>280.60000610352</ele>
        <time>2017-07-22T12:33:20Z</time>
      </trkpt>
      <trkpt lat="47.45152" lon="6.58696">
        <ele>280.60000610352</ele>
        <time>2017-07-22T12:33:27Z</time>
      </trkpt>
      <trkpt lat="47.4514" lon="6.58657">
        <ele>280.20001220703</ele>
        <time>2017-07-22T12:33:32Z</time>
      </trkpt>
      <trkpt lat="47.45134" lon="6.58643">
        <ele>280</ele>
        <time>2017-07-22T12:33:34Z</time>
      </trkpt>
      <trkpt lat="47.45118" lon="6.58593">
        <ele>280.20001220703</ele>
        <time>2017-07-22T12:33:41Z</time>
      </trkpt>
      <trkpt lat="47.45114" lon="6.58587">
        <ele>280.20001220703</ele>
        <time>2017-07-22T12:33:42Z</time>
      </trkpt>
      <trkpt lat="47.45099" lon="6.58552">
        <ele>280</ele>
        <time>2017-07-22T12:33:47Z</time>
      </trkpt>
      <trkpt lat="47.45087" lon="6.58514">
        <ele>280</ele>
        <time>2017-07-22T12:33:52Z</time>
      </trkpt>
      <trkpt lat="47.4508" lon="6.585">
        <ele>280</ele>
        <time>2017-07-22T12:33:54Z</time>
      </trkpt>
      <trkpt lat="47.45052" lon="6.58448">
        <ele>280</ele>
        <time>2017-07-22T12:34:02Z</time>
      </trkpt>
      <trkpt lat="47.45042" lon="6.58427">
        <ele>280</ele>
        <time>2017-07-22T12:34:05Z</time>
      </trkpt>
      <trkpt lat="47.45035" lon="6.58415">
        <ele>280</ele>
        <time>2017-07-22T12:34:07Z</time>
      </trkpt>
      <trkpt lat="47.45032" lon="6.58409">
        <ele>280</ele>
        <time>2017-07-22T12:34:08Z</time>
      </trkpt>
      <trkpt lat="47.45004" lon="6.58369">
        <ele>280.20001220703</ele>
        <time>2017-07-22T12:34:15Z</time>
      </trkpt>
      <trkpt lat="47.44982" lon="6.58335">
        <ele>279.79998779297</ele>
        <time>2017-07-22T12:34:21Z</time>
      </trkpt>
      <trkpt lat="47.44978" lon="6.58329">
        <ele>279.79998779297</ele>
        <time>2017-07-22T12:34:22Z</time>
      </trkpt>
      <trkpt lat="47.44966" lon="6.58313">
        <ele>279.79998779297</ele>
        <time>2017-07-22T12:34:25Z</time>
      </trkpt>
      <trkpt lat="47.44958" lon="6.58304">
        <ele>279.79998779297</ele>
        <time>2017-07-22T12:34:27Z</time>
      </trkpt>
      <trkpt lat="47.4494" lon="6.58276">
        <ele>279.39999389648</ele>
        <time>2017-07-22T12:34:33Z</time>
      </trkpt>
      <trkpt lat="47.44922" lon="6.58248">
        <ele>279.20001220703</ele>
        <time>2017-07-22T12:34:39Z</time>
      </trkpt>
      <trkpt lat="47.4491" lon="6.58223">
        <ele>279.39999389648</ele>
        <time>2017-07-22T12:34:45Z</time>
      </trkpt>
      <trkpt lat="47.4491" lon="6.58217">
        <ele>279.39999389648</ele>
        <time>2017-07-22T12:34:47Z</time>
      </trkpt>
      <trkpt lat="47.44914" lon="6.58213">
        <ele>279.39999389648</ele>
        <time>2017-07-22T12:34:49Z</time>
      </trkpt>
      <trkpt lat="47.4493" lon="6.58192">
        <ele>279.20001220703</ele>
        <time>2017-07-22T12:34:56Z</time>
      </trkpt>
      <trkpt lat="47.44945" lon="6.58175">
        <ele>278.79998779297</ele>
        <time>2017-07-22T12:35:01Z</time>
      </trkpt>
      <trkpt lat="47.44948" lon="6.58171">
        <ele>278.79998779297</ele>
        <time>2017-07-22T12:35:02Z</time>
      </trkpt>
      <trkpt lat="47.44955" lon="6.58162">
        <ele>278.60000610352</ele>
        <time>2017-07-22T12:35:04Z</time>
      </trkpt>
      <trkpt lat="47.44968" lon="6.58143">
        <ele>278.20001220703</ele>
        <time>2017-07-22T12:35:08Z</time>
      </trkpt>
      <trkpt lat="47.44989" lon="6.58114">
        <ele>278.20001220703</ele>
        <time>2017-07-22T12:35:15Z</time>
      </trkpt>
      <trkpt lat="47.45002" lon="6.58096">
        <ele>278.60000610352</ele>
        <time>2017-07-22T12:35:20Z</time>
      </trkpt>
      <trkpt lat="47.45017" lon="6.58071">
        <ele>279.39999389648</ele>
        <time>2017-07-22T12:35:26Z</time>
      </trkpt>
      <trkpt lat="47.45019" lon="6.58058">
        <ele>279.20001220703</ele>
        <time>2017-07-22T12:35:30Z</time>
      </trkpt>
      <trkpt lat="47.45028" lon="6.58049">
        <ele>279.39999389648</ele>
        <time>2017-07-22T12:35:36Z</time>
      </trkpt>
      <trkpt lat="47.45036" lon="6.58031">
        <ele>279.60000610352</ele>
        <time>2017-07-22T12:35:41Z</time>
      </trkpt>
      <trkpt lat="47.45039" lon="6.58026">
        <ele>279.60000610352</ele>
        <time>2017-07-22T12:35:42Z</time>
      </trkpt>
      <trkpt lat="47.45051" lon="6.58005">
        <ele>279.79998779297</ele>
        <time>2017-07-22T12:35:46Z</time>
      </trkpt>
      <trkpt lat="47.45054" lon="6.57999">
        <ele>279.79998779297</ele>
        <time>2017-07-22T12:35:47Z</time>
      </trkpt>
      <trkpt lat="47.45085" lon="6.57939">
        <ele>279.79998779297</ele>
        <time>2017-07-22T12:35:57Z</time>
      </trkpt>
      <trkpt lat="47.45106" lon="6.57899">
        <ele>278.79998779297</ele>
        <time>2017-07-22T12:36:04Z</time>
      </trkpt>
      <trkpt lat="47.45112" lon="6.57883">
        <ele>278.20001220703</ele>
        <time>2017-07-22T12:36:08Z</time>
      </trkpt>
      <trkpt lat="47.45124" lon="6.57866">
        <ele>277.79998779297</ele>
        <time>2017-07-22T12:36:12Z</time>
      </trkpt>
      <trkpt lat="47.45127" lon="6.57861">
        <ele>277.79998779297</ele>
        <time>2017-07-22T12:36:13Z</time>
      </trkpt>
      <trkpt lat="47.45141" lon="6.57834">
        <ele>278.39999389648</ele>
        <time>2017-07-22T12:36:18Z</time>
      </trkpt>
      <trkpt lat="47.45154" lon="6.5781">
        <ele>278.60000610352</ele>
        <time>2017-07-22T12:36:25Z</time>
      </trkpt>
      <trkpt lat="47.45155" lon="6.57805">
        <ele>278.39999389648</ele>
        <time>2017-07-22T12:36:27Z</time>
      </trkpt>
      <trkpt lat="47.45152" lon="6.57799">
        <ele>278.39999389648</ele>
        <time>2017-07-22T12:36:29Z</time>
      </trkpt>
      <trkpt lat="47.45145" lon="6.57793">
        <ele>278.39999389648</ele>
        <time>2017-07-22T12:36:32Z</time>
      </trkpt>
      <trkpt lat="47.45139" lon="6.57786">
        <ele>278.39999389648</ele>
        <time>2017-07-22T12:36:35Z</time>
      </trkpt>
      <trkpt lat="47.45128" lon="6.57776">
        <ele>278.20001220703</ele>
        <time>2017-07-22T12:36:41Z</time>
      </trkpt>
      <trkpt lat="47.45122" lon="6.57776">
        <ele>278</ele>
        <time>2017-07-22T12:36:46Z</time>
      </trkpt>
      <trkpt lat="47.4512" lon="6.57774">
        <ele>278.20001220703</ele>
        <time>2017-07-22T12:37:29Z</time>
      </trkpt>
      <trkpt lat="47.45119" lon="6.57768">
        <ele>278</ele>
        <time>2017-07-22T12:37:31Z</time>
      </trkpt>
      <trkpt lat="47.45106" lon="6.57755">
        <ele>278</ele>
        <time>2017-07-22T12:37:36Z</time>
      </trkpt>
      <trkpt lat="47.45084" lon="6.57733">
        <ele>278.20001220703</ele>
        <time>2017-07-22T12:37:42Z</time>
      </trkpt>
      <trkpt lat="47.45053" lon="6.57708">
        <ele>278.79998779297</ele>
        <time>2017-07-22T12:37:49Z</time>
      </trkpt>
      <trkpt lat="47.45048" lon="6.57706">
        <ele>279</ele>
        <time>2017-07-22T12:37:50Z</time>
      </trkpt>
      <trkpt lat="47.45008" lon="6.57688">
        <ele>279.60000610352</ele>
        <time>2017-07-22T12:37:58Z</time>
      </trkpt>
      <trkpt lat="47.44965" lon="6.57672">
        <ele>279.60000610352</ele>
        <time>2017-07-22T12:38:06Z</time>
      </trkpt>
      <trkpt lat="47.44923" lon="6.57652">
        <ele>279.79998779297</ele>
        <time>2017-07-22T12:38:14Z</time>
      </trkpt>
      <trkpt lat="47.4487" lon="6.57635">
        <ele>279.79998779297</ele>
        <time>2017-07-22T12:38:24Z</time>
      </trkpt>
      <trkpt lat="47.44858" lon="6.57633">
        <ele>279.79998779297</ele>
        <time>2017-07-22T12:38:26Z</time>
      </trkpt>
      <trkpt lat="47.44835" lon="6.57629">
        <ele>279.79998779297</ele>
        <time>2017-07-22T12:38:30Z</time>
      </trkpt>
      <trkpt lat="47.44796" lon="6.57623">
        <ele>279.39999389648</ele>
        <time>2017-07-22T12:38:37Z</time>
      </trkpt>
      <trkpt lat="47.44758" lon="6.57614">
        <ele>279.79998779297</ele>
        <time>2017-07-22T12:38:44Z</time>
      </trkpt>
      <trkpt lat="47.44747" lon="6.57611">
        <ele>280</ele>
        <time>2017-07-22T12:38:46Z</time>
      </trkpt>
      <trkpt lat="47.44725" lon="6.57605">
        <ele>280</ele>
        <time>2017-07-22T12:38:50Z</time>
      </trkpt>
      <trkpt lat="47.44719" lon="6.57602">
        <ele>280</ele>
        <time>2017-07-22T12:38:51Z</time>
      </trkpt>
      <trkpt lat="47.44687" lon="6.57581">
        <ele>280.39999389648</ele>
        <time>2017-07-22T12:38:57Z</time>
      </trkpt>
      <trkpt lat="47.44647" lon="6.57544">
        <ele>280.20001220703</ele>
        <time>2017-07-22T12:39:05Z</time>
      </trkpt>
      <trkpt lat="47.44616" lon="6.57513">
        <ele>280</ele>
        <time>2017-07-22T12:39:11Z</time>
      </trkpt>
      <trkpt lat="47.44587" lon="6.57469">
        <ele>279.20001220703</ele>
        <time>2017-07-22T12:39:18Z</time>
      </trkpt>
      <trkpt lat="47.44563" lon="6.57421">
        <ele>279</ele>
        <time>2017-07-22T12:39:25Z</time>
      </trkpt>
      <trkpt lat="47.44557" lon="6.57405">
        <ele>279</ele>
        <time>2017-07-22T12:39:27Z</time>
      </trkpt>
      <trkpt lat="47.44551" lon="6.57389">
        <ele>278.79998779297</ele>
        <time>2017-07-22T12:39:29Z</time>
      </trkpt>
      <trkpt lat="47.44546" lon="6.57374">
        <ele>278.79998779297</ele>
        <time>2017-07-22T12:39:31Z</time>
      </trkpt>
      <trkpt lat="47.44522" lon="6.57324">
        <ele>278.60000610352</ele>
        <time>2017-07-22T12:39:38Z</time>
      </trkpt>
      <trkpt lat="47.44498" lon="6.57277">
        <ele>278.79998779297</ele>
        <time>2017-07-22T12:39:45Z</time>
      </trkpt>
      <trkpt lat="47.4448" lon="6.57246">
        <ele>278.79998779297</ele>
        <time>2017-07-22T12:39:50Z</time>
      </trkpt>
      <trkpt lat="47.44448" lon="6.57208">
        <ele>278.79998779297</ele>
        <time>2017-07-22T12:39:57Z</time>
      </trkpt>
      <trkpt lat="47.44416" lon="6.57182">
        <ele>278.39999389648</ele>
        <time>2017-07-22T12:40:03Z</time>
      </trkpt>
      <trkpt lat="47.44376" lon="6.57142">
        <ele>278</ele>
        <time>2017-07-22T12:40:11Z</time>
      </trkpt>
      <trkpt lat="47.44346" lon="6.571">
        <ele>277.79998779297</ele>
        <time>2017-07-22T12:40:18Z</time>
      </trkpt>
      <trkpt lat="47.44343" lon="6.57094">
        <ele>277.79998779297</ele>
        <time>2017-07-22T12:40:19Z</time>
      </trkpt>
      <trkpt lat="47.44318" lon="6.57049">
        <ele>277.79998779297</ele>
        <time>2017-07-22T12:40:26Z</time>
      </trkpt>
      <trkpt lat="47.44295" lon="6.57001">
        <ele>277.79998779297</ele>
        <time>2017-07-22T12:40:33Z</time>
      </trkpt>
      <trkpt lat="47.4427" lon="6.56954">
        <ele>277.79998779297</ele>
        <time>2017-07-22T12:40:40Z</time>
      </trkpt>
      <trkpt lat="47.44245" lon="6.56897">
        <ele>278</ele>
        <time>2017-07-22T12:40:48Z</time>
      </trkpt>
      <trkpt lat="47.44237" lon="6.56875">
        <ele>278</ele>
        <time>2017-07-22T12:40:51Z</time>
      </trkpt>
      <trkpt lat="47.44231" lon="6.56851">
        <ele>277.79998779297</ele>
        <time>2017-07-22T12:40:54Z</time>
      </trkpt>
      <trkpt lat="47.44219" lon="6.56778">
        <ele>277.60000610352</ele>
        <time>2017-07-22T12:41:03Z</time>
      </trkpt>
      <trkpt lat="47.4422" lon="6.56723">
        <ele>277.60000610352</ele>
        <time>2017-07-22T12:41:10Z</time>
      </trkpt>
      <trkpt lat="47.44225" lon="6.56656">
        <ele>278</ele>
        <time>2017-07-22T12:41:19Z</time>
      </trkpt>
      <trkpt lat="47.44231" lon="6.56584">
        <ele>278.39999389648</ele>
        <time>2017-07-22T12:41:29Z</time>
      </trkpt>
      <trkpt lat="47.44231" lon="6.56525">
        <ele>278.60000610352</ele>
        <time>2017-07-22T12:41:37Z</time>
      </trkpt>
      <trkpt lat="47.44229" lon="6.56468">
        <ele>278.39999389648</ele>
        <time>2017-07-22T12:41:44Z</time>
      </trkpt>
      <trkpt lat="47.44228" lon="6.56404">
        <ele>278.39999389648</ele>
        <time>2017-07-22T12:41:52Z</time>
      </trkpt>
      <trkpt lat="47.44227" lon="6.56343">
        <ele>278.39999389648</ele>
        <time>2017-07-22T12:42:00Z</time>
      </trkpt>
      <trkpt lat="47.44239" lon="6.56309">
        <ele>278.39999389648</ele>
        <time>2017-07-22T12:42:05Z</time>
      </trkpt>
      <trkpt lat="47.44255" lon="6.56309">
        <ele>278</ele>
        <time>2017-07-22T12:42:08Z</time>
      </trkpt>
      <trkpt lat="47.44261" lon="6.5631">
        <ele>278</ele>
        <time>2017-07-22T12:42:09Z</time>
      </trkpt>
      <trkpt lat="47.4429" lon="6.56317">
        <ele>278</ele>
        <time>2017-07-22T12:42:14Z</time>
      </trkpt>
      <trkpt lat="47.44296" lon="6.56317">
        <ele>278.20001220703</ele>
        <time>2017-07-22T12:42:15Z</time>
      </trkpt>
      <trkpt lat="47.44312" lon="6.56307">
        <ele>278.20001220703</ele>
        <time>2017-07-22T12:42:18Z</time>
      </trkpt>
      <trkpt lat="47.44316" lon="6.56304">
        <ele>278.20001220703</ele>
        <time>2017-07-22T12:42:19Z</time>
      </trkpt>
      <trkpt lat="47.44335" lon="6.56294">
        <ele>278.39999389648</ele>
        <time>2017-07-22T12:42:23Z</time>
      </trkpt>
      <trkpt lat="47.44348" lon="6.56287">
        <ele>278.79998779297</ele>
        <time>2017-07-22T12:42:26Z</time>
      </trkpt>
      <trkpt lat="47.44352" lon="6.56283">
        <ele>279</ele>
        <time>2017-07-22T12:42:27Z</time>
      </trkpt>
      <trkpt lat="47.44357" lon="6.5627">
        <ele>278.79998779297</ele>
        <time>2017-07-22T12:42:29Z</time>
      </trkpt>
      <trkpt lat="47.4436" lon="6.56263">
        <ele>278.79998779297</ele>
        <time>2017-07-22T12:42:30Z</time>
      </trkpt>
      <trkpt lat="47.44364" lon="6.56247">
        <ele>278.79998779297</ele>
        <time>2017-07-22T12:42:32Z</time>
      </trkpt>
      <trkpt lat="47.44367" lon="6.56232">
        <ele>278.60000610352</ele>
        <time>2017-07-22T12:42:34Z</time>
      </trkpt>
      <trkpt lat="47.44371" lon="6.56182">
        <ele>279</ele>
        <time>2017-07-22T12:42:41Z</time>
      </trkpt>
      <trkpt lat="47.44373" lon="6.56155">
        <ele>279.20001220703</ele>
        <time>2017-07-22T12:42:45Z</time>
      </trkpt>
      <trkpt lat="47.44371" lon="6.56139">
        <ele>279.39999389648</ele>
        <time>2017-07-22T12:42:47Z</time>
      </trkpt>
      <trkpt lat="47.44364" lon="6.561">
        <ele>279.60000610352</ele>
        <time>2017-07-22T12:42:52Z</time>
      </trkpt>
      <trkpt lat="47.4436" lon="6.56085">
        <ele>279.60000610352</ele>
        <time>2017-07-22T12:42:54Z</time>
      </trkpt>
      <trkpt lat="47.44346" lon="6.56032">
        <ele>279.20001220703</ele>
        <time>2017-07-22T12:43:02Z</time>
      </trkpt>
      <trkpt lat="47.44339" lon="6.56017">
        <ele>279.20001220703</ele>
        <time>2017-07-22T12:43:05Z</time>
      </trkpt>
      <trkpt lat="47.44332" lon="6.56006">
        <ele>279</ele>
        <time>2017-07-22T12:43:07Z</time>
      </trkpt>
      <trkpt lat="47.44309" lon="6.55967">
        <ele>278</ele>
        <time>2017-07-22T12:43:13Z</time>
      </trkpt>
      <trkpt lat="47.44305" lon="6.5596">
        <ele>277.79998779297</ele>
        <time>2017-07-22T12:43:14Z</time>
      </trkpt>
      <trkpt lat="47.44283" lon="6.55918">
        <ele>277.39999389648</ele>
        <time>2017-07-22T12:43:20Z</time>
      </trkpt>
      <trkpt lat="47.4427" lon="6.55887">
        <ele>277.20001220703</ele>
        <time>2017-07-22T12:43:24Z</time>
      </trkpt>
      <trkpt lat="47.44262" lon="6.55873">
        <ele>277</ele>
        <time>2017-07-22T12:43:26Z</time>
      </trkpt>
      <trkpt lat="47.44238" lon="6.55824">
        <ele>276.79998779297</ele>
        <time>2017-07-22T12:43:33Z</time>
      </trkpt>
      <trkpt lat="47.4423" lon="6.55801">
        <ele>277</ele>
        <time>2017-07-22T12:43:36Z</time>
      </trkpt>
      <trkpt lat="47.44225" lon="6.55777">
        <ele>277</ele>
        <time>2017-07-22T12:43:39Z</time>
      </trkpt>
      <trkpt lat="47.44223" lon="6.55761">
        <ele>277</ele>
        <time>2017-07-22T12:43:41Z</time>
      </trkpt>
      <trkpt lat="47.44222" lon="6.55727">
        <ele>277</ele>
        <time>2017-07-22T12:43:45Z</time>
      </trkpt>
      <trkpt lat="47.44219" lon="6.5564">
        <ele>276.79998779297</ele>
        <time>2017-07-22T12:43:55Z</time>
      </trkpt>
      <trkpt lat="47.44218" lon="6.55623">
        <ele>276.79998779297</ele>
        <time>2017-07-22T12:43:57Z</time>
      </trkpt>
      <trkpt lat="47.44214" lon="6.55579">
        <ele>276.79998779297</ele>
        <time>2017-07-22T12:44:02Z</time>
      </trkpt>
      <trkpt lat="47.44206" lon="6.55518">
        <ele>276.79998779297</ele>
        <time>2017-07-22T12:44:09Z</time>
      </trkpt>
      <trkpt lat="47.44195" lon="6.55462">
        <ele>277</ele>
        <time>2017-07-22T12:44:16Z</time>
      </trkpt>
      <trkpt lat="47.44195" lon="6.55454">
        <ele>277</ele>
        <time>2017-07-22T12:44:17Z</time>
      </trkpt>
      <trkpt lat="47.44198" lon="6.5542">
        <ele>277.20001220703</ele>
        <time>2017-07-22T12:44:21Z</time>
      </trkpt>
      <trkpt lat="47.44204" lon="6.55357">
        <ele>277</ele>
        <time>2017-07-22T12:44:28Z</time>
      </trkpt>
      <trkpt lat="47.44211" lon="6.55276">
        <ele>277</ele>
        <time>2017-07-22T12:44:37Z</time>
      </trkpt>
      <trkpt lat="47.44212" lon="6.55205">
        <ele>277</ele>
        <time>2017-07-22T12:44:45Z</time>
      </trkpt>
      <trkpt lat="47.44212" lon="6.55187">
        <ele>277</ele>
        <time>2017-07-22T12:44:47Z</time>
      </trkpt>
      <trkpt lat="47.44211" lon="6.55152">
        <ele>277</ele>
        <time>2017-07-22T12:44:51Z</time>
      </trkpt>
      <trkpt lat="47.44205" lon="6.55084">
        <ele>277</ele>
        <time>2017-07-22T12:44:59Z</time>
      </trkpt>
      <trkpt lat="47.44194" lon="6.55016">
        <ele>277.20001220703</ele>
        <time>2017-07-22T12:45:07Z</time>
      </trkpt>
      <trkpt lat="47.44183" lon="6.54947">
        <ele>276.79998779297</ele>
        <time>2017-07-22T12:45:15Z</time>
      </trkpt>
      <trkpt lat="47.44169" lon="6.54869">
        <ele>276.60000610352</ele>
        <time>2017-07-22T12:45:24Z</time>
      </trkpt>
      <trkpt lat="47.44165" lon="6.54843">
        <ele>276.60000610352</ele>
        <time>2017-07-22T12:45:27Z</time>
      </trkpt>
      <trkpt lat="47.44152" lon="6.54775">
        <ele>276.79998779297</ele>
        <time>2017-07-22T12:45:35Z</time>
      </trkpt>
      <trkpt lat="47.44135" lon="6.54691">
        <ele>276.60000610352</ele>
        <time>2017-07-22T12:45:45Z</time>
      </trkpt>
      <trkpt lat="47.44121" lon="6.54613">
        <ele>276.39999389648</ele>
        <time>2017-07-22T12:45:54Z</time>
      </trkpt>
      <trkpt lat="47.44109" lon="6.54535">
        <ele>276.39999389648</ele>
        <time>2017-07-22T12:46:03Z</time>
      </trkpt>
      <trkpt lat="47.44101" lon="6.54465">
        <ele>276.39999389648</ele>
        <time>2017-07-22T12:46:11Z</time>
      </trkpt>
      <trkpt lat="47.44097" lon="6.54407">
        <ele>276.60000610352</ele>
        <time>2017-07-22T12:46:18Z</time>
      </trkpt>
      <trkpt lat="47.44099" lon="6.54344">
        <ele>276.60000610352</ele>
        <time>2017-07-22T12:46:25Z</time>
      </trkpt>
      <trkpt lat="47.44103" lon="6.54264">
        <ele>276.60000610352</ele>
        <time>2017-07-22T12:46:34Z</time>
      </trkpt>
      <trkpt lat="47.44103" lon="6.54255">
        <ele>276.60000610352</ele>
        <time>2017-07-22T12:46:35Z</time>
      </trkpt>
      <trkpt lat="47.44104" lon="6.54229">
        <ele>276.60000610352</ele>
        <time>2017-07-22T12:46:38Z</time>
      </trkpt>
      <trkpt lat="47.44105" lon="6.54211">
        <ele>276.60000610352</ele>
        <time>2017-07-22T12:46:40Z</time>
      </trkpt>
      <trkpt lat="47.44107" lon="6.54151">
        <ele>276.39999389648</ele>
        <time>2017-07-22T12:46:47Z</time>
      </trkpt>
      <trkpt lat="47.44109" lon="6.54134">
        <ele>276.39999389648</ele>
        <time>2017-07-22T12:46:49Z</time>
      </trkpt>
      <trkpt lat="47.44113" lon="6.54068">
        <ele>276.39999389648</ele>
        <time>2017-07-22T12:46:57Z</time>
      </trkpt>
      <trkpt lat="47.44117" lon="6.54011">
        <ele>276.39999389648</ele>
        <time>2017-07-22T12:47:04Z</time>
      </trkpt>
      <trkpt lat="47.44122" lon="6.53934">
        <ele>276.60000610352</ele>
        <time>2017-07-22T12:47:13Z</time>
      </trkpt>
      <trkpt lat="47.4413" lon="6.53849">
        <ele>276.39999389648</ele>
        <time>2017-07-22T12:47:23Z</time>
      </trkpt>
      <trkpt lat="47.44131" lon="6.53841">
        <ele>276.39999389648</ele>
        <time>2017-07-22T12:47:24Z</time>
      </trkpt>
      <trkpt lat="47.44137" lon="6.53772">
        <ele>276.39999389648</ele>
        <time>2017-07-22T12:47:32Z</time>
      </trkpt>
      <trkpt lat="47.44145" lon="6.53695">
        <ele>276.20001220703</ele>
        <time>2017-07-22T12:47:41Z</time>
      </trkpt>
      <trkpt lat="47.44155" lon="6.53608">
        <ele>276</ele>
        <time>2017-07-22T12:47:51Z</time>
      </trkpt>
      <trkpt lat="47.44162" lon="6.5354">
        <ele>276</ele>
        <time>2017-07-22T12:47:59Z</time>
      </trkpt>
      <trkpt lat="47.44169" lon="6.53487">
        <ele>276</ele>
        <time>2017-07-22T12:48:06Z</time>
      </trkpt>
      <trkpt lat="47.44175" lon="6.53449">
        <ele>276</ele>
        <time>2017-07-22T12:48:11Z</time>
      </trkpt>
      <trkpt lat="47.44177" lon="6.53432">
        <ele>276</ele>
        <time>2017-07-22T12:48:13Z</time>
      </trkpt>
      <trkpt lat="47.44179" lon="6.53391">
        <ele>276</ele>
        <time>2017-07-22T12:48:18Z</time>
      </trkpt>
      <trkpt lat="47.44177" lon="6.53366">
        <ele>276</ele>
        <time>2017-07-22T12:48:21Z</time>
      </trkpt>
      <trkpt lat="47.44174" lon="6.53351">
        <ele>276.20001220703</ele>
        <time>2017-07-22T12:48:23Z</time>
      </trkpt>
      <trkpt lat="47.44163" lon="6.53311">
        <ele>276.39999389648</ele>
        <time>2017-07-22T12:48:28Z</time>
      </trkpt>
      <trkpt lat="47.4416" lon="6.53304">
        <ele>276.39999389648</ele>
        <time>2017-07-22T12:48:29Z</time>
      </trkpt>
      <trkpt lat="47.44147" lon="6.53284">
        <ele>276.39999389648</ele>
        <time>2017-07-22T12:48:32Z</time>
      </trkpt>
      <trkpt lat="47.44142" lon="6.53278">
        <ele>276.39999389648</ele>
        <time>2017-07-22T12:48:33Z</time>
      </trkpt>
      <trkpt lat="47.44115" lon="6.53254">
        <ele>276.60000610352</ele>
        <time>2017-07-22T12:48:38Z</time>
      </trkpt>
      <trkpt lat="47.44064" lon="6.53216">
        <ele>276.60000610352</ele>
        <time>2017-07-22T12:48:47Z</time>
      </trkpt>
      <trkpt lat="47.44009" lon="6.53183">
        <ele>276.79998779297</ele>
        <time>2017-07-22T12:48:56Z</time>
      </trkpt>
      <trkpt lat="47.43958" lon="6.53159">
        <ele>277</ele>
        <time>2017-07-22T12:49:04Z</time>
      </trkpt>
      <trkpt lat="47.43901" lon="6.53138">
        <ele>277.20001220703</ele>
        <time>2017-07-22T12:49:13Z</time>
      </trkpt>
      <trkpt lat="47.43843" lon="6.53124">
        <ele>277.39999389648</ele>
        <time>2017-07-22T12:49:22Z</time>
      </trkpt>
      <trkpt lat="47.43837" lon="6.53123">
        <ele>277.39999389648</ele>
        <time>2017-07-22T12:49:23Z</time>
      </trkpt>
      <trkpt lat="47.43778" lon="6.53116">
        <ele>277.20001220703</ele>
        <time>2017-07-22T12:49:32Z</time>
      </trkpt>
      <trkpt lat="47.43772" lon="6.53116">
        <ele>277.20001220703</ele>
        <time>2017-07-22T12:49:33Z</time>
      </trkpt>
      <trkpt lat="47.43719" lon="6.53116">
        <ele>277</ele>
        <time>2017-07-22T12:49:41Z</time>
      </trkpt>
      <trkpt lat="47.43661" lon="6.53124">
        <ele>276.79998779297</ele>
        <time>2017-07-22T12:49:50Z</time>
      </trkpt>
      <trkpt lat="47.4361" lon="6.53132">
        <ele>276.79998779297</ele>
        <time>2017-07-22T12:49:58Z</time>
      </trkpt>
      <trkpt lat="47.43597" lon="6.5313">
        <ele>276.79998779297</ele>
        <time>2017-07-22T12:50:00Z</time>
      </trkpt>
      <trkpt lat="47.43578" lon="6.53126">
        <ele>277</ele>
        <time>2017-07-22T12:50:03Z</time>
      </trkpt>
      <trkpt lat="47.43567" lon="6.53128">
        <ele>277.20001220703</ele>
        <time>2017-07-22T12:50:05Z</time>
      </trkpt>
      <trkpt lat="47.43555" lon="6.53136">
        <ele>277.60000610352</ele>
        <time>2017-07-22T12:50:07Z</time>
      </trkpt>
      <trkpt lat="47.43542" lon="6.53145">
        <ele>277.60000610352</ele>
        <time>2017-07-22T12:50:09Z</time>
      </trkpt>
      <trkpt lat="47.43528" lon="6.53154">
        <ele>277.60000610352</ele>
        <time>2017-07-22T12:50:11Z</time>
      </trkpt>
      <trkpt lat="47.43513" lon="6.5316">
        <ele>277.39999389648</ele>
        <time>2017-07-22T12:50:13Z</time>
      </trkpt>
      <trkpt lat="47.43453" lon="6.53179">
        <ele>276.20001220703</ele>
        <time>2017-07-22T12:50:21Z</time>
      </trkpt>
      <trkpt lat="47.43446" lon="6.53182">
        <ele>276</ele>
        <time>2017-07-22T12:50:22Z</time>
      </trkpt>
      <trkpt lat="47.43406" lon="6.53203">
        <ele>275.79998779297</ele>
        <time>2017-07-22T12:50:28Z</time>
      </trkpt>
      <trkpt lat="47.43385" lon="6.53216">
        <ele>275.79998779297</ele>
        <time>2017-07-22T12:50:31Z</time>
      </trkpt>
      <trkpt lat="47.43351" lon="6.53239">
        <ele>275.79998779297</ele>
        <time>2017-07-22T12:50:36Z</time>
      </trkpt>
      <trkpt lat="47.43305" lon="6.5327">
        <ele>275.79998779297</ele>
        <time>2017-07-22T12:50:43Z</time>
      </trkpt>
      <trkpt lat="47.43264" lon="6.53302">
        <ele>276</ele>
        <time>2017-07-22T12:50:50Z</time>
      </trkpt>
      <trkpt lat="47.43232" lon="6.5334">
        <ele>276.20001220703</ele>
        <time>2017-07-22T12:50:56Z</time>
      </trkpt>
      <trkpt lat="47.43204" lon="6.53383">
        <ele>276.20001220703</ele>
        <time>2017-07-22T12:51:02Z</time>
      </trkpt>
      <trkpt lat="47.43178" lon="6.53433">
        <ele>276</ele>
        <time>2017-07-22T12:51:08Z</time>
      </trkpt>
      <trkpt lat="47.43148" lon="6.5349">
        <ele>276</ele>
        <time>2017-07-22T12:51:15Z</time>
      </trkpt>
      <trkpt lat="47.43121" lon="6.5354">
        <ele>276</ele>
        <time>2017-07-22T12:51:21Z</time>
      </trkpt>
      <trkpt lat="47.43111" lon="6.53556">
        <ele>276</ele>
        <time>2017-07-22T12:51:23Z</time>
      </trkpt>
      <trkpt lat="47.43076" lon="6.53622">
        <ele>276</ele>
        <time>2017-07-22T12:51:31Z</time>
      </trkpt>
      <trkpt lat="47.43047" lon="6.5368">
        <ele>276</ele>
        <time>2017-07-22T12:51:38Z</time>
      </trkpt>
      <trkpt lat="47.43015" lon="6.53735">
        <ele>275.79998779297</ele>
        <time>2017-07-22T12:51:45Z</time>
      </trkpt>
      <trkpt lat="47.42979" lon="6.53798">
        <ele>276</ele>
        <time>2017-07-22T12:51:53Z</time>
      </trkpt>
      <trkpt lat="47.42946" lon="6.53867">
        <ele>275.79998779297</ele>
        <time>2017-07-22T12:52:01Z</time>
      </trkpt>
      <trkpt lat="47.42937" lon="6.53885">
        <ele>275.79998779297</ele>
        <time>2017-07-22T12:52:03Z</time>
      </trkpt>
      <trkpt lat="47.42917" lon="6.53928">
        <ele>275.79998779297</ele>
        <time>2017-07-22T12:52:08Z</time>
      </trkpt>
      <trkpt lat="47.42905" lon="6.53952">
        <ele>275.79998779297</ele>
        <time>2017-07-22T12:52:11Z</time>
      </trkpt>
      <trkpt lat="47.42875" lon="6.54021">
        <ele>275.79998779297</ele>
        <time>2017-07-22T12:52:19Z</time>
      </trkpt>
      <trkpt lat="47.42857" lon="6.54074">
        <ele>275.79998779297</ele>
        <time>2017-07-22T12:52:25Z</time>
      </trkpt>
      <trkpt lat="47.42834" lon="6.54149">
        <ele>276</ele>
        <time>2017-07-22T12:52:33Z</time>
      </trkpt>
      <trkpt lat="47.42828" lon="6.54168">
        <ele>276</ele>
        <time>2017-07-22T12:52:35Z</time>
      </trkpt>
      <trkpt lat="47.42807" lon="6.54246">
        <ele>276</ele>
        <time>2017-07-22T12:52:43Z</time>
      </trkpt>
      <trkpt lat="47.42788" lon="6.54322">
        <ele>275.79998779297</ele>
        <time>2017-07-22T12:52:51Z</time>
      </trkpt>
      <trkpt lat="47.42776" lon="6.54369">
        <ele>275.79998779297</ele>
        <time>2017-07-22T12:52:56Z</time>
      </trkpt>
      <trkpt lat="47.42768" lon="6.54397">
        <ele>276</ele>
        <time>2017-07-22T12:52:59Z</time>
      </trkpt>
      <trkpt lat="47.42746" lon="6.54471">
        <ele>276</ele>
        <time>2017-07-22T12:53:07Z</time>
      </trkpt>
      <trkpt lat="47.42744" lon="6.5448">
        <ele>276</ele>
        <time>2017-07-22T12:53:08Z</time>
      </trkpt>
      <trkpt lat="47.42723" lon="6.54557">
        <ele>276.20001220703</ele>
        <time>2017-07-22T12:53:16Z</time>
      </trkpt>
      <trkpt lat="47.42704" lon="6.54639">
        <ele>275.79998779297</ele>
        <time>2017-07-22T12:53:24Z</time>
      </trkpt>
      <trkpt lat="47.42701" lon="6.54649">
        <ele>275.79998779297</ele>
        <time>2017-07-22T12:53:25Z</time>
      </trkpt>
      <trkpt lat="47.42682" lon="6.5472">
        <ele>275.79998779297</ele>
        <time>2017-07-22T12:53:32Z</time>
      </trkpt>
      <trkpt lat="47.42663" lon="6.54789">
        <ele>275.60000610352</ele>
        <time>2017-07-22T12:53:39Z</time>
      </trkpt>
      <trkpt lat="47.42642" lon="6.54866">
        <ele>275.39999389648</ele>
        <time>2017-07-22T12:53:47Z</time>
      </trkpt>
      <trkpt lat="47.42632" lon="6.54893">
        <ele>275.39999389648</ele>
        <time>2017-07-22T12:53:50Z</time>
      </trkpt>
      <trkpt lat="47.42629" lon="6.54901">
        <ele>275.39999389648</ele>
        <time>2017-07-22T12:53:51Z</time>
      </trkpt>
      <trkpt lat="47.42611" lon="6.54924">
        <ele>275.60000610352</ele>
        <time>2017-07-22T12:53:55Z</time>
      </trkpt>
      <trkpt lat="47.42606" lon="6.54928">
        <ele>275.60000610352</ele>
        <time>2017-07-22T12:53:56Z</time>
      </trkpt>
      <trkpt lat="47.42601" lon="6.54932">
        <ele>275.60000610352</ele>
        <time>2017-07-22T12:53:57Z</time>
      </trkpt>
      <trkpt lat="47.42578" lon="6.54947">
        <ele>276.39999389648</ele>
        <time>2017-07-22T12:54:01Z</time>
      </trkpt>
      <trkpt lat="47.4254" lon="6.54975">
        <ele>276.79998779297</ele>
        <time>2017-07-22T12:54:08Z</time>
      </trkpt>
      <trkpt lat="47.42515" lon="6.55004">
        <ele>276.79998779297</ele>
        <time>2017-07-22T12:54:13Z</time>
      </trkpt>
      <trkpt lat="47.42511" lon="6.55011">
        <ele>276.79998779297</ele>
        <time>2017-07-22T12:54:14Z</time>
      </trkpt>
      <trkpt lat="47.42497" lon="6.55039">
        <ele>276.79998779297</ele>
        <time>2017-07-22T12:54:18Z</time>
      </trkpt>
      <trkpt lat="47.42495" lon="6.55046">
        <ele>277</ele>
        <time>2017-07-22T12:54:19Z</time>
      </trkpt>
      <trkpt lat="47.42486" lon="6.5507">
        <ele>277.60000610352</ele>
        <time>2017-07-22T12:54:22Z</time>
      </trkpt>
      <trkpt lat="47.42483" lon="6.55081">
        <ele>277.79998779297</ele>
        <time>2017-07-22T12:54:23Z</time>
      </trkpt>
      <trkpt lat="47.42462" lon="6.55157">
        <ele>276.39999389648</ele>
        <time>2017-07-22T12:54:31Z</time>
      </trkpt>
      <trkpt lat="47.42446" lon="6.55243">
        <ele>276</ele>
        <time>2017-07-22T12:54:39Z</time>
      </trkpt>
      <trkpt lat="47.42444" lon="6.55253">
        <ele>275.79998779297</ele>
        <time>2017-07-22T12:54:40Z</time>
      </trkpt>
      <trkpt lat="47.42429" lon="6.55302">
        <ele>275.60000610352</ele>
        <time>2017-07-22T12:54:45Z</time>
      </trkpt>
      <trkpt lat="47.42403" lon="6.55353">
        <ele>275.60000610352</ele>
        <time>2017-07-22T12:54:51Z</time>
      </trkpt>
      <trkpt lat="47.42398" lon="6.5536">
        <ele>275.60000610352</ele>
        <time>2017-07-22T12:54:52Z</time>
      </trkpt>
      <trkpt lat="47.42377" lon="6.55388">
        <ele>275.39999389648</ele>
        <time>2017-07-22T12:54:56Z</time>
      </trkpt>
      <trkpt lat="47.4233" lon="6.55434">
        <ele>275.20001220703</ele>
        <time>2017-07-22T12:55:04Z</time>
      </trkpt>
      <trkpt lat="47.42292" lon="6.55459">
        <ele>275.20001220703</ele>
        <time>2017-07-22T12:55:10Z</time>
      </trkpt>
      <trkpt lat="47.42246" lon="6.55476">
        <ele>275.20001220703</ele>
        <time>2017-07-22T12:55:17Z</time>
      </trkpt>
      <trkpt lat="47.422" lon="6.5549">
        <ele>275.20001220703</ele>
        <time>2017-07-22T12:55:24Z</time>
      </trkpt>
      <trkpt lat="47.42194" lon="6.55494">
        <ele>275.20001220703</ele>
        <time>2017-07-22T12:55:25Z</time>
      </trkpt>
      <trkpt lat="47.42176" lon="6.55505">
        <ele>275.20001220703</ele>
        <time>2017-07-22T12:55:28Z</time>
      </trkpt>
      <trkpt lat="47.42164" lon="6.55507">
        <ele>275</ele>
        <time>2017-07-22T12:55:30Z</time>
      </trkpt>
      <trkpt lat="47.42151" lon="6.55506">
        <ele>275</ele>
        <time>2017-07-22T12:55:32Z</time>
      </trkpt>
      <trkpt lat="47.42131" lon="6.55502">
        <ele>275</ele>
        <time>2017-07-22T12:55:35Z</time>
      </trkpt>
      <trkpt lat="47.42086" lon="6.55504">
        <ele>275.20001220703</ele>
        <time>2017-07-22T12:55:42Z</time>
      </trkpt>
      <trkpt lat="47.42033" lon="6.55509">
        <ele>275.20001220703</ele>
        <time>2017-07-22T12:55:50Z</time>
      </trkpt>
      <trkpt lat="47.41981" lon="6.55514">
        <ele>275.20001220703</ele>
        <time>2017-07-22T12:55:58Z</time>
      </trkpt>
      <trkpt lat="47.4193" lon="6.5551">
        <ele>275</ele>
        <time>2017-07-22T12:56:06Z</time>
      </trkpt>
      <trkpt lat="47.41885" lon="6.55501">
        <ele>274.79998779297</ele>
        <time>2017-07-22T12:56:13Z</time>
      </trkpt>
      <trkpt lat="47.41872" lon="6.55497">
        <ele>274.79998779297</ele>
        <time>2017-07-22T12:56:15Z</time>
      </trkpt>
      <trkpt lat="47.41846" lon="6.55487">
        <ele>274.79998779297</ele>
        <time>2017-07-22T12:56:19Z</time>
      </trkpt>
      <trkpt lat="47.41822" lon="6.55475">
        <ele>274.79998779297</ele>
        <time>2017-07-22T12:56:23Z</time>
      </trkpt>
      <trkpt lat="47.41782" lon="6.55447">
        <ele>274.79998779297</ele>
        <time>2017-07-22T12:56:30Z</time>
      </trkpt>
      <trkpt lat="47.41745" lon="6.55408">
        <ele>274.60000610352</ele>
        <time>2017-07-22T12:56:37Z</time>
      </trkpt>
      <trkpt lat="47.41708" lon="6.55351">
        <ele>274.60000610352</ele>
        <time>2017-07-22T12:56:45Z</time>
      </trkpt>
      <trkpt lat="47.4168" lon="6.55297">
        <ele>274.79998779297</ele>
        <time>2017-07-22T12:56:52Z</time>
      </trkpt>
      <trkpt lat="47.41655" lon="6.55239">
        <ele>275</ele>
        <time>2017-07-22T12:56:59Z</time>
      </trkpt>
      <trkpt lat="47.41631" lon="6.55169">
        <ele>275</ele>
        <time>2017-07-22T12:57:07Z</time>
      </trkpt>
      <trkpt lat="47.41612" lon="6.55098">
        <ele>274.79998779297</ele>
        <time>2017-07-22T12:57:15Z</time>
      </trkpt>
      <trkpt lat="47.416" lon="6.55023">
        <ele>274.79998779297</ele>
        <time>2017-07-22T12:57:23Z</time>
      </trkpt>
      <trkpt lat="47.41591" lon="6.54942">
        <ele>274.60000610352</ele>
        <time>2017-07-22T12:57:32Z</time>
      </trkpt>
      <trkpt lat="47.41586" lon="6.5487">
        <ele>274.79998779297</ele>
        <time>2017-07-22T12:57:40Z</time>
      </trkpt>
      <trkpt lat="47.41586" lon="6.54789">
        <ele>275</ele>
        <time>2017-07-22T12:57:49Z</time>
      </trkpt>
      <trkpt lat="47.41587" lon="6.5478">
        <ele>275</ele>
        <time>2017-07-22T12:57:50Z</time>
      </trkpt>
      <trkpt lat="47.41588" lon="6.54718">
        <ele>274.79998779297</ele>
        <time>2017-07-22T12:57:57Z</time>
      </trkpt>
      <trkpt lat="47.41589" lon="6.54638">
        <ele>275</ele>
        <time>2017-07-22T12:58:06Z</time>
      </trkpt>
      <trkpt lat="47.4159" lon="6.54578">
        <ele>275</ele>
        <time>2017-07-22T12:58:13Z</time>
      </trkpt>
      <trkpt lat="47.4159" lon="6.54563">
        <ele>275</ele>
        <time>2017-07-22T12:58:15Z</time>
      </trkpt>
      <trkpt lat="47.41591" lon="6.54538">
        <ele>275</ele>
        <time>2017-07-22T12:58:18Z</time>
      </trkpt>
      <trkpt lat="47.41594" lon="6.54475">
        <ele>274.79998779297</ele>
        <time>2017-07-22T12:58:25Z</time>
      </trkpt>
      <trkpt lat="47.41594" lon="6.54466">
        <ele>274.79998779297</ele>
        <time>2017-07-22T12:58:26Z</time>
      </trkpt>
      <trkpt lat="47.41594" lon="6.5443">
        <ele>275</ele>
        <time>2017-07-22T12:58:30Z</time>
      </trkpt>
      <trkpt lat="47.41595" lon="6.54403">
        <ele>275</ele>
        <time>2017-07-22T12:58:33Z</time>
      </trkpt>
      <trkpt lat="47.41596" lon="6.54366">
        <ele>275</ele>
        <time>2017-07-22T12:58:37Z</time>
      </trkpt>
      <trkpt lat="47.41596" lon="6.54293">
        <ele>275.20001220703</ele>
        <time>2017-07-22T12:58:45Z</time>
      </trkpt>
      <trkpt lat="47.41596" lon="6.54284">
        <ele>275.20001220703</ele>
        <time>2017-07-22T12:58:46Z</time>
      </trkpt>
      <trkpt lat="47.41595" lon="6.54211">
        <ele>275.20001220703</ele>
        <time>2017-07-22T12:58:54Z</time>
      </trkpt>
      <trkpt lat="47.41595" lon="6.54174">
        <ele>275</ele>
        <time>2017-07-22T12:58:59Z</time>
      </trkpt>
      <trkpt lat="47.41596" lon="6.54167">
        <ele>275</ele>
        <time>2017-07-22T12:59:00Z</time>
      </trkpt>
      <trkpt lat="47.41599" lon="6.54129">
        <ele>274.60000610352</ele>
        <time>2017-07-22T12:59:05Z</time>
      </trkpt>
      <trkpt lat="47.41601" lon="6.54066">
        <ele>273.79998779297</ele>
        <time>2017-07-22T12:59:11Z</time>
      </trkpt>
      <trkpt lat="47.41603" lon="6.53998">
        <ele>273.20001220703</ele>
        <time>2017-07-22T12:59:18Z</time>
      </trkpt>
      <trkpt lat="47.41604" lon="6.53927">
        <ele>272.79998779297</ele>
        <time>2017-07-22T12:59:26Z</time>
      </trkpt>
      <trkpt lat="47.41606" lon="6.53865">
        <ele>272.79998779297</ele>
        <time>2017-07-22T12:59:33Z</time>
      </trkpt>
      <trkpt lat="47.41606" lon="6.53856">
        <ele>272.79998779297</ele>
        <time>2017-07-22T12:59:34Z</time>
      </trkpt>
      <trkpt lat="47.41608" lon="6.5378">
        <ele>272.79998779297</ele>
        <time>2017-07-22T12:59:43Z</time>
      </trkpt>
      <trkpt lat="47.41608" lon="6.53746">
        <ele>272.60000610352</ele>
        <time>2017-07-22T12:59:47Z</time>
      </trkpt>
      <trkpt lat="47.41609" lon="6.5372">
        <ele>272.60000610352</ele>
        <time>2017-07-22T12:59:50Z</time>
      </trkpt>
      <trkpt lat="47.4161" lon="6.53642">
        <ele>272.60000610352</ele>
        <time>2017-07-22T12:59:59Z</time>
      </trkpt>
      <trkpt lat="47.41611" lon="6.53571">
        <ele>272.39999389648</ele>
        <time>2017-07-22T13:00:07Z</time>
      </trkpt>
      <trkpt lat="47.41613" lon="6.5349">
        <ele>272.60000610352</ele>
        <time>2017-07-22T13:00:16Z</time>
      </trkpt>
      <trkpt lat="47.41614" lon="6.53421">
        <ele>272.39999389648</ele>
        <time>2017-07-22T13:00:24Z</time>
      </trkpt>
      <trkpt lat="47.41616" lon="6.53349">
        <ele>272.39999389648</ele>
        <time>2017-07-22T13:00:32Z</time>
      </trkpt>
      <trkpt lat="47.41617" lon="6.53269">
        <ele>272.79998779297</ele>
        <time>2017-07-22T13:00:41Z</time>
      </trkpt>
      <trkpt lat="47.41617" lon="6.5326">
        <ele>272.79998779297</ele>
        <time>2017-07-22T13:00:42Z</time>
      </trkpt>
      <trkpt lat="47.41617" lon="6.53207">
        <ele>272.79998779297</ele>
        <time>2017-07-22T13:00:48Z</time>
      </trkpt>
      <trkpt lat="47.41618" lon="6.53162">
        <ele>272.60000610352</ele>
        <time>2017-07-22T13:00:53Z</time>
      </trkpt>
      <trkpt lat="47.41621" lon="6.53082">
        <ele>272.60000610352</ele>
        <time>2017-07-22T13:01:02Z</time>
      </trkpt>
      <trkpt lat="47.41622" lon="6.53012">
        <ele>272.79998779297</ele>
        <time>2017-07-22T13:01:10Z</time>
      </trkpt>
      <trkpt lat="47.41624" lon="6.52932">
        <ele>273</ele>
        <time>2017-07-22T13:01:19Z</time>
      </trkpt>
      <trkpt lat="47.41625" lon="6.52854">
        <ele>273.20001220703</ele>
        <time>2017-07-22T13:01:28Z</time>
      </trkpt>
      <trkpt lat="47.41627" lon="6.52784">
        <ele>273</ele>
        <time>2017-07-22T13:01:36Z</time>
      </trkpt>
      <trkpt lat="47.41628" lon="6.52696">
        <ele>272.79998779297</ele>
        <time>2017-07-22T13:01:46Z</time>
      </trkpt>
      <trkpt lat="47.4163" lon="6.52624">
        <ele>272.60000610352</ele>
        <time>2017-07-22T13:01:54Z</time>
      </trkpt>
      <trkpt lat="47.41631" lon="6.52544">
        <ele>272.60000610352</ele>
        <time>2017-07-22T13:02:03Z</time>
      </trkpt>
      <trkpt lat="47.41632" lon="6.52493">
        <ele>272.60000610352</ele>
        <time>2017-07-22T13:02:09Z</time>
      </trkpt>
      <trkpt lat="47.41632" lon="6.52485">
        <ele>272.39999389648</ele>
        <time>2017-07-22T13:02:10Z</time>
      </trkpt>
      <trkpt lat="47.41633" lon="6.52423">
        <ele>272.39999389648</ele>
        <time>2017-07-22T13:02:17Z</time>
      </trkpt>
      <trkpt lat="47.41635" lon="6.52342">
        <ele>272.39999389648</ele>
        <time>2017-07-22T13:02:26Z</time>
      </trkpt>
      <trkpt lat="47.41635" lon="6.5227">
        <ele>272.60000610352</ele>
        <time>2017-07-22T13:02:34Z</time>
      </trkpt>
      <trkpt lat="47.41637" lon="6.52193">
        <ele>272.60000610352</ele>
        <time>2017-07-22T13:02:43Z</time>
      </trkpt>
      <trkpt lat="47.41637" lon="6.52129">
        <ele>273</ele>
        <time>2017-07-22T13:02:51Z</time>
      </trkpt>
      <trkpt lat="47.41636" lon="6.52122">
        <ele>273</ele>
        <time>2017-07-22T13:02:52Z</time>
      </trkpt>
      <trkpt lat="47.41635" lon="6.52108">
        <ele>273.20001220703</ele>
        <time>2017-07-22T13:02:54Z</time>
      </trkpt>
      <trkpt lat="47.41635" lon="6.52102">
        <ele>273.20001220703</ele>
        <time>2017-07-22T13:02:55Z</time>
      </trkpt>
      <trkpt lat="47.41637" lon="6.52063">
        <ele>273.20001220703</ele>
        <time>2017-07-22T13:03:00Z</time>
      </trkpt>
      <trkpt lat="47.41639" lon="6.5204">
        <ele>272.79998779297</ele>
        <time>2017-07-22T13:03:04Z</time>
      </trkpt>
      <trkpt lat="47.41641" lon="6.52007">
        <ele>272.79998779297</ele>
        <time>2017-07-22T13:03:09Z</time>
      </trkpt>
      <trkpt lat="47.41642" lon="6.52">
        <ele>272.79998779297</ele>
        <time>2017-07-22T13:03:10Z</time>
      </trkpt>
      <trkpt lat="47.41648" lon="6.51967">
        <ele>272.60000610352</ele>
        <time>2017-07-22T13:03:14Z</time>
      </trkpt>
      <trkpt lat="47.41657" lon="6.5191">
        <ele>271.79998779297</ele>
        <time>2017-07-22T13:03:20Z</time>
      </trkpt>
      <trkpt lat="47.4166" lon="6.51892">
        <ele>271.60000610352</ele>
        <time>2017-07-22T13:03:22Z</time>
      </trkpt>
      <trkpt lat="47.41668" lon="6.51819">
        <ele>271.20001220703</ele>
        <time>2017-07-22T13:03:30Z</time>
      </trkpt>
      <trkpt lat="47.41669" lon="6.51745">
        <ele>271</ele>
        <time>2017-07-22T13:03:38Z</time>
      </trkpt>
      <trkpt lat="47.41668" lon="6.51737">
        <ele>271</ele>
        <time>2017-07-22T13:03:39Z</time>
      </trkpt>
      <trkpt lat="47.41656" lon="6.51668">
        <ele>271.20001220703</ele>
        <time>2017-07-22T13:03:47Z</time>
      </trkpt>
      <trkpt lat="47.41653" lon="6.5166">
        <ele>271.20001220703</ele>
        <time>2017-07-22T13:03:48Z</time>
      </trkpt>
      <trkpt lat="47.41639" lon="6.51612">
        <ele>270.79998779297</ele>
        <time>2017-07-22T13:03:55Z</time>
      </trkpt>
      <trkpt lat="47.41632" lon="6.51594">
        <ele>270.79998779297</ele>
        <time>2017-07-22T13:04:00Z</time>
      </trkpt>
      <trkpt lat="47.41632" lon="6.51591">
        <ele>270</ele>
        <time>2017-07-22T13:04:28Z</time>
      </trkpt>
      <trkpt lat="47.41631" lon="6.51589">
        <ele>270</ele>
        <time>2017-07-22T13:04:29Z</time>
      </trkpt>
      <trkpt lat="47.41624" lon="6.5157">
        <ele>270</ele>
        <time>2017-07-22T13:04:34Z</time>
      </trkpt>
      <trkpt lat="47.41613" lon="6.51547">
        <ele>269.79998779297</ele>
        <time>2017-07-22T13:04:39Z</time>
      </trkpt>
      <trkpt lat="47.41597" lon="6.51519">
        <ele>270.20001220703</ele>
        <time>2017-07-22T13:04:44Z</time>
      </trkpt>
      <trkpt lat="47.41594" lon="6.51514">
        <ele>270.39999389648</ele>
        <time>2017-07-22T13:04:45Z</time>
      </trkpt>
      <trkpt lat="47.41591" lon="6.51508">
        <ele>270.39999389648</ele>
        <time>2017-07-22T13:04:46Z</time>
      </trkpt>
      <trkpt lat="47.41577" lon="6.51482">
        <ele>270.79998779297</ele>
        <time>2017-07-22T13:04:50Z</time>
      </trkpt>
      <trkpt lat="47.41574" lon="6.51476">
        <ele>270.79998779297</ele>
        <time>2017-07-22T13:04:51Z</time>
      </trkpt>
      <trkpt lat="47.41563" lon="6.51456">
        <ele>271</ele>
        <time>2017-07-22T13:04:54Z</time>
      </trkpt>
      <trkpt lat="47.41553" lon="6.51438">
        <ele>271</ele>
        <time>2017-07-22T13:04:57Z</time>
      </trkpt>
      <trkpt lat="47.41522" lon="6.51386">
        <ele>270.79998779297</ele>
        <time>2017-07-22T13:05:05Z</time>
      </trkpt>
      <trkpt lat="47.41507" lon="6.5136">
        <ele>270.79998779297</ele>
        <time>2017-07-22T13:05:09Z</time>
      </trkpt>
      <trkpt lat="47.41498" lon="6.51348">
        <ele>270.79998779297</ele>
        <time>2017-07-22T13:05:11Z</time>
      </trkpt>
      <trkpt lat="47.41455" lon="6.513">
        <ele>270.60000610352</ele>
        <time>2017-07-22T13:05:20Z</time>
      </trkpt>
      <trkpt lat="47.41416" lon="6.5127">
        <ele>270.60000610352</ele>
        <time>2017-07-22T13:05:27Z</time>
      </trkpt>
      <trkpt lat="47.41365" lon="6.51239">
        <ele>270.79998779297</ele>
        <time>2017-07-22T13:05:36Z</time>
      </trkpt>
      <trkpt lat="47.41359" lon="6.51236">
        <ele>270.79998779297</ele>
        <time>2017-07-22T13:05:37Z</time>
      </trkpt>
      <trkpt lat="47.41318" lon="6.51217">
        <ele>271.20001220703</ele>
        <time>2017-07-22T13:05:44Z</time>
      </trkpt>
      <trkpt lat="47.41283" lon="6.51206">
        <ele>271</ele>
        <time>2017-07-22T13:05:50Z</time>
      </trkpt>
      <trkpt lat="47.41243" lon="6.51195">
        <ele>271</ele>
        <time>2017-07-22T13:05:57Z</time>
      </trkpt>
      <trkpt lat="47.4122" lon="6.51189">
        <ele>271.20001220703</ele>
        <time>2017-07-22T13:06:01Z</time>
      </trkpt>
      <trkpt lat="47.41203" lon="6.51184">
        <ele>271.20001220703</ele>
        <time>2017-07-22T13:06:04Z</time>
      </trkpt>
      <trkpt lat="47.41156" lon="6.51171">
        <ele>270.79998779297</ele>
        <time>2017-07-22T13:06:12Z</time>
      </trkpt>
      <trkpt lat="47.41114" lon="6.5116">
        <ele>270.79998779297</ele>
        <time>2017-07-22T13:06:19Z</time>
      </trkpt>
      <trkpt lat="47.41079" lon="6.51154">
        <ele>270.39999389648</ele>
        <time>2017-07-22T13:06:25Z</time>
      </trkpt>
      <trkpt lat="47.41067" lon="6.51152">
        <ele>270.20001220703</ele>
        <time>2017-07-22T13:06:27Z</time>
      </trkpt>
      <trkpt lat="47.41032" lon="6.51147">
        <ele>270.39999389648</ele>
        <time>2017-07-22T13:06:33Z</time>
      </trkpt>
      <trkpt lat="47.40985" lon="6.51142">
        <ele>270.39999389648</ele>
        <time>2017-07-22T13:06:41Z</time>
      </trkpt>
      <trkpt lat="47.40939" lon="6.51138">
        <ele>270.39999389648</ele>
        <time>2017-07-22T13:06:49Z</time>
      </trkpt>
      <trkpt lat="47.40899" lon="6.51136">
        <ele>270.20001220703</ele>
        <time>2017-07-22T13:06:56Z</time>
      </trkpt>
      <trkpt lat="47.40876" lon="6.51133">
        <ele>270</ele>
        <time>2017-07-22T13:07:01Z</time>
      </trkpt>
      <trkpt lat="47.40853" lon="6.51131">
        <ele>269.79998779297</ele>
        <time>2017-07-22T13:07:05Z</time>
      </trkpt>
      <trkpt lat="47.40812" lon="6.51126">
        <ele>269.60000610352</ele>
        <time>2017-07-22T13:07:12Z</time>
      </trkpt>
      <trkpt lat="47.40769" lon="6.51123">
        <ele>270</ele>
        <time>2017-07-22T13:07:19Z</time>
      </trkpt>
      <trkpt lat="47.40727" lon="6.51119">
        <ele>269.60000610352</ele>
        <time>2017-07-22T13:07:26Z</time>
      </trkpt>
      <trkpt lat="47.40715" lon="6.51117">
        <ele>269.60000610352</ele>
        <time>2017-07-22T13:07:28Z</time>
      </trkpt>
      <trkpt lat="47.40693" lon="6.51117">
        <ele>269.60000610352</ele>
        <time>2017-07-22T13:07:32Z</time>
      </trkpt>
      <trkpt lat="47.40647" lon="6.51113">
        <ele>269.39999389648</ele>
        <time>2017-07-22T13:07:40Z</time>
      </trkpt>
      <trkpt lat="47.40594" lon="6.51111">
        <ele>269.39999389648</ele>
        <time>2017-07-22T13:07:49Z</time>
      </trkpt>
      <trkpt lat="47.40536" lon="6.51111">
        <ele>269.39999389648</ele>
        <time>2017-07-22T13:07:59Z</time>
      </trkpt>
      <trkpt lat="47.40482" lon="6.51109">
        <ele>269.39999389648</ele>
        <time>2017-07-22T13:08:08Z</time>
      </trkpt>
      <trkpt lat="47.4043" lon="6.51097">
        <ele>269.60000610352</ele>
        <time>2017-07-22T13:08:17Z</time>
      </trkpt>
      <trkpt lat="47.40386" lon="6.51077">
        <ele>269.79998779297</ele>
        <time>2017-07-22T13:08:25Z</time>
      </trkpt>
      <trkpt lat="47.40344" lon="6.51046">
        <ele>269.60000610352</ele>
        <time>2017-07-22T13:08:33Z</time>
      </trkpt>
      <trkpt lat="47.40301" lon="6.51015">
        <ele>269.79998779297</ele>
        <time>2017-07-22T13:08:42Z</time>
      </trkpt>
      <trkpt lat="47.40274" lon="6.50996">
        <ele>269.60000610352</ele>
        <time>2017-07-22T13:08:48Z</time>
      </trkpt>
      <trkpt lat="47.40244" lon="6.50974">
        <ele>269.60000610352</ele>
        <time>2017-07-22T13:08:54Z</time>
      </trkpt>
      <trkpt lat="47.40208" lon="6.50948">
        <ele>269.79998779297</ele>
        <time>2017-07-22T13:09:01Z</time>
      </trkpt>
      <trkpt lat="47.40198" lon="6.5094">
        <ele>269.79998779297</ele>
        <time>2017-07-22T13:09:03Z</time>
      </trkpt>
      <trkpt lat="47.40182" lon="6.50929">
        <ele>269.79998779297</ele>
        <time>2017-07-22T13:09:06Z</time>
      </trkpt>
      <trkpt lat="47.40152" lon="6.50907">
        <ele>269.79998779297</ele>
        <time>2017-07-22T13:09:12Z</time>
      </trkpt>
      <trkpt lat="47.40118" lon="6.50883">
        <ele>270</ele>
        <time>2017-07-22T13:09:19Z</time>
      </trkpt>
      <trkpt lat="47.40088" lon="6.5086">
        <ele>269.60000610352</ele>
        <time>2017-07-22T13:09:25Z</time>
      </trkpt>
      <trkpt lat="47.40054" lon="6.50836">
        <ele>269.39999389648</ele>
        <time>2017-07-22T13:09:32Z</time>
      </trkpt>
      <trkpt lat="47.40022" lon="6.50812">
        <ele>270.20001220703</ele>
        <time>2017-07-22T13:09:39Z</time>
      </trkpt>
      <trkpt lat="47.39986" lon="6.50784">
        <ele>270</ele>
        <time>2017-07-22T13:09:47Z</time>
      </trkpt>
      <trkpt lat="47.39956" lon="6.50763">
        <ele>270</ele>
        <time>2017-07-22T13:09:53Z</time>
      </trkpt>
      <trkpt lat="47.39926" lon="6.50736">
        <ele>270</ele>
        <time>2017-07-22T13:09:59Z</time>
      </trkpt>
      <trkpt lat="47.39885" lon="6.50698">
        <ele>270</ele>
        <time>2017-07-22T13:10:07Z</time>
      </trkpt>
      <trkpt lat="47.3985" lon="6.50665">
        <ele>270</ele>
        <time>2017-07-22T13:10:14Z</time>
      </trkpt>
      <trkpt lat="47.39815" lon="6.50627">
        <ele>270</ele>
        <time>2017-07-22T13:10:21Z</time>
      </trkpt>
      <trkpt lat="47.39781" lon="6.50584">
        <ele>270</ele>
        <time>2017-07-22T13:10:28Z</time>
      </trkpt>
      <trkpt lat="47.3975" lon="6.50533">
        <ele>270</ele>
        <time>2017-07-22T13:10:36Z</time>
      </trkpt>
      <trkpt lat="47.39737" lon="6.50493">
        <ele>269.79998779297</ele>
        <time>2017-07-22T13:10:41Z</time>
      </trkpt>
      <trkpt lat="47.39736" lon="6.50485">
        <ele>269.79998779297</ele>
        <time>2017-07-22T13:10:42Z</time>
      </trkpt>
      <trkpt lat="47.39734" lon="6.50459">
        <ele>269.79998779297</ele>
        <time>2017-07-22T13:10:45Z</time>
      </trkpt>
      <trkpt lat="47.39734" lon="6.50451">
        <ele>269.79998779297</ele>
        <time>2017-07-22T13:10:46Z</time>
      </trkpt>
      <trkpt lat="47.39741" lon="6.50399">
        <ele>270.39999389648</ele>
        <time>2017-07-22T13:10:53Z</time>
      </trkpt>
      <trkpt lat="47.39746" lon="6.50334">
        <ele>270.79998779297</ele>
        <time>2017-07-22T13:11:01Z</time>
      </trkpt>
      <trkpt lat="47.39753" lon="6.50268">
        <ele>270.60000610352</ele>
        <time>2017-07-22T13:11:09Z</time>
      </trkpt>
      <trkpt lat="47.39762" lon="6.50193">
        <ele>270.60000610352</ele>
        <time>2017-07-22T13:11:18Z</time>
      </trkpt>
      <trkpt lat="47.39768" lon="6.50124">
        <ele>270.60000610352</ele>
        <time>2017-07-22T13:11:27Z</time>
      </trkpt>
      <trkpt lat="47.3977" lon="6.50102">
        <ele>270.79998779297</ele>
        <time>2017-07-22T13:11:30Z</time>
      </trkpt>
      <trkpt lat="47.3977" lon="6.50087">
        <ele>270.79998779297</ele>
        <time>2017-07-22T13:11:32Z</time>
      </trkpt>
      <trkpt lat="47.39767" lon="6.50051">
        <ele>271</ele>
        <time>2017-07-22T13:11:37Z</time>
      </trkpt>
      <trkpt lat="47.39766" lon="6.50043">
        <ele>271</ele>
        <time>2017-07-22T13:11:38Z</time>
      </trkpt>
      <trkpt lat="47.39758" lon="6.50004">
        <ele>271.20001220703</ele>
        <time>2017-07-22T13:11:43Z</time>
      </trkpt>
      <trkpt lat="47.39754" lon="6.49988">
        <ele>271.39999389648</ele>
        <time>2017-07-22T13:11:45Z</time>
      </trkpt>
      <trkpt lat="47.3973" lon="6.49921">
        <ele>271.60000610352</ele>
        <time>2017-07-22T13:11:54Z</time>
      </trkpt>
      <trkpt lat="47.39707" lon="6.49863">
        <ele>271.60000610352</ele>
        <time>2017-07-22T13:12:02Z</time>
      </trkpt>
      <trkpt lat="47.39689" lon="6.49822">
        <ele>271.60000610352</ele>
        <time>2017-07-22T13:12:08Z</time>
      </trkpt>
      <trkpt lat="47.39667" lon="6.49779">
        <ele>271.79998779297</ele>
        <time>2017-07-22T13:12:15Z</time>
      </trkpt>
      <trkpt lat="47.3965" lon="6.4974">
        <ele>271.39999389648</ele>
        <time>2017-07-22T13:12:21Z</time>
      </trkpt>
      <trkpt lat="47.39634" lon="6.49706">
        <ele>271</ele>
        <time>2017-07-22T13:12:26Z</time>
      </trkpt>
      <trkpt lat="47.39616" lon="6.4967">
        <ele>269.79998779297</ele>
        <time>2017-07-22T13:12:31Z</time>
      </trkpt>
      <trkpt lat="47.39612" lon="6.49663">
        <ele>269.60000610352</ele>
        <time>2017-07-22T13:12:32Z</time>
      </trkpt>
      <trkpt lat="47.39591" lon="6.49619">
        <ele>269.39999389648</ele>
        <time>2017-07-22T13:12:38Z</time>
      </trkpt>
      <trkpt lat="47.39565" lon="6.49569">
        <ele>269.39999389648</ele>
        <time>2017-07-22T13:12:45Z</time>
      </trkpt>
      <trkpt lat="47.39542" lon="6.49529">
        <ele>269.39999389648</ele>
        <time>2017-07-22T13:12:51Z</time>
      </trkpt>
      <trkpt lat="47.39538" lon="6.49524">
        <ele>269.39999389648</ele>
        <time>2017-07-22T13:12:52Z</time>
      </trkpt>
      <trkpt lat="47.3952" lon="6.49495">
        <ele>269.39999389648</ele>
        <time>2017-07-22T13:12:57Z</time>
      </trkpt>
      <trkpt lat="47.39497" lon="6.49458">
        <ele>269.20001220703</ele>
        <time>2017-07-22T13:13:03Z</time>
      </trkpt>
      <trkpt lat="47.39471" lon="6.49423">
        <ele>269.20001220703</ele>
        <time>2017-07-22T13:13:09Z</time>
      </trkpt>
      <trkpt lat="47.39436" lon="6.4939">
        <ele>269.39999389648</ele>
        <time>2017-07-22T13:13:16Z</time>
      </trkpt>
      <trkpt lat="47.39406" lon="6.49376">
        <ele>269.60000610352</ele>
        <time>2017-07-22T13:13:22Z</time>
      </trkpt>
      <trkpt lat="47.39401" lon="6.49375">
        <ele>269.60000610352</ele>
        <time>2017-07-22T13:13:23Z</time>
      </trkpt>
      <trkpt lat="47.39387" lon="6.49372">
        <ele>269.60000610352</ele>
        <time>2017-07-22T13:13:26Z</time>
      </trkpt>
      <trkpt lat="47.39383" lon="6.4937">
        <ele>269.60000610352</ele>
        <time>2017-07-22T13:13:27Z</time>
      </trkpt>
      <trkpt lat="47.39371" lon="6.49366">
        <ele>269.79998779297</ele>
        <time>2017-07-22T13:13:30Z</time>
      </trkpt>
      <trkpt lat="47.39363" lon="6.49363">
        <ele>269.79998779297</ele>
        <time>2017-07-22T13:13:32Z</time>
      </trkpt>
      <trkpt lat="47.39342" lon="6.49365">
        <ele>270</ele>
        <time>2017-07-22T13:13:36Z</time>
      </trkpt>
      <trkpt lat="47.39326" lon="6.49367">
        <ele>270</ele>
        <time>2017-07-22T13:13:39Z</time>
      </trkpt>
      <trkpt lat="47.39309" lon="6.4937">
        <ele>270</ele>
        <time>2017-07-22T13:13:42Z</time>
      </trkpt>
      <trkpt lat="47.3927" lon="6.49378">
        <ele>269.79998779297</ele>
        <time>2017-07-22T13:13:49Z</time>
      </trkpt>
      <trkpt lat="47.39237" lon="6.49384">
        <ele>269.60000610352</ele>
        <time>2017-07-22T13:13:55Z</time>
      </trkpt>
      <trkpt lat="47.39232" lon="6.49386">
        <ele>269.60000610352</ele>
        <time>2017-07-22T13:13:56Z</time>
      </trkpt>
      <trkpt lat="47.39228" lon="6.49389">
        <ele>269.60000610352</ele>
        <time>2017-07-22T13:13:57Z</time>
      </trkpt>
      <trkpt lat="47.39212" lon="6.49402">
        <ele>270</ele>
        <time>2017-07-22T13:14:01Z</time>
      </trkpt>
      <trkpt lat="47.39195" lon="6.49425">
        <ele>271</ele>
        <time>2017-07-22T13:14:07Z</time>
      </trkpt>
      <trkpt lat="47.39184" lon="6.49445">
        <ele>272.20001220703</ele>
        <time>2017-07-22T13:14:12Z</time>
      </trkpt>
      <trkpt lat="47.39181" lon="6.49453">
        <ele>272.79998779297</ele>
        <time>2017-07-22T13:14:14Z</time>
      </trkpt>
      <trkpt lat="47.39183" lon="6.49473">
        <ele>273.39999389648</ele>
        <time>2017-07-22T13:14:18Z</time>
      </trkpt>
      <trkpt lat="47.39194" lon="6.49488">
        <ele>273.20001220703</ele>
        <time>2017-07-22T13:14:22Z</time>
      </trkpt>
      <trkpt lat="47.39212" lon="6.49514">
        <ele>273</ele>
        <time>2017-07-22T13:14:28Z</time>
      </trkpt>
      <trkpt lat="47.39239" lon="6.49556">
        <ele>272.20001220703</ele>
        <time>2017-07-22T13:14:35Z</time>
      </trkpt>
      <trkpt lat="47.39247" lon="6.49571">
        <ele>272</ele>
        <time>2017-07-22T13:14:37Z</time>
      </trkpt>
      <trkpt lat="47.39259" lon="6.49594">
        <ele>271.39999389648</ele>
        <time>2017-07-22T13:14:40Z</time>
      </trkpt>
      <trkpt lat="47.39263" lon="6.49601">
        <ele>271.20001220703</ele>
        <time>2017-07-22T13:14:41Z</time>
      </trkpt>
      <trkpt lat="47.39267" lon="6.49608">
        <ele>270.79998779297</ele>
        <time>2017-07-22T13:14:42Z</time>
      </trkpt>
      <trkpt lat="47.39282" lon="6.49634">
        <ele>270.20001220703</ele>
        <time>2017-07-22T13:14:46Z</time>
      </trkpt>
      <trkpt lat="47.39298" lon="6.49663">
        <ele>270.60000610352</ele>
        <time>2017-07-22T13:14:52Z</time>
      </trkpt>
      <trkpt lat="47.39305" lon="6.49676">
        <ele>271.39999389648</ele>
        <time>2017-07-22T13:14:55Z</time>
      </trkpt>
      <trkpt lat="47.39305" lon="6.49687">
        <ele>271.79998779297</ele>
        <time>2017-07-22T13:14:57Z</time>
      </trkpt>
      <trkpt lat="47.39304" lon="6.49692">
        <ele>272</ele>
        <time>2017-07-22T13:14:58Z</time>
      </trkpt>
      <trkpt lat="47.39297" lon="6.497">
        <ele>272.60000610352</ele>
        <time>2017-07-22T13:15:00Z</time>
      </trkpt>
      <trkpt lat="47.39291" lon="6.49705">
        <ele>273</ele>
        <time>2017-07-22T13:15:02Z</time>
      </trkpt>
      <trkpt lat="47.39287" lon="6.49708">
        <ele>273.20001220703</ele>
        <time>2017-07-22T13:15:03Z</time>
      </trkpt>
      <trkpt lat="47.39281" lon="6.49714">
        <ele>273.60000610352</ele>
        <time>2017-07-22T13:15:05Z</time>
      </trkpt>
      <trkpt lat="47.39275" lon="6.49725">
        <ele>274.20001220703</ele>
        <time>2017-07-22T13:15:08Z</time>
      </trkpt>
      <trkpt lat="47.39271" lon="6.49733">
        <ele>274.60000610352</ele>
        <time>2017-07-22T13:15:10Z</time>
      </trkpt>
      <trkpt lat="47.39258" lon="6.49752">
        <ele>275.60000610352</ele>
        <time>2017-07-22T13:15:16Z</time>
      </trkpt>
      <trkpt lat="47.3925" lon="6.49764">
        <ele>276</ele>
        <time>2017-07-22T13:15:19Z</time>
      </trkpt>
      <trkpt lat="47.39239" lon="6.49782">
        <ele>276.20001220703</ele>
        <time>2017-07-22T13:15:23Z</time>
      </trkpt>
      <trkpt lat="47.39227" lon="6.49802">
        <ele>276.60000610352</ele>
        <time>2017-07-22T13:15:28Z</time>
      </trkpt>
      <trkpt lat="47.39221" lon="6.49808">
        <ele>276.79998779297</ele>
        <time>2017-07-22T13:15:30Z</time>
      </trkpt>
      <trkpt lat="47.39207" lon="6.49827">
        <ele>277.79998779297</ele>
        <time>2017-07-22T13:15:36Z</time>
      </trkpt>
      <trkpt lat="47.39205" lon="6.49829">
        <ele>278</ele>
        <time>2017-07-22T13:15:37Z</time>
      </trkpt>
      <trkpt lat="47.39192" lon="6.49842">
        <ele>279</ele>
        <time>2017-07-22T13:15:43Z</time>
      </trkpt>
      <trkpt lat="47.3919" lon="6.49844">
        <ele>279.20001220703</ele>
        <time>2017-07-22T13:15:44Z</time>
      </trkpt>
      <trkpt lat="47.39173" lon="6.49862">
        <ele>280</ele>
        <time>2017-07-22T13:15:52Z</time>
      </trkpt>
      <trkpt lat="47.39157" lon="6.49879">
        <ele>281</ele>
        <time>2017-07-22T13:15:59Z</time>
      </trkpt>
      <trkpt lat="47.39154" lon="6.49882">
        <ele>281.20001220703</ele>
        <time>2017-07-22T13:16:00Z</time>
      </trkpt>
      <trkpt lat="47.39138" lon="6.49894">
        <ele>281.60000610352</ele>
        <time>2017-07-22T13:16:06Z</time>
      </trkpt>
      <trkpt lat="47.3912" lon="6.49912">
        <ele>282.20001220703</ele>
        <time>2017-07-22T13:16:13Z</time>
      </trkpt>
      <trkpt lat="47.39117" lon="6.49915">
        <ele>282.20001220703</ele>
        <time>2017-07-22T13:16:14Z</time>
      </trkpt>
      <trkpt lat="47.39097" lon="6.49934">
        <ele>282.79998779297</ele>
        <time>2017-07-22T13:16:22Z</time>
      </trkpt>
      <trkpt lat="47.39091" lon="6.49938">
        <ele>283.20001220703</ele>
        <time>2017-07-22T13:16:24Z</time>
      </trkpt>
      <trkpt lat="47.39077" lon="6.49953">
        <ele>284</ele>
        <time>2017-07-22T13:16:30Z</time>
      </trkpt>
      <trkpt lat="47.39071" lon="6.49957">
        <ele>284.20001220703</ele>
        <time>2017-07-22T13:16:32Z</time>
      </trkpt>
      <trkpt lat="47.39057" lon="6.49971">
        <ele>285.20001220703</ele>
        <time>2017-07-22T13:16:38Z</time>
      </trkpt>
      <trkpt lat="47.39052" lon="6.49975">
        <ele>285.60000610352</ele>
        <time>2017-07-22T13:16:40Z</time>
      </trkpt>
      <trkpt lat="47.39036" lon="6.49989">
        <ele>286.39999389648</ele>
        <time>2017-07-22T13:16:46Z</time>
      </trkpt>
      <trkpt lat="47.39025" lon="6.49999">
        <ele>287</ele>
        <time>2017-07-22T13:16:50Z</time>
      </trkpt>
      <trkpt lat="47.39018" lon="6.50007">
        <ele>287.39999389648</ele>
        <time>2017-07-22T13:16:53Z</time>
      </trkpt>
      <trkpt lat="47.39007" lon="6.50018">
        <ele>288.39999389648</ele>
        <time>2017-07-22T13:16:57Z</time>
      </trkpt>
      <trkpt lat="47.39002" lon="6.50024">
        <ele>288.60000610352</ele>
        <time>2017-07-22T13:16:59Z</time>
      </trkpt>
      <trkpt lat="47.38988" lon="6.50041">
        <ele>289.79998779297</ele>
        <time>2017-07-22T13:17:05Z</time>
      </trkpt>
      <trkpt lat="47.38974" lon="6.50059">
        <ele>290.79998779297</ele>
        <time>2017-07-22T13:17:11Z</time>
      </trkpt>
      <trkpt lat="47.38963" lon="6.50081">
        <ele>291.79998779297</ele>
        <time>2017-07-22T13:17:17Z</time>
      </trkpt>
      <trkpt lat="47.38961" lon="6.50085">
        <ele>291.79998779297</ele>
        <time>2017-07-22T13:17:18Z</time>
      </trkpt>
      <trkpt lat="47.38959" lon="6.50088">
        <ele>292.20001220703</ele>
        <time>2017-07-22T13:17:20Z</time>
      </trkpt>
      <trkpt lat="47.38958" lon="6.50087">
        <ele>292.39999389648</ele>
        <time>2017-07-22T13:17:21Z</time>
      </trkpt>
      <trkpt lat="47.38963" lon="6.50084">
        <ele>292.39999389648</ele>
        <time>2017-07-22T13:17:34Z</time>
      </trkpt>
      <trkpt lat="47.38964" lon="6.50083">
        <ele>292.39999389648</ele>
        <time>2017-07-22T13:17:35Z</time>
      </trkpt>
      <trkpt lat="47.38961" lon="6.50081">
        <ele>292.39999389648</ele>
        <time>2017-07-22T13:17:38Z</time>
      </trkpt>
      <trkpt lat="47.38961" lon="6.50086">
        <ele>292.20001220703</ele>
        <time>2017-07-22T13:21:23Z</time>
      </trkpt>
      <trkpt lat="47.38961" lon="6.50089">
        <ele>292.20001220703</ele>
        <time>2017-07-22T13:21:24Z</time>
      </trkpt>
      <trkpt lat="47.38959" lon="6.50092">
        <ele>292.20001220703</ele>
        <time>2017-07-22T13:21:25Z</time>
      </trkpt>
      <trkpt lat="47.38952" lon="6.50102">
        <ele>292.39999389648</ele>
        <time>2017-07-22T13:21:29Z</time>
      </trkpt>
      <trkpt lat="47.38943" lon="6.50115">
        <ele>293</ele>
        <time>2017-07-22T13:21:34Z</time>
      </trkpt>
      <trkpt lat="47.38937" lon="6.50122">
        <ele>293.20001220703</ele>
        <time>2017-07-22T13:21:37Z</time>
      </trkpt>
      <trkpt lat="47.38923" lon="6.50135">
        <ele>293.39999389648</ele>
        <time>2017-07-22T13:21:42Z</time>
      </trkpt>
      <trkpt lat="47.38899" lon="6.50157">
        <ele>293.20001220703</ele>
        <time>2017-07-22T13:21:48Z</time>
      </trkpt>
      <trkpt lat="47.38866" lon="6.50179">
        <ele>291.79998779297</ele>
        <time>2017-07-22T13:21:55Z</time>
      </trkpt>
      <trkpt lat="47.38834" lon="6.50187">
        <ele>291.20001220703</ele>
        <time>2017-07-22T13:22:01Z</time>
      </trkpt>
      <trkpt lat="47.38821" lon="6.50191">
        <ele>290.79998779297</ele>
        <time>2017-07-22T13:22:03Z</time>
      </trkpt>
      <trkpt lat="47.388" lon="6.50199">
        <ele>290</ele>
        <time>2017-07-22T13:22:06Z</time>
      </trkpt>
      <trkpt lat="47.38793" lon="6.50204">
        <ele>289.60000610352</ele>
        <time>2017-07-22T13:22:07Z</time>
      </trkpt>
      <trkpt lat="47.38765" lon="6.50225">
        <ele>288.60000610352</ele>
        <time>2017-07-22T13:22:11Z</time>
      </trkpt>
      <trkpt lat="47.38758" lon="6.50231">
        <ele>288.20001220703</ele>
        <time>2017-07-22T13:22:12Z</time>
      </trkpt>
      <trkpt lat="47.38738" lon="6.50249">
        <ele>287.20001220703</ele>
        <time>2017-07-22T13:22:15Z</time>
      </trkpt>
      <trkpt lat="47.38712" lon="6.50274">
        <ele>286</ele>
        <time>2017-07-22T13:22:19Z</time>
      </trkpt>
      <trkpt lat="47.38698" lon="6.50287">
        <ele>285.20001220703</ele>
        <time>2017-07-22T13:22:21Z</time>
      </trkpt>
      <trkpt lat="47.38691" lon="6.50293">
        <ele>284.79998779297</ele>
        <time>2017-07-22T13:22:22Z</time>
      </trkpt>
      <trkpt lat="47.38668" lon="6.50311">
        <ele>283.79998779297</ele>
        <time>2017-07-22T13:22:25Z</time>
      </trkpt>
      <trkpt lat="47.38638" lon="6.50334">
        <ele>282.60000610352</ele>
        <time>2017-07-22T13:22:29Z</time>
      </trkpt>
      <trkpt lat="47.38613" lon="6.50351">
        <ele>281.20001220703</ele>
        <time>2017-07-22T13:22:32Z</time>
      </trkpt>
      <trkpt lat="47.38588" lon="6.50366">
        <ele>280.20001220703</ele>
        <time>2017-07-22T13:22:35Z</time>
      </trkpt>
      <trkpt lat="47.3858" lon="6.50371">
        <ele>280</ele>
        <time>2017-07-22T13:22:36Z</time>
      </trkpt>
      <trkpt lat="47.38545" lon="6.50392">
        <ele>278.79998779297</ele>
        <time>2017-07-22T13:22:40Z</time>
      </trkpt>
      <trkpt lat="47.38519" lon="6.50408">
        <ele>277.60000610352</ele>
        <time>2017-07-22T13:22:43Z</time>
      </trkpt>
      <trkpt lat="47.3851" lon="6.50414">
        <ele>277</ele>
        <time>2017-07-22T13:22:44Z</time>
      </trkpt>
      <trkpt lat="47.38492" lon="6.50424">
        <ele>276.20001220703</ele>
        <time>2017-07-22T13:22:46Z</time>
      </trkpt>
      <trkpt lat="47.38463" lon="6.50438">
        <ele>274.79998779297</ele>
        <time>2017-07-22T13:22:49Z</time>
      </trkpt>
      <trkpt lat="47.38443" lon="6.50448">
        <ele>274.20001220703</ele>
        <time>2017-07-22T13:22:51Z</time>
      </trkpt>
      <trkpt lat="47.38423" lon="6.50457">
        <ele>273.60000610352</ele>
        <time>2017-07-22T13:22:53Z</time>
      </trkpt>
      <trkpt lat="47.38394" lon="6.50469">
        <ele>271.79998779297</ele>
        <time>2017-07-22T13:22:56Z</time>
      </trkpt>
      <trkpt lat="47.38376" lon="6.50478">
        <ele>271.39999389648</ele>
        <time>2017-07-22T13:22:58Z</time>
      </trkpt>
      <trkpt lat="47.38351" lon="6.50492">
        <ele>270.79998779297</ele>
        <time>2017-07-22T13:23:01Z</time>
      </trkpt>
      <trkpt lat="47.38328" lon="6.50507">
        <ele>270.60000610352</ele>
        <time>2017-07-22T13:23:04Z</time>
      </trkpt>
      <trkpt lat="47.38293" lon="6.50525">
        <ele>270.60000610352</ele>
        <time>2017-07-22T13:23:09Z</time>
      </trkpt>
      <trkpt lat="47.38258" lon="6.50528">
        <ele>270.60000610352</ele>
        <time>2017-07-22T13:23:14Z</time>
      </trkpt>
      <trkpt lat="47.38225" lon="6.50528">
        <ele>270.20001220703</ele>
        <time>2017-07-22T13:23:19Z</time>
      </trkpt>
      <trkpt lat="47.38188" lon="6.50527">
        <ele>269.79998779297</ele>
        <time>2017-07-22T13:23:25Z</time>
      </trkpt>
      <trkpt lat="47.38176" lon="6.50527">
        <ele>269.79998779297</ele>
        <time>2017-07-22T13:23:27Z</time>
      </trkpt>
      <trkpt lat="47.38164" lon="6.50524">
        <ele>269.60000610352</ele>
        <time>2017-07-22T13:23:29Z</time>
      </trkpt>
      <trkpt lat="47.38146" lon="6.5052">
        <ele>269.79998779297</ele>
        <time>2017-07-22T13:23:32Z</time>
      </trkpt>
      <trkpt lat="47.38112" lon="6.50509">
        <ele>269.79998779297</ele>
        <time>2017-07-22T13:23:38Z</time>
      </trkpt>
      <trkpt lat="47.38061" lon="6.50492">
        <ele>269.20001220703</ele>
        <time>2017-07-22T13:23:47Z</time>
      </trkpt>
      <trkpt lat="47.38045" lon="6.50484">
        <ele>269.20001220703</ele>
        <time>2017-07-22T13:23:50Z</time>
      </trkpt>
      <trkpt lat="47.38029" lon="6.50476">
        <ele>269</ele>
        <time>2017-07-22T13:23:53Z</time>
      </trkpt>
      <trkpt lat="47.38012" lon="6.50469">
        <ele>268.79998779297</ele>
        <time>2017-07-22T13:23:56Z</time>
      </trkpt>
      <trkpt lat="47.37979" lon="6.50459">
        <ele>268.39999389648</ele>
        <time>2017-07-22T13:24:02Z</time>
      </trkpt>
      <trkpt lat="47.37962" lon="6.50454">
        <ele>268.39999389648</ele>
        <time>2017-07-22T13:24:05Z</time>
      </trkpt>
      <trkpt lat="47.37946" lon="6.50452">
        <ele>268.60000610352</ele>
        <time>2017-07-22T13:24:08Z</time>
      </trkpt>
      <trkpt lat="47.37909" lon="6.50446">
        <ele>269.60000610352</ele>
        <time>2017-07-22T13:24:15Z</time>
      </trkpt>
      <trkpt lat="47.37904" lon="6.50444">
        <ele>269.79998779297</ele>
        <time>2017-07-22T13:24:16Z</time>
      </trkpt>
      <trkpt lat="47.37866" lon="6.50432">
        <ele>269.79998779297</ele>
        <time>2017-07-22T13:24:22Z</time>
      </trkpt>
      <trkpt lat="47.3782" lon="6.50422">
        <ele>269.20001220703</ele>
        <time>2017-07-22T13:24:29Z</time>
      </trkpt>
      <trkpt lat="47.37781" lon="6.50413">
        <ele>269</ele>
        <time>2017-07-22T13:24:35Z</time>
      </trkpt>
      <trkpt lat="47.37732" lon="6.50397">
        <ele>269.60000610352</ele>
        <time>2017-07-22T13:24:43Z</time>
      </trkpt>
      <trkpt lat="47.37688" lon="6.50376">
        <ele>269.20001220703</ele>
        <time>2017-07-22T13:24:50Z</time>
      </trkpt>
      <trkpt lat="47.37662" lon="6.50361">
        <ele>268.79998779297</ele>
        <time>2017-07-22T13:24:54Z</time>
      </trkpt>
      <trkpt lat="47.37638" lon="6.50344">
        <ele>268.39999389648</ele>
        <time>2017-07-22T13:24:58Z</time>
      </trkpt>
      <trkpt lat="47.37586" lon="6.50302">
        <ele>268.39999389648</ele>
        <time>2017-07-22T13:25:07Z</time>
      </trkpt>
      <trkpt lat="47.37551" lon="6.50271">
        <ele>268.39999389648</ele>
        <time>2017-07-22T13:25:14Z</time>
      </trkpt>
      <trkpt lat="47.37516" lon="6.50242">
        <ele>268.20001220703</ele>
        <time>2017-07-22T13:25:21Z</time>
      </trkpt>
      <trkpt lat="47.37469" lon="6.50201">
        <ele>268.20001220703</ele>
        <time>2017-07-22T13:25:31Z</time>
      </trkpt>
      <trkpt lat="47.37439" lon="6.5018">
        <ele>268.39999389648</ele>
        <time>2017-07-22T13:25:38Z</time>
      </trkpt>
      <trkpt lat="47.37407" lon="6.5016">
        <ele>268.79998779297</ele>
        <time>2017-07-22T13:25:46Z</time>
      </trkpt>
      <trkpt lat="47.3738" lon="6.50144">
        <ele>269</ele>
        <time>2017-07-22T13:25:52Z</time>
      </trkpt>
      <trkpt lat="47.37359" lon="6.50136">
        <ele>269.39999389648</ele>
        <time>2017-07-22T13:25:57Z</time>
      </trkpt>
      <trkpt lat="47.37355" lon="6.50135">
        <ele>269.60000610352</ele>
        <time>2017-07-22T13:25:58Z</time>
      </trkpt>
      <trkpt lat="47.37351" lon="6.50133">
        <ele>269.79998779297</ele>
        <time>2017-07-22T13:25:59Z</time>
      </trkpt>
      <trkpt lat="47.37325" lon="6.50126">
        <ele>270</ele>
        <time>2017-07-22T13:26:05Z</time>
      </trkpt>
      <trkpt lat="47.37311" lon="6.50119">
        <ele>270</ele>
        <time>2017-07-22T13:26:08Z</time>
      </trkpt>
      <trkpt lat="47.37295" lon="6.50105">
        <ele>269.79998779297</ele>
        <time>2017-07-22T13:26:12Z</time>
      </trkpt>
      <trkpt lat="47.37285" lon="6.50092">
        <ele>270.20001220703</ele>
        <time>2017-07-22T13:26:15Z</time>
      </trkpt>
      <trkpt lat="47.37278" lon="6.50087">
        <ele>270.60000610352</ele>
        <time>2017-07-22T13:26:17Z</time>
      </trkpt>
      <trkpt lat="47.37275" lon="6.50085">
        <ele>271</ele>
        <time>2017-07-22T13:26:18Z</time>
      </trkpt>
      <trkpt lat="47.37251" lon="6.50066">
        <ele>271.79998779297</ele>
        <time>2017-07-22T13:26:25Z</time>
      </trkpt>
      <trkpt lat="47.37248" lon="6.50064">
        <ele>272</ele>
        <time>2017-07-22T13:26:26Z</time>
      </trkpt>
      <trkpt lat="47.37228" lon="6.50049">
        <ele>273</ele>
        <time>2017-07-22T13:26:32Z</time>
      </trkpt>
      <trkpt lat="47.37221" lon="6.50045">
        <ele>273.39999389648</ele>
        <time>2017-07-22T13:26:34Z</time>
      </trkpt>
      <trkpt lat="47.37202" lon="6.50024">
        <ele>274.20001220703</ele>
        <time>2017-07-22T13:26:40Z</time>
      </trkpt>
      <trkpt lat="47.37196" lon="6.50017">
        <ele>274.60000610352</ele>
        <time>2017-07-22T13:26:42Z</time>
      </trkpt>
      <trkpt lat="47.37186" lon="6.50004">
        <ele>275.39999389648</ele>
        <time>2017-07-22T13:26:46Z</time>
      </trkpt>
      <trkpt lat="47.37179" lon="6.49992">
        <ele>275.60000610352</ele>
        <time>2017-07-22T13:26:49Z</time>
      </trkpt>
      <trkpt lat="47.37162" lon="6.49964">
        <ele>275.39999389648</ele>
        <time>2017-07-22T13:26:55Z</time>
      </trkpt>
      <trkpt lat="47.37145" lon="6.49921">
        <ele>275</ele>
        <time>2017-07-22T13:27:01Z</time>
      </trkpt>
      <trkpt lat="47.37132" lon="6.49883">
        <ele>274.20001220703</ele>
        <time>2017-07-22T13:27:05Z</time>
      </trkpt>
      <trkpt lat="47.37124" lon="6.49865">
        <ele>273.60000610352</ele>
        <time>2017-07-22T13:27:07Z</time>
      </trkpt>
      <trkpt lat="47.37116" lon="6.49848">
        <ele>273.20001220703</ele>
        <time>2017-07-22T13:27:09Z</time>
      </trkpt>
      <trkpt lat="47.371" lon="6.49816">
        <ele>272.20001220703</ele>
        <time>2017-07-22T13:27:13Z</time>
      </trkpt>
      <trkpt lat="47.37096" lon="6.49808">
        <ele>272</ele>
        <time>2017-07-22T13:27:14Z</time>
      </trkpt>
      <trkpt lat="47.37073" lon="6.49764">
        <ele>270.79998779297</ele>
        <time>2017-07-22T13:27:20Z</time>
      </trkpt>
      <trkpt lat="47.37069" lon="6.49757">
        <ele>270.79998779297</ele>
        <time>2017-07-22T13:27:21Z</time>
      </trkpt>
      <trkpt lat="47.37034" lon="6.4969">
        <ele>270.60000610352</ele>
        <time>2017-07-22T13:27:31Z</time>
      </trkpt>
      <trkpt lat="47.37031" lon="6.49684">
        <ele>270.60000610352</ele>
        <time>2017-07-22T13:27:32Z</time>
      </trkpt>
      <trkpt lat="47.37006" lon="6.49637">
        <ele>270.60000610352</ele>
        <time>2017-07-22T13:27:40Z</time>
      </trkpt>
      <trkpt lat="47.36984" lon="6.49593">
        <ele>270.79998779297</ele>
        <time>2017-07-22T13:27:47Z</time>
      </trkpt>
      <trkpt lat="47.36971" lon="6.49557">
        <ele>271.20001220703</ele>
        <time>2017-07-22T13:27:52Z</time>
      </trkpt>
      <trkpt lat="47.36969" lon="6.4955">
        <ele>271.20001220703</ele>
        <time>2017-07-22T13:27:53Z</time>
      </trkpt>
      <trkpt lat="47.36961" lon="6.49528">
        <ele>271</ele>
        <time>2017-07-22T13:27:56Z</time>
      </trkpt>
      <trkpt lat="47.36959" lon="6.4952">
        <ele>271</ele>
        <time>2017-07-22T13:27:57Z</time>
      </trkpt>
      <trkpt lat="47.3694" lon="6.49461">
        <ele>270</ele>
        <time>2017-07-22T13:28:04Z</time>
      </trkpt>
      <trkpt lat="47.36935" lon="6.49444">
        <ele>269.79998779297</ele>
        <time>2017-07-22T13:28:06Z</time>
      </trkpt>
      <trkpt lat="47.36917" lon="6.49391">
        <ele>269</ele>
        <time>2017-07-22T13:28:12Z</time>
      </trkpt>
      <trkpt lat="47.36911" lon="6.49374">
        <ele>268.79998779297</ele>
        <time>2017-07-22T13:28:14Z</time>
      </trkpt>
      <trkpt lat="47.36888" lon="6.49305">
        <ele>268</ele>
        <time>2017-07-22T13:28:22Z</time>
      </trkpt>
      <trkpt lat="47.3688" lon="6.49279">
        <ele>267.79998779297</ele>
        <time>2017-07-22T13:28:25Z</time>
      </trkpt>
      <trkpt lat="47.36865" lon="6.4923">
        <ele>267.39999389648</ele>
        <time>2017-07-22T13:28:31Z</time>
      </trkpt>
      <trkpt lat="47.36846" lon="6.49156">
        <ele>267.20001220703</ele>
        <time>2017-07-22T13:28:40Z</time>
      </trkpt>
      <trkpt lat="47.36841" lon="6.49131">
        <ele>267</ele>
        <time>2017-07-22T13:28:43Z</time>
      </trkpt>
      <trkpt lat="47.36839" lon="6.49106">
        <ele>267</ele>
        <time>2017-07-22T13:28:46Z</time>
      </trkpt>
      <trkpt lat="47.36831" lon="6.49053">
        <ele>266.79998779297</ele>
        <time>2017-07-22T13:28:52Z</time>
      </trkpt>
      <trkpt lat="47.36819" lon="6.48987">
        <ele>266.39999389648</ele>
        <time>2017-07-22T13:29:00Z</time>
      </trkpt>
      <trkpt lat="47.36806" lon="6.48915">
        <ele>266.39999389648</ele>
        <time>2017-07-22T13:29:09Z</time>
      </trkpt>
      <trkpt lat="47.36797" lon="6.48845">
        <ele>266.60000610352</ele>
        <time>2017-07-22T13:29:18Z</time>
      </trkpt>
      <trkpt lat="47.36795" lon="6.48822">
        <ele>266.60000610352</ele>
        <time>2017-07-22T13:29:21Z</time>
      </trkpt>
      <trkpt lat="47.36789" lon="6.48784">
        <ele>266.39999389648</ele>
        <time>2017-07-22T13:29:26Z</time>
      </trkpt>
      <trkpt lat="47.36785" lon="6.48745">
        <ele>266.60000610352</ele>
        <time>2017-07-22T13:29:32Z</time>
      </trkpt>
      <trkpt lat="47.36782" lon="6.48733">
        <ele>266.60000610352</ele>
        <time>2017-07-22T13:29:34Z</time>
      </trkpt>
      <trkpt lat="47.36778" lon="6.4871">
        <ele>266.79998779297</ele>
        <time>2017-07-22T13:29:39Z</time>
      </trkpt>
      <trkpt lat="47.36778" lon="6.48695">
        <ele>268</ele>
        <time>2017-07-22T13:29:44Z</time>
      </trkpt>
      <trkpt lat="47.36778" lon="6.48692">
        <ele>268.20001220703</ele>
        <time>2017-07-22T13:29:45Z</time>
      </trkpt>
      <trkpt lat="47.36776" lon="6.48677">
        <ele>269</ele>
        <time>2017-07-22T13:29:50Z</time>
      </trkpt>
      <trkpt lat="47.36777" lon="6.48671">
        <ele>269.39999389648</ele>
        <time>2017-07-22T13:29:52Z</time>
      </trkpt>
      <trkpt lat="47.36777" lon="6.48657">
        <ele>270.20001220703</ele>
        <time>2017-07-22T13:29:57Z</time>
      </trkpt>
      <trkpt lat="47.36777" lon="6.48648">
        <ele>270.79998779297</ele>
        <time>2017-07-22T13:30:00Z</time>
      </trkpt>
      <trkpt lat="47.36778" lon="6.48643">
        <ele>271.39999389648</ele>
        <time>2017-07-22T13:30:02Z</time>
      </trkpt>
      <trkpt lat="47.36778" lon="6.48628">
        <ele>272.20001220703</ele>
        <time>2017-07-22T13:30:07Z</time>
      </trkpt>
      <trkpt lat="47.36779" lon="6.48625">
        <ele>272.60000610352</ele>
        <time>2017-07-22T13:30:08Z</time>
      </trkpt>
      <trkpt lat="47.36778" lon="6.48606">
        <ele>273.79998779297</ele>
        <time>2017-07-22T13:30:15Z</time>
      </trkpt>
      <trkpt lat="47.36778" lon="6.48603">
        <ele>273.79998779297</ele>
        <time>2017-07-22T13:30:16Z</time>
      </trkpt>
      <trkpt lat="47.36777" lon="6.48589">
        <ele>274.79998779297</ele>
        <time>2017-07-22T13:30:22Z</time>
      </trkpt>
      <trkpt lat="47.36778" lon="6.48587">
        <ele>275</ele>
        <time>2017-07-22T13:30:23Z</time>
      </trkpt>
      <trkpt lat="47.36778" lon="6.48567">
        <ele>275.79998779297</ele>
        <time>2017-07-22T13:30:30Z</time>
      </trkpt>
      <trkpt lat="47.3678" lon="6.48546">
        <ele>277</ele>
        <time>2017-07-22T13:30:37Z</time>
      </trkpt>
      <trkpt lat="47.3678" lon="6.48543">
        <ele>277.20001220703</ele>
        <time>2017-07-22T13:30:38Z</time>
      </trkpt>
      <trkpt lat="47.36781" lon="6.48533">
        <ele>278</ele>
        <time>2017-07-22T13:30:42Z</time>
      </trkpt>
      <trkpt lat="47.36782" lon="6.48519">
        <ele>278.79998779297</ele>
        <time>2017-07-22T13:30:47Z</time>
      </trkpt>
      <trkpt lat="47.36781" lon="6.48514">
        <ele>279.20001220703</ele>
        <time>2017-07-22T13:30:49Z</time>
      </trkpt>
      <trkpt lat="47.3678" lon="6.48501">
        <ele>279.79998779297</ele>
        <time>2017-07-22T13:30:54Z</time>
      </trkpt>
      <trkpt lat="47.3678" lon="6.48496">
        <ele>280.39999389648</ele>
        <time>2017-07-22T13:30:56Z</time>
      </trkpt>
      <trkpt lat="47.3678" lon="6.48483">
        <ele>281.20001220703</ele>
        <time>2017-07-22T13:31:01Z</time>
      </trkpt>
      <trkpt lat="47.3678" lon="6.48481">
        <ele>281.39999389648</ele>
        <time>2017-07-22T13:31:02Z</time>
      </trkpt>
      <trkpt lat="47.36779" lon="6.48461">
        <ele>282.39999389648</ele>
        <time>2017-07-22T13:31:09Z</time>
      </trkpt>
      <trkpt lat="47.36778" lon="6.48458">
        <ele>282.39999389648</ele>
        <time>2017-07-22T13:31:10Z</time>
      </trkpt>
      <trkpt lat="47.36774" lon="6.48442">
        <ele>283.39999389648</ele>
        <time>2017-07-22T13:31:15Z</time>
      </trkpt>
      <trkpt lat="47.36771" lon="6.48434">
        <ele>283.79998779297</ele>
        <time>2017-07-22T13:31:18Z</time>
      </trkpt>
      <trkpt lat="47.36768" lon="6.48424">
        <ele>284.39999389648</ele>
        <time>2017-07-22T13:31:22Z</time>
      </trkpt>
      <trkpt lat="47.36763" lon="6.4841">
        <ele>285.20001220703</ele>
        <time>2017-07-22T13:31:27Z</time>
      </trkpt>
      <trkpt lat="47.36762" lon="6.48404">
        <ele>285.60000610352</ele>
        <time>2017-07-22T13:31:29Z</time>
      </trkpt>
      <trkpt lat="47.36756" lon="6.48389">
        <ele>286.60000610352</ele>
        <time>2017-07-22T13:31:35Z</time>
      </trkpt>
      <trkpt lat="47.36755" lon="6.48387">
        <ele>286.79998779297</ele>
        <time>2017-07-22T13:31:36Z</time>
      </trkpt>
      <trkpt lat="47.36748" lon="6.48373">
        <ele>287.60000610352</ele>
        <time>2017-07-22T13:31:42Z</time>
      </trkpt>
      <trkpt lat="47.36746" lon="6.48372">
        <ele>287.79998779297</ele>
        <time>2017-07-22T13:31:43Z</time>
      </trkpt>
      <trkpt lat="47.36742" lon="6.48367">
        <ele>288.79998779297</ele>
        <time>2017-07-22T13:31:46Z</time>
      </trkpt>
      <trkpt lat="47.36736" lon="6.48366">
        <ele>289.20001220703</ele>
        <time>2017-07-22T13:31:49Z</time>
      </trkpt>
      <trkpt lat="47.36733" lon="6.48363">
        <ele>289.79998779297</ele>
        <time>2017-07-22T13:31:51Z</time>
      </trkpt>
      <trkpt lat="47.36727" lon="6.48354">
        <ele>290.39999389648</ele>
        <time>2017-07-22T13:31:55Z</time>
      </trkpt>
      <trkpt lat="47.36724" lon="6.48335">
        <ele>290.79998779297</ele>
        <time>2017-07-22T13:32:00Z</time>
      </trkpt>
      <trkpt lat="47.36725" lon="6.48331">
        <ele>290.79998779297</ele>
        <time>2017-07-22T13:32:01Z</time>
      </trkpt>
      <trkpt lat="47.36727" lon="6.48304">
        <ele>291.60000610352</ele>
        <time>2017-07-22T13:32:08Z</time>
      </trkpt>
      <trkpt lat="47.36728" lon="6.483">
        <ele>291.79998779297</ele>
        <time>2017-07-22T13:32:09Z</time>
      </trkpt>
      <trkpt lat="47.36733" lon="6.48277">
        <ele>293</ele>
        <time>2017-07-22T13:32:15Z</time>
      </trkpt>
      <trkpt lat="47.36735" lon="6.4827">
        <ele>293.39999389648</ele>
        <time>2017-07-22T13:32:17Z</time>
      </trkpt>
      <trkpt lat="47.36743" lon="6.48246">
        <ele>293.79998779297</ele>
        <time>2017-07-22T13:32:24Z</time>
      </trkpt>
      <trkpt lat="47.36746" lon="6.4824">
        <ele>294</ele>
        <time>2017-07-22T13:32:26Z</time>
      </trkpt>
      <trkpt lat="47.36753" lon="6.48215">
        <ele>294.79998779297</ele>
        <time>2017-07-22T13:32:33Z</time>
      </trkpt>
      <trkpt lat="47.36754" lon="6.48212">
        <ele>295</ele>
        <time>2017-07-22T13:32:34Z</time>
      </trkpt>
      <trkpt lat="47.3676" lon="6.48189">
        <ele>296.20001220703</ele>
        <time>2017-07-22T13:32:40Z</time>
      </trkpt>
      <trkpt lat="47.36762" lon="6.48178">
        <ele>296.60000610352</ele>
        <time>2017-07-22T13:32:43Z</time>
      </trkpt>
      <trkpt lat="47.36763" lon="6.48165">
        <ele>297.20001220703</ele>
        <time>2017-07-22T13:32:46Z</time>
      </trkpt>
      <trkpt lat="47.36766" lon="6.4815">
        <ele>297.60000610352</ele>
        <time>2017-07-22T13:32:50Z</time>
      </trkpt>
      <trkpt lat="47.3677" lon="6.48119">
        <ele>298.20001220703</ele>
        <time>2017-07-22T13:32:57Z</time>
      </trkpt>
      <trkpt lat="47.36771" lon="6.48113">
        <ele>298.20001220703</ele>
        <time>2017-07-22T13:32:58Z</time>
      </trkpt>
      <trkpt lat="47.36772" lon="6.48075">
        <ele>298.39999389648</ele>
        <time>2017-07-22T13:33:05Z</time>
      </trkpt>
      <trkpt lat="47.36771" lon="6.4802">
        <ele>298.60000610352</ele>
        <time>2017-07-22T13:33:14Z</time>
      </trkpt>
      <trkpt lat="47.36762" lon="6.47993">
        <ele>299</ele>
        <time>2017-07-22T13:33:20Z</time>
      </trkpt>
      <trkpt lat="47.36753" lon="6.47973">
        <ele>299.39999389648</ele>
        <time>2017-07-22T13:33:25Z</time>
      </trkpt>
      <trkpt lat="47.36747" lon="6.47946">
        <ele>300.39999389648</ele>
        <time>2017-07-22T13:33:32Z</time>
      </trkpt>
      <trkpt lat="47.36739" lon="6.47911">
        <ele>301.39999389648</ele>
        <time>2017-07-22T13:33:40Z</time>
      </trkpt>
      <trkpt lat="47.36739" lon="6.47906">
        <ele>301.60000610352</ele>
        <time>2017-07-22T13:33:41Z</time>
      </trkpt>
      <trkpt lat="47.36736" lon="6.47881">
        <ele>302.60000610352</ele>
        <time>2017-07-22T13:33:46Z</time>
      </trkpt>
      <trkpt lat="47.36735" lon="6.47871">
        <ele>303.20001220703</ele>
        <time>2017-07-22T13:33:48Z</time>
      </trkpt>
      <trkpt lat="47.36732" lon="6.47848">
        <ele>303.60000610352</ele>
        <time>2017-07-22T13:33:52Z</time>
      </trkpt>
      <trkpt lat="47.36731" lon="6.47841">
        <ele>303.60000610352</ele>
        <time>2017-07-22T13:33:53Z</time>
      </trkpt>
      <trkpt lat="47.3673" lon="6.47828">
        <ele>303.60000610352</ele>
        <time>2017-07-22T13:33:55Z</time>
      </trkpt>
      <trkpt lat="47.36727" lon="6.47801">
        <ele>303.60000610352</ele>
        <time>2017-07-22T13:33:59Z</time>
      </trkpt>
      <trkpt lat="47.36725" lon="6.47768">
        <ele>303.60000610352</ele>
        <time>2017-07-22T13:34:04Z</time>
      </trkpt>
      <trkpt lat="47.36723" lon="6.47755">
        <ele>303.60000610352</ele>
        <time>2017-07-22T13:34:06Z</time>
      </trkpt>
      <trkpt lat="47.36721" lon="6.47728">
        <ele>303.60000610352</ele>
        <time>2017-07-22T13:34:10Z</time>
      </trkpt>
      <trkpt lat="47.36721" lon="6.47722">
        <ele>303.79998779297</ele>
        <time>2017-07-22T13:34:11Z</time>
      </trkpt>
      <trkpt lat="47.36721" lon="6.47703">
        <ele>303.79998779297</ele>
        <time>2017-07-22T13:34:14Z</time>
      </trkpt>
      <trkpt lat="47.36722" lon="6.47676">
        <ele>304.39999389648</ele>
        <time>2017-07-22T13:34:19Z</time>
      </trkpt>
      <trkpt lat="47.36724" lon="6.47663">
        <ele>304.79998779297</ele>
        <time>2017-07-22T13:34:22Z</time>
      </trkpt>
      <trkpt lat="47.36725" lon="6.47649">
        <ele>305.39999389648</ele>
        <time>2017-07-22T13:34:25Z</time>
      </trkpt>
      <trkpt lat="47.36726" lon="6.47635">
        <ele>306</ele>
        <time>2017-07-22T13:34:28Z</time>
      </trkpt>
      <trkpt lat="47.36727" lon="6.47616">
        <ele>307.20001220703</ele>
        <time>2017-07-22T13:34:32Z</time>
      </trkpt>
      <trkpt lat="47.36727" lon="6.47612">
        <ele>307.39999389648</ele>
        <time>2017-07-22T13:34:33Z</time>
      </trkpt>
      <trkpt lat="47.3673" lon="6.4758">
        <ele>308</ele>
        <time>2017-07-22T13:34:39Z</time>
      </trkpt>
      <trkpt lat="47.3673" lon="6.47575">
        <ele>308.20001220703</ele>
        <time>2017-07-22T13:34:40Z</time>
      </trkpt>
      <trkpt lat="47.36731" lon="6.47544">
        <ele>309</ele>
        <time>2017-07-22T13:34:46Z</time>
      </trkpt>
      <trkpt lat="47.36731" lon="6.47533">
        <ele>309</ele>
        <time>2017-07-22T13:34:48Z</time>
      </trkpt>
      <trkpt lat="47.36733" lon="6.47507">
        <ele>309.20001220703</ele>
        <time>2017-07-22T13:34:52Z</time>
      </trkpt>
      <trkpt lat="47.36735" lon="6.47458">
        <ele>308.20001220703</ele>
        <time>2017-07-22T13:34:58Z</time>
      </trkpt>
      <trkpt lat="47.36742" lon="6.4741">
        <ele>307</ele>
        <time>2017-07-22T13:35:03Z</time>
      </trkpt>
      <trkpt lat="47.36744" lon="6.474">
        <ele>306.79998779297</ele>
        <time>2017-07-22T13:35:04Z</time>
      </trkpt>
      <trkpt lat="47.36747" lon="6.47392">
        <ele>306.79998779297</ele>
        <time>2017-07-22T13:35:05Z</time>
      </trkpt>
      <trkpt lat="47.36753" lon="6.47375">
        <ele>306.39999389648</ele>
        <time>2017-07-22T13:35:07Z</time>
      </trkpt>
      <trkpt lat="47.36757" lon="6.47351">
        <ele>306.39999389648</ele>
        <time>2017-07-22T13:35:10Z</time>
      </trkpt>
      <trkpt lat="47.36759" lon="6.47343">
        <ele>306.39999389648</ele>
        <time>2017-07-22T13:35:11Z</time>
      </trkpt>
      <trkpt lat="47.36765" lon="6.4729">
        <ele>306.39999389648</ele>
        <time>2017-07-22T13:35:18Z</time>
      </trkpt>
      <trkpt lat="47.36772" lon="6.47233">
        <ele>306.20001220703</ele>
        <time>2017-07-22T13:35:25Z</time>
      </trkpt>
      <trkpt lat="47.36776" lon="6.47192">
        <ele>306</ele>
        <time>2017-07-22T13:35:30Z</time>
      </trkpt>
      <trkpt lat="47.36779" lon="6.47157">
        <ele>305.79998779297</ele>
        <time>2017-07-22T13:35:34Z</time>
      </trkpt>
      <trkpt lat="47.36783" lon="6.4709">
        <ele>305</ele>
        <time>2017-07-22T13:35:41Z</time>
      </trkpt>
      <trkpt lat="47.36783" lon="6.4705">
        <ele>304</ele>
        <time>2017-07-22T13:35:45Z</time>
      </trkpt>
      <trkpt lat="47.36783" lon="6.4702">
        <ele>303.20001220703</ele>
        <time>2017-07-22T13:35:48Z</time>
      </trkpt>
      <trkpt lat="47.36782" lon="6.47">
        <ele>302.79998779297</ele>
        <time>2017-07-22T13:35:50Z</time>
      </trkpt>
      <trkpt lat="47.36782" lon="6.46981">
        <ele>302.20001220703</ele>
        <time>2017-07-22T13:35:52Z</time>
      </trkpt>
      <trkpt lat="47.36781" lon="6.46961">
        <ele>302</ele>
        <time>2017-07-22T13:35:54Z</time>
      </trkpt>
      <trkpt lat="47.36777" lon="6.46933">
        <ele>301.60000610352</ele>
        <time>2017-07-22T13:35:57Z</time>
      </trkpt>
      <trkpt lat="47.3677" lon="6.46888">
        <ele>301.20001220703</ele>
        <time>2017-07-22T13:36:02Z</time>
      </trkpt>
      <trkpt lat="47.36764" lon="6.46827">
        <ele>301.39999389648</ele>
        <time>2017-07-22T13:36:10Z</time>
      </trkpt>
      <trkpt lat="47.36764" lon="6.46806">
        <ele>301.60000610352</ele>
        <time>2017-07-22T13:36:13Z</time>
      </trkpt>
      <trkpt lat="47.36767" lon="6.46792">
        <ele>301.39999389648</ele>
        <time>2017-07-22T13:36:15Z</time>
      </trkpt>
      <trkpt lat="47.36776" lon="6.46756">
        <ele>301</ele>
        <time>2017-07-22T13:36:20Z</time>
      </trkpt>
      <trkpt lat="47.36777" lon="6.4675">
        <ele>300.60000610352</ele>
        <time>2017-07-22T13:36:22Z</time>
      </trkpt>
      <trkpt lat="47.36778" lon="6.46746">
        <ele>298.60000610352</ele>
        <time>2017-07-22T13:36:46Z</time>
      </trkpt>
      <trkpt lat="47.3678" lon="6.4674">
        <ele>298.60000610352</ele>
        <time>2017-07-22T13:36:48Z</time>
      </trkpt>
      <trkpt lat="47.36788" lon="6.46714">
        <ele>298.39999389648</ele>
        <time>2017-07-22T13:36:53Z</time>
      </trkpt>
      <trkpt lat="47.36791" lon="6.46708">
        <ele>298.39999389648</ele>
        <time>2017-07-22T13:36:54Z</time>
      </trkpt>
      <trkpt lat="47.36802" lon="6.46689">
        <ele>298.20001220703</ele>
        <time>2017-07-22T13:36:57Z</time>
      </trkpt>
      <trkpt lat="47.36824" lon="6.4665">
        <ele>297.39999389648</ele>
        <time>2017-07-22T13:37:02Z</time>
      </trkpt>
      <trkpt lat="47.36845" lon="6.46615">
        <ele>296.20001220703</ele>
        <time>2017-07-22T13:37:06Z</time>
      </trkpt>
      <trkpt lat="47.36866" lon="6.46579">
        <ele>295.20001220703</ele>
        <time>2017-07-22T13:37:10Z</time>
      </trkpt>
      <trkpt lat="47.36882" lon="6.4655">
        <ele>293.79998779297</ele>
        <time>2017-07-22T13:37:13Z</time>
      </trkpt>
      <trkpt lat="47.369" lon="6.46521">
        <ele>292.60000610352</ele>
        <time>2017-07-22T13:37:16Z</time>
      </trkpt>
      <trkpt lat="47.36906" lon="6.46511">
        <ele>292.20001220703</ele>
        <time>2017-07-22T13:37:17Z</time>
      </trkpt>
      <trkpt lat="47.36919" lon="6.46493">
        <ele>291.39999389648</ele>
        <time>2017-07-22T13:37:19Z</time>
      </trkpt>
      <trkpt lat="47.36933" lon="6.46477">
        <ele>290</ele>
        <time>2017-07-22T13:37:21Z</time>
      </trkpt>
      <trkpt lat="47.3694" lon="6.4647">
        <ele>289.60000610352</ele>
        <time>2017-07-22T13:37:22Z</time>
      </trkpt>
      <trkpt lat="47.36955" lon="6.46459">
        <ele>288.79998779297</ele>
        <time>2017-07-22T13:37:24Z</time>
      </trkpt>
      <trkpt lat="47.36978" lon="6.46444">
        <ele>287.60000610352</ele>
        <time>2017-07-22T13:37:27Z</time>
      </trkpt>
      <trkpt lat="47.36986" lon="6.46439">
        <ele>287.20001220703</ele>
        <time>2017-07-22T13:37:28Z</time>
      </trkpt>
      <trkpt lat="47.37001" lon="6.46429">
        <ele>286.60000610352</ele>
        <time>2017-07-22T13:37:30Z</time>
      </trkpt>
      <trkpt lat="47.37023" lon="6.46414">
        <ele>285.60000610352</ele>
        <time>2017-07-22T13:37:33Z</time>
      </trkpt>
      <trkpt lat="47.37031" lon="6.4641">
        <ele>285.20001220703</ele>
        <time>2017-07-22T13:37:34Z</time>
      </trkpt>
      <trkpt lat="47.37068" lon="6.46383">
        <ele>284.20001220703</ele>
        <time>2017-07-22T13:37:39Z</time>
      </trkpt>
      <trkpt lat="47.37075" lon="6.46377">
        <ele>284</ele>
        <time>2017-07-22T13:37:40Z</time>
      </trkpt>
      <trkpt lat="47.37096" lon="6.46356">
        <ele>283</ele>
        <time>2017-07-22T13:37:43Z</time>
      </trkpt>
      <trkpt lat="47.37108" lon="6.4634">
        <ele>282.39999389648</ele>
        <time>2017-07-22T13:37:45Z</time>
      </trkpt>
      <trkpt lat="47.37118" lon="6.46323">
        <ele>281.79998779297</ele>
        <time>2017-07-22T13:37:47Z</time>
      </trkpt>
      <trkpt lat="47.37131" lon="6.46295">
        <ele>281.39999389648</ele>
        <time>2017-07-22T13:37:50Z</time>
      </trkpt>
      <trkpt lat="47.37151" lon="6.46238">
        <ele>280.79998779297</ele>
        <time>2017-07-22T13:37:56Z</time>
      </trkpt>
      <trkpt lat="47.37153" lon="6.46229">
        <ele>280.79998779297</ele>
        <time>2017-07-22T13:37:57Z</time>
      </trkpt>
      <trkpt lat="47.37168" lon="6.46179">
        <ele>280.60000610352</ele>
        <time>2017-07-22T13:38:03Z</time>
      </trkpt>
      <trkpt lat="47.37186" lon="6.46131">
        <ele>280.20001220703</ele>
        <time>2017-07-22T13:38:09Z</time>
      </trkpt>
      <trkpt lat="47.37199" lon="6.46103">
        <ele>279.79998779297</ele>
        <time>2017-07-22T13:38:12Z</time>
      </trkpt>
      <trkpt lat="47.37209" lon="6.46083">
        <ele>279</ele>
        <time>2017-07-22T13:38:14Z</time>
      </trkpt>
      <trkpt lat="47.37214" lon="6.46073">
        <ele>278.60000610352</ele>
        <time>2017-07-22T13:38:15Z</time>
      </trkpt>
      <trkpt lat="47.3723" lon="6.46043">
        <ele>277.20001220703</ele>
        <time>2017-07-22T13:38:18Z</time>
      </trkpt>
      <trkpt lat="47.37245" lon="6.46014">
        <ele>276</ele>
        <time>2017-07-22T13:38:21Z</time>
      </trkpt>
      <trkpt lat="47.3725" lon="6.46005">
        <ele>275.79998779297</ele>
        <time>2017-07-22T13:38:22Z</time>
      </trkpt>
      <trkpt lat="47.37265" lon="6.45976">
        <ele>274.79998779297</ele>
        <time>2017-07-22T13:38:25Z</time>
      </trkpt>
      <trkpt lat="47.37278" lon="6.45956">
        <ele>274.20001220703</ele>
        <time>2017-07-22T13:38:27Z</time>
      </trkpt>
      <trkpt lat="47.37294" lon="6.45942">
        <ele>273.60000610352</ele>
        <time>2017-07-22T13:38:29Z</time>
      </trkpt>
      <trkpt lat="47.37303" lon="6.45936">
        <ele>273.20001220703</ele>
        <time>2017-07-22T13:38:30Z</time>
      </trkpt>
      <trkpt lat="47.37312" lon="6.45933">
        <ele>272.60000610352</ele>
        <time>2017-07-22T13:38:31Z</time>
      </trkpt>
      <trkpt lat="47.37321" lon="6.45929">
        <ele>272</ele>
        <time>2017-07-22T13:38:32Z</time>
      </trkpt>
      <trkpt lat="47.37329" lon="6.45926">
        <ele>271</ele>
        <time>2017-07-22T13:38:33Z</time>
      </trkpt>
      <trkpt lat="47.37343" lon="6.45921">
        <ele>269.79998779297</ele>
        <time>2017-07-22T13:38:35Z</time>
      </trkpt>
      <trkpt lat="47.37349" lon="6.45919">
        <ele>269.20001220703</ele>
        <time>2017-07-22T13:38:36Z</time>
      </trkpt>
      <trkpt lat="47.37355" lon="6.45914">
        <ele>268.60000610352</ele>
        <time>2017-07-22T13:38:37Z</time>
      </trkpt>
      <trkpt lat="47.37359" lon="6.45906">
        <ele>268</ele>
        <time>2017-07-22T13:38:38Z</time>
      </trkpt>
      <trkpt lat="47.3736" lon="6.45896">
        <ele>267.39999389648</ele>
        <time>2017-07-22T13:38:39Z</time>
      </trkpt>
      <trkpt lat="47.37359" lon="6.45886">
        <ele>266.60000610352</ele>
        <time>2017-07-22T13:38:40Z</time>
      </trkpt>
      <trkpt lat="47.37357" lon="6.45877">
        <ele>266</ele>
        <time>2017-07-22T13:38:41Z</time>
      </trkpt>
      <trkpt lat="47.37355" lon="6.45869">
        <ele>265.60000610352</ele>
        <time>2017-07-22T13:38:42Z</time>
      </trkpt>
      <trkpt lat="47.37348" lon="6.45835">
        <ele>265</ele>
        <time>2017-07-22T13:38:46Z</time>
      </trkpt>
      <trkpt lat="47.37338" lon="6.45778">
        <ele>265</ele>
        <time>2017-07-22T13:38:53Z</time>
      </trkpt>
      <trkpt lat="47.37327" lon="6.45739">
        <ele>265</ele>
        <time>2017-07-22T13:38:58Z</time>
      </trkpt>
      <trkpt lat="47.37323" lon="6.45732">
        <ele>265</ele>
        <time>2017-07-22T13:38:59Z</time>
      </trkpt>
      <trkpt lat="47.3732" lon="6.45726">
        <ele>265</ele>
        <time>2017-07-22T13:39:00Z</time>
      </trkpt>
      <trkpt lat="47.37303" lon="6.45694">
        <ele>264.79998779297</ele>
        <time>2017-07-22T13:39:05Z</time>
      </trkpt>
      <trkpt lat="47.37299" lon="6.45688">
        <ele>264.79998779297</ele>
        <time>2017-07-22T13:39:06Z</time>
      </trkpt>
      <trkpt lat="47.37286" lon="6.45673">
        <ele>265</ele>
        <time>2017-07-22T13:39:09Z</time>
      </trkpt>
      <trkpt lat="47.37269" lon="6.45653">
        <ele>264.79998779297</ele>
        <time>2017-07-22T13:39:13Z</time>
      </trkpt>
      <trkpt lat="47.37237" lon="6.4561">
        <ele>264.79998779297</ele>
        <time>2017-07-22T13:39:21Z</time>
      </trkpt>
      <trkpt lat="47.37202" lon="6.45569">
        <ele>264.60000610352</ele>
        <time>2017-07-22T13:39:29Z</time>
      </trkpt>
      <trkpt lat="47.3718" lon="6.45544">
        <ele>264.60000610352</ele>
        <time>2017-07-22T13:39:34Z</time>
      </trkpt>
      <trkpt lat="47.37171" lon="6.45535">
        <ele>264.60000610352</ele>
        <time>2017-07-22T13:39:36Z</time>
      </trkpt>
      <trkpt lat="47.37137" lon="6.45503">
        <ele>264.79998779297</ele>
        <time>2017-07-22T13:39:43Z</time>
      </trkpt>
      <trkpt lat="47.37098" lon="6.45467">
        <ele>264.79998779297</ele>
        <time>2017-07-22T13:39:51Z</time>
      </trkpt>
      <trkpt lat="47.37063" lon="6.45434">
        <ele>265</ele>
        <time>2017-07-22T13:39:58Z</time>
      </trkpt>
      <trkpt lat="47.37021" lon="6.45398">
        <ele>264.79998779297</ele>
        <time>2017-07-22T13:40:06Z</time>
      </trkpt>
      <trkpt lat="47.36983" lon="6.45372">
        <ele>265</ele>
        <time>2017-07-22T13:40:13Z</time>
      </trkpt>
      <trkpt lat="47.36943" lon="6.4535">
        <ele>265.20001220703</ele>
        <time>2017-07-22T13:40:20Z</time>
      </trkpt>
      <trkpt lat="47.36938" lon="6.45347">
        <ele>265.20001220703</ele>
        <time>2017-07-22T13:40:21Z</time>
      </trkpt>
      <trkpt lat="47.3692" lon="6.45341">
        <ele>265.20001220703</ele>
        <time>2017-07-22T13:40:24Z</time>
      </trkpt>
      <trkpt lat="47.36915" lon="6.45338">
        <ele>265.20001220703</ele>
        <time>2017-07-22T13:40:25Z</time>
      </trkpt>
      <trkpt lat="47.3688" lon="6.45328">
        <ele>265.20001220703</ele>
        <time>2017-07-22T13:40:31Z</time>
      </trkpt>
      <trkpt lat="47.36874" lon="6.45326">
        <ele>265.20001220703</ele>
        <time>2017-07-22T13:40:32Z</time>
      </trkpt>
      <trkpt lat="47.3685" lon="6.45324">
        <ele>265.20001220703</ele>
        <time>2017-07-22T13:40:36Z</time>
      </trkpt>
      <trkpt lat="47.3681" lon="6.45321">
        <ele>265.20001220703</ele>
        <time>2017-07-22T13:40:43Z</time>
      </trkpt>
      <trkpt lat="47.36764" lon="6.45319">
        <ele>265.20001220703</ele>
        <time>2017-07-22T13:40:51Z</time>
      </trkpt>
      <trkpt lat="47.36724" lon="6.45315">
        <ele>264.79998779297</ele>
        <time>2017-07-22T13:40:58Z</time>
      </trkpt>
      <trkpt lat="47.36685" lon="6.45315">
        <ele>264.60000610352</ele>
        <time>2017-07-22T13:41:05Z</time>
      </trkpt>
      <trkpt lat="47.3664" lon="6.45312">
        <ele>264.79998779297</ele>
        <time>2017-07-22T13:41:13Z</time>
      </trkpt>
      <trkpt lat="47.36597" lon="6.4531">
        <ele>264.79998779297</ele>
        <time>2017-07-22T13:41:21Z</time>
      </trkpt>
      <trkpt lat="47.36552" lon="6.45302">
        <ele>264.79998779297</ele>
        <time>2017-07-22T13:41:29Z</time>
      </trkpt>
      <trkpt lat="47.36506" lon="6.45288">
        <ele>264.79998779297</ele>
        <time>2017-07-22T13:41:37Z</time>
      </trkpt>
      <trkpt lat="47.36455" lon="6.45271">
        <ele>264.79998779297</ele>
        <time>2017-07-22T13:41:46Z</time>
      </trkpt>
      <trkpt lat="47.36427" lon="6.45263">
        <ele>264.79998779297</ele>
        <time>2017-07-22T13:41:51Z</time>
      </trkpt>
      <trkpt lat="47.36421" lon="6.4526">
        <ele>264.79998779297</ele>
        <time>2017-07-22T13:41:52Z</time>
      </trkpt>
      <trkpt lat="47.36393" lon="6.45249">
        <ele>264.60000610352</ele>
        <time>2017-07-22T13:41:57Z</time>
      </trkpt>
      <trkpt lat="47.36388" lon="6.45249">
        <ele>264.60000610352</ele>
        <time>2017-07-22T13:41:58Z</time>
      </trkpt>
      <trkpt lat="47.36382" lon="6.45248">
        <ele>264.60000610352</ele>
        <time>2017-07-22T13:41:59Z</time>
      </trkpt>
      <trkpt lat="47.36371" lon="6.45244">
        <ele>264.39999389648</ele>
        <time>2017-07-22T13:42:01Z</time>
      </trkpt>
      <trkpt lat="47.36361" lon="6.45237">
        <ele>264.39999389648</ele>
        <time>2017-07-22T13:42:03Z</time>
      </trkpt>
      <trkpt lat="47.36349" lon="6.45223">
        <ele>264.60000610352</ele>
        <time>2017-07-22T13:42:06Z</time>
      </trkpt>
      <trkpt lat="47.36342" lon="6.45214">
        <ele>264.79998779297</ele>
        <time>2017-07-22T13:42:08Z</time>
      </trkpt>
      <trkpt lat="47.36317" lon="6.45183">
        <ele>265.79998779297</ele>
        <time>2017-07-22T13:42:15Z</time>
      </trkpt>
      <trkpt lat="47.36309" lon="6.45172">
        <ele>266</ele>
        <time>2017-07-22T13:42:17Z</time>
      </trkpt>
      <trkpt lat="47.36284" lon="6.45141">
        <ele>266.20001220703</ele>
        <time>2017-07-22T13:42:23Z</time>
      </trkpt>
      <trkpt lat="47.36258" lon="6.45092">
        <ele>265.39999389648</ele>
        <time>2017-07-22T13:42:30Z</time>
      </trkpt>
      <trkpt lat="47.36255" lon="6.45084">
        <ele>265.20001220703</ele>
        <time>2017-07-22T13:42:31Z</time>
      </trkpt>
      <trkpt lat="47.36248" lon="6.45056">
        <ele>265</ele>
        <time>2017-07-22T13:42:34Z</time>
      </trkpt>
      <trkpt lat="47.36246" lon="6.45047">
        <ele>265</ele>
        <time>2017-07-22T13:42:35Z</time>
      </trkpt>
      <trkpt lat="47.36242" lon="6.45029">
        <ele>265</ele>
        <time>2017-07-22T13:42:37Z</time>
      </trkpt>
      <trkpt lat="47.36239" lon="6.44992">
        <ele>265</ele>
        <time>2017-07-22T13:42:41Z</time>
      </trkpt>
      <trkpt lat="47.36235" lon="6.44921">
        <ele>265</ele>
        <time>2017-07-22T13:42:49Z</time>
      </trkpt>
      <trkpt lat="47.36238" lon="6.44859">
        <ele>265</ele>
        <time>2017-07-22T13:42:56Z</time>
      </trkpt>
      <trkpt lat="47.36245" lon="6.448">
        <ele>265</ele>
        <time>2017-07-22T13:43:03Z</time>
      </trkpt>
      <trkpt lat="47.36259" lon="6.44751">
        <ele>265</ele>
        <time>2017-07-22T13:43:09Z</time>
      </trkpt>
      <trkpt lat="47.3628" lon="6.44684">
        <ele>265</ele>
        <time>2017-07-22T13:43:17Z</time>
      </trkpt>
      <trkpt lat="47.36295" lon="6.44643">
        <ele>264.79998779297</ele>
        <time>2017-07-22T13:43:22Z</time>
      </trkpt>
      <trkpt lat="47.36304" lon="6.44618">
        <ele>264.79998779297</ele>
        <time>2017-07-22T13:43:25Z</time>
      </trkpt>
      <trkpt lat="47.3633" lon="6.44555">
        <ele>264.60000610352</ele>
        <time>2017-07-22T13:43:33Z</time>
      </trkpt>
      <trkpt lat="47.36358" lon="6.44495">
        <ele>264.60000610352</ele>
        <time>2017-07-22T13:43:41Z</time>
      </trkpt>
      <trkpt lat="47.36385" lon="6.44426">
        <ele>264.60000610352</ele>
        <time>2017-07-22T13:43:50Z</time>
      </trkpt>
      <trkpt lat="47.36406" lon="6.44381">
        <ele>264.60000610352</ele>
        <time>2017-07-22T13:43:56Z</time>
      </trkpt>
      <trkpt lat="47.3643" lon="6.44335">
        <ele>264.20001220703</ele>
        <time>2017-07-22T13:44:02Z</time>
      </trkpt>
      <trkpt lat="47.36442" lon="6.44312">
        <ele>264</ele>
        <time>2017-07-22T13:44:05Z</time>
      </trkpt>
      <trkpt lat="47.36473" lon="6.4426">
        <ele>263.60000610352</ele>
        <time>2017-07-22T13:44:12Z</time>
      </trkpt>
      <trkpt lat="47.36498" lon="6.44208">
        <ele>263.79998779297</ele>
        <time>2017-07-22T13:44:19Z</time>
      </trkpt>
      <trkpt lat="47.3652" lon="6.4416">
        <ele>263.60000610352</ele>
        <time>2017-07-22T13:44:26Z</time>
      </trkpt>
      <trkpt lat="47.36544" lon="6.44102">
        <ele>263.79998779297</ele>
        <time>2017-07-22T13:44:34Z</time>
      </trkpt>
      <trkpt lat="47.36576" lon="6.44046">
        <ele>263.79998779297</ele>
        <time>2017-07-22T13:44:42Z</time>
      </trkpt>
      <trkpt lat="47.3658" lon="6.44038">
        <ele>263.79998779297</ele>
        <time>2017-07-22T13:44:43Z</time>
      </trkpt>
      <trkpt lat="47.36598" lon="6.44001">
        <ele>263.79998779297</ele>
        <time>2017-07-22T13:44:48Z</time>
      </trkpt>
      <trkpt lat="47.36622" lon="6.43946">
        <ele>263.60000610352</ele>
        <time>2017-07-22T13:44:55Z</time>
      </trkpt>
      <trkpt lat="47.36638" lon="6.43889">
        <ele>263.39999389648</ele>
        <time>2017-07-22T13:45:02Z</time>
      </trkpt>
      <trkpt lat="47.36646" lon="6.43841">
        <ele>263.39999389648</ele>
        <time>2017-07-22T13:45:08Z</time>
      </trkpt>
      <trkpt lat="47.36652" lon="6.43785">
        <ele>263.20001220703</ele>
        <time>2017-07-22T13:45:15Z</time>
      </trkpt>
      <trkpt lat="47.36653" lon="6.43777">
        <ele>263.20001220703</ele>
        <time>2017-07-22T13:45:16Z</time>
      </trkpt>
      <trkpt lat="47.36653" lon="6.43724">
        <ele>262.79998779297</ele>
        <time>2017-07-22T13:45:23Z</time>
      </trkpt>
      <trkpt lat="47.36654" lon="6.43709">
        <ele>262.39999389648</ele>
        <time>2017-07-22T13:45:27Z</time>
      </trkpt>
      <trkpt lat="47.36654" lon="6.43704">
        <ele>262.39999389648</ele>
        <time>2017-07-22T13:45:29Z</time>
      </trkpt>
      <trkpt lat="47.36651" lon="6.43703">
        <ele>262.39999389648</ele>
        <time>2017-07-22T13:45:31Z</time>
      </trkpt>
      <trkpt lat="47.3665" lon="6.43713">
        <ele>262.20001220703</ele>
        <time>2017-07-22T13:45:35Z</time>
      </trkpt>
      <trkpt lat="47.36653" lon="6.43714">
        <ele>262.20001220703</ele>
        <time>2017-07-22T13:46:19Z</time>
      </trkpt>
      <trkpt lat="47.36656" lon="6.43694">
        <ele>262.39999389648</ele>
        <time>2017-07-22T13:46:25Z</time>
      </trkpt>
      <trkpt lat="47.36659" lon="6.43675">
        <ele>262.39999389648</ele>
        <time>2017-07-22T13:46:29Z</time>
      </trkpt>
      <trkpt lat="47.3666" lon="6.4367">
        <ele>262.39999389648</ele>
        <time>2017-07-22T13:46:30Z</time>
      </trkpt>
      <trkpt lat="47.36665" lon="6.43646">
        <ele>262.60000610352</ele>
        <time>2017-07-22T13:46:34Z</time>
      </trkpt>
      <trkpt lat="47.36666" lon="6.43624">
        <ele>262.79998779297</ele>
        <time>2017-07-22T13:46:38Z</time>
      </trkpt>
      <trkpt lat="47.36667" lon="6.43618">
        <ele>262.79998779297</ele>
        <time>2017-07-22T13:46:39Z</time>
      </trkpt>
      <trkpt lat="47.36671" lon="6.43583">
        <ele>262.79998779297</ele>
        <time>2017-07-22T13:46:44Z</time>
      </trkpt>
      <trkpt lat="47.36673" lon="6.43538">
        <ele>262.79998779297</ele>
        <time>2017-07-22T13:46:50Z</time>
      </trkpt>
      <trkpt lat="47.36678" lon="6.43465">
        <ele>262</ele>
        <time>2017-07-22T13:46:59Z</time>
      </trkpt>
      <trkpt lat="47.36683" lon="6.4341">
        <ele>262.39999389648</ele>
        <time>2017-07-22T13:47:06Z</time>
      </trkpt>
      <trkpt lat="47.36689" lon="6.43353">
        <ele>262.60000610352</ele>
        <time>2017-07-22T13:47:13Z</time>
      </trkpt>
      <trkpt lat="47.36695" lon="6.43288">
        <ele>262.60000610352</ele>
        <time>2017-07-22T13:47:21Z</time>
      </trkpt>
      <trkpt lat="47.367" lon="6.43224">
        <ele>262.79998779297</ele>
        <time>2017-07-22T13:47:29Z</time>
      </trkpt>
      <trkpt lat="47.3671" lon="6.43167">
        <ele>262.79998779297</ele>
        <time>2017-07-22T13:47:36Z</time>
      </trkpt>
      <trkpt lat="47.3672" lon="6.43121">
        <ele>263.20001220703</ele>
        <time>2017-07-22T13:47:42Z</time>
      </trkpt>
      <trkpt lat="47.36729" lon="6.43084">
        <ele>263.39999389648</ele>
        <time>2017-07-22T13:47:47Z</time>
      </trkpt>
      <trkpt lat="47.36734" lon="6.43052">
        <ele>263.39999389648</ele>
        <time>2017-07-22T13:47:51Z</time>
      </trkpt>
      <trkpt lat="47.36735" lon="6.43044">
        <ele>263.20001220703</ele>
        <time>2017-07-22T13:47:52Z</time>
      </trkpt>
      <trkpt lat="47.36745" lon="6.4298">
        <ele>263</ele>
        <time>2017-07-22T13:48:00Z</time>
      </trkpt>
      <trkpt lat="47.36762" lon="6.42909">
        <ele>263</ele>
        <time>2017-07-22T13:48:09Z</time>
      </trkpt>
      <trkpt lat="47.36777" lon="6.42865">
        <ele>263.20001220703</ele>
        <time>2017-07-22T13:48:15Z</time>
      </trkpt>
      <trkpt lat="47.36796" lon="6.42821">
        <ele>263.39999389648</ele>
        <time>2017-07-22T13:48:22Z</time>
      </trkpt>
      <trkpt lat="47.368" lon="6.42816">
        <ele>263.39999389648</ele>
        <time>2017-07-22T13:48:23Z</time>
      </trkpt>
      <trkpt lat="47.3682" lon="6.42788">
        <ele>263.60000610352</ele>
        <time>2017-07-22T13:48:28Z</time>
      </trkpt>
      <trkpt lat="47.36847" lon="6.42764">
        <ele>263.39999389648</ele>
        <time>2017-07-22T13:48:34Z</time>
      </trkpt>
      <trkpt lat="47.3688" lon="6.42747">
        <ele>263.60000610352</ele>
        <time>2017-07-22T13:48:40Z</time>
      </trkpt>
      <trkpt lat="47.36915" lon="6.42724">
        <ele>263.39999389648</ele>
        <time>2017-07-22T13:48:47Z</time>
      </trkpt>
      <trkpt lat="47.36926" lon="6.42719">
        <ele>263.39999389648</ele>
        <time>2017-07-22T13:48:49Z</time>
      </trkpt>
      <trkpt lat="47.36946" lon="6.42714">
        <ele>263.60000610352</ele>
        <time>2017-07-22T13:48:53Z</time>
      </trkpt>
      <trkpt lat="47.36965" lon="6.42714">
        <ele>264</ele>
        <time>2017-07-22T13:48:57Z</time>
      </trkpt>
      <trkpt lat="47.3698" lon="6.42716">
        <ele>264.39999389648</ele>
        <time>2017-07-22T13:49:00Z</time>
      </trkpt>
      <trkpt lat="47.37018" lon="6.42722">
        <ele>265</ele>
        <time>2017-07-22T13:49:08Z</time>
      </trkpt>
      <trkpt lat="47.37034" lon="6.42721">
        <ele>265.20001220703</ele>
        <time>2017-07-22T13:49:11Z</time>
      </trkpt>
      <trkpt lat="47.37049" lon="6.42715">
        <ele>265.20001220703</ele>
        <time>2017-07-22T13:49:14Z</time>
      </trkpt>
      <trkpt lat="47.37084" lon="6.42705">
        <ele>265.20001220703</ele>
        <time>2017-07-22T13:49:21Z</time>
      </trkpt>
      <trkpt lat="47.37104" lon="6.42698">
        <ele>265.39999389648</ele>
        <time>2017-07-22T13:49:25Z</time>
      </trkpt>
      <trkpt lat="47.37111" lon="6.42687">
        <ele>265.39999389648</ele>
        <time>2017-07-22T13:49:27Z</time>
      </trkpt>
      <trkpt lat="47.37118" lon="6.42675">
        <ele>265.39999389648</ele>
        <time>2017-07-22T13:49:29Z</time>
      </trkpt>
      <trkpt lat="47.37132" lon="6.42649">
        <ele>265.20001220703</ele>
        <time>2017-07-22T13:49:33Z</time>
      </trkpt>
      <trkpt lat="47.37157" lon="6.42602">
        <ele>265</ele>
        <time>2017-07-22T13:49:40Z</time>
      </trkpt>
      <trkpt lat="47.3716" lon="6.42595">
        <ele>265</ele>
        <time>2017-07-22T13:49:41Z</time>
      </trkpt>
      <trkpt lat="47.37167" lon="6.42562">
        <ele>264.79998779297</ele>
        <time>2017-07-22T13:49:45Z</time>
      </trkpt>
      <trkpt lat="47.37168" lon="6.42554">
        <ele>264.79998779297</ele>
        <time>2017-07-22T13:49:46Z</time>
      </trkpt>
      <trkpt lat="47.37162" lon="6.42512">
        <ele>264.79998779297</ele>
        <time>2017-07-22T13:49:51Z</time>
      </trkpt>
      <trkpt lat="47.37147" lon="6.42466">
        <ele>265.20001220703</ele>
        <time>2017-07-22T13:49:57Z</time>
      </trkpt>
      <trkpt lat="47.37121" lon="6.42401">
        <ele>265</ele>
        <time>2017-07-22T13:50:06Z</time>
      </trkpt>
      <trkpt lat="47.37099" lon="6.42352">
        <ele>264.39999389648</ele>
        <time>2017-07-22T13:50:13Z</time>
      </trkpt>
      <trkpt lat="47.37075" lon="6.42306">
        <ele>264.39999389648</ele>
        <time>2017-07-22T13:50:20Z</time>
      </trkpt>
      <trkpt lat="47.3705" lon="6.42262">
        <ele>264.39999389648</ele>
        <time>2017-07-22T13:50:27Z</time>
      </trkpt>
      <trkpt lat="47.37013" lon="6.42207">
        <ele>264.60000610352</ele>
        <time>2017-07-22T13:50:36Z</time>
      </trkpt>
      <trkpt lat="47.36972" lon="6.42156">
        <ele>264.60000610352</ele>
        <time>2017-07-22T13:50:45Z</time>
      </trkpt>
      <trkpt lat="47.36927" lon="6.42114">
        <ele>264.79998779297</ele>
        <time>2017-07-22T13:50:54Z</time>
      </trkpt>
      <trkpt lat="47.3688" lon="6.4208">
        <ele>264.60000610352</ele>
        <time>2017-07-22T13:51:03Z</time>
      </trkpt>
      <trkpt lat="47.36829" lon="6.42046">
        <ele>264.60000610352</ele>
        <time>2017-07-22T13:51:13Z</time>
      </trkpt>
      <trkpt lat="47.36777" lon="6.42017">
        <ele>264.60000610352</ele>
        <time>2017-07-22T13:51:23Z</time>
      </trkpt>
      <trkpt lat="47.36734" lon="6.41992">
        <ele>264.60000610352</ele>
        <time>2017-07-22T13:51:31Z</time>
      </trkpt>
      <trkpt lat="47.36679" lon="6.41961">
        <ele>264.60000610352</ele>
        <time>2017-07-22T13:51:41Z</time>
      </trkpt>
      <trkpt lat="47.36628" lon="6.41936">
        <ele>264.39999389648</ele>
        <time>2017-07-22T13:51:50Z</time>
      </trkpt>
      <trkpt lat="47.36594" lon="6.41921">
        <ele>264.20001220703</ele>
        <time>2017-07-22T13:51:56Z</time>
      </trkpt>
      <trkpt lat="47.36536" lon="6.41904">
        <ele>264.20001220703</ele>
        <time>2017-07-22T13:52:06Z</time>
      </trkpt>
      <trkpt lat="47.3648" lon="6.41896">
        <ele>264</ele>
        <time>2017-07-22T13:52:16Z</time>
      </trkpt>
      <trkpt lat="47.36469" lon="6.41896">
        <ele>264</ele>
        <time>2017-07-22T13:52:18Z</time>
      </trkpt>
      <trkpt lat="47.36431" lon="6.41895">
        <ele>263.79998779297</ele>
        <time>2017-07-22T13:52:25Z</time>
      </trkpt>
      <trkpt lat="47.36426" lon="6.41896">
        <ele>263.79998779297</ele>
        <time>2017-07-22T13:52:26Z</time>
      </trkpt>
      <trkpt lat="47.36405" lon="6.41899">
        <ele>263.60000610352</ele>
        <time>2017-07-22T13:52:30Z</time>
      </trkpt>
      <trkpt lat="47.36369" lon="6.41901">
        <ele>263.60000610352</ele>
        <time>2017-07-22T13:52:37Z</time>
      </trkpt>
      <trkpt lat="47.36324" lon="6.4191">
        <ele>263</ele>
        <time>2017-07-22T13:52:45Z</time>
      </trkpt>
      <trkpt lat="47.36318" lon="6.41911">
        <ele>263</ele>
        <time>2017-07-22T13:52:46Z</time>
      </trkpt>
      <trkpt lat="47.36286" lon="6.41916">
        <ele>262.79998779297</ele>
        <time>2017-07-22T13:52:52Z</time>
      </trkpt>
      <trkpt lat="47.36242" lon="6.41924">
        <ele>262.39999389648</ele>
        <time>2017-07-22T13:53:00Z</time>
      </trkpt>
      <trkpt lat="47.36192" lon="6.41934">
        <ele>262.20001220703</ele>
        <time>2017-07-22T13:53:08Z</time>
      </trkpt>
      <trkpt lat="47.36178" lon="6.41936">
        <ele>262</ele>
        <time>2017-07-22T13:53:10Z</time>
      </trkpt>
      <trkpt lat="47.36139" lon="6.41941">
        <ele>261.20001220703</ele>
        <time>2017-07-22T13:53:16Z</time>
      </trkpt>
      <trkpt lat="47.36092" lon="6.41942">
        <ele>261.20001220703</ele>
        <time>2017-07-22T13:53:24Z</time>
      </trkpt>
      <trkpt lat="47.36051" lon="6.4194">
        <ele>261.20001220703</ele>
        <time>2017-07-22T13:53:31Z</time>
      </trkpt>
      <trkpt lat="47.36" lon="6.41934">
        <ele>261.20001220703</ele>
        <time>2017-07-22T13:53:40Z</time>
      </trkpt>
      <trkpt lat="47.35942" lon="6.41925">
        <ele>260.79998779297</ele>
        <time>2017-07-22T13:53:50Z</time>
      </trkpt>
      <trkpt lat="47.35893" lon="6.41912">
        <ele>261</ele>
        <time>2017-07-22T13:53:59Z</time>
      </trkpt>
      <trkpt lat="47.35863" lon="6.41891">
        <ele>261</ele>
        <time>2017-07-22T13:54:05Z</time>
      </trkpt>
      <trkpt lat="47.35836" lon="6.41858">
        <ele>261</ele>
        <time>2017-07-22T13:54:11Z</time>
      </trkpt>
      <trkpt lat="47.35823" lon="6.4183">
        <ele>260.79998779297</ele>
        <time>2017-07-22T13:54:15Z</time>
      </trkpt>
      <trkpt lat="47.3582" lon="6.41823">
        <ele>260.79998779297</ele>
        <time>2017-07-22T13:54:16Z</time>
      </trkpt>
      <trkpt lat="47.35797" lon="6.41753">
        <ele>261</ele>
        <time>2017-07-22T13:54:25Z</time>
      </trkpt>
      <trkpt lat="47.3578" lon="6.41693">
        <ele>261</ele>
        <time>2017-07-22T13:54:32Z</time>
      </trkpt>
      <trkpt lat="47.35765" lon="6.41619">
        <ele>261</ele>
        <time>2017-07-22T13:54:40Z</time>
      </trkpt>
      <trkpt lat="47.35758" lon="6.41572">
        <ele>261</ele>
        <time>2017-07-22T13:54:46Z</time>
      </trkpt>
      <trkpt lat="47.35749" lon="6.41505">
        <ele>261</ele>
        <time>2017-07-22T13:54:54Z</time>
      </trkpt>
      <trkpt lat="47.35738" lon="6.41445">
        <ele>261</ele>
        <time>2017-07-22T13:55:01Z</time>
      </trkpt>
      <trkpt lat="47.35721" lon="6.41368">
        <ele>261</ele>
        <time>2017-07-22T13:55:11Z</time>
      </trkpt>
      <trkpt lat="47.35707" lon="6.413">
        <ele>261.20001220703</ele>
        <time>2017-07-22T13:55:19Z</time>
      </trkpt>
      <trkpt lat="47.3569" lon="6.41224">
        <ele>261.20001220703</ele>
        <time>2017-07-22T13:55:28Z</time>
      </trkpt>
      <trkpt lat="47.35679" lon="6.41156">
        <ele>261.20001220703</ele>
        <time>2017-07-22T13:55:36Z</time>
      </trkpt>
      <trkpt lat="47.35666" lon="6.41079">
        <ele>261</ele>
        <time>2017-07-22T13:55:45Z</time>
      </trkpt>
      <trkpt lat="47.35654" lon="6.40995">
        <ele>261.20001220703</ele>
        <time>2017-07-22T13:55:55Z</time>
      </trkpt>
      <trkpt lat="47.35647" lon="6.40919">
        <ele>261</ele>
        <time>2017-07-22T13:56:04Z</time>
      </trkpt>
      <trkpt lat="47.35645" lon="6.40902">
        <ele>261</ele>
        <time>2017-07-22T13:56:08Z</time>
      </trkpt>
      <trkpt lat="47.35643" lon="6.40907">
        <ele>260.79998779297</ele>
        <time>2017-07-22T13:56:11Z</time>
      </trkpt>
      <trkpt lat="47.35645" lon="6.40923">
        <ele>260.79998779297</ele>
        <time>2017-07-22T13:56:15Z</time>
      </trkpt>
      <trkpt lat="47.35649" lon="6.40947">
        <ele>260.60000610352</ele>
        <time>2017-07-22T13:56:20Z</time>
      </trkpt>
      <trkpt lat="47.35649" lon="6.40952">
        <ele>260.60000610352</ele>
        <time>2017-07-22T13:56:21Z</time>
      </trkpt>
      <trkpt lat="47.35648" lon="6.40958">
        <ele>260.60000610352</ele>
        <time>2017-07-22T13:56:23Z</time>
      </trkpt>
      <trkpt lat="47.35645" lon="6.4096">
        <ele>260.60000610352</ele>
        <time>2017-07-22T13:56:25Z</time>
      </trkpt>
      <trkpt lat="47.35623" lon="6.40952">
        <ele>215.39999389648</ele>
        <time>2017-07-23T05:42:36Z</time>
      </trkpt>
      <trkpt lat="47.35636" lon="6.40955">
        <ele>215.80000305176</ele>
        <time>2017-07-23T05:42:41Z</time>
      </trkpt>
      <trkpt lat="47.35642" lon="6.40954">
        <ele>215.80000305176</ele>
        <time>2017-07-23T05:42:43Z</time>
      </trkpt>
      <trkpt lat="47.35646" lon="6.40953">
        <ele>216</ele>
        <time>2017-07-23T05:42:48Z</time>
      </trkpt>
      <trkpt lat="47.35648" lon="6.40955">
        <ele>215.80000305176</ele>
        <time>2017-07-23T05:45:25Z</time>
      </trkpt>
      <trkpt lat="47.35648" lon="6.40948">
        <ele>215.80000305176</ele>
        <time>2017-07-23T05:45:27Z</time>
      </trkpt>
      <trkpt lat="47.35645" lon="6.40924">
        <ele>216</ele>
        <time>2017-07-23T05:45:33Z</time>
      </trkpt>
      <trkpt lat="47.35642" lon="6.40885">
        <ele>216.39999389648</ele>
        <time>2017-07-23T05:45:41Z</time>
      </trkpt>
      <trkpt lat="47.35641" lon="6.4088">
        <ele>216.39999389648</ele>
        <time>2017-07-23T05:45:42Z</time>
      </trkpt>
      <trkpt lat="47.35638" lon="6.40842">
        <ele>216.39999389648</ele>
        <time>2017-07-23T05:45:50Z</time>
      </trkpt>
      <trkpt lat="47.35634" lon="6.40798">
        <ele>216</ele>
        <time>2017-07-23T05:45:59Z</time>
      </trkpt>
      <trkpt lat="47.35632" lon="6.40761">
        <ele>216</ele>
        <time>2017-07-23T05:46:06Z</time>
      </trkpt>
      <trkpt lat="47.3563" lon="6.40734">
        <ele>216</ele>
        <time>2017-07-23T05:46:11Z</time>
      </trkpt>
      <trkpt lat="47.35631" lon="6.407">
        <ele>215.80000305176</ele>
        <time>2017-07-23T05:46:18Z</time>
      </trkpt>
      <trkpt lat="47.35633" lon="6.40669">
        <ele>216</ele>
        <time>2017-07-23T05:46:25Z</time>
      </trkpt>
      <trkpt lat="47.35634" lon="6.40637">
        <ele>216</ele>
        <time>2017-07-23T05:46:31Z</time>
      </trkpt>
      <trkpt lat="47.35637" lon="6.40597">
        <ele>216</ele>
        <time>2017-07-23T05:46:38Z</time>
      </trkpt>
      <trkpt lat="47.35642" lon="6.40541">
        <ele>216</ele>
        <time>2017-07-23T05:46:47Z</time>
      </trkpt>
      <trkpt lat="47.35644" lon="6.40495">
        <ele>216.19999694824</ele>
        <time>2017-07-23T05:46:54Z</time>
      </trkpt>
      <trkpt lat="47.35652" lon="6.4044">
        <ele>216.19999694824</ele>
        <time>2017-07-23T05:47:02Z</time>
      </trkpt>
      <trkpt lat="47.35653" lon="6.40432">
        <ele>216.39999389648</ele>
        <time>2017-07-23T05:47:03Z</time>
      </trkpt>
      <trkpt lat="47.35655" lon="6.40418">
        <ele>216.39999389648</ele>
        <time>2017-07-23T05:47:05Z</time>
      </trkpt>
      <trkpt lat="47.3566" lon="6.40384">
        <ele>216.39999389648</ele>
        <time>2017-07-23T05:47:10Z</time>
      </trkpt>
      <trkpt lat="47.35667" lon="6.40338">
        <ele>216.60000610352</ele>
        <time>2017-07-23T05:47:17Z</time>
      </trkpt>
      <trkpt lat="47.35676" lon="6.40295">
        <ele>217.39999389648</ele>
        <time>2017-07-23T05:47:25Z</time>
      </trkpt>
      <trkpt lat="47.35678" lon="6.40289">
        <ele>217.60000610352</ele>
        <time>2017-07-23T05:47:26Z</time>
      </trkpt>
      <trkpt lat="47.35689" lon="6.40243">
        <ele>217.80000305176</ele>
        <time>2017-07-23T05:47:33Z</time>
      </trkpt>
      <trkpt lat="47.35708" lon="6.40167">
        <ele>218</ele>
        <time>2017-07-23T05:47:44Z</time>
      </trkpt>
      <trkpt lat="47.35721" lon="6.40111">
        <ele>217.80000305176</ele>
        <time>2017-07-23T05:47:52Z</time>
      </trkpt>
      <trkpt lat="47.35736" lon="6.40049">
        <ele>217.80000305176</ele>
        <time>2017-07-23T05:48:01Z</time>
      </trkpt>
      <trkpt lat="47.35748" lon="6.39994">
        <ele>217.80000305176</ele>
        <time>2017-07-23T05:48:09Z</time>
      </trkpt>
      <trkpt lat="47.3575" lon="6.39981">
        <ele>217.80000305176</ele>
        <time>2017-07-23T05:48:11Z</time>
      </trkpt>
      <trkpt lat="47.35749" lon="6.3996">
        <ele>218</ele>
        <time>2017-07-23T05:48:14Z</time>
      </trkpt>
      <trkpt lat="47.35748" lon="6.39954">
        <ele>218</ele>
        <time>2017-07-23T05:48:15Z</time>
      </trkpt>
      <trkpt lat="47.35747" lon="6.39941">
        <ele>218</ele>
        <time>2017-07-23T05:48:17Z</time>
      </trkpt>
      <trkpt lat="47.35748" lon="6.39928">
        <ele>218</ele>
        <time>2017-07-23T05:48:19Z</time>
      </trkpt>
      <trkpt lat="47.35751" lon="6.39915">
        <ele>218</ele>
        <time>2017-07-23T05:48:21Z</time>
      </trkpt>
      <trkpt lat="47.35753" lon="6.39908">
        <ele>218</ele>
        <time>2017-07-23T05:48:22Z</time>
      </trkpt>
      <trkpt lat="47.35758" lon="6.39895">
        <ele>217.80000305176</ele>
        <time>2017-07-23T05:48:24Z</time>
      </trkpt>
      <trkpt lat="47.3576" lon="6.39887">
        <ele>217.80000305176</ele>
        <time>2017-07-23T05:48:25Z</time>
      </trkpt>
      <trkpt lat="47.35763" lon="6.39862">
        <ele>217.39999389648</ele>
        <time>2017-07-23T05:48:28Z</time>
      </trkpt>
      <trkpt lat="47.35765" lon="6.39799">
        <ele>216.60000610352</ele>
        <time>2017-07-23T05:48:35Z</time>
      </trkpt>
      <trkpt lat="47.35766" lon="6.39791">
        <ele>216.39999389648</ele>
        <time>2017-07-23T05:48:36Z</time>
      </trkpt>
      <trkpt lat="47.35765" lon="6.39726">
        <ele>215.80000305176</ele>
        <time>2017-07-23T05:48:44Z</time>
      </trkpt>
      <trkpt lat="47.35759" lon="6.39665">
        <ele>215.60000610352</ele>
        <time>2017-07-23T05:48:52Z</time>
      </trkpt>
      <trkpt lat="47.3575" lon="6.39608">
        <ele>215.80000305176</ele>
        <time>2017-07-23T05:49:00Z</time>
      </trkpt>
      <trkpt lat="47.35734" lon="6.39549">
        <ele>215.60000610352</ele>
        <time>2017-07-23T05:49:09Z</time>
      </trkpt>
      <trkpt lat="47.35717" lon="6.39491">
        <ele>215.60000610352</ele>
        <time>2017-07-23T05:49:18Z</time>
      </trkpt>
      <trkpt lat="47.35693" lon="6.39428">
        <ele>215.60000610352</ele>
        <time>2017-07-23T05:49:28Z</time>
      </trkpt>
      <trkpt lat="47.35676" lon="6.39393">
        <ele>215.39999389648</ele>
        <time>2017-07-23T05:49:34Z</time>
      </trkpt>
      <trkpt lat="47.3567" lon="6.39382">
        <ele>215.39999389648</ele>
        <time>2017-07-23T05:49:36Z</time>
      </trkpt>
      <trkpt lat="47.35644" lon="6.39347">
        <ele>215.39999389648</ele>
        <time>2017-07-23T05:49:43Z</time>
      </trkpt>
      <trkpt lat="47.35609" lon="6.39308">
        <ele>215.19999694824</ele>
        <time>2017-07-23T05:49:52Z</time>
      </trkpt>
      <trkpt lat="47.35576" lon="6.39277">
        <ele>215.39999389648</ele>
        <time>2017-07-23T05:50:00Z</time>
      </trkpt>
      <trkpt lat="47.35546" lon="6.39249">
        <ele>215.60000610352</ele>
        <time>2017-07-23T05:50:08Z</time>
      </trkpt>
      <trkpt lat="47.35523" lon="6.39228">
        <ele>216.60000610352</ele>
        <time>2017-07-23T05:50:15Z</time>
      </trkpt>
      <trkpt lat="47.35508" lon="6.39214">
        <ele>216.80000305176</ele>
        <time>2017-07-23T05:50:19Z</time>
      </trkpt>
      <trkpt lat="47.35476" lon="6.39185">
        <ele>216.80000305176</ele>
        <time>2017-07-23T05:50:27Z</time>
      </trkpt>
      <trkpt lat="47.35447" lon="6.39161">
        <ele>216.19999694824</ele>
        <time>2017-07-23T05:50:34Z</time>
      </trkpt>
      <trkpt lat="47.35443" lon="6.39157">
        <ele>216.19999694824</ele>
        <time>2017-07-23T05:50:35Z</time>
      </trkpt>
      <trkpt lat="47.35416" lon="6.39124">
        <ele>216</ele>
        <time>2017-07-23T05:50:42Z</time>
      </trkpt>
      <trkpt lat="47.35384" lon="6.39076">
        <ele>215.80000305176</ele>
        <time>2017-07-23T05:50:51Z</time>
      </trkpt>
      <trkpt lat="47.35359" lon="6.39037">
        <ele>215.60000610352</ele>
        <time>2017-07-23T05:50:58Z</time>
      </trkpt>
      <trkpt lat="47.35327" lon="6.38981">
        <ele>215.60000610352</ele>
        <time>2017-07-23T05:51:08Z</time>
      </trkpt>
      <trkpt lat="47.35306" lon="6.3895">
        <ele>216</ele>
        <time>2017-07-23T05:51:14Z</time>
      </trkpt>
      <trkpt lat="47.35279" lon="6.38903">
        <ele>215.80000305176</ele>
        <time>2017-07-23T05:51:22Z</time>
      </trkpt>
      <trkpt lat="47.35259" lon="6.38866">
        <ele>216.19999694824</ele>
        <time>2017-07-23T05:51:29Z</time>
      </trkpt>
      <trkpt lat="47.35241" lon="6.38822">
        <ele>216.60000610352</ele>
        <time>2017-07-23T05:51:36Z</time>
      </trkpt>
      <trkpt lat="47.35224" lon="6.38779">
        <ele>216.60000610352</ele>
        <time>2017-07-23T05:51:42Z</time>
      </trkpt>
      <trkpt lat="47.35202" lon="6.38721">
        <ele>215.39999389648</ele>
        <time>2017-07-23T05:51:49Z</time>
      </trkpt>
      <trkpt lat="47.35192" lon="6.38668">
        <ele>214.80000305176</ele>
        <time>2017-07-23T05:51:55Z</time>
      </trkpt>
      <trkpt lat="47.35181" lon="6.38598">
        <ele>214.80000305176</ele>
        <time>2017-07-23T05:52:03Z</time>
      </trkpt>
      <trkpt lat="47.35176" lon="6.3854">
        <ele>214.80000305176</ele>
        <time>2017-07-23T05:52:10Z</time>
      </trkpt>
      <trkpt lat="47.35177" lon="6.38492">
        <ele>214.80000305176</ele>
        <time>2017-07-23T05:52:16Z</time>
      </trkpt>
      <trkpt lat="47.35187" lon="6.38436">
        <ele>214.80000305176</ele>
        <time>2017-07-23T05:52:23Z</time>
      </trkpt>
      <trkpt lat="47.35197" lon="6.38382">
        <ele>215</ele>
        <time>2017-07-23T05:52:30Z</time>
      </trkpt>
      <trkpt lat="47.35204" lon="6.38337">
        <ele>215</ele>
        <time>2017-07-23T05:52:36Z</time>
      </trkpt>
      <trkpt lat="47.3521" lon="6.38283">
        <ele>215</ele>
        <time>2017-07-23T05:52:43Z</time>
      </trkpt>
      <trkpt lat="47.3522" lon="6.38212">
        <ele>214.80000305176</ele>
        <time>2017-07-23T05:52:52Z</time>
      </trkpt>
      <trkpt lat="47.3523" lon="6.3815">
        <ele>214.80000305176</ele>
        <time>2017-07-23T05:53:00Z</time>
      </trkpt>
      <trkpt lat="47.35243" lon="6.38082">
        <ele>214.80000305176</ele>
        <time>2017-07-23T05:53:09Z</time>
      </trkpt>
      <trkpt lat="47.35247" lon="6.38061">
        <ele>214.80000305176</ele>
        <time>2017-07-23T05:53:12Z</time>
      </trkpt>
      <trkpt lat="47.35251" lon="6.38039">
        <ele>214.80000305176</ele>
        <time>2017-07-23T05:53:15Z</time>
      </trkpt>
      <trkpt lat="47.35255" lon="6.38013">
        <ele>215</ele>
        <time>2017-07-23T05:53:19Z</time>
      </trkpt>
      <trkpt lat="47.35258" lon="6.3799">
        <ele>215</ele>
        <time>2017-07-23T05:53:22Z</time>
      </trkpt>
      <trkpt lat="47.35265" lon="6.37937">
        <ele>214.60000610352</ele>
        <time>2017-07-23T05:53:29Z</time>
      </trkpt>
      <trkpt lat="47.35279" lon="6.37876">
        <ele>215</ele>
        <time>2017-07-23T05:53:37Z</time>
      </trkpt>
      <trkpt lat="47.35289" lon="6.37834">
        <ele>215.19999694824</ele>
        <time>2017-07-23T05:53:43Z</time>
      </trkpt>
      <trkpt lat="47.35293" lon="6.37776">
        <ele>216</ele>
        <time>2017-07-23T05:53:52Z</time>
      </trkpt>
      <trkpt lat="47.35293" lon="6.37756">
        <ele>216</ele>
        <time>2017-07-23T05:53:55Z</time>
      </trkpt>
      <trkpt lat="47.35291" lon="6.37731">
        <ele>216</ele>
        <time>2017-07-23T05:53:59Z</time>
      </trkpt>
      <trkpt lat="47.35288" lon="6.37682">
        <ele>216.39999389648</ele>
        <time>2017-07-23T05:54:06Z</time>
      </trkpt>
      <trkpt lat="47.35281" lon="6.37619">
        <ele>216.19999694824</ele>
        <time>2017-07-23T05:54:15Z</time>
      </trkpt>
      <trkpt lat="47.35274" lon="6.37585">
        <ele>216.39999389648</ele>
        <time>2017-07-23T05:54:20Z</time>
      </trkpt>
      <trkpt lat="47.3527" lon="6.37565">
        <ele>216.60000610352</ele>
        <time>2017-07-23T05:54:23Z</time>
      </trkpt>
      <trkpt lat="47.35254" lon="6.3751">
        <ele>216.60000610352</ele>
        <time>2017-07-23T05:54:31Z</time>
      </trkpt>
      <trkpt lat="47.35227" lon="6.37454">
        <ele>216.60000610352</ele>
        <time>2017-07-23T05:54:40Z</time>
      </trkpt>
      <trkpt lat="47.352" lon="6.37404">
        <ele>216.39999389648</ele>
        <time>2017-07-23T05:54:48Z</time>
      </trkpt>
      <trkpt lat="47.35175" lon="6.37365">
        <ele>216.39999389648</ele>
        <time>2017-07-23T05:54:55Z</time>
      </trkpt>
      <trkpt lat="47.35146" lon="6.37342">
        <ele>216.39999389648</ele>
        <time>2017-07-23T05:55:01Z</time>
      </trkpt>
      <trkpt lat="47.35142" lon="6.3734">
        <ele>216.39999389648</ele>
        <time>2017-07-23T05:55:02Z</time>
      </trkpt>
      <trkpt lat="47.35127" lon="6.37347">
        <ele>216.39999389648</ele>
        <time>2017-07-23T05:55:05Z</time>
      </trkpt>
      <trkpt lat="47.35117" lon="6.37363">
        <ele>216.39999389648</ele>
        <time>2017-07-23T05:55:08Z</time>
      </trkpt>
      <trkpt lat="47.35109" lon="6.37372">
        <ele>216.39999389648</ele>
        <time>2017-07-23T05:55:10Z</time>
      </trkpt>
      <trkpt lat="47.35095" lon="6.37366">
        <ele>216.60000610352</ele>
        <time>2017-07-23T05:55:13Z</time>
      </trkpt>
      <trkpt lat="47.35087" lon="6.37355">
        <ele>216.60000610352</ele>
        <time>2017-07-23T05:55:15Z</time>
      </trkpt>
      <trkpt lat="47.35077" lon="6.37345">
        <ele>216.39999389648</ele>
        <time>2017-07-23T05:55:17Z</time>
      </trkpt>
      <trkpt lat="47.35071" lon="6.37342">
        <ele>216.19999694824</ele>
        <time>2017-07-23T05:55:18Z</time>
      </trkpt>
      <trkpt lat="47.35051" lon="6.37344">
        <ele>215.80000305176</ele>
        <time>2017-07-23T05:55:21Z</time>
      </trkpt>
      <trkpt lat="47.35044" lon="6.37346">
        <ele>215.60000610352</ele>
        <time>2017-07-23T05:55:22Z</time>
      </trkpt>
      <trkpt lat="47.35031" lon="6.3735">
        <ele>215.39999389648</ele>
        <time>2017-07-23T05:55:24Z</time>
      </trkpt>
      <trkpt lat="47.35004" lon="6.3736">
        <ele>214.19999694824</ele>
        <time>2017-07-23T05:55:28Z</time>
      </trkpt>
      <trkpt lat="47.34992" lon="6.37365">
        <ele>213.80000305176</ele>
        <time>2017-07-23T05:55:30Z</time>
      </trkpt>
      <trkpt lat="47.3495" lon="6.37382">
        <ele>213.39999389648</ele>
        <time>2017-07-23T05:55:38Z</time>
      </trkpt>
      <trkpt lat="47.34912" lon="6.37396">
        <ele>213.39999389648</ele>
        <time>2017-07-23T05:55:46Z</time>
      </trkpt>
      <trkpt lat="47.3487" lon="6.37408">
        <ele>213.39999389648</ele>
        <time>2017-07-23T05:55:55Z</time>
      </trkpt>
      <trkpt lat="47.34831" lon="6.37416">
        <ele>213.39999389648</ele>
        <time>2017-07-23T05:56:03Z</time>
      </trkpt>
      <trkpt lat="47.34788" lon="6.37421">
        <ele>213.19999694824</ele>
        <time>2017-07-23T05:56:11Z</time>
      </trkpt>
      <trkpt lat="47.34737" lon="6.37421">
        <ele>212.60000610352</ele>
        <time>2017-07-23T05:56:20Z</time>
      </trkpt>
      <trkpt lat="47.34695" lon="6.37416">
        <ele>212.60000610352</ele>
        <time>2017-07-23T05:56:28Z</time>
      </trkpt>
      <trkpt lat="47.34657" lon="6.37409">
        <ele>212.60000610352</ele>
        <time>2017-07-23T05:56:36Z</time>
      </trkpt>
      <trkpt lat="47.34625" lon="6.37398">
        <ele>212.60000610352</ele>
        <time>2017-07-23T05:56:43Z</time>
      </trkpt>
      <trkpt lat="47.34581" lon="6.37382">
        <ele>212.80000305176</ele>
        <time>2017-07-23T05:56:53Z</time>
      </trkpt>
      <trkpt lat="47.34541" lon="6.37376">
        <ele>213</ele>
        <time>2017-07-23T05:57:02Z</time>
      </trkpt>
      <trkpt lat="47.34493" lon="6.3737">
        <ele>212.60000610352</ele>
        <time>2017-07-23T05:57:12Z</time>
      </trkpt>
      <trkpt lat="47.34456" lon="6.37372">
        <ele>213</ele>
        <time>2017-07-23T05:57:20Z</time>
      </trkpt>
      <trkpt lat="47.34415" lon="6.3738">
        <ele>212.80000305176</ele>
        <time>2017-07-23T05:57:28Z</time>
      </trkpt>
      <trkpt lat="47.34373" lon="6.37389">
        <ele>212.60000610352</ele>
        <time>2017-07-23T05:57:36Z</time>
      </trkpt>
      <trkpt lat="47.3433" lon="6.374">
        <ele>212.19999694824</ele>
        <time>2017-07-23T05:57:44Z</time>
      </trkpt>
      <trkpt lat="47.34308" lon="6.37402">
        <ele>212.39999389648</ele>
        <time>2017-07-23T05:57:48Z</time>
      </trkpt>
      <trkpt lat="47.34298" lon="6.37399">
        <ele>212.39999389648</ele>
        <time>2017-07-23T05:57:50Z</time>
      </trkpt>
      <trkpt lat="47.34288" lon="6.37394">
        <ele>212.39999389648</ele>
        <time>2017-07-23T05:57:52Z</time>
      </trkpt>
      <trkpt lat="47.34268" lon="6.37385">
        <ele>212.19999694824</ele>
        <time>2017-07-23T05:57:56Z</time>
      </trkpt>
      <trkpt lat="47.34263" lon="6.37383">
        <ele>212.19999694824</ele>
        <time>2017-07-23T05:57:57Z</time>
      </trkpt>
      <trkpt lat="47.34222" lon="6.37372">
        <ele>212.19999694824</ele>
        <time>2017-07-23T05:58:05Z</time>
      </trkpt>
      <trkpt lat="47.34177" lon="6.37362">
        <ele>212.19999694824</ele>
        <time>2017-07-23T05:58:14Z</time>
      </trkpt>
      <trkpt lat="47.34161" lon="6.37349">
        <ele>212.80000305176</ele>
        <time>2017-07-23T05:58:19Z</time>
      </trkpt>
      <trkpt lat="47.34152" lon="6.37336">
        <ele>213.19999694824</ele>
        <time>2017-07-23T05:58:23Z</time>
      </trkpt>
      <trkpt lat="47.34148" lon="6.37331">
        <ele>213.60000610352</ele>
        <time>2017-07-23T05:58:25Z</time>
      </trkpt>
      <trkpt lat="47.34138" lon="6.37314">
        <ele>214.19999694824</ele>
        <time>2017-07-23T05:58:30Z</time>
      </trkpt>
      <trkpt lat="47.34122" lon="6.37281">
        <ele>215</ele>
        <time>2017-07-23T05:58:38Z</time>
      </trkpt>
      <trkpt lat="47.3412" lon="6.37261">
        <ele>214.80000305176</ele>
        <time>2017-07-23T05:58:42Z</time>
      </trkpt>
      <trkpt lat="47.34124" lon="6.37244">
        <ele>214.80000305176</ele>
        <time>2017-07-23T05:58:45Z</time>
      </trkpt>
      <trkpt lat="47.34125" lon="6.37231">
        <ele>214.60000610352</ele>
        <time>2017-07-23T05:58:47Z</time>
      </trkpt>
      <trkpt lat="47.34128" lon="6.37219">
        <ele>214.19999694824</ele>
        <time>2017-07-23T05:58:50Z</time>
      </trkpt>
      <trkpt lat="47.34127" lon="6.37195">
        <ele>213.80000305176</ele>
        <time>2017-07-23T05:58:54Z</time>
      </trkpt>
      <trkpt lat="47.34124" lon="6.37135">
        <ele>213.60000610352</ele>
        <time>2017-07-23T05:59:02Z</time>
      </trkpt>
      <trkpt lat="47.34124" lon="6.37077">
        <ele>213.39999389648</ele>
        <time>2017-07-23T05:59:10Z</time>
      </trkpt>
      <trkpt lat="47.34123" lon="6.3707">
        <ele>213.39999389648</ele>
        <time>2017-07-23T05:59:11Z</time>
      </trkpt>
      <trkpt lat="47.34124" lon="6.37034">
        <ele>213.60000610352</ele>
        <time>2017-07-23T05:59:16Z</time>
      </trkpt>
      <trkpt lat="47.34123" lon="6.37028">
        <ele>213.60000610352</ele>
        <time>2017-07-23T05:59:17Z</time>
      </trkpt>
      <trkpt lat="47.34123" lon="6.37007">
        <ele>213.80000305176</ele>
        <time>2017-07-23T05:59:20Z</time>
      </trkpt>
      <trkpt lat="47.34123" lon="6.36986">
        <ele>214</ele>
        <time>2017-07-23T05:59:23Z</time>
      </trkpt>
      <trkpt lat="47.34123" lon="6.36972">
        <ele>214</ele>
        <time>2017-07-23T05:59:25Z</time>
      </trkpt>
      <trkpt lat="47.34124" lon="6.36928">
        <ele>214.19999694824</ele>
        <time>2017-07-23T05:59:31Z</time>
      </trkpt>
      <trkpt lat="47.34121" lon="6.36876">
        <ele>214.19999694824</ele>
        <time>2017-07-23T05:59:38Z</time>
      </trkpt>
      <trkpt lat="47.34119" lon="6.36818">
        <ele>214.19999694824</ele>
        <time>2017-07-23T05:59:46Z</time>
      </trkpt>
      <trkpt lat="47.34119" lon="6.36762">
        <ele>214.60000610352</ele>
        <time>2017-07-23T05:59:54Z</time>
      </trkpt>
      <trkpt lat="47.34122" lon="6.36713">
        <ele>214.80000305176</ele>
        <time>2017-07-23T06:00:01Z</time>
      </trkpt>
      <trkpt lat="47.34125" lon="6.36686">
        <ele>215.19999694824</ele>
        <time>2017-07-23T06:00:05Z</time>
      </trkpt>
      <trkpt lat="47.34128" lon="6.36672">
        <ele>215.19999694824</ele>
        <time>2017-07-23T06:00:07Z</time>
      </trkpt>
      <trkpt lat="47.34128" lon="6.36664">
        <ele>215.39999389648</ele>
        <time>2017-07-23T06:00:08Z</time>
      </trkpt>
      <trkpt lat="47.3413" lon="6.36651">
        <ele>215.39999389648</ele>
        <time>2017-07-23T06:00:10Z</time>
      </trkpt>
      <trkpt lat="47.34133" lon="6.36631">
        <ele>215.60000610352</ele>
        <time>2017-07-23T06:00:13Z</time>
      </trkpt>
      <trkpt lat="47.34137" lon="6.3661">
        <ele>215.60000610352</ele>
        <time>2017-07-23T06:00:16Z</time>
      </trkpt>
      <trkpt lat="47.3414" lon="6.36595">
        <ele>215.60000610352</ele>
        <time>2017-07-23T06:00:18Z</time>
      </trkpt>
      <trkpt lat="47.34141" lon="6.36588">
        <ele>215.60000610352</ele>
        <time>2017-07-23T06:00:19Z</time>
      </trkpt>
      <trkpt lat="47.34146" lon="6.36565">
        <ele>215.60000610352</ele>
        <time>2017-07-23T06:00:22Z</time>
      </trkpt>
      <trkpt lat="47.34148" lon="6.36548">
        <ele>215.39999389648</ele>
        <time>2017-07-23T06:00:24Z</time>
      </trkpt>
      <trkpt lat="47.34157" lon="6.36497">
        <ele>214.80000305176</ele>
        <time>2017-07-23T06:00:30Z</time>
      </trkpt>
      <trkpt lat="47.34166" lon="6.36457">
        <ele>214.39999389648</ele>
        <time>2017-07-23T06:00:35Z</time>
      </trkpt>
      <trkpt lat="47.34177" lon="6.36384">
        <ele>214.39999389648</ele>
        <time>2017-07-23T06:00:44Z</time>
      </trkpt>
      <trkpt lat="47.34186" lon="6.36326">
        <ele>214.60000610352</ele>
        <time>2017-07-23T06:00:51Z</time>
      </trkpt>
      <trkpt lat="47.34195" lon="6.3627">
        <ele>214.60000610352</ele>
        <time>2017-07-23T06:00:58Z</time>
      </trkpt>
      <trkpt lat="47.34204" lon="6.36225">
        <ele>214.60000610352</ele>
        <time>2017-07-23T06:01:04Z</time>
      </trkpt>
      <trkpt lat="47.34205" lon="6.36218">
        <ele>214.60000610352</ele>
        <time>2017-07-23T06:01:05Z</time>
      </trkpt>
      <trkpt lat="47.34214" lon="6.3618">
        <ele>214.60000610352</ele>
        <time>2017-07-23T06:01:10Z</time>
      </trkpt>
      <trkpt lat="47.34216" lon="6.36163">
        <ele>214.39999389648</ele>
        <time>2017-07-23T06:01:12Z</time>
      </trkpt>
      <trkpt lat="47.34215" lon="6.36155">
        <ele>214</ele>
        <time>2017-07-23T06:01:13Z</time>
      </trkpt>
      <trkpt lat="47.34209" lon="6.36117">
        <ele>213.80000305176</ele>
        <time>2017-07-23T06:01:18Z</time>
      </trkpt>
      <trkpt lat="47.34205" lon="6.36101">
        <ele>214.39999389648</ele>
        <time>2017-07-23T06:01:20Z</time>
      </trkpt>
      <trkpt lat="47.342" lon="6.36079">
        <ele>214.60000610352</ele>
        <time>2017-07-23T06:01:23Z</time>
      </trkpt>
      <trkpt lat="47.34194" lon="6.3605">
        <ele>215</ele>
        <time>2017-07-23T06:01:28Z</time>
      </trkpt>
      <trkpt lat="47.34198" lon="6.36042">
        <ele>215</ele>
        <time>2017-07-23T06:01:30Z</time>
      </trkpt>
      <trkpt lat="47.34201" lon="6.36039">
        <ele>215.19999694824</ele>
        <time>2017-07-23T06:01:31Z</time>
      </trkpt>
      <trkpt lat="47.34204" lon="6.36023">
        <ele>215.39999389648</ele>
        <time>2017-07-23T06:01:34Z</time>
      </trkpt>
      <trkpt lat="47.34204" lon="6.36017">
        <ele>215.60000610352</ele>
        <time>2017-07-23T06:01:35Z</time>
      </trkpt>
      <trkpt lat="47.34197" lon="6.35993">
        <ele>215.39999389648</ele>
        <time>2017-07-23T06:01:39Z</time>
      </trkpt>
      <trkpt lat="47.34189" lon="6.35975">
        <ele>214.60000610352</ele>
        <time>2017-07-23T06:01:43Z</time>
      </trkpt>
      <trkpt lat="47.34187" lon="6.3597">
        <ele>214.39999389648</ele>
        <time>2017-07-23T06:01:44Z</time>
      </trkpt>
      <trkpt lat="47.3418" lon="6.35955">
        <ele>214.19999694824</ele>
        <time>2017-07-23T06:01:47Z</time>
      </trkpt>
      <trkpt lat="47.34178" lon="6.35949">
        <ele>214.19999694824</ele>
        <time>2017-07-23T06:01:48Z</time>
      </trkpt>
      <trkpt lat="47.34163" lon="6.35913">
        <ele>214.19999694824</ele>
        <time>2017-07-23T06:01:54Z</time>
      </trkpt>
      <trkpt lat="47.34143" lon="6.35862">
        <ele>214.19999694824</ele>
        <time>2017-07-23T06:02:02Z</time>
      </trkpt>
      <trkpt lat="47.34122" lon="6.35808">
        <ele>214.19999694824</ele>
        <time>2017-07-23T06:02:10Z</time>
      </trkpt>
      <trkpt lat="47.34106" lon="6.35769">
        <ele>214.19999694824</ele>
        <time>2017-07-23T06:02:16Z</time>
      </trkpt>
      <trkpt lat="47.34103" lon="6.35763">
        <ele>214</ele>
        <time>2017-07-23T06:02:17Z</time>
      </trkpt>
      <trkpt lat="47.34095" lon="6.35744">
        <ele>214</ele>
        <time>2017-07-23T06:02:20Z</time>
      </trkpt>
      <trkpt lat="47.3409" lon="6.35731">
        <ele>213.80000305176</ele>
        <time>2017-07-23T06:02:22Z</time>
      </trkpt>
      <trkpt lat="47.34073" lon="6.35691">
        <ele>213.60000610352</ele>
        <time>2017-07-23T06:02:28Z</time>
      </trkpt>
      <trkpt lat="47.34056" lon="6.35653">
        <ele>213.60000610352</ele>
        <time>2017-07-23T06:02:34Z</time>
      </trkpt>
      <trkpt lat="47.34048" lon="6.35624">
        <ele>213.60000610352</ele>
        <time>2017-07-23T06:02:38Z</time>
      </trkpt>
      <trkpt lat="47.34049" lon="6.35617">
        <ele>213.80000305176</ele>
        <time>2017-07-23T06:02:39Z</time>
      </trkpt>
      <trkpt lat="47.34059" lon="6.35605">
        <ele>213.80000305176</ele>
        <time>2017-07-23T06:02:42Z</time>
      </trkpt>
      <trkpt lat="47.3407" lon="6.35593">
        <ele>213.80000305176</ele>
        <time>2017-07-23T06:02:45Z</time>
      </trkpt>
      <trkpt lat="47.34084" lon="6.35579">
        <ele>214.39999389648</ele>
        <time>2017-07-23T06:02:49Z</time>
      </trkpt>
      <trkpt lat="47.34114" lon="6.35545">
        <ele>214.80000305176</ele>
        <time>2017-07-23T06:02:58Z</time>
      </trkpt>
      <trkpt lat="47.34109" lon="6.35532">
        <ele>214.19999694824</ele>
        <time>2017-07-23T06:03:01Z</time>
      </trkpt>
      <trkpt lat="47.34107" lon="6.35527">
        <ele>214</ele>
        <time>2017-07-23T06:03:02Z</time>
      </trkpt>
      <trkpt lat="47.34094" lon="6.355">
        <ele>213</ele>
        <time>2017-07-23T06:03:07Z</time>
      </trkpt>
      <trkpt lat="47.3409" lon="6.35494">
        <ele>212.80000305176</ele>
        <time>2017-07-23T06:03:08Z</time>
      </trkpt>
      <trkpt lat="47.34083" lon="6.35476">
        <ele>212</ele>
        <time>2017-07-23T06:03:11Z</time>
      </trkpt>
      <trkpt lat="47.3408" lon="6.35471">
        <ele>211.80000305176</ele>
        <time>2017-07-23T06:03:12Z</time>
      </trkpt>
      <trkpt lat="47.34072" lon="6.35456">
        <ele>210.80000305176</ele>
        <time>2017-07-23T06:03:15Z</time>
      </trkpt>
      <trkpt lat="47.34068" lon="6.35451">
        <ele>210.80000305176</ele>
        <time>2017-07-23T06:03:16Z</time>
      </trkpt>
      <trkpt lat="47.34065" lon="6.35446">
        <ele>210.60000610352</ele>
        <time>2017-07-23T06:03:17Z</time>
      </trkpt>
      <trkpt lat="47.34051" lon="6.35424">
        <ele>210.60000610352</ele>
        <time>2017-07-23T06:03:21Z</time>
      </trkpt>
      <trkpt lat="47.34022" lon="6.35378">
        <ele>210.60000610352</ele>
        <time>2017-07-23T06:03:29Z</time>
      </trkpt>
      <trkpt lat="47.33992" lon="6.35334">
        <ele>210.80000305176</ele>
        <time>2017-07-23T06:03:37Z</time>
      </trkpt>
      <trkpt lat="47.33988" lon="6.3533">
        <ele>210.80000305176</ele>
        <time>2017-07-23T06:03:38Z</time>
      </trkpt>
      <trkpt lat="47.33977" lon="6.35316">
        <ele>210.80000305176</ele>
        <time>2017-07-23T06:03:41Z</time>
      </trkpt>
      <trkpt lat="47.33954" lon="6.35288">
        <ele>211.19999694824</ele>
        <time>2017-07-23T06:03:48Z</time>
      </trkpt>
      <trkpt lat="47.33939" lon="6.35276">
        <ele>211.80000305176</ele>
        <time>2017-07-23T06:03:52Z</time>
      </trkpt>
      <trkpt lat="47.33935" lon="6.35273">
        <ele>211.80000305176</ele>
        <time>2017-07-23T06:03:53Z</time>
      </trkpt>
      <trkpt lat="47.33928" lon="6.35266">
        <ele>211.80000305176</ele>
        <time>2017-07-23T06:03:55Z</time>
      </trkpt>
      <trkpt lat="47.33912" lon="6.35251">
        <ele>211.60000610352</ele>
        <time>2017-07-23T06:03:59Z</time>
      </trkpt>
      <trkpt lat="47.33907" lon="6.35247">
        <ele>211.60000610352</ele>
        <time>2017-07-23T06:04:00Z</time>
      </trkpt>
      <trkpt lat="47.33882" lon="6.35226">
        <ele>211.60000610352</ele>
        <time>2017-07-23T06:04:05Z</time>
      </trkpt>
      <trkpt lat="47.33872" lon="6.35218">
        <ele>211.39999389648</ele>
        <time>2017-07-23T06:04:07Z</time>
      </trkpt>
      <trkpt lat="47.33851" lon="6.35203">
        <ele>211.19999694824</ele>
        <time>2017-07-23T06:04:11Z</time>
      </trkpt>
      <trkpt lat="47.33825" lon="6.35181">
        <ele>210.60000610352</ele>
        <time>2017-07-23T06:04:16Z</time>
      </trkpt>
      <trkpt lat="47.3382" lon="6.35177">
        <ele>210.60000610352</ele>
        <time>2017-07-23T06:04:17Z</time>
      </trkpt>
      <trkpt lat="47.33781" lon="6.3514">
        <ele>210.19999694824</ele>
        <time>2017-07-23T06:04:25Z</time>
      </trkpt>
      <trkpt lat="47.33741" lon="6.35101">
        <ele>210.39999389648</ele>
        <time>2017-07-23T06:04:34Z</time>
      </trkpt>
      <trkpt lat="47.33716" lon="6.35087">
        <ele>211</ele>
        <time>2017-07-23T06:04:40Z</time>
      </trkpt>
      <trkpt lat="47.33712" lon="6.35084">
        <ele>211.19999694824</ele>
        <time>2017-07-23T06:04:41Z</time>
      </trkpt>
      <trkpt lat="47.33697" lon="6.35071">
        <ele>211.60000610352</ele>
        <time>2017-07-23T06:04:45Z</time>
      </trkpt>
      <trkpt lat="47.33693" lon="6.35068">
        <ele>211.80000305176</ele>
        <time>2017-07-23T06:04:46Z</time>
      </trkpt>
      <trkpt lat="47.33663" lon="6.35038">
        <ele>211.80000305176</ele>
        <time>2017-07-23T06:04:53Z</time>
      </trkpt>
      <trkpt lat="47.33639" lon="6.35005">
        <ele>211.39999389648</ele>
        <time>2017-07-23T06:04:59Z</time>
      </trkpt>
      <trkpt lat="47.33635" lon="6.34998">
        <ele>211.39999389648</ele>
        <time>2017-07-23T06:05:00Z</time>
      </trkpt>
      <trkpt lat="47.33605" lon="6.34949">
        <ele>210.80000305176</ele>
        <time>2017-07-23T06:05:08Z</time>
      </trkpt>
      <trkpt lat="47.33583" lon="6.34923">
        <ele>211.19999694824</ele>
        <time>2017-07-23T06:05:14Z</time>
      </trkpt>
      <trkpt lat="47.33576" lon="6.34916">
        <ele>211.39999389648</ele>
        <time>2017-07-23T06:05:16Z</time>
      </trkpt>
      <trkpt lat="47.3356" lon="6.34902">
        <ele>211.60000610352</ele>
        <time>2017-07-23T06:05:20Z</time>
      </trkpt>
      <trkpt lat="47.33553" lon="6.34893">
        <ele>211.60000610352</ele>
        <time>2017-07-23T06:05:22Z</time>
      </trkpt>
      <trkpt lat="47.33549" lon="6.34881">
        <ele>211.60000610352</ele>
        <time>2017-07-23T06:05:24Z</time>
      </trkpt>
      <trkpt lat="47.33552" lon="6.34868">
        <ele>211.80000305176</ele>
        <time>2017-07-23T06:05:27Z</time>
      </trkpt>
      <trkpt lat="47.33554" lon="6.34861">
        <ele>212</ele>
        <time>2017-07-23T06:05:29Z</time>
      </trkpt>
      <trkpt lat="47.33556" lon="6.34853">
        <ele>212.80000305176</ele>
        <time>2017-07-23T06:05:32Z</time>
      </trkpt>
      <trkpt lat="47.33557" lon="6.3485">
        <ele>213.19999694824</ele>
        <time>2017-07-23T06:05:33Z</time>
      </trkpt>
      <trkpt lat="47.33558" lon="6.34844">
        <ele>214</ele>
        <time>2017-07-23T06:05:35Z</time>
      </trkpt>
      <trkpt lat="47.33558" lon="6.34834">
        <ele>215</ele>
        <time>2017-07-23T06:05:38Z</time>
      </trkpt>
      <trkpt lat="47.33559" lon="6.34831">
        <ele>215.39999389648</ele>
        <time>2017-07-23T06:05:39Z</time>
      </trkpt>
      <trkpt lat="47.3356" lon="6.34825">
        <ele>216.19999694824</ele>
        <time>2017-07-23T06:05:41Z</time>
      </trkpt>
      <trkpt lat="47.33565" lon="6.34815">
        <ele>217.19999694824</ele>
        <time>2017-07-23T06:05:45Z</time>
      </trkpt>
      <trkpt lat="47.33572" lon="6.34806">
        <ele>218.19999694824</ele>
        <time>2017-07-23T06:05:49Z</time>
      </trkpt>
      <trkpt lat="47.33575" lon="6.34801">
        <ele>218.80000305176</ele>
        <time>2017-07-23T06:05:51Z</time>
      </trkpt>
      <trkpt lat="47.33579" lon="6.34795">
        <ele>219.39999389648</ele>
        <time>2017-07-23T06:05:53Z</time>
      </trkpt>
      <trkpt lat="47.33589" lon="6.34779">
        <ele>219.80000305176</ele>
        <time>2017-07-23T06:05:58Z</time>
      </trkpt>
      <trkpt lat="47.33604" lon="6.34751">
        <ele>220</ele>
        <time>2017-07-23T06:06:05Z</time>
      </trkpt>
      <trkpt lat="47.33615" lon="6.34729">
        <ele>220</ele>
        <time>2017-07-23T06:06:10Z</time>
      </trkpt>
      <trkpt lat="47.33633" lon="6.34706">
        <ele>220</ele>
        <time>2017-07-23T06:06:16Z</time>
      </trkpt>
      <trkpt lat="47.33656" lon="6.34684">
        <ele>219.60000610352</ele>
        <time>2017-07-23T06:06:21Z</time>
      </trkpt>
      <trkpt lat="47.33681" lon="6.34663">
        <ele>218.39999389648</ele>
        <time>2017-07-23T06:06:25Z</time>
      </trkpt>
      <trkpt lat="47.33689" lon="6.34658">
        <ele>217.80000305176</ele>
        <time>2017-07-23T06:06:26Z</time>
      </trkpt>
      <trkpt lat="47.33704" lon="6.34648">
        <ele>217</ele>
        <time>2017-07-23T06:06:28Z</time>
      </trkpt>
      <trkpt lat="47.33723" lon="6.34638">
        <ele>216</ele>
        <time>2017-07-23T06:06:31Z</time>
      </trkpt>
      <trkpt lat="47.33752" lon="6.34621">
        <ele>216.80000305176</ele>
        <time>2017-07-23T06:06:37Z</time>
      </trkpt>
      <trkpt lat="47.33762" lon="6.34609">
        <ele>217.19999694824</ele>
        <time>2017-07-23T06:06:39Z</time>
      </trkpt>
      <trkpt lat="47.33774" lon="6.34591">
        <ele>217.19999694824</ele>
        <time>2017-07-23T06:06:41Z</time>
      </trkpt>
      <trkpt lat="47.33795" lon="6.34559">
        <ele>215.60000610352</ele>
        <time>2017-07-23T06:06:44Z</time>
      </trkpt>
      <trkpt lat="47.33802" lon="6.34549">
        <ele>214.80000305176</ele>
        <time>2017-07-23T06:06:45Z</time>
      </trkpt>
      <trkpt lat="47.33809" lon="6.34539">
        <ele>213.80000305176</ele>
        <time>2017-07-23T06:06:46Z</time>
      </trkpt>
      <trkpt lat="47.33823" lon="6.34522">
        <ele>212.60000610352</ele>
        <time>2017-07-23T06:06:48Z</time>
      </trkpt>
      <trkpt lat="47.33836" lon="6.34505">
        <ele>212</ele>
        <time>2017-07-23T06:06:50Z</time>
      </trkpt>
      <trkpt lat="47.33854" lon="6.34481">
        <ele>211.39999389648</ele>
        <time>2017-07-23T06:06:53Z</time>
      </trkpt>
      <trkpt lat="47.33877" lon="6.3445">
        <ele>210.60000610352</ele>
        <time>2017-07-23T06:06:57Z</time>
      </trkpt>
      <trkpt lat="47.33898" lon="6.3442">
        <ele>210.39999389648</ele>
        <time>2017-07-23T06:07:01Z</time>
      </trkpt>
      <trkpt lat="47.33918" lon="6.34391">
        <ele>209.80000305176</ele>
        <time>2017-07-23T06:07:05Z</time>
      </trkpt>
      <trkpt lat="47.33936" lon="6.34364">
        <ele>209.39999389648</ele>
        <time>2017-07-23T06:07:09Z</time>
      </trkpt>
      <trkpt lat="47.33948" lon="6.34346">
        <ele>209.19999694824</ele>
        <time>2017-07-23T06:07:12Z</time>
      </trkpt>
      <trkpt lat="47.33984" lon="6.34287">
        <ele>209</ele>
        <time>2017-07-23T06:07:21Z</time>
      </trkpt>
      <trkpt lat="47.34015" lon="6.34229">
        <ele>209</ele>
        <time>2017-07-23T06:07:29Z</time>
      </trkpt>
      <trkpt lat="47.34042" lon="6.34166">
        <ele>209.19999694824</ele>
        <time>2017-07-23T06:07:37Z</time>
      </trkpt>
      <trkpt lat="47.34062" lon="6.3411">
        <ele>209.19999694824</ele>
        <time>2017-07-23T06:07:44Z</time>
      </trkpt>
      <trkpt lat="47.34082" lon="6.3405">
        <ele>209.19999694824</ele>
        <time>2017-07-23T06:07:51Z</time>
      </trkpt>
      <trkpt lat="47.34097" lon="6.33994">
        <ele>209.60000610352</ele>
        <time>2017-07-23T06:07:58Z</time>
      </trkpt>
      <trkpt lat="47.34107" lon="6.33939">
        <ele>209.80000305176</ele>
        <time>2017-07-23T06:08:05Z</time>
      </trkpt>
      <trkpt lat="47.3411" lon="6.33889">
        <ele>209.80000305176</ele>
        <time>2017-07-23T06:08:11Z</time>
      </trkpt>
      <trkpt lat="47.34117" lon="6.33867">
        <ele>209.60000610352</ele>
        <time>2017-07-23T06:08:14Z</time>
      </trkpt>
      <trkpt lat="47.3412" lon="6.33861">
        <ele>209.60000610352</ele>
        <time>2017-07-23T06:08:15Z</time>
      </trkpt>
      <trkpt lat="47.34124" lon="6.33852">
        <ele>209.60000610352</ele>
        <time>2017-07-23T06:08:17Z</time>
      </trkpt>
      <trkpt lat="47.34124" lon="6.33846">
        <ele>209.80000305176</ele>
        <time>2017-07-23T06:08:18Z</time>
      </trkpt>
      <trkpt lat="47.34124" lon="6.33833">
        <ele>210.39999389648</ele>
        <time>2017-07-23T06:08:20Z</time>
      </trkpt>
      <trkpt lat="47.34123" lon="6.3381">
        <ele>210.80000305176</ele>
        <time>2017-07-23T06:08:23Z</time>
      </trkpt>
      <trkpt lat="47.34127" lon="6.33766">
        <ele>210.19999694824</ele>
        <time>2017-07-23T06:08:28Z</time>
      </trkpt>
      <trkpt lat="47.34134" lon="6.33707">
        <ele>210</ele>
        <time>2017-07-23T06:08:35Z</time>
      </trkpt>
      <trkpt lat="47.34149" lon="6.33628">
        <ele>210</ele>
        <time>2017-07-23T06:08:44Z</time>
      </trkpt>
      <trkpt lat="47.34165" lon="6.33545">
        <ele>209.80000305176</ele>
        <time>2017-07-23T06:08:54Z</time>
      </trkpt>
      <trkpt lat="47.34177" lon="6.33481">
        <ele>209.60000610352</ele>
        <time>2017-07-23T06:09:02Z</time>
      </trkpt>
      <trkpt lat="47.34187" lon="6.33425">
        <ele>209.80000305176</ele>
        <time>2017-07-23T06:09:09Z</time>
      </trkpt>
      <trkpt lat="47.34204" lon="6.33349">
        <ele>209.80000305176</ele>
        <time>2017-07-23T06:09:19Z</time>
      </trkpt>
      <trkpt lat="47.34205" lon="6.33341">
        <ele>209.80000305176</ele>
        <time>2017-07-23T06:09:20Z</time>
      </trkpt>
      <trkpt lat="47.3421" lon="6.33314">
        <ele>209.60000610352</ele>
        <time>2017-07-23T06:09:25Z</time>
      </trkpt>
      <trkpt lat="47.34212" lon="6.33306">
        <ele>209.39999389648</ele>
        <time>2017-07-23T06:09:28Z</time>
      </trkpt>
      <trkpt lat="47.34215" lon="6.33291">
        <ele>209.39999389648</ele>
        <time>2017-07-23T06:09:32Z</time>
      </trkpt>
      <trkpt lat="47.34221" lon="6.3326">
        <ele>209.60000610352</ele>
        <time>2017-07-23T06:09:37Z</time>
      </trkpt>
      <trkpt lat="47.3423" lon="6.33216">
        <ele>209.80000305176</ele>
        <time>2017-07-23T06:09:43Z</time>
      </trkpt>
      <trkpt lat="47.34239" lon="6.33171">
        <ele>210</ele>
        <time>2017-07-23T06:09:49Z</time>
      </trkpt>
      <trkpt lat="47.34249" lon="6.33117">
        <ele>210.19999694824</ele>
        <time>2017-07-23T06:09:56Z</time>
      </trkpt>
      <trkpt lat="47.34259" lon="6.3307">
        <ele>210.19999694824</ele>
        <time>2017-07-23T06:10:02Z</time>
      </trkpt>
      <trkpt lat="47.34266" lon="6.3304">
        <ele>210.39999389648</ele>
        <time>2017-07-23T06:10:06Z</time>
      </trkpt>
      <trkpt lat="47.34268" lon="6.33025">
        <ele>210.39999389648</ele>
        <time>2017-07-23T06:10:08Z</time>
      </trkpt>
      <trkpt lat="47.34271" lon="6.33011">
        <ele>210.39999389648</ele>
        <time>2017-07-23T06:10:10Z</time>
      </trkpt>
      <trkpt lat="47.34279" lon="6.32974">
        <ele>210.80000305176</ele>
        <time>2017-07-23T06:10:15Z</time>
      </trkpt>
      <trkpt lat="47.34291" lon="6.32922">
        <ele>210.80000305176</ele>
        <time>2017-07-23T06:10:22Z</time>
      </trkpt>
      <trkpt lat="47.34309" lon="6.32851">
        <ele>210.19999694824</ele>
        <time>2017-07-23T06:10:31Z</time>
      </trkpt>
      <trkpt lat="47.34323" lon="6.32788">
        <ele>210</ele>
        <time>2017-07-23T06:10:39Z</time>
      </trkpt>
      <trkpt lat="47.34336" lon="6.32734">
        <ele>209.80000305176</ele>
        <time>2017-07-23T06:10:46Z</time>
      </trkpt>
      <trkpt lat="47.34348" lon="6.32672">
        <ele>209.80000305176</ele>
        <time>2017-07-23T06:10:54Z</time>
      </trkpt>
      <trkpt lat="47.34355" lon="6.32618">
        <ele>210</ele>
        <time>2017-07-23T06:11:01Z</time>
      </trkpt>
      <trkpt lat="47.34355" lon="6.3261">
        <ele>210</ele>
        <time>2017-07-23T06:11:02Z</time>
      </trkpt>
      <trkpt lat="47.34354" lon="6.32555">
        <ele>210.19999694824</ele>
        <time>2017-07-23T06:11:09Z</time>
      </trkpt>
      <trkpt lat="47.34347" lon="6.32481">
        <ele>210.39999389648</ele>
        <time>2017-07-23T06:11:18Z</time>
      </trkpt>
      <trkpt lat="47.3434" lon="6.32424">
        <ele>210.80000305176</ele>
        <time>2017-07-23T06:11:25Z</time>
      </trkpt>
      <trkpt lat="47.34328" lon="6.32343">
        <ele>211</ele>
        <time>2017-07-23T06:11:35Z</time>
      </trkpt>
      <trkpt lat="47.34318" lon="6.32276">
        <ele>211</ele>
        <time>2017-07-23T06:11:43Z</time>
      </trkpt>
      <trkpt lat="47.34306" lon="6.3221">
        <ele>211</ele>
        <time>2017-07-23T06:11:51Z</time>
      </trkpt>
      <trkpt lat="47.34292" lon="6.32147">
        <ele>211</ele>
        <time>2017-07-23T06:11:59Z</time>
      </trkpt>
      <trkpt lat="47.34277" lon="6.32098">
        <ele>211</ele>
        <time>2017-07-23T06:12:06Z</time>
      </trkpt>
      <trkpt lat="47.34254" lon="6.32041">
        <ele>211.19999694824</ele>
        <time>2017-07-23T06:12:14Z</time>
      </trkpt>
      <trkpt lat="47.34229" lon="6.31995">
        <ele>211</ele>
        <time>2017-07-23T06:12:21Z</time>
      </trkpt>
      <trkpt lat="47.34203" lon="6.31955">
        <ele>211</ele>
        <time>2017-07-23T06:12:27Z</time>
      </trkpt>
      <trkpt lat="47.34173" lon="6.31907">
        <ele>211</ele>
        <time>2017-07-23T06:12:34Z</time>
      </trkpt>
      <trkpt lat="47.34145" lon="6.31854">
        <ele>211.19999694824</ele>
        <time>2017-07-23T06:12:42Z</time>
      </trkpt>
      <trkpt lat="47.34121" lon="6.31806">
        <ele>211</ele>
        <time>2017-07-23T06:12:49Z</time>
      </trkpt>
      <trkpt lat="47.34086" lon="6.31754">
        <ele>211.19999694824</ele>
        <time>2017-07-23T06:12:57Z</time>
      </trkpt>
      <trkpt lat="47.34054" lon="6.31705">
        <ele>211</ele>
        <time>2017-07-23T06:13:05Z</time>
      </trkpt>
      <trkpt lat="47.34019" lon="6.31665">
        <ele>211</ele>
        <time>2017-07-23T06:13:12Z</time>
      </trkpt>
      <trkpt lat="47.33972" lon="6.31619">
        <ele>210.80000305176</ele>
        <time>2017-07-23T06:13:21Z</time>
      </trkpt>
      <trkpt lat="47.33924" lon="6.31578">
        <ele>210.80000305176</ele>
        <time>2017-07-23T06:13:30Z</time>
      </trkpt>
      <trkpt lat="47.3388" lon="6.31546">
        <ele>210.80000305176</ele>
        <time>2017-07-23T06:13:38Z</time>
      </trkpt>
      <trkpt lat="47.33828" lon="6.31517">
        <ele>211</ele>
        <time>2017-07-23T06:13:47Z</time>
      </trkpt>
      <trkpt lat="47.33781" lon="6.31493">
        <ele>211</ele>
        <time>2017-07-23T06:13:55Z</time>
      </trkpt>
      <trkpt lat="47.33769" lon="6.3149">
        <ele>211</ele>
        <time>2017-07-23T06:13:57Z</time>
      </trkpt>
      <trkpt lat="47.33746" lon="6.31481">
        <ele>211</ele>
        <time>2017-07-23T06:14:01Z</time>
      </trkpt>
      <trkpt lat="47.33694" lon="6.3146">
        <ele>211</ele>
        <time>2017-07-23T06:14:10Z</time>
      </trkpt>
      <trkpt lat="47.33655" lon="6.31444">
        <ele>211</ele>
        <time>2017-07-23T06:14:17Z</time>
      </trkpt>
      <trkpt lat="47.33649" lon="6.31443">
        <ele>211</ele>
        <time>2017-07-23T06:14:18Z</time>
      </trkpt>
      <trkpt lat="47.33622" lon="6.31433">
        <ele>211</ele>
        <time>2017-07-23T06:14:23Z</time>
      </trkpt>
      <trkpt lat="47.33583" lon="6.31418">
        <ele>211</ele>
        <time>2017-07-23T06:14:30Z</time>
      </trkpt>
      <trkpt lat="47.33539" lon="6.31402">
        <ele>211</ele>
        <time>2017-07-23T06:14:38Z</time>
      </trkpt>
      <trkpt lat="47.33489" lon="6.31385">
        <ele>211.19999694824</ele>
        <time>2017-07-23T06:14:47Z</time>
      </trkpt>
      <trkpt lat="47.3345" lon="6.31372">
        <ele>211.19999694824</ele>
        <time>2017-07-23T06:14:54Z</time>
      </trkpt>
      <trkpt lat="47.334" lon="6.31353">
        <ele>211.19999694824</ele>
        <time>2017-07-23T06:15:03Z</time>
      </trkpt>
      <trkpt lat="47.33351" lon="6.31331">
        <ele>211.19999694824</ele>
        <time>2017-07-23T06:15:12Z</time>
      </trkpt>
      <trkpt lat="47.33294" lon="6.31309">
        <ele>211</ele>
        <time>2017-07-23T06:15:22Z</time>
      </trkpt>
      <trkpt lat="47.3324" lon="6.31287">
        <ele>210.80000305176</ele>
        <time>2017-07-23T06:15:31Z</time>
      </trkpt>
      <trkpt lat="47.33193" lon="6.31268">
        <ele>210.80000305176</ele>
        <time>2017-07-23T06:15:39Z</time>
      </trkpt>
      <trkpt lat="47.33161" lon="6.31244">
        <ele>210.80000305176</ele>
        <time>2017-07-23T06:15:45Z</time>
      </trkpt>
      <trkpt lat="47.3312" lon="6.3121">
        <ele>210.80000305176</ele>
        <time>2017-07-23T06:15:53Z</time>
      </trkpt>
      <trkpt lat="47.33087" lon="6.3117">
        <ele>210.60000610352</ele>
        <time>2017-07-23T06:16:00Z</time>
      </trkpt>
      <trkpt lat="47.33063" lon="6.31127">
        <ele>210.39999389648</ele>
        <time>2017-07-23T06:16:06Z</time>
      </trkpt>
      <trkpt lat="47.33044" lon="6.31081">
        <ele>210.19999694824</ele>
        <time>2017-07-23T06:16:12Z</time>
      </trkpt>
      <trkpt lat="47.33026" lon="6.31024">
        <ele>210.19999694824</ele>
        <time>2017-07-23T06:16:19Z</time>
      </trkpt>
      <trkpt lat="47.33005" lon="6.3095">
        <ele>210.19999694824</ele>
        <time>2017-07-23T06:16:28Z</time>
      </trkpt>
      <trkpt lat="47.32995" lon="6.30898">
        <ele>210.19999694824</ele>
        <time>2017-07-23T06:16:34Z</time>
      </trkpt>
      <trkpt lat="47.32993" lon="6.30879">
        <ele>210.19999694824</ele>
        <time>2017-07-23T06:16:36Z</time>
      </trkpt>
      <trkpt lat="47.3299" lon="6.30833">
        <ele>210.19999694824</ele>
        <time>2017-07-23T06:16:41Z</time>
      </trkpt>
      <trkpt lat="47.32988" lon="6.30761">
        <ele>210.19999694824</ele>
        <time>2017-07-23T06:16:49Z</time>
      </trkpt>
      <trkpt lat="47.32987" lon="6.30694">
        <ele>210.19999694824</ele>
        <time>2017-07-23T06:16:57Z</time>
      </trkpt>
      <trkpt lat="47.32985" lon="6.30616">
        <ele>210.19999694824</ele>
        <time>2017-07-23T06:17:06Z</time>
      </trkpt>
      <trkpt lat="47.32981" lon="6.30558">
        <ele>210.19999694824</ele>
        <time>2017-07-23T06:17:13Z</time>
      </trkpt>
      <trkpt lat="47.32979" lon="6.3051">
        <ele>210.19999694824</ele>
        <time>2017-07-23T06:17:20Z</time>
      </trkpt>
      <trkpt lat="47.32977" lon="6.30476">
        <ele>210.19999694824</ele>
        <time>2017-07-23T06:17:26Z</time>
      </trkpt>
      <trkpt lat="47.32972" lon="6.30439">
        <ele>210.60000610352</ele>
        <time>2017-07-23T06:17:34Z</time>
      </trkpt>
      <trkpt lat="47.32971" lon="6.3041">
        <ele>210.39999389648</ele>
        <time>2017-07-23T06:17:41Z</time>
      </trkpt>
      <trkpt lat="47.3297" lon="6.30407">
        <ele>210.19999694824</ele>
        <time>2017-07-23T06:18:24Z</time>
      </trkpt>
      <trkpt lat="47.32969" lon="6.304">
        <ele>210.39999389648</ele>
        <time>2017-07-23T06:18:26Z</time>
      </trkpt>
      <trkpt lat="47.32969" lon="6.30375">
        <ele>210.39999389648</ele>
        <time>2017-07-23T06:18:32Z</time>
      </trkpt>
      <trkpt lat="47.3297" lon="6.30368">
        <ele>210.39999389648</ele>
        <time>2017-07-23T06:18:33Z</time>
      </trkpt>
      <trkpt lat="47.32973" lon="6.30345">
        <ele>210</ele>
        <time>2017-07-23T06:18:36Z</time>
      </trkpt>
      <trkpt lat="47.32973" lon="6.30338">
        <ele>209.60000610352</ele>
        <time>2017-07-23T06:18:37Z</time>
      </trkpt>
      <trkpt lat="47.32974" lon="6.30331">
        <ele>209.19999694824</ele>
        <time>2017-07-23T06:18:38Z</time>
      </trkpt>
      <trkpt lat="47.32973" lon="6.303">
        <ele>208.39999389648</ele>
        <time>2017-07-23T06:18:42Z</time>
      </trkpt>
      <trkpt lat="47.32974" lon="6.30292">
        <ele>208.19999694824</ele>
        <time>2017-07-23T06:18:43Z</time>
      </trkpt>
      <trkpt lat="47.3298" lon="6.30247">
        <ele>208</ele>
        <time>2017-07-23T06:18:49Z</time>
      </trkpt>
      <trkpt lat="47.32989" lon="6.30189">
        <ele>208.19999694824</ele>
        <time>2017-07-23T06:18:56Z</time>
      </trkpt>
      <trkpt lat="47.32997" lon="6.30134">
        <ele>208.39999389648</ele>
        <time>2017-07-23T06:19:03Z</time>
      </trkpt>
      <trkpt lat="47.33009" lon="6.30057">
        <ele>208.19999694824</ele>
        <time>2017-07-23T06:19:13Z</time>
      </trkpt>
      <trkpt lat="47.33014" lon="6.29994">
        <ele>208.19999694824</ele>
        <time>2017-07-23T06:19:21Z</time>
      </trkpt>
      <trkpt lat="47.33018" lon="6.29923">
        <ele>208.19999694824</ele>
        <time>2017-07-23T06:19:30Z</time>
      </trkpt>
      <trkpt lat="47.33018" lon="6.29915">
        <ele>208.19999694824</ele>
        <time>2017-07-23T06:19:31Z</time>
      </trkpt>
      <trkpt lat="47.33018" lon="6.29907">
        <ele>208.19999694824</ele>
        <time>2017-07-23T06:19:32Z</time>
      </trkpt>
      <trkpt lat="47.33019" lon="6.29876">
        <ele>208.19999694824</ele>
        <time>2017-07-23T06:19:36Z</time>
      </trkpt>
      <trkpt lat="47.33021" lon="6.29826">
        <ele>208.19999694824</ele>
        <time>2017-07-23T06:19:43Z</time>
      </trkpt>
      <trkpt lat="47.33022" lon="6.29791">
        <ele>208.39999389648</ele>
        <time>2017-07-23T06:19:48Z</time>
      </trkpt>
      <trkpt lat="47.33022" lon="6.29777">
        <ele>208.60000610352</ele>
        <time>2017-07-23T06:19:50Z</time>
      </trkpt>
      <trkpt lat="47.33022" lon="6.2971">
        <ele>208.19999694824</ele>
        <time>2017-07-23T06:19:59Z</time>
      </trkpt>
      <trkpt lat="47.33021" lon="6.29662">
        <ele>208.19999694824</ele>
        <time>2017-07-23T06:20:05Z</time>
      </trkpt>
      <trkpt lat="47.33021" lon="6.29654">
        <ele>208.19999694824</ele>
        <time>2017-07-23T06:20:06Z</time>
      </trkpt>
      <trkpt lat="47.33016" lon="6.29597">
        <ele>208</ele>
        <time>2017-07-23T06:20:13Z</time>
      </trkpt>
      <trkpt lat="47.33015" lon="6.29588">
        <ele>208.19999694824</ele>
        <time>2017-07-23T06:20:14Z</time>
      </trkpt>
      <trkpt lat="47.33008" lon="6.29534">
        <ele>208</ele>
        <time>2017-07-23T06:20:21Z</time>
      </trkpt>
      <trkpt lat="47.32999" lon="6.29469">
        <ele>208.19999694824</ele>
        <time>2017-07-23T06:20:30Z</time>
      </trkpt>
      <trkpt lat="47.32994" lon="6.29433">
        <ele>209</ele>
        <time>2017-07-23T06:20:36Z</time>
      </trkpt>
      <trkpt lat="47.32988" lon="6.29404">
        <ele>209.19999694824</ele>
        <time>2017-07-23T06:20:40Z</time>
      </trkpt>
      <trkpt lat="47.32981" lon="6.29382">
        <ele>209.39999389648</ele>
        <time>2017-07-23T06:20:43Z</time>
      </trkpt>
      <trkpt lat="47.32962" lon="6.29324">
        <ele>209.80000305176</ele>
        <time>2017-07-23T06:20:51Z</time>
      </trkpt>
      <trkpt lat="47.3293" lon="6.29254">
        <ele>209.80000305176</ele>
        <time>2017-07-23T06:21:01Z</time>
      </trkpt>
      <trkpt lat="47.32923" lon="6.2924">
        <ele>209.80000305176</ele>
        <time>2017-07-23T06:21:03Z</time>
      </trkpt>
      <trkpt lat="47.32903" lon="6.29207">
        <ele>210</ele>
        <time>2017-07-23T06:21:08Z</time>
      </trkpt>
      <trkpt lat="47.32873" lon="6.29145">
        <ele>209.80000305176</ele>
        <time>2017-07-23T06:21:17Z</time>
      </trkpt>
      <trkpt lat="47.3287" lon="6.29137">
        <ele>209.80000305176</ele>
        <time>2017-07-23T06:21:18Z</time>
      </trkpt>
      <trkpt lat="47.32855" lon="6.29107">
        <ele>209.60000610352</ele>
        <time>2017-07-23T06:21:22Z</time>
      </trkpt>
      <trkpt lat="47.32828" lon="6.29055">
        <ele>209.19999694824</ele>
        <time>2017-07-23T06:21:29Z</time>
      </trkpt>
      <trkpt lat="47.32804" lon="6.29006">
        <ele>209.19999694824</ele>
        <time>2017-07-23T06:21:36Z</time>
      </trkpt>
      <trkpt lat="47.32778" lon="6.28964">
        <ele>209.19999694824</ele>
        <time>2017-07-23T06:21:42Z</time>
      </trkpt>
      <trkpt lat="47.32747" lon="6.28918">
        <ele>209.19999694824</ele>
        <time>2017-07-23T06:21:49Z</time>
      </trkpt>
      <trkpt lat="47.32706" lon="6.28865">
        <ele>209.19999694824</ele>
        <time>2017-07-23T06:21:58Z</time>
      </trkpt>
      <trkpt lat="47.32672" lon="6.28813">
        <ele>209.19999694824</ele>
        <time>2017-07-23T06:22:06Z</time>
      </trkpt>
      <trkpt lat="47.32628" lon="6.28762">
        <ele>209.19999694824</ele>
        <time>2017-07-23T06:22:15Z</time>
      </trkpt>
      <trkpt lat="47.3259" lon="6.28719">
        <ele>209</ele>
        <time>2017-07-23T06:22:23Z</time>
      </trkpt>
      <trkpt lat="47.32548" lon="6.28673">
        <ele>209.39999389648</ele>
        <time>2017-07-23T06:22:32Z</time>
      </trkpt>
      <trkpt lat="47.325" lon="6.28623">
        <ele>209.80000305176</ele>
        <time>2017-07-23T06:22:42Z</time>
      </trkpt>
      <trkpt lat="47.32456" lon="6.28577">
        <ele>209.80000305176</ele>
        <time>2017-07-23T06:22:51Z</time>
      </trkpt>
      <trkpt lat="47.32411" lon="6.28535">
        <ele>209.60000610352</ele>
        <time>2017-07-23T06:23:00Z</time>
      </trkpt>
      <trkpt lat="47.32378" lon="6.28506">
        <ele>209.80000305176</ele>
        <time>2017-07-23T06:23:07Z</time>
      </trkpt>
      <trkpt lat="47.32344" lon="6.28472">
        <ele>210</ele>
        <time>2017-07-23T06:23:14Z</time>
      </trkpt>
      <trkpt lat="47.32305" lon="6.28423">
        <ele>209</ele>
        <time>2017-07-23T06:23:22Z</time>
      </trkpt>
      <trkpt lat="47.32274" lon="6.28382">
        <ele>209</ele>
        <time>2017-07-23T06:23:29Z</time>
      </trkpt>
      <trkpt lat="47.32247" lon="6.28349">
        <ele>209</ele>
        <time>2017-07-23T06:23:35Z</time>
      </trkpt>
      <trkpt lat="47.32217" lon="6.283">
        <ele>208.39999389648</ele>
        <time>2017-07-23T06:23:42Z</time>
      </trkpt>
      <trkpt lat="47.32191" lon="6.28257">
        <ele>208.19999694824</ele>
        <time>2017-07-23T06:23:48Z</time>
      </trkpt>
      <trkpt lat="47.3218" lon="6.28236">
        <ele>208.19999694824</ele>
        <time>2017-07-23T06:23:51Z</time>
      </trkpt>
      <trkpt lat="47.32171" lon="6.28213">
        <ele>208</ele>
        <time>2017-07-23T06:23:54Z</time>
      </trkpt>
      <trkpt lat="47.32167" lon="6.28196">
        <ele>208</ele>
        <time>2017-07-23T06:23:56Z</time>
      </trkpt>
      <trkpt lat="47.32157" lon="6.28119">
        <ele>208.19999694824</ele>
        <time>2017-07-23T06:24:05Z</time>
      </trkpt>
      <trkpt lat="47.32148" lon="6.28046">
        <ele>208.39999389648</ele>
        <time>2017-07-23T06:24:14Z</time>
      </trkpt>
      <trkpt lat="47.32144" lon="6.28012">
        <ele>208.80000305176</ele>
        <time>2017-07-23T06:24:19Z</time>
      </trkpt>
      <trkpt lat="47.32143" lon="6.28006">
        <ele>209</ele>
        <time>2017-07-23T06:24:20Z</time>
      </trkpt>
      <trkpt lat="47.32142" lon="6.27991">
        <ele>209.39999389648</ele>
        <time>2017-07-23T06:24:22Z</time>
      </trkpt>
      <trkpt lat="47.32141" lon="6.27973">
        <ele>209.60000610352</ele>
        <time>2017-07-23T06:24:24Z</time>
      </trkpt>
      <trkpt lat="47.32138" lon="6.27942">
        <ele>209</ele>
        <time>2017-07-23T06:24:27Z</time>
      </trkpt>
      <trkpt lat="47.32138" lon="6.27922">
        <ele>208.39999389648</ele>
        <time>2017-07-23T06:24:29Z</time>
      </trkpt>
      <trkpt lat="47.32137" lon="6.27913">
        <ele>208</ele>
        <time>2017-07-23T06:24:30Z</time>
      </trkpt>
      <trkpt lat="47.32137" lon="6.27896">
        <ele>207.60000610352</ele>
        <time>2017-07-23T06:24:32Z</time>
      </trkpt>
      <trkpt lat="47.32139" lon="6.2787">
        <ele>207.39999389648</ele>
        <time>2017-07-23T06:24:35Z</time>
      </trkpt>
      <trkpt lat="47.3214" lon="6.27861">
        <ele>207.39999389648</ele>
        <time>2017-07-23T06:24:36Z</time>
      </trkpt>
      <trkpt lat="47.32143" lon="6.27817">
        <ele>207.39999389648</ele>
        <time>2017-07-23T06:24:41Z</time>
      </trkpt>
      <trkpt lat="47.32143" lon="6.27799">
        <ele>207.39999389648</ele>
        <time>2017-07-23T06:24:43Z</time>
      </trkpt>
      <trkpt lat="47.32143" lon="6.27737">
        <ele>207.19999694824</ele>
        <time>2017-07-23T06:24:50Z</time>
      </trkpt>
      <trkpt lat="47.32146" lon="6.2766">
        <ele>207.39999389648</ele>
        <time>2017-07-23T06:24:59Z</time>
      </trkpt>
      <trkpt lat="47.32143" lon="6.27599">
        <ele>207.39999389648</ele>
        <time>2017-07-23T06:25:06Z</time>
      </trkpt>
      <trkpt lat="47.32131" lon="6.2754">
        <ele>207.19999694824</ele>
        <time>2017-07-23T06:25:13Z</time>
      </trkpt>
      <trkpt lat="47.32128" lon="6.27523">
        <ele>207.19999694824</ele>
        <time>2017-07-23T06:25:15Z</time>
      </trkpt>
      <trkpt lat="47.32123" lon="6.27498">
        <ele>207.19999694824</ele>
        <time>2017-07-23T06:25:18Z</time>
      </trkpt>
      <trkpt lat="47.32122" lon="6.27489">
        <ele>207.19999694824</ele>
        <time>2017-07-23T06:25:19Z</time>
      </trkpt>
      <trkpt lat="47.32121" lon="6.27481">
        <ele>207.19999694824</ele>
        <time>2017-07-23T06:25:20Z</time>
      </trkpt>
      <trkpt lat="47.32119" lon="6.27465">
        <ele>207</ele>
        <time>2017-07-23T06:25:22Z</time>
      </trkpt>
      <trkpt lat="47.32117" lon="6.2745">
        <ele>207</ele>
        <time>2017-07-23T06:25:24Z</time>
      </trkpt>
      <trkpt lat="47.32111" lon="6.27403">
        <ele>207.19999694824</ele>
        <time>2017-07-23T06:25:30Z</time>
      </trkpt>
      <trkpt lat="47.32105" lon="6.27346">
        <ele>207.39999389648</ele>
        <time>2017-07-23T06:25:37Z</time>
      </trkpt>
      <trkpt lat="47.32094" lon="6.27267">
        <ele>207.39999389648</ele>
        <time>2017-07-23T06:25:46Z</time>
      </trkpt>
      <trkpt lat="47.32085" lon="6.27186">
        <ele>207.39999389648</ele>
        <time>2017-07-23T06:25:55Z</time>
      </trkpt>
      <trkpt lat="47.32083" lon="6.27116">
        <ele>207.39999389648</ele>
        <time>2017-07-23T06:26:03Z</time>
      </trkpt>
      <trkpt lat="47.32082" lon="6.27046">
        <ele>207.60000610352</ele>
        <time>2017-07-23T06:26:11Z</time>
      </trkpt>
      <trkpt lat="47.32083" lon="6.26965">
        <ele>207.19999694824</ele>
        <time>2017-07-23T06:26:20Z</time>
      </trkpt>
      <trkpt lat="47.32086" lon="6.26885">
        <ele>206.80000305176</ele>
        <time>2017-07-23T06:26:29Z</time>
      </trkpt>
      <trkpt lat="47.32087" lon="6.26812">
        <ele>207.19999694824</ele>
        <time>2017-07-23T06:26:37Z</time>
      </trkpt>
      <trkpt lat="47.32086" lon="6.2676">
        <ele>207</ele>
        <time>2017-07-23T06:26:43Z</time>
      </trkpt>
      <trkpt lat="47.32082" lon="6.267">
        <ele>206.60000610352</ele>
        <time>2017-07-23T06:26:50Z</time>
      </trkpt>
      <trkpt lat="47.3208" lon="6.26683">
        <ele>206.60000610352</ele>
        <time>2017-07-23T06:26:52Z</time>
      </trkpt>
      <trkpt lat="47.32074" lon="6.26652">
        <ele>206.60000610352</ele>
        <time>2017-07-23T06:26:56Z</time>
      </trkpt>
      <trkpt lat="47.3206" lon="6.26607">
        <ele>206.39999389648</ele>
        <time>2017-07-23T06:27:02Z</time>
      </trkpt>
      <trkpt lat="47.32056" lon="6.266">
        <ele>206.39999389648</ele>
        <time>2017-07-23T06:27:03Z</time>
      </trkpt>
      <trkpt lat="47.32041" lon="6.26578">
        <ele>206.60000610352</ele>
        <time>2017-07-23T06:27:07Z</time>
      </trkpt>
      <trkpt lat="47.32037" lon="6.26572">
        <ele>206.60000610352</ele>
        <time>2017-07-23T06:27:08Z</time>
      </trkpt>
      <trkpt lat="47.32029" lon="6.26561">
        <ele>206.80000305176</ele>
        <time>2017-07-23T06:27:10Z</time>
      </trkpt>
      <trkpt lat="47.32016" lon="6.26548">
        <ele>206.80000305176</ele>
        <time>2017-07-23T06:27:13Z</time>
      </trkpt>
      <trkpt lat="47.31973" lon="6.26507">
        <ele>207</ele>
        <time>2017-07-23T06:27:22Z</time>
      </trkpt>
      <trkpt lat="47.31927" lon="6.26473">
        <ele>207.19999694824</ele>
        <time>2017-07-23T06:27:31Z</time>
      </trkpt>
      <trkpt lat="47.31881" lon="6.2645">
        <ele>207.19999694824</ele>
        <time>2017-07-23T06:27:39Z</time>
      </trkpt>
      <trkpt lat="47.31831" lon="6.26421">
        <ele>207.19999694824</ele>
        <time>2017-07-23T06:27:48Z</time>
      </trkpt>
      <trkpt lat="47.31776" lon="6.2639">
        <ele>207.19999694824</ele>
        <time>2017-07-23T06:27:58Z</time>
      </trkpt>
      <trkpt lat="47.31729" lon="6.2636">
        <ele>207.19999694824</ele>
        <time>2017-07-23T06:28:07Z</time>
      </trkpt>
      <trkpt lat="47.31692" lon="6.26334">
        <ele>207.19999694824</ele>
        <time>2017-07-23T06:28:14Z</time>
      </trkpt>
      <trkpt lat="47.31653" lon="6.26309">
        <ele>207</ele>
        <time>2017-07-23T06:28:21Z</time>
      </trkpt>
      <trkpt lat="47.31615" lon="6.26281">
        <ele>207</ele>
        <time>2017-07-23T06:28:28Z</time>
      </trkpt>
      <trkpt lat="47.31564" lon="6.26249">
        <ele>206.60000610352</ele>
        <time>2017-07-23T06:28:37Z</time>
      </trkpt>
      <trkpt lat="47.31559" lon="6.26245">
        <ele>206.60000610352</ele>
        <time>2017-07-23T06:28:38Z</time>
      </trkpt>
      <trkpt lat="47.31509" lon="6.26215">
        <ele>206.60000610352</ele>
        <time>2017-07-23T06:28:47Z</time>
      </trkpt>
      <trkpt lat="47.31468" lon="6.26183">
        <ele>206.39999389648</ele>
        <time>2017-07-23T06:28:55Z</time>
      </trkpt>
      <trkpt lat="47.31458" lon="6.26174">
        <ele>206.19999694824</ele>
        <time>2017-07-23T06:28:57Z</time>
      </trkpt>
      <trkpt lat="47.3143" lon="6.26146">
        <ele>206.19999694824</ele>
        <time>2017-07-23T06:29:03Z</time>
      </trkpt>
      <trkpt lat="47.31396" lon="6.26118">
        <ele>206.60000610352</ele>
        <time>2017-07-23T06:29:10Z</time>
      </trkpt>
      <trkpt lat="47.31353" lon="6.26092">
        <ele>206.60000610352</ele>
        <time>2017-07-23T06:29:18Z</time>
      </trkpt>
      <trkpt lat="47.31315" lon="6.26073">
        <ele>206.19999694824</ele>
        <time>2017-07-23T06:29:25Z</time>
      </trkpt>
      <trkpt lat="47.31271" lon="6.26051">
        <ele>206</ele>
        <time>2017-07-23T06:29:33Z</time>
      </trkpt>
      <trkpt lat="47.31234" lon="6.26027">
        <ele>205.80000305176</ele>
        <time>2017-07-23T06:29:40Z</time>
      </trkpt>
      <trkpt lat="47.31192" lon="6.25996">
        <ele>206</ele>
        <time>2017-07-23T06:29:48Z</time>
      </trkpt>
      <trkpt lat="47.31168" lon="6.25971">
        <ele>205.80000305176</ele>
        <time>2017-07-23T06:29:53Z</time>
      </trkpt>
      <trkpt lat="47.31164" lon="6.25965">
        <ele>205.80000305176</ele>
        <time>2017-07-23T06:29:54Z</time>
      </trkpt>
      <trkpt lat="47.31144" lon="6.25926">
        <ele>205.80000305176</ele>
        <time>2017-07-23T06:30:00Z</time>
      </trkpt>
      <trkpt lat="47.31123" lon="6.2588">
        <ele>206.19999694824</ele>
        <time>2017-07-23T06:30:07Z</time>
      </trkpt>
      <trkpt lat="47.31103" lon="6.25844">
        <ele>206.80000305176</ele>
        <time>2017-07-23T06:30:13Z</time>
      </trkpt>
      <trkpt lat="47.311" lon="6.25838">
        <ele>206.80000305176</ele>
        <time>2017-07-23T06:30:14Z</time>
      </trkpt>
      <trkpt lat="47.31086" lon="6.25816">
        <ele>207</ele>
        <time>2017-07-23T06:30:18Z</time>
      </trkpt>
      <trkpt lat="47.31074" lon="6.25801">
        <ele>207</ele>
        <time>2017-07-23T06:30:21Z</time>
      </trkpt>
      <trkpt lat="47.3106" lon="6.25778">
        <ele>207.39999389648</ele>
        <time>2017-07-23T06:30:25Z</time>
      </trkpt>
      <trkpt lat="47.31053" lon="6.25767">
        <ele>207.39999389648</ele>
        <time>2017-07-23T06:30:27Z</time>
      </trkpt>
      <trkpt lat="47.31023" lon="6.25719">
        <ele>207.80000305176</ele>
        <time>2017-07-23T06:30:35Z</time>
      </trkpt>
      <trkpt lat="47.3102" lon="6.25711">
        <ele>207.80000305176</ele>
        <time>2017-07-23T06:30:36Z</time>
      </trkpt>
      <trkpt lat="47.31014" lon="6.25691">
        <ele>207.60000610352</ele>
        <time>2017-07-23T06:30:38Z</time>
      </trkpt>
      <trkpt lat="47.31012" lon="6.25669">
        <ele>207</ele>
        <time>2017-07-23T06:30:40Z</time>
      </trkpt>
      <trkpt lat="47.3101" lon="6.25647">
        <ele>206</ele>
        <time>2017-07-23T06:30:42Z</time>
      </trkpt>
      <trkpt lat="47.31001" lon="6.25587">
        <ele>205.19999694824</ele>
        <time>2017-07-23T06:30:48Z</time>
      </trkpt>
      <trkpt lat="47.30994" lon="6.25523">
        <ele>205.39999389648</ele>
        <time>2017-07-23T06:30:55Z</time>
      </trkpt>
      <trkpt lat="47.30993" lon="6.25506">
        <ele>205.39999389648</ele>
        <time>2017-07-23T06:30:57Z</time>
      </trkpt>
      <trkpt lat="47.30992" lon="6.25481">
        <ele>205.60000610352</ele>
        <time>2017-07-23T06:31:00Z</time>
      </trkpt>
      <trkpt lat="47.3099" lon="6.25448">
        <ele>205.80000305176</ele>
        <time>2017-07-23T06:31:04Z</time>
      </trkpt>
      <trkpt lat="47.30987" lon="6.25429">
        <ele>205.80000305176</ele>
        <time>2017-07-23T06:31:06Z</time>
      </trkpt>
      <trkpt lat="47.30972" lon="6.25366">
        <ele>205.80000305176</ele>
        <time>2017-07-23T06:31:13Z</time>
      </trkpt>
      <trkpt lat="47.30957" lon="6.25283">
        <ele>205.80000305176</ele>
        <time>2017-07-23T06:31:22Z</time>
      </trkpt>
      <trkpt lat="47.30944" lon="6.25207">
        <ele>205</ele>
        <time>2017-07-23T06:31:30Z</time>
      </trkpt>
      <trkpt lat="47.3094" lon="6.25178">
        <ele>204.60000610352</ele>
        <time>2017-07-23T06:31:33Z</time>
      </trkpt>
      <trkpt lat="47.30927" lon="6.251">
        <ele>204.60000610352</ele>
        <time>2017-07-23T06:31:41Z</time>
      </trkpt>
      <trkpt lat="47.30923" lon="6.25081">
        <ele>204.60000610352</ele>
        <time>2017-07-23T06:31:43Z</time>
      </trkpt>
      <trkpt lat="47.3091" lon="6.24996">
        <ele>205</ele>
        <time>2017-07-23T06:31:52Z</time>
      </trkpt>
      <trkpt lat="47.30901" lon="6.24927">
        <ele>205.19999694824</ele>
        <time>2017-07-23T06:32:00Z</time>
      </trkpt>
      <trkpt lat="47.3089" lon="6.24852">
        <ele>204.80000305176</ele>
        <time>2017-07-23T06:32:08Z</time>
      </trkpt>
      <trkpt lat="47.30878" lon="6.24773">
        <ele>204.39999389648</ele>
        <time>2017-07-23T06:32:16Z</time>
      </trkpt>
      <trkpt lat="47.30875" lon="6.24754">
        <ele>204.39999389648</ele>
        <time>2017-07-23T06:32:18Z</time>
      </trkpt>
      <trkpt lat="47.30862" lon="6.24672">
        <ele>204.39999389648</ele>
        <time>2017-07-23T06:32:27Z</time>
      </trkpt>
      <trkpt lat="47.3086" lon="6.24654">
        <ele>204.39999389648</ele>
        <time>2017-07-23T06:32:29Z</time>
      </trkpt>
      <trkpt lat="47.30847" lon="6.24571">
        <ele>204.60000610352</ele>
        <time>2017-07-23T06:32:38Z</time>
      </trkpt>
      <trkpt lat="47.30846" lon="6.24562">
        <ele>204.60000610352</ele>
        <time>2017-07-23T06:32:39Z</time>
      </trkpt>
      <trkpt lat="47.30833" lon="6.2449">
        <ele>204.39999389648</ele>
        <time>2017-07-23T06:32:47Z</time>
      </trkpt>
      <trkpt lat="47.30816" lon="6.2441">
        <ele>204.19999694824</ele>
        <time>2017-07-23T06:32:56Z</time>
      </trkpt>
      <trkpt lat="47.30799" lon="6.24345">
        <ele>204.19999694824</ele>
        <time>2017-07-23T06:33:04Z</time>
      </trkpt>
      <trkpt lat="47.30794" lon="6.24329">
        <ele>203.80000305176</ele>
        <time>2017-07-23T06:33:06Z</time>
      </trkpt>
      <trkpt lat="47.30779" lon="6.24281">
        <ele>203.80000305176</ele>
        <time>2017-07-23T06:33:12Z</time>
      </trkpt>
      <trkpt lat="47.30761" lon="6.24215">
        <ele>204</ele>
        <time>2017-07-23T06:33:20Z</time>
      </trkpt>
      <trkpt lat="47.30746" lon="6.24152">
        <ele>204.39999389648</ele>
        <time>2017-07-23T06:33:28Z</time>
      </trkpt>
      <trkpt lat="47.30739" lon="6.24119">
        <ele>204.80000305176</ele>
        <time>2017-07-23T06:33:32Z</time>
      </trkpt>
      <trkpt lat="47.30733" lon="6.24093">
        <ele>204.80000305176</ele>
        <time>2017-07-23T06:33:35Z</time>
      </trkpt>
      <trkpt lat="47.30721" lon="6.24034">
        <ele>205</ele>
        <time>2017-07-23T06:33:42Z</time>
      </trkpt>
      <trkpt lat="47.30705" lon="6.23965">
        <ele>204.80000305176</ele>
        <time>2017-07-23T06:33:50Z</time>
      </trkpt>
      <trkpt lat="47.30689" lon="6.23908">
        <ele>204.60000610352</ele>
        <time>2017-07-23T06:33:57Z</time>
      </trkpt>
      <trkpt lat="47.30678" lon="6.23865">
        <ele>204.60000610352</ele>
        <time>2017-07-23T06:34:02Z</time>
      </trkpt>
      <trkpt lat="47.30675" lon="6.23857">
        <ele>204.60000610352</ele>
        <time>2017-07-23T06:34:03Z</time>
      </trkpt>
      <trkpt lat="47.30644" lon="6.23785">
        <ele>204.60000610352</ele>
        <time>2017-07-23T06:34:12Z</time>
      </trkpt>
      <trkpt lat="47.30616" lon="6.2373">
        <ele>204.39999389648</ele>
        <time>2017-07-23T06:34:19Z</time>
      </trkpt>
      <trkpt lat="47.30583" lon="6.2367">
        <ele>204</ele>
        <time>2017-07-23T06:34:27Z</time>
      </trkpt>
      <trkpt lat="47.30557" lon="6.23645">
        <ele>204.19999694824</ele>
        <time>2017-07-23T06:34:32Z</time>
      </trkpt>
      <trkpt lat="47.30539" lon="6.23634">
        <ele>204.19999694824</ele>
        <time>2017-07-23T06:34:35Z</time>
      </trkpt>
      <trkpt lat="47.30521" lon="6.2363">
        <ele>204.19999694824</ele>
        <time>2017-07-23T06:34:38Z</time>
      </trkpt>
      <trkpt lat="47.30481" lon="6.23619">
        <ele>204.19999694824</ele>
        <time>2017-07-23T06:34:45Z</time>
      </trkpt>
      <trkpt lat="47.30448" lon="6.23603">
        <ele>204</ele>
        <time>2017-07-23T06:34:51Z</time>
      </trkpt>
      <trkpt lat="47.30402" lon="6.23578">
        <ele>204</ele>
        <time>2017-07-23T06:34:59Z</time>
      </trkpt>
      <trkpt lat="47.30356" lon="6.23547">
        <ele>204</ele>
        <time>2017-07-23T06:35:07Z</time>
      </trkpt>
      <trkpt lat="47.30314" lon="6.23524">
        <ele>204.19999694824</ele>
        <time>2017-07-23T06:35:14Z</time>
      </trkpt>
      <trkpt lat="47.30283" lon="6.23518">
        <ele>204.19999694824</ele>
        <time>2017-07-23T06:35:19Z</time>
      </trkpt>
      <trkpt lat="47.30239" lon="6.23518">
        <ele>204</ele>
        <time>2017-07-23T06:35:26Z</time>
      </trkpt>
      <trkpt lat="47.30183" lon="6.23525">
        <ele>204.19999694824</ele>
        <time>2017-07-23T06:35:35Z</time>
      </trkpt>
      <trkpt lat="47.30135" lon="6.23535">
        <ele>204.19999694824</ele>
        <time>2017-07-23T06:35:43Z</time>
      </trkpt>
      <trkpt lat="47.30104" lon="6.23537">
        <ele>204.19999694824</ele>
        <time>2017-07-23T06:35:49Z</time>
      </trkpt>
      <trkpt lat="47.30091" lon="6.23528">
        <ele>204.80000305176</ele>
        <time>2017-07-23T06:35:53Z</time>
      </trkpt>
      <trkpt lat="47.30063" lon="6.23523">
        <ele>206</ele>
        <time>2017-07-23T06:36:00Z</time>
      </trkpt>
      <trkpt lat="47.3005" lon="6.23523">
        <ele>206.19999694824</ele>
        <time>2017-07-23T06:36:03Z</time>
      </trkpt>
      <trkpt lat="47.30034" lon="6.23522">
        <ele>206.80000305176</ele>
        <time>2017-07-23T06:36:07Z</time>
      </trkpt>
      <trkpt lat="47.3003" lon="6.23521">
        <ele>207</ele>
        <time>2017-07-23T06:36:08Z</time>
      </trkpt>
      <trkpt lat="47.30014" lon="6.23514">
        <ele>207.39999389648</ele>
        <time>2017-07-23T06:36:12Z</time>
      </trkpt>
      <trkpt lat="47.30011" lon="6.23511">
        <ele>207.60000610352</ele>
        <time>2017-07-23T06:36:13Z</time>
      </trkpt>
      <trkpt lat="47.30001" lon="6.235">
        <ele>208</ele>
        <time>2017-07-23T06:36:16Z</time>
      </trkpt>
      <trkpt lat="47.29993" lon="6.23492">
        <ele>208.60000610352</ele>
        <time>2017-07-23T06:36:19Z</time>
      </trkpt>
      <trkpt lat="47.29984" lon="6.23483">
        <ele>209.19999694824</ele>
        <time>2017-07-23T06:36:22Z</time>
      </trkpt>
      <trkpt lat="47.29973" lon="6.2347">
        <ele>210</ele>
        <time>2017-07-23T06:36:26Z</time>
      </trkpt>
      <trkpt lat="47.2997" lon="6.23467">
        <ele>210.19999694824</ele>
        <time>2017-07-23T06:36:27Z</time>
      </trkpt>
      <trkpt lat="47.29953" lon="6.23446">
        <ele>211.39999389648</ele>
        <time>2017-07-23T06:36:33Z</time>
      </trkpt>
      <trkpt lat="47.2995" lon="6.23442">
        <ele>211.60000610352</ele>
        <time>2017-07-23T06:36:34Z</time>
      </trkpt>
      <trkpt lat="47.29926" lon="6.2342">
        <ele>212.39999389648</ele>
        <time>2017-07-23T06:36:41Z</time>
      </trkpt>
      <trkpt lat="47.29903" lon="6.23408">
        <ele>213.19999694824</ele>
        <time>2017-07-23T06:36:47Z</time>
      </trkpt>
      <trkpt lat="47.29885" lon="6.23402">
        <ele>213.39999389648</ele>
        <time>2017-07-23T06:36:52Z</time>
      </trkpt>
      <trkpt lat="47.29879" lon="6.23398">
        <ele>213.60000610352</ele>
        <time>2017-07-23T06:36:54Z</time>
      </trkpt>
      <trkpt lat="47.29869" lon="6.23404">
        <ele>214</ele>
        <time>2017-07-23T06:36:58Z</time>
      </trkpt>
      <trkpt lat="47.2986" lon="6.23413">
        <ele>214.19999694824</ele>
        <time>2017-07-23T06:37:01Z</time>
      </trkpt>
      <trkpt lat="47.29852" lon="6.23416">
        <ele>214</ele>
        <time>2017-07-23T06:37:03Z</time>
      </trkpt>
      <trkpt lat="47.29844" lon="6.23419">
        <ele>213.39999389648</ele>
        <time>2017-07-23T06:37:05Z</time>
      </trkpt>
      <trkpt lat="47.29836" lon="6.23422">
        <ele>212.39999389648</ele>
        <time>2017-07-23T06:37:07Z</time>
      </trkpt>
      <trkpt lat="47.29831" lon="6.23424">
        <ele>211.80000305176</ele>
        <time>2017-07-23T06:37:08Z</time>
      </trkpt>
      <trkpt lat="47.29826" lon="6.23425">
        <ele>211.19999694824</ele>
        <time>2017-07-23T06:37:09Z</time>
      </trkpt>
      <trkpt lat="47.29815" lon="6.23428">
        <ele>210</ele>
        <time>2017-07-23T06:37:11Z</time>
      </trkpt>
      <trkpt lat="47.29802" lon="6.23425">
        <ele>208.80000305176</ele>
        <time>2017-07-23T06:37:13Z</time>
      </trkpt>
      <trkpt lat="47.29795" lon="6.2342">
        <ele>208.19999694824</ele>
        <time>2017-07-23T06:37:14Z</time>
      </trkpt>
      <trkpt lat="47.29789" lon="6.23414">
        <ele>207.60000610352</ele>
        <time>2017-07-23T06:37:15Z</time>
      </trkpt>
      <trkpt lat="47.2978" lon="6.23399">
        <ele>206.39999389648</ele>
        <time>2017-07-23T06:37:17Z</time>
      </trkpt>
      <trkpt lat="47.29761" lon="6.23368">
        <ele>205.39999389648</ele>
        <time>2017-07-23T06:37:22Z</time>
      </trkpt>
      <trkpt lat="47.2975" lon="6.23347">
        <ele>205.80000305176</ele>
        <time>2017-07-23T06:37:26Z</time>
      </trkpt>
      <trkpt lat="47.29744" lon="6.23337">
        <ele>205.80000305176</ele>
        <time>2017-07-23T06:37:28Z</time>
      </trkpt>
      <trkpt lat="47.29733" lon="6.23314">
        <ele>205.80000305176</ele>
        <time>2017-07-23T06:37:32Z</time>
      </trkpt>
      <trkpt lat="47.29731" lon="6.23309">
        <ele>205.80000305176</ele>
        <time>2017-07-23T06:37:33Z</time>
      </trkpt>
      <trkpt lat="47.29727" lon="6.233">
        <ele>206</ele>
        <time>2017-07-23T06:37:35Z</time>
      </trkpt>
      <trkpt lat="47.29721" lon="6.23301">
        <ele>206</ele>
        <time>2017-07-23T06:37:37Z</time>
      </trkpt>
      <trkpt lat="47.29704" lon="6.23315">
        <ele>206</ele>
        <time>2017-07-23T06:37:41Z</time>
      </trkpt>
      <trkpt lat="47.29699" lon="6.23318">
        <ele>206</ele>
        <time>2017-07-23T06:37:42Z</time>
      </trkpt>
      <trkpt lat="47.29688" lon="6.23321">
        <ele>205.60000610352</ele>
        <time>2017-07-23T06:37:44Z</time>
      </trkpt>
      <trkpt lat="47.29675" lon="6.23328">
        <ele>205.19999694824</ele>
        <time>2017-07-23T06:37:46Z</time>
      </trkpt>
      <trkpt lat="47.29669" lon="6.23332">
        <ele>205</ele>
        <time>2017-07-23T06:37:47Z</time>
      </trkpt>
      <trkpt lat="47.29662" lon="6.23336">
        <ele>204.60000610352</ele>
        <time>2017-07-23T06:37:48Z</time>
      </trkpt>
      <trkpt lat="47.2965" lon="6.23343">
        <ele>204</ele>
        <time>2017-07-23T06:37:50Z</time>
      </trkpt>
      <trkpt lat="47.29644" lon="6.23346">
        <ele>203.80000305176</ele>
        <time>2017-07-23T06:37:51Z</time>
      </trkpt>
      <trkpt lat="47.29639" lon="6.23344">
        <ele>203.60000610352</ele>
        <time>2017-07-23T06:37:52Z</time>
      </trkpt>
      <trkpt lat="47.2963" lon="6.23331">
        <ele>203.19999694824</ele>
        <time>2017-07-23T06:37:54Z</time>
      </trkpt>
      <trkpt lat="47.29621" lon="6.23309">
        <ele>203</ele>
        <time>2017-07-23T06:37:57Z</time>
      </trkpt>
      <trkpt lat="47.29618" lon="6.23302">
        <ele>203</ele>
        <time>2017-07-23T06:37:58Z</time>
      </trkpt>
      <trkpt lat="47.29616" lon="6.23294">
        <ele>203</ele>
        <time>2017-07-23T06:37:59Z</time>
      </trkpt>
      <trkpt lat="47.29611" lon="6.23278">
        <ele>202.80000305176</ele>
        <time>2017-07-23T06:38:01Z</time>
      </trkpt>
      <trkpt lat="47.29604" lon="6.23252">
        <ele>202.80000305176</ele>
        <time>2017-07-23T06:38:04Z</time>
      </trkpt>
      <trkpt lat="47.29593" lon="6.23183">
        <ele>202.80000305176</ele>
        <time>2017-07-23T06:38:12Z</time>
      </trkpt>
      <trkpt lat="47.29596" lon="6.23138">
        <ele>202.80000305176</ele>
        <time>2017-07-23T06:38:17Z</time>
      </trkpt>
      <trkpt lat="47.296" lon="6.23083">
        <ele>202.60000610352</ele>
        <time>2017-07-23T06:38:23Z</time>
      </trkpt>
      <trkpt lat="47.29601" lon="6.23074">
        <ele>202.39999389648</ele>
        <time>2017-07-23T06:38:24Z</time>
      </trkpt>
      <trkpt lat="47.29605" lon="6.23009">
        <ele>202.39999389648</ele>
        <time>2017-07-23T06:38:31Z</time>
      </trkpt>
      <trkpt lat="47.29614" lon="6.22945">
        <ele>202.19999694824</ele>
        <time>2017-07-23T06:38:38Z</time>
      </trkpt>
      <trkpt lat="47.29621" lon="6.2292">
        <ele>202.60000610352</ele>
        <time>2017-07-23T06:38:41Z</time>
      </trkpt>
      <trkpt lat="47.2963" lon="6.22897">
        <ele>203</ele>
        <time>2017-07-23T06:38:44Z</time>
      </trkpt>
      <trkpt lat="47.29636" lon="6.22883">
        <ele>203.19999694824</ele>
        <time>2017-07-23T06:38:46Z</time>
      </trkpt>
      <trkpt lat="47.29644" lon="6.22868">
        <ele>203.39999389648</ele>
        <time>2017-07-23T06:38:48Z</time>
      </trkpt>
      <trkpt lat="47.29651" lon="6.22854">
        <ele>203.39999389648</ele>
        <time>2017-07-23T06:38:50Z</time>
      </trkpt>
      <trkpt lat="47.29681" lon="6.22787">
        <ele>203.39999389648</ele>
        <time>2017-07-23T06:38:59Z</time>
      </trkpt>
      <trkpt lat="47.29712" lon="6.22719">
        <ele>203.60000610352</ele>
        <time>2017-07-23T06:39:08Z</time>
      </trkpt>
      <trkpt lat="47.2973" lon="6.22679">
        <ele>203.80000305176</ele>
        <time>2017-07-23T06:39:13Z</time>
      </trkpt>
      <trkpt lat="47.29756" lon="6.22616">
        <ele>203.80000305176</ele>
        <time>2017-07-23T06:39:21Z</time>
      </trkpt>
      <trkpt lat="47.29783" lon="6.22536">
        <ele>203.80000305176</ele>
        <time>2017-07-23T06:39:30Z</time>
      </trkpt>
      <trkpt lat="47.29798" lon="6.2248">
        <ele>203.80000305176</ele>
        <time>2017-07-23T06:39:36Z</time>
      </trkpt>
      <trkpt lat="47.29818" lon="6.22405">
        <ele>203.60000610352</ele>
        <time>2017-07-23T06:39:44Z</time>
      </trkpt>
      <trkpt lat="47.2982" lon="6.22396">
        <ele>203.60000610352</ele>
        <time>2017-07-23T06:39:45Z</time>
      </trkpt>
      <trkpt lat="47.29839" lon="6.22324">
        <ele>203.60000610352</ele>
        <time>2017-07-23T06:39:53Z</time>
      </trkpt>
      <trkpt lat="47.29855" lon="6.22251">
        <ele>203.39999389648</ele>
        <time>2017-07-23T06:40:01Z</time>
      </trkpt>
      <trkpt lat="47.29875" lon="6.22169">
        <ele>203</ele>
        <time>2017-07-23T06:40:10Z</time>
      </trkpt>
      <trkpt lat="47.29878" lon="6.22161">
        <ele>202.80000305176</ele>
        <time>2017-07-23T06:40:11Z</time>
      </trkpt>
      <trkpt lat="47.29882" lon="6.22153">
        <ele>202.80000305176</ele>
        <time>2017-07-23T06:40:12Z</time>
      </trkpt>
      <trkpt lat="47.29892" lon="6.22144">
        <ele>202.60000610352</ele>
        <time>2017-07-23T06:40:14Z</time>
      </trkpt>
      <trkpt lat="47.299" lon="6.2213">
        <ele>202.60000610352</ele>
        <time>2017-07-23T06:40:17Z</time>
      </trkpt>
      <trkpt lat="47.29901" lon="6.22124">
        <ele>202.60000610352</ele>
        <time>2017-07-23T06:40:18Z</time>
      </trkpt>
      <trkpt lat="47.29904" lon="6.22117">
        <ele>202.60000610352</ele>
        <time>2017-07-23T06:40:19Z</time>
      </trkpt>
      <trkpt lat="47.29911" lon="6.22106">
        <ele>202.60000610352</ele>
        <time>2017-07-23T06:40:21Z</time>
      </trkpt>
      <trkpt lat="47.29918" lon="6.22094">
        <ele>202.80000305176</ele>
        <time>2017-07-23T06:40:23Z</time>
      </trkpt>
      <trkpt lat="47.29928" lon="6.22073">
        <ele>202.80000305176</ele>
        <time>2017-07-23T06:40:26Z</time>
      </trkpt>
      <trkpt lat="47.29968" lon="6.22006">
        <ele>202.60000610352</ele>
        <time>2017-07-23T06:40:36Z</time>
      </trkpt>
      <trkpt lat="47.29985" lon="6.21986">
        <ele>202.60000610352</ele>
        <time>2017-07-23T06:40:40Z</time>
      </trkpt>
      <trkpt lat="47.2999" lon="6.21983">
        <ele>202.39999389648</ele>
        <time>2017-07-23T06:40:41Z</time>
      </trkpt>
      <trkpt lat="47.30004" lon="6.21968">
        <ele>202.19999694824</ele>
        <time>2017-07-23T06:40:44Z</time>
      </trkpt>
      <trkpt lat="47.30011" lon="6.21955">
        <ele>202</ele>
        <time>2017-07-23T06:40:46Z</time>
      </trkpt>
      <trkpt lat="47.30021" lon="6.21934">
        <ele>202</ele>
        <time>2017-07-23T06:40:49Z</time>
      </trkpt>
      <trkpt lat="47.3004" lon="6.21903">
        <ele>202</ele>
        <time>2017-07-23T06:40:54Z</time>
      </trkpt>
      <trkpt lat="47.3007" lon="6.21854">
        <ele>202.19999694824</ele>
        <time>2017-07-23T06:41:02Z</time>
      </trkpt>
      <trkpt lat="47.30096" lon="6.2181">
        <ele>202</ele>
        <time>2017-07-23T06:41:09Z</time>
      </trkpt>
      <trkpt lat="47.30115" lon="6.21778">
        <ele>201.80000305176</ele>
        <time>2017-07-23T06:41:14Z</time>
      </trkpt>
      <trkpt lat="47.30122" lon="6.21764">
        <ele>201.80000305176</ele>
        <time>2017-07-23T06:41:16Z</time>
      </trkpt>
      <trkpt lat="47.30151" lon="6.2171">
        <ele>202</ele>
        <time>2017-07-23T06:41:24Z</time>
      </trkpt>
      <trkpt lat="47.30176" lon="6.21677">
        <ele>202.39999389648</ele>
        <time>2017-07-23T06:41:30Z</time>
      </trkpt>
      <trkpt lat="47.30211" lon="6.21627">
        <ele>202.60000610352</ele>
        <time>2017-07-23T06:41:38Z</time>
      </trkpt>
      <trkpt lat="47.30242" lon="6.21585">
        <ele>202.19999694824</ele>
        <time>2017-07-23T06:41:45Z</time>
      </trkpt>
      <trkpt lat="47.30246" lon="6.21579">
        <ele>202</ele>
        <time>2017-07-23T06:41:46Z</time>
      </trkpt>
      <trkpt lat="47.30256" lon="6.21558">
        <ele>201.80000305176</ele>
        <time>2017-07-23T06:41:49Z</time>
      </trkpt>
      <trkpt lat="47.30259" lon="6.21551">
        <ele>201.60000610352</ele>
        <time>2017-07-23T06:41:50Z</time>
      </trkpt>
      <trkpt lat="47.30273" lon="6.21512">
        <ele>201.39999389648</ele>
        <time>2017-07-23T06:41:55Z</time>
      </trkpt>
      <trkpt lat="47.30282" lon="6.21497">
        <ele>201.39999389648</ele>
        <time>2017-07-23T06:41:57Z</time>
      </trkpt>
      <trkpt lat="47.30315" lon="6.21445">
        <ele>201.19999694824</ele>
        <time>2017-07-23T06:42:04Z</time>
      </trkpt>
      <trkpt lat="47.30323" lon="6.21429">
        <ele>201.19999694824</ele>
        <time>2017-07-23T06:42:06Z</time>
      </trkpt>
      <trkpt lat="47.30332" lon="6.21402">
        <ele>201.19999694824</ele>
        <time>2017-07-23T06:42:09Z</time>
      </trkpt>
      <trkpt lat="47.3034" lon="6.21354">
        <ele>201</ele>
        <time>2017-07-23T06:42:14Z</time>
      </trkpt>
      <trkpt lat="47.30352" lon="6.21276">
        <ele>201.39999389648</ele>
        <time>2017-07-23T06:42:22Z</time>
      </trkpt>
      <trkpt lat="47.30365" lon="6.2122">
        <ele>201.60000610352</ele>
        <time>2017-07-23T06:42:28Z</time>
      </trkpt>
      <trkpt lat="47.3038" lon="6.21145">
        <ele>201.60000610352</ele>
        <time>2017-07-23T06:42:36Z</time>
      </trkpt>
      <trkpt lat="47.30392" lon="6.21059">
        <ele>201.39999389648</ele>
        <time>2017-07-23T06:42:45Z</time>
      </trkpt>
      <trkpt lat="47.30393" lon="6.2105">
        <ele>201.39999389648</ele>
        <time>2017-07-23T06:42:46Z</time>
      </trkpt>
      <trkpt lat="47.30391" lon="6.20995">
        <ele>201.39999389648</ele>
        <time>2017-07-23T06:42:52Z</time>
      </trkpt>
      <trkpt lat="47.30386" lon="6.20923">
        <ele>201.39999389648</ele>
        <time>2017-07-23T06:43:00Z</time>
      </trkpt>
      <trkpt lat="47.30384" lon="6.20915">
        <ele>201.39999389648</ele>
        <time>2017-07-23T06:43:01Z</time>
      </trkpt>
      <trkpt lat="47.30369" lon="6.2086">
        <ele>201.80000305176</ele>
        <time>2017-07-23T06:43:08Z</time>
      </trkpt>
      <trkpt lat="47.30351" lon="6.20816">
        <ele>201.80000305176</ele>
        <time>2017-07-23T06:43:14Z</time>
      </trkpt>
      <trkpt lat="47.30328" lon="6.2077">
        <ele>202</ele>
        <time>2017-07-23T06:43:21Z</time>
      </trkpt>
      <trkpt lat="47.30314" lon="6.20752">
        <ele>202.80000305176</ele>
        <time>2017-07-23T06:43:25Z</time>
      </trkpt>
      <trkpt lat="47.30311" lon="6.20748">
        <ele>203.19999694824</ele>
        <time>2017-07-23T06:43:26Z</time>
      </trkpt>
      <trkpt lat="47.30303" lon="6.20741">
        <ele>203.80000305176</ele>
        <time>2017-07-23T06:43:28Z</time>
      </trkpt>
      <trkpt lat="47.30296" lon="6.20733">
        <ele>204.39999389648</ele>
        <time>2017-07-23T06:43:30Z</time>
      </trkpt>
      <trkpt lat="47.30276" lon="6.20714">
        <ele>205.39999389648</ele>
        <time>2017-07-23T06:43:36Z</time>
      </trkpt>
      <trkpt lat="47.30272" lon="6.2071">
        <ele>205.39999389648</ele>
        <time>2017-07-23T06:43:37Z</time>
      </trkpt>
      <trkpt lat="47.30246" lon="6.20688">
        <ele>206.39999389648</ele>
        <time>2017-07-23T06:43:43Z</time>
      </trkpt>
      <trkpt lat="47.30237" lon="6.20681">
        <ele>207</ele>
        <time>2017-07-23T06:43:45Z</time>
      </trkpt>
      <trkpt lat="47.30223" lon="6.20671">
        <ele>207.60000610352</ele>
        <time>2017-07-23T06:43:48Z</time>
      </trkpt>
      <trkpt lat="47.30214" lon="6.20663">
        <ele>208</ele>
        <time>2017-07-23T06:43:50Z</time>
      </trkpt>
      <trkpt lat="47.30205" lon="6.20656">
        <ele>208.39999389648</ele>
        <time>2017-07-23T06:43:52Z</time>
      </trkpt>
      <trkpt lat="47.30169" lon="6.20635">
        <ele>208</ele>
        <time>2017-07-23T06:43:58Z</time>
      </trkpt>
      <trkpt lat="47.30138" lon="6.20623">
        <ele>206.39999389648</ele>
        <time>2017-07-23T06:44:02Z</time>
      </trkpt>
      <trkpt lat="47.3013" lon="6.20619">
        <ele>206</ele>
        <time>2017-07-23T06:44:03Z</time>
      </trkpt>
      <trkpt lat="47.30122" lon="6.20616">
        <ele>205.39999389648</ele>
        <time>2017-07-23T06:44:04Z</time>
      </trkpt>
      <trkpt lat="47.30099" lon="6.20607">
        <ele>204.19999694824</ele>
        <time>2017-07-23T06:44:07Z</time>
      </trkpt>
      <trkpt lat="47.30077" lon="6.20596">
        <ele>203.19999694824</ele>
        <time>2017-07-23T06:44:10Z</time>
      </trkpt>
      <trkpt lat="47.3007" lon="6.20592">
        <ele>203</ele>
        <time>2017-07-23T06:44:11Z</time>
      </trkpt>
      <trkpt lat="47.30036" lon="6.20578">
        <ele>202.80000305176</ele>
        <time>2017-07-23T06:44:16Z</time>
      </trkpt>
      <trkpt lat="47.2999" lon="6.20563">
        <ele>202.80000305176</ele>
        <time>2017-07-23T06:44:23Z</time>
      </trkpt>
      <trkpt lat="47.29932" lon="6.20543">
        <ele>202.39999389648</ele>
        <time>2017-07-23T06:44:32Z</time>
      </trkpt>
      <trkpt lat="47.29926" lon="6.20541">
        <ele>202.39999389648</ele>
        <time>2017-07-23T06:44:33Z</time>
      </trkpt>
      <trkpt lat="47.29889" lon="6.20526">
        <ele>202</ele>
        <time>2017-07-23T06:44:39Z</time>
      </trkpt>
      <trkpt lat="47.29867" lon="6.20517">
        <ele>202</ele>
        <time>2017-07-23T06:44:43Z</time>
      </trkpt>
      <trkpt lat="47.29826" lon="6.205">
        <ele>202.80000305176</ele>
        <time>2017-07-23T06:44:51Z</time>
      </trkpt>
      <trkpt lat="47.29771" lon="6.20478">
        <ele>202.19999694824</ele>
        <time>2017-07-23T06:45:01Z</time>
      </trkpt>
      <trkpt lat="47.29727" lon="6.20464">
        <ele>201.80000305176</ele>
        <time>2017-07-23T06:45:09Z</time>
      </trkpt>
      <trkpt lat="47.29671" lon="6.20451">
        <ele>201.80000305176</ele>
        <time>2017-07-23T06:45:19Z</time>
      </trkpt>
      <trkpt lat="47.29616" lon="6.20441">
        <ele>201.60000610352</ele>
        <time>2017-07-23T06:45:29Z</time>
      </trkpt>
      <trkpt lat="47.29604" lon="6.20439">
        <ele>201.60000610352</ele>
        <time>2017-07-23T06:45:31Z</time>
      </trkpt>
      <trkpt lat="47.29587" lon="6.20436">
        <ele>201.39999389648</ele>
        <time>2017-07-23T06:45:34Z</time>
      </trkpt>
      <trkpt lat="47.29581" lon="6.20434">
        <ele>201.39999389648</ele>
        <time>2017-07-23T06:45:35Z</time>
      </trkpt>
      <trkpt lat="47.29557" lon="6.20427">
        <ele>201</ele>
        <time>2017-07-23T06:45:39Z</time>
      </trkpt>
      <trkpt lat="47.29551" lon="6.20425">
        <ele>200.80000305176</ele>
        <time>2017-07-23T06:45:40Z</time>
      </trkpt>
      <trkpt lat="47.29504" lon="6.20411">
        <ele>200.80000305176</ele>
        <time>2017-07-23T06:45:48Z</time>
      </trkpt>
      <trkpt lat="47.2947" lon="6.20399">
        <ele>200.60000610352</ele>
        <time>2017-07-23T06:45:54Z</time>
      </trkpt>
      <trkpt lat="47.29465" lon="6.20397">
        <ele>200.60000610352</ele>
        <time>2017-07-23T06:45:55Z</time>
      </trkpt>
      <trkpt lat="47.29418" lon="6.20379">
        <ele>200.60000610352</ele>
        <time>2017-07-23T06:46:03Z</time>
      </trkpt>
      <trkpt lat="47.2937" lon="6.20359">
        <ele>200.39999389648</ele>
        <time>2017-07-23T06:46:11Z</time>
      </trkpt>
      <trkpt lat="47.29324" lon="6.20336">
        <ele>200.39999389648</ele>
        <time>2017-07-23T06:46:19Z</time>
      </trkpt>
      <trkpt lat="47.29286" lon="6.20313">
        <ele>200.39999389648</ele>
        <time>2017-07-23T06:46:26Z</time>
      </trkpt>
      <trkpt lat="47.29259" lon="6.20295">
        <ele>200.39999389648</ele>
        <time>2017-07-23T06:46:32Z</time>
      </trkpt>
      <trkpt lat="47.29253" lon="6.20293">
        <ele>201</ele>
        <time>2017-07-23T06:46:35Z</time>
      </trkpt>
      <trkpt lat="47.29251" lon="6.20295">
        <ele>201.39999389648</ele>
        <time>2017-07-23T06:46:36Z</time>
      </trkpt>
      <trkpt lat="47.29249" lon="6.20302">
        <ele>202</ele>
        <time>2017-07-23T06:46:38Z</time>
      </trkpt>
      <trkpt lat="47.29247" lon="6.2031">
        <ele>202.39999389648</ele>
        <time>2017-07-23T06:46:40Z</time>
      </trkpt>
      <trkpt lat="47.29245" lon="6.20318">
        <ele>202.60000610352</ele>
        <time>2017-07-23T06:46:42Z</time>
      </trkpt>
      <trkpt lat="47.29235" lon="6.20325">
        <ele>202.80000305176</ele>
        <time>2017-07-23T06:46:45Z</time>
      </trkpt>
      <trkpt lat="47.29221" lon="6.20313">
        <ele>202.60000610352</ele>
        <time>2017-07-23T06:46:48Z</time>
      </trkpt>
      <trkpt lat="47.29216" lon="6.20309">
        <ele>202.39999389648</ele>
        <time>2017-07-23T06:46:49Z</time>
      </trkpt>
      <trkpt lat="47.29191" lon="6.20292">
        <ele>201</ele>
        <time>2017-07-23T06:46:54Z</time>
      </trkpt>
      <trkpt lat="47.29186" lon="6.20289">
        <ele>201</ele>
        <time>2017-07-23T06:46:55Z</time>
      </trkpt>
      <trkpt lat="47.29176" lon="6.2028">
        <ele>200.80000305176</ele>
        <time>2017-07-23T06:46:57Z</time>
      </trkpt>
      <trkpt lat="47.29161" lon="6.20268">
        <ele>200.60000610352</ele>
        <time>2017-07-23T06:47:00Z</time>
      </trkpt>
      <trkpt lat="47.2915" lon="6.20261">
        <ele>200.60000610352</ele>
        <time>2017-07-23T06:47:02Z</time>
      </trkpt>
      <trkpt lat="47.29139" lon="6.20261">
        <ele>200.39999389648</ele>
        <time>2017-07-23T06:47:04Z</time>
      </trkpt>
      <trkpt lat="47.29128" lon="6.20265">
        <ele>200.19999694824</ele>
        <time>2017-07-23T06:47:06Z</time>
      </trkpt>
      <trkpt lat="47.29111" lon="6.20266">
        <ele>199.80000305176</ele>
        <time>2017-07-23T06:47:09Z</time>
      </trkpt>
      <trkpt lat="47.29087" lon="6.20264">
        <ele>199.19999694824</ele>
        <time>2017-07-23T06:47:13Z</time>
      </trkpt>
      <trkpt lat="47.29082" lon="6.2026">
        <ele>199.19999694824</ele>
        <time>2017-07-23T06:47:14Z</time>
      </trkpt>
      <trkpt lat="47.2907" lon="6.20242">
        <ele>199.19999694824</ele>
        <time>2017-07-23T06:47:17Z</time>
      </trkpt>
      <trkpt lat="47.29065" lon="6.20236">
        <ele>199.19999694824</ele>
        <time>2017-07-23T06:47:18Z</time>
      </trkpt>
      <trkpt lat="47.29057" lon="6.20222">
        <ele>199.19999694824</ele>
        <time>2017-07-23T06:47:20Z</time>
      </trkpt>
      <trkpt lat="47.29052" lon="6.20204">
        <ele>199.19999694824</ele>
        <time>2017-07-23T06:47:22Z</time>
      </trkpt>
      <trkpt lat="47.29047" lon="6.20187">
        <ele>199.19999694824</ele>
        <time>2017-07-23T06:47:24Z</time>
      </trkpt>
      <trkpt lat="47.29037" lon="6.20165">
        <ele>199.19999694824</ele>
        <time>2017-07-23T06:47:27Z</time>
      </trkpt>
      <trkpt lat="47.29018" lon="6.20122">
        <ele>199.39999389648</ele>
        <time>2017-07-23T06:47:33Z</time>
      </trkpt>
      <trkpt lat="47.29005" lon="6.20083">
        <ele>200</ele>
        <time>2017-07-23T06:47:39Z</time>
      </trkpt>
      <trkpt lat="47.29006" lon="6.2006">
        <ele>200.19999694824</ele>
        <time>2017-07-23T06:47:42Z</time>
      </trkpt>
      <trkpt lat="47.28999" lon="6.20043">
        <ele>200.19999694824</ele>
        <time>2017-07-23T06:47:45Z</time>
      </trkpt>
      <trkpt lat="47.28988" lon="6.20017">
        <ele>200</ele>
        <time>2017-07-23T06:47:49Z</time>
      </trkpt>
      <trkpt lat="47.28964" lon="6.19949">
        <ele>200</ele>
        <time>2017-07-23T06:47:58Z</time>
      </trkpt>
      <trkpt lat="47.28951" lon="6.19894">
        <ele>200</ele>
        <time>2017-07-23T06:48:05Z</time>
      </trkpt>
      <trkpt lat="47.28939" lon="6.19836">
        <ele>200</ele>
        <time>2017-07-23T06:48:12Z</time>
      </trkpt>
      <trkpt lat="47.28931" lon="6.19777">
        <ele>200.19999694824</ele>
        <time>2017-07-23T06:48:19Z</time>
      </trkpt>
      <trkpt lat="47.28923" lon="6.19704">
        <ele>200</ele>
        <time>2017-07-23T06:48:28Z</time>
      </trkpt>
      <trkpt lat="47.28916" lon="6.19637">
        <ele>199.80000305176</ele>
        <time>2017-07-23T06:48:36Z</time>
      </trkpt>
      <trkpt lat="47.28913" lon="6.19577">
        <ele>199.80000305176</ele>
        <time>2017-07-23T06:48:43Z</time>
      </trkpt>
      <trkpt lat="47.28912" lon="6.19568">
        <ele>199.80000305176</ele>
        <time>2017-07-23T06:48:44Z</time>
      </trkpt>
      <trkpt lat="47.28908" lon="6.19522">
        <ele>199.80000305176</ele>
        <time>2017-07-23T06:48:49Z</time>
      </trkpt>
      <trkpt lat="47.28901" lon="6.19445">
        <ele>199.60000610352</ele>
        <time>2017-07-23T06:48:58Z</time>
      </trkpt>
      <trkpt lat="47.28893" lon="6.19363">
        <ele>199.39999389648</ele>
        <time>2017-07-23T06:49:07Z</time>
      </trkpt>
      <trkpt lat="47.28888" lon="6.19284">
        <ele>199.19999694824</ele>
        <time>2017-07-23T06:49:16Z</time>
      </trkpt>
      <trkpt lat="47.28887" lon="6.19275">
        <ele>199.19999694824</ele>
        <time>2017-07-23T06:49:17Z</time>
      </trkpt>
      <trkpt lat="47.28883" lon="6.19191">
        <ele>199.39999389648</ele>
        <time>2017-07-23T06:49:27Z</time>
      </trkpt>
      <trkpt lat="47.28881" lon="6.1912">
        <ele>199.19999694824</ele>
        <time>2017-07-23T06:49:35Z</time>
      </trkpt>
      <trkpt lat="47.28883" lon="6.19041">
        <ele>199.19999694824</ele>
        <time>2017-07-23T06:49:44Z</time>
      </trkpt>
      <trkpt lat="47.28888" lon="6.18973">
        <ele>199.39999389648</ele>
        <time>2017-07-23T06:49:52Z</time>
      </trkpt>
      <trkpt lat="47.28894" lon="6.18913">
        <ele>199.19999694824</ele>
        <time>2017-07-23T06:49:59Z</time>
      </trkpt>
      <trkpt lat="47.28895" lon="6.18905">
        <ele>199.19999694824</ele>
        <time>2017-07-23T06:50:00Z</time>
      </trkpt>
      <trkpt lat="47.28904" lon="6.18855">
        <ele>199</ele>
        <time>2017-07-23T06:50:06Z</time>
      </trkpt>
      <trkpt lat="47.28916" lon="6.18797">
        <ele>199.19999694824</ele>
        <time>2017-07-23T06:50:13Z</time>
      </trkpt>
      <trkpt lat="47.2893" lon="6.18732">
        <ele>199</ele>
        <time>2017-07-23T06:50:21Z</time>
      </trkpt>
      <trkpt lat="47.28945" lon="6.18668">
        <ele>199.19999694824</ele>
        <time>2017-07-23T06:50:29Z</time>
      </trkpt>
      <trkpt lat="47.2896" lon="6.18607">
        <ele>199.19999694824</ele>
        <time>2017-07-23T06:50:37Z</time>
      </trkpt>
      <trkpt lat="47.28979" lon="6.18537">
        <ele>199.19999694824</ele>
        <time>2017-07-23T06:50:46Z</time>
      </trkpt>
      <trkpt lat="47.2899" lon="6.18489">
        <ele>199</ele>
        <time>2017-07-23T06:50:52Z</time>
      </trkpt>
      <trkpt lat="47.28993" lon="6.18482">
        <ele>199</ele>
        <time>2017-07-23T06:50:53Z</time>
      </trkpt>
      <trkpt lat="47.29009" lon="6.18426">
        <ele>198.80000305176</ele>
        <time>2017-07-23T06:51:00Z</time>
      </trkpt>
      <trkpt lat="47.29022" lon="6.1838">
        <ele>198.80000305176</ele>
        <time>2017-07-23T06:51:06Z</time>
      </trkpt>
      <trkpt lat="47.29024" lon="6.18372">
        <ele>198.80000305176</ele>
        <time>2017-07-23T06:51:07Z</time>
      </trkpt>
      <trkpt lat="47.29043" lon="6.18298">
        <ele>199</ele>
        <time>2017-07-23T06:51:16Z</time>
      </trkpt>
      <trkpt lat="47.29061" lon="6.18223">
        <ele>199.39999389648</ele>
        <time>2017-07-23T06:51:25Z</time>
      </trkpt>
      <trkpt lat="47.2907" lon="6.18172">
        <ele>199.39999389648</ele>
        <time>2017-07-23T06:51:31Z</time>
      </trkpt>
      <trkpt lat="47.29078" lon="6.18109">
        <ele>199.19999694824</ele>
        <time>2017-07-23T06:51:38Z</time>
      </trkpt>
      <trkpt lat="47.2908" lon="6.18083">
        <ele>199.19999694824</ele>
        <time>2017-07-23T06:51:41Z</time>
      </trkpt>
      <trkpt lat="47.29082" lon="6.18058">
        <ele>199.19999694824</ele>
        <time>2017-07-23T06:51:44Z</time>
      </trkpt>
      <trkpt lat="47.2908" lon="6.18009">
        <ele>199.39999389648</ele>
        <time>2017-07-23T06:51:50Z</time>
      </trkpt>
      <trkpt lat="47.29077" lon="6.17946">
        <ele>199.19999694824</ele>
        <time>2017-07-23T06:51:58Z</time>
      </trkpt>
      <trkpt lat="47.2907" lon="6.17889">
        <ele>199.39999389648</ele>
        <time>2017-07-23T06:52:05Z</time>
      </trkpt>
      <trkpt lat="47.29059" lon="6.17813">
        <ele>199.60000610352</ele>
        <time>2017-07-23T06:52:14Z</time>
      </trkpt>
      <trkpt lat="47.2905" lon="6.17752">
        <ele>199.39999389648</ele>
        <time>2017-07-23T06:52:21Z</time>
      </trkpt>
      <trkpt lat="47.29037" lon="6.17685">
        <ele>199.39999389648</ele>
        <time>2017-07-23T06:52:29Z</time>
      </trkpt>
      <trkpt lat="47.29022" lon="6.17629">
        <ele>199.39999389648</ele>
        <time>2017-07-23T06:52:36Z</time>
      </trkpt>
      <trkpt lat="47.29004" lon="6.17579">
        <ele>199.19999694824</ele>
        <time>2017-07-23T06:52:43Z</time>
      </trkpt>
      <trkpt lat="47.29006" lon="6.17574">
        <ele>199</ele>
        <time>2017-07-23T06:52:44Z</time>
      </trkpt>
      <trkpt lat="47.29015" lon="6.17564">
        <ele>199.19999694824</ele>
        <time>2017-07-23T06:52:47Z</time>
      </trkpt>
      <trkpt lat="47.29016" lon="6.17549">
        <ele>199.39999389648</ele>
        <time>2017-07-23T06:52:49Z</time>
      </trkpt>
      <trkpt lat="47.29004" lon="6.17526">
        <ele>198.80000305176</ele>
        <time>2017-07-23T06:52:52Z</time>
      </trkpt>
      <trkpt lat="47.28994" lon="6.17511">
        <ele>198</ele>
        <time>2017-07-23T06:52:54Z</time>
      </trkpt>
      <trkpt lat="47.28989" lon="6.17503">
        <ele>197.60000610352</ele>
        <time>2017-07-23T06:52:55Z</time>
      </trkpt>
      <trkpt lat="47.28985" lon="6.17495">
        <ele>197.19999694824</ele>
        <time>2017-07-23T06:52:56Z</time>
      </trkpt>
      <trkpt lat="47.28981" lon="6.17486">
        <ele>196.80000305176</ele>
        <time>2017-07-23T06:52:57Z</time>
      </trkpt>
      <trkpt lat="47.28973" lon="6.17459">
        <ele>196.60000610352</ele>
        <time>2017-07-23T06:53:00Z</time>
      </trkpt>
      <trkpt lat="47.28971" lon="6.1744">
        <ele>196.60000610352</ele>
        <time>2017-07-23T06:53:02Z</time>
      </trkpt>
      <trkpt lat="47.28966" lon="6.17384">
        <ele>196.60000610352</ele>
        <time>2017-07-23T06:53:08Z</time>
      </trkpt>
      <trkpt lat="47.28962" lon="6.17321">
        <ele>196.39999389648</ele>
        <time>2017-07-23T06:53:15Z</time>
      </trkpt>
      <trkpt lat="47.28955" lon="6.17238">
        <ele>196.39999389648</ele>
        <time>2017-07-23T06:53:24Z</time>
      </trkpt>
      <trkpt lat="47.2895" lon="6.17157">
        <ele>196.19999694824</ele>
        <time>2017-07-23T06:53:33Z</time>
      </trkpt>
      <trkpt lat="47.28945" lon="6.17097">
        <ele>196.19999694824</ele>
        <time>2017-07-23T06:53:40Z</time>
      </trkpt>
      <trkpt lat="47.2894" lon="6.17046">
        <ele>196</ele>
        <time>2017-07-23T06:53:46Z</time>
      </trkpt>
      <trkpt lat="47.28934" lon="6.1697">
        <ele>195.80000305176</ele>
        <time>2017-07-23T06:53:55Z</time>
      </trkpt>
      <trkpt lat="47.28927" lon="6.16883">
        <ele>196.19999694824</ele>
        <time>2017-07-23T06:54:05Z</time>
      </trkpt>
      <trkpt lat="47.28926" lon="6.16874">
        <ele>196.19999694824</ele>
        <time>2017-07-23T06:54:06Z</time>
      </trkpt>
      <trkpt lat="47.28921" lon="6.16792">
        <ele>195.80000305176</ele>
        <time>2017-07-23T06:54:15Z</time>
      </trkpt>
      <trkpt lat="47.28919" lon="6.16774">
        <ele>195.80000305176</ele>
        <time>2017-07-23T06:54:17Z</time>
      </trkpt>
      <trkpt lat="47.28917" lon="6.16704">
        <ele>196</ele>
        <time>2017-07-23T06:54:25Z</time>
      </trkpt>
      <trkpt lat="47.28915" lon="6.16632">
        <ele>196</ele>
        <time>2017-07-23T06:54:33Z</time>
      </trkpt>
      <trkpt lat="47.2891" lon="6.16569">
        <ele>196</ele>
        <time>2017-07-23T06:54:40Z</time>
      </trkpt>
      <trkpt lat="47.28905" lon="6.16485">
        <ele>195.60000610352</ele>
        <time>2017-07-23T06:54:49Z</time>
      </trkpt>
      <trkpt lat="47.28904" lon="6.16476">
        <ele>195.60000610352</ele>
        <time>2017-07-23T06:54:50Z</time>
      </trkpt>
      <trkpt lat="47.28897" lon="6.16396">
        <ele>195.60000610352</ele>
        <time>2017-07-23T06:54:59Z</time>
      </trkpt>
      <trkpt lat="47.28896" lon="6.16387">
        <ele>195.60000610352</ele>
        <time>2017-07-23T06:55:00Z</time>
      </trkpt>
      <trkpt lat="47.2889" lon="6.16324">
        <ele>195.39999389648</ele>
        <time>2017-07-23T06:55:07Z</time>
      </trkpt>
      <trkpt lat="47.28881" lon="6.16244">
        <ele>195.19999694824</ele>
        <time>2017-07-23T06:55:16Z</time>
      </trkpt>
      <trkpt lat="47.2887" lon="6.16173">
        <ele>195.19999694824</ele>
        <time>2017-07-23T06:55:24Z</time>
      </trkpt>
      <trkpt lat="47.28863" lon="6.16121">
        <ele>195.19999694824</ele>
        <time>2017-07-23T06:55:30Z</time>
      </trkpt>
      <trkpt lat="47.28856" lon="6.16043">
        <ele>195.39999389648</ele>
        <time>2017-07-23T06:55:39Z</time>
      </trkpt>
      <trkpt lat="47.28855" lon="6.16034">
        <ele>195.39999389648</ele>
        <time>2017-07-23T06:55:40Z</time>
      </trkpt>
      <trkpt lat="47.2885" lon="6.15991">
        <ele>195.60000610352</ele>
        <time>2017-07-23T06:55:45Z</time>
      </trkpt>
      <trkpt lat="47.2884" lon="6.15912">
        <ele>195.60000610352</ele>
        <time>2017-07-23T06:55:54Z</time>
      </trkpt>
      <trkpt lat="47.28832" lon="6.1586">
        <ele>195.60000610352</ele>
        <time>2017-07-23T06:56:00Z</time>
      </trkpt>
      <trkpt lat="47.28825" lon="6.15799">
        <ele>195.60000610352</ele>
        <time>2017-07-23T06:56:07Z</time>
      </trkpt>
      <trkpt lat="47.28816" lon="6.1574">
        <ele>195.80000305176</ele>
        <time>2017-07-23T06:56:14Z</time>
      </trkpt>
      <trkpt lat="47.28808" lon="6.15689">
        <ele>196</ele>
        <time>2017-07-23T06:56:20Z</time>
      </trkpt>
      <trkpt lat="47.28806" lon="6.15681">
        <ele>196</ele>
        <time>2017-07-23T06:56:21Z</time>
      </trkpt>
      <trkpt lat="47.28792" lon="6.15607">
        <ele>196.19999694824</ele>
        <time>2017-07-23T06:56:30Z</time>
      </trkpt>
      <trkpt lat="47.28775" lon="6.15529">
        <ele>196</ele>
        <time>2017-07-23T06:56:39Z</time>
      </trkpt>
      <trkpt lat="47.28762" lon="6.1547">
        <ele>196</ele>
        <time>2017-07-23T06:56:46Z</time>
      </trkpt>
      <trkpt lat="47.28749" lon="6.15399">
        <ele>195.80000305176</ele>
        <time>2017-07-23T06:56:54Z</time>
      </trkpt>
      <trkpt lat="47.28744" lon="6.15373">
        <ele>195.80000305176</ele>
        <time>2017-07-23T06:56:57Z</time>
      </trkpt>
      <trkpt lat="47.28737" lon="6.15337">
        <ele>195.39999389648</ele>
        <time>2017-07-23T06:57:01Z</time>
      </trkpt>
      <trkpt lat="47.28726" lon="6.15279">
        <ele>195.39999389648</ele>
        <time>2017-07-23T06:57:08Z</time>
      </trkpt>
      <trkpt lat="47.28714" lon="6.1523">
        <ele>195.39999389648</ele>
        <time>2017-07-23T06:57:14Z</time>
      </trkpt>
      <trkpt lat="47.287" lon="6.15174">
        <ele>195.60000610352</ele>
        <time>2017-07-23T06:57:21Z</time>
      </trkpt>
      <trkpt lat="47.28694" lon="6.15159">
        <ele>195.39999389648</ele>
        <time>2017-07-23T06:57:23Z</time>
      </trkpt>
      <trkpt lat="47.28676" lon="6.15105">
        <ele>195.39999389648</ele>
        <time>2017-07-23T06:57:30Z</time>
      </trkpt>
      <trkpt lat="47.28671" lon="6.15089">
        <ele>195.39999389648</ele>
        <time>2017-07-23T06:57:32Z</time>
      </trkpt>
      <trkpt lat="47.28662" lon="6.15057">
        <ele>195.39999389648</ele>
        <time>2017-07-23T06:57:36Z</time>
      </trkpt>
      <trkpt lat="47.28641" lon="6.14998">
        <ele>195.39999389648</ele>
        <time>2017-07-23T06:57:44Z</time>
      </trkpt>
      <trkpt lat="47.28616" lon="6.14939">
        <ele>195.19999694824</ele>
        <time>2017-07-23T06:57:52Z</time>
      </trkpt>
      <trkpt lat="47.28593" lon="6.14886">
        <ele>195.19999694824</ele>
        <time>2017-07-23T06:57:59Z</time>
      </trkpt>
      <trkpt lat="47.2857" lon="6.14821">
        <ele>195</ele>
        <time>2017-07-23T06:58:07Z</time>
      </trkpt>
      <trkpt lat="47.28552" lon="6.14771">
        <ele>194.39999389648</ele>
        <time>2017-07-23T06:58:13Z</time>
      </trkpt>
      <trkpt lat="47.28547" lon="6.14755">
        <ele>194.39999389648</ele>
        <time>2017-07-23T06:58:15Z</time>
      </trkpt>
      <trkpt lat="47.2853" lon="6.14701">
        <ele>194.39999389648</ele>
        <time>2017-07-23T06:58:22Z</time>
      </trkpt>
      <trkpt lat="47.28529" lon="6.14694">
        <ele>194.39999389648</ele>
        <time>2017-07-23T06:58:23Z</time>
      </trkpt>
      <trkpt lat="47.28523" lon="6.14665">
        <ele>194.39999389648</ele>
        <time>2017-07-23T06:58:28Z</time>
      </trkpt>
      <trkpt lat="47.28519" lon="6.14646">
        <ele>194.60000610352</ele>
        <time>2017-07-23T06:58:31Z</time>
      </trkpt>
      <trkpt lat="47.28517" lon="6.14632">
        <ele>194.60000610352</ele>
        <time>2017-07-23T06:58:33Z</time>
      </trkpt>
      <trkpt lat="47.28516" lon="6.14625">
        <ele>194.60000610352</ele>
        <time>2017-07-23T06:58:34Z</time>
      </trkpt>
      <trkpt lat="47.28515" lon="6.14618">
        <ele>194.80000305176</ele>
        <time>2017-07-23T06:58:35Z</time>
      </trkpt>
      <trkpt lat="47.2851" lon="6.14595">
        <ele>194.80000305176</ele>
        <time>2017-07-23T06:58:38Z</time>
      </trkpt>
      <trkpt lat="47.2851" lon="6.14587">
        <ele>194.80000305176</ele>
        <time>2017-07-23T06:58:39Z</time>
      </trkpt>
      <trkpt lat="47.285" lon="6.14537">
        <ele>194.60000610352</ele>
        <time>2017-07-23T06:58:45Z</time>
      </trkpt>
      <trkpt lat="47.2849" lon="6.14474">
        <ele>194.39999389648</ele>
        <time>2017-07-23T06:58:52Z</time>
      </trkpt>
      <trkpt lat="47.28484" lon="6.14393">
        <ele>194.19999694824</ele>
        <time>2017-07-23T06:59:01Z</time>
      </trkpt>
      <trkpt lat="47.28479" lon="6.14312">
        <ele>194.39999389648</ele>
        <time>2017-07-23T06:59:10Z</time>
      </trkpt>
      <trkpt lat="47.28473" lon="6.14239">
        <ele>194.39999389648</ele>
        <time>2017-07-23T06:59:18Z</time>
      </trkpt>
      <trkpt lat="47.28468" lon="6.14178">
        <ele>194.19999694824</ele>
        <time>2017-07-23T06:59:25Z</time>
      </trkpt>
      <trkpt lat="47.2846" lon="6.14114">
        <ele>194.39999389648</ele>
        <time>2017-07-23T06:59:33Z</time>
      </trkpt>
      <trkpt lat="47.28458" lon="6.14057">
        <ele>194.19999694824</ele>
        <time>2017-07-23T06:59:40Z</time>
      </trkpt>
      <trkpt lat="47.28452" lon="6.13999">
        <ele>194.39999389648</ele>
        <time>2017-07-23T06:59:47Z</time>
      </trkpt>
      <trkpt lat="47.28445" lon="6.13946">
        <ele>194.60000610352</ele>
        <time>2017-07-23T06:59:54Z</time>
      </trkpt>
      <trkpt lat="47.28441" lon="6.13932">
        <ele>194.60000610352</ele>
        <time>2017-07-23T06:59:56Z</time>
      </trkpt>
      <trkpt lat="47.28434" lon="6.13911">
        <ele>195.39999389648</ele>
        <time>2017-07-23T06:59:59Z</time>
      </trkpt>
      <trkpt lat="47.28431" lon="6.13905">
        <ele>195.60000610352</ele>
        <time>2017-07-23T07:00:00Z</time>
      </trkpt>
      <trkpt lat="47.28428" lon="6.13898">
        <ele>195.80000305176</ele>
        <time>2017-07-23T07:00:01Z</time>
      </trkpt>
      <trkpt lat="47.28415" lon="6.1388">
        <ele>196</ele>
        <time>2017-07-23T07:00:04Z</time>
      </trkpt>
      <trkpt lat="47.28381" lon="6.13832">
        <ele>195.80000305176</ele>
        <time>2017-07-23T07:00:12Z</time>
      </trkpt>
      <trkpt lat="47.28343" lon="6.13775">
        <ele>195.60000610352</ele>
        <time>2017-07-23T07:00:21Z</time>
      </trkpt>
      <trkpt lat="47.28321" lon="6.13744">
        <ele>195.60000610352</ele>
        <time>2017-07-23T07:00:26Z</time>
      </trkpt>
      <trkpt lat="47.28317" lon="6.13737">
        <ele>195.60000610352</ele>
        <time>2017-07-23T07:00:27Z</time>
      </trkpt>
      <trkpt lat="47.28296" lon="6.13705">
        <ele>195.60000610352</ele>
        <time>2017-07-23T07:00:32Z</time>
      </trkpt>
      <trkpt lat="47.28287" lon="6.13693">
        <ele>195.60000610352</ele>
        <time>2017-07-23T07:00:34Z</time>
      </trkpt>
      <trkpt lat="47.28278" lon="6.1368">
        <ele>195.80000305176</ele>
        <time>2017-07-23T07:00:36Z</time>
      </trkpt>
      <trkpt lat="47.28256" lon="6.13648">
        <ele>195.60000610352</ele>
        <time>2017-07-23T07:00:41Z</time>
      </trkpt>
      <trkpt lat="47.28227" lon="6.13599">
        <ele>195.39999389648</ele>
        <time>2017-07-23T07:00:48Z</time>
      </trkpt>
      <trkpt lat="47.28208" lon="6.13557">
        <ele>195.39999389648</ele>
        <time>2017-07-23T07:00:54Z</time>
      </trkpt>
      <trkpt lat="47.28189" lon="6.13492">
        <ele>195.60000610352</ele>
        <time>2017-07-23T07:01:02Z</time>
      </trkpt>
      <trkpt lat="47.2818" lon="6.13448">
        <ele>195.60000610352</ele>
        <time>2017-07-23T07:01:08Z</time>
      </trkpt>
      <trkpt lat="47.2817" lon="6.13388">
        <ele>196.19999694824</ele>
        <time>2017-07-23T07:01:15Z</time>
      </trkpt>
      <trkpt lat="47.28158" lon="6.13312">
        <ele>195.19999694824</ele>
        <time>2017-07-23T07:01:23Z</time>
      </trkpt>
      <trkpt lat="47.28149" lon="6.13259">
        <ele>195</ele>
        <time>2017-07-23T07:01:29Z</time>
      </trkpt>
      <trkpt lat="47.28141" lon="6.13206">
        <ele>195</ele>
        <time>2017-07-23T07:01:35Z</time>
      </trkpt>
      <trkpt lat="47.28129" lon="6.13143">
        <ele>195</ele>
        <time>2017-07-23T07:01:42Z</time>
      </trkpt>
      <trkpt lat="47.28118" lon="6.13079">
        <ele>195</ele>
        <time>2017-07-23T07:01:49Z</time>
      </trkpt>
      <trkpt lat="47.2811" lon="6.13006">
        <ele>194.60000610352</ele>
        <time>2017-07-23T07:01:57Z</time>
      </trkpt>
      <trkpt lat="47.28104" lon="6.12934">
        <ele>194.60000610352</ele>
        <time>2017-07-23T07:02:05Z</time>
      </trkpt>
      <trkpt lat="47.28098" lon="6.12865">
        <ele>194.60000610352</ele>
        <time>2017-07-23T07:02:13Z</time>
      </trkpt>
      <trkpt lat="47.28097" lon="6.12857">
        <ele>194.60000610352</ele>
        <time>2017-07-23T07:02:14Z</time>
      </trkpt>
      <trkpt lat="47.28091" lon="6.12788">
        <ele>194.60000610352</ele>
        <time>2017-07-23T07:02:22Z</time>
      </trkpt>
      <trkpt lat="47.28084" lon="6.12738">
        <ele>194.80000305176</ele>
        <time>2017-07-23T07:02:28Z</time>
      </trkpt>
      <trkpt lat="47.28082" lon="6.12715">
        <ele>194.80000305176</ele>
        <time>2017-07-23T07:02:32Z</time>
      </trkpt>
      <trkpt lat="47.28084" lon="6.12705">
        <ele>194.80000305176</ele>
        <time>2017-07-23T07:02:36Z</time>
      </trkpt>
      <trkpt lat="47.28082" lon="6.12703">
        <ele>195.19999694824</ele>
        <time>2017-07-23T07:03:22Z</time>
      </trkpt>
      <trkpt lat="47.2808" lon="6.127">
        <ele>195.19999694824</ele>
        <time>2017-07-23T07:03:23Z</time>
      </trkpt>
      <trkpt lat="47.28078" lon="6.12686">
        <ele>195.19999694824</ele>
        <time>2017-07-23T07:03:26Z</time>
      </trkpt>
      <trkpt lat="47.28077" lon="6.12681">
        <ele>195.19999694824</ele>
        <time>2017-07-23T07:03:27Z</time>
      </trkpt>
      <trkpt lat="47.28075" lon="6.12669">
        <ele>195.19999694824</ele>
        <time>2017-07-23T07:03:29Z</time>
      </trkpt>
      <trkpt lat="47.28073" lon="6.12648">
        <ele>195.19999694824</ele>
        <time>2017-07-23T07:03:32Z</time>
      </trkpt>
      <trkpt lat="47.28071" lon="6.12635">
        <ele>195.19999694824</ele>
        <time>2017-07-23T07:03:34Z</time>
      </trkpt>
      <trkpt lat="47.28068" lon="6.1262">
        <ele>195.19999694824</ele>
        <time>2017-07-23T07:03:36Z</time>
      </trkpt>
      <trkpt lat="47.28067" lon="6.12612">
        <ele>195.19999694824</ele>
        <time>2017-07-23T07:03:37Z</time>
      </trkpt>
      <trkpt lat="47.28064" lon="6.12596">
        <ele>195.19999694824</ele>
        <time>2017-07-23T07:03:39Z</time>
      </trkpt>
      <trkpt lat="47.28057" lon="6.12574">
        <ele>195.19999694824</ele>
        <time>2017-07-23T07:03:42Z</time>
      </trkpt>
      <trkpt lat="47.28051" lon="6.12558">
        <ele>195.19999694824</ele>
        <time>2017-07-23T07:03:44Z</time>
      </trkpt>
      <trkpt lat="47.28036" lon="6.12527">
        <ele>195.39999389648</ele>
        <time>2017-07-23T07:03:48Z</time>
      </trkpt>
      <trkpt lat="47.28007" lon="6.12475">
        <ele>195</ele>
        <time>2017-07-23T07:03:55Z</time>
      </trkpt>
      <trkpt lat="47.27987" lon="6.12438">
        <ele>194.80000305176</ele>
        <time>2017-07-23T07:04:00Z</time>
      </trkpt>
      <trkpt lat="47.27979" lon="6.12425">
        <ele>194.80000305176</ele>
        <time>2017-07-23T07:04:02Z</time>
      </trkpt>
      <trkpt lat="47.27946" lon="6.12368">
        <ele>194.80000305176</ele>
        <time>2017-07-23T07:04:10Z</time>
      </trkpt>
      <trkpt lat="47.27919" lon="6.12323">
        <ele>195</ele>
        <time>2017-07-23T07:04:17Z</time>
      </trkpt>
      <trkpt lat="47.2789" lon="6.12279">
        <ele>194.60000610352</ele>
        <time>2017-07-23T07:04:24Z</time>
      </trkpt>
      <trkpt lat="47.27851" lon="6.1222">
        <ele>194.60000610352</ele>
        <time>2017-07-23T07:04:33Z</time>
      </trkpt>
      <trkpt lat="47.27838" lon="6.122">
        <ele>194.80000305176</ele>
        <time>2017-07-23T07:04:36Z</time>
      </trkpt>
      <trkpt lat="47.27826" lon="6.1218">
        <ele>194.80000305176</ele>
        <time>2017-07-23T07:04:39Z</time>
      </trkpt>
      <trkpt lat="47.27792" lon="6.12142">
        <ele>194.80000305176</ele>
        <time>2017-07-23T07:04:46Z</time>
      </trkpt>
      <trkpt lat="47.27748" lon="6.121">
        <ele>194.80000305176</ele>
        <time>2017-07-23T07:04:54Z</time>
      </trkpt>
      <trkpt lat="47.2771" lon="6.12064">
        <ele>194.60000610352</ele>
        <time>2017-07-23T07:05:01Z</time>
      </trkpt>
      <trkpt lat="47.27668" lon="6.12017">
        <ele>194.19999694824</ele>
        <time>2017-07-23T07:05:09Z</time>
      </trkpt>
      <trkpt lat="47.27634" lon="6.11978">
        <ele>194</ele>
        <time>2017-07-23T07:05:16Z</time>
      </trkpt>
      <trkpt lat="47.27592" lon="6.11924">
        <ele>193.80000305176</ele>
        <time>2017-07-23T07:05:25Z</time>
      </trkpt>
      <trkpt lat="47.2755" lon="6.11871">
        <ele>193.80000305176</ele>
        <time>2017-07-23T07:05:34Z</time>
      </trkpt>
      <trkpt lat="47.27537" lon="6.11855">
        <ele>194</ele>
        <time>2017-07-23T07:05:37Z</time>
      </trkpt>
      <trkpt lat="47.27519" lon="6.11834">
        <ele>194</ele>
        <time>2017-07-23T07:05:41Z</time>
      </trkpt>
      <trkpt lat="47.27485" lon="6.11797">
        <ele>193.80000305176</ele>
        <time>2017-07-23T07:05:48Z</time>
      </trkpt>
      <trkpt lat="47.2744" lon="6.11751">
        <ele>193.60000610352</ele>
        <time>2017-07-23T07:05:57Z</time>
      </trkpt>
      <trkpt lat="47.27434" lon="6.1175">
        <ele>193.60000610352</ele>
        <time>2017-07-23T07:05:58Z</time>
      </trkpt>
      <trkpt lat="47.27423" lon="6.1175">
        <ele>193.60000610352</ele>
        <time>2017-07-23T07:06:00Z</time>
      </trkpt>
      <trkpt lat="47.27399" lon="6.11737">
        <ele>193.80000305176</ele>
        <time>2017-07-23T07:06:05Z</time>
      </trkpt>
      <trkpt lat="47.27363" lon="6.11703">
        <ele>194.80000305176</ele>
        <time>2017-07-23T07:06:13Z</time>
      </trkpt>
      <trkpt lat="47.27344" lon="6.11679">
        <ele>195</ele>
        <time>2017-07-23T07:06:19Z</time>
      </trkpt>
      <trkpt lat="47.27337" lon="6.1167">
        <ele>195</ele>
        <time>2017-07-23T07:06:21Z</time>
      </trkpt>
      <trkpt lat="47.27326" lon="6.11657">
        <ele>195</ele>
        <time>2017-07-23T07:06:24Z</time>
      </trkpt>
      <trkpt lat="47.27302" lon="6.1163">
        <ele>195.60000610352</ele>
        <time>2017-07-23T07:06:30Z</time>
      </trkpt>
      <trkpt lat="47.27297" lon="6.11625">
        <ele>195.80000305176</ele>
        <time>2017-07-23T07:06:31Z</time>
      </trkpt>
      <trkpt lat="47.27275" lon="6.11606">
        <ele>196</ele>
        <time>2017-07-23T07:06:37Z</time>
      </trkpt>
      <trkpt lat="47.27261" lon="6.11591">
        <ele>196.19999694824</ele>
        <time>2017-07-23T07:06:41Z</time>
      </trkpt>
      <trkpt lat="47.27257" lon="6.11587">
        <ele>196.39999389648</ele>
        <time>2017-07-23T07:06:42Z</time>
      </trkpt>
      <trkpt lat="47.27226" lon="6.11558">
        <ele>195</ele>
        <time>2017-07-23T07:06:49Z</time>
      </trkpt>
      <trkpt lat="47.27197" lon="6.11533">
        <ele>194.80000305176</ele>
        <time>2017-07-23T07:06:56Z</time>
      </trkpt>
      <trkpt lat="47.27164" lon="6.11501">
        <ele>194.80000305176</ele>
        <time>2017-07-23T07:07:04Z</time>
      </trkpt>
      <trkpt lat="47.27149" lon="6.11482">
        <ele>194.80000305176</ele>
        <time>2017-07-23T07:07:08Z</time>
      </trkpt>
      <trkpt lat="47.27141" lon="6.11472">
        <ele>194.80000305176</ele>
        <time>2017-07-23T07:07:10Z</time>
      </trkpt>
      <trkpt lat="47.27132" lon="6.11465">
        <ele>194.80000305176</ele>
        <time>2017-07-23T07:07:12Z</time>
      </trkpt>
      <trkpt lat="47.27129" lon="6.11459">
        <ele>194.80000305176</ele>
        <time>2017-07-23T07:07:13Z</time>
      </trkpt>
      <trkpt lat="47.2712" lon="6.1145">
        <ele>194.80000305176</ele>
        <time>2017-07-23T07:07:15Z</time>
      </trkpt>
      <trkpt lat="47.27095" lon="6.11417">
        <ele>194.80000305176</ele>
        <time>2017-07-23T07:07:21Z</time>
      </trkpt>
      <trkpt lat="47.27062" lon="6.11365">
        <ele>194.60000610352</ele>
        <time>2017-07-23T07:07:29Z</time>
      </trkpt>
      <trkpt lat="47.27038" lon="6.11323">
        <ele>194.60000610352</ele>
        <time>2017-07-23T07:07:35Z</time>
      </trkpt>
      <trkpt lat="47.27014" lon="6.11273">
        <ele>194.60000610352</ele>
        <time>2017-07-23T07:07:42Z</time>
      </trkpt>
      <trkpt lat="47.26985" lon="6.11203">
        <ele>194.60000610352</ele>
        <time>2017-07-23T07:07:51Z</time>
      </trkpt>
      <trkpt lat="47.2696" lon="6.1113">
        <ele>194.80000305176</ele>
        <time>2017-07-23T07:08:00Z</time>
      </trkpt>
      <trkpt lat="47.2694" lon="6.11054">
        <ele>194.80000305176</ele>
        <time>2017-07-23T07:08:09Z</time>
      </trkpt>
      <trkpt lat="47.26931" lon="6.11002">
        <ele>194.60000610352</ele>
        <time>2017-07-23T07:08:15Z</time>
      </trkpt>
      <trkpt lat="47.26928" lon="6.10984">
        <ele>194.39999389648</ele>
        <time>2017-07-23T07:08:17Z</time>
      </trkpt>
      <trkpt lat="47.26919" lon="6.10915">
        <ele>194.19999694824</ele>
        <time>2017-07-23T07:08:25Z</time>
      </trkpt>
      <trkpt lat="47.2691" lon="6.10835">
        <ele>194.19999694824</ele>
        <time>2017-07-23T07:08:34Z</time>
      </trkpt>
      <trkpt lat="47.26909" lon="6.10826">
        <ele>194.39999389648</ele>
        <time>2017-07-23T07:08:35Z</time>
      </trkpt>
      <trkpt lat="47.26905" lon="6.10747">
        <ele>194.39999389648</ele>
        <time>2017-07-23T07:08:44Z</time>
      </trkpt>
      <trkpt lat="47.26903" lon="6.10667">
        <ele>194.19999694824</ele>
        <time>2017-07-23T07:08:53Z</time>
      </trkpt>
      <trkpt lat="47.26904" lon="6.10597">
        <ele>194.39999389648</ele>
        <time>2017-07-23T07:09:01Z</time>
      </trkpt>
      <trkpt lat="47.26908" lon="6.10517">
        <ele>194.19999694824</ele>
        <time>2017-07-23T07:09:10Z</time>
      </trkpt>
      <trkpt lat="47.26916" lon="6.10437">
        <ele>194.19999694824</ele>
        <time>2017-07-23T07:09:19Z</time>
      </trkpt>
      <trkpt lat="47.26919" lon="6.10419">
        <ele>194.19999694824</ele>
        <time>2017-07-23T07:09:21Z</time>
      </trkpt>
      <trkpt lat="47.2693" lon="6.1035">
        <ele>194</ele>
        <time>2017-07-23T07:09:29Z</time>
      </trkpt>
      <trkpt lat="47.26945" lon="6.10267">
        <ele>193.80000305176</ele>
        <time>2017-07-23T07:09:39Z</time>
      </trkpt>
      <trkpt lat="47.26956" lon="6.102">
        <ele>193.80000305176</ele>
        <time>2017-07-23T07:09:47Z</time>
      </trkpt>
      <trkpt lat="47.26968" lon="6.10133">
        <ele>194</ele>
        <time>2017-07-23T07:09:55Z</time>
      </trkpt>
      <trkpt lat="47.2698" lon="6.10066">
        <ele>193.80000305176</ele>
        <time>2017-07-23T07:10:03Z</time>
      </trkpt>
      <trkpt lat="47.2699" lon="6.09986">
        <ele>193.80000305176</ele>
        <time>2017-07-23T07:10:12Z</time>
      </trkpt>
      <trkpt lat="47.26994" lon="6.09924">
        <ele>193.60000610352</ele>
        <time>2017-07-23T07:10:19Z</time>
      </trkpt>
      <trkpt lat="47.26993" lon="6.09848">
        <ele>193.80000305176</ele>
        <time>2017-07-23T07:10:27Z</time>
      </trkpt>
      <trkpt lat="47.2699" lon="6.09773">
        <ele>193.80000305176</ele>
        <time>2017-07-23T07:10:35Z</time>
      </trkpt>
      <trkpt lat="47.26986" lon="6.09708">
        <ele>193.60000610352</ele>
        <time>2017-07-23T07:10:42Z</time>
      </trkpt>
      <trkpt lat="47.26983" lon="6.09644">
        <ele>193.60000610352</ele>
        <time>2017-07-23T07:10:49Z</time>
      </trkpt>
      <trkpt lat="47.26983" lon="6.09609">
        <ele>193.39999389648</ele>
        <time>2017-07-23T07:10:53Z</time>
      </trkpt>
      <trkpt lat="47.26983" lon="6.09573">
        <ele>193.39999389648</ele>
        <time>2017-07-23T07:10:57Z</time>
      </trkpt>
      <trkpt lat="47.26986" lon="6.09493">
        <ele>193.39999389648</ele>
        <time>2017-07-23T07:11:06Z</time>
      </trkpt>
      <trkpt lat="47.26992" lon="6.09413">
        <ele>193.60000610352</ele>
        <time>2017-07-23T07:11:15Z</time>
      </trkpt>
      <trkpt lat="47.26993" lon="6.09404">
        <ele>193.60000610352</ele>
        <time>2017-07-23T07:11:16Z</time>
      </trkpt>
      <trkpt lat="47.27002" lon="6.09333">
        <ele>193.19999694824</ele>
        <time>2017-07-23T07:11:24Z</time>
      </trkpt>
      <trkpt lat="47.27012" lon="6.09262">
        <ele>193.19999694824</ele>
        <time>2017-07-23T07:11:32Z</time>
      </trkpt>
      <trkpt lat="47.27023" lon="6.09193">
        <ele>193.19999694824</ele>
        <time>2017-07-23T07:11:40Z</time>
      </trkpt>
      <trkpt lat="47.27033" lon="6.0913">
        <ele>193.39999389648</ele>
        <time>2017-07-23T07:11:48Z</time>
      </trkpt>
      <trkpt lat="47.27041" lon="6.09074">
        <ele>193.39999389648</ele>
        <time>2017-07-23T07:11:55Z</time>
      </trkpt>
      <trkpt lat="47.2705" lon="6.09008">
        <ele>193.19999694824</ele>
        <time>2017-07-23T07:12:03Z</time>
      </trkpt>
      <trkpt lat="47.2706" lon="6.08935">
        <ele>193</ele>
        <time>2017-07-23T07:12:12Z</time>
      </trkpt>
      <trkpt lat="47.27068" lon="6.08887">
        <ele>193.19999694824</ele>
        <time>2017-07-23T07:12:18Z</time>
      </trkpt>
      <trkpt lat="47.27077" lon="6.08824">
        <ele>193.60000610352</ele>
        <time>2017-07-23T07:12:26Z</time>
      </trkpt>
      <trkpt lat="47.27085" lon="6.08765">
        <ele>193.60000610352</ele>
        <time>2017-07-23T07:12:33Z</time>
      </trkpt>
      <trkpt lat="47.27092" lon="6.08705">
        <ele>193.60000610352</ele>
        <time>2017-07-23T07:12:40Z</time>
      </trkpt>
      <trkpt lat="47.27094" lon="6.08638">
        <ele>193.60000610352</ele>
        <time>2017-07-23T07:12:48Z</time>
      </trkpt>
      <trkpt lat="47.27092" lon="6.08565">
        <ele>193.39999389648</ele>
        <time>2017-07-23T07:12:57Z</time>
      </trkpt>
      <trkpt lat="47.27085" lon="6.08511">
        <ele>193.60000610352</ele>
        <time>2017-07-23T07:13:04Z</time>
      </trkpt>
      <trkpt lat="47.27085" lon="6.08504">
        <ele>193.60000610352</ele>
        <time>2017-07-23T07:13:05Z</time>
      </trkpt>
      <trkpt lat="47.27086" lon="6.08488">
        <ele>193.60000610352</ele>
        <time>2017-07-23T07:13:08Z</time>
      </trkpt>
      <trkpt lat="47.27083" lon="6.08478">
        <ele>193.19999694824</ele>
        <time>2017-07-23T07:13:12Z</time>
      </trkpt>
      <trkpt lat="47.27074" lon="6.08479">
        <ele>193.60000610352</ele>
        <time>2017-07-23T07:13:16Z</time>
      </trkpt>
      <trkpt lat="47.27051" lon="6.08482">
        <ele>194.19999694824</ele>
        <time>2017-07-23T07:13:22Z</time>
      </trkpt>
      <trkpt lat="47.27043" lon="6.08483">
        <ele>194.60000610352</ele>
        <time>2017-07-23T07:13:24Z</time>
      </trkpt>
      <trkpt lat="47.27013" lon="6.0849">
        <ele>195.19999694824</ele>
        <time>2017-07-23T07:13:31Z</time>
      </trkpt>
      <trkpt lat="47.27" lon="6.08494">
        <ele>195.80000305176</ele>
        <time>2017-07-23T07:13:34Z</time>
      </trkpt>
      <trkpt lat="47.26977" lon="6.08499">
        <ele>196.39999389648</ele>
        <time>2017-07-23T07:13:39Z</time>
      </trkpt>
      <trkpt lat="47.26933" lon="6.0851">
        <ele>196.19999694824</ele>
        <time>2017-07-23T07:13:48Z</time>
      </trkpt>
      <trkpt lat="47.26898" lon="6.0852">
        <ele>195.80000305176</ele>
        <time>2017-07-23T07:13:54Z</time>
      </trkpt>
      <trkpt lat="47.26886" lon="6.08526">
        <ele>195.60000610352</ele>
        <time>2017-07-23T07:13:56Z</time>
      </trkpt>
      <trkpt lat="47.26875" lon="6.08535">
        <ele>195</ele>
        <time>2017-07-23T07:13:58Z</time>
      </trkpt>
      <trkpt lat="47.26866" lon="6.08546">
        <ele>194.80000305176</ele>
        <time>2017-07-23T07:14:00Z</time>
      </trkpt>
      <trkpt lat="47.26852" lon="6.08567">
        <ele>194.39999389648</ele>
        <time>2017-07-23T07:14:03Z</time>
      </trkpt>
      <trkpt lat="47.26841" lon="6.08593">
        <ele>194</ele>
        <time>2017-07-23T07:14:06Z</time>
      </trkpt>
      <trkpt lat="47.26838" lon="6.08602">
        <ele>193.80000305176</ele>
        <time>2017-07-23T07:14:07Z</time>
      </trkpt>
      <trkpt lat="47.26836" lon="6.08612">
        <ele>193.60000610352</ele>
        <time>2017-07-23T07:14:08Z</time>
      </trkpt>
      <trkpt lat="47.26833" lon="6.08663">
        <ele>192.80000305176</ele>
        <time>2017-07-23T07:14:13Z</time>
      </trkpt>
      <trkpt lat="47.26834" lon="6.08673">
        <ele>192.60000610352</ele>
        <time>2017-07-23T07:14:14Z</time>
      </trkpt>
      <trkpt lat="47.2684" lon="6.08749">
        <ele>192</ele>
        <time>2017-07-23T07:14:22Z</time>
      </trkpt>
      <trkpt lat="47.26844" lon="6.08782">
        <ele>192.19999694824</ele>
        <time>2017-07-23T07:14:26Z</time>
      </trkpt>
      <trkpt lat="47.26848" lon="6.08793">
        <ele>192.19999694824</ele>
        <time>2017-07-23T07:14:28Z</time>
      </trkpt>
      <trkpt lat="47.26857" lon="6.08821">
        <ele>192</ele>
        <time>2017-07-23T07:14:33Z</time>
      </trkpt>
      <trkpt lat="47.26862" lon="6.08849">
        <ele>192</ele>
        <time>2017-07-23T07:14:37Z</time>
      </trkpt>
      <trkpt lat="47.26863" lon="6.08857">
        <ele>192</ele>
        <time>2017-07-23T07:14:38Z</time>
      </trkpt>
      <trkpt lat="47.26869" lon="6.08877">
        <ele>192.19999694824</ele>
        <time>2017-07-23T07:14:41Z</time>
      </trkpt>
      <trkpt lat="47.2687" lon="6.0889">
        <ele>192.19999694824</ele>
        <time>2017-07-23T07:14:43Z</time>
      </trkpt>
      <trkpt lat="47.2687" lon="6.08897">
        <ele>192.39999389648</ele>
        <time>2017-07-23T07:14:44Z</time>
      </trkpt>
      <trkpt lat="47.26869" lon="6.0892">
        <ele>192.19999694824</ele>
        <time>2017-07-23T07:14:48Z</time>
      </trkpt>
      <trkpt lat="47.26866" lon="6.08932">
        <ele>192.19999694824</ele>
        <time>2017-07-23T07:14:52Z</time>
      </trkpt>
      <trkpt lat="47.26864" lon="6.08931">
        <ele>192.19999694824</ele>
        <time>2017-07-23T07:18:21Z</time>
      </trkpt>
      <trkpt lat="47.26866" lon="6.08927">
        <ele>192.19999694824</ele>
        <time>2017-07-23T07:18:23Z</time>
      </trkpt>
      <trkpt lat="47.26871" lon="6.08919">
        <ele>192.19999694824</ele>
        <time>2017-07-23T07:18:26Z</time>
      </trkpt>
      <trkpt lat="47.26871" lon="6.0891">
        <ele>192.39999389648</ele>
        <time>2017-07-23T07:18:28Z</time>
      </trkpt>
      <trkpt lat="47.26868" lon="6.08874">
        <ele>192.39999389648</ele>
        <time>2017-07-23T07:18:34Z</time>
      </trkpt>
      <trkpt lat="47.26861" lon="6.08839">
        <ele>192.60000610352</ele>
        <time>2017-07-23T07:18:40Z</time>
      </trkpt>
      <trkpt lat="47.26853" lon="6.08806">
        <ele>192.60000610352</ele>
        <time>2017-07-23T07:18:46Z</time>
      </trkpt>
      <trkpt lat="47.26845" lon="6.08776">
        <ele>192.39999389648</ele>
        <time>2017-07-23T07:18:52Z</time>
      </trkpt>
      <trkpt lat="47.26843" lon="6.08744">
        <ele>192.19999694824</ele>
        <time>2017-07-23T07:18:58Z</time>
      </trkpt>
      <trkpt lat="47.26841" lon="6.08718">
        <ele>192.19999694824</ele>
        <time>2017-07-23T07:19:04Z</time>
      </trkpt>
      <trkpt lat="47.26839" lon="6.08691">
        <ele>192</ele>
        <time>2017-07-23T07:19:10Z</time>
      </trkpt>
      <trkpt lat="47.26837" lon="6.0866">
        <ele>192</ele>
        <time>2017-07-23T07:19:17Z</time>
      </trkpt>
      <trkpt lat="47.26838" lon="6.08625">
        <ele>192.19999694824</ele>
        <time>2017-07-23T07:19:24Z</time>
      </trkpt>
      <trkpt lat="47.26839" lon="6.0862">
        <ele>192.19999694824</ele>
        <time>2017-07-23T07:19:25Z</time>
      </trkpt>
      <trkpt lat="47.26846" lon="6.08591">
        <ele>192.60000610352</ele>
        <time>2017-07-23T07:19:30Z</time>
      </trkpt>
      <trkpt lat="47.26848" lon="6.08585">
        <ele>192.80000305176</ele>
        <time>2017-07-23T07:19:31Z</time>
      </trkpt>
      <trkpt lat="47.26859" lon="6.08562">
        <ele>192.80000305176</ele>
        <time>2017-07-23T07:19:35Z</time>
      </trkpt>
      <trkpt lat="47.26865" lon="6.08553">
        <ele>193.19999694824</ele>
        <time>2017-07-23T07:19:37Z</time>
      </trkpt>
      <trkpt lat="47.26879" lon="6.08538">
        <ele>193.60000610352</ele>
        <time>2017-07-23T07:19:41Z</time>
      </trkpt>
      <trkpt lat="47.26883" lon="6.08534">
        <ele>193.60000610352</ele>
        <time>2017-07-23T07:19:42Z</time>
      </trkpt>
      <trkpt lat="47.26892" lon="6.08528">
        <ele>193.80000305176</ele>
        <time>2017-07-23T07:19:44Z</time>
      </trkpt>
      <trkpt lat="47.26905" lon="6.08522">
        <ele>194.19999694824</ele>
        <time>2017-07-23T07:19:47Z</time>
      </trkpt>
      <trkpt lat="47.26927" lon="6.08515">
        <ele>194.80000305176</ele>
        <time>2017-07-23T07:19:52Z</time>
      </trkpt>
      <trkpt lat="47.26941" lon="6.08511">
        <ele>195.19999694824</ele>
        <time>2017-07-23T07:19:55Z</time>
      </trkpt>
      <trkpt lat="47.26958" lon="6.08508">
        <ele>195.80000305176</ele>
        <time>2017-07-23T07:19:59Z</time>
      </trkpt>
      <trkpt lat="47.26971" lon="6.08504">
        <ele>196.19999694824</ele>
        <time>2017-07-23T07:20:02Z</time>
      </trkpt>
      <trkpt lat="47.26988" lon="6.08499">
        <ele>196.39999389648</ele>
        <time>2017-07-23T07:20:06Z</time>
      </trkpt>
      <trkpt lat="47.27006" lon="6.08497">
        <ele>196.60000610352</ele>
        <time>2017-07-23T07:20:10Z</time>
      </trkpt>
      <trkpt lat="47.27037" lon="6.08489">
        <ele>196.19999694824</ele>
        <time>2017-07-23T07:20:17Z</time>
      </trkpt>
      <trkpt lat="47.27063" lon="6.08485">
        <ele>195.80000305176</ele>
        <time>2017-07-23T07:20:23Z</time>
      </trkpt>
      <trkpt lat="47.27068" lon="6.08483">
        <ele>195.39999389648</ele>
        <time>2017-07-23T07:20:26Z</time>
      </trkpt>
      <trkpt lat="47.27068" lon="6.0848">
        <ele>195.19999694824</ele>
        <time>2017-07-23T07:20:27Z</time>
      </trkpt>
      <trkpt lat="47.27061" lon="6.08479">
        <ele>194.80000305176</ele>
        <time>2017-07-23T07:20:30Z</time>
      </trkpt>
      <trkpt lat="47.27058" lon="6.0848">
        <ele>194.80000305176</ele>
        <time>2017-07-23T07:20:31Z</time>
      </trkpt>
      <trkpt lat="47.27043" lon="6.08484">
        <ele>194.80000305176</ele>
        <time>2017-07-23T07:20:35Z</time>
      </trkpt>
      <trkpt lat="47.27014" lon="6.0849">
        <ele>195.60000610352</ele>
        <time>2017-07-23T07:20:42Z</time>
      </trkpt>
      <trkpt lat="47.27009" lon="6.08491">
        <ele>195.80000305176</ele>
        <time>2017-07-23T07:20:43Z</time>
      </trkpt>
      <trkpt lat="47.27005" lon="6.08492">
        <ele>196</ele>
        <time>2017-07-23T07:20:44Z</time>
      </trkpt>
      <trkpt lat="47.26985" lon="6.08498">
        <ele>196.39999389648</ele>
        <time>2017-07-23T07:20:48Z</time>
      </trkpt>
      <trkpt lat="47.26942" lon="6.08508">
        <ele>196.80000305176</ele>
        <time>2017-07-23T07:20:56Z</time>
      </trkpt>
      <trkpt lat="47.269" lon="6.08521">
        <ele>196.39999389648</ele>
        <time>2017-07-23T07:21:03Z</time>
      </trkpt>
      <trkpt lat="47.2687" lon="6.08541">
        <ele>195.60000610352</ele>
        <time>2017-07-23T07:21:08Z</time>
      </trkpt>
      <trkpt lat="47.26852" lon="6.08569">
        <ele>195</ele>
        <time>2017-07-23T07:21:12Z</time>
      </trkpt>
      <trkpt lat="47.26844" lon="6.08586">
        <ele>194.80000305176</ele>
        <time>2017-07-23T07:21:14Z</time>
      </trkpt>
      <trkpt lat="47.26841" lon="6.08595">
        <ele>194.60000610352</ele>
        <time>2017-07-23T07:21:15Z</time>
      </trkpt>
      <trkpt lat="47.26836" lon="6.08615">
        <ele>194.19999694824</ele>
        <time>2017-07-23T07:21:17Z</time>
      </trkpt>
      <trkpt lat="47.26834" lon="6.08634">
        <ele>194</ele>
        <time>2017-07-23T07:21:19Z</time>
      </trkpt>
      <trkpt lat="47.26833" lon="6.08664">
        <ele>193.39999389648</ele>
        <time>2017-07-23T07:21:22Z</time>
      </trkpt>
      <trkpt lat="47.26839" lon="6.0873">
        <ele>192.60000610352</ele>
        <time>2017-07-23T07:21:29Z</time>
      </trkpt>
      <trkpt lat="47.26842" lon="6.08774">
        <ele>192.80000305176</ele>
        <time>2017-07-23T07:21:34Z</time>
      </trkpt>
      <trkpt lat="47.2684" lon="6.08782">
        <ele>192.80000305176</ele>
        <time>2017-07-23T07:21:35Z</time>
      </trkpt>
      <trkpt lat="47.26827" lon="6.08795">
        <ele>192.80000305176</ele>
        <time>2017-07-23T07:21:38Z</time>
      </trkpt>
      <trkpt lat="47.26811" lon="6.08808">
        <ele>192.80000305176</ele>
        <time>2017-07-23T07:21:41Z</time>
      </trkpt>
      <trkpt lat="47.26802" lon="6.08817">
        <ele>192.80000305176</ele>
        <time>2017-07-23T07:21:43Z</time>
      </trkpt>
      <trkpt lat="47.2677" lon="6.08849">
        <ele>192.60000610352</ele>
        <time>2017-07-23T07:21:50Z</time>
      </trkpt>
      <trkpt lat="47.26747" lon="6.08872">
        <ele>192.80000305176</ele>
        <time>2017-07-23T07:21:56Z</time>
      </trkpt>
      <trkpt lat="47.26725" lon="6.08882">
        <ele>193.60000610352</ele>
        <time>2017-07-23T07:22:02Z</time>
      </trkpt>
      <trkpt lat="47.2671" lon="6.08877">
        <ele>194.19999694824</ele>
        <time>2017-07-23T07:22:06Z</time>
      </trkpt>
      <trkpt lat="47.26702" lon="6.08875">
        <ele>194.39999389648</ele>
        <time>2017-07-23T07:22:08Z</time>
      </trkpt>
      <trkpt lat="47.26698" lon="6.08874">
        <ele>194.39999389648</ele>
        <time>2017-07-23T07:22:09Z</time>
      </trkpt>
      <trkpt lat="47.26689" lon="6.08871">
        <ele>194.60000610352</ele>
        <time>2017-07-23T07:22:11Z</time>
      </trkpt>
      <trkpt lat="47.26676" lon="6.08864">
        <ele>194.80000305176</ele>
        <time>2017-07-23T07:22:14Z</time>
      </trkpt>
      <trkpt lat="47.26643" lon="6.08852">
        <ele>194.80000305176</ele>
        <time>2017-07-23T07:22:20Z</time>
      </trkpt>
      <trkpt lat="47.26612" lon="6.08847">
        <ele>194</ele>
        <time>2017-07-23T07:22:26Z</time>
      </trkpt>
      <trkpt lat="47.26606" lon="6.08845">
        <ele>193.80000305176</ele>
        <time>2017-07-23T07:22:27Z</time>
      </trkpt>
      <trkpt lat="47.26595" lon="6.08842">
        <ele>193.39999389648</ele>
        <time>2017-07-23T07:22:29Z</time>
      </trkpt>
      <trkpt lat="47.26591" lon="6.0884">
        <ele>193.39999389648</ele>
        <time>2017-07-23T07:22:30Z</time>
      </trkpt>
      <trkpt lat="47.26586" lon="6.08837">
        <ele>193.19999694824</ele>
        <time>2017-07-23T07:22:32Z</time>
      </trkpt>
      <trkpt lat="47.26583" lon="6.08835">
        <ele>192.39999389648</ele>
        <time>2017-07-23T07:23:32Z</time>
      </trkpt>
      <trkpt lat="47.26581" lon="6.08834">
        <ele>192.60000610352</ele>
        <time>2017-07-23T07:23:33Z</time>
      </trkpt>
      <trkpt lat="47.26563" lon="6.08825">
        <ele>192.39999389648</ele>
        <time>2017-07-23T07:23:38Z</time>
      </trkpt>
      <trkpt lat="47.2653" lon="6.08809">
        <ele>192.19999694824</ele>
        <time>2017-07-23T07:23:45Z</time>
      </trkpt>
      <trkpt lat="47.2649" lon="6.08784">
        <ele>192.19999694824</ele>
        <time>2017-07-23T07:23:53Z</time>
      </trkpt>
      <trkpt lat="47.26452" lon="6.08758">
        <ele>192</ele>
        <time>2017-07-23T07:24:01Z</time>
      </trkpt>
      <trkpt lat="47.26415" lon="6.08742">
        <ele>192</ele>
        <time>2017-07-23T07:24:08Z</time>
      </trkpt>
      <trkpt lat="47.26399" lon="6.08735">
        <ele>192</ele>
        <time>2017-07-23T07:24:11Z</time>
      </trkpt>
      <trkpt lat="47.26383" lon="6.08729">
        <ele>191.80000305176</ele>
        <time>2017-07-23T07:24:14Z</time>
      </trkpt>
      <trkpt lat="47.26341" lon="6.08712">
        <ele>191.60000610352</ele>
        <time>2017-07-23T07:24:22Z</time>
      </trkpt>
      <trkpt lat="47.26298" lon="6.08693">
        <ele>191.60000610352</ele>
        <time>2017-07-23T07:24:30Z</time>
      </trkpt>
      <trkpt lat="47.26261" lon="6.08675">
        <ele>191.60000610352</ele>
        <time>2017-07-23T07:24:37Z</time>
      </trkpt>
      <trkpt lat="47.2623" lon="6.08657">
        <ele>191.39999389648</ele>
        <time>2017-07-23T07:24:43Z</time>
      </trkpt>
      <trkpt lat="47.26225" lon="6.08654">
        <ele>191.39999389648</ele>
        <time>2017-07-23T07:24:44Z</time>
      </trkpt>
      <trkpt lat="47.2618" lon="6.08619">
        <ele>191.39999389648</ele>
        <time>2017-07-23T07:24:53Z</time>
      </trkpt>
      <trkpt lat="47.26144" lon="6.08593">
        <ele>191.39999389648</ele>
        <time>2017-07-23T07:25:00Z</time>
      </trkpt>
      <trkpt lat="47.26108" lon="6.08564">
        <ele>191.39999389648</ele>
        <time>2017-07-23T07:25:07Z</time>
      </trkpt>
      <trkpt lat="47.26068" lon="6.08535">
        <ele>192</ele>
        <time>2017-07-23T07:25:15Z</time>
      </trkpt>
      <trkpt lat="47.26017" lon="6.08504">
        <ele>191.80000305176</ele>
        <time>2017-07-23T07:25:25Z</time>
      </trkpt>
      <trkpt lat="47.25979" lon="6.08475">
        <ele>191.80000305176</ele>
        <time>2017-07-23T07:25:33Z</time>
      </trkpt>
      <trkpt lat="47.25965" lon="6.08466">
        <ele>192.19999694824</ele>
        <time>2017-07-23T07:25:36Z</time>
      </trkpt>
      <trkpt lat="47.2595" lon="6.08459">
        <ele>192.19999694824</ele>
        <time>2017-07-23T07:25:39Z</time>
      </trkpt>
      <trkpt lat="47.25912" lon="6.08441">
        <ele>191.80000305176</ele>
        <time>2017-07-23T07:25:46Z</time>
      </trkpt>
      <trkpt lat="47.25865" lon="6.08418">
        <ele>191.60000610352</ele>
        <time>2017-07-23T07:25:55Z</time>
      </trkpt>
      <trkpt lat="47.25821" lon="6.08387">
        <ele>192.19999694824</ele>
        <time>2017-07-23T07:26:04Z</time>
      </trkpt>
      <trkpt lat="47.25788" lon="6.08365">
        <ele>192.39999389648</ele>
        <time>2017-07-23T07:26:11Z</time>
      </trkpt>
      <trkpt lat="47.25778" lon="6.0836">
        <ele>192.60000610352</ele>
        <time>2017-07-23T07:26:13Z</time>
      </trkpt>
      <trkpt lat="47.25741" lon="6.08336">
        <ele>193.19999694824</ele>
        <time>2017-07-23T07:26:21Z</time>
      </trkpt>
      <trkpt lat="47.2569" lon="6.08305">
        <ele>193</ele>
        <time>2017-07-23T07:26:31Z</time>
      </trkpt>
      <trkpt lat="47.25647" lon="6.08279">
        <ele>192.60000610352</ele>
        <time>2017-07-23T07:26:39Z</time>
      </trkpt>
      <trkpt lat="47.25604" lon="6.08252">
        <ele>192</ele>
        <time>2017-07-23T07:26:47Z</time>
      </trkpt>
      <trkpt lat="47.25562" lon="6.08227">
        <ele>191.80000305176</ele>
        <time>2017-07-23T07:26:55Z</time>
      </trkpt>
      <trkpt lat="47.2554" lon="6.08215">
        <ele>191.39999389648</ele>
        <time>2017-07-23T07:26:59Z</time>
      </trkpt>
      <trkpt lat="47.25518" lon="6.08201">
        <ele>191.39999389648</ele>
        <time>2017-07-23T07:27:03Z</time>
      </trkpt>
      <trkpt lat="47.25484" lon="6.08181">
        <ele>191.39999389648</ele>
        <time>2017-07-23T07:27:09Z</time>
      </trkpt>
      <trkpt lat="47.25442" lon="6.08148">
        <ele>191.19999694824</ele>
        <time>2017-07-23T07:27:17Z</time>
      </trkpt>
      <trkpt lat="47.25406" lon="6.08119">
        <ele>191.39999389648</ele>
        <time>2017-07-23T07:27:24Z</time>
      </trkpt>
      <trkpt lat="47.25369" lon="6.08088">
        <ele>191.39999389648</ele>
        <time>2017-07-23T07:27:31Z</time>
      </trkpt>
      <trkpt lat="47.25326" lon="6.08045">
        <ele>191.19999694824</ele>
        <time>2017-07-23T07:27:40Z</time>
      </trkpt>
      <trkpt lat="47.253" lon="6.08017">
        <ele>191.39999389648</ele>
        <time>2017-07-23T07:27:46Z</time>
      </trkpt>
      <trkpt lat="47.25298" lon="6.0801">
        <ele>191.39999389648</ele>
        <time>2017-07-23T07:27:47Z</time>
      </trkpt>
      <trkpt lat="47.25287" lon="6.07973">
        <ele>191.60000610352</ele>
        <time>2017-07-23T07:27:52Z</time>
      </trkpt>
      <trkpt lat="47.2527" lon="6.07918">
        <ele>191.39999389648</ele>
        <time>2017-07-23T07:27:59Z</time>
      </trkpt>
      <trkpt lat="47.25258" lon="6.0786">
        <ele>191.60000610352</ele>
        <time>2017-07-23T07:28:06Z</time>
      </trkpt>
      <trkpt lat="47.25248" lon="6.07798">
        <ele>191.39999389648</ele>
        <time>2017-07-23T07:28:13Z</time>
      </trkpt>
      <trkpt lat="47.25231" lon="6.07739">
        <ele>191</ele>
        <time>2017-07-23T07:28:20Z</time>
      </trkpt>
      <trkpt lat="47.25209" lon="6.07679">
        <ele>190.60000610352</ele>
        <time>2017-07-23T07:28:28Z</time>
      </trkpt>
      <trkpt lat="47.25183" lon="6.07625">
        <ele>191.19999694824</ele>
        <time>2017-07-23T07:28:36Z</time>
      </trkpt>
      <trkpt lat="47.25154" lon="6.07579">
        <ele>191.39999389648</ele>
        <time>2017-07-23T07:28:43Z</time>
      </trkpt>
      <trkpt lat="47.25118" lon="6.0753">
        <ele>190.80000305176</ele>
        <time>2017-07-23T07:28:51Z</time>
      </trkpt>
      <trkpt lat="47.25095" lon="6.07505">
        <ele>190.39999389648</ele>
        <time>2017-07-23T07:28:56Z</time>
      </trkpt>
      <trkpt lat="47.2509" lon="6.07501">
        <ele>190.19999694824</ele>
        <time>2017-07-23T07:28:57Z</time>
      </trkpt>
      <trkpt lat="47.25052" lon="6.07463">
        <ele>190</ele>
        <time>2017-07-23T07:29:05Z</time>
      </trkpt>
      <trkpt lat="47.25025" lon="6.07438">
        <ele>190.19999694824</ele>
        <time>2017-07-23T07:29:11Z</time>
      </trkpt>
      <trkpt lat="47.24986" lon="6.07405">
        <ele>190.19999694824</ele>
        <time>2017-07-23T07:29:19Z</time>
      </trkpt>
      <trkpt lat="47.24946" lon="6.07371">
        <ele>190.19999694824</ele>
        <time>2017-07-23T07:29:27Z</time>
      </trkpt>
      <trkpt lat="47.24901" lon="6.07333">
        <ele>190.19999694824</ele>
        <time>2017-07-23T07:29:36Z</time>
      </trkpt>
      <trkpt lat="47.24868" lon="6.07303">
        <ele>190.19999694824</ele>
        <time>2017-07-23T07:29:43Z</time>
      </trkpt>
      <trkpt lat="47.24833" lon="6.07261">
        <ele>190.60000610352</ele>
        <time>2017-07-23T07:29:51Z</time>
      </trkpt>
      <trkpt lat="47.24797" lon="6.07209">
        <ele>190.60000610352</ele>
        <time>2017-07-23T07:30:00Z</time>
      </trkpt>
      <trkpt lat="47.24777" lon="6.07173">
        <ele>190.80000305176</ele>
        <time>2017-07-23T07:30:06Z</time>
      </trkpt>
      <trkpt lat="47.24749" lon="6.07128">
        <ele>191</ele>
        <time>2017-07-23T07:30:14Z</time>
      </trkpt>
      <trkpt lat="47.24715" lon="6.07077">
        <ele>191.19999694824</ele>
        <time>2017-07-23T07:30:23Z</time>
      </trkpt>
      <trkpt lat="47.24692" lon="6.07041">
        <ele>191.19999694824</ele>
        <time>2017-07-23T07:30:29Z</time>
      </trkpt>
      <trkpt lat="47.24663" lon="6.07002">
        <ele>191.19999694824</ele>
        <time>2017-07-23T07:30:36Z</time>
      </trkpt>
      <trkpt lat="47.2463" lon="6.06957">
        <ele>191.39999389648</ele>
        <time>2017-07-23T07:30:44Z</time>
      </trkpt>
      <trkpt lat="47.24621" lon="6.06945">
        <ele>191.60000610352</ele>
        <time>2017-07-23T07:30:46Z</time>
      </trkpt>
      <trkpt lat="47.24598" lon="6.06911">
        <ele>191.60000610352</ele>
        <time>2017-07-23T07:30:52Z</time>
      </trkpt>
      <trkpt lat="47.2457" lon="6.06883">
        <ele>191.80000305176</ele>
        <time>2017-07-23T07:30:59Z</time>
      </trkpt>
      <trkpt lat="47.24529" lon="6.0685">
        <ele>191.80000305176</ele>
        <time>2017-07-23T07:31:07Z</time>
      </trkpt>
      <trkpt lat="47.24491" lon="6.06829">
        <ele>191.80000305176</ele>
        <time>2017-07-23T07:31:14Z</time>
      </trkpt>
      <trkpt lat="47.24454" lon="6.06811">
        <ele>192</ele>
        <time>2017-07-23T07:31:21Z</time>
      </trkpt>
      <trkpt lat="47.2442" lon="6.06797">
        <ele>192</ele>
        <time>2017-07-23T07:31:27Z</time>
      </trkpt>
      <trkpt lat="47.24386" lon="6.06783">
        <ele>191.80000305176</ele>
        <time>2017-07-23T07:31:33Z</time>
      </trkpt>
      <trkpt lat="47.24347" lon="6.06768">
        <ele>191.60000610352</ele>
        <time>2017-07-23T07:31:40Z</time>
      </trkpt>
      <trkpt lat="47.24314" lon="6.06755">
        <ele>191.80000305176</ele>
        <time>2017-07-23T07:31:46Z</time>
      </trkpt>
      <trkpt lat="47.24274" lon="6.0674">
        <ele>191.39999389648</ele>
        <time>2017-07-23T07:31:53Z</time>
      </trkpt>
      <trkpt lat="47.24237" lon="6.06724">
        <ele>191.39999389648</ele>
        <time>2017-07-23T07:32:00Z</time>
      </trkpt>
      <trkpt lat="47.24201" lon="6.06703">
        <ele>191.39999389648</ele>
        <time>2017-07-23T07:32:07Z</time>
      </trkpt>
      <trkpt lat="47.24176" lon="6.0669">
        <ele>191.60000610352</ele>
        <time>2017-07-23T07:32:12Z</time>
      </trkpt>
      <trkpt lat="47.24171" lon="6.06685">
        <ele>191.60000610352</ele>
        <time>2017-07-23T07:32:13Z</time>
      </trkpt>
      <trkpt lat="47.2413" lon="6.06639">
        <ele>191.60000610352</ele>
        <time>2017-07-23T07:32:22Z</time>
      </trkpt>
      <trkpt lat="47.24087" lon="6.06592">
        <ele>191.19999694824</ele>
        <time>2017-07-23T07:32:31Z</time>
      </trkpt>
      <trkpt lat="47.24051" lon="6.06548">
        <ele>191</ele>
        <time>2017-07-23T07:32:39Z</time>
      </trkpt>
      <trkpt lat="47.24025" lon="6.06518">
        <ele>191.19999694824</ele>
        <time>2017-07-23T07:32:45Z</time>
      </trkpt>
      <trkpt lat="47.24015" lon="6.0651">
        <ele>191.19999694824</ele>
        <time>2017-07-23T07:32:47Z</time>
      </trkpt>
      <trkpt lat="47.23985" lon="6.06478">
        <ele>191.39999389648</ele>
        <time>2017-07-23T07:32:54Z</time>
      </trkpt>
      <trkpt lat="47.23947" lon="6.06428">
        <ele>191.60000610352</ele>
        <time>2017-07-23T07:33:03Z</time>
      </trkpt>
      <trkpt lat="47.23913" lon="6.06381">
        <ele>191.39999389648</ele>
        <time>2017-07-23T07:33:11Z</time>
      </trkpt>
      <trkpt lat="47.2388" lon="6.06334">
        <ele>191.39999389648</ele>
        <time>2017-07-23T07:33:19Z</time>
      </trkpt>
      <trkpt lat="47.23847" lon="6.06293">
        <ele>191.39999389648</ele>
        <time>2017-07-23T07:33:27Z</time>
      </trkpt>
      <trkpt lat="47.23804" lon="6.06249">
        <ele>191.39999389648</ele>
        <time>2017-07-23T07:33:36Z</time>
      </trkpt>
      <trkpt lat="47.2377" lon="6.06225">
        <ele>190.80000305176</ele>
        <time>2017-07-23T07:33:42Z</time>
      </trkpt>
      <trkpt lat="47.23738" lon="6.06203">
        <ele>190.60000610352</ele>
        <time>2017-07-23T07:33:48Z</time>
      </trkpt>
      <trkpt lat="47.23688" lon="6.06176">
        <ele>190.39999389648</ele>
        <time>2017-07-23T07:33:57Z</time>
      </trkpt>
      <trkpt lat="47.23676" lon="6.0617">
        <ele>190.39999389648</ele>
        <time>2017-07-23T07:33:59Z</time>
      </trkpt>
      <trkpt lat="47.23637" lon="6.06153">
        <ele>190.60000610352</ele>
        <time>2017-07-23T07:34:06Z</time>
      </trkpt>
      <trkpt lat="47.23596" lon="6.06142">
        <ele>190.80000305176</ele>
        <time>2017-07-23T07:34:13Z</time>
      </trkpt>
      <trkpt lat="47.23538" lon="6.06127">
        <ele>190.80000305176</ele>
        <time>2017-07-23T07:34:23Z</time>
      </trkpt>
      <trkpt lat="47.23492" lon="6.06114">
        <ele>191</ele>
        <time>2017-07-23T07:34:31Z</time>
      </trkpt>
      <trkpt lat="47.23445" lon="6.06103">
        <ele>191</ele>
        <time>2017-07-23T07:34:39Z</time>
      </trkpt>
      <trkpt lat="47.23399" lon="6.0609">
        <ele>190.60000610352</ele>
        <time>2017-07-23T07:34:47Z</time>
      </trkpt>
      <trkpt lat="47.2337" lon="6.06081">
        <ele>190.39999389648</ele>
        <time>2017-07-23T07:34:52Z</time>
      </trkpt>
      <trkpt lat="47.23365" lon="6.06078">
        <ele>190.39999389648</ele>
        <time>2017-07-23T07:34:53Z</time>
      </trkpt>
      <trkpt lat="47.23324" lon="6.06055">
        <ele>190.60000610352</ele>
        <time>2017-07-23T07:35:01Z</time>
      </trkpt>
      <trkpt lat="47.23292" lon="6.06022">
        <ele>190.80000305176</ele>
        <time>2017-07-23T07:35:08Z</time>
      </trkpt>
      <trkpt lat="47.23257" lon="6.05982">
        <ele>190.60000610352</ele>
        <time>2017-07-23T07:35:16Z</time>
      </trkpt>
      <trkpt lat="47.23219" lon="6.05942">
        <ele>191</ele>
        <time>2017-07-23T07:35:25Z</time>
      </trkpt>
      <trkpt lat="47.23183" lon="6.05909">
        <ele>190.60000610352</ele>
        <time>2017-07-23T07:35:33Z</time>
      </trkpt>
      <trkpt lat="47.23148" lon="6.05882">
        <ele>190.60000610352</ele>
        <time>2017-07-23T07:35:40Z</time>
      </trkpt>
      <trkpt lat="47.23139" lon="6.05877">
        <ele>190.60000610352</ele>
        <time>2017-07-23T07:35:42Z</time>
      </trkpt>
      <trkpt lat="47.23131" lon="6.05869">
        <ele>190.60000610352</ele>
        <time>2017-07-23T07:35:44Z</time>
      </trkpt>
      <trkpt lat="47.23127" lon="6.05865">
        <ele>190.60000610352</ele>
        <time>2017-07-23T07:35:45Z</time>
      </trkpt>
      <trkpt lat="47.23104" lon="6.05847">
        <ele>190.60000610352</ele>
        <time>2017-07-23T07:35:50Z</time>
      </trkpt>
      <trkpt lat="47.23071" lon="6.0582">
        <ele>191.39999389648</ele>
        <time>2017-07-23T07:35:58Z</time>
      </trkpt>
      <trkpt lat="47.23063" lon="6.05813">
        <ele>191.39999389648</ele>
        <time>2017-07-23T07:36:00Z</time>
      </trkpt>
      <trkpt lat="47.23037" lon="6.05792">
        <ele>191.19999694824</ele>
        <time>2017-07-23T07:36:05Z</time>
      </trkpt>
      <trkpt lat="47.23017" lon="6.05774">
        <ele>190.19999694824</ele>
        <time>2017-07-23T07:36:09Z</time>
      </trkpt>
      <trkpt lat="47.23009" lon="6.05764">
        <ele>190</ele>
        <time>2017-07-23T07:36:11Z</time>
      </trkpt>
      <trkpt lat="47.22978" lon="6.05731">
        <ele>189.60000610352</ele>
        <time>2017-07-23T07:36:18Z</time>
      </trkpt>
      <trkpt lat="47.22953" lon="6.05697">
        <ele>189.80000305176</ele>
        <time>2017-07-23T07:36:24Z</time>
      </trkpt>
      <trkpt lat="47.2291" lon="6.05638">
        <ele>189.80000305176</ele>
        <time>2017-07-23T07:36:34Z</time>
      </trkpt>
      <trkpt lat="47.22878" lon="6.05587">
        <ele>189.60000610352</ele>
        <time>2017-07-23T07:36:42Z</time>
      </trkpt>
      <trkpt lat="47.22851" lon="6.05542">
        <ele>189.39999389648</ele>
        <time>2017-07-23T07:36:49Z</time>
      </trkpt>
      <trkpt lat="47.22819" lon="6.05481">
        <ele>189.39999389648</ele>
        <time>2017-07-23T07:36:58Z</time>
      </trkpt>
      <trkpt lat="47.22788" lon="6.05419">
        <ele>189.60000610352</ele>
        <time>2017-07-23T07:37:07Z</time>
      </trkpt>
      <trkpt lat="47.22765" lon="6.05361">
        <ele>190</ele>
        <time>2017-07-23T07:37:15Z</time>
      </trkpt>
      <trkpt lat="47.22743" lon="6.05301">
        <ele>190</ele>
        <time>2017-07-23T07:37:23Z</time>
      </trkpt>
      <trkpt lat="47.22717" lon="6.05224">
        <ele>189.80000305176</ele>
        <time>2017-07-23T07:37:33Z</time>
      </trkpt>
      <trkpt lat="47.22706" lon="6.0518">
        <ele>189.80000305176</ele>
        <time>2017-07-23T07:37:39Z</time>
      </trkpt>
      <trkpt lat="47.22701" lon="6.0516">
        <ele>189.60000610352</ele>
        <time>2017-07-23T07:37:42Z</time>
      </trkpt>
      <trkpt lat="47.22693" lon="6.05132">
        <ele>189.60000610352</ele>
        <time>2017-07-23T07:37:46Z</time>
      </trkpt>
      <trkpt lat="47.22687" lon="6.05109">
        <ele>189.39999389648</ele>
        <time>2017-07-23T07:37:49Z</time>
      </trkpt>
      <trkpt lat="47.2268" lon="6.05088">
        <ele>189.39999389648</ele>
        <time>2017-07-23T07:37:52Z</time>
      </trkpt>
      <trkpt lat="47.22678" lon="6.0508">
        <ele>189.39999389648</ele>
        <time>2017-07-23T07:37:53Z</time>
      </trkpt>
      <trkpt lat="47.22666" lon="6.0504">
        <ele>189.39999389648</ele>
        <time>2017-07-23T07:37:58Z</time>
      </trkpt>
      <trkpt lat="47.2265" lon="6.04987">
        <ele>189.19999694824</ele>
        <time>2017-07-23T07:38:05Z</time>
      </trkpt>
      <trkpt lat="47.22635" lon="6.04943">
        <ele>189.60000610352</ele>
        <time>2017-07-23T07:38:11Z</time>
      </trkpt>
      <trkpt lat="47.22632" lon="6.04938">
        <ele>189.60000610352</ele>
        <time>2017-07-23T07:38:12Z</time>
      </trkpt>
      <trkpt lat="47.22627" lon="6.04919">
        <ele>189.60000610352</ele>
        <time>2017-07-23T07:38:15Z</time>
      </trkpt>
      <trkpt lat="47.22614" lon="6.04866">
        <ele>189.60000610352</ele>
        <time>2017-07-23T07:38:22Z</time>
      </trkpt>
      <trkpt lat="47.22602" lon="6.04798">
        <ele>189.39999389648</ele>
        <time>2017-07-23T07:38:30Z</time>
      </trkpt>
      <trkpt lat="47.22596" lon="6.04747">
        <ele>189.39999389648</ele>
        <time>2017-07-23T07:38:36Z</time>
      </trkpt>
      <trkpt lat="47.22591" lon="6.0468">
        <ele>189.19999694824</ele>
        <time>2017-07-23T07:38:44Z</time>
      </trkpt>
      <trkpt lat="47.2259" lon="6.04664">
        <ele>189.19999694824</ele>
        <time>2017-07-23T07:38:46Z</time>
      </trkpt>
      <trkpt lat="47.22587" lon="6.04614">
        <ele>189.19999694824</ele>
        <time>2017-07-23T07:38:52Z</time>
      </trkpt>
      <trkpt lat="47.22585" lon="6.04556">
        <ele>189.39999389648</ele>
        <time>2017-07-23T07:38:59Z</time>
      </trkpt>
      <trkpt lat="47.22584" lon="6.04471">
        <ele>189.39999389648</ele>
        <time>2017-07-23T07:39:09Z</time>
      </trkpt>
      <trkpt lat="47.22595" lon="6.04402">
        <ele>189.60000610352</ele>
        <time>2017-07-23T07:39:17Z</time>
      </trkpt>
      <trkpt lat="47.22608" lon="6.04327">
        <ele>189.39999389648</ele>
        <time>2017-07-23T07:39:26Z</time>
      </trkpt>
      <trkpt lat="47.22622" lon="6.04266">
        <ele>189</ele>
        <time>2017-07-23T07:39:33Z</time>
      </trkpt>
      <trkpt lat="47.22642" lon="6.04199">
        <ele>188.80000305176</ele>
        <time>2017-07-23T07:39:41Z</time>
      </trkpt>
      <trkpt lat="47.22665" lon="6.04124">
        <ele>188.80000305176</ele>
        <time>2017-07-23T07:39:50Z</time>
      </trkpt>
      <trkpt lat="47.2269" lon="6.04064">
        <ele>188.60000610352</ele>
        <time>2017-07-23T07:39:58Z</time>
      </trkpt>
      <trkpt lat="47.22713" lon="6.04015">
        <ele>188.60000610352</ele>
        <time>2017-07-23T07:40:05Z</time>
      </trkpt>
      <trkpt lat="47.22736" lon="6.03975">
        <ele>188.39999389648</ele>
        <time>2017-07-23T07:40:11Z</time>
      </trkpt>
      <trkpt lat="47.22763" lon="6.0393">
        <ele>188.39999389648</ele>
        <time>2017-07-23T07:40:18Z</time>
      </trkpt>
      <trkpt lat="47.22792" lon="6.03901">
        <ele>188.39999389648</ele>
        <time>2017-07-23T07:40:24Z</time>
      </trkpt>
      <trkpt lat="47.22816" lon="6.0388">
        <ele>188.60000610352</ele>
        <time>2017-07-23T07:40:29Z</time>
      </trkpt>
      <trkpt lat="47.22826" lon="6.03875">
        <ele>188.60000610352</ele>
        <time>2017-07-23T07:40:31Z</time>
      </trkpt>
      <trkpt lat="47.2286" lon="6.0386">
        <ele>189</ele>
        <time>2017-07-23T07:40:38Z</time>
      </trkpt>
      <trkpt lat="47.22864" lon="6.03858">
        <ele>189.19999694824</ele>
        <time>2017-07-23T07:40:39Z</time>
      </trkpt>
      <trkpt lat="47.22888" lon="6.03842">
        <ele>190</ele>
        <time>2017-07-23T07:40:44Z</time>
      </trkpt>
      <trkpt lat="47.22916" lon="6.03817">
        <ele>190</ele>
        <time>2017-07-23T07:40:50Z</time>
      </trkpt>
      <trkpt lat="47.22956" lon="6.03785">
        <ele>189.80000305176</ele>
        <time>2017-07-23T07:40:58Z</time>
      </trkpt>
      <trkpt lat="47.22991" lon="6.03754">
        <ele>189.60000610352</ele>
        <time>2017-07-23T07:41:05Z</time>
      </trkpt>
      <trkpt lat="47.23023" lon="6.03728">
        <ele>189.60000610352</ele>
        <time>2017-07-23T07:41:11Z</time>
      </trkpt>
      <trkpt lat="47.23072" lon="6.03687">
        <ele>189.80000305176</ele>
        <time>2017-07-23T07:41:21Z</time>
      </trkpt>
      <trkpt lat="47.23077" lon="6.03683">
        <ele>189.80000305176</ele>
        <time>2017-07-23T07:41:22Z</time>
      </trkpt>
      <trkpt lat="47.23117" lon="6.03647">
        <ele>190</ele>
        <time>2017-07-23T07:41:31Z</time>
      </trkpt>
      <trkpt lat="47.23122" lon="6.03638">
        <ele>189.80000305176</ele>
        <time>2017-07-23T07:41:34Z</time>
      </trkpt>
      <trkpt lat="47.23125" lon="6.0364">
        <ele>189.80000305176</ele>
        <time>2017-07-23T07:41:38Z</time>
      </trkpt>
      <trkpt lat="47.23126" lon="6.0364">
        <ele>189.80000305176</ele>
        <time>2017-07-23T07:41:39Z</time>
      </trkpt>
      <trkpt lat="47.2313" lon="6.03634">
        <ele>189.60000610352</ele>
        <time>2017-07-23T07:41:42Z</time>
      </trkpt>
      <trkpt lat="47.23137" lon="6.03618">
        <ele>189.60000610352</ele>
        <time>2017-07-23T07:41:47Z</time>
      </trkpt>
      <trkpt lat="47.23139" lon="6.03615">
        <ele>189.60000610352</ele>
        <time>2017-07-23T07:41:48Z</time>
      </trkpt>
      <trkpt lat="47.23145" lon="6.03605">
        <ele>189.60000610352</ele>
        <time>2017-07-23T07:41:53Z</time>
      </trkpt>
      <trkpt lat="47.23143" lon="6.03607">
        <ele>189.39999389648</ele>
        <time>2017-07-23T07:42:09Z</time>
      </trkpt>
      <trkpt lat="47.23142" lon="6.0361">
        <ele>189.39999389648</ele>
        <time>2017-07-23T07:42:10Z</time>
      </trkpt>
      <trkpt lat="47.23133" lon="6.03625">
        <ele>189.60000610352</ele>
        <time>2017-07-23T07:42:15Z</time>
      </trkpt>
      <trkpt lat="47.2312" lon="6.03638">
        <ele>189.60000610352</ele>
        <time>2017-07-23T07:42:21Z</time>
      </trkpt>
      <trkpt lat="47.23123" lon="6.03627">
        <ele>189.60000610352</ele>
        <time>2017-07-23T07:42:24Z</time>
      </trkpt>
      <trkpt lat="47.23132" lon="6.03614">
        <ele>190</ele>
        <time>2017-07-23T07:42:28Z</time>
      </trkpt>
      <trkpt lat="47.23133" lon="6.0361">
        <ele>190.39999389648</ele>
        <time>2017-07-23T07:42:29Z</time>
      </trkpt>
      <trkpt lat="47.23134" lon="6.03599">
        <ele>191.39999389648</ele>
        <time>2017-07-23T07:42:33Z</time>
      </trkpt>
      <trkpt lat="47.23135" lon="6.03593">
        <ele>192</ele>
        <time>2017-07-23T07:42:36Z</time>
      </trkpt>
      <trkpt lat="47.23136" lon="6.03592">
        <ele>192.19999694824</ele>
        <time>2017-07-23T07:42:38Z</time>
      </trkpt>
      <trkpt lat="47.23137" lon="6.03592">
        <ele>192.39999389648</ele>
        <time>2017-07-23T07:42:39Z</time>
      </trkpt>
      <trkpt lat="47.23141" lon="6.03589">
        <ele>192.19999694824</ele>
        <time>2017-07-23T07:47:37Z</time>
      </trkpt>
      <trkpt lat="47.23143" lon="6.03588">
        <ele>192.19999694824</ele>
        <time>2017-07-23T07:47:38Z</time>
      </trkpt>
      <trkpt lat="47.2315" lon="6.0358">
        <ele>192.19999694824</ele>
        <time>2017-07-23T07:47:41Z</time>
      </trkpt>
      <trkpt lat="47.23155" lon="6.03576">
        <ele>192.19999694824</ele>
        <time>2017-07-23T07:47:43Z</time>
      </trkpt>
      <trkpt lat="47.23163" lon="6.0357">
        <ele>192</ele>
        <time>2017-07-23T07:47:49Z</time>
      </trkpt>
      <trkpt lat="47.23166" lon="6.03571">
        <ele>192</ele>
        <time>2017-07-23T07:47:51Z</time>
      </trkpt>
      <trkpt lat="47.23173" lon="6.03576">
        <ele>191.80000305176</ele>
        <time>2017-07-23T07:47:54Z</time>
      </trkpt>
      <trkpt lat="47.23183" lon="6.03585">
        <ele>191.60000610352</ele>
        <time>2017-07-23T07:47:57Z</time>
      </trkpt>
      <trkpt lat="47.23187" lon="6.03585">
        <ele>191.39999389648</ele>
        <time>2017-07-23T07:47:59Z</time>
      </trkpt>
      <trkpt lat="47.23188" lon="6.03586">
        <ele>191.39999389648</ele>
        <time>2017-07-23T07:48:00Z</time>
      </trkpt>
      <trkpt lat="47.23193" lon="6.03585">
        <ele>190.60000610352</ele>
        <time>2017-07-23T07:48:06Z</time>
      </trkpt>
      <trkpt lat="47.23204" lon="6.03588">
        <ele>190.19999694824</ele>
        <time>2017-07-23T07:48:09Z</time>
      </trkpt>
      <trkpt lat="47.23212" lon="6.0359">
        <ele>190.19999694824</ele>
        <time>2017-07-23T07:48:11Z</time>
      </trkpt>
      <trkpt lat="47.23225" lon="6.03593">
        <ele>190.19999694824</ele>
        <time>2017-07-23T07:48:14Z</time>
      </trkpt>
      <trkpt lat="47.2323" lon="6.03593">
        <ele>190</ele>
        <time>2017-07-23T07:48:15Z</time>
      </trkpt>
      <trkpt lat="47.23242" lon="6.03591">
        <ele>189.80000305176</ele>
        <time>2017-07-23T07:48:18Z</time>
      </trkpt>
      <trkpt lat="47.23254" lon="6.03587">
        <ele>189.60000610352</ele>
        <time>2017-07-23T07:48:21Z</time>
      </trkpt>
      <trkpt lat="47.2327" lon="6.03579">
        <ele>189.39999389648</ele>
        <time>2017-07-23T07:48:26Z</time>
      </trkpt>
      <trkpt lat="47.23279" lon="6.03576">
        <ele>189.39999389648</ele>
        <time>2017-07-23T07:48:28Z</time>
      </trkpt>
      <trkpt lat="47.23293" lon="6.03569">
        <ele>189.39999389648</ele>
        <time>2017-07-23T07:48:31Z</time>
      </trkpt>
      <trkpt lat="47.23302" lon="6.03565">
        <ele>189.60000610352</ele>
        <time>2017-07-23T07:48:33Z</time>
      </trkpt>
      <trkpt lat="47.23319" lon="6.03556">
        <ele>189.60000610352</ele>
        <time>2017-07-23T07:48:37Z</time>
      </trkpt>
      <trkpt lat="47.23341" lon="6.03544">
        <ele>189.60000610352</ele>
        <time>2017-07-23T07:48:42Z</time>
      </trkpt>
      <trkpt lat="47.23346" lon="6.03535">
        <ele>189.60000610352</ele>
        <time>2017-07-23T07:48:44Z</time>
      </trkpt>
      <trkpt lat="47.2335" lon="6.03521">
        <ele>189.39999389648</ele>
        <time>2017-07-23T07:48:47Z</time>
      </trkpt>
      <trkpt lat="47.23352" lon="6.03517">
        <ele>189.39999389648</ele>
        <time>2017-07-23T07:48:48Z</time>
      </trkpt>
      <trkpt lat="47.23361" lon="6.03512">
        <ele>189.60000610352</ele>
        <time>2017-07-23T07:48:52Z</time>
      </trkpt>
      <trkpt lat="47.23367" lon="6.03509">
        <ele>189.60000610352</ele>
        <time>2017-07-23T07:48:56Z</time>
      </trkpt>
      <trkpt lat="47.23363" lon="6.03509">
        <ele>189.80000305176</ele>
        <time>2017-07-23T07:48:59Z</time>
      </trkpt>
      <trkpt lat="47.23352" lon="6.0352">
        <ele>189.80000305176</ele>
        <time>2017-07-23T07:49:04Z</time>
      </trkpt>
      <trkpt lat="47.23347" lon="6.03521">
        <ele>189.80000305176</ele>
        <time>2017-07-23T07:49:06Z</time>
      </trkpt>
      <trkpt lat="47.23343" lon="6.03511">
        <ele>189.80000305176</ele>
        <time>2017-07-23T07:49:08Z</time>
      </trkpt>
      <trkpt lat="47.23337" lon="6.03495">
        <ele>189.60000610352</ele>
        <time>2017-07-23T07:49:11Z</time>
      </trkpt>
      <trkpt lat="47.23332" lon="6.03484">
        <ele>189.60000610352</ele>
        <time>2017-07-23T07:49:13Z</time>
      </trkpt>
      <trkpt lat="47.23328" lon="6.0347">
        <ele>189.39999389648</ele>
        <time>2017-07-23T07:49:15Z</time>
      </trkpt>
      <trkpt lat="47.23322" lon="6.03448">
        <ele>189.39999389648</ele>
        <time>2017-07-23T07:49:19Z</time>
      </trkpt>
      <trkpt lat="47.23317" lon="6.03424">
        <ele>190.60000610352</ele>
        <time>2017-07-23T07:49:25Z</time>
      </trkpt>
      <trkpt lat="47.23328" lon="6.03414">
        <ele>191</ele>
        <time>2017-07-23T07:49:28Z</time>
      </trkpt>
      <trkpt lat="47.23332" lon="6.03411">
        <ele>191</ele>
        <time>2017-07-23T07:49:29Z</time>
      </trkpt>
      <trkpt lat="47.23359" lon="6.03396">
        <ele>191.19999694824</ele>
        <time>2017-07-23T07:49:35Z</time>
      </trkpt>
      <trkpt lat="47.23379" lon="6.03378">
        <ele>190.80000305176</ele>
        <time>2017-07-23T07:49:40Z</time>
      </trkpt>
      <trkpt lat="47.23383" lon="6.03373">
        <ele>190.60000610352</ele>
        <time>2017-07-23T07:49:41Z</time>
      </trkpt>
      <trkpt lat="47.23387" lon="6.0337">
        <ele>190.60000610352</ele>
        <time>2017-07-23T07:49:42Z</time>
      </trkpt>
      <trkpt lat="47.23398" lon="6.03363">
        <ele>190.39999389648</ele>
        <time>2017-07-23T07:49:45Z</time>
      </trkpt>
      <trkpt lat="47.23405" lon="6.03355">
        <ele>190.19999694824</ele>
        <time>2017-07-23T07:49:49Z</time>
      </trkpt>
      <trkpt lat="47.23408" lon="6.03348">
        <ele>189.80000305176</ele>
        <time>2017-07-23T07:50:00Z</time>
      </trkpt>
      <trkpt lat="47.23409" lon="6.03346">
        <ele>189.80000305176</ele>
        <time>2017-07-23T07:50:01Z</time>
      </trkpt>
      <trkpt lat="47.23421" lon="6.03336">
        <ele>190</ele>
        <time>2017-07-23T07:50:05Z</time>
      </trkpt>
      <trkpt lat="47.23439" lon="6.0332">
        <ele>190.19999694824</ele>
        <time>2017-07-23T07:50:10Z</time>
      </trkpt>
      <trkpt lat="47.23453" lon="6.03306">
        <ele>190.19999694824</ele>
        <time>2017-07-23T07:50:13Z</time>
      </trkpt>
      <trkpt lat="47.23459" lon="6.03296">
        <ele>190.39999389648</ele>
        <time>2017-07-23T07:50:15Z</time>
      </trkpt>
      <trkpt lat="47.2347" lon="6.03274">
        <ele>190.80000305176</ele>
        <time>2017-07-23T07:50:19Z</time>
      </trkpt>
      <trkpt lat="47.23477" lon="6.03257">
        <ele>190.80000305176</ele>
        <time>2017-07-23T07:50:22Z</time>
      </trkpt>
      <trkpt lat="47.23494" lon="6.03223">
        <ele>190.60000610352</ele>
        <time>2017-07-23T07:50:29Z</time>
      </trkpt>
      <trkpt lat="47.23503" lon="6.03202">
        <ele>190.60000610352</ele>
        <time>2017-07-23T07:50:35Z</time>
      </trkpt>
      <trkpt lat="47.23503" lon="6.03206">
        <ele>190.60000610352</ele>
        <time>2017-07-23T07:50:38Z</time>
      </trkpt>
      <trkpt lat="47.23502" lon="6.03208">
        <ele>190.60000610352</ele>
        <time>2017-07-23T07:50:39Z</time>
      </trkpt>
      <trkpt lat="47.23502" lon="6.03206">
        <ele>190.60000610352</ele>
        <time>2017-07-23T07:50:43Z</time>
      </trkpt>
      <trkpt lat="47.23503" lon="6.03201">
        <ele>190.60000610352</ele>
        <time>2017-07-23T07:54:37Z</time>
      </trkpt>
      <trkpt lat="47.23506" lon="6.03198">
        <ele>190.60000610352</ele>
        <time>2017-07-23T07:54:39Z</time>
      </trkpt>
      <trkpt lat="47.23516" lon="6.03181">
        <ele>190.60000610352</ele>
        <time>2017-07-23T07:54:44Z</time>
      </trkpt>
      <trkpt lat="47.23527" lon="6.03155">
        <ele>190.80000305176</ele>
        <time>2017-07-23T07:54:51Z</time>
      </trkpt>
      <trkpt lat="47.23531" lon="6.03155">
        <ele>190.19999694824</ele>
        <time>2017-07-23T08:05:37Z</time>
      </trkpt>
      <trkpt lat="47.23531" lon="6.03159">
        <ele>190.19999694824</ele>
        <time>2017-07-23T08:05:40Z</time>
      </trkpt>
      <trkpt lat="47.23526" lon="6.03162">
        <ele>190.19999694824</ele>
        <time>2017-07-23T08:05:42Z</time>
      </trkpt>
      <trkpt lat="47.2352" lon="6.0317">
        <ele>190</ele>
        <time>2017-07-23T08:05:46Z</time>
      </trkpt>
      <trkpt lat="47.23515" lon="6.03176">
        <ele>190</ele>
        <time>2017-07-23T08:05:48Z</time>
      </trkpt>
      <trkpt lat="47.235" lon="6.032">
        <ele>190.19999694824</ele>
        <time>2017-07-23T08:05:55Z</time>
      </trkpt>
      <trkpt lat="47.23493" lon="6.03219">
        <ele>190</ele>
        <time>2017-07-23T08:06:00Z</time>
      </trkpt>
      <trkpt lat="47.23481" lon="6.0325">
        <ele>190</ele>
        <time>2017-07-23T08:06:06Z</time>
      </trkpt>
      <trkpt lat="47.23466" lon="6.03285">
        <ele>190</ele>
        <time>2017-07-23T08:06:12Z</time>
      </trkpt>
      <trkpt lat="47.23463" lon="6.03291">
        <ele>190</ele>
        <time>2017-07-23T08:06:13Z</time>
      </trkpt>
      <trkpt lat="47.23454" lon="6.03306">
        <ele>190</ele>
        <time>2017-07-23T08:06:16Z</time>
      </trkpt>
      <trkpt lat="47.23445" lon="6.03315">
        <ele>189.60000610352</ele>
        <time>2017-07-23T08:06:18Z</time>
      </trkpt>
      <trkpt lat="47.23429" lon="6.03331">
        <ele>189.39999389648</ele>
        <time>2017-07-23T08:06:22Z</time>
      </trkpt>
      <trkpt lat="47.23425" lon="6.03335">
        <ele>189.39999389648</ele>
        <time>2017-07-23T08:06:23Z</time>
      </trkpt>
      <trkpt lat="47.23414" lon="6.03344">
        <ele>189.39999389648</ele>
        <time>2017-07-23T08:06:26Z</time>
      </trkpt>
      <trkpt lat="47.23404" lon="6.03352">
        <ele>189.39999389648</ele>
        <time>2017-07-23T08:06:28Z</time>
      </trkpt>
      <trkpt lat="47.23378" lon="6.03376">
        <ele>189.60000610352</ele>
        <time>2017-07-23T08:06:35Z</time>
      </trkpt>
      <trkpt lat="47.23378" lon="6.03381">
        <ele>189.60000610352</ele>
        <time>2017-07-23T08:06:36Z</time>
      </trkpt>
      <trkpt lat="47.2338" lon="6.03391">
        <ele>189.60000610352</ele>
        <time>2017-07-23T08:06:38Z</time>
      </trkpt>
      <trkpt lat="47.23391" lon="6.03415">
        <ele>189.60000610352</ele>
        <time>2017-07-23T08:06:45Z</time>
      </trkpt>
      <trkpt lat="47.23394" lon="6.03416">
        <ele>189.80000305176</ele>
        <time>2017-07-23T08:06:47Z</time>
      </trkpt>
      <trkpt lat="47.23394" lon="6.03413">
        <ele>189.80000305176</ele>
        <time>2017-07-23T08:06:48Z</time>
      </trkpt>
      <trkpt lat="47.23386" lon="6.03399">
        <ele>190</ele>
        <time>2017-07-23T08:06:52Z</time>
      </trkpt>
      <trkpt lat="47.23384" lon="6.03388">
        <ele>190</ele>
        <time>2017-07-23T08:06:54Z</time>
      </trkpt>
      <trkpt lat="47.23377" lon="6.03377">
        <ele>189.80000305176</ele>
        <time>2017-07-23T08:06:57Z</time>
      </trkpt>
      <trkpt lat="47.23367" lon="6.03383">
        <ele>189.80000305176</ele>
        <time>2017-07-23T08:07:00Z</time>
      </trkpt>
      <trkpt lat="47.23359" lon="6.03388">
        <ele>189.80000305176</ele>
        <time>2017-07-23T08:07:02Z</time>
      </trkpt>
      <trkpt lat="47.23349" lon="6.03396">
        <ele>189.80000305176</ele>
        <time>2017-07-23T08:07:05Z</time>
      </trkpt>
      <trkpt lat="47.23327" lon="6.03415">
        <ele>190.19999694824</ele>
        <time>2017-07-23T08:07:12Z</time>
      </trkpt>
      <trkpt lat="47.23313" lon="6.03432">
        <ele>190.60000610352</ele>
        <time>2017-07-23T08:07:18Z</time>
      </trkpt>
      <trkpt lat="47.23318" lon="6.03445">
        <ele>190.80000305176</ele>
        <time>2017-07-23T08:07:21Z</time>
      </trkpt>
      <trkpt lat="47.23332" lon="6.03478">
        <ele>190.60000610352</ele>
        <time>2017-07-23T08:07:27Z</time>
      </trkpt>
      <trkpt lat="47.23349" lon="6.0352">
        <ele>189.39999389648</ele>
        <time>2017-07-23T08:07:34Z</time>
      </trkpt>
      <trkpt lat="47.23349" lon="6.03525">
        <ele>189.39999389648</ele>
        <time>2017-07-23T08:07:35Z</time>
      </trkpt>
      <trkpt lat="47.23344" lon="6.03534">
        <ele>189.19999694824</ele>
        <time>2017-07-23T08:07:37Z</time>
      </trkpt>
      <trkpt lat="47.23338" lon="6.03542">
        <ele>189.19999694824</ele>
        <time>2017-07-23T08:07:39Z</time>
      </trkpt>
      <trkpt lat="47.23326" lon="6.03553">
        <ele>189.19999694824</ele>
        <time>2017-07-23T08:07:42Z</time>
      </trkpt>
      <trkpt lat="47.23322" lon="6.03556">
        <ele>189.19999694824</ele>
        <time>2017-07-23T08:07:43Z</time>
      </trkpt>
      <trkpt lat="47.23318" lon="6.03557">
        <ele>189.19999694824</ele>
        <time>2017-07-23T08:07:44Z</time>
      </trkpt>
      <trkpt lat="47.233" lon="6.03566">
        <ele>189</ele>
        <time>2017-07-23T08:07:48Z</time>
      </trkpt>
      <trkpt lat="47.23295" lon="6.03568">
        <ele>189</ele>
        <time>2017-07-23T08:07:49Z</time>
      </trkpt>
      <trkpt lat="47.23271" lon="6.03578">
        <ele>189.19999694824</ele>
        <time>2017-07-23T08:07:54Z</time>
      </trkpt>
      <trkpt lat="47.23243" lon="6.03588">
        <ele>189.39999389648</ele>
        <time>2017-07-23T08:08:00Z</time>
      </trkpt>
      <trkpt lat="47.23234" lon="6.03591">
        <ele>189.60000610352</ele>
        <time>2017-07-23T08:08:02Z</time>
      </trkpt>
      <trkpt lat="47.23216" lon="6.03592">
        <ele>189.60000610352</ele>
        <time>2017-07-23T08:08:06Z</time>
      </trkpt>
      <trkpt lat="47.23207" lon="6.03592">
        <ele>189.60000610352</ele>
        <time>2017-07-23T08:08:08Z</time>
      </trkpt>
      <trkpt lat="47.23192" lon="6.03588">
        <ele>189.60000610352</ele>
        <time>2017-07-23T08:08:12Z</time>
      </trkpt>
      <trkpt lat="47.23175" lon="6.03581">
        <ele>190.19999694824</ele>
        <time>2017-07-23T08:08:17Z</time>
      </trkpt>
      <trkpt lat="47.23156" lon="6.03578">
        <ele>191</ele>
        <time>2017-07-23T08:08:23Z</time>
      </trkpt>
      <trkpt lat="47.23152" lon="6.03579">
        <ele>191.19999694824</ele>
        <time>2017-07-23T08:08:24Z</time>
      </trkpt>
      <trkpt lat="47.23139" lon="6.03592">
        <ele>191.80000305176</ele>
        <time>2017-07-23T08:08:29Z</time>
      </trkpt>
      <trkpt lat="47.23132" lon="6.036">
        <ele>191.80000305176</ele>
        <time>2017-07-23T08:08:34Z</time>
      </trkpt>
      <trkpt lat="47.23127" lon="6.03616">
        <ele>191.39999389648</ele>
        <time>2017-07-23T08:08:39Z</time>
      </trkpt>
      <trkpt lat="47.23124" lon="6.03622">
        <ele>191.39999389648</ele>
        <time>2017-07-23T08:08:40Z</time>
      </trkpt>
      <trkpt lat="47.23116" lon="6.03631">
        <ele>191.19999694824</ele>
        <time>2017-07-23T08:08:42Z</time>
      </trkpt>
      <trkpt lat="47.23116" lon="6.03641">
        <ele>190.80000305176</ele>
        <time>2017-07-23T08:08:44Z</time>
      </trkpt>
      <trkpt lat="47.23123" lon="6.0364">
        <ele>190</ele>
        <time>2017-07-23T08:08:46Z</time>
      </trkpt>
      <trkpt lat="47.23132" lon="6.03627">
        <ele>189</ele>
        <time>2017-07-23T08:08:49Z</time>
      </trkpt>
      <trkpt lat="47.23135" lon="6.03622">
        <ele>188.80000305176</ele>
        <time>2017-07-23T08:08:50Z</time>
      </trkpt>
      <trkpt lat="47.23138" lon="6.03617">
        <ele>188.80000305176</ele>
        <time>2017-07-23T08:08:51Z</time>
      </trkpt>
      <trkpt lat="47.23145" lon="6.03593">
        <ele>188.60000610352</ele>
        <time>2017-07-23T08:08:55Z</time>
      </trkpt>
      <trkpt lat="47.23143" lon="6.03578">
        <ele>188.60000610352</ele>
        <time>2017-07-23T08:08:58Z</time>
      </trkpt>
      <trkpt lat="47.2314" lon="6.03569">
        <ele>188.39999389648</ele>
        <time>2017-07-23T08:09:00Z</time>
      </trkpt>
      <trkpt lat="47.23133" lon="6.03543">
        <ele>188</ele>
        <time>2017-07-23T08:09:04Z</time>
      </trkpt>
      <trkpt lat="47.23128" lon="6.03529">
        <ele>187.80000305176</ele>
        <time>2017-07-23T08:09:06Z</time>
      </trkpt>
      <trkpt lat="47.2297" lon="6.03033">
        <ele>184.39999389648</ele>
        <time>2017-07-23T08:10:16Z</time>
      </trkpt>
      <trkpt lat="47.2297" lon="6.03042">
        <ele>183.39999389648</ele>
        <time>2017-07-23T08:10:19Z</time>
      </trkpt>
      <trkpt lat="47.22954" lon="6.0304">
        <ele>183.60000610352</ele>
        <time>2017-07-23T08:10:25Z</time>
      </trkpt>
      <trkpt lat="47.22938" lon="6.03037">
        <ele>183.80000305176</ele>
        <time>2017-07-23T08:10:31Z</time>
      </trkpt>
      <trkpt lat="47.22922" lon="6.0304">
        <ele>184</ele>
        <time>2017-07-23T08:10:36Z</time>
      </trkpt>
      <trkpt lat="47.229" lon="6.03051">
        <ele>184.19999694824</ele>
        <time>2017-07-23T08:10:41Z</time>
      </trkpt>
      <trkpt lat="47.22891" lon="6.03058">
        <ele>184.19999694824</ele>
        <time>2017-07-23T08:10:43Z</time>
      </trkpt>
      <trkpt lat="47.2288" lon="6.03073">
        <ele>184</ele>
        <time>2017-07-23T08:10:46Z</time>
      </trkpt>
      <trkpt lat="47.22862" lon="6.031">
        <ele>183.60000610352</ele>
        <time>2017-07-23T08:10:51Z</time>
      </trkpt>
      <trkpt lat="47.22859" lon="6.03105">
        <ele>183.60000610352</ele>
        <time>2017-07-23T08:10:52Z</time>
      </trkpt>
      <trkpt lat="47.22844" lon="6.03126">
        <ele>183.39999389648</ele>
        <time>2017-07-23T08:10:56Z</time>
      </trkpt>
      <trkpt lat="47.22835" lon="6.03143">
        <ele>183.60000610352</ele>
        <time>2017-07-23T08:10:59Z</time>
      </trkpt>
      <trkpt lat="47.22824" lon="6.03166">
        <ele>183.60000610352</ele>
        <time>2017-07-23T08:11:03Z</time>
      </trkpt>
      <trkpt lat="47.2282" lon="6.03171">
        <ele>183.60000610352</ele>
        <time>2017-07-23T08:11:04Z</time>
      </trkpt>
      <trkpt lat="47.22807" lon="6.03187">
        <ele>183.39999389648</ele>
        <time>2017-07-23T08:11:08Z</time>
      </trkpt>
      <trkpt lat="47.22798" lon="6.03193">
        <ele>183.19999694824</ele>
        <time>2017-07-23T08:11:10Z</time>
      </trkpt>
      <trkpt lat="47.22786" lon="6.03204">
        <ele>183.39999389648</ele>
        <time>2017-07-23T08:11:13Z</time>
      </trkpt>
      <trkpt lat="47.22769" lon="6.03217">
        <ele>183.39999389648</ele>
        <time>2017-07-23T08:11:17Z</time>
      </trkpt>
      <trkpt lat="47.22754" lon="6.03227">
        <ele>183.19999694824</ele>
        <time>2017-07-23T08:11:21Z</time>
      </trkpt>
      <trkpt lat="47.22746" lon="6.03229">
        <ele>183.39999389648</ele>
        <time>2017-07-23T08:11:23Z</time>
      </trkpt>
      <trkpt lat="47.22734" lon="6.03232">
        <ele>183.60000610352</ele>
        <time>2017-07-23T08:11:26Z</time>
      </trkpt>
      <trkpt lat="47.22717" lon="6.03239">
        <ele>184</ele>
        <time>2017-07-23T08:11:30Z</time>
      </trkpt>
      <trkpt lat="47.2271" lon="6.03242">
        <ele>184.39999389648</ele>
        <time>2017-07-23T08:11:32Z</time>
      </trkpt>
      <trkpt lat="47.22691" lon="6.03247">
        <ele>184.80000305176</ele>
        <time>2017-07-23T08:11:36Z</time>
      </trkpt>
      <trkpt lat="47.22654" lon="6.03257">
        <ele>183.80000305176</ele>
        <time>2017-07-23T08:11:42Z</time>
      </trkpt>
      <trkpt lat="47.22648" lon="6.03259">
        <ele>183.39999389648</ele>
        <time>2017-07-23T08:11:43Z</time>
      </trkpt>
      <trkpt lat="47.22623" lon="6.03263">
        <ele>182.39999389648</ele>
        <time>2017-07-23T08:11:47Z</time>
      </trkpt>
      <trkpt lat="47.22611" lon="6.03263">
        <ele>182.19999694824</ele>
        <time>2017-07-23T08:11:49Z</time>
      </trkpt>
      <trkpt lat="47.226" lon="6.03262">
        <ele>182.19999694824</ele>
        <time>2017-07-23T08:11:51Z</time>
      </trkpt>
      <trkpt lat="47.22583" lon="6.03255">
        <ele>182</ele>
        <time>2017-07-23T08:11:54Z</time>
      </trkpt>
      <trkpt lat="47.22572" lon="6.03248">
        <ele>182</ele>
        <time>2017-07-23T08:11:56Z</time>
      </trkpt>
      <trkpt lat="47.22557" lon="6.03236">
        <ele>182</ele>
        <time>2017-07-23T08:11:59Z</time>
      </trkpt>
      <trkpt lat="47.22525" lon="6.03203">
        <ele>182.39999389648</ele>
        <time>2017-07-23T08:12:06Z</time>
      </trkpt>
      <trkpt lat="47.22516" lon="6.03195">
        <ele>182.60000610352</ele>
        <time>2017-07-23T08:12:08Z</time>
      </trkpt>
      <trkpt lat="47.22502" lon="6.03188">
        <ele>182.80000305176</ele>
        <time>2017-07-23T08:12:11Z</time>
      </trkpt>
      <trkpt lat="47.22498" lon="6.03186">
        <ele>183</ele>
        <time>2017-07-23T08:12:12Z</time>
      </trkpt>
      <trkpt lat="47.22469" lon="6.03177">
        <ele>183.19999694824</ele>
        <time>2017-07-23T08:12:18Z</time>
      </trkpt>
      <trkpt lat="47.22447" lon="6.03167">
        <ele>183.19999694824</ele>
        <time>2017-07-23T08:12:23Z</time>
      </trkpt>
      <trkpt lat="47.22437" lon="6.03163">
        <ele>183.19999694824</ele>
        <time>2017-07-23T08:12:25Z</time>
      </trkpt>
      <trkpt lat="47.22398" lon="6.03143">
        <ele>183</ele>
        <time>2017-07-23T08:12:33Z</time>
      </trkpt>
      <trkpt lat="47.22393" lon="6.0314">
        <ele>183</ele>
        <time>2017-07-23T08:12:34Z</time>
      </trkpt>
      <trkpt lat="47.22367" lon="6.03126">
        <ele>183.19999694824</ele>
        <time>2017-07-23T08:12:39Z</time>
      </trkpt>
      <trkpt lat="47.22342" lon="6.03111">
        <ele>182.39999389648</ele>
        <time>2017-07-23T08:12:44Z</time>
      </trkpt>
      <trkpt lat="47.22336" lon="6.03107">
        <ele>182.39999389648</ele>
        <time>2017-07-23T08:12:45Z</time>
      </trkpt>
      <trkpt lat="47.22304" lon="6.0309">
        <ele>182.39999389648</ele>
        <time>2017-07-23T08:12:51Z</time>
      </trkpt>
      <trkpt lat="47.22278" lon="6.03076">
        <ele>182.60000610352</ele>
        <time>2017-07-23T08:12:56Z</time>
      </trkpt>
      <trkpt lat="47.22268" lon="6.0307">
        <ele>182.60000610352</ele>
        <time>2017-07-23T08:12:58Z</time>
      </trkpt>
      <trkpt lat="47.22215" lon="6.0304">
        <ele>182.60000610352</ele>
        <time>2017-07-23T08:13:08Z</time>
      </trkpt>
      <trkpt lat="47.22178" lon="6.03015">
        <ele>182.19999694824</ele>
        <time>2017-07-23T08:13:15Z</time>
      </trkpt>
      <trkpt lat="47.22138" lon="6.02981">
        <ele>182</ele>
        <time>2017-07-23T08:13:23Z</time>
      </trkpt>
      <trkpt lat="47.221" lon="6.02938">
        <ele>182.19999694824</ele>
        <time>2017-07-23T08:13:31Z</time>
      </trkpt>
      <trkpt lat="47.22071" lon="6.02895">
        <ele>182.19999694824</ele>
        <time>2017-07-23T08:13:38Z</time>
      </trkpt>
      <trkpt lat="47.22068" lon="6.02888">
        <ele>182.19999694824</ele>
        <time>2017-07-23T08:13:39Z</time>
      </trkpt>
      <trkpt lat="47.22046" lon="6.02849">
        <ele>182.39999389648</ele>
        <time>2017-07-23T08:13:45Z</time>
      </trkpt>
      <trkpt lat="47.22021" lon="6.0279">
        <ele>182.60000610352</ele>
        <time>2017-07-23T08:13:53Z</time>
      </trkpt>
      <trkpt lat="47.22004" lon="6.02715">
        <ele>182.80000305176</ele>
        <time>2017-07-23T08:14:02Z</time>
      </trkpt>
      <trkpt lat="47.21991" lon="6.02637">
        <ele>182.19999694824</ele>
        <time>2017-07-23T08:14:11Z</time>
      </trkpt>
      <trkpt lat="47.21982" lon="6.02559">
        <ele>182</ele>
        <time>2017-07-23T08:14:20Z</time>
      </trkpt>
      <trkpt lat="47.21974" lon="6.02491">
        <ele>182</ele>
        <time>2017-07-23T08:14:28Z</time>
      </trkpt>
      <trkpt lat="47.21964" lon="6.02435">
        <ele>182.19999694824</ele>
        <time>2017-07-23T08:14:35Z</time>
      </trkpt>
      <trkpt lat="47.21956" lon="6.02396">
        <ele>182.19999694824</ele>
        <time>2017-07-23T08:14:40Z</time>
      </trkpt>
      <trkpt lat="47.2195" lon="6.02383">
        <ele>182</ele>
        <time>2017-07-23T08:14:42Z</time>
      </trkpt>
      <trkpt lat="47.21936" lon="6.02342">
        <ele>182</ele>
        <time>2017-07-23T08:14:48Z</time>
      </trkpt>
      <trkpt lat="47.21912" lon="6.02289">
        <ele>182</ele>
        <time>2017-07-23T08:14:56Z</time>
      </trkpt>
      <trkpt lat="47.21893" lon="6.02242">
        <ele>181.39999389648</ele>
        <time>2017-07-23T08:15:02Z</time>
      </trkpt>
      <trkpt lat="47.21883" lon="6.0222">
        <ele>181.19999694824</ele>
        <time>2017-07-23T08:15:05Z</time>
      </trkpt>
      <trkpt lat="47.21857" lon="6.02161">
        <ele>181</ele>
        <time>2017-07-23T08:15:13Z</time>
      </trkpt>
      <trkpt lat="47.21828" lon="6.02092">
        <ele>181</ele>
        <time>2017-07-23T08:15:22Z</time>
      </trkpt>
      <trkpt lat="47.21806" lon="6.02043">
        <ele>180.80000305176</ele>
        <time>2017-07-23T08:15:29Z</time>
      </trkpt>
      <trkpt lat="47.21788" lon="6.02002">
        <ele>181</ele>
        <time>2017-07-23T08:15:35Z</time>
      </trkpt>
      <trkpt lat="47.21763" lon="6.01946">
        <ele>181.19999694824</ele>
        <time>2017-07-23T08:15:43Z</time>
      </trkpt>
      <trkpt lat="47.21753" lon="6.01918">
        <ele>181</ele>
        <time>2017-07-23T08:15:48Z</time>
      </trkpt>
      <trkpt lat="47.21746" lon="6.01905">
        <ele>181.19999694824</ele>
        <time>2017-07-23T08:15:52Z</time>
      </trkpt>
      <trkpt lat="47.21744" lon="6.01907">
        <ele>181.19999694824</ele>
        <time>2017-07-23T08:15:53Z</time>
      </trkpt>
      <trkpt lat="47.21748" lon="6.01915">
        <ele>181.39999389648</ele>
        <time>2017-07-23T08:15:56Z</time>
      </trkpt>
      <trkpt lat="47.21749" lon="6.01919">
        <ele>181.39999389648</ele>
        <time>2017-07-23T08:15:57Z</time>
      </trkpt>
      <trkpt lat="47.21758" lon="6.01941">
        <ele>181.19999694824</ele>
        <time>2017-07-23T08:16:02Z</time>
      </trkpt>
      <trkpt lat="47.21765" lon="6.01956">
        <ele>181</ele>
        <time>2017-07-23T08:16:07Z</time>
      </trkpt>
      <trkpt lat="47.21766" lon="6.0196">
        <ele>180.80000305176</ele>
        <time>2017-07-23T08:16:09Z</time>
      </trkpt>
      <trkpt lat="47.21763" lon="6.01952">
        <ele>180.19999694824</ele>
        <time>2017-07-23T08:19:46Z</time>
      </trkpt>
      <trkpt lat="47.21761" lon="6.01945">
        <ele>180.19999694824</ele>
        <time>2017-07-23T08:19:48Z</time>
      </trkpt>
      <trkpt lat="47.21751" lon="6.01916">
        <ele>180.60000610352</ele>
        <time>2017-07-23T08:19:55Z</time>
      </trkpt>
      <trkpt lat="47.21741" lon="6.01889">
        <ele>181.19999694824</ele>
        <time>2017-07-23T08:20:01Z</time>
      </trkpt>
      <trkpt lat="47.21735" lon="6.01858">
        <ele>181.19999694824</ele>
        <time>2017-07-23T08:20:05Z</time>
      </trkpt>
      <trkpt lat="47.21733" lon="6.0185">
        <ele>181.19999694824</ele>
        <time>2017-07-23T08:20:06Z</time>
      </trkpt>
      <trkpt lat="47.21723" lon="6.01819">
        <ele>180.60000610352</ele>
        <time>2017-07-23T08:20:10Z</time>
      </trkpt>
      <trkpt lat="47.2172" lon="6.01813">
        <ele>180.60000610352</ele>
        <time>2017-07-23T08:20:11Z</time>
      </trkpt>
      <trkpt lat="47.21715" lon="6.01796">
        <ele>180.80000305176</ele>
        <time>2017-07-23T08:20:14Z</time>
      </trkpt>
      <trkpt lat="47.21713" lon="6.01789">
        <ele>181</ele>
        <time>2017-07-23T08:20:15Z</time>
      </trkpt>
      <trkpt lat="47.21706" lon="6.01742">
        <ele>181.60000610352</ele>
        <time>2017-07-23T08:20:21Z</time>
      </trkpt>
      <trkpt lat="47.21702" lon="6.0169">
        <ele>181.60000610352</ele>
        <time>2017-07-23T08:20:27Z</time>
      </trkpt>
      <trkpt lat="47.21697" lon="6.01639">
        <ele>181.19999694824</ele>
        <time>2017-07-23T08:20:33Z</time>
      </trkpt>
      <trkpt lat="47.21692" lon="6.0158">
        <ele>181</ele>
        <time>2017-07-23T08:20:40Z</time>
      </trkpt>
      <trkpt lat="47.21691" lon="6.01572">
        <ele>181</ele>
        <time>2017-07-23T08:20:41Z</time>
      </trkpt>
      <trkpt lat="47.21689" lon="6.01505">
        <ele>181</ele>
        <time>2017-07-23T08:20:49Z</time>
      </trkpt>
      <trkpt lat="47.21685" lon="6.01432">
        <ele>181</ele>
        <time>2017-07-23T08:20:58Z</time>
      </trkpt>
      <trkpt lat="47.21676" lon="6.01346">
        <ele>180.80000305176</ele>
        <time>2017-07-23T08:21:09Z</time>
      </trkpt>
      <trkpt lat="47.21671" lon="6.01291">
        <ele>181</ele>
        <time>2017-07-23T08:21:16Z</time>
      </trkpt>
      <trkpt lat="47.21666" lon="6.01238">
        <ele>180.80000305176</ele>
        <time>2017-07-23T08:21:23Z</time>
      </trkpt>
      <trkpt lat="47.21664" lon="6.01187">
        <ele>181.39999389648</ele>
        <time>2017-07-23T08:21:30Z</time>
      </trkpt>
      <trkpt lat="47.21662" lon="6.01123">
        <ele>181.39999389648</ele>
        <time>2017-07-23T08:21:38Z</time>
      </trkpt>
      <trkpt lat="47.21658" lon="6.01045">
        <ele>181</ele>
        <time>2017-07-23T08:21:47Z</time>
      </trkpt>
      <trkpt lat="47.21652" lon="6.00961">
        <ele>180.80000305176</ele>
        <time>2017-07-23T08:21:57Z</time>
      </trkpt>
      <trkpt lat="47.21651" lon="6.00903">
        <ele>181.19999694824</ele>
        <time>2017-07-23T08:22:04Z</time>
      </trkpt>
      <trkpt lat="47.21648" lon="6.00844">
        <ele>181.39999389648</ele>
        <time>2017-07-23T08:22:11Z</time>
      </trkpt>
      <trkpt lat="47.21644" lon="6.00777">
        <ele>181.19999694824</ele>
        <time>2017-07-23T08:22:19Z</time>
      </trkpt>
      <trkpt lat="47.21638" lon="6.00713">
        <ele>181.39999389648</ele>
        <time>2017-07-23T08:22:27Z</time>
      </trkpt>
      <trkpt lat="47.2163" lon="6.00643">
        <ele>181.19999694824</ele>
        <time>2017-07-23T08:22:35Z</time>
      </trkpt>
      <trkpt lat="47.21623" lon="6.00583">
        <ele>181</ele>
        <time>2017-07-23T08:22:42Z</time>
      </trkpt>
      <trkpt lat="47.21614" lon="6.00517">
        <ele>181</ele>
        <time>2017-07-23T08:22:50Z</time>
      </trkpt>
      <trkpt lat="47.216" lon="6.0044">
        <ele>180.80000305176</ele>
        <time>2017-07-23T08:22:59Z</time>
      </trkpt>
      <trkpt lat="47.21583" lon="6.00382">
        <ele>180.80000305176</ele>
        <time>2017-07-23T08:23:06Z</time>
      </trkpt>
      <trkpt lat="47.2158" lon="6.00375">
        <ele>180.80000305176</ele>
        <time>2017-07-23T08:23:07Z</time>
      </trkpt>
      <trkpt lat="47.21564" lon="6.00341">
        <ele>181</ele>
        <time>2017-07-23T08:23:12Z</time>
      </trkpt>
      <trkpt lat="47.2156" lon="6.00335">
        <ele>181.19999694824</ele>
        <time>2017-07-23T08:23:13Z</time>
      </trkpt>
      <trkpt lat="47.21541" lon="6.00308">
        <ele>181.39999389648</ele>
        <time>2017-07-23T08:23:18Z</time>
      </trkpt>
      <trkpt lat="47.21513" lon="6.00268">
        <ele>181.60000610352</ele>
        <time>2017-07-23T08:23:25Z</time>
      </trkpt>
      <trkpt lat="47.21487" lon="6.0023">
        <ele>181.19999694824</ele>
        <time>2017-07-23T08:23:31Z</time>
      </trkpt>
      <trkpt lat="47.21452" lon="6.00185">
        <ele>180.80000305176</ele>
        <time>2017-07-23T08:23:38Z</time>
      </trkpt>
      <trkpt lat="47.21411" lon="6.0013">
        <ele>180.80000305176</ele>
        <time>2017-07-23T08:23:47Z</time>
      </trkpt>
      <trkpt lat="47.21373" lon="6.00087">
        <ele>180.80000305176</ele>
        <time>2017-07-23T08:23:55Z</time>
      </trkpt>
      <trkpt lat="47.21331" lon="6.00044">
        <ele>180.19999694824</ele>
        <time>2017-07-23T08:24:03Z</time>
      </trkpt>
      <trkpt lat="47.21299" lon="6.00011">
        <ele>180</ele>
        <time>2017-07-23T08:24:09Z</time>
      </trkpt>
      <trkpt lat="47.21265" lon="5.99978">
        <ele>179.19999694824</ele>
        <time>2017-07-23T08:24:15Z</time>
      </trkpt>
      <trkpt lat="47.2126" lon="5.99973">
        <ele>179.19999694824</ele>
        <time>2017-07-23T08:24:16Z</time>
      </trkpt>
      <trkpt lat="47.21214" lon="5.99927">
        <ele>179.39999389648</ele>
        <time>2017-07-23T08:24:25Z</time>
      </trkpt>
      <trkpt lat="47.21169" lon="5.99881">
        <ele>179.39999389648</ele>
        <time>2017-07-23T08:24:34Z</time>
      </trkpt>
      <trkpt lat="47.21122" lon="5.99837">
        <ele>179.39999389648</ele>
        <time>2017-07-23T08:24:43Z</time>
      </trkpt>
      <trkpt lat="47.21117" lon="5.99831">
        <ele>179.39999389648</ele>
        <time>2017-07-23T08:24:44Z</time>
      </trkpt>
      <trkpt lat="47.211" lon="5.99816">
        <ele>179.19999694824</ele>
        <time>2017-07-23T08:24:47Z</time>
      </trkpt>
      <trkpt lat="47.2109" lon="5.99807">
        <ele>179.39999389648</ele>
        <time>2017-07-23T08:24:49Z</time>
      </trkpt>
      <trkpt lat="47.21085" lon="5.99801">
        <ele>179.39999389648</ele>
        <time>2017-07-23T08:24:50Z</time>
      </trkpt>
      <trkpt lat="47.21066" lon="5.99783">
        <ele>179.60000610352</ele>
        <time>2017-07-23T08:24:54Z</time>
      </trkpt>
      <trkpt lat="47.21028" lon="5.99749">
        <ele>179.39999389648</ele>
        <time>2017-07-23T08:25:02Z</time>
      </trkpt>
      <trkpt lat="47.20994" lon="5.99714">
        <ele>179.60000610352</ele>
        <time>2017-07-23T08:25:10Z</time>
      </trkpt>
      <trkpt lat="47.2099" lon="5.99706">
        <ele>179.19999694824</ele>
        <time>2017-07-23T08:25:14Z</time>
      </trkpt>
      <trkpt lat="47.20992" lon="5.99714">
        <ele>179.19999694824</ele>
        <time>2017-07-23T08:26:35Z</time>
      </trkpt>
      <trkpt lat="47.20992" lon="5.99719">
        <ele>179.19999694824</ele>
        <time>2017-07-23T08:26:36Z</time>
      </trkpt>
      <trkpt lat="47.20986" lon="5.99738">
        <ele>179.39999389648</ele>
        <time>2017-07-23T08:26:40Z</time>
      </trkpt>
      <trkpt lat="47.20984" lon="5.99743">
        <ele>179.39999389648</ele>
        <time>2017-07-23T08:26:41Z</time>
      </trkpt>
      <trkpt lat="47.20971" lon="5.99771">
        <ele>179.60000610352</ele>
        <time>2017-07-23T08:26:46Z</time>
      </trkpt>
      <trkpt lat="47.20969" lon="5.99777">
        <ele>179.60000610352</ele>
        <time>2017-07-23T08:26:47Z</time>
      </trkpt>
      <trkpt lat="47.20957" lon="5.99819">
        <ele>179.80000305176</ele>
        <time>2017-07-23T08:26:53Z</time>
      </trkpt>
      <trkpt lat="47.20945" lon="5.9987">
        <ele>180.19999694824</ele>
        <time>2017-07-23T08:27:00Z</time>
      </trkpt>
      <trkpt lat="47.2094" lon="5.99882">
        <ele>180.39999389648</ele>
        <time>2017-07-23T08:27:02Z</time>
      </trkpt>
      <trkpt lat="47.20932" lon="5.99899">
        <ele>180.60000610352</ele>
        <time>2017-07-23T08:27:05Z</time>
      </trkpt>
      <trkpt lat="47.20914" lon="5.99941">
        <ele>181.19999694824</ele>
        <time>2017-07-23T08:27:12Z</time>
      </trkpt>
      <trkpt lat="47.20908" lon="5.99952">
        <ele>181.19999694824</ele>
        <time>2017-07-23T08:27:14Z</time>
      </trkpt>
      <trkpt lat="47.2089" lon="5.99991">
        <ele>181.80000305176</ele>
        <time>2017-07-23T08:27:21Z</time>
      </trkpt>
      <trkpt lat="47.20888" lon="5.99996">
        <ele>182</ele>
        <time>2017-07-23T08:27:22Z</time>
      </trkpt>
      <trkpt lat="47.20885" lon="6.00009">
        <ele>182</ele>
        <time>2017-07-23T08:27:25Z</time>
      </trkpt>
      <trkpt lat="47.20883" lon="6.0001">
        <ele>182.19999694824</ele>
        <time>2017-07-23T08:27:26Z</time>
      </trkpt>
      <trkpt lat="47.20879" lon="6.00008">
        <ele>182.39999389648</ele>
        <time>2017-07-23T08:27:28Z</time>
      </trkpt>
      <trkpt lat="47.2087" lon="6.00002">
        <ele>182.60000610352</ele>
        <time>2017-07-23T08:27:31Z</time>
      </trkpt>
      <trkpt lat="47.20866" lon="6">
        <ele>182.80000305176</ele>
        <time>2017-07-23T08:27:32Z</time>
      </trkpt>
      <trkpt lat="47.20861" lon="5.99998">
        <ele>182.80000305176</ele>
        <time>2017-07-23T08:27:33Z</time>
      </trkpt>
      <trkpt lat="47.20842" lon="5.99988">
        <ele>183.19999694824</ele>
        <time>2017-07-23T08:27:37Z</time>
      </trkpt>
      <trkpt lat="47.20817" lon="5.99974">
        <ele>183.39999389648</ele>
        <time>2017-07-23T08:27:42Z</time>
      </trkpt>
      <trkpt lat="47.20795" lon="5.99963">
        <ele>183.39999389648</ele>
        <time>2017-07-23T08:27:46Z</time>
      </trkpt>
      <trkpt lat="47.20745" lon="5.99934">
        <ele>183</ele>
        <time>2017-07-23T08:27:55Z</time>
      </trkpt>
      <trkpt lat="47.20739" lon="5.99931">
        <ele>183</ele>
        <time>2017-07-23T08:27:56Z</time>
      </trkpt>
      <trkpt lat="47.20687" lon="5.99903">
        <ele>183</ele>
        <time>2017-07-23T08:28:05Z</time>
      </trkpt>
      <trkpt lat="47.20635" lon="5.99876">
        <ele>182.39999389648</ele>
        <time>2017-07-23T08:28:14Z</time>
      </trkpt>
      <trkpt lat="47.20629" lon="5.99873">
        <ele>182.19999694824</ele>
        <time>2017-07-23T08:28:15Z</time>
      </trkpt>
      <trkpt lat="47.2059" lon="5.99851">
        <ele>182.19999694824</ele>
        <time>2017-07-23T08:28:22Z</time>
      </trkpt>
      <trkpt lat="47.20537" lon="5.99822">
        <ele>182.19999694824</ele>
        <time>2017-07-23T08:28:31Z</time>
      </trkpt>
      <trkpt lat="47.20525" lon="5.99817">
        <ele>182.19999694824</ele>
        <time>2017-07-23T08:28:33Z</time>
      </trkpt>
      <trkpt lat="47.20482" lon="5.99794">
        <ele>181.80000305176</ele>
        <time>2017-07-23T08:28:40Z</time>
      </trkpt>
      <trkpt lat="47.20431" lon="5.99765">
        <ele>182</ele>
        <time>2017-07-23T08:28:49Z</time>
      </trkpt>
      <trkpt lat="47.20392" lon="5.99737">
        <ele>182.80000305176</ele>
        <time>2017-07-23T08:28:57Z</time>
      </trkpt>
      <trkpt lat="47.20375" lon="5.99718">
        <ele>183.39999389648</ele>
        <time>2017-07-23T08:29:01Z</time>
      </trkpt>
      <trkpt lat="47.20364" lon="5.99705">
        <ele>183.80000305176</ele>
        <time>2017-07-23T08:29:04Z</time>
      </trkpt>
      <trkpt lat="47.20353" lon="5.9969">
        <ele>184.39999389648</ele>
        <time>2017-07-23T08:29:07Z</time>
      </trkpt>
      <trkpt lat="47.20331" lon="5.99662">
        <ele>185</ele>
        <time>2017-07-23T08:29:13Z</time>
      </trkpt>
      <trkpt lat="47.20321" lon="5.99648">
        <ele>185.39999389648</ele>
        <time>2017-07-23T08:29:16Z</time>
      </trkpt>
      <trkpt lat="47.20304" lon="5.99625">
        <ele>186.60000610352</ele>
        <time>2017-07-23T08:29:21Z</time>
      </trkpt>
      <trkpt lat="47.20297" lon="5.99616">
        <ele>187</ele>
        <time>2017-07-23T08:29:23Z</time>
      </trkpt>
      <trkpt lat="47.20282" lon="5.99598">
        <ele>187.80000305176</ele>
        <time>2017-07-23T08:29:27Z</time>
      </trkpt>
      <trkpt lat="47.20268" lon="5.99579">
        <ele>188</ele>
        <time>2017-07-23T08:29:31Z</time>
      </trkpt>
      <trkpt lat="47.20253" lon="5.99562">
        <ele>188.80000305176</ele>
        <time>2017-07-23T08:29:35Z</time>
      </trkpt>
      <trkpt lat="47.20232" lon="5.99535">
        <ele>189.60000610352</ele>
        <time>2017-07-23T08:29:41Z</time>
      </trkpt>
      <trkpt lat="47.20225" lon="5.99528">
        <ele>189.80000305176</ele>
        <time>2017-07-23T08:29:43Z</time>
      </trkpt>
      <trkpt lat="47.2021" lon="5.99512">
        <ele>190.19999694824</ele>
        <time>2017-07-23T08:29:47Z</time>
      </trkpt>
      <trkpt lat="47.20196" lon="5.99497">
        <ele>191</ele>
        <time>2017-07-23T08:29:51Z</time>
      </trkpt>
      <trkpt lat="47.2018" lon="5.99482">
        <ele>191.60000610352</ele>
        <time>2017-07-23T08:29:55Z</time>
      </trkpt>
      <trkpt lat="47.20169" lon="5.99471">
        <ele>192</ele>
        <time>2017-07-23T08:29:58Z</time>
      </trkpt>
      <trkpt lat="47.20158" lon="5.99457">
        <ele>192.19999694824</ele>
        <time>2017-07-23T08:30:01Z</time>
      </trkpt>
      <trkpt lat="47.20142" lon="5.99431">
        <ele>193</ele>
        <time>2017-07-23T08:30:06Z</time>
      </trkpt>
      <trkpt lat="47.20131" lon="5.99416">
        <ele>193.39999389648</ele>
        <time>2017-07-23T08:30:09Z</time>
      </trkpt>
      <trkpt lat="47.20112" lon="5.99384">
        <ele>194</ele>
        <time>2017-07-23T08:30:15Z</time>
      </trkpt>
      <trkpt lat="47.20103" lon="5.99368">
        <ele>194.39999389648</ele>
        <time>2017-07-23T08:30:18Z</time>
      </trkpt>
      <trkpt lat="47.20097" lon="5.99357">
        <ele>194.60000610352</ele>
        <time>2017-07-23T08:30:20Z</time>
      </trkpt>
      <trkpt lat="47.20088" lon="5.9934">
        <ele>195</ele>
        <time>2017-07-23T08:30:23Z</time>
      </trkpt>
      <trkpt lat="47.20083" lon="5.9933">
        <ele>195.19999694824</ele>
        <time>2017-07-23T08:30:25Z</time>
      </trkpt>
      <trkpt lat="47.20077" lon="5.9932">
        <ele>195.60000610352</ele>
        <time>2017-07-23T08:30:27Z</time>
      </trkpt>
      <trkpt lat="47.20066" lon="5.993">
        <ele>196.19999694824</ele>
        <time>2017-07-23T08:30:31Z</time>
      </trkpt>
      <trkpt lat="47.20041" lon="5.99253">
        <ele>197.19999694824</ele>
        <time>2017-07-23T08:30:40Z</time>
      </trkpt>
      <trkpt lat="47.20038" lon="5.99248">
        <ele>197.39999389648</ele>
        <time>2017-07-23T08:30:41Z</time>
      </trkpt>
      <trkpt lat="47.2002" lon="5.9922">
        <ele>198.39999389648</ele>
        <time>2017-07-23T08:30:47Z</time>
      </trkpt>
      <trkpt lat="47.20012" lon="5.99205">
        <ele>199</ele>
        <time>2017-07-23T08:30:50Z</time>
      </trkpt>
      <trkpt lat="47.19991" lon="5.99164">
        <ele>199.60000610352</ele>
        <time>2017-07-23T08:30:58Z</time>
      </trkpt>
      <trkpt lat="47.19986" lon="5.99154">
        <ele>199.80000305176</ele>
        <time>2017-07-23T08:31:00Z</time>
      </trkpt>
      <trkpt lat="47.19967" lon="5.99117">
        <ele>200.60000610352</ele>
        <time>2017-07-23T08:31:07Z</time>
      </trkpt>
      <trkpt lat="47.19962" lon="5.99107">
        <ele>201</ele>
        <time>2017-07-23T08:31:09Z</time>
      </trkpt>
      <trkpt lat="47.19944" lon="5.99076">
        <ele>201.80000305176</ele>
        <time>2017-07-23T08:31:15Z</time>
      </trkpt>
      <trkpt lat="47.1993" lon="5.99051">
        <ele>202.39999389648</ele>
        <time>2017-07-23T08:31:20Z</time>
      </trkpt>
      <trkpt lat="47.19922" lon="5.99036">
        <ele>202.80000305176</ele>
        <time>2017-07-23T08:31:23Z</time>
      </trkpt>
      <trkpt lat="47.19902" lon="5.99001">
        <ele>203.80000305176</ele>
        <time>2017-07-23T08:31:30Z</time>
      </trkpt>
      <trkpt lat="47.19896" lon="5.98991">
        <ele>203.80000305176</ele>
        <time>2017-07-23T08:31:32Z</time>
      </trkpt>
      <trkpt lat="47.19873" lon="5.9895">
        <ele>205</ele>
        <time>2017-07-23T08:31:40Z</time>
      </trkpt>
      <trkpt lat="47.1985" lon="5.98905">
        <ele>205.80000305176</ele>
        <time>2017-07-23T08:31:48Z</time>
      </trkpt>
      <trkpt lat="47.19845" lon="5.98894">
        <ele>206</ele>
        <time>2017-07-23T08:31:50Z</time>
      </trkpt>
      <trkpt lat="47.19831" lon="5.98868">
        <ele>206.80000305176</ele>
        <time>2017-07-23T08:31:55Z</time>
      </trkpt>
      <trkpt lat="47.19825" lon="5.98858">
        <ele>207.19999694824</ele>
        <time>2017-07-23T08:31:57Z</time>
      </trkpt>
      <trkpt lat="47.19807" lon="5.98827">
        <ele>208</ele>
        <time>2017-07-23T08:32:03Z</time>
      </trkpt>
      <trkpt lat="47.19802" lon="5.98817">
        <ele>208.19999694824</ele>
        <time>2017-07-23T08:32:05Z</time>
      </trkpt>
      <trkpt lat="47.19779" lon="5.9877">
        <ele>209.19999694824</ele>
        <time>2017-07-23T08:32:14Z</time>
      </trkpt>
      <trkpt lat="47.19757" lon="5.98724">
        <ele>210.39999389648</ele>
        <time>2017-07-23T08:32:23Z</time>
      </trkpt>
      <trkpt lat="47.19755" lon="5.98718">
        <ele>210.39999389648</ele>
        <time>2017-07-23T08:32:24Z</time>
      </trkpt>
      <trkpt lat="47.19743" lon="5.98665">
        <ele>211.39999389648</ele>
        <time>2017-07-23T08:32:32Z</time>
      </trkpt>
      <trkpt lat="47.19743" lon="5.98615">
        <ele>212.39999389648</ele>
        <time>2017-07-23T08:32:39Z</time>
      </trkpt>
      <trkpt lat="47.19743" lon="5.98608">
        <ele>212.60000610352</ele>
        <time>2017-07-23T08:32:40Z</time>
      </trkpt>
      <trkpt lat="47.19739" lon="5.98565">
        <ele>213.39999389648</ele>
        <time>2017-07-23T08:32:47Z</time>
      </trkpt>
      <trkpt lat="47.19739" lon="5.98559">
        <ele>213.60000610352</ele>
        <time>2017-07-23T08:32:48Z</time>
      </trkpt>
      <trkpt lat="47.19736" lon="5.98514">
        <ele>214.60000610352</ele>
        <time>2017-07-23T08:32:55Z</time>
      </trkpt>
      <trkpt lat="47.19735" lon="5.98501">
        <ele>214.80000305176</ele>
        <time>2017-07-23T08:32:57Z</time>
      </trkpt>
      <trkpt lat="47.19732" lon="5.98469">
        <ele>215.60000610352</ele>
        <time>2017-07-23T08:33:02Z</time>
      </trkpt>
      <trkpt lat="47.1973" lon="5.9845">
        <ele>215.80000305176</ele>
        <time>2017-07-23T08:33:05Z</time>
      </trkpt>
      <trkpt lat="47.19729" lon="5.98444">
        <ele>216</ele>
        <time>2017-07-23T08:33:06Z</time>
      </trkpt>
      <trkpt lat="47.19725" lon="5.98413">
        <ele>216.60000610352</ele>
        <time>2017-07-23T08:33:11Z</time>
      </trkpt>
      <trkpt lat="47.19721" lon="5.98395">
        <ele>217</ele>
        <time>2017-07-23T08:33:14Z</time>
      </trkpt>
      <trkpt lat="47.19718" lon="5.98364">
        <ele>217.60000610352</ele>
        <time>2017-07-23T08:33:19Z</time>
      </trkpt>
      <trkpt lat="47.19718" lon="5.98357">
        <ele>217.60000610352</ele>
        <time>2017-07-23T08:33:20Z</time>
      </trkpt>
      <trkpt lat="47.19717" lon="5.98345">
        <ele>217.80000305176</ele>
        <time>2017-07-23T08:33:22Z</time>
      </trkpt>
      <trkpt lat="47.19717" lon="5.98326">
        <ele>218.39999389648</ele>
        <time>2017-07-23T08:33:25Z</time>
      </trkpt>
      <trkpt lat="47.19716" lon="5.98307">
        <ele>218.80000305176</ele>
        <time>2017-07-23T08:33:28Z</time>
      </trkpt>
      <trkpt lat="47.19716" lon="5.98301">
        <ele>219</ele>
        <time>2017-07-23T08:33:29Z</time>
      </trkpt>
      <trkpt lat="47.19721" lon="5.98246">
        <ele>219.80000305176</ele>
        <time>2017-07-23T08:33:37Z</time>
      </trkpt>
      <trkpt lat="47.19727" lon="5.98194">
        <ele>221</ele>
        <time>2017-07-23T08:33:45Z</time>
      </trkpt>
      <trkpt lat="47.19729" lon="5.98181">
        <ele>221.19999694824</ele>
        <time>2017-07-23T08:33:47Z</time>
      </trkpt>
      <trkpt lat="47.19735" lon="5.98156">
        <ele>221.60000610352</ele>
        <time>2017-07-23T08:33:51Z</time>
      </trkpt>
      <trkpt lat="47.19739" lon="5.98145">
        <ele>222</ele>
        <time>2017-07-23T08:33:53Z</time>
      </trkpt>
      <trkpt lat="47.19748" lon="5.98119">
        <ele>223</ele>
        <time>2017-07-23T08:33:58Z</time>
      </trkpt>
      <trkpt lat="47.1975" lon="5.98114">
        <ele>223.19999694824</ele>
        <time>2017-07-23T08:33:59Z</time>
      </trkpt>
      <trkpt lat="47.19765" lon="5.98074">
        <ele>224.19999694824</ele>
        <time>2017-07-23T08:34:07Z</time>
      </trkpt>
      <trkpt lat="47.19768" lon="5.98064">
        <ele>224.39999389648</ele>
        <time>2017-07-23T08:34:09Z</time>
      </trkpt>
      <trkpt lat="47.19777" lon="5.98027">
        <ele>225.19999694824</ele>
        <time>2017-07-23T08:34:16Z</time>
      </trkpt>
      <trkpt lat="47.19778" lon="5.98021">
        <ele>225.39999389648</ele>
        <time>2017-07-23T08:34:17Z</time>
      </trkpt>
      <trkpt lat="47.19784" lon="5.97988">
        <ele>226.19999694824</ele>
        <time>2017-07-23T08:34:23Z</time>
      </trkpt>
      <trkpt lat="47.19788" lon="5.97966">
        <ele>227</ele>
        <time>2017-07-23T08:34:27Z</time>
      </trkpt>
      <trkpt lat="47.19792" lon="5.97944">
        <ele>227.39999389648</ele>
        <time>2017-07-23T08:34:31Z</time>
      </trkpt>
      <trkpt lat="47.19795" lon="5.97921">
        <ele>227.60000610352</ele>
        <time>2017-07-23T08:34:35Z</time>
      </trkpt>
      <trkpt lat="47.198" lon="5.97873">
        <ele>228.39999389648</ele>
        <time>2017-07-23T08:34:43Z</time>
      </trkpt>
      <trkpt lat="47.19801" lon="5.97861">
        <ele>228.80000305176</ele>
        <time>2017-07-23T08:34:45Z</time>
      </trkpt>
      <trkpt lat="47.19802" lon="5.97848">
        <ele>229</ele>
        <time>2017-07-23T08:34:47Z</time>
      </trkpt>
      <trkpt lat="47.19804" lon="5.9783">
        <ele>229.60000610352</ele>
        <time>2017-07-23T08:34:50Z</time>
      </trkpt>
      <trkpt lat="47.19805" lon="5.97818">
        <ele>229.80000305176</ele>
        <time>2017-07-23T08:34:52Z</time>
      </trkpt>
      <trkpt lat="47.19805" lon="5.97794">
        <ele>230.60000610352</ele>
        <time>2017-07-23T08:34:56Z</time>
      </trkpt>
      <trkpt lat="47.19806" lon="5.97769">
        <ele>231.19999694824</ele>
        <time>2017-07-23T08:35:00Z</time>
      </trkpt>
      <trkpt lat="47.19806" lon="5.97751">
        <ele>231.60000610352</ele>
        <time>2017-07-23T08:35:03Z</time>
      </trkpt>
      <trkpt lat="47.19807" lon="5.9772">
        <ele>232.19999694824</ele>
        <time>2017-07-23T08:35:08Z</time>
      </trkpt>
      <trkpt lat="47.19809" lon="5.97702">
        <ele>232.60000610352</ele>
        <time>2017-07-23T08:35:11Z</time>
      </trkpt>
      <trkpt lat="47.19809" lon="5.97696">
        <ele>232.80000305176</ele>
        <time>2017-07-23T08:35:12Z</time>
      </trkpt>
      <trkpt lat="47.19811" lon="5.97684">
        <ele>233.19999694824</ele>
        <time>2017-07-23T08:35:14Z</time>
      </trkpt>
      <trkpt lat="47.19811" lon="5.97678">
        <ele>233.19999694824</ele>
        <time>2017-07-23T08:35:15Z</time>
      </trkpt>
      <trkpt lat="47.19812" lon="5.97646">
        <ele>233.80000305176</ele>
        <time>2017-07-23T08:35:20Z</time>
      </trkpt>
      <trkpt lat="47.19812" lon="5.97627">
        <ele>234.19999694824</ele>
        <time>2017-07-23T08:35:23Z</time>
      </trkpt>
      <trkpt lat="47.19812" lon="5.97609">
        <ele>234.60000610352</ele>
        <time>2017-07-23T08:35:26Z</time>
      </trkpt>
      <trkpt lat="47.19812" lon="5.97596">
        <ele>234.80000305176</ele>
        <time>2017-07-23T08:35:28Z</time>
      </trkpt>
      <trkpt lat="47.19813" lon="5.97583">
        <ele>235.19999694824</ele>
        <time>2017-07-23T08:35:30Z</time>
      </trkpt>
      <trkpt lat="47.19816" lon="5.97539">
        <ele>236</ele>
        <time>2017-07-23T08:35:37Z</time>
      </trkpt>
      <trkpt lat="47.19816" lon="5.97533">
        <ele>236.19999694824</ele>
        <time>2017-07-23T08:35:38Z</time>
      </trkpt>
      <trkpt lat="47.19817" lon="5.97508">
        <ele>237</ele>
        <time>2017-07-23T08:35:42Z</time>
      </trkpt>
      <trkpt lat="47.19818" lon="5.97478">
        <ele>237.80000305176</ele>
        <time>2017-07-23T08:35:47Z</time>
      </trkpt>
      <trkpt lat="47.19818" lon="5.97466">
        <ele>238.19999694824</ele>
        <time>2017-07-23T08:35:49Z</time>
      </trkpt>
      <trkpt lat="47.19819" lon="5.97428">
        <ele>239</ele>
        <time>2017-07-23T08:35:55Z</time>
      </trkpt>
      <trkpt lat="47.19819" lon="5.97416">
        <ele>239.19999694824</ele>
        <time>2017-07-23T08:35:57Z</time>
      </trkpt>
      <trkpt lat="47.1982" lon="5.97372">
        <ele>240.39999389648</ele>
        <time>2017-07-23T08:36:04Z</time>
      </trkpt>
      <trkpt lat="47.19819" lon="5.97366">
        <ele>240.39999389648</ele>
        <time>2017-07-23T08:36:05Z</time>
      </trkpt>
      <trkpt lat="47.19819" lon="5.97336">
        <ele>241.60000610352</ele>
        <time>2017-07-23T08:36:10Z</time>
      </trkpt>
      <trkpt lat="47.19818" lon="5.97318">
        <ele>242</ele>
        <time>2017-07-23T08:36:13Z</time>
      </trkpt>
      <trkpt lat="47.19813" lon="5.97276">
        <ele>242.60000610352</ele>
        <time>2017-07-23T08:36:20Z</time>
      </trkpt>
      <trkpt lat="47.19811" lon="5.97265">
        <ele>242.60000610352</ele>
        <time>2017-07-23T08:36:22Z</time>
      </trkpt>
      <trkpt lat="47.19808" lon="5.97247">
        <ele>242.80000305176</ele>
        <time>2017-07-23T08:36:25Z</time>
      </trkpt>
      <trkpt lat="47.19804" lon="5.97223">
        <ele>243.39999389648</ele>
        <time>2017-07-23T08:36:29Z</time>
      </trkpt>
      <trkpt lat="47.19801" lon="5.97212">
        <ele>243.60000610352</ele>
        <time>2017-07-23T08:36:31Z</time>
      </trkpt>
      <trkpt lat="47.19794" lon="5.97185">
        <ele>244.19999694824</ele>
        <time>2017-07-23T08:36:36Z</time>
      </trkpt>
      <trkpt lat="47.19792" lon="5.9718">
        <ele>244.39999389648</ele>
        <time>2017-07-23T08:36:37Z</time>
      </trkpt>
      <trkpt lat="47.19787" lon="5.97158">
        <ele>244.60000610352</ele>
        <time>2017-07-23T08:36:41Z</time>
      </trkpt>
      <trkpt lat="47.19784" lon="5.97141">
        <ele>245</ele>
        <time>2017-07-23T08:36:44Z</time>
      </trkpt>
      <trkpt lat="47.19776" lon="5.97113">
        <ele>245.80000305176</ele>
        <time>2017-07-23T08:36:49Z</time>
      </trkpt>
      <trkpt lat="47.1977" lon="5.97091">
        <ele>246.39999389648</ele>
        <time>2017-07-23T08:36:53Z</time>
      </trkpt>
      <trkpt lat="47.19754" lon="5.97048">
        <ele>246.80000305176</ele>
        <time>2017-07-23T08:37:01Z</time>
      </trkpt>
      <trkpt lat="47.19752" lon="5.97043">
        <ele>247</ele>
        <time>2017-07-23T08:37:02Z</time>
      </trkpt>
      <trkpt lat="47.19731" lon="5.97">
        <ele>248</ele>
        <time>2017-07-23T08:37:11Z</time>
      </trkpt>
      <trkpt lat="47.19729" lon="5.96995">
        <ele>248</ele>
        <time>2017-07-23T08:37:12Z</time>
      </trkpt>
      <trkpt lat="47.19717" lon="5.9697">
        <ele>248.60000610352</ele>
        <time>2017-07-23T08:37:17Z</time>
      </trkpt>
      <trkpt lat="47.19712" lon="5.9696">
        <ele>248.80000305176</ele>
        <time>2017-07-23T08:37:19Z</time>
      </trkpt>
      <trkpt lat="47.1971" lon="5.96955">
        <ele>248.80000305176</ele>
        <time>2017-07-23T08:37:20Z</time>
      </trkpt>
      <trkpt lat="47.19696" lon="5.96931">
        <ele>249</ele>
        <time>2017-07-23T08:37:25Z</time>
      </trkpt>
      <trkpt lat="47.19685" lon="5.96913">
        <ele>249.60000610352</ele>
        <time>2017-07-23T08:37:29Z</time>
      </trkpt>
      <trkpt lat="47.19674" lon="5.96895">
        <ele>250.19999694824</ele>
        <time>2017-07-23T08:37:33Z</time>
      </trkpt>
      <trkpt lat="47.19662" lon="5.96879">
        <ele>250.60000610352</ele>
        <time>2017-07-23T08:37:37Z</time>
      </trkpt>
      <trkpt lat="47.19646" lon="5.96861">
        <ele>251.19999694824</ele>
        <time>2017-07-23T08:37:42Z</time>
      </trkpt>
      <trkpt lat="47.19635" lon="5.96851">
        <ele>251.39999389648</ele>
        <time>2017-07-23T08:37:45Z</time>
      </trkpt>
      <trkpt lat="47.19607" lon="5.9683">
        <ele>252.19999694824</ele>
        <time>2017-07-23T08:37:52Z</time>
      </trkpt>
      <trkpt lat="47.196" lon="5.96825">
        <ele>252.39999389648</ele>
        <time>2017-07-23T08:37:54Z</time>
      </trkpt>
      <trkpt lat="47.1957" lon="5.96806">
        <ele>253.19999694824</ele>
        <time>2017-07-23T08:38:01Z</time>
      </trkpt>
      <trkpt lat="47.19566" lon="5.96802">
        <ele>253.19999694824</ele>
        <time>2017-07-23T08:38:02Z</time>
      </trkpt>
      <trkpt lat="47.1955" lon="5.96778">
        <ele>254</ele>
        <time>2017-07-23T08:38:07Z</time>
      </trkpt>
      <trkpt lat="47.19547" lon="5.96773">
        <ele>254.19999694824</ele>
        <time>2017-07-23T08:38:08Z</time>
      </trkpt>
      <trkpt lat="47.19545" lon="5.96768">
        <ele>254.39999389648</ele>
        <time>2017-07-23T08:38:09Z</time>
      </trkpt>
      <trkpt lat="47.19532" lon="5.96743">
        <ele>255.39999389648</ele>
        <time>2017-07-23T08:38:14Z</time>
      </trkpt>
      <trkpt lat="47.19531" lon="5.96737">
        <ele>255.39999389648</ele>
        <time>2017-07-23T08:38:15Z</time>
      </trkpt>
      <trkpt lat="47.19527" lon="5.96726">
        <ele>255.80000305176</ele>
        <time>2017-07-23T08:38:17Z</time>
      </trkpt>
      <trkpt lat="47.19519" lon="5.96705">
        <ele>256.60000610352</ele>
        <time>2017-07-23T08:38:21Z</time>
      </trkpt>
      <trkpt lat="47.19509" lon="5.96678">
        <ele>257.39999389648</ele>
        <time>2017-07-23T08:38:26Z</time>
      </trkpt>
      <trkpt lat="47.19506" lon="5.96673">
        <ele>257.60000610352</ele>
        <time>2017-07-23T08:38:27Z</time>
      </trkpt>
      <trkpt lat="47.19484" lon="5.96643">
        <ele>258.39999389648</ele>
        <time>2017-07-23T08:38:34Z</time>
      </trkpt>
      <trkpt lat="47.19477" lon="5.96636">
        <ele>258.79998779297</ele>
        <time>2017-07-23T08:38:36Z</time>
      </trkpt>
      <trkpt lat="47.19457" lon="5.96617">
        <ele>259.60000610352</ele>
        <time>2017-07-23T08:38:42Z</time>
      </trkpt>
      <trkpt lat="47.19433" lon="5.96604">
        <ele>259.79998779297</ele>
        <time>2017-07-23T08:38:48Z</time>
      </trkpt>
      <trkpt lat="47.19429" lon="5.96602">
        <ele>259.79998779297</ele>
        <time>2017-07-23T08:38:49Z</time>
      </trkpt>
      <trkpt lat="47.19421" lon="5.96598">
        <ele>260.39999389648</ele>
        <time>2017-07-23T08:38:51Z</time>
      </trkpt>
      <trkpt lat="47.19409" lon="5.96594">
        <ele>260.79998779297</ele>
        <time>2017-07-23T08:38:54Z</time>
      </trkpt>
      <trkpt lat="47.19396" lon="5.96592">
        <ele>261.20001220703</ele>
        <time>2017-07-23T08:38:57Z</time>
      </trkpt>
      <trkpt lat="47.19369" lon="5.9659">
        <ele>261.79998779297</ele>
        <time>2017-07-23T08:39:04Z</time>
      </trkpt>
      <trkpt lat="47.19358" lon="5.96589">
        <ele>262.20001220703</ele>
        <time>2017-07-23T08:39:07Z</time>
      </trkpt>
      <trkpt lat="47.19331" lon="5.96588">
        <ele>262.60000610352</ele>
        <time>2017-07-23T08:39:14Z</time>
      </trkpt>
      <trkpt lat="47.19323" lon="5.96588">
        <ele>262.60000610352</ele>
        <time>2017-07-23T08:39:16Z</time>
      </trkpt>
      <trkpt lat="47.19305" lon="5.96592">
        <ele>263</ele>
        <time>2017-07-23T08:39:20Z</time>
      </trkpt>
      <trkpt lat="47.19301" lon="5.96593">
        <ele>263</ele>
        <time>2017-07-23T08:39:21Z</time>
      </trkpt>
      <trkpt lat="47.19265" lon="5.96601">
        <ele>263.79998779297</ele>
        <time>2017-07-23T08:39:29Z</time>
      </trkpt>
      <trkpt lat="47.1926" lon="5.96602">
        <ele>264</ele>
        <time>2017-07-23T08:39:30Z</time>
      </trkpt>
      <trkpt lat="47.19234" lon="5.96608">
        <ele>264.39999389648</ele>
        <time>2017-07-23T08:39:36Z</time>
      </trkpt>
      <trkpt lat="47.19211" lon="5.96615">
        <ele>265</ele>
        <time>2017-07-23T08:39:41Z</time>
      </trkpt>
      <trkpt lat="47.19202" lon="5.96618">
        <ele>265.20001220703</ele>
        <time>2017-07-23T08:39:43Z</time>
      </trkpt>
      <trkpt lat="47.19182" lon="5.96623">
        <ele>265.60000610352</ele>
        <time>2017-07-23T08:39:48Z</time>
      </trkpt>
      <trkpt lat="47.19173" lon="5.96625">
        <ele>265.79998779297</ele>
        <time>2017-07-23T08:39:50Z</time>
      </trkpt>
      <trkpt lat="47.19164" lon="5.96628">
        <ele>266</ele>
        <time>2017-07-23T08:39:52Z</time>
      </trkpt>
      <trkpt lat="47.1914" lon="5.96636">
        <ele>266.60000610352</ele>
        <time>2017-07-23T08:39:58Z</time>
      </trkpt>
      <trkpt lat="47.19118" lon="5.9664">
        <ele>267.20001220703</ele>
        <time>2017-07-23T08:40:03Z</time>
      </trkpt>
      <trkpt lat="47.19109" lon="5.96642">
        <ele>267.39999389648</ele>
        <time>2017-07-23T08:40:05Z</time>
      </trkpt>
      <trkpt lat="47.19082" lon="5.96648">
        <ele>268.20001220703</ele>
        <time>2017-07-23T08:40:11Z</time>
      </trkpt>
      <trkpt lat="47.19072" lon="5.96649">
        <ele>268.60000610352</ele>
        <time>2017-07-23T08:40:13Z</time>
      </trkpt>
      <trkpt lat="47.19037" lon="5.96644">
        <ele>269.39999389648</ele>
        <time>2017-07-23T08:40:21Z</time>
      </trkpt>
      <trkpt lat="47.19033" lon="5.96644">
        <ele>269.39999389648</ele>
        <time>2017-07-23T08:40:22Z</time>
      </trkpt>
      <trkpt lat="47.19006" lon="5.96645">
        <ele>270.39999389648</ele>
        <time>2017-07-23T08:40:28Z</time>
      </trkpt>
      <trkpt lat="47.19002" lon="5.96645">
        <ele>270.39999389648</ele>
        <time>2017-07-23T08:40:29Z</time>
      </trkpt>
      <trkpt lat="47.18973" lon="5.96644">
        <ele>270.79998779297</ele>
        <time>2017-07-23T08:40:35Z</time>
      </trkpt>
      <trkpt lat="47.18948" lon="5.96638">
        <ele>271.60000610352</ele>
        <time>2017-07-23T08:40:40Z</time>
      </trkpt>
      <trkpt lat="47.1893" lon="5.96632">
        <ele>272</ele>
        <time>2017-07-23T08:40:44Z</time>
      </trkpt>
      <trkpt lat="47.18912" lon="5.96624">
        <ele>272.60000610352</ele>
        <time>2017-07-23T08:40:48Z</time>
      </trkpt>
      <trkpt lat="47.18884" lon="5.96618">
        <ele>273.79998779297</ele>
        <time>2017-07-23T08:40:54Z</time>
      </trkpt>
      <trkpt lat="47.1887" lon="5.96616">
        <ele>274.20001220703</ele>
        <time>2017-07-23T08:40:57Z</time>
      </trkpt>
      <trkpt lat="47.18856" lon="5.96618">
        <ele>274.79998779297</ele>
        <time>2017-07-23T08:41:00Z</time>
      </trkpt>
      <trkpt lat="47.18852" lon="5.96619">
        <ele>275</ele>
        <time>2017-07-23T08:41:01Z</time>
      </trkpt>
      <trkpt lat="47.18827" lon="5.96625">
        <ele>275.39999389648</ele>
        <time>2017-07-23T08:41:06Z</time>
      </trkpt>
      <trkpt lat="47.18803" lon="5.96627">
        <ele>276</ele>
        <time>2017-07-23T08:41:11Z</time>
      </trkpt>
      <trkpt lat="47.18793" lon="5.96624">
        <ele>276.20001220703</ele>
        <time>2017-07-23T08:41:13Z</time>
      </trkpt>
      <trkpt lat="47.18775" lon="5.96614">
        <ele>277</ele>
        <time>2017-07-23T08:41:17Z</time>
      </trkpt>
      <trkpt lat="47.18765" lon="5.96608">
        <ele>277.39999389648</ele>
        <time>2017-07-23T08:41:19Z</time>
      </trkpt>
      <trkpt lat="47.1875" lon="5.966">
        <ele>278</ele>
        <time>2017-07-23T08:41:22Z</time>
      </trkpt>
      <trkpt lat="47.18733" lon="5.96587">
        <ele>278.60000610352</ele>
        <time>2017-07-23T08:41:26Z</time>
      </trkpt>
      <trkpt lat="47.1872" lon="5.96575">
        <ele>279.20001220703</ele>
        <time>2017-07-23T08:41:29Z</time>
      </trkpt>
      <trkpt lat="47.18704" lon="5.96563">
        <ele>279.79998779297</ele>
        <time>2017-07-23T08:41:33Z</time>
      </trkpt>
      <trkpt lat="47.18686" lon="5.96554">
        <ele>280.20001220703</ele>
        <time>2017-07-23T08:41:37Z</time>
      </trkpt>
      <trkpt lat="47.18663" lon="5.96545">
        <ele>280.60000610352</ele>
        <time>2017-07-23T08:41:42Z</time>
      </trkpt>
      <trkpt lat="47.18626" lon="5.9653">
        <ele>281.20001220703</ele>
        <time>2017-07-23T08:41:50Z</time>
      </trkpt>
      <trkpt lat="47.18602" lon="5.96512">
        <ele>281.20001220703</ele>
        <time>2017-07-23T08:41:56Z</time>
      </trkpt>
      <trkpt lat="47.18594" lon="5.96506">
        <ele>281.20001220703</ele>
        <time>2017-07-23T08:41:58Z</time>
      </trkpt>
      <trkpt lat="47.18572" lon="5.96482">
        <ele>281.79998779297</ele>
        <time>2017-07-23T08:42:04Z</time>
      </trkpt>
      <trkpt lat="47.18547" lon="5.96447">
        <ele>282</ele>
        <time>2017-07-23T08:42:11Z</time>
      </trkpt>
      <trkpt lat="47.18533" lon="5.96425">
        <ele>282</ele>
        <time>2017-07-23T08:42:15Z</time>
      </trkpt>
      <trkpt lat="47.18526" lon="5.96404">
        <ele>282.20001220703</ele>
        <time>2017-07-23T08:42:18Z</time>
      </trkpt>
      <trkpt lat="47.18508" lon="5.96351">
        <ele>282</ele>
        <time>2017-07-23T08:42:25Z</time>
      </trkpt>
      <trkpt lat="47.18482" lon="5.96317">
        <ele>282</ele>
        <time>2017-07-23T08:42:31Z</time>
      </trkpt>
      <trkpt lat="47.18453" lon="5.96294">
        <ele>282</ele>
        <time>2017-07-23T08:42:37Z</time>
      </trkpt>
      <trkpt lat="47.18432" lon="5.96296">
        <ele>281.79998779297</ele>
        <time>2017-07-23T08:42:41Z</time>
      </trkpt>
      <trkpt lat="47.18415" lon="5.96308">
        <ele>281.60000610352</ele>
        <time>2017-07-23T08:42:44Z</time>
      </trkpt>
      <trkpt lat="47.1841" lon="5.96312">
        <ele>281.60000610352</ele>
        <time>2017-07-23T08:42:45Z</time>
      </trkpt>
      <trkpt lat="47.18379" lon="5.96345">
        <ele>280.79998779297</ele>
        <time>2017-07-23T08:42:51Z</time>
      </trkpt>
      <trkpt lat="47.1837" lon="5.96353">
        <ele>280</ele>
        <time>2017-07-23T08:42:53Z</time>
      </trkpt>
      <trkpt lat="47.18353" lon="5.96363">
        <ele>279.39999389648</ele>
        <time>2017-07-23T08:42:57Z</time>
      </trkpt>
      <trkpt lat="47.18344" lon="5.96367">
        <ele>279</ele>
        <time>2017-07-23T08:42:59Z</time>
      </trkpt>
      <trkpt lat="47.1834" lon="5.96368">
        <ele>278.79998779297</ele>
        <time>2017-07-23T08:43:00Z</time>
      </trkpt>
      <trkpt lat="47.18333" lon="5.96368">
        <ele>278.39999389648</ele>
        <time>2017-07-23T08:43:02Z</time>
      </trkpt>
      <trkpt lat="47.18327" lon="5.96367">
        <ele>278</ele>
        <time>2017-07-23T08:43:05Z</time>
      </trkpt>
      <trkpt lat="47.18325" lon="5.9637">
        <ele>278</ele>
        <time>2017-07-23T08:43:07Z</time>
      </trkpt>
      <trkpt lat="47.1833" lon="5.96372">
        <ele>277.79998779297</ele>
        <time>2017-07-23T08:43:10Z</time>
      </trkpt>
      <trkpt lat="47.18342" lon="5.96367">
        <ele>278</ele>
        <time>2017-07-23T08:43:14Z</time>
      </trkpt>
      <trkpt lat="47.1835" lon="5.96363">
        <ele>278</ele>
        <time>2017-07-23T08:43:16Z</time>
      </trkpt>
      <trkpt lat="47.18362" lon="5.96355">
        <ele>277.79998779297</ele>
        <time>2017-07-23T08:43:20Z</time>
      </trkpt>
      <trkpt lat="47.18366" lon="5.96352">
        <ele>278</ele>
        <time>2017-07-23T08:43:22Z</time>
      </trkpt>
      <trkpt lat="47.18369" lon="5.96353">
        <ele>279.20001220703</ele>
        <time>2017-07-23T08:47:07Z</time>
      </trkpt>
      <trkpt lat="47.18365" lon="5.96355">
        <ele>279.20001220703</ele>
        <time>2017-07-23T08:47:09Z</time>
      </trkpt>
      <trkpt lat="47.18349" lon="5.96365">
        <ele>279</ele>
        <time>2017-07-23T08:47:14Z</time>
      </trkpt>
      <trkpt lat="47.18341" lon="5.96365">
        <ele>278.79998779297</ele>
        <time>2017-07-23T08:47:16Z</time>
      </trkpt>
      <trkpt lat="47.18337" lon="5.96364">
        <ele>278.60000610352</ele>
        <time>2017-07-23T08:47:17Z</time>
      </trkpt>
      <trkpt lat="47.18333" lon="5.96362">
        <ele>278.60000610352</ele>
        <time>2017-07-23T08:47:18Z</time>
      </trkpt>
      <trkpt lat="47.18314" lon="5.96341">
        <ele>278.20001220703</ele>
        <time>2017-07-23T08:47:23Z</time>
      </trkpt>
      <trkpt lat="47.1831" lon="5.96336">
        <ele>278</ele>
        <time>2017-07-23T08:47:24Z</time>
      </trkpt>
      <trkpt lat="47.18284" lon="5.96307">
        <ele>277.20001220703</ele>
        <time>2017-07-23T08:47:30Z</time>
      </trkpt>
      <trkpt lat="47.1828" lon="5.96302">
        <ele>277.20001220703</ele>
        <time>2017-07-23T08:47:31Z</time>
      </trkpt>
      <trkpt lat="47.18249" lon="5.96266">
        <ele>276.20001220703</ele>
        <time>2017-07-23T08:47:37Z</time>
      </trkpt>
      <trkpt lat="47.18244" lon="5.9626">
        <ele>276</ele>
        <time>2017-07-23T08:47:38Z</time>
      </trkpt>
      <trkpt lat="47.18225" lon="5.96239">
        <ele>274.79998779297</ele>
        <time>2017-07-23T08:47:41Z</time>
      </trkpt>
      <trkpt lat="47.18212" lon="5.96225">
        <ele>274.20001220703</ele>
        <time>2017-07-23T08:47:43Z</time>
      </trkpt>
      <trkpt lat="47.18205" lon="5.96217">
        <ele>273.79998779297</ele>
        <time>2017-07-23T08:47:44Z</time>
      </trkpt>
      <trkpt lat="47.18184" lon="5.96193">
        <ele>272.20001220703</ele>
        <time>2017-07-23T08:47:47Z</time>
      </trkpt>
      <trkpt lat="47.18162" lon="5.96169">
        <ele>270.79998779297</ele>
        <time>2017-07-23T08:47:50Z</time>
      </trkpt>
      <trkpt lat="47.18142" lon="5.96145">
        <ele>269.39999389648</ele>
        <time>2017-07-23T08:47:53Z</time>
      </trkpt>
      <trkpt lat="47.18123" lon="5.96121">
        <ele>268.39999389648</ele>
        <time>2017-07-23T08:47:56Z</time>
      </trkpt>
      <trkpt lat="47.18117" lon="5.96114">
        <ele>268.20001220703</ele>
        <time>2017-07-23T08:47:57Z</time>
      </trkpt>
      <trkpt lat="47.18085" lon="5.96072">
        <ele>267.60000610352</ele>
        <time>2017-07-23T08:48:03Z</time>
      </trkpt>
      <trkpt lat="47.18065" lon="5.96046">
        <ele>267.39999389648</ele>
        <time>2017-07-23T08:48:07Z</time>
      </trkpt>
      <trkpt lat="47.18044" lon="5.9602">
        <ele>267</ele>
        <time>2017-07-23T08:48:11Z</time>
      </trkpt>
      <trkpt lat="47.1802" lon="5.95981">
        <ele>266.20001220703</ele>
        <time>2017-07-23T08:48:16Z</time>
      </trkpt>
      <trkpt lat="47.18015" lon="5.95973">
        <ele>266</ele>
        <time>2017-07-23T08:48:17Z</time>
      </trkpt>
      <trkpt lat="47.17999" lon="5.95947">
        <ele>265.20001220703</ele>
        <time>2017-07-23T08:48:20Z</time>
      </trkpt>
      <trkpt lat="47.17981" lon="5.95921">
        <ele>264.20001220703</ele>
        <time>2017-07-23T08:48:23Z</time>
      </trkpt>
      <trkpt lat="47.17959" lon="5.95894">
        <ele>262.60000610352</ele>
        <time>2017-07-23T08:48:26Z</time>
      </trkpt>
      <trkpt lat="47.17951" lon="5.95884">
        <ele>261.20001220703</ele>
        <time>2017-07-23T08:48:27Z</time>
      </trkpt>
      <trkpt lat="47.17934" lon="5.95865">
        <ele>259.60000610352</ele>
        <time>2017-07-23T08:48:29Z</time>
      </trkpt>
      <trkpt lat="47.17917" lon="5.95845">
        <ele>257.79998779297</ele>
        <time>2017-07-23T08:48:31Z</time>
      </trkpt>
      <trkpt lat="47.17899" lon="5.95825">
        <ele>256</ele>
        <time>2017-07-23T08:48:33Z</time>
      </trkpt>
      <trkpt lat="47.1788" lon="5.95804">
        <ele>254.19999694824</ele>
        <time>2017-07-23T08:48:35Z</time>
      </trkpt>
      <trkpt lat="47.17871" lon="5.95793">
        <ele>253.19999694824</ele>
        <time>2017-07-23T08:48:36Z</time>
      </trkpt>
      <trkpt lat="47.17861" lon="5.95783">
        <ele>252</ele>
        <time>2017-07-23T08:48:37Z</time>
      </trkpt>
      <trkpt lat="47.17852" lon="5.95772">
        <ele>251</ele>
        <time>2017-07-23T08:48:38Z</time>
      </trkpt>
      <trkpt lat="47.17843" lon="5.95762">
        <ele>250</ele>
        <time>2017-07-23T08:48:39Z</time>
      </trkpt>
      <trkpt lat="47.17825" lon="5.95742">
        <ele>248.19999694824</ele>
        <time>2017-07-23T08:48:41Z</time>
      </trkpt>
      <trkpt lat="47.17807" lon="5.95722">
        <ele>246.60000610352</ele>
        <time>2017-07-23T08:48:43Z</time>
      </trkpt>
      <trkpt lat="47.17799" lon="5.95713">
        <ele>246</ele>
        <time>2017-07-23T08:48:44Z</time>
      </trkpt>
      <trkpt lat="47.1779" lon="5.95703">
        <ele>245.19999694824</ele>
        <time>2017-07-23T08:48:45Z</time>
      </trkpt>
      <trkpt lat="47.17773" lon="5.95685">
        <ele>243.80000305176</ele>
        <time>2017-07-23T08:48:47Z</time>
      </trkpt>
      <trkpt lat="47.17756" lon="5.95666">
        <ele>242.80000305176</ele>
        <time>2017-07-23T08:48:49Z</time>
      </trkpt>
      <trkpt lat="47.17747" lon="5.95656">
        <ele>242.19999694824</ele>
        <time>2017-07-23T08:48:50Z</time>
      </trkpt>
      <trkpt lat="47.17739" lon="5.95647">
        <ele>241.19999694824</ele>
        <time>2017-07-23T08:48:51Z</time>
      </trkpt>
      <trkpt lat="47.17722" lon="5.95628">
        <ele>239.80000305176</ele>
        <time>2017-07-23T08:48:53Z</time>
      </trkpt>
      <trkpt lat="47.17705" lon="5.95609">
        <ele>238.60000610352</ele>
        <time>2017-07-23T08:48:55Z</time>
      </trkpt>
      <trkpt lat="47.17682" lon="5.95582">
        <ele>237.19999694824</ele>
        <time>2017-07-23T08:48:58Z</time>
      </trkpt>
      <trkpt lat="47.17653" lon="5.95551">
        <ele>236.19999694824</ele>
        <time>2017-07-23T08:49:02Z</time>
      </trkpt>
      <trkpt lat="47.1764" lon="5.95535">
        <ele>235.80000305176</ele>
        <time>2017-07-23T08:49:04Z</time>
      </trkpt>
      <trkpt lat="47.17607" lon="5.95499">
        <ele>235.19999694824</ele>
        <time>2017-07-23T08:49:09Z</time>
      </trkpt>
      <trkpt lat="47.17588" lon="5.95478">
        <ele>234.60000610352</ele>
        <time>2017-07-23T08:49:12Z</time>
      </trkpt>
      <trkpt lat="47.17569" lon="5.95457">
        <ele>234</ele>
        <time>2017-07-23T08:49:15Z</time>
      </trkpt>
      <trkpt lat="47.17538" lon="5.95422">
        <ele>233</ele>
        <time>2017-07-23T08:49:20Z</time>
      </trkpt>
      <trkpt lat="47.17526" lon="5.95408">
        <ele>232.80000305176</ele>
        <time>2017-07-23T08:49:22Z</time>
      </trkpt>
      <trkpt lat="47.17492" lon="5.95369">
        <ele>232.60000610352</ele>
        <time>2017-07-23T08:49:28Z</time>
      </trkpt>
      <trkpt lat="47.17449" lon="5.9532">
        <ele>232</ele>
        <time>2017-07-23T08:49:36Z</time>
      </trkpt>
      <trkpt lat="47.17443" lon="5.95314">
        <ele>231.80000305176</ele>
        <time>2017-07-23T08:49:37Z</time>
      </trkpt>
      <trkpt lat="47.17411" lon="5.95279">
        <ele>230.80000305176</ele>
        <time>2017-07-23T08:49:43Z</time>
      </trkpt>
      <trkpt lat="47.17406" lon="5.95273">
        <ele>230.60000610352</ele>
        <time>2017-07-23T08:49:44Z</time>
      </trkpt>
      <trkpt lat="47.17372" lon="5.95234">
        <ele>229.80000305176</ele>
        <time>2017-07-23T08:49:51Z</time>
      </trkpt>
      <trkpt lat="47.17341" lon="5.95198">
        <ele>229.39999389648</ele>
        <time>2017-07-23T08:49:58Z</time>
      </trkpt>
      <trkpt lat="47.1732" lon="5.95171">
        <ele>229</ele>
        <time>2017-07-23T08:50:04Z</time>
      </trkpt>
      <trkpt lat="47.17318" lon="5.9516">
        <ele>228.80000305176</ele>
        <time>2017-07-23T08:50:08Z</time>
      </trkpt>
      <trkpt lat="47.17323" lon="5.95152">
        <ele>228.60000610352</ele>
        <time>2017-07-23T08:50:10Z</time>
      </trkpt>
      <trkpt lat="47.17327" lon="5.95149">
        <ele>228.60000610352</ele>
        <time>2017-07-23T08:50:11Z</time>
      </trkpt>
      <trkpt lat="47.17339" lon="5.95146">
        <ele>228.39999389648</ele>
        <time>2017-07-23T08:50:13Z</time>
      </trkpt>
      <trkpt lat="47.17351" lon="5.95142">
        <ele>227.60000610352</ele>
        <time>2017-07-23T08:50:15Z</time>
      </trkpt>
      <trkpt lat="47.1737" lon="5.95136">
        <ele>226.19999694824</ele>
        <time>2017-07-23T08:50:18Z</time>
      </trkpt>
      <trkpt lat="47.17391" lon="5.95131">
        <ele>225.60000610352</ele>
        <time>2017-07-23T08:50:21Z</time>
      </trkpt>
      <trkpt lat="47.17405" lon="5.95127">
        <ele>225</ele>
        <time>2017-07-23T08:50:23Z</time>
      </trkpt>
      <trkpt lat="47.17421" lon="5.95125">
        <ele>224.39999389648</ele>
        <time>2017-07-23T08:50:25Z</time>
      </trkpt>
      <trkpt lat="47.17429" lon="5.95125">
        <ele>224</ele>
        <time>2017-07-23T08:50:26Z</time>
      </trkpt>
      <trkpt lat="47.17438" lon="5.95127">
        <ele>223.39999389648</ele>
        <time>2017-07-23T08:50:27Z</time>
      </trkpt>
      <trkpt lat="47.17454" lon="5.95129">
        <ele>222.60000610352</ele>
        <time>2017-07-23T08:50:29Z</time>
      </trkpt>
      <trkpt lat="47.17461" lon="5.95131">
        <ele>222.19999694824</ele>
        <time>2017-07-23T08:50:30Z</time>
      </trkpt>
      <trkpt lat="47.17476" lon="5.95135">
        <ele>221.39999389648</ele>
        <time>2017-07-23T08:50:32Z</time>
      </trkpt>
      <trkpt lat="47.17484" lon="5.95135">
        <ele>220.80000305176</ele>
        <time>2017-07-23T08:50:33Z</time>
      </trkpt>
      <trkpt lat="47.175" lon="5.95131">
        <ele>220</ele>
        <time>2017-07-23T08:50:35Z</time>
      </trkpt>
      <trkpt lat="47.17523" lon="5.95115">
        <ele>218.80000305176</ele>
        <time>2017-07-23T08:50:38Z</time>
      </trkpt>
      <trkpt lat="47.1753" lon="5.95107">
        <ele>218.19999694824</ele>
        <time>2017-07-23T08:50:39Z</time>
      </trkpt>
      <trkpt lat="47.17542" lon="5.9509">
        <ele>217.60000610352</ele>
        <time>2017-07-23T08:50:41Z</time>
      </trkpt>
      <trkpt lat="47.17547" lon="5.9508">
        <ele>217.19999694824</ele>
        <time>2017-07-23T08:50:42Z</time>
      </trkpt>
      <trkpt lat="47.17551" lon="5.95071">
        <ele>216.80000305176</ele>
        <time>2017-07-23T08:50:44Z</time>
      </trkpt>
      <trkpt lat="47.17555" lon="5.9506">
        <ele>216.39999389648</ele>
        <time>2017-07-23T08:50:45Z</time>
      </trkpt>
      <trkpt lat="47.17558" lon="5.95035">
        <ele>215.39999389648</ele>
        <time>2017-07-23T08:50:47Z</time>
      </trkpt>
      <trkpt lat="47.17554" lon="5.94997">
        <ele>213.80000305176</ele>
        <time>2017-07-23T08:50:50Z</time>
      </trkpt>
      <trkpt lat="47.17551" lon="5.94985">
        <ele>213.39999389648</ele>
        <time>2017-07-23T08:50:51Z</time>
      </trkpt>
      <trkpt lat="47.17548" lon="5.94973">
        <ele>212.39999389648</ele>
        <time>2017-07-23T08:50:52Z</time>
      </trkpt>
      <trkpt lat="47.17541" lon="5.94952">
        <ele>211.39999389648</ele>
        <time>2017-07-23T08:50:54Z</time>
      </trkpt>
      <trkpt lat="47.17537" lon="5.94942">
        <ele>210.80000305176</ele>
        <time>2017-07-23T08:50:55Z</time>
      </trkpt>
      <trkpt lat="47.17532" lon="5.94932">
        <ele>210.19999694824</ele>
        <time>2017-07-23T08:50:56Z</time>
      </trkpt>
      <trkpt lat="47.17518" lon="5.94906">
        <ele>208.80000305176</ele>
        <time>2017-07-23T08:50:59Z</time>
      </trkpt>
      <trkpt lat="47.17512" lon="5.94897">
        <ele>208.39999389648</ele>
        <time>2017-07-23T08:51:00Z</time>
      </trkpt>
      <trkpt lat="47.17501" lon="5.9488">
        <ele>207.39999389648</ele>
        <time>2017-07-23T08:51:02Z</time>
      </trkpt>
      <trkpt lat="47.1748" lon="5.94858">
        <ele>206</ele>
        <time>2017-07-23T08:51:05Z</time>
      </trkpt>
      <trkpt lat="47.17456" lon="5.94841">
        <ele>204.80000305176</ele>
        <time>2017-07-23T08:51:08Z</time>
      </trkpt>
      <trkpt lat="47.1744" lon="5.94829">
        <ele>204</ele>
        <time>2017-07-23T08:51:10Z</time>
      </trkpt>
      <trkpt lat="47.17432" lon="5.94823">
        <ele>203.60000610352</ele>
        <time>2017-07-23T08:51:11Z</time>
      </trkpt>
      <trkpt lat="47.17417" lon="5.9481">
        <ele>202.60000610352</ele>
        <time>2017-07-23T08:51:13Z</time>
      </trkpt>
      <trkpt lat="47.17404" lon="5.94796">
        <ele>201.60000610352</ele>
        <time>2017-07-23T08:51:15Z</time>
      </trkpt>
      <trkpt lat="47.17398" lon="5.94787">
        <ele>200.60000610352</ele>
        <time>2017-07-23T08:51:16Z</time>
      </trkpt>
      <trkpt lat="47.17395" lon="5.94771">
        <ele>199.80000305176</ele>
        <time>2017-07-23T08:51:18Z</time>
      </trkpt>
      <trkpt lat="47.17396" lon="5.94766">
        <ele>199.19999694824</ele>
        <time>2017-07-23T08:51:19Z</time>
      </trkpt>
      <trkpt lat="47.17397" lon="5.9476">
        <ele>197</ele>
        <time>2017-07-23T08:51:27Z</time>
      </trkpt>
      <trkpt lat="47.17402" lon="5.94752">
        <ele>196.80000305176</ele>
        <time>2017-07-23T08:51:30Z</time>
      </trkpt>
      <trkpt lat="47.17411" lon="5.94742">
        <ele>196.80000305176</ele>
        <time>2017-07-23T08:51:33Z</time>
      </trkpt>
      <trkpt lat="47.17415" lon="5.9474">
        <ele>196.80000305176</ele>
        <time>2017-07-23T08:51:34Z</time>
      </trkpt>
      <trkpt lat="47.17433" lon="5.94742">
        <ele>196.80000305176</ele>
        <time>2017-07-23T08:51:38Z</time>
      </trkpt>
      <trkpt lat="47.17449" lon="5.94757">
        <ele>196.80000305176</ele>
        <time>2017-07-23T08:51:42Z</time>
      </trkpt>
      <trkpt lat="47.17452" lon="5.94762">
        <ele>196.80000305176</ele>
        <time>2017-07-23T08:51:43Z</time>
      </trkpt>
      <trkpt lat="47.17456" lon="5.94767">
        <ele>197</ele>
        <time>2017-07-23T08:51:44Z</time>
      </trkpt>
      <trkpt lat="47.17472" lon="5.94782">
        <ele>197</ele>
        <time>2017-07-23T08:51:48Z</time>
      </trkpt>
      <trkpt lat="47.17477" lon="5.94783">
        <ele>197</ele>
        <time>2017-07-23T08:51:49Z</time>
      </trkpt>
      <trkpt lat="47.17496" lon="5.94778">
        <ele>196.60000610352</ele>
        <time>2017-07-23T08:51:53Z</time>
      </trkpt>
      <trkpt lat="47.175" lon="5.94774">
        <ele>196.60000610352</ele>
        <time>2017-07-23T08:51:54Z</time>
      </trkpt>
      <trkpt lat="47.1752" lon="5.94759">
        <ele>196.19999694824</ele>
        <time>2017-07-23T08:51:58Z</time>
      </trkpt>
      <trkpt lat="47.17537" lon="5.94744">
        <ele>195.80000305176</ele>
        <time>2017-07-23T08:52:01Z</time>
      </trkpt>
      <trkpt lat="47.17543" lon="5.94738">
        <ele>195.60000610352</ele>
        <time>2017-07-23T08:52:02Z</time>
      </trkpt>
      <trkpt lat="47.17571" lon="5.94715">
        <ele>194.60000610352</ele>
        <time>2017-07-23T08:52:06Z</time>
      </trkpt>
      <trkpt lat="47.17609" lon="5.94694">
        <ele>193.60000610352</ele>
        <time>2017-07-23T08:52:11Z</time>
      </trkpt>
      <trkpt lat="47.17624" lon="5.94683">
        <ele>192.80000305176</ele>
        <time>2017-07-23T08:52:13Z</time>
      </trkpt>
      <trkpt lat="47.17632" lon="5.94676">
        <ele>192.39999389648</ele>
        <time>2017-07-23T08:52:14Z</time>
      </trkpt>
      <trkpt lat="47.17647" lon="5.94662">
        <ele>192</ele>
        <time>2017-07-23T08:52:16Z</time>
      </trkpt>
      <trkpt lat="47.17661" lon="5.94647">
        <ele>191.39999389648</ele>
        <time>2017-07-23T08:52:18Z</time>
      </trkpt>
      <trkpt lat="47.17681" lon="5.94625">
        <ele>190.19999694824</ele>
        <time>2017-07-23T08:52:21Z</time>
      </trkpt>
      <trkpt lat="47.17693" lon="5.94611">
        <ele>189.60000610352</ele>
        <time>2017-07-23T08:52:23Z</time>
      </trkpt>
      <trkpt lat="47.17699" lon="5.94596">
        <ele>189</ele>
        <time>2017-07-23T08:52:25Z</time>
      </trkpt>
      <trkpt lat="47.17698" lon="5.94586">
        <ele>188.80000305176</ele>
        <time>2017-07-23T08:52:26Z</time>
      </trkpt>
      <trkpt lat="47.17688" lon="5.94554">
        <ele>187.39999389648</ele>
        <time>2017-07-23T08:52:29Z</time>
      </trkpt>
      <trkpt lat="47.17669" lon="5.94516">
        <ele>186.39999389648</ele>
        <time>2017-07-23T08:52:33Z</time>
      </trkpt>
      <trkpt lat="47.17665" lon="5.94506">
        <ele>186.19999694824</ele>
        <time>2017-07-23T08:52:34Z</time>
      </trkpt>
      <trkpt lat="47.17645" lon="5.94466">
        <ele>185.19999694824</ele>
        <time>2017-07-23T08:52:38Z</time>
      </trkpt>
      <trkpt lat="47.1763" lon="5.94435">
        <ele>184.60000610352</ele>
        <time>2017-07-23T08:52:41Z</time>
      </trkpt>
      <trkpt lat="47.1762" lon="5.94414">
        <ele>184</ele>
        <time>2017-07-23T08:52:43Z</time>
      </trkpt>
      <trkpt lat="47.17602" lon="5.94373">
        <ele>182.80000305176</ele>
        <time>2017-07-23T08:52:47Z</time>
      </trkpt>
      <trkpt lat="47.17594" lon="5.94351">
        <ele>182</ele>
        <time>2017-07-23T08:52:49Z</time>
      </trkpt>
      <trkpt lat="47.1759" lon="5.94341">
        <ele>181.80000305176</ele>
        <time>2017-07-23T08:52:50Z</time>
      </trkpt>
      <trkpt lat="47.17577" lon="5.94309">
        <ele>180.60000610352</ele>
        <time>2017-07-23T08:52:53Z</time>
      </trkpt>
      <trkpt lat="47.1756" lon="5.94268">
        <ele>179.39999389648</ele>
        <time>2017-07-23T08:52:57Z</time>
      </trkpt>
      <trkpt lat="47.17556" lon="5.94259">
        <ele>179</ele>
        <time>2017-07-23T08:52:58Z</time>
      </trkpt>
      <trkpt lat="47.17548" lon="5.94235">
        <ele>178</ele>
        <time>2017-07-23T08:53:01Z</time>
      </trkpt>
      <trkpt lat="47.17547" lon="5.94228">
        <ele>177.80000305176</ele>
        <time>2017-07-23T08:53:02Z</time>
      </trkpt>
      <trkpt lat="47.17545" lon="5.94213">
        <ele>177</ele>
        <time>2017-07-23T08:53:04Z</time>
      </trkpt>
      <trkpt lat="47.17539" lon="5.94201">
        <ele>176.19999694824</ele>
        <time>2017-07-23T08:53:06Z</time>
      </trkpt>
      <trkpt lat="47.17535" lon="5.94196">
        <ele>175.80000305176</ele>
        <time>2017-07-23T08:53:07Z</time>
      </trkpt>
      <trkpt lat="47.17531" lon="5.94191">
        <ele>175.60000610352</ele>
        <time>2017-07-23T08:53:08Z</time>
      </trkpt>
      <trkpt lat="47.17515" lon="5.94169">
        <ele>174.80000305176</ele>
        <time>2017-07-23T08:53:12Z</time>
      </trkpt>
      <trkpt lat="47.17511" lon="5.94162">
        <ele>174.80000305176</ele>
        <time>2017-07-23T08:53:13Z</time>
      </trkpt>
      <trkpt lat="47.17495" lon="5.94128">
        <ele>174.80000305176</ele>
        <time>2017-07-23T08:53:18Z</time>
      </trkpt>
      <trkpt lat="47.17491" lon="5.94121">
        <ele>174.80000305176</ele>
        <time>2017-07-23T08:53:19Z</time>
      </trkpt>
      <trkpt lat="47.17475" lon="5.94087">
        <ele>174.60000610352</ele>
        <time>2017-07-23T08:53:24Z</time>
      </trkpt>
      <trkpt lat="47.17454" lon="5.94033">
        <ele>174.39999389648</ele>
        <time>2017-07-23T08:53:31Z</time>
      </trkpt>
      <trkpt lat="47.17438" lon="5.93978">
        <ele>174.19999694824</ele>
        <time>2017-07-23T08:53:38Z</time>
      </trkpt>
      <trkpt lat="47.17422" lon="5.93919">
        <ele>174.19999694824</ele>
        <time>2017-07-23T08:53:45Z</time>
      </trkpt>
      <trkpt lat="47.17405" lon="5.93853">
        <ele>174.19999694824</ele>
        <time>2017-07-23T08:53:53Z</time>
      </trkpt>
      <trkpt lat="47.17404" lon="5.93845">
        <ele>174.19999694824</ele>
        <time>2017-07-23T08:53:54Z</time>
      </trkpt>
      <trkpt lat="47.17399" lon="5.93822">
        <ele>174</ele>
        <time>2017-07-23T08:53:57Z</time>
      </trkpt>
      <trkpt lat="47.17398" lon="5.93815">
        <ele>174</ele>
        <time>2017-07-23T08:53:58Z</time>
      </trkpt>
      <trkpt lat="47.17394" lon="5.93793">
        <ele>173.80000305176</ele>
        <time>2017-07-23T08:54:01Z</time>
      </trkpt>
      <trkpt lat="47.1739" lon="5.93769">
        <ele>173.80000305176</ele>
        <time>2017-07-23T08:54:04Z</time>
      </trkpt>
      <trkpt lat="47.17388" lon="5.93761">
        <ele>173.80000305176</ele>
        <time>2017-07-23T08:54:05Z</time>
      </trkpt>
      <trkpt lat="47.17377" lon="5.93712">
        <ele>173.60000610352</ele>
        <time>2017-07-23T08:54:11Z</time>
      </trkpt>
      <trkpt lat="47.17356" lon="5.93648">
        <ele>173.80000305176</ele>
        <time>2017-07-23T08:54:19Z</time>
      </trkpt>
      <trkpt lat="47.17334" lon="5.93591">
        <ele>173.80000305176</ele>
        <time>2017-07-23T08:54:26Z</time>
      </trkpt>
      <trkpt lat="47.17314" lon="5.93532">
        <ele>173.60000610352</ele>
        <time>2017-07-23T08:54:33Z</time>
      </trkpt>
      <trkpt lat="47.17287" lon="5.93462">
        <ele>173.60000610352</ele>
        <time>2017-07-23T08:54:42Z</time>
      </trkpt>
      <trkpt lat="47.17257" lon="5.93388">
        <ele>174.19999694824</ele>
        <time>2017-07-23T08:54:52Z</time>
      </trkpt>
      <trkpt lat="47.17233" lon="5.93317">
        <ele>174.39999389648</ele>
        <time>2017-07-23T08:55:01Z</time>
      </trkpt>
      <trkpt lat="47.1723" lon="5.93309">
        <ele>174.60000610352</ele>
        <time>2017-07-23T08:55:02Z</time>
      </trkpt>
      <trkpt lat="47.17212" lon="5.93244">
        <ele>174.60000610352</ele>
        <time>2017-07-23T08:55:10Z</time>
      </trkpt>
      <trkpt lat="47.17201" lon="5.93204">
        <ele>174.80000305176</ele>
        <time>2017-07-23T08:55:15Z</time>
      </trkpt>
      <trkpt lat="47.17183" lon="5.93141">
        <ele>175</ele>
        <time>2017-07-23T08:55:23Z</time>
      </trkpt>
      <trkpt lat="47.17166" lon="5.93069">
        <ele>175.19999694824</ele>
        <time>2017-07-23T08:55:32Z</time>
      </trkpt>
      <trkpt lat="47.17149" lon="5.92993">
        <ele>175</ele>
        <time>2017-07-23T08:55:41Z</time>
      </trkpt>
      <trkpt lat="47.17135" lon="5.92916">
        <ele>174.80000305176</ele>
        <time>2017-07-23T08:55:50Z</time>
      </trkpt>
      <trkpt lat="47.17123" lon="5.92832">
        <ele>174.80000305176</ele>
        <time>2017-07-23T08:55:59Z</time>
      </trkpt>
      <trkpt lat="47.17111" lon="5.92746">
        <ele>175</ele>
        <time>2017-07-23T08:56:08Z</time>
      </trkpt>
      <trkpt lat="47.1711" lon="5.92737">
        <ele>175</ele>
        <time>2017-07-23T08:56:09Z</time>
      </trkpt>
      <trkpt lat="47.17101" lon="5.92654">
        <ele>174.80000305176</ele>
        <time>2017-07-23T08:56:18Z</time>
      </trkpt>
      <trkpt lat="47.17099" lon="5.92634">
        <ele>174.80000305176</ele>
        <time>2017-07-23T08:56:20Z</time>
      </trkpt>
      <trkpt lat="47.17091" lon="5.92547">
        <ele>174.19999694824</ele>
        <time>2017-07-23T08:56:29Z</time>
      </trkpt>
      <trkpt lat="47.1709" lon="5.92537">
        <ele>174.19999694824</ele>
        <time>2017-07-23T08:56:30Z</time>
      </trkpt>
      <trkpt lat="47.17084" lon="5.92467">
        <ele>174</ele>
        <time>2017-07-23T08:56:38Z</time>
      </trkpt>
      <trkpt lat="47.17078" lon="5.92391">
        <ele>174.39999389648</ele>
        <time>2017-07-23T08:56:47Z</time>
      </trkpt>
      <trkpt lat="47.17072" lon="5.92321">
        <ele>174.39999389648</ele>
        <time>2017-07-23T08:56:55Z</time>
      </trkpt>
      <trkpt lat="47.17069" lon="5.92268">
        <ele>174.60000610352</ele>
        <time>2017-07-23T08:57:01Z</time>
      </trkpt>
      <trkpt lat="47.17067" lon="5.92188">
        <ele>174.60000610352</ele>
        <time>2017-07-23T08:57:10Z</time>
      </trkpt>
      <trkpt lat="47.17063" lon="5.92115">
        <ele>174.39999389648</ele>
        <time>2017-07-23T08:57:18Z</time>
      </trkpt>
      <trkpt lat="47.17059" lon="5.92034">
        <ele>174</ele>
        <time>2017-07-23T08:57:27Z</time>
      </trkpt>
      <trkpt lat="47.1706" lon="5.91953">
        <ele>174</ele>
        <time>2017-07-23T08:57:36Z</time>
      </trkpt>
      <trkpt lat="47.17062" lon="5.91872">
        <ele>174.39999389648</ele>
        <time>2017-07-23T08:57:45Z</time>
      </trkpt>
      <trkpt lat="47.17062" lon="5.91836">
        <ele>174.39999389648</ele>
        <time>2017-07-23T08:57:49Z</time>
      </trkpt>
      <trkpt lat="47.17057" lon="5.91753">
        <ele>174</ele>
        <time>2017-07-23T08:57:58Z</time>
      </trkpt>
      <trkpt lat="47.17045" lon="5.91701">
        <ele>174</ele>
        <time>2017-07-23T08:58:04Z</time>
      </trkpt>
      <trkpt lat="47.17032" lon="5.91648">
        <ele>174.19999694824</ele>
        <time>2017-07-23T08:58:10Z</time>
      </trkpt>
      <trkpt lat="47.17031" lon="5.91639">
        <ele>174.19999694824</ele>
        <time>2017-07-23T08:58:11Z</time>
      </trkpt>
      <trkpt lat="47.17017" lon="5.91588">
        <ele>174.19999694824</ele>
        <time>2017-07-23T08:58:17Z</time>
      </trkpt>
      <trkpt lat="47.17013" lon="5.91564">
        <ele>174.19999694824</ele>
        <time>2017-07-23T08:58:20Z</time>
      </trkpt>
      <trkpt lat="47.17009" lon="5.91548">
        <ele>174</ele>
        <time>2017-07-23T08:58:22Z</time>
      </trkpt>
      <trkpt lat="47.1699" lon="5.91498">
        <ele>174.39999389648</ele>
        <time>2017-07-23T08:58:29Z</time>
      </trkpt>
      <trkpt lat="47.16989" lon="5.91491">
        <ele>174.60000610352</ele>
        <time>2017-07-23T08:58:30Z</time>
      </trkpt>
      <trkpt lat="47.16993" lon="5.91478">
        <ele>175.19999694824</ele>
        <time>2017-07-23T08:58:32Z</time>
      </trkpt>
      <trkpt lat="47.17007" lon="5.91472">
        <ele>175.60000610352</ele>
        <time>2017-07-23T08:58:35Z</time>
      </trkpt>
      <trkpt lat="47.17016" lon="5.91466">
        <ele>175.80000305176</ele>
        <time>2017-07-23T08:58:38Z</time>
      </trkpt>
      <trkpt lat="47.17017" lon="5.91466">
        <ele>175.80000305176</ele>
        <time>2017-07-23T08:58:39Z</time>
      </trkpt>
      <trkpt lat="47.17023" lon="5.91451">
        <ele>175.19999694824</ele>
        <time>2017-07-23T08:58:46Z</time>
      </trkpt>
      <trkpt lat="47.17014" lon="5.91432">
        <ele>175.19999694824</ele>
        <time>2017-07-23T08:58:50Z</time>
      </trkpt>
      <trkpt lat="47.17004" lon="5.91412">
        <ele>175</ele>
        <time>2017-07-23T08:58:53Z</time>
      </trkpt>
      <trkpt lat="47.17" lon="5.91404">
        <ele>174.80000305176</ele>
        <time>2017-07-23T08:58:54Z</time>
      </trkpt>
      <trkpt lat="47.16997" lon="5.91396">
        <ele>174.80000305176</ele>
        <time>2017-07-23T08:58:55Z</time>
      </trkpt>
      <trkpt lat="47.16994" lon="5.91388">
        <ele>174.80000305176</ele>
        <time>2017-07-23T08:58:56Z</time>
      </trkpt>
      <trkpt lat="47.16988" lon="5.91361">
        <ele>174.60000610352</ele>
        <time>2017-07-23T08:58:59Z</time>
      </trkpt>
      <trkpt lat="47.16986" lon="5.91352">
        <ele>174.60000610352</ele>
        <time>2017-07-23T08:59:00Z</time>
      </trkpt>
      <trkpt lat="47.16984" lon="5.91314">
        <ele>174.60000610352</ele>
        <time>2017-07-23T08:59:04Z</time>
      </trkpt>
      <trkpt lat="47.16988" lon="5.91267">
        <ele>174.39999389648</ele>
        <time>2017-07-23T08:59:09Z</time>
      </trkpt>
      <trkpt lat="47.17003" lon="5.91195">
        <ele>174.80000305176</ele>
        <time>2017-07-23T08:59:17Z</time>
      </trkpt>
      <trkpt lat="47.17016" lon="5.91143">
        <ele>174.80000305176</ele>
        <time>2017-07-23T08:59:23Z</time>
      </trkpt>
      <trkpt lat="47.17035" lon="5.91074">
        <ele>174.80000305176</ele>
        <time>2017-07-23T08:59:31Z</time>
      </trkpt>
      <trkpt lat="47.17051" lon="5.91022">
        <ele>174.60000610352</ele>
        <time>2017-07-23T08:59:37Z</time>
      </trkpt>
      <trkpt lat="47.17071" lon="5.90951">
        <ele>174.60000610352</ele>
        <time>2017-07-23T08:59:45Z</time>
      </trkpt>
      <trkpt lat="47.17092" lon="5.90891">
        <ele>174.60000610352</ele>
        <time>2017-07-23T08:59:52Z</time>
      </trkpt>
      <trkpt lat="47.17109" lon="5.9085">
        <ele>174.39999389648</ele>
        <time>2017-07-23T08:59:57Z</time>
      </trkpt>
      <trkpt lat="47.17118" lon="5.90837">
        <ele>174.39999389648</ele>
        <time>2017-07-23T08:59:59Z</time>
      </trkpt>
      <trkpt lat="47.17137" lon="5.90813">
        <ele>174.39999389648</ele>
        <time>2017-07-23T09:00:03Z</time>
      </trkpt>
      <trkpt lat="47.17141" lon="5.90805">
        <ele>174.39999389648</ele>
        <time>2017-07-23T09:00:04Z</time>
      </trkpt>
      <trkpt lat="47.17147" lon="5.9078">
        <ele>174.19999694824</ele>
        <time>2017-07-23T09:00:07Z</time>
      </trkpt>
      <trkpt lat="47.1715" lon="5.90762">
        <ele>174.19999694824</ele>
        <time>2017-07-23T09:00:09Z</time>
      </trkpt>
      <trkpt lat="47.17158" lon="5.90729">
        <ele>174.39999389648</ele>
        <time>2017-07-23T09:00:13Z</time>
      </trkpt>
      <trkpt lat="47.17163" lon="5.90715">
        <ele>174.60000610352</ele>
        <time>2017-07-23T09:00:15Z</time>
      </trkpt>
      <trkpt lat="47.17179" lon="5.90677">
        <ele>175.19999694824</ele>
        <time>2017-07-23T09:00:21Z</time>
      </trkpt>
      <trkpt lat="47.1719" lon="5.90654">
        <ele>176</ele>
        <time>2017-07-23T09:00:26Z</time>
      </trkpt>
      <trkpt lat="47.17193" lon="5.9065">
        <ele>176.19999694824</ele>
        <time>2017-07-23T09:00:27Z</time>
      </trkpt>
      <trkpt lat="47.17203" lon="5.90636">
        <ele>177</ele>
        <time>2017-07-23T09:00:31Z</time>
      </trkpt>
      <trkpt lat="47.17212" lon="5.90626">
        <ele>177.60000610352</ele>
        <time>2017-07-23T09:00:34Z</time>
      </trkpt>
      <trkpt lat="47.17218" lon="5.9062">
        <ele>178</ele>
        <time>2017-07-23T09:00:36Z</time>
      </trkpt>
      <trkpt lat="47.17231" lon="5.90604">
        <ele>179.19999694824</ele>
        <time>2017-07-23T09:00:41Z</time>
      </trkpt>
      <trkpt lat="47.17241" lon="5.90592">
        <ele>180.19999694824</ele>
        <time>2017-07-23T09:00:45Z</time>
      </trkpt>
      <trkpt lat="47.17248" lon="5.90583">
        <ele>181</ele>
        <time>2017-07-23T09:00:48Z</time>
      </trkpt>
      <trkpt lat="47.17253" lon="5.90577">
        <ele>181.39999389648</ele>
        <time>2017-07-23T09:00:50Z</time>
      </trkpt>
      <trkpt lat="47.17261" lon="5.9057">
        <ele>182.60000610352</ele>
        <time>2017-07-23T09:00:53Z</time>
      </trkpt>
      <trkpt lat="47.17266" lon="5.90564">
        <ele>183</ele>
        <time>2017-07-23T09:00:55Z</time>
      </trkpt>
      <trkpt lat="47.17265" lon="5.90558">
        <ele>183.19999694824</ele>
        <time>2017-07-23T09:00:57Z</time>
      </trkpt>
      <trkpt lat="47.17264" lon="5.90553">
        <ele>183.39999389648</ele>
        <time>2017-07-23T09:00:58Z</time>
      </trkpt>
      <trkpt lat="47.17263" lon="5.90549">
        <ele>183.60000610352</ele>
        <time>2017-07-23T09:00:59Z</time>
      </trkpt>
      <trkpt lat="47.17258" lon="5.9053">
        <ele>185</ele>
        <time>2017-07-23T09:01:03Z</time>
      </trkpt>
      <trkpt lat="47.17254" lon="5.90517">
        <ele>185.60000610352</ele>
        <time>2017-07-23T09:01:06Z</time>
      </trkpt>
      <trkpt lat="47.17251" lon="5.90509">
        <ele>186</ele>
        <time>2017-07-23T09:01:08Z</time>
      </trkpt>
      <trkpt lat="47.17246" lon="5.9049">
        <ele>187</ele>
        <time>2017-07-23T09:01:13Z</time>
      </trkpt>
      <trkpt lat="47.1724" lon="5.9048">
        <ele>187.80000305176</ele>
        <time>2017-07-23T09:01:18Z</time>
      </trkpt>
      <trkpt lat="47.17238" lon="5.90479">
        <ele>188</ele>
        <time>2017-07-23T09:01:19Z</time>
      </trkpt>
      <trkpt lat="47.17222" lon="5.90483">
        <ele>188</ele>
        <time>2017-07-23T09:01:23Z</time>
      </trkpt>
      <trkpt lat="47.17198" lon="5.90483">
        <ele>187.80000305176</ele>
        <time>2017-07-23T09:01:28Z</time>
      </trkpt>
      <trkpt lat="47.17193" lon="5.90484">
        <ele>187.60000610352</ele>
        <time>2017-07-23T09:01:29Z</time>
      </trkpt>
      <trkpt lat="47.17171" lon="5.90491">
        <ele>186.80000305176</ele>
        <time>2017-07-23T09:01:33Z</time>
      </trkpt>
      <trkpt lat="47.17165" lon="5.90495">
        <ele>186.80000305176</ele>
        <time>2017-07-23T09:01:34Z</time>
      </trkpt>
      <trkpt lat="47.17144" lon="5.90506">
        <ele>185.80000305176</ele>
        <time>2017-07-23T09:01:37Z</time>
      </trkpt>
      <trkpt lat="47.17138" lon="5.90511">
        <ele>185.39999389648</ele>
        <time>2017-07-23T09:01:38Z</time>
      </trkpt>
      <trkpt lat="47.17124" lon="5.90522">
        <ele>184.80000305176</ele>
        <time>2017-07-23T09:01:40Z</time>
      </trkpt>
      <trkpt lat="47.17111" lon="5.90532">
        <ele>183.60000610352</ele>
        <time>2017-07-23T09:01:42Z</time>
      </trkpt>
      <trkpt lat="47.17104" lon="5.90537">
        <ele>183</ele>
        <time>2017-07-23T09:01:43Z</time>
      </trkpt>
      <trkpt lat="47.17097" lon="5.90542">
        <ele>182.60000610352</ele>
        <time>2017-07-23T09:01:44Z</time>
      </trkpt>
      <trkpt lat="47.17082" lon="5.90553">
        <ele>181.60000610352</ele>
        <time>2017-07-23T09:01:46Z</time>
      </trkpt>
      <trkpt lat="47.17066" lon="5.90564">
        <ele>180.39999389648</ele>
        <time>2017-07-23T09:01:48Z</time>
      </trkpt>
      <trkpt lat="47.17049" lon="5.90575">
        <ele>179.39999389648</ele>
        <time>2017-07-23T09:01:50Z</time>
      </trkpt>
      <trkpt lat="47.17024" lon="5.90589">
        <ele>177.80000305176</ele>
        <time>2017-07-23T09:01:53Z</time>
      </trkpt>
      <trkpt lat="47.17015" lon="5.90592">
        <ele>177.39999389648</ele>
        <time>2017-07-23T09:01:54Z</time>
      </trkpt>
      <trkpt lat="47.16997" lon="5.90592">
        <ele>176.60000610352</ele>
        <time>2017-07-23T09:01:56Z</time>
      </trkpt>
      <trkpt lat="47.16969" lon="5.90584">
        <ele>175.19999694824</ele>
        <time>2017-07-23T09:01:59Z</time>
      </trkpt>
      <trkpt lat="47.16963" lon="5.90575">
        <ele>174.80000305176</ele>
        <time>2017-07-23T09:02:00Z</time>
      </trkpt>
      <trkpt lat="47.16955" lon="5.90568">
        <ele>174.39999389648</ele>
        <time>2017-07-23T09:02:01Z</time>
      </trkpt>
      <trkpt lat="47.16947" lon="5.90561">
        <ele>174</ele>
        <time>2017-07-23T09:02:02Z</time>
      </trkpt>
      <trkpt lat="47.16932" lon="5.90548">
        <ele>173</ele>
        <time>2017-07-23T09:02:04Z</time>
      </trkpt>
      <trkpt lat="47.16926" lon="5.90542">
        <ele>172.19999694824</ele>
        <time>2017-07-23T09:02:05Z</time>
      </trkpt>
      <trkpt lat="47.16909" lon="5.90521">
        <ele>172</ele>
        <time>2017-07-23T09:02:08Z</time>
      </trkpt>
      <trkpt lat="47.16898" lon="5.90506">
        <ele>171.80000305176</ele>
        <time>2017-07-23T09:02:10Z</time>
      </trkpt>
      <trkpt lat="47.16863" lon="5.90445">
        <ele>171.19999694824</ele>
        <time>2017-07-23T09:02:18Z</time>
      </trkpt>
      <trkpt lat="47.16836" lon="5.90403">
        <ele>171.39999389648</ele>
        <time>2017-07-23T09:02:24Z</time>
      </trkpt>
      <trkpt lat="47.16797" lon="5.90348">
        <ele>171.39999389648</ele>
        <time>2017-07-23T09:02:32Z</time>
      </trkpt>
      <trkpt lat="47.16791" lon="5.90341">
        <ele>171.39999389648</ele>
        <time>2017-07-23T09:02:33Z</time>
      </trkpt>
      <trkpt lat="47.16767" lon="5.9031">
        <ele>171.80000305176</ele>
        <time>2017-07-23T09:02:38Z</time>
      </trkpt>
      <trkpt lat="47.16763" lon="5.90308">
        <ele>171.80000305176</ele>
        <time>2017-07-23T09:02:39Z</time>
      </trkpt>
      <trkpt lat="47.16754" lon="5.90313">
        <ele>171.80000305176</ele>
        <time>2017-07-23T09:02:42Z</time>
      </trkpt>
      <trkpt lat="47.16739" lon="5.90325">
        <ele>172.19999694824</ele>
        <time>2017-07-23T09:02:46Z</time>
      </trkpt>
      <trkpt lat="47.16725" lon="5.90321">
        <ele>172.19999694824</ele>
        <time>2017-07-23T09:02:48Z</time>
      </trkpt>
      <trkpt lat="47.16718" lon="5.90321">
        <ele>172.19999694824</ele>
        <time>2017-07-23T09:02:49Z</time>
      </trkpt>
      <trkpt lat="47.16686" lon="5.90327">
        <ele>170.80000305176</ele>
        <time>2017-07-23T09:02:53Z</time>
      </trkpt>
      <trkpt lat="47.16678" lon="5.90329">
        <ele>170.39999389648</ele>
        <time>2017-07-23T09:02:54Z</time>
      </trkpt>
      <trkpt lat="47.16662" lon="5.90332">
        <ele>169.80000305176</ele>
        <time>2017-07-23T09:02:56Z</time>
      </trkpt>
      <trkpt lat="47.16631" lon="5.90337">
        <ele>169.39999389648</ele>
        <time>2017-07-23T09:03:00Z</time>
      </trkpt>
      <trkpt lat="47.16623" lon="5.90336">
        <ele>169.19999694824</ele>
        <time>2017-07-23T09:03:01Z</time>
      </trkpt>
      <trkpt lat="47.16602" lon="5.90331">
        <ele>169.39999389648</ele>
        <time>2017-07-23T09:03:04Z</time>
      </trkpt>
      <trkpt lat="47.16587" lon="5.90326">
        <ele>169.39999389648</ele>
        <time>2017-07-23T09:03:06Z</time>
      </trkpt>
      <trkpt lat="47.16567" lon="5.90322">
        <ele>169.39999389648</ele>
        <time>2017-07-23T09:03:09Z</time>
      </trkpt>
      <trkpt lat="47.16556" lon="5.90316">
        <ele>169.60000610352</ele>
        <time>2017-07-23T09:03:11Z</time>
      </trkpt>
      <trkpt lat="47.16547" lon="5.9031">
        <ele>169.60000610352</ele>
        <time>2017-07-23T09:03:13Z</time>
      </trkpt>
      <trkpt lat="47.1653" lon="5.90296">
        <ele>171.19999694824</ele>
        <time>2017-07-23T09:03:18Z</time>
      </trkpt>
      <trkpt lat="47.16517" lon="5.90281">
        <ele>172.39999389648</ele>
        <time>2017-07-23T09:03:23Z</time>
      </trkpt>
      <trkpt lat="47.165" lon="5.90258">
        <ele>172.39999389648</ele>
        <time>2017-07-23T09:03:28Z</time>
      </trkpt>
      <trkpt lat="47.16473" lon="5.90219">
        <ele>172.80000305176</ele>
        <time>2017-07-23T09:03:35Z</time>
      </trkpt>
      <trkpt lat="47.16458" lon="5.90198">
        <ele>173.19999694824</ele>
        <time>2017-07-23T09:03:39Z</time>
      </trkpt>
      <trkpt lat="47.16454" lon="5.90192">
        <ele>173.39999389648</ele>
        <time>2017-07-23T09:03:40Z</time>
      </trkpt>
      <trkpt lat="47.16439" lon="5.90169">
        <ele>173.80000305176</ele>
        <time>2017-07-23T09:03:44Z</time>
      </trkpt>
      <trkpt lat="47.16412" lon="5.90122">
        <ele>173.80000305176</ele>
        <time>2017-07-23T09:03:51Z</time>
      </trkpt>
      <trkpt lat="47.16385" lon="5.90073">
        <ele>173.39999389648</ele>
        <time>2017-07-23T09:03:58Z</time>
      </trkpt>
      <trkpt lat="47.16361" lon="5.90017">
        <ele>173.39999389648</ele>
        <time>2017-07-23T09:04:05Z</time>
      </trkpt>
      <trkpt lat="47.16338" lon="5.89947">
        <ele>173.19999694824</ele>
        <time>2017-07-23T09:04:13Z</time>
      </trkpt>
      <trkpt lat="47.16314" lon="5.89877">
        <ele>173.19999694824</ele>
        <time>2017-07-23T09:04:21Z</time>
      </trkpt>
      <trkpt lat="47.16297" lon="5.89812">
        <ele>173.39999389648</ele>
        <time>2017-07-23T09:04:28Z</time>
      </trkpt>
      <trkpt lat="47.16283" lon="5.89732">
        <ele>173.39999389648</ele>
        <time>2017-07-23T09:04:36Z</time>
      </trkpt>
      <trkpt lat="47.16264" lon="5.89663">
        <ele>172.80000305176</ele>
        <time>2017-07-23T09:04:43Z</time>
      </trkpt>
      <trkpt lat="47.16243" lon="5.89588">
        <ele>172.80000305176</ele>
        <time>2017-07-23T09:04:51Z</time>
      </trkpt>
      <trkpt lat="47.16241" lon="5.89578">
        <ele>172.80000305176</ele>
        <time>2017-07-23T09:04:52Z</time>
      </trkpt>
      <trkpt lat="47.16226" lon="5.89497">
        <ele>172.60000610352</ele>
        <time>2017-07-23T09:05:00Z</time>
      </trkpt>
      <trkpt lat="47.16216" lon="5.89428">
        <ele>172.39999389648</ele>
        <time>2017-07-23T09:05:07Z</time>
      </trkpt>
      <trkpt lat="47.16212" lon="5.89408">
        <ele>172.39999389648</ele>
        <time>2017-07-23T09:05:09Z</time>
      </trkpt>
      <trkpt lat="47.16202" lon="5.8936">
        <ele>172</ele>
        <time>2017-07-23T09:05:14Z</time>
      </trkpt>
      <trkpt lat="47.16186" lon="5.89284">
        <ele>171.80000305176</ele>
        <time>2017-07-23T09:05:22Z</time>
      </trkpt>
      <trkpt lat="47.1618" lon="5.89265">
        <ele>171.80000305176</ele>
        <time>2017-07-23T09:05:24Z</time>
      </trkpt>
      <trkpt lat="47.16161" lon="5.89194">
        <ele>171.39999389648</ele>
        <time>2017-07-23T09:05:32Z</time>
      </trkpt>
      <trkpt lat="47.16157" lon="5.89176">
        <ele>171.19999694824</ele>
        <time>2017-07-23T09:05:34Z</time>
      </trkpt>
      <trkpt lat="47.16141" lon="5.89137">
        <ele>170.60000610352</ele>
        <time>2017-07-23T09:05:39Z</time>
      </trkpt>
      <trkpt lat="47.16123" lon="5.89102">
        <ele>170.80000305176</ele>
        <time>2017-07-23T09:05:45Z</time>
      </trkpt>
      <trkpt lat="47.16127" lon="5.89086">
        <ele>171</ele>
        <time>2017-07-23T09:05:48Z</time>
      </trkpt>
      <trkpt lat="47.16129" lon="5.8908">
        <ele>170.80000305176</ele>
        <time>2017-07-23T09:05:49Z</time>
      </trkpt>
      <trkpt lat="47.16133" lon="5.89068">
        <ele>170.80000305176</ele>
        <time>2017-07-23T09:05:51Z</time>
      </trkpt>
      <trkpt lat="47.16136" lon="5.89053">
        <ele>170.60000610352</ele>
        <time>2017-07-23T09:05:53Z</time>
      </trkpt>
      <trkpt lat="47.16141" lon="5.89016">
        <ele>170.19999694824</ele>
        <time>2017-07-23T09:05:58Z</time>
      </trkpt>
      <trkpt lat="47.16138" lon="5.89009">
        <ele>170.19999694824</ele>
        <time>2017-07-23T09:05:59Z</time>
      </trkpt>
      <trkpt lat="47.16128" lon="5.8899">
        <ele>170</ele>
        <time>2017-07-23T09:06:02Z</time>
      </trkpt>
      <trkpt lat="47.16121" lon="5.88978">
        <ele>169.80000305176</ele>
        <time>2017-07-23T09:06:04Z</time>
      </trkpt>
      <trkpt lat="47.16095" lon="5.88934">
        <ele>169.19999694824</ele>
        <time>2017-07-23T09:06:11Z</time>
      </trkpt>
      <trkpt lat="47.16067" lon="5.88894">
        <ele>169.19999694824</ele>
        <time>2017-07-23T09:06:18Z</time>
      </trkpt>
      <trkpt lat="47.16035" lon="5.88862">
        <ele>169.39999389648</ele>
        <time>2017-07-23T09:06:25Z</time>
      </trkpt>
      <trkpt lat="47.15996" lon="5.88819">
        <ele>169.60000610352</ele>
        <time>2017-07-23T09:06:34Z</time>
      </trkpt>
      <trkpt lat="47.15974" lon="5.88796">
        <ele>169.60000610352</ele>
        <time>2017-07-23T09:06:39Z</time>
      </trkpt>
      <trkpt lat="47.15967" lon="5.88788">
        <ele>169.60000610352</ele>
        <time>2017-07-23T09:06:41Z</time>
      </trkpt>
      <trkpt lat="47.15963" lon="5.88783">
        <ele>169.80000305176</ele>
        <time>2017-07-23T09:06:42Z</time>
      </trkpt>
      <trkpt lat="47.15961" lon="5.88766">
        <ele>169.80000305176</ele>
        <time>2017-07-23T09:06:45Z</time>
      </trkpt>
      <trkpt lat="47.15971" lon="5.88754">
        <ele>170</ele>
        <time>2017-07-23T09:06:48Z</time>
      </trkpt>
      <trkpt lat="47.15976" lon="5.88751">
        <ele>170</ele>
        <time>2017-07-23T09:06:49Z</time>
      </trkpt>
      <trkpt lat="47.16011" lon="5.88722">
        <ele>170.39999389648</ele>
        <time>2017-07-23T09:06:57Z</time>
      </trkpt>
      <trkpt lat="47.16041" lon="5.88707">
        <ele>171.19999694824</ele>
        <time>2017-07-23T09:07:04Z</time>
      </trkpt>
      <trkpt lat="47.16045" lon="5.88705">
        <ele>171.60000610352</ele>
        <time>2017-07-23T09:07:05Z</time>
      </trkpt>
      <trkpt lat="47.16055" lon="5.88699">
        <ele>172.39999389648</ele>
        <time>2017-07-23T09:07:08Z</time>
      </trkpt>
      <trkpt lat="47.16066" lon="5.88692">
        <ele>173.19999694824</ele>
        <time>2017-07-23T09:07:11Z</time>
      </trkpt>
      <trkpt lat="47.16075" lon="5.88686">
        <ele>173.60000610352</ele>
        <time>2017-07-23T09:07:13Z</time>
      </trkpt>
      <trkpt lat="47.16091" lon="5.88675">
        <ele>174.19999694824</ele>
        <time>2017-07-23T09:07:17Z</time>
      </trkpt>
      <trkpt lat="47.16125" lon="5.88656">
        <ele>174.39999389648</ele>
        <time>2017-07-23T09:07:24Z</time>
      </trkpt>
      <trkpt lat="47.16152" lon="5.88642">
        <ele>174.60000610352</ele>
        <time>2017-07-23T09:07:29Z</time>
      </trkpt>
      <trkpt lat="47.16163" lon="5.88636">
        <ele>174.60000610352</ele>
        <time>2017-07-23T09:07:31Z</time>
      </trkpt>
      <trkpt lat="47.16194" lon="5.88618">
        <ele>174.19999694824</ele>
        <time>2017-07-23T09:07:36Z</time>
      </trkpt>
      <trkpt lat="47.16215" lon="5.88607">
        <ele>173.39999389648</ele>
        <time>2017-07-23T09:07:39Z</time>
      </trkpt>
      <trkpt lat="47.16236" lon="5.88596">
        <ele>172.19999694824</ele>
        <time>2017-07-23T09:07:42Z</time>
      </trkpt>
      <trkpt lat="47.16251" lon="5.88587">
        <ele>171.80000305176</ele>
        <time>2017-07-23T09:07:44Z</time>
      </trkpt>
      <trkpt lat="47.16272" lon="5.88575">
        <ele>171.19999694824</ele>
        <time>2017-07-23T09:07:47Z</time>
      </trkpt>
      <trkpt lat="47.16304" lon="5.88558">
        <ele>170.39999389648</ele>
        <time>2017-07-23T09:07:52Z</time>
      </trkpt>
      <trkpt lat="47.16308" lon="5.88554">
        <ele>170.39999389648</ele>
        <time>2017-07-23T09:07:53Z</time>
      </trkpt>
      <trkpt lat="47.16314" lon="5.88539">
        <ele>170</ele>
        <time>2017-07-23T09:07:55Z</time>
      </trkpt>
      <trkpt lat="47.16307" lon="5.88515">
        <ele>169.80000305176</ele>
        <time>2017-07-23T09:07:58Z</time>
      </trkpt>
      <trkpt lat="47.16304" lon="5.88508">
        <ele>169.80000305176</ele>
        <time>2017-07-23T09:07:59Z</time>
      </trkpt>
      <trkpt lat="47.1628" lon="5.88453">
        <ele>169.80000305176</ele>
        <time>2017-07-23T09:08:06Z</time>
      </trkpt>
      <trkpt lat="47.16256" lon="5.88413">
        <ele>170</ele>
        <time>2017-07-23T09:08:12Z</time>
      </trkpt>
      <trkpt lat="47.16251" lon="5.88406">
        <ele>170</ele>
        <time>2017-07-23T09:08:13Z</time>
      </trkpt>
      <trkpt lat="47.16218" lon="5.88364">
        <ele>169.80000305176</ele>
        <time>2017-07-23T09:08:20Z</time>
      </trkpt>
      <trkpt lat="47.16182" lon="5.88327">
        <ele>169.80000305176</ele>
        <time>2017-07-23T09:08:27Z</time>
      </trkpt>
      <trkpt lat="47.16144" lon="5.88295">
        <ele>169.80000305176</ele>
        <time>2017-07-23T09:08:34Z</time>
      </trkpt>
      <trkpt lat="47.16096" lon="5.88266">
        <ele>169.60000610352</ele>
        <time>2017-07-23T09:08:42Z</time>
      </trkpt>
      <trkpt lat="47.16051" lon="5.88248">
        <ele>169.60000610352</ele>
        <time>2017-07-23T09:08:49Z</time>
      </trkpt>
      <trkpt lat="47.15999" lon="5.88235">
        <ele>169.60000610352</ele>
        <time>2017-07-23T09:08:57Z</time>
      </trkpt>
      <trkpt lat="47.1596" lon="5.88233">
        <ele>169.80000305176</ele>
        <time>2017-07-23T09:09:03Z</time>
      </trkpt>
      <trkpt lat="47.15916" lon="5.88238">
        <ele>170.39999389648</ele>
        <time>2017-07-23T09:09:10Z</time>
      </trkpt>
      <trkpt lat="47.15877" lon="5.88246">
        <ele>170.60000610352</ele>
        <time>2017-07-23T09:09:16Z</time>
      </trkpt>
      <trkpt lat="47.15838" lon="5.88259">
        <ele>170.39999389648</ele>
        <time>2017-07-23T09:09:22Z</time>
      </trkpt>
      <trkpt lat="47.15831" lon="5.88262">
        <ele>170.39999389648</ele>
        <time>2017-07-23T09:09:23Z</time>
      </trkpt>
      <trkpt lat="47.15795" lon="5.88278">
        <ele>170.19999694824</ele>
        <time>2017-07-23T09:09:29Z</time>
      </trkpt>
      <trkpt lat="47.15753" lon="5.88298">
        <ele>170</ele>
        <time>2017-07-23T09:09:36Z</time>
      </trkpt>
      <trkpt lat="47.15711" lon="5.88319">
        <ele>170</ele>
        <time>2017-07-23T09:09:43Z</time>
      </trkpt>
      <trkpt lat="47.15663" lon="5.88341">
        <ele>170</ele>
        <time>2017-07-23T09:09:51Z</time>
      </trkpt>
      <trkpt lat="47.1562" lon="5.88349">
        <ele>169.80000305176</ele>
        <time>2017-07-23T09:09:58Z</time>
      </trkpt>
      <trkpt lat="47.15584" lon="5.88352">
        <ele>170</ele>
        <time>2017-07-23T09:10:04Z</time>
      </trkpt>
      <trkpt lat="47.15573" lon="5.88352">
        <ele>170.19999694824</ele>
        <time>2017-07-23T09:10:06Z</time>
      </trkpt>
      <trkpt lat="47.15535" lon="5.88352">
        <ele>170.60000610352</ele>
        <time>2017-07-23T09:10:13Z</time>
      </trkpt>
      <trkpt lat="47.15493" lon="5.88352">
        <ele>170.60000610352</ele>
        <time>2017-07-23T09:10:20Z</time>
      </trkpt>
      <trkpt lat="47.15458" lon="5.88349">
        <ele>170.60000610352</ele>
        <time>2017-07-23T09:10:26Z</time>
      </trkpt>
      <trkpt lat="47.15404" lon="5.88346">
        <ele>170.80000305176</ele>
        <time>2017-07-23T09:10:35Z</time>
      </trkpt>
      <trkpt lat="47.15398" lon="5.88345">
        <ele>170.80000305176</ele>
        <time>2017-07-23T09:10:36Z</time>
      </trkpt>
      <trkpt lat="47.15344" lon="5.88344">
        <ele>170.60000610352</ele>
        <time>2017-07-23T09:10:45Z</time>
      </trkpt>
      <trkpt lat="47.15338" lon="5.88343">
        <ele>170.60000610352</ele>
        <time>2017-07-23T09:10:46Z</time>
      </trkpt>
      <trkpt lat="47.15296" lon="5.88337">
        <ele>170.60000610352</ele>
        <time>2017-07-23T09:10:53Z</time>
      </trkpt>
      <trkpt lat="47.15254" lon="5.88338">
        <ele>170.60000610352</ele>
        <time>2017-07-23T09:11:00Z</time>
      </trkpt>
      <trkpt lat="47.15219" lon="5.88338">
        <ele>170.60000610352</ele>
        <time>2017-07-23T09:11:06Z</time>
      </trkpt>
      <trkpt lat="47.15163" lon="5.88335">
        <ele>170.80000305176</ele>
        <time>2017-07-23T09:11:15Z</time>
      </trkpt>
      <trkpt lat="47.15115" lon="5.88329">
        <ele>170.80000305176</ele>
        <time>2017-07-23T09:11:23Z</time>
      </trkpt>
      <trkpt lat="47.15071" lon="5.88327">
        <ele>170.60000610352</ele>
        <time>2017-07-23T09:11:30Z</time>
      </trkpt>
      <trkpt lat="47.15027" lon="5.88326">
        <ele>170.60000610352</ele>
        <time>2017-07-23T09:11:37Z</time>
      </trkpt>
      <trkpt lat="47.14977" lon="5.88323">
        <ele>170.39999389648</ele>
        <time>2017-07-23T09:11:45Z</time>
      </trkpt>
      <trkpt lat="47.14918" lon="5.88323">
        <ele>170.19999694824</ele>
        <time>2017-07-23T09:11:54Z</time>
      </trkpt>
      <trkpt lat="47.14875" lon="5.8832">
        <ele>170</ele>
        <time>2017-07-23T09:12:01Z</time>
      </trkpt>
      <trkpt lat="47.14832" lon="5.88317">
        <ele>169.80000305176</ele>
        <time>2017-07-23T09:12:08Z</time>
      </trkpt>
      <trkpt lat="47.14794" lon="5.88301">
        <ele>169.39999389648</ele>
        <time>2017-07-23T09:12:14Z</time>
      </trkpt>
      <trkpt lat="47.14761" lon="5.88273">
        <ele>169.39999389648</ele>
        <time>2017-07-23T09:12:20Z</time>
      </trkpt>
      <trkpt lat="47.14729" lon="5.88241">
        <ele>169.19999694824</ele>
        <time>2017-07-23T09:12:26Z</time>
      </trkpt>
      <trkpt lat="47.14692" lon="5.88205">
        <ele>169.19999694824</ele>
        <time>2017-07-23T09:12:33Z</time>
      </trkpt>
      <trkpt lat="47.14681" lon="5.88195">
        <ele>169</ele>
        <time>2017-07-23T09:12:35Z</time>
      </trkpt>
      <trkpt lat="47.14654" lon="5.88171">
        <ele>168.80000305176</ele>
        <time>2017-07-23T09:12:40Z</time>
      </trkpt>
      <trkpt lat="47.14616" lon="5.88135">
        <ele>169</ele>
        <time>2017-07-23T09:12:47Z</time>
      </trkpt>
      <trkpt lat="47.14573" lon="5.88095">
        <ele>168.80000305176</ele>
        <time>2017-07-23T09:12:55Z</time>
      </trkpt>
      <trkpt lat="47.1453" lon="5.88054">
        <ele>168.80000305176</ele>
        <time>2017-07-23T09:13:03Z</time>
      </trkpt>
      <trkpt lat="47.14494" lon="5.88015">
        <ele>169</ele>
        <time>2017-07-23T09:13:10Z</time>
      </trkpt>
      <trkpt lat="47.14469" lon="5.87971">
        <ele>168.80000305176</ele>
        <time>2017-07-23T09:13:16Z</time>
      </trkpt>
      <trkpt lat="47.14444" lon="5.87917">
        <ele>168.80000305176</ele>
        <time>2017-07-23T09:13:23Z</time>
      </trkpt>
      <trkpt lat="47.14421" lon="5.87861">
        <ele>168.60000610352</ele>
        <time>2017-07-23T09:13:30Z</time>
      </trkpt>
      <trkpt lat="47.14393" lon="5.878">
        <ele>168.60000610352</ele>
        <time>2017-07-23T09:13:38Z</time>
      </trkpt>
      <trkpt lat="47.14368" lon="5.87742">
        <ele>168.60000610352</ele>
        <time>2017-07-23T09:13:45Z</time>
      </trkpt>
      <trkpt lat="47.14345" lon="5.87684">
        <ele>168.60000610352</ele>
        <time>2017-07-23T09:13:52Z</time>
      </trkpt>
      <trkpt lat="47.14341" lon="5.87676">
        <ele>168.60000610352</ele>
        <time>2017-07-23T09:13:53Z</time>
      </trkpt>
      <trkpt lat="47.14328" lon="5.87643">
        <ele>168.39999389648</ele>
        <time>2017-07-23T09:13:57Z</time>
      </trkpt>
      <trkpt lat="47.14298" lon="5.87569">
        <ele>168.39999389648</ele>
        <time>2017-07-23T09:14:06Z</time>
      </trkpt>
      <trkpt lat="47.14268" lon="5.87497">
        <ele>168.39999389648</ele>
        <time>2017-07-23T09:14:15Z</time>
      </trkpt>
      <trkpt lat="47.14241" lon="5.87433">
        <ele>168.60000610352</ele>
        <time>2017-07-23T09:14:23Z</time>
      </trkpt>
      <trkpt lat="47.14211" lon="5.87361">
        <ele>168.39999389648</ele>
        <time>2017-07-23T09:14:32Z</time>
      </trkpt>
      <trkpt lat="47.14186" lon="5.87324">
        <ele>168.80000305176</ele>
        <time>2017-07-23T09:14:38Z</time>
      </trkpt>
      <trkpt lat="47.14182" lon="5.87317">
        <ele>168.80000305176</ele>
        <time>2017-07-23T09:14:39Z</time>
      </trkpt>
      <trkpt lat="47.1418" lon="5.873">
        <ele>169</ele>
        <time>2017-07-23T09:14:41Z</time>
      </trkpt>
      <trkpt lat="47.14177" lon="5.87285">
        <ele>169</ele>
        <time>2017-07-23T09:14:43Z</time>
      </trkpt>
      <trkpt lat="47.1417" lon="5.87261">
        <ele>169</ele>
        <time>2017-07-23T09:14:46Z</time>
      </trkpt>
      <trkpt lat="47.14152" lon="5.87205">
        <ele>168.60000610352</ele>
        <time>2017-07-23T09:14:53Z</time>
      </trkpt>
      <trkpt lat="47.14128" lon="5.87136">
        <ele>168.60000610352</ele>
        <time>2017-07-23T09:15:02Z</time>
      </trkpt>
      <trkpt lat="47.14109" lon="5.87082">
        <ele>168.39999389648</ele>
        <time>2017-07-23T09:15:09Z</time>
      </trkpt>
      <trkpt lat="47.14107" lon="5.87074">
        <ele>168.39999389648</ele>
        <time>2017-07-23T09:15:10Z</time>
      </trkpt>
      <trkpt lat="47.14098" lon="5.87046">
        <ele>168.60000610352</ele>
        <time>2017-07-23T09:15:14Z</time>
      </trkpt>
      <trkpt lat="47.14093" lon="5.87036">
        <ele>168.60000610352</ele>
        <time>2017-07-23T09:15:16Z</time>
      </trkpt>
      <trkpt lat="47.14081" lon="5.87013">
        <ele>170.19999694824</ele>
        <time>2017-07-23T09:15:22Z</time>
      </trkpt>
      <trkpt lat="47.14079" lon="5.87008">
        <ele>170.60000610352</ele>
        <time>2017-07-23T09:15:23Z</time>
      </trkpt>
      <trkpt lat="47.14071" lon="5.86988">
        <ele>171</ele>
        <time>2017-07-23T09:15:26Z</time>
      </trkpt>
      <trkpt lat="47.14048" lon="5.86927">
        <ele>169.60000610352</ele>
        <time>2017-07-23T09:15:33Z</time>
      </trkpt>
      <trkpt lat="47.14039" lon="5.86901">
        <ele>169.19999694824</ele>
        <time>2017-07-23T09:15:36Z</time>
      </trkpt>
      <trkpt lat="47.14024" lon="5.8686">
        <ele>169</ele>
        <time>2017-07-23T09:15:41Z</time>
      </trkpt>
      <trkpt lat="47.14003" lon="5.86784">
        <ele>168.80000305176</ele>
        <time>2017-07-23T09:15:50Z</time>
      </trkpt>
      <trkpt lat="47.1399" lon="5.86714">
        <ele>168.60000610352</ele>
        <time>2017-07-23T09:15:58Z</time>
      </trkpt>
      <trkpt lat="47.13981" lon="5.86672">
        <ele>168.60000610352</ele>
        <time>2017-07-23T09:16:03Z</time>
      </trkpt>
      <trkpt lat="47.13979" lon="5.86663">
        <ele>168.60000610352</ele>
        <time>2017-07-23T09:16:04Z</time>
      </trkpt>
      <trkpt lat="47.13963" lon="5.86595">
        <ele>168.39999389648</ele>
        <time>2017-07-23T09:16:12Z</time>
      </trkpt>
      <trkpt lat="47.13945" lon="5.8652">
        <ele>168.60000610352</ele>
        <time>2017-07-23T09:16:21Z</time>
      </trkpt>
      <trkpt lat="47.13941" lon="5.86503">
        <ele>168.39999389648</ele>
        <time>2017-07-23T09:16:23Z</time>
      </trkpt>
      <trkpt lat="47.13929" lon="5.86451">
        <ele>168.39999389648</ele>
        <time>2017-07-23T09:16:29Z</time>
      </trkpt>
      <trkpt lat="47.1391" lon="5.86376">
        <ele>168.60000610352</ele>
        <time>2017-07-23T09:16:38Z</time>
      </trkpt>
      <trkpt lat="47.13897" lon="5.86316">
        <ele>168.60000610352</ele>
        <time>2017-07-23T09:16:45Z</time>
      </trkpt>
      <trkpt lat="47.13893" lon="5.8628">
        <ele>168.60000610352</ele>
        <time>2017-07-23T09:16:49Z</time>
      </trkpt>
      <trkpt lat="47.13892" lon="5.86262">
        <ele>168.60000610352</ele>
        <time>2017-07-23T09:16:51Z</time>
      </trkpt>
      <trkpt lat="47.13897" lon="5.86199">
        <ele>168.60000610352</ele>
        <time>2017-07-23T09:16:58Z</time>
      </trkpt>
      <trkpt lat="47.13903" lon="5.86128">
        <ele>168.39999389648</ele>
        <time>2017-07-23T09:17:06Z</time>
      </trkpt>
      <trkpt lat="47.1391" lon="5.86048">
        <ele>168.39999389648</ele>
        <time>2017-07-23T09:17:15Z</time>
      </trkpt>
      <trkpt lat="47.13918" lon="5.85967">
        <ele>168.60000610352</ele>
        <time>2017-07-23T09:17:24Z</time>
      </trkpt>
      <trkpt lat="47.13922" lon="5.85889">
        <ele>168.60000610352</ele>
        <time>2017-07-23T09:17:33Z</time>
      </trkpt>
      <trkpt lat="47.13924" lon="5.85871">
        <ele>168.60000610352</ele>
        <time>2017-07-23T09:17:35Z</time>
      </trkpt>
      <trkpt lat="47.1393" lon="5.85834">
        <ele>168.60000610352</ele>
        <time>2017-07-23T09:17:39Z</time>
      </trkpt>
      <trkpt lat="47.13938" lon="5.85774">
        <ele>168.19999694824</ele>
        <time>2017-07-23T09:17:45Z</time>
      </trkpt>
      <trkpt lat="47.13939" lon="5.85764">
        <ele>168</ele>
        <time>2017-07-23T09:17:46Z</time>
      </trkpt>
      <trkpt lat="47.13946" lon="5.85685">
        <ele>167.60000610352</ele>
        <time>2017-07-23T09:17:54Z</time>
      </trkpt>
      <trkpt lat="47.13946" lon="5.85676">
        <ele>167.60000610352</ele>
        <time>2017-07-23T09:17:55Z</time>
      </trkpt>
      <trkpt lat="47.13952" lon="5.8561">
        <ele>167.60000610352</ele>
        <time>2017-07-23T09:18:02Z</time>
      </trkpt>
      <trkpt lat="47.13958" lon="5.85546">
        <ele>167.39999389648</ele>
        <time>2017-07-23T09:18:09Z</time>
      </trkpt>
      <trkpt lat="47.13965" lon="5.85467">
        <ele>167.39999389648</ele>
        <time>2017-07-23T09:18:18Z</time>
      </trkpt>
      <trkpt lat="47.13966" lon="5.85459">
        <ele>167.39999389648</ele>
        <time>2017-07-23T09:18:19Z</time>
      </trkpt>
      <trkpt lat="47.13973" lon="5.85387">
        <ele>167.19999694824</ele>
        <time>2017-07-23T09:18:27Z</time>
      </trkpt>
      <trkpt lat="47.13973" lon="5.85378">
        <ele>167.19999694824</ele>
        <time>2017-07-23T09:18:28Z</time>
      </trkpt>
      <trkpt lat="47.13977" lon="5.85336">
        <ele>167.39999389648</ele>
        <time>2017-07-23T09:18:33Z</time>
      </trkpt>
      <trkpt lat="47.13983" lon="5.85285">
        <ele>167.19999694824</ele>
        <time>2017-07-23T09:18:40Z</time>
      </trkpt>
      <trkpt lat="47.13984" lon="5.85278">
        <ele>167.19999694824</ele>
        <time>2017-07-23T09:18:42Z</time>
      </trkpt>
      <trkpt lat="47.13981" lon="5.85271">
        <ele>167.39999389648</ele>
        <time>2017-07-23T09:18:44Z</time>
      </trkpt>
      <trkpt lat="47.13971" lon="5.85267">
        <ele>167.60000610352</ele>
        <time>2017-07-23T09:18:47Z</time>
      </trkpt>
      <trkpt lat="47.13968" lon="5.85265">
        <ele>167.80000305176</ele>
        <time>2017-07-23T09:18:48Z</time>
      </trkpt>
      <trkpt lat="47.13959" lon="5.85257">
        <ele>168.19999694824</ele>
        <time>2017-07-23T09:18:51Z</time>
      </trkpt>
      <trkpt lat="47.13959" lon="5.85251">
        <ele>168.19999694824</ele>
        <time>2017-07-23T09:18:52Z</time>
      </trkpt>
      <trkpt lat="47.13963" lon="5.85231">
        <ele>168</ele>
        <time>2017-07-23T09:18:55Z</time>
      </trkpt>
      <trkpt lat="47.13965" lon="5.85224">
        <ele>168</ele>
        <time>2017-07-23T09:18:56Z</time>
      </trkpt>
      <trkpt lat="47.13984" lon="5.85166">
        <ele>167.39999389648</ele>
        <time>2017-07-23T09:19:04Z</time>
      </trkpt>
      <trkpt lat="47.13993" lon="5.85148">
        <ele>167.60000610352</ele>
        <time>2017-07-23T09:19:07Z</time>
      </trkpt>
      <trkpt lat="47.14" lon="5.85138">
        <ele>167.60000610352</ele>
        <time>2017-07-23T09:19:09Z</time>
      </trkpt>
      <trkpt lat="47.14029" lon="5.85097">
        <ele>167.60000610352</ele>
        <time>2017-07-23T09:19:16Z</time>
      </trkpt>
      <trkpt lat="47.14037" lon="5.85086">
        <ele>167.60000610352</ele>
        <time>2017-07-23T09:19:18Z</time>
      </trkpt>
      <trkpt lat="47.14051" lon="5.85075">
        <ele>167.60000610352</ele>
        <time>2017-07-23T09:19:21Z</time>
      </trkpt>
      <trkpt lat="47.14078" lon="5.85059">
        <ele>167.60000610352</ele>
        <time>2017-07-23T09:19:27Z</time>
      </trkpt>
      <trkpt lat="47.14105" lon="5.85046">
        <ele>167.60000610352</ele>
        <time>2017-07-23T09:19:34Z</time>
      </trkpt>
      <trkpt lat="47.14126" lon="5.85041">
        <ele>167.60000610352</ele>
        <time>2017-07-23T09:19:38Z</time>
      </trkpt>
      <trkpt lat="47.14131" lon="5.85041">
        <ele>167.60000610352</ele>
        <time>2017-07-23T09:19:39Z</time>
      </trkpt>
      <trkpt lat="47.14166" lon="5.85042">
        <ele>167.19999694824</ele>
        <time>2017-07-23T09:19:45Z</time>
      </trkpt>
      <trkpt lat="47.14179" lon="5.85045">
        <ele>167.19999694824</ele>
        <time>2017-07-23T09:19:47Z</time>
      </trkpt>
      <trkpt lat="47.14198" lon="5.85052">
        <ele>167.39999389648</ele>
        <time>2017-07-23T09:19:50Z</time>
      </trkpt>
      <trkpt lat="47.14234" lon="5.85069">
        <ele>167.19999694824</ele>
        <time>2017-07-23T09:19:56Z</time>
      </trkpt>
      <trkpt lat="47.14254" lon="5.85078">
        <ele>167</ele>
        <time>2017-07-23T09:19:59Z</time>
      </trkpt>
      <trkpt lat="47.14273" lon="5.85088">
        <ele>167.19999694824</ele>
        <time>2017-07-23T09:20:02Z</time>
      </trkpt>
      <trkpt lat="47.14324" lon="5.85113">
        <ele>167</ele>
        <time>2017-07-23T09:20:10Z</time>
      </trkpt>
      <trkpt lat="47.14382" lon="5.85141">
        <ele>166.80000305176</ele>
        <time>2017-07-23T09:20:19Z</time>
      </trkpt>
      <trkpt lat="47.14439" lon="5.85168">
        <ele>166.60000610352</ele>
        <time>2017-07-23T09:20:28Z</time>
      </trkpt>
      <trkpt lat="47.14483" lon="5.85188">
        <ele>166.39999389648</ele>
        <time>2017-07-23T09:20:35Z</time>
      </trkpt>
      <trkpt lat="47.14541" lon="5.85212">
        <ele>166.39999389648</ele>
        <time>2017-07-23T09:20:44Z</time>
      </trkpt>
      <trkpt lat="47.14566" lon="5.85227">
        <ele>166</ele>
        <time>2017-07-23T09:20:48Z</time>
      </trkpt>
      <trkpt lat="47.14579" lon="5.85234">
        <ele>166</ele>
        <time>2017-07-23T09:20:50Z</time>
      </trkpt>
      <trkpt lat="47.14618" lon="5.85251">
        <ele>166</ele>
        <time>2017-07-23T09:20:56Z</time>
      </trkpt>
      <trkpt lat="47.14668" lon="5.85275">
        <ele>165.80000305176</ele>
        <time>2017-07-23T09:21:04Z</time>
      </trkpt>
      <trkpt lat="47.14706" lon="5.85293">
        <ele>165.80000305176</ele>
        <time>2017-07-23T09:21:10Z</time>
      </trkpt>
      <trkpt lat="47.14744" lon="5.85311">
        <ele>165.60000610352</ele>
        <time>2017-07-23T09:21:16Z</time>
      </trkpt>
      <trkpt lat="47.14777" lon="5.85329">
        <ele>165.60000610352</ele>
        <time>2017-07-23T09:21:21Z</time>
      </trkpt>
      <trkpt lat="47.14821" lon="5.85349">
        <ele>165.39999389648</ele>
        <time>2017-07-23T09:21:28Z</time>
      </trkpt>
      <trkpt lat="47.14878" lon="5.85375">
        <ele>165.39999389648</ele>
        <time>2017-07-23T09:21:37Z</time>
      </trkpt>
      <trkpt lat="47.14923" lon="5.85399">
        <ele>165</ele>
        <time>2017-07-23T09:21:44Z</time>
      </trkpt>
      <trkpt lat="47.1493" lon="5.85402">
        <ele>165</ele>
        <time>2017-07-23T09:21:45Z</time>
      </trkpt>
      <trkpt lat="47.14969" lon="5.85419">
        <ele>165</ele>
        <time>2017-07-23T09:21:51Z</time>
      </trkpt>
      <trkpt lat="47.15022" lon="5.85445">
        <ele>164.80000305176</ele>
        <time>2017-07-23T09:21:59Z</time>
      </trkpt>
      <trkpt lat="47.15067" lon="5.85467">
        <ele>164.80000305176</ele>
        <time>2017-07-23T09:22:06Z</time>
      </trkpt>
      <trkpt lat="47.15111" lon="5.85487">
        <ele>164.80000305176</ele>
        <time>2017-07-23T09:22:13Z</time>
      </trkpt>
      <trkpt lat="47.15155" lon="5.85509">
        <ele>164.60000610352</ele>
        <time>2017-07-23T09:22:20Z</time>
      </trkpt>
      <trkpt lat="47.15201" lon="5.85528">
        <ele>164.60000610352</ele>
        <time>2017-07-23T09:22:27Z</time>
      </trkpt>
      <trkpt lat="47.15248" lon="5.85553">
        <ele>164.60000610352</ele>
        <time>2017-07-23T09:22:34Z</time>
      </trkpt>
      <trkpt lat="47.15296" lon="5.85576">
        <ele>164.60000610352</ele>
        <time>2017-07-23T09:22:41Z</time>
      </trkpt>
      <trkpt lat="47.15339" lon="5.85591">
        <ele>164.60000610352</ele>
        <time>2017-07-23T09:22:47Z</time>
      </trkpt>
      <trkpt lat="47.15379" lon="5.85602">
        <ele>164.60000610352</ele>
        <time>2017-07-23T09:22:53Z</time>
      </trkpt>
      <trkpt lat="47.15413" lon="5.85604">
        <ele>164.80000305176</ele>
        <time>2017-07-23T09:22:58Z</time>
      </trkpt>
      <trkpt lat="47.15459" lon="5.85612">
        <ele>164.80000305176</ele>
        <time>2017-07-23T09:23:05Z</time>
      </trkpt>
      <trkpt lat="47.15495" lon="5.85615">
        <ele>164.80000305176</ele>
        <time>2017-07-23T09:23:10Z</time>
      </trkpt>
      <trkpt lat="47.1551" lon="5.85617">
        <ele>164.80000305176</ele>
        <time>2017-07-23T09:23:12Z</time>
      </trkpt>
      <trkpt lat="47.15523" lon="5.85614">
        <ele>164.60000610352</ele>
        <time>2017-07-23T09:23:14Z</time>
      </trkpt>
      <trkpt lat="47.15563" lon="5.85609">
        <ele>165.39999389648</ele>
        <time>2017-07-23T09:23:20Z</time>
      </trkpt>
      <trkpt lat="47.15569" lon="5.8561">
        <ele>165.60000610352</ele>
        <time>2017-07-23T09:23:21Z</time>
      </trkpt>
      <trkpt lat="47.15578" lon="5.8562">
        <ele>166.19999694824</ele>
        <time>2017-07-23T09:23:23Z</time>
      </trkpt>
      <trkpt lat="47.15581" lon="5.85633">
        <ele>166.80000305176</ele>
        <time>2017-07-23T09:23:25Z</time>
      </trkpt>
      <trkpt lat="47.15581" lon="5.85637">
        <ele>167.19999694824</ele>
        <time>2017-07-23T09:23:26Z</time>
      </trkpt>
      <trkpt lat="47.1558" lon="5.85642">
        <ele>167.39999389648</ele>
        <time>2017-07-23T09:23:27Z</time>
      </trkpt>
      <trkpt lat="47.15579" lon="5.85654">
        <ele>168.60000610352</ele>
        <time>2017-07-23T09:23:31Z</time>
      </trkpt>
      <trkpt lat="47.15579" lon="5.85661">
        <ele>168.60000610352</ele>
        <time>2017-07-23T09:23:33Z</time>
      </trkpt>
      <trkpt lat="47.15581" lon="5.85667">
        <ele>168.80000305176</ele>
        <time>2017-07-23T09:23:35Z</time>
      </trkpt>
      <trkpt lat="47.15595" lon="5.85676">
        <ele>168.19999694824</ele>
        <time>2017-07-23T09:23:39Z</time>
      </trkpt>
      <trkpt lat="47.1561" lon="5.8567">
        <ele>167.39999389648</ele>
        <time>2017-07-23T09:23:42Z</time>
      </trkpt>
      <trkpt lat="47.15615" lon="5.85665">
        <ele>167</ele>
        <time>2017-07-23T09:23:43Z</time>
      </trkpt>
      <trkpt lat="47.15635" lon="5.85653">
        <ele>166.39999389648</ele>
        <time>2017-07-23T09:23:47Z</time>
      </trkpt>
      <trkpt lat="47.15641" lon="5.85651">
        <ele>166.19999694824</ele>
        <time>2017-07-23T09:23:48Z</time>
      </trkpt>
      <trkpt lat="47.15693" lon="5.85641">
        <ele>165.60000610352</ele>
        <time>2017-07-23T09:23:56Z</time>
      </trkpt>
      <trkpt lat="47.15744" lon="5.85623">
        <ele>165.39999389648</ele>
        <time>2017-07-23T09:24:04Z</time>
      </trkpt>
      <trkpt lat="47.15787" lon="5.85601">
        <ele>165.39999389648</ele>
        <time>2017-07-23T09:24:11Z</time>
      </trkpt>
      <trkpt lat="47.15806" lon="5.85591">
        <ele>165.19999694824</ele>
        <time>2017-07-23T09:24:14Z</time>
      </trkpt>
      <trkpt lat="47.15836" lon="5.85569">
        <ele>165</ele>
        <time>2017-07-23T09:24:19Z</time>
      </trkpt>
      <trkpt lat="47.15888" lon="5.85529">
        <ele>165</ele>
        <time>2017-07-23T09:24:28Z</time>
      </trkpt>
      <trkpt lat="47.15934" lon="5.85491">
        <ele>164.60000610352</ele>
        <time>2017-07-23T09:24:36Z</time>
      </trkpt>
      <trkpt lat="47.15987" lon="5.85449">
        <ele>164.80000305176</ele>
        <time>2017-07-23T09:24:45Z</time>
      </trkpt>
      <trkpt lat="47.16028" lon="5.85416">
        <ele>164.80000305176</ele>
        <time>2017-07-23T09:24:52Z</time>
      </trkpt>
      <trkpt lat="47.16077" lon="5.85376">
        <ele>165.19999694824</ele>
        <time>2017-07-23T09:25:00Z</time>
      </trkpt>
      <trkpt lat="47.16125" lon="5.85339">
        <ele>165.19999694824</ele>
        <time>2017-07-23T09:25:08Z</time>
      </trkpt>
      <trkpt lat="47.16173" lon="5.85301">
        <ele>165</ele>
        <time>2017-07-23T09:25:16Z</time>
      </trkpt>
      <trkpt lat="47.16186" lon="5.85291">
        <ele>165</ele>
        <time>2017-07-23T09:25:18Z</time>
      </trkpt>
      <trkpt lat="47.16221" lon="5.85262">
        <ele>165</ele>
        <time>2017-07-23T09:25:24Z</time>
      </trkpt>
      <trkpt lat="47.16256" lon="5.85233">
        <ele>165</ele>
        <time>2017-07-23T09:25:30Z</time>
      </trkpt>
      <trkpt lat="47.16301" lon="5.85194">
        <ele>165.19999694824</ele>
        <time>2017-07-23T09:25:38Z</time>
      </trkpt>
      <trkpt lat="47.16332" lon="5.85161">
        <ele>165</ele>
        <time>2017-07-23T09:25:44Z</time>
      </trkpt>
      <trkpt lat="47.16376" lon="5.85108">
        <ele>164.60000610352</ele>
        <time>2017-07-23T09:25:53Z</time>
      </trkpt>
      <trkpt lat="47.16409" lon="5.85063">
        <ele>164.80000305176</ele>
        <time>2017-07-23T09:26:00Z</time>
      </trkpt>
      <trkpt lat="47.16444" lon="5.85006">
        <ele>164.60000610352</ele>
        <time>2017-07-23T09:26:08Z</time>
      </trkpt>
      <trkpt lat="47.16475" lon="5.84955">
        <ele>164.60000610352</ele>
        <time>2017-07-23T09:26:15Z</time>
      </trkpt>
      <trkpt lat="47.16506" lon="5.84894">
        <ele>164.60000610352</ele>
        <time>2017-07-23T09:26:23Z</time>
      </trkpt>
      <trkpt lat="47.16535" lon="5.84821">
        <ele>165</ele>
        <time>2017-07-23T09:26:32Z</time>
      </trkpt>
      <trkpt lat="47.16538" lon="5.84813">
        <ele>165</ele>
        <time>2017-07-23T09:26:33Z</time>
      </trkpt>
      <trkpt lat="47.16562" lon="5.84738">
        <ele>164.80000305176</ele>
        <time>2017-07-23T09:26:42Z</time>
      </trkpt>
      <trkpt lat="47.16579" lon="5.84671">
        <ele>164.39999389648</ele>
        <time>2017-07-23T09:26:50Z</time>
      </trkpt>
      <trkpt lat="47.1659" lon="5.84619">
        <ele>164.60000610352</ele>
        <time>2017-07-23T09:26:56Z</time>
      </trkpt>
      <trkpt lat="47.166" lon="5.84559">
        <ele>164.60000610352</ele>
        <time>2017-07-23T09:27:03Z</time>
      </trkpt>
      <trkpt lat="47.16611" lon="5.84498">
        <ele>164.19999694824</ele>
        <time>2017-07-23T09:27:10Z</time>
      </trkpt>
      <trkpt lat="47.16613" lon="5.8449">
        <ele>164.19999694824</ele>
        <time>2017-07-23T09:27:11Z</time>
      </trkpt>
      <trkpt lat="47.16622" lon="5.84439">
        <ele>164</ele>
        <time>2017-07-23T09:27:17Z</time>
      </trkpt>
      <trkpt lat="47.16632" lon="5.84379">
        <ele>164.19999694824</ele>
        <time>2017-07-23T09:27:24Z</time>
      </trkpt>
      <trkpt lat="47.16646" lon="5.84297">
        <ele>164</ele>
        <time>2017-07-23T09:27:33Z</time>
      </trkpt>
      <trkpt lat="47.16657" lon="5.84216">
        <ele>164</ele>
        <time>2017-07-23T09:27:42Z</time>
      </trkpt>
      <trkpt lat="47.16659" lon="5.84207">
        <ele>164.19999694824</ele>
        <time>2017-07-23T09:27:43Z</time>
      </trkpt>
      <trkpt lat="47.16675" lon="5.84145">
        <ele>164.19999694824</ele>
        <time>2017-07-23T09:27:50Z</time>
      </trkpt>
      <trkpt lat="47.16688" lon="5.84068">
        <ele>164</ele>
        <time>2017-07-23T09:27:58Z</time>
      </trkpt>
      <trkpt lat="47.16702" lon="5.83991">
        <ele>163.80000305176</ele>
        <time>2017-07-23T09:28:06Z</time>
      </trkpt>
      <trkpt lat="47.16715" lon="5.83914">
        <ele>163.80000305176</ele>
        <time>2017-07-23T09:28:14Z</time>
      </trkpt>
      <trkpt lat="47.16718" lon="5.83894">
        <ele>163.80000305176</ele>
        <time>2017-07-23T09:28:16Z</time>
      </trkpt>
      <trkpt lat="47.1673" lon="5.83815">
        <ele>163.80000305176</ele>
        <time>2017-07-23T09:28:24Z</time>
      </trkpt>
      <trkpt lat="47.16739" lon="5.83734">
        <ele>164.39999389648</ele>
        <time>2017-07-23T09:28:32Z</time>
      </trkpt>
      <trkpt lat="47.16742" lon="5.83655">
        <ele>164.39999389648</ele>
        <time>2017-07-23T09:28:40Z</time>
      </trkpt>
      <trkpt lat="47.16743" lon="5.83578">
        <ele>164.39999389648</ele>
        <time>2017-07-23T09:28:48Z</time>
      </trkpt>
      <trkpt lat="47.16742" lon="5.83505">
        <ele>163.80000305176</ele>
        <time>2017-07-23T09:28:56Z</time>
      </trkpt>
      <trkpt lat="47.16738" lon="5.83441">
        <ele>163.80000305176</ele>
        <time>2017-07-23T09:29:03Z</time>
      </trkpt>
      <trkpt lat="47.16726" lon="5.83357">
        <ele>164</ele>
        <time>2017-07-23T09:29:12Z</time>
      </trkpt>
      <trkpt lat="47.16714" lon="5.83283">
        <ele>164</ele>
        <time>2017-07-23T09:29:20Z</time>
      </trkpt>
      <trkpt lat="47.16698" lon="5.83208">
        <ele>164.19999694824</ele>
        <time>2017-07-23T09:29:28Z</time>
      </trkpt>
      <trkpt lat="47.1668" lon="5.83139">
        <ele>164.19999694824</ele>
        <time>2017-07-23T09:29:36Z</time>
      </trkpt>
      <trkpt lat="47.16657" lon="5.83071">
        <ele>164</ele>
        <time>2017-07-23T09:29:44Z</time>
      </trkpt>
      <trkpt lat="47.16637" lon="5.83004">
        <ele>163.80000305176</ele>
        <time>2017-07-23T09:29:52Z</time>
      </trkpt>
      <trkpt lat="47.16633" lon="5.8299">
        <ele>163.80000305176</ele>
        <time>2017-07-23T09:29:54Z</time>
      </trkpt>
      <trkpt lat="47.16627" lon="5.82978">
        <ele>163.60000610352</ele>
        <time>2017-07-23T09:29:56Z</time>
      </trkpt>
      <trkpt lat="47.16625" lon="5.82958">
        <ele>163.60000610352</ele>
        <time>2017-07-23T09:29:59Z</time>
      </trkpt>
      <trkpt lat="47.16625" lon="5.8295">
        <ele>163.39999389648</ele>
        <time>2017-07-23T09:30:00Z</time>
      </trkpt>
      <trkpt lat="47.16624" lon="5.82916">
        <ele>163.39999389648</ele>
        <time>2017-07-23T09:30:04Z</time>
      </trkpt>
      <trkpt lat="47.16621" lon="5.82856">
        <ele>163.39999389648</ele>
        <time>2017-07-23T09:30:11Z</time>
      </trkpt>
      <trkpt lat="47.16613" lon="5.82802">
        <ele>163.39999389648</ele>
        <time>2017-07-23T09:30:18Z</time>
      </trkpt>
      <trkpt lat="47.16613" lon="5.82795">
        <ele>163.39999389648</ele>
        <time>2017-07-23T09:30:19Z</time>
      </trkpt>
      <trkpt lat="47.16614" lon="5.82766">
        <ele>163.80000305176</ele>
        <time>2017-07-23T09:30:23Z</time>
      </trkpt>
      <trkpt lat="47.1662" lon="5.8271">
        <ele>163.39999389648</ele>
        <time>2017-07-23T09:30:30Z</time>
      </trkpt>
      <trkpt lat="47.1662" lon="5.82692">
        <ele>163.19999694824</ele>
        <time>2017-07-23T09:30:32Z</time>
      </trkpt>
      <trkpt lat="47.16618" lon="5.82647">
        <ele>162.80000305176</ele>
        <time>2017-07-23T09:30:37Z</time>
      </trkpt>
      <trkpt lat="47.16616" lon="5.82586">
        <ele>162.80000305176</ele>
        <time>2017-07-23T09:30:44Z</time>
      </trkpt>
      <trkpt lat="47.16616" lon="5.82505">
        <ele>162.60000610352</ele>
        <time>2017-07-23T09:30:53Z</time>
      </trkpt>
      <trkpt lat="47.16626" lon="5.82461">
        <ele>162.60000610352</ele>
        <time>2017-07-23T09:30:58Z</time>
      </trkpt>
      <trkpt lat="47.1665" lon="5.82395">
        <ele>163</ele>
        <time>2017-07-23T09:31:06Z</time>
      </trkpt>
      <trkpt lat="47.16675" lon="5.82337">
        <ele>163</ele>
        <time>2017-07-23T09:31:13Z</time>
      </trkpt>
      <trkpt lat="47.16698" lon="5.82279">
        <ele>162.80000305176</ele>
        <time>2017-07-23T09:31:20Z</time>
      </trkpt>
      <trkpt lat="47.16728" lon="5.82203">
        <ele>162.60000610352</ele>
        <time>2017-07-23T09:31:29Z</time>
      </trkpt>
      <trkpt lat="47.16732" lon="5.82195">
        <ele>162.60000610352</ele>
        <time>2017-07-23T09:31:30Z</time>
      </trkpt>
      <trkpt lat="47.16755" lon="5.82125">
        <ele>162.80000305176</ele>
        <time>2017-07-23T09:31:38Z</time>
      </trkpt>
      <trkpt lat="47.16776" lon="5.82061">
        <ele>163.19999694824</ele>
        <time>2017-07-23T09:31:45Z</time>
      </trkpt>
      <trkpt lat="47.16788" lon="5.81994">
        <ele>163.39999389648</ele>
        <time>2017-07-23T09:31:52Z</time>
      </trkpt>
      <trkpt lat="47.16798" lon="5.81917">
        <ele>163.39999389648</ele>
        <time>2017-07-23T09:32:00Z</time>
      </trkpt>
      <trkpt lat="47.16808" lon="5.8183">
        <ele>162.80000305176</ele>
        <time>2017-07-23T09:32:09Z</time>
      </trkpt>
      <trkpt lat="47.16811" lon="5.81747">
        <ele>162.60000610352</ele>
        <time>2017-07-23T09:32:17Z</time>
      </trkpt>
      <trkpt lat="47.16812" lon="5.81738">
        <ele>162.60000610352</ele>
        <time>2017-07-23T09:32:18Z</time>
      </trkpt>
      <trkpt lat="47.16812" lon="5.81685">
        <ele>162.60000610352</ele>
        <time>2017-07-23T09:32:24Z</time>
      </trkpt>
      <trkpt lat="47.16811" lon="5.81669">
        <ele>162.80000305176</ele>
        <time>2017-07-23T09:32:27Z</time>
      </trkpt>
      <trkpt lat="47.16809" lon="5.81633">
        <ele>162.39999389648</ele>
        <time>2017-07-23T09:32:34Z</time>
      </trkpt>
      <trkpt lat="47.16808" lon="5.81611">
        <ele>161.80000305176</ele>
        <time>2017-07-23T09:36:34Z</time>
      </trkpt>
      <trkpt lat="47.16808" lon="5.81617">
        <ele>161.80000305176</ele>
        <time>2017-07-23T09:36:36Z</time>
      </trkpt>
      <trkpt lat="47.16808" lon="5.81639">
        <ele>161.60000610352</ele>
        <time>2017-07-23T09:36:41Z</time>
      </trkpt>
      <trkpt lat="47.16809" lon="5.81661">
        <ele>161.80000305176</ele>
        <time>2017-07-23T09:36:45Z</time>
      </trkpt>
      <trkpt lat="47.16812" lon="5.81672">
        <ele>161.80000305176</ele>
        <time>2017-07-23T09:36:47Z</time>
      </trkpt>
      <trkpt lat="47.16815" lon="5.81676">
        <ele>161.80000305176</ele>
        <time>2017-07-23T09:36:48Z</time>
      </trkpt>
      <trkpt lat="47.16825" lon="5.81679">
        <ele>161.80000305176</ele>
        <time>2017-07-23T09:36:50Z</time>
      </trkpt>
      <trkpt lat="47.16835" lon="5.81678">
        <ele>161.80000305176</ele>
        <time>2017-07-23T09:36:52Z</time>
      </trkpt>
      <trkpt lat="47.16845" lon="5.81679">
        <ele>161.80000305176</ele>
        <time>2017-07-23T09:36:54Z</time>
      </trkpt>
      <trkpt lat="47.16855" lon="5.81681">
        <ele>161.80000305176</ele>
        <time>2017-07-23T09:36:56Z</time>
      </trkpt>
      <trkpt lat="47.16875" lon="5.81684">
        <ele>161.39999389648</ele>
        <time>2017-07-23T09:37:00Z</time>
      </trkpt>
      <trkpt lat="47.1688" lon="5.81686">
        <ele>161.39999389648</ele>
        <time>2017-07-23T09:37:01Z</time>
      </trkpt>
      <trkpt lat="47.16912" lon="5.81695">
        <ele>161.39999389648</ele>
        <time>2017-07-23T09:37:07Z</time>
      </trkpt>
      <trkpt lat="47.16945" lon="5.81704">
        <ele>161.19999694824</ele>
        <time>2017-07-23T09:37:13Z</time>
      </trkpt>
      <trkpt lat="47.16989" lon="5.81721">
        <ele>161</ele>
        <time>2017-07-23T09:37:21Z</time>
      </trkpt>
      <trkpt lat="47.17034" lon="5.81738">
        <ele>160.80000305176</ele>
        <time>2017-07-23T09:37:29Z</time>
      </trkpt>
      <trkpt lat="47.1704" lon="5.8174">
        <ele>160.80000305176</ele>
        <time>2017-07-23T09:37:30Z</time>
      </trkpt>
      <trkpt lat="47.17071" lon="5.81754">
        <ele>161.19999694824</ele>
        <time>2017-07-23T09:37:36Z</time>
      </trkpt>
      <trkpt lat="47.17108" lon="5.81768">
        <ele>161.60000610352</ele>
        <time>2017-07-23T09:37:43Z</time>
      </trkpt>
      <trkpt lat="47.17139" lon="5.81781">
        <ele>161.39999389648</ele>
        <time>2017-07-23T09:37:49Z</time>
      </trkpt>
      <trkpt lat="47.17175" lon="5.81793">
        <ele>161.39999389648</ele>
        <time>2017-07-23T09:37:56Z</time>
      </trkpt>
      <trkpt lat="47.17204" lon="5.81802">
        <ele>161.80000305176</ele>
        <time>2017-07-23T09:38:01Z</time>
      </trkpt>
      <trkpt lat="47.17229" lon="5.81809">
        <ele>161.60000610352</ele>
        <time>2017-07-23T09:38:05Z</time>
      </trkpt>
      <trkpt lat="47.1724" lon="5.81816">
        <ele>161.39999389648</ele>
        <time>2017-07-23T09:38:07Z</time>
      </trkpt>
      <trkpt lat="47.17246" lon="5.81819">
        <ele>161.39999389648</ele>
        <time>2017-07-23T09:38:08Z</time>
      </trkpt>
      <trkpt lat="47.1727" lon="5.81825">
        <ele>161</ele>
        <time>2017-07-23T09:38:12Z</time>
      </trkpt>
      <trkpt lat="47.1731" lon="5.81843">
        <ele>161.39999389648</ele>
        <time>2017-07-23T09:38:20Z</time>
      </trkpt>
      <trkpt lat="47.17327" lon="5.81851">
        <ele>161.39999389648</ele>
        <time>2017-07-23T09:38:23Z</time>
      </trkpt>
      <trkpt lat="47.17339" lon="5.81858">
        <ele>161.19999694824</ele>
        <time>2017-07-23T09:38:25Z</time>
      </trkpt>
      <trkpt lat="47.17358" lon="5.81867">
        <ele>160.80000305176</ele>
        <time>2017-07-23T09:38:28Z</time>
      </trkpt>
      <trkpt lat="47.17363" lon="5.8187">
        <ele>160.80000305176</ele>
        <time>2017-07-23T09:38:29Z</time>
      </trkpt>
      <trkpt lat="47.17369" lon="5.81874">
        <ele>160.60000610352</ele>
        <time>2017-07-23T09:38:30Z</time>
      </trkpt>
      <trkpt lat="47.17374" lon="5.81877">
        <ele>160.60000610352</ele>
        <time>2017-07-23T09:38:31Z</time>
      </trkpt>
      <trkpt lat="47.17407" lon="5.81893">
        <ele>160.39999389648</ele>
        <time>2017-07-23T09:38:37Z</time>
      </trkpt>
      <trkpt lat="47.17412" lon="5.81896">
        <ele>160.39999389648</ele>
        <time>2017-07-23T09:38:38Z</time>
      </trkpt>
      <trkpt lat="47.17427" lon="5.81907">
        <ele>160.60000610352</ele>
        <time>2017-07-23T09:38:41Z</time>
      </trkpt>
      <trkpt lat="47.17432" lon="5.81909">
        <ele>160.80000305176</ele>
        <time>2017-07-23T09:38:42Z</time>
      </trkpt>
      <trkpt lat="47.17445" lon="5.81907">
        <ele>160.80000305176</ele>
        <time>2017-07-23T09:38:46Z</time>
      </trkpt>
      <trkpt lat="47.17456" lon="5.81886">
        <ele>161</ele>
        <time>2017-07-23T09:38:50Z</time>
      </trkpt>
      <trkpt lat="47.17474" lon="5.81845">
        <ele>161.19999694824</ele>
        <time>2017-07-23T09:38:56Z</time>
      </trkpt>
      <trkpt lat="47.17496" lon="5.81795">
        <ele>161.39999389648</ele>
        <time>2017-07-23T09:39:03Z</time>
      </trkpt>
      <trkpt lat="47.17499" lon="5.81789">
        <ele>161.60000610352</ele>
        <time>2017-07-23T09:39:04Z</time>
      </trkpt>
      <trkpt lat="47.17524" lon="5.81747">
        <ele>161.60000610352</ele>
        <time>2017-07-23T09:39:11Z</time>
      </trkpt>
      <trkpt lat="47.17535" lon="5.81731">
        <ele>161.80000305176</ele>
        <time>2017-07-23T09:39:14Z</time>
      </trkpt>
      <trkpt lat="47.17555" lon="5.81706">
        <ele>162.19999694824</ele>
        <time>2017-07-23T09:39:19Z</time>
      </trkpt>
      <trkpt lat="47.17567" lon="5.81692">
        <ele>162.80000305176</ele>
        <time>2017-07-23T09:39:22Z</time>
      </trkpt>
      <trkpt lat="47.17589" lon="5.81669">
        <ele>163.19999694824</ele>
        <time>2017-07-23T09:39:27Z</time>
      </trkpt>
      <trkpt lat="47.17621" lon="5.81634">
        <ele>163.80000305176</ele>
        <time>2017-07-23T09:39:34Z</time>
      </trkpt>
      <trkpt lat="47.1763" lon="5.81622">
        <ele>163.80000305176</ele>
        <time>2017-07-23T09:39:36Z</time>
      </trkpt>
      <trkpt lat="47.17661" lon="5.81588">
        <ele>164</ele>
        <time>2017-07-23T09:39:42Z</time>
      </trkpt>
      <trkpt lat="47.177" lon="5.81554">
        <ele>163.80000305176</ele>
        <time>2017-07-23T09:39:49Z</time>
      </trkpt>
      <trkpt lat="47.17736" lon="5.81532">
        <ele>163.80000305176</ele>
        <time>2017-07-23T09:39:55Z</time>
      </trkpt>
      <trkpt lat="47.17778" lon="5.81515">
        <ele>163.60000610352</ele>
        <time>2017-07-23T09:40:02Z</time>
      </trkpt>
      <trkpt lat="47.17818" lon="5.81507">
        <ele>164.19999694824</ele>
        <time>2017-07-23T09:40:09Z</time>
      </trkpt>
      <trkpt lat="47.17837" lon="5.81502">
        <ele>164.80000305176</ele>
        <time>2017-07-23T09:40:13Z</time>
      </trkpt>
      <trkpt lat="47.1785" lon="5.815">
        <ele>165.39999389648</ele>
        <time>2017-07-23T09:40:16Z</time>
      </trkpt>
      <trkpt lat="47.17862" lon="5.81498">
        <ele>165.80000305176</ele>
        <time>2017-07-23T09:40:19Z</time>
      </trkpt>
      <trkpt lat="47.17879" lon="5.81494">
        <ele>166.80000305176</ele>
        <time>2017-07-23T09:40:24Z</time>
      </trkpt>
      <trkpt lat="47.17882" lon="5.81494">
        <ele>167</ele>
        <time>2017-07-23T09:40:25Z</time>
      </trkpt>
      <trkpt lat="47.17899" lon="5.8149">
        <ele>167.80000305176</ele>
        <time>2017-07-23T09:40:30Z</time>
      </trkpt>
      <trkpt lat="47.17903" lon="5.81489">
        <ele>168</ele>
        <time>2017-07-23T09:40:31Z</time>
      </trkpt>
      <trkpt lat="47.17925" lon="5.81479">
        <ele>169.19999694824</ele>
        <time>2017-07-23T09:40:38Z</time>
      </trkpt>
      <trkpt lat="47.17938" lon="5.81463">
        <ele>169.80000305176</ele>
        <time>2017-07-23T09:40:44Z</time>
      </trkpt>
      <trkpt lat="47.17944" lon="5.8145">
        <ele>170.19999694824</ele>
        <time>2017-07-23T09:40:48Z</time>
      </trkpt>
      <trkpt lat="47.17945" lon="5.8144">
        <ele>171.39999389648</ele>
        <time>2017-07-23T09:40:51Z</time>
      </trkpt>
      <trkpt lat="47.1795" lon="5.81409">
        <ele>172.39999389648</ele>
        <time>2017-07-23T09:40:59Z</time>
      </trkpt>
      <trkpt lat="47.17954" lon="5.81383">
        <ele>173.39999389648</ele>
        <time>2017-07-23T09:41:06Z</time>
      </trkpt>
      <trkpt lat="47.17957" lon="5.81365">
        <ele>174.60000610352</ele>
        <time>2017-07-23T09:41:11Z</time>
      </trkpt>
      <trkpt lat="47.17959" lon="5.81356">
        <ele>175</ele>
        <time>2017-07-23T09:41:13Z</time>
      </trkpt>
      <trkpt lat="47.1796" lon="5.81339">
        <ele>175.60000610352</ele>
        <time>2017-07-23T09:41:17Z</time>
      </trkpt>
      <trkpt lat="47.17962" lon="5.8133">
        <ele>176</ele>
        <time>2017-07-23T09:41:19Z</time>
      </trkpt>
      <trkpt lat="47.17964" lon="5.81317">
        <ele>176.80000305176</ele>
        <time>2017-07-23T09:41:22Z</time>
      </trkpt>
      <trkpt lat="47.17967" lon="5.81296">
        <ele>177.39999389648</ele>
        <time>2017-07-23T09:41:27Z</time>
      </trkpt>
      <trkpt lat="47.17968" lon="5.81288">
        <ele>177.80000305176</ele>
        <time>2017-07-23T09:41:29Z</time>
      </trkpt>
      <trkpt lat="47.17973" lon="5.81259">
        <ele>178.60000610352</ele>
        <time>2017-07-23T09:41:36Z</time>
      </trkpt>
      <trkpt lat="47.17973" lon="5.81255">
        <ele>178.80000305176</ele>
        <time>2017-07-23T09:41:37Z</time>
      </trkpt>
      <trkpt lat="47.17976" lon="5.81231">
        <ele>179.80000305176</ele>
        <time>2017-07-23T09:41:43Z</time>
      </trkpt>
      <trkpt lat="47.17978" lon="5.81223">
        <ele>180.60000610352</ele>
        <time>2017-07-23T09:41:45Z</time>
      </trkpt>
      <trkpt lat="47.17979" lon="5.81211">
        <ele>181</ele>
        <time>2017-07-23T09:41:48Z</time>
      </trkpt>
      <trkpt lat="47.17982" lon="5.81195">
        <ele>181.80000305176</ele>
        <time>2017-07-23T09:41:52Z</time>
      </trkpt>
      <trkpt lat="47.17983" lon="5.81191">
        <ele>182</ele>
        <time>2017-07-23T09:41:53Z</time>
      </trkpt>
      <trkpt lat="47.17986" lon="5.81163">
        <ele>183</ele>
        <time>2017-07-23T09:42:00Z</time>
      </trkpt>
      <trkpt lat="47.17986" lon="5.8116">
        <ele>183.19999694824</ele>
        <time>2017-07-23T09:42:01Z</time>
      </trkpt>
      <trkpt lat="47.17991" lon="5.81147">
        <ele>184.19999694824</ele>
        <time>2017-07-23T09:42:05Z</time>
      </trkpt>
      <trkpt lat="47.17994" lon="5.81145">
        <ele>184.60000610352</ele>
        <time>2017-07-23T09:42:06Z</time>
      </trkpt>
      <trkpt lat="47.18001" lon="5.81146">
        <ele>185.39999389648</ele>
        <time>2017-07-23T09:42:09Z</time>
      </trkpt>
      <trkpt lat="47.18006" lon="5.8115">
        <ele>186</ele>
        <time>2017-07-23T09:42:11Z</time>
      </trkpt>
      <trkpt lat="47.18008" lon="5.81152">
        <ele>186.19999694824</ele>
        <time>2017-07-23T09:42:12Z</time>
      </trkpt>
      <trkpt lat="47.1801" lon="5.81154">
        <ele>186.39999389648</ele>
        <time>2017-07-23T09:42:13Z</time>
      </trkpt>
      <trkpt lat="47.18019" lon="5.8117">
        <ele>187.60000610352</ele>
        <time>2017-07-23T09:42:18Z</time>
      </trkpt>
      <trkpt lat="47.18029" lon="5.8119">
        <ele>188.39999389648</ele>
        <time>2017-07-23T09:42:24Z</time>
      </trkpt>
      <trkpt lat="47.18031" lon="5.81193">
        <ele>188.60000610352</ele>
        <time>2017-07-23T09:42:25Z</time>
      </trkpt>
      <trkpt lat="47.18042" lon="5.81219">
        <ele>189.39999389648</ele>
        <time>2017-07-23T09:42:32Z</time>
      </trkpt>
      <trkpt lat="47.18044" lon="5.81222">
        <ele>189.80000305176</ele>
        <time>2017-07-23T09:42:33Z</time>
      </trkpt>
      <trkpt lat="47.18056" lon="5.81245">
        <ele>190.80000305176</ele>
        <time>2017-07-23T09:42:40Z</time>
      </trkpt>
      <trkpt lat="47.18067" lon="5.81264">
        <ele>191.80000305176</ele>
        <time>2017-07-23T09:42:46Z</time>
      </trkpt>
      <trkpt lat="47.18069" lon="5.81266">
        <ele>192</ele>
        <time>2017-07-23T09:42:47Z</time>
      </trkpt>
      <trkpt lat="47.18083" lon="5.81275">
        <ele>193</ele>
        <time>2017-07-23T09:42:52Z</time>
      </trkpt>
      <trkpt lat="47.18086" lon="5.81277">
        <ele>193.19999694824</ele>
        <time>2017-07-23T09:42:53Z</time>
      </trkpt>
      <trkpt lat="47.18099" lon="5.81286">
        <ele>194</ele>
        <time>2017-07-23T09:42:58Z</time>
      </trkpt>
      <trkpt lat="47.18104" lon="5.81291">
        <ele>194.39999389648</ele>
        <time>2017-07-23T09:43:00Z</time>
      </trkpt>
      <trkpt lat="47.18117" lon="5.81307">
        <ele>195.19999694824</ele>
        <time>2017-07-23T09:43:05Z</time>
      </trkpt>
      <trkpt lat="47.18122" lon="5.81313">
        <ele>195.39999389648</ele>
        <time>2017-07-23T09:43:07Z</time>
      </trkpt>
      <trkpt lat="47.1814" lon="5.81337">
        <ele>195.80000305176</ele>
        <time>2017-07-23T09:43:14Z</time>
      </trkpt>
      <trkpt lat="47.18145" lon="5.81344">
        <ele>196.19999694824</ele>
        <time>2017-07-23T09:43:16Z</time>
      </trkpt>
      <trkpt lat="47.18159" lon="5.81355">
        <ele>197</ele>
        <time>2017-07-23T09:43:21Z</time>
      </trkpt>
      <trkpt lat="47.18165" lon="5.81356">
        <ele>197.19999694824</ele>
        <time>2017-07-23T09:43:23Z</time>
      </trkpt>
      <trkpt lat="47.18176" lon="5.81351">
        <ele>197.60000610352</ele>
        <time>2017-07-23T09:43:26Z</time>
      </trkpt>
      <trkpt lat="47.18196" lon="5.81338">
        <ele>198.19999694824</ele>
        <time>2017-07-23T09:43:32Z</time>
      </trkpt>
      <trkpt lat="47.18202" lon="5.81335">
        <ele>198.39999389648</ele>
        <time>2017-07-23T09:43:34Z</time>
      </trkpt>
      <trkpt lat="47.18209" lon="5.81329">
        <ele>198.39999389648</ele>
        <time>2017-07-23T09:43:41Z</time>
      </trkpt>
      <trkpt lat="47.18214" lon="5.81332">
        <ele>198</ele>
        <time>2017-07-23T09:43:43Z</time>
      </trkpt>
      <trkpt lat="47.18232" lon="5.81338">
        <ele>197.60000610352</ele>
        <time>2017-07-23T09:43:48Z</time>
      </trkpt>
      <trkpt lat="47.18248" lon="5.81339">
        <ele>197.19999694824</ele>
        <time>2017-07-23T09:43:52Z</time>
      </trkpt>
      <trkpt lat="47.18253" lon="5.81339">
        <ele>197.19999694824</ele>
        <time>2017-07-23T09:43:54Z</time>
      </trkpt>
      <trkpt lat="47.18264" lon="5.81338">
        <ele>196.60000610352</ele>
        <time>2017-07-23T09:43:58Z</time>
      </trkpt>
      <trkpt lat="47.18273" lon="5.81334">
        <ele>196.39999389648</ele>
        <time>2017-07-23T09:44:01Z</time>
      </trkpt>
      <trkpt lat="47.18274" lon="5.81331">
        <ele>196.39999389648</ele>
        <time>2017-07-23T09:44:02Z</time>
      </trkpt>
      <trkpt lat="47.1827" lon="5.81323">
        <ele>196.19999694824</ele>
        <time>2017-07-23T09:44:05Z</time>
      </trkpt>
      <trkpt lat="47.18267" lon="5.81324">
        <ele>196</ele>
        <time>2017-07-23T09:44:06Z</time>
      </trkpt>
      <trkpt lat="47.18259" lon="5.81331">
        <ele>196</ele>
        <time>2017-07-23T09:44:09Z</time>
      </trkpt>
      <trkpt lat="47.18247" lon="5.81346">
        <ele>196.60000610352</ele>
        <time>2017-07-23T09:44:14Z</time>
      </trkpt>
      <trkpt lat="47.18251" lon="5.81364">
        <ele>197</ele>
        <time>2017-07-23T09:44:18Z</time>
      </trkpt>
      <trkpt lat="47.18256" lon="5.81376">
        <ele>197.19999694824</ele>
        <time>2017-07-23T09:44:22Z</time>
      </trkpt>
      <trkpt lat="47.1826" lon="5.81386">
        <ele>197</ele>
        <time>2017-07-23T09:44:25Z</time>
      </trkpt>
      <trkpt lat="47.18261" lon="5.81392">
        <ele>196.80000305176</ele>
        <time>2017-07-23T09:44:26Z</time>
      </trkpt>
      <trkpt lat="47.18262" lon="5.81405">
        <ele>196.80000305176</ele>
        <time>2017-07-23T09:44:28Z</time>
      </trkpt>
      <trkpt lat="47.18263" lon="5.81417">
        <ele>196.60000610352</ele>
        <time>2017-07-23T09:44:30Z</time>
      </trkpt>
      <trkpt lat="47.18266" lon="5.81439">
        <ele>196</ele>
        <time>2017-07-23T09:44:35Z</time>
      </trkpt>
      <trkpt lat="47.18265" lon="5.8144">
        <ele>196</ele>
        <time>2017-07-23T09:44:36Z</time>
      </trkpt>
      <trkpt lat="47.18262" lon="5.81441">
        <ele>196</ele>
        <time>2017-07-23T10:01:04Z</time>
      </trkpt>
      <trkpt lat="47.18264" lon="5.81434">
        <ele>196.39999389648</ele>
        <time>2017-07-23T10:02:19Z</time>
      </trkpt>
      <trkpt lat="47.18264" lon="5.81428">
        <ele>196.39999389648</ele>
        <time>2017-07-23T10:02:21Z</time>
      </trkpt>
      <trkpt lat="47.18262" lon="5.81417">
        <ele>196.19999694824</ele>
        <time>2017-07-23T10:02:24Z</time>
      </trkpt>
      <trkpt lat="47.18262" lon="5.81404">
        <ele>196.19999694824</ele>
        <time>2017-07-23T10:02:27Z</time>
      </trkpt>
      <trkpt lat="47.18259" lon="5.81385">
        <ele>196</ele>
        <time>2017-07-23T10:02:32Z</time>
      </trkpt>
      <trkpt lat="47.18258" lon="5.8138">
        <ele>196.19999694824</ele>
        <time>2017-07-23T10:02:34Z</time>
      </trkpt>
      <trkpt lat="47.18256" lon="5.81372">
        <ele>196.80000305176</ele>
        <time>2017-07-23T10:02:37Z</time>
      </trkpt>
      <trkpt lat="47.18253" lon="5.81365">
        <ele>197.19999694824</ele>
        <time>2017-07-23T10:02:39Z</time>
      </trkpt>
      <trkpt lat="47.18252" lon="5.81353">
        <ele>197.39999389648</ele>
        <time>2017-07-23T10:02:42Z</time>
      </trkpt>
      <trkpt lat="47.18253" lon="5.81342">
        <ele>197</ele>
        <time>2017-07-23T10:03:20Z</time>
      </trkpt>
      <trkpt lat="47.18252" lon="5.8134">
        <ele>196.80000305176</ele>
        <time>2017-07-23T10:03:21Z</time>
      </trkpt>
      <trkpt lat="47.18245" lon="5.81337">
        <ele>196.80000305176</ele>
        <time>2017-07-23T10:03:24Z</time>
      </trkpt>
      <trkpt lat="47.18235" lon="5.81335">
        <ele>197.19999694824</ele>
        <time>2017-07-23T10:03:28Z</time>
      </trkpt>
      <trkpt lat="47.18231" lon="5.81333">
        <ele>197.39999389648</ele>
        <time>2017-07-23T10:03:30Z</time>
      </trkpt>
      <trkpt lat="47.18218" lon="5.81327">
        <ele>197.39999389648</ele>
        <time>2017-07-23T10:03:37Z</time>
      </trkpt>
      <trkpt lat="47.18208" lon="5.81321">
        <ele>198.19999694824</ele>
        <time>2017-07-23T10:04:01Z</time>
      </trkpt>
      <trkpt lat="47.18206" lon="5.81319">
        <ele>198.19999694824</ele>
        <time>2017-07-23T10:04:02Z</time>
      </trkpt>
      <trkpt lat="47.18205" lon="5.81316">
        <ele>198.39999389648</ele>
        <time>2017-07-23T10:04:03Z</time>
      </trkpt>
      <trkpt lat="47.18198" lon="5.81307">
        <ele>198.60000610352</ele>
        <time>2017-07-23T10:04:06Z</time>
      </trkpt>
      <trkpt lat="47.18193" lon="5.81295">
        <ele>198.60000610352</ele>
        <time>2017-07-23T10:04:09Z</time>
      </trkpt>
      <trkpt lat="47.18186" lon="5.81276">
        <ele>199</ele>
        <time>2017-07-23T10:04:14Z</time>
      </trkpt>
      <trkpt lat="47.1818" lon="5.81262">
        <ele>199.19999694824</ele>
        <time>2017-07-23T10:04:17Z</time>
      </trkpt>
      <trkpt lat="47.18175" lon="5.81244">
        <ele>199.60000610352</ele>
        <time>2017-07-23T10:04:21Z</time>
      </trkpt>
      <trkpt lat="47.18176" lon="5.81214">
        <ele>200</ele>
        <time>2017-07-23T10:04:27Z</time>
      </trkpt>
      <trkpt lat="47.18178" lon="5.81205">
        <ele>200.19999694824</ele>
        <time>2017-07-23T10:04:29Z</time>
      </trkpt>
      <trkpt lat="47.18179" lon="5.81185">
        <ele>201.39999389648</ele>
        <time>2017-07-23T10:04:33Z</time>
      </trkpt>
      <trkpt lat="47.18182" lon="5.81145">
        <ele>202</ele>
        <time>2017-07-23T10:04:41Z</time>
      </trkpt>
      <trkpt lat="47.18181" lon="5.81134">
        <ele>202.39999389648</ele>
        <time>2017-07-23T10:04:43Z</time>
      </trkpt>
      <trkpt lat="47.1818" lon="5.81099">
        <ele>203.60000610352</ele>
        <time>2017-07-23T10:04:49Z</time>
      </trkpt>
      <trkpt lat="47.18179" lon="5.81064">
        <ele>204</ele>
        <time>2017-07-23T10:04:55Z</time>
      </trkpt>
      <trkpt lat="47.18174" lon="5.81023">
        <ele>204.19999694824</ele>
        <time>2017-07-23T10:05:02Z</time>
      </trkpt>
      <trkpt lat="47.18177" lon="5.81007">
        <ele>204</ele>
        <time>2017-07-23T10:05:05Z</time>
      </trkpt>
      <trkpt lat="47.18181" lon="5.80978">
        <ele>204.19999694824</ele>
        <time>2017-07-23T10:05:10Z</time>
      </trkpt>
      <trkpt lat="47.18184" lon="5.80946">
        <ele>204.60000610352</ele>
        <time>2017-07-23T10:05:15Z</time>
      </trkpt>
      <trkpt lat="47.18183" lon="5.80939">
        <ele>204.60000610352</ele>
        <time>2017-07-23T10:05:16Z</time>
      </trkpt>
      <trkpt lat="47.18183" lon="5.80933">
        <ele>204.80000305176</ele>
        <time>2017-07-23T10:05:17Z</time>
      </trkpt>
      <trkpt lat="47.18183" lon="5.80872">
        <ele>205.19999694824</ele>
        <time>2017-07-23T10:05:26Z</time>
      </trkpt>
      <trkpt lat="47.18181" lon="5.80817">
        <ele>205.19999694824</ele>
        <time>2017-07-23T10:05:34Z</time>
      </trkpt>
      <trkpt lat="47.18174" lon="5.80784">
        <ele>205.19999694824</ele>
        <time>2017-07-23T10:05:39Z</time>
      </trkpt>
      <trkpt lat="47.18169" lon="5.80765">
        <ele>206</ele>
        <time>2017-07-23T10:05:42Z</time>
      </trkpt>
      <trkpt lat="47.18156" lon="5.80725">
        <ele>206</ele>
        <time>2017-07-23T10:05:48Z</time>
      </trkpt>
      <trkpt lat="47.18135" lon="5.80672">
        <ele>205.80000305176</ele>
        <time>2017-07-23T10:05:56Z</time>
      </trkpt>
      <trkpt lat="47.18112" lon="5.80618">
        <ele>205.60000610352</ele>
        <time>2017-07-23T10:06:04Z</time>
      </trkpt>
      <trkpt lat="47.18092" lon="5.80568">
        <ele>205</ele>
        <time>2017-07-23T10:06:11Z</time>
      </trkpt>
      <trkpt lat="47.18089" lon="5.8056">
        <ele>204.80000305176</ele>
        <time>2017-07-23T10:06:12Z</time>
      </trkpt>
      <trkpt lat="47.18066" lon="5.80505">
        <ele>204</ele>
        <time>2017-07-23T10:06:20Z</time>
      </trkpt>
      <trkpt lat="47.18059" lon="5.80485">
        <ele>202.80000305176</ele>
        <time>2017-07-23T10:06:24Z</time>
      </trkpt>
      <trkpt lat="47.18056" lon="5.80481">
        <ele>202.60000610352</ele>
        <time>2017-07-23T10:06:25Z</time>
      </trkpt>
      <trkpt lat="47.18046" lon="5.80461">
        <ele>202</ele>
        <time>2017-07-23T10:06:30Z</time>
      </trkpt>
      <trkpt lat="47.18046" lon="5.80455">
        <ele>201.60000610352</ele>
        <time>2017-07-23T10:06:31Z</time>
      </trkpt>
      <trkpt lat="47.1804" lon="5.8044">
        <ele>201.19999694824</ele>
        <time>2017-07-23T10:06:34Z</time>
      </trkpt>
      <trkpt lat="47.18033" lon="5.80425">
        <ele>200.60000610352</ele>
        <time>2017-07-23T10:06:37Z</time>
      </trkpt>
      <trkpt lat="47.18031" lon="5.80412">
        <ele>200</ele>
        <time>2017-07-23T10:06:40Z</time>
      </trkpt>
      <trkpt lat="47.18031" lon="5.80403">
        <ele>200</ele>
        <time>2017-07-23T10:06:42Z</time>
      </trkpt>
      <trkpt lat="47.18031" lon="5.80402">
        <ele>199.80000305176</ele>
        <time>2017-07-23T10:06:44Z</time>
      </trkpt>
      <trkpt lat="47.1803" lon="5.80401">
        <ele>199.19999694824</ele>
        <time>2017-07-23T10:06:54Z</time>
      </trkpt>
      <trkpt lat="47.18029" lon="5.80397">
        <ele>199.19999694824</ele>
        <time>2017-07-23T10:06:55Z</time>
      </trkpt>
      <trkpt lat="47.1803" lon="5.80392">
        <ele>199.39999389648</ele>
        <time>2017-07-23T10:06:56Z</time>
      </trkpt>
      <trkpt lat="47.18034" lon="5.80376">
        <ele>199.39999389648</ele>
        <time>2017-07-23T10:06:59Z</time>
      </trkpt>
      <trkpt lat="47.18034" lon="5.80369">
        <ele>199</ele>
        <time>2017-07-23T10:07:01Z</time>
      </trkpt>
      <trkpt lat="47.18034" lon="5.80365">
        <ele>199</ele>
        <time>2017-07-23T10:07:03Z</time>
      </trkpt>
      <trkpt lat="47.18031" lon="5.80361">
        <ele>198.80000305176</ele>
        <time>2017-07-23T10:07:05Z</time>
      </trkpt>
      <trkpt lat="47.18028" lon="5.80354">
        <ele>198.80000305176</ele>
        <time>2017-07-23T10:07:07Z</time>
      </trkpt>
      <trkpt lat="47.18021" lon="5.80347">
        <ele>198.80000305176</ele>
        <time>2017-07-23T10:07:09Z</time>
      </trkpt>
      <trkpt lat="47.18013" lon="5.80342">
        <ele>198.60000610352</ele>
        <time>2017-07-23T10:07:11Z</time>
      </trkpt>
      <trkpt lat="47.18001" lon="5.8033">
        <ele>198.60000610352</ele>
        <time>2017-07-23T10:07:14Z</time>
      </trkpt>
      <trkpt lat="47.17993" lon="5.8032">
        <ele>198.60000610352</ele>
        <time>2017-07-23T10:07:16Z</time>
      </trkpt>
      <trkpt lat="47.17986" lon="5.80307">
        <ele>198.80000305176</ele>
        <time>2017-07-23T10:07:18Z</time>
      </trkpt>
      <trkpt lat="47.17978" lon="5.80285">
        <ele>198.60000610352</ele>
        <time>2017-07-23T10:07:21Z</time>
      </trkpt>
      <trkpt lat="47.17967" lon="5.80252">
        <ele>198.19999694824</ele>
        <time>2017-07-23T10:07:25Z</time>
      </trkpt>
      <trkpt lat="47.17956" lon="5.80215">
        <ele>197.80000305176</ele>
        <time>2017-07-23T10:07:29Z</time>
      </trkpt>
      <trkpt lat="47.17948" lon="5.80189">
        <ele>197.39999389648</ele>
        <time>2017-07-23T10:07:32Z</time>
      </trkpt>
      <trkpt lat="47.17936" lon="5.80145">
        <ele>197.19999694824</ele>
        <time>2017-07-23T10:07:37Z</time>
      </trkpt>
      <trkpt lat="47.17914" lon="5.80066">
        <ele>196.19999694824</ele>
        <time>2017-07-23T10:07:46Z</time>
      </trkpt>
      <trkpt lat="47.17911" lon="5.80057">
        <ele>196.19999694824</ele>
        <time>2017-07-23T10:07:47Z</time>
      </trkpt>
      <trkpt lat="47.17909" lon="5.80048">
        <ele>196</ele>
        <time>2017-07-23T10:07:48Z</time>
      </trkpt>
      <trkpt lat="47.17886" lon="5.79967">
        <ele>195.60000610352</ele>
        <time>2017-07-23T10:07:57Z</time>
      </trkpt>
      <trkpt lat="47.17883" lon="5.79958">
        <ele>195.60000610352</ele>
        <time>2017-07-23T10:07:58Z</time>
      </trkpt>
      <trkpt lat="47.1786" lon="5.79879">
        <ele>195.19999694824</ele>
        <time>2017-07-23T10:08:07Z</time>
      </trkpt>
      <trkpt lat="47.17855" lon="5.79862">
        <ele>195</ele>
        <time>2017-07-23T10:08:09Z</time>
      </trkpt>
      <trkpt lat="47.17834" lon="5.79785">
        <ele>194.80000305176</ele>
        <time>2017-07-23T10:08:18Z</time>
      </trkpt>
      <trkpt lat="47.17813" lon="5.79714">
        <ele>193.80000305176</ele>
        <time>2017-07-23T10:08:26Z</time>
      </trkpt>
      <trkpt lat="47.17811" lon="5.79706">
        <ele>193.80000305176</ele>
        <time>2017-07-23T10:08:27Z</time>
      </trkpt>
      <trkpt lat="47.17794" lon="5.79647">
        <ele>193.39999389648</ele>
        <time>2017-07-23T10:08:34Z</time>
      </trkpt>
      <trkpt lat="47.17775" lon="5.7958">
        <ele>194.19999694824</ele>
        <time>2017-07-23T10:08:43Z</time>
      </trkpt>
      <trkpt lat="47.17762" lon="5.79532">
        <ele>195</ele>
        <time>2017-07-23T10:08:50Z</time>
      </trkpt>
      <trkpt lat="47.1776" lon="5.79525">
        <ele>195</ele>
        <time>2017-07-23T10:08:51Z</time>
      </trkpt>
      <trkpt lat="47.17742" lon="5.79463">
        <ele>195.80000305176</ele>
        <time>2017-07-23T10:09:00Z</time>
      </trkpt>
      <trkpt lat="47.17732" lon="5.79427">
        <ele>196</ele>
        <time>2017-07-23T10:09:05Z</time>
      </trkpt>
      <trkpt lat="47.17719" lon="5.79381">
        <ele>195.60000610352</ele>
        <time>2017-07-23T10:09:11Z</time>
      </trkpt>
      <trkpt lat="47.177" lon="5.79314">
        <ele>195.80000305176</ele>
        <time>2017-07-23T10:09:19Z</time>
      </trkpt>
      <trkpt lat="47.17679" lon="5.79239">
        <ele>194.80000305176</ele>
        <time>2017-07-23T10:09:27Z</time>
      </trkpt>
      <trkpt lat="47.17676" lon="5.7923">
        <ele>194.60000610352</ele>
        <time>2017-07-23T10:09:28Z</time>
      </trkpt>
      <trkpt lat="47.17655" lon="5.79154">
        <ele>194.19999694824</ele>
        <time>2017-07-23T10:09:36Z</time>
      </trkpt>
      <trkpt lat="47.17645" lon="5.79119">
        <ele>193.80000305176</ele>
        <time>2017-07-23T10:09:40Z</time>
      </trkpt>
      <trkpt lat="47.17629" lon="5.79062">
        <ele>193.19999694824</ele>
        <time>2017-07-23T10:09:46Z</time>
      </trkpt>
      <trkpt lat="47.17606" lon="5.78982">
        <ele>193.19999694824</ele>
        <time>2017-07-23T10:09:55Z</time>
      </trkpt>
      <trkpt lat="47.17584" lon="5.78908">
        <ele>193.19999694824</ele>
        <time>2017-07-23T10:10:03Z</time>
      </trkpt>
      <trkpt lat="47.17581" lon="5.78899">
        <ele>193.19999694824</ele>
        <time>2017-07-23T10:10:04Z</time>
      </trkpt>
      <trkpt lat="47.17559" lon="5.78821">
        <ele>192.80000305176</ele>
        <time>2017-07-23T10:10:12Z</time>
      </trkpt>
      <trkpt lat="47.17557" lon="5.78812">
        <ele>192.60000610352</ele>
        <time>2017-07-23T10:10:13Z</time>
      </trkpt>
      <trkpt lat="47.17534" lon="5.78732">
        <ele>192</ele>
        <time>2017-07-23T10:10:21Z</time>
      </trkpt>
      <trkpt lat="47.17531" lon="5.78721">
        <ele>191.60000610352</ele>
        <time>2017-07-23T10:10:22Z</time>
      </trkpt>
      <trkpt lat="47.17528" lon="5.78711">
        <ele>191.39999389648</ele>
        <time>2017-07-23T10:10:23Z</time>
      </trkpt>
      <trkpt lat="47.17515" lon="5.78659">
        <ele>190.19999694824</ele>
        <time>2017-07-23T10:10:28Z</time>
      </trkpt>
      <trkpt lat="47.17504" lon="5.7862">
        <ele>189.39999389648</ele>
        <time>2017-07-23T10:10:32Z</time>
      </trkpt>
      <trkpt lat="47.17486" lon="5.78563">
        <ele>189.80000305176</ele>
        <time>2017-07-23T10:10:39Z</time>
      </trkpt>
      <trkpt lat="47.17466" lon="5.7851">
        <ele>190.19999694824</ele>
        <time>2017-07-23T10:10:47Z</time>
      </trkpt>
      <trkpt lat="47.17437" lon="5.78448">
        <ele>190.80000305176</ele>
        <time>2017-07-23T10:10:57Z</time>
      </trkpt>
      <trkpt lat="47.17409" lon="5.78394">
        <ele>190.60000610352</ele>
        <time>2017-07-23T10:11:06Z</time>
      </trkpt>
      <trkpt lat="47.17382" lon="5.78343">
        <ele>189.80000305176</ele>
        <time>2017-07-23T10:11:14Z</time>
      </trkpt>
      <trkpt lat="47.17359" lon="5.78297">
        <ele>189.19999694824</ele>
        <time>2017-07-23T10:11:21Z</time>
      </trkpt>
      <trkpt lat="47.17355" lon="5.7829">
        <ele>188.80000305176</ele>
        <time>2017-07-23T10:11:22Z</time>
      </trkpt>
      <trkpt lat="47.17339" lon="5.78261">
        <ele>188</ele>
        <time>2017-07-23T10:11:26Z</time>
      </trkpt>
      <trkpt lat="47.17332" lon="5.78246">
        <ele>187.80000305176</ele>
        <time>2017-07-23T10:11:28Z</time>
      </trkpt>
      <trkpt lat="47.17308" lon="5.78197">
        <ele>186.80000305176</ele>
        <time>2017-07-23T10:11:34Z</time>
      </trkpt>
      <trkpt lat="47.17293" lon="5.78166">
        <ele>186.19999694824</ele>
        <time>2017-07-23T10:11:38Z</time>
      </trkpt>
      <trkpt lat="47.17262" lon="5.78112">
        <ele>186</ele>
        <time>2017-07-23T10:11:46Z</time>
      </trkpt>
      <trkpt lat="47.17228" lon="5.78048">
        <ele>186.19999694824</ele>
        <time>2017-07-23T10:11:56Z</time>
      </trkpt>
      <trkpt lat="47.17212" lon="5.78021">
        <ele>186.60000610352</ele>
        <time>2017-07-23T10:12:01Z</time>
      </trkpt>
      <trkpt lat="47.17199" lon="5.78">
        <ele>186.80000305176</ele>
        <time>2017-07-23T10:12:05Z</time>
      </trkpt>
      <trkpt lat="47.1718" lon="5.7797">
        <ele>187.80000305176</ele>
        <time>2017-07-23T10:12:11Z</time>
      </trkpt>
      <trkpt lat="47.17174" lon="5.77962">
        <ele>188.19999694824</ele>
        <time>2017-07-23T10:12:13Z</time>
      </trkpt>
      <trkpt lat="47.1716" lon="5.77937">
        <ele>189</ele>
        <time>2017-07-23T10:12:18Z</time>
      </trkpt>
      <trkpt lat="47.17154" lon="5.77927">
        <ele>189.19999694824</ele>
        <time>2017-07-23T10:12:20Z</time>
      </trkpt>
      <trkpt lat="47.17144" lon="5.77908">
        <ele>190</ele>
        <time>2017-07-23T10:12:24Z</time>
      </trkpt>
      <trkpt lat="47.17129" lon="5.77885">
        <ele>190.60000610352</ele>
        <time>2017-07-23T10:12:29Z</time>
      </trkpt>
      <trkpt lat="47.17124" lon="5.77875">
        <ele>191.19999694824</ele>
        <time>2017-07-23T10:12:31Z</time>
      </trkpt>
      <trkpt lat="47.17118" lon="5.77865">
        <ele>191.19999694824</ele>
        <time>2017-07-23T10:12:33Z</time>
      </trkpt>
      <trkpt lat="47.1711" lon="5.77852">
        <ele>191.80000305176</ele>
        <time>2017-07-23T10:12:36Z</time>
      </trkpt>
      <trkpt lat="47.17101" lon="5.77838">
        <ele>192.19999694824</ele>
        <time>2017-07-23T10:12:39Z</time>
      </trkpt>
      <trkpt lat="47.17088" lon="5.77814">
        <ele>193</ele>
        <time>2017-07-23T10:12:44Z</time>
      </trkpt>
      <trkpt lat="47.1708" lon="5.77802">
        <ele>193.39999389648</ele>
        <time>2017-07-23T10:12:47Z</time>
      </trkpt>
      <trkpt lat="47.17059" lon="5.77767">
        <ele>194.39999389648</ele>
        <time>2017-07-23T10:12:55Z</time>
      </trkpt>
      <trkpt lat="47.17057" lon="5.77763">
        <ele>194.60000610352</ele>
        <time>2017-07-23T10:12:56Z</time>
      </trkpt>
      <trkpt lat="47.17037" lon="5.77728">
        <ele>195.60000610352</ele>
        <time>2017-07-23T10:13:04Z</time>
      </trkpt>
      <trkpt lat="47.17032" lon="5.77719">
        <ele>196</ele>
        <time>2017-07-23T10:13:06Z</time>
      </trkpt>
      <trkpt lat="47.17025" lon="5.77706">
        <ele>196.60000610352</ele>
        <time>2017-07-23T10:13:09Z</time>
      </trkpt>
      <trkpt lat="47.17014" lon="5.77688">
        <ele>197.19999694824</ele>
        <time>2017-07-23T10:13:13Z</time>
      </trkpt>
      <trkpt lat="47.16998" lon="5.7766">
        <ele>197.80000305176</ele>
        <time>2017-07-23T10:13:19Z</time>
      </trkpt>
      <trkpt lat="47.16984" lon="5.77635">
        <ele>198.19999694824</ele>
        <time>2017-07-23T10:13:24Z</time>
      </trkpt>
      <trkpt lat="47.16959" lon="5.77591">
        <ele>198.80000305176</ele>
        <time>2017-07-23T10:13:33Z</time>
      </trkpt>
      <trkpt lat="47.16957" lon="5.77586">
        <ele>198.80000305176</ele>
        <time>2017-07-23T10:13:34Z</time>
      </trkpt>
      <trkpt lat="47.16932" lon="5.77542">
        <ele>199</ele>
        <time>2017-07-23T10:13:42Z</time>
      </trkpt>
      <trkpt lat="47.16907" lon="5.77498">
        <ele>198.19999694824</ele>
        <time>2017-07-23T10:13:49Z</time>
      </trkpt>
      <trkpt lat="47.16893" lon="5.77471">
        <ele>197.80000305176</ele>
        <time>2017-07-23T10:13:53Z</time>
      </trkpt>
      <trkpt lat="47.16875" lon="5.77438">
        <ele>197.60000610352</ele>
        <time>2017-07-23T10:13:58Z</time>
      </trkpt>
      <trkpt lat="47.16857" lon="5.77404">
        <ele>196.60000610352</ele>
        <time>2017-07-23T10:14:03Z</time>
      </trkpt>
      <trkpt lat="47.16846" lon="5.77383">
        <ele>196.39999389648</ele>
        <time>2017-07-23T10:14:06Z</time>
      </trkpt>
      <trkpt lat="47.16817" lon="5.77325">
        <ele>195.60000610352</ele>
        <time>2017-07-23T10:14:14Z</time>
      </trkpt>
      <trkpt lat="47.16813" lon="5.77317">
        <ele>195.39999389648</ele>
        <time>2017-07-23T10:14:15Z</time>
      </trkpt>
      <trkpt lat="47.16794" lon="5.77278">
        <ele>195.19999694824</ele>
        <time>2017-07-23T10:14:21Z</time>
      </trkpt>
      <trkpt lat="47.16775" lon="5.7724">
        <ele>195.19999694824</ele>
        <time>2017-07-23T10:14:28Z</time>
      </trkpt>
      <trkpt lat="47.16773" lon="5.77235">
        <ele>195.19999694824</ele>
        <time>2017-07-23T10:14:29Z</time>
      </trkpt>
      <trkpt lat="47.16761" lon="5.7721">
        <ele>196</ele>
        <time>2017-07-23T10:14:34Z</time>
      </trkpt>
      <trkpt lat="47.16751" lon="5.77189">
        <ele>196.80000305176</ele>
        <time>2017-07-23T10:14:38Z</time>
      </trkpt>
      <trkpt lat="47.16739" lon="5.77165">
        <ele>197.60000610352</ele>
        <time>2017-07-23T10:14:43Z</time>
      </trkpt>
      <trkpt lat="47.16737" lon="5.7716">
        <ele>197.80000305176</ele>
        <time>2017-07-23T10:14:44Z</time>
      </trkpt>
      <trkpt lat="47.16717" lon="5.77122">
        <ele>199</ele>
        <time>2017-07-23T10:14:52Z</time>
      </trkpt>
      <trkpt lat="47.16699" lon="5.77086">
        <ele>199.39999389648</ele>
        <time>2017-07-23T10:14:59Z</time>
      </trkpt>
      <trkpt lat="47.16696" lon="5.77081">
        <ele>199.39999389648</ele>
        <time>2017-07-23T10:15:00Z</time>
      </trkpt>
      <trkpt lat="47.16674" lon="5.77035">
        <ele>199.80000305176</ele>
        <time>2017-07-23T10:15:09Z</time>
      </trkpt>
      <trkpt lat="47.16666" lon="5.7702">
        <ele>200</ele>
        <time>2017-07-23T10:15:12Z</time>
      </trkpt>
      <trkpt lat="47.16649" lon="5.76987">
        <ele>199.80000305176</ele>
        <time>2017-07-23T10:15:18Z</time>
      </trkpt>
      <trkpt lat="47.16624" lon="5.76939">
        <ele>199.60000610352</ele>
        <time>2017-07-23T10:15:27Z</time>
      </trkpt>
      <trkpt lat="47.16603" lon="5.76896">
        <ele>199.19999694824</ele>
        <time>2017-07-23T10:15:35Z</time>
      </trkpt>
      <trkpt lat="47.1658" lon="5.76847">
        <ele>199.39999389648</ele>
        <time>2017-07-23T10:15:43Z</time>
      </trkpt>
      <trkpt lat="47.16557" lon="5.76797">
        <ele>199.60000610352</ele>
        <time>2017-07-23T10:15:51Z</time>
      </trkpt>
      <trkpt lat="47.16535" lon="5.76756">
        <ele>199.39999389648</ele>
        <time>2017-07-23T10:15:58Z</time>
      </trkpt>
      <trkpt lat="47.16513" lon="5.76714">
        <ele>199</ele>
        <time>2017-07-23T10:16:05Z</time>
      </trkpt>
      <trkpt lat="47.16509" lon="5.76707">
        <ele>198.80000305176</ele>
        <time>2017-07-23T10:16:06Z</time>
      </trkpt>
      <trkpt lat="47.1648" lon="5.76653">
        <ele>197.80000305176</ele>
        <time>2017-07-23T10:16:14Z</time>
      </trkpt>
      <trkpt lat="47.16444" lon="5.76589">
        <ele>196.80000305176</ele>
        <time>2017-07-23T10:16:23Z</time>
      </trkpt>
      <trkpt lat="47.16441" lon="5.76582">
        <ele>196.80000305176</ele>
        <time>2017-07-23T10:16:24Z</time>
      </trkpt>
      <trkpt lat="47.16427" lon="5.76555">
        <ele>197</ele>
        <time>2017-07-23T10:16:28Z</time>
      </trkpt>
      <trkpt lat="47.16424" lon="5.76549">
        <ele>197</ele>
        <time>2017-07-23T10:16:29Z</time>
      </trkpt>
      <trkpt lat="47.164" lon="5.76505">
        <ele>197.60000610352</ele>
        <time>2017-07-23T10:16:37Z</time>
      </trkpt>
      <trkpt lat="47.16391" lon="5.76488">
        <ele>198</ele>
        <time>2017-07-23T10:16:40Z</time>
      </trkpt>
      <trkpt lat="47.16377" lon="5.76461">
        <ele>198.19999694824</ele>
        <time>2017-07-23T10:16:45Z</time>
      </trkpt>
      <trkpt lat="47.16347" lon="5.76405">
        <ele>198.60000610352</ele>
        <time>2017-07-23T10:16:55Z</time>
      </trkpt>
      <trkpt lat="47.16319" lon="5.76353">
        <ele>198</ele>
        <time>2017-07-23T10:17:03Z</time>
      </trkpt>
      <trkpt lat="47.163" lon="5.76313">
        <ele>196.80000305176</ele>
        <time>2017-07-23T10:17:08Z</time>
      </trkpt>
      <trkpt lat="47.16287" lon="5.76288">
        <ele>196.39999389648</ele>
        <time>2017-07-23T10:17:11Z</time>
      </trkpt>
      <trkpt lat="47.1628" lon="5.7627">
        <ele>195.80000305176</ele>
        <time>2017-07-23T10:17:13Z</time>
      </trkpt>
      <trkpt lat="47.16269" lon="5.76244">
        <ele>194.60000610352</ele>
        <time>2017-07-23T10:17:16Z</time>
      </trkpt>
      <trkpt lat="47.16266" lon="5.76235">
        <ele>194.39999389648</ele>
        <time>2017-07-23T10:17:17Z</time>
      </trkpt>
      <trkpt lat="47.16247" lon="5.7618">
        <ele>193.80000305176</ele>
        <time>2017-07-23T10:17:24Z</time>
      </trkpt>
      <trkpt lat="47.16241" lon="5.76159">
        <ele>193.80000305176</ele>
        <time>2017-07-23T10:17:28Z</time>
      </trkpt>
      <trkpt lat="47.16236" lon="5.76153">
        <ele>193.60000610352</ele>
        <time>2017-07-23T10:17:30Z</time>
      </trkpt>
      <trkpt lat="47.16233" lon="5.76155">
        <ele>193.60000610352</ele>
        <time>2017-07-23T10:17:31Z</time>
      </trkpt>
      <trkpt lat="47.16224" lon="5.76167">
        <ele>193.39999389648</ele>
        <time>2017-07-23T10:17:34Z</time>
      </trkpt>
      <trkpt lat="47.16219" lon="5.76168">
        <ele>193.39999389648</ele>
        <time>2017-07-23T10:17:35Z</time>
      </trkpt>
      <trkpt lat="47.16209" lon="5.7616">
        <ele>193.19999694824</ele>
        <time>2017-07-23T10:17:37Z</time>
      </trkpt>
      <trkpt lat="47.16199" lon="5.76133">
        <ele>192.80000305176</ele>
        <time>2017-07-23T10:17:40Z</time>
      </trkpt>
      <trkpt lat="47.16195" lon="5.76124">
        <ele>192.60000610352</ele>
        <time>2017-07-23T10:17:41Z</time>
      </trkpt>
      <trkpt lat="47.16186" lon="5.76105">
        <ele>191.80000305176</ele>
        <time>2017-07-23T10:17:43Z</time>
      </trkpt>
      <trkpt lat="47.1618" lon="5.76095">
        <ele>191</ele>
        <time>2017-07-23T10:17:44Z</time>
      </trkpt>
      <trkpt lat="47.16174" lon="5.76086">
        <ele>190.60000610352</ele>
        <time>2017-07-23T10:17:45Z</time>
      </trkpt>
      <trkpt lat="47.1616" lon="5.76069">
        <ele>189.60000610352</ele>
        <time>2017-07-23T10:17:47Z</time>
      </trkpt>
      <trkpt lat="47.16146" lon="5.76052">
        <ele>188.39999389648</ele>
        <time>2017-07-23T10:17:49Z</time>
      </trkpt>
      <trkpt lat="47.16131" lon="5.76035">
        <ele>187.19999694824</ele>
        <time>2017-07-23T10:17:51Z</time>
      </trkpt>
      <trkpt lat="47.16115" lon="5.76019">
        <ele>186</ele>
        <time>2017-07-23T10:17:53Z</time>
      </trkpt>
      <trkpt lat="47.16099" lon="5.76003">
        <ele>184.80000305176</ele>
        <time>2017-07-23T10:17:55Z</time>
      </trkpt>
      <trkpt lat="47.16081" lon="5.75986">
        <ele>183.39999389648</ele>
        <time>2017-07-23T10:17:57Z</time>
      </trkpt>
      <trkpt lat="47.16065" lon="5.75971">
        <ele>182</ele>
        <time>2017-07-23T10:17:59Z</time>
      </trkpt>
      <trkpt lat="47.16051" lon="5.75956">
        <ele>180.39999389648</ele>
        <time>2017-07-23T10:18:01Z</time>
      </trkpt>
      <trkpt lat="47.16038" lon="5.75941">
        <ele>178.39999389648</ele>
        <time>2017-07-23T10:18:03Z</time>
      </trkpt>
      <trkpt lat="47.1603" lon="5.75936">
        <ele>177.60000610352</ele>
        <time>2017-07-23T10:18:04Z</time>
      </trkpt>
      <trkpt lat="47.16022" lon="5.7593">
        <ele>176.60000610352</ele>
        <time>2017-07-23T10:18:05Z</time>
      </trkpt>
      <trkpt lat="47.16002" lon="5.75921">
        <ele>174.80000305176</ele>
        <time>2017-07-23T10:18:07Z</time>
      </trkpt>
      <trkpt lat="47.15992" lon="5.75915">
        <ele>173</ele>
        <time>2017-07-23T10:18:08Z</time>
      </trkpt>
      <trkpt lat="47.15981" lon="5.7591">
        <ele>171.80000305176</ele>
        <time>2017-07-23T10:18:09Z</time>
      </trkpt>
      <trkpt lat="47.15971" lon="5.75905">
        <ele>170.80000305176</ele>
        <time>2017-07-23T10:18:10Z</time>
      </trkpt>
      <trkpt lat="47.1596" lon="5.75901">
        <ele>169.60000610352</ele>
        <time>2017-07-23T10:18:11Z</time>
      </trkpt>
      <trkpt lat="47.15949" lon="5.75899">
        <ele>168.60000610352</ele>
        <time>2017-07-23T10:18:12Z</time>
      </trkpt>
      <trkpt lat="47.15938" lon="5.759">
        <ele>167.60000610352</ele>
        <time>2017-07-23T10:18:13Z</time>
      </trkpt>
      <trkpt lat="47.15927" lon="5.75903">
        <ele>166.60000610352</ele>
        <time>2017-07-23T10:18:14Z</time>
      </trkpt>
      <trkpt lat="47.15917" lon="5.75907">
        <ele>165.60000610352</ele>
        <time>2017-07-23T10:18:15Z</time>
      </trkpt>
      <trkpt lat="47.15907" lon="5.75912">
        <ele>164.60000610352</ele>
        <time>2017-07-23T10:18:16Z</time>
      </trkpt>
      <trkpt lat="47.15898" lon="5.75917">
        <ele>163.80000305176</ele>
        <time>2017-07-23T10:18:17Z</time>
      </trkpt>
      <trkpt lat="47.1588" lon="5.75929">
        <ele>162.60000610352</ele>
        <time>2017-07-23T10:18:19Z</time>
      </trkpt>
      <trkpt lat="47.15863" lon="5.75941">
        <ele>161.80000305176</ele>
        <time>2017-07-23T10:18:21Z</time>
      </trkpt>
      <trkpt lat="47.15855" lon="5.75947">
        <ele>161.39999389648</ele>
        <time>2017-07-23T10:18:22Z</time>
      </trkpt>
      <trkpt lat="47.15829" lon="5.75966">
        <ele>160.39999389648</ele>
        <time>2017-07-23T10:18:26Z</time>
      </trkpt>
      <trkpt lat="47.15823" lon="5.7597">
        <ele>160.19999694824</ele>
        <time>2017-07-23T10:18:27Z</time>
      </trkpt>
      <trkpt lat="47.15815" lon="5.75969">
        <ele>159.80000305176</ele>
        <time>2017-07-23T10:18:29Z</time>
      </trkpt>
      <trkpt lat="47.15808" lon="5.75955">
        <ele>159.39999389648</ele>
        <time>2017-07-23T10:18:32Z</time>
      </trkpt>
      <trkpt lat="47.15806" lon="5.75947">
        <ele>159.39999389648</ele>
        <time>2017-07-23T10:18:33Z</time>
      </trkpt>
      <trkpt lat="47.15796" lon="5.75906">
        <ele>158.80000305176</ele>
        <time>2017-07-23T10:18:38Z</time>
      </trkpt>
      <trkpt lat="47.1578" lon="5.75854">
        <ele>158.60000610352</ele>
        <time>2017-07-23T10:18:45Z</time>
      </trkpt>
      <trkpt lat="47.15759" lon="5.75808">
        <ele>158.39999389648</ele>
        <time>2017-07-23T10:18:52Z</time>
      </trkpt>
      <trkpt lat="47.1575" lon="5.75789">
        <ele>158.39999389648</ele>
        <time>2017-07-23T10:18:55Z</time>
      </trkpt>
      <trkpt lat="47.15738" lon="5.75766">
        <ele>158.39999389648</ele>
        <time>2017-07-23T10:18:59Z</time>
      </trkpt>
      <trkpt lat="47.15718" lon="5.75726">
        <ele>158.60000610352</ele>
        <time>2017-07-23T10:19:06Z</time>
      </trkpt>
      <trkpt lat="47.15692" lon="5.75671">
        <ele>158.60000610352</ele>
        <time>2017-07-23T10:19:15Z</time>
      </trkpt>
      <trkpt lat="47.15668" lon="5.75625">
        <ele>158.19999694824</ele>
        <time>2017-07-23T10:19:23Z</time>
      </trkpt>
      <trkpt lat="47.15649" lon="5.75575">
        <ele>158.19999694824</ele>
        <time>2017-07-23T10:19:31Z</time>
      </trkpt>
      <trkpt lat="47.15631" lon="5.75516">
        <ele>158.39999389648</ele>
        <time>2017-07-23T10:19:40Z</time>
      </trkpt>
      <trkpt lat="47.15626" lon="5.75496">
        <ele>158.19999694824</ele>
        <time>2017-07-23T10:19:43Z</time>
      </trkpt>
      <trkpt lat="47.15618" lon="5.7547">
        <ele>158.19999694824</ele>
        <time>2017-07-23T10:19:47Z</time>
      </trkpt>
      <trkpt lat="47.15602" lon="5.75417">
        <ele>158.19999694824</ele>
        <time>2017-07-23T10:19:55Z</time>
      </trkpt>
      <trkpt lat="47.15584" lon="5.75356">
        <ele>158.19999694824</ele>
        <time>2017-07-23T10:20:04Z</time>
      </trkpt>
      <trkpt lat="47.15565" lon="5.75293">
        <ele>157.60000610352</ele>
        <time>2017-07-23T10:20:14Z</time>
      </trkpt>
      <trkpt lat="47.15557" lon="5.75258">
        <ele>157.80000305176</ele>
        <time>2017-07-23T10:20:20Z</time>
      </trkpt>
      <trkpt lat="47.15556" lon="5.75256">
        <ele>157.60000610352</ele>
        <time>2017-07-23T10:22:01Z</time>
      </trkpt>
      <trkpt lat="47.15556" lon="5.75253">
        <ele>157.19999694824</ele>
        <time>2017-07-23T10:22:17Z</time>
      </trkpt>
      <trkpt lat="47.15558" lon="5.75247">
        <ele>157.39999389648</ele>
        <time>2017-07-23T10:22:19Z</time>
      </trkpt>
      <trkpt lat="47.15568" lon="5.75233">
        <ele>157.39999389648</ele>
        <time>2017-07-23T10:22:23Z</time>
      </trkpt>
      <trkpt lat="47.15601" lon="5.75206">
        <ele>158</ele>
        <time>2017-07-23T10:22:32Z</time>
      </trkpt>
      <trkpt lat="47.15626" lon="5.75185">
        <ele>158</ele>
        <time>2017-07-23T10:22:39Z</time>
      </trkpt>
      <trkpt lat="47.15629" lon="5.75171">
        <ele>159</ele>
        <time>2017-07-23T10:22:43Z</time>
      </trkpt>
      <trkpt lat="47.15626" lon="5.75157">
        <ele>160</ele>
        <time>2017-07-23T10:22:46Z</time>
      </trkpt>
      <trkpt lat="47.15623" lon="5.7515">
        <ele>160.39999389648</ele>
        <time>2017-07-23T10:22:48Z</time>
      </trkpt>
      <trkpt lat="47.15611" lon="5.75121">
        <ele>161</ele>
        <time>2017-07-23T10:22:54Z</time>
      </trkpt>
      <trkpt lat="47.15599" lon="5.75085">
        <ele>160.80000305176</ele>
        <time>2017-07-23T10:23:01Z</time>
      </trkpt>
      <trkpt lat="47.15597" lon="5.7508">
        <ele>160.80000305176</ele>
        <time>2017-07-23T10:23:02Z</time>
      </trkpt>
      <trkpt lat="47.1558" lon="5.75035">
        <ele>160.60000610352</ele>
        <time>2017-07-23T10:23:09Z</time>
      </trkpt>
      <trkpt lat="47.1556" lon="5.74982">
        <ele>160.60000610352</ele>
        <time>2017-07-23T10:23:17Z</time>
      </trkpt>
      <trkpt lat="47.15547" lon="5.74945">
        <ele>160.60000610352</ele>
        <time>2017-07-23T10:23:23Z</time>
      </trkpt>
      <trkpt lat="47.1554" lon="5.74921">
        <ele>161</ele>
        <time>2017-07-23T10:23:27Z</time>
      </trkpt>
      <trkpt lat="47.15532" lon="5.74895">
        <ele>161.19999694824</ele>
        <time>2017-07-23T10:23:32Z</time>
      </trkpt>
      <trkpt lat="47.15519" lon="5.74851">
        <ele>161.39999389648</ele>
        <time>2017-07-23T10:23:40Z</time>
      </trkpt>
      <trkpt lat="47.15512" lon="5.74822">
        <ele>162.19999694824</ele>
        <time>2017-07-23T10:23:45Z</time>
      </trkpt>
      <trkpt lat="47.15509" lon="5.74806">
        <ele>162.39999389648</ele>
        <time>2017-07-23T10:23:48Z</time>
      </trkpt>
      <trkpt lat="47.15505" lon="5.74779">
        <ele>163.19999694824</ele>
        <time>2017-07-23T10:23:53Z</time>
      </trkpt>
      <trkpt lat="47.15505" lon="5.74762">
        <ele>163.60000610352</ele>
        <time>2017-07-23T10:23:56Z</time>
      </trkpt>
      <trkpt lat="47.15504" lon="5.74741">
        <ele>164.39999389648</ele>
        <time>2017-07-23T10:24:00Z</time>
      </trkpt>
      <trkpt lat="47.15504" lon="5.74724">
        <ele>164.80000305176</ele>
        <time>2017-07-23T10:24:03Z</time>
      </trkpt>
      <trkpt lat="47.15504" lon="5.74697">
        <ele>165.39999389648</ele>
        <time>2017-07-23T10:24:08Z</time>
      </trkpt>
      <trkpt lat="47.15505" lon="5.74676">
        <ele>165.60000610352</ele>
        <time>2017-07-23T10:24:12Z</time>
      </trkpt>
      <trkpt lat="47.15498" lon="5.74637">
        <ele>166.39999389648</ele>
        <time>2017-07-23T10:24:20Z</time>
      </trkpt>
      <trkpt lat="47.15485" lon="5.74625">
        <ele>166.19999694824</ele>
        <time>2017-07-23T10:24:24Z</time>
      </trkpt>
      <trkpt lat="47.15482" lon="5.74629">
        <ele>166.19999694824</ele>
        <time>2017-07-23T10:24:25Z</time>
      </trkpt>
      <trkpt lat="47.15474" lon="5.74652">
        <ele>166</ele>
        <time>2017-07-23T10:24:28Z</time>
      </trkpt>
      <trkpt lat="47.15458" lon="5.74668">
        <ele>165.19999694824</ele>
        <time>2017-07-23T10:24:31Z</time>
      </trkpt>
      <trkpt lat="47.15452" lon="5.74674">
        <ele>165</ele>
        <time>2017-07-23T10:24:32Z</time>
      </trkpt>
      <trkpt lat="47.15434" lon="5.74687">
        <ele>164.19999694824</ele>
        <time>2017-07-23T10:24:35Z</time>
      </trkpt>
      <trkpt lat="47.15417" lon="5.747">
        <ele>163.19999694824</ele>
        <time>2017-07-23T10:24:38Z</time>
      </trkpt>
      <trkpt lat="47.15411" lon="5.74705">
        <ele>163</ele>
        <time>2017-07-23T10:24:39Z</time>
      </trkpt>
      <trkpt lat="47.15389" lon="5.74719">
        <ele>162.39999389648</ele>
        <time>2017-07-23T10:24:44Z</time>
      </trkpt>
      <trkpt lat="47.15383" lon="5.74707">
        <ele>162.19999694824</ele>
        <time>2017-07-23T10:24:47Z</time>
      </trkpt>
      <trkpt lat="47.15382" lon="5.747">
        <ele>162.19999694824</ele>
        <time>2017-07-23T10:24:48Z</time>
      </trkpt>
      <trkpt lat="47.15378" lon="5.74684">
        <ele>161.80000305176</ele>
        <time>2017-07-23T10:24:50Z</time>
      </trkpt>
      <trkpt lat="47.15375" lon="5.74675">
        <ele>161.39999389648</ele>
        <time>2017-07-23T10:24:51Z</time>
      </trkpt>
      <trkpt lat="47.1537" lon="5.74658">
        <ele>160.60000610352</ele>
        <time>2017-07-23T10:24:53Z</time>
      </trkpt>
      <trkpt lat="47.15358" lon="5.7462">
        <ele>159.60000610352</ele>
        <time>2017-07-23T10:24:58Z</time>
      </trkpt>
      <trkpt lat="47.15354" lon="5.74607">
        <ele>159.60000610352</ele>
        <time>2017-07-23T10:25:00Z</time>
      </trkpt>
      <trkpt lat="47.15344" lon="5.74571">
        <ele>159.19999694824</ele>
        <time>2017-07-23T10:25:05Z</time>
      </trkpt>
      <trkpt lat="47.15327" lon="5.74513">
        <ele>159.39999389648</ele>
        <time>2017-07-23T10:25:13Z</time>
      </trkpt>
      <trkpt lat="47.15308" lon="5.74446">
        <ele>159.39999389648</ele>
        <time>2017-07-23T10:25:22Z</time>
      </trkpt>
      <trkpt lat="47.15294" lon="5.74403">
        <ele>159.39999389648</ele>
        <time>2017-07-23T10:25:28Z</time>
      </trkpt>
      <trkpt lat="47.15275" lon="5.7434">
        <ele>159.39999389648</ele>
        <time>2017-07-23T10:25:37Z</time>
      </trkpt>
      <trkpt lat="47.15261" lon="5.74289">
        <ele>159.60000610352</ele>
        <time>2017-07-23T10:25:44Z</time>
      </trkpt>
      <trkpt lat="47.1524" lon="5.74225">
        <ele>159.39999389648</ele>
        <time>2017-07-23T10:25:53Z</time>
      </trkpt>
      <trkpt lat="47.15233" lon="5.74196">
        <ele>159.39999389648</ele>
        <time>2017-07-23T10:25:57Z</time>
      </trkpt>
      <trkpt lat="47.15222" lon="5.7416">
        <ele>159.19999694824</ele>
        <time>2017-07-23T10:26:02Z</time>
      </trkpt>
      <trkpt lat="47.15201" lon="5.7409">
        <ele>159.39999389648</ele>
        <time>2017-07-23T10:26:12Z</time>
      </trkpt>
      <trkpt lat="47.1519" lon="5.7405">
        <ele>159.39999389648</ele>
        <time>2017-07-23T10:26:18Z</time>
      </trkpt>
      <trkpt lat="47.15172" lon="5.74006">
        <ele>159.60000610352</ele>
        <time>2017-07-23T10:26:25Z</time>
      </trkpt>
      <trkpt lat="47.1517" lon="5.73999">
        <ele>159.60000610352</ele>
        <time>2017-07-23T10:26:26Z</time>
      </trkpt>
      <trkpt lat="47.15166" lon="5.73969">
        <ele>159.19999694824</ele>
        <time>2017-07-23T10:26:31Z</time>
      </trkpt>
      <trkpt lat="47.15159" lon="5.73922">
        <ele>159</ele>
        <time>2017-07-23T10:26:37Z</time>
      </trkpt>
      <trkpt lat="47.15157" lon="5.73878">
        <ele>158.60000610352</ele>
        <time>2017-07-23T10:26:43Z</time>
      </trkpt>
      <trkpt lat="47.15161" lon="5.73828">
        <ele>158.39999389648</ele>
        <time>2017-07-23T10:26:50Z</time>
      </trkpt>
      <trkpt lat="47.15164" lon="5.73773">
        <ele>158.39999389648</ele>
        <time>2017-07-23T10:26:57Z</time>
      </trkpt>
      <trkpt lat="47.15163" lon="5.73732">
        <ele>158.39999389648</ele>
        <time>2017-07-23T10:27:02Z</time>
      </trkpt>
      <trkpt lat="47.1516" lon="5.73717">
        <ele>158.39999389648</ele>
        <time>2017-07-23T10:27:04Z</time>
      </trkpt>
      <trkpt lat="47.15145" lon="5.73664">
        <ele>158.80000305176</ele>
        <time>2017-07-23T10:27:11Z</time>
      </trkpt>
      <trkpt lat="47.1513" lon="5.73614">
        <ele>158.60000610352</ele>
        <time>2017-07-23T10:27:18Z</time>
      </trkpt>
      <trkpt lat="47.15114" lon="5.73563">
        <ele>158.80000305176</ele>
        <time>2017-07-23T10:27:25Z</time>
      </trkpt>
      <trkpt lat="47.15092" lon="5.73489">
        <ele>158.80000305176</ele>
        <time>2017-07-23T10:27:35Z</time>
      </trkpt>
      <trkpt lat="47.15076" lon="5.73441">
        <ele>158.60000610352</ele>
        <time>2017-07-23T10:27:42Z</time>
      </trkpt>
      <trkpt lat="47.15062" lon="5.73396">
        <ele>158.60000610352</ele>
        <time>2017-07-23T10:27:49Z</time>
      </trkpt>
      <trkpt lat="47.15045" lon="5.73341">
        <ele>158.80000305176</ele>
        <time>2017-07-23T10:27:57Z</time>
      </trkpt>
      <trkpt lat="47.15026" lon="5.73281">
        <ele>158.80000305176</ele>
        <time>2017-07-23T10:28:05Z</time>
      </trkpt>
      <trkpt lat="47.15007" lon="5.73223">
        <ele>158.60000610352</ele>
        <time>2017-07-23T10:28:13Z</time>
      </trkpt>
      <trkpt lat="47.14987" lon="5.73169">
        <ele>158.60000610352</ele>
        <time>2017-07-23T10:28:21Z</time>
      </trkpt>
      <trkpt lat="47.14962" lon="5.73115">
        <ele>158.60000610352</ele>
        <time>2017-07-23T10:28:29Z</time>
      </trkpt>
      <trkpt lat="47.14935" lon="5.73073">
        <ele>158.60000610352</ele>
        <time>2017-07-23T10:28:36Z</time>
      </trkpt>
      <trkpt lat="47.14908" lon="5.73029">
        <ele>158.60000610352</ele>
        <time>2017-07-23T10:28:43Z</time>
      </trkpt>
      <trkpt lat="47.14878" lon="5.72977">
        <ele>158.60000610352</ele>
        <time>2017-07-23T10:28:51Z</time>
      </trkpt>
      <trkpt lat="47.14856" lon="5.72925">
        <ele>159</ele>
        <time>2017-07-23T10:28:58Z</time>
      </trkpt>
      <trkpt lat="47.14839" lon="5.7287">
        <ele>159</ele>
        <time>2017-07-23T10:29:05Z</time>
      </trkpt>
      <trkpt lat="47.14829" lon="5.72811">
        <ele>159.39999389648</ele>
        <time>2017-07-23T10:29:12Z</time>
      </trkpt>
      <trkpt lat="47.14828" lon="5.72787">
        <ele>159.19999694824</ele>
        <time>2017-07-23T10:29:15Z</time>
      </trkpt>
      <trkpt lat="47.14828" lon="5.72755">
        <ele>159.19999694824</ele>
        <time>2017-07-23T10:29:19Z</time>
      </trkpt>
      <trkpt lat="47.14825" lon="5.7268">
        <ele>159</ele>
        <time>2017-07-23T10:29:28Z</time>
      </trkpt>
      <trkpt lat="47.14824" lon="5.72641">
        <ele>159</ele>
        <time>2017-07-23T10:29:33Z</time>
      </trkpt>
      <trkpt lat="47.14825" lon="5.72633">
        <ele>159</ele>
        <time>2017-07-23T10:29:34Z</time>
      </trkpt>
      <trkpt lat="47.14831" lon="5.72579">
        <ele>159</ele>
        <time>2017-07-23T10:29:41Z</time>
      </trkpt>
      <trkpt lat="47.1483" lon="5.72571">
        <ele>159.19999694824</ele>
        <time>2017-07-23T10:29:42Z</time>
      </trkpt>
      <trkpt lat="47.14828" lon="5.72533">
        <ele>159.39999389648</ele>
        <time>2017-07-23T10:29:47Z</time>
      </trkpt>
      <trkpt lat="47.14829" lon="5.72486">
        <ele>159.39999389648</ele>
        <time>2017-07-23T10:29:53Z</time>
      </trkpt>
      <trkpt lat="47.1483" lon="5.72479">
        <ele>159.39999389648</ele>
        <time>2017-07-23T10:29:54Z</time>
      </trkpt>
      <trkpt lat="47.14833" lon="5.72428">
        <ele>159</ele>
        <time>2017-07-23T10:30:02Z</time>
      </trkpt>
      <trkpt lat="47.1483" lon="5.72423">
        <ele>159.19999694824</ele>
        <time>2017-07-23T10:30:04Z</time>
      </trkpt>
      <trkpt lat="47.14827" lon="5.72421">
        <ele>159.39999389648</ele>
        <time>2017-07-23T10:30:05Z</time>
      </trkpt>
      <trkpt lat="47.14825" lon="5.72419">
        <ele>159.80000305176</ele>
        <time>2017-07-23T10:30:06Z</time>
      </trkpt>
      <trkpt lat="47.14819" lon="5.72419">
        <ele>160.19999694824</ele>
        <time>2017-07-23T10:30:08Z</time>
      </trkpt>
      <trkpt lat="47.14813" lon="5.72417">
        <ele>160.39999389648</ele>
        <time>2017-07-23T10:30:10Z</time>
      </trkpt>
      <trkpt lat="47.1479" lon="5.7241">
        <ele>160.80000305176</ele>
        <time>2017-07-23T10:30:15Z</time>
      </trkpt>
      <trkpt lat="47.14785" lon="5.72407">
        <ele>160.80000305176</ele>
        <time>2017-07-23T10:30:16Z</time>
      </trkpt>
      <trkpt lat="47.14763" lon="5.72396">
        <ele>160.60000610352</ele>
        <time>2017-07-23T10:30:21Z</time>
      </trkpt>
      <trkpt lat="47.14756" lon="5.7239">
        <ele>160.60000610352</ele>
        <time>2017-07-23T10:30:23Z</time>
      </trkpt>
      <trkpt lat="47.14748" lon="5.72381">
        <ele>160.60000610352</ele>
        <time>2017-07-23T10:30:26Z</time>
      </trkpt>
      <trkpt lat="47.14739" lon="5.72383">
        <ele>160.60000610352</ele>
        <time>2017-07-23T10:30:29Z</time>
      </trkpt>
      <trkpt lat="47.14736" lon="5.72387">
        <ele>160.60000610352</ele>
        <time>2017-07-23T10:30:30Z</time>
      </trkpt>
      <trkpt lat="47.14718" lon="5.72412">
        <ele>160.60000610352</ele>
        <time>2017-07-23T10:30:36Z</time>
      </trkpt>
      <trkpt lat="47.14712" lon="5.72419">
        <ele>160.60000610352</ele>
        <time>2017-07-23T10:30:38Z</time>
      </trkpt>
      <trkpt lat="47.14706" lon="5.72426">
        <ele>161</ele>
        <time>2017-07-23T10:30:40Z</time>
      </trkpt>
      <trkpt lat="47.14699" lon="5.72436">
        <ele>161.60000610352</ele>
        <time>2017-07-23T10:30:43Z</time>
      </trkpt>
      <trkpt lat="47.14694" lon="5.72442">
        <ele>162</ele>
        <time>2017-07-23T10:30:45Z</time>
      </trkpt>
      <trkpt lat="47.1468" lon="5.72458">
        <ele>163.19999694824</ele>
        <time>2017-07-23T10:30:50Z</time>
      </trkpt>
      <trkpt lat="47.14664" lon="5.72476">
        <ele>164.19999694824</ele>
        <time>2017-07-23T10:30:56Z</time>
      </trkpt>
      <trkpt lat="47.14656" lon="5.72488">
        <ele>164.60000610352</ele>
        <time>2017-07-23T10:30:59Z</time>
      </trkpt>
      <trkpt lat="47.14643" lon="5.72505">
        <ele>165.39999389648</ele>
        <time>2017-07-23T10:31:03Z</time>
      </trkpt>
      <trkpt lat="47.14629" lon="5.72521">
        <ele>166.19999694824</ele>
        <time>2017-07-23T10:31:07Z</time>
      </trkpt>
      <trkpt lat="47.14618" lon="5.72534">
        <ele>166.39999389648</ele>
        <time>2017-07-23T10:31:10Z</time>
      </trkpt>
      <trkpt lat="47.14599" lon="5.72558">
        <ele>166.39999389648</ele>
        <time>2017-07-23T10:31:15Z</time>
      </trkpt>
      <trkpt lat="47.14565" lon="5.72598">
        <ele>165.39999389648</ele>
        <time>2017-07-23T10:31:22Z</time>
      </trkpt>
      <trkpt lat="47.1456" lon="5.72606">
        <ele>165.19999694824</ele>
        <time>2017-07-23T10:31:23Z</time>
      </trkpt>
      <trkpt lat="47.14535" lon="5.72636">
        <ele>164</ele>
        <time>2017-07-23T10:31:27Z</time>
      </trkpt>
      <trkpt lat="47.14528" lon="5.72643">
        <ele>163.80000305176</ele>
        <time>2017-07-23T10:31:28Z</time>
      </trkpt>
      <trkpt lat="47.14517" lon="5.72656">
        <ele>162.39999389648</ele>
        <time>2017-07-23T10:31:30Z</time>
      </trkpt>
      <trkpt lat="47.14512" lon="5.72661">
        <ele>162</ele>
        <time>2017-07-23T10:31:31Z</time>
      </trkpt>
      <trkpt lat="47.14506" lon="5.72663">
        <ele>161.39999389648</ele>
        <time>2017-07-23T10:31:32Z</time>
      </trkpt>
      <trkpt lat="47.14499" lon="5.72661">
        <ele>161</ele>
        <time>2017-07-23T10:31:33Z</time>
      </trkpt>
      <trkpt lat="47.14493" lon="5.72655">
        <ele>160.60000610352</ele>
        <time>2017-07-23T10:31:34Z</time>
      </trkpt>
      <trkpt lat="47.14488" lon="5.72648">
        <ele>160.39999389648</ele>
        <time>2017-07-23T10:31:35Z</time>
      </trkpt>
      <trkpt lat="47.14479" lon="5.72634">
        <ele>159.80000305176</ele>
        <time>2017-07-23T10:31:37Z</time>
      </trkpt>
      <trkpt lat="47.14454" lon="5.72609">
        <ele>159.39999389648</ele>
        <time>2017-07-23T10:31:42Z</time>
      </trkpt>
      <trkpt lat="47.14449" lon="5.72607">
        <ele>159.39999389648</ele>
        <time>2017-07-23T10:31:43Z</time>
      </trkpt>
      <trkpt lat="47.14437" lon="5.72603">
        <ele>159.39999389648</ele>
        <time>2017-07-23T10:31:46Z</time>
      </trkpt>
      <trkpt lat="47.14436" lon="5.72602">
        <ele>159.39999389648</ele>
        <time>2017-07-23T10:31:47Z</time>
      </trkpt>
      <trkpt lat="47.14433" lon="5.72601">
        <ele>159.60000610352</ele>
        <time>2017-07-23T10:31:49Z</time>
      </trkpt>
      <trkpt lat="47.14431" lon="5.72601">
        <ele>159.80000305176</ele>
        <time>2017-07-23T10:31:51Z</time>
      </trkpt>
      <trkpt lat="47.1443" lon="5.726">
        <ele>159.80000305176</ele>
        <time>2017-07-23T10:31:52Z</time>
      </trkpt>
      <trkpt lat="47.14422" lon="5.72591">
        <ele>160</ele>
        <time>2017-07-23T10:32:00Z</time>
      </trkpt>
      <trkpt lat="47.14422" lon="5.72591">
        <ele>159.80000305176</ele>
        <time>2017-07-23T10:32:41Z</time>
      </trkpt>
      <trkpt lat="47.1442" lon="5.72591">
        <ele>159.80000305176</ele>
        <time>2017-07-23T10:32:42Z</time>
      </trkpt>
      <trkpt lat="47.14418" lon="5.72598">
        <ele>159.80000305176</ele>
        <time>2017-07-23T10:32:45Z</time>
      </trkpt>
      <trkpt lat="47.14421" lon="5.72598">
        <ele>159.80000305176</ele>
        <time>2017-07-23T10:32:46Z</time>
      </trkpt>
      <trkpt lat="47.1443" lon="5.72604">
        <ele>160</ele>
        <time>2017-07-23T10:32:50Z</time>
      </trkpt>
      <trkpt lat="47.14434" lon="5.72607">
        <ele>160.19999694824</ele>
        <time>2017-07-23T10:32:52Z</time>
      </trkpt>
      <trkpt lat="47.14437" lon="5.7261">
        <ele>160.19999694824</ele>
        <time>2017-07-23T10:32:54Z</time>
      </trkpt>
      <trkpt lat="47.14437" lon="5.72617">
        <ele>160.19999694824</ele>
        <time>2017-07-23T10:32:56Z</time>
      </trkpt>
      <trkpt lat="47.1443" lon="5.72623">
        <ele>160</ele>
        <time>2017-07-23T10:32:59Z</time>
      </trkpt>
      <trkpt lat="47.14427" lon="5.72625">
        <ele>160</ele>
        <time>2017-07-23T10:33:00Z</time>
      </trkpt>
      <trkpt lat="47.14425" lon="5.72628">
        <ele>160</ele>
        <time>2017-07-23T10:33:01Z</time>
      </trkpt>
      <trkpt lat="47.1442" lon="5.72643">
        <ele>160.80000305176</ele>
        <time>2017-07-23T10:33:05Z</time>
      </trkpt>
      <trkpt lat="47.14419" lon="5.72646">
        <ele>161.39999389648</ele>
        <time>2017-07-23T10:33:06Z</time>
      </trkpt>
      <trkpt lat="47.14416" lon="5.72661">
        <ele>162.60000610352</ele>
        <time>2017-07-23T10:33:10Z</time>
      </trkpt>
      <trkpt lat="47.14415" lon="5.72668">
        <ele>163</ele>
        <time>2017-07-23T10:33:12Z</time>
      </trkpt>
      <trkpt lat="47.14414" lon="5.72673">
        <ele>163.39999389648</ele>
        <time>2017-07-23T10:33:14Z</time>
      </trkpt>
      <trkpt lat="47.14413" lon="5.72674">
        <ele>163.60000610352</ele>
        <time>2017-07-23T10:33:15Z</time>
      </trkpt>
      <trkpt lat="47.14412" lon="5.72674">
        <ele>164</ele>
        <time>2017-07-23T10:33:16Z</time>
      </trkpt>
      <trkpt lat="47.14407" lon="5.72669">
        <ele>164.60000610352</ele>
        <time>2017-07-23T10:33:20Z</time>
      </trkpt>
      <trkpt lat="47.14407" lon="5.72667">
        <ele>164.60000610352</ele>
        <time>2017-07-23T10:33:21Z</time>
      </trkpt>
      <trkpt lat="47.14407" lon="5.72664">
        <ele>164.80000305176</ele>
        <time>2017-07-23T10:33:22Z</time>
      </trkpt>
      <trkpt lat="47.14405" lon="5.72654">
        <ele>165.39999389648</ele>
        <time>2017-07-23T10:33:26Z</time>
      </trkpt>
      <trkpt lat="47.14406" lon="5.72664">
        <ele>167</ele>
        <time>2017-07-23T10:53:55Z</time>
      </trkpt>
      <trkpt lat="47.14407" lon="5.72672">
        <ele>166.80000305176</ele>
        <time>2017-07-23T10:54:02Z</time>
      </trkpt>
      <trkpt lat="47.14409" lon="5.72675">
        <ele>166.80000305176</ele>
        <time>2017-07-23T10:54:04Z</time>
      </trkpt>
      <trkpt lat="47.14414" lon="5.72684">
        <ele>166.19999694824</ele>
        <time>2017-07-23T10:54:09Z</time>
      </trkpt>
      <trkpt lat="47.1442" lon="5.72684">
        <ele>166</ele>
        <time>2017-07-23T10:54:22Z</time>
      </trkpt>
      <trkpt lat="47.1442" lon="5.72682">
        <ele>166</ele>
        <time>2017-07-23T10:54:23Z</time>
      </trkpt>
      <trkpt lat="47.1442" lon="5.72676">
        <ele>165.19999694824</ele>
        <time>2017-07-23T10:54:37Z</time>
      </trkpt>
      <trkpt lat="47.14418" lon="5.7267">
        <ele>165</ele>
        <time>2017-07-23T10:54:40Z</time>
      </trkpt>
      <trkpt lat="47.14417" lon="5.72664">
        <ele>165</ele>
        <time>2017-07-23T10:54:42Z</time>
      </trkpt>
      <trkpt lat="47.14419" lon="5.72656">
        <ele>164.80000305176</ele>
        <time>2017-07-23T10:54:44Z</time>
      </trkpt>
      <trkpt lat="47.14425" lon="5.7263">
        <ele>163.60000610352</ele>
        <time>2017-07-23T10:54:50Z</time>
      </trkpt>
      <trkpt lat="47.14432" lon="5.72624">
        <ele>162.39999389648</ele>
        <time>2017-07-23T10:54:53Z</time>
      </trkpt>
      <trkpt lat="47.14435" lon="5.72621">
        <ele>162.19999694824</ele>
        <time>2017-07-23T10:54:54Z</time>
      </trkpt>
      <trkpt lat="47.14438" lon="5.72613">
        <ele>161.60000610352</ele>
        <time>2017-07-23T10:54:56Z</time>
      </trkpt>
      <trkpt lat="47.14437" lon="5.72607">
        <ele>161.39999389648</ele>
        <time>2017-07-23T10:54:57Z</time>
      </trkpt>
      <trkpt lat="47.14429" lon="5.72597">
        <ele>160.60000610352</ele>
        <time>2017-07-23T10:55:00Z</time>
      </trkpt>
      <trkpt lat="47.14426" lon="5.72595">
        <ele>160.39999389648</ele>
        <time>2017-07-23T10:55:01Z</time>
      </trkpt>
      <trkpt lat="47.14416" lon="5.72586">
        <ele>160.19999694824</ele>
        <time>2017-07-23T10:55:04Z</time>
      </trkpt>
      <trkpt lat="47.14413" lon="5.72582">
        <ele>160.19999694824</ele>
        <time>2017-07-23T10:55:05Z</time>
      </trkpt>
      <trkpt lat="47.14403" lon="5.72569">
        <ele>160.19999694824</ele>
        <time>2017-07-23T10:55:08Z</time>
      </trkpt>
      <trkpt lat="47.14398" lon="5.72558">
        <ele>160.19999694824</ele>
        <time>2017-07-23T10:55:10Z</time>
      </trkpt>
      <trkpt lat="47.14379" lon="5.72523">
        <ele>160.19999694824</ele>
        <time>2017-07-23T10:55:16Z</time>
      </trkpt>
      <trkpt lat="47.14373" lon="5.72512">
        <ele>159.80000305176</ele>
        <time>2017-07-23T10:55:18Z</time>
      </trkpt>
      <trkpt lat="47.14361" lon="5.72486">
        <ele>159.60000610352</ele>
        <time>2017-07-23T10:55:22Z</time>
      </trkpt>
      <trkpt lat="47.14345" lon="5.72455">
        <ele>159.39999389648</ele>
        <time>2017-07-23T10:55:27Z</time>
      </trkpt>
      <trkpt lat="47.14336" lon="5.72437">
        <ele>159</ele>
        <time>2017-07-23T10:55:30Z</time>
      </trkpt>
      <trkpt lat="47.14307" lon="5.72382">
        <ele>158.39999389648</ele>
        <time>2017-07-23T10:55:39Z</time>
      </trkpt>
      <trkpt lat="47.14282" lon="5.72335">
        <ele>158.39999389648</ele>
        <time>2017-07-23T10:55:47Z</time>
      </trkpt>
      <trkpt lat="47.14253" lon="5.72288">
        <ele>158.39999389648</ele>
        <time>2017-07-23T10:55:55Z</time>
      </trkpt>
      <trkpt lat="47.14224" lon="5.72251">
        <ele>158.39999389648</ele>
        <time>2017-07-23T10:56:02Z</time>
      </trkpt>
      <trkpt lat="47.14186" lon="5.72201">
        <ele>158.19999694824</ele>
        <time>2017-07-23T10:56:11Z</time>
      </trkpt>
      <trkpt lat="47.14165" lon="5.72174">
        <ele>158.19999694824</ele>
        <time>2017-07-23T10:56:16Z</time>
      </trkpt>
      <trkpt lat="47.14153" lon="5.72157">
        <ele>158.19999694824</ele>
        <time>2017-07-23T10:56:19Z</time>
      </trkpt>
      <trkpt lat="47.14125" lon="5.72108">
        <ele>158.19999694824</ele>
        <time>2017-07-23T10:56:27Z</time>
      </trkpt>
      <trkpt lat="47.14099" lon="5.72052">
        <ele>158.39999389648</ele>
        <time>2017-07-23T10:56:36Z</time>
      </trkpt>
      <trkpt lat="47.14077" lon="5.72004">
        <ele>158.39999389648</ele>
        <time>2017-07-23T10:56:44Z</time>
      </trkpt>
      <trkpt lat="47.14063" lon="5.71962">
        <ele>158.39999389648</ele>
        <time>2017-07-23T10:56:50Z</time>
      </trkpt>
      <trkpt lat="47.14056" lon="5.71933">
        <ele>158.39999389648</ele>
        <time>2017-07-23T10:56:54Z</time>
      </trkpt>
      <trkpt lat="47.14046" lon="5.71905">
        <ele>158.60000610352</ele>
        <time>2017-07-23T10:56:58Z</time>
      </trkpt>
      <trkpt lat="47.14017" lon="5.71844">
        <ele>158.39999389648</ele>
        <time>2017-07-23T10:57:07Z</time>
      </trkpt>
      <trkpt lat="47.13993" lon="5.71798">
        <ele>158.39999389648</ele>
        <time>2017-07-23T10:57:14Z</time>
      </trkpt>
      <trkpt lat="47.13972" lon="5.71746">
        <ele>158.39999389648</ele>
        <time>2017-07-23T10:57:21Z</time>
      </trkpt>
      <trkpt lat="47.13952" lon="5.71693">
        <ele>158.39999389648</ele>
        <time>2017-07-23T10:57:28Z</time>
      </trkpt>
      <trkpt lat="47.13927" lon="5.71614">
        <ele>158.19999694824</ele>
        <time>2017-07-23T10:57:38Z</time>
      </trkpt>
      <trkpt lat="47.13925" lon="5.71607">
        <ele>158.19999694824</ele>
        <time>2017-07-23T10:57:39Z</time>
      </trkpt>
      <trkpt lat="47.13909" lon="5.71552">
        <ele>158.39999389648</ele>
        <time>2017-07-23T10:57:46Z</time>
      </trkpt>
      <trkpt lat="47.13894" lon="5.71488">
        <ele>158.39999389648</ele>
        <time>2017-07-23T10:57:54Z</time>
      </trkpt>
      <trkpt lat="47.13889" lon="5.71464">
        <ele>158.19999694824</ele>
        <time>2017-07-23T10:57:57Z</time>
      </trkpt>
      <trkpt lat="47.13886" lon="5.71441">
        <ele>158.19999694824</ele>
        <time>2017-07-23T10:58:00Z</time>
      </trkpt>
      <trkpt lat="47.13881" lon="5.71395">
        <ele>158.39999389648</ele>
        <time>2017-07-23T10:58:06Z</time>
      </trkpt>
      <trkpt lat="47.13879" lon="5.71381">
        <ele>158.19999694824</ele>
        <time>2017-07-23T10:58:08Z</time>
      </trkpt>
      <trkpt lat="47.13872" lon="5.71315">
        <ele>158.19999694824</ele>
        <time>2017-07-23T10:58:17Z</time>
      </trkpt>
      <trkpt lat="47.13865" lon="5.71244">
        <ele>158.39999389648</ele>
        <time>2017-07-23T10:58:27Z</time>
      </trkpt>
      <trkpt lat="47.1386" lon="5.71179">
        <ele>158.19999694824</ele>
        <time>2017-07-23T10:58:36Z</time>
      </trkpt>
      <trkpt lat="47.13855" lon="5.71121">
        <ele>158</ele>
        <time>2017-07-23T10:58:44Z</time>
      </trkpt>
      <trkpt lat="47.13852" lon="5.7107">
        <ele>158.19999694824</ele>
        <time>2017-07-23T10:58:51Z</time>
      </trkpt>
      <trkpt lat="47.13852" lon="5.71063">
        <ele>158.19999694824</ele>
        <time>2017-07-23T10:58:52Z</time>
      </trkpt>
      <trkpt lat="47.13856" lon="5.70992">
        <ele>158</ele>
        <time>2017-07-23T10:59:02Z</time>
      </trkpt>
      <trkpt lat="47.13856" lon="5.70943">
        <ele>157.80000305176</ele>
        <time>2017-07-23T10:59:09Z</time>
      </trkpt>
      <trkpt lat="47.13855" lon="5.70936">
        <ele>157.80000305176</ele>
        <time>2017-07-23T10:59:10Z</time>
      </trkpt>
      <trkpt lat="47.13846" lon="5.70918">
        <ele>157.80000305176</ele>
        <time>2017-07-23T10:59:13Z</time>
      </trkpt>
      <trkpt lat="47.13843" lon="5.70912">
        <ele>158</ele>
        <time>2017-07-23T10:59:14Z</time>
      </trkpt>
      <trkpt lat="47.13835" lon="5.70902">
        <ele>158</ele>
        <time>2017-07-23T10:59:16Z</time>
      </trkpt>
      <trkpt lat="47.13824" lon="5.70889">
        <ele>158.19999694824</ele>
        <time>2017-07-23T10:59:19Z</time>
      </trkpt>
      <trkpt lat="47.13818" lon="5.70881">
        <ele>157.80000305176</ele>
        <time>2017-07-23T10:59:21Z</time>
      </trkpt>
      <trkpt lat="47.13804" lon="5.70864">
        <ele>157.60000610352</ele>
        <time>2017-07-23T10:59:25Z</time>
      </trkpt>
      <trkpt lat="47.13785" lon="5.7084">
        <ele>157.19999694824</ele>
        <time>2017-07-23T10:59:30Z</time>
      </trkpt>
      <trkpt lat="47.13773" lon="5.70825">
        <ele>157.19999694824</ele>
        <time>2017-07-23T10:59:33Z</time>
      </trkpt>
      <trkpt lat="47.13736" lon="5.70781">
        <ele>157</ele>
        <time>2017-07-23T10:59:42Z</time>
      </trkpt>
      <trkpt lat="47.13707" lon="5.70747">
        <ele>157.19999694824</ele>
        <time>2017-07-23T10:59:49Z</time>
      </trkpt>
      <trkpt lat="47.13703" lon="5.70742">
        <ele>157.19999694824</ele>
        <time>2017-07-23T10:59:50Z</time>
      </trkpt>
      <trkpt lat="47.13669" lon="5.707">
        <ele>157</ele>
        <time>2017-07-23T10:59:58Z</time>
      </trkpt>
      <trkpt lat="47.13626" lon="5.70649">
        <ele>157</ele>
        <time>2017-07-23T11:00:08Z</time>
      </trkpt>
      <trkpt lat="47.13588" lon="5.70603">
        <ele>157</ele>
        <time>2017-07-23T11:00:17Z</time>
      </trkpt>
      <trkpt lat="47.13555" lon="5.70563">
        <ele>157</ele>
        <time>2017-07-23T11:00:25Z</time>
      </trkpt>
      <trkpt lat="47.13519" lon="5.70518">
        <ele>157.19999694824</ele>
        <time>2017-07-23T11:00:34Z</time>
      </trkpt>
      <trkpt lat="47.13515" lon="5.70512">
        <ele>157.19999694824</ele>
        <time>2017-07-23T11:00:35Z</time>
      </trkpt>
      <trkpt lat="47.13505" lon="5.70483">
        <ele>157.19999694824</ele>
        <time>2017-07-23T11:00:39Z</time>
      </trkpt>
      <trkpt lat="47.13498" lon="5.70436">
        <ele>157.39999389648</ele>
        <time>2017-07-23T11:00:45Z</time>
      </trkpt>
      <trkpt lat="47.13495" lon="5.70373">
        <ele>157.80000305176</ele>
        <time>2017-07-23T11:00:53Z</time>
      </trkpt>
      <trkpt lat="47.13493" lon="5.70346">
        <ele>157.80000305176</ele>
        <time>2017-07-23T11:00:57Z</time>
      </trkpt>
      <trkpt lat="47.13494" lon="5.70332">
        <ele>157.80000305176</ele>
        <time>2017-07-23T11:00:59Z</time>
      </trkpt>
      <trkpt lat="47.13494" lon="5.70317">
        <ele>157.80000305176</ele>
        <time>2017-07-23T11:01:01Z</time>
      </trkpt>
      <trkpt lat="47.13491" lon="5.70272">
        <ele>158</ele>
        <time>2017-07-23T11:01:07Z</time>
      </trkpt>
      <trkpt lat="47.13488" lon="5.70202">
        <ele>158</ele>
        <time>2017-07-23T11:01:16Z</time>
      </trkpt>
      <trkpt lat="47.13484" lon="5.70133">
        <ele>158</ele>
        <time>2017-07-23T11:01:25Z</time>
      </trkpt>
      <trkpt lat="47.13477" lon="5.70088">
        <ele>158.19999694824</ele>
        <time>2017-07-23T11:01:31Z</time>
      </trkpt>
      <trkpt lat="47.13475" lon="5.70081">
        <ele>158.19999694824</ele>
        <time>2017-07-23T11:01:32Z</time>
      </trkpt>
      <trkpt lat="47.13473" lon="5.70074">
        <ele>158.19999694824</ele>
        <time>2017-07-23T11:01:33Z</time>
      </trkpt>
      <trkpt lat="47.13459" lon="5.70031">
        <ele>158.39999389648</ele>
        <time>2017-07-23T11:01:39Z</time>
      </trkpt>
      <trkpt lat="47.13431" lon="5.69962">
        <ele>158.60000610352</ele>
        <time>2017-07-23T11:01:49Z</time>
      </trkpt>
      <trkpt lat="47.13411" lon="5.69913">
        <ele>158.60000610352</ele>
        <time>2017-07-23T11:01:56Z</time>
      </trkpt>
      <trkpt lat="47.13387" lon="5.69853">
        <ele>158.60000610352</ele>
        <time>2017-07-23T11:02:05Z</time>
      </trkpt>
      <trkpt lat="47.13366" lon="5.69797">
        <ele>158.80000305176</ele>
        <time>2017-07-23T11:02:14Z</time>
      </trkpt>
      <trkpt lat="47.13351" lon="5.69761">
        <ele>158.80000305176</ele>
        <time>2017-07-23T11:02:20Z</time>
      </trkpt>
      <trkpt lat="47.13335" lon="5.69718">
        <ele>159</ele>
        <time>2017-07-23T11:02:27Z</time>
      </trkpt>
      <trkpt lat="47.13318" lon="5.69675">
        <ele>158.80000305176</ele>
        <time>2017-07-23T11:02:34Z</time>
      </trkpt>
      <trkpt lat="47.13295" lon="5.6962">
        <ele>159.19999694824</ele>
        <time>2017-07-23T11:02:43Z</time>
      </trkpt>
      <trkpt lat="47.13293" lon="5.69614">
        <ele>159.19999694824</ele>
        <time>2017-07-23T11:02:44Z</time>
      </trkpt>
      <trkpt lat="47.13274" lon="5.69568">
        <ele>159.39999389648</ele>
        <time>2017-07-23T11:02:51Z</time>
      </trkpt>
      <trkpt lat="47.1326" lon="5.6953">
        <ele>159.80000305176</ele>
        <time>2017-07-23T11:02:57Z</time>
      </trkpt>
      <trkpt lat="47.13257" lon="5.69524">
        <ele>160</ele>
        <time>2017-07-23T11:02:58Z</time>
      </trkpt>
      <trkpt lat="47.13239" lon="5.69478">
        <ele>160.19999694824</ele>
        <time>2017-07-23T11:03:06Z</time>
      </trkpt>
      <trkpt lat="47.13221" lon="5.69431">
        <ele>160.19999694824</ele>
        <time>2017-07-23T11:03:14Z</time>
      </trkpt>
      <trkpt lat="47.13205" lon="5.69383">
        <ele>159.60000610352</ele>
        <time>2017-07-23T11:03:21Z</time>
      </trkpt>
      <trkpt lat="47.13185" lon="5.69332">
        <ele>159</ele>
        <time>2017-07-23T11:03:28Z</time>
      </trkpt>
      <trkpt lat="47.13177" lon="5.69311">
        <ele>159</ele>
        <time>2017-07-23T11:03:31Z</time>
      </trkpt>
      <trkpt lat="47.13167" lon="5.69283">
        <ele>158.80000305176</ele>
        <time>2017-07-23T11:03:35Z</time>
      </trkpt>
      <trkpt lat="47.1315" lon="5.69243">
        <ele>158.60000610352</ele>
        <time>2017-07-23T11:03:41Z</time>
      </trkpt>
      <trkpt lat="47.13143" lon="5.69223">
        <ele>158.39999389648</ele>
        <time>2017-07-23T11:03:44Z</time>
      </trkpt>
      <trkpt lat="47.1314" lon="5.69209">
        <ele>158.39999389648</ele>
        <time>2017-07-23T11:03:46Z</time>
      </trkpt>
      <trkpt lat="47.13138" lon="5.69202">
        <ele>158.39999389648</ele>
        <time>2017-07-23T11:03:47Z</time>
      </trkpt>
      <trkpt lat="47.13134" lon="5.69189">
        <ele>158.60000610352</ele>
        <time>2017-07-23T11:03:49Z</time>
      </trkpt>
      <trkpt lat="47.13129" lon="5.69165">
        <ele>158.80000305176</ele>
        <time>2017-07-23T11:03:53Z</time>
      </trkpt>
      <trkpt lat="47.13127" lon="5.69159">
        <ele>159</ele>
        <time>2017-07-23T11:03:54Z</time>
      </trkpt>
      <trkpt lat="47.13118" lon="5.69129">
        <ele>160.19999694824</ele>
        <time>2017-07-23T11:04:00Z</time>
      </trkpt>
      <trkpt lat="47.13117" lon="5.69124">
        <ele>160.60000610352</ele>
        <time>2017-07-23T11:04:01Z</time>
      </trkpt>
      <trkpt lat="47.13109" lon="5.69105">
        <ele>161.39999389648</ele>
        <time>2017-07-23T11:04:05Z</time>
      </trkpt>
      <trkpt lat="47.13102" lon="5.69087">
        <ele>162</ele>
        <time>2017-07-23T11:04:09Z</time>
      </trkpt>
      <trkpt lat="47.13092" lon="5.69072">
        <ele>162.60000610352</ele>
        <time>2017-07-23T11:04:13Z</time>
      </trkpt>
      <trkpt lat="47.1309" lon="5.69069">
        <ele>162.60000610352</ele>
        <time>2017-07-23T11:04:14Z</time>
      </trkpt>
      <trkpt lat="47.13088" lon="5.69066">
        <ele>162.80000305176</ele>
        <time>2017-07-23T11:04:15Z</time>
      </trkpt>
      <trkpt lat="47.13083" lon="5.69047">
        <ele>162.80000305176</ele>
        <time>2017-07-23T11:04:19Z</time>
      </trkpt>
      <trkpt lat="47.13089" lon="5.69025">
        <ele>162.60000610352</ele>
        <time>2017-07-23T11:04:22Z</time>
      </trkpt>
      <trkpt lat="47.13102" lon="5.69">
        <ele>162</ele>
        <time>2017-07-23T11:04:25Z</time>
      </trkpt>
      <trkpt lat="47.13107" lon="5.6899">
        <ele>161.60000610352</ele>
        <time>2017-07-23T11:04:26Z</time>
      </trkpt>
      <trkpt lat="47.13112" lon="5.68981">
        <ele>161.19999694824</ele>
        <time>2017-07-23T11:04:27Z</time>
      </trkpt>
      <trkpt lat="47.13124" lon="5.68962">
        <ele>160</ele>
        <time>2017-07-23T11:04:29Z</time>
      </trkpt>
      <trkpt lat="47.13136" lon="5.68945">
        <ele>159</ele>
        <time>2017-07-23T11:04:31Z</time>
      </trkpt>
      <trkpt lat="47.13142" lon="5.68937">
        <ele>158.80000305176</ele>
        <time>2017-07-23T11:04:32Z</time>
      </trkpt>
      <trkpt lat="47.13157" lon="5.68913">
        <ele>157.60000610352</ele>
        <time>2017-07-23T11:04:35Z</time>
      </trkpt>
      <trkpt lat="47.13161" lon="5.68904">
        <ele>157.19999694824</ele>
        <time>2017-07-23T11:04:36Z</time>
      </trkpt>
      <trkpt lat="47.13172" lon="5.68878">
        <ele>156.39999389648</ele>
        <time>2017-07-23T11:04:39Z</time>
      </trkpt>
      <trkpt lat="47.13176" lon="5.68859">
        <ele>156.19999694824</ele>
        <time>2017-07-23T11:04:41Z</time>
      </trkpt>
      <trkpt lat="47.13193" lon="5.68802">
        <ele>156.19999694824</ele>
        <time>2017-07-23T11:04:48Z</time>
      </trkpt>
      <trkpt lat="47.13207" lon="5.68753">
        <ele>156</ele>
        <time>2017-07-23T11:04:55Z</time>
      </trkpt>
      <trkpt lat="47.13223" lon="5.687">
        <ele>155.39999389648</ele>
        <time>2017-07-23T11:05:03Z</time>
      </trkpt>
      <trkpt lat="47.13224" lon="5.68694">
        <ele>155.39999389648</ele>
        <time>2017-07-23T11:05:04Z</time>
      </trkpt>
      <trkpt lat="47.13226" lon="5.68687">
        <ele>155.39999389648</ele>
        <time>2017-07-23T11:05:05Z</time>
      </trkpt>
      <trkpt lat="47.13236" lon="5.68638">
        <ele>155</ele>
        <time>2017-07-23T11:05:12Z</time>
      </trkpt>
      <trkpt lat="47.13238" lon="5.68615">
        <ele>154.39999389648</ele>
        <time>2017-07-23T11:05:15Z</time>
      </trkpt>
      <trkpt lat="47.13238" lon="5.68592">
        <ele>154.60000610352</ele>
        <time>2017-07-23T11:05:18Z</time>
      </trkpt>
      <trkpt lat="47.13238" lon="5.68577">
        <ele>155</ele>
        <time>2017-07-23T11:05:20Z</time>
      </trkpt>
      <trkpt lat="47.13237" lon="5.68547">
        <ele>155.19999694824</ele>
        <time>2017-07-23T11:05:24Z</time>
      </trkpt>
      <trkpt lat="47.13232" lon="5.68461">
        <ele>155.19999694824</ele>
        <time>2017-07-23T11:05:35Z</time>
      </trkpt>
      <trkpt lat="47.13233" lon="5.68438">
        <ele>155.19999694824</ele>
        <time>2017-07-23T11:05:38Z</time>
      </trkpt>
      <trkpt lat="47.13235" lon="5.68407">
        <ele>155.19999694824</ele>
        <time>2017-07-23T11:05:42Z</time>
      </trkpt>
      <trkpt lat="47.13238" lon="5.68336">
        <ele>155.19999694824</ele>
        <time>2017-07-23T11:05:51Z</time>
      </trkpt>
      <trkpt lat="47.13238" lon="5.68297">
        <ele>155.39999389648</ele>
        <time>2017-07-23T11:05:56Z</time>
      </trkpt>
      <trkpt lat="47.13236" lon="5.68281">
        <ele>155.39999389648</ele>
        <time>2017-07-23T11:05:58Z</time>
      </trkpt>
      <trkpt lat="47.13233" lon="5.68227">
        <ele>155.60000610352</ele>
        <time>2017-07-23T11:06:05Z</time>
      </trkpt>
      <trkpt lat="47.1323" lon="5.68167">
        <ele>155.60000610352</ele>
        <time>2017-07-23T11:06:13Z</time>
      </trkpt>
      <trkpt lat="47.13225" lon="5.681">
        <ele>155.39999389648</ele>
        <time>2017-07-23T11:06:22Z</time>
      </trkpt>
      <trkpt lat="47.13221" lon="5.6803">
        <ele>155.60000610352</ele>
        <time>2017-07-23T11:06:31Z</time>
      </trkpt>
      <trkpt lat="47.13218" lon="5.6797">
        <ele>155.60000610352</ele>
        <time>2017-07-23T11:06:39Z</time>
      </trkpt>
      <trkpt lat="47.13213" lon="5.67901">
        <ele>156.19999694824</ele>
        <time>2017-07-23T11:06:48Z</time>
      </trkpt>
      <trkpt lat="47.13214" lon="5.67856">
        <ele>156.39999389648</ele>
        <time>2017-07-23T11:06:54Z</time>
      </trkpt>
      <trkpt lat="47.13215" lon="5.67849">
        <ele>156.39999389648</ele>
        <time>2017-07-23T11:06:55Z</time>
      </trkpt>
      <trkpt lat="47.13218" lon="5.67835">
        <ele>156.39999389648</ele>
        <time>2017-07-23T11:06:57Z</time>
      </trkpt>
      <trkpt lat="47.13229" lon="5.67809">
        <ele>156.80000305176</ele>
        <time>2017-07-23T11:07:01Z</time>
      </trkpt>
      <trkpt lat="47.13256" lon="5.6777">
        <ele>157</ele>
        <time>2017-07-23T11:07:08Z</time>
      </trkpt>
      <trkpt lat="47.13284" lon="5.67731">
        <ele>157.19999694824</ele>
        <time>2017-07-23T11:07:15Z</time>
      </trkpt>
      <trkpt lat="47.13314" lon="5.67688">
        <ele>156.60000610352</ele>
        <time>2017-07-23T11:07:22Z</time>
      </trkpt>
      <trkpt lat="47.13319" lon="5.67682">
        <ele>156.60000610352</ele>
        <time>2017-07-23T11:07:23Z</time>
      </trkpt>
      <trkpt lat="47.13356" lon="5.67629">
        <ele>156.19999694824</ele>
        <time>2017-07-23T11:07:32Z</time>
      </trkpt>
      <trkpt lat="47.13389" lon="5.67585">
        <ele>156.19999694824</ele>
        <time>2017-07-23T11:07:40Z</time>
      </trkpt>
      <trkpt lat="47.13427" lon="5.6753">
        <ele>156.39999389648</ele>
        <time>2017-07-23T11:07:50Z</time>
      </trkpt>
      <trkpt lat="47.13443" lon="5.67497">
        <ele>157.19999694824</ele>
        <time>2017-07-23T11:07:56Z</time>
      </trkpt>
      <trkpt lat="47.13445" lon="5.67491">
        <ele>157.39999389648</ele>
        <time>2017-07-23T11:07:57Z</time>
      </trkpt>
      <trkpt lat="47.13448" lon="5.67478">
        <ele>157.39999389648</ele>
        <time>2017-07-23T11:07:59Z</time>
      </trkpt>
      <trkpt lat="47.13457" lon="5.67445">
        <ele>158</ele>
        <time>2017-07-23T11:08:04Z</time>
      </trkpt>
      <trkpt lat="47.13458" lon="5.67438">
        <ele>158</ele>
        <time>2017-07-23T11:08:05Z</time>
      </trkpt>
      <trkpt lat="47.13465" lon="5.67407">
        <ele>157.60000610352</ele>
        <time>2017-07-23T11:08:09Z</time>
      </trkpt>
      <trkpt lat="47.13485" lon="5.67339">
        <ele>156.80000305176</ele>
        <time>2017-07-23T11:08:18Z</time>
      </trkpt>
      <trkpt lat="47.13491" lon="5.67315">
        <ele>156.39999389648</ele>
        <time>2017-07-23T11:08:21Z</time>
      </trkpt>
      <trkpt lat="47.13503" lon="5.67274">
        <ele>156</ele>
        <time>2017-07-23T11:08:26Z</time>
      </trkpt>
      <trkpt lat="47.13523" lon="5.67199">
        <ele>155.39999389648</ele>
        <time>2017-07-23T11:08:35Z</time>
      </trkpt>
      <trkpt lat="47.13543" lon="5.67125">
        <ele>155</ele>
        <time>2017-07-23T11:08:44Z</time>
      </trkpt>
      <trkpt lat="47.1356" lon="5.6706">
        <ele>154.60000610352</ele>
        <time>2017-07-23T11:08:52Z</time>
      </trkpt>
      <trkpt lat="47.13577" lon="5.66994">
        <ele>154.60000610352</ele>
        <time>2017-07-23T11:09:00Z</time>
      </trkpt>
      <trkpt lat="47.13582" lon="5.66978">
        <ele>154.39999389648</ele>
        <time>2017-07-23T11:09:02Z</time>
      </trkpt>
      <trkpt lat="47.13586" lon="5.66962">
        <ele>154.39999389648</ele>
        <time>2017-07-23T11:09:04Z</time>
      </trkpt>
      <trkpt lat="47.13599" lon="5.66915">
        <ele>154.39999389648</ele>
        <time>2017-07-23T11:09:10Z</time>
      </trkpt>
      <trkpt lat="47.13615" lon="5.66858">
        <ele>154.80000305176</ele>
        <time>2017-07-23T11:09:18Z</time>
      </trkpt>
      <trkpt lat="47.13628" lon="5.6681">
        <ele>154.60000610352</ele>
        <time>2017-07-23T11:09:25Z</time>
      </trkpt>
      <trkpt lat="47.13646" lon="5.66743">
        <ele>154.60000610352</ele>
        <time>2017-07-23T11:09:35Z</time>
      </trkpt>
      <trkpt lat="47.13657" lon="5.66695">
        <ele>154.80000305176</ele>
        <time>2017-07-23T11:09:42Z</time>
      </trkpt>
      <trkpt lat="47.13671" lon="5.66638">
        <ele>154.80000305176</ele>
        <time>2017-07-23T11:09:50Z</time>
      </trkpt>
      <trkpt lat="47.13686" lon="5.66577">
        <ele>154.60000610352</ele>
        <time>2017-07-23T11:09:58Z</time>
      </trkpt>
      <trkpt lat="47.13688" lon="5.6657">
        <ele>154.60000610352</ele>
        <time>2017-07-23T11:09:59Z</time>
      </trkpt>
      <trkpt lat="47.13696" lon="5.66531">
        <ele>154.80000305176</ele>
        <time>2017-07-23T11:10:04Z</time>
      </trkpt>
      <trkpt lat="47.13702" lon="5.66483">
        <ele>154.80000305176</ele>
        <time>2017-07-23T11:10:10Z</time>
      </trkpt>
      <trkpt lat="47.13708" lon="5.66419">
        <ele>154.80000305176</ele>
        <time>2017-07-23T11:10:18Z</time>
      </trkpt>
      <trkpt lat="47.13714" lon="5.66358">
        <ele>154.60000610352</ele>
        <time>2017-07-23T11:10:26Z</time>
      </trkpt>
      <trkpt lat="47.13721" lon="5.66288">
        <ele>154.60000610352</ele>
        <time>2017-07-23T11:10:35Z</time>
      </trkpt>
      <trkpt lat="47.13726" lon="5.66225">
        <ele>154.60000610352</ele>
        <time>2017-07-23T11:10:43Z</time>
      </trkpt>
      <trkpt lat="47.13733" lon="5.66149">
        <ele>154.60000610352</ele>
        <time>2017-07-23T11:10:53Z</time>
      </trkpt>
      <trkpt lat="47.13739" lon="5.6608">
        <ele>154.60000610352</ele>
        <time>2017-07-23T11:11:02Z</time>
      </trkpt>
      <trkpt lat="47.13746" lon="5.66012">
        <ele>154.39999389648</ele>
        <time>2017-07-23T11:11:11Z</time>
      </trkpt>
      <trkpt lat="47.13755" lon="5.65959">
        <ele>154.19999694824</ele>
        <time>2017-07-23T11:11:18Z</time>
      </trkpt>
      <trkpt lat="47.13763" lon="5.65906">
        <ele>153.80000305176</ele>
        <time>2017-07-23T11:11:25Z</time>
      </trkpt>
      <trkpt lat="47.13768" lon="5.65877">
        <ele>153.39999389648</ele>
        <time>2017-07-23T11:11:29Z</time>
      </trkpt>
      <trkpt lat="47.1377" lon="5.65848">
        <ele>153.19999694824</ele>
        <time>2017-07-23T11:11:33Z</time>
      </trkpt>
      <trkpt lat="47.13769" lon="5.65841">
        <ele>153.19999694824</ele>
        <time>2017-07-23T11:11:34Z</time>
      </trkpt>
      <trkpt lat="47.13768" lon="5.65806">
        <ele>153.19999694824</ele>
        <time>2017-07-23T11:11:39Z</time>
      </trkpt>
      <trkpt lat="47.13765" lon="5.65793">
        <ele>153.19999694824</ele>
        <time>2017-07-23T11:11:41Z</time>
      </trkpt>
      <trkpt lat="47.13763" lon="5.65781">
        <ele>153.39999389648</ele>
        <time>2017-07-23T11:11:43Z</time>
      </trkpt>
      <trkpt lat="47.13758" lon="5.65738">
        <ele>153.39999389648</ele>
        <time>2017-07-23T11:11:50Z</time>
      </trkpt>
      <trkpt lat="47.13767" lon="5.6571">
        <ele>153.39999389648</ele>
        <time>2017-07-23T11:11:55Z</time>
      </trkpt>
      <trkpt lat="47.13772" lon="5.65701">
        <ele>153.39999389648</ele>
        <time>2017-07-23T11:11:57Z</time>
      </trkpt>
      <trkpt lat="47.13789" lon="5.65678">
        <ele>153.39999389648</ele>
        <time>2017-07-23T11:12:02Z</time>
      </trkpt>
      <trkpt lat="47.13818" lon="5.6564">
        <ele>153.80000305176</ele>
        <time>2017-07-23T11:12:10Z</time>
      </trkpt>
      <trkpt lat="47.13854" lon="5.65592">
        <ele>154</ele>
        <time>2017-07-23T11:12:19Z</time>
      </trkpt>
      <trkpt lat="47.13889" lon="5.65543">
        <ele>153.60000610352</ele>
        <time>2017-07-23T11:12:29Z</time>
      </trkpt>
      <trkpt lat="47.13893" lon="5.65539">
        <ele>153.60000610352</ele>
        <time>2017-07-23T11:12:30Z</time>
      </trkpt>
      <trkpt lat="47.13912" lon="5.65525">
        <ele>153.80000305176</ele>
        <time>2017-07-23T11:12:34Z</time>
      </trkpt>
      <trkpt lat="47.13923" lon="5.65521">
        <ele>153.80000305176</ele>
        <time>2017-07-23T11:12:36Z</time>
      </trkpt>
      <trkpt lat="47.1397" lon="5.65513">
        <ele>153.60000610352</ele>
        <time>2017-07-23T11:12:44Z</time>
      </trkpt>
      <trkpt lat="47.14024" lon="5.65511">
        <ele>154.19999694824</ele>
        <time>2017-07-23T11:12:53Z</time>
      </trkpt>
      <trkpt lat="47.14068" lon="5.65521">
        <ele>154.19999694824</ele>
        <time>2017-07-23T11:13:00Z</time>
      </trkpt>
      <trkpt lat="47.14123" lon="5.65538">
        <ele>153.80000305176</ele>
        <time>2017-07-23T11:13:09Z</time>
      </trkpt>
      <trkpt lat="47.14129" lon="5.6554">
        <ele>153.80000305176</ele>
        <time>2017-07-23T11:13:10Z</time>
      </trkpt>
      <trkpt lat="47.14183" lon="5.65554">
        <ele>154</ele>
        <time>2017-07-23T11:13:19Z</time>
      </trkpt>
      <trkpt lat="47.14189" lon="5.65555">
        <ele>154</ele>
        <time>2017-07-23T11:13:20Z</time>
      </trkpt>
      <trkpt lat="47.14235" lon="5.65565">
        <ele>154</ele>
        <time>2017-07-23T11:13:28Z</time>
      </trkpt>
      <trkpt lat="47.14287" lon="5.65574">
        <ele>154</ele>
        <time>2017-07-23T11:13:37Z</time>
      </trkpt>
      <trkpt lat="47.14342" lon="5.65583">
        <ele>154</ele>
        <time>2017-07-23T11:13:47Z</time>
      </trkpt>
      <trkpt lat="47.14357" lon="5.65585">
        <ele>154.39999389648</ele>
        <time>2017-07-23T11:13:50Z</time>
      </trkpt>
      <trkpt lat="47.1438" lon="5.65589">
        <ele>154.60000610352</ele>
        <time>2017-07-23T11:13:55Z</time>
      </trkpt>
      <trkpt lat="47.14412" lon="5.65593">
        <ele>155.39999389648</ele>
        <time>2017-07-23T11:14:02Z</time>
      </trkpt>
      <trkpt lat="47.14416" lon="5.65593">
        <ele>155.60000610352</ele>
        <time>2017-07-23T11:14:03Z</time>
      </trkpt>
      <trkpt lat="47.14457" lon="5.65598">
        <ele>156.39999389648</ele>
        <time>2017-07-23T11:14:12Z</time>
      </trkpt>
      <trkpt lat="47.14461" lon="5.65599">
        <ele>156.39999389648</ele>
        <time>2017-07-23T11:14:13Z</time>
      </trkpt>
      <trkpt lat="47.14505" lon="5.65607">
        <ele>157.19999694824</ele>
        <time>2017-07-23T11:14:22Z</time>
      </trkpt>
      <trkpt lat="47.14544" lon="5.65612">
        <ele>157.39999389648</ele>
        <time>2017-07-23T11:14:30Z</time>
      </trkpt>
      <trkpt lat="47.14559" lon="5.65614">
        <ele>157.60000610352</ele>
        <time>2017-07-23T11:14:33Z</time>
      </trkpt>
      <trkpt lat="47.14597" lon="5.65618">
        <ele>157.60000610352</ele>
        <time>2017-07-23T11:14:41Z</time>
      </trkpt>
      <trkpt lat="47.14603" lon="5.65604">
        <ele>157.60000610352</ele>
        <time>2017-07-23T11:14:44Z</time>
      </trkpt>
      <trkpt lat="47.14605" lon="5.65591">
        <ele>157.39999389648</ele>
        <time>2017-07-23T11:14:46Z</time>
      </trkpt>
      <trkpt lat="47.14607" lon="5.65574">
        <ele>157.39999389648</ele>
        <time>2017-07-23T11:14:48Z</time>
      </trkpt>
      <trkpt lat="47.1461" lon="5.65549">
        <ele>156.60000610352</ele>
        <time>2017-07-23T11:14:51Z</time>
      </trkpt>
      <trkpt lat="47.1461" lon="5.65541">
        <ele>156.39999389648</ele>
        <time>2017-07-23T11:14:52Z</time>
      </trkpt>
      <trkpt lat="47.1461" lon="5.65532">
        <ele>156.19999694824</ele>
        <time>2017-07-23T11:14:53Z</time>
      </trkpt>
      <trkpt lat="47.14609" lon="5.65525">
        <ele>156</ele>
        <time>2017-07-23T11:14:54Z</time>
      </trkpt>
      <trkpt lat="47.14608" lon="5.65499">
        <ele>155.80000305176</ele>
        <time>2017-07-23T11:14:57Z</time>
      </trkpt>
      <trkpt lat="47.14611" lon="5.65483">
        <ele>155.39999389648</ele>
        <time>2017-07-23T11:14:59Z</time>
      </trkpt>
      <trkpt lat="47.14612" lon="5.65475">
        <ele>155.39999389648</ele>
        <time>2017-07-23T11:15:00Z</time>
      </trkpt>
      <trkpt lat="47.14614" lon="5.65458">
        <ele>155.39999389648</ele>
        <time>2017-07-23T11:15:02Z</time>
      </trkpt>
      <trkpt lat="47.14619" lon="5.65417">
        <ele>155.19999694824</ele>
        <time>2017-07-23T11:15:07Z</time>
      </trkpt>
      <trkpt lat="47.14619" lon="5.65409">
        <ele>155.19999694824</ele>
        <time>2017-07-23T11:15:08Z</time>
      </trkpt>
      <trkpt lat="47.1462" lon="5.65401">
        <ele>155.19999694824</ele>
        <time>2017-07-23T11:15:09Z</time>
      </trkpt>
      <trkpt lat="47.14624" lon="5.65376">
        <ele>155.39999389648</ele>
        <time>2017-07-23T11:15:12Z</time>
      </trkpt>
      <trkpt lat="47.14626" lon="5.65368">
        <ele>155.39999389648</ele>
        <time>2017-07-23T11:15:13Z</time>
      </trkpt>
      <trkpt lat="47.14639" lon="5.65314">
        <ele>155.39999389648</ele>
        <time>2017-07-23T11:15:20Z</time>
      </trkpt>
      <trkpt lat="47.14658" lon="5.65274">
        <ele>155.19999694824</ele>
        <time>2017-07-23T11:15:26Z</time>
      </trkpt>
      <trkpt lat="47.14678" lon="5.65235">
        <ele>155.19999694824</ele>
        <time>2017-07-23T11:15:32Z</time>
      </trkpt>
      <trkpt lat="47.1468" lon="5.65228">
        <ele>155.39999389648</ele>
        <time>2017-07-23T11:15:33Z</time>
      </trkpt>
      <trkpt lat="47.14688" lon="5.65198">
        <ele>155.39999389648</ele>
        <time>2017-07-23T11:15:37Z</time>
      </trkpt>
      <trkpt lat="47.14689" lon="5.65183">
        <ele>155.39999389648</ele>
        <time>2017-07-23T11:15:39Z</time>
      </trkpt>
      <trkpt lat="47.1469" lon="5.65167">
        <ele>155.39999389648</ele>
        <time>2017-07-23T11:15:41Z</time>
      </trkpt>
      <trkpt lat="47.14691" lon="5.65151">
        <ele>155.39999389648</ele>
        <time>2017-07-23T11:15:43Z</time>
      </trkpt>
      <trkpt lat="47.14691" lon="5.65134">
        <ele>155.39999389648</ele>
        <time>2017-07-23T11:15:45Z</time>
      </trkpt>
      <trkpt lat="47.14692" lon="5.65076">
        <ele>155.60000610352</ele>
        <time>2017-07-23T11:15:52Z</time>
      </trkpt>
      <trkpt lat="47.14692" lon="5.65008">
        <ele>155.60000610352</ele>
        <time>2017-07-23T11:16:00Z</time>
      </trkpt>
      <trkpt lat="47.14692" lon="5.64948">
        <ele>155.39999389648</ele>
        <time>2017-07-23T11:16:07Z</time>
      </trkpt>
      <trkpt lat="47.14692" lon="5.64939">
        <ele>155.39999389648</ele>
        <time>2017-07-23T11:16:08Z</time>
      </trkpt>
      <trkpt lat="47.14688" lon="5.64872">
        <ele>155.60000610352</ele>
        <time>2017-07-23T11:16:16Z</time>
      </trkpt>
      <trkpt lat="47.14682" lon="5.64799">
        <ele>155.60000610352</ele>
        <time>2017-07-23T11:16:25Z</time>
      </trkpt>
      <trkpt lat="47.14678" lon="5.64745">
        <ele>155.60000610352</ele>
        <time>2017-07-23T11:16:32Z</time>
      </trkpt>
      <trkpt lat="47.14673" lon="5.64677">
        <ele>156.19999694824</ele>
        <time>2017-07-23T11:16:41Z</time>
      </trkpt>
      <trkpt lat="47.1467" lon="5.6464">
        <ele>155.80000305176</ele>
        <time>2017-07-23T11:16:46Z</time>
      </trkpt>
      <trkpt lat="47.14669" lon="5.64626">
        <ele>155.80000305176</ele>
        <time>2017-07-23T11:16:48Z</time>
      </trkpt>
      <trkpt lat="47.14661" lon="5.64561">
        <ele>155.80000305176</ele>
        <time>2017-07-23T11:16:57Z</time>
      </trkpt>
      <trkpt lat="47.1465" lon="5.64488">
        <ele>155.39999389648</ele>
        <time>2017-07-23T11:17:07Z</time>
      </trkpt>
      <trkpt lat="47.14638" lon="5.64422">
        <ele>155.39999389648</ele>
        <time>2017-07-23T11:17:16Z</time>
      </trkpt>
      <trkpt lat="47.1463" lon="5.64373">
        <ele>155.39999389648</ele>
        <time>2017-07-23T11:17:23Z</time>
      </trkpt>
      <trkpt lat="47.14622" lon="5.64317">
        <ele>155.19999694824</ele>
        <time>2017-07-23T11:17:31Z</time>
      </trkpt>
      <trkpt lat="47.14613" lon="5.64267">
        <ele>155.39999389648</ele>
        <time>2017-07-23T11:17:38Z</time>
      </trkpt>
      <trkpt lat="47.14606" lon="5.64229">
        <ele>155.39999389648</ele>
        <time>2017-07-23T11:17:43Z</time>
      </trkpt>
      <trkpt lat="47.14602" lon="5.64216">
        <ele>155.19999694824</ele>
        <time>2017-07-23T11:17:45Z</time>
      </trkpt>
      <trkpt lat="47.14598" lon="5.64194">
        <ele>155.39999389648</ele>
        <time>2017-07-23T11:17:48Z</time>
      </trkpt>
      <trkpt lat="47.14598" lon="5.64178">
        <ele>155.39999389648</ele>
        <time>2017-07-23T11:17:50Z</time>
      </trkpt>
      <trkpt lat="47.14594" lon="5.64155">
        <ele>155.19999694824</ele>
        <time>2017-07-23T11:17:53Z</time>
      </trkpt>
      <trkpt lat="47.14593" lon="5.64147">
        <ele>155.19999694824</ele>
        <time>2017-07-23T11:17:54Z</time>
      </trkpt>
      <trkpt lat="47.14584" lon="5.64087">
        <ele>155.39999389648</ele>
        <time>2017-07-23T11:18:02Z</time>
      </trkpt>
      <trkpt lat="47.14572" lon="5.64017">
        <ele>155.39999389648</ele>
        <time>2017-07-23T11:18:11Z</time>
      </trkpt>
      <trkpt lat="47.14564" lon="5.6396">
        <ele>155.19999694824</ele>
        <time>2017-07-23T11:18:18Z</time>
      </trkpt>
      <trkpt lat="47.14551" lon="5.63884">
        <ele>154.80000305176</ele>
        <time>2017-07-23T11:18:27Z</time>
      </trkpt>
      <trkpt lat="47.14539" lon="5.63816">
        <ele>154.80000305176</ele>
        <time>2017-07-23T11:18:35Z</time>
      </trkpt>
      <trkpt lat="47.14525" lon="5.63735">
        <ele>154.60000610352</ele>
        <time>2017-07-23T11:18:45Z</time>
      </trkpt>
      <trkpt lat="47.14514" lon="5.63663">
        <ele>154.80000305176</ele>
        <time>2017-07-23T11:18:54Z</time>
      </trkpt>
      <trkpt lat="47.14503" lon="5.63602">
        <ele>154.80000305176</ele>
        <time>2017-07-23T11:19:02Z</time>
      </trkpt>
      <trkpt lat="47.14495" lon="5.6355">
        <ele>154.80000305176</ele>
        <time>2017-07-23T11:19:09Z</time>
      </trkpt>
      <trkpt lat="47.14489" lon="5.63512">
        <ele>154.80000305176</ele>
        <time>2017-07-23T11:19:14Z</time>
      </trkpt>
      <trkpt lat="47.14488" lon="5.63505">
        <ele>154.80000305176</ele>
        <time>2017-07-23T11:19:15Z</time>
      </trkpt>
      <trkpt lat="47.14477" lon="5.63438">
        <ele>154.39999389648</ele>
        <time>2017-07-23T11:19:24Z</time>
      </trkpt>
      <trkpt lat="47.14468" lon="5.63377">
        <ele>154.60000610352</ele>
        <time>2017-07-23T11:19:32Z</time>
      </trkpt>
      <trkpt lat="47.14464" lon="5.63351">
        <ele>154.60000610352</ele>
        <time>2017-07-23T11:19:36Z</time>
      </trkpt>
      <trkpt lat="47.14462" lon="5.6334">
        <ele>154.60000610352</ele>
        <time>2017-07-23T11:19:38Z</time>
      </trkpt>
      <trkpt lat="47.14459" lon="5.63325">
        <ele>154.60000610352</ele>
        <time>2017-07-23T11:19:41Z</time>
      </trkpt>
      <trkpt lat="47.14456" lon="5.63308">
        <ele>154.60000610352</ele>
        <time>2017-07-23T11:19:44Z</time>
      </trkpt>
      <trkpt lat="47.14448" lon="5.63258">
        <ele>155</ele>
        <time>2017-07-23T11:19:52Z</time>
      </trkpt>
      <trkpt lat="47.14447" lon="5.63251">
        <ele>155.19999694824</ele>
        <time>2017-07-23T11:19:53Z</time>
      </trkpt>
      <trkpt lat="47.14438" lon="5.63198">
        <ele>154.80000305176</ele>
        <time>2017-07-23T11:20:00Z</time>
      </trkpt>
      <trkpt lat="47.14432" lon="5.63159">
        <ele>154.80000305176</ele>
        <time>2017-07-23T11:20:05Z</time>
      </trkpt>
      <trkpt lat="47.14428" lon="5.63136">
        <ele>154.80000305176</ele>
        <time>2017-07-23T11:20:08Z</time>
      </trkpt>
      <trkpt lat="47.14422" lon="5.63098">
        <ele>154.80000305176</ele>
        <time>2017-07-23T11:20:13Z</time>
      </trkpt>
      <trkpt lat="47.14422" lon="5.6309">
        <ele>154.80000305176</ele>
        <time>2017-07-23T11:20:14Z</time>
      </trkpt>
      <trkpt lat="47.14416" lon="5.63052">
        <ele>154.80000305176</ele>
        <time>2017-07-23T11:20:19Z</time>
      </trkpt>
      <trkpt lat="47.14405" lon="5.6299">
        <ele>154.80000305176</ele>
        <time>2017-07-23T11:20:27Z</time>
      </trkpt>
      <trkpt lat="47.14394" lon="5.62927">
        <ele>154.60000610352</ele>
        <time>2017-07-23T11:20:35Z</time>
      </trkpt>
      <trkpt lat="47.14385" lon="5.62863">
        <ele>154.60000610352</ele>
        <time>2017-07-23T11:20:43Z</time>
      </trkpt>
      <trkpt lat="47.14372" lon="5.62799">
        <ele>154.60000610352</ele>
        <time>2017-07-23T11:20:52Z</time>
      </trkpt>
      <trkpt lat="47.14363" lon="5.62753">
        <ele>155.80000305176</ele>
        <time>2017-07-23T11:21:00Z</time>
      </trkpt>
      <trkpt lat="47.14364" lon="5.62738">
        <ele>156.60000610352</ele>
        <time>2017-07-23T11:21:03Z</time>
      </trkpt>
      <trkpt lat="47.14365" lon="5.62736">
        <ele>156.80000305176</ele>
        <time>2017-07-23T11:21:04Z</time>
      </trkpt>
      <trkpt lat="47.14368" lon="5.62735">
        <ele>157</ele>
        <time>2017-07-23T11:21:05Z</time>
      </trkpt>
      <trkpt lat="47.14375" lon="5.62733">
        <ele>157.39999389648</ele>
        <time>2017-07-23T11:21:07Z</time>
      </trkpt>
      <trkpt lat="47.14378" lon="5.62732">
        <ele>157.60000610352</ele>
        <time>2017-07-23T11:21:08Z</time>
      </trkpt>
      <trkpt lat="47.14388" lon="5.62721">
        <ele>158.39999389648</ele>
        <time>2017-07-23T11:21:12Z</time>
      </trkpt>
      <trkpt lat="47.14382" lon="5.62699">
        <ele>158.39999389648</ele>
        <time>2017-07-23T11:21:15Z</time>
      </trkpt>
      <trkpt lat="47.14375" lon="5.62671">
        <ele>157.60000610352</ele>
        <time>2017-07-23T11:21:18Z</time>
      </trkpt>
      <trkpt lat="47.14371" lon="5.62652">
        <ele>156.60000610352</ele>
        <time>2017-07-23T11:21:20Z</time>
      </trkpt>
      <trkpt lat="47.14369" lon="5.62642">
        <ele>156.19999694824</ele>
        <time>2017-07-23T11:21:21Z</time>
      </trkpt>
      <trkpt lat="47.14366" lon="5.62623">
        <ele>155.39999389648</ele>
        <time>2017-07-23T11:21:23Z</time>
      </trkpt>
      <trkpt lat="47.1436" lon="5.62575">
        <ele>154.80000305176</ele>
        <time>2017-07-23T11:21:28Z</time>
      </trkpt>
      <trkpt lat="47.14351" lon="5.62519">
        <ele>154.39999389648</ele>
        <time>2017-07-23T11:21:34Z</time>
      </trkpt>
      <trkpt lat="47.14348" lon="5.62501">
        <ele>154.19999694824</ele>
        <time>2017-07-23T11:21:36Z</time>
      </trkpt>
      <trkpt lat="47.14338" lon="5.62443">
        <ele>154</ele>
        <time>2017-07-23T11:21:43Z</time>
      </trkpt>
      <trkpt lat="47.14336" lon="5.62435">
        <ele>154</ele>
        <time>2017-07-23T11:21:44Z</time>
      </trkpt>
      <trkpt lat="47.14328" lon="5.62385">
        <ele>154</ele>
        <time>2017-07-23T11:21:50Z</time>
      </trkpt>
      <trkpt lat="47.14319" lon="5.62326">
        <ele>154.19999694824</ele>
        <time>2017-07-23T11:21:57Z</time>
      </trkpt>
      <trkpt lat="47.1431" lon="5.62267">
        <ele>154.19999694824</ele>
        <time>2017-07-23T11:22:04Z</time>
      </trkpt>
      <trkpt lat="47.14303" lon="5.62216">
        <ele>154.19999694824</ele>
        <time>2017-07-23T11:22:10Z</time>
      </trkpt>
      <trkpt lat="47.14296" lon="5.62163">
        <ele>154.19999694824</ele>
        <time>2017-07-23T11:22:16Z</time>
      </trkpt>
      <trkpt lat="47.14284" lon="5.62089">
        <ele>154.19999694824</ele>
        <time>2017-07-23T11:22:25Z</time>
      </trkpt>
      <trkpt lat="47.14282" lon="5.62081">
        <ele>154.19999694824</ele>
        <time>2017-07-23T11:22:26Z</time>
      </trkpt>
      <trkpt lat="47.14279" lon="5.62064">
        <ele>154.39999389648</ele>
        <time>2017-07-23T11:22:28Z</time>
      </trkpt>
      <trkpt lat="47.14277" lon="5.62048">
        <ele>154.39999389648</ele>
        <time>2017-07-23T11:22:30Z</time>
      </trkpt>
      <trkpt lat="47.14268" lon="5.61999">
        <ele>154.39999389648</ele>
        <time>2017-07-23T11:22:36Z</time>
      </trkpt>
      <trkpt lat="47.14257" lon="5.61928">
        <ele>154.39999389648</ele>
        <time>2017-07-23T11:22:45Z</time>
      </trkpt>
      <trkpt lat="47.14247" lon="5.61864">
        <ele>154.39999389648</ele>
        <time>2017-07-23T11:22:53Z</time>
      </trkpt>
      <trkpt lat="47.14238" lon="5.61811">
        <ele>154.19999694824</ele>
        <time>2017-07-23T11:23:00Z</time>
      </trkpt>
      <trkpt lat="47.14229" lon="5.61751">
        <ele>154.19999694824</ele>
        <time>2017-07-23T11:23:08Z</time>
      </trkpt>
      <trkpt lat="47.14228" lon="5.61743">
        <ele>154.39999389648</ele>
        <time>2017-07-23T11:23:09Z</time>
      </trkpt>
      <trkpt lat="47.14224" lon="5.61719">
        <ele>154.39999389648</ele>
        <time>2017-07-23T11:23:12Z</time>
      </trkpt>
      <trkpt lat="47.14222" lon="5.61703">
        <ele>154.39999389648</ele>
        <time>2017-07-23T11:23:14Z</time>
      </trkpt>
      <trkpt lat="47.14209" lon="5.61632">
        <ele>154.19999694824</ele>
        <time>2017-07-23T11:23:23Z</time>
      </trkpt>
      <trkpt lat="47.14197" lon="5.61562">
        <ele>154.39999389648</ele>
        <time>2017-07-23T11:23:32Z</time>
      </trkpt>
      <trkpt lat="47.14187" lon="5.61502">
        <ele>154.39999389648</ele>
        <time>2017-07-23T11:23:40Z</time>
      </trkpt>
      <trkpt lat="47.14174" lon="5.61431">
        <ele>154.39999389648</ele>
        <time>2017-07-23T11:23:49Z</time>
      </trkpt>
      <trkpt lat="47.14165" lon="5.61375">
        <ele>154.39999389648</ele>
        <time>2017-07-23T11:23:56Z</time>
      </trkpt>
      <trkpt lat="47.14157" lon="5.61318">
        <ele>154.60000610352</ele>
        <time>2017-07-23T11:24:03Z</time>
      </trkpt>
      <trkpt lat="47.14149" lon="5.61279">
        <ele>154.60000610352</ele>
        <time>2017-07-23T11:24:08Z</time>
      </trkpt>
      <trkpt lat="47.14147" lon="5.61264">
        <ele>154.80000305176</ele>
        <time>2017-07-23T11:24:10Z</time>
      </trkpt>
      <trkpt lat="47.14139" lon="5.61216">
        <ele>154.80000305176</ele>
        <time>2017-07-23T11:24:16Z</time>
      </trkpt>
      <trkpt lat="47.1413" lon="5.61153">
        <ele>154.80000305176</ele>
        <time>2017-07-23T11:24:24Z</time>
      </trkpt>
      <trkpt lat="47.1412" lon="5.61089">
        <ele>154.80000305176</ele>
        <time>2017-07-23T11:24:32Z</time>
      </trkpt>
      <trkpt lat="47.1411" lon="5.61026">
        <ele>154.80000305176</ele>
        <time>2017-07-23T11:24:40Z</time>
      </trkpt>
      <trkpt lat="47.14109" lon="5.61018">
        <ele>154.80000305176</ele>
        <time>2017-07-23T11:24:41Z</time>
      </trkpt>
      <trkpt lat="47.14097" lon="5.60947">
        <ele>154.80000305176</ele>
        <time>2017-07-23T11:24:50Z</time>
      </trkpt>
      <trkpt lat="47.14087" lon="5.6089">
        <ele>155</ele>
        <time>2017-07-23T11:24:57Z</time>
      </trkpt>
      <trkpt lat="47.14079" lon="5.60842">
        <ele>155.19999694824</ele>
        <time>2017-07-23T11:25:03Z</time>
      </trkpt>
      <trkpt lat="47.1407" lon="5.60787">
        <ele>155.19999694824</ele>
        <time>2017-07-23T11:25:10Z</time>
      </trkpt>
      <trkpt lat="47.1406" lon="5.60731">
        <ele>155.39999389648</ele>
        <time>2017-07-23T11:25:17Z</time>
      </trkpt>
      <trkpt lat="47.1405" lon="5.6067">
        <ele>155.19999694824</ele>
        <time>2017-07-23T11:25:24Z</time>
      </trkpt>
      <trkpt lat="47.14039" lon="5.60618">
        <ele>155.19999694824</ele>
        <time>2017-07-23T11:25:31Z</time>
      </trkpt>
      <trkpt lat="47.14031" lon="5.60572">
        <ele>155.39999389648</ele>
        <time>2017-07-23T11:25:37Z</time>
      </trkpt>
      <trkpt lat="47.1403" lon="5.60565">
        <ele>155.39999389648</ele>
        <time>2017-07-23T11:25:38Z</time>
      </trkpt>
      <trkpt lat="47.14028" lon="5.60543">
        <ele>155.39999389648</ele>
        <time>2017-07-23T11:25:41Z</time>
      </trkpt>
      <trkpt lat="47.14023" lon="5.6052">
        <ele>155.39999389648</ele>
        <time>2017-07-23T11:25:44Z</time>
      </trkpt>
      <trkpt lat="47.14017" lon="5.6046">
        <ele>154.60000610352</ele>
        <time>2017-07-23T11:25:51Z</time>
      </trkpt>
      <trkpt lat="47.14013" lon="5.60405">
        <ele>154</ele>
        <time>2017-07-23T11:25:57Z</time>
      </trkpt>
      <trkpt lat="47.14004" lon="5.60373">
        <ele>154</ele>
        <time>2017-07-23T11:26:01Z</time>
      </trkpt>
      <trkpt lat="47.13997" lon="5.60348">
        <ele>154</ele>
        <time>2017-07-23T11:26:04Z</time>
      </trkpt>
      <trkpt lat="47.13993" lon="5.60332">
        <ele>154</ele>
        <time>2017-07-23T11:26:06Z</time>
      </trkpt>
      <trkpt lat="47.13974" lon="5.60269">
        <ele>153.80000305176</ele>
        <time>2017-07-23T11:26:14Z</time>
      </trkpt>
      <trkpt lat="47.13956" lon="5.60208">
        <ele>154</ele>
        <time>2017-07-23T11:26:22Z</time>
      </trkpt>
      <trkpt lat="47.13936" lon="5.60141">
        <ele>154</ele>
        <time>2017-07-23T11:26:31Z</time>
      </trkpt>
      <trkpt lat="47.13915" lon="5.60075">
        <ele>153.80000305176</ele>
        <time>2017-07-23T11:26:40Z</time>
      </trkpt>
      <trkpt lat="47.13894" lon="5.60017">
        <ele>153.60000610352</ele>
        <time>2017-07-23T11:26:48Z</time>
      </trkpt>
      <trkpt lat="47.13883" lon="5.59987">
        <ele>153.80000305176</ele>
        <time>2017-07-23T11:26:52Z</time>
      </trkpt>
      <trkpt lat="47.13877" lon="5.59973">
        <ele>153.80000305176</ele>
        <time>2017-07-23T11:26:54Z</time>
      </trkpt>
      <trkpt lat="47.13857" lon="5.59924">
        <ele>153.60000610352</ele>
        <time>2017-07-23T11:27:01Z</time>
      </trkpt>
      <trkpt lat="47.1383" lon="5.59866">
        <ele>153.60000610352</ele>
        <time>2017-07-23T11:27:10Z</time>
      </trkpt>
      <trkpt lat="47.13804" lon="5.59815">
        <ele>153.60000610352</ele>
        <time>2017-07-23T11:27:18Z</time>
      </trkpt>
      <trkpt lat="47.13777" lon="5.59764">
        <ele>153.60000610352</ele>
        <time>2017-07-23T11:27:26Z</time>
      </trkpt>
      <trkpt lat="47.1375" lon="5.59721">
        <ele>153.60000610352</ele>
        <time>2017-07-23T11:27:33Z</time>
      </trkpt>
      <trkpt lat="47.13717" lon="5.59667">
        <ele>153.39999389648</ele>
        <time>2017-07-23T11:27:42Z</time>
      </trkpt>
      <trkpt lat="47.13684" lon="5.5961">
        <ele>153.60000610352</ele>
        <time>2017-07-23T11:27:51Z</time>
      </trkpt>
      <trkpt lat="47.13656" lon="5.59557">
        <ele>153.39999389648</ele>
        <time>2017-07-23T11:27:59Z</time>
      </trkpt>
      <trkpt lat="47.13628" lon="5.59506">
        <ele>153.60000610352</ele>
        <time>2017-07-23T11:28:07Z</time>
      </trkpt>
      <trkpt lat="47.13607" lon="5.59468">
        <ele>153.39999389648</ele>
        <time>2017-07-23T11:28:13Z</time>
      </trkpt>
      <trkpt lat="47.13597" lon="5.5945">
        <ele>153.39999389648</ele>
        <time>2017-07-23T11:28:16Z</time>
      </trkpt>
      <trkpt lat="47.1358" lon="5.5941">
        <ele>153.39999389648</ele>
        <time>2017-07-23T11:28:22Z</time>
      </trkpt>
      <trkpt lat="47.13578" lon="5.59403">
        <ele>153.39999389648</ele>
        <time>2017-07-23T11:28:23Z</time>
      </trkpt>
      <trkpt lat="47.13567" lon="5.59365">
        <ele>153.39999389648</ele>
        <time>2017-07-23T11:28:29Z</time>
      </trkpt>
      <trkpt lat="47.13556" lon="5.59337">
        <ele>154</ele>
        <time>2017-07-23T11:28:34Z</time>
      </trkpt>
      <trkpt lat="47.13555" lon="5.59331">
        <ele>154</ele>
        <time>2017-07-23T11:28:35Z</time>
      </trkpt>
      <trkpt lat="47.13544" lon="5.59319">
        <ele>154.39999389648</ele>
        <time>2017-07-23T11:28:39Z</time>
      </trkpt>
      <trkpt lat="47.13541" lon="5.59316">
        <ele>154.39999389648</ele>
        <time>2017-07-23T11:28:40Z</time>
      </trkpt>
      <trkpt lat="47.13534" lon="5.59301">
        <ele>154.60000610352</ele>
        <time>2017-07-23T11:28:43Z</time>
      </trkpt>
      <trkpt lat="47.13531" lon="5.59294">
        <ele>154.60000610352</ele>
        <time>2017-07-23T11:28:44Z</time>
      </trkpt>
      <trkpt lat="47.1352" lon="5.59265">
        <ele>154.19999694824</ele>
        <time>2017-07-23T11:28:48Z</time>
      </trkpt>
      <trkpt lat="47.13496" lon="5.59206">
        <ele>153.80000305176</ele>
        <time>2017-07-23T11:28:56Z</time>
      </trkpt>
      <trkpt lat="47.13478" lon="5.59163">
        <ele>153.60000610352</ele>
        <time>2017-07-23T11:29:02Z</time>
      </trkpt>
      <trkpt lat="47.13462" lon="5.59126">
        <ele>153.39999389648</ele>
        <time>2017-07-23T11:29:07Z</time>
      </trkpt>
      <trkpt lat="47.13454" lon="5.59104">
        <ele>153.39999389648</ele>
        <time>2017-07-23T11:29:10Z</time>
      </trkpt>
      <trkpt lat="47.13429" lon="5.59046">
        <ele>153.39999389648</ele>
        <time>2017-07-23T11:29:18Z</time>
      </trkpt>
      <trkpt lat="47.13408" lon="5.58996">
        <ele>153.39999389648</ele>
        <time>2017-07-23T11:29:25Z</time>
      </trkpt>
      <trkpt lat="47.13388" lon="5.58947">
        <ele>153.39999389648</ele>
        <time>2017-07-23T11:29:32Z</time>
      </trkpt>
      <trkpt lat="47.13364" lon="5.58893">
        <ele>153.39999389648</ele>
        <time>2017-07-23T11:29:40Z</time>
      </trkpt>
      <trkpt lat="47.13341" lon="5.58836">
        <ele>153.39999389648</ele>
        <time>2017-07-23T11:29:48Z</time>
      </trkpt>
      <trkpt lat="47.13333" lon="5.58804">
        <ele>153.39999389648</ele>
        <time>2017-07-23T11:29:52Z</time>
      </trkpt>
      <trkpt lat="47.13331" lon="5.58787">
        <ele>153.39999389648</ele>
        <time>2017-07-23T11:29:54Z</time>
      </trkpt>
      <trkpt lat="47.13328" lon="5.58745">
        <ele>153.39999389648</ele>
        <time>2017-07-23T11:29:59Z</time>
      </trkpt>
      <trkpt lat="47.13328" lon="5.58736">
        <ele>153.39999389648</ele>
        <time>2017-07-23T11:30:00Z</time>
      </trkpt>
      <trkpt lat="47.13337" lon="5.58674">
        <ele>153.19999694824</ele>
        <time>2017-07-23T11:30:07Z</time>
      </trkpt>
      <trkpt lat="47.13346" lon="5.58605">
        <ele>153.19999694824</ele>
        <time>2017-07-23T11:30:15Z</time>
      </trkpt>
      <trkpt lat="47.13352" lon="5.58544">
        <ele>153</ele>
        <time>2017-07-23T11:30:22Z</time>
      </trkpt>
      <trkpt lat="47.1336" lon="5.58482">
        <ele>153.19999694824</ele>
        <time>2017-07-23T11:30:29Z</time>
      </trkpt>
      <trkpt lat="47.1337" lon="5.58412">
        <ele>153</ele>
        <time>2017-07-23T11:30:37Z</time>
      </trkpt>
      <trkpt lat="47.1338" lon="5.58332">
        <ele>153.19999694824</ele>
        <time>2017-07-23T11:30:46Z</time>
      </trkpt>
      <trkpt lat="47.13387" lon="5.58268">
        <ele>153</ele>
        <time>2017-07-23T11:30:53Z</time>
      </trkpt>
      <trkpt lat="47.13397" lon="5.58198">
        <ele>152.80000305176</ele>
        <time>2017-07-23T11:31:01Z</time>
      </trkpt>
      <trkpt lat="47.13404" lon="5.58128">
        <ele>152.80000305176</ele>
        <time>2017-07-23T11:31:09Z</time>
      </trkpt>
      <trkpt lat="47.13407" lon="5.58096">
        <ele>152.80000305176</ele>
        <time>2017-07-23T11:31:13Z</time>
      </trkpt>
      <trkpt lat="47.13411" lon="5.58081">
        <ele>153</ele>
        <time>2017-07-23T11:31:15Z</time>
      </trkpt>
      <trkpt lat="47.1342" lon="5.58015">
        <ele>152.80000305176</ele>
        <time>2017-07-23T11:31:23Z</time>
      </trkpt>
      <trkpt lat="47.13426" lon="5.57928">
        <ele>152.80000305176</ele>
        <time>2017-07-23T11:31:33Z</time>
      </trkpt>
      <trkpt lat="47.13426" lon="5.57919">
        <ele>152.80000305176</ele>
        <time>2017-07-23T11:31:34Z</time>
      </trkpt>
      <trkpt lat="47.13428" lon="5.57841">
        <ele>152.60000610352</ele>
        <time>2017-07-23T11:31:43Z</time>
      </trkpt>
      <trkpt lat="47.13424" lon="5.57808">
        <ele>152.60000610352</ele>
        <time>2017-07-23T11:31:47Z</time>
      </trkpt>
      <trkpt lat="47.13419" lon="5.57791">
        <ele>152.60000610352</ele>
        <time>2017-07-23T11:31:49Z</time>
      </trkpt>
      <trkpt lat="47.13403" lon="5.57743">
        <ele>152.60000610352</ele>
        <time>2017-07-23T11:31:55Z</time>
      </trkpt>
      <trkpt lat="47.1339" lon="5.57712">
        <ele>152.60000610352</ele>
        <time>2017-07-23T11:31:59Z</time>
      </trkpt>
      <trkpt lat="47.13382" lon="5.57699">
        <ele>152.39999389648</ele>
        <time>2017-07-23T11:32:01Z</time>
      </trkpt>
      <trkpt lat="47.13374" lon="5.57685">
        <ele>152.39999389648</ele>
        <time>2017-07-23T11:32:03Z</time>
      </trkpt>
      <trkpt lat="47.13365" lon="5.57672">
        <ele>152.39999389648</ele>
        <time>2017-07-23T11:32:05Z</time>
      </trkpt>
      <trkpt lat="47.1335" lon="5.57655">
        <ele>152.19999694824</ele>
        <time>2017-07-23T11:32:08Z</time>
      </trkpt>
      <trkpt lat="47.1331" lon="5.57613">
        <ele>152.19999694824</ele>
        <time>2017-07-23T11:32:16Z</time>
      </trkpt>
      <trkpt lat="47.13277" lon="5.57573">
        <ele>152</ele>
        <time>2017-07-23T11:32:23Z</time>
      </trkpt>
      <trkpt lat="47.13245" lon="5.57521">
        <ele>152</ele>
        <time>2017-07-23T11:32:31Z</time>
      </trkpt>
      <trkpt lat="47.13218" lon="5.57477">
        <ele>152</ele>
        <time>2017-07-23T11:32:38Z</time>
      </trkpt>
      <trkpt lat="47.13189" lon="5.57416">
        <ele>151.60000610352</ele>
        <time>2017-07-23T11:32:47Z</time>
      </trkpt>
      <trkpt lat="47.13181" lon="5.57395">
        <ele>151.80000305176</ele>
        <time>2017-07-23T11:32:50Z</time>
      </trkpt>
      <trkpt lat="47.13173" lon="5.57375">
        <ele>152</ele>
        <time>2017-07-23T11:32:53Z</time>
      </trkpt>
      <trkpt lat="47.13156" lon="5.57323">
        <ele>151.60000610352</ele>
        <time>2017-07-23T11:33:00Z</time>
      </trkpt>
      <trkpt lat="47.13137" lon="5.57273">
        <ele>151.60000610352</ele>
        <time>2017-07-23T11:33:07Z</time>
      </trkpt>
      <trkpt lat="47.13114" lon="5.57218">
        <ele>151.80000305176</ele>
        <time>2017-07-23T11:33:15Z</time>
      </trkpt>
      <trkpt lat="47.13088" lon="5.57166">
        <ele>151.80000305176</ele>
        <time>2017-07-23T11:33:23Z</time>
      </trkpt>
      <trkpt lat="47.1306" lon="5.57125">
        <ele>151.60000610352</ele>
        <time>2017-07-23T11:33:30Z</time>
      </trkpt>
      <trkpt lat="47.13032" lon="5.57088">
        <ele>152</ele>
        <time>2017-07-23T11:33:37Z</time>
      </trkpt>
      <trkpt lat="47.13028" lon="5.57082">
        <ele>152.19999694824</ele>
        <time>2017-07-23T11:33:38Z</time>
      </trkpt>
      <trkpt lat="47.13015" lon="5.57047">
        <ele>152</ele>
        <time>2017-07-23T11:33:43Z</time>
      </trkpt>
      <trkpt lat="47.12996" lon="5.57004">
        <ele>151.60000610352</ele>
        <time>2017-07-23T11:33:50Z</time>
      </trkpt>
      <trkpt lat="47.12971" lon="5.5695">
        <ele>151.60000610352</ele>
        <time>2017-07-23T11:33:58Z</time>
      </trkpt>
      <trkpt lat="47.12937" lon="5.56892">
        <ele>151.80000305176</ele>
        <time>2017-07-23T11:34:07Z</time>
      </trkpt>
      <trkpt lat="47.12908" lon="5.56838">
        <ele>151.60000610352</ele>
        <time>2017-07-23T11:34:15Z</time>
      </trkpt>
      <trkpt lat="47.12874" lon="5.56782">
        <ele>151.60000610352</ele>
        <time>2017-07-23T11:34:24Z</time>
      </trkpt>
      <trkpt lat="47.12844" lon="5.56744">
        <ele>151.80000305176</ele>
        <time>2017-07-23T11:34:31Z</time>
      </trkpt>
      <trkpt lat="47.12823" lon="5.56717">
        <ele>151.80000305176</ele>
        <time>2017-07-23T11:34:36Z</time>
      </trkpt>
      <trkpt lat="47.12818" lon="5.56711">
        <ele>151.80000305176</ele>
        <time>2017-07-23T11:34:37Z</time>
      </trkpt>
      <trkpt lat="47.12813" lon="5.56707">
        <ele>152</ele>
        <time>2017-07-23T11:34:38Z</time>
      </trkpt>
      <trkpt lat="47.12805" lon="5.56696">
        <ele>152</ele>
        <time>2017-07-23T11:34:40Z</time>
      </trkpt>
      <trkpt lat="47.12801" lon="5.56691">
        <ele>152</ele>
        <time>2017-07-23T11:34:41Z</time>
      </trkpt>
      <trkpt lat="47.12781" lon="5.56656">
        <ele>152.39999389648</ele>
        <time>2017-07-23T11:34:47Z</time>
      </trkpt>
      <trkpt lat="47.12759" lon="5.56609">
        <ele>152</ele>
        <time>2017-07-23T11:34:54Z</time>
      </trkpt>
      <trkpt lat="47.12746" lon="5.56588">
        <ele>152.60000610352</ele>
        <time>2017-07-23T11:34:59Z</time>
      </trkpt>
      <trkpt lat="47.12746" lon="5.56583">
        <ele>152.80000305176</ele>
        <time>2017-07-23T11:35:01Z</time>
      </trkpt>
      <trkpt lat="47.12747" lon="5.56583">
        <ele>152.80000305176</ele>
        <time>2017-07-23T11:35:02Z</time>
      </trkpt>
      <trkpt lat="47.12748" lon="5.56584">
        <ele>152.80000305176</ele>
        <time>2017-07-23T11:35:03Z</time>
      </trkpt>
      <trkpt lat="47.1275" lon="5.56594">
        <ele>152.60000610352</ele>
        <time>2017-07-23T11:35:06Z</time>
      </trkpt>
      <trkpt lat="47.1276" lon="5.56608">
        <ele>152.39999389648</ele>
        <time>2017-07-23T11:35:10Z</time>
      </trkpt>
      <trkpt lat="47.12764" lon="5.56607">
        <ele>152.39999389648</ele>
        <time>2017-07-23T11:35:11Z</time>
      </trkpt>
      <trkpt lat="47.12768" lon="5.56605">
        <ele>152.19999694824</ele>
        <time>2017-07-23T11:35:13Z</time>
      </trkpt>
      <trkpt lat="47.12767" lon="5.56609">
        <ele>152.39999389648</ele>
        <time>2017-07-23T11:38:04Z</time>
      </trkpt>
      <trkpt lat="47.12766" lon="5.5661">
        <ele>152.39999389648</ele>
        <time>2017-07-23T11:38:05Z</time>
      </trkpt>
      <trkpt lat="47.12759" lon="5.56608">
        <ele>152.39999389648</ele>
        <time>2017-07-23T11:38:08Z</time>
      </trkpt>
      <trkpt lat="47.12754" lon="5.56597">
        <ele>152.39999389648</ele>
        <time>2017-07-23T11:38:11Z</time>
      </trkpt>
      <trkpt lat="47.12747" lon="5.56585">
        <ele>152.60000610352</ele>
        <time>2017-07-23T11:38:15Z</time>
      </trkpt>
      <trkpt lat="47.1274" lon="5.56568">
        <ele>153.19999694824</ele>
        <time>2017-07-23T11:38:21Z</time>
      </trkpt>
      <trkpt lat="47.12729" lon="5.56548">
        <ele>153.39999389648</ele>
        <time>2017-07-23T11:38:27Z</time>
      </trkpt>
      <trkpt lat="47.12722" lon="5.56534">
        <ele>153.39999389648</ele>
        <time>2017-07-23T11:38:30Z</time>
      </trkpt>
      <trkpt lat="47.12711" lon="5.5652">
        <ele>153.60000610352</ele>
        <time>2017-07-23T11:38:33Z</time>
      </trkpt>
      <trkpt lat="47.12689" lon="5.5649">
        <ele>153.39999389648</ele>
        <time>2017-07-23T11:38:40Z</time>
      </trkpt>
      <trkpt lat="47.12649" lon="5.56456">
        <ele>153.60000610352</ele>
        <time>2017-07-23T11:38:49Z</time>
      </trkpt>
      <trkpt lat="47.12613" lon="5.56433">
        <ele>153.60000610352</ele>
        <time>2017-07-23T11:38:58Z</time>
      </trkpt>
      <trkpt lat="47.12608" lon="5.56433">
        <ele>153.60000610352</ele>
        <time>2017-07-23T11:38:59Z</time>
      </trkpt>
      <trkpt lat="47.12597" lon="5.56422">
        <ele>153.60000610352</ele>
        <time>2017-07-23T11:39:02Z</time>
      </trkpt>
      <trkpt lat="47.12593" lon="5.56418">
        <ele>153.60000610352</ele>
        <time>2017-07-23T11:39:03Z</time>
      </trkpt>
      <trkpt lat="47.12571" lon="5.56401">
        <ele>153.39999389648</ele>
        <time>2017-07-23T11:39:08Z</time>
      </trkpt>
      <trkpt lat="47.12544" lon="5.56369">
        <ele>153.19999694824</ele>
        <time>2017-07-23T11:39:15Z</time>
      </trkpt>
      <trkpt lat="47.12516" lon="5.56339">
        <ele>153.19999694824</ele>
        <time>2017-07-23T11:39:22Z</time>
      </trkpt>
      <trkpt lat="47.12508" lon="5.56331">
        <ele>153.19999694824</ele>
        <time>2017-07-23T11:39:24Z</time>
      </trkpt>
      <trkpt lat="47.12494" lon="5.56325">
        <ele>153.19999694824</ele>
        <time>2017-07-23T11:39:27Z</time>
      </trkpt>
      <trkpt lat="47.12486" lon="5.56319">
        <ele>153.39999389648</ele>
        <time>2017-07-23T11:39:29Z</time>
      </trkpt>
      <trkpt lat="47.1247" lon="5.56307">
        <ele>153.60000610352</ele>
        <time>2017-07-23T11:39:33Z</time>
      </trkpt>
      <trkpt lat="47.1245" lon="5.56298">
        <ele>154</ele>
        <time>2017-07-23T11:39:38Z</time>
      </trkpt>
      <trkpt lat="47.12446" lon="5.56296">
        <ele>154</ele>
        <time>2017-07-23T11:39:39Z</time>
      </trkpt>
      <trkpt lat="47.12414" lon="5.56278">
        <ele>153.60000610352</ele>
        <time>2017-07-23T11:39:45Z</time>
      </trkpt>
      <trkpt lat="47.12388" lon="5.56263">
        <ele>153</ele>
        <time>2017-07-23T11:39:50Z</time>
      </trkpt>
      <trkpt lat="47.12383" lon="5.56259">
        <ele>152.80000305176</ele>
        <time>2017-07-23T11:39:51Z</time>
      </trkpt>
      <trkpt lat="47.12369" lon="5.56248">
        <ele>152.60000610352</ele>
        <time>2017-07-23T11:39:54Z</time>
      </trkpt>
      <trkpt lat="47.12365" lon="5.56244">
        <ele>152.39999389648</ele>
        <time>2017-07-23T11:39:55Z</time>
      </trkpt>
      <trkpt lat="47.12328" lon="5.56198">
        <ele>152.19999694824</ele>
        <time>2017-07-23T11:40:04Z</time>
      </trkpt>
      <trkpt lat="47.12316" lon="5.56181">
        <ele>152.60000610352</ele>
        <time>2017-07-23T11:40:07Z</time>
      </trkpt>
      <trkpt lat="47.12305" lon="5.56165">
        <ele>152.60000610352</ele>
        <time>2017-07-23T11:40:10Z</time>
      </trkpt>
      <trkpt lat="47.12277" lon="5.56123">
        <ele>152.60000610352</ele>
        <time>2017-07-23T11:40:18Z</time>
      </trkpt>
      <trkpt lat="47.12247" lon="5.5608">
        <ele>152.39999389648</ele>
        <time>2017-07-23T11:40:26Z</time>
      </trkpt>
      <trkpt lat="47.12209" lon="5.56029">
        <ele>152</ele>
        <time>2017-07-23T11:40:36Z</time>
      </trkpt>
      <trkpt lat="47.1217" lon="5.55976">
        <ele>151.80000305176</ele>
        <time>2017-07-23T11:40:46Z</time>
      </trkpt>
      <trkpt lat="47.12138" lon="5.55933">
        <ele>152</ele>
        <time>2017-07-23T11:40:54Z</time>
      </trkpt>
      <trkpt lat="47.12105" lon="5.55884">
        <ele>152.19999694824</ele>
        <time>2017-07-23T11:41:03Z</time>
      </trkpt>
      <trkpt lat="47.12071" lon="5.55835">
        <ele>152</ele>
        <time>2017-07-23T11:41:12Z</time>
      </trkpt>
      <trkpt lat="47.1204" lon="5.55793">
        <ele>152</ele>
        <time>2017-07-23T11:41:20Z</time>
      </trkpt>
      <trkpt lat="47.12013" lon="5.55755">
        <ele>152</ele>
        <time>2017-07-23T11:41:27Z</time>
      </trkpt>
      <trkpt lat="47.11981" lon="5.5571">
        <ele>151.80000305176</ele>
        <time>2017-07-23T11:41:35Z</time>
      </trkpt>
      <trkpt lat="47.11945" lon="5.55659">
        <ele>151.80000305176</ele>
        <time>2017-07-23T11:41:44Z</time>
      </trkpt>
      <trkpt lat="47.11903" lon="5.55601">
        <ele>151.80000305176</ele>
        <time>2017-07-23T11:41:54Z</time>
      </trkpt>
      <trkpt lat="47.11864" lon="5.55545">
        <ele>151.60000610352</ele>
        <time>2017-07-23T11:42:04Z</time>
      </trkpt>
      <trkpt lat="47.11829" lon="5.55496">
        <ele>151.60000610352</ele>
        <time>2017-07-23T11:42:13Z</time>
      </trkpt>
      <trkpt lat="47.11793" lon="5.55448">
        <ele>151.60000610352</ele>
        <time>2017-07-23T11:42:22Z</time>
      </trkpt>
      <trkpt lat="47.11767" lon="5.55409">
        <ele>151.80000305176</ele>
        <time>2017-07-23T11:42:29Z</time>
      </trkpt>
      <trkpt lat="47.11731" lon="5.55359">
        <ele>151.80000305176</ele>
        <time>2017-07-23T11:42:38Z</time>
      </trkpt>
      <trkpt lat="47.11693" lon="5.55305">
        <ele>151.80000305176</ele>
        <time>2017-07-23T11:42:47Z</time>
      </trkpt>
      <trkpt lat="47.1165" lon="5.55246">
        <ele>152</ele>
        <time>2017-07-23T11:42:57Z</time>
      </trkpt>
      <trkpt lat="47.11618" lon="5.55204">
        <ele>152</ele>
        <time>2017-07-23T11:43:04Z</time>
      </trkpt>
      <trkpt lat="47.11591" lon="5.55164">
        <ele>152</ele>
        <time>2017-07-23T11:43:10Z</time>
      </trkpt>
      <trkpt lat="47.1155" lon="5.55107">
        <ele>152</ele>
        <time>2017-07-23T11:43:19Z</time>
      </trkpt>
      <trkpt lat="47.11546" lon="5.55101">
        <ele>152.19999694824</ele>
        <time>2017-07-23T11:43:20Z</time>
      </trkpt>
      <trkpt lat="47.11509" lon="5.55049">
        <ele>152</ele>
        <time>2017-07-23T11:43:28Z</time>
      </trkpt>
      <trkpt lat="47.11478" lon="5.55005">
        <ele>151.80000305176</ele>
        <time>2017-07-23T11:43:35Z</time>
      </trkpt>
      <trkpt lat="47.11443" lon="5.54956">
        <ele>151.80000305176</ele>
        <time>2017-07-23T11:43:43Z</time>
      </trkpt>
      <trkpt lat="47.11401" lon="5.54895">
        <ele>151.80000305176</ele>
        <time>2017-07-23T11:43:53Z</time>
      </trkpt>
      <trkpt lat="47.11396" lon="5.54889">
        <ele>151.80000305176</ele>
        <time>2017-07-23T11:43:54Z</time>
      </trkpt>
      <trkpt lat="47.1136" lon="5.54843">
        <ele>151.60000610352</ele>
        <time>2017-07-23T11:44:02Z</time>
      </trkpt>
      <trkpt lat="47.11328" lon="5.54812">
        <ele>151.80000305176</ele>
        <time>2017-07-23T11:44:08Z</time>
      </trkpt>
      <trkpt lat="47.11292" lon="5.54793">
        <ele>151.80000305176</ele>
        <time>2017-07-23T11:44:14Z</time>
      </trkpt>
      <trkpt lat="47.11239" lon="5.54773">
        <ele>151.80000305176</ele>
        <time>2017-07-23T11:44:23Z</time>
      </trkpt>
      <trkpt lat="47.11233" lon="5.5477">
        <ele>151.80000305176</ele>
        <time>2017-07-23T11:44:24Z</time>
      </trkpt>
      <trkpt lat="47.1118" lon="5.54748">
        <ele>152</ele>
        <time>2017-07-23T11:44:33Z</time>
      </trkpt>
      <trkpt lat="47.11126" lon="5.54725">
        <ele>152</ele>
        <time>2017-07-23T11:44:42Z</time>
      </trkpt>
      <trkpt lat="47.11071" lon="5.54703">
        <ele>152</ele>
        <time>2017-07-23T11:44:51Z</time>
      </trkpt>
      <trkpt lat="47.11036" lon="5.5469">
        <ele>151.80000305176</ele>
        <time>2017-07-23T11:44:57Z</time>
      </trkpt>
      <trkpt lat="47.10989" lon="5.54672">
        <ele>151.80000305176</ele>
        <time>2017-07-23T11:45:05Z</time>
      </trkpt>
      <trkpt lat="47.10934" lon="5.54649">
        <ele>151.80000305176</ele>
        <time>2017-07-23T11:45:14Z</time>
      </trkpt>
      <trkpt lat="47.10879" lon="5.54627">
        <ele>151.80000305176</ele>
        <time>2017-07-23T11:45:23Z</time>
      </trkpt>
      <trkpt lat="47.10839" lon="5.54611">
        <ele>151.80000305176</ele>
        <time>2017-07-23T11:45:30Z</time>
      </trkpt>
      <trkpt lat="47.10786" lon="5.5459">
        <ele>151.80000305176</ele>
        <time>2017-07-23T11:45:39Z</time>
      </trkpt>
      <trkpt lat="47.10744" lon="5.54573">
        <ele>151.80000305176</ele>
        <time>2017-07-23T11:45:46Z</time>
      </trkpt>
      <trkpt lat="47.1069" lon="5.54552">
        <ele>152</ele>
        <time>2017-07-23T11:45:55Z</time>
      </trkpt>
      <trkpt lat="47.10684" lon="5.5455">
        <ele>152</ele>
        <time>2017-07-23T11:45:56Z</time>
      </trkpt>
      <trkpt lat="47.10638" lon="5.54531">
        <ele>151.80000305176</ele>
        <time>2017-07-23T11:46:04Z</time>
      </trkpt>
      <trkpt lat="47.106" lon="5.54516">
        <ele>151.80000305176</ele>
        <time>2017-07-23T11:46:11Z</time>
      </trkpt>
      <trkpt lat="47.10561" lon="5.54501">
        <ele>151.80000305176</ele>
        <time>2017-07-23T11:46:18Z</time>
      </trkpt>
      <trkpt lat="47.10515" lon="5.54482">
        <ele>151.60000610352</ele>
        <time>2017-07-23T11:46:26Z</time>
      </trkpt>
      <trkpt lat="47.10468" lon="5.54463">
        <ele>151.60000610352</ele>
        <time>2017-07-23T11:46:34Z</time>
      </trkpt>
      <trkpt lat="47.10438" lon="5.54453">
        <ele>151.39999389648</ele>
        <time>2017-07-23T11:46:39Z</time>
      </trkpt>
      <trkpt lat="47.10426" lon="5.54449">
        <ele>151.39999389648</ele>
        <time>2017-07-23T11:46:41Z</time>
      </trkpt>
      <trkpt lat="47.10392" lon="5.54435">
        <ele>151.60000610352</ele>
        <time>2017-07-23T11:46:47Z</time>
      </trkpt>
      <trkpt lat="47.10369" lon="5.54426">
        <ele>151.60000610352</ele>
        <time>2017-07-23T11:46:51Z</time>
      </trkpt>
      <trkpt lat="47.10347" lon="5.54416">
        <ele>151.80000305176</ele>
        <time>2017-07-23T11:46:55Z</time>
      </trkpt>
      <trkpt lat="47.10293" lon="5.54394">
        <ele>151.80000305176</ele>
        <time>2017-07-23T11:47:04Z</time>
      </trkpt>
      <trkpt lat="47.10266" lon="5.54383">
        <ele>152.39999389648</ele>
        <time>2017-07-23T11:47:09Z</time>
      </trkpt>
      <trkpt lat="47.10261" lon="5.54381">
        <ele>152.60000610352</ele>
        <time>2017-07-23T11:47:10Z</time>
      </trkpt>
      <trkpt lat="47.10219" lon="5.54364">
        <ele>152.60000610352</ele>
        <time>2017-07-23T11:47:18Z</time>
      </trkpt>
      <trkpt lat="47.10183" lon="5.54349">
        <ele>151.60000610352</ele>
        <time>2017-07-23T11:47:25Z</time>
      </trkpt>
      <trkpt lat="47.1016" lon="5.5434">
        <ele>151.39999389648</ele>
        <time>2017-07-23T11:47:29Z</time>
      </trkpt>
      <trkpt lat="47.10141" lon="5.54333">
        <ele>151.39999389648</ele>
        <time>2017-07-23T11:47:32Z</time>
      </trkpt>
      <trkpt lat="47.10095" lon="5.54314">
        <ele>151.19999694824</ele>
        <time>2017-07-23T11:47:40Z</time>
      </trkpt>
      <trkpt lat="47.10051" lon="5.54289">
        <ele>151.19999694824</ele>
        <time>2017-07-23T11:47:48Z</time>
      </trkpt>
      <trkpt lat="47.10046" lon="5.54285">
        <ele>151.19999694824</ele>
        <time>2017-07-23T11:47:49Z</time>
      </trkpt>
      <trkpt lat="47.10009" lon="5.54257">
        <ele>151.19999694824</ele>
        <time>2017-07-23T11:47:56Z</time>
      </trkpt>
      <trkpt lat="47.09972" lon="5.54224">
        <ele>151.39999389648</ele>
        <time>2017-07-23T11:48:03Z</time>
      </trkpt>
      <trkpt lat="47.09929" lon="5.54176">
        <ele>151.19999694824</ele>
        <time>2017-07-23T11:48:12Z</time>
      </trkpt>
      <trkpt lat="47.09924" lon="5.5417">
        <ele>151.19999694824</ele>
        <time>2017-07-23T11:48:13Z</time>
      </trkpt>
      <trkpt lat="47.09897" lon="5.54128">
        <ele>151</ele>
        <time>2017-07-23T11:48:20Z</time>
      </trkpt>
      <trkpt lat="47.09894" lon="5.54121">
        <ele>151</ele>
        <time>2017-07-23T11:48:21Z</time>
      </trkpt>
      <trkpt lat="47.09891" lon="5.54115">
        <ele>151.19999694824</ele>
        <time>2017-07-23T11:48:22Z</time>
      </trkpt>
      <trkpt lat="47.09877" lon="5.54091">
        <ele>151.19999694824</ele>
        <time>2017-07-23T11:48:26Z</time>
      </trkpt>
      <trkpt lat="47.09853" lon="5.54046">
        <ele>151.19999694824</ele>
        <time>2017-07-23T11:48:33Z</time>
      </trkpt>
      <trkpt lat="47.09833" lon="5.54">
        <ele>151</ele>
        <time>2017-07-23T11:48:40Z</time>
      </trkpt>
      <trkpt lat="47.09812" lon="5.53945">
        <ele>151.39999389648</ele>
        <time>2017-07-23T11:48:48Z</time>
      </trkpt>
      <trkpt lat="47.09797" lon="5.53897">
        <ele>151.39999389648</ele>
        <time>2017-07-23T11:48:55Z</time>
      </trkpt>
      <trkpt lat="47.09783" lon="5.53844">
        <ele>151.60000610352</ele>
        <time>2017-07-23T11:49:03Z</time>
      </trkpt>
      <trkpt lat="47.09768" lon="5.53796">
        <ele>152</ele>
        <time>2017-07-23T11:49:11Z</time>
      </trkpt>
      <trkpt lat="47.09766" lon="5.5379">
        <ele>152</ele>
        <time>2017-07-23T11:49:12Z</time>
      </trkpt>
      <trkpt lat="47.09764" lon="5.53766">
        <ele>152</ele>
        <time>2017-07-23T11:49:16Z</time>
      </trkpt>
      <trkpt lat="47.09767" lon="5.53755">
        <ele>152.19999694824</ele>
        <time>2017-07-23T11:49:19Z</time>
      </trkpt>
      <trkpt lat="47.09765" lon="5.53748">
        <ele>152.39999389648</ele>
        <time>2017-07-23T11:49:21Z</time>
      </trkpt>
      <trkpt lat="47.09759" lon="5.53726">
        <ele>152.39999389648</ele>
        <time>2017-07-23T11:49:25Z</time>
      </trkpt>
      <trkpt lat="47.09747" lon="5.53669">
        <ele>151.39999389648</ele>
        <time>2017-07-23T11:49:32Z</time>
      </trkpt>
      <trkpt lat="47.09734" lon="5.53605">
        <ele>151</ele>
        <time>2017-07-23T11:49:40Z</time>
      </trkpt>
      <trkpt lat="47.09718" lon="5.53531">
        <ele>150.60000610352</ele>
        <time>2017-07-23T11:49:49Z</time>
      </trkpt>
      <trkpt lat="47.0971" lon="5.53488">
        <ele>150.39999389648</ele>
        <time>2017-07-23T11:49:54Z</time>
      </trkpt>
      <trkpt lat="47.09699" lon="5.53437">
        <ele>150.39999389648</ele>
        <time>2017-07-23T11:50:00Z</time>
      </trkpt>
      <trkpt lat="47.09683" lon="5.53359">
        <ele>150.19999694824</ele>
        <time>2017-07-23T11:50:09Z</time>
      </trkpt>
      <trkpt lat="47.09681" lon="5.53351">
        <ele>150.19999694824</ele>
        <time>2017-07-23T11:50:10Z</time>
      </trkpt>
      <trkpt lat="47.09669" lon="5.53283">
        <ele>150.39999389648</ele>
        <time>2017-07-23T11:50:18Z</time>
      </trkpt>
      <trkpt lat="47.09653" lon="5.53211">
        <ele>150.39999389648</ele>
        <time>2017-07-23T11:50:27Z</time>
      </trkpt>
      <trkpt lat="47.09641" lon="5.53173">
        <ele>150.39999389648</ele>
        <time>2017-07-23T11:50:32Z</time>
      </trkpt>
      <trkpt lat="47.09638" lon="5.53138">
        <ele>150.39999389648</ele>
        <time>2017-07-23T11:50:36Z</time>
      </trkpt>
      <trkpt lat="47.09632" lon="5.53097">
        <ele>150.39999389648</ele>
        <time>2017-07-23T11:50:41Z</time>
      </trkpt>
      <trkpt lat="47.09617" lon="5.53023">
        <ele>150.39999389648</ele>
        <time>2017-07-23T11:50:50Z</time>
      </trkpt>
      <trkpt lat="47.09606" lon="5.5297">
        <ele>150.60000610352</ele>
        <time>2017-07-23T11:50:56Z</time>
      </trkpt>
      <trkpt lat="47.09591" lon="5.52892">
        <ele>150.60000610352</ele>
        <time>2017-07-23T11:51:05Z</time>
      </trkpt>
      <trkpt lat="47.09577" lon="5.52819">
        <ele>150.60000610352</ele>
        <time>2017-07-23T11:51:13Z</time>
      </trkpt>
      <trkpt lat="47.0956" lon="5.52742">
        <ele>150.39999389648</ele>
        <time>2017-07-23T11:51:21Z</time>
      </trkpt>
      <trkpt lat="47.0955" lon="5.52692">
        <ele>150.60000610352</ele>
        <time>2017-07-23T11:51:27Z</time>
      </trkpt>
      <trkpt lat="47.09547" lon="5.52683">
        <ele>151</ele>
        <time>2017-07-23T11:51:29Z</time>
      </trkpt>
      <trkpt lat="47.09543" lon="5.52681">
        <ele>151.39999389648</ele>
        <time>2017-07-23T11:51:30Z</time>
      </trkpt>
      <trkpt lat="47.0954" lon="5.52681">
        <ele>151.80000305176</ele>
        <time>2017-07-23T11:51:31Z</time>
      </trkpt>
      <trkpt lat="47.09533" lon="5.52685">
        <ele>152.60000610352</ele>
        <time>2017-07-23T11:51:33Z</time>
      </trkpt>
      <trkpt lat="47.09529" lon="5.52687">
        <ele>153</ele>
        <time>2017-07-23T11:51:34Z</time>
      </trkpt>
      <trkpt lat="47.09523" lon="5.52686">
        <ele>153.39999389648</ele>
        <time>2017-07-23T11:51:36Z</time>
      </trkpt>
      <trkpt lat="47.09522" lon="5.52681">
        <ele>153.39999389648</ele>
        <time>2017-07-23T11:51:37Z</time>
      </trkpt>
      <trkpt lat="47.09519" lon="5.52668">
        <ele>153.39999389648</ele>
        <time>2017-07-23T11:51:39Z</time>
      </trkpt>
      <trkpt lat="47.09517" lon="5.52659">
        <ele>153.19999694824</ele>
        <time>2017-07-23T11:51:40Z</time>
      </trkpt>
      <trkpt lat="47.09506" lon="5.52609">
        <ele>152</ele>
        <time>2017-07-23T11:51:45Z</time>
      </trkpt>
      <trkpt lat="47.09504" lon="5.52599">
        <ele>151.60000610352</ele>
        <time>2017-07-23T11:51:46Z</time>
      </trkpt>
      <trkpt lat="47.09495" lon="5.52551">
        <ele>150.80000305176</ele>
        <time>2017-07-23T11:51:51Z</time>
      </trkpt>
      <trkpt lat="47.09489" lon="5.52523">
        <ele>150.80000305176</ele>
        <time>2017-07-23T11:51:54Z</time>
      </trkpt>
      <trkpt lat="47.09475" lon="5.5245">
        <ele>150.60000610352</ele>
        <time>2017-07-23T11:52:02Z</time>
      </trkpt>
      <trkpt lat="47.09462" lon="5.52392">
        <ele>150.60000610352</ele>
        <time>2017-07-23T11:52:09Z</time>
      </trkpt>
      <trkpt lat="47.09453" lon="5.52352">
        <ele>150.39999389648</ele>
        <time>2017-07-23T11:52:15Z</time>
      </trkpt>
      <trkpt lat="47.09444" lon="5.52308">
        <ele>150.39999389648</ele>
        <time>2017-07-23T11:52:22Z</time>
      </trkpt>
      <trkpt lat="47.09436" lon="5.52262">
        <ele>150.60000610352</ele>
        <time>2017-07-23T11:52:29Z</time>
      </trkpt>
      <trkpt lat="47.09425" lon="5.52207">
        <ele>150.60000610352</ele>
        <time>2017-07-23T11:52:37Z</time>
      </trkpt>
      <trkpt lat="47.09416" lon="5.52167">
        <ele>150.80000305176</ele>
        <time>2017-07-23T11:52:43Z</time>
      </trkpt>
      <trkpt lat="47.09403" lon="5.52102">
        <ele>150.80000305176</ele>
        <time>2017-07-23T11:52:52Z</time>
      </trkpt>
      <trkpt lat="47.09392" lon="5.52045">
        <ele>150.60000610352</ele>
        <time>2017-07-23T11:53:00Z</time>
      </trkpt>
      <trkpt lat="47.0938" lon="5.51988">
        <ele>150.60000610352</ele>
        <time>2017-07-23T11:53:08Z</time>
      </trkpt>
      <trkpt lat="47.09365" lon="5.51914">
        <ele>150.19999694824</ele>
        <time>2017-07-23T11:53:18Z</time>
      </trkpt>
      <trkpt lat="47.09352" lon="5.51847">
        <ele>150.39999389648</ele>
        <time>2017-07-23T11:53:27Z</time>
      </trkpt>
      <trkpt lat="47.09344" lon="5.51799">
        <ele>150.39999389648</ele>
        <time>2017-07-23T11:53:34Z</time>
      </trkpt>
      <trkpt lat="47.09334" lon="5.5175">
        <ele>150.80000305176</ele>
        <time>2017-07-23T11:53:41Z</time>
      </trkpt>
      <trkpt lat="47.09322" lon="5.51691">
        <ele>150.60000610352</ele>
        <time>2017-07-23T11:53:49Z</time>
      </trkpt>
      <trkpt lat="47.0931" lon="5.51631">
        <ele>150.60000610352</ele>
        <time>2017-07-23T11:53:57Z</time>
      </trkpt>
      <trkpt lat="47.09298" lon="5.51571">
        <ele>150.60000610352</ele>
        <time>2017-07-23T11:54:05Z</time>
      </trkpt>
      <trkpt lat="47.09289" lon="5.5151">
        <ele>150.60000610352</ele>
        <time>2017-07-23T11:54:13Z</time>
      </trkpt>
      <trkpt lat="47.09284" lon="5.51457">
        <ele>150.60000610352</ele>
        <time>2017-07-23T11:54:20Z</time>
      </trkpt>
      <trkpt lat="47.09282" lon="5.51402">
        <ele>150.39999389648</ele>
        <time>2017-07-23T11:54:27Z</time>
      </trkpt>
      <trkpt lat="47.09279" lon="5.51337">
        <ele>150.39999389648</ele>
        <time>2017-07-23T11:54:35Z</time>
      </trkpt>
      <trkpt lat="47.0928" lon="5.51308">
        <ele>150.39999389648</ele>
        <time>2017-07-23T11:54:39Z</time>
      </trkpt>
      <trkpt lat="47.0928" lon="5.51302">
        <ele>150.39999389648</ele>
        <time>2017-07-23T11:54:40Z</time>
      </trkpt>
      <trkpt lat="47.09282" lon="5.51253">
        <ele>150.80000305176</ele>
        <time>2017-07-23T11:54:47Z</time>
      </trkpt>
      <trkpt lat="47.09283" lon="5.51237">
        <ele>150.80000305176</ele>
        <time>2017-07-23T11:54:49Z</time>
      </trkpt>
      <trkpt lat="47.09285" lon="5.51206">
        <ele>150.80000305176</ele>
        <time>2017-07-23T11:54:53Z</time>
      </trkpt>
      <trkpt lat="47.09288" lon="5.51137">
        <ele>150.60000610352</ele>
        <time>2017-07-23T11:55:02Z</time>
      </trkpt>
      <trkpt lat="47.09291" lon="5.51078">
        <ele>150.60000610352</ele>
        <time>2017-07-23T11:55:10Z</time>
      </trkpt>
      <trkpt lat="47.09294" lon="5.51021">
        <ele>150.39999389648</ele>
        <time>2017-07-23T11:55:18Z</time>
      </trkpt>
      <trkpt lat="47.09296" lon="5.50973">
        <ele>150.60000610352</ele>
        <time>2017-07-23T11:55:25Z</time>
      </trkpt>
      <trkpt lat="47.09299" lon="5.50913">
        <ele>150.19999694824</ele>
        <time>2017-07-23T11:55:33Z</time>
      </trkpt>
      <trkpt lat="47.09301" lon="5.50898">
        <ele>150.19999694824</ele>
        <time>2017-07-23T11:55:35Z</time>
      </trkpt>
      <trkpt lat="47.09304" lon="5.50886">
        <ele>150.19999694824</ele>
        <time>2017-07-23T11:55:37Z</time>
      </trkpt>
      <trkpt lat="47.09314" lon="5.50855">
        <ele>149.80000305176</ele>
        <time>2017-07-23T11:55:42Z</time>
      </trkpt>
      <trkpt lat="47.09314" lon="5.50848">
        <ele>149.80000305176</ele>
        <time>2017-07-23T11:55:43Z</time>
      </trkpt>
      <trkpt lat="47.09313" lon="5.50832">
        <ele>149.80000305176</ele>
        <time>2017-07-23T11:55:46Z</time>
      </trkpt>
      <trkpt lat="47.09311" lon="5.5082">
        <ele>149.80000305176</ele>
        <time>2017-07-23T11:55:48Z</time>
      </trkpt>
      <trkpt lat="47.0931" lon="5.50807">
        <ele>149.80000305176</ele>
        <time>2017-07-23T11:55:50Z</time>
      </trkpt>
      <trkpt lat="47.0931" lon="5.50749">
        <ele>150</ele>
        <time>2017-07-23T11:55:57Z</time>
      </trkpt>
      <trkpt lat="47.09313" lon="5.5069">
        <ele>150</ele>
        <time>2017-07-23T11:56:04Z</time>
      </trkpt>
      <trkpt lat="47.09316" lon="5.50626">
        <ele>150.19999694824</ele>
        <time>2017-07-23T11:56:12Z</time>
      </trkpt>
      <trkpt lat="47.09319" lon="5.50571">
        <ele>150.39999389648</ele>
        <time>2017-07-23T11:56:19Z</time>
      </trkpt>
      <trkpt lat="47.09322" lon="5.50512">
        <ele>150.19999694824</ele>
        <time>2017-07-23T11:56:27Z</time>
      </trkpt>
      <trkpt lat="47.09319" lon="5.50467">
        <ele>149.80000305176</ele>
        <time>2017-07-23T11:56:33Z</time>
      </trkpt>
      <trkpt lat="47.09304" lon="5.50449">
        <ele>149</ele>
        <time>2017-07-23T11:56:36Z</time>
      </trkpt>
      <trkpt lat="47.09299" lon="5.50444">
        <ele>148.80000305176</ele>
        <time>2017-07-23T11:56:37Z</time>
      </trkpt>
      <trkpt lat="47.09292" lon="5.50432">
        <ele>148.19999694824</ele>
        <time>2017-07-23T11:56:40Z</time>
      </trkpt>
      <trkpt lat="47.09296" lon="5.50416">
        <ele>148</ele>
        <time>2017-07-23T11:56:43Z</time>
      </trkpt>
      <trkpt lat="47.09297" lon="5.5041">
        <ele>148</ele>
        <time>2017-07-23T11:56:44Z</time>
      </trkpt>
      <trkpt lat="47.09306" lon="5.50376">
        <ele>148.19999694824</ele>
        <time>2017-07-23T11:56:49Z</time>
      </trkpt>
      <trkpt lat="47.09317" lon="5.50324">
        <ele>148.80000305176</ele>
        <time>2017-07-23T11:56:56Z</time>
      </trkpt>
      <trkpt lat="47.09323" lon="5.50311">
        <ele>149</ele>
        <time>2017-07-23T11:56:58Z</time>
      </trkpt>
      <trkpt lat="47.0933" lon="5.50303">
        <ele>149.19999694824</ele>
        <time>2017-07-23T11:57:00Z</time>
      </trkpt>
      <trkpt lat="47.09344" lon="5.50296">
        <ele>150</ele>
        <time>2017-07-23T11:57:04Z</time>
      </trkpt>
      <trkpt lat="47.09348" lon="5.50296">
        <ele>150.39999389648</ele>
        <time>2017-07-23T11:57:05Z</time>
      </trkpt>
      <trkpt lat="47.09353" lon="5.50298">
        <ele>151</ele>
        <time>2017-07-23T11:57:07Z</time>
      </trkpt>
      <trkpt lat="47.09359" lon="5.50287">
        <ele>151.80000305176</ele>
        <time>2017-07-23T11:57:10Z</time>
      </trkpt>
      <trkpt lat="47.09359" lon="5.50273">
        <ele>152</ele>
        <time>2017-07-23T11:57:12Z</time>
      </trkpt>
      <trkpt lat="47.09359" lon="5.50266">
        <ele>151.80000305176</ele>
        <time>2017-07-23T11:57:13Z</time>
      </trkpt>
      <trkpt lat="47.09361" lon="5.50249">
        <ele>151.39999389648</ele>
        <time>2017-07-23T11:57:15Z</time>
      </trkpt>
      <trkpt lat="47.09366" lon="5.50189">
        <ele>150.39999389648</ele>
        <time>2017-07-23T11:57:22Z</time>
      </trkpt>
      <trkpt lat="47.09369" lon="5.50134">
        <ele>150.19999694824</ele>
        <time>2017-07-23T11:57:29Z</time>
      </trkpt>
      <trkpt lat="47.0937" lon="5.5012">
        <ele>150</ele>
        <time>2017-07-23T11:57:31Z</time>
      </trkpt>
      <trkpt lat="47.09372" lon="5.50087">
        <ele>150</ele>
        <time>2017-07-23T11:57:36Z</time>
      </trkpt>
      <trkpt lat="47.09374" lon="5.50038">
        <ele>149.80000305176</ele>
        <time>2017-07-23T11:57:43Z</time>
      </trkpt>
      <trkpt lat="47.09377" lon="5.49977">
        <ele>149.80000305176</ele>
        <time>2017-07-23T11:57:52Z</time>
      </trkpt>
      <trkpt lat="47.09374" lon="5.49937">
        <ele>150</ele>
        <time>2017-07-23T11:57:59Z</time>
      </trkpt>
      <trkpt lat="47.09365" lon="5.49913">
        <ele>150.60000610352</ele>
        <time>2017-07-23T11:58:04Z</time>
      </trkpt>
      <trkpt lat="47.0936" lon="5.4991">
        <ele>150.80000305176</ele>
        <time>2017-07-23T11:58:05Z</time>
      </trkpt>
      <trkpt lat="47.09357" lon="5.49911">
        <ele>151</ele>
        <time>2017-07-23T11:58:06Z</time>
      </trkpt>
      <trkpt lat="47.09353" lon="5.49915">
        <ele>151.39999389648</ele>
        <time>2017-07-23T11:58:07Z</time>
      </trkpt>
      <trkpt lat="47.09344" lon="5.49926">
        <ele>152.19999694824</ele>
        <time>2017-07-23T11:58:10Z</time>
      </trkpt>
      <trkpt lat="47.09332" lon="5.4994">
        <ele>152.60000610352</ele>
        <time>2017-07-23T11:58:14Z</time>
      </trkpt>
      <trkpt lat="47.0933" lon="5.49945">
        <ele>152.80000305176</ele>
        <time>2017-07-23T11:58:15Z</time>
      </trkpt>
      <trkpt lat="47.09331" lon="5.49966">
        <ele>152.60000610352</ele>
        <time>2017-07-23T11:58:18Z</time>
      </trkpt>
      <trkpt lat="47.09331" lon="5.4999">
        <ele>152.19999694824</ele>
        <time>2017-07-23T11:58:22Z</time>
      </trkpt>
      <trkpt lat="47.09332" lon="5.49996">
        <ele>151.60000610352</ele>
        <time>2017-07-23T11:58:24Z</time>
      </trkpt>
      <trkpt lat="47.09334" lon="5.49994">
        <ele>151.39999389648</ele>
        <time>2017-07-23T11:58:25Z</time>
      </trkpt>
      <trkpt lat="47.09335" lon="5.4999">
        <ele>151</ele>
        <time>2017-07-23T11:58:26Z</time>
      </trkpt>
      <trkpt lat="47.09338" lon="5.4998">
        <ele>150.60000610352</ele>
        <time>2017-07-23T11:58:28Z</time>
      </trkpt>
      <trkpt lat="47.0934" lon="5.49967">
        <ele>150.39999389648</ele>
        <time>2017-07-23T11:58:30Z</time>
      </trkpt>
      <trkpt lat="47.09341" lon="5.49953">
        <ele>150</ele>
        <time>2017-07-23T11:58:32Z</time>
      </trkpt>
      <trkpt lat="47.09342" lon="5.49945">
        <ele>149.80000305176</ele>
        <time>2017-07-23T11:58:33Z</time>
      </trkpt>
      <trkpt lat="47.09341" lon="5.49938">
        <ele>149.60000610352</ele>
        <time>2017-07-23T11:58:34Z</time>
      </trkpt>
      <trkpt lat="47.09339" lon="5.49926">
        <ele>149.39999389648</ele>
        <time>2017-07-23T11:58:36Z</time>
      </trkpt>
      <trkpt lat="47.09329" lon="5.49913">
        <ele>149</ele>
        <time>2017-07-23T11:58:39Z</time>
      </trkpt>
      <trkpt lat="47.09324" lon="5.49911">
        <ele>148.80000305176</ele>
        <time>2017-07-23T11:58:40Z</time>
      </trkpt>
      <trkpt lat="47.09316" lon="5.49901">
        <ele>148.80000305176</ele>
        <time>2017-07-23T11:58:42Z</time>
      </trkpt>
      <trkpt lat="47.09307" lon="5.49884">
        <ele>148.60000610352</ele>
        <time>2017-07-23T11:58:45Z</time>
      </trkpt>
      <trkpt lat="47.093" lon="5.49873">
        <ele>149</ele>
        <time>2017-07-23T11:58:47Z</time>
      </trkpt>
      <trkpt lat="47.0927" lon="5.49833">
        <ele>149</ele>
        <time>2017-07-23T11:58:55Z</time>
      </trkpt>
      <trkpt lat="47.09243" lon="5.49811">
        <ele>148.80000305176</ele>
        <time>2017-07-23T11:59:02Z</time>
      </trkpt>
      <trkpt lat="47.09221" lon="5.49793">
        <ele>148.60000610352</ele>
        <time>2017-07-23T11:59:09Z</time>
      </trkpt>
      <trkpt lat="47.09201" lon="5.49776">
        <ele>148.39999389648</ele>
        <time>2017-07-23T11:59:15Z</time>
      </trkpt>
      <trkpt lat="47.09183" lon="5.49764">
        <ele>148.19999694824</ele>
        <time>2017-07-23T11:59:21Z</time>
      </trkpt>
      <trkpt lat="47.09179" lon="5.4976">
        <ele>148.19999694824</ele>
        <time>2017-07-23T11:59:24Z</time>
      </trkpt>
      <trkpt lat="47.09178" lon="5.49755">
        <ele>148.19999694824</ele>
        <time>2017-07-23T12:02:53Z</time>
      </trkpt>
      <trkpt lat="47.09173" lon="5.49752">
        <ele>148.19999694824</ele>
        <time>2017-07-23T12:02:56Z</time>
      </trkpt>
      <trkpt lat="47.09156" lon="5.4974">
        <ele>148.19999694824</ele>
        <time>2017-07-23T12:03:03Z</time>
      </trkpt>
      <trkpt lat="47.09146" lon="5.49731">
        <ele>148.39999389648</ele>
        <time>2017-07-23T12:03:07Z</time>
      </trkpt>
      <trkpt lat="47.09127" lon="5.49714">
        <ele>148.19999694824</ele>
        <time>2017-07-23T12:03:13Z</time>
      </trkpt>
      <trkpt lat="47.09106" lon="5.49696">
        <ele>148.39999389648</ele>
        <time>2017-07-23T12:03:20Z</time>
      </trkpt>
      <trkpt lat="47.09087" lon="5.49681">
        <ele>148.39999389648</ele>
        <time>2017-07-23T12:03:26Z</time>
      </trkpt>
      <trkpt lat="47.0907" lon="5.49664">
        <ele>148.60000610352</ele>
        <time>2017-07-23T12:03:32Z</time>
      </trkpt>
      <trkpt lat="47.09043" lon="5.49645">
        <ele>148.60000610352</ele>
        <time>2017-07-23T12:03:40Z</time>
      </trkpt>
      <trkpt lat="47.09036" lon="5.4964">
        <ele>148.60000610352</ele>
        <time>2017-07-23T12:03:42Z</time>
      </trkpt>
      <trkpt lat="47.09022" lon="5.49631">
        <ele>148.60000610352</ele>
        <time>2017-07-23T12:03:46Z</time>
      </trkpt>
      <trkpt lat="47.08994" lon="5.49613">
        <ele>149</ele>
        <time>2017-07-23T12:03:54Z</time>
      </trkpt>
      <trkpt lat="47.08963" lon="5.49594">
        <ele>149.60000610352</ele>
        <time>2017-07-23T12:04:03Z</time>
      </trkpt>
      <trkpt lat="47.08945" lon="5.49571">
        <ele>149.80000305176</ele>
        <time>2017-07-23T12:04:09Z</time>
      </trkpt>
      <trkpt lat="47.08925" lon="5.49535">
        <ele>149.19999694824</ele>
        <time>2017-07-23T12:04:16Z</time>
      </trkpt>
      <trkpt lat="47.08915" lon="5.49512">
        <ele>149.19999694824</ele>
        <time>2017-07-23T12:04:20Z</time>
      </trkpt>
      <trkpt lat="47.08913" lon="5.49498">
        <ele>149.60000610352</ele>
        <time>2017-07-23T12:04:22Z</time>
      </trkpt>
      <trkpt lat="47.08912" lon="5.49485">
        <ele>149.80000305176</ele>
        <time>2017-07-23T12:04:24Z</time>
      </trkpt>
      <trkpt lat="47.0891" lon="5.49456">
        <ele>149.80000305176</ele>
        <time>2017-07-23T12:04:28Z</time>
      </trkpt>
      <trkpt lat="47.08903" lon="5.49411">
        <ele>149.39999389648</ele>
        <time>2017-07-23T12:04:34Z</time>
      </trkpt>
      <trkpt lat="47.08901" lon="5.49404">
        <ele>149.19999694824</ele>
        <time>2017-07-23T12:04:35Z</time>
      </trkpt>
      <trkpt lat="47.08893" lon="5.49377">
        <ele>148.80000305176</ele>
        <time>2017-07-23T12:04:39Z</time>
      </trkpt>
      <trkpt lat="47.08891" lon="5.49371">
        <ele>148.80000305176</ele>
        <time>2017-07-23T12:04:40Z</time>
      </trkpt>
      <trkpt lat="47.08887" lon="5.49358">
        <ele>148.80000305176</ele>
        <time>2017-07-23T12:04:42Z</time>
      </trkpt>
      <trkpt lat="47.08882" lon="5.49339">
        <ele>149.19999694824</ele>
        <time>2017-07-23T12:04:45Z</time>
      </trkpt>
      <trkpt lat="47.08863" lon="5.49283">
        <ele>149.39999389648</ele>
        <time>2017-07-23T12:04:54Z</time>
      </trkpt>
      <trkpt lat="47.08861" lon="5.49274">
        <ele>149.39999389648</ele>
        <time>2017-07-23T12:04:57Z</time>
      </trkpt>
      <trkpt lat="47.08862" lon="5.49273">
        <ele>149.60000610352</ele>
        <time>2017-07-23T12:04:58Z</time>
      </trkpt>
      <trkpt lat="47.08863" lon="5.49272">
        <ele>149.80000305176</ele>
        <time>2017-07-23T12:04:59Z</time>
      </trkpt>
      <trkpt lat="47.08865" lon="5.49271">
        <ele>150.19999694824</ele>
        <time>2017-07-23T12:05:01Z</time>
      </trkpt>
      <trkpt lat="47.08868" lon="5.4927">
        <ele>150.39999389648</ele>
        <time>2017-07-23T12:05:04Z</time>
      </trkpt>
      <trkpt lat="47.0887" lon="5.49269">
        <ele>151.19999694824</ele>
        <time>2017-07-23T12:05:12Z</time>
      </trkpt>
      <trkpt lat="47.08874" lon="5.49266">
        <ele>151</ele>
        <time>2017-07-23T12:05:14Z</time>
      </trkpt>
      <trkpt lat="47.08878" lon="5.49256">
        <ele>151</ele>
        <time>2017-07-23T12:05:16Z</time>
      </trkpt>
      <trkpt lat="47.08878" lon="5.49249">
        <ele>151</ele>
        <time>2017-07-23T12:05:17Z</time>
      </trkpt>
      <trkpt lat="47.08868" lon="5.49231">
        <ele>150.60000610352</ele>
        <time>2017-07-23T12:05:20Z</time>
      </trkpt>
      <trkpt lat="47.08855" lon="5.49203">
        <ele>150</ele>
        <time>2017-07-23T12:05:25Z</time>
      </trkpt>
      <trkpt lat="47.08849" lon="5.49191">
        <ele>150</ele>
        <time>2017-07-23T12:05:27Z</time>
      </trkpt>
      <trkpt lat="47.08842" lon="5.49182">
        <ele>150</ele>
        <time>2017-07-23T12:05:29Z</time>
      </trkpt>
      <trkpt lat="47.08831" lon="5.49174">
        <ele>150.19999694824</ele>
        <time>2017-07-23T12:05:32Z</time>
      </trkpt>
      <trkpt lat="47.08819" lon="5.49165">
        <ele>150</ele>
        <time>2017-07-23T12:05:35Z</time>
      </trkpt>
      <trkpt lat="47.08801" lon="5.49155">
        <ele>149.80000305176</ele>
        <time>2017-07-23T12:05:39Z</time>
      </trkpt>
      <trkpt lat="47.08771" lon="5.49131">
        <ele>149.80000305176</ele>
        <time>2017-07-23T12:05:46Z</time>
      </trkpt>
      <trkpt lat="47.08744" lon="5.49097">
        <ele>149</ele>
        <time>2017-07-23T12:05:53Z</time>
      </trkpt>
      <trkpt lat="47.0874" lon="5.49091">
        <ele>148.80000305176</ele>
        <time>2017-07-23T12:05:54Z</time>
      </trkpt>
      <trkpt lat="47.08734" lon="5.4908">
        <ele>148.80000305176</ele>
        <time>2017-07-23T12:05:56Z</time>
      </trkpt>
      <trkpt lat="47.0873" lon="5.49067">
        <ele>148.80000305176</ele>
        <time>2017-07-23T12:05:58Z</time>
      </trkpt>
      <trkpt lat="47.08728" lon="5.49061">
        <ele>148.80000305176</ele>
        <time>2017-07-23T12:05:59Z</time>
      </trkpt>
      <trkpt lat="47.08712" lon="5.49021">
        <ele>148.80000305176</ele>
        <time>2017-07-23T12:06:06Z</time>
      </trkpt>
      <trkpt lat="47.087" lon="5.48992">
        <ele>148.60000610352</ele>
        <time>2017-07-23T12:06:11Z</time>
      </trkpt>
      <trkpt lat="47.08694" lon="5.48982">
        <ele>148.60000610352</ele>
        <time>2017-07-23T12:06:13Z</time>
      </trkpt>
      <trkpt lat="47.08692" lon="5.48976">
        <ele>148.60000610352</ele>
        <time>2017-07-23T12:06:14Z</time>
      </trkpt>
      <trkpt lat="47.08677" lon="5.48942">
        <ele>148.39999389648</ele>
        <time>2017-07-23T12:06:20Z</time>
      </trkpt>
      <trkpt lat="47.08669" lon="5.48919">
        <ele>148</ele>
        <time>2017-07-23T12:06:25Z</time>
      </trkpt>
      <trkpt lat="47.08661" lon="5.48899">
        <ele>148.19999694824</ele>
        <time>2017-07-23T12:06:31Z</time>
      </trkpt>
      <trkpt lat="47.0865" lon="5.48874">
        <ele>148.19999694824</ele>
        <time>2017-07-23T12:06:37Z</time>
      </trkpt>
      <trkpt lat="47.08633" lon="5.48838">
        <ele>148.39999389648</ele>
        <time>2017-07-23T12:06:45Z</time>
      </trkpt>
      <trkpt lat="47.08619" lon="5.48806">
        <ele>148.60000610352</ele>
        <time>2017-07-23T12:06:52Z</time>
      </trkpt>
      <trkpt lat="47.08607" lon="5.48777">
        <ele>148</ele>
        <time>2017-07-23T12:06:57Z</time>
      </trkpt>
      <trkpt lat="47.08598" lon="5.4876">
        <ele>147.60000610352</ele>
        <time>2017-07-23T12:07:00Z</time>
      </trkpt>
      <trkpt lat="47.0857" lon="5.48701">
        <ele>147.80000305176</ele>
        <time>2017-07-23T12:07:10Z</time>
      </trkpt>
      <trkpt lat="47.08544" lon="5.48655">
        <ele>148.19999694824</ele>
        <time>2017-07-23T12:07:18Z</time>
      </trkpt>
      <trkpt lat="47.08522" lon="5.4862">
        <ele>149</ele>
        <time>2017-07-23T12:07:25Z</time>
      </trkpt>
      <trkpt lat="47.08519" lon="5.48614">
        <ele>149</ele>
        <time>2017-07-23T12:07:26Z</time>
      </trkpt>
      <trkpt lat="47.08495" lon="5.48577">
        <ele>149</ele>
        <time>2017-07-23T12:07:33Z</time>
      </trkpt>
      <trkpt lat="47.08479" lon="5.4855">
        <ele>149</ele>
        <time>2017-07-23T12:07:38Z</time>
      </trkpt>
      <trkpt lat="47.08472" lon="5.4854">
        <ele>149</ele>
        <time>2017-07-23T12:07:40Z</time>
      </trkpt>
      <trkpt lat="47.08465" lon="5.4853">
        <ele>149</ele>
        <time>2017-07-23T12:07:42Z</time>
      </trkpt>
      <trkpt lat="47.08456" lon="5.48513">
        <ele>149</ele>
        <time>2017-07-23T12:07:45Z</time>
      </trkpt>
      <trkpt lat="47.08436" lon="5.48482">
        <ele>149.19999694824</ele>
        <time>2017-07-23T12:07:51Z</time>
      </trkpt>
      <trkpt lat="47.08409" lon="5.48436">
        <ele>149.19999694824</ele>
        <time>2017-07-23T12:07:59Z</time>
      </trkpt>
      <trkpt lat="47.0839" lon="5.48401">
        <ele>149</ele>
        <time>2017-07-23T12:08:05Z</time>
      </trkpt>
      <trkpt lat="47.08386" lon="5.48395">
        <ele>149</ele>
        <time>2017-07-23T12:08:06Z</time>
      </trkpt>
      <trkpt lat="47.08356" lon="5.48351">
        <ele>149.39999389648</ele>
        <time>2017-07-23T12:08:14Z</time>
      </trkpt>
      <trkpt lat="47.08352" lon="5.48347">
        <ele>149.39999389648</ele>
        <time>2017-07-23T12:08:15Z</time>
      </trkpt>
      <trkpt lat="47.08334" lon="5.48328">
        <ele>149.39999389648</ele>
        <time>2017-07-23T12:08:19Z</time>
      </trkpt>
      <trkpt lat="47.08294" lon="5.48288">
        <ele>148.80000305176</ele>
        <time>2017-07-23T12:08:28Z</time>
      </trkpt>
      <trkpt lat="47.08285" lon="5.48279">
        <ele>148.39999389648</ele>
        <time>2017-07-23T12:08:30Z</time>
      </trkpt>
      <trkpt lat="47.08274" lon="5.48261">
        <ele>148.19999694824</ele>
        <time>2017-07-23T12:08:33Z</time>
      </trkpt>
      <trkpt lat="47.08271" lon="5.48255">
        <ele>148.19999694824</ele>
        <time>2017-07-23T12:08:34Z</time>
      </trkpt>
      <trkpt lat="47.08253" lon="5.48226">
        <ele>148.39999389648</ele>
        <time>2017-07-23T12:08:39Z</time>
      </trkpt>
      <trkpt lat="47.08228" lon="5.48185">
        <ele>148.60000610352</ele>
        <time>2017-07-23T12:08:46Z</time>
      </trkpt>
      <trkpt lat="47.08199" lon="5.48136">
        <ele>148.39999389648</ele>
        <time>2017-07-23T12:08:54Z</time>
      </trkpt>
      <trkpt lat="47.08183" lon="5.48115">
        <ele>148.39999389648</ele>
        <time>2017-07-23T12:08:58Z</time>
      </trkpt>
      <trkpt lat="47.08173" lon="5.48105">
        <ele>148.39999389648</ele>
        <time>2017-07-23T12:09:00Z</time>
      </trkpt>
      <trkpt lat="47.08165" lon="5.48094">
        <ele>148.39999389648</ele>
        <time>2017-07-23T12:09:02Z</time>
      </trkpt>
      <trkpt lat="47.08147" lon="5.48073">
        <ele>148.39999389648</ele>
        <time>2017-07-23T12:09:06Z</time>
      </trkpt>
      <trkpt lat="47.08131" lon="5.48054">
        <ele>148.60000610352</ele>
        <time>2017-07-23T12:09:10Z</time>
      </trkpt>
      <trkpt lat="47.08123" lon="5.48045">
        <ele>148.80000305176</ele>
        <time>2017-07-23T12:09:12Z</time>
      </trkpt>
      <trkpt lat="47.081" lon="5.48026">
        <ele>148.80000305176</ele>
        <time>2017-07-23T12:09:17Z</time>
      </trkpt>
      <trkpt lat="47.08096" lon="5.48021">
        <ele>148.80000305176</ele>
        <time>2017-07-23T12:09:18Z</time>
      </trkpt>
      <trkpt lat="47.08087" lon="5.48011">
        <ele>148.80000305176</ele>
        <time>2017-07-23T12:09:20Z</time>
      </trkpt>
      <trkpt lat="47.08068" lon="5.47995">
        <ele>148.80000305176</ele>
        <time>2017-07-23T12:09:24Z</time>
      </trkpt>
      <trkpt lat="47.08049" lon="5.47978">
        <ele>148.80000305176</ele>
        <time>2017-07-23T12:09:28Z</time>
      </trkpt>
      <trkpt lat="47.08037" lon="5.47961">
        <ele>148.80000305176</ele>
        <time>2017-07-23T12:09:31Z</time>
      </trkpt>
      <trkpt lat="47.08001" lon="5.47905">
        <ele>148.80000305176</ele>
        <time>2017-07-23T12:09:40Z</time>
      </trkpt>
      <trkpt lat="47.07982" lon="5.47872">
        <ele>148.60000610352</ele>
        <time>2017-07-23T12:09:45Z</time>
      </trkpt>
      <trkpt lat="47.07978" lon="5.47866">
        <ele>148.39999389648</ele>
        <time>2017-07-23T12:09:46Z</time>
      </trkpt>
      <trkpt lat="47.07949" lon="5.47822">
        <ele>148</ele>
        <time>2017-07-23T12:09:53Z</time>
      </trkpt>
      <trkpt lat="47.07946" lon="5.47816">
        <ele>147.80000305176</ele>
        <time>2017-07-23T12:09:54Z</time>
      </trkpt>
      <trkpt lat="47.07918" lon="5.47772">
        <ele>148</ele>
        <time>2017-07-23T12:10:01Z</time>
      </trkpt>
      <trkpt lat="47.07887" lon="5.47725">
        <ele>147</ele>
        <time>2017-07-23T12:10:09Z</time>
      </trkpt>
      <trkpt lat="47.07856" lon="5.4768">
        <ele>147.39999389648</ele>
        <time>2017-07-23T12:10:17Z</time>
      </trkpt>
      <trkpt lat="47.07824" lon="5.47631">
        <ele>147.19999694824</ele>
        <time>2017-07-23T12:10:25Z</time>
      </trkpt>
      <trkpt lat="47.07791" lon="5.4758">
        <ele>147</ele>
        <time>2017-07-23T12:10:33Z</time>
      </trkpt>
      <trkpt lat="47.07763" lon="5.47536">
        <ele>147</ele>
        <time>2017-07-23T12:10:40Z</time>
      </trkpt>
      <trkpt lat="47.07759" lon="5.47531">
        <ele>146.80000305176</ele>
        <time>2017-07-23T12:10:41Z</time>
      </trkpt>
      <trkpt lat="47.07755" lon="5.47524">
        <ele>146.80000305176</ele>
        <time>2017-07-23T12:10:42Z</time>
      </trkpt>
      <trkpt lat="47.07735" lon="5.47492">
        <ele>146.80000305176</ele>
        <time>2017-07-23T12:10:47Z</time>
      </trkpt>
      <trkpt lat="47.07699" lon="5.47434">
        <ele>146.80000305176</ele>
        <time>2017-07-23T12:10:56Z</time>
      </trkpt>
      <trkpt lat="47.07665" lon="5.4738">
        <ele>146.80000305176</ele>
        <time>2017-07-23T12:11:04Z</time>
      </trkpt>
      <trkpt lat="47.07627" lon="5.47317">
        <ele>146.80000305176</ele>
        <time>2017-07-23T12:11:13Z</time>
      </trkpt>
      <trkpt lat="47.07618" lon="5.47304">
        <ele>146.60000610352</ele>
        <time>2017-07-23T12:11:15Z</time>
      </trkpt>
      <trkpt lat="47.07583" lon="5.47262">
        <ele>146.60000610352</ele>
        <time>2017-07-23T12:11:22Z</time>
      </trkpt>
      <trkpt lat="47.07546" lon="5.4723">
        <ele>146.60000610352</ele>
        <time>2017-07-23T12:11:29Z</time>
      </trkpt>
      <trkpt lat="47.07507" lon="5.472">
        <ele>146.60000610352</ele>
        <time>2017-07-23T12:11:36Z</time>
      </trkpt>
      <trkpt lat="47.07472" lon="5.47175">
        <ele>146.60000610352</ele>
        <time>2017-07-23T12:11:42Z</time>
      </trkpt>
      <trkpt lat="47.07426" lon="5.47138">
        <ele>146.60000610352</ele>
        <time>2017-07-23T12:11:50Z</time>
      </trkpt>
      <trkpt lat="47.07375" lon="5.47098">
        <ele>146.60000610352</ele>
        <time>2017-07-23T12:11:59Z</time>
      </trkpt>
      <trkpt lat="47.07369" lon="5.47094">
        <ele>146.60000610352</ele>
        <time>2017-07-23T12:12:00Z</time>
      </trkpt>
      <trkpt lat="47.0732" lon="5.47054">
        <ele>146.60000610352</ele>
        <time>2017-07-23T12:12:09Z</time>
      </trkpt>
      <trkpt lat="47.07289" lon="5.47029">
        <ele>146.60000610352</ele>
        <time>2017-07-23T12:12:15Z</time>
      </trkpt>
      <trkpt lat="47.07283" lon="5.47028">
        <ele>146.60000610352</ele>
        <time>2017-07-23T12:12:16Z</time>
      </trkpt>
      <trkpt lat="47.07261" lon="5.47019">
        <ele>146.80000305176</ele>
        <time>2017-07-23T12:12:20Z</time>
      </trkpt>
      <trkpt lat="47.07257" lon="5.47014">
        <ele>146.80000305176</ele>
        <time>2017-07-23T12:12:21Z</time>
      </trkpt>
      <trkpt lat="47.07246" lon="5.46997">
        <ele>146.60000610352</ele>
        <time>2017-07-23T12:12:24Z</time>
      </trkpt>
      <trkpt lat="47.07235" lon="5.46989">
        <ele>146.60000610352</ele>
        <time>2017-07-23T12:12:26Z</time>
      </trkpt>
      <trkpt lat="47.07196" lon="5.46956">
        <ele>146.60000610352</ele>
        <time>2017-07-23T12:12:33Z</time>
      </trkpt>
      <trkpt lat="47.0719" lon="5.46951">
        <ele>146.60000610352</ele>
        <time>2017-07-23T12:12:34Z</time>
      </trkpt>
      <trkpt lat="47.07177" lon="5.46932">
        <ele>146.60000610352</ele>
        <time>2017-07-23T12:12:37Z</time>
      </trkpt>
      <trkpt lat="47.07162" lon="5.46916">
        <ele>146.60000610352</ele>
        <time>2017-07-23T12:12:40Z</time>
      </trkpt>
      <trkpt lat="47.07151" lon="5.46906">
        <ele>146.80000305176</ele>
        <time>2017-07-23T12:12:42Z</time>
      </trkpt>
      <trkpt lat="47.07146" lon="5.46902">
        <ele>146.80000305176</ele>
        <time>2017-07-23T12:12:43Z</time>
      </trkpt>
      <trkpt lat="47.07107" lon="5.46871">
        <ele>147</ele>
        <time>2017-07-23T12:12:50Z</time>
      </trkpt>
      <trkpt lat="47.07058" lon="5.46831">
        <ele>147.19999694824</ele>
        <time>2017-07-23T12:12:59Z</time>
      </trkpt>
      <trkpt lat="47.07053" lon="5.46827">
        <ele>147.19999694824</ele>
        <time>2017-07-23T12:13:00Z</time>
      </trkpt>
      <trkpt lat="47.07002" lon="5.46788">
        <ele>147.19999694824</ele>
        <time>2017-07-23T12:13:09Z</time>
      </trkpt>
      <trkpt lat="47.06996" lon="5.46783">
        <ele>147.19999694824</ele>
        <time>2017-07-23T12:13:10Z</time>
      </trkpt>
      <trkpt lat="47.06952" lon="5.46747">
        <ele>147.39999389648</ele>
        <time>2017-07-23T12:13:18Z</time>
      </trkpt>
      <trkpt lat="47.06902" lon="5.46711">
        <ele>147.19999694824</ele>
        <time>2017-07-23T12:13:27Z</time>
      </trkpt>
      <trkpt lat="47.0686" lon="5.46679">
        <ele>147.39999389648</ele>
        <time>2017-07-23T12:13:35Z</time>
      </trkpt>
      <trkpt lat="47.06823" lon="5.46649">
        <ele>147.39999389648</ele>
        <time>2017-07-23T12:13:42Z</time>
      </trkpt>
      <trkpt lat="47.06776" lon="5.46621">
        <ele>147</ele>
        <time>2017-07-23T12:13:50Z</time>
      </trkpt>
      <trkpt lat="47.06723" lon="5.46583">
        <ele>146.19999694824</ele>
        <time>2017-07-23T12:13:59Z</time>
      </trkpt>
      <trkpt lat="47.067" lon="5.46564">
        <ele>146</ele>
        <time>2017-07-23T12:14:03Z</time>
      </trkpt>
      <trkpt lat="47.06671" lon="5.46542">
        <ele>145.80000305176</ele>
        <time>2017-07-23T12:14:08Z</time>
      </trkpt>
      <trkpt lat="47.06632" lon="5.46512">
        <ele>146.19999694824</ele>
        <time>2017-07-23T12:14:15Z</time>
      </trkpt>
      <trkpt lat="47.06594" lon="5.46483">
        <ele>146.19999694824</ele>
        <time>2017-07-23T12:14:22Z</time>
      </trkpt>
      <trkpt lat="47.06559" lon="5.46454">
        <ele>146.19999694824</ele>
        <time>2017-07-23T12:14:29Z</time>
      </trkpt>
      <trkpt lat="47.06516" lon="5.46419">
        <ele>146.19999694824</ele>
        <time>2017-07-23T12:14:37Z</time>
      </trkpt>
      <trkpt lat="47.06466" lon="5.4638">
        <ele>145.80000305176</ele>
        <time>2017-07-23T12:14:46Z</time>
      </trkpt>
      <trkpt lat="47.06461" lon="5.46376">
        <ele>145.80000305176</ele>
        <time>2017-07-23T12:14:47Z</time>
      </trkpt>
      <trkpt lat="47.06417" lon="5.46341">
        <ele>145.80000305176</ele>
        <time>2017-07-23T12:14:55Z</time>
      </trkpt>
      <trkpt lat="47.06372" lon="5.46306">
        <ele>145.80000305176</ele>
        <time>2017-07-23T12:15:03Z</time>
      </trkpt>
      <trkpt lat="47.06351" lon="5.46288">
        <ele>145.80000305176</ele>
        <time>2017-07-23T12:15:07Z</time>
      </trkpt>
      <trkpt lat="47.06343" lon="5.46279">
        <ele>145.80000305176</ele>
        <time>2017-07-23T12:15:09Z</time>
      </trkpt>
      <trkpt lat="47.06327" lon="5.46263">
        <ele>146</ele>
        <time>2017-07-23T12:15:13Z</time>
      </trkpt>
      <trkpt lat="47.06319" lon="5.46258">
        <ele>146</ele>
        <time>2017-07-23T12:15:15Z</time>
      </trkpt>
      <trkpt lat="47.06294" lon="5.4624">
        <ele>146</ele>
        <time>2017-07-23T12:15:21Z</time>
      </trkpt>
      <trkpt lat="47.06262" lon="5.46214">
        <ele>146</ele>
        <time>2017-07-23T12:15:27Z</time>
      </trkpt>
      <trkpt lat="47.06216" lon="5.46184">
        <ele>146.19999694824</ele>
        <time>2017-07-23T12:15:35Z</time>
      </trkpt>
      <trkpt lat="47.06198" lon="5.46175">
        <ele>146.19999694824</ele>
        <time>2017-07-23T12:15:38Z</time>
      </trkpt>
      <trkpt lat="47.06187" lon="5.46166">
        <ele>146.19999694824</ele>
        <time>2017-07-23T12:15:40Z</time>
      </trkpt>
      <trkpt lat="47.06142" lon="5.46132">
        <ele>146.19999694824</ele>
        <time>2017-07-23T12:15:48Z</time>
      </trkpt>
      <trkpt lat="47.06115" lon="5.46113">
        <ele>146.39999389648</ele>
        <time>2017-07-23T12:15:53Z</time>
      </trkpt>
      <trkpt lat="47.06109" lon="5.46113">
        <ele>146.39999389648</ele>
        <time>2017-07-23T12:15:54Z</time>
      </trkpt>
      <trkpt lat="47.06097" lon="5.4611">
        <ele>146.60000610352</ele>
        <time>2017-07-23T12:15:56Z</time>
      </trkpt>
      <trkpt lat="47.0608" lon="5.461">
        <ele>146.60000610352</ele>
        <time>2017-07-23T12:15:59Z</time>
      </trkpt>
      <trkpt lat="47.06067" lon="5.46082">
        <ele>146.60000610352</ele>
        <time>2017-07-23T12:16:02Z</time>
      </trkpt>
      <trkpt lat="47.06048" lon="5.46041">
        <ele>146.80000305176</ele>
        <time>2017-07-23T12:16:07Z</time>
      </trkpt>
      <trkpt lat="47.06035" lon="5.45987">
        <ele>146.80000305176</ele>
        <time>2017-07-23T12:16:13Z</time>
      </trkpt>
      <trkpt lat="47.06022" lon="5.45938">
        <ele>147</ele>
        <time>2017-07-23T12:16:19Z</time>
      </trkpt>
      <trkpt lat="47.06013" lon="5.45907">
        <ele>147</ele>
        <time>2017-07-23T12:16:23Z</time>
      </trkpt>
      <trkpt lat="47.05994" lon="5.45843">
        <ele>146.80000305176</ele>
        <time>2017-07-23T12:16:31Z</time>
      </trkpt>
      <trkpt lat="47.05975" lon="5.4578">
        <ele>147</ele>
        <time>2017-07-23T12:16:39Z</time>
      </trkpt>
      <trkpt lat="47.05961" lon="5.45738">
        <ele>147</ele>
        <time>2017-07-23T12:16:45Z</time>
      </trkpt>
      <trkpt lat="47.05941" lon="5.45673">
        <ele>147</ele>
        <time>2017-07-23T12:16:54Z</time>
      </trkpt>
      <trkpt lat="47.05925" lon="5.45622">
        <ele>147.19999694824</ele>
        <time>2017-07-23T12:17:01Z</time>
      </trkpt>
      <trkpt lat="47.05906" lon="5.45565">
        <ele>147.80000305176</ele>
        <time>2017-07-23T12:17:09Z</time>
      </trkpt>
      <trkpt lat="47.05902" lon="5.4555">
        <ele>148</ele>
        <time>2017-07-23T12:17:11Z</time>
      </trkpt>
      <trkpt lat="47.0589" lon="5.45505">
        <ele>148</ele>
        <time>2017-07-23T12:17:17Z</time>
      </trkpt>
      <trkpt lat="47.05873" lon="5.45454">
        <ele>148</ele>
        <time>2017-07-23T12:17:24Z</time>
      </trkpt>
      <trkpt lat="47.05854" lon="5.45393">
        <ele>147.80000305176</ele>
        <time>2017-07-23T12:17:32Z</time>
      </trkpt>
      <trkpt lat="47.05837" lon="5.45333">
        <ele>147.60000610352</ele>
        <time>2017-07-23T12:17:40Z</time>
      </trkpt>
      <trkpt lat="47.05822" lon="5.45287">
        <ele>147.60000610352</ele>
        <time>2017-07-23T12:17:47Z</time>
      </trkpt>
      <trkpt lat="47.05821" lon="5.4528">
        <ele>146.60000610352</ele>
        <time>2017-07-23T12:18:20Z</time>
      </trkpt>
      <trkpt lat="47.05811" lon="5.45255">
        <ele>146.80000305176</ele>
        <time>2017-07-23T12:18:25Z</time>
      </trkpt>
      <trkpt lat="47.05797" lon="5.45215">
        <ele>146.80000305176</ele>
        <time>2017-07-23T12:18:31Z</time>
      </trkpt>
      <trkpt lat="47.05789" lon="5.45192">
        <ele>146.80000305176</ele>
        <time>2017-07-23T12:18:34Z</time>
      </trkpt>
      <trkpt lat="47.05782" lon="5.45168">
        <ele>146.80000305176</ele>
        <time>2017-07-23T12:18:37Z</time>
      </trkpt>
      <trkpt lat="47.0576" lon="5.45094">
        <ele>147.19999694824</ele>
        <time>2017-07-23T12:18:46Z</time>
      </trkpt>
      <trkpt lat="47.0574" lon="5.45028">
        <ele>147.39999389648</ele>
        <time>2017-07-23T12:18:54Z</time>
      </trkpt>
      <trkpt lat="47.05717" lon="5.44954">
        <ele>147.19999694824</ele>
        <time>2017-07-23T12:19:03Z</time>
      </trkpt>
      <trkpt lat="47.05714" lon="5.44946">
        <ele>147.19999694824</ele>
        <time>2017-07-23T12:19:04Z</time>
      </trkpt>
      <trkpt lat="47.05697" lon="5.4489">
        <ele>147</ele>
        <time>2017-07-23T12:19:11Z</time>
      </trkpt>
      <trkpt lat="47.05671" lon="5.44817">
        <ele>146.80000305176</ele>
        <time>2017-07-23T12:19:21Z</time>
      </trkpt>
      <trkpt lat="47.05667" lon="5.44802">
        <ele>146.80000305176</ele>
        <time>2017-07-23T12:19:23Z</time>
      </trkpt>
      <trkpt lat="47.05658" lon="5.44773">
        <ele>147</ele>
        <time>2017-07-23T12:19:27Z</time>
      </trkpt>
      <trkpt lat="47.0564" lon="5.44714">
        <ele>147</ele>
        <time>2017-07-23T12:19:35Z</time>
      </trkpt>
      <trkpt lat="47.05618" lon="5.44643">
        <ele>146.60000610352</ele>
        <time>2017-07-23T12:19:44Z</time>
      </trkpt>
      <trkpt lat="47.056" lon="5.44581">
        <ele>146.80000305176</ele>
        <time>2017-07-23T12:19:52Z</time>
      </trkpt>
      <trkpt lat="47.0558" lon="5.4452">
        <ele>146.60000610352</ele>
        <time>2017-07-23T12:20:00Z</time>
      </trkpt>
      <trkpt lat="47.05562" lon="5.44463">
        <ele>146.80000305176</ele>
        <time>2017-07-23T12:20:07Z</time>
      </trkpt>
      <trkpt lat="47.05549" lon="5.44413">
        <ele>146.60000610352</ele>
        <time>2017-07-23T12:20:13Z</time>
      </trkpt>
      <trkpt lat="47.05548" lon="5.44404">
        <ele>146.60000610352</ele>
        <time>2017-07-23T12:20:14Z</time>
      </trkpt>
      <trkpt lat="47.05552" lon="5.44368">
        <ele>146.80000305176</ele>
        <time>2017-07-23T12:20:18Z</time>
      </trkpt>
      <trkpt lat="47.05554" lon="5.4436">
        <ele>146.80000305176</ele>
        <time>2017-07-23T12:20:19Z</time>
      </trkpt>
      <trkpt lat="47.05559" lon="5.44343">
        <ele>146.80000305176</ele>
        <time>2017-07-23T12:20:21Z</time>
      </trkpt>
      <trkpt lat="47.05567" lon="5.44331">
        <ele>146.80000305176</ele>
        <time>2017-07-23T12:20:23Z</time>
      </trkpt>
      <trkpt lat="47.05596" lon="5.4429">
        <ele>146.60000610352</ele>
        <time>2017-07-23T12:20:30Z</time>
      </trkpt>
      <trkpt lat="47.05609" lon="5.44274">
        <ele>146.60000610352</ele>
        <time>2017-07-23T12:20:33Z</time>
      </trkpt>
      <trkpt lat="47.05621" lon="5.44261">
        <ele>146.39999389648</ele>
        <time>2017-07-23T12:20:36Z</time>
      </trkpt>
      <trkpt lat="47.05628" lon="5.44251">
        <ele>146.39999389648</ele>
        <time>2017-07-23T12:20:38Z</time>
      </trkpt>
      <trkpt lat="47.05634" lon="5.44236">
        <ele>146.60000610352</ele>
        <time>2017-07-23T12:20:40Z</time>
      </trkpt>
      <trkpt lat="47.05651" lon="5.44197">
        <ele>146</ele>
        <time>2017-07-23T12:20:45Z</time>
      </trkpt>
      <trkpt lat="47.05659" lon="5.44194">
        <ele>145.39999389648</ele>
        <time>2017-07-23T12:20:47Z</time>
      </trkpt>
      <trkpt lat="47.05665" lon="5.44193">
        <ele>145.39999389648</ele>
        <time>2017-07-23T12:20:48Z</time>
      </trkpt>
      <trkpt lat="47.0568" lon="5.44179">
        <ele>145.19999694824</ele>
        <time>2017-07-23T12:20:51Z</time>
      </trkpt>
      <trkpt lat="47.05685" lon="5.44174">
        <ele>145.19999694824</ele>
        <time>2017-07-23T12:20:52Z</time>
      </trkpt>
      <trkpt lat="47.05721" lon="5.44136">
        <ele>144.80000305176</ele>
        <time>2017-07-23T12:20:59Z</time>
      </trkpt>
      <trkpt lat="47.05753" lon="5.44095">
        <ele>144.60000610352</ele>
        <time>2017-07-23T12:21:06Z</time>
      </trkpt>
      <trkpt lat="47.05796" lon="5.44041">
        <ele>144.80000305176</ele>
        <time>2017-07-23T12:21:15Z</time>
      </trkpt>
      <trkpt lat="47.05837" lon="5.43988">
        <ele>144.80000305176</ele>
        <time>2017-07-23T12:21:24Z</time>
      </trkpt>
      <trkpt lat="47.05842" lon="5.43983">
        <ele>144.80000305176</ele>
        <time>2017-07-23T12:21:25Z</time>
      </trkpt>
      <trkpt lat="47.05883" lon="5.43922">
        <ele>144.80000305176</ele>
        <time>2017-07-23T12:21:35Z</time>
      </trkpt>
      <trkpt lat="47.05913" lon="5.43881">
        <ele>144.39999389648</ele>
        <time>2017-07-23T12:21:42Z</time>
      </trkpt>
      <trkpt lat="47.05917" lon="5.43875">
        <ele>144.39999389648</ele>
        <time>2017-07-23T12:21:43Z</time>
      </trkpt>
      <trkpt lat="47.05952" lon="5.4383">
        <ele>144.39999389648</ele>
        <time>2017-07-23T12:21:51Z</time>
      </trkpt>
      <trkpt lat="47.05958" lon="5.43816">
        <ele>144.39999389648</ele>
        <time>2017-07-23T12:21:53Z</time>
      </trkpt>
      <trkpt lat="47.05966" lon="5.43794">
        <ele>144.60000610352</ele>
        <time>2017-07-23T12:21:56Z</time>
      </trkpt>
      <trkpt lat="47.05977" lon="5.43742">
        <ele>144.80000305176</ele>
        <time>2017-07-23T12:22:03Z</time>
      </trkpt>
      <trkpt lat="47.05977" lon="5.43734">
        <ele>144.80000305176</ele>
        <time>2017-07-23T12:22:04Z</time>
      </trkpt>
      <trkpt lat="47.05978" lon="5.43705">
        <ele>145</ele>
        <time>2017-07-23T12:22:08Z</time>
      </trkpt>
      <trkpt lat="47.05976" lon="5.4366">
        <ele>145.19999694824</ele>
        <time>2017-07-23T12:22:14Z</time>
      </trkpt>
      <trkpt lat="47.05975" lon="5.43653">
        <ele>145.19999694824</ele>
        <time>2017-07-23T12:22:15Z</time>
      </trkpt>
      <trkpt lat="47.05973" lon="5.43639">
        <ele>145.19999694824</ele>
        <time>2017-07-23T12:22:17Z</time>
      </trkpt>
      <trkpt lat="47.05973" lon="5.43616">
        <ele>145.19999694824</ele>
        <time>2017-07-23T12:22:20Z</time>
      </trkpt>
      <trkpt lat="47.05971" lon="5.43562">
        <ele>144.19999694824</ele>
        <time>2017-07-23T12:22:26Z</time>
      </trkpt>
      <trkpt lat="47.05972" lon="5.43494">
        <ele>143.80000305176</ele>
        <time>2017-07-23T12:22:34Z</time>
      </trkpt>
      <trkpt lat="47.05972" lon="5.43435">
        <ele>143.80000305176</ele>
        <time>2017-07-23T12:22:41Z</time>
      </trkpt>
      <trkpt lat="47.05971" lon="5.4336">
        <ele>143.80000305176</ele>
        <time>2017-07-23T12:22:50Z</time>
      </trkpt>
      <trkpt lat="47.05971" lon="5.43281">
        <ele>143.80000305176</ele>
        <time>2017-07-23T12:22:59Z</time>
      </trkpt>
      <trkpt lat="47.05971" lon="5.43208">
        <ele>143.60000610352</ele>
        <time>2017-07-23T12:23:07Z</time>
      </trkpt>
      <trkpt lat="47.05971" lon="5.43134">
        <ele>144</ele>
        <time>2017-07-23T12:23:15Z</time>
      </trkpt>
      <trkpt lat="47.0597" lon="5.43061">
        <ele>143.80000305176</ele>
        <time>2017-07-23T12:23:23Z</time>
      </trkpt>
      <trkpt lat="47.05968" lon="5.4299">
        <ele>144</ele>
        <time>2017-07-23T12:23:31Z</time>
      </trkpt>
      <trkpt lat="47.05962" lon="5.42949">
        <ele>144.19999694824</ele>
        <time>2017-07-23T12:23:36Z</time>
      </trkpt>
      <trkpt lat="47.05961" lon="5.42941">
        <ele>144.19999694824</ele>
        <time>2017-07-23T12:23:37Z</time>
      </trkpt>
      <trkpt lat="47.05964" lon="5.42932">
        <ele>144.19999694824</ele>
        <time>2017-07-23T12:23:38Z</time>
      </trkpt>
      <trkpt lat="47.05967" lon="5.42916">
        <ele>144.39999389648</ele>
        <time>2017-07-23T12:23:40Z</time>
      </trkpt>
      <trkpt lat="47.05968" lon="5.42909">
        <ele>144.39999389648</ele>
        <time>2017-07-23T12:23:41Z</time>
      </trkpt>
      <trkpt lat="47.05969" lon="5.42877">
        <ele>144.60000610352</ele>
        <time>2017-07-23T12:23:45Z</time>
      </trkpt>
      <trkpt lat="47.0597" lon="5.42825">
        <ele>144</ele>
        <time>2017-07-23T12:23:51Z</time>
      </trkpt>
      <trkpt lat="47.0597" lon="5.42757">
        <ele>143.60000610352</ele>
        <time>2017-07-23T12:23:59Z</time>
      </trkpt>
      <trkpt lat="47.05969" lon="5.42732">
        <ele>143.80000305176</ele>
        <time>2017-07-23T12:24:02Z</time>
      </trkpt>
      <trkpt lat="47.05969" lon="5.42707">
        <ele>144</ele>
        <time>2017-07-23T12:24:05Z</time>
      </trkpt>
      <trkpt lat="47.05971" lon="5.4268">
        <ele>144.60000610352</ele>
        <time>2017-07-23T12:24:10Z</time>
      </trkpt>
      <trkpt lat="47.0597" lon="5.42677">
        <ele>144.80000305176</ele>
        <time>2017-07-23T12:24:11Z</time>
      </trkpt>
      <trkpt lat="47.05965" lon="5.42676">
        <ele>145.80000305176</ele>
        <time>2017-07-23T12:24:13Z</time>
      </trkpt>
      <trkpt lat="47.05954" lon="5.42679">
        <ele>146.60000610352</ele>
        <time>2017-07-23T12:24:16Z</time>
      </trkpt>
      <trkpt lat="47.05951" lon="5.42679">
        <ele>146.80000305176</ele>
        <time>2017-07-23T12:24:17Z</time>
      </trkpt>
      <trkpt lat="47.05941" lon="5.42672">
        <ele>147.19999694824</ele>
        <time>2017-07-23T12:24:20Z</time>
      </trkpt>
      <trkpt lat="47.05941" lon="5.42664">
        <ele>147.19999694824</ele>
        <time>2017-07-23T12:24:21Z</time>
      </trkpt>
      <trkpt lat="47.05943" lon="5.42639">
        <ele>147.39999389648</ele>
        <time>2017-07-23T12:24:24Z</time>
      </trkpt>
      <trkpt lat="47.05943" lon="5.42597">
        <ele>145.60000610352</ele>
        <time>2017-07-23T12:24:28Z</time>
      </trkpt>
      <trkpt lat="47.05944" lon="5.42577">
        <ele>145</ele>
        <time>2017-07-23T12:24:30Z</time>
      </trkpt>
      <trkpt lat="47.05944" lon="5.42556">
        <ele>144.60000610352</ele>
        <time>2017-07-23T12:24:32Z</time>
      </trkpt>
      <trkpt lat="47.05944" lon="5.4251">
        <ele>144.19999694824</ele>
        <time>2017-07-23T12:24:37Z</time>
      </trkpt>
      <trkpt lat="47.05944" lon="5.42439">
        <ele>143.80000305176</ele>
        <time>2017-07-23T12:24:45Z</time>
      </trkpt>
      <trkpt lat="47.05945" lon="5.42387">
        <ele>143.80000305176</ele>
        <time>2017-07-23T12:24:51Z</time>
      </trkpt>
      <trkpt lat="47.05945" lon="5.42327">
        <ele>144</ele>
        <time>2017-07-23T12:24:58Z</time>
      </trkpt>
      <trkpt lat="47.05945" lon="5.42251">
        <ele>144</ele>
        <time>2017-07-23T12:25:06Z</time>
      </trkpt>
      <trkpt lat="47.05945" lon="5.4217">
        <ele>144.19999694824</ele>
        <time>2017-07-23T12:25:15Z</time>
      </trkpt>
      <trkpt lat="47.05946" lon="5.42162">
        <ele>144.19999694824</ele>
        <time>2017-07-23T12:25:16Z</time>
      </trkpt>
      <trkpt lat="47.05945" lon="5.42093">
        <ele>144</ele>
        <time>2017-07-23T12:25:24Z</time>
      </trkpt>
      <trkpt lat="47.05946" lon="5.42033">
        <ele>143.80000305176</ele>
        <time>2017-07-23T12:25:31Z</time>
      </trkpt>
      <trkpt lat="47.05945" lon="5.41964">
        <ele>144</ele>
        <time>2017-07-23T12:25:39Z</time>
      </trkpt>
      <trkpt lat="47.05946" lon="5.41895">
        <ele>144</ele>
        <time>2017-07-23T12:25:47Z</time>
      </trkpt>
      <trkpt lat="47.05945" lon="5.41861">
        <ele>144</ele>
        <time>2017-07-23T12:25:51Z</time>
      </trkpt>
      <trkpt lat="47.05945" lon="5.41844">
        <ele>143.80000305176</ele>
        <time>2017-07-23T12:25:53Z</time>
      </trkpt>
      <trkpt lat="47.05945" lon="5.41835">
        <ele>144</ele>
        <time>2017-07-23T12:25:54Z</time>
      </trkpt>
      <trkpt lat="47.05944" lon="5.41786">
        <ele>144</ele>
        <time>2017-07-23T12:26:00Z</time>
      </trkpt>
      <trkpt lat="47.05943" lon="5.4177">
        <ele>144</ele>
        <time>2017-07-23T12:26:02Z</time>
      </trkpt>
      <trkpt lat="47.05944" lon="5.41729">
        <ele>144</ele>
        <time>2017-07-23T12:26:07Z</time>
      </trkpt>
      <trkpt lat="47.05944" lon="5.41714">
        <ele>144</ele>
        <time>2017-07-23T12:26:09Z</time>
      </trkpt>
      <trkpt lat="47.05943" lon="5.41633">
        <ele>144</ele>
        <time>2017-07-23T12:26:19Z</time>
      </trkpt>
      <trkpt lat="47.05943" lon="5.41577">
        <ele>144.19999694824</ele>
        <time>2017-07-23T12:26:26Z</time>
      </trkpt>
      <trkpt lat="47.05942" lon="5.41513">
        <ele>144</ele>
        <time>2017-07-23T12:26:34Z</time>
      </trkpt>
      <trkpt lat="47.05943" lon="5.41453">
        <ele>144</ele>
        <time>2017-07-23T12:26:42Z</time>
      </trkpt>
      <trkpt lat="47.05942" lon="5.41391">
        <ele>144</ele>
        <time>2017-07-23T12:26:50Z</time>
      </trkpt>
      <trkpt lat="47.05938" lon="5.41335">
        <ele>143.80000305176</ele>
        <time>2017-07-23T12:26:57Z</time>
      </trkpt>
      <trkpt lat="47.05938" lon="5.41319">
        <ele>143.80000305176</ele>
        <time>2017-07-23T12:26:59Z</time>
      </trkpt>
      <trkpt lat="47.05939" lon="5.41305">
        <ele>143.80000305176</ele>
        <time>2017-07-23T12:27:01Z</time>
      </trkpt>
      <trkpt lat="47.0594" lon="5.41293">
        <ele>144.19999694824</ele>
        <time>2017-07-23T12:27:03Z</time>
      </trkpt>
      <trkpt lat="47.05944" lon="5.41274">
        <ele>144.80000305176</ele>
        <time>2017-07-23T12:27:08Z</time>
      </trkpt>
      <trkpt lat="47.05953" lon="5.41271">
        <ele>145</ele>
        <time>2017-07-23T12:27:12Z</time>
      </trkpt>
      <trkpt lat="47.05972" lon="5.41271">
        <ele>145.19999694824</ele>
        <time>2017-07-23T12:27:18Z</time>
      </trkpt>
      <trkpt lat="47.05986" lon="5.41277">
        <ele>145.19999694824</ele>
        <time>2017-07-23T12:27:23Z</time>
      </trkpt>
      <trkpt lat="47.06007" lon="5.41289">
        <ele>144.80000305176</ele>
        <time>2017-07-23T12:27:29Z</time>
      </trkpt>
      <trkpt lat="47.06025" lon="5.41302">
        <ele>144.60000610352</ele>
        <time>2017-07-23T12:27:35Z</time>
      </trkpt>
      <trkpt lat="47.06042" lon="5.41314">
        <ele>145</ele>
        <time>2017-07-23T12:27:40Z</time>
      </trkpt>
      <trkpt lat="47.06055" lon="5.41323">
        <ele>145.80000305176</ele>
        <time>2017-07-23T12:27:44Z</time>
      </trkpt>
      <trkpt lat="47.06064" lon="5.4133">
        <ele>146.39999389648</ele>
        <time>2017-07-23T12:27:47Z</time>
      </trkpt>
      <trkpt lat="47.06074" lon="5.41337">
        <ele>146.80000305176</ele>
        <time>2017-07-23T12:27:50Z</time>
      </trkpt>
      <trkpt lat="47.06089" lon="5.41345">
        <ele>147.19999694824</ele>
        <time>2017-07-23T12:27:54Z</time>
      </trkpt>
      <trkpt lat="47.06113" lon="5.41362">
        <ele>148</ele>
        <time>2017-07-23T12:28:01Z</time>
      </trkpt>
      <trkpt lat="47.06121" lon="5.41366">
        <ele>148.60000610352</ele>
        <time>2017-07-23T12:28:03Z</time>
      </trkpt>
      <trkpt lat="47.06135" lon="5.41375">
        <ele>149.19999694824</ele>
        <time>2017-07-23T12:28:07Z</time>
      </trkpt>
      <trkpt lat="47.06149" lon="5.41384">
        <ele>149.60000610352</ele>
        <time>2017-07-23T12:28:11Z</time>
      </trkpt>
      <trkpt lat="47.06159" lon="5.41392">
        <ele>150.19999694824</ele>
        <time>2017-07-23T12:28:14Z</time>
      </trkpt>
      <trkpt lat="47.06176" lon="5.41407">
        <ele>150.60000610352</ele>
        <time>2017-07-23T12:28:19Z</time>
      </trkpt>
      <trkpt lat="47.06201" lon="5.4144">
        <ele>151.39999389648</ele>
        <time>2017-07-23T12:28:27Z</time>
      </trkpt>
      <trkpt lat="47.06226" lon="5.41478">
        <ele>152.39999389648</ele>
        <time>2017-07-23T12:28:36Z</time>
      </trkpt>
      <trkpt lat="47.06229" lon="5.41482">
        <ele>152.60000610352</ele>
        <time>2017-07-23T12:28:37Z</time>
      </trkpt>
      <trkpt lat="47.06243" lon="5.41502">
        <ele>153.39999389648</ele>
        <time>2017-07-23T12:28:42Z</time>
      </trkpt>
      <trkpt lat="47.06248" lon="5.41511">
        <ele>153.39999389648</ele>
        <time>2017-07-23T12:28:44Z</time>
      </trkpt>
      <trkpt lat="47.06275" lon="5.41551">
        <ele>154.19999694824</ele>
        <time>2017-07-23T12:28:54Z</time>
      </trkpt>
      <trkpt lat="47.06303" lon="5.41581">
        <ele>154.39999389648</ele>
        <time>2017-07-23T12:29:03Z</time>
      </trkpt>
      <trkpt lat="47.06321" lon="5.41592">
        <ele>155.39999389648</ele>
        <time>2017-07-23T12:29:08Z</time>
      </trkpt>
      <trkpt lat="47.06325" lon="5.41595">
        <ele>155.80000305176</ele>
        <time>2017-07-23T12:29:09Z</time>
      </trkpt>
      <trkpt lat="47.06329" lon="5.41597">
        <ele>156</ele>
        <time>2017-07-23T12:29:10Z</time>
      </trkpt>
      <trkpt lat="47.06346" lon="5.41602">
        <ele>156.60000610352</ele>
        <time>2017-07-23T12:29:14Z</time>
      </trkpt>
      <trkpt lat="47.0635" lon="5.41603">
        <ele>156.80000305176</ele>
        <time>2017-07-23T12:29:15Z</time>
      </trkpt>
      <trkpt lat="47.06379" lon="5.41604">
        <ele>157.39999389648</ele>
        <time>2017-07-23T12:29:21Z</time>
      </trkpt>
      <trkpt lat="47.06398" lon="5.416">
        <ele>157.39999389648</ele>
        <time>2017-07-23T12:29:25Z</time>
      </trkpt>
      <trkpt lat="47.06408" lon="5.41596">
        <ele>157.39999389648</ele>
        <time>2017-07-23T12:29:27Z</time>
      </trkpt>
      <trkpt lat="47.06433" lon="5.41585">
        <ele>157.80000305176</ele>
        <time>2017-07-23T12:29:33Z</time>
      </trkpt>
      <trkpt lat="47.06442" lon="5.41581">
        <ele>158</ele>
        <time>2017-07-23T12:29:35Z</time>
      </trkpt>
      <trkpt lat="47.06488" lon="5.41561">
        <ele>158.19999694824</ele>
        <time>2017-07-23T12:29:45Z</time>
      </trkpt>
      <trkpt lat="47.06517" lon="5.41549">
        <ele>158.80000305176</ele>
        <time>2017-07-23T12:29:51Z</time>
      </trkpt>
      <trkpt lat="47.06532" lon="5.41544">
        <ele>159</ele>
        <time>2017-07-23T12:29:54Z</time>
      </trkpt>
      <trkpt lat="47.06571" lon="5.41525">
        <ele>159.39999389648</ele>
        <time>2017-07-23T12:30:02Z</time>
      </trkpt>
      <trkpt lat="47.06622" lon="5.41503">
        <ele>159.60000610352</ele>
        <time>2017-07-23T12:30:11Z</time>
      </trkpt>
      <trkpt lat="47.06638" lon="5.41495">
        <ele>159.39999389648</ele>
        <time>2017-07-23T12:30:14Z</time>
      </trkpt>
      <trkpt lat="47.06658" lon="5.41485">
        <ele>159.39999389648</ele>
        <time>2017-07-23T12:30:18Z</time>
      </trkpt>
      <trkpt lat="47.06687" lon="5.41476">
        <ele>159.19999694824</ele>
        <time>2017-07-23T12:30:24Z</time>
      </trkpt>
      <trkpt lat="47.06709" lon="5.4148">
        <ele>158.80000305176</ele>
        <time>2017-07-23T12:30:29Z</time>
      </trkpt>
      <trkpt lat="47.06729" lon="5.41491">
        <ele>158.80000305176</ele>
        <time>2017-07-23T12:30:33Z</time>
      </trkpt>
      <trkpt lat="47.06742" lon="5.41479">
        <ele>158.80000305176</ele>
        <time>2017-07-23T12:30:36Z</time>
      </trkpt>
      <trkpt lat="47.06745" lon="5.41471">
        <ele>158.80000305176</ele>
        <time>2017-07-23T12:30:37Z</time>
      </trkpt>
      <trkpt lat="47.06747" lon="5.41464">
        <ele>158.80000305176</ele>
        <time>2017-07-23T12:30:38Z</time>
      </trkpt>
      <trkpt lat="47.06759" lon="5.41447">
        <ele>158.80000305176</ele>
        <time>2017-07-23T12:30:41Z</time>
      </trkpt>
      <trkpt lat="47.06772" lon="5.41435">
        <ele>159</ele>
        <time>2017-07-23T12:30:44Z</time>
      </trkpt>
      <trkpt lat="47.06782" lon="5.41429">
        <ele>159.19999694824</ele>
        <time>2017-07-23T12:30:46Z</time>
      </trkpt>
      <trkpt lat="47.06815" lon="5.41412">
        <ele>159.80000305176</ele>
        <time>2017-07-23T12:30:53Z</time>
      </trkpt>
      <trkpt lat="47.06819" lon="5.4141">
        <ele>159.80000305176</ele>
        <time>2017-07-23T12:30:54Z</time>
      </trkpt>
      <trkpt lat="47.06851" lon="5.41395">
        <ele>159</ele>
        <time>2017-07-23T12:31:01Z</time>
      </trkpt>
      <trkpt lat="47.0687" lon="5.41385">
        <ele>158.80000305176</ele>
        <time>2017-07-23T12:31:05Z</time>
      </trkpt>
      <trkpt lat="47.06885" lon="5.41377">
        <ele>158.39999389648</ele>
        <time>2017-07-23T12:31:08Z</time>
      </trkpt>
      <trkpt lat="47.0691" lon="5.41363">
        <ele>158.60000610352</ele>
        <time>2017-07-23T12:31:13Z</time>
      </trkpt>
      <trkpt lat="47.06923" lon="5.41356">
        <ele>158.39999389648</ele>
        <time>2017-07-23T12:31:16Z</time>
      </trkpt>
      <trkpt lat="47.06959" lon="5.41339">
        <ele>158</ele>
        <time>2017-07-23T12:31:23Z</time>
      </trkpt>
      <trkpt lat="47.06965" lon="5.41337">
        <ele>158</ele>
        <time>2017-07-23T12:31:24Z</time>
      </trkpt>
      <trkpt lat="47.06977" lon="5.41337">
        <ele>157.60000610352</ele>
        <time>2017-07-23T12:31:26Z</time>
      </trkpt>
      <trkpt lat="47.06983" lon="5.41336">
        <ele>157.60000610352</ele>
        <time>2017-07-23T12:31:27Z</time>
      </trkpt>
      <trkpt lat="47.06989" lon="5.41333">
        <ele>157.60000610352</ele>
        <time>2017-07-23T12:31:28Z</time>
      </trkpt>
      <trkpt lat="47.07005" lon="5.41319">
        <ele>157.39999389648</ele>
        <time>2017-07-23T12:31:31Z</time>
      </trkpt>
      <trkpt lat="47.0701" lon="5.41314">
        <ele>157.39999389648</ele>
        <time>2017-07-23T12:31:32Z</time>
      </trkpt>
      <trkpt lat="47.07015" lon="5.41309">
        <ele>157.39999389648</ele>
        <time>2017-07-23T12:31:33Z</time>
      </trkpt>
      <trkpt lat="47.07038" lon="5.41297">
        <ele>157.19999694824</ele>
        <time>2017-07-23T12:31:37Z</time>
      </trkpt>
      <trkpt lat="47.07084" lon="5.41273">
        <ele>157.19999694824</ele>
        <time>2017-07-23T12:31:45Z</time>
      </trkpt>
      <trkpt lat="47.07134" lon="5.41245">
        <ele>156.39999389648</ele>
        <time>2017-07-23T12:31:53Z</time>
      </trkpt>
      <trkpt lat="47.07175" lon="5.41231">
        <ele>155.39999389648</ele>
        <time>2017-07-23T12:31:59Z</time>
      </trkpt>
      <trkpt lat="47.07182" lon="5.4123">
        <ele>155.39999389648</ele>
        <time>2017-07-23T12:32:00Z</time>
      </trkpt>
      <trkpt lat="47.072" lon="5.41232">
        <ele>155.60000610352</ele>
        <time>2017-07-23T12:32:03Z</time>
      </trkpt>
      <trkpt lat="47.07206" lon="5.41234">
        <ele>155.60000610352</ele>
        <time>2017-07-23T12:32:04Z</time>
      </trkpt>
      <trkpt lat="47.07222" lon="5.41242">
        <ele>155.39999389648</ele>
        <time>2017-07-23T12:32:07Z</time>
      </trkpt>
      <trkpt lat="47.07242" lon="5.41254">
        <ele>155.19999694824</ele>
        <time>2017-07-23T12:32:11Z</time>
      </trkpt>
      <trkpt lat="47.07257" lon="5.41266">
        <ele>155.39999389648</ele>
        <time>2017-07-23T12:32:15Z</time>
      </trkpt>
      <trkpt lat="47.0728" lon="5.4128">
        <ele>155.60000610352</ele>
        <time>2017-07-23T12:32:21Z</time>
      </trkpt>
      <trkpt lat="47.07311" lon="5.41298">
        <ele>155.80000305176</ele>
        <time>2017-07-23T12:32:27Z</time>
      </trkpt>
      <trkpt lat="47.07352" lon="5.41323">
        <ele>156.19999694824</ele>
        <time>2017-07-23T12:32:35Z</time>
      </trkpt>
      <trkpt lat="47.07357" lon="5.41325">
        <ele>156.39999389648</ele>
        <time>2017-07-23T12:32:36Z</time>
      </trkpt>
      <trkpt lat="47.07368" lon="5.41328">
        <ele>156.60000610352</ele>
        <time>2017-07-23T12:32:38Z</time>
      </trkpt>
      <trkpt lat="47.07379" lon="5.41327">
        <ele>156.80000305176</ele>
        <time>2017-07-23T12:32:40Z</time>
      </trkpt>
      <trkpt lat="47.07419" lon="5.41306">
        <ele>157</ele>
        <time>2017-07-23T12:32:47Z</time>
      </trkpt>
      <trkpt lat="47.07456" lon="5.41286">
        <ele>156.80000305176</ele>
        <time>2017-07-23T12:32:53Z</time>
      </trkpt>
      <trkpt lat="47.07498" lon="5.41259">
        <ele>156.19999694824</ele>
        <time>2017-07-23T12:33:00Z</time>
      </trkpt>
      <trkpt lat="47.07527" lon="5.41227">
        <ele>155.60000610352</ele>
        <time>2017-07-23T12:33:06Z</time>
      </trkpt>
      <trkpt lat="47.07538" lon="5.41205">
        <ele>155.39999389648</ele>
        <time>2017-07-23T12:33:09Z</time>
      </trkpt>
      <trkpt lat="47.0754" lon="5.41197">
        <ele>155.19999694824</ele>
        <time>2017-07-23T12:33:10Z</time>
      </trkpt>
      <trkpt lat="47.07542" lon="5.41188">
        <ele>155</ele>
        <time>2017-07-23T12:33:11Z</time>
      </trkpt>
      <trkpt lat="47.07547" lon="5.41173">
        <ele>154.60000610352</ele>
        <time>2017-07-23T12:33:13Z</time>
      </trkpt>
      <trkpt lat="47.0755" lon="5.41159">
        <ele>154.19999694824</ele>
        <time>2017-07-23T12:33:15Z</time>
      </trkpt>
      <trkpt lat="47.07549" lon="5.41137">
        <ele>153</ele>
        <time>2017-07-23T12:33:18Z</time>
      </trkpt>
      <trkpt lat="47.07536" lon="5.41118">
        <ele>152.39999389648</ele>
        <time>2017-07-23T12:33:21Z</time>
      </trkpt>
      <trkpt lat="47.07522" lon="5.41099">
        <ele>152</ele>
        <time>2017-07-23T12:33:24Z</time>
      </trkpt>
      <trkpt lat="47.07517" lon="5.41093">
        <ele>152</ele>
        <time>2017-07-23T12:33:25Z</time>
      </trkpt>
      <trkpt lat="47.07511" lon="5.41089">
        <ele>151.80000305176</ele>
        <time>2017-07-23T12:33:26Z</time>
      </trkpt>
      <trkpt lat="47.07481" lon="5.41062">
        <ele>151.80000305176</ele>
        <time>2017-07-23T12:33:32Z</time>
      </trkpt>
      <trkpt lat="47.07459" lon="5.4104">
        <ele>151</ele>
        <time>2017-07-23T12:33:36Z</time>
      </trkpt>
      <trkpt lat="47.07451" lon="5.41029">
        <ele>150.39999389648</ele>
        <time>2017-07-23T12:33:38Z</time>
      </trkpt>
      <trkpt lat="47.07449" lon="5.41021">
        <ele>150</ele>
        <time>2017-07-23T12:33:39Z</time>
      </trkpt>
      <trkpt lat="47.07452" lon="5.41005">
        <ele>149.80000305176</ele>
        <time>2017-07-23T12:33:41Z</time>
      </trkpt>
      <trkpt lat="47.07456" lon="5.40989">
        <ele>149.19999694824</ele>
        <time>2017-07-23T12:33:43Z</time>
      </trkpt>
      <trkpt lat="47.07458" lon="5.40982">
        <ele>148.80000305176</ele>
        <time>2017-07-23T12:33:44Z</time>
      </trkpt>
      <trkpt lat="47.07465" lon="5.4095">
        <ele>148.39999389648</ele>
        <time>2017-07-23T12:33:48Z</time>
      </trkpt>
      <trkpt lat="47.07467" lon="5.40942">
        <ele>148.39999389648</ele>
        <time>2017-07-23T12:33:49Z</time>
      </trkpt>
      <trkpt lat="47.07478" lon="5.40915">
        <ele>148.39999389648</ele>
        <time>2017-07-23T12:33:53Z</time>
      </trkpt>
      <trkpt lat="47.07502" lon="5.40876">
        <ele>149</ele>
        <time>2017-07-23T12:34:00Z</time>
      </trkpt>
      <trkpt lat="47.07514" lon="5.40854">
        <ele>150</ele>
        <time>2017-07-23T12:34:04Z</time>
      </trkpt>
      <trkpt lat="47.07524" lon="5.40837">
        <ele>150.39999389648</ele>
        <time>2017-07-23T12:34:07Z</time>
      </trkpt>
      <trkpt lat="47.07535" lon="5.40815">
        <ele>150.60000610352</ele>
        <time>2017-07-23T12:34:11Z</time>
      </trkpt>
      <trkpt lat="47.07539" lon="5.40804">
        <ele>150.80000305176</ele>
        <time>2017-07-23T12:34:13Z</time>
      </trkpt>
      <trkpt lat="47.07544" lon="5.40783">
        <ele>150.80000305176</ele>
        <time>2017-07-23T12:34:16Z</time>
      </trkpt>
      <trkpt lat="47.07547" lon="5.40758">
        <ele>150.60000610352</ele>
        <time>2017-07-23T12:34:19Z</time>
      </trkpt>
      <trkpt lat="47.07556" lon="5.40683">
        <ele>149.60000610352</ele>
        <time>2017-07-23T12:34:28Z</time>
      </trkpt>
      <trkpt lat="47.07561" lon="5.40647">
        <ele>149</ele>
        <time>2017-07-23T12:34:32Z</time>
      </trkpt>
      <trkpt lat="47.07564" lon="5.40621">
        <ele>148.80000305176</ele>
        <time>2017-07-23T12:34:35Z</time>
      </trkpt>
      <trkpt lat="47.07569" lon="5.4058">
        <ele>147.80000305176</ele>
        <time>2017-07-23T12:34:40Z</time>
      </trkpt>
      <trkpt lat="47.07573" lon="5.40553">
        <ele>147.19999694824</ele>
        <time>2017-07-23T12:34:43Z</time>
      </trkpt>
      <trkpt lat="47.0758" lon="5.40505">
        <ele>147</ele>
        <time>2017-07-23T12:34:49Z</time>
      </trkpt>
      <trkpt lat="47.07582" lon="5.405">
        <ele>147</ele>
        <time>2017-07-23T12:34:50Z</time>
      </trkpt>
      <trkpt lat="47.07588" lon="5.40489">
        <ele>147</ele>
        <time>2017-07-23T12:34:52Z</time>
      </trkpt>
      <trkpt lat="47.07591" lon="5.40469">
        <ele>147.39999389648</ele>
        <time>2017-07-23T12:34:55Z</time>
      </trkpt>
      <trkpt lat="47.07592" lon="5.40456">
        <ele>147.80000305176</ele>
        <time>2017-07-23T12:34:57Z</time>
      </trkpt>
      <trkpt lat="47.07595" lon="5.40428">
        <ele>149</ele>
        <time>2017-07-23T12:35:01Z</time>
      </trkpt>
      <trkpt lat="47.07596" lon="5.4042">
        <ele>149.19999694824</ele>
        <time>2017-07-23T12:35:02Z</time>
      </trkpt>
      <trkpt lat="47.07598" lon="5.40396">
        <ele>150</ele>
        <time>2017-07-23T12:35:05Z</time>
      </trkpt>
      <trkpt lat="47.07602" lon="5.40367">
        <ele>150.39999389648</ele>
        <time>2017-07-23T12:35:09Z</time>
      </trkpt>
      <trkpt lat="47.0761" lon="5.40308">
        <ele>150.60000610352</ele>
        <time>2017-07-23T12:35:17Z</time>
      </trkpt>
      <trkpt lat="47.0762" lon="5.40231">
        <ele>150.60000610352</ele>
        <time>2017-07-23T12:35:27Z</time>
      </trkpt>
      <trkpt lat="47.07628" lon="5.40167">
        <ele>150.80000305176</ele>
        <time>2017-07-23T12:35:35Z</time>
      </trkpt>
      <trkpt lat="47.07633" lon="5.40128">
        <ele>150.80000305176</ele>
        <time>2017-07-23T12:35:40Z</time>
      </trkpt>
      <trkpt lat="47.07635" lon="5.40113">
        <ele>150.80000305176</ele>
        <time>2017-07-23T12:35:42Z</time>
      </trkpt>
      <trkpt lat="47.07642" lon="5.40057">
        <ele>150.19999694824</ele>
        <time>2017-07-23T12:35:49Z</time>
      </trkpt>
      <trkpt lat="47.0765" lon="5.39987">
        <ele>149.80000305176</ele>
        <time>2017-07-23T12:35:57Z</time>
      </trkpt>
      <trkpt lat="47.07651" lon="5.39979">
        <ele>149.80000305176</ele>
        <time>2017-07-23T12:35:58Z</time>
      </trkpt>
      <trkpt lat="47.07655" lon="5.39953">
        <ele>149.80000305176</ele>
        <time>2017-07-23T12:36:01Z</time>
      </trkpt>
      <trkpt lat="47.07659" lon="5.39928">
        <ele>149.80000305176</ele>
        <time>2017-07-23T12:36:04Z</time>
      </trkpt>
      <trkpt lat="47.07669" lon="5.39854">
        <ele>149.80000305176</ele>
        <time>2017-07-23T12:36:13Z</time>
      </trkpt>
      <trkpt lat="47.07677" lon="5.39786">
        <ele>149.19999694824</ele>
        <time>2017-07-23T12:36:21Z</time>
      </trkpt>
      <trkpt lat="47.0768" lon="5.39768">
        <ele>148.80000305176</ele>
        <time>2017-07-23T12:36:23Z</time>
      </trkpt>
      <trkpt lat="47.07687" lon="5.39703">
        <ele>148</ele>
        <time>2017-07-23T12:36:30Z</time>
      </trkpt>
      <trkpt lat="47.07688" lon="5.39693">
        <ele>147.60000610352</ele>
        <time>2017-07-23T12:36:31Z</time>
      </trkpt>
      <trkpt lat="47.07697" lon="5.39633">
        <ele>146.60000610352</ele>
        <time>2017-07-23T12:36:37Z</time>
      </trkpt>
      <trkpt lat="47.07702" lon="5.39579">
        <ele>145.60000610352</ele>
        <time>2017-07-23T12:36:42Z</time>
      </trkpt>
      <trkpt lat="47.07705" lon="5.39555">
        <ele>145</ele>
        <time>2017-07-23T12:36:44Z</time>
      </trkpt>
      <trkpt lat="47.07707" lon="5.39531">
        <ele>144.19999694824</ele>
        <time>2017-07-23T12:36:46Z</time>
      </trkpt>
      <trkpt lat="47.07714" lon="5.39482">
        <ele>143</ele>
        <time>2017-07-23T12:36:50Z</time>
      </trkpt>
      <trkpt lat="47.07717" lon="5.39458">
        <ele>142.19999694824</ele>
        <time>2017-07-23T12:36:52Z</time>
      </trkpt>
      <trkpt lat="47.07718" lon="5.39447">
        <ele>142</ele>
        <time>2017-07-23T12:36:53Z</time>
      </trkpt>
      <trkpt lat="47.07726" lon="5.39381">
        <ele>141.39999389648</ele>
        <time>2017-07-23T12:36:59Z</time>
      </trkpt>
      <trkpt lat="47.07733" lon="5.39327">
        <ele>142.39999389648</ele>
        <time>2017-07-23T12:37:05Z</time>
      </trkpt>
      <trkpt lat="47.07738" lon="5.39294">
        <ele>143</ele>
        <time>2017-07-23T12:37:09Z</time>
      </trkpt>
      <trkpt lat="47.07741" lon="5.39269">
        <ele>143.19999694824</ele>
        <time>2017-07-23T12:37:12Z</time>
      </trkpt>
      <trkpt lat="47.0775" lon="5.39197">
        <ele>142</ele>
        <time>2017-07-23T12:37:20Z</time>
      </trkpt>
      <trkpt lat="47.07752" lon="5.39188">
        <ele>142</ele>
        <time>2017-07-23T12:37:21Z</time>
      </trkpt>
      <trkpt lat="47.07758" lon="5.39121">
        <ele>141.39999389648</ele>
        <time>2017-07-23T12:37:29Z</time>
      </trkpt>
      <trkpt lat="47.07756" lon="5.39105">
        <ele>141.19999694824</ele>
        <time>2017-07-23T12:37:31Z</time>
      </trkpt>
      <trkpt lat="47.0775" lon="5.39091">
        <ele>141.19999694824</ele>
        <time>2017-07-23T12:37:33Z</time>
      </trkpt>
      <trkpt lat="47.07747" lon="5.39083">
        <ele>141.19999694824</ele>
        <time>2017-07-23T12:37:34Z</time>
      </trkpt>
      <trkpt lat="47.07731" lon="5.39047">
        <ele>141.19999694824</ele>
        <time>2017-07-23T12:37:39Z</time>
      </trkpt>
      <trkpt lat="47.07721" lon="5.39025">
        <ele>140.80000305176</ele>
        <time>2017-07-23T12:37:42Z</time>
      </trkpt>
      <trkpt lat="47.07707" lon="5.3899">
        <ele>140.39999389648</ele>
        <time>2017-07-23T12:37:47Z</time>
      </trkpt>
      <trkpt lat="47.07696" lon="5.38963">
        <ele>139.80000305176</ele>
        <time>2017-07-23T12:37:51Z</time>
      </trkpt>
      <trkpt lat="47.07687" lon="5.38942">
        <ele>139.39999389648</ele>
        <time>2017-07-23T12:37:54Z</time>
      </trkpt>
      <trkpt lat="47.07665" lon="5.38889">
        <ele>139</ele>
        <time>2017-07-23T12:38:01Z</time>
      </trkpt>
      <trkpt lat="47.0764" lon="5.38831">
        <ele>138.80000305176</ele>
        <time>2017-07-23T12:38:09Z</time>
      </trkpt>
      <trkpt lat="47.07637" lon="5.38823">
        <ele>138.60000610352</ele>
        <time>2017-07-23T12:38:10Z</time>
      </trkpt>
      <trkpt lat="47.07634" lon="5.38815">
        <ele>138.60000610352</ele>
        <time>2017-07-23T12:38:11Z</time>
      </trkpt>
      <trkpt lat="47.07623" lon="5.38784">
        <ele>138.39999389648</ele>
        <time>2017-07-23T12:38:15Z</time>
      </trkpt>
      <trkpt lat="47.07611" lon="5.38733">
        <ele>138.60000610352</ele>
        <time>2017-07-23T12:38:21Z</time>
      </trkpt>
      <trkpt lat="47.07602" lon="5.3867">
        <ele>138.39999389648</ele>
        <time>2017-07-23T12:38:28Z</time>
      </trkpt>
      <trkpt lat="47.07593" lon="5.38598">
        <ele>138.19999694824</ele>
        <time>2017-07-23T12:38:36Z</time>
      </trkpt>
      <trkpt lat="47.07587" lon="5.38547">
        <ele>137.60000610352</ele>
        <time>2017-07-23T12:38:42Z</time>
      </trkpt>
      <trkpt lat="47.07584" lon="5.3853">
        <ele>137.60000610352</ele>
        <time>2017-07-23T12:38:44Z</time>
      </trkpt>
      <trkpt lat="47.07574" lon="5.38453">
        <ele>137.80000305176</ele>
        <time>2017-07-23T12:38:53Z</time>
      </trkpt>
      <trkpt lat="47.07565" lon="5.38378">
        <ele>138</ele>
        <time>2017-07-23T12:39:02Z</time>
      </trkpt>
      <trkpt lat="47.07558" lon="5.38327">
        <ele>137.80000305176</ele>
        <time>2017-07-23T12:39:08Z</time>
      </trkpt>
      <trkpt lat="47.0755" lon="5.38267">
        <ele>137.60000610352</ele>
        <time>2017-07-23T12:39:15Z</time>
      </trkpt>
      <trkpt lat="47.07543" lon="5.38209">
        <ele>137.60000610352</ele>
        <time>2017-07-23T12:39:22Z</time>
      </trkpt>
      <trkpt lat="47.07534" lon="5.38144">
        <ele>137.60000610352</ele>
        <time>2017-07-23T12:39:30Z</time>
      </trkpt>
      <trkpt lat="47.07526" lon="5.38079">
        <ele>137.60000610352</ele>
        <time>2017-07-23T12:39:38Z</time>
      </trkpt>
      <trkpt lat="47.07518" lon="5.38007">
        <ele>137.60000610352</ele>
        <time>2017-07-23T12:39:47Z</time>
      </trkpt>
      <trkpt lat="47.07517" lon="5.37999">
        <ele>137.60000610352</ele>
        <time>2017-07-23T12:39:48Z</time>
      </trkpt>
      <trkpt lat="47.07516" lon="5.37968">
        <ele>137.80000305176</ele>
        <time>2017-07-23T12:39:52Z</time>
      </trkpt>
      <trkpt lat="47.07512" lon="5.37913">
        <ele>138.19999694824</ele>
        <time>2017-07-23T12:39:59Z</time>
      </trkpt>
      <trkpt lat="47.07508" lon="5.37861">
        <ele>137.80000305176</ele>
        <time>2017-07-23T12:40:05Z</time>
      </trkpt>
      <trkpt lat="47.07507" lon="5.37834">
        <ele>137.60000610352</ele>
        <time>2017-07-23T12:40:08Z</time>
      </trkpt>
      <trkpt lat="47.07504" lon="5.37808">
        <ele>137.60000610352</ele>
        <time>2017-07-23T12:40:11Z</time>
      </trkpt>
      <trkpt lat="47.07495" lon="5.37729">
        <ele>138.19999694824</ele>
        <time>2017-07-23T12:40:20Z</time>
      </trkpt>
      <trkpt lat="47.07484" lon="5.37649">
        <ele>137.80000305176</ele>
        <time>2017-07-23T12:40:29Z</time>
      </trkpt>
      <trkpt lat="47.07476" lon="5.37565">
        <ele>137.80000305176</ele>
        <time>2017-07-23T12:40:38Z</time>
      </trkpt>
      <trkpt lat="47.07468" lon="5.37494">
        <ele>137.80000305176</ele>
        <time>2017-07-23T12:40:46Z</time>
      </trkpt>
      <trkpt lat="47.07458" lon="5.37415">
        <ele>138.19999694824</ele>
        <time>2017-07-23T12:40:55Z</time>
      </trkpt>
      <trkpt lat="47.0744" lon="5.37353">
        <ele>137.80000305176</ele>
        <time>2017-07-23T12:41:02Z</time>
      </trkpt>
      <trkpt lat="47.07421" lon="5.37294">
        <ele>138</ele>
        <time>2017-07-23T12:41:09Z</time>
      </trkpt>
      <trkpt lat="47.074" lon="5.37248">
        <ele>138</ele>
        <time>2017-07-23T12:41:15Z</time>
      </trkpt>
      <trkpt lat="47.07395" lon="5.37241">
        <ele>138</ele>
        <time>2017-07-23T12:41:16Z</time>
      </trkpt>
      <trkpt lat="47.07378" lon="5.37213">
        <ele>138.19999694824</ele>
        <time>2017-07-23T12:41:20Z</time>
      </trkpt>
      <trkpt lat="47.07348" lon="5.37163">
        <ele>138</ele>
        <time>2017-07-23T12:41:27Z</time>
      </trkpt>
      <trkpt lat="47.07302" lon="5.37111">
        <ele>137.60000610352</ele>
        <time>2017-07-23T12:41:36Z</time>
      </trkpt>
      <trkpt lat="47.07264" lon="5.37088">
        <ele>137.60000610352</ele>
        <time>2017-07-23T12:41:43Z</time>
      </trkpt>
      <trkpt lat="47.07237" lon="5.37075">
        <ele>137.39999389648</ele>
        <time>2017-07-23T12:41:48Z</time>
      </trkpt>
      <trkpt lat="47.07233" lon="5.37071">
        <ele>137.39999389648</ele>
        <time>2017-07-23T12:41:49Z</time>
      </trkpt>
      <trkpt lat="47.07225" lon="5.3705">
        <ele>137.60000610352</ele>
        <time>2017-07-23T12:41:52Z</time>
      </trkpt>
      <trkpt lat="47.07222" lon="5.37043">
        <ele>137.60000610352</ele>
        <time>2017-07-23T12:41:53Z</time>
      </trkpt>
      <trkpt lat="47.07214" lon="5.37033">
        <ele>137.60000610352</ele>
        <time>2017-07-23T12:41:55Z</time>
      </trkpt>
      <trkpt lat="47.07194" lon="5.37023">
        <ele>137.80000305176</ele>
        <time>2017-07-23T12:41:59Z</time>
      </trkpt>
      <trkpt lat="47.07184" lon="5.37008">
        <ele>137.60000610352</ele>
        <time>2017-07-23T12:42:02Z</time>
      </trkpt>
      <trkpt lat="47.07182" lon="5.37001">
        <ele>137.60000610352</ele>
        <time>2017-07-23T12:42:03Z</time>
      </trkpt>
      <trkpt lat="47.07179" lon="5.36996">
        <ele>137.60000610352</ele>
        <time>2017-07-23T12:42:04Z</time>
      </trkpt>
      <trkpt lat="47.07171" lon="5.3699">
        <ele>137.39999389648</ele>
        <time>2017-07-23T12:42:06Z</time>
      </trkpt>
      <trkpt lat="47.07162" lon="5.36987">
        <ele>137.60000610352</ele>
        <time>2017-07-23T12:42:08Z</time>
      </trkpt>
      <trkpt lat="47.07146" lon="5.36978">
        <ele>137.60000610352</ele>
        <time>2017-07-23T12:42:12Z</time>
      </trkpt>
      <trkpt lat="47.07141" lon="5.36972">
        <ele>138.19999694824</ele>
        <time>2017-07-23T12:42:23Z</time>
      </trkpt>
      <trkpt lat="47.07144" lon="5.36964">
        <ele>138.19999694824</ele>
        <time>2017-07-23T12:42:26Z</time>
      </trkpt>
      <trkpt lat="47.07152" lon="5.36939">
        <ele>137.60000610352</ele>
        <time>2017-07-23T12:42:32Z</time>
      </trkpt>
      <trkpt lat="47.07164" lon="5.36904">
        <ele>137.39999389648</ele>
        <time>2017-07-23T12:42:38Z</time>
      </trkpt>
      <trkpt lat="47.07181" lon="5.36851">
        <ele>137</ele>
        <time>2017-07-23T12:42:46Z</time>
      </trkpt>
      <trkpt lat="47.07196" lon="5.36811">
        <ele>137.39999389648</ele>
        <time>2017-07-23T12:42:52Z</time>
      </trkpt>
      <trkpt lat="47.07211" lon="5.36765">
        <ele>137.80000305176</ele>
        <time>2017-07-23T12:42:59Z</time>
      </trkpt>
      <trkpt lat="47.0722" lon="5.36739">
        <ele>137.80000305176</ele>
        <time>2017-07-23T12:43:03Z</time>
      </trkpt>
      <trkpt lat="47.07226" lon="5.36721">
        <ele>137.80000305176</ele>
        <time>2017-07-23T12:43:06Z</time>
      </trkpt>
      <trkpt lat="47.07247" lon="5.36663">
        <ele>137.60000610352</ele>
        <time>2017-07-23T12:43:15Z</time>
      </trkpt>
      <trkpt lat="47.07267" lon="5.36597">
        <ele>137.39999389648</ele>
        <time>2017-07-23T12:43:25Z</time>
      </trkpt>
      <trkpt lat="47.07285" lon="5.36545">
        <ele>137.60000610352</ele>
        <time>2017-07-23T12:43:33Z</time>
      </trkpt>
      <trkpt lat="47.07305" lon="5.36487">
        <ele>136.80000305176</ele>
        <time>2017-07-23T12:43:41Z</time>
      </trkpt>
      <trkpt lat="47.07329" lon="5.36433">
        <ele>136.80000305176</ele>
        <time>2017-07-23T12:43:49Z</time>
      </trkpt>
      <trkpt lat="47.07337" lon="5.36422">
        <ele>136.39999389648</ele>
        <time>2017-07-23T12:43:51Z</time>
      </trkpt>
      <trkpt lat="47.07352" lon="5.36408">
        <ele>136.19999694824</ele>
        <time>2017-07-23T12:43:54Z</time>
      </trkpt>
      <trkpt lat="47.07378" lon="5.3639">
        <ele>136</ele>
        <time>2017-07-23T12:43:59Z</time>
      </trkpt>
      <trkpt lat="47.07389" lon="5.36384">
        <ele>136</ele>
        <time>2017-07-23T12:44:01Z</time>
      </trkpt>
      <trkpt lat="47.0742" lon="5.36366">
        <ele>136.19999694824</ele>
        <time>2017-07-23T12:44:07Z</time>
      </trkpt>
      <trkpt lat="47.07442" lon="5.36352">
        <ele>135.39999389648</ele>
        <time>2017-07-23T12:44:11Z</time>
      </trkpt>
      <trkpt lat="47.07474" lon="5.36332">
        <ele>135.39999389648</ele>
        <time>2017-07-23T12:44:17Z</time>
      </trkpt>
      <trkpt lat="47.07507" lon="5.36312">
        <ele>135.39999389648</ele>
        <time>2017-07-23T12:44:24Z</time>
      </trkpt>
      <trkpt lat="47.07537" lon="5.36295">
        <ele>135.39999389648</ele>
        <time>2017-07-23T12:44:32Z</time>
      </trkpt>
      <trkpt lat="47.07562" lon="5.36279">
        <ele>135.19999694824</ele>
        <time>2017-07-23T12:44:37Z</time>
      </trkpt>
      <trkpt lat="47.07606" lon="5.36253">
        <ele>135.39999389648</ele>
        <time>2017-07-23T12:44:44Z</time>
      </trkpt>
      <trkpt lat="47.07651" lon="5.36226">
        <ele>136</ele>
        <time>2017-07-23T12:44:51Z</time>
      </trkpt>
      <trkpt lat="47.07657" lon="5.36221">
        <ele>136</ele>
        <time>2017-07-23T12:44:52Z</time>
      </trkpt>
      <trkpt lat="47.07693" lon="5.36198">
        <ele>136.19999694824</ele>
        <time>2017-07-23T12:44:58Z</time>
      </trkpt>
      <trkpt lat="47.07742" lon="5.36169">
        <ele>135.60000610352</ele>
        <time>2017-07-23T12:45:06Z</time>
      </trkpt>
      <trkpt lat="47.07789" lon="5.36142">
        <ele>135.19999694824</ele>
        <time>2017-07-23T12:45:14Z</time>
      </trkpt>
      <trkpt lat="47.07835" lon="5.36114">
        <ele>134.80000305176</ele>
        <time>2017-07-23T12:45:22Z</time>
      </trkpt>
      <trkpt lat="47.0789" lon="5.36081">
        <ele>135.39999389648</ele>
        <time>2017-07-23T12:45:31Z</time>
      </trkpt>
      <trkpt lat="47.07941" lon="5.36049">
        <ele>135.80000305176</ele>
        <time>2017-07-23T12:45:39Z</time>
      </trkpt>
      <trkpt lat="47.07992" lon="5.36016">
        <ele>135.80000305176</ele>
        <time>2017-07-23T12:45:47Z</time>
      </trkpt>
      <trkpt lat="47.07999" lon="5.36012">
        <ele>135.80000305176</ele>
        <time>2017-07-23T12:45:48Z</time>
      </trkpt>
      <trkpt lat="47.08053" lon="5.35979">
        <ele>135.80000305176</ele>
        <time>2017-07-23T12:45:57Z</time>
      </trkpt>
      <trkpt lat="47.08108" lon="5.35947">
        <ele>135.80000305176</ele>
        <time>2017-07-23T12:46:06Z</time>
      </trkpt>
      <trkpt lat="47.08163" lon="5.35911">
        <ele>136.39999389648</ele>
        <time>2017-07-23T12:46:15Z</time>
      </trkpt>
      <trkpt lat="47.08169" lon="5.35907">
        <ele>136.39999389648</ele>
        <time>2017-07-23T12:46:16Z</time>
      </trkpt>
      <trkpt lat="47.08175" lon="5.35903">
        <ele>136.39999389648</ele>
        <time>2017-07-23T12:46:17Z</time>
      </trkpt>
      <trkpt lat="47.08218" lon="5.35877">
        <ele>136.80000305176</ele>
        <time>2017-07-23T12:46:24Z</time>
      </trkpt>
      <trkpt lat="47.08262" lon="5.3585">
        <ele>137.19999694824</ele>
        <time>2017-07-23T12:46:31Z</time>
      </trkpt>
      <trkpt lat="47.08313" lon="5.3582">
        <ele>137.19999694824</ele>
        <time>2017-07-23T12:46:39Z</time>
      </trkpt>
      <trkpt lat="47.0832" lon="5.35815">
        <ele>137</ele>
        <time>2017-07-23T12:46:40Z</time>
      </trkpt>
      <trkpt lat="47.08326" lon="5.3581">
        <ele>137</ele>
        <time>2017-07-23T12:46:41Z</time>
      </trkpt>
      <trkpt lat="47.08347" lon="5.35787">
        <ele>137</ele>
        <time>2017-07-23T12:46:45Z</time>
      </trkpt>
      <trkpt lat="47.08357" lon="5.35772">
        <ele>137</ele>
        <time>2017-07-23T12:46:47Z</time>
      </trkpt>
      <trkpt lat="47.08368" lon="5.35747">
        <ele>137</ele>
        <time>2017-07-23T12:46:50Z</time>
      </trkpt>
      <trkpt lat="47.08371" lon="5.35738">
        <ele>136.80000305176</ele>
        <time>2017-07-23T12:46:51Z</time>
      </trkpt>
      <trkpt lat="47.08381" lon="5.35694">
        <ele>136.80000305176</ele>
        <time>2017-07-23T12:46:56Z</time>
      </trkpt>
      <trkpt lat="47.0839" lon="5.35645">
        <ele>136.80000305176</ele>
        <time>2017-07-23T12:47:02Z</time>
      </trkpt>
      <trkpt lat="47.08393" lon="5.35625">
        <ele>137.19999694824</ele>
        <time>2017-07-23T12:47:06Z</time>
      </trkpt>
      <trkpt lat="47.08395" lon="5.3562">
        <ele>137.80000305176</ele>
        <time>2017-07-23T12:47:08Z</time>
      </trkpt>
      <trkpt lat="47.08394" lon="5.35618">
        <ele>138.19999694824</ele>
        <time>2017-07-23T12:47:09Z</time>
      </trkpt>
      <trkpt lat="47.08395" lon="5.35613">
        <ele>139</ele>
        <time>2017-07-23T12:47:11Z</time>
      </trkpt>
      <trkpt lat="47.08398" lon="5.35595">
        <ele>139.39999389648</ele>
        <time>2017-07-23T12:47:15Z</time>
      </trkpt>
      <trkpt lat="47.08404" lon="5.35555">
        <ele>138</ele>
        <time>2017-07-23T12:47:20Z</time>
      </trkpt>
      <trkpt lat="47.0841" lon="5.35521">
        <ele>136.80000305176</ele>
        <time>2017-07-23T12:47:24Z</time>
      </trkpt>
      <trkpt lat="47.08413" lon="5.35506">
        <ele>136.39999389648</ele>
        <time>2017-07-23T12:47:26Z</time>
      </trkpt>
      <trkpt lat="47.08423" lon="5.35448">
        <ele>136</ele>
        <time>2017-07-23T12:47:34Z</time>
      </trkpt>
      <trkpt lat="47.08432" lon="5.35395">
        <ele>136.39999389648</ele>
        <time>2017-07-23T12:47:41Z</time>
      </trkpt>
      <trkpt lat="47.08438" lon="5.35359">
        <ele>136.39999389648</ele>
        <time>2017-07-23T12:47:47Z</time>
      </trkpt>
      <trkpt lat="47.08445" lon="5.35319">
        <ele>136.39999389648</ele>
        <time>2017-07-23T12:47:53Z</time>
      </trkpt>
      <trkpt lat="47.08455" lon="5.35266">
        <ele>136.39999389648</ele>
        <time>2017-07-23T12:48:00Z</time>
      </trkpt>
      <trkpt lat="47.08465" lon="5.35209">
        <ele>136</ele>
        <time>2017-07-23T12:48:07Z</time>
      </trkpt>
      <trkpt lat="47.08475" lon="5.35143">
        <ele>136.60000610352</ele>
        <time>2017-07-23T12:48:15Z</time>
      </trkpt>
      <trkpt lat="47.08487" lon="5.35077">
        <ele>136.39999389648</ele>
        <time>2017-07-23T12:48:23Z</time>
      </trkpt>
      <trkpt lat="47.08497" lon="5.3501">
        <ele>136.60000610352</ele>
        <time>2017-07-23T12:48:31Z</time>
      </trkpt>
      <trkpt lat="47.0851" lon="5.34934">
        <ele>136.60000610352</ele>
        <time>2017-07-23T12:48:40Z</time>
      </trkpt>
      <trkpt lat="47.0852" lon="5.34877">
        <ele>136.80000305176</ele>
        <time>2017-07-23T12:48:47Z</time>
      </trkpt>
      <trkpt lat="47.08535" lon="5.348">
        <ele>136.19999694824</ele>
        <time>2017-07-23T12:48:56Z</time>
      </trkpt>
      <trkpt lat="47.08536" lon="5.34791">
        <ele>136.19999694824</ele>
        <time>2017-07-23T12:48:57Z</time>
      </trkpt>
      <trkpt lat="47.08538" lon="5.34783">
        <ele>136.19999694824</ele>
        <time>2017-07-23T12:48:58Z</time>
      </trkpt>
      <trkpt lat="47.08544" lon="5.3475">
        <ele>136.19999694824</ele>
        <time>2017-07-23T12:49:02Z</time>
      </trkpt>
      <trkpt lat="47.08558" lon="5.34673">
        <ele>136.80000305176</ele>
        <time>2017-07-23T12:49:11Z</time>
      </trkpt>
      <trkpt lat="47.08571" lon="5.34593">
        <ele>136.39999389648</ele>
        <time>2017-07-23T12:49:20Z</time>
      </trkpt>
      <trkpt lat="47.08585" lon="5.34513">
        <ele>136.60000610352</ele>
        <time>2017-07-23T12:49:29Z</time>
      </trkpt>
      <trkpt lat="47.08586" lon="5.34504">
        <ele>136.80000305176</ele>
        <time>2017-07-23T12:49:30Z</time>
      </trkpt>
      <trkpt lat="47.086" lon="5.3442">
        <ele>136.80000305176</ele>
        <time>2017-07-23T12:49:41Z</time>
      </trkpt>
      <trkpt lat="47.08602" lon="5.34412">
        <ele>136.60000610352</ele>
        <time>2017-07-23T12:49:42Z</time>
      </trkpt>
      <trkpt lat="47.08615" lon="5.34334">
        <ele>136.60000610352</ele>
        <time>2017-07-23T12:49:52Z</time>
      </trkpt>
      <trkpt lat="47.08617" lon="5.34319">
        <ele>136.60000610352</ele>
        <time>2017-07-23T12:49:54Z</time>
      </trkpt>
      <trkpt lat="47.08618" lon="5.343">
        <ele>136.60000610352</ele>
        <time>2017-07-23T12:49:57Z</time>
      </trkpt>
      <trkpt lat="47.08625" lon="5.34258">
        <ele>136.80000305176</ele>
        <time>2017-07-23T12:50:04Z</time>
      </trkpt>
      <trkpt lat="47.0863" lon="5.34239">
        <ele>136.60000610352</ele>
        <time>2017-07-23T12:50:09Z</time>
      </trkpt>
      <trkpt lat="47.08637" lon="5.34211">
        <ele>136.60000610352</ele>
        <time>2017-07-23T12:50:15Z</time>
      </trkpt>
      <trkpt lat="47.08643" lon="5.34184">
        <ele>136.60000610352</ele>
        <time>2017-07-23T12:50:19Z</time>
      </trkpt>
      <trkpt lat="47.08645" lon="5.34176">
        <ele>136.60000610352</ele>
        <time>2017-07-23T12:50:20Z</time>
      </trkpt>
      <trkpt lat="47.08656" lon="5.34108">
        <ele>136.60000610352</ele>
        <time>2017-07-23T12:50:28Z</time>
      </trkpt>
      <trkpt lat="47.08669" lon="5.34028">
        <ele>136.60000610352</ele>
        <time>2017-07-23T12:50:37Z</time>
      </trkpt>
      <trkpt lat="47.0867" lon="5.3402">
        <ele>136.60000610352</ele>
        <time>2017-07-23T12:50:38Z</time>
      </trkpt>
      <trkpt lat="47.08682" lon="5.33949">
        <ele>136.80000305176</ele>
        <time>2017-07-23T12:50:46Z</time>
      </trkpt>
      <trkpt lat="47.08696" lon="5.3387">
        <ele>137</ele>
        <time>2017-07-23T12:50:55Z</time>
      </trkpt>
      <trkpt lat="47.08698" lon="5.33861">
        <ele>137</ele>
        <time>2017-07-23T12:50:56Z</time>
      </trkpt>
      <trkpt lat="47.08709" lon="5.33801">
        <ele>137.19999694824</ele>
        <time>2017-07-23T12:51:03Z</time>
      </trkpt>
      <trkpt lat="47.08728" lon="5.33739">
        <ele>137</ele>
        <time>2017-07-23T12:51:11Z</time>
      </trkpt>
      <trkpt lat="47.08752" lon="5.33691">
        <ele>136.80000305176</ele>
        <time>2017-07-23T12:51:18Z</time>
      </trkpt>
      <trkpt lat="47.08776" lon="5.33641">
        <ele>136.80000305176</ele>
        <time>2017-07-23T12:51:26Z</time>
      </trkpt>
      <trkpt lat="47.08784" lon="5.33623">
        <ele>137</ele>
        <time>2017-07-23T12:51:29Z</time>
      </trkpt>
      <trkpt lat="47.08789" lon="5.3361">
        <ele>137.19999694824</ele>
        <time>2017-07-23T12:51:31Z</time>
      </trkpt>
      <trkpt lat="47.08812" lon="5.33546">
        <ele>136.60000610352</ele>
        <time>2017-07-23T12:51:40Z</time>
      </trkpt>
      <trkpt lat="47.0882" lon="5.33489">
        <ele>136.60000610352</ele>
        <time>2017-07-23T12:51:47Z</time>
      </trkpt>
      <trkpt lat="47.08823" lon="5.33422">
        <ele>136.80000305176</ele>
        <time>2017-07-23T12:51:55Z</time>
      </trkpt>
      <trkpt lat="47.08824" lon="5.33348">
        <ele>137</ele>
        <time>2017-07-23T12:52:04Z</time>
      </trkpt>
      <trkpt lat="47.08823" lon="5.33293">
        <ele>137</ele>
        <time>2017-07-23T12:52:11Z</time>
      </trkpt>
      <trkpt lat="47.08823" lon="5.33219">
        <ele>137</ele>
        <time>2017-07-23T12:52:20Z</time>
      </trkpt>
      <trkpt lat="47.08826" lon="5.33151">
        <ele>137</ele>
        <time>2017-07-23T12:52:28Z</time>
      </trkpt>
      <trkpt lat="47.08831" lon="5.33075">
        <ele>136.80000305176</ele>
        <time>2017-07-23T12:52:37Z</time>
      </trkpt>
      <trkpt lat="47.08833" lon="5.33027">
        <ele>136.80000305176</ele>
        <time>2017-07-23T12:52:43Z</time>
      </trkpt>
      <trkpt lat="47.0884" lon="5.32957">
        <ele>137</ele>
        <time>2017-07-23T12:52:51Z</time>
      </trkpt>
      <trkpt lat="47.08845" lon="5.32932">
        <ele>137</ele>
        <time>2017-07-23T12:52:54Z</time>
      </trkpt>
      <trkpt lat="47.08853" lon="5.32906">
        <ele>137</ele>
        <time>2017-07-23T12:52:57Z</time>
      </trkpt>
      <trkpt lat="47.08872" lon="5.32866">
        <ele>137.39999389648</ele>
        <time>2017-07-23T12:53:02Z</time>
      </trkpt>
      <trkpt lat="47.08896" lon="5.32837">
        <ele>137.39999389648</ele>
        <time>2017-07-23T12:53:07Z</time>
      </trkpt>
      <trkpt lat="47.08935" lon="5.32811">
        <ele>137.60000610352</ele>
        <time>2017-07-23T12:53:14Z</time>
      </trkpt>
      <trkpt lat="47.08979" lon="5.32785">
        <ele>137.19999694824</ele>
        <time>2017-07-23T12:53:22Z</time>
      </trkpt>
      <trkpt lat="47.09028" lon="5.32753">
        <ele>137</ele>
        <time>2017-07-23T12:53:31Z</time>
      </trkpt>
      <trkpt lat="47.09083" lon="5.32719">
        <ele>136.80000305176</ele>
        <time>2017-07-23T12:53:41Z</time>
      </trkpt>
      <trkpt lat="47.09127" lon="5.32679">
        <ele>137</ele>
        <time>2017-07-23T12:53:50Z</time>
      </trkpt>
      <trkpt lat="47.09154" lon="5.32637">
        <ele>137</ele>
        <time>2017-07-23T12:53:57Z</time>
      </trkpt>
      <trkpt lat="47.09185" lon="5.32601">
        <ele>137</ele>
        <time>2017-07-23T12:54:04Z</time>
      </trkpt>
      <trkpt lat="47.09225" lon="5.32565">
        <ele>137.19999694824</ele>
        <time>2017-07-23T12:54:12Z</time>
      </trkpt>
      <trkpt lat="47.09244" lon="5.3255">
        <ele>137.19999694824</ele>
        <time>2017-07-23T12:54:16Z</time>
      </trkpt>
      <trkpt lat="47.09282" lon="5.32526">
        <ele>137.39999389648</ele>
        <time>2017-07-23T12:54:23Z</time>
      </trkpt>
      <trkpt lat="47.09323" lon="5.32511">
        <ele>137.19999694824</ele>
        <time>2017-07-23T12:54:30Z</time>
      </trkpt>
      <trkpt lat="47.09367" lon="5.32513">
        <ele>137.19999694824</ele>
        <time>2017-07-23T12:54:37Z</time>
      </trkpt>
      <trkpt lat="47.09421" lon="5.32515">
        <ele>137.39999389648</ele>
        <time>2017-07-23T12:54:46Z</time>
      </trkpt>
      <trkpt lat="47.09475" lon="5.3252">
        <ele>137.60000610352</ele>
        <time>2017-07-23T12:54:55Z</time>
      </trkpt>
      <trkpt lat="47.09493" lon="5.32522">
        <ele>137.80000305176</ele>
        <time>2017-07-23T12:54:58Z</time>
      </trkpt>
      <trkpt lat="47.09524" lon="5.32527">
        <ele>138</ele>
        <time>2017-07-23T12:55:03Z</time>
      </trkpt>
      <trkpt lat="47.09573" lon="5.32532">
        <ele>137.80000305176</ele>
        <time>2017-07-23T12:55:11Z</time>
      </trkpt>
      <trkpt lat="47.09628" lon="5.32545">
        <ele>138</ele>
        <time>2017-07-23T12:55:19Z</time>
      </trkpt>
      <trkpt lat="47.09635" lon="5.32545">
        <ele>138</ele>
        <time>2017-07-23T12:55:20Z</time>
      </trkpt>
      <trkpt lat="47.09655" lon="5.32537">
        <ele>138</ele>
        <time>2017-07-23T12:55:23Z</time>
      </trkpt>
      <trkpt lat="47.09676" lon="5.32512">
        <ele>137.80000305176</ele>
        <time>2017-07-23T12:55:27Z</time>
      </trkpt>
      <trkpt lat="47.09685" lon="5.32477">
        <ele>138</ele>
        <time>2017-07-23T12:55:31Z</time>
      </trkpt>
      <trkpt lat="47.09683" lon="5.32439">
        <ele>138</ele>
        <time>2017-07-23T12:55:35Z</time>
      </trkpt>
      <trkpt lat="47.09675" lon="5.3238">
        <ele>138.19999694824</ele>
        <time>2017-07-23T12:55:42Z</time>
      </trkpt>
      <trkpt lat="47.09675" lon="5.32363">
        <ele>138.19999694824</ele>
        <time>2017-07-23T12:55:44Z</time>
      </trkpt>
      <trkpt lat="47.0968" lon="5.32339">
        <ele>138.39999389648</ele>
        <time>2017-07-23T12:55:47Z</time>
      </trkpt>
      <trkpt lat="47.09684" lon="5.32323">
        <ele>138.39999389648</ele>
        <time>2017-07-23T12:55:49Z</time>
      </trkpt>
      <trkpt lat="47.09697" lon="5.32288">
        <ele>138.39999389648</ele>
        <time>2017-07-23T12:55:54Z</time>
      </trkpt>
      <trkpt lat="47.09718" lon="5.32219">
        <ele>138</ele>
        <time>2017-07-23T12:56:03Z</time>
      </trkpt>
      <trkpt lat="47.09742" lon="5.32161">
        <ele>138.19999694824</ele>
        <time>2017-07-23T12:56:11Z</time>
      </trkpt>
      <trkpt lat="47.09778" lon="5.32098">
        <ele>138.19999694824</ele>
        <time>2017-07-23T12:56:21Z</time>
      </trkpt>
      <trkpt lat="47.09807" lon="5.32051">
        <ele>138.39999389648</ele>
        <time>2017-07-23T12:56:29Z</time>
      </trkpt>
      <trkpt lat="47.09825" lon="5.32031">
        <ele>138.80000305176</ele>
        <time>2017-07-23T12:56:33Z</time>
      </trkpt>
      <trkpt lat="47.09835" lon="5.32021">
        <ele>138.80000305176</ele>
        <time>2017-07-23T12:56:35Z</time>
      </trkpt>
      <trkpt lat="47.09864" lon="5.32008">
        <ele>139</ele>
        <time>2017-07-23T12:56:40Z</time>
      </trkpt>
      <trkpt lat="47.09906" lon="5.32003">
        <ele>139.39999389648</ele>
        <time>2017-07-23T12:56:47Z</time>
      </trkpt>
      <trkpt lat="47.09955" lon="5.3199">
        <ele>138.60000610352</ele>
        <time>2017-07-23T12:56:55Z</time>
      </trkpt>
      <trkpt lat="47.09975" lon="5.31968">
        <ele>138.39999389648</ele>
        <time>2017-07-23T12:56:59Z</time>
      </trkpt>
      <trkpt lat="47.09988" lon="5.31934">
        <ele>138.19999694824</ele>
        <time>2017-07-23T12:57:03Z</time>
      </trkpt>
      <trkpt lat="47.09991" lon="5.31926">
        <ele>138.19999694824</ele>
        <time>2017-07-23T12:57:04Z</time>
      </trkpt>
      <trkpt lat="47.10002" lon="5.31899">
        <ele>138.19999694824</ele>
        <time>2017-07-23T12:57:08Z</time>
      </trkpt>
      <trkpt lat="47.10008" lon="5.31888">
        <ele>137.80000305176</ele>
        <time>2017-07-23T12:57:10Z</time>
      </trkpt>
      <trkpt lat="47.10011" lon="5.31883">
        <ele>137.60000610352</ele>
        <time>2017-07-23T12:57:11Z</time>
      </trkpt>
      <trkpt lat="47.10017" lon="5.31873">
        <ele>137.19999694824</ele>
        <time>2017-07-23T12:57:13Z</time>
      </trkpt>
      <trkpt lat="47.10031" lon="5.31852">
        <ele>137</ele>
        <time>2017-07-23T12:57:18Z</time>
      </trkpt>
      <trkpt lat="47.10048" lon="5.31825">
        <ele>137</ele>
        <time>2017-07-23T12:57:22Z</time>
      </trkpt>
      <trkpt lat="47.10058" lon="5.3181">
        <ele>136.60000610352</ele>
        <time>2017-07-23T12:57:24Z</time>
      </trkpt>
      <trkpt lat="47.10079" lon="5.31775">
        <ele>136</ele>
        <time>2017-07-23T12:57:29Z</time>
      </trkpt>
      <trkpt lat="47.10082" lon="5.31768">
        <ele>136</ele>
        <time>2017-07-23T12:57:30Z</time>
      </trkpt>
      <trkpt lat="47.10091" lon="5.31747">
        <ele>136</ele>
        <time>2017-07-23T12:57:33Z</time>
      </trkpt>
      <trkpt lat="47.10109" lon="5.31719">
        <ele>135.80000305176</ele>
        <time>2017-07-23T12:57:38Z</time>
      </trkpt>
      <trkpt lat="47.10128" lon="5.31691">
        <ele>135.60000610352</ele>
        <time>2017-07-23T12:57:43Z</time>
      </trkpt>
      <trkpt lat="47.10133" lon="5.31685">
        <ele>135.39999389648</ele>
        <time>2017-07-23T12:57:44Z</time>
      </trkpt>
      <trkpt lat="47.10138" lon="5.31681">
        <ele>135.19999694824</ele>
        <time>2017-07-23T12:57:45Z</time>
      </trkpt>
      <trkpt lat="47.10153" lon="5.31671">
        <ele>135.60000610352</ele>
        <time>2017-07-23T12:57:48Z</time>
      </trkpt>
      <trkpt lat="47.10186" lon="5.3166">
        <ele>135.39999389648</ele>
        <time>2017-07-23T12:57:54Z</time>
      </trkpt>
      <trkpt lat="47.10191" lon="5.3166">
        <ele>135.19999694824</ele>
        <time>2017-07-23T12:57:55Z</time>
      </trkpt>
      <trkpt lat="47.10232" lon="5.31666">
        <ele>135</ele>
        <time>2017-07-23T12:58:02Z</time>
      </trkpt>
      <trkpt lat="47.10277" lon="5.31665">
        <ele>134.80000305176</ele>
        <time>2017-07-23T12:58:09Z</time>
      </trkpt>
      <trkpt lat="47.10321" lon="5.31656">
        <ele>134.80000305176</ele>
        <time>2017-07-23T12:58:16Z</time>
      </trkpt>
      <trkpt lat="47.10371" lon="5.31642">
        <ele>134.60000610352</ele>
        <time>2017-07-23T12:58:24Z</time>
      </trkpt>
      <trkpt lat="47.10418" lon="5.31629">
        <ele>134.60000610352</ele>
        <time>2017-07-23T12:58:32Z</time>
      </trkpt>
      <trkpt lat="47.10459" lon="5.31617">
        <ele>135</ele>
        <time>2017-07-23T12:58:39Z</time>
      </trkpt>
      <trkpt lat="47.105" lon="5.31598">
        <ele>135</ele>
        <time>2017-07-23T12:58:47Z</time>
      </trkpt>
      <trkpt lat="47.10505" lon="5.31596">
        <ele>135</ele>
        <time>2017-07-23T12:58:48Z</time>
      </trkpt>
      <trkpt lat="47.10529" lon="5.31594">
        <ele>134.80000305176</ele>
        <time>2017-07-23T12:58:52Z</time>
      </trkpt>
      <trkpt lat="47.10557" lon="5.31587">
        <ele>134.39999389648</ele>
        <time>2017-07-23T12:58:56Z</time>
      </trkpt>
      <trkpt lat="47.10564" lon="5.31585">
        <ele>134</ele>
        <time>2017-07-23T12:58:57Z</time>
      </trkpt>
      <trkpt lat="47.1062" lon="5.31568">
        <ele>133.60000610352</ele>
        <time>2017-07-23T12:59:05Z</time>
      </trkpt>
      <trkpt lat="47.10646" lon="5.31554">
        <ele>133.39999389648</ele>
        <time>2017-07-23T12:59:09Z</time>
      </trkpt>
      <trkpt lat="47.1067" lon="5.31537">
        <ele>133.19999694824</ele>
        <time>2017-07-23T12:59:13Z</time>
      </trkpt>
      <trkpt lat="47.10712" lon="5.31499">
        <ele>133.60000610352</ele>
        <time>2017-07-23T12:59:21Z</time>
      </trkpt>
      <trkpt lat="47.10717" lon="5.31494">
        <ele>133.60000610352</ele>
        <time>2017-07-23T12:59:22Z</time>
      </trkpt>
      <trkpt lat="47.1073" lon="5.31475">
        <ele>133.39999389648</ele>
        <time>2017-07-23T12:59:25Z</time>
      </trkpt>
      <trkpt lat="47.10741" lon="5.31456">
        <ele>133.39999389648</ele>
        <time>2017-07-23T12:59:28Z</time>
      </trkpt>
      <trkpt lat="47.10756" lon="5.31422">
        <ele>133.19999694824</ele>
        <time>2017-07-23T12:59:33Z</time>
      </trkpt>
      <trkpt lat="47.10761" lon="5.31408">
        <ele>133.19999694824</ele>
        <time>2017-07-23T12:59:35Z</time>
      </trkpt>
      <trkpt lat="47.10771" lon="5.31374">
        <ele>133.39999389648</ele>
        <time>2017-07-23T12:59:40Z</time>
      </trkpt>
      <trkpt lat="47.10773" lon="5.31368">
        <ele>133.39999389648</ele>
        <time>2017-07-23T12:59:41Z</time>
      </trkpt>
      <trkpt lat="47.10784" lon="5.31349">
        <ele>133.19999694824</ele>
        <time>2017-07-23T12:59:46Z</time>
      </trkpt>
      <trkpt lat="47.10786" lon="5.31342">
        <ele>133.60000610352</ele>
        <time>2017-07-23T12:59:49Z</time>
      </trkpt>
      <trkpt lat="47.10784" lon="5.31339">
        <ele>134</ele>
        <time>2017-07-23T12:59:51Z</time>
      </trkpt>
      <trkpt lat="47.10782" lon="5.31337">
        <ele>134.39999389648</ele>
        <time>2017-07-23T12:59:53Z</time>
      </trkpt>
      <trkpt lat="47.10781" lon="5.31337">
        <ele>134.60000610352</ele>
        <time>2017-07-23T12:59:54Z</time>
      </trkpt>
      <trkpt lat="47.10778" lon="5.31334">
        <ele>134.80000305176</ele>
        <time>2017-07-23T13:00:06Z</time>
      </trkpt>
      <trkpt lat="47.1077" lon="5.31327">
        <ele>134.80000305176</ele>
        <time>2017-07-23T13:00:10Z</time>
      </trkpt>
      <trkpt lat="47.10765" lon="5.3132">
        <ele>134.80000305176</ele>
        <time>2017-07-23T13:00:12Z</time>
      </trkpt>
      <trkpt lat="47.10761" lon="5.31317">
        <ele>134.80000305176</ele>
        <time>2017-07-23T13:00:13Z</time>
      </trkpt>
      <trkpt lat="47.10754" lon="5.31309">
        <ele>134.60000610352</ele>
        <time>2017-07-23T13:00:15Z</time>
      </trkpt>
      <trkpt lat="47.10749" lon="5.31299">
        <ele>134.19999694824</ele>
        <time>2017-07-23T13:00:17Z</time>
      </trkpt>
      <trkpt lat="47.10751" lon="5.31278">
        <ele>133.80000305176</ele>
        <time>2017-07-23T13:00:20Z</time>
      </trkpt>
      <trkpt lat="47.10756" lon="5.31265">
        <ele>133.39999389648</ele>
        <time>2017-07-23T13:00:22Z</time>
      </trkpt>
      <trkpt lat="47.1076" lon="5.3125">
        <ele>133.39999389648</ele>
        <time>2017-07-23T13:00:24Z</time>
      </trkpt>
      <trkpt lat="47.10762" lon="5.31234">
        <ele>133.39999389648</ele>
        <time>2017-07-23T13:00:26Z</time>
      </trkpt>
      <trkpt lat="47.10763" lon="5.31226">
        <ele>133.39999389648</ele>
        <time>2017-07-23T13:00:27Z</time>
      </trkpt>
      <trkpt lat="47.10763" lon="5.31209">
        <ele>133.60000610352</ele>
        <time>2017-07-23T13:00:29Z</time>
      </trkpt>
      <trkpt lat="47.10762" lon="5.31191">
        <ele>133.39999389648</ele>
        <time>2017-07-23T13:00:31Z</time>
      </trkpt>
      <trkpt lat="47.10759" lon="5.31172">
        <ele>133.19999694824</ele>
        <time>2017-07-23T13:00:33Z</time>
      </trkpt>
      <trkpt lat="47.10752" lon="5.31135">
        <ele>132.39999389648</ele>
        <time>2017-07-23T13:00:37Z</time>
      </trkpt>
      <trkpt lat="47.10748" lon="5.31109">
        <ele>132.19999694824</ele>
        <time>2017-07-23T13:00:40Z</time>
      </trkpt>
      <trkpt lat="47.10735" lon="5.31049">
        <ele>131.80000305176</ele>
        <time>2017-07-23T13:00:47Z</time>
      </trkpt>
      <trkpt lat="47.10734" lon="5.3104">
        <ele>131.80000305176</ele>
        <time>2017-07-23T13:00:48Z</time>
      </trkpt>
      <trkpt lat="47.10727" lon="5.31005">
        <ele>132</ele>
        <time>2017-07-23T13:00:52Z</time>
      </trkpt>
      <trkpt lat="47.1072" lon="5.30944">
        <ele>131.80000305176</ele>
        <time>2017-07-23T13:00:59Z</time>
      </trkpt>
      <trkpt lat="47.10712" lon="5.30875">
        <ele>131.80000305176</ele>
        <time>2017-07-23T13:01:07Z</time>
      </trkpt>
      <trkpt lat="47.10701" lon="5.30818">
        <ele>132</ele>
        <time>2017-07-23T13:01:14Z</time>
      </trkpt>
      <trkpt lat="47.10692" lon="5.30768">
        <ele>132</ele>
        <time>2017-07-23T13:01:20Z</time>
      </trkpt>
      <trkpt lat="47.10689" lon="5.30752">
        <ele>132</ele>
        <time>2017-07-23T13:01:22Z</time>
      </trkpt>
      <trkpt lat="47.10678" lon="5.30686">
        <ele>131.80000305176</ele>
        <time>2017-07-23T13:01:30Z</time>
      </trkpt>
      <trkpt lat="47.10664" lon="5.30627">
        <ele>132</ele>
        <time>2017-07-23T13:01:38Z</time>
      </trkpt>
      <trkpt lat="47.1066" lon="5.30612">
        <ele>132</ele>
        <time>2017-07-23T13:01:40Z</time>
      </trkpt>
      <trkpt lat="47.10651" lon="5.30583">
        <ele>131.80000305176</ele>
        <time>2017-07-23T13:01:44Z</time>
      </trkpt>
      <trkpt lat="47.10632" lon="5.30535">
        <ele>132.39999389648</ele>
        <time>2017-07-23T13:01:51Z</time>
      </trkpt>
      <trkpt lat="47.10609" lon="5.30479">
        <ele>132.19999694824</ele>
        <time>2017-07-23T13:01:59Z</time>
      </trkpt>
      <trkpt lat="47.10584" lon="5.30424">
        <ele>132.19999694824</ele>
        <time>2017-07-23T13:02:07Z</time>
      </trkpt>
      <trkpt lat="47.10552" lon="5.3036">
        <ele>132.19999694824</ele>
        <time>2017-07-23T13:02:17Z</time>
      </trkpt>
      <trkpt lat="47.10519" lon="5.30309">
        <ele>132.39999389648</ele>
        <time>2017-07-23T13:02:26Z</time>
      </trkpt>
      <trkpt lat="47.10483" lon="5.30271">
        <ele>132.19999694824</ele>
        <time>2017-07-23T13:02:34Z</time>
      </trkpt>
      <trkpt lat="47.10473" lon="5.30263">
        <ele>132.19999694824</ele>
        <time>2017-07-23T13:02:36Z</time>
      </trkpt>
      <trkpt lat="47.10459" lon="5.30251">
        <ele>132.19999694824</ele>
        <time>2017-07-23T13:02:39Z</time>
      </trkpt>
      <trkpt lat="47.10454" lon="5.30246">
        <ele>132.19999694824</ele>
        <time>2017-07-23T13:02:40Z</time>
      </trkpt>
      <trkpt lat="47.10408" lon="5.30207">
        <ele>131.80000305176</ele>
        <time>2017-07-23T13:02:49Z</time>
      </trkpt>
      <trkpt lat="47.10373" lon="5.30172">
        <ele>131.60000610352</ele>
        <time>2017-07-23T13:02:56Z</time>
      </trkpt>
      <trkpt lat="47.10346" lon="5.30138">
        <ele>131.80000305176</ele>
        <time>2017-07-23T13:03:02Z</time>
      </trkpt>
      <trkpt lat="47.10316" lon="5.301">
        <ele>132</ele>
        <time>2017-07-23T13:03:09Z</time>
      </trkpt>
      <trkpt lat="47.1028" lon="5.30055">
        <ele>131.80000305176</ele>
        <time>2017-07-23T13:03:17Z</time>
      </trkpt>
      <trkpt lat="47.10247" lon="5.30004">
        <ele>131.80000305176</ele>
        <time>2017-07-23T13:03:25Z</time>
      </trkpt>
      <trkpt lat="47.10217" lon="5.29948">
        <ele>132</ele>
        <time>2017-07-23T13:03:33Z</time>
      </trkpt>
      <trkpt lat="47.10192" lon="5.29889">
        <ele>131.60000610352</ele>
        <time>2017-07-23T13:03:41Z</time>
      </trkpt>
      <trkpt lat="47.1017" lon="5.29827">
        <ele>131.80000305176</ele>
        <time>2017-07-23T13:03:49Z</time>
      </trkpt>
      <trkpt lat="47.10151" lon="5.29746">
        <ele>132</ele>
        <time>2017-07-23T13:03:59Z</time>
      </trkpt>
      <trkpt lat="47.10146" lon="5.29687">
        <ele>132.19999694824</ele>
        <time>2017-07-23T13:04:06Z</time>
      </trkpt>
      <trkpt lat="47.10144" lon="5.29621">
        <ele>132.60000610352</ele>
        <time>2017-07-23T13:04:14Z</time>
      </trkpt>
      <trkpt lat="47.10145" lon="5.29613">
        <ele>132.80000305176</ele>
        <time>2017-07-23T13:04:15Z</time>
      </trkpt>
      <trkpt lat="47.10146" lon="5.29581">
        <ele>132.60000610352</ele>
        <time>2017-07-23T13:04:19Z</time>
      </trkpt>
      <trkpt lat="47.10144" lon="5.29509">
        <ele>132.80000305176</ele>
        <time>2017-07-23T13:04:28Z</time>
      </trkpt>
      <trkpt lat="47.10143" lon="5.29448">
        <ele>132.80000305176</ele>
        <time>2017-07-23T13:04:36Z</time>
      </trkpt>
      <trkpt lat="47.10146" lon="5.29391">
        <ele>132.39999389648</ele>
        <time>2017-07-23T13:04:44Z</time>
      </trkpt>
      <trkpt lat="47.10146" lon="5.29384">
        <ele>132.39999389648</ele>
        <time>2017-07-23T13:04:45Z</time>
      </trkpt>
      <trkpt lat="47.1015" lon="5.29307">
        <ele>132.60000610352</ele>
        <time>2017-07-23T13:04:56Z</time>
      </trkpt>
      <trkpt lat="47.10154" lon="5.29261">
        <ele>132.39999389648</ele>
        <time>2017-07-23T13:05:03Z</time>
      </trkpt>
      <trkpt lat="47.10158" lon="5.29213">
        <ele>132.60000610352</ele>
        <time>2017-07-23T13:05:10Z</time>
      </trkpt>
      <trkpt lat="47.10163" lon="5.29155">
        <ele>132.19999694824</ele>
        <time>2017-07-23T13:05:18Z</time>
      </trkpt>
      <trkpt lat="47.10169" lon="5.29097">
        <ele>132.39999389648</ele>
        <time>2017-07-23T13:05:26Z</time>
      </trkpt>
      <trkpt lat="47.10176" lon="5.29035">
        <ele>132.60000610352</ele>
        <time>2017-07-23T13:05:34Z</time>
      </trkpt>
      <trkpt lat="47.10181" lon="5.28988">
        <ele>132.39999389648</ele>
        <time>2017-07-23T13:05:40Z</time>
      </trkpt>
      <trkpt lat="47.1019" lon="5.28919">
        <ele>132.39999389648</ele>
        <time>2017-07-23T13:05:49Z</time>
      </trkpt>
      <trkpt lat="47.10198" lon="5.28865">
        <ele>132.60000610352</ele>
        <time>2017-07-23T13:05:56Z</time>
      </trkpt>
      <trkpt lat="47.10205" lon="5.28806">
        <ele>132.60000610352</ele>
        <time>2017-07-23T13:06:04Z</time>
      </trkpt>
      <trkpt lat="47.10213" lon="5.28755">
        <ele>133</ele>
        <time>2017-07-23T13:06:11Z</time>
      </trkpt>
      <trkpt lat="47.10222" lon="5.28682">
        <ele>132.80000305176</ele>
        <time>2017-07-23T13:06:21Z</time>
      </trkpt>
      <trkpt lat="47.10222" lon="5.28675">
        <ele>132.80000305176</ele>
        <time>2017-07-23T13:06:22Z</time>
      </trkpt>
      <trkpt lat="47.10224" lon="5.28639">
        <ele>133.60000610352</ele>
        <time>2017-07-23T13:06:27Z</time>
      </trkpt>
      <trkpt lat="47.10226" lon="5.28632">
        <ele>133.80000305176</ele>
        <time>2017-07-23T13:06:28Z</time>
      </trkpt>
      <trkpt lat="47.10226" lon="5.28618">
        <ele>134</ele>
        <time>2017-07-23T13:06:30Z</time>
      </trkpt>
      <trkpt lat="47.10226" lon="5.28604">
        <ele>133.19999694824</ele>
        <time>2017-07-23T13:06:32Z</time>
      </trkpt>
      <trkpt lat="47.10223" lon="5.28549">
        <ele>133.19999694824</ele>
        <time>2017-07-23T13:06:40Z</time>
      </trkpt>
      <trkpt lat="47.10221" lon="5.28528">
        <ele>133</ele>
        <time>2017-07-23T13:06:43Z</time>
      </trkpt>
      <trkpt lat="47.1022" lon="5.28513">
        <ele>132.60000610352</ele>
        <time>2017-07-23T13:06:45Z</time>
      </trkpt>
      <trkpt lat="47.10218" lon="5.28498">
        <ele>132.39999389648</ele>
        <time>2017-07-23T13:06:47Z</time>
      </trkpt>
      <trkpt lat="47.10214" lon="5.2844">
        <ele>132.39999389648</ele>
        <time>2017-07-23T13:06:55Z</time>
      </trkpt>
      <trkpt lat="47.10214" lon="5.28432">
        <ele>132.39999389648</ele>
        <time>2017-07-23T13:06:56Z</time>
      </trkpt>
      <trkpt lat="47.10212" lon="5.28403">
        <ele>132.39999389648</ele>
        <time>2017-07-23T13:07:00Z</time>
      </trkpt>
      <trkpt lat="47.10205" lon="5.28344">
        <ele>132.39999389648</ele>
        <time>2017-07-23T13:07:08Z</time>
      </trkpt>
      <trkpt lat="47.10196" lon="5.28289">
        <ele>132.60000610352</ele>
        <time>2017-07-23T13:07:16Z</time>
      </trkpt>
      <trkpt lat="47.10189" lon="5.28242">
        <ele>132.60000610352</ele>
        <time>2017-07-23T13:07:23Z</time>
      </trkpt>
      <trkpt lat="47.10187" lon="5.28222">
        <ele>132.60000610352</ele>
        <time>2017-07-23T13:07:26Z</time>
      </trkpt>
      <trkpt lat="47.10184" lon="5.28202">
        <ele>132.60000610352</ele>
        <time>2017-07-23T13:07:29Z</time>
      </trkpt>
      <trkpt lat="47.10174" lon="5.28136">
        <ele>132.60000610352</ele>
        <time>2017-07-23T13:07:38Z</time>
      </trkpt>
      <trkpt lat="47.10162" lon="5.28051">
        <ele>133</ele>
        <time>2017-07-23T13:07:49Z</time>
      </trkpt>
      <trkpt lat="47.10152" lon="5.27981">
        <ele>133.60000610352</ele>
        <time>2017-07-23T13:07:58Z</time>
      </trkpt>
      <trkpt lat="47.1015" lon="5.27966">
        <ele>133.60000610352</ele>
        <time>2017-07-23T13:08:00Z</time>
      </trkpt>
      <trkpt lat="47.10145" lon="5.27932">
        <ele>134.19999694824</ele>
        <time>2017-07-23T13:08:05Z</time>
      </trkpt>
      <trkpt lat="47.10137" lon="5.27876">
        <ele>134</ele>
        <time>2017-07-23T13:08:13Z</time>
      </trkpt>
      <trkpt lat="47.10135" lon="5.27856">
        <ele>134</ele>
        <time>2017-07-23T13:08:16Z</time>
      </trkpt>
      <trkpt lat="47.10131" lon="5.27828">
        <ele>133.60000610352</ele>
        <time>2017-07-23T13:08:20Z</time>
      </trkpt>
      <trkpt lat="47.10124" lon="5.27788">
        <ele>133.39999389648</ele>
        <time>2017-07-23T13:08:26Z</time>
      </trkpt>
      <trkpt lat="47.10109" lon="5.27736">
        <ele>133.19999694824</ele>
        <time>2017-07-23T13:08:34Z</time>
      </trkpt>
      <trkpt lat="47.10098" lon="5.27697">
        <ele>133.19999694824</ele>
        <time>2017-07-23T13:08:40Z</time>
      </trkpt>
      <trkpt lat="47.10096" lon="5.27685">
        <ele>133.19999694824</ele>
        <time>2017-07-23T13:08:42Z</time>
      </trkpt>
      <trkpt lat="47.10088" lon="5.27643">
        <ele>133.60000610352</ele>
        <time>2017-07-23T13:08:49Z</time>
      </trkpt>
      <trkpt lat="47.1008" lon="5.27586">
        <ele>133.39999389648</ele>
        <time>2017-07-23T13:08:58Z</time>
      </trkpt>
      <trkpt lat="47.10077" lon="5.27567">
        <ele>133.19999694824</ele>
        <time>2017-07-23T13:09:01Z</time>
      </trkpt>
      <trkpt lat="47.10074" lon="5.27534">
        <ele>133</ele>
        <time>2017-07-23T13:09:06Z</time>
      </trkpt>
      <trkpt lat="47.10074" lon="5.27528">
        <ele>133</ele>
        <time>2017-07-23T13:09:07Z</time>
      </trkpt>
      <trkpt lat="47.10072" lon="5.275">
        <ele>132.60000610352</ele>
        <time>2017-07-23T13:09:11Z</time>
      </trkpt>
      <trkpt lat="47.10072" lon="5.27493">
        <ele>132.60000610352</ele>
        <time>2017-07-23T13:09:12Z</time>
      </trkpt>
      <trkpt lat="47.10068" lon="5.27437">
        <ele>132.60000610352</ele>
        <time>2017-07-23T13:09:20Z</time>
      </trkpt>
      <trkpt lat="47.10061" lon="5.2738">
        <ele>132.60000610352</ele>
        <time>2017-07-23T13:09:28Z</time>
      </trkpt>
      <trkpt lat="47.10053" lon="5.27322">
        <ele>132.60000610352</ele>
        <time>2017-07-23T13:09:36Z</time>
      </trkpt>
      <trkpt lat="47.1005" lon="5.27309">
        <ele>132.60000610352</ele>
        <time>2017-07-23T13:09:38Z</time>
      </trkpt>
      <trkpt lat="47.10041" lon="5.27276">
        <ele>132.80000305176</ele>
        <time>2017-07-23T13:09:43Z</time>
      </trkpt>
      <trkpt lat="47.1003" lon="5.27221">
        <ele>132.39999389648</ele>
        <time>2017-07-23T13:09:51Z</time>
      </trkpt>
      <trkpt lat="47.10027" lon="5.27201">
        <ele>132.60000610352</ele>
        <time>2017-07-23T13:09:54Z</time>
      </trkpt>
      <trkpt lat="47.10023" lon="5.27174">
        <ele>132.60000610352</ele>
        <time>2017-07-23T13:09:58Z</time>
      </trkpt>
      <trkpt lat="47.10019" lon="5.27146">
        <ele>132.60000610352</ele>
        <time>2017-07-23T13:10:02Z</time>
      </trkpt>
      <trkpt lat="47.10013" lon="5.27118">
        <ele>132.39999389648</ele>
        <time>2017-07-23T13:10:06Z</time>
      </trkpt>
      <trkpt lat="47.09995" lon="5.27049">
        <ele>132.80000305176</ele>
        <time>2017-07-23T13:10:16Z</time>
      </trkpt>
      <trkpt lat="47.09984" lon="5.27011">
        <ele>132.80000305176</ele>
        <time>2017-07-23T13:10:22Z</time>
      </trkpt>
      <trkpt lat="47.09983" lon="5.27005">
        <ele>132.80000305176</ele>
        <time>2017-07-23T13:10:23Z</time>
      </trkpt>
      <trkpt lat="47.09976" lon="5.2698">
        <ele>132.80000305176</ele>
        <time>2017-07-23T13:10:27Z</time>
      </trkpt>
      <trkpt lat="47.09973" lon="5.26967">
        <ele>133</ele>
        <time>2017-07-23T13:10:29Z</time>
      </trkpt>
      <trkpt lat="47.09967" lon="5.2694">
        <ele>133</ele>
        <time>2017-07-23T13:10:33Z</time>
      </trkpt>
      <trkpt lat="47.09964" lon="5.26926">
        <ele>132.80000305176</ele>
        <time>2017-07-23T13:10:35Z</time>
      </trkpt>
      <trkpt lat="47.09958" lon="5.26899">
        <ele>133</ele>
        <time>2017-07-23T13:10:39Z</time>
      </trkpt>
      <trkpt lat="47.09957" lon="5.26892">
        <ele>133</ele>
        <time>2017-07-23T13:10:40Z</time>
      </trkpt>
      <trkpt lat="47.09952" lon="5.26864">
        <ele>133</ele>
        <time>2017-07-23T13:10:44Z</time>
      </trkpt>
      <trkpt lat="47.0995" lon="5.2685">
        <ele>133</ele>
        <time>2017-07-23T13:10:46Z</time>
      </trkpt>
      <trkpt lat="47.09941" lon="5.26795">
        <ele>133</ele>
        <time>2017-07-23T13:10:54Z</time>
      </trkpt>
      <trkpt lat="47.09936" lon="5.2673">
        <ele>132.80000305176</ele>
        <time>2017-07-23T13:11:03Z</time>
      </trkpt>
      <trkpt lat="47.09936" lon="5.26671">
        <ele>133</ele>
        <time>2017-07-23T13:11:11Z</time>
      </trkpt>
      <trkpt lat="47.09938" lon="5.26648">
        <ele>133</ele>
        <time>2017-07-23T13:11:14Z</time>
      </trkpt>
      <trkpt lat="47.0994" lon="5.26618">
        <ele>133.19999694824</ele>
        <time>2017-07-23T13:11:18Z</time>
      </trkpt>
      <trkpt lat="47.09949" lon="5.26561">
        <ele>133.19999694824</ele>
        <time>2017-07-23T13:11:26Z</time>
      </trkpt>
      <trkpt lat="47.09956" lon="5.26534">
        <ele>133.80000305176</ele>
        <time>2017-07-23T13:11:30Z</time>
      </trkpt>
      <trkpt lat="47.0996" lon="5.26506">
        <ele>133.80000305176</ele>
        <time>2017-07-23T13:11:34Z</time>
      </trkpt>
      <trkpt lat="47.09966" lon="5.26451">
        <ele>133.80000305176</ele>
        <time>2017-07-23T13:11:42Z</time>
      </trkpt>
      <trkpt lat="47.09968" lon="5.26412">
        <ele>133.80000305176</ele>
        <time>2017-07-23T13:11:49Z</time>
      </trkpt>
      <trkpt lat="47.09969" lon="5.26376">
        <ele>134.19999694824</ele>
        <time>2017-07-23T13:11:56Z</time>
      </trkpt>
      <trkpt lat="47.09969" lon="5.26348">
        <ele>134.80000305176</ele>
        <time>2017-07-23T13:12:01Z</time>
      </trkpt>
      <trkpt lat="47.0997" lon="5.26338">
        <ele>135</ele>
        <time>2017-07-23T13:12:03Z</time>
      </trkpt>
      <trkpt lat="47.09968" lon="5.26316">
        <ele>135.80000305176</ele>
        <time>2017-07-23T13:12:08Z</time>
      </trkpt>
      <trkpt lat="47.09968" lon="5.26312">
        <ele>136</ele>
        <time>2017-07-23T13:12:09Z</time>
      </trkpt>
      <trkpt lat="47.09966" lon="5.26303">
        <ele>136.80000305176</ele>
        <time>2017-07-23T13:12:13Z</time>
      </trkpt>
      <trkpt lat="47.09964" lon="5.26298">
        <ele>136.80000305176</ele>
        <time>2017-07-23T13:12:15Z</time>
      </trkpt>
      <trkpt lat="47.09956" lon="5.26292">
        <ele>136.60000610352</ele>
        <time>2017-07-23T13:12:19Z</time>
      </trkpt>
      <trkpt lat="47.09954" lon="5.26291">
        <ele>136.60000610352</ele>
        <time>2017-07-23T13:12:20Z</time>
      </trkpt>
      <trkpt lat="47.09954" lon="5.26284">
        <ele>136.39999389648</ele>
        <time>2017-07-23T13:12:23Z</time>
      </trkpt>
      <trkpt lat="47.09957" lon="5.26275">
        <ele>136</ele>
        <time>2017-07-23T13:12:29Z</time>
      </trkpt>
      <trkpt lat="47.0996" lon="5.26275">
        <ele>135.80000305176</ele>
        <time>2017-07-23T13:12:34Z</time>
      </trkpt>
      <trkpt lat="47.09964" lon="5.26275">
        <ele>135.80000305176</ele>
        <time>2017-07-23T13:12:36Z</time>
      </trkpt>
      <trkpt lat="47.09969" lon="5.26275">
        <ele>135.60000610352</ele>
        <time>2017-07-23T13:12:39Z</time>
      </trkpt>
      <trkpt lat="47.0997" lon="5.26274">
        <ele>135.80000305176</ele>
        <time>2017-07-23T13:12:41Z</time>
      </trkpt>
      <trkpt lat="47.09972" lon="5.2627">
        <ele>136</ele>
        <time>2017-07-23T13:12:44Z</time>
      </trkpt>
      <trkpt lat="47.0997" lon="5.26271">
        <ele>136</ele>
        <time>2017-07-23T13:12:46Z</time>
      </trkpt>
      <trkpt lat="47.09971" lon="5.26278">
        <ele>136</ele>
        <time>2017-07-23T13:12:49Z</time>
      </trkpt>
      <trkpt lat="47.09966" lon="5.26287">
        <ele>135.80000305176</ele>
        <time>2017-07-23T13:12:54Z</time>
      </trkpt>
      <trkpt lat="47.09965" lon="5.26288">
        <ele>135.80000305176</ele>
        <time>2017-07-23T13:12:55Z</time>
      </trkpt>
      <trkpt lat="47.09962" lon="5.2629">
        <ele>136.39999389648</ele>
        <time>2017-07-23T13:13:09Z</time>
      </trkpt>
      <trkpt lat="47.0996" lon="5.26289">
        <ele>136.19999694824</ele>
        <time>2017-07-23T13:13:10Z</time>
      </trkpt>
      <trkpt lat="47.09952" lon="5.26289">
        <ele>136</ele>
        <time>2017-07-23T13:13:14Z</time>
      </trkpt>
      <trkpt lat="47.09951" lon="5.26288">
        <ele>136</ele>
        <time>2017-07-23T13:13:16Z</time>
      </trkpt>
      <trkpt lat="47.09953" lon="5.26289">
        <ele>137.80000305176</ele>
        <time>2017-07-23T13:35:22Z</time>
      </trkpt>
      <trkpt lat="47.09956" lon="5.26291">
        <ele>137.80000305176</ele>
        <time>2017-07-23T13:35:46Z</time>
      </trkpt>
      <trkpt lat="47.0996" lon="5.26292">
        <ele>137.80000305176</ele>
        <time>2017-07-23T13:35:48Z</time>
      </trkpt>
      <trkpt lat="47.09968" lon="5.26284">
        <ele>137.60000610352</ele>
        <time>2017-07-23T13:35:53Z</time>
      </trkpt>
      <trkpt lat="47.09972" lon="5.26268">
        <ele>137.60000610352</ele>
        <time>2017-07-23T13:35:58Z</time>
      </trkpt>
      <trkpt lat="47.09975" lon="5.26235">
        <ele>137.19999694824</ele>
        <time>2017-07-23T13:36:04Z</time>
      </trkpt>
      <trkpt lat="47.0998" lon="5.26191">
        <ele>136.80000305176</ele>
        <time>2017-07-23T13:36:11Z</time>
      </trkpt>
      <trkpt lat="47.09979" lon="5.26189">
        <ele>136.80000305176</ele>
        <time>2017-07-23T13:36:12Z</time>
      </trkpt>
      <trkpt lat="47.09975" lon="5.26189">
        <ele>136</ele>
        <time>2017-07-23T13:36:14Z</time>
      </trkpt>
      <trkpt lat="47.09972" lon="5.2619">
        <ele>135.60000610352</ele>
        <time>2017-07-23T13:36:15Z</time>
      </trkpt>
      <trkpt lat="47.09969" lon="5.2619">
        <ele>135.39999389648</ele>
        <time>2017-07-23T13:36:16Z</time>
      </trkpt>
      <trkpt lat="47.09958" lon="5.26186">
        <ele>134.80000305176</ele>
        <time>2017-07-23T13:36:19Z</time>
      </trkpt>
      <trkpt lat="47.09951" lon="5.26183">
        <ele>134.60000610352</ele>
        <time>2017-07-23T13:36:21Z</time>
      </trkpt>
      <trkpt lat="47.09942" lon="5.26181">
        <ele>134.80000305176</ele>
        <time>2017-07-23T13:36:23Z</time>
      </trkpt>
      <trkpt lat="47.09934" lon="5.26177">
        <ele>135</ele>
        <time>2017-07-23T13:36:25Z</time>
      </trkpt>
      <trkpt lat="47.09925" lon="5.26174">
        <ele>135.19999694824</ele>
        <time>2017-07-23T13:36:27Z</time>
      </trkpt>
      <trkpt lat="47.09907" lon="5.26168">
        <ele>135.39999389648</ele>
        <time>2017-07-23T13:36:31Z</time>
      </trkpt>
      <trkpt lat="47.09903" lon="5.26167">
        <ele>135.19999694824</ele>
        <time>2017-07-23T13:36:32Z</time>
      </trkpt>
      <trkpt lat="47.09877" lon="5.26163">
        <ele>134.80000305176</ele>
        <time>2017-07-23T13:36:38Z</time>
      </trkpt>
      <trkpt lat="47.09873" lon="5.26162">
        <ele>134.60000610352</ele>
        <time>2017-07-23T13:36:39Z</time>
      </trkpt>
      <trkpt lat="47.09856" lon="5.26156">
        <ele>134.60000610352</ele>
        <time>2017-07-23T13:36:43Z</time>
      </trkpt>
      <trkpt lat="47.09812" lon="5.26147">
        <ele>134.39999389648</ele>
        <time>2017-07-23T13:36:53Z</time>
      </trkpt>
      <trkpt lat="47.0977" lon="5.26138">
        <ele>134.60000610352</ele>
        <time>2017-07-23T13:37:03Z</time>
      </trkpt>
      <trkpt lat="47.09747" lon="5.26132">
        <ele>134.80000305176</ele>
        <time>2017-07-23T13:37:09Z</time>
      </trkpt>
      <trkpt lat="47.09713" lon="5.26125">
        <ele>134.80000305176</ele>
        <time>2017-07-23T13:37:17Z</time>
      </trkpt>
      <trkpt lat="47.09709" lon="5.26124">
        <ele>134.80000305176</ele>
        <time>2017-07-23T13:37:18Z</time>
      </trkpt>
      <trkpt lat="47.09688" lon="5.26117">
        <ele>134.80000305176</ele>
        <time>2017-07-23T13:37:23Z</time>
      </trkpt>
      <trkpt lat="47.09659" lon="5.2611">
        <ele>134.39999389648</ele>
        <time>2017-07-23T13:37:30Z</time>
      </trkpt>
      <trkpt lat="47.09629" lon="5.26102">
        <ele>134</ele>
        <time>2017-07-23T13:37:37Z</time>
      </trkpt>
      <trkpt lat="47.09613" lon="5.26096">
        <ele>134.19999694824</ele>
        <time>2017-07-23T13:37:41Z</time>
      </trkpt>
      <trkpt lat="47.096" lon="5.26093">
        <ele>134</ele>
        <time>2017-07-23T13:37:44Z</time>
      </trkpt>
      <trkpt lat="47.09579" lon="5.2609">
        <ele>133.80000305176</ele>
        <time>2017-07-23T13:37:49Z</time>
      </trkpt>
      <trkpt lat="47.0957" lon="5.26087">
        <ele>133.80000305176</ele>
        <time>2017-07-23T13:37:51Z</time>
      </trkpt>
      <trkpt lat="47.09553" lon="5.26084">
        <ele>133.80000305176</ele>
        <time>2017-07-23T13:37:55Z</time>
      </trkpt>
      <trkpt lat="47.09545" lon="5.2608">
        <ele>133.80000305176</ele>
        <time>2017-07-23T13:37:57Z</time>
      </trkpt>
      <trkpt lat="47.09527" lon="5.26074">
        <ele>133.60000610352</ele>
        <time>2017-07-23T13:38:02Z</time>
      </trkpt>
      <trkpt lat="47.09524" lon="5.26074">
        <ele>133.60000610352</ele>
        <time>2017-07-23T13:38:03Z</time>
      </trkpt>
      <trkpt lat="47.09521" lon="5.26073">
        <ele>133.39999389648</ele>
        <time>2017-07-23T13:42:34Z</time>
      </trkpt>
      <trkpt lat="47.09508" lon="5.26069">
        <ele>133.39999389648</ele>
        <time>2017-07-23T13:42:40Z</time>
      </trkpt>
      <trkpt lat="47.09494" lon="5.26066">
        <ele>133.60000610352</ele>
        <time>2017-07-23T13:42:46Z</time>
      </trkpt>
      <trkpt lat="47.09479" lon="5.26063">
        <ele>133.60000610352</ele>
        <time>2017-07-23T13:42:52Z</time>
      </trkpt>
      <trkpt lat="47.09459" lon="5.26058">
        <ele>133.60000610352</ele>
        <time>2017-07-23T13:42:59Z</time>
      </trkpt>
      <trkpt lat="47.09443" lon="5.26054">
        <ele>134</ele>
        <time>2017-07-23T13:43:04Z</time>
      </trkpt>
      <trkpt lat="47.09426" lon="5.26049">
        <ele>134</ele>
        <time>2017-07-23T13:43:09Z</time>
      </trkpt>
      <trkpt lat="47.09399" lon="5.26043">
        <ele>133.60000610352</ele>
        <time>2017-07-23T13:43:16Z</time>
      </trkpt>
      <trkpt lat="47.09369" lon="5.26036">
        <ele>133.80000305176</ele>
        <time>2017-07-23T13:43:23Z</time>
      </trkpt>
      <trkpt lat="47.09338" lon="5.26028">
        <ele>133.80000305176</ele>
        <time>2017-07-23T13:43:30Z</time>
      </trkpt>
      <trkpt lat="47.09306" lon="5.26019">
        <ele>133.39999389648</ele>
        <time>2017-07-23T13:43:38Z</time>
      </trkpt>
      <trkpt lat="47.09275" lon="5.26012">
        <ele>133</ele>
        <time>2017-07-23T13:43:46Z</time>
      </trkpt>
      <trkpt lat="47.09234" lon="5.26002">
        <ele>133.60000610352</ele>
        <time>2017-07-23T13:43:56Z</time>
      </trkpt>
      <trkpt lat="47.09202" lon="5.25994">
        <ele>133.39999389648</ele>
        <time>2017-07-23T13:44:04Z</time>
      </trkpt>
      <trkpt lat="47.09163" lon="5.25985">
        <ele>134</ele>
        <time>2017-07-23T13:44:14Z</time>
      </trkpt>
      <trkpt lat="47.09132" lon="5.25976">
        <ele>133.80000305176</ele>
        <time>2017-07-23T13:44:22Z</time>
      </trkpt>
      <trkpt lat="47.09108" lon="5.2597">
        <ele>134</ele>
        <time>2017-07-23T13:44:28Z</time>
      </trkpt>
      <trkpt lat="47.091" lon="5.25968">
        <ele>134</ele>
        <time>2017-07-23T13:44:30Z</time>
      </trkpt>
      <trkpt lat="47.09063" lon="5.25959">
        <ele>133.80000305176</ele>
        <time>2017-07-23T13:44:39Z</time>
      </trkpt>
      <trkpt lat="47.09021" lon="5.25948">
        <ele>133.60000610352</ele>
        <time>2017-07-23T13:44:49Z</time>
      </trkpt>
      <trkpt lat="47.08995" lon="5.25941">
        <ele>133.39999389648</ele>
        <time>2017-07-23T13:44:55Z</time>
      </trkpt>
      <trkpt lat="47.08954" lon="5.25932">
        <ele>133.19999694824</ele>
        <time>2017-07-23T13:45:04Z</time>
      </trkpt>
      <trkpt lat="47.0893" lon="5.25929">
        <ele>133.39999389648</ele>
        <time>2017-07-23T13:45:10Z</time>
      </trkpt>
      <trkpt lat="47.08905" lon="5.25918">
        <ele>134</ele>
        <time>2017-07-23T13:45:16Z</time>
      </trkpt>
      <trkpt lat="47.08901" lon="5.25915">
        <ele>134</ele>
        <time>2017-07-23T13:45:17Z</time>
      </trkpt>
      <trkpt lat="47.08883" lon="5.25895">
        <ele>134.19999694824</ele>
        <time>2017-07-23T13:45:22Z</time>
      </trkpt>
      <trkpt lat="47.0887" lon="5.25871">
        <ele>134.80000305176</ele>
        <time>2017-07-23T13:45:27Z</time>
      </trkpt>
      <trkpt lat="47.08864" lon="5.25863">
        <ele>135</ele>
        <time>2017-07-23T13:45:29Z</time>
      </trkpt>
      <trkpt lat="47.08853" lon="5.25836">
        <ele>135.39999389648</ele>
        <time>2017-07-23T13:45:35Z</time>
      </trkpt>
      <trkpt lat="47.08849" lon="5.25815">
        <ele>135.80000305176</ele>
        <time>2017-07-23T13:45:39Z</time>
      </trkpt>
      <trkpt lat="47.08843" lon="5.25794">
        <ele>136.60000610352</ele>
        <time>2017-07-23T13:45:43Z</time>
      </trkpt>
      <trkpt lat="47.0884" lon="5.25784">
        <ele>136.80000305176</ele>
        <time>2017-07-23T13:45:45Z</time>
      </trkpt>
      <trkpt lat="47.08828" lon="5.25748">
        <ele>137</ele>
        <time>2017-07-23T13:45:52Z</time>
      </trkpt>
      <trkpt lat="47.08814" lon="5.25717">
        <ele>137.19999694824</ele>
        <time>2017-07-23T13:45:59Z</time>
      </trkpt>
      <trkpt lat="47.08798" lon="5.25691">
        <ele>137.60000610352</ele>
        <time>2017-07-23T13:46:06Z</time>
      </trkpt>
      <trkpt lat="47.08782" lon="5.25673">
        <ele>137.60000610352</ele>
        <time>2017-07-23T13:46:12Z</time>
      </trkpt>
      <trkpt lat="47.0876" lon="5.25649">
        <ele>137.80000305176</ele>
        <time>2017-07-23T13:46:19Z</time>
      </trkpt>
      <trkpt lat="47.08757" lon="5.25646">
        <ele>138</ele>
        <time>2017-07-23T13:46:20Z</time>
      </trkpt>
      <trkpt lat="47.08734" lon="5.25621">
        <ele>139</ele>
        <time>2017-07-23T13:46:28Z</time>
      </trkpt>
      <trkpt lat="47.08729" lon="5.25615">
        <ele>139.39999389648</ele>
        <time>2017-07-23T13:46:30Z</time>
      </trkpt>
      <trkpt lat="47.08718" lon="5.256">
        <ele>140</ele>
        <time>2017-07-23T13:46:34Z</time>
      </trkpt>
      <trkpt lat="47.0871" lon="5.25589">
        <ele>140.60000610352</ele>
        <time>2017-07-23T13:46:37Z</time>
      </trkpt>
      <trkpt lat="47.08699" lon="5.25573">
        <ele>141.19999694824</ele>
        <time>2017-07-23T13:46:41Z</time>
      </trkpt>
      <trkpt lat="47.08692" lon="5.2556">
        <ele>141.80000305176</ele>
        <time>2017-07-23T13:46:44Z</time>
      </trkpt>
      <trkpt lat="47.08685" lon="5.25547">
        <ele>142.19999694824</ele>
        <time>2017-07-23T13:46:47Z</time>
      </trkpt>
      <trkpt lat="47.08669" lon="5.25513">
        <ele>142.60000610352</ele>
        <time>2017-07-23T13:46:54Z</time>
      </trkpt>
      <trkpt lat="47.08655" lon="5.2547">
        <ele>142.39999389648</ele>
        <time>2017-07-23T13:47:01Z</time>
      </trkpt>
      <trkpt lat="47.08641" lon="5.25423">
        <ele>141.19999694824</ele>
        <time>2017-07-23T13:47:07Z</time>
      </trkpt>
      <trkpt lat="47.08638" lon="5.25414">
        <ele>141</ele>
        <time>2017-07-23T13:47:08Z</time>
      </trkpt>
      <trkpt lat="47.08624" lon="5.25367">
        <ele>140</ele>
        <time>2017-07-23T13:47:13Z</time>
      </trkpt>
      <trkpt lat="47.0862" lon="5.25349">
        <ele>139</ele>
        <time>2017-07-23T13:47:15Z</time>
      </trkpt>
      <trkpt lat="47.0862" lon="5.25342">
        <ele>138.60000610352</ele>
        <time>2017-07-23T13:47:16Z</time>
      </trkpt>
      <trkpt lat="47.08623" lon="5.25336">
        <ele>138.39999389648</ele>
        <time>2017-07-23T13:47:17Z</time>
      </trkpt>
      <trkpt lat="47.08637" lon="5.25333">
        <ele>137.19999694824</ele>
        <time>2017-07-23T13:47:20Z</time>
      </trkpt>
      <trkpt lat="47.08647" lon="5.25342">
        <ele>136.60000610352</ele>
        <time>2017-07-23T13:47:22Z</time>
      </trkpt>
      <trkpt lat="47.08656" lon="5.25351">
        <ele>136.39999389648</ele>
        <time>2017-07-23T13:47:24Z</time>
      </trkpt>
      <trkpt lat="47.08695" lon="5.2539">
        <ele>136.19999694824</ele>
        <time>2017-07-23T13:47:33Z</time>
      </trkpt>
      <trkpt lat="47.08731" lon="5.25426">
        <ele>136.19999694824</ele>
        <time>2017-07-23T13:47:42Z</time>
      </trkpt>
      <trkpt lat="47.0875" lon="5.2544">
        <ele>136.19999694824</ele>
        <time>2017-07-23T13:47:48Z</time>
      </trkpt>
      <trkpt lat="47.08753" lon="5.25436">
        <ele>136.39999389648</ele>
        <time>2017-07-23T13:47:51Z</time>
      </trkpt>
      <trkpt lat="47.08751" lon="5.25427">
        <ele>136.39999389648</ele>
        <time>2017-07-23T13:47:54Z</time>
      </trkpt>
      <trkpt lat="47.08749" lon="5.25424">
        <ele>136.39999389648</ele>
        <time>2017-07-23T13:47:55Z</time>
      </trkpt>
      <trkpt lat="47.08745" lon="5.25398">
        <ele>136.60000610352</ele>
        <time>2017-07-23T13:48:00Z</time>
      </trkpt>
      <trkpt lat="47.08736" lon="5.25359">
        <ele>137</ele>
        <time>2017-07-23T13:48:07Z</time>
      </trkpt>
      <trkpt lat="47.08726" lon="5.25321">
        <ele>136.39999389648</ele>
        <time>2017-07-23T13:48:14Z</time>
      </trkpt>
      <trkpt lat="47.08722" lon="5.253">
        <ele>136.39999389648</ele>
        <time>2017-07-23T13:48:18Z</time>
      </trkpt>
      <trkpt lat="47.08714" lon="5.25258">
        <ele>136.39999389648</ele>
        <time>2017-07-23T13:48:26Z</time>
      </trkpt>
      <trkpt lat="47.08715" lon="5.25252">
        <ele>135.80000305176</ele>
        <time>2017-07-23T13:48:51Z</time>
      </trkpt>
      <trkpt lat="47.08712" lon="5.25244">
        <ele>136</ele>
        <time>2017-07-23T13:48:54Z</time>
      </trkpt>
      <trkpt lat="47.08704" lon="5.25223">
        <ele>136.19999694824</ele>
        <time>2017-07-23T13:48:59Z</time>
      </trkpt>
      <trkpt lat="47.08702" lon="5.25217">
        <ele>136.19999694824</ele>
        <time>2017-07-23T13:49:00Z</time>
      </trkpt>
      <trkpt lat="47.0869" lon="5.25193">
        <ele>136.19999694824</ele>
        <time>2017-07-23T13:49:04Z</time>
      </trkpt>
      <trkpt lat="47.08667" lon="5.25151">
        <ele>136.39999389648</ele>
        <time>2017-07-23T13:49:11Z</time>
      </trkpt>
      <trkpt lat="47.08636" lon="5.25101">
        <ele>136.39999389648</ele>
        <time>2017-07-23T13:49:20Z</time>
      </trkpt>
      <trkpt lat="47.08611" lon="5.25058">
        <ele>136.80000305176</ele>
        <time>2017-07-23T13:49:28Z</time>
      </trkpt>
      <trkpt lat="47.08604" lon="5.25048">
        <ele>136.80000305176</ele>
        <time>2017-07-23T13:49:30Z</time>
      </trkpt>
      <trkpt lat="47.08592" lon="5.25027">
        <ele>136.60000610352</ele>
        <time>2017-07-23T13:49:34Z</time>
      </trkpt>
      <trkpt lat="47.08565" lon="5.24988">
        <ele>136.80000305176</ele>
        <time>2017-07-23T13:49:42Z</time>
      </trkpt>
      <trkpt lat="47.08558" lon="5.24977">
        <ele>136.60000610352</ele>
        <time>2017-07-23T13:49:44Z</time>
      </trkpt>
      <trkpt lat="47.08533" lon="5.24942">
        <ele>136.80000305176</ele>
        <time>2017-07-23T13:49:51Z</time>
      </trkpt>
      <trkpt lat="47.08502" lon="5.24895">
        <ele>136.80000305176</ele>
        <time>2017-07-23T13:50:00Z</time>
      </trkpt>
      <trkpt lat="47.08499" lon="5.2489">
        <ele>136.80000305176</ele>
        <time>2017-07-23T13:50:01Z</time>
      </trkpt>
      <trkpt lat="47.08479" lon="5.24866">
        <ele>136.80000305176</ele>
        <time>2017-07-23T13:50:06Z</time>
      </trkpt>
      <trkpt lat="47.08456" lon="5.24839">
        <ele>136.80000305176</ele>
        <time>2017-07-23T13:50:12Z</time>
      </trkpt>
      <trkpt lat="47.08452" lon="5.24834">
        <ele>136.80000305176</ele>
        <time>2017-07-23T13:50:13Z</time>
      </trkpt>
      <trkpt lat="47.08424" lon="5.24801">
        <ele>136.80000305176</ele>
        <time>2017-07-23T13:50:20Z</time>
      </trkpt>
      <trkpt lat="47.08398" lon="5.24766">
        <ele>137.19999694824</ele>
        <time>2017-07-23T13:50:27Z</time>
      </trkpt>
      <trkpt lat="47.08387" lon="5.24751">
        <ele>137.19999694824</ele>
        <time>2017-07-23T13:50:30Z</time>
      </trkpt>
      <trkpt lat="47.08368" lon="5.24728">
        <ele>137.39999389648</ele>
        <time>2017-07-23T13:50:35Z</time>
      </trkpt>
      <trkpt lat="47.08346" lon="5.24698">
        <ele>137.39999389648</ele>
        <time>2017-07-23T13:50:41Z</time>
      </trkpt>
      <trkpt lat="47.08316" lon="5.24653">
        <ele>136.60000610352</ele>
        <time>2017-07-23T13:50:49Z</time>
      </trkpt>
      <trkpt lat="47.08307" lon="5.24636">
        <ele>136.19999694824</ele>
        <time>2017-07-23T13:50:52Z</time>
      </trkpt>
      <trkpt lat="47.08305" lon="5.24629">
        <ele>136.19999694824</ele>
        <time>2017-07-23T13:50:53Z</time>
      </trkpt>
      <trkpt lat="47.08303" lon="5.24622">
        <ele>136.19999694824</ele>
        <time>2017-07-23T13:50:54Z</time>
      </trkpt>
      <trkpt lat="47.08292" lon="5.24587">
        <ele>135.19999694824</ele>
        <time>2017-07-23T13:50:59Z</time>
      </trkpt>
      <trkpt lat="47.08288" lon="5.24581">
        <ele>134.80000305176</ele>
        <time>2017-07-23T13:51:00Z</time>
      </trkpt>
      <trkpt lat="47.08275" lon="5.24566">
        <ele>134.39999389648</ele>
        <time>2017-07-23T13:51:03Z</time>
      </trkpt>
      <trkpt lat="47.08271" lon="5.24562">
        <ele>134.19999694824</ele>
        <time>2017-07-23T13:51:04Z</time>
      </trkpt>
      <trkpt lat="47.08246" lon="5.24534">
        <ele>134.80000305176</ele>
        <time>2017-07-23T13:51:10Z</time>
      </trkpt>
      <trkpt lat="47.08212" lon="5.24492">
        <ele>135.19999694824</ele>
        <time>2017-07-23T13:51:19Z</time>
      </trkpt>
      <trkpt lat="47.0819" lon="5.24454">
        <ele>135.80000305176</ele>
        <time>2017-07-23T13:51:26Z</time>
      </trkpt>
      <trkpt lat="47.0817" lon="5.24413">
        <ele>135.80000305176</ele>
        <time>2017-07-23T13:51:33Z</time>
      </trkpt>
      <trkpt lat="47.08159" lon="5.2438">
        <ele>135.60000610352</ele>
        <time>2017-07-23T13:51:38Z</time>
      </trkpt>
      <trkpt lat="47.08157" lon="5.24374">
        <ele>135.60000610352</ele>
        <time>2017-07-23T13:51:39Z</time>
      </trkpt>
      <trkpt lat="47.08145" lon="5.24329">
        <ele>135.39999389648</ele>
        <time>2017-07-23T13:51:45Z</time>
      </trkpt>
      <trkpt lat="47.0814" lon="5.24271">
        <ele>135.19999694824</ele>
        <time>2017-07-23T13:51:52Z</time>
      </trkpt>
      <trkpt lat="47.08138" lon="5.24215">
        <ele>134.80000305176</ele>
        <time>2017-07-23T13:51:59Z</time>
      </trkpt>
      <trkpt lat="47.08138" lon="5.24208">
        <ele>134.60000610352</ele>
        <time>2017-07-23T13:52:00Z</time>
      </trkpt>
      <trkpt lat="47.08137" lon="5.24144">
        <ele>134.19999694824</ele>
        <time>2017-07-23T13:52:08Z</time>
      </trkpt>
      <trkpt lat="47.08136" lon="5.24064">
        <ele>134.19999694824</ele>
        <time>2017-07-23T13:52:18Z</time>
      </trkpt>
      <trkpt lat="47.08137" lon="5.24056">
        <ele>134</ele>
        <time>2017-07-23T13:52:19Z</time>
      </trkpt>
      <trkpt lat="47.08142" lon="5.2401">
        <ele>134</ele>
        <time>2017-07-23T13:52:25Z</time>
      </trkpt>
      <trkpt lat="47.08154" lon="5.23958">
        <ele>134</ele>
        <time>2017-07-23T13:52:32Z</time>
      </trkpt>
      <trkpt lat="47.08156" lon="5.23951">
        <ele>134</ele>
        <time>2017-07-23T13:52:33Z</time>
      </trkpt>
      <trkpt lat="47.08168" lon="5.23915">
        <ele>134.60000610352</ele>
        <time>2017-07-23T13:52:38Z</time>
      </trkpt>
      <trkpt lat="47.08184" lon="5.23875">
        <ele>135</ele>
        <time>2017-07-23T13:52:44Z</time>
      </trkpt>
      <trkpt lat="47.08187" lon="5.23868">
        <ele>135</ele>
        <time>2017-07-23T13:52:45Z</time>
      </trkpt>
      <trkpt lat="47.08213" lon="5.23818">
        <ele>135.39999389648</ele>
        <time>2017-07-23T13:52:53Z</time>
      </trkpt>
      <trkpt lat="47.08244" lon="5.2377">
        <ele>134.39999389648</ele>
        <time>2017-07-23T13:53:01Z</time>
      </trkpt>
      <trkpt lat="47.08259" lon="5.23742">
        <ele>134</ele>
        <time>2017-07-23T13:53:05Z</time>
      </trkpt>
      <trkpt lat="47.08278" lon="5.23709">
        <ele>134</ele>
        <time>2017-07-23T13:53:10Z</time>
      </trkpt>
      <trkpt lat="47.0831" lon="5.23658">
        <ele>134.19999694824</ele>
        <time>2017-07-23T13:53:18Z</time>
      </trkpt>
      <trkpt lat="47.08344" lon="5.23601">
        <ele>134.60000610352</ele>
        <time>2017-07-23T13:53:27Z</time>
      </trkpt>
      <trkpt lat="47.08356" lon="5.23584">
        <ele>134.60000610352</ele>
        <time>2017-07-23T13:53:30Z</time>
      </trkpt>
      <trkpt lat="47.0837" lon="5.23569">
        <ele>134.19999694824</ele>
        <time>2017-07-23T13:53:33Z</time>
      </trkpt>
      <trkpt lat="47.08404" lon="5.23537">
        <ele>133.80000305176</ele>
        <time>2017-07-23T13:53:40Z</time>
      </trkpt>
      <trkpt lat="47.08428" lon="5.23506">
        <ele>134.60000610352</ele>
        <time>2017-07-23T13:53:46Z</time>
      </trkpt>
      <trkpt lat="47.08441" lon="5.23491">
        <ele>134.60000610352</ele>
        <time>2017-07-23T13:53:49Z</time>
      </trkpt>
      <trkpt lat="47.08453" lon="5.23473">
        <ele>134.39999389648</ele>
        <time>2017-07-23T13:53:52Z</time>
      </trkpt>
      <trkpt lat="47.08474" lon="5.23437">
        <ele>134.19999694824</ele>
        <time>2017-07-23T13:53:58Z</time>
      </trkpt>
      <trkpt lat="47.08497" lon="5.23389">
        <ele>134.19999694824</ele>
        <time>2017-07-23T13:54:05Z</time>
      </trkpt>
      <trkpt lat="47.08523" lon="5.23339">
        <ele>134.19999694824</ele>
        <time>2017-07-23T13:54:12Z</time>
      </trkpt>
      <trkpt lat="47.0855" lon="5.23286">
        <ele>134.39999389648</ele>
        <time>2017-07-23T13:54:20Z</time>
      </trkpt>
      <trkpt lat="47.08555" lon="5.23272">
        <ele>134.19999694824</ele>
        <time>2017-07-23T13:54:22Z</time>
      </trkpt>
      <trkpt lat="47.08558" lon="5.23251">
        <ele>134.19999694824</ele>
        <time>2017-07-23T13:54:25Z</time>
      </trkpt>
      <trkpt lat="47.08558" lon="5.23233">
        <ele>134.39999389648</ele>
        <time>2017-07-23T13:54:29Z</time>
      </trkpt>
      <trkpt lat="47.08559" lon="5.23231">
        <ele>134.39999389648</ele>
        <time>2017-07-23T13:54:55Z</time>
      </trkpt>
      <trkpt lat="47.0856" lon="5.23229">
        <ele>134.39999389648</ele>
        <time>2017-07-23T13:54:56Z</time>
      </trkpt>
      <trkpt lat="47.08559" lon="5.23213">
        <ele>134.39999389648</ele>
        <time>2017-07-23T13:55:00Z</time>
      </trkpt>
      <trkpt lat="47.08559" lon="5.23207">
        <ele>134.39999389648</ele>
        <time>2017-07-23T13:55:01Z</time>
      </trkpt>
      <trkpt lat="47.08558" lon="5.23183">
        <ele>134.39999389648</ele>
        <time>2017-07-23T13:55:05Z</time>
      </trkpt>
      <trkpt lat="47.08557" lon="5.23129">
        <ele>134.19999694824</ele>
        <time>2017-07-23T13:55:12Z</time>
      </trkpt>
      <trkpt lat="47.08544" lon="5.23075">
        <ele>134.39999389648</ele>
        <time>2017-07-23T13:55:19Z</time>
      </trkpt>
      <trkpt lat="47.08526" lon="5.23037">
        <ele>134.19999694824</ele>
        <time>2017-07-23T13:55:25Z</time>
      </trkpt>
      <trkpt lat="47.08517" lon="5.23023">
        <ele>134.19999694824</ele>
        <time>2017-07-23T13:55:28Z</time>
      </trkpt>
      <trkpt lat="47.08509" lon="5.23012">
        <ele>134.19999694824</ele>
        <time>2017-07-23T13:55:31Z</time>
      </trkpt>
      <trkpt lat="47.08492" lon="5.22994">
        <ele>134</ele>
        <time>2017-07-23T13:55:37Z</time>
      </trkpt>
      <trkpt lat="47.08488" lon="5.22991">
        <ele>134</ele>
        <time>2017-07-23T13:55:38Z</time>
      </trkpt>
      <trkpt lat="47.08466" lon="5.22971">
        <ele>134</ele>
        <time>2017-07-23T13:55:43Z</time>
      </trkpt>
      <trkpt lat="47.08457" lon="5.22963">
        <ele>134.19999694824</ele>
        <time>2017-07-23T13:55:45Z</time>
      </trkpt>
      <trkpt lat="47.08429" lon="5.22937">
        <ele>134.19999694824</ele>
        <time>2017-07-23T13:55:51Z</time>
      </trkpt>
      <trkpt lat="47.08389" lon="5.22896">
        <ele>134.19999694824</ele>
        <time>2017-07-23T13:55:59Z</time>
      </trkpt>
      <trkpt lat="47.08351" lon="5.22856">
        <ele>134.19999694824</ele>
        <time>2017-07-23T13:56:07Z</time>
      </trkpt>
      <trkpt lat="47.08313" lon="5.22817">
        <ele>133.80000305176</ele>
        <time>2017-07-23T13:56:15Z</time>
      </trkpt>
      <trkpt lat="47.08266" lon="5.22768">
        <ele>134</ele>
        <time>2017-07-23T13:56:25Z</time>
      </trkpt>
      <trkpt lat="47.08262" lon="5.22763">
        <ele>134</ele>
        <time>2017-07-23T13:56:26Z</time>
      </trkpt>
      <trkpt lat="47.08228" lon="5.22721">
        <ele>134.19999694824</ele>
        <time>2017-07-23T13:56:34Z</time>
      </trkpt>
      <trkpt lat="47.08195" lon="5.22665">
        <ele>134.19999694824</ele>
        <time>2017-07-23T13:56:43Z</time>
      </trkpt>
      <trkpt lat="47.08163" lon="5.22607">
        <ele>134.39999389648</ele>
        <time>2017-07-23T13:56:52Z</time>
      </trkpt>
      <trkpt lat="47.08136" lon="5.22556">
        <ele>134.39999389648</ele>
        <time>2017-07-23T13:57:00Z</time>
      </trkpt>
      <trkpt lat="47.08132" lon="5.22551">
        <ele>134.60000610352</ele>
        <time>2017-07-23T13:57:01Z</time>
      </trkpt>
      <trkpt lat="47.08111" lon="5.22515">
        <ele>134.39999389648</ele>
        <time>2017-07-23T13:57:07Z</time>
      </trkpt>
      <trkpt lat="47.08086" lon="5.22471">
        <ele>134.39999389648</ele>
        <time>2017-07-23T13:57:14Z</time>
      </trkpt>
      <trkpt lat="47.08055" lon="5.22416">
        <ele>134.19999694824</ele>
        <time>2017-07-23T13:57:23Z</time>
      </trkpt>
      <trkpt lat="47.08037" lon="5.22378">
        <ele>134.19999694824</ele>
        <time>2017-07-23T13:57:29Z</time>
      </trkpt>
      <trkpt lat="47.08016" lon="5.22319">
        <ele>134.39999389648</ele>
        <time>2017-07-23T13:57:37Z</time>
      </trkpt>
      <trkpt lat="47.07997" lon="5.22268">
        <ele>134.39999389648</ele>
        <time>2017-07-23T13:57:44Z</time>
      </trkpt>
      <trkpt lat="47.0798" lon="5.22217">
        <ele>134.60000610352</ele>
        <time>2017-07-23T13:57:51Z</time>
      </trkpt>
      <trkpt lat="47.07963" lon="5.22159">
        <ele>134.39999389648</ele>
        <time>2017-07-23T13:58:00Z</time>
      </trkpt>
      <trkpt lat="47.0795" lon="5.22101">
        <ele>134.19999694824</ele>
        <time>2017-07-23T13:58:08Z</time>
      </trkpt>
      <trkpt lat="47.07937" lon="5.22037">
        <ele>134.19999694824</ele>
        <time>2017-07-23T13:58:17Z</time>
      </trkpt>
      <trkpt lat="47.07925" lon="5.21968">
        <ele>134.39999389648</ele>
        <time>2017-07-23T13:58:26Z</time>
      </trkpt>
      <trkpt lat="47.07921" lon="5.21936">
        <ele>134.60000610352</ele>
        <time>2017-07-23T13:58:30Z</time>
      </trkpt>
      <trkpt lat="47.07917" lon="5.21905">
        <ele>134.39999389648</ele>
        <time>2017-07-23T13:58:34Z</time>
      </trkpt>
      <trkpt lat="47.07912" lon="5.2185">
        <ele>134.60000610352</ele>
        <time>2017-07-23T13:58:41Z</time>
      </trkpt>
      <trkpt lat="47.0791" lon="5.21799">
        <ele>134.60000610352</ele>
        <time>2017-07-23T13:58:48Z</time>
      </trkpt>
      <trkpt lat="47.07911" lon="5.21749">
        <ele>134.60000610352</ele>
        <time>2017-07-23T13:58:55Z</time>
      </trkpt>
      <trkpt lat="47.0791" lon="5.21691">
        <ele>134.60000610352</ele>
        <time>2017-07-23T13:59:03Z</time>
      </trkpt>
      <trkpt lat="47.07907" lon="5.21631">
        <ele>134.80000305176</ele>
        <time>2017-07-23T13:59:11Z</time>
      </trkpt>
      <trkpt lat="47.07905" lon="5.21584">
        <ele>134.80000305176</ele>
        <time>2017-07-23T13:59:18Z</time>
      </trkpt>
      <trkpt lat="47.07903" lon="5.21538">
        <ele>135</ele>
        <time>2017-07-23T13:59:25Z</time>
      </trkpt>
      <trkpt lat="47.07896" lon="5.21491">
        <ele>134.60000610352</ele>
        <time>2017-07-23T13:59:32Z</time>
      </trkpt>
      <trkpt lat="47.07891" lon="5.21472">
        <ele>134.60000610352</ele>
        <time>2017-07-23T13:59:35Z</time>
      </trkpt>
      <trkpt lat="47.07888" lon="5.21452">
        <ele>134.60000610352</ele>
        <time>2017-07-23T13:59:38Z</time>
      </trkpt>
      <trkpt lat="47.07886" lon="5.21445">
        <ele>134.60000610352</ele>
        <time>2017-07-23T13:59:39Z</time>
      </trkpt>
      <trkpt lat="47.07878" lon="5.21418">
        <ele>134.39999389648</ele>
        <time>2017-07-23T13:59:43Z</time>
      </trkpt>
      <trkpt lat="47.07862" lon="5.21374">
        <ele>134.60000610352</ele>
        <time>2017-07-23T13:59:50Z</time>
      </trkpt>
      <trkpt lat="47.07838" lon="5.21325">
        <ele>134.39999389648</ele>
        <time>2017-07-23T13:59:58Z</time>
      </trkpt>
      <trkpt lat="47.07808" lon="5.21279">
        <ele>134.39999389648</ele>
        <time>2017-07-23T14:00:06Z</time>
      </trkpt>
      <trkpt lat="47.07804" lon="5.21273">
        <ele>134.19999694824</ele>
        <time>2017-07-23T14:00:07Z</time>
      </trkpt>
      <trkpt lat="47.078" lon="5.21267">
        <ele>134.19999694824</ele>
        <time>2017-07-23T14:00:08Z</time>
      </trkpt>
      <trkpt lat="47.07785" lon="5.21242">
        <ele>134.19999694824</ele>
        <time>2017-07-23T14:00:12Z</time>
      </trkpt>
      <trkpt lat="47.07748" lon="5.2119">
        <ele>134.39999389648</ele>
        <time>2017-07-23T14:00:21Z</time>
      </trkpt>
      <trkpt lat="47.07724" lon="5.21153">
        <ele>134.39999389648</ele>
        <time>2017-07-23T14:00:27Z</time>
      </trkpt>
      <trkpt lat="47.07684" lon="5.21093">
        <ele>134.39999389648</ele>
        <time>2017-07-23T14:00:37Z</time>
      </trkpt>
      <trkpt lat="47.07655" lon="5.21052">
        <ele>134.19999694824</ele>
        <time>2017-07-23T14:00:44Z</time>
      </trkpt>
      <trkpt lat="47.07649" lon="5.21038">
        <ele>134.19999694824</ele>
        <time>2017-07-23T14:00:46Z</time>
      </trkpt>
      <trkpt lat="47.07634" lon="5.20992">
        <ele>134.19999694824</ele>
        <time>2017-07-23T14:00:52Z</time>
      </trkpt>
      <trkpt lat="47.07612" lon="5.20923">
        <ele>134.19999694824</ele>
        <time>2017-07-23T14:01:01Z</time>
      </trkpt>
      <trkpt lat="47.07587" lon="5.20848">
        <ele>134.19999694824</ele>
        <time>2017-07-23T14:01:11Z</time>
      </trkpt>
      <trkpt lat="47.07565" lon="5.20812">
        <ele>134.19999694824</ele>
        <time>2017-07-23T14:01:17Z</time>
      </trkpt>
      <trkpt lat="47.07529" lon="5.20759">
        <ele>134</ele>
        <time>2017-07-23T14:01:26Z</time>
      </trkpt>
      <trkpt lat="47.07496" lon="5.20713">
        <ele>134</ele>
        <time>2017-07-23T14:01:34Z</time>
      </trkpt>
      <trkpt lat="47.07463" lon="5.2068">
        <ele>134.19999694824</ele>
        <time>2017-07-23T14:01:41Z</time>
      </trkpt>
      <trkpt lat="47.07424" lon="5.20643">
        <ele>134.19999694824</ele>
        <time>2017-07-23T14:01:49Z</time>
      </trkpt>
      <trkpt lat="47.07391" lon="5.20611">
        <ele>134.19999694824</ele>
        <time>2017-07-23T14:01:56Z</time>
      </trkpt>
      <trkpt lat="47.07343" lon="5.20565">
        <ele>134.19999694824</ele>
        <time>2017-07-23T14:02:06Z</time>
      </trkpt>
      <trkpt lat="47.07305" lon="5.20526">
        <ele>134.39999389648</ele>
        <time>2017-07-23T14:02:14Z</time>
      </trkpt>
      <trkpt lat="47.0727" lon="5.20492">
        <ele>134.39999389648</ele>
        <time>2017-07-23T14:02:21Z</time>
      </trkpt>
      <trkpt lat="47.07233" lon="5.20454">
        <ele>134.80000305176</ele>
        <time>2017-07-23T14:02:29Z</time>
      </trkpt>
      <trkpt lat="47.07205" lon="5.20423">
        <ele>134.80000305176</ele>
        <time>2017-07-23T14:02:36Z</time>
      </trkpt>
      <trkpt lat="47.07192" lon="5.20409">
        <ele>135</ele>
        <time>2017-07-23T14:02:39Z</time>
      </trkpt>
      <trkpt lat="47.0717" lon="5.20386">
        <ele>135.60000610352</ele>
        <time>2017-07-23T14:02:44Z</time>
      </trkpt>
      <trkpt lat="47.07129" lon="5.20345">
        <ele>136</ele>
        <time>2017-07-23T14:02:53Z</time>
      </trkpt>
      <trkpt lat="47.07091" lon="5.2031">
        <ele>136.19999694824</ele>
        <time>2017-07-23T14:03:01Z</time>
      </trkpt>
      <trkpt lat="47.07045" lon="5.20265">
        <ele>136.19999694824</ele>
        <time>2017-07-23T14:03:11Z</time>
      </trkpt>
      <trkpt lat="47.06996" lon="5.20218">
        <ele>136.19999694824</ele>
        <time>2017-07-23T14:03:22Z</time>
      </trkpt>
      <trkpt lat="47.06991" lon="5.20213">
        <ele>136.19999694824</ele>
        <time>2017-07-23T14:03:23Z</time>
      </trkpt>
      <trkpt lat="47.0695" lon="5.20174">
        <ele>136</ele>
        <time>2017-07-23T14:03:32Z</time>
      </trkpt>
      <trkpt lat="47.06906" lon="5.2013">
        <ele>136</ele>
        <time>2017-07-23T14:03:42Z</time>
      </trkpt>
      <trkpt lat="47.06863" lon="5.20088">
        <ele>136.19999694824</ele>
        <time>2017-07-23T14:03:52Z</time>
      </trkpt>
      <trkpt lat="47.0682" lon="5.20047">
        <ele>136.39999389648</ele>
        <time>2017-07-23T14:04:02Z</time>
      </trkpt>
      <trkpt lat="47.06771" lon="5.2">
        <ele>136.39999389648</ele>
        <time>2017-07-23T14:04:13Z</time>
      </trkpt>
      <trkpt lat="47.06722" lon="5.19952">
        <ele>136.19999694824</ele>
        <time>2017-07-23T14:04:24Z</time>
      </trkpt>
      <trkpt lat="47.06683" lon="5.19914">
        <ele>136.60000610352</ele>
        <time>2017-07-23T14:04:33Z</time>
      </trkpt>
      <trkpt lat="47.06649" lon="5.19887">
        <ele>136.60000610352</ele>
        <time>2017-07-23T14:04:40Z</time>
      </trkpt>
      <trkpt lat="47.06611" lon="5.19855">
        <ele>136.80000305176</ele>
        <time>2017-07-23T14:04:48Z</time>
      </trkpt>
      <trkpt lat="47.06564" lon="5.1981">
        <ele>136.80000305176</ele>
        <time>2017-07-23T14:04:58Z</time>
      </trkpt>
      <trkpt lat="47.06519" lon="5.19765">
        <ele>136.80000305176</ele>
        <time>2017-07-23T14:05:08Z</time>
      </trkpt>
      <trkpt lat="47.06479" lon="5.19727">
        <ele>136.60000610352</ele>
        <time>2017-07-23T14:05:17Z</time>
      </trkpt>
      <trkpt lat="47.06441" lon="5.19686">
        <ele>136.60000610352</ele>
        <time>2017-07-23T14:05:26Z</time>
      </trkpt>
      <trkpt lat="47.06398" lon="5.1964">
        <ele>136.60000610352</ele>
        <time>2017-07-23T14:05:36Z</time>
      </trkpt>
      <trkpt lat="47.06357" lon="5.196">
        <ele>136.80000305176</ele>
        <time>2017-07-23T14:05:45Z</time>
      </trkpt>
      <trkpt lat="47.06319" lon="5.19564">
        <ele>137</ele>
        <time>2017-07-23T14:05:53Z</time>
      </trkpt>
      <trkpt lat="47.06279" lon="5.19524">
        <ele>136.80000305176</ele>
        <time>2017-07-23T14:06:02Z</time>
      </trkpt>
      <trkpt lat="47.06233" lon="5.19481">
        <ele>137</ele>
        <time>2017-07-23T14:06:12Z</time>
      </trkpt>
      <trkpt lat="47.06228" lon="5.19476">
        <ele>137</ele>
        <time>2017-07-23T14:06:13Z</time>
      </trkpt>
      <trkpt lat="47.06189" lon="5.19437">
        <ele>137.19999694824</ele>
        <time>2017-07-23T14:06:21Z</time>
      </trkpt>
      <trkpt lat="47.06151" lon="5.19399">
        <ele>137</ele>
        <time>2017-07-23T14:06:29Z</time>
      </trkpt>
      <trkpt lat="47.06109" lon="5.19359">
        <ele>137</ele>
        <time>2017-07-23T14:06:38Z</time>
      </trkpt>
      <trkpt lat="47.06063" lon="5.19314">
        <ele>137.39999389648</ele>
        <time>2017-07-23T14:06:48Z</time>
      </trkpt>
      <trkpt lat="47.06019" lon="5.19271">
        <ele>137.19999694824</ele>
        <time>2017-07-23T14:06:58Z</time>
      </trkpt>
      <trkpt lat="47.0598" lon="5.19234">
        <ele>137.39999389648</ele>
        <time>2017-07-23T14:07:07Z</time>
      </trkpt>
      <trkpt lat="47.05948" lon="5.19203">
        <ele>137.39999389648</ele>
        <time>2017-07-23T14:07:15Z</time>
      </trkpt>
      <trkpt lat="47.05912" lon="5.19168">
        <ele>137.19999694824</ele>
        <time>2017-07-23T14:07:24Z</time>
      </trkpt>
      <trkpt lat="47.0588" lon="5.19136">
        <ele>137.19999694824</ele>
        <time>2017-07-23T14:07:32Z</time>
      </trkpt>
      <trkpt lat="47.0585" lon="5.19108">
        <ele>137.19999694824</ele>
        <time>2017-07-23T14:07:39Z</time>
      </trkpt>
      <trkpt lat="47.05824" lon="5.19083">
        <ele>137</ele>
        <time>2017-07-23T14:07:45Z</time>
      </trkpt>
      <trkpt lat="47.05786" lon="5.19043">
        <ele>137</ele>
        <time>2017-07-23T14:07:54Z</time>
      </trkpt>
      <trkpt lat="47.05741" lon="5.18997">
        <ele>137</ele>
        <time>2017-07-23T14:08:05Z</time>
      </trkpt>
      <trkpt lat="47.05695" lon="5.18951">
        <ele>136.80000305176</ele>
        <time>2017-07-23T14:08:16Z</time>
      </trkpt>
      <trkpt lat="47.0565" lon="5.18905">
        <ele>136.80000305176</ele>
        <time>2017-07-23T14:08:27Z</time>
      </trkpt>
      <trkpt lat="47.05616" lon="5.18869">
        <ele>137.19999694824</ele>
        <time>2017-07-23T14:08:35Z</time>
      </trkpt>
      <trkpt lat="47.05579" lon="5.18832">
        <ele>137.39999389648</ele>
        <time>2017-07-23T14:08:43Z</time>
      </trkpt>
      <trkpt lat="47.05533" lon="5.18784">
        <ele>137.39999389648</ele>
        <time>2017-07-23T14:08:53Z</time>
      </trkpt>
      <trkpt lat="47.05488" lon="5.1874">
        <ele>137.60000610352</ele>
        <time>2017-07-23T14:09:03Z</time>
      </trkpt>
      <trkpt lat="47.05463" lon="5.18723">
        <ele>137.39999389648</ele>
        <time>2017-07-23T14:09:08Z</time>
      </trkpt>
      <trkpt lat="47.05458" lon="5.18723">
        <ele>137.39999389648</ele>
        <time>2017-07-23T14:09:09Z</time>
      </trkpt>
      <trkpt lat="47.05443" lon="5.18732">
        <ele>137.19999694824</ele>
        <time>2017-07-23T14:09:12Z</time>
      </trkpt>
      <trkpt lat="47.05435" lon="5.18744">
        <ele>137</ele>
        <time>2017-07-23T14:09:14Z</time>
      </trkpt>
      <trkpt lat="47.05425" lon="5.18755">
        <ele>136.80000305176</ele>
        <time>2017-07-23T14:09:16Z</time>
      </trkpt>
      <trkpt lat="47.0542" lon="5.1876">
        <ele>136.80000305176</ele>
        <time>2017-07-23T14:09:17Z</time>
      </trkpt>
      <trkpt lat="47.05394" lon="5.18784">
        <ele>136.60000610352</ele>
        <time>2017-07-23T14:09:22Z</time>
      </trkpt>
      <trkpt lat="47.05347" lon="5.18825">
        <ele>137</ele>
        <time>2017-07-23T14:09:31Z</time>
      </trkpt>
      <trkpt lat="47.05331" lon="5.18838">
        <ele>137.19999694824</ele>
        <time>2017-07-23T14:09:34Z</time>
      </trkpt>
      <trkpt lat="47.05314" lon="5.18845">
        <ele>137.19999694824</ele>
        <time>2017-07-23T14:09:37Z</time>
      </trkpt>
      <trkpt lat="47.0527" lon="5.18862">
        <ele>137.39999389648</ele>
        <time>2017-07-23T14:09:45Z</time>
      </trkpt>
      <trkpt lat="47.0526" lon="5.18868">
        <ele>137.60000610352</ele>
        <time>2017-07-23T14:09:47Z</time>
      </trkpt>
      <trkpt lat="47.05248" lon="5.18873">
        <ele>137.80000305176</ele>
        <time>2017-07-23T14:09:50Z</time>
      </trkpt>
      <trkpt lat="47.05245" lon="5.18863">
        <ele>137.80000305176</ele>
        <time>2017-07-23T14:09:52Z</time>
      </trkpt>
      <trkpt lat="47.05248" lon="5.18853">
        <ele>137.80000305176</ele>
        <time>2017-07-23T14:09:55Z</time>
      </trkpt>
      <trkpt lat="47.05256" lon="5.18848">
        <ele>137.80000305176</ele>
        <time>2017-07-23T14:09:58Z</time>
      </trkpt>
      <trkpt lat="47.0526" lon="5.18847">
        <ele>137.80000305176</ele>
        <time>2017-07-23T14:09:59Z</time>
      </trkpt>
      <trkpt lat="47.05264" lon="5.18844">
        <ele>137.80000305176</ele>
        <time>2017-07-23T14:10:00Z</time>
      </trkpt>
      <trkpt lat="47.05272" lon="5.18834">
        <ele>137.80000305176</ele>
        <time>2017-07-23T14:10:02Z</time>
      </trkpt>
      <trkpt lat="47.05301" lon="5.18803">
        <ele>137.80000305176</ele>
        <time>2017-07-23T14:10:08Z</time>
      </trkpt>
      <trkpt lat="47.0531" lon="5.18791">
        <ele>138.19999694824</ele>
        <time>2017-07-23T14:10:10Z</time>
      </trkpt>
      <trkpt lat="47.05334" lon="5.18767">
        <ele>138.19999694824</ele>
        <time>2017-07-23T14:10:15Z</time>
      </trkpt>
      <trkpt lat="47.05362" lon="5.18736">
        <ele>139</ele>
        <time>2017-07-23T14:10:22Z</time>
      </trkpt>
      <trkpt lat="47.0537" lon="5.18727">
        <ele>139.19999694824</ele>
        <time>2017-07-23T14:10:24Z</time>
      </trkpt>
      <trkpt lat="47.05391" lon="5.18704">
        <ele>140.39999389648</ele>
        <time>2017-07-23T14:10:30Z</time>
      </trkpt>
      <trkpt lat="47.05394" lon="5.187">
        <ele>140.60000610352</ele>
        <time>2017-07-23T14:10:31Z</time>
      </trkpt>
      <trkpt lat="47.05398" lon="5.18697">
        <ele>140.80000305176</ele>
        <time>2017-07-23T14:10:32Z</time>
      </trkpt>
      <trkpt lat="47.05405" lon="5.18689">
        <ele>141.39999389648</ele>
        <time>2017-07-23T14:10:34Z</time>
      </trkpt>
      <trkpt lat="47.0542" lon="5.18671">
        <ele>142.60000610352</ele>
        <time>2017-07-23T14:10:38Z</time>
      </trkpt>
      <trkpt lat="47.05444" lon="5.18645">
        <ele>143.80000305176</ele>
        <time>2017-07-23T14:10:44Z</time>
      </trkpt>
      <trkpt lat="47.05448" lon="5.1864">
        <ele>144</ele>
        <time>2017-07-23T14:10:45Z</time>
      </trkpt>
      <trkpt lat="47.05485" lon="5.18599">
        <ele>144</ele>
        <time>2017-07-23T14:10:54Z</time>
      </trkpt>
      <trkpt lat="47.05514" lon="5.18566">
        <ele>143.19999694824</ele>
        <time>2017-07-23T14:11:00Z</time>
      </trkpt>
      <trkpt lat="47.05537" lon="5.18542">
        <ele>142.60000610352</ele>
        <time>2017-07-23T14:11:04Z</time>
      </trkpt>
      <trkpt lat="47.05547" lon="5.18528">
        <ele>142.19999694824</ele>
        <time>2017-07-23T14:11:06Z</time>
      </trkpt>
      <trkpt lat="47.05563" lon="5.1851">
        <ele>141.39999389648</ele>
        <time>2017-07-23T14:11:09Z</time>
      </trkpt>
      <trkpt lat="47.05572" lon="5.18502">
        <ele>140.80000305176</ele>
        <time>2017-07-23T14:11:11Z</time>
      </trkpt>
      <trkpt lat="47.05577" lon="5.18508">
        <ele>140.19999694824</ele>
        <time>2017-07-23T14:11:13Z</time>
      </trkpt>
      <trkpt lat="47.05572" lon="5.18525">
        <ele>139.39999389648</ele>
        <time>2017-07-23T14:11:16Z</time>
      </trkpt>
      <trkpt lat="47.05568" lon="5.18529">
        <ele>139</ele>
        <time>2017-07-23T14:11:17Z</time>
      </trkpt>
      <trkpt lat="47.05557" lon="5.18549">
        <ele>138.19999694824</ele>
        <time>2017-07-23T14:11:20Z</time>
      </trkpt>
      <trkpt lat="47.05553" lon="5.18556">
        <ele>138</ele>
        <time>2017-07-23T14:11:21Z</time>
      </trkpt>
      <trkpt lat="47.05549" lon="5.18563">
        <ele>138</ele>
        <time>2017-07-23T14:11:22Z</time>
      </trkpt>
      <trkpt lat="47.05529" lon="5.18598">
        <ele>137.60000610352</ele>
        <time>2017-07-23T14:11:27Z</time>
      </trkpt>
      <trkpt lat="47.05511" lon="5.18635">
        <ele>137.19999694824</ele>
        <time>2017-07-23T14:11:33Z</time>
      </trkpt>
      <trkpt lat="47.055" lon="5.1864">
        <ele>137.19999694824</ele>
        <time>2017-07-23T14:11:36Z</time>
      </trkpt>
      <trkpt lat="47.05493" lon="5.18632">
        <ele>137.19999694824</ele>
        <time>2017-07-23T14:11:39Z</time>
      </trkpt>
      <trkpt lat="47.05491" lon="5.18629">
        <ele>137.19999694824</ele>
        <time>2017-07-23T14:11:40Z</time>
      </trkpt>
      <trkpt lat="47.05476" lon="5.18613">
        <ele>137.60000610352</ele>
        <time>2017-07-23T14:11:47Z</time>
      </trkpt>
      <trkpt lat="47.05459" lon="5.18593">
        <ele>137.60000610352</ele>
        <time>2017-07-23T14:11:53Z</time>
      </trkpt>
      <trkpt lat="47.05448" lon="5.18582">
        <ele>137.60000610352</ele>
        <time>2017-07-23T14:11:58Z</time>
      </trkpt>
      <trkpt lat="47.05442" lon="5.18577">
        <ele>137.19999694824</ele>
        <time>2017-07-23T14:12:01Z</time>
      </trkpt>
      <trkpt lat="47.05442" lon="5.18574">
        <ele>137.19999694824</ele>
        <time>2017-07-23T14:12:02Z</time>
      </trkpt>
      <trkpt lat="47.05431" lon="5.18562">
        <ele>137.19999694824</ele>
        <time>2017-07-23T14:12:08Z</time>
      </trkpt>
      <trkpt lat="47.05416" lon="5.18546">
        <ele>137.39999389648</ele>
        <time>2017-07-23T14:12:13Z</time>
      </trkpt>
      <trkpt lat="47.0539" lon="5.18517">
        <ele>137.60000610352</ele>
        <time>2017-07-23T14:12:21Z</time>
      </trkpt>
      <trkpt lat="47.05369" lon="5.18493">
        <ele>137.39999389648</ele>
        <time>2017-07-23T14:12:28Z</time>
      </trkpt>
      <trkpt lat="47.05344" lon="5.18466">
        <ele>137.60000610352</ele>
        <time>2017-07-23T14:12:34Z</time>
      </trkpt>
      <trkpt lat="47.05314" lon="5.18432">
        <ele>138.19999694824</ele>
        <time>2017-07-23T14:12:41Z</time>
      </trkpt>
      <trkpt lat="47.05284" lon="5.18399">
        <ele>138</ele>
        <time>2017-07-23T14:12:48Z</time>
      </trkpt>
      <trkpt lat="47.05241" lon="5.18352">
        <ele>137.80000305176</ele>
        <time>2017-07-23T14:12:58Z</time>
      </trkpt>
      <trkpt lat="47.05198" lon="5.18304">
        <ele>138.19999694824</ele>
        <time>2017-07-23T14:13:08Z</time>
      </trkpt>
      <trkpt lat="47.05185" lon="5.1829">
        <ele>138.19999694824</ele>
        <time>2017-07-23T14:13:11Z</time>
      </trkpt>
      <trkpt lat="47.05146" lon="5.18245">
        <ele>138.19999694824</ele>
        <time>2017-07-23T14:13:20Z</time>
      </trkpt>
      <trkpt lat="47.05103" lon="5.18195">
        <ele>137.80000305176</ele>
        <time>2017-07-23T14:13:30Z</time>
      </trkpt>
      <trkpt lat="47.05094" lon="5.18185">
        <ele>137.80000305176</ele>
        <time>2017-07-23T14:13:32Z</time>
      </trkpt>
      <trkpt lat="47.0505" lon="5.18135">
        <ele>138</ele>
        <time>2017-07-23T14:13:42Z</time>
      </trkpt>
      <trkpt lat="47.05014" lon="5.18092">
        <ele>138.19999694824</ele>
        <time>2017-07-23T14:13:50Z</time>
      </trkpt>
      <trkpt lat="47.04979" lon="5.18051">
        <ele>138.19999694824</ele>
        <time>2017-07-23T14:13:58Z</time>
      </trkpt>
      <trkpt lat="47.04975" lon="5.18046">
        <ele>138</ele>
        <time>2017-07-23T14:13:59Z</time>
      </trkpt>
      <trkpt lat="47.04954" lon="5.18021">
        <ele>138</ele>
        <time>2017-07-23T14:14:04Z</time>
      </trkpt>
      <trkpt lat="47.04917" lon="5.17979">
        <ele>138.19999694824</ele>
        <time>2017-07-23T14:14:13Z</time>
      </trkpt>
      <trkpt lat="47.04886" lon="5.1794">
        <ele>138.19999694824</ele>
        <time>2017-07-23T14:14:21Z</time>
      </trkpt>
      <trkpt lat="47.04854" lon="5.179">
        <ele>138.19999694824</ele>
        <time>2017-07-23T14:14:29Z</time>
      </trkpt>
      <trkpt lat="47.04817" lon="5.17856">
        <ele>138</ele>
        <time>2017-07-23T14:14:38Z</time>
      </trkpt>
      <trkpt lat="47.04777" lon="5.17807">
        <ele>138.19999694824</ele>
        <time>2017-07-23T14:14:48Z</time>
      </trkpt>
      <trkpt lat="47.04744" lon="5.17767">
        <ele>138.19999694824</ele>
        <time>2017-07-23T14:14:56Z</time>
      </trkpt>
      <trkpt lat="47.04717" lon="5.17732">
        <ele>138.19999694824</ele>
        <time>2017-07-23T14:15:03Z</time>
      </trkpt>
      <trkpt lat="47.04676" lon="5.17682">
        <ele>138</ele>
        <time>2017-07-23T14:15:13Z</time>
      </trkpt>
      <trkpt lat="47.04636" lon="5.17631">
        <ele>138</ele>
        <time>2017-07-23T14:15:23Z</time>
      </trkpt>
      <trkpt lat="47.046" lon="5.17585">
        <ele>138</ele>
        <time>2017-07-23T14:15:32Z</time>
      </trkpt>
      <trkpt lat="47.0456" lon="5.17534">
        <ele>138</ele>
        <time>2017-07-23T14:15:42Z</time>
      </trkpt>
      <trkpt lat="47.04529" lon="5.17493">
        <ele>138</ele>
        <time>2017-07-23T14:15:50Z</time>
      </trkpt>
      <trkpt lat="47.04491" lon="5.17445">
        <ele>138</ele>
        <time>2017-07-23T14:15:59Z</time>
      </trkpt>
      <trkpt lat="47.04459" lon="5.17403">
        <ele>138.19999694824</ele>
        <time>2017-07-23T14:16:07Z</time>
      </trkpt>
      <trkpt lat="47.04424" lon="5.17357">
        <ele>138.60000610352</ele>
        <time>2017-07-23T14:16:16Z</time>
      </trkpt>
      <trkpt lat="47.04389" lon="5.17309">
        <ele>138.60000610352</ele>
        <time>2017-07-23T14:16:25Z</time>
      </trkpt>
      <trkpt lat="47.04362" lon="5.17274">
        <ele>138.80000305176</ele>
        <time>2017-07-23T14:16:32Z</time>
      </trkpt>
      <trkpt lat="47.04334" lon="5.17235">
        <ele>138.80000305176</ele>
        <time>2017-07-23T14:16:40Z</time>
      </trkpt>
      <trkpt lat="47.04307" lon="5.17201">
        <ele>138.19999694824</ele>
        <time>2017-07-23T14:16:47Z</time>
      </trkpt>
      <trkpt lat="47.04277" lon="5.1716">
        <ele>138</ele>
        <time>2017-07-23T14:16:55Z</time>
      </trkpt>
      <trkpt lat="47.04244" lon="5.17115">
        <ele>138.60000610352</ele>
        <time>2017-07-23T14:17:04Z</time>
      </trkpt>
      <trkpt lat="47.04212" lon="5.17072">
        <ele>138.60000610352</ele>
        <time>2017-07-23T14:17:13Z</time>
      </trkpt>
      <trkpt lat="47.04178" lon="5.17025">
        <ele>138.60000610352</ele>
        <time>2017-07-23T14:17:23Z</time>
      </trkpt>
      <trkpt lat="47.04147" lon="5.16982">
        <ele>138.60000610352</ele>
        <time>2017-07-23T14:17:32Z</time>
      </trkpt>
      <trkpt lat="47.04127" lon="5.16953">
        <ele>138.60000610352</ele>
        <time>2017-07-23T14:17:38Z</time>
      </trkpt>
      <trkpt lat="47.0412" lon="5.16944">
        <ele>138.60000610352</ele>
        <time>2017-07-23T14:17:40Z</time>
      </trkpt>
      <trkpt lat="47.04099" lon="5.16914">
        <ele>138.39999389648</ele>
        <time>2017-07-23T14:17:46Z</time>
      </trkpt>
      <trkpt lat="47.04092" lon="5.16904">
        <ele>138.39999389648</ele>
        <time>2017-07-23T14:17:48Z</time>
      </trkpt>
      <trkpt lat="47.04064" lon="5.16863">
        <ele>138.19999694824</ele>
        <time>2017-07-23T14:17:56Z</time>
      </trkpt>
      <trkpt lat="47.04041" lon="5.16829">
        <ele>138.39999389648</ele>
        <time>2017-07-23T14:18:03Z</time>
      </trkpt>
      <trkpt lat="47.04016" lon="5.16795">
        <ele>138.60000610352</ele>
        <time>2017-07-23T14:18:10Z</time>
      </trkpt>
      <trkpt lat="47.03988" lon="5.16755">
        <ele>139</ele>
        <time>2017-07-23T14:18:18Z</time>
      </trkpt>
      <trkpt lat="47.03984" lon="5.1675">
        <ele>139</ele>
        <time>2017-07-23T14:18:19Z</time>
      </trkpt>
      <trkpt lat="47.03953" lon="5.16702">
        <ele>138.60000610352</ele>
        <time>2017-07-23T14:18:28Z</time>
      </trkpt>
      <trkpt lat="47.03923" lon="5.16659">
        <ele>138.60000610352</ele>
        <time>2017-07-23T14:18:36Z</time>
      </trkpt>
      <trkpt lat="47.03894" lon="5.16615">
        <ele>138.60000610352</ele>
        <time>2017-07-23T14:18:44Z</time>
      </trkpt>
      <trkpt lat="47.0386" lon="5.16568">
        <ele>138.60000610352</ele>
        <time>2017-07-23T14:18:53Z</time>
      </trkpt>
      <trkpt lat="47.03824" lon="5.16514">
        <ele>138.60000610352</ele>
        <time>2017-07-23T14:19:03Z</time>
      </trkpt>
      <trkpt lat="47.03783" lon="5.16455">
        <ele>138.39999389648</ele>
        <time>2017-07-23T14:19:14Z</time>
      </trkpt>
      <trkpt lat="47.03753" lon="5.16412">
        <ele>138.39999389648</ele>
        <time>2017-07-23T14:19:22Z</time>
      </trkpt>
      <trkpt lat="47.03727" lon="5.16375">
        <ele>138.60000610352</ele>
        <time>2017-07-23T14:19:29Z</time>
      </trkpt>
      <trkpt lat="47.03698" lon="5.16332">
        <ele>138.39999389648</ele>
        <time>2017-07-23T14:19:37Z</time>
      </trkpt>
      <trkpt lat="47.03669" lon="5.16288">
        <ele>138.39999389648</ele>
        <time>2017-07-23T14:19:45Z</time>
      </trkpt>
      <trkpt lat="47.03635" lon="5.16239">
        <ele>138.60000610352</ele>
        <time>2017-07-23T14:19:54Z</time>
      </trkpt>
      <trkpt lat="47.03604" lon="5.16194">
        <ele>138.60000610352</ele>
        <time>2017-07-23T14:20:02Z</time>
      </trkpt>
      <trkpt lat="47.03571" lon="5.16145">
        <ele>138.60000610352</ele>
        <time>2017-07-23T14:20:11Z</time>
      </trkpt>
      <trkpt lat="47.03541" lon="5.16101">
        <ele>138.60000610352</ele>
        <time>2017-07-23T14:20:19Z</time>
      </trkpt>
      <trkpt lat="47.03513" lon="5.1606">
        <ele>138.39999389648</ele>
        <time>2017-07-23T14:20:27Z</time>
      </trkpt>
      <trkpt lat="47.03484" lon="5.16016">
        <ele>138.39999389648</ele>
        <time>2017-07-23T14:20:35Z</time>
      </trkpt>
      <trkpt lat="47.03448" lon="5.15963">
        <ele>138.39999389648</ele>
        <time>2017-07-23T14:20:45Z</time>
      </trkpt>
      <trkpt lat="47.03416" lon="5.15915">
        <ele>138.39999389648</ele>
        <time>2017-07-23T14:20:54Z</time>
      </trkpt>
      <trkpt lat="47.0338" lon="5.15863">
        <ele>138.39999389648</ele>
        <time>2017-07-23T14:21:04Z</time>
      </trkpt>
      <trkpt lat="47.03344" lon="5.15809">
        <ele>138.60000610352</ele>
        <time>2017-07-23T14:21:14Z</time>
      </trkpt>
      <trkpt lat="47.03314" lon="5.15767">
        <ele>138.60000610352</ele>
        <time>2017-07-23T14:21:22Z</time>
      </trkpt>
      <trkpt lat="47.03283" lon="5.15719">
        <ele>138.80000305176</ele>
        <time>2017-07-23T14:21:30Z</time>
      </trkpt>
      <trkpt lat="47.03245" lon="5.15664">
        <ele>138.80000305176</ele>
        <time>2017-07-23T14:21:39Z</time>
      </trkpt>
      <trkpt lat="47.03212" lon="5.15622">
        <ele>138.80000305176</ele>
        <time>2017-07-23T14:21:47Z</time>
      </trkpt>
      <trkpt lat="47.03197" lon="5.15602">
        <ele>138.80000305176</ele>
        <time>2017-07-23T14:21:51Z</time>
      </trkpt>
      <trkpt lat="47.0319" lon="5.15591">
        <ele>138.80000305176</ele>
        <time>2017-07-23T14:21:53Z</time>
      </trkpt>
      <trkpt lat="47.03162" lon="5.15543">
        <ele>138.60000610352</ele>
        <time>2017-07-23T14:22:00Z</time>
      </trkpt>
      <trkpt lat="47.03128" lon="5.15493">
        <ele>138.80000305176</ele>
        <time>2017-07-23T14:22:08Z</time>
      </trkpt>
      <trkpt lat="47.03094" lon="5.15442">
        <ele>138.80000305176</ele>
        <time>2017-07-23T14:22:16Z</time>
      </trkpt>
      <trkpt lat="47.03053" lon="5.15382">
        <ele>138.39999389648</ele>
        <time>2017-07-23T14:22:26Z</time>
      </trkpt>
      <trkpt lat="47.03012" lon="5.15322">
        <ele>138.39999389648</ele>
        <time>2017-07-23T14:22:36Z</time>
      </trkpt>
      <trkpt lat="47.02973" lon="5.15265">
        <ele>138.60000610352</ele>
        <time>2017-07-23T14:22:46Z</time>
      </trkpt>
      <trkpt lat="47.02942" lon="5.15219">
        <ele>138.60000610352</ele>
        <time>2017-07-23T14:22:54Z</time>
      </trkpt>
      <trkpt lat="47.02907" lon="5.15168">
        <ele>138.60000610352</ele>
        <time>2017-07-23T14:23:03Z</time>
      </trkpt>
      <trkpt lat="47.02876" lon="5.15122">
        <ele>138.80000305176</ele>
        <time>2017-07-23T14:23:11Z</time>
      </trkpt>
      <trkpt lat="47.02842" lon="5.15072">
        <ele>138.80000305176</ele>
        <time>2017-07-23T14:23:19Z</time>
      </trkpt>
      <trkpt lat="47.02803" lon="5.15015">
        <ele>139</ele>
        <time>2017-07-23T14:23:29Z</time>
      </trkpt>
      <trkpt lat="47.02768" lon="5.14964">
        <ele>138.80000305176</ele>
        <time>2017-07-23T14:23:38Z</time>
      </trkpt>
      <trkpt lat="47.0273" lon="5.14907">
        <ele>138.60000610352</ele>
        <time>2017-07-23T14:23:48Z</time>
      </trkpt>
      <trkpt lat="47.02726" lon="5.14902">
        <ele>138.60000610352</ele>
        <time>2017-07-23T14:23:49Z</time>
      </trkpt>
      <trkpt lat="47.02688" lon="5.14845">
        <ele>138.60000610352</ele>
        <time>2017-07-23T14:23:59Z</time>
      </trkpt>
      <trkpt lat="47.02649" lon="5.14787">
        <ele>138.80000305176</ele>
        <time>2017-07-23T14:24:09Z</time>
      </trkpt>
      <trkpt lat="47.02638" lon="5.1477">
        <ele>138.80000305176</ele>
        <time>2017-07-23T14:24:12Z</time>
      </trkpt>
      <trkpt lat="47.02598" lon="5.14712">
        <ele>138.80000305176</ele>
        <time>2017-07-23T14:24:22Z</time>
      </trkpt>
      <trkpt lat="47.02564" lon="5.14661">
        <ele>138.60000610352</ele>
        <time>2017-07-23T14:24:30Z</time>
      </trkpt>
      <trkpt lat="47.02529" lon="5.14608">
        <ele>139</ele>
        <time>2017-07-23T14:24:39Z</time>
      </trkpt>
      <trkpt lat="47.02491" lon="5.14549">
        <ele>139</ele>
        <time>2017-07-23T14:24:49Z</time>
      </trkpt>
      <trkpt lat="47.02461" lon="5.14503">
        <ele>139</ele>
        <time>2017-07-23T14:24:57Z</time>
      </trkpt>
      <trkpt lat="47.0243" lon="5.14459">
        <ele>139</ele>
        <time>2017-07-23T14:25:05Z</time>
      </trkpt>
      <trkpt lat="47.02407" lon="5.14427">
        <ele>138.60000610352</ele>
        <time>2017-07-23T14:25:10Z</time>
      </trkpt>
      <trkpt lat="47.02396" lon="5.14413">
        <ele>137.60000610352</ele>
        <time>2017-07-23T14:25:12Z</time>
      </trkpt>
      <trkpt lat="47.02381" lon="5.14394">
        <ele>136.60000610352</ele>
        <time>2017-07-23T14:25:15Z</time>
      </trkpt>
      <trkpt lat="47.02361" lon="5.14368">
        <ele>136.19999694824</ele>
        <time>2017-07-23T14:25:19Z</time>
      </trkpt>
      <trkpt lat="47.02337" lon="5.14338">
        <ele>136.39999389648</ele>
        <time>2017-07-23T14:25:24Z</time>
      </trkpt>
      <trkpt lat="47.02318" lon="5.14316">
        <ele>136.60000610352</ele>
        <time>2017-07-23T14:25:28Z</time>
      </trkpt>
      <trkpt lat="47.02272" lon="5.14265">
        <ele>136.60000610352</ele>
        <time>2017-07-23T14:25:38Z</time>
      </trkpt>
      <trkpt lat="47.02228" lon="5.14218">
        <ele>136.60000610352</ele>
        <time>2017-07-23T14:25:48Z</time>
      </trkpt>
      <trkpt lat="47.02186" lon="5.14177">
        <ele>136.60000610352</ele>
        <time>2017-07-23T14:25:57Z</time>
      </trkpt>
      <trkpt lat="47.02138" lon="5.14132">
        <ele>136.60000610352</ele>
        <time>2017-07-23T14:26:07Z</time>
      </trkpt>
      <trkpt lat="47.02094" lon="5.14095">
        <ele>136.60000610352</ele>
        <time>2017-07-23T14:26:16Z</time>
      </trkpt>
      <trkpt lat="47.02053" lon="5.14063">
        <ele>136.39999389648</ele>
        <time>2017-07-23T14:26:24Z</time>
      </trkpt>
      <trkpt lat="47.02012" lon="5.14034">
        <ele>136.80000305176</ele>
        <time>2017-07-23T14:26:32Z</time>
      </trkpt>
      <trkpt lat="47.01967" lon="5.14">
        <ele>136.80000305176</ele>
        <time>2017-07-23T14:26:41Z</time>
      </trkpt>
      <trkpt lat="47.01925" lon="5.13973">
        <ele>136.80000305176</ele>
        <time>2017-07-23T14:26:49Z</time>
      </trkpt>
      <trkpt lat="47.01872" lon="5.13942">
        <ele>136.39999389648</ele>
        <time>2017-07-23T14:26:59Z</time>
      </trkpt>
      <trkpt lat="47.01827" lon="5.13918">
        <ele>136.80000305176</ele>
        <time>2017-07-23T14:27:08Z</time>
      </trkpt>
      <trkpt lat="47.01772" lon="5.13891">
        <ele>136.60000610352</ele>
        <time>2017-07-23T14:27:19Z</time>
      </trkpt>
      <trkpt lat="47.01721" lon="5.13869">
        <ele>136.60000610352</ele>
        <time>2017-07-23T14:27:29Z</time>
      </trkpt>
      <trkpt lat="47.0168" lon="5.13853">
        <ele>136.60000610352</ele>
        <time>2017-07-23T14:27:37Z</time>
      </trkpt>
      <trkpt lat="47.01625" lon="5.13834">
        <ele>136.60000610352</ele>
        <time>2017-07-23T14:27:47Z</time>
      </trkpt>
      <trkpt lat="47.01614" lon="5.13831">
        <ele>136.60000610352</ele>
        <time>2017-07-23T14:27:49Z</time>
      </trkpt>
      <trkpt lat="47.01567" lon="5.13818">
        <ele>136.80000305176</ele>
        <time>2017-07-23T14:27:57Z</time>
      </trkpt>
      <trkpt lat="47.01514" lon="5.13807">
        <ele>136.60000610352</ele>
        <time>2017-07-23T14:28:06Z</time>
      </trkpt>
      <trkpt lat="47.01459" lon="5.13796">
        <ele>136.80000305176</ele>
        <time>2017-07-23T14:28:15Z</time>
      </trkpt>
      <trkpt lat="47.01428" lon="5.13792">
        <ele>136.60000610352</ele>
        <time>2017-07-23T14:28:20Z</time>
      </trkpt>
      <trkpt lat="47.01416" lon="5.13791">
        <ele>136.60000610352</ele>
        <time>2017-07-23T14:28:22Z</time>
      </trkpt>
      <trkpt lat="47.01361" lon="5.13785">
        <ele>136.39999389648</ele>
        <time>2017-07-23T14:28:31Z</time>
      </trkpt>
      <trkpt lat="47.01355" lon="5.13785">
        <ele>136.39999389648</ele>
        <time>2017-07-23T14:28:32Z</time>
      </trkpt>
      <trkpt lat="47.013" lon="5.13783">
        <ele>136.39999389648</ele>
        <time>2017-07-23T14:28:41Z</time>
      </trkpt>
      <trkpt lat="47.01245" lon="5.13783">
        <ele>136.39999389648</ele>
        <time>2017-07-23T14:28:50Z</time>
      </trkpt>
      <trkpt lat="47.01192" lon="5.13786">
        <ele>136.39999389648</ele>
        <time>2017-07-23T14:28:59Z</time>
      </trkpt>
      <trkpt lat="47.01138" lon="5.13792">
        <ele>136.39999389648</ele>
        <time>2017-07-23T14:29:08Z</time>
      </trkpt>
      <trkpt lat="47.01132" lon="5.13792">
        <ele>136.39999389648</ele>
        <time>2017-07-23T14:29:09Z</time>
      </trkpt>
      <trkpt lat="47.01079" lon="5.13801">
        <ele>136.39999389648</ele>
        <time>2017-07-23T14:29:18Z</time>
      </trkpt>
      <trkpt lat="47.0102" lon="5.13813">
        <ele>136.60000610352</ele>
        <time>2017-07-23T14:29:28Z</time>
      </trkpt>
      <trkpt lat="47.00966" lon="5.13825">
        <ele>136.19999694824</ele>
        <time>2017-07-23T14:29:37Z</time>
      </trkpt>
      <trkpt lat="47.00922" lon="5.1384">
        <ele>136</ele>
        <time>2017-07-23T14:29:44Z</time>
      </trkpt>
      <trkpt lat="47.00865" lon="5.13859">
        <ele>136</ele>
        <time>2017-07-23T14:29:53Z</time>
      </trkpt>
      <trkpt lat="47.00821" lon="5.13875">
        <ele>136</ele>
        <time>2017-07-23T14:30:00Z</time>
      </trkpt>
      <trkpt lat="47.00777" lon="5.13889">
        <ele>136.19999694824</ele>
        <time>2017-07-23T14:30:07Z</time>
      </trkpt>
      <trkpt lat="47.00737" lon="5.13902">
        <ele>136.19999694824</ele>
        <time>2017-07-23T14:30:14Z</time>
      </trkpt>
      <trkpt lat="47.00731" lon="5.13905">
        <ele>136.39999389648</ele>
        <time>2017-07-23T14:30:15Z</time>
      </trkpt>
      <trkpt lat="47.00691" lon="5.13928">
        <ele>137.39999389648</ele>
        <time>2017-07-23T14:30:22Z</time>
      </trkpt>
      <trkpt lat="47.00664" lon="5.13945">
        <ele>137.60000610352</ele>
        <time>2017-07-23T14:30:27Z</time>
      </trkpt>
      <trkpt lat="47.00647" lon="5.13954">
        <ele>137.80000305176</ele>
        <time>2017-07-23T14:30:30Z</time>
      </trkpt>
      <trkpt lat="47.00606" lon="5.13973">
        <ele>138</ele>
        <time>2017-07-23T14:30:37Z</time>
      </trkpt>
      <trkpt lat="47.0055" lon="5.13995">
        <ele>137.19999694824</ele>
        <time>2017-07-23T14:30:46Z</time>
      </trkpt>
      <trkpt lat="47.00511" lon="5.14008">
        <ele>137.19999694824</ele>
        <time>2017-07-23T14:30:53Z</time>
      </trkpt>
      <trkpt lat="47.00499" lon="5.14009">
        <ele>137.19999694824</ele>
        <time>2017-07-23T14:30:55Z</time>
      </trkpt>
      <trkpt lat="47.00487" lon="5.14005">
        <ele>137.19999694824</ele>
        <time>2017-07-23T14:30:57Z</time>
      </trkpt>
      <trkpt lat="47.0047" lon="5.13997">
        <ele>137</ele>
        <time>2017-07-23T14:31:00Z</time>
      </trkpt>
      <trkpt lat="47.0046" lon="5.13995">
        <ele>137</ele>
        <time>2017-07-23T14:31:02Z</time>
      </trkpt>
      <trkpt lat="47.00457" lon="5.13994">
        <ele>137.39999389648</ele>
        <time>2017-07-23T14:31:04Z</time>
      </trkpt>
      <trkpt lat="47.00452" lon="5.13999">
        <ele>138</ele>
        <time>2017-07-23T14:31:14Z</time>
      </trkpt>
      <trkpt lat="47.0045" lon="5.14">
        <ele>138</ele>
        <time>2017-07-23T14:31:16Z</time>
      </trkpt>
      <trkpt lat="47.00444" lon="5.1401">
        <ele>138.39999389648</ele>
        <time>2017-07-23T14:31:21Z</time>
      </trkpt>
      <trkpt lat="47.00444" lon="5.14013">
        <ele>138.60000610352</ele>
        <time>2017-07-23T14:31:22Z</time>
      </trkpt>
      <trkpt lat="47.00445" lon="5.14015">
        <ele>138.60000610352</ele>
        <time>2017-07-23T14:31:23Z</time>
      </trkpt>
      <trkpt lat="47.00446" lon="5.14019">
        <ele>138.80000305176</ele>
        <time>2017-07-23T14:31:25Z</time>
      </trkpt>
      <trkpt lat="47.00447" lon="5.14022">
        <ele>139</ele>
        <time>2017-07-23T14:31:26Z</time>
      </trkpt>
      <trkpt lat="47.00451" lon="5.14039">
        <ele>140</ele>
        <time>2017-07-23T14:31:31Z</time>
      </trkpt>
      <trkpt lat="47.00455" lon="5.14056">
        <ele>140.80000305176</ele>
        <time>2017-07-23T14:31:37Z</time>
      </trkpt>
      <trkpt lat="47.00456" lon="5.14066">
        <ele>141</ele>
        <time>2017-07-23T14:31:39Z</time>
      </trkpt>
      <trkpt lat="47.00458" lon="5.14077">
        <ele>141</ele>
        <time>2017-07-23T14:31:41Z</time>
      </trkpt>
      <trkpt lat="47.00462" lon="5.14093">
        <ele>141</ele>
        <time>2017-07-23T14:31:44Z</time>
      </trkpt>
      <trkpt lat="47.00463" lon="5.14107">
        <ele>141</ele>
        <time>2017-07-23T14:31:46Z</time>
      </trkpt>
      <trkpt lat="47.00466" lon="5.14123">
        <ele>140.60000610352</ele>
        <time>2017-07-23T14:31:48Z</time>
      </trkpt>
      <trkpt lat="47.00471" lon="5.14147">
        <ele>139.80000305176</ele>
        <time>2017-07-23T14:31:51Z</time>
      </trkpt>
      <trkpt lat="47.00472" lon="5.14155">
        <ele>139.39999389648</ele>
        <time>2017-07-23T14:31:52Z</time>
      </trkpt>
      <trkpt lat="47.00474" lon="5.14166">
        <ele>138.60000610352</ele>
        <time>2017-07-23T14:31:54Z</time>
      </trkpt>
      <trkpt lat="47.00474" lon="5.14171">
        <ele>138.19999694824</ele>
        <time>2017-07-23T14:31:55Z</time>
      </trkpt>
      <trkpt lat="47.00473" lon="5.14177">
        <ele>137.80000305176</ele>
        <time>2017-07-23T14:31:56Z</time>
      </trkpt>
      <trkpt lat="47.00473" lon="5.14183">
        <ele>137.39999389648</ele>
        <time>2017-07-23T14:31:57Z</time>
      </trkpt>
      <trkpt lat="47.0047" lon="5.14203">
        <ele>136.39999389648</ele>
        <time>2017-07-23T14:32:00Z</time>
      </trkpt>
      <trkpt lat="47.00461" lon="5.14235">
        <ele>135.60000610352</ele>
        <time>2017-07-23T14:32:05Z</time>
      </trkpt>
      <trkpt lat="47.00458" lon="5.1424">
        <ele>135.39999389648</ele>
        <time>2017-07-23T14:32:06Z</time>
      </trkpt>
      <trkpt lat="47.0045" lon="5.14258">
        <ele>135.39999389648</ele>
        <time>2017-07-23T14:32:09Z</time>
      </trkpt>
      <trkpt lat="47.00441" lon="5.14275">
        <ele>135.39999389648</ele>
        <time>2017-07-23T14:32:12Z</time>
      </trkpt>
      <trkpt lat="47.00434" lon="5.14287">
        <ele>135.39999389648</ele>
        <time>2017-07-23T14:32:14Z</time>
      </trkpt>
      <trkpt lat="47.00419" lon="5.14308">
        <ele>135.60000610352</ele>
        <time>2017-07-23T14:32:18Z</time>
      </trkpt>
      <trkpt lat="47.00415" lon="5.14312">
        <ele>135.60000610352</ele>
        <time>2017-07-23T14:32:19Z</time>
      </trkpt>
      <trkpt lat="47.00406" lon="5.14319">
        <ele>135.60000610352</ele>
        <time>2017-07-23T14:32:22Z</time>
      </trkpt>
      <trkpt lat="47.00396" lon="5.14321">
        <ele>135.60000610352</ele>
        <time>2017-07-23T14:32:26Z</time>
      </trkpt>
      <trkpt lat="47.00387" lon="5.14318">
        <ele>135.39999389648</ele>
        <time>2017-07-23T14:32:31Z</time>
      </trkpt>
      <trkpt lat="47.00385" lon="5.14319">
        <ele>135.19999694824</ele>
        <time>2017-07-23T14:32:32Z</time>
      </trkpt>
      <trkpt lat="47.00386" lon="5.14322">
        <ele>135.19999694824</ele>
        <time>2017-07-23T14:32:34Z</time>
      </trkpt>
      <trkpt lat="47.0039" lon="5.14322">
        <ele>135</ele>
        <time>2017-07-23T14:32:36Z</time>
      </trkpt>
      <trkpt lat="47.00394" lon="5.14322">
        <ele>135</ele>
        <time>2017-07-23T14:32:38Z</time>
      </trkpt>
      <trkpt lat="47.00395" lon="5.14324">
        <ele>135</ele>
        <time>2017-07-23T14:32:39Z</time>
      </trkpt>
      <trkpt lat="47.00396" lon="5.14331">
        <ele>135.19999694824</ele>
        <time>2017-07-23T14:32:42Z</time>
      </trkpt>
      <trkpt lat="47.00398" lon="5.14333">
        <ele>135</ele>
        <time>2017-07-23T14:32:43Z</time>
      </trkpt>
      <trkpt lat="47.00405" lon="5.14333">
        <ele>135</ele>
        <time>2017-07-23T14:32:46Z</time>
      </trkpt>
      <trkpt lat="47.00413" lon="5.14324">
        <ele>135.19999694824</ele>
        <time>2017-07-23T14:32:50Z</time>
      </trkpt>
      <trkpt lat="47.00424" lon="5.14327">
        <ele>135.39999389648</ele>
        <time>2017-07-23T14:32:55Z</time>
      </trkpt>
      <trkpt lat="47.00425" lon="5.14335">
        <ele>135.60000610352</ele>
        <time>2017-07-23T14:32:59Z</time>
      </trkpt>
      <trkpt lat="47.00425" lon="5.14342">
        <ele>135.39999389648</ele>
        <time>2017-07-23T14:33:51Z</time>
      </trkpt>
      <trkpt lat="47.00427" lon="5.14342">
        <ele>135.39999389648</ele>
        <time>2017-07-23T14:33:52Z</time>
      </trkpt>
      <trkpt lat="47.00439" lon="5.14338">
        <ele>135.39999389648</ele>
        <time>2017-07-23T14:33:56Z</time>
      </trkpt>
      <trkpt lat="47.00442" lon="5.14337">
        <ele>135.39999389648</ele>
        <time>2017-07-23T14:33:57Z</time>
      </trkpt>
      <trkpt lat="47.00454" lon="5.14339">
        <ele>135.60000610352</ele>
        <time>2017-07-23T14:34:02Z</time>
      </trkpt>
      <trkpt lat="47.00462" lon="5.14347">
        <ele>135.60000610352</ele>
        <time>2017-07-23T14:34:07Z</time>
      </trkpt>
      <trkpt lat="47.00461" lon="5.14348">
        <ele>135.60000610352</ele>
        <time>2017-07-23T14:34:08Z</time>
      </trkpt>
      <trkpt lat="47.00455" lon="5.14344">
        <ele>135.60000610352</ele>
        <time>2017-07-23T14:34:11Z</time>
      </trkpt>
      <trkpt lat="47.00452" lon="5.14342">
        <ele>135.60000610352</ele>
        <time>2017-07-23T14:34:12Z</time>
      </trkpt>
      <trkpt lat="47.00431" lon="5.1433">
        <ele>135.80000305176</ele>
        <time>2017-07-23T14:34:18Z</time>
      </trkpt>
      <trkpt lat="47.00418" lon="5.14318">
        <ele>136</ele>
        <time>2017-07-23T14:34:24Z</time>
      </trkpt>
      <trkpt lat="47.00418" lon="5.14311">
        <ele>135.80000305176</ele>
        <time>2017-07-23T14:34:27Z</time>
      </trkpt>
      <trkpt lat="47.00417" lon="5.14308">
        <ele>135.80000305176</ele>
        <time>2017-07-23T14:34:29Z</time>
      </trkpt>
      <trkpt lat="47.00411" lon="5.14312">
        <ele>135.60000610352</ele>
        <time>2017-07-23T14:34:33Z</time>
      </trkpt>
      <trkpt lat="47.00403" lon="5.14317">
        <ele>135.19999694824</ele>
        <time>2017-07-23T14:34:38Z</time>
      </trkpt>
      <trkpt lat="47.00401" lon="5.14318">
        <ele>135.19999694824</ele>
        <time>2017-07-23T14:34:39Z</time>
      </trkpt>
      <trkpt lat="47.00395" lon="5.14318">
        <ele>135.19999694824</ele>
        <time>2017-07-23T14:34:42Z</time>
      </trkpt>
      <trkpt lat="47.00391" lon="5.14314">
        <ele>135.19999694824</ele>
        <time>2017-07-23T14:34:45Z</time>
      </trkpt>
      <trkpt lat="47.00391" lon="5.14319">
        <ele>135</ele>
        <time>2017-07-23T14:35:03Z</time>
      </trkpt>
      <trkpt lat="47.00394" lon="5.14322">
        <ele>135</ele>
        <time>2017-07-23T14:35:05Z</time>
      </trkpt>
      <trkpt lat="47.00402" lon="5.1432">
        <ele>135.19999694824</ele>
        <time>2017-07-23T14:35:08Z</time>
      </trkpt>
      <trkpt lat="47.00417" lon="5.14308">
        <ele>135.19999694824</ele>
        <time>2017-07-23T14:35:13Z</time>
      </trkpt>
      <trkpt lat="47.00427" lon="5.14298">
        <ele>135.60000610352</ele>
        <time>2017-07-23T14:35:16Z</time>
      </trkpt>
      <trkpt lat="47.00437" lon="5.14286">
        <ele>135.80000305176</ele>
        <time>2017-07-23T14:35:19Z</time>
      </trkpt>
      <trkpt lat="47.00445" lon="5.14271">
        <ele>135.80000305176</ele>
        <time>2017-07-23T14:35:22Z</time>
      </trkpt>
      <trkpt lat="47.00451" lon="5.1426">
        <ele>135.80000305176</ele>
        <time>2017-07-23T14:35:24Z</time>
      </trkpt>
      <trkpt lat="47.00463" lon="5.1423">
        <ele>135.60000610352</ele>
        <time>2017-07-23T14:35:30Z</time>
      </trkpt>
      <trkpt lat="47.00471" lon="5.14203">
        <ele>135.80000305176</ele>
        <time>2017-07-23T14:35:36Z</time>
      </trkpt>
      <trkpt lat="47.00471" lon="5.14181">
        <ele>136</ele>
        <time>2017-07-23T14:35:42Z</time>
      </trkpt>
      <trkpt lat="47.00466" lon="5.14184">
        <ele>136</ele>
        <time>2017-07-23T14:35:45Z</time>
      </trkpt>
      <trkpt lat="47.00467" lon="5.14201">
        <ele>135.80000305176</ele>
        <time>2017-07-23T14:35:49Z</time>
      </trkpt>
      <trkpt lat="47.00465" lon="5.14222">
        <ele>135.80000305176</ele>
        <time>2017-07-23T14:35:53Z</time>
      </trkpt>
      <trkpt lat="47.00463" lon="5.14234">
        <ele>135.60000610352</ele>
        <time>2017-07-23T14:35:57Z</time>
      </trkpt>
      <trkpt lat="47.00468" lon="5.14237">
        <ele>135.39999389648</ele>
        <time>2017-07-23T14:36:09Z</time>
      </trkpt>
      <trkpt lat="47.00473" lon="5.14239">
        <ele>135.60000610352</ele>
        <time>2017-07-23T14:36:11Z</time>
      </trkpt>
      <trkpt lat="47.00497" lon="5.14248">
        <ele>135.80000305176</ele>
        <time>2017-07-23T14:36:19Z</time>
      </trkpt>
      <trkpt lat="47.00514" lon="5.14247">
        <ele>135.80000305176</ele>
        <time>2017-07-23T14:36:25Z</time>
      </trkpt>
      <trkpt lat="47.00525" lon="5.14253">
        <ele>136.19999694824</ele>
        <time>2017-07-23T14:36:30Z</time>
      </trkpt>
      <trkpt lat="47.00532" lon="5.14258">
        <ele>136.19999694824</ele>
        <time>2017-07-23T14:36:44Z</time>
      </trkpt>
      <trkpt lat="47.00529" lon="5.14252">
        <ele>136.19999694824</ele>
        <time>2017-07-23T14:36:47Z</time>
      </trkpt>
      <trkpt lat="47.00524" lon="5.14252">
        <ele>136.19999694824</ele>
        <time>2017-07-23T14:36:49Z</time>
      </trkpt>
      <trkpt lat="47.00517" lon="5.14254">
        <ele>136.19999694824</ele>
        <time>2017-07-23T14:36:52Z</time>
      </trkpt>
      <trkpt lat="47.00513" lon="5.14267">
        <ele>136.19999694824</ele>
        <time>2017-07-23T14:36:56Z</time>
      </trkpt>
      <trkpt lat="47.00421" lon="5.14348">
        <ele>178.39999389648</ele>
        <time>2017-07-24T05:48:37Z</time>
      </trkpt>
      <trkpt lat="47.00414" lon="5.14349">
        <ele>177.80000305176</ele>
        <time>2017-07-24T05:48:52Z</time>
      </trkpt>
      <trkpt lat="47.00412" lon="5.14352">
        <ele>177.80000305176</ele>
        <time>2017-07-24T05:48:55Z</time>
      </trkpt>
      <trkpt lat="47.00416" lon="5.14355">
        <ele>178</ele>
        <time>2017-07-24T05:48:59Z</time>
      </trkpt>
      <trkpt lat="47.00421" lon="5.14352">
        <ele>178</ele>
        <time>2017-07-24T05:49:02Z</time>
      </trkpt>
      <trkpt lat="47.0042" lon="5.14349">
        <ele>178</ele>
        <time>2017-07-24T05:49:04Z</time>
      </trkpt>
      <trkpt lat="47.0042" lon="5.14348">
        <ele>177.80000305176</ele>
        <time>2017-07-24T05:49:05Z</time>
      </trkpt>
      <trkpt lat="47.00414" lon="5.14347">
        <ele>177.80000305176</ele>
        <time>2017-07-24T05:49:10Z</time>
      </trkpt>
      <trkpt lat="47.00411" lon="5.14347">
        <ele>177.80000305176</ele>
        <time>2017-07-24T05:49:12Z</time>
      </trkpt>
      <trkpt lat="47.00403" lon="5.14346">
        <ele>178</ele>
        <time>2017-07-24T05:49:17Z</time>
      </trkpt>
      <trkpt lat="47.00391" lon="5.14343">
        <ele>178.19999694824</ele>
        <time>2017-07-24T05:49:24Z</time>
      </trkpt>
      <trkpt lat="47.00385" lon="5.14335">
        <ele>178.19999694824</ele>
        <time>2017-07-24T05:49:29Z</time>
      </trkpt>
      <trkpt lat="47.00386" lon="5.14332">
        <ele>178.19999694824</ele>
        <time>2017-07-24T05:49:30Z</time>
      </trkpt>
      <trkpt lat="47.00387" lon="5.14323">
        <ele>178.19999694824</ele>
        <time>2017-07-24T05:49:34Z</time>
      </trkpt>
      <trkpt lat="47.00392" lon="5.14319">
        <ele>178.39999389648</ele>
        <time>2017-07-24T05:49:38Z</time>
      </trkpt>
      <trkpt lat="47.00399" lon="5.1432">
        <ele>178.60000610352</ele>
        <time>2017-07-24T05:49:42Z</time>
      </trkpt>
      <trkpt lat="47.00401" lon="5.14317">
        <ele>178.60000610352</ele>
        <time>2017-07-24T05:49:54Z</time>
      </trkpt>
      <trkpt lat="47.00397" lon="5.14313">
        <ele>178.60000610352</ele>
        <time>2017-07-24T05:49:56Z</time>
      </trkpt>
      <trkpt lat="47.00392" lon="5.14314">
        <ele>178.60000610352</ele>
        <time>2017-07-24T05:49:58Z</time>
      </trkpt>
      <trkpt lat="47.00386" lon="5.14315">
        <ele>178.60000610352</ele>
        <time>2017-07-24T05:50:00Z</time>
      </trkpt>
      <trkpt lat="47.00366" lon="5.14318">
        <ele>178.39999389648</ele>
        <time>2017-07-24T05:50:15Z</time>
      </trkpt>
      <trkpt lat="47.0036" lon="5.14319">
        <ele>178.39999389648</ele>
        <time>2017-07-24T05:50:17Z</time>
      </trkpt>
      <trkpt lat="47.00344" lon="5.14324">
        <ele>178.39999389648</ele>
        <time>2017-07-24T05:50:23Z</time>
      </trkpt>
      <trkpt lat="47.0032" lon="5.14326">
        <ele>178.80000305176</ele>
        <time>2017-07-24T05:50:30Z</time>
      </trkpt>
      <trkpt lat="47.00293" lon="5.14333">
        <ele>178.80000305176</ele>
        <time>2017-07-24T05:50:37Z</time>
      </trkpt>
      <trkpt lat="47.0027" lon="5.14347">
        <ele>178.60000610352</ele>
        <time>2017-07-24T05:50:44Z</time>
      </trkpt>
      <trkpt lat="47.00257" lon="5.14346">
        <ele>178.60000610352</ele>
        <time>2017-07-24T05:50:48Z</time>
      </trkpt>
      <trkpt lat="47.00241" lon="5.14337">
        <ele>178.39999389648</ele>
        <time>2017-07-24T05:50:52Z</time>
      </trkpt>
      <trkpt lat="47.00237" lon="5.14336">
        <ele>178.19999694824</ele>
        <time>2017-07-24T05:50:53Z</time>
      </trkpt>
      <trkpt lat="47.00193" lon="5.14326">
        <ele>178.19999694824</ele>
        <time>2017-07-24T05:51:03Z</time>
      </trkpt>
      <trkpt lat="47.00162" lon="5.14318">
        <ele>178</ele>
        <time>2017-07-24T05:51:10Z</time>
      </trkpt>
      <trkpt lat="47.00153" lon="5.14319">
        <ele>178</ele>
        <time>2017-07-24T05:51:12Z</time>
      </trkpt>
      <trkpt lat="47.0014" lon="5.14325">
        <ele>178.19999694824</ele>
        <time>2017-07-24T05:51:15Z</time>
      </trkpt>
      <trkpt lat="47.00136" lon="5.14326">
        <ele>178.19999694824</ele>
        <time>2017-07-24T05:51:16Z</time>
      </trkpt>
      <trkpt lat="47.00104" lon="5.14338">
        <ele>178.39999389648</ele>
        <time>2017-07-24T05:51:23Z</time>
      </trkpt>
      <trkpt lat="47.00067" lon="5.14358">
        <ele>178.19999694824</ele>
        <time>2017-07-24T05:51:31Z</time>
      </trkpt>
      <trkpt lat="47.00059" lon="5.14365">
        <ele>178.19999694824</ele>
        <time>2017-07-24T05:51:33Z</time>
      </trkpt>
      <trkpt lat="47.00042" lon="5.14377">
        <ele>178.60000610352</ele>
        <time>2017-07-24T05:51:37Z</time>
      </trkpt>
      <trkpt lat="47.00002" lon="5.14402">
        <ele>179.19999694824</ele>
        <time>2017-07-24T05:51:46Z</time>
      </trkpt>
      <trkpt lat="46.99978" lon="5.14413">
        <ele>179.39999389648</ele>
        <time>2017-07-24T05:51:51Z</time>
      </trkpt>
      <trkpt lat="46.99963" lon="5.14419">
        <ele>179.60000610352</ele>
        <time>2017-07-24T05:51:54Z</time>
      </trkpt>
      <trkpt lat="46.99943" lon="5.14424">
        <ele>179.60000610352</ele>
        <time>2017-07-24T05:51:58Z</time>
      </trkpt>
      <trkpt lat="46.99928" lon="5.14424">
        <ele>179.39999389648</ele>
        <time>2017-07-24T05:52:01Z</time>
      </trkpt>
      <trkpt lat="46.99889" lon="5.14427">
        <ele>179.39999389648</ele>
        <time>2017-07-24T05:52:09Z</time>
      </trkpt>
      <trkpt lat="46.99862" lon="5.1443">
        <ele>180.39999389648</ele>
        <time>2017-07-24T05:52:16Z</time>
      </trkpt>
      <trkpt lat="46.99842" lon="5.14432">
        <ele>181.60000610352</ele>
        <time>2017-07-24T05:52:23Z</time>
      </trkpt>
      <trkpt lat="46.9984" lon="5.14432">
        <ele>181.60000610352</ele>
        <time>2017-07-24T05:52:24Z</time>
      </trkpt>
      <trkpt lat="46.99836" lon="5.14435">
        <ele>181.80000305176</ele>
        <time>2017-07-24T05:52:27Z</time>
      </trkpt>
      <trkpt lat="46.99837" lon="5.14436">
        <ele>182</ele>
        <time>2017-07-24T05:52:28Z</time>
      </trkpt>
      <trkpt lat="46.99842" lon="5.14448">
        <ele>182.19999694824</ele>
        <time>2017-07-24T05:52:32Z</time>
      </trkpt>
      <trkpt lat="46.99843" lon="5.14465">
        <ele>182</ele>
        <time>2017-07-24T05:52:35Z</time>
      </trkpt>
      <trkpt lat="46.99844" lon="5.14479">
        <ele>181.80000305176</ele>
        <time>2017-07-24T05:52:37Z</time>
      </trkpt>
      <trkpt lat="46.99845" lon="5.14525">
        <ele>181</ele>
        <time>2017-07-24T05:52:43Z</time>
      </trkpt>
      <trkpt lat="46.99845" lon="5.14547">
        <ele>180.39999389648</ele>
        <time>2017-07-24T05:52:46Z</time>
      </trkpt>
      <trkpt lat="46.99842" lon="5.1457">
        <ele>180</ele>
        <time>2017-07-24T05:52:50Z</time>
      </trkpt>
      <trkpt lat="46.99839" lon="5.14581">
        <ele>180.19999694824</ele>
        <time>2017-07-24T05:52:59Z</time>
      </trkpt>
      <trkpt lat="46.99842" lon="5.14597">
        <ele>180.19999694824</ele>
        <time>2017-07-24T05:53:05Z</time>
      </trkpt>
      <trkpt lat="46.99842" lon="5.14617">
        <ele>180.39999389648</ele>
        <time>2017-07-24T05:53:10Z</time>
      </trkpt>
      <trkpt lat="46.99844" lon="5.14649">
        <ele>180.80000305176</ele>
        <time>2017-07-24T05:53:17Z</time>
      </trkpt>
      <trkpt lat="46.99847" lon="5.14675">
        <ele>181.19999694824</ele>
        <time>2017-07-24T05:53:24Z</time>
      </trkpt>
      <trkpt lat="46.99847" lon="5.14677">
        <ele>181.39999389648</ele>
        <time>2017-07-24T05:53:25Z</time>
      </trkpt>
      <trkpt lat="46.99844" lon="5.14684">
        <ele>181.39999389648</ele>
        <time>2017-07-24T05:53:29Z</time>
      </trkpt>
      <trkpt lat="46.99846" lon="5.14689">
        <ele>181.19999694824</ele>
        <time>2017-07-24T05:53:34Z</time>
      </trkpt>
      <trkpt lat="46.99848" lon="5.14691">
        <ele>181.19999694824</ele>
        <time>2017-07-24T05:53:37Z</time>
      </trkpt>
      <trkpt lat="46.99848" lon="5.14689">
        <ele>181.19999694824</ele>
        <time>2017-07-24T05:53:39Z</time>
      </trkpt>
      <trkpt lat="46.99845" lon="5.14689">
        <ele>181.19999694824</ele>
        <time>2017-07-24T05:53:42Z</time>
      </trkpt>
      <trkpt lat="46.99842" lon="5.14691">
        <ele>181.39999389648</ele>
        <time>2017-07-24T05:53:47Z</time>
      </trkpt>
      <trkpt lat="46.9984" lon="5.14693">
        <ele>181.39999389648</ele>
        <time>2017-07-24T05:53:49Z</time>
      </trkpt>
      <trkpt lat="46.99828" lon="5.14694">
        <ele>181.60000610352</ele>
        <time>2017-07-24T05:53:55Z</time>
      </trkpt>
      <trkpt lat="46.9983" lon="5.14683">
        <ele>181.39999389648</ele>
        <time>2017-07-24T06:04:13Z</time>
      </trkpt>
      <trkpt lat="46.99832" lon="5.1469">
        <ele>181.19999694824</ele>
        <time>2017-07-24T06:04:26Z</time>
      </trkpt>
      <trkpt lat="46.99836" lon="5.14689">
        <ele>181.19999694824</ele>
        <time>2017-07-24T06:04:29Z</time>
      </trkpt>
      <trkpt lat="46.99841" lon="5.14689">
        <ele>181.19999694824</ele>
        <time>2017-07-24T06:04:31Z</time>
      </trkpt>
      <trkpt lat="46.99849" lon="5.14685">
        <ele>181.39999389648</ele>
        <time>2017-07-24T06:04:36Z</time>
      </trkpt>
      <trkpt lat="46.99851" lon="5.14679">
        <ele>181.39999389648</ele>
        <time>2017-07-24T06:04:38Z</time>
      </trkpt>
      <trkpt lat="46.99851" lon="5.14671">
        <ele>181.39999389648</ele>
        <time>2017-07-24T06:04:40Z</time>
      </trkpt>
      <trkpt lat="46.9985" lon="5.14641">
        <ele>181.19999694824</ele>
        <time>2017-07-24T06:04:46Z</time>
      </trkpt>
      <trkpt lat="46.9985" lon="5.14605">
        <ele>181.19999694824</ele>
        <time>2017-07-24T06:04:53Z</time>
      </trkpt>
      <trkpt lat="46.9985" lon="5.14576">
        <ele>180.80000305176</ele>
        <time>2017-07-24T06:05:00Z</time>
      </trkpt>
      <trkpt lat="46.99846" lon="5.14564">
        <ele>180.19999694824</ele>
        <time>2017-07-24T06:05:12Z</time>
      </trkpt>
      <trkpt lat="46.99845" lon="5.14561">
        <ele>180.19999694824</ele>
        <time>2017-07-24T06:05:13Z</time>
      </trkpt>
      <trkpt lat="46.99843" lon="5.14548">
        <ele>180.19999694824</ele>
        <time>2017-07-24T06:05:17Z</time>
      </trkpt>
      <trkpt lat="46.99843" lon="5.14543">
        <ele>180.19999694824</ele>
        <time>2017-07-24T06:05:18Z</time>
      </trkpt>
      <trkpt lat="46.99844" lon="5.14522">
        <ele>180.19999694824</ele>
        <time>2017-07-24T06:05:22Z</time>
      </trkpt>
      <trkpt lat="46.99845" lon="5.1451">
        <ele>180.19999694824</ele>
        <time>2017-07-24T06:05:24Z</time>
      </trkpt>
      <trkpt lat="46.99845" lon="5.14468">
        <ele>180.60000610352</ele>
        <time>2017-07-24T06:05:32Z</time>
      </trkpt>
      <trkpt lat="46.99844" lon="5.14445">
        <ele>181.19999694824</ele>
        <time>2017-07-24T06:05:37Z</time>
      </trkpt>
      <trkpt lat="46.99843" lon="5.14438">
        <ele>181.60000610352</ele>
        <time>2017-07-24T06:05:39Z</time>
      </trkpt>
      <trkpt lat="46.99843" lon="5.14432">
        <ele>182.19999694824</ele>
        <time>2017-07-24T06:05:55Z</time>
      </trkpt>
      <trkpt lat="46.99842" lon="5.14431">
        <ele>182.19999694824</ele>
        <time>2017-07-24T06:05:56Z</time>
      </trkpt>
      <trkpt lat="46.99839" lon="5.14429">
        <ele>182.19999694824</ele>
        <time>2017-07-24T06:05:58Z</time>
      </trkpt>
      <trkpt lat="46.99835" lon="5.1443">
        <ele>182.39999389648</ele>
        <time>2017-07-24T06:06:00Z</time>
      </trkpt>
      <trkpt lat="46.99832" lon="5.1443">
        <ele>182.39999389648</ele>
        <time>2017-07-24T06:06:01Z</time>
      </trkpt>
      <trkpt lat="46.99813" lon="5.14431">
        <ele>182.19999694824</ele>
        <time>2017-07-24T06:06:06Z</time>
      </trkpt>
      <trkpt lat="46.99798" lon="5.14436">
        <ele>182</ele>
        <time>2017-07-24T06:06:09Z</time>
      </trkpt>
      <trkpt lat="46.99788" lon="5.14442">
        <ele>181.80000305176</ele>
        <time>2017-07-24T06:06:11Z</time>
      </trkpt>
      <trkpt lat="46.99772" lon="5.14452">
        <ele>181.19999694824</ele>
        <time>2017-07-24T06:06:14Z</time>
      </trkpt>
      <trkpt lat="46.99751" lon="5.14465">
        <ele>180.60000610352</ele>
        <time>2017-07-24T06:06:18Z</time>
      </trkpt>
      <trkpt lat="46.99735" lon="5.14473">
        <ele>180.19999694824</ele>
        <time>2017-07-24T06:06:21Z</time>
      </trkpt>
      <trkpt lat="46.9973" lon="5.14476">
        <ele>180</ele>
        <time>2017-07-24T06:06:22Z</time>
      </trkpt>
      <trkpt lat="46.99721" lon="5.14482">
        <ele>180</ele>
        <time>2017-07-24T06:06:24Z</time>
      </trkpt>
      <trkpt lat="46.99705" lon="5.14493">
        <ele>179.80000305176</ele>
        <time>2017-07-24T06:06:28Z</time>
      </trkpt>
      <trkpt lat="46.99696" lon="5.14496">
        <ele>179.80000305176</ele>
        <time>2017-07-24T06:06:30Z</time>
      </trkpt>
      <trkpt lat="46.99691" lon="5.14499">
        <ele>179.80000305176</ele>
        <time>2017-07-24T06:06:31Z</time>
      </trkpt>
      <trkpt lat="46.99673" lon="5.14509">
        <ele>179.80000305176</ele>
        <time>2017-07-24T06:06:35Z</time>
      </trkpt>
      <trkpt lat="46.99665" lon="5.14515">
        <ele>179.80000305176</ele>
        <time>2017-07-24T06:06:37Z</time>
      </trkpt>
      <trkpt lat="46.99653" lon="5.14525">
        <ele>179.80000305176</ele>
        <time>2017-07-24T06:06:40Z</time>
      </trkpt>
      <trkpt lat="46.99649" lon="5.14528">
        <ele>179.80000305176</ele>
        <time>2017-07-24T06:06:41Z</time>
      </trkpt>
      <trkpt lat="46.99645" lon="5.14532">
        <ele>179.80000305176</ele>
        <time>2017-07-24T06:06:42Z</time>
      </trkpt>
      <trkpt lat="46.99634" lon="5.14542">
        <ele>180</ele>
        <time>2017-07-24T06:06:45Z</time>
      </trkpt>
      <trkpt lat="46.99629" lon="5.14545">
        <ele>180</ele>
        <time>2017-07-24T06:06:46Z</time>
      </trkpt>
      <trkpt lat="46.99613" lon="5.14558">
        <ele>179.80000305176</ele>
        <time>2017-07-24T06:06:50Z</time>
      </trkpt>
      <trkpt lat="46.99602" lon="5.14567">
        <ele>179.80000305176</ele>
        <time>2017-07-24T06:06:53Z</time>
      </trkpt>
      <trkpt lat="46.99592" lon="5.14577">
        <ele>179.80000305176</ele>
        <time>2017-07-24T06:06:56Z</time>
      </trkpt>
      <trkpt lat="46.99588" lon="5.1458">
        <ele>179.80000305176</ele>
        <time>2017-07-24T06:06:57Z</time>
      </trkpt>
      <trkpt lat="46.99563" lon="5.14598">
        <ele>179.80000305176</ele>
        <time>2017-07-24T06:07:03Z</time>
      </trkpt>
      <trkpt lat="46.99527" lon="5.14624">
        <ele>179.60000610352</ele>
        <time>2017-07-24T06:07:11Z</time>
      </trkpt>
      <trkpt lat="46.99501" lon="5.14646">
        <ele>179.60000610352</ele>
        <time>2017-07-24T06:07:17Z</time>
      </trkpt>
      <trkpt lat="46.9946" lon="5.14679">
        <ele>179.80000305176</ele>
        <time>2017-07-24T06:07:26Z</time>
      </trkpt>
      <trkpt lat="46.99412" lon="5.14716">
        <ele>179.60000610352</ele>
        <time>2017-07-24T06:07:36Z</time>
      </trkpt>
      <trkpt lat="46.99387" lon="5.14733">
        <ele>179.39999389648</ele>
        <time>2017-07-24T06:07:41Z</time>
      </trkpt>
      <trkpt lat="46.99376" lon="5.14735">
        <ele>179.19999694824</ele>
        <time>2017-07-24T06:07:43Z</time>
      </trkpt>
      <trkpt lat="46.99365" lon="5.14738">
        <ele>179.19999694824</ele>
        <time>2017-07-24T06:07:45Z</time>
      </trkpt>
      <trkpt lat="46.99325" lon="5.14744">
        <ele>179</ele>
        <time>2017-07-24T06:07:52Z</time>
      </trkpt>
      <trkpt lat="46.99284" lon="5.14739">
        <ele>178.80000305176</ele>
        <time>2017-07-24T06:07:59Z</time>
      </trkpt>
      <trkpt lat="46.99233" lon="5.14714">
        <ele>178.39999389648</ele>
        <time>2017-07-24T06:08:08Z</time>
      </trkpt>
      <trkpt lat="46.99195" lon="5.14691">
        <ele>178.19999694824</ele>
        <time>2017-07-24T06:08:15Z</time>
      </trkpt>
      <trkpt lat="46.99165" lon="5.14669">
        <ele>178.39999389648</ele>
        <time>2017-07-24T06:08:21Z</time>
      </trkpt>
      <trkpt lat="46.99126" lon="5.14639">
        <ele>178.60000610352</ele>
        <time>2017-07-24T06:08:29Z</time>
      </trkpt>
      <trkpt lat="46.99077" lon="5.14599">
        <ele>178.60000610352</ele>
        <time>2017-07-24T06:08:39Z</time>
      </trkpt>
      <trkpt lat="46.99061" lon="5.14588">
        <ele>178.60000610352</ele>
        <time>2017-07-24T06:08:42Z</time>
      </trkpt>
      <trkpt lat="46.99046" lon="5.14576">
        <ele>178.39999389648</ele>
        <time>2017-07-24T06:08:45Z</time>
      </trkpt>
      <trkpt lat="46.99012" lon="5.1455">
        <ele>178.19999694824</ele>
        <time>2017-07-24T06:08:52Z</time>
      </trkpt>
      <trkpt lat="46.98984" lon="5.14529">
        <ele>178.39999389648</ele>
        <time>2017-07-24T06:08:58Z</time>
      </trkpt>
      <trkpt lat="46.98951" lon="5.14514">
        <ele>178.19999694824</ele>
        <time>2017-07-24T06:09:04Z</time>
      </trkpt>
      <trkpt lat="46.9894" lon="5.14513">
        <ele>178.19999694824</ele>
        <time>2017-07-24T06:09:06Z</time>
      </trkpt>
      <trkpt lat="46.98934" lon="5.14512">
        <ele>178</ele>
        <time>2017-07-24T06:09:07Z</time>
      </trkpt>
      <trkpt lat="46.98911" lon="5.14511">
        <ele>178</ele>
        <time>2017-07-24T06:09:11Z</time>
      </trkpt>
      <trkpt lat="46.98867" lon="5.14506">
        <ele>178</ele>
        <time>2017-07-24T06:09:19Z</time>
      </trkpt>
      <trkpt lat="46.98827" lon="5.14505">
        <ele>177.80000305176</ele>
        <time>2017-07-24T06:09:26Z</time>
      </trkpt>
      <trkpt lat="46.98805" lon="5.14504">
        <ele>177.80000305176</ele>
        <time>2017-07-24T06:09:30Z</time>
      </trkpt>
      <trkpt lat="46.98795" lon="5.145">
        <ele>177.80000305176</ele>
        <time>2017-07-24T06:09:32Z</time>
      </trkpt>
      <trkpt lat="46.98776" lon="5.14487">
        <ele>177.80000305176</ele>
        <time>2017-07-24T06:09:36Z</time>
      </trkpt>
      <trkpt lat="46.98743" lon="5.14463">
        <ele>178</ele>
        <time>2017-07-24T06:09:43Z</time>
      </trkpt>
      <trkpt lat="46.98717" lon="5.14446">
        <ele>177.80000305176</ele>
        <time>2017-07-24T06:09:48Z</time>
      </trkpt>
      <trkpt lat="46.98684" lon="5.14412">
        <ele>177.60000610352</ele>
        <time>2017-07-24T06:09:55Z</time>
      </trkpt>
      <trkpt lat="46.98679" lon="5.14408">
        <ele>177.60000610352</ele>
        <time>2017-07-24T06:09:56Z</time>
      </trkpt>
      <trkpt lat="46.9867" lon="5.14399">
        <ele>177.60000610352</ele>
        <time>2017-07-24T06:09:58Z</time>
      </trkpt>
      <trkpt lat="46.98665" lon="5.14394">
        <ele>177.60000610352</ele>
        <time>2017-07-24T06:09:59Z</time>
      </trkpt>
      <trkpt lat="46.98656" lon="5.14384">
        <ele>177.60000610352</ele>
        <time>2017-07-24T06:10:01Z</time>
      </trkpt>
      <trkpt lat="46.98646" lon="5.14366">
        <ele>177.80000305176</ele>
        <time>2017-07-24T06:10:04Z</time>
      </trkpt>
      <trkpt lat="46.98622" lon="5.14312">
        <ele>178.19999694824</ele>
        <time>2017-07-24T06:10:12Z</time>
      </trkpt>
      <trkpt lat="46.98599" lon="5.14244">
        <ele>177.80000305176</ele>
        <time>2017-07-24T06:10:21Z</time>
      </trkpt>
      <trkpt lat="46.98576" lon="5.14168">
        <ele>177.80000305176</ele>
        <time>2017-07-24T06:10:31Z</time>
      </trkpt>
      <trkpt lat="46.98555" lon="5.14109">
        <ele>177.80000305176</ele>
        <time>2017-07-24T06:10:39Z</time>
      </trkpt>
      <trkpt lat="46.98546" lon="5.14088">
        <ele>177.80000305176</ele>
        <time>2017-07-24T06:10:42Z</time>
      </trkpt>
      <trkpt lat="46.98537" lon="5.14068">
        <ele>177.80000305176</ele>
        <time>2017-07-24T06:10:45Z</time>
      </trkpt>
      <trkpt lat="46.98517" lon="5.14021">
        <ele>177.80000305176</ele>
        <time>2017-07-24T06:10:52Z</time>
      </trkpt>
      <trkpt lat="46.98491" lon="5.13966">
        <ele>178</ele>
        <time>2017-07-24T06:11:00Z</time>
      </trkpt>
      <trkpt lat="46.98464" lon="5.13912">
        <ele>178</ele>
        <time>2017-07-24T06:11:08Z</time>
      </trkpt>
      <trkpt lat="46.98444" lon="5.13879">
        <ele>177.80000305176</ele>
        <time>2017-07-24T06:11:14Z</time>
      </trkpt>
      <trkpt lat="46.98433" lon="5.1386">
        <ele>177.80000305176</ele>
        <time>2017-07-24T06:11:18Z</time>
      </trkpt>
      <trkpt lat="46.98428" lon="5.13851">
        <ele>177.80000305176</ele>
        <time>2017-07-24T06:11:20Z</time>
      </trkpt>
      <trkpt lat="46.98413" lon="5.13827">
        <ele>177.60000610352</ele>
        <time>2017-07-24T06:11:26Z</time>
      </trkpt>
      <trkpt lat="46.984" lon="5.13803">
        <ele>177.60000610352</ele>
        <time>2017-07-24T06:11:32Z</time>
      </trkpt>
      <trkpt lat="46.98381" lon="5.1377">
        <ele>177.60000610352</ele>
        <time>2017-07-24T06:11:39Z</time>
      </trkpt>
      <trkpt lat="46.98351" lon="5.13724">
        <ele>177.60000610352</ele>
        <time>2017-07-24T06:11:48Z</time>
      </trkpt>
      <trkpt lat="46.98326" lon="5.13693">
        <ele>177.80000305176</ele>
        <time>2017-07-24T06:11:54Z</time>
      </trkpt>
      <trkpt lat="46.98297" lon="5.13666">
        <ele>178.19999694824</ele>
        <time>2017-07-24T06:12:01Z</time>
      </trkpt>
      <trkpt lat="46.98269" lon="5.13647">
        <ele>179.19999694824</ele>
        <time>2017-07-24T06:12:08Z</time>
      </trkpt>
      <trkpt lat="46.9826" lon="5.13641">
        <ele>179.19999694824</ele>
        <time>2017-07-24T06:12:10Z</time>
      </trkpt>
      <trkpt lat="46.98256" lon="5.13637">
        <ele>179.39999389648</ele>
        <time>2017-07-24T06:12:11Z</time>
      </trkpt>
      <trkpt lat="46.98237" lon="5.13622">
        <ele>179.19999694824</ele>
        <time>2017-07-24T06:12:15Z</time>
      </trkpt>
      <trkpt lat="46.98197" lon="5.13592">
        <ele>178.39999389648</ele>
        <time>2017-07-24T06:12:22Z</time>
      </trkpt>
      <trkpt lat="46.98186" lon="5.13583">
        <ele>178.19999694824</ele>
        <time>2017-07-24T06:12:24Z</time>
      </trkpt>
      <trkpt lat="46.98154" lon="5.13557">
        <ele>178</ele>
        <time>2017-07-24T06:12:30Z</time>
      </trkpt>
      <trkpt lat="46.98103" lon="5.13515">
        <ele>178</ele>
        <time>2017-07-24T06:12:40Z</time>
      </trkpt>
      <trkpt lat="46.98093" lon="5.13506">
        <ele>177.80000305176</ele>
        <time>2017-07-24T06:12:42Z</time>
      </trkpt>
      <trkpt lat="46.98052" lon="5.13476">
        <ele>178</ele>
        <time>2017-07-24T06:12:50Z</time>
      </trkpt>
      <trkpt lat="46.98016" lon="5.13445">
        <ele>177.80000305176</ele>
        <time>2017-07-24T06:12:57Z</time>
      </trkpt>
      <trkpt lat="46.97965" lon="5.13404">
        <ele>178</ele>
        <time>2017-07-24T06:13:07Z</time>
      </trkpt>
      <trkpt lat="46.97919" lon="5.13367">
        <ele>178.19999694824</ele>
        <time>2017-07-24T06:13:16Z</time>
      </trkpt>
      <trkpt lat="46.97873" lon="5.13332">
        <ele>178</ele>
        <time>2017-07-24T06:13:25Z</time>
      </trkpt>
      <trkpt lat="46.97822" lon="5.13292">
        <ele>178</ele>
        <time>2017-07-24T06:13:35Z</time>
      </trkpt>
      <trkpt lat="46.97817" lon="5.13288">
        <ele>178</ele>
        <time>2017-07-24T06:13:36Z</time>
      </trkpt>
      <trkpt lat="46.9779" lon="5.13268">
        <ele>178.19999694824</ele>
        <time>2017-07-24T06:13:42Z</time>
      </trkpt>
      <trkpt lat="46.97786" lon="5.13266">
        <ele>178.39999389648</ele>
        <time>2017-07-24T06:13:43Z</time>
      </trkpt>
      <trkpt lat="46.97774" lon="5.13257">
        <ele>179.19999694824</ele>
        <time>2017-07-24T06:13:47Z</time>
      </trkpt>
      <trkpt lat="46.97773" lon="5.13256">
        <ele>179.60000610352</ele>
        <time>2017-07-24T06:13:48Z</time>
      </trkpt>
      <trkpt lat="46.97767" lon="5.13252">
        <ele>180.39999389648</ele>
        <time>2017-07-24T06:13:51Z</time>
      </trkpt>
      <trkpt lat="46.97763" lon="5.13246">
        <ele>180.60000610352</ele>
        <time>2017-07-24T06:13:53Z</time>
      </trkpt>
      <trkpt lat="46.97746" lon="5.13233">
        <ele>180.39999389648</ele>
        <time>2017-07-24T06:13:57Z</time>
      </trkpt>
      <trkpt lat="46.97725" lon="5.13215">
        <ele>179.19999694824</ele>
        <time>2017-07-24T06:14:01Z</time>
      </trkpt>
      <trkpt lat="46.97716" lon="5.13207">
        <ele>178.80000305176</ele>
        <time>2017-07-24T06:14:03Z</time>
      </trkpt>
      <trkpt lat="46.9769" lon="5.13191">
        <ele>178.19999694824</ele>
        <time>2017-07-24T06:14:08Z</time>
      </trkpt>
      <trkpt lat="46.97679" lon="5.13186">
        <ele>178.19999694824</ele>
        <time>2017-07-24T06:14:10Z</time>
      </trkpt>
      <trkpt lat="46.97642" lon="5.13172">
        <ele>178.19999694824</ele>
        <time>2017-07-24T06:14:17Z</time>
      </trkpt>
      <trkpt lat="46.97619" lon="5.13176">
        <ele>178</ele>
        <time>2017-07-24T06:14:21Z</time>
      </trkpt>
      <trkpt lat="46.97613" lon="5.13175">
        <ele>178.19999694824</ele>
        <time>2017-07-24T06:14:22Z</time>
      </trkpt>
      <trkpt lat="46.97596" lon="5.13169">
        <ele>178.19999694824</ele>
        <time>2017-07-24T06:14:25Z</time>
      </trkpt>
      <trkpt lat="46.97585" lon="5.13163">
        <ele>178.19999694824</ele>
        <time>2017-07-24T06:14:27Z</time>
      </trkpt>
      <trkpt lat="46.97543" lon="5.13136">
        <ele>178.19999694824</ele>
        <time>2017-07-24T06:14:35Z</time>
      </trkpt>
      <trkpt lat="46.97494" lon="5.13108">
        <ele>178.19999694824</ele>
        <time>2017-07-24T06:14:44Z</time>
      </trkpt>
      <trkpt lat="46.97454" lon="5.13074">
        <ele>178.19999694824</ele>
        <time>2017-07-24T06:14:52Z</time>
      </trkpt>
      <trkpt lat="46.97417" lon="5.13021">
        <ele>178</ele>
        <time>2017-07-24T06:15:01Z</time>
      </trkpt>
      <trkpt lat="46.9738" lon="5.12955">
        <ele>178.19999694824</ele>
        <time>2017-07-24T06:15:11Z</time>
      </trkpt>
      <trkpt lat="46.97359" lon="5.12917">
        <ele>178</ele>
        <time>2017-07-24T06:15:17Z</time>
      </trkpt>
      <trkpt lat="46.97341" lon="5.12875">
        <ele>178.19999694824</ele>
        <time>2017-07-24T06:15:23Z</time>
      </trkpt>
      <trkpt lat="46.97323" lon="5.12814">
        <ele>178.19999694824</ele>
        <time>2017-07-24T06:15:31Z</time>
      </trkpt>
      <trkpt lat="46.97306" lon="5.12743">
        <ele>178.19999694824</ele>
        <time>2017-07-24T06:15:40Z</time>
      </trkpt>
      <trkpt lat="46.97295" lon="5.1267">
        <ele>178.19999694824</ele>
        <time>2017-07-24T06:15:49Z</time>
      </trkpt>
      <trkpt lat="46.97288" lon="5.12588">
        <ele>178.39999389648</ele>
        <time>2017-07-24T06:15:59Z</time>
      </trkpt>
      <trkpt lat="46.97283" lon="5.12513">
        <ele>178</ele>
        <time>2017-07-24T06:16:08Z</time>
      </trkpt>
      <trkpt lat="46.97279" lon="5.1245">
        <ele>178.19999694824</ele>
        <time>2017-07-24T06:16:16Z</time>
      </trkpt>
      <trkpt lat="46.97273" lon="5.12378">
        <ele>178.19999694824</ele>
        <time>2017-07-24T06:16:25Z</time>
      </trkpt>
      <trkpt lat="46.97261" lon="5.12308">
        <ele>178.19999694824</ele>
        <time>2017-07-24T06:16:34Z</time>
      </trkpt>
      <trkpt lat="46.97249" lon="5.12256">
        <ele>178.19999694824</ele>
        <time>2017-07-24T06:16:41Z</time>
      </trkpt>
      <trkpt lat="46.97244" lon="5.12234">
        <ele>178.19999694824</ele>
        <time>2017-07-24T06:16:44Z</time>
      </trkpt>
      <trkpt lat="46.9724" lon="5.1221">
        <ele>178.19999694824</ele>
        <time>2017-07-24T06:16:47Z</time>
      </trkpt>
      <trkpt lat="46.97225" lon="5.12165">
        <ele>178.19999694824</ele>
        <time>2017-07-24T06:16:53Z</time>
      </trkpt>
      <trkpt lat="46.97192" lon="5.12105">
        <ele>177.80000305176</ele>
        <time>2017-07-24T06:17:02Z</time>
      </trkpt>
      <trkpt lat="46.97163" lon="5.12076">
        <ele>178</ele>
        <time>2017-07-24T06:17:08Z</time>
      </trkpt>
      <trkpt lat="46.97126" lon="5.12051">
        <ele>177.80000305176</ele>
        <time>2017-07-24T06:17:15Z</time>
      </trkpt>
      <trkpt lat="46.97078" lon="5.12021">
        <ele>178</ele>
        <time>2017-07-24T06:17:24Z</time>
      </trkpt>
      <trkpt lat="46.97028" lon="5.11998">
        <ele>177.60000610352</ele>
        <time>2017-07-24T06:17:33Z</time>
      </trkpt>
      <trkpt lat="46.96985" lon="5.11983">
        <ele>177.60000610352</ele>
        <time>2017-07-24T06:17:41Z</time>
      </trkpt>
      <trkpt lat="46.96941" lon="5.11977">
        <ele>177.80000305176</ele>
        <time>2017-07-24T06:17:49Z</time>
      </trkpt>
      <trkpt lat="46.96899" lon="5.11962">
        <ele>177.80000305176</ele>
        <time>2017-07-24T06:17:57Z</time>
      </trkpt>
      <trkpt lat="46.96869" lon="5.11953">
        <ele>178</ele>
        <time>2017-07-24T06:18:03Z</time>
      </trkpt>
      <trkpt lat="46.96835" lon="5.11948">
        <ele>178</ele>
        <time>2017-07-24T06:18:09Z</time>
      </trkpt>
      <trkpt lat="46.96791" lon="5.1194">
        <ele>178</ele>
        <time>2017-07-24T06:18:17Z</time>
      </trkpt>
      <trkpt lat="46.96746" lon="5.11938">
        <ele>177.80000305176</ele>
        <time>2017-07-24T06:18:25Z</time>
      </trkpt>
      <trkpt lat="46.96689" lon="5.1194">
        <ele>177.80000305176</ele>
        <time>2017-07-24T06:18:35Z</time>
      </trkpt>
      <trkpt lat="46.96683" lon="5.11941">
        <ele>177.80000305176</ele>
        <time>2017-07-24T06:18:36Z</time>
      </trkpt>
      <trkpt lat="46.96637" lon="5.11946">
        <ele>177.80000305176</ele>
        <time>2017-07-24T06:18:44Z</time>
      </trkpt>
      <trkpt lat="46.96586" lon="5.11952">
        <ele>177.80000305176</ele>
        <time>2017-07-24T06:18:53Z</time>
      </trkpt>
      <trkpt lat="46.96543" lon="5.11964">
        <ele>177.80000305176</ele>
        <time>2017-07-24T06:19:01Z</time>
      </trkpt>
      <trkpt lat="46.96496" lon="5.11987">
        <ele>177.80000305176</ele>
        <time>2017-07-24T06:19:10Z</time>
      </trkpt>
      <trkpt lat="46.9645" lon="5.12017">
        <ele>177.80000305176</ele>
        <time>2017-07-24T06:19:19Z</time>
      </trkpt>
      <trkpt lat="46.96399" lon="5.12055">
        <ele>177.80000305176</ele>
        <time>2017-07-24T06:19:29Z</time>
      </trkpt>
      <trkpt lat="46.96394" lon="5.12058">
        <ele>177.80000305176</ele>
        <time>2017-07-24T06:19:30Z</time>
      </trkpt>
      <trkpt lat="46.96348" lon="5.12089">
        <ele>177.80000305176</ele>
        <time>2017-07-24T06:19:39Z</time>
      </trkpt>
      <trkpt lat="46.96312" lon="5.12109">
        <ele>178</ele>
        <time>2017-07-24T06:19:46Z</time>
      </trkpt>
      <trkpt lat="46.96276" lon="5.12131">
        <ele>177.60000610352</ele>
        <time>2017-07-24T06:19:53Z</time>
      </trkpt>
      <trkpt lat="46.9627" lon="5.12134">
        <ele>177.60000610352</ele>
        <time>2017-07-24T06:19:54Z</time>
      </trkpt>
      <trkpt lat="46.96227" lon="5.12145">
        <ele>177.60000610352</ele>
        <time>2017-07-24T06:20:02Z</time>
      </trkpt>
      <trkpt lat="46.96221" lon="5.12145">
        <ele>177.60000610352</ele>
        <time>2017-07-24T06:20:03Z</time>
      </trkpt>
      <trkpt lat="46.96194" lon="5.12145">
        <ele>177.60000610352</ele>
        <time>2017-07-24T06:20:08Z</time>
      </trkpt>
      <trkpt lat="46.9615" lon="5.12134">
        <ele>177.80000305176</ele>
        <time>2017-07-24T06:20:16Z</time>
      </trkpt>
      <trkpt lat="46.96114" lon="5.12112">
        <ele>177.80000305176</ele>
        <time>2017-07-24T06:20:23Z</time>
      </trkpt>
      <trkpt lat="46.9611" lon="5.12108">
        <ele>177.80000305176</ele>
        <time>2017-07-24T06:20:24Z</time>
      </trkpt>
      <trkpt lat="46.96091" lon="5.12093">
        <ele>178</ele>
        <time>2017-07-24T06:20:28Z</time>
      </trkpt>
      <trkpt lat="46.96076" lon="5.12085">
        <ele>178</ele>
        <time>2017-07-24T06:20:31Z</time>
      </trkpt>
      <trkpt lat="46.96066" lon="5.12084">
        <ele>178.19999694824</ele>
        <time>2017-07-24T06:20:33Z</time>
      </trkpt>
      <trkpt lat="46.96052" lon="5.12077">
        <ele>178.80000305176</ele>
        <time>2017-07-24T06:20:37Z</time>
      </trkpt>
      <trkpt lat="46.96048" lon="5.12074">
        <ele>179</ele>
        <time>2017-07-24T06:20:38Z</time>
      </trkpt>
      <trkpt lat="46.96045" lon="5.1207">
        <ele>179.39999389648</ele>
        <time>2017-07-24T06:20:39Z</time>
      </trkpt>
      <trkpt lat="46.96033" lon="5.12052">
        <ele>180.19999694824</ele>
        <time>2017-07-24T06:20:43Z</time>
      </trkpt>
      <trkpt lat="46.96027" lon="5.12043">
        <ele>180.39999389648</ele>
        <time>2017-07-24T06:20:45Z</time>
      </trkpt>
      <trkpt lat="46.96017" lon="5.12029">
        <ele>180.60000610352</ele>
        <time>2017-07-24T06:20:48Z</time>
      </trkpt>
      <trkpt lat="46.96014" lon="5.12023">
        <ele>180.80000305176</ele>
        <time>2017-07-24T06:20:49Z</time>
      </trkpt>
      <trkpt lat="46.96001" lon="5.12008">
        <ele>180.60000610352</ele>
        <time>2017-07-24T06:20:52Z</time>
      </trkpt>
      <trkpt lat="46.95975" lon="5.11996">
        <ele>180.39999389648</ele>
        <time>2017-07-24T06:20:57Z</time>
      </trkpt>
      <trkpt lat="46.95943" lon="5.11983">
        <ele>180.80000305176</ele>
        <time>2017-07-24T06:21:04Z</time>
      </trkpt>
      <trkpt lat="46.95931" lon="5.11978">
        <ele>181</ele>
        <time>2017-07-24T06:21:07Z</time>
      </trkpt>
      <trkpt lat="46.95918" lon="5.11975">
        <ele>181.19999694824</ele>
        <time>2017-07-24T06:21:10Z</time>
      </trkpt>
      <trkpt lat="46.95893" lon="5.11976">
        <ele>181.19999694824</ele>
        <time>2017-07-24T06:21:15Z</time>
      </trkpt>
      <trkpt lat="46.95888" lon="5.11978">
        <ele>181.19999694824</ele>
        <time>2017-07-24T06:21:16Z</time>
      </trkpt>
      <trkpt lat="46.95863" lon="5.11988">
        <ele>181.39999389648</ele>
        <time>2017-07-24T06:21:21Z</time>
      </trkpt>
      <trkpt lat="46.95842" lon="5.11999">
        <ele>181.39999389648</ele>
        <time>2017-07-24T06:21:25Z</time>
      </trkpt>
      <trkpt lat="46.95814" lon="5.12024">
        <ele>181.19999694824</ele>
        <time>2017-07-24T06:21:31Z</time>
      </trkpt>
      <trkpt lat="46.95793" lon="5.12063">
        <ele>181.19999694824</ele>
        <time>2017-07-24T06:21:37Z</time>
      </trkpt>
      <trkpt lat="46.95784" lon="5.12104">
        <ele>181.19999694824</ele>
        <time>2017-07-24T06:21:42Z</time>
      </trkpt>
      <trkpt lat="46.95768" lon="5.12168">
        <ele>181.19999694824</ele>
        <time>2017-07-24T06:21:50Z</time>
      </trkpt>
      <trkpt lat="46.95751" lon="5.12237">
        <ele>181.39999389648</ele>
        <time>2017-07-24T06:21:59Z</time>
      </trkpt>
      <trkpt lat="46.95734" lon="5.12308">
        <ele>181.39999389648</ele>
        <time>2017-07-24T06:22:08Z</time>
      </trkpt>
      <trkpt lat="46.95724" lon="5.12345">
        <ele>181.60000610352</ele>
        <time>2017-07-24T06:22:13Z</time>
      </trkpt>
      <trkpt lat="46.95715" lon="5.12354">
        <ele>181.60000610352</ele>
        <time>2017-07-24T06:22:15Z</time>
      </trkpt>
      <trkpt lat="46.95705" lon="5.1236">
        <ele>181.60000610352</ele>
        <time>2017-07-24T06:22:17Z</time>
      </trkpt>
      <trkpt lat="46.95683" lon="5.12368">
        <ele>181.60000610352</ele>
        <time>2017-07-24T06:22:21Z</time>
      </trkpt>
      <trkpt lat="46.95642" lon="5.12384">
        <ele>182</ele>
        <time>2017-07-24T06:22:29Z</time>
      </trkpt>
      <trkpt lat="46.95601" lon="5.12401">
        <ele>182.19999694824</ele>
        <time>2017-07-24T06:22:37Z</time>
      </trkpt>
      <trkpt lat="46.95555" lon="5.12417">
        <ele>182.39999389648</ele>
        <time>2017-07-24T06:22:46Z</time>
      </trkpt>
      <trkpt lat="46.9554" lon="5.12419">
        <ele>182.39999389648</ele>
        <time>2017-07-24T06:22:49Z</time>
      </trkpt>
      <trkpt lat="46.95519" lon="5.12419">
        <ele>182.80000305176</ele>
        <time>2017-07-24T06:22:53Z</time>
      </trkpt>
      <trkpt lat="46.95484" lon="5.1242">
        <ele>183.39999389648</ele>
        <time>2017-07-24T06:23:00Z</time>
      </trkpt>
      <trkpt lat="46.95479" lon="5.12419">
        <ele>183.60000610352</ele>
        <time>2017-07-24T06:23:01Z</time>
      </trkpt>
      <trkpt lat="46.95448" lon="5.12419">
        <ele>184.39999389648</ele>
        <time>2017-07-24T06:23:08Z</time>
      </trkpt>
      <trkpt lat="46.95439" lon="5.12418">
        <ele>184.60000610352</ele>
        <time>2017-07-24T06:23:10Z</time>
      </trkpt>
      <trkpt lat="46.95418" lon="5.12417">
        <ele>185</ele>
        <time>2017-07-24T06:23:15Z</time>
      </trkpt>
      <trkpt lat="46.95414" lon="5.12418">
        <ele>185.19999694824</ele>
        <time>2017-07-24T06:23:16Z</time>
      </trkpt>
      <trkpt lat="46.95402" lon="5.12418">
        <ele>185.60000610352</ele>
        <time>2017-07-24T06:23:19Z</time>
      </trkpt>
      <trkpt lat="46.95398" lon="5.12417">
        <ele>185.80000305176</ele>
        <time>2017-07-24T06:23:20Z</time>
      </trkpt>
      <trkpt lat="46.95394" lon="5.12417">
        <ele>185.80000305176</ele>
        <time>2017-07-24T06:23:21Z</time>
      </trkpt>
      <trkpt lat="46.9537" lon="5.12416">
        <ele>186.80000305176</ele>
        <time>2017-07-24T06:23:27Z</time>
      </trkpt>
      <trkpt lat="46.95351" lon="5.12415">
        <ele>187.39999389648</ele>
        <time>2017-07-24T06:23:32Z</time>
      </trkpt>
      <trkpt lat="46.95335" lon="5.12414">
        <ele>187.80000305176</ele>
        <time>2017-07-24T06:23:36Z</time>
      </trkpt>
      <trkpt lat="46.95323" lon="5.12413">
        <ele>188</ele>
        <time>2017-07-24T06:23:39Z</time>
      </trkpt>
      <trkpt lat="46.953" lon="5.12412">
        <ele>188.80000305176</ele>
        <time>2017-07-24T06:23:45Z</time>
      </trkpt>
      <trkpt lat="46.95296" lon="5.12412">
        <ele>189</ele>
        <time>2017-07-24T06:23:46Z</time>
      </trkpt>
      <trkpt lat="46.95264" lon="5.12411">
        <ele>189.80000305176</ele>
        <time>2017-07-24T06:23:54Z</time>
      </trkpt>
      <trkpt lat="46.9526" lon="5.12411">
        <ele>189.80000305176</ele>
        <time>2017-07-24T06:23:55Z</time>
      </trkpt>
      <trkpt lat="46.95229" lon="5.12408">
        <ele>190.60000610352</ele>
        <time>2017-07-24T06:24:02Z</time>
      </trkpt>
      <trkpt lat="46.95207" lon="5.12403">
        <ele>190.80000305176</ele>
        <time>2017-07-24T06:24:07Z</time>
      </trkpt>
      <trkpt lat="46.95193" lon="5.124">
        <ele>191.19999694824</ele>
        <time>2017-07-24T06:24:10Z</time>
      </trkpt>
      <trkpt lat="46.95156" lon="5.1239">
        <ele>191.60000610352</ele>
        <time>2017-07-24T06:24:18Z</time>
      </trkpt>
      <trkpt lat="46.95132" lon="5.12383">
        <ele>192</ele>
        <time>2017-07-24T06:24:23Z</time>
      </trkpt>
      <trkpt lat="46.95122" lon="5.1238">
        <ele>192</ele>
        <time>2017-07-24T06:24:25Z</time>
      </trkpt>
      <trkpt lat="46.95088" lon="5.12371">
        <ele>192.19999694824</ele>
        <time>2017-07-24T06:24:32Z</time>
      </trkpt>
      <trkpt lat="46.95057" lon="5.12358">
        <ele>192.39999389648</ele>
        <time>2017-07-24T06:24:38Z</time>
      </trkpt>
      <trkpt lat="46.95028" lon="5.12346">
        <ele>192.19999694824</ele>
        <time>2017-07-24T06:24:44Z</time>
      </trkpt>
      <trkpt lat="46.94999" lon="5.12329">
        <ele>192</ele>
        <time>2017-07-24T06:24:50Z</time>
      </trkpt>
      <trkpt lat="46.94959" lon="5.12298">
        <ele>192.19999694824</ele>
        <time>2017-07-24T06:24:58Z</time>
      </trkpt>
      <trkpt lat="46.94915" lon="5.12259">
        <ele>192.39999389648</ele>
        <time>2017-07-24T06:25:07Z</time>
      </trkpt>
      <trkpt lat="46.94876" lon="5.12222">
        <ele>192.39999389648</ele>
        <time>2017-07-24T06:25:15Z</time>
      </trkpt>
      <trkpt lat="46.94833" lon="5.12188">
        <ele>192.39999389648</ele>
        <time>2017-07-24T06:25:23Z</time>
      </trkpt>
      <trkpt lat="46.94786" lon="5.1214">
        <ele>192</ele>
        <time>2017-07-24T06:25:32Z</time>
      </trkpt>
      <trkpt lat="46.94762" lon="5.12108">
        <ele>191.80000305176</ele>
        <time>2017-07-24T06:25:37Z</time>
      </trkpt>
      <trkpt lat="46.94754" lon="5.12093">
        <ele>191.60000610352</ele>
        <time>2017-07-24T06:25:39Z</time>
      </trkpt>
      <trkpt lat="46.94734" lon="5.12056">
        <ele>191.19999694824</ele>
        <time>2017-07-24T06:25:44Z</time>
      </trkpt>
      <trkpt lat="46.94729" lon="5.12038">
        <ele>191.19999694824</ele>
        <time>2017-07-24T06:25:46Z</time>
      </trkpt>
      <trkpt lat="46.94716" lon="5.11986">
        <ele>191</ele>
        <time>2017-07-24T06:25:52Z</time>
      </trkpt>
      <trkpt lat="46.94707" lon="5.11932">
        <ele>190.80000305176</ele>
        <time>2017-07-24T06:25:58Z</time>
      </trkpt>
      <trkpt lat="46.94704" lon="5.11914">
        <ele>190.80000305176</ele>
        <time>2017-07-24T06:26:00Z</time>
      </trkpt>
      <trkpt lat="46.94688" lon="5.11855">
        <ele>190.80000305176</ele>
        <time>2017-07-24T06:26:07Z</time>
      </trkpt>
      <trkpt lat="46.94664" lon="5.11802">
        <ele>190.60000610352</ele>
        <time>2017-07-24T06:26:14Z</time>
      </trkpt>
      <trkpt lat="46.94628" lon="5.11739">
        <ele>190</ele>
        <time>2017-07-24T06:26:23Z</time>
      </trkpt>
      <trkpt lat="46.94607" lon="5.11707">
        <ele>189.80000305176</ele>
        <time>2017-07-24T06:26:28Z</time>
      </trkpt>
      <trkpt lat="46.9459" lon="5.11682">
        <ele>189.60000610352</ele>
        <time>2017-07-24T06:26:32Z</time>
      </trkpt>
      <trkpt lat="46.94565" lon="5.11634">
        <ele>189.80000305176</ele>
        <time>2017-07-24T06:26:39Z</time>
      </trkpt>
      <trkpt lat="46.94536" lon="5.11568">
        <ele>189.39999389648</ele>
        <time>2017-07-24T06:26:48Z</time>
      </trkpt>
      <trkpt lat="46.94516" lon="5.11511">
        <ele>188.80000305176</ele>
        <time>2017-07-24T06:26:55Z</time>
      </trkpt>
      <trkpt lat="46.94506" lon="5.11463">
        <ele>188.80000305176</ele>
        <time>2017-07-24T06:27:00Z</time>
      </trkpt>
      <trkpt lat="46.94503" lon="5.11443">
        <ele>188.60000610352</ele>
        <time>2017-07-24T06:27:02Z</time>
      </trkpt>
      <trkpt lat="46.94492" lon="5.11382">
        <ele>187.80000305176</ele>
        <time>2017-07-24T06:27:08Z</time>
      </trkpt>
      <trkpt lat="46.94487" lon="5.11352">
        <ele>187.39999389648</ele>
        <time>2017-07-24T06:27:11Z</time>
      </trkpt>
      <trkpt lat="46.94475" lon="5.11283">
        <ele>186.60000610352</ele>
        <time>2017-07-24T06:27:18Z</time>
      </trkpt>
      <trkpt lat="46.94468" lon="5.11244">
        <ele>185.80000305176</ele>
        <time>2017-07-24T06:27:22Z</time>
      </trkpt>
      <trkpt lat="46.94464" lon="5.11216">
        <ele>185.60000610352</ele>
        <time>2017-07-24T06:27:25Z</time>
      </trkpt>
      <trkpt lat="46.94454" lon="5.1115">
        <ele>185.39999389648</ele>
        <time>2017-07-24T06:27:32Z</time>
      </trkpt>
      <trkpt lat="46.94438" lon="5.11067">
        <ele>185</ele>
        <time>2017-07-24T06:27:41Z</time>
      </trkpt>
      <trkpt lat="46.94417" lon="5.10997">
        <ele>184.80000305176</ele>
        <time>2017-07-24T06:27:49Z</time>
      </trkpt>
      <trkpt lat="46.94395" lon="5.10939">
        <ele>184.60000610352</ele>
        <time>2017-07-24T06:27:56Z</time>
      </trkpt>
      <trkpt lat="46.94386" lon="5.10914">
        <ele>184.39999389648</ele>
        <time>2017-07-24T06:27:59Z</time>
      </trkpt>
      <trkpt lat="46.94364" lon="5.10846">
        <ele>184.39999389648</ele>
        <time>2017-07-24T06:28:07Z</time>
      </trkpt>
      <trkpt lat="46.9435" lon="5.10792">
        <ele>183.60000610352</ele>
        <time>2017-07-24T06:28:13Z</time>
      </trkpt>
      <trkpt lat="46.94345" lon="5.10765">
        <ele>183.39999389648</ele>
        <time>2017-07-24T06:28:16Z</time>
      </trkpt>
      <trkpt lat="46.94328" lon="5.10685">
        <ele>183.19999694824</ele>
        <time>2017-07-24T06:28:25Z</time>
      </trkpt>
      <trkpt lat="46.94314" lon="5.10605">
        <ele>183.19999694824</ele>
        <time>2017-07-24T06:28:34Z</time>
      </trkpt>
      <trkpt lat="46.94304" lon="5.10539">
        <ele>183.39999389648</ele>
        <time>2017-07-24T06:28:42Z</time>
      </trkpt>
      <trkpt lat="46.943" lon="5.10502">
        <ele>183.60000610352</ele>
        <time>2017-07-24T06:28:47Z</time>
      </trkpt>
      <trkpt lat="46.94297" lon="5.10488">
        <ele>183.80000305176</ele>
        <time>2017-07-24T06:28:49Z</time>
      </trkpt>
      <trkpt lat="46.94285" lon="5.10434">
        <ele>184.60000610352</ele>
        <time>2017-07-24T06:28:57Z</time>
      </trkpt>
      <trkpt lat="46.94272" lon="5.10394">
        <ele>185.19999694824</ele>
        <time>2017-07-24T06:29:03Z</time>
      </trkpt>
      <trkpt lat="46.94264" lon="5.10367">
        <ele>185.80000305176</ele>
        <time>2017-07-24T06:29:07Z</time>
      </trkpt>
      <trkpt lat="46.94258" lon="5.10347">
        <ele>186</ele>
        <time>2017-07-24T06:29:10Z</time>
      </trkpt>
      <trkpt lat="46.94242" lon="5.103">
        <ele>186.80000305176</ele>
        <time>2017-07-24T06:29:17Z</time>
      </trkpt>
      <trkpt lat="46.94229" lon="5.10261">
        <ele>187.80000305176</ele>
        <time>2017-07-24T06:29:23Z</time>
      </trkpt>
      <trkpt lat="46.94224" lon="5.10249">
        <ele>188</ele>
        <time>2017-07-24T06:29:25Z</time>
      </trkpt>
      <trkpt lat="46.94213" lon="5.10208">
        <ele>188.19999694824</ele>
        <time>2017-07-24T06:29:31Z</time>
      </trkpt>
      <trkpt lat="46.94208" lon="5.10195">
        <ele>188.19999694824</ele>
        <time>2017-07-24T06:29:33Z</time>
      </trkpt>
      <trkpt lat="46.94189" lon="5.10137">
        <ele>188</ele>
        <time>2017-07-24T06:29:41Z</time>
      </trkpt>
      <trkpt lat="46.94164" lon="5.10064">
        <ele>187.39999389648</ele>
        <time>2017-07-24T06:29:51Z</time>
      </trkpt>
      <trkpt lat="46.94141" lon="5.10008">
        <ele>187.19999694824</ele>
        <time>2017-07-24T06:29:59Z</time>
      </trkpt>
      <trkpt lat="46.94114" lon="5.09953">
        <ele>187.19999694824</ele>
        <time>2017-07-24T06:30:07Z</time>
      </trkpt>
      <trkpt lat="46.94081" lon="5.09889">
        <ele>187</ele>
        <time>2017-07-24T06:30:16Z</time>
      </trkpt>
      <trkpt lat="46.94058" lon="5.09844">
        <ele>187</ele>
        <time>2017-07-24T06:30:23Z</time>
      </trkpt>
      <trkpt lat="46.94051" lon="5.0983">
        <ele>186.80000305176</ele>
        <time>2017-07-24T06:30:25Z</time>
      </trkpt>
      <trkpt lat="46.94037" lon="5.09801">
        <ele>186.60000610352</ele>
        <time>2017-07-24T06:30:29Z</time>
      </trkpt>
      <trkpt lat="46.94008" lon="5.09744">
        <ele>185.80000305176</ele>
        <time>2017-07-24T06:30:37Z</time>
      </trkpt>
      <trkpt lat="46.94001" lon="5.09729">
        <ele>185.80000305176</ele>
        <time>2017-07-24T06:30:39Z</time>
      </trkpt>
      <trkpt lat="46.93982" lon="5.09693">
        <ele>185.39999389648</ele>
        <time>2017-07-24T06:30:44Z</time>
      </trkpt>
      <trkpt lat="46.93958" lon="5.09647">
        <ele>184.60000610352</ele>
        <time>2017-07-24T06:30:50Z</time>
      </trkpt>
      <trkpt lat="46.9395" lon="5.09632">
        <ele>184.39999389648</ele>
        <time>2017-07-24T06:30:52Z</time>
      </trkpt>
      <trkpt lat="46.93927" lon="5.09584">
        <ele>183.60000610352</ele>
        <time>2017-07-24T06:30:58Z</time>
      </trkpt>
      <trkpt lat="46.9392" lon="5.09568">
        <ele>183.19999694824</ele>
        <time>2017-07-24T06:31:00Z</time>
      </trkpt>
      <trkpt lat="46.939" lon="5.0953">
        <ele>182.60000610352</ele>
        <time>2017-07-24T06:31:05Z</time>
      </trkpt>
      <trkpt lat="46.93896" lon="5.09524">
        <ele>182.60000610352</ele>
        <time>2017-07-24T06:31:06Z</time>
      </trkpt>
      <trkpt lat="46.93891" lon="5.09518">
        <ele>182.39999389648</ele>
        <time>2017-07-24T06:31:07Z</time>
      </trkpt>
      <trkpt lat="46.93857" lon="5.09479">
        <ele>181.80000305176</ele>
        <time>2017-07-24T06:31:14Z</time>
      </trkpt>
      <trkpt lat="46.93853" lon="5.09473">
        <ele>181.60000610352</ele>
        <time>2017-07-24T06:31:15Z</time>
      </trkpt>
      <trkpt lat="46.93843" lon="5.09461">
        <ele>181.39999389648</ele>
        <time>2017-07-24T06:31:17Z</time>
      </trkpt>
      <trkpt lat="46.93814" lon="5.09427">
        <ele>180.80000305176</ele>
        <time>2017-07-24T06:31:23Z</time>
      </trkpt>
      <trkpt lat="46.93803" lon="5.09418">
        <ele>180.60000610352</ele>
        <time>2017-07-24T06:31:25Z</time>
      </trkpt>
      <trkpt lat="46.93797" lon="5.09414">
        <ele>180.39999389648</ele>
        <time>2017-07-24T06:31:26Z</time>
      </trkpt>
      <trkpt lat="46.9379" lon="5.09413">
        <ele>180.19999694824</ele>
        <time>2017-07-24T06:31:27Z</time>
      </trkpt>
      <trkpt lat="46.93765" lon="5.09418">
        <ele>179.80000305176</ele>
        <time>2017-07-24T06:31:31Z</time>
      </trkpt>
      <trkpt lat="46.93753" lon="5.09429">
        <ele>179.60000610352</ele>
        <time>2017-07-24T06:31:33Z</time>
      </trkpt>
      <trkpt lat="46.93748" lon="5.09435">
        <ele>179.60000610352</ele>
        <time>2017-07-24T06:31:34Z</time>
      </trkpt>
      <trkpt lat="46.93738" lon="5.09447">
        <ele>179.60000610352</ele>
        <time>2017-07-24T06:31:36Z</time>
      </trkpt>
      <trkpt lat="46.93719" lon="5.09471">
        <ele>179.39999389648</ele>
        <time>2017-07-24T06:31:40Z</time>
      </trkpt>
      <trkpt lat="46.9371" lon="5.09482">
        <ele>179.39999389648</ele>
        <time>2017-07-24T06:31:42Z</time>
      </trkpt>
      <trkpt lat="46.93692" lon="5.09491">
        <ele>179</ele>
        <time>2017-07-24T06:31:45Z</time>
      </trkpt>
      <trkpt lat="46.93664" lon="5.09485">
        <ele>178.60000610352</ele>
        <time>2017-07-24T06:31:49Z</time>
      </trkpt>
      <trkpt lat="46.93651" lon="5.09478">
        <ele>178.19999694824</ele>
        <time>2017-07-24T06:31:51Z</time>
      </trkpt>
      <trkpt lat="46.93626" lon="5.09463">
        <ele>178</ele>
        <time>2017-07-24T06:31:55Z</time>
      </trkpt>
      <trkpt lat="46.93574" lon="5.09436">
        <ele>177.80000305176</ele>
        <time>2017-07-24T06:32:04Z</time>
      </trkpt>
      <trkpt lat="46.93529" lon="5.09413">
        <ele>177.60000610352</ele>
        <time>2017-07-24T06:32:12Z</time>
      </trkpt>
      <trkpt lat="46.93472" lon="5.0939">
        <ele>177.60000610352</ele>
        <time>2017-07-24T06:32:22Z</time>
      </trkpt>
      <trkpt lat="46.93428" lon="5.09389">
        <ele>177.60000610352</ele>
        <time>2017-07-24T06:32:29Z</time>
      </trkpt>
      <trkpt lat="46.93379" lon="5.09397">
        <ele>177.80000305176</ele>
        <time>2017-07-24T06:32:37Z</time>
      </trkpt>
      <trkpt lat="46.93324" lon="5.09414">
        <ele>177.60000610352</ele>
        <time>2017-07-24T06:32:46Z</time>
      </trkpt>
      <trkpt lat="46.93318" lon="5.09415">
        <ele>177.60000610352</ele>
        <time>2017-07-24T06:32:47Z</time>
      </trkpt>
      <trkpt lat="46.93263" lon="5.09422">
        <ele>177.60000610352</ele>
        <time>2017-07-24T06:32:56Z</time>
      </trkpt>
      <trkpt lat="46.93257" lon="5.09423">
        <ele>177.60000610352</ele>
        <time>2017-07-24T06:32:57Z</time>
      </trkpt>
      <trkpt lat="46.932" lon="5.09428">
        <ele>177.60000610352</ele>
        <time>2017-07-24T06:33:06Z</time>
      </trkpt>
      <trkpt lat="46.9315" lon="5.09433">
        <ele>177.60000610352</ele>
        <time>2017-07-24T06:33:14Z</time>
      </trkpt>
      <trkpt lat="46.93101" lon="5.09438">
        <ele>177.80000305176</ele>
        <time>2017-07-24T06:33:22Z</time>
      </trkpt>
      <trkpt lat="46.93052" lon="5.09432">
        <ele>177.80000305176</ele>
        <time>2017-07-24T06:33:30Z</time>
      </trkpt>
      <trkpt lat="46.93022" lon="5.09424">
        <ele>177.80000305176</ele>
        <time>2017-07-24T06:33:35Z</time>
      </trkpt>
      <trkpt lat="46.93004" lon="5.09419">
        <ele>177.60000610352</ele>
        <time>2017-07-24T06:33:38Z</time>
      </trkpt>
      <trkpt lat="46.92962" lon="5.09404">
        <ele>177.60000610352</ele>
        <time>2017-07-24T06:33:45Z</time>
      </trkpt>
      <trkpt lat="46.92916" lon="5.09386">
        <ele>177.39999389648</ele>
        <time>2017-07-24T06:33:53Z</time>
      </trkpt>
      <trkpt lat="46.92859" lon="5.09364">
        <ele>177.39999389648</ele>
        <time>2017-07-24T06:34:03Z</time>
      </trkpt>
      <trkpt lat="46.92815" lon="5.09345">
        <ele>177.60000610352</ele>
        <time>2017-07-24T06:34:11Z</time>
      </trkpt>
      <trkpt lat="46.92781" lon="5.09326">
        <ele>177.60000610352</ele>
        <time>2017-07-24T06:34:17Z</time>
      </trkpt>
      <trkpt lat="46.92743" lon="5.09289">
        <ele>177.80000305176</ele>
        <time>2017-07-24T06:34:25Z</time>
      </trkpt>
      <trkpt lat="46.9271" lon="5.09258">
        <ele>177.80000305176</ele>
        <time>2017-07-24T06:34:32Z</time>
      </trkpt>
      <trkpt lat="46.92675" lon="5.0923">
        <ele>178</ele>
        <time>2017-07-24T06:34:39Z</time>
      </trkpt>
      <trkpt lat="46.92655" lon="5.09215">
        <ele>178</ele>
        <time>2017-07-24T06:34:43Z</time>
      </trkpt>
      <trkpt lat="46.92644" lon="5.09209">
        <ele>178</ele>
        <time>2017-07-24T06:34:45Z</time>
      </trkpt>
      <trkpt lat="46.92594" lon="5.09183">
        <ele>177.80000305176</ele>
        <time>2017-07-24T06:34:54Z</time>
      </trkpt>
      <trkpt lat="46.92551" lon="5.09161">
        <ele>177.80000305176</ele>
        <time>2017-07-24T06:35:02Z</time>
      </trkpt>
      <trkpt lat="46.92509" lon="5.09134">
        <ele>178.19999694824</ele>
        <time>2017-07-24T06:35:10Z</time>
      </trkpt>
      <trkpt lat="46.92468" lon="5.09104">
        <ele>178</ele>
        <time>2017-07-24T06:35:18Z</time>
      </trkpt>
      <trkpt lat="46.92458" lon="5.09096">
        <ele>178</ele>
        <time>2017-07-24T06:35:20Z</time>
      </trkpt>
      <trkpt lat="46.92433" lon="5.09073">
        <ele>178</ele>
        <time>2017-07-24T06:35:25Z</time>
      </trkpt>
      <trkpt lat="46.92388" lon="5.0903">
        <ele>177.80000305176</ele>
        <time>2017-07-24T06:35:34Z</time>
      </trkpt>
      <trkpt lat="46.92359" lon="5.08994">
        <ele>177.80000305176</ele>
        <time>2017-07-24T06:35:41Z</time>
      </trkpt>
      <trkpt lat="46.92334" lon="5.08953">
        <ele>178.19999694824</ele>
        <time>2017-07-24T06:35:48Z</time>
      </trkpt>
      <trkpt lat="46.92297" lon="5.08901">
        <ele>178.19999694824</ele>
        <time>2017-07-24T06:35:57Z</time>
      </trkpt>
      <trkpt lat="46.92259" lon="5.08862">
        <ele>178.19999694824</ele>
        <time>2017-07-24T06:36:05Z</time>
      </trkpt>
      <trkpt lat="46.92224" lon="5.08832">
        <ele>178.19999694824</ele>
        <time>2017-07-24T06:36:12Z</time>
      </trkpt>
      <trkpt lat="46.92187" lon="5.0881">
        <ele>178.39999389648</ele>
        <time>2017-07-24T06:36:19Z</time>
      </trkpt>
      <trkpt lat="46.92146" lon="5.08792">
        <ele>178.19999694824</ele>
        <time>2017-07-24T06:36:26Z</time>
      </trkpt>
      <trkpt lat="46.9214" lon="5.0879">
        <ele>178.19999694824</ele>
        <time>2017-07-24T06:36:27Z</time>
      </trkpt>
      <trkpt lat="46.92099" lon="5.08785">
        <ele>178</ele>
        <time>2017-07-24T06:36:34Z</time>
      </trkpt>
      <trkpt lat="46.92053" lon="5.08785">
        <ele>178</ele>
        <time>2017-07-24T06:36:42Z</time>
      </trkpt>
      <trkpt lat="46.92012" lon="5.08791">
        <ele>178.19999694824</ele>
        <time>2017-07-24T06:36:49Z</time>
      </trkpt>
      <trkpt lat="46.91994" lon="5.08793">
        <ele>178.19999694824</ele>
        <time>2017-07-24T06:36:52Z</time>
      </trkpt>
      <trkpt lat="46.91983" lon="5.08796">
        <ele>178</ele>
        <time>2017-07-24T06:36:54Z</time>
      </trkpt>
      <trkpt lat="46.91948" lon="5.08803">
        <ele>178</ele>
        <time>2017-07-24T06:37:00Z</time>
      </trkpt>
      <trkpt lat="46.91892" lon="5.08814">
        <ele>178</ele>
        <time>2017-07-24T06:37:09Z</time>
      </trkpt>
      <trkpt lat="46.91835" lon="5.08823">
        <ele>178</ele>
        <time>2017-07-24T06:37:18Z</time>
      </trkpt>
      <trkpt lat="46.91797" lon="5.08822">
        <ele>178</ele>
        <time>2017-07-24T06:37:24Z</time>
      </trkpt>
      <trkpt lat="46.91749" lon="5.08817">
        <ele>178</ele>
        <time>2017-07-24T06:37:32Z</time>
      </trkpt>
      <trkpt lat="46.91704" lon="5.08811">
        <ele>178.19999694824</ele>
        <time>2017-07-24T06:37:40Z</time>
      </trkpt>
      <trkpt lat="46.91655" lon="5.08799">
        <ele>178.60000610352</ele>
        <time>2017-07-24T06:37:49Z</time>
      </trkpt>
      <trkpt lat="46.91619" lon="5.0878">
        <ele>178.80000305176</ele>
        <time>2017-07-24T06:37:56Z</time>
      </trkpt>
      <trkpt lat="46.91577" lon="5.0876">
        <ele>178.60000610352</ele>
        <time>2017-07-24T06:38:04Z</time>
      </trkpt>
      <trkpt lat="46.91572" lon="5.0876">
        <ele>178.60000610352</ele>
        <time>2017-07-24T06:38:05Z</time>
      </trkpt>
      <trkpt lat="46.91538" lon="5.08765">
        <ele>178.80000305176</ele>
        <time>2017-07-24T06:38:11Z</time>
      </trkpt>
      <trkpt lat="46.91526" lon="5.08765">
        <ele>178.80000305176</ele>
        <time>2017-07-24T06:38:13Z</time>
      </trkpt>
      <trkpt lat="46.91509" lon="5.08757">
        <ele>178.60000610352</ele>
        <time>2017-07-24T06:38:16Z</time>
      </trkpt>
      <trkpt lat="46.91499" lon="5.08749">
        <ele>178.60000610352</ele>
        <time>2017-07-24T06:38:18Z</time>
      </trkpt>
      <trkpt lat="46.91486" lon="5.08736">
        <ele>178.80000305176</ele>
        <time>2017-07-24T06:38:21Z</time>
      </trkpt>
      <trkpt lat="46.91453" lon="5.08694">
        <ele>179.19999694824</ele>
        <time>2017-07-24T06:38:29Z</time>
      </trkpt>
      <trkpt lat="46.91421" lon="5.08658">
        <ele>179</ele>
        <time>2017-07-24T06:38:36Z</time>
      </trkpt>
      <trkpt lat="46.91377" lon="5.08605">
        <ele>179.19999694824</ele>
        <time>2017-07-24T06:38:46Z</time>
      </trkpt>
      <trkpt lat="46.91368" lon="5.08595">
        <ele>179.19999694824</ele>
        <time>2017-07-24T06:38:48Z</time>
      </trkpt>
      <trkpt lat="46.91324" lon="5.08551">
        <ele>179</ele>
        <time>2017-07-24T06:38:57Z</time>
      </trkpt>
      <trkpt lat="46.91304" lon="5.08532">
        <ele>179.19999694824</ele>
        <time>2017-07-24T06:39:01Z</time>
      </trkpt>
      <trkpt lat="46.9128" lon="5.08507">
        <ele>179.19999694824</ele>
        <time>2017-07-24T06:39:06Z</time>
      </trkpt>
      <trkpt lat="46.91242" lon="5.0847">
        <ele>179.19999694824</ele>
        <time>2017-07-24T06:39:14Z</time>
      </trkpt>
      <trkpt lat="46.91204" lon="5.08431">
        <ele>179</ele>
        <time>2017-07-24T06:39:22Z</time>
      </trkpt>
      <trkpt lat="46.91165" lon="5.08395">
        <ele>179.19999694824</ele>
        <time>2017-07-24T06:39:30Z</time>
      </trkpt>
      <trkpt lat="46.91124" lon="5.08366">
        <ele>178.80000305176</ele>
        <time>2017-07-24T06:39:38Z</time>
      </trkpt>
      <trkpt lat="46.91081" lon="5.0834">
        <ele>179</ele>
        <time>2017-07-24T06:39:46Z</time>
      </trkpt>
      <trkpt lat="46.91029" lon="5.08317">
        <ele>178.80000305176</ele>
        <time>2017-07-24T06:39:55Z</time>
      </trkpt>
      <trkpt lat="46.90977" lon="5.08302">
        <ele>178.80000305176</ele>
        <time>2017-07-24T06:40:04Z</time>
      </trkpt>
      <trkpt lat="46.90926" lon="5.08288">
        <ele>178.80000305176</ele>
        <time>2017-07-24T06:40:13Z</time>
      </trkpt>
      <trkpt lat="46.90916" lon="5.08282">
        <ele>178.80000305176</ele>
        <time>2017-07-24T06:40:15Z</time>
      </trkpt>
      <trkpt lat="46.909" lon="5.08269">
        <ele>178.80000305176</ele>
        <time>2017-07-24T06:40:18Z</time>
      </trkpt>
      <trkpt lat="46.90873" lon="5.08242">
        <ele>178</ele>
        <time>2017-07-24T06:40:23Z</time>
      </trkpt>
      <trkpt lat="46.90862" lon="5.08232">
        <ele>177.80000305176</ele>
        <time>2017-07-24T06:40:25Z</time>
      </trkpt>
      <trkpt lat="46.90812" lon="5.08192">
        <ele>177.39999389648</ele>
        <time>2017-07-24T06:40:34Z</time>
      </trkpt>
      <trkpt lat="46.90807" lon="5.08188">
        <ele>177.39999389648</ele>
        <time>2017-07-24T06:40:35Z</time>
      </trkpt>
      <trkpt lat="46.90765" lon="5.08164">
        <ele>177.39999389648</ele>
        <time>2017-07-24T06:40:42Z</time>
      </trkpt>
      <trkpt lat="46.90714" lon="5.08133">
        <ele>177.39999389648</ele>
        <time>2017-07-24T06:40:51Z</time>
      </trkpt>
      <trkpt lat="46.90708" lon="5.0813">
        <ele>177.39999389648</ele>
        <time>2017-07-24T06:40:52Z</time>
      </trkpt>
      <trkpt lat="46.9066" lon="5.08114">
        <ele>177.60000610352</ele>
        <time>2017-07-24T06:41:00Z</time>
      </trkpt>
      <trkpt lat="46.90603" lon="5.08103">
        <ele>177.60000610352</ele>
        <time>2017-07-24T06:41:09Z</time>
      </trkpt>
      <trkpt lat="46.90597" lon="5.08103">
        <ele>177.60000610352</ele>
        <time>2017-07-24T06:41:10Z</time>
      </trkpt>
      <trkpt lat="46.90556" lon="5.08095">
        <ele>177.60000610352</ele>
        <time>2017-07-24T06:41:17Z</time>
      </trkpt>
      <trkpt lat="46.90514" lon="5.08084">
        <ele>178.19999694824</ele>
        <time>2017-07-24T06:41:25Z</time>
      </trkpt>
      <trkpt lat="46.905" lon="5.08092">
        <ele>178.19999694824</ele>
        <time>2017-07-24T06:41:28Z</time>
      </trkpt>
      <trkpt lat="46.90485" lon="5.08116">
        <ele>178.19999694824</ele>
        <time>2017-07-24T06:41:32Z</time>
      </trkpt>
      <trkpt lat="46.9046" lon="5.08162">
        <ele>178.19999694824</ele>
        <time>2017-07-24T06:41:39Z</time>
      </trkpt>
      <trkpt lat="46.90434" lon="5.08208">
        <ele>178.19999694824</ele>
        <time>2017-07-24T06:41:46Z</time>
      </trkpt>
      <trkpt lat="46.90408" lon="5.08261">
        <ele>178.19999694824</ele>
        <time>2017-07-24T06:41:54Z</time>
      </trkpt>
      <trkpt lat="46.9039" lon="5.08307">
        <ele>178.39999389648</ele>
        <time>2017-07-24T06:42:01Z</time>
      </trkpt>
      <trkpt lat="46.90376" lon="5.08337">
        <ele>178.80000305176</ele>
        <time>2017-07-24T06:42:08Z</time>
      </trkpt>
      <trkpt lat="46.90367" lon="5.08331">
        <ele>179</ele>
        <time>2017-07-24T06:42:11Z</time>
      </trkpt>
      <trkpt lat="46.90353" lon="5.08318">
        <ele>178.80000305176</ele>
        <time>2017-07-24T06:42:16Z</time>
      </trkpt>
      <trkpt lat="46.90346" lon="5.08313">
        <ele>178</ele>
        <time>2017-07-24T06:46:42Z</time>
      </trkpt>
      <trkpt lat="46.90338" lon="5.08309">
        <ele>178.19999694824</ele>
        <time>2017-07-24T06:46:46Z</time>
      </trkpt>
      <trkpt lat="46.90336" lon="5.08306">
        <ele>178</ele>
        <time>2017-07-24T06:46:47Z</time>
      </trkpt>
      <trkpt lat="46.90326" lon="5.08297">
        <ele>178</ele>
        <time>2017-07-24T06:46:52Z</time>
      </trkpt>
      <trkpt lat="46.90324" lon="5.08294">
        <ele>178</ele>
        <time>2017-07-24T06:47:26Z</time>
      </trkpt>
      <trkpt lat="46.9032" lon="5.08293">
        <ele>178</ele>
        <time>2017-07-24T06:47:28Z</time>
      </trkpt>
      <trkpt lat="46.9031" lon="5.08286">
        <ele>178</ele>
        <time>2017-07-24T06:47:33Z</time>
      </trkpt>
      <trkpt lat="46.90291" lon="5.08267">
        <ele>178</ele>
        <time>2017-07-24T06:47:40Z</time>
      </trkpt>
      <trkpt lat="46.90269" lon="5.08245">
        <ele>178.19999694824</ele>
        <time>2017-07-24T06:47:47Z</time>
      </trkpt>
      <trkpt lat="46.90266" lon="5.08241">
        <ele>178.19999694824</ele>
        <time>2017-07-24T06:47:48Z</time>
      </trkpt>
      <trkpt lat="46.90247" lon="5.08217">
        <ele>178.19999694824</ele>
        <time>2017-07-24T06:47:54Z</time>
      </trkpt>
      <trkpt lat="46.90241" lon="5.0821">
        <ele>178.19999694824</ele>
        <time>2017-07-24T06:47:56Z</time>
      </trkpt>
      <trkpt lat="46.90227" lon="5.08193">
        <ele>178.39999389648</ele>
        <time>2017-07-24T06:48:00Z</time>
      </trkpt>
      <trkpt lat="46.902" lon="5.08162">
        <ele>178.39999389648</ele>
        <time>2017-07-24T06:48:07Z</time>
      </trkpt>
      <trkpt lat="46.90177" lon="5.08126">
        <ele>177.80000305176</ele>
        <time>2017-07-24T06:48:13Z</time>
      </trkpt>
      <trkpt lat="46.90147" lon="5.0808">
        <ele>177.39999389648</ele>
        <time>2017-07-24T06:48:21Z</time>
      </trkpt>
      <trkpt lat="46.90143" lon="5.08074">
        <ele>177.39999389648</ele>
        <time>2017-07-24T06:48:22Z</time>
      </trkpt>
      <trkpt lat="46.90125" lon="5.08045">
        <ele>177.19999694824</ele>
        <time>2017-07-24T06:48:27Z</time>
      </trkpt>
      <trkpt lat="46.90119" lon="5.08031">
        <ele>177.19999694824</ele>
        <time>2017-07-24T06:48:29Z</time>
      </trkpt>
      <trkpt lat="46.90111" lon="5.08011">
        <ele>177</ele>
        <time>2017-07-24T06:48:32Z</time>
      </trkpt>
      <trkpt lat="46.90108" lon="5.08004">
        <ele>177</ele>
        <time>2017-07-24T06:48:33Z</time>
      </trkpt>
      <trkpt lat="46.90079" lon="5.07942">
        <ele>176.80000305176</ele>
        <time>2017-07-24T06:48:42Z</time>
      </trkpt>
      <trkpt lat="46.90052" lon="5.07887">
        <ele>176.60000610352</ele>
        <time>2017-07-24T06:48:50Z</time>
      </trkpt>
      <trkpt lat="46.90024" lon="5.07835">
        <ele>176.60000610352</ele>
        <time>2017-07-24T06:48:58Z</time>
      </trkpt>
      <trkpt lat="46.89994" lon="5.07775">
        <ele>176.19999694824</ele>
        <time>2017-07-24T06:49:07Z</time>
      </trkpt>
      <trkpt lat="46.8998" lon="5.07747">
        <ele>176</ele>
        <time>2017-07-24T06:49:11Z</time>
      </trkpt>
      <trkpt lat="46.89966" lon="5.07721">
        <ele>176</ele>
        <time>2017-07-24T06:49:15Z</time>
      </trkpt>
      <trkpt lat="46.89935" lon="5.07662">
        <ele>175.80000305176</ele>
        <time>2017-07-24T06:49:24Z</time>
      </trkpt>
      <trkpt lat="46.89918" lon="5.07624">
        <ele>176</ele>
        <time>2017-07-24T06:49:30Z</time>
      </trkpt>
      <trkpt lat="46.89916" lon="5.07618">
        <ele>176</ele>
        <time>2017-07-24T06:49:31Z</time>
      </trkpt>
      <trkpt lat="46.89911" lon="5.07592">
        <ele>176</ele>
        <time>2017-07-24T06:49:35Z</time>
      </trkpt>
      <trkpt lat="46.89911" lon="5.07579">
        <ele>176.19999694824</ele>
        <time>2017-07-24T06:49:37Z</time>
      </trkpt>
      <trkpt lat="46.89912" lon="5.07561">
        <ele>176.19999694824</ele>
        <time>2017-07-24T06:49:40Z</time>
      </trkpt>
      <trkpt lat="46.89914" lon="5.07532">
        <ele>176.60000610352</ele>
        <time>2017-07-24T06:49:45Z</time>
      </trkpt>
      <trkpt lat="46.89916" lon="5.07523">
        <ele>177</ele>
        <time>2017-07-24T06:49:47Z</time>
      </trkpt>
      <trkpt lat="46.89917" lon="5.07511">
        <ele>177.60000610352</ele>
        <time>2017-07-24T06:49:50Z</time>
      </trkpt>
      <trkpt lat="46.89917" lon="5.07488">
        <ele>178</ele>
        <time>2017-07-24T06:49:54Z</time>
      </trkpt>
      <trkpt lat="46.89917" lon="5.07482">
        <ele>178.19999694824</ele>
        <time>2017-07-24T06:49:55Z</time>
      </trkpt>
      <trkpt lat="46.8992" lon="5.07427">
        <ele>178.19999694824</ele>
        <time>2017-07-24T06:50:03Z</time>
      </trkpt>
      <trkpt lat="46.89924" lon="5.07376">
        <ele>178.19999694824</ele>
        <time>2017-07-24T06:50:10Z</time>
      </trkpt>
      <trkpt lat="46.89932" lon="5.0732">
        <ele>178.19999694824</ele>
        <time>2017-07-24T06:50:18Z</time>
      </trkpt>
      <trkpt lat="46.89939" lon="5.07292">
        <ele>178.19999694824</ele>
        <time>2017-07-24T06:50:22Z</time>
      </trkpt>
      <trkpt lat="46.89946" lon="5.07273">
        <ele>178.19999694824</ele>
        <time>2017-07-24T06:50:25Z</time>
      </trkpt>
      <trkpt lat="46.89965" lon="5.07229">
        <ele>178.19999694824</ele>
        <time>2017-07-24T06:50:32Z</time>
      </trkpt>
      <trkpt lat="46.89979" lon="5.07196">
        <ele>177.80000305176</ele>
        <time>2017-07-24T06:50:38Z</time>
      </trkpt>
      <trkpt lat="46.89993" lon="5.07155">
        <ele>177.39999389648</ele>
        <time>2017-07-24T06:50:44Z</time>
      </trkpt>
      <trkpt lat="46.90001" lon="5.07115">
        <ele>177</ele>
        <time>2017-07-24T06:50:49Z</time>
      </trkpt>
      <trkpt lat="46.90002" lon="5.07098">
        <ele>176.80000305176</ele>
        <time>2017-07-24T06:50:51Z</time>
      </trkpt>
      <trkpt lat="46.9" lon="5.07031">
        <ele>176.19999694824</ele>
        <time>2017-07-24T06:50:59Z</time>
      </trkpt>
      <trkpt lat="46.89997" lon="5.06965">
        <ele>176.39999389648</ele>
        <time>2017-07-24T06:51:07Z</time>
      </trkpt>
      <trkpt lat="46.89995" lon="5.06905">
        <ele>176.19999694824</ele>
        <time>2017-07-24T06:51:14Z</time>
      </trkpt>
      <trkpt lat="46.89991" lon="5.06819">
        <ele>176</ele>
        <time>2017-07-24T06:51:24Z</time>
      </trkpt>
      <trkpt lat="46.89991" lon="5.0681">
        <ele>176</ele>
        <time>2017-07-24T06:51:25Z</time>
      </trkpt>
      <trkpt lat="46.89988" lon="5.06735">
        <ele>175.80000305176</ele>
        <time>2017-07-24T06:51:34Z</time>
      </trkpt>
      <trkpt lat="46.89985" lon="5.06654">
        <ele>175.80000305176</ele>
        <time>2017-07-24T06:51:44Z</time>
      </trkpt>
      <trkpt lat="46.89982" lon="5.06596">
        <ele>175.60000610352</ele>
        <time>2017-07-24T06:51:51Z</time>
      </trkpt>
      <trkpt lat="46.8998" lon="5.06529">
        <ele>175.60000610352</ele>
        <time>2017-07-24T06:51:59Z</time>
      </trkpt>
      <trkpt lat="46.89977" lon="5.06454">
        <ele>175.60000610352</ele>
        <time>2017-07-24T06:52:08Z</time>
      </trkpt>
      <trkpt lat="46.89974" lon="5.0637">
        <ele>175.19999694824</ele>
        <time>2017-07-24T06:52:18Z</time>
      </trkpt>
      <trkpt lat="46.89974" lon="5.06362">
        <ele>175.19999694824</ele>
        <time>2017-07-24T06:52:19Z</time>
      </trkpt>
      <trkpt lat="46.89972" lon="5.06288">
        <ele>175</ele>
        <time>2017-07-24T06:52:28Z</time>
      </trkpt>
      <trkpt lat="46.89972" lon="5.0628">
        <ele>175</ele>
        <time>2017-07-24T06:52:29Z</time>
      </trkpt>
      <trkpt lat="46.8997" lon="5.06198">
        <ele>174.80000305176</ele>
        <time>2017-07-24T06:52:39Z</time>
      </trkpt>
      <trkpt lat="46.89969" lon="5.06181">
        <ele>174.80000305176</ele>
        <time>2017-07-24T06:52:41Z</time>
      </trkpt>
      <trkpt lat="46.89967" lon="5.06099">
        <ele>175</ele>
        <time>2017-07-24T06:52:52Z</time>
      </trkpt>
      <trkpt lat="46.89966" lon="5.06082">
        <ele>174.80000305176</ele>
        <time>2017-07-24T06:52:54Z</time>
      </trkpt>
      <trkpt lat="46.89964" lon="5.05999">
        <ele>174.80000305176</ele>
        <time>2017-07-24T06:53:04Z</time>
      </trkpt>
      <trkpt lat="46.89962" lon="5.05915">
        <ele>174.60000610352</ele>
        <time>2017-07-24T06:53:14Z</time>
      </trkpt>
      <trkpt lat="46.89961" lon="5.05898">
        <ele>174.60000610352</ele>
        <time>2017-07-24T06:53:16Z</time>
      </trkpt>
      <trkpt lat="46.89959" lon="5.05815">
        <ele>174.39999389648</ele>
        <time>2017-07-24T06:53:26Z</time>
      </trkpt>
      <trkpt lat="46.89956" lon="5.05739">
        <ele>174.39999389648</ele>
        <time>2017-07-24T06:53:35Z</time>
      </trkpt>
      <trkpt lat="46.89953" lon="5.05664">
        <ele>174.39999389648</ele>
        <time>2017-07-24T06:53:44Z</time>
      </trkpt>
      <trkpt lat="46.89944" lon="5.05598">
        <ele>174.39999389648</ele>
        <time>2017-07-24T06:53:52Z</time>
      </trkpt>
      <trkpt lat="46.89931" lon="5.05523">
        <ele>174.39999389648</ele>
        <time>2017-07-24T06:54:01Z</time>
      </trkpt>
      <trkpt lat="46.89916" lon="5.05456">
        <ele>174.39999389648</ele>
        <time>2017-07-24T06:54:09Z</time>
      </trkpt>
      <trkpt lat="46.899" lon="5.05381">
        <ele>174.39999389648</ele>
        <time>2017-07-24T06:54:18Z</time>
      </trkpt>
      <trkpt lat="46.89897" lon="5.05373">
        <ele>174.39999389648</ele>
        <time>2017-07-24T06:54:19Z</time>
      </trkpt>
      <trkpt lat="46.89881" lon="5.053">
        <ele>174.60000610352</ele>
        <time>2017-07-24T06:54:28Z</time>
      </trkpt>
      <trkpt lat="46.89864" lon="5.05228">
        <ele>174.60000610352</ele>
        <time>2017-07-24T06:54:37Z</time>
      </trkpt>
      <trkpt lat="46.89847" lon="5.05147">
        <ele>174.80000305176</ele>
        <time>2017-07-24T06:54:47Z</time>
      </trkpt>
      <trkpt lat="46.89834" lon="5.05081">
        <ele>174.39999389648</ele>
        <time>2017-07-24T06:54:55Z</time>
      </trkpt>
      <trkpt lat="46.89821" lon="5.04998">
        <ele>174.19999694824</ele>
        <time>2017-07-24T06:55:05Z</time>
      </trkpt>
      <trkpt lat="46.89808" lon="5.0492">
        <ele>174.19999694824</ele>
        <time>2017-07-24T06:55:14Z</time>
      </trkpt>
      <trkpt lat="46.89796" lon="5.04855">
        <ele>174.19999694824</ele>
        <time>2017-07-24T06:55:22Z</time>
      </trkpt>
      <trkpt lat="46.89784" lon="5.04799">
        <ele>174.39999389648</ele>
        <time>2017-07-24T06:55:29Z</time>
      </trkpt>
      <trkpt lat="46.89774" lon="5.04751">
        <ele>174.39999389648</ele>
        <time>2017-07-24T06:55:35Z</time>
      </trkpt>
      <trkpt lat="46.89757" lon="5.04669">
        <ele>174.60000610352</ele>
        <time>2017-07-24T06:55:45Z</time>
      </trkpt>
      <trkpt lat="46.89739" lon="5.04588">
        <ele>174.60000610352</ele>
        <time>2017-07-24T06:55:55Z</time>
      </trkpt>
      <trkpt lat="46.89721" lon="5.04505">
        <ele>174.80000305176</ele>
        <time>2017-07-24T06:56:05Z</time>
      </trkpt>
      <trkpt lat="46.89704" lon="5.0443">
        <ele>174.60000610352</ele>
        <time>2017-07-24T06:56:14Z</time>
      </trkpt>
      <trkpt lat="46.89689" lon="5.04357">
        <ele>174.60000610352</ele>
        <time>2017-07-24T06:56:23Z</time>
      </trkpt>
      <trkpt lat="46.89673" lon="5.04276">
        <ele>174.39999389648</ele>
        <time>2017-07-24T06:56:33Z</time>
      </trkpt>
      <trkpt lat="46.89669" lon="5.0426">
        <ele>174.39999389648</ele>
        <time>2017-07-24T06:56:35Z</time>
      </trkpt>
      <trkpt lat="46.89655" lon="5.04195">
        <ele>174.60000610352</ele>
        <time>2017-07-24T06:56:43Z</time>
      </trkpt>
      <trkpt lat="46.89639" lon="5.04113">
        <ele>174.80000305176</ele>
        <time>2017-07-24T06:56:53Z</time>
      </trkpt>
      <trkpt lat="46.89623" lon="5.0404">
        <ele>174.80000305176</ele>
        <time>2017-07-24T06:57:02Z</time>
      </trkpt>
      <trkpt lat="46.8961" lon="5.03971">
        <ele>175.19999694824</ele>
        <time>2017-07-24T06:57:11Z</time>
      </trkpt>
      <trkpt lat="46.89604" lon="5.03941">
        <ele>175.19999694824</ele>
        <time>2017-07-24T06:57:15Z</time>
      </trkpt>
      <trkpt lat="46.89598" lon="5.03904">
        <ele>175.19999694824</ele>
        <time>2017-07-24T06:57:20Z</time>
      </trkpt>
      <trkpt lat="46.89589" lon="5.03855">
        <ele>175.60000610352</ele>
        <time>2017-07-24T06:57:27Z</time>
      </trkpt>
      <trkpt lat="46.89584" lon="5.0381">
        <ele>176</ele>
        <time>2017-07-24T06:57:33Z</time>
      </trkpt>
      <trkpt lat="46.8958" lon="5.03788">
        <ele>176.19999694824</ele>
        <time>2017-07-24T06:57:36Z</time>
      </trkpt>
      <trkpt lat="46.89572" lon="5.0373">
        <ele>176.19999694824</ele>
        <time>2017-07-24T06:57:44Z</time>
      </trkpt>
      <trkpt lat="46.89564" lon="5.03676">
        <ele>176.39999389648</ele>
        <time>2017-07-24T06:57:51Z</time>
      </trkpt>
      <trkpt lat="46.89553" lon="5.03613">
        <ele>176.39999389648</ele>
        <time>2017-07-24T06:57:59Z</time>
      </trkpt>
      <trkpt lat="46.8954" lon="5.03532">
        <ele>176.39999389648</ele>
        <time>2017-07-24T06:58:09Z</time>
      </trkpt>
      <trkpt lat="46.89539" lon="5.03524">
        <ele>176.39999389648</ele>
        <time>2017-07-24T06:58:10Z</time>
      </trkpt>
      <trkpt lat="46.89529" lon="5.03458">
        <ele>176.39999389648</ele>
        <time>2017-07-24T06:58:18Z</time>
      </trkpt>
      <trkpt lat="46.89522" lon="5.03401">
        <ele>176.39999389648</ele>
        <time>2017-07-24T06:58:25Z</time>
      </trkpt>
      <trkpt lat="46.89516" lon="5.03344">
        <ele>176.19999694824</ele>
        <time>2017-07-24T06:58:32Z</time>
      </trkpt>
      <trkpt lat="46.89518" lon="5.03295">
        <ele>176</ele>
        <time>2017-07-24T06:58:38Z</time>
      </trkpt>
      <trkpt lat="46.89529" lon="5.03233">
        <ele>176.19999694824</ele>
        <time>2017-07-24T06:58:46Z</time>
      </trkpt>
      <trkpt lat="46.89535" lon="5.03182">
        <ele>176</ele>
        <time>2017-07-24T06:58:53Z</time>
      </trkpt>
      <trkpt lat="46.89543" lon="5.03122">
        <ele>176</ele>
        <time>2017-07-24T06:59:01Z</time>
      </trkpt>
      <trkpt lat="46.89556" lon="5.03068">
        <ele>176</ele>
        <time>2017-07-24T06:59:08Z</time>
      </trkpt>
      <trkpt lat="46.89573" lon="5.03029">
        <ele>176</ele>
        <time>2017-07-24T06:59:14Z</time>
      </trkpt>
      <trkpt lat="46.89592" lon="5.02991">
        <ele>176.19999694824</ele>
        <time>2017-07-24T06:59:21Z</time>
      </trkpt>
      <trkpt lat="46.89605" lon="5.02953">
        <ele>176</ele>
        <time>2017-07-24T06:59:28Z</time>
      </trkpt>
      <trkpt lat="46.8961" lon="5.02939">
        <ele>175.80000305176</ele>
        <time>2017-07-24T06:59:33Z</time>
      </trkpt>
      <trkpt lat="46.89611" lon="5.02935">
        <ele>175.60000610352</ele>
        <time>2017-07-24T06:59:50Z</time>
      </trkpt>
      <trkpt lat="46.89611" lon="5.02932">
        <ele>175.60000610352</ele>
        <time>2017-07-24T06:59:51Z</time>
      </trkpt>
      <trkpt lat="46.89604" lon="5.02924">
        <ele>175.60000610352</ele>
        <time>2017-07-24T06:59:54Z</time>
      </trkpt>
      <trkpt lat="46.89589" lon="5.02909">
        <ele>175.60000610352</ele>
        <time>2017-07-24T06:59:59Z</time>
      </trkpt>
      <trkpt lat="46.89575" lon="5.02887">
        <ele>175.60000610352</ele>
        <time>2017-07-24T07:00:05Z</time>
      </trkpt>
      <trkpt lat="46.89561" lon="5.02861">
        <ele>175.60000610352</ele>
        <time>2017-07-24T07:00:12Z</time>
      </trkpt>
      <trkpt lat="46.89548" lon="5.02836">
        <ele>175.39999389648</ele>
        <time>2017-07-24T07:00:18Z</time>
      </trkpt>
      <trkpt lat="46.89542" lon="5.02824">
        <ele>175.39999389648</ele>
        <time>2017-07-24T07:02:01Z</time>
      </trkpt>
      <trkpt lat="46.89536" lon="5.02813">
        <ele>175.60000610352</ele>
        <time>2017-07-24T07:02:06Z</time>
      </trkpt>
      <trkpt lat="46.89525" lon="5.02797">
        <ele>175.60000610352</ele>
        <time>2017-07-24T07:02:12Z</time>
      </trkpt>
      <trkpt lat="46.89516" lon="5.02786">
        <ele>175.60000610352</ele>
        <time>2017-07-24T07:02:18Z</time>
      </trkpt>
      <trkpt lat="46.89506" lon="5.02779">
        <ele>175.60000610352</ele>
        <time>2017-07-24T07:02:23Z</time>
      </trkpt>
      <trkpt lat="46.89493" lon="5.02763">
        <ele>175.80000305176</ele>
        <time>2017-07-24T07:02:31Z</time>
      </trkpt>
      <trkpt lat="46.89481" lon="5.02751">
        <ele>176</ele>
        <time>2017-07-24T07:02:37Z</time>
      </trkpt>
      <trkpt lat="46.89462" lon="5.02731">
        <ele>176.39999389648</ele>
        <time>2017-07-24T07:02:44Z</time>
      </trkpt>
      <trkpt lat="46.89454" lon="5.02708">
        <ele>177.19999694824</ele>
        <time>2017-07-24T07:02:50Z</time>
      </trkpt>
      <trkpt lat="46.89453" lon="5.02685">
        <ele>177.80000305176</ele>
        <time>2017-07-24T07:02:55Z</time>
      </trkpt>
      <trkpt lat="46.89454" lon="5.02675">
        <ele>178.19999694824</ele>
        <time>2017-07-24T07:02:57Z</time>
      </trkpt>
      <trkpt lat="46.89455" lon="5.02645">
        <ele>179.19999694824</ele>
        <time>2017-07-24T07:03:03Z</time>
      </trkpt>
      <trkpt lat="46.89455" lon="5.0264">
        <ele>179.19999694824</ele>
        <time>2017-07-24T07:03:04Z</time>
      </trkpt>
      <trkpt lat="46.89456" lon="5.0261">
        <ele>179.80000305176</ele>
        <time>2017-07-24T07:03:10Z</time>
      </trkpt>
      <trkpt lat="46.89457" lon="5.02579">
        <ele>180</ele>
        <time>2017-07-24T07:03:17Z</time>
      </trkpt>
      <trkpt lat="46.89459" lon="5.0254">
        <ele>179.39999389648</ele>
        <time>2017-07-24T07:03:25Z</time>
      </trkpt>
      <trkpt lat="46.8946" lon="5.02501">
        <ele>179.19999694824</ele>
        <time>2017-07-24T07:03:32Z</time>
      </trkpt>
      <trkpt lat="46.89462" lon="5.02464">
        <ele>178.39999389648</ele>
        <time>2017-07-24T07:03:37Z</time>
      </trkpt>
      <trkpt lat="46.89462" lon="5.02455">
        <ele>178</ele>
        <time>2017-07-24T07:03:38Z</time>
      </trkpt>
      <trkpt lat="46.89465" lon="5.02413">
        <ele>177</ele>
        <time>2017-07-24T07:03:44Z</time>
      </trkpt>
      <trkpt lat="46.89466" lon="5.02408">
        <ele>176.19999694824</ele>
        <time>2017-07-24T07:03:47Z</time>
      </trkpt>
      <trkpt lat="46.89473" lon="5.02402">
        <ele>174.19999694824</ele>
        <time>2017-07-24T07:07:23Z</time>
      </trkpt>
      <trkpt lat="46.89476" lon="5.02399">
        <ele>174.19999694824</ele>
        <time>2017-07-24T07:07:25Z</time>
      </trkpt>
      <trkpt lat="46.89487" lon="5.02395">
        <ele>174</ele>
        <time>2017-07-24T07:07:34Z</time>
      </trkpt>
      <trkpt lat="46.89492" lon="5.02397">
        <ele>173.80000305176</ele>
        <time>2017-07-24T07:09:10Z</time>
      </trkpt>
      <trkpt lat="46.89499" lon="5.02402">
        <ele>173.80000305176</ele>
        <time>2017-07-24T07:09:17Z</time>
      </trkpt>
      <trkpt lat="46.89506" lon="5.0241">
        <ele>174</ele>
        <time>2017-07-24T07:09:24Z</time>
      </trkpt>
      <trkpt lat="46.89514" lon="5.02414">
        <ele>174.39999389648</ele>
        <time>2017-07-24T07:09:31Z</time>
      </trkpt>
      <trkpt lat="46.89521" lon="5.0242">
        <ele>174.60000610352</ele>
        <time>2017-07-24T07:09:39Z</time>
      </trkpt>
      <trkpt lat="46.89521" lon="5.02421">
        <ele>174.80000305176</ele>
        <time>2017-07-24T07:09:45Z</time>
      </trkpt>
      <trkpt lat="46.89524" lon="5.02416">
        <ele>173.80000305176</ele>
        <time>2017-07-24T07:16:21Z</time>
      </trkpt>
      <trkpt lat="46.89521" lon="5.02415">
        <ele>173.80000305176</ele>
        <time>2017-07-24T07:16:23Z</time>
      </trkpt>
      <trkpt lat="46.89517" lon="5.02414">
        <ele>173.80000305176</ele>
        <time>2017-07-24T07:16:25Z</time>
      </trkpt>
      <trkpt lat="46.89508" lon="5.02405">
        <ele>173.60000610352</ele>
        <time>2017-07-24T07:16:29Z</time>
      </trkpt>
      <trkpt lat="46.89494" lon="5.02398">
        <ele>173.19999694824</ele>
        <time>2017-07-24T07:16:33Z</time>
      </trkpt>
      <trkpt lat="46.89487" lon="5.02395">
        <ele>173.19999694824</ele>
        <time>2017-07-24T07:16:35Z</time>
      </trkpt>
      <trkpt lat="46.89463" lon="5.02386">
        <ele>172.80000305176</ele>
        <time>2017-07-24T07:16:42Z</time>
      </trkpt>
      <trkpt lat="46.89442" lon="5.02379">
        <ele>172.39999389648</ele>
        <time>2017-07-24T07:16:48Z</time>
      </trkpt>
      <trkpt lat="46.89433" lon="5.02366">
        <ele>172.19999694824</ele>
        <time>2017-07-24T07:16:52Z</time>
      </trkpt>
      <trkpt lat="46.89424" lon="5.0235">
        <ele>171.80000305176</ele>
        <time>2017-07-24T07:16:58Z</time>
      </trkpt>
      <trkpt lat="46.89416" lon="5.02334">
        <ele>171.60000610352</ele>
        <time>2017-07-24T07:17:05Z</time>
      </trkpt>
      <trkpt lat="46.8941" lon="5.02323">
        <ele>171.39999389648</ele>
        <time>2017-07-24T07:17:13Z</time>
      </trkpt>
      <trkpt lat="46.89401" lon="5.02307">
        <ele>171.39999389648</ele>
        <time>2017-07-24T07:17:20Z</time>
      </trkpt>
      <trkpt lat="46.89397" lon="5.02304">
        <ele>171.39999389648</ele>
        <time>2017-07-24T07:18:12Z</time>
      </trkpt>
      <trkpt lat="46.89405" lon="5.02319">
        <ele>171.39999389648</ele>
        <time>2017-07-24T07:18:17Z</time>
      </trkpt>
      <trkpt lat="46.89416" lon="5.02336">
        <ele>171.39999389648</ele>
        <time>2017-07-24T07:18:22Z</time>
      </trkpt>
      <trkpt lat="46.89426" lon="5.02355">
        <ele>171.39999389648</ele>
        <time>2017-07-24T07:18:28Z</time>
      </trkpt>
      <trkpt lat="46.89432" lon="5.02366">
        <ele>171.19999694824</ele>
        <time>2017-07-24T07:18:32Z</time>
      </trkpt>
      <trkpt lat="46.89433" lon="5.02369">
        <ele>171.19999694824</ele>
        <time>2017-07-24T07:18:33Z</time>
      </trkpt>
      <trkpt lat="46.8943" lon="5.02374">
        <ele>171.19999694824</ele>
        <time>2017-07-24T07:18:35Z</time>
      </trkpt>
      <trkpt lat="46.89423" lon="5.02373">
        <ele>171.19999694824</ele>
        <time>2017-07-24T07:18:37Z</time>
      </trkpt>
      <trkpt lat="46.89415" lon="5.0237">
        <ele>171.19999694824</ele>
        <time>2017-07-24T07:18:39Z</time>
      </trkpt>
      <trkpt lat="46.89402" lon="5.02366">
        <ele>171.19999694824</ele>
        <time>2017-07-24T07:18:42Z</time>
      </trkpt>
      <trkpt lat="46.89357" lon="5.02353">
        <ele>171.39999389648</ele>
        <time>2017-07-24T07:18:52Z</time>
      </trkpt>
      <trkpt lat="46.89317" lon="5.0234">
        <ele>171.39999389648</ele>
        <time>2017-07-24T07:19:01Z</time>
      </trkpt>
      <trkpt lat="46.89281" lon="5.02332">
        <ele>171.39999389648</ele>
        <time>2017-07-24T07:19:10Z</time>
      </trkpt>
      <trkpt lat="46.89276" lon="5.02332">
        <ele>171</ele>
        <time>2017-07-24T07:22:22Z</time>
      </trkpt>
      <trkpt lat="46.89274" lon="5.02327">
        <ele>171</ele>
        <time>2017-07-24T07:22:24Z</time>
      </trkpt>
      <trkpt lat="46.89264" lon="5.02324">
        <ele>171.19999694824</ele>
        <time>2017-07-24T07:22:28Z</time>
      </trkpt>
      <trkpt lat="46.8926" lon="5.02324">
        <ele>171.19999694824</ele>
        <time>2017-07-24T07:22:29Z</time>
      </trkpt>
      <trkpt lat="46.89245" lon="5.0233">
        <ele>171.19999694824</ele>
        <time>2017-07-24T07:22:33Z</time>
      </trkpt>
      <trkpt lat="46.89231" lon="5.02341">
        <ele>171.19999694824</ele>
        <time>2017-07-24T07:22:37Z</time>
      </trkpt>
      <trkpt lat="46.89221" lon="5.02352">
        <ele>171</ele>
        <time>2017-07-24T07:22:40Z</time>
      </trkpt>
      <trkpt lat="46.89214" lon="5.02361">
        <ele>171</ele>
        <time>2017-07-24T07:22:42Z</time>
      </trkpt>
      <trkpt lat="46.89202" lon="5.02375">
        <ele>171</ele>
        <time>2017-07-24T07:22:46Z</time>
      </trkpt>
      <trkpt lat="46.89175" lon="5.02403">
        <ele>170.80000305176</ele>
        <time>2017-07-24T07:22:54Z</time>
      </trkpt>
      <trkpt lat="46.89154" lon="5.02428">
        <ele>170.80000305176</ele>
        <time>2017-07-24T07:23:00Z</time>
      </trkpt>
      <trkpt lat="46.89142" lon="5.0244">
        <ele>170.80000305176</ele>
        <time>2017-07-24T07:23:03Z</time>
      </trkpt>
      <trkpt lat="46.89125" lon="5.02465">
        <ele>171</ele>
        <time>2017-07-24T07:23:08Z</time>
      </trkpt>
      <trkpt lat="46.8912" lon="5.02478">
        <ele>171</ele>
        <time>2017-07-24T07:23:10Z</time>
      </trkpt>
      <trkpt lat="46.89118" lon="5.02484">
        <ele>171</ele>
        <time>2017-07-24T07:23:11Z</time>
      </trkpt>
      <trkpt lat="46.89109" lon="5.0252">
        <ele>171</ele>
        <time>2017-07-24T07:23:16Z</time>
      </trkpt>
      <trkpt lat="46.89098" lon="5.02566">
        <ele>171</ele>
        <time>2017-07-24T07:23:23Z</time>
      </trkpt>
      <trkpt lat="46.89096" lon="5.02572">
        <ele>171</ele>
        <time>2017-07-24T07:23:24Z</time>
      </trkpt>
      <trkpt lat="46.89089" lon="5.02601">
        <ele>171.19999694824</ele>
        <time>2017-07-24T07:23:29Z</time>
      </trkpt>
      <trkpt lat="46.89078" lon="5.02647">
        <ele>171.19999694824</ele>
        <time>2017-07-24T07:23:36Z</time>
      </trkpt>
      <trkpt lat="46.89075" lon="5.0266">
        <ele>171.19999694824</ele>
        <time>2017-07-24T07:23:38Z</time>
      </trkpt>
      <trkpt lat="46.89068" lon="5.02705">
        <ele>171.19999694824</ele>
        <time>2017-07-24T07:23:44Z</time>
      </trkpt>
      <trkpt lat="46.89057" lon="5.02789">
        <ele>171.39999389648</ele>
        <time>2017-07-24T07:23:55Z</time>
      </trkpt>
      <trkpt lat="46.89052" lon="5.02841">
        <ele>170.80000305176</ele>
        <time>2017-07-24T07:24:02Z</time>
      </trkpt>
      <trkpt lat="46.89043" lon="5.02908">
        <ele>171</ele>
        <time>2017-07-24T07:24:11Z</time>
      </trkpt>
      <trkpt lat="46.89035" lon="5.02968">
        <ele>171</ele>
        <time>2017-07-24T07:24:19Z</time>
      </trkpt>
      <trkpt lat="46.89027" lon="5.03024">
        <ele>171.19999694824</ele>
        <time>2017-07-24T07:24:26Z</time>
      </trkpt>
      <trkpt lat="46.89016" lon="5.03095">
        <ele>171.19999694824</ele>
        <time>2017-07-24T07:24:35Z</time>
      </trkpt>
      <trkpt lat="46.89008" lon="5.03161">
        <ele>171.80000305176</ele>
        <time>2017-07-24T07:24:44Z</time>
      </trkpt>
      <trkpt lat="46.89008" lon="5.03169">
        <ele>172</ele>
        <time>2017-07-24T07:24:45Z</time>
      </trkpt>
      <trkpt lat="46.89001" lon="5.03221">
        <ele>172.39999389648</ele>
        <time>2017-07-24T07:24:52Z</time>
      </trkpt>
      <trkpt lat="46.88996" lon="5.03251">
        <ele>172.60000610352</ele>
        <time>2017-07-24T07:24:56Z</time>
      </trkpt>
      <trkpt lat="46.88989" lon="5.03273">
        <ele>172.60000610352</ele>
        <time>2017-07-24T07:24:59Z</time>
      </trkpt>
      <trkpt lat="46.88968" lon="5.03312">
        <ele>172.60000610352</ele>
        <time>2017-07-24T07:25:05Z</time>
      </trkpt>
      <trkpt lat="46.88939" lon="5.0334">
        <ele>172.60000610352</ele>
        <time>2017-07-24T07:25:11Z</time>
      </trkpt>
      <trkpt lat="46.88911" lon="5.03363">
        <ele>173</ele>
        <time>2017-07-24T07:25:17Z</time>
      </trkpt>
      <trkpt lat="46.88902" lon="5.03371">
        <ele>173.19999694824</ele>
        <time>2017-07-24T07:25:19Z</time>
      </trkpt>
      <trkpt lat="46.88882" lon="5.0339">
        <ele>173.80000305176</ele>
        <time>2017-07-24T07:25:24Z</time>
      </trkpt>
      <trkpt lat="46.88874" lon="5.034">
        <ele>174</ele>
        <time>2017-07-24T07:25:26Z</time>
      </trkpt>
      <trkpt lat="46.88866" lon="5.03411">
        <ele>174.19999694824</ele>
        <time>2017-07-24T07:25:28Z</time>
      </trkpt>
      <trkpt lat="46.88851" lon="5.03438">
        <ele>174.19999694824</ele>
        <time>2017-07-24T07:25:32Z</time>
      </trkpt>
      <trkpt lat="46.88823" lon="5.03504">
        <ele>173</ele>
        <time>2017-07-24T07:25:40Z</time>
      </trkpt>
      <trkpt lat="46.88793" lon="5.03553">
        <ele>172.60000610352</ele>
        <time>2017-07-24T07:25:47Z</time>
      </trkpt>
      <trkpt lat="46.88755" lon="5.03615">
        <ele>172.19999694824</ele>
        <time>2017-07-24T07:25:56Z</time>
      </trkpt>
      <trkpt lat="46.88747" lon="5.03629">
        <ele>172.19999694824</ele>
        <time>2017-07-24T07:25:58Z</time>
      </trkpt>
      <trkpt lat="46.88739" lon="5.03642">
        <ele>172</ele>
        <time>2017-07-24T07:26:00Z</time>
      </trkpt>
      <trkpt lat="46.88702" lon="5.03706">
        <ele>171.80000305176</ele>
        <time>2017-07-24T07:26:09Z</time>
      </trkpt>
      <trkpt lat="46.88673" lon="5.0376">
        <ele>171.39999389648</ele>
        <time>2017-07-24T07:26:16Z</time>
      </trkpt>
      <trkpt lat="46.88632" lon="5.03822">
        <ele>171.39999389648</ele>
        <time>2017-07-24T07:26:25Z</time>
      </trkpt>
      <trkpt lat="46.88623" lon="5.03836">
        <ele>171.39999389648</ele>
        <time>2017-07-24T07:26:27Z</time>
      </trkpt>
      <trkpt lat="46.88586" lon="5.03895">
        <ele>171.39999389648</ele>
        <time>2017-07-24T07:26:36Z</time>
      </trkpt>
      <trkpt lat="46.88573" lon="5.03914">
        <ele>171.39999389648</ele>
        <time>2017-07-24T07:26:39Z</time>
      </trkpt>
      <trkpt lat="46.88534" lon="5.03975">
        <ele>172</ele>
        <time>2017-07-24T07:26:49Z</time>
      </trkpt>
      <trkpt lat="46.88526" lon="5.03987">
        <ele>172</ele>
        <time>2017-07-24T07:26:51Z</time>
      </trkpt>
      <trkpt lat="46.88487" lon="5.04047">
        <ele>172.19999694824</ele>
        <time>2017-07-24T07:27:01Z</time>
      </trkpt>
      <trkpt lat="46.88449" lon="5.04107">
        <ele>172.39999389648</ele>
        <time>2017-07-24T07:27:11Z</time>
      </trkpt>
      <trkpt lat="46.8843" lon="5.04149">
        <ele>172.80000305176</ele>
        <time>2017-07-24T07:27:18Z</time>
      </trkpt>
      <trkpt lat="46.88416" lon="5.04182">
        <ele>172.80000305176</ele>
        <time>2017-07-24T07:27:23Z</time>
      </trkpt>
      <trkpt lat="46.88407" lon="5.04192">
        <ele>172.80000305176</ele>
        <time>2017-07-24T07:27:25Z</time>
      </trkpt>
      <trkpt lat="46.88389" lon="5.04193">
        <ele>173</ele>
        <time>2017-07-24T07:27:28Z</time>
      </trkpt>
      <trkpt lat="46.8837" lon="5.04192">
        <ele>173</ele>
        <time>2017-07-24T07:27:31Z</time>
      </trkpt>
      <trkpt lat="46.88326" lon="5.04189">
        <ele>173.39999389648</ele>
        <time>2017-07-24T07:27:38Z</time>
      </trkpt>
      <trkpt lat="46.88269" lon="5.0419">
        <ele>173.60000610352</ele>
        <time>2017-07-24T07:27:47Z</time>
      </trkpt>
      <trkpt lat="46.88263" lon="5.0419">
        <ele>173.60000610352</ele>
        <time>2017-07-24T07:27:48Z</time>
      </trkpt>
      <trkpt lat="46.88213" lon="5.04197">
        <ele>173.60000610352</ele>
        <time>2017-07-24T07:27:56Z</time>
      </trkpt>
      <trkpt lat="46.88167" lon="5.04216">
        <ele>173.60000610352</ele>
        <time>2017-07-24T07:28:04Z</time>
      </trkpt>
      <trkpt lat="46.88146" lon="5.04227">
        <ele>173.60000610352</ele>
        <time>2017-07-24T07:28:08Z</time>
      </trkpt>
      <trkpt lat="46.88132" lon="5.04237">
        <ele>173.80000305176</ele>
        <time>2017-07-24T07:28:11Z</time>
      </trkpt>
      <trkpt lat="46.88089" lon="5.0427">
        <ele>174</ele>
        <time>2017-07-24T07:28:20Z</time>
      </trkpt>
      <trkpt lat="46.88079" lon="5.04277">
        <ele>174</ele>
        <time>2017-07-24T07:28:22Z</time>
      </trkpt>
      <trkpt lat="46.88051" lon="5.04299">
        <ele>174.39999389648</ele>
        <time>2017-07-24T07:28:28Z</time>
      </trkpt>
      <trkpt lat="46.88014" lon="5.04319">
        <ele>174.80000305176</ele>
        <time>2017-07-24T07:28:35Z</time>
      </trkpt>
      <trkpt lat="46.87973" lon="5.04345">
        <ele>175</ele>
        <time>2017-07-24T07:28:43Z</time>
      </trkpt>
      <trkpt lat="46.87947" lon="5.04364">
        <ele>175</ele>
        <time>2017-07-24T07:28:48Z</time>
      </trkpt>
      <trkpt lat="46.87931" lon="5.04376">
        <ele>175.19999694824</ele>
        <time>2017-07-24T07:28:51Z</time>
      </trkpt>
      <trkpt lat="46.87885" lon="5.04411">
        <ele>175.80000305176</ele>
        <time>2017-07-24T07:29:00Z</time>
      </trkpt>
      <trkpt lat="46.87841" lon="5.04445">
        <ele>176</ele>
        <time>2017-07-24T07:29:09Z</time>
      </trkpt>
      <trkpt lat="46.87836" lon="5.04449">
        <ele>176.19999694824</ele>
        <time>2017-07-24T07:29:10Z</time>
      </trkpt>
      <trkpt lat="46.87795" lon="5.04479">
        <ele>176.39999389648</ele>
        <time>2017-07-24T07:29:18Z</time>
      </trkpt>
      <trkpt lat="46.8776" lon="5.04501">
        <ele>177.19999694824</ele>
        <time>2017-07-24T07:29:25Z</time>
      </trkpt>
      <trkpt lat="46.87751" lon="5.04506">
        <ele>177.60000610352</ele>
        <time>2017-07-24T07:29:27Z</time>
      </trkpt>
      <trkpt lat="46.87724" lon="5.04523">
        <ele>178.39999389648</ele>
        <time>2017-07-24T07:29:33Z</time>
      </trkpt>
      <trkpt lat="46.8771" lon="5.04531">
        <ele>178.80000305176</ele>
        <time>2017-07-24T07:29:36Z</time>
      </trkpt>
      <trkpt lat="46.87684" lon="5.04548">
        <ele>179.39999389648</ele>
        <time>2017-07-24T07:29:42Z</time>
      </trkpt>
      <trkpt lat="46.87671" lon="5.04556">
        <ele>179.80000305176</ele>
        <time>2017-07-24T07:29:45Z</time>
      </trkpt>
      <trkpt lat="46.87646" lon="5.04571">
        <ele>180.39999389648</ele>
        <time>2017-07-24T07:29:51Z</time>
      </trkpt>
      <trkpt lat="46.87634" lon="5.0458">
        <ele>180.80000305176</ele>
        <time>2017-07-24T07:29:54Z</time>
      </trkpt>
      <trkpt lat="46.87621" lon="5.04586">
        <ele>181</ele>
        <time>2017-07-24T07:29:57Z</time>
      </trkpt>
      <trkpt lat="46.87608" lon="5.04593">
        <ele>181.39999389648</ele>
        <time>2017-07-24T07:30:00Z</time>
      </trkpt>
      <trkpt lat="46.87599" lon="5.04597">
        <ele>181.60000610352</ele>
        <time>2017-07-24T07:30:02Z</time>
      </trkpt>
      <trkpt lat="46.87585" lon="5.04601">
        <ele>181.60000610352</ele>
        <time>2017-07-24T07:30:05Z</time>
      </trkpt>
      <trkpt lat="46.87575" lon="5.04602">
        <ele>181.80000305176</ele>
        <time>2017-07-24T07:30:07Z</time>
      </trkpt>
      <trkpt lat="46.87535" lon="5.04596">
        <ele>182.60000610352</ele>
        <time>2017-07-24T07:30:15Z</time>
      </trkpt>
      <trkpt lat="46.87496" lon="5.0458">
        <ele>183</ele>
        <time>2017-07-24T07:30:23Z</time>
      </trkpt>
      <trkpt lat="46.87445" lon="5.04561">
        <ele>183.60000610352</ele>
        <time>2017-07-24T07:30:33Z</time>
      </trkpt>
      <trkpt lat="46.8744" lon="5.0456">
        <ele>183.60000610352</ele>
        <time>2017-07-24T07:30:34Z</time>
      </trkpt>
      <trkpt lat="46.87387" lon="5.04539">
        <ele>184</ele>
        <time>2017-07-24T07:30:44Z</time>
      </trkpt>
      <trkpt lat="46.87344" lon="5.04523">
        <ele>184.19999694824</ele>
        <time>2017-07-24T07:30:52Z</time>
      </trkpt>
      <trkpt lat="46.87292" lon="5.04503">
        <ele>184.19999694824</ele>
        <time>2017-07-24T07:31:01Z</time>
      </trkpt>
      <trkpt lat="46.87251" lon="5.04488">
        <ele>183.80000305176</ele>
        <time>2017-07-24T07:31:08Z</time>
      </trkpt>
      <trkpt lat="46.87196" lon="5.04468">
        <ele>183.60000610352</ele>
        <time>2017-07-24T07:31:17Z</time>
      </trkpt>
      <trkpt lat="46.87184" lon="5.04464">
        <ele>183.60000610352</ele>
        <time>2017-07-24T07:31:19Z</time>
      </trkpt>
      <trkpt lat="46.87136" lon="5.04446">
        <ele>183.60000610352</ele>
        <time>2017-07-24T07:31:27Z</time>
      </trkpt>
      <trkpt lat="46.87082" lon="5.04431">
        <ele>183.39999389648</ele>
        <time>2017-07-24T07:31:36Z</time>
      </trkpt>
      <trkpt lat="46.87038" lon="5.04432">
        <ele>183.19999694824</ele>
        <time>2017-07-24T07:31:43Z</time>
      </trkpt>
      <trkpt lat="46.86997" lon="5.04439">
        <ele>182.60000610352</ele>
        <time>2017-07-24T07:31:49Z</time>
      </trkpt>
      <trkpt lat="46.86983" lon="5.04441">
        <ele>182</ele>
        <time>2017-07-24T07:31:51Z</time>
      </trkpt>
      <trkpt lat="46.8696" lon="5.04445">
        <ele>181.39999389648</ele>
        <time>2017-07-24T07:31:54Z</time>
      </trkpt>
      <trkpt lat="46.86928" lon="5.04449">
        <ele>180.19999694824</ele>
        <time>2017-07-24T07:31:58Z</time>
      </trkpt>
      <trkpt lat="46.86911" lon="5.04452">
        <ele>179.60000610352</ele>
        <time>2017-07-24T07:32:00Z</time>
      </trkpt>
      <trkpt lat="46.86894" lon="5.04455">
        <ele>179</ele>
        <time>2017-07-24T07:32:02Z</time>
      </trkpt>
      <trkpt lat="46.86868" lon="5.04462">
        <ele>178</ele>
        <time>2017-07-24T07:32:05Z</time>
      </trkpt>
      <trkpt lat="46.8685" lon="5.04467">
        <ele>177.19999694824</ele>
        <time>2017-07-24T07:32:07Z</time>
      </trkpt>
      <trkpt lat="46.86841" lon="5.0447">
        <ele>177</ele>
        <time>2017-07-24T07:32:08Z</time>
      </trkpt>
      <trkpt lat="46.86816" lon="5.04484">
        <ele>175.80000305176</ele>
        <time>2017-07-24T07:32:11Z</time>
      </trkpt>
      <trkpt lat="46.86808" lon="5.04489">
        <ele>175.39999389648</ele>
        <time>2017-07-24T07:32:12Z</time>
      </trkpt>
      <trkpt lat="46.86786" lon="5.04504">
        <ele>174.19999694824</ele>
        <time>2017-07-24T07:32:15Z</time>
      </trkpt>
      <trkpt lat="46.86757" lon="5.04519">
        <ele>173.19999694824</ele>
        <time>2017-07-24T07:32:19Z</time>
      </trkpt>
      <trkpt lat="46.8675" lon="5.04522">
        <ele>173.19999694824</ele>
        <time>2017-07-24T07:32:20Z</time>
      </trkpt>
      <trkpt lat="46.86743" lon="5.04525">
        <ele>173</ele>
        <time>2017-07-24T07:32:21Z</time>
      </trkpt>
      <trkpt lat="46.8673" lon="5.0453">
        <ele>172.80000305176</ele>
        <time>2017-07-24T07:32:23Z</time>
      </trkpt>
      <trkpt lat="46.86719" lon="5.04523">
        <ele>172.80000305176</ele>
        <time>2017-07-24T07:32:25Z</time>
      </trkpt>
      <trkpt lat="46.86705" lon="5.04502">
        <ele>172.80000305176</ele>
        <time>2017-07-24T07:32:28Z</time>
      </trkpt>
      <trkpt lat="46.86695" lon="5.04489">
        <ele>172.80000305176</ele>
        <time>2017-07-24T07:32:30Z</time>
      </trkpt>
      <trkpt lat="46.86653" lon="5.04428">
        <ele>173</ele>
        <time>2017-07-24T07:32:39Z</time>
      </trkpt>
      <trkpt lat="46.86649" lon="5.04422">
        <ele>173</ele>
        <time>2017-07-24T07:32:40Z</time>
      </trkpt>
      <trkpt lat="46.86607" lon="5.04363">
        <ele>173.19999694824</ele>
        <time>2017-07-24T07:32:49Z</time>
      </trkpt>
      <trkpt lat="46.86575" lon="5.04317">
        <ele>173.80000305176</ele>
        <time>2017-07-24T07:32:56Z</time>
      </trkpt>
      <trkpt lat="46.86566" lon="5.04305">
        <ele>174.19999694824</ele>
        <time>2017-07-24T07:32:58Z</time>
      </trkpt>
      <trkpt lat="46.86555" lon="5.04288">
        <ele>174.60000610352</ele>
        <time>2017-07-24T07:33:01Z</time>
      </trkpt>
      <trkpt lat="46.86547" lon="5.04278">
        <ele>174.80000305176</ele>
        <time>2017-07-24T07:33:03Z</time>
      </trkpt>
      <trkpt lat="46.86533" lon="5.04258">
        <ele>175.19999694824</ele>
        <time>2017-07-24T07:33:07Z</time>
      </trkpt>
      <trkpt lat="46.86516" lon="5.04234">
        <ele>175.80000305176</ele>
        <time>2017-07-24T07:33:12Z</time>
      </trkpt>
      <trkpt lat="46.86503" lon="5.04215">
        <ele>176.39999389648</ele>
        <time>2017-07-24T07:33:16Z</time>
      </trkpt>
      <trkpt lat="46.86489" lon="5.04196">
        <ele>177</ele>
        <time>2017-07-24T07:33:20Z</time>
      </trkpt>
      <trkpt lat="46.86479" lon="5.04182">
        <ele>177.39999389648</ele>
        <time>2017-07-24T07:33:23Z</time>
      </trkpt>
      <trkpt lat="46.86458" lon="5.04154">
        <ele>178.39999389648</ele>
        <time>2017-07-24T07:33:29Z</time>
      </trkpt>
      <trkpt lat="46.86455" lon="5.04149">
        <ele>178.60000610352</ele>
        <time>2017-07-24T07:33:30Z</time>
      </trkpt>
      <trkpt lat="46.86444" lon="5.04134">
        <ele>178.80000305176</ele>
        <time>2017-07-24T07:33:33Z</time>
      </trkpt>
      <trkpt lat="46.86433" lon="5.0412">
        <ele>179.19999694824</ele>
        <time>2017-07-24T07:33:36Z</time>
      </trkpt>
      <trkpt lat="46.86426" lon="5.0411">
        <ele>179.60000610352</ele>
        <time>2017-07-24T07:33:38Z</time>
      </trkpt>
      <trkpt lat="46.86406" lon="5.0408">
        <ele>180.39999389648</ele>
        <time>2017-07-24T07:33:44Z</time>
      </trkpt>
      <trkpt lat="46.86402" lon="5.04075">
        <ele>180.60000610352</ele>
        <time>2017-07-24T07:33:45Z</time>
      </trkpt>
      <trkpt lat="46.86378" lon="5.04039">
        <ele>181.19999694824</ele>
        <time>2017-07-24T07:33:52Z</time>
      </trkpt>
      <trkpt lat="46.86345" lon="5.03986">
        <ele>181.19999694824</ele>
        <time>2017-07-24T07:34:01Z</time>
      </trkpt>
      <trkpt lat="46.86308" lon="5.03924">
        <ele>180.19999694824</ele>
        <time>2017-07-24T07:34:10Z</time>
      </trkpt>
      <trkpt lat="46.86294" lon="5.03901">
        <ele>179.39999389648</ele>
        <time>2017-07-24T07:34:13Z</time>
      </trkpt>
      <trkpt lat="46.86279" lon="5.03875">
        <ele>178.19999694824</ele>
        <time>2017-07-24T07:34:16Z</time>
      </trkpt>
      <trkpt lat="46.86273" lon="5.03866">
        <ele>178</ele>
        <time>2017-07-24T07:34:17Z</time>
      </trkpt>
      <trkpt lat="46.86256" lon="5.03839">
        <ele>177.19999694824</ele>
        <time>2017-07-24T07:34:20Z</time>
      </trkpt>
      <trkpt lat="46.86233" lon="5.038">
        <ele>176</ele>
        <time>2017-07-24T07:34:24Z</time>
      </trkpt>
      <trkpt lat="46.86227" lon="5.03791">
        <ele>175.60000610352</ele>
        <time>2017-07-24T07:34:25Z</time>
      </trkpt>
      <trkpt lat="46.86208" lon="5.03761">
        <ele>174.60000610352</ele>
        <time>2017-07-24T07:34:28Z</time>
      </trkpt>
      <trkpt lat="46.86191" lon="5.03732">
        <ele>173.39999389648</ele>
        <time>2017-07-24T07:34:31Z</time>
      </trkpt>
      <trkpt lat="46.86174" lon="5.03705">
        <ele>172.80000305176</ele>
        <time>2017-07-24T07:34:34Z</time>
      </trkpt>
      <trkpt lat="46.86163" lon="5.03687">
        <ele>172.39999389648</ele>
        <time>2017-07-24T07:34:36Z</time>
      </trkpt>
      <trkpt lat="46.86133" lon="5.03636">
        <ele>171.60000610352</ele>
        <time>2017-07-24T07:34:42Z</time>
      </trkpt>
      <trkpt lat="46.86096" lon="5.03575">
        <ele>171.80000305176</ele>
        <time>2017-07-24T07:34:50Z</time>
      </trkpt>
      <trkpt lat="46.86091" lon="5.03568">
        <ele>171.80000305176</ele>
        <time>2017-07-24T07:34:51Z</time>
      </trkpt>
      <trkpt lat="46.86058" lon="5.03513">
        <ele>172</ele>
        <time>2017-07-24T07:34:59Z</time>
      </trkpt>
      <trkpt lat="46.86024" lon="5.03456">
        <ele>172.39999389648</ele>
        <time>2017-07-24T07:35:08Z</time>
      </trkpt>
      <trkpt lat="46.86021" lon="5.0345">
        <ele>172.39999389648</ele>
        <time>2017-07-24T07:35:09Z</time>
      </trkpt>
      <trkpt lat="46.85984" lon="5.03389">
        <ele>173</ele>
        <time>2017-07-24T07:35:19Z</time>
      </trkpt>
      <trkpt lat="46.85963" lon="5.03356">
        <ele>173.60000610352</ele>
        <time>2017-07-24T07:35:25Z</time>
      </trkpt>
      <trkpt lat="46.8595" lon="5.03335">
        <ele>174</ele>
        <time>2017-07-24T07:35:29Z</time>
      </trkpt>
      <trkpt lat="46.85935" lon="5.03307">
        <ele>174.60000610352</ele>
        <time>2017-07-24T07:35:34Z</time>
      </trkpt>
      <trkpt lat="46.85929" lon="5.03297">
        <ele>174.80000305176</ele>
        <time>2017-07-24T07:35:36Z</time>
      </trkpt>
      <trkpt lat="46.85914" lon="5.03272">
        <ele>175.60000610352</ele>
        <time>2017-07-24T07:35:41Z</time>
      </trkpt>
      <trkpt lat="46.85902" lon="5.03254">
        <ele>175.80000305176</ele>
        <time>2017-07-24T07:35:45Z</time>
      </trkpt>
      <trkpt lat="46.85884" lon="5.03225">
        <ele>176.80000305176</ele>
        <time>2017-07-24T07:35:51Z</time>
      </trkpt>
      <trkpt lat="46.85879" lon="5.03216">
        <ele>177.19999694824</ele>
        <time>2017-07-24T07:35:53Z</time>
      </trkpt>
      <trkpt lat="46.85868" lon="5.03198">
        <ele>178</ele>
        <time>2017-07-24T07:35:57Z</time>
      </trkpt>
      <trkpt lat="46.8586" lon="5.03186">
        <ele>178.39999389648</ele>
        <time>2017-07-24T07:36:00Z</time>
      </trkpt>
      <trkpt lat="46.8585" lon="5.03168">
        <ele>179.19999694824</ele>
        <time>2017-07-24T07:36:04Z</time>
      </trkpt>
      <trkpt lat="46.85839" lon="5.0315">
        <ele>180</ele>
        <time>2017-07-24T07:36:08Z</time>
      </trkpt>
      <trkpt lat="46.85834" lon="5.03141">
        <ele>180.19999694824</ele>
        <time>2017-07-24T07:36:10Z</time>
      </trkpt>
      <trkpt lat="46.8582" lon="5.03118">
        <ele>181</ele>
        <time>2017-07-24T07:36:15Z</time>
      </trkpt>
      <trkpt lat="46.85814" lon="5.03108">
        <ele>181.19999694824</ele>
        <time>2017-07-24T07:36:17Z</time>
      </trkpt>
      <trkpt lat="46.85789" lon="5.03067">
        <ele>182.39999389648</ele>
        <time>2017-07-24T07:36:25Z</time>
      </trkpt>
      <trkpt lat="46.85757" lon="5.03011">
        <ele>183</ele>
        <time>2017-07-24T07:36:35Z</time>
      </trkpt>
      <trkpt lat="46.8572" lon="5.02948">
        <ele>182.39999389648</ele>
        <time>2017-07-24T07:36:45Z</time>
      </trkpt>
      <trkpt lat="46.85683" lon="5.02887">
        <ele>181.19999694824</ele>
        <time>2017-07-24T07:36:54Z</time>
      </trkpt>
      <trkpt lat="46.85679" lon="5.0288">
        <ele>181.19999694824</ele>
        <time>2017-07-24T07:36:55Z</time>
      </trkpt>
      <trkpt lat="46.8565" lon="5.02831">
        <ele>180.19999694824</ele>
        <time>2017-07-24T07:37:01Z</time>
      </trkpt>
      <trkpt lat="46.85645" lon="5.02823">
        <ele>179.80000305176</ele>
        <time>2017-07-24T07:37:02Z</time>
      </trkpt>
      <trkpt lat="46.85635" lon="5.02806">
        <ele>179</ele>
        <time>2017-07-24T07:37:04Z</time>
      </trkpt>
      <trkpt lat="46.8561" lon="5.02764">
        <ele>177.80000305176</ele>
        <time>2017-07-24T07:37:09Z</time>
      </trkpt>
      <trkpt lat="46.85605" lon="5.02756">
        <ele>177.80000305176</ele>
        <time>2017-07-24T07:37:10Z</time>
      </trkpt>
      <trkpt lat="46.85581" lon="5.02717">
        <ele>176.80000305176</ele>
        <time>2017-07-24T07:37:15Z</time>
      </trkpt>
      <trkpt lat="46.85567" lon="5.02693">
        <ele>176.39999389648</ele>
        <time>2017-07-24T07:37:18Z</time>
      </trkpt>
      <trkpt lat="46.85543" lon="5.02654">
        <ele>175.60000610352</ele>
        <time>2017-07-24T07:37:23Z</time>
      </trkpt>
      <trkpt lat="46.8552" lon="5.02616">
        <ele>175.39999389648</ele>
        <time>2017-07-24T07:37:28Z</time>
      </trkpt>
      <trkpt lat="46.85487" lon="5.0256">
        <ele>175.60000610352</ele>
        <time>2017-07-24T07:37:36Z</time>
      </trkpt>
      <trkpt lat="46.85452" lon="5.02503">
        <ele>176</ele>
        <time>2017-07-24T07:37:45Z</time>
      </trkpt>
      <trkpt lat="46.8543" lon="5.02467">
        <ele>176.80000305176</ele>
        <time>2017-07-24T07:37:51Z</time>
      </trkpt>
      <trkpt lat="46.8542" lon="5.0245">
        <ele>177.19999694824</ele>
        <time>2017-07-24T07:37:54Z</time>
      </trkpt>
      <trkpt lat="46.85399" lon="5.02416">
        <ele>178</ele>
        <time>2017-07-24T07:38:00Z</time>
      </trkpt>
      <trkpt lat="46.85392" lon="5.02404">
        <ele>178.39999389648</ele>
        <time>2017-07-24T07:38:02Z</time>
      </trkpt>
      <trkpt lat="46.85379" lon="5.02381">
        <ele>179</ele>
        <time>2017-07-24T07:38:06Z</time>
      </trkpt>
      <trkpt lat="46.85358" lon="5.02346">
        <ele>179.60000610352</ele>
        <time>2017-07-24T07:38:12Z</time>
      </trkpt>
      <trkpt lat="46.85347" lon="5.02328">
        <ele>180</ele>
        <time>2017-07-24T07:38:15Z</time>
      </trkpt>
      <trkpt lat="46.85326" lon="5.02292">
        <ele>180.19999694824</ele>
        <time>2017-07-24T07:38:21Z</time>
      </trkpt>
      <trkpt lat="46.85304" lon="5.02255">
        <ele>181</ele>
        <time>2017-07-24T07:38:27Z</time>
      </trkpt>
      <trkpt lat="46.85293" lon="5.02236">
        <ele>181.19999694824</ele>
        <time>2017-07-24T07:38:30Z</time>
      </trkpt>
      <trkpt lat="46.85258" lon="5.0218">
        <ele>181.60000610352</ele>
        <time>2017-07-24T07:38:39Z</time>
      </trkpt>
      <trkpt lat="46.85219" lon="5.02116">
        <ele>181.60000610352</ele>
        <time>2017-07-24T07:38:49Z</time>
      </trkpt>
      <trkpt lat="46.85183" lon="5.02056">
        <ele>181.60000610352</ele>
        <time>2017-07-24T07:38:58Z</time>
      </trkpt>
      <trkpt lat="46.85179" lon="5.0205">
        <ele>181.60000610352</ele>
        <time>2017-07-24T07:38:59Z</time>
      </trkpt>
      <trkpt lat="46.85145" lon="5.01994">
        <ele>181.39999389648</ele>
        <time>2017-07-24T07:39:07Z</time>
      </trkpt>
      <trkpt lat="46.85124" lon="5.01958">
        <ele>181.19999694824</ele>
        <time>2017-07-24T07:39:13Z</time>
      </trkpt>
      <trkpt lat="46.8512" lon="5.01949">
        <ele>180.19999694824</ele>
        <time>2017-07-24T07:40:55Z</time>
      </trkpt>
      <trkpt lat="46.85115" lon="5.01945">
        <ele>180.19999694824</ele>
        <time>2017-07-24T07:40:58Z</time>
      </trkpt>
      <trkpt lat="46.85106" lon="5.0193">
        <ele>180.19999694824</ele>
        <time>2017-07-24T07:41:02Z</time>
      </trkpt>
      <trkpt lat="46.85103" lon="5.01925">
        <ele>180</ele>
        <time>2017-07-24T07:41:03Z</time>
      </trkpt>
      <trkpt lat="46.851" lon="5.01919">
        <ele>180</ele>
        <time>2017-07-24T07:41:04Z</time>
      </trkpt>
      <trkpt lat="46.85082" lon="5.01889">
        <ele>179.80000305176</ele>
        <time>2017-07-24T07:41:09Z</time>
      </trkpt>
      <trkpt lat="46.85051" lon="5.01835">
        <ele>180</ele>
        <time>2017-07-24T07:41:17Z</time>
      </trkpt>
      <trkpt lat="46.85024" lon="5.01795">
        <ele>180</ele>
        <time>2017-07-24T07:41:23Z</time>
      </trkpt>
      <trkpt lat="46.8499" lon="5.01738">
        <ele>179.60000610352</ele>
        <time>2017-07-24T07:41:31Z</time>
      </trkpt>
      <trkpt lat="46.84951" lon="5.01671">
        <ele>179.19999694824</ele>
        <time>2017-07-24T07:41:40Z</time>
      </trkpt>
      <trkpt lat="46.84942" lon="5.01656">
        <ele>179</ele>
        <time>2017-07-24T07:41:42Z</time>
      </trkpt>
      <trkpt lat="46.84905" lon="5.01596">
        <ele>178.60000610352</ele>
        <time>2017-07-24T07:41:50Z</time>
      </trkpt>
      <trkpt lat="46.84901" lon="5.01589">
        <ele>178.39999389648</ele>
        <time>2017-07-24T07:41:51Z</time>
      </trkpt>
      <trkpt lat="46.84874" lon="5.01545">
        <ele>178</ele>
        <time>2017-07-24T07:41:57Z</time>
      </trkpt>
      <trkpt lat="46.84856" lon="5.01515">
        <ele>177.80000305176</ele>
        <time>2017-07-24T07:42:01Z</time>
      </trkpt>
      <trkpt lat="46.8482" lon="5.01453">
        <ele>177.39999389648</ele>
        <time>2017-07-24T07:42:09Z</time>
      </trkpt>
      <trkpt lat="46.84816" lon="5.01445">
        <ele>177.39999389648</ele>
        <time>2017-07-24T07:42:10Z</time>
      </trkpt>
      <trkpt lat="46.84782" lon="5.01387">
        <ele>177.60000610352</ele>
        <time>2017-07-24T07:42:18Z</time>
      </trkpt>
      <trkpt lat="46.84752" lon="5.01338">
        <ele>177.80000305176</ele>
        <time>2017-07-24T07:42:25Z</time>
      </trkpt>
      <trkpt lat="46.84715" lon="5.01276">
        <ele>178.19999694824</ele>
        <time>2017-07-24T07:42:34Z</time>
      </trkpt>
      <trkpt lat="46.84678" lon="5.01214">
        <ele>179</ele>
        <time>2017-07-24T07:42:43Z</time>
      </trkpt>
      <trkpt lat="46.84674" lon="5.01208">
        <ele>179</ele>
        <time>2017-07-24T07:42:44Z</time>
      </trkpt>
      <trkpt lat="46.84669" lon="5.01201">
        <ele>179</ele>
        <time>2017-07-24T07:42:45Z</time>
      </trkpt>
      <trkpt lat="46.84632" lon="5.0114">
        <ele>179.19999694824</ele>
        <time>2017-07-24T07:42:55Z</time>
      </trkpt>
      <trkpt lat="46.84603" lon="5.01092">
        <ele>179.19999694824</ele>
        <time>2017-07-24T07:43:02Z</time>
      </trkpt>
      <trkpt lat="46.84564" lon="5.01029">
        <ele>179.39999389648</ele>
        <time>2017-07-24T07:43:11Z</time>
      </trkpt>
      <trkpt lat="46.84529" lon="5.00969">
        <ele>179</ele>
        <time>2017-07-24T07:43:19Z</time>
      </trkpt>
      <trkpt lat="46.8452" lon="5.00954">
        <ele>178.80000305176</ele>
        <time>2017-07-24T07:43:21Z</time>
      </trkpt>
      <trkpt lat="46.84492" lon="5.00908">
        <ele>178</ele>
        <time>2017-07-24T07:43:27Z</time>
      </trkpt>
      <trkpt lat="46.84464" lon="5.00862">
        <ele>177.60000610352</ele>
        <time>2017-07-24T07:43:33Z</time>
      </trkpt>
      <trkpt lat="46.84426" lon="5.008">
        <ele>177</ele>
        <time>2017-07-24T07:43:41Z</time>
      </trkpt>
      <trkpt lat="46.84416" lon="5.00783">
        <ele>176.80000305176</ele>
        <time>2017-07-24T07:43:43Z</time>
      </trkpt>
      <trkpt lat="46.84381" lon="5.00724">
        <ele>176</ele>
        <time>2017-07-24T07:43:50Z</time>
      </trkpt>
      <trkpt lat="46.84375" lon="5.00715">
        <ele>175.80000305176</ele>
        <time>2017-07-24T07:43:51Z</time>
      </trkpt>
      <trkpt lat="46.8437" lon="5.00707">
        <ele>175.80000305176</ele>
        <time>2017-07-24T07:43:52Z</time>
      </trkpt>
      <trkpt lat="46.84332" lon="5.00643">
        <ele>175.19999694824</ele>
        <time>2017-07-24T07:44:00Z</time>
      </trkpt>
      <trkpt lat="46.84323" lon="5.00627">
        <ele>175.19999694824</ele>
        <time>2017-07-24T07:44:02Z</time>
      </trkpt>
      <trkpt lat="46.84283" lon="5.00563">
        <ele>175</ele>
        <time>2017-07-24T07:44:11Z</time>
      </trkpt>
      <trkpt lat="46.84267" lon="5.00535">
        <ele>175.19999694824</ele>
        <time>2017-07-24T07:44:15Z</time>
      </trkpt>
      <trkpt lat="46.84259" lon="5.00522">
        <ele>175.19999694824</ele>
        <time>2017-07-24T07:44:17Z</time>
      </trkpt>
      <trkpt lat="46.84224" lon="5.00463">
        <ele>175.60000610352</ele>
        <time>2017-07-24T07:44:26Z</time>
      </trkpt>
      <trkpt lat="46.84212" lon="5.00442">
        <ele>175.60000610352</ele>
        <time>2017-07-24T07:44:29Z</time>
      </trkpt>
      <trkpt lat="46.84176" lon="5.00382">
        <ele>175.19999694824</ele>
        <time>2017-07-24T07:44:37Z</time>
      </trkpt>
      <trkpt lat="46.84162" lon="5.00359">
        <ele>174.80000305176</ele>
        <time>2017-07-24T07:44:40Z</time>
      </trkpt>
      <trkpt lat="46.84133" lon="5.00311">
        <ele>173.80000305176</ele>
        <time>2017-07-24T07:44:46Z</time>
      </trkpt>
      <trkpt lat="46.84123" lon="5.00295">
        <ele>173.60000610352</ele>
        <time>2017-07-24T07:44:48Z</time>
      </trkpt>
      <trkpt lat="46.84086" lon="5.00233">
        <ele>173</ele>
        <time>2017-07-24T07:44:56Z</time>
      </trkpt>
      <trkpt lat="46.84077" lon="5.00218">
        <ele>172.80000305176</ele>
        <time>2017-07-24T07:44:58Z</time>
      </trkpt>
      <trkpt lat="46.84042" lon="5.0016">
        <ele>172.80000305176</ele>
        <time>2017-07-24T07:45:06Z</time>
      </trkpt>
      <trkpt lat="46.84012" lon="5.00111">
        <ele>172.80000305176</ele>
        <time>2017-07-24T07:45:13Z</time>
      </trkpt>
      <trkpt lat="46.83975" lon="5.0005">
        <ele>173.39999389648</ele>
        <time>2017-07-24T07:45:22Z</time>
      </trkpt>
      <trkpt lat="46.83959" lon="5.00024">
        <ele>173.60000610352</ele>
        <time>2017-07-24T07:45:26Z</time>
      </trkpt>
      <trkpt lat="46.83923" lon="4.99964">
        <ele>174.39999389648</ele>
        <time>2017-07-24T07:45:36Z</time>
      </trkpt>
      <trkpt lat="46.83913" lon="4.99946">
        <ele>174.80000305176</ele>
        <time>2017-07-24T07:45:39Z</time>
      </trkpt>
      <trkpt lat="46.83894" lon="4.99914">
        <ele>175.39999389648</ele>
        <time>2017-07-24T07:45:45Z</time>
      </trkpt>
      <trkpt lat="46.83882" lon="4.99894">
        <ele>176</ele>
        <time>2017-07-24T07:45:49Z</time>
      </trkpt>
      <trkpt lat="46.83864" lon="4.99865">
        <ele>176.80000305176</ele>
        <time>2017-07-24T07:45:55Z</time>
      </trkpt>
      <trkpt lat="46.83858" lon="4.99855">
        <ele>177</ele>
        <time>2017-07-24T07:45:57Z</time>
      </trkpt>
      <trkpt lat="46.83838" lon="4.99821">
        <ele>178</ele>
        <time>2017-07-24T07:46:04Z</time>
      </trkpt>
      <trkpt lat="46.83808" lon="4.99772">
        <ele>179</ele>
        <time>2017-07-24T07:46:14Z</time>
      </trkpt>
      <trkpt lat="46.83805" lon="4.99767">
        <ele>179</ele>
        <time>2017-07-24T07:46:15Z</time>
      </trkpt>
      <trkpt lat="46.83777" lon="4.99721">
        <ele>179.80000305176</ele>
        <time>2017-07-24T07:46:24Z</time>
      </trkpt>
      <trkpt lat="46.8376" lon="4.99694">
        <ele>180.19999694824</ele>
        <time>2017-07-24T07:46:29Z</time>
      </trkpt>
      <trkpt lat="46.83747" lon="4.99671">
        <ele>180.39999389648</ele>
        <time>2017-07-24T07:46:33Z</time>
      </trkpt>
      <trkpt lat="46.83715" lon="4.99619">
        <ele>180.60000610352</ele>
        <time>2017-07-24T07:46:42Z</time>
      </trkpt>
      <trkpt lat="46.83686" lon="4.99571">
        <ele>180.80000305176</ele>
        <time>2017-07-24T07:46:50Z</time>
      </trkpt>
      <trkpt lat="46.83648" lon="4.9951">
        <ele>181</ele>
        <time>2017-07-24T07:47:00Z</time>
      </trkpt>
      <trkpt lat="46.83644" lon="4.99504">
        <ele>181</ele>
        <time>2017-07-24T07:47:01Z</time>
      </trkpt>
      <trkpt lat="46.83606" lon="4.99439">
        <ele>180.80000305176</ele>
        <time>2017-07-24T07:47:11Z</time>
      </trkpt>
      <trkpt lat="46.83576" lon="4.9939">
        <ele>180.80000305176</ele>
        <time>2017-07-24T07:47:19Z</time>
      </trkpt>
      <trkpt lat="46.83556" lon="4.99357">
        <ele>181</ele>
        <time>2017-07-24T07:47:25Z</time>
      </trkpt>
      <trkpt lat="46.83529" lon="4.9931">
        <ele>180.60000610352</ele>
        <time>2017-07-24T07:47:33Z</time>
      </trkpt>
      <trkpt lat="46.83509" lon="4.99277">
        <ele>180.60000610352</ele>
        <time>2017-07-24T07:47:38Z</time>
      </trkpt>
      <trkpt lat="46.83476" lon="4.99221">
        <ele>180.60000610352</ele>
        <time>2017-07-24T07:47:46Z</time>
      </trkpt>
      <trkpt lat="46.83439" lon="4.99163">
        <ele>180.80000305176</ele>
        <time>2017-07-24T07:47:55Z</time>
      </trkpt>
      <trkpt lat="46.83409" lon="4.99113">
        <ele>180.60000610352</ele>
        <time>2017-07-24T07:48:03Z</time>
      </trkpt>
      <trkpt lat="46.83371" lon="4.9905">
        <ele>180.60000610352</ele>
        <time>2017-07-24T07:48:13Z</time>
      </trkpt>
      <trkpt lat="46.83334" lon="4.98987">
        <ele>180.60000610352</ele>
        <time>2017-07-24T07:48:23Z</time>
      </trkpt>
      <trkpt lat="46.83326" lon="4.98974">
        <ele>180.60000610352</ele>
        <time>2017-07-24T07:48:25Z</time>
      </trkpt>
      <trkpt lat="46.83292" lon="4.9892">
        <ele>179.80000305176</ele>
        <time>2017-07-24T07:48:33Z</time>
      </trkpt>
      <trkpt lat="46.83264" lon="4.98873">
        <ele>179</ele>
        <time>2017-07-24T07:48:39Z</time>
      </trkpt>
      <trkpt lat="46.83238" lon="4.98829">
        <ele>177.80000305176</ele>
        <time>2017-07-24T07:48:44Z</time>
      </trkpt>
      <trkpt lat="46.8322" lon="4.98802">
        <ele>177.19999694824</ele>
        <time>2017-07-24T07:48:47Z</time>
      </trkpt>
      <trkpt lat="46.83209" lon="4.98783">
        <ele>176.80000305176</ele>
        <time>2017-07-24T07:48:49Z</time>
      </trkpt>
      <trkpt lat="46.83181" lon="4.98736">
        <ele>175.60000610352</ele>
        <time>2017-07-24T07:48:54Z</time>
      </trkpt>
      <trkpt lat="46.83176" lon="4.98726">
        <ele>175.19999694824</ele>
        <time>2017-07-24T07:48:55Z</time>
      </trkpt>
      <trkpt lat="46.83159" lon="4.98698">
        <ele>174.39999389648</ele>
        <time>2017-07-24T07:48:58Z</time>
      </trkpt>
      <trkpt lat="46.83131" lon="4.9865">
        <ele>173.39999389648</ele>
        <time>2017-07-24T07:49:03Z</time>
      </trkpt>
      <trkpt lat="46.83103" lon="4.98605">
        <ele>172.39999389648</ele>
        <time>2017-07-24T07:49:08Z</time>
      </trkpt>
      <trkpt lat="46.83081" lon="4.98568">
        <ele>171.39999389648</ele>
        <time>2017-07-24T07:49:12Z</time>
      </trkpt>
      <trkpt lat="46.83075" lon="4.98559">
        <ele>171.39999389648</ele>
        <time>2017-07-24T07:49:13Z</time>
      </trkpt>
      <trkpt lat="46.83037" lon="4.98497">
        <ele>170.19999694824</ele>
        <time>2017-07-24T07:49:20Z</time>
      </trkpt>
      <trkpt lat="46.83" lon="4.98435">
        <ele>169.80000305176</ele>
        <time>2017-07-24T07:49:27Z</time>
      </trkpt>
      <trkpt lat="46.82995" lon="4.98427">
        <ele>169.80000305176</ele>
        <time>2017-07-24T07:49:28Z</time>
      </trkpt>
      <trkpt lat="46.8296" lon="4.9837">
        <ele>170.19999694824</ele>
        <time>2017-07-24T07:49:35Z</time>
      </trkpt>
      <trkpt lat="46.82927" lon="4.98316">
        <ele>170.39999389648</ele>
        <time>2017-07-24T07:49:42Z</time>
      </trkpt>
      <trkpt lat="46.82903" lon="4.98275">
        <ele>171.39999389648</ele>
        <time>2017-07-24T07:49:48Z</time>
      </trkpt>
      <trkpt lat="46.82899" lon="4.98269">
        <ele>171.39999389648</ele>
        <time>2017-07-24T07:49:49Z</time>
      </trkpt>
      <trkpt lat="46.82885" lon="4.98247">
        <ele>172.39999389648</ele>
        <time>2017-07-24T07:49:53Z</time>
      </trkpt>
      <trkpt lat="46.82872" lon="4.98225">
        <ele>173</ele>
        <time>2017-07-24T07:49:57Z</time>
      </trkpt>
      <trkpt lat="46.82848" lon="4.98185">
        <ele>173.19999694824</ele>
        <time>2017-07-24T07:50:04Z</time>
      </trkpt>
      <trkpt lat="46.82822" lon="4.98142">
        <ele>172.80000305176</ele>
        <time>2017-07-24T07:50:10Z</time>
      </trkpt>
      <trkpt lat="46.82788" lon="4.98087">
        <ele>171.19999694824</ele>
        <time>2017-07-24T07:50:17Z</time>
      </trkpt>
      <trkpt lat="46.82783" lon="4.98078">
        <ele>171.19999694824</ele>
        <time>2017-07-24T07:50:18Z</time>
      </trkpt>
      <trkpt lat="46.82746" lon="4.98018">
        <ele>170.80000305176</ele>
        <time>2017-07-24T07:50:26Z</time>
      </trkpt>
      <trkpt lat="46.82742" lon="4.9801">
        <ele>170.80000305176</ele>
        <time>2017-07-24T07:50:27Z</time>
      </trkpt>
      <trkpt lat="46.82708" lon="4.97954">
        <ele>171</ele>
        <time>2017-07-24T07:50:35Z</time>
      </trkpt>
      <trkpt lat="46.82674" lon="4.97895">
        <ele>171.60000610352</ele>
        <time>2017-07-24T07:50:44Z</time>
      </trkpt>
      <trkpt lat="46.82651" lon="4.97859">
        <ele>172.39999389648</ele>
        <time>2017-07-24T07:50:50Z</time>
      </trkpt>
      <trkpt lat="46.82624" lon="4.97814">
        <ele>173.39999389648</ele>
        <time>2017-07-24T07:50:58Z</time>
      </trkpt>
      <trkpt lat="46.82612" lon="4.97794">
        <ele>174</ele>
        <time>2017-07-24T07:51:02Z</time>
      </trkpt>
      <trkpt lat="46.82604" lon="4.97781">
        <ele>174.60000610352</ele>
        <time>2017-07-24T07:51:05Z</time>
      </trkpt>
      <trkpt lat="46.82582" lon="4.97745">
        <ele>175.80000305176</ele>
        <time>2017-07-24T07:51:13Z</time>
      </trkpt>
      <trkpt lat="46.82565" lon="4.97717">
        <ele>176.80000305176</ele>
        <time>2017-07-24T07:51:19Z</time>
      </trkpt>
      <trkpt lat="46.82558" lon="4.97704">
        <ele>177.39999389648</ele>
        <time>2017-07-24T07:51:22Z</time>
      </trkpt>
      <trkpt lat="46.82549" lon="4.97691">
        <ele>178</ele>
        <time>2017-07-24T07:51:25Z</time>
      </trkpt>
      <trkpt lat="46.82533" lon="4.97663">
        <ele>179</ele>
        <time>2017-07-24T07:51:31Z</time>
      </trkpt>
      <trkpt lat="46.8251" lon="4.97624">
        <ele>180.19999694824</ele>
        <time>2017-07-24T07:51:39Z</time>
      </trkpt>
      <trkpt lat="46.82507" lon="4.97619">
        <ele>180.19999694824</ele>
        <time>2017-07-24T07:51:40Z</time>
      </trkpt>
      <trkpt lat="46.82479" lon="4.97572">
        <ele>180</ele>
        <time>2017-07-24T07:51:48Z</time>
      </trkpt>
      <trkpt lat="46.82445" lon="4.97517">
        <ele>179.19999694824</ele>
        <time>2017-07-24T07:51:56Z</time>
      </trkpt>
      <trkpt lat="46.82441" lon="4.9751">
        <ele>179</ele>
        <time>2017-07-24T07:51:57Z</time>
      </trkpt>
      <trkpt lat="46.82401" lon="4.97446">
        <ele>178.19999694824</ele>
        <time>2017-07-24T07:52:06Z</time>
      </trkpt>
      <trkpt lat="46.82377" lon="4.97406">
        <ele>178</ele>
        <time>2017-07-24T07:52:12Z</time>
      </trkpt>
      <trkpt lat="46.82361" lon="4.9738">
        <ele>177.80000305176</ele>
        <time>2017-07-24T07:52:16Z</time>
      </trkpt>
      <trkpt lat="46.82325" lon="4.97322">
        <ele>177.80000305176</ele>
        <time>2017-07-24T07:52:25Z</time>
      </trkpt>
      <trkpt lat="46.82287" lon="4.97257">
        <ele>178</ele>
        <time>2017-07-24T07:52:35Z</time>
      </trkpt>
      <trkpt lat="46.82261" lon="4.97218">
        <ele>178.39999389648</ele>
        <time>2017-07-24T07:52:42Z</time>
      </trkpt>
      <trkpt lat="46.82256" lon="4.97216">
        <ele>178.39999389648</ele>
        <time>2017-07-24T07:52:43Z</time>
      </trkpt>
      <trkpt lat="46.82241" lon="4.97216">
        <ele>178.60000610352</ele>
        <time>2017-07-24T07:52:46Z</time>
      </trkpt>
      <trkpt lat="46.8223" lon="4.9722">
        <ele>178.60000610352</ele>
        <time>2017-07-24T07:52:48Z</time>
      </trkpt>
      <trkpt lat="46.82224" lon="4.97221">
        <ele>178.60000610352</ele>
        <time>2017-07-24T07:52:49Z</time>
      </trkpt>
      <trkpt lat="46.82213" lon="4.97222">
        <ele>178.39999389648</ele>
        <time>2017-07-24T07:52:51Z</time>
      </trkpt>
      <trkpt lat="46.82195" lon="4.9722">
        <ele>178.39999389648</ele>
        <time>2017-07-24T07:52:54Z</time>
      </trkpt>
      <trkpt lat="46.82183" lon="4.97216">
        <ele>178.19999694824</ele>
        <time>2017-07-24T07:52:56Z</time>
      </trkpt>
      <trkpt lat="46.82133" lon="4.97193">
        <ele>178.60000610352</ele>
        <time>2017-07-24T07:53:05Z</time>
      </trkpt>
      <trkpt lat="46.82089" lon="4.97176">
        <ele>178.80000305176</ele>
        <time>2017-07-24T07:53:13Z</time>
      </trkpt>
      <trkpt lat="46.82072" lon="4.97171">
        <ele>179</ele>
        <time>2017-07-24T07:53:16Z</time>
      </trkpt>
      <trkpt lat="46.82067" lon="4.9717">
        <ele>179.19999694824</ele>
        <time>2017-07-24T07:53:17Z</time>
      </trkpt>
      <trkpt lat="46.82055" lon="4.97171">
        <ele>179.19999694824</ele>
        <time>2017-07-24T07:53:19Z</time>
      </trkpt>
      <trkpt lat="46.82016" lon="4.97168">
        <ele>179.80000305176</ele>
        <time>2017-07-24T07:53:26Z</time>
      </trkpt>
      <trkpt lat="46.81972" lon="4.97159">
        <ele>180</ele>
        <time>2017-07-24T07:53:34Z</time>
      </trkpt>
      <trkpt lat="46.81936" lon="4.97136">
        <ele>180</ele>
        <time>2017-07-24T07:53:41Z</time>
      </trkpt>
      <trkpt lat="46.81931" lon="4.97132">
        <ele>180.19999694824</ele>
        <time>2017-07-24T07:53:42Z</time>
      </trkpt>
      <trkpt lat="46.81891" lon="4.97091">
        <ele>180.80000305176</ele>
        <time>2017-07-24T07:53:51Z</time>
      </trkpt>
      <trkpt lat="46.81852" lon="4.97045">
        <ele>180.80000305176</ele>
        <time>2017-07-24T07:54:00Z</time>
      </trkpt>
      <trkpt lat="46.81828" lon="4.97016">
        <ele>181</ele>
        <time>2017-07-24T07:54:06Z</time>
      </trkpt>
      <trkpt lat="46.81815" lon="4.97005">
        <ele>181</ele>
        <time>2017-07-24T07:54:09Z</time>
      </trkpt>
      <trkpt lat="46.81806" lon="4.97007">
        <ele>181</ele>
        <time>2017-07-24T07:54:11Z</time>
      </trkpt>
      <trkpt lat="46.81784" lon="4.97015">
        <ele>181</ele>
        <time>2017-07-24T07:54:16Z</time>
      </trkpt>
      <trkpt lat="46.81759" lon="4.97009">
        <ele>181.19999694824</ele>
        <time>2017-07-24T07:54:21Z</time>
      </trkpt>
      <trkpt lat="46.81754" lon="4.97008">
        <ele>181.19999694824</ele>
        <time>2017-07-24T07:54:22Z</time>
      </trkpt>
      <trkpt lat="46.81723" lon="4.96998">
        <ele>181.80000305176</ele>
        <time>2017-07-24T07:54:28Z</time>
      </trkpt>
      <trkpt lat="46.81691" lon="4.96994">
        <ele>182.19999694824</ele>
        <time>2017-07-24T07:54:34Z</time>
      </trkpt>
      <trkpt lat="46.81681" lon="4.96994">
        <ele>182.39999389648</ele>
        <time>2017-07-24T07:54:36Z</time>
      </trkpt>
      <trkpt lat="46.81632" lon="4.96994">
        <ele>183.19999694824</ele>
        <time>2017-07-24T07:54:45Z</time>
      </trkpt>
      <trkpt lat="46.81582" lon="4.96997">
        <ele>183</ele>
        <time>2017-07-24T07:54:54Z</time>
      </trkpt>
      <trkpt lat="46.8156" lon="4.97003">
        <ele>183.19999694824</ele>
        <time>2017-07-24T07:54:58Z</time>
      </trkpt>
      <trkpt lat="46.81532" lon="4.97012">
        <ele>183.39999389648</ele>
        <time>2017-07-24T07:55:03Z</time>
      </trkpt>
      <trkpt lat="46.81481" lon="4.97021">
        <ele>183.80000305176</ele>
        <time>2017-07-24T07:55:12Z</time>
      </trkpt>
      <trkpt lat="46.81442" lon="4.97015">
        <ele>183.80000305176</ele>
        <time>2017-07-24T07:55:19Z</time>
      </trkpt>
      <trkpt lat="46.81436" lon="4.97012">
        <ele>183.80000305176</ele>
        <time>2017-07-24T07:55:20Z</time>
      </trkpt>
      <trkpt lat="46.81411" lon="4.96996">
        <ele>184</ele>
        <time>2017-07-24T07:55:25Z</time>
      </trkpt>
      <trkpt lat="46.81396" lon="4.96986">
        <ele>184.19999694824</ele>
        <time>2017-07-24T07:55:28Z</time>
      </trkpt>
      <trkpt lat="46.81371" lon="4.96975">
        <ele>184.39999389648</ele>
        <time>2017-07-24T07:55:33Z</time>
      </trkpt>
      <trkpt lat="46.81367" lon="4.96975">
        <ele>184.60000610352</ele>
        <time>2017-07-24T07:55:34Z</time>
      </trkpt>
      <trkpt lat="46.81358" lon="4.96964">
        <ele>184.80000305176</ele>
        <time>2017-07-24T07:55:37Z</time>
      </trkpt>
      <trkpt lat="46.81352" lon="4.96956">
        <ele>184.80000305176</ele>
        <time>2017-07-24T07:55:39Z</time>
      </trkpt>
      <trkpt lat="46.81341" lon="4.96949">
        <ele>185</ele>
        <time>2017-07-24T07:55:42Z</time>
      </trkpt>
      <trkpt lat="46.81323" lon="4.9694">
        <ele>185.19999694824</ele>
        <time>2017-07-24T07:55:46Z</time>
      </trkpt>
      <trkpt lat="46.81304" lon="4.96934">
        <ele>185.39999389648</ele>
        <time>2017-07-24T07:55:50Z</time>
      </trkpt>
      <trkpt lat="46.81293" lon="4.96934">
        <ele>185.60000610352</ele>
        <time>2017-07-24T07:55:52Z</time>
      </trkpt>
      <trkpt lat="46.81272" lon="4.96938">
        <ele>185.80000305176</ele>
        <time>2017-07-24T07:55:56Z</time>
      </trkpt>
      <trkpt lat="46.81217" lon="4.96942">
        <ele>186</ele>
        <time>2017-07-24T07:56:06Z</time>
      </trkpt>
      <trkpt lat="46.81206" lon="4.9694">
        <ele>186</ele>
        <time>2017-07-24T07:56:08Z</time>
      </trkpt>
      <trkpt lat="46.81183" lon="4.96932">
        <ele>186.39999389648</ele>
        <time>2017-07-24T07:56:12Z</time>
      </trkpt>
      <trkpt lat="46.81167" lon="4.96924">
        <ele>186.39999389648</ele>
        <time>2017-07-24T07:56:15Z</time>
      </trkpt>
      <trkpt lat="46.81116" lon="4.96891">
        <ele>187.19999694824</ele>
        <time>2017-07-24T07:56:25Z</time>
      </trkpt>
      <trkpt lat="46.81106" lon="4.96883">
        <ele>187.19999694824</ele>
        <time>2017-07-24T07:56:27Z</time>
      </trkpt>
      <trkpt lat="46.81096" lon="4.96877">
        <ele>187.39999389648</ele>
        <time>2017-07-24T07:56:29Z</time>
      </trkpt>
      <trkpt lat="46.81059" lon="4.96847">
        <ele>188</ele>
        <time>2017-07-24T07:56:37Z</time>
      </trkpt>
      <trkpt lat="46.81036" lon="4.96827">
        <ele>188.60000610352</ele>
        <time>2017-07-24T07:56:42Z</time>
      </trkpt>
      <trkpt lat="46.81018" lon="4.96813">
        <ele>189</ele>
        <time>2017-07-24T07:56:46Z</time>
      </trkpt>
      <trkpt lat="46.80986" lon="4.96793">
        <ele>189.60000610352</ele>
        <time>2017-07-24T07:56:53Z</time>
      </trkpt>
      <trkpt lat="46.80982" lon="4.9679">
        <ele>189.60000610352</ele>
        <time>2017-07-24T07:56:54Z</time>
      </trkpt>
      <trkpt lat="46.80947" lon="4.96779">
        <ele>190</ele>
        <time>2017-07-24T07:57:01Z</time>
      </trkpt>
      <trkpt lat="46.80912" lon="4.96774">
        <ele>190.60000610352</ele>
        <time>2017-07-24T07:57:08Z</time>
      </trkpt>
      <trkpt lat="46.80878" lon="4.96773">
        <ele>190.19999694824</ele>
        <time>2017-07-24T07:57:15Z</time>
      </trkpt>
      <trkpt lat="46.80854" lon="4.96773">
        <ele>190.80000305176</ele>
        <time>2017-07-24T07:57:20Z</time>
      </trkpt>
      <trkpt lat="46.8085" lon="4.96772">
        <ele>190.80000305176</ele>
        <time>2017-07-24T07:57:21Z</time>
      </trkpt>
      <trkpt lat="46.80824" lon="4.9677">
        <ele>191.39999389648</ele>
        <time>2017-07-24T07:57:27Z</time>
      </trkpt>
      <trkpt lat="46.80799" lon="4.96768">
        <ele>190.80000305176</ele>
        <time>2017-07-24T07:57:33Z</time>
      </trkpt>
      <trkpt lat="46.80766" lon="4.96765">
        <ele>191</ele>
        <time>2017-07-24T07:57:40Z</time>
      </trkpt>
      <trkpt lat="46.80755" lon="4.96765">
        <ele>191</ele>
        <time>2017-07-24T07:57:42Z</time>
      </trkpt>
      <trkpt lat="46.8073" lon="4.96764">
        <ele>190.80000305176</ele>
        <time>2017-07-24T07:57:46Z</time>
      </trkpt>
      <trkpt lat="46.80695" lon="4.96761">
        <ele>190</ele>
        <time>2017-07-24T07:57:51Z</time>
      </trkpt>
      <trkpt lat="46.80676" lon="4.9676">
        <ele>189.60000610352</ele>
        <time>2017-07-24T07:57:54Z</time>
      </trkpt>
      <trkpt lat="46.8067" lon="4.9676">
        <ele>189.39999389648</ele>
        <time>2017-07-24T07:57:55Z</time>
      </trkpt>
      <trkpt lat="46.80637" lon="4.96759">
        <ele>188.60000610352</ele>
        <time>2017-07-24T07:58:00Z</time>
      </trkpt>
      <trkpt lat="46.80624" lon="4.96758">
        <ele>188.39999389648</ele>
        <time>2017-07-24T07:58:02Z</time>
      </trkpt>
      <trkpt lat="46.80596" lon="4.9676">
        <ele>188.19999694824</ele>
        <time>2017-07-24T07:58:06Z</time>
      </trkpt>
      <trkpt lat="46.80589" lon="4.96762">
        <ele>188.19999694824</ele>
        <time>2017-07-24T07:58:07Z</time>
      </trkpt>
      <trkpt lat="46.80567" lon="4.96775">
        <ele>188.39999389648</ele>
        <time>2017-07-24T07:58:11Z</time>
      </trkpt>
      <trkpt lat="46.80562" lon="4.96779">
        <ele>188.39999389648</ele>
        <time>2017-07-24T07:58:12Z</time>
      </trkpt>
      <trkpt lat="46.80529" lon="4.96807">
        <ele>189</ele>
        <time>2017-07-24T07:58:19Z</time>
      </trkpt>
      <trkpt lat="46.80492" lon="4.96838">
        <ele>188</ele>
        <time>2017-07-24T07:58:25Z</time>
      </trkpt>
      <trkpt lat="46.80478" lon="4.96848">
        <ele>187.19999694824</ele>
        <time>2017-07-24T07:58:27Z</time>
      </trkpt>
      <trkpt lat="46.80454" lon="4.96863">
        <ele>186</ele>
        <time>2017-07-24T07:58:30Z</time>
      </trkpt>
      <trkpt lat="46.80429" lon="4.96878">
        <ele>184.60000610352</ele>
        <time>2017-07-24T07:58:33Z</time>
      </trkpt>
      <trkpt lat="46.80404" lon="4.96891">
        <ele>183.39999389648</ele>
        <time>2017-07-24T07:58:36Z</time>
      </trkpt>
      <trkpt lat="46.80388" lon="4.96901">
        <ele>182.60000610352</ele>
        <time>2017-07-24T07:58:38Z</time>
      </trkpt>
      <trkpt lat="46.80381" lon="4.96907">
        <ele>182.19999694824</ele>
        <time>2017-07-24T07:58:39Z</time>
      </trkpt>
      <trkpt lat="46.80361" lon="4.96926">
        <ele>181</ele>
        <time>2017-07-24T07:58:42Z</time>
      </trkpt>
      <trkpt lat="46.80354" lon="4.96932">
        <ele>180.80000305176</ele>
        <time>2017-07-24T07:58:43Z</time>
      </trkpt>
      <trkpt lat="46.80317" lon="4.9697">
        <ele>180.19999694824</ele>
        <time>2017-07-24T07:58:49Z</time>
      </trkpt>
      <trkpt lat="46.80305" lon="4.96978">
        <ele>180.19999694824</ele>
        <time>2017-07-24T07:58:51Z</time>
      </trkpt>
      <trkpt lat="46.80292" lon="4.96981">
        <ele>180.39999389648</ele>
        <time>2017-07-24T07:58:53Z</time>
      </trkpt>
      <trkpt lat="46.80244" lon="4.96992">
        <ele>181.19999694824</ele>
        <time>2017-07-24T07:59:01Z</time>
      </trkpt>
      <trkpt lat="46.80216" lon="4.97011">
        <ele>181.80000305176</ele>
        <time>2017-07-24T07:59:07Z</time>
      </trkpt>
      <trkpt lat="46.80204" lon="4.97024">
        <ele>182</ele>
        <time>2017-07-24T07:59:10Z</time>
      </trkpt>
      <trkpt lat="46.80191" lon="4.97038">
        <ele>183</ele>
        <time>2017-07-24T07:59:14Z</time>
      </trkpt>
      <trkpt lat="46.80188" lon="4.97042">
        <ele>183</ele>
        <time>2017-07-24T07:59:15Z</time>
      </trkpt>
      <trkpt lat="46.80171" lon="4.97065">
        <ele>184</ele>
        <time>2017-07-24T07:59:21Z</time>
      </trkpt>
      <trkpt lat="46.80169" lon="4.97069">
        <ele>184.19999694824</ele>
        <time>2017-07-24T07:59:22Z</time>
      </trkpt>
      <trkpt lat="46.80157" lon="4.97089">
        <ele>185.19999694824</ele>
        <time>2017-07-24T07:59:27Z</time>
      </trkpt>
      <trkpt lat="46.80155" lon="4.97094">
        <ele>185.39999389648</ele>
        <time>2017-07-24T07:59:28Z</time>
      </trkpt>
      <trkpt lat="46.80145" lon="4.97109">
        <ele>186.39999389648</ele>
        <time>2017-07-24T07:59:32Z</time>
      </trkpt>
      <trkpt lat="46.80138" lon="4.97121">
        <ele>187</ele>
        <time>2017-07-24T07:59:35Z</time>
      </trkpt>
      <trkpt lat="46.80133" lon="4.97129">
        <ele>187.39999389648</ele>
        <time>2017-07-24T07:59:37Z</time>
      </trkpt>
      <trkpt lat="46.80118" lon="4.97151">
        <ele>188.39999389648</ele>
        <time>2017-07-24T07:59:43Z</time>
      </trkpt>
      <trkpt lat="46.80108" lon="4.9717">
        <ele>189.39999389648</ele>
        <time>2017-07-24T07:59:48Z</time>
      </trkpt>
      <trkpt lat="46.80105" lon="4.97173">
        <ele>189.60000610352</ele>
        <time>2017-07-24T07:59:49Z</time>
      </trkpt>
      <trkpt lat="46.80093" lon="4.97193">
        <ele>190.60000610352</ele>
        <time>2017-07-24T07:59:54Z</time>
      </trkpt>
      <trkpt lat="46.80091" lon="4.97198">
        <ele>190.80000305176</ele>
        <time>2017-07-24T07:59:55Z</time>
      </trkpt>
      <trkpt lat="46.80069" lon="4.97236">
        <ele>191.39999389648</ele>
        <time>2017-07-24T08:00:03Z</time>
      </trkpt>
      <trkpt lat="46.80052" lon="4.9727">
        <ele>191.80000305176</ele>
        <time>2017-07-24T08:00:10Z</time>
      </trkpt>
      <trkpt lat="46.80047" lon="4.9728">
        <ele>191.80000305176</ele>
        <time>2017-07-24T08:00:12Z</time>
      </trkpt>
      <trkpt lat="46.80042" lon="4.9729">
        <ele>192.19999694824</ele>
        <time>2017-07-24T08:00:14Z</time>
      </trkpt>
      <trkpt lat="46.80034" lon="4.97304">
        <ele>192.80000305176</ele>
        <time>2017-07-24T08:00:17Z</time>
      </trkpt>
      <trkpt lat="46.80031" lon="4.97309">
        <ele>193</ele>
        <time>2017-07-24T08:00:18Z</time>
      </trkpt>
      <trkpt lat="46.80015" lon="4.97336">
        <ele>193.39999389648</ele>
        <time>2017-07-24T08:00:24Z</time>
      </trkpt>
      <trkpt lat="46.80009" lon="4.97343">
        <ele>193.60000610352</ele>
        <time>2017-07-24T08:00:26Z</time>
      </trkpt>
      <trkpt lat="46.80003" lon="4.97349">
        <ele>193.80000305176</ele>
        <time>2017-07-24T08:00:28Z</time>
      </trkpt>
      <trkpt lat="46.79991" lon="4.97358">
        <ele>194.19999694824</ele>
        <time>2017-07-24T08:00:31Z</time>
      </trkpt>
      <trkpt lat="46.79987" lon="4.97361">
        <ele>194.39999389648</ele>
        <time>2017-07-24T08:00:32Z</time>
      </trkpt>
      <trkpt lat="46.79977" lon="4.97365">
        <ele>194.39999389648</ele>
        <time>2017-07-24T08:00:34Z</time>
      </trkpt>
      <trkpt lat="46.79955" lon="4.97373">
        <ele>194.19999694824</ele>
        <time>2017-07-24T08:00:38Z</time>
      </trkpt>
      <trkpt lat="46.79907" lon="4.97386">
        <ele>193.39999389648</ele>
        <time>2017-07-24T08:00:46Z</time>
      </trkpt>
      <trkpt lat="46.79861" lon="4.974">
        <ele>192.80000305176</ele>
        <time>2017-07-24T08:00:54Z</time>
      </trkpt>
      <trkpt lat="46.79856" lon="4.97402">
        <ele>192.80000305176</ele>
        <time>2017-07-24T08:00:55Z</time>
      </trkpt>
      <trkpt lat="46.79809" lon="4.97416">
        <ele>193</ele>
        <time>2017-07-24T08:01:04Z</time>
      </trkpt>
      <trkpt lat="46.79791" lon="4.97422">
        <ele>193.60000610352</ele>
        <time>2017-07-24T08:01:09Z</time>
      </trkpt>
      <trkpt lat="46.79789" lon="4.97419">
        <ele>193.60000610352</ele>
        <time>2017-07-24T08:01:10Z</time>
      </trkpt>
      <trkpt lat="46.79788" lon="4.97419">
        <ele>193.80000305176</ele>
        <time>2017-07-24T08:01:11Z</time>
      </trkpt>
      <trkpt lat="46.79788" lon="4.97419">
        <ele>194</ele>
        <time>2017-07-24T08:01:12Z</time>
      </trkpt>
      <trkpt lat="46.79786" lon="4.97416">
        <ele>194</ele>
        <time>2017-07-24T08:01:33Z</time>
      </trkpt>
      <trkpt lat="46.79784" lon="4.97416">
        <ele>194.19999694824</ele>
        <time>2017-07-24T08:01:34Z</time>
      </trkpt>
      <trkpt lat="46.79782" lon="4.97417">
        <ele>194.19999694824</ele>
        <time>2017-07-24T08:01:35Z</time>
      </trkpt>
      <trkpt lat="46.7977" lon="4.97424">
        <ele>194.19999694824</ele>
        <time>2017-07-24T08:01:39Z</time>
      </trkpt>
      <trkpt lat="46.79758" lon="4.97426">
        <ele>194.39999389648</ele>
        <time>2017-07-24T08:01:43Z</time>
      </trkpt>
      <trkpt lat="46.79755" lon="4.97427">
        <ele>194.39999389648</ele>
        <time>2017-07-24T08:01:44Z</time>
      </trkpt>
      <trkpt lat="46.79743" lon="4.97428">
        <ele>194.39999389648</ele>
        <time>2017-07-24T08:01:47Z</time>
      </trkpt>
      <trkpt lat="46.79728" lon="4.9743">
        <ele>194.60000610352</ele>
        <time>2017-07-24T08:01:50Z</time>
      </trkpt>
      <trkpt lat="46.79708" lon="4.97432">
        <ele>194.80000305176</ele>
        <time>2017-07-24T08:01:54Z</time>
      </trkpt>
      <trkpt lat="46.79703" lon="4.97433">
        <ele>195</ele>
        <time>2017-07-24T08:01:55Z</time>
      </trkpt>
      <trkpt lat="46.79693" lon="4.97436">
        <ele>195</ele>
        <time>2017-07-24T08:01:57Z</time>
      </trkpt>
      <trkpt lat="46.79657" lon="4.9744">
        <ele>195.60000610352</ele>
        <time>2017-07-24T08:02:04Z</time>
      </trkpt>
      <trkpt lat="46.79615" lon="4.97439">
        <ele>196</ele>
        <time>2017-07-24T08:02:12Z</time>
      </trkpt>
      <trkpt lat="46.79605" lon="4.97437">
        <ele>196</ele>
        <time>2017-07-24T08:02:14Z</time>
      </trkpt>
      <trkpt lat="46.79574" lon="4.97436">
        <ele>196.39999389648</ele>
        <time>2017-07-24T08:02:20Z</time>
      </trkpt>
      <trkpt lat="46.79536" lon="4.97434">
        <ele>196.60000610352</ele>
        <time>2017-07-24T08:02:27Z</time>
      </trkpt>
      <trkpt lat="46.79518" lon="4.97437">
        <ele>196.60000610352</ele>
        <time>2017-07-24T08:02:30Z</time>
      </trkpt>
      <trkpt lat="46.79508" lon="4.97445">
        <ele>196.60000610352</ele>
        <time>2017-07-24T08:02:32Z</time>
      </trkpt>
      <trkpt lat="46.79485" lon="4.97471">
        <ele>196.80000305176</ele>
        <time>2017-07-24T08:02:37Z</time>
      </trkpt>
      <trkpt lat="46.79481" lon="4.97477">
        <ele>196.80000305176</ele>
        <time>2017-07-24T08:02:38Z</time>
      </trkpt>
      <trkpt lat="46.79461" lon="4.97503">
        <ele>197</ele>
        <time>2017-07-24T08:02:43Z</time>
      </trkpt>
      <trkpt lat="46.79451" lon="4.97512">
        <ele>197</ele>
        <time>2017-07-24T08:02:45Z</time>
      </trkpt>
      <trkpt lat="46.79447" lon="4.97517">
        <ele>197.19999694824</ele>
        <time>2017-07-24T08:02:46Z</time>
      </trkpt>
      <trkpt lat="46.79426" lon="4.97543">
        <ele>197.39999389648</ele>
        <time>2017-07-24T08:02:51Z</time>
      </trkpt>
      <trkpt lat="46.79408" lon="4.97561">
        <ele>197.39999389648</ele>
        <time>2017-07-24T08:02:55Z</time>
      </trkpt>
      <trkpt lat="46.79397" lon="4.97567">
        <ele>197.39999389648</ele>
        <time>2017-07-24T08:02:57Z</time>
      </trkpt>
      <trkpt lat="46.79381" lon="4.97569">
        <ele>197.39999389648</ele>
        <time>2017-07-24T08:03:00Z</time>
      </trkpt>
      <trkpt lat="46.79375" lon="4.97569">
        <ele>197.39999389648</ele>
        <time>2017-07-24T08:03:01Z</time>
      </trkpt>
      <trkpt lat="46.7937" lon="4.97567">
        <ele>197.39999389648</ele>
        <time>2017-07-24T08:03:02Z</time>
      </trkpt>
      <trkpt lat="46.79329" lon="4.97564">
        <ele>197.80000305176</ele>
        <time>2017-07-24T08:03:09Z</time>
      </trkpt>
      <trkpt lat="46.79279" lon="4.97563">
        <ele>197.60000610352</ele>
        <time>2017-07-24T08:03:17Z</time>
      </trkpt>
      <trkpt lat="46.79242" lon="4.97552">
        <ele>198</ele>
        <time>2017-07-24T08:03:24Z</time>
      </trkpt>
      <trkpt lat="46.79237" lon="4.9755">
        <ele>198</ele>
        <time>2017-07-24T08:03:25Z</time>
      </trkpt>
      <trkpt lat="46.79204" lon="4.9754">
        <ele>198.19999694824</ele>
        <time>2017-07-24T08:03:31Z</time>
      </trkpt>
      <trkpt lat="46.79193" lon="4.97541">
        <ele>198.19999694824</ele>
        <time>2017-07-24T08:03:33Z</time>
      </trkpt>
      <trkpt lat="46.79176" lon="4.97545">
        <ele>198.19999694824</ele>
        <time>2017-07-24T08:03:36Z</time>
      </trkpt>
      <trkpt lat="46.79131" lon="4.97567">
        <ele>198.19999694824</ele>
        <time>2017-07-24T08:03:44Z</time>
      </trkpt>
      <trkpt lat="46.79092" lon="4.97598">
        <ele>197.60000610352</ele>
        <time>2017-07-24T08:03:51Z</time>
      </trkpt>
      <trkpt lat="46.79065" lon="4.97622">
        <ele>197</ele>
        <time>2017-07-24T08:03:56Z</time>
      </trkpt>
      <trkpt lat="46.79048" lon="4.97634">
        <ele>196.80000305176</ele>
        <time>2017-07-24T08:03:59Z</time>
      </trkpt>
      <trkpt lat="46.7903" lon="4.97643">
        <ele>196.19999694824</ele>
        <time>2017-07-24T08:04:02Z</time>
      </trkpt>
      <trkpt lat="46.79018" lon="4.97648">
        <ele>196</ele>
        <time>2017-07-24T08:04:04Z</time>
      </trkpt>
      <trkpt lat="46.79012" lon="4.9765">
        <ele>195.80000305176</ele>
        <time>2017-07-24T08:04:05Z</time>
      </trkpt>
      <trkpt lat="46.78976" lon="4.97652">
        <ele>195.60000610352</ele>
        <time>2017-07-24T08:04:11Z</time>
      </trkpt>
      <trkpt lat="46.78934" lon="4.97651">
        <ele>195.60000610352</ele>
        <time>2017-07-24T08:04:18Z</time>
      </trkpt>
      <trkpt lat="46.78895" lon="4.9765">
        <ele>196.19999694824</ele>
        <time>2017-07-24T08:04:25Z</time>
      </trkpt>
      <trkpt lat="46.7887" lon="4.9765">
        <ele>196.80000305176</ele>
        <time>2017-07-24T08:04:30Z</time>
      </trkpt>
      <trkpt lat="46.7886" lon="4.97649">
        <ele>197</ele>
        <time>2017-07-24T08:04:32Z</time>
      </trkpt>
      <trkpt lat="46.7884" lon="4.97647">
        <ele>197.39999389648</ele>
        <time>2017-07-24T08:04:36Z</time>
      </trkpt>
      <trkpt lat="46.78807" lon="4.97646">
        <ele>198</ele>
        <time>2017-07-24T08:04:42Z</time>
      </trkpt>
      <trkpt lat="46.78768" lon="4.97645">
        <ele>198.39999389648</ele>
        <time>2017-07-24T08:04:49Z</time>
      </trkpt>
      <trkpt lat="46.78734" lon="4.97642">
        <ele>198</ele>
        <time>2017-07-24T08:04:54Z</time>
      </trkpt>
      <trkpt lat="46.78702" lon="4.97638">
        <ele>196.80000305176</ele>
        <time>2017-07-24T08:04:58Z</time>
      </trkpt>
      <trkpt lat="46.78685" lon="4.97632">
        <ele>196.19999694824</ele>
        <time>2017-07-24T08:05:00Z</time>
      </trkpt>
      <trkpt lat="46.78676" lon="4.9763">
        <ele>195.80000305176</ele>
        <time>2017-07-24T08:05:01Z</time>
      </trkpt>
      <trkpt lat="46.78647" lon="4.97623">
        <ele>194.39999389648</ele>
        <time>2017-07-24T08:05:04Z</time>
      </trkpt>
      <trkpt lat="46.78627" lon="4.97618">
        <ele>192.80000305176</ele>
        <time>2017-07-24T08:05:06Z</time>
      </trkpt>
      <trkpt lat="46.78609" lon="4.97613">
        <ele>191.60000610352</ele>
        <time>2017-07-24T08:05:08Z</time>
      </trkpt>
      <trkpt lat="46.78583" lon="4.97605">
        <ele>190.39999389648</ele>
        <time>2017-07-24T08:05:11Z</time>
      </trkpt>
      <trkpt lat="46.78575" lon="4.97603">
        <ele>190.19999694824</ele>
        <time>2017-07-24T08:05:12Z</time>
      </trkpt>
      <trkpt lat="46.78543" lon="4.97593">
        <ele>190.60000610352</ele>
        <time>2017-07-24T08:05:17Z</time>
      </trkpt>
      <trkpt lat="46.78526" lon="4.97589">
        <ele>191.19999694824</ele>
        <time>2017-07-24T08:05:20Z</time>
      </trkpt>
      <trkpt lat="46.78515" lon="4.97584">
        <ele>191.39999389648</ele>
        <time>2017-07-24T08:05:22Z</time>
      </trkpt>
      <trkpt lat="46.78499" lon="4.9758">
        <ele>192</ele>
        <time>2017-07-24T08:05:25Z</time>
      </trkpt>
      <trkpt lat="46.78486" lon="4.97577">
        <ele>192.19999694824</ele>
        <time>2017-07-24T08:05:27Z</time>
      </trkpt>
      <trkpt lat="46.78441" lon="4.97565">
        <ele>192.19999694824</ele>
        <time>2017-07-24T08:05:34Z</time>
      </trkpt>
      <trkpt lat="46.78434" lon="4.97564">
        <ele>192</ele>
        <time>2017-07-24T08:05:35Z</time>
      </trkpt>
      <trkpt lat="46.78395" lon="4.97554">
        <ele>192</ele>
        <time>2017-07-24T08:05:41Z</time>
      </trkpt>
      <trkpt lat="46.78357" lon="4.97542">
        <ele>192</ele>
        <time>2017-07-24T08:05:47Z</time>
      </trkpt>
      <trkpt lat="46.78322" lon="4.97532">
        <ele>192.39999389648</ele>
        <time>2017-07-24T08:05:53Z</time>
      </trkpt>
      <trkpt lat="46.78311" lon="4.97529">
        <ele>192.60000610352</ele>
        <time>2017-07-24T08:05:55Z</time>
      </trkpt>
      <trkpt lat="46.78255" lon="4.97513">
        <ele>193.39999389648</ele>
        <time>2017-07-24T08:06:05Z</time>
      </trkpt>
      <trkpt lat="46.78244" lon="4.9751">
        <ele>193.39999389648</ele>
        <time>2017-07-24T08:06:07Z</time>
      </trkpt>
      <trkpt lat="46.78212" lon="4.97501">
        <ele>193.80000305176</ele>
        <time>2017-07-24T08:06:13Z</time>
      </trkpt>
      <trkpt lat="46.78171" lon="4.97491">
        <ele>194.39999389648</ele>
        <time>2017-07-24T08:06:21Z</time>
      </trkpt>
      <trkpt lat="46.78166" lon="4.97491">
        <ele>194.60000610352</ele>
        <time>2017-07-24T08:06:22Z</time>
      </trkpt>
      <trkpt lat="46.78142" lon="4.97486">
        <ele>195</ele>
        <time>2017-07-24T08:06:27Z</time>
      </trkpt>
      <trkpt lat="46.78113" lon="4.97475">
        <ele>195.60000610352</ele>
        <time>2017-07-24T08:06:33Z</time>
      </trkpt>
      <trkpt lat="46.78086" lon="4.97463">
        <ele>196.39999389648</ele>
        <time>2017-07-24T08:06:39Z</time>
      </trkpt>
      <trkpt lat="46.78083" lon="4.97462">
        <ele>196.60000610352</ele>
        <time>2017-07-24T08:06:40Z</time>
      </trkpt>
      <trkpt lat="46.78063" lon="4.97458">
        <ele>197.39999389648</ele>
        <time>2017-07-24T08:06:44Z</time>
      </trkpt>
      <trkpt lat="46.78054" lon="4.97456">
        <ele>197.80000305176</ele>
        <time>2017-07-24T08:06:46Z</time>
      </trkpt>
      <trkpt lat="46.78037" lon="4.9745">
        <ele>198.39999389648</ele>
        <time>2017-07-24T08:06:50Z</time>
      </trkpt>
      <trkpt lat="46.78019" lon="4.97445">
        <ele>198.80000305176</ele>
        <time>2017-07-24T08:06:54Z</time>
      </trkpt>
      <trkpt lat="46.78006" lon="4.9744">
        <ele>199.19999694824</ele>
        <time>2017-07-24T08:06:57Z</time>
      </trkpt>
      <trkpt lat="46.77991" lon="4.97436">
        <ele>199.39999389648</ele>
        <time>2017-07-24T08:07:00Z</time>
      </trkpt>
      <trkpt lat="46.77981" lon="4.97434">
        <ele>199.39999389648</ele>
        <time>2017-07-24T08:07:02Z</time>
      </trkpt>
      <trkpt lat="46.77938" lon="4.97422">
        <ele>199.80000305176</ele>
        <time>2017-07-24T08:07:10Z</time>
      </trkpt>
      <trkpt lat="46.77911" lon="4.97416">
        <ele>199.80000305176</ele>
        <time>2017-07-24T08:07:15Z</time>
      </trkpt>
      <trkpt lat="46.77895" lon="4.97411">
        <ele>200</ele>
        <time>2017-07-24T08:07:18Z</time>
      </trkpt>
      <trkpt lat="46.77855" lon="4.97401">
        <ele>200.80000305176</ele>
        <time>2017-07-24T08:07:26Z</time>
      </trkpt>
      <trkpt lat="46.7785" lon="4.974">
        <ele>200.80000305176</ele>
        <time>2017-07-24T08:07:27Z</time>
      </trkpt>
      <trkpt lat="46.77815" lon="4.9739">
        <ele>201.80000305176</ele>
        <time>2017-07-24T08:07:34Z</time>
      </trkpt>
      <trkpt lat="46.7781" lon="4.97389">
        <ele>202</ele>
        <time>2017-07-24T08:07:35Z</time>
      </trkpt>
      <trkpt lat="46.778" lon="4.97387">
        <ele>202.19999694824</ele>
        <time>2017-07-24T08:07:37Z</time>
      </trkpt>
      <trkpt lat="46.77779" lon="4.9738">
        <ele>202.39999389648</ele>
        <time>2017-07-24T08:07:41Z</time>
      </trkpt>
      <trkpt lat="46.77735" lon="4.97371">
        <ele>202.80000305176</ele>
        <time>2017-07-24T08:07:49Z</time>
      </trkpt>
      <trkpt lat="46.77691" lon="4.97362">
        <ele>203</ele>
        <time>2017-07-24T08:07:57Z</time>
      </trkpt>
      <trkpt lat="46.77686" lon="4.9736">
        <ele>203</ele>
        <time>2017-07-24T08:07:58Z</time>
      </trkpt>
      <trkpt lat="46.77632" lon="4.97346">
        <ele>203.19999694824</ele>
        <time>2017-07-24T08:08:08Z</time>
      </trkpt>
      <trkpt lat="46.77589" lon="4.97333">
        <ele>203.60000610352</ele>
        <time>2017-07-24T08:08:16Z</time>
      </trkpt>
      <trkpt lat="46.77566" lon="4.97331">
        <ele>204</ele>
        <time>2017-07-24T08:08:20Z</time>
      </trkpt>
      <trkpt lat="46.77555" lon="4.97329">
        <ele>204</ele>
        <time>2017-07-24T08:08:22Z</time>
      </trkpt>
      <trkpt lat="46.77508" lon="4.97327">
        <ele>204</ele>
        <time>2017-07-24T08:08:30Z</time>
      </trkpt>
      <trkpt lat="46.77459" lon="4.97326">
        <ele>203.80000305176</ele>
        <time>2017-07-24T08:08:38Z</time>
      </trkpt>
      <trkpt lat="46.77426" lon="4.97324">
        <ele>203.39999389648</ele>
        <time>2017-07-24T08:08:43Z</time>
      </trkpt>
      <trkpt lat="46.77406" lon="4.97323">
        <ele>203.19999694824</ele>
        <time>2017-07-24T08:08:46Z</time>
      </trkpt>
      <trkpt lat="46.77393" lon="4.97323">
        <ele>202.80000305176</ele>
        <time>2017-07-24T08:08:48Z</time>
      </trkpt>
      <trkpt lat="46.77367" lon="4.97329">
        <ele>202.39999389648</ele>
        <time>2017-07-24T08:08:52Z</time>
      </trkpt>
      <trkpt lat="46.77361" lon="4.97331">
        <ele>202.19999694824</ele>
        <time>2017-07-24T08:08:53Z</time>
      </trkpt>
      <trkpt lat="46.77341" lon="4.97338">
        <ele>201.80000305176</ele>
        <time>2017-07-24T08:08:56Z</time>
      </trkpt>
      <trkpt lat="46.77315" lon="4.9735">
        <ele>201</ele>
        <time>2017-07-24T08:09:00Z</time>
      </trkpt>
      <trkpt lat="46.773" lon="4.97354">
        <ele>200.60000610352</ele>
        <time>2017-07-24T08:09:02Z</time>
      </trkpt>
      <trkpt lat="46.77293" lon="4.97358">
        <ele>200.60000610352</ele>
        <time>2017-07-24T08:09:03Z</time>
      </trkpt>
      <trkpt lat="46.77279" lon="4.97364">
        <ele>200.19999694824</ele>
        <time>2017-07-24T08:09:05Z</time>
      </trkpt>
      <trkpt lat="46.77272" lon="4.97366">
        <ele>199.80000305176</ele>
        <time>2017-07-24T08:09:06Z</time>
      </trkpt>
      <trkpt lat="46.77265" lon="4.97368">
        <ele>199.60000610352</ele>
        <time>2017-07-24T08:09:07Z</time>
      </trkpt>
      <trkpt lat="46.7725" lon="4.97375">
        <ele>199.19999694824</ele>
        <time>2017-07-24T08:09:09Z</time>
      </trkpt>
      <trkpt lat="46.77222" lon="4.97388">
        <ele>198.39999389648</ele>
        <time>2017-07-24T08:09:13Z</time>
      </trkpt>
      <trkpt lat="46.77185" lon="4.97402">
        <ele>197.60000610352</ele>
        <time>2017-07-24T08:09:18Z</time>
      </trkpt>
      <trkpt lat="46.77178" lon="4.97405">
        <ele>197.39999389648</ele>
        <time>2017-07-24T08:09:19Z</time>
      </trkpt>
      <trkpt lat="46.77145" lon="4.9742">
        <ele>196.19999694824</ele>
        <time>2017-07-24T08:09:24Z</time>
      </trkpt>
      <trkpt lat="46.7714" lon="4.97424">
        <ele>196.19999694824</ele>
        <time>2017-07-24T08:09:25Z</time>
      </trkpt>
      <trkpt lat="46.77128" lon="4.97431">
        <ele>195.60000610352</ele>
        <time>2017-07-24T08:09:29Z</time>
      </trkpt>
      <trkpt lat="46.77128" lon="4.97431">
        <ele>194.80000305176</ele>
        <time>2017-07-24T08:10:45Z</time>
      </trkpt>
      <trkpt lat="46.77126" lon="4.97432">
        <ele>195</ele>
        <time>2017-07-24T08:12:59Z</time>
      </trkpt>
      <trkpt lat="46.77121" lon="4.97429">
        <ele>195</ele>
        <time>2017-07-24T08:13:02Z</time>
      </trkpt>
      <trkpt lat="46.77111" lon="4.97419">
        <ele>195</ele>
        <time>2017-07-24T08:13:08Z</time>
      </trkpt>
      <trkpt lat="46.77102" lon="4.97411">
        <ele>194.80000305176</ele>
        <time>2017-07-24T08:13:13Z</time>
      </trkpt>
      <trkpt lat="46.77097" lon="4.97421">
        <ele>194.80000305176</ele>
        <time>2017-07-24T08:13:16Z</time>
      </trkpt>
      <trkpt lat="46.77096" lon="4.97424">
        <ele>194.80000305176</ele>
        <time>2017-07-24T08:13:17Z</time>
      </trkpt>
      <trkpt lat="46.77085" lon="4.97434">
        <ele>195</ele>
        <time>2017-07-24T08:13:22Z</time>
      </trkpt>
      <trkpt lat="46.77081" lon="4.97431">
        <ele>195</ele>
        <time>2017-07-24T08:13:23Z</time>
      </trkpt>
      <trkpt lat="46.77073" lon="4.97424">
        <ele>195</ele>
        <time>2017-07-24T08:13:25Z</time>
      </trkpt>
      <trkpt lat="46.77046" lon="4.97406">
        <ele>194.80000305176</ele>
        <time>2017-07-24T08:13:30Z</time>
      </trkpt>
      <trkpt lat="46.77014" lon="4.97387">
        <ele>193.60000610352</ele>
        <time>2017-07-24T08:13:35Z</time>
      </trkpt>
      <trkpt lat="46.77006" lon="4.97383">
        <ele>193.39999389648</ele>
        <time>2017-07-24T08:13:36Z</time>
      </trkpt>
      <trkpt lat="46.76999" lon="4.9738">
        <ele>193</ele>
        <time>2017-07-24T08:13:37Z</time>
      </trkpt>
      <trkpt lat="46.76983" lon="4.97372">
        <ele>192.19999694824</ele>
        <time>2017-07-24T08:13:39Z</time>
      </trkpt>
      <trkpt lat="46.76975" lon="4.97368">
        <ele>192</ele>
        <time>2017-07-24T08:13:40Z</time>
      </trkpt>
      <trkpt lat="46.76958" lon="4.9736">
        <ele>191.19999694824</ele>
        <time>2017-07-24T08:13:42Z</time>
      </trkpt>
      <trkpt lat="46.76942" lon="4.97351">
        <ele>189.80000305176</ele>
        <time>2017-07-24T08:13:44Z</time>
      </trkpt>
      <trkpt lat="46.76918" lon="4.9734">
        <ele>188.39999389648</ele>
        <time>2017-07-24T08:13:47Z</time>
      </trkpt>
      <trkpt lat="46.76887" lon="4.97323">
        <ele>187.39999389648</ele>
        <time>2017-07-24T08:13:51Z</time>
      </trkpt>
      <trkpt lat="46.76857" lon="4.97308">
        <ele>187</ele>
        <time>2017-07-24T08:13:55Z</time>
      </trkpt>
      <trkpt lat="46.76828" lon="4.97295">
        <ele>186.19999694824</ele>
        <time>2017-07-24T08:13:59Z</time>
      </trkpt>
      <trkpt lat="46.76799" lon="4.97283">
        <ele>185.80000305176</ele>
        <time>2017-07-24T08:14:03Z</time>
      </trkpt>
      <trkpt lat="46.76763" lon="4.97275">
        <ele>185.19999694824</ele>
        <time>2017-07-24T08:14:08Z</time>
      </trkpt>
      <trkpt lat="46.76755" lon="4.97273">
        <ele>185</ele>
        <time>2017-07-24T08:14:09Z</time>
      </trkpt>
      <trkpt lat="46.76699" lon="4.9726">
        <ele>184.19999694824</ele>
        <time>2017-07-24T08:14:17Z</time>
      </trkpt>
      <trkpt lat="46.76684" lon="4.97257">
        <ele>184.19999694824</ele>
        <time>2017-07-24T08:14:19Z</time>
      </trkpt>
      <trkpt lat="46.76649" lon="4.97249">
        <ele>183.80000305176</ele>
        <time>2017-07-24T08:14:24Z</time>
      </trkpt>
      <trkpt lat="46.76593" lon="4.97236">
        <ele>183.60000610352</ele>
        <time>2017-07-24T08:14:32Z</time>
      </trkpt>
      <trkpt lat="46.76586" lon="4.97235">
        <ele>183.60000610352</ele>
        <time>2017-07-24T08:14:33Z</time>
      </trkpt>
      <trkpt lat="46.76564" lon="4.9723">
        <ele>183.19999694824</ele>
        <time>2017-07-24T08:14:36Z</time>
      </trkpt>
      <trkpt lat="46.76535" lon="4.97227">
        <ele>182.80000305176</ele>
        <time>2017-07-24T08:14:40Z</time>
      </trkpt>
      <trkpt lat="46.76479" lon="4.97226">
        <ele>182.80000305176</ele>
        <time>2017-07-24T08:14:48Z</time>
      </trkpt>
      <trkpt lat="46.76424" lon="4.97226">
        <ele>182.80000305176</ele>
        <time>2017-07-24T08:14:56Z</time>
      </trkpt>
      <trkpt lat="46.76368" lon="4.97226">
        <ele>182.19999694824</ele>
        <time>2017-07-24T08:15:04Z</time>
      </trkpt>
      <trkpt lat="46.76361" lon="4.97225">
        <ele>182.19999694824</ele>
        <time>2017-07-24T08:15:05Z</time>
      </trkpt>
      <trkpt lat="46.76321" lon="4.97216">
        <ele>182</ele>
        <time>2017-07-24T08:15:11Z</time>
      </trkpt>
      <trkpt lat="46.76265" lon="4.97201">
        <ele>182</ele>
        <time>2017-07-24T08:15:20Z</time>
      </trkpt>
      <trkpt lat="46.76246" lon="4.97197">
        <ele>182</ele>
        <time>2017-07-24T08:15:23Z</time>
      </trkpt>
      <trkpt lat="46.76203" lon="4.97185">
        <ele>181.80000305176</ele>
        <time>2017-07-24T08:15:30Z</time>
      </trkpt>
      <trkpt lat="46.76166" lon="4.97175">
        <ele>182</ele>
        <time>2017-07-24T08:15:36Z</time>
      </trkpt>
      <trkpt lat="46.76153" lon="4.97173">
        <ele>182.19999694824</ele>
        <time>2017-07-24T08:15:38Z</time>
      </trkpt>
      <trkpt lat="46.76134" lon="4.9717">
        <ele>182</ele>
        <time>2017-07-24T08:15:41Z</time>
      </trkpt>
      <trkpt lat="46.76089" lon="4.9716">
        <ele>182</ele>
        <time>2017-07-24T08:15:48Z</time>
      </trkpt>
      <trkpt lat="46.76061" lon="4.97133">
        <ele>181.80000305176</ele>
        <time>2017-07-24T08:15:53Z</time>
      </trkpt>
      <trkpt lat="46.76027" lon="4.97084">
        <ele>181.80000305176</ele>
        <time>2017-07-24T08:16:00Z</time>
      </trkpt>
      <trkpt lat="46.76" lon="4.97042">
        <ele>181.60000610352</ele>
        <time>2017-07-24T08:16:06Z</time>
      </trkpt>
      <trkpt lat="46.75975" lon="4.97011">
        <ele>181.39999389648</ele>
        <time>2017-07-24T08:16:11Z</time>
      </trkpt>
      <trkpt lat="46.75958" lon="4.96998">
        <ele>181.39999389648</ele>
        <time>2017-07-24T08:16:14Z</time>
      </trkpt>
      <trkpt lat="46.75945" lon="4.96992">
        <ele>181.39999389648</ele>
        <time>2017-07-24T08:16:16Z</time>
      </trkpt>
      <trkpt lat="46.75908" lon="4.96965">
        <ele>181.39999389648</ele>
        <time>2017-07-24T08:16:22Z</time>
      </trkpt>
      <trkpt lat="46.75861" lon="4.96919">
        <ele>181.19999694824</ele>
        <time>2017-07-24T08:16:30Z</time>
      </trkpt>
      <trkpt lat="46.75855" lon="4.96913">
        <ele>181.19999694824</ele>
        <time>2017-07-24T08:16:31Z</time>
      </trkpt>
      <trkpt lat="46.75821" lon="4.96874">
        <ele>180.60000610352</ele>
        <time>2017-07-24T08:16:37Z</time>
      </trkpt>
      <trkpt lat="46.75795" lon="4.96828">
        <ele>180.60000610352</ele>
        <time>2017-07-24T08:16:43Z</time>
      </trkpt>
      <trkpt lat="46.75759" lon="4.96776">
        <ele>181</ele>
        <time>2017-07-24T08:16:51Z</time>
      </trkpt>
      <trkpt lat="46.7573" lon="4.96739">
        <ele>180.80000305176</ele>
        <time>2017-07-24T08:16:57Z</time>
      </trkpt>
      <trkpt lat="46.75696" lon="4.96691">
        <ele>180.80000305176</ele>
        <time>2017-07-24T08:17:04Z</time>
      </trkpt>
      <trkpt lat="46.75655" lon="4.96628">
        <ele>180.60000610352</ele>
        <time>2017-07-24T08:17:12Z</time>
      </trkpt>
      <trkpt lat="46.75613" lon="4.96582">
        <ele>180</ele>
        <time>2017-07-24T08:17:19Z</time>
      </trkpt>
      <trkpt lat="46.75565" lon="4.96545">
        <ele>179.39999389648</ele>
        <time>2017-07-24T08:17:26Z</time>
      </trkpt>
      <trkpt lat="46.75558" lon="4.9654">
        <ele>179.19999694824</ele>
        <time>2017-07-24T08:17:27Z</time>
      </trkpt>
      <trkpt lat="46.75504" lon="4.96505">
        <ele>178.80000305176</ele>
        <time>2017-07-24T08:17:35Z</time>
      </trkpt>
      <trkpt lat="46.75497" lon="4.96501">
        <ele>178.80000305176</ele>
        <time>2017-07-24T08:17:36Z</time>
      </trkpt>
      <trkpt lat="46.75443" lon="4.96469">
        <ele>178.39999389648</ele>
        <time>2017-07-24T08:17:44Z</time>
      </trkpt>
      <trkpt lat="46.75397" lon="4.96441">
        <ele>177.80000305176</ele>
        <time>2017-07-24T08:17:51Z</time>
      </trkpt>
      <trkpt lat="46.75371" lon="4.96425">
        <ele>177.60000610352</ele>
        <time>2017-07-24T08:17:55Z</time>
      </trkpt>
      <trkpt lat="46.75316" lon="4.96404">
        <ele>177.39999389648</ele>
        <time>2017-07-24T08:18:03Z</time>
      </trkpt>
      <trkpt lat="46.75275" lon="4.96397">
        <ele>177.19999694824</ele>
        <time>2017-07-24T08:18:09Z</time>
      </trkpt>
      <trkpt lat="46.75269" lon="4.96398">
        <ele>177.19999694824</ele>
        <time>2017-07-24T08:18:10Z</time>
      </trkpt>
      <trkpt lat="46.75249" lon="4.96407">
        <ele>177.19999694824</ele>
        <time>2017-07-24T08:18:13Z</time>
      </trkpt>
      <trkpt lat="46.75243" lon="4.9641">
        <ele>177.19999694824</ele>
        <time>2017-07-24T08:18:14Z</time>
      </trkpt>
      <trkpt lat="46.75192" lon="4.96443">
        <ele>177.80000305176</ele>
        <time>2017-07-24T08:18:22Z</time>
      </trkpt>
      <trkpt lat="46.75155" lon="4.96467">
        <ele>178.19999694824</ele>
        <time>2017-07-24T08:18:28Z</time>
      </trkpt>
      <trkpt lat="46.75099" lon="4.96497">
        <ele>178.19999694824</ele>
        <time>2017-07-24T08:18:37Z</time>
      </trkpt>
      <trkpt lat="46.75074" lon="4.96501">
        <ele>178.39999389648</ele>
        <time>2017-07-24T08:18:42Z</time>
      </trkpt>
      <trkpt lat="46.75063" lon="4.965">
        <ele>178.19999694824</ele>
        <time>2017-07-24T08:18:47Z</time>
      </trkpt>
      <trkpt lat="46.75054" lon="4.96503">
        <ele>178.19999694824</ele>
        <time>2017-07-24T08:18:51Z</time>
      </trkpt>
      <trkpt lat="46.75037" lon="4.96507">
        <ele>178.39999389648</ele>
        <time>2017-07-24T08:18:56Z</time>
      </trkpt>
      <trkpt lat="46.75032" lon="4.96509">
        <ele>178.39999389648</ele>
        <time>2017-07-24T08:18:57Z</time>
      </trkpt>
      <trkpt lat="46.75012" lon="4.96514">
        <ele>178.19999694824</ele>
        <time>2017-07-24T08:19:01Z</time>
      </trkpt>
      <trkpt lat="46.75006" lon="4.96517">
        <ele>178.19999694824</ele>
        <time>2017-07-24T08:19:02Z</time>
      </trkpt>
      <trkpt lat="46.74977" lon="4.96527">
        <ele>177.80000305176</ele>
        <time>2017-07-24T08:19:07Z</time>
      </trkpt>
      <trkpt lat="46.74947" lon="4.96542">
        <ele>177.39999389648</ele>
        <time>2017-07-24T08:19:12Z</time>
      </trkpt>
      <trkpt lat="46.74936" lon="4.9655">
        <ele>177.39999389648</ele>
        <time>2017-07-24T08:19:14Z</time>
      </trkpt>
      <trkpt lat="46.74902" lon="4.96575">
        <ele>177.19999694824</ele>
        <time>2017-07-24T08:19:20Z</time>
      </trkpt>
      <trkpt lat="46.74861" lon="4.96595">
        <ele>177.19999694824</ele>
        <time>2017-07-24T08:19:27Z</time>
      </trkpt>
      <trkpt lat="46.74822" lon="4.96611">
        <ele>177.80000305176</ele>
        <time>2017-07-24T08:19:34Z</time>
      </trkpt>
      <trkpt lat="46.74786" lon="4.9662">
        <ele>178.60000610352</ele>
        <time>2017-07-24T08:19:40Z</time>
      </trkpt>
      <trkpt lat="46.74768" lon="4.96624">
        <ele>178.80000305176</ele>
        <time>2017-07-24T08:19:43Z</time>
      </trkpt>
      <trkpt lat="46.74744" lon="4.96626">
        <ele>179</ele>
        <time>2017-07-24T08:19:47Z</time>
      </trkpt>
      <trkpt lat="46.74726" lon="4.96629">
        <ele>179</ele>
        <time>2017-07-24T08:19:50Z</time>
      </trkpt>
      <trkpt lat="46.74707" lon="4.96632">
        <ele>179</ele>
        <time>2017-07-24T08:19:53Z</time>
      </trkpt>
      <trkpt lat="46.74665" lon="4.96641">
        <ele>179</ele>
        <time>2017-07-24T08:20:00Z</time>
      </trkpt>
      <trkpt lat="46.74626" lon="4.96648">
        <ele>179</ele>
        <time>2017-07-24T08:20:06Z</time>
      </trkpt>
      <trkpt lat="46.746" lon="4.96646">
        <ele>179</ele>
        <time>2017-07-24T08:20:10Z</time>
      </trkpt>
      <trkpt lat="46.74587" lon="4.96643">
        <ele>178.80000305176</ele>
        <time>2017-07-24T08:20:12Z</time>
      </trkpt>
      <trkpt lat="46.74553" lon="4.96626">
        <ele>179.19999694824</ele>
        <time>2017-07-24T08:20:18Z</time>
      </trkpt>
      <trkpt lat="46.74523" lon="4.966">
        <ele>179.39999389648</ele>
        <time>2017-07-24T08:20:24Z</time>
      </trkpt>
      <trkpt lat="46.74513" lon="4.96593">
        <ele>179.39999389648</ele>
        <time>2017-07-24T08:20:26Z</time>
      </trkpt>
      <trkpt lat="46.74496" lon="4.96587">
        <ele>179.19999694824</ele>
        <time>2017-07-24T08:20:29Z</time>
      </trkpt>
      <trkpt lat="46.74491" lon="4.96586">
        <ele>179.19999694824</ele>
        <time>2017-07-24T08:20:30Z</time>
      </trkpt>
      <trkpt lat="46.74474" lon="4.96589">
        <ele>179</ele>
        <time>2017-07-24T08:20:33Z</time>
      </trkpt>
      <trkpt lat="46.74468" lon="4.96591">
        <ele>179</ele>
        <time>2017-07-24T08:20:34Z</time>
      </trkpt>
      <trkpt lat="46.74457" lon="4.96596">
        <ele>178.80000305176</ele>
        <time>2017-07-24T08:20:36Z</time>
      </trkpt>
      <trkpt lat="46.74441" lon="4.96606">
        <ele>178.60000610352</ele>
        <time>2017-07-24T08:20:39Z</time>
      </trkpt>
      <trkpt lat="46.74412" lon="4.96616">
        <ele>178.39999389648</ele>
        <time>2017-07-24T08:20:44Z</time>
      </trkpt>
      <trkpt lat="46.74399" lon="4.96617">
        <ele>178.39999389648</ele>
        <time>2017-07-24T08:20:46Z</time>
      </trkpt>
      <trkpt lat="46.74351" lon="4.96617">
        <ele>178.80000305176</ele>
        <time>2017-07-24T08:20:54Z</time>
      </trkpt>
      <trkpt lat="46.74345" lon="4.96616">
        <ele>178.80000305176</ele>
        <time>2017-07-24T08:20:55Z</time>
      </trkpt>
      <trkpt lat="46.74333" lon="4.96618">
        <ele>178.80000305176</ele>
        <time>2017-07-24T08:20:57Z</time>
      </trkpt>
      <trkpt lat="46.74322" lon="4.96623">
        <ele>178.80000305176</ele>
        <time>2017-07-24T08:20:59Z</time>
      </trkpt>
      <trkpt lat="46.74303" lon="4.96643">
        <ele>178.80000305176</ele>
        <time>2017-07-24T08:21:03Z</time>
      </trkpt>
      <trkpt lat="46.74299" lon="4.96649">
        <ele>178.80000305176</ele>
        <time>2017-07-24T08:21:04Z</time>
      </trkpt>
      <trkpt lat="46.74294" lon="4.96653">
        <ele>179</ele>
        <time>2017-07-24T08:21:05Z</time>
      </trkpt>
      <trkpt lat="46.74285" lon="4.96664">
        <ele>179</ele>
        <time>2017-07-24T08:21:07Z</time>
      </trkpt>
      <trkpt lat="46.74281" lon="4.9667">
        <ele>179.19999694824</ele>
        <time>2017-07-24T08:21:08Z</time>
      </trkpt>
      <trkpt lat="46.74272" lon="4.96679">
        <ele>179.19999694824</ele>
        <time>2017-07-24T08:21:10Z</time>
      </trkpt>
      <trkpt lat="46.74257" lon="4.96692">
        <ele>179.39999389648</ele>
        <time>2017-07-24T08:21:13Z</time>
      </trkpt>
      <trkpt lat="46.74241" lon="4.96703">
        <ele>179.60000610352</ele>
        <time>2017-07-24T08:21:16Z</time>
      </trkpt>
      <trkpt lat="46.74224" lon="4.96714">
        <ele>179.80000305176</ele>
        <time>2017-07-24T08:21:19Z</time>
      </trkpt>
      <trkpt lat="46.74218" lon="4.96717">
        <ele>179.80000305176</ele>
        <time>2017-07-24T08:21:20Z</time>
      </trkpt>
      <trkpt lat="46.74188" lon="4.9673">
        <ele>179.39999389648</ele>
        <time>2017-07-24T08:21:25Z</time>
      </trkpt>
      <trkpt lat="46.74142" lon="4.96742">
        <ele>179.39999389648</ele>
        <time>2017-07-24T08:21:32Z</time>
      </trkpt>
      <trkpt lat="46.74085" lon="4.96749">
        <ele>179.39999389648</ele>
        <time>2017-07-24T08:21:41Z</time>
      </trkpt>
      <trkpt lat="46.74079" lon="4.96749">
        <ele>179.39999389648</ele>
        <time>2017-07-24T08:21:42Z</time>
      </trkpt>
      <trkpt lat="46.74037" lon="4.96752">
        <ele>180</ele>
        <time>2017-07-24T08:21:49Z</time>
      </trkpt>
      <trkpt lat="46.74031" lon="4.96751">
        <ele>180</ele>
        <time>2017-07-24T08:21:50Z</time>
      </trkpt>
      <trkpt lat="46.74009" lon="4.96738">
        <ele>180</ele>
        <time>2017-07-24T08:21:54Z</time>
      </trkpt>
      <trkpt lat="46.73998" lon="4.96716">
        <ele>180</ele>
        <time>2017-07-24T08:21:57Z</time>
      </trkpt>
      <trkpt lat="46.73994" lon="4.96709">
        <ele>180</ele>
        <time>2017-07-24T08:21:58Z</time>
      </trkpt>
      <trkpt lat="46.73974" lon="4.96654">
        <ele>180.19999694824</ele>
        <time>2017-07-24T08:22:05Z</time>
      </trkpt>
      <trkpt lat="46.73955" lon="4.96598">
        <ele>180.19999694824</ele>
        <time>2017-07-24T08:22:12Z</time>
      </trkpt>
      <trkpt lat="46.73951" lon="4.96591">
        <ele>180.19999694824</ele>
        <time>2017-07-24T08:22:13Z</time>
      </trkpt>
      <trkpt lat="46.73947" lon="4.96585">
        <ele>180.19999694824</ele>
        <time>2017-07-24T08:22:14Z</time>
      </trkpt>
      <trkpt lat="46.73935" lon="4.96577">
        <ele>180.19999694824</ele>
        <time>2017-07-24T08:22:16Z</time>
      </trkpt>
      <trkpt lat="46.73916" lon="4.96575">
        <ele>180.19999694824</ele>
        <time>2017-07-24T08:22:19Z</time>
      </trkpt>
      <trkpt lat="46.7391" lon="4.96575">
        <ele>180.19999694824</ele>
        <time>2017-07-24T08:22:20Z</time>
      </trkpt>
      <trkpt lat="46.73891" lon="4.96576">
        <ele>180.19999694824</ele>
        <time>2017-07-24T08:22:23Z</time>
      </trkpt>
      <trkpt lat="46.73878" lon="4.96576">
        <ele>180.19999694824</ele>
        <time>2017-07-24T08:22:25Z</time>
      </trkpt>
      <trkpt lat="46.73839" lon="4.96566">
        <ele>180</ele>
        <time>2017-07-24T08:22:31Z</time>
      </trkpt>
      <trkpt lat="46.73826" lon="4.9656">
        <ele>180</ele>
        <time>2017-07-24T08:22:33Z</time>
      </trkpt>
      <trkpt lat="46.73816" lon="4.96548">
        <ele>180</ele>
        <time>2017-07-24T08:22:35Z</time>
      </trkpt>
      <trkpt lat="46.73805" lon="4.96522">
        <ele>180</ele>
        <time>2017-07-24T08:22:38Z</time>
      </trkpt>
      <trkpt lat="46.73802" lon="4.96513">
        <ele>179.80000305176</ele>
        <time>2017-07-24T08:22:39Z</time>
      </trkpt>
      <trkpt lat="46.7379" lon="4.9648">
        <ele>179.80000305176</ele>
        <time>2017-07-24T08:22:43Z</time>
      </trkpt>
      <trkpt lat="46.73785" lon="4.96472">
        <ele>179.60000610352</ele>
        <time>2017-07-24T08:22:44Z</time>
      </trkpt>
      <trkpt lat="46.73775" lon="4.9646">
        <ele>179.60000610352</ele>
        <time>2017-07-24T08:22:46Z</time>
      </trkpt>
      <trkpt lat="46.73763" lon="4.96455">
        <ele>179.60000610352</ele>
        <time>2017-07-24T08:22:48Z</time>
      </trkpt>
      <trkpt lat="46.73736" lon="4.96458">
        <ele>179.39999389648</ele>
        <time>2017-07-24T08:22:52Z</time>
      </trkpt>
      <trkpt lat="46.73729" lon="4.96459">
        <ele>179.39999389648</ele>
        <time>2017-07-24T08:22:53Z</time>
      </trkpt>
      <trkpt lat="46.7369" lon="4.96467">
        <ele>179.60000610352</ele>
        <time>2017-07-24T08:22:59Z</time>
      </trkpt>
      <trkpt lat="46.73669" lon="4.96466">
        <ele>179.60000610352</ele>
        <time>2017-07-24T08:23:02Z</time>
      </trkpt>
      <trkpt lat="46.73656" lon="4.96459">
        <ele>179.39999389648</ele>
        <time>2017-07-24T08:23:04Z</time>
      </trkpt>
      <trkpt lat="46.73633" lon="4.96434">
        <ele>179.39999389648</ele>
        <time>2017-07-24T08:23:08Z</time>
      </trkpt>
      <trkpt lat="46.73602" lon="4.96398">
        <ele>178.80000305176</ele>
        <time>2017-07-24T08:23:13Z</time>
      </trkpt>
      <trkpt lat="46.73595" lon="4.96391">
        <ele>178.60000610352</ele>
        <time>2017-07-24T08:23:14Z</time>
      </trkpt>
      <trkpt lat="46.73587" lon="4.96387">
        <ele>178.19999694824</ele>
        <time>2017-07-24T08:23:15Z</time>
      </trkpt>
      <trkpt lat="46.73571" lon="4.96385">
        <ele>177.80000305176</ele>
        <time>2017-07-24T08:23:17Z</time>
      </trkpt>
      <trkpt lat="46.73563" lon="4.96385">
        <ele>177.60000610352</ele>
        <time>2017-07-24T08:23:18Z</time>
      </trkpt>
      <trkpt lat="46.73555" lon="4.96385">
        <ele>177.19999694824</ele>
        <time>2017-07-24T08:23:19Z</time>
      </trkpt>
      <trkpt lat="46.73531" lon="4.96384">
        <ele>176.80000305176</ele>
        <time>2017-07-24T08:23:22Z</time>
      </trkpt>
      <trkpt lat="46.73487" lon="4.96383">
        <ele>176.60000610352</ele>
        <time>2017-07-24T08:23:28Z</time>
      </trkpt>
      <trkpt lat="46.73479" lon="4.96384">
        <ele>176.39999389648</ele>
        <time>2017-07-24T08:23:29Z</time>
      </trkpt>
      <trkpt lat="46.73422" lon="4.96387">
        <ele>176.39999389648</ele>
        <time>2017-07-24T08:23:37Z</time>
      </trkpt>
      <trkpt lat="46.7338" lon="4.96387">
        <ele>176.80000305176</ele>
        <time>2017-07-24T08:23:43Z</time>
      </trkpt>
      <trkpt lat="46.73332" lon="4.96383">
        <ele>176.80000305176</ele>
        <time>2017-07-24T08:23:50Z</time>
      </trkpt>
      <trkpt lat="46.73301" lon="4.96366">
        <ele>176.80000305176</ele>
        <time>2017-07-24T08:23:55Z</time>
      </trkpt>
      <trkpt lat="46.7328" lon="4.96349">
        <ele>177.19999694824</ele>
        <time>2017-07-24T08:23:59Z</time>
      </trkpt>
      <trkpt lat="46.73269" lon="4.9634">
        <ele>177.39999389648</ele>
        <time>2017-07-24T08:24:01Z</time>
      </trkpt>
      <trkpt lat="46.73254" lon="4.96327">
        <ele>177.60000610352</ele>
        <time>2017-07-24T08:24:04Z</time>
      </trkpt>
      <trkpt lat="46.73232" lon="4.96312">
        <ele>178</ele>
        <time>2017-07-24T08:24:08Z</time>
      </trkpt>
      <trkpt lat="46.73178" lon="4.96283">
        <ele>178.60000610352</ele>
        <time>2017-07-24T08:24:18Z</time>
      </trkpt>
      <trkpt lat="46.73151" lon="4.96265">
        <ele>178.60000610352</ele>
        <time>2017-07-24T08:24:23Z</time>
      </trkpt>
      <trkpt lat="46.73146" lon="4.96261">
        <ele>178.60000610352</ele>
        <time>2017-07-24T08:24:24Z</time>
      </trkpt>
      <trkpt lat="46.73108" lon="4.96225">
        <ele>178.60000610352</ele>
        <time>2017-07-24T08:24:32Z</time>
      </trkpt>
      <trkpt lat="46.73077" lon="4.96189">
        <ele>179.19999694824</ele>
        <time>2017-07-24T08:24:39Z</time>
      </trkpt>
      <trkpt lat="46.73046" lon="4.9615">
        <ele>179.60000610352</ele>
        <time>2017-07-24T08:24:46Z</time>
      </trkpt>
      <trkpt lat="46.73019" lon="4.96103">
        <ele>179.60000610352</ele>
        <time>2017-07-24T08:24:53Z</time>
      </trkpt>
      <trkpt lat="46.72986" lon="4.96038">
        <ele>179.80000305176</ele>
        <time>2017-07-24T08:25:02Z</time>
      </trkpt>
      <trkpt lat="46.72981" lon="4.96032">
        <ele>179.80000305176</ele>
        <time>2017-07-24T08:25:03Z</time>
      </trkpt>
      <trkpt lat="46.72964" lon="4.96019">
        <ele>179.60000610352</ele>
        <time>2017-07-24T08:25:06Z</time>
      </trkpt>
      <trkpt lat="46.72923" lon="4.95992">
        <ele>179.60000610352</ele>
        <time>2017-07-24T08:25:13Z</time>
      </trkpt>
      <trkpt lat="46.72903" lon="4.95969">
        <ele>179.60000610352</ele>
        <time>2017-07-24T08:25:17Z</time>
      </trkpt>
      <trkpt lat="46.72895" lon="4.95954">
        <ele>179.60000610352</ele>
        <time>2017-07-24T08:25:19Z</time>
      </trkpt>
      <trkpt lat="46.72872" lon="4.95904">
        <ele>179.80000305176</ele>
        <time>2017-07-24T08:25:26Z</time>
      </trkpt>
      <trkpt lat="46.72848" lon="4.95877">
        <ele>180</ele>
        <time>2017-07-24T08:25:31Z</time>
      </trkpt>
      <trkpt lat="46.72823" lon="4.95868">
        <ele>180</ele>
        <time>2017-07-24T08:25:35Z</time>
      </trkpt>
      <trkpt lat="46.72777" lon="4.95851">
        <ele>180</ele>
        <time>2017-07-24T08:25:43Z</time>
      </trkpt>
      <trkpt lat="46.72757" lon="4.95846">
        <ele>180</ele>
        <time>2017-07-24T08:25:47Z</time>
      </trkpt>
      <trkpt lat="46.72748" lon="4.95846">
        <ele>180</ele>
        <time>2017-07-24T08:25:49Z</time>
      </trkpt>
      <trkpt lat="46.72731" lon="4.95843">
        <ele>180</ele>
        <time>2017-07-24T08:25:54Z</time>
      </trkpt>
      <trkpt lat="46.7273" lon="4.9584">
        <ele>180</ele>
        <time>2017-07-24T08:25:55Z</time>
      </trkpt>
      <trkpt lat="46.72724" lon="4.95835">
        <ele>180.39999389648</ele>
        <time>2017-07-24T08:25:58Z</time>
      </trkpt>
      <trkpt lat="46.72719" lon="4.95845">
        <ele>180.39999389648</ele>
        <time>2017-07-24T08:26:01Z</time>
      </trkpt>
      <trkpt lat="46.72716" lon="4.95854">
        <ele>180.39999389648</ele>
        <time>2017-07-24T08:26:03Z</time>
      </trkpt>
      <trkpt lat="46.72711" lon="4.95867">
        <ele>180.19999694824</ele>
        <time>2017-07-24T08:26:06Z</time>
      </trkpt>
      <trkpt lat="46.72709" lon="4.95865">
        <ele>180.19999694824</ele>
        <time>2017-07-24T08:26:43Z</time>
      </trkpt>
      <trkpt lat="46.72713" lon="4.9586">
        <ele>180.19999694824</ele>
        <time>2017-07-24T08:26:47Z</time>
      </trkpt>
      <trkpt lat="46.72716" lon="4.9585">
        <ele>180.19999694824</ele>
        <time>2017-07-24T08:26:50Z</time>
      </trkpt>
      <trkpt lat="46.72719" lon="4.95843">
        <ele>180.19999694824</ele>
        <time>2017-07-24T08:26:52Z</time>
      </trkpt>
      <trkpt lat="46.72725" lon="4.95828">
        <ele>180.39999389648</ele>
        <time>2017-07-24T08:26:57Z</time>
      </trkpt>
      <trkpt lat="46.72723" lon="4.95819">
        <ele>180.60000610352</ele>
        <time>2017-07-24T08:26:59Z</time>
      </trkpt>
      <trkpt lat="46.72721" lon="4.95808">
        <ele>180.60000610352</ele>
        <time>2017-07-24T08:27:01Z</time>
      </trkpt>
      <trkpt lat="46.72708" lon="4.95778">
        <ele>180.60000610352</ele>
        <time>2017-07-24T08:27:06Z</time>
      </trkpt>
      <trkpt lat="46.72705" lon="4.95773">
        <ele>180.60000610352</ele>
        <time>2017-07-24T08:27:07Z</time>
      </trkpt>
      <trkpt lat="46.72694" lon="4.9575">
        <ele>180.80000305176</ele>
        <time>2017-07-24T08:27:11Z</time>
      </trkpt>
      <trkpt lat="46.72691" lon="4.95744">
        <ele>180.80000305176</ele>
        <time>2017-07-24T08:27:12Z</time>
      </trkpt>
      <trkpt lat="46.7267" lon="4.95702">
        <ele>181</ele>
        <time>2017-07-24T08:27:19Z</time>
      </trkpt>
      <trkpt lat="46.72657" lon="4.95678">
        <ele>181.39999389648</ele>
        <time>2017-07-24T08:27:23Z</time>
      </trkpt>
      <trkpt lat="46.72648" lon="4.9566">
        <ele>181.39999389648</ele>
        <time>2017-07-24T08:27:26Z</time>
      </trkpt>
      <trkpt lat="46.72627" lon="4.95616">
        <ele>181.80000305176</ele>
        <time>2017-07-24T08:27:33Z</time>
      </trkpt>
      <trkpt lat="46.72624" lon="4.9561">
        <ele>181.80000305176</ele>
        <time>2017-07-24T08:27:34Z</time>
      </trkpt>
      <trkpt lat="46.726" lon="4.95562">
        <ele>182.60000610352</ele>
        <time>2017-07-24T08:27:42Z</time>
      </trkpt>
      <trkpt lat="46.72584" lon="4.95533">
        <ele>182.80000305176</ele>
        <time>2017-07-24T08:27:47Z</time>
      </trkpt>
      <trkpt lat="46.72579" lon="4.95522">
        <ele>183</ele>
        <time>2017-07-24T08:27:49Z</time>
      </trkpt>
      <trkpt lat="46.72551" lon="4.95473">
        <ele>183.39999389648</ele>
        <time>2017-07-24T08:27:58Z</time>
      </trkpt>
      <trkpt lat="46.72541" lon="4.95457">
        <ele>183.39999389648</ele>
        <time>2017-07-24T08:28:01Z</time>
      </trkpt>
      <trkpt lat="46.7253" lon="4.9544">
        <ele>183.39999389648</ele>
        <time>2017-07-24T08:28:04Z</time>
      </trkpt>
      <trkpt lat="46.72523" lon="4.95428">
        <ele>183.39999389648</ele>
        <time>2017-07-24T08:28:06Z</time>
      </trkpt>
      <trkpt lat="46.72508" lon="4.95406">
        <ele>183.80000305176</ele>
        <time>2017-07-24T08:28:10Z</time>
      </trkpt>
      <trkpt lat="46.72497" lon="4.95388">
        <ele>183.80000305176</ele>
        <time>2017-07-24T08:28:13Z</time>
      </trkpt>
      <trkpt lat="46.72482" lon="4.95367">
        <ele>183.80000305176</ele>
        <time>2017-07-24T08:28:17Z</time>
      </trkpt>
      <trkpt lat="46.72457" lon="4.9533">
        <ele>184</ele>
        <time>2017-07-24T08:28:24Z</time>
      </trkpt>
      <trkpt lat="46.72436" lon="4.95298">
        <ele>184.19999694824</ele>
        <time>2017-07-24T08:28:31Z</time>
      </trkpt>
      <trkpt lat="46.72429" lon="4.95283">
        <ele>184.19999694824</ele>
        <time>2017-07-24T08:28:34Z</time>
      </trkpt>
      <trkpt lat="46.72425" lon="4.95269">
        <ele>184.19999694824</ele>
        <time>2017-07-24T08:28:37Z</time>
      </trkpt>
      <trkpt lat="46.72423" lon="4.9526">
        <ele>183.80000305176</ele>
        <time>2017-07-24T08:28:41Z</time>
      </trkpt>
      <trkpt lat="46.72418" lon="4.95257">
        <ele>183.60000610352</ele>
        <time>2017-07-24T08:29:04Z</time>
      </trkpt>
      <trkpt lat="46.72407" lon="4.95256">
        <ele>183.60000610352</ele>
        <time>2017-07-24T08:29:08Z</time>
      </trkpt>
      <trkpt lat="46.72402" lon="4.95259">
        <ele>183.60000610352</ele>
        <time>2017-07-24T08:29:09Z</time>
      </trkpt>
      <trkpt lat="46.72388" lon="4.95267">
        <ele>183.60000610352</ele>
        <time>2017-07-24T08:29:12Z</time>
      </trkpt>
      <trkpt lat="46.72357" lon="4.95287">
        <ele>183.60000610352</ele>
        <time>2017-07-24T08:29:18Z</time>
      </trkpt>
      <trkpt lat="46.72309" lon="4.95319">
        <ele>183.19999694824</ele>
        <time>2017-07-24T08:29:27Z</time>
      </trkpt>
      <trkpt lat="46.72256" lon="4.95343">
        <ele>183.19999694824</ele>
        <time>2017-07-24T08:29:36Z</time>
      </trkpt>
      <trkpt lat="46.72223" lon="4.95352">
        <ele>183</ele>
        <time>2017-07-24T08:29:42Z</time>
      </trkpt>
      <trkpt lat="46.72191" lon="4.95356">
        <ele>183</ele>
        <time>2017-07-24T08:29:47Z</time>
      </trkpt>
      <trkpt lat="46.72174" lon="4.95358">
        <ele>182.80000305176</ele>
        <time>2017-07-24T08:29:50Z</time>
      </trkpt>
      <trkpt lat="46.72155" lon="4.95363">
        <ele>182.60000610352</ele>
        <time>2017-07-24T08:29:54Z</time>
      </trkpt>
      <trkpt lat="46.72151" lon="4.95381">
        <ele>182.39999389648</ele>
        <time>2017-07-24T08:29:57Z</time>
      </trkpt>
      <trkpt lat="46.72154" lon="4.95398">
        <ele>182.19999694824</ele>
        <time>2017-07-24T08:30:00Z</time>
      </trkpt>
      <trkpt lat="46.72154" lon="4.95404">
        <ele>182.19999694824</ele>
        <time>2017-07-24T08:30:01Z</time>
      </trkpt>
      <trkpt lat="46.72158" lon="4.95456">
        <ele>182.60000610352</ele>
        <time>2017-07-24T08:30:08Z</time>
      </trkpt>
      <trkpt lat="46.7216" lon="4.95483">
        <ele>182.60000610352</ele>
        <time>2017-07-24T08:30:11Z</time>
      </trkpt>
      <trkpt lat="46.72158" lon="4.95502">
        <ele>182.39999389648</ele>
        <time>2017-07-24T08:30:13Z</time>
      </trkpt>
      <trkpt lat="46.72148" lon="4.95528">
        <ele>182.19999694824</ele>
        <time>2017-07-24T08:30:16Z</time>
      </trkpt>
      <trkpt lat="46.72137" lon="4.95551">
        <ele>181.80000305176</ele>
        <time>2017-07-24T08:30:19Z</time>
      </trkpt>
      <trkpt lat="46.72128" lon="4.95564">
        <ele>181.60000610352</ele>
        <time>2017-07-24T08:30:21Z</time>
      </trkpt>
      <trkpt lat="46.72123" lon="4.95569">
        <ele>181.39999389648</ele>
        <time>2017-07-24T08:30:22Z</time>
      </trkpt>
      <trkpt lat="46.721" lon="4.9558">
        <ele>181</ele>
        <time>2017-07-24T08:30:26Z</time>
      </trkpt>
      <trkpt lat="46.72091" lon="4.95589">
        <ele>180.80000305176</ele>
        <time>2017-07-24T08:30:28Z</time>
      </trkpt>
      <trkpt lat="46.72089" lon="4.95596">
        <ele>180.80000305176</ele>
        <time>2017-07-24T08:30:29Z</time>
      </trkpt>
      <trkpt lat="46.72087" lon="4.95604">
        <ele>180.60000610352</ele>
        <time>2017-07-24T08:30:30Z</time>
      </trkpt>
      <trkpt lat="46.72077" lon="4.95626">
        <ele>180.60000610352</ele>
        <time>2017-07-24T08:30:33Z</time>
      </trkpt>
      <trkpt lat="46.72073" lon="4.95634">
        <ele>180.60000610352</ele>
        <time>2017-07-24T08:30:34Z</time>
      </trkpt>
      <trkpt lat="46.72041" lon="4.95689">
        <ele>179.80000305176</ele>
        <time>2017-07-24T08:30:41Z</time>
      </trkpt>
      <trkpt lat="46.72006" lon="4.95744">
        <ele>178.60000610352</ele>
        <time>2017-07-24T08:30:48Z</time>
      </trkpt>
      <trkpt lat="46.72001" lon="4.95752">
        <ele>178.39999389648</ele>
        <time>2017-07-24T08:30:49Z</time>
      </trkpt>
      <trkpt lat="46.71972" lon="4.95791">
        <ele>178</ele>
        <time>2017-07-24T08:30:55Z</time>
      </trkpt>
      <trkpt lat="46.71966" lon="4.95796">
        <ele>178</ele>
        <time>2017-07-24T08:30:56Z</time>
      </trkpt>
      <trkpt lat="46.71949" lon="4.95819">
        <ele>178.19999694824</ele>
        <time>2017-07-24T08:31:00Z</time>
      </trkpt>
      <trkpt lat="46.71946" lon="4.95826">
        <ele>178.19999694824</ele>
        <time>2017-07-24T08:31:01Z</time>
      </trkpt>
      <trkpt lat="46.71936" lon="4.95852">
        <ele>178.80000305176</ele>
        <time>2017-07-24T08:31:05Z</time>
      </trkpt>
      <trkpt lat="46.71928" lon="4.95879">
        <ele>179.19999694824</ele>
        <time>2017-07-24T08:31:09Z</time>
      </trkpt>
      <trkpt lat="46.71925" lon="4.95901">
        <ele>179.60000610352</ele>
        <time>2017-07-24T08:31:12Z</time>
      </trkpt>
      <trkpt lat="46.71918" lon="4.95955">
        <ele>180.60000610352</ele>
        <time>2017-07-24T08:31:19Z</time>
      </trkpt>
      <trkpt lat="46.71917" lon="4.95962">
        <ele>180.80000305176</ele>
        <time>2017-07-24T08:31:20Z</time>
      </trkpt>
      <trkpt lat="46.71911" lon="4.96008">
        <ele>181</ele>
        <time>2017-07-24T08:31:26Z</time>
      </trkpt>
      <trkpt lat="46.71903" lon="4.96073">
        <ele>181.19999694824</ele>
        <time>2017-07-24T08:31:34Z</time>
      </trkpt>
      <trkpt lat="46.71895" lon="4.96096">
        <ele>181.19999694824</ele>
        <time>2017-07-24T08:31:37Z</time>
      </trkpt>
      <trkpt lat="46.71889" lon="4.96099">
        <ele>181.19999694824</ele>
        <time>2017-07-24T08:31:38Z</time>
      </trkpt>
      <trkpt lat="46.7187" lon="4.96093">
        <ele>181.19999694824</ele>
        <time>2017-07-24T08:31:41Z</time>
      </trkpt>
      <trkpt lat="46.71864" lon="4.9609">
        <ele>181.19999694824</ele>
        <time>2017-07-24T08:31:42Z</time>
      </trkpt>
      <trkpt lat="46.71858" lon="4.96089">
        <ele>181.19999694824</ele>
        <time>2017-07-24T08:31:43Z</time>
      </trkpt>
      <trkpt lat="46.71835" lon="4.96082">
        <ele>181.39999389648</ele>
        <time>2017-07-24T08:31:47Z</time>
      </trkpt>
      <trkpt lat="46.71801" lon="4.96067">
        <ele>181.60000610352</ele>
        <time>2017-07-24T08:31:53Z</time>
      </trkpt>
      <trkpt lat="46.71772" lon="4.96057">
        <ele>181.60000610352</ele>
        <time>2017-07-24T08:31:58Z</time>
      </trkpt>
      <trkpt lat="46.71767" lon="4.96058">
        <ele>181.60000610352</ele>
        <time>2017-07-24T08:31:59Z</time>
      </trkpt>
      <trkpt lat="46.71757" lon="4.96078">
        <ele>181.60000610352</ele>
        <time>2017-07-24T08:32:02Z</time>
      </trkpt>
      <trkpt lat="46.71754" lon="4.96094">
        <ele>181.60000610352</ele>
        <time>2017-07-24T08:32:04Z</time>
      </trkpt>
      <trkpt lat="46.7175" lon="4.96119">
        <ele>181.60000610352</ele>
        <time>2017-07-24T08:32:07Z</time>
      </trkpt>
      <trkpt lat="46.71735" lon="4.96166">
        <ele>181.80000305176</ele>
        <time>2017-07-24T08:32:13Z</time>
      </trkpt>
      <trkpt lat="46.71708" lon="4.96215">
        <ele>181.80000305176</ele>
        <time>2017-07-24T08:32:20Z</time>
      </trkpt>
      <trkpt lat="46.71679" lon="4.96252">
        <ele>181.60000610352</ele>
        <time>2017-07-24T08:32:26Z</time>
      </trkpt>
      <trkpt lat="46.71673" lon="4.96257">
        <ele>181.60000610352</ele>
        <time>2017-07-24T08:32:27Z</time>
      </trkpt>
      <trkpt lat="46.71644" lon="4.96287">
        <ele>181.80000305176</ele>
        <time>2017-07-24T08:32:33Z</time>
      </trkpt>
      <trkpt lat="46.71635" lon="4.96298">
        <ele>181.80000305176</ele>
        <time>2017-07-24T08:32:35Z</time>
      </trkpt>
      <trkpt lat="46.71597" lon="4.96325">
        <ele>182</ele>
        <time>2017-07-24T08:32:42Z</time>
      </trkpt>
      <trkpt lat="46.71568" lon="4.9634">
        <ele>181.80000305176</ele>
        <time>2017-07-24T08:32:47Z</time>
      </trkpt>
      <trkpt lat="46.71556" lon="4.96342">
        <ele>181.80000305176</ele>
        <time>2017-07-24T08:32:49Z</time>
      </trkpt>
      <trkpt lat="46.71506" lon="4.96352">
        <ele>181.60000610352</ele>
        <time>2017-07-24T08:32:57Z</time>
      </trkpt>
      <trkpt lat="46.71473" lon="4.96357">
        <ele>181.80000305176</ele>
        <time>2017-07-24T08:33:02Z</time>
      </trkpt>
      <trkpt lat="46.7146" lon="4.96357">
        <ele>182</ele>
        <time>2017-07-24T08:33:04Z</time>
      </trkpt>
      <trkpt lat="46.71439" lon="4.96356">
        <ele>182</ele>
        <time>2017-07-24T08:33:07Z</time>
      </trkpt>
      <trkpt lat="46.71432" lon="4.96357">
        <ele>182</ele>
        <time>2017-07-24T08:33:08Z</time>
      </trkpt>
      <trkpt lat="46.71389" lon="4.96362">
        <ele>181.39999389648</ele>
        <time>2017-07-24T08:33:14Z</time>
      </trkpt>
      <trkpt lat="46.71333" lon="4.96377">
        <ele>181.19999694824</ele>
        <time>2017-07-24T08:33:22Z</time>
      </trkpt>
      <trkpt lat="46.71306" lon="4.96385">
        <ele>181.19999694824</ele>
        <time>2017-07-24T08:33:26Z</time>
      </trkpt>
      <trkpt lat="46.71293" lon="4.96394">
        <ele>181.19999694824</ele>
        <time>2017-07-24T08:33:28Z</time>
      </trkpt>
      <trkpt lat="46.7128" lon="4.96405">
        <ele>181.19999694824</ele>
        <time>2017-07-24T08:33:30Z</time>
      </trkpt>
      <trkpt lat="46.71263" lon="4.96426">
        <ele>181</ele>
        <time>2017-07-24T08:33:33Z</time>
      </trkpt>
      <trkpt lat="46.71258" lon="4.96434">
        <ele>181</ele>
        <time>2017-07-24T08:33:34Z</time>
      </trkpt>
      <trkpt lat="46.71243" lon="4.96459">
        <ele>181</ele>
        <time>2017-07-24T08:33:37Z</time>
      </trkpt>
      <trkpt lat="46.71203" lon="4.96502">
        <ele>181</ele>
        <time>2017-07-24T08:33:44Z</time>
      </trkpt>
      <trkpt lat="46.7119" lon="4.96509">
        <ele>181</ele>
        <time>2017-07-24T08:33:47Z</time>
      </trkpt>
      <trkpt lat="46.71191" lon="4.9653">
        <ele>180.80000305176</ele>
        <time>2017-07-24T08:33:50Z</time>
      </trkpt>
      <trkpt lat="46.71192" lon="4.96537">
        <ele>180.80000305176</ele>
        <time>2017-07-24T08:33:51Z</time>
      </trkpt>
      <trkpt lat="46.71192" lon="4.9655">
        <ele>181</ele>
        <time>2017-07-24T08:33:53Z</time>
      </trkpt>
      <trkpt lat="46.71187" lon="4.96562">
        <ele>181</ele>
        <time>2017-07-24T08:33:55Z</time>
      </trkpt>
      <trkpt lat="46.71172" lon="4.96577">
        <ele>181</ele>
        <time>2017-07-24T08:33:58Z</time>
      </trkpt>
      <trkpt lat="46.71168" lon="4.96582">
        <ele>181</ele>
        <time>2017-07-24T08:33:59Z</time>
      </trkpt>
      <trkpt lat="46.71141" lon="4.96608">
        <ele>181</ele>
        <time>2017-07-24T08:34:04Z</time>
      </trkpt>
      <trkpt lat="46.71117" lon="4.96642">
        <ele>180.80000305176</ele>
        <time>2017-07-24T08:34:09Z</time>
      </trkpt>
      <trkpt lat="46.71111" lon="4.96648">
        <ele>180.80000305176</ele>
        <time>2017-07-24T08:34:10Z</time>
      </trkpt>
      <trkpt lat="46.71105" lon="4.96653">
        <ele>180.80000305176</ele>
        <time>2017-07-24T08:34:11Z</time>
      </trkpt>
      <trkpt lat="46.71091" lon="4.96661">
        <ele>180.60000610352</ele>
        <time>2017-07-24T08:34:13Z</time>
      </trkpt>
      <trkpt lat="46.71062" lon="4.96664">
        <ele>180.39999389648</ele>
        <time>2017-07-24T08:34:17Z</time>
      </trkpt>
      <trkpt lat="46.71009" lon="4.96658">
        <ele>180.19999694824</ele>
        <time>2017-07-24T08:34:24Z</time>
      </trkpt>
      <trkpt lat="46.70965" lon="4.96658">
        <ele>180.60000610352</ele>
        <time>2017-07-24T08:34:30Z</time>
      </trkpt>
      <trkpt lat="46.70914" lon="4.96655">
        <ele>180.80000305176</ele>
        <time>2017-07-24T08:34:37Z</time>
      </trkpt>
      <trkpt lat="46.70863" lon="4.96659">
        <ele>181</ele>
        <time>2017-07-24T08:34:44Z</time>
      </trkpt>
      <trkpt lat="46.70841" lon="4.96662">
        <ele>181</ele>
        <time>2017-07-24T08:34:47Z</time>
      </trkpt>
      <trkpt lat="46.70826" lon="4.96666">
        <ele>181</ele>
        <time>2017-07-24T08:34:49Z</time>
      </trkpt>
      <trkpt lat="46.70767" lon="4.96683">
        <ele>180.19999694824</ele>
        <time>2017-07-24T08:34:57Z</time>
      </trkpt>
      <trkpt lat="46.70725" lon="4.96683">
        <ele>180</ele>
        <time>2017-07-24T08:35:03Z</time>
      </trkpt>
      <trkpt lat="46.70712" lon="4.96676">
        <ele>179.80000305176</ele>
        <time>2017-07-24T08:35:06Z</time>
      </trkpt>
      <trkpt lat="46.70711" lon="4.96676">
        <ele>179.60000610352</ele>
        <time>2017-07-24T08:35:08Z</time>
      </trkpt>
      <trkpt lat="46.70711" lon="4.96678">
        <ele>179.60000610352</ele>
        <time>2017-07-24T08:35:09Z</time>
      </trkpt>
      <trkpt lat="46.70711" lon="4.96677">
        <ele>179.39999389648</ele>
        <time>2017-07-24T08:35:10Z</time>
      </trkpt>
      <trkpt lat="46.70705" lon="4.96685">
        <ele>179.39999389648</ele>
        <time>2017-07-24T08:35:15Z</time>
      </trkpt>
      <trkpt lat="46.70692" lon="4.96689">
        <ele>179.39999389648</ele>
        <time>2017-07-24T08:35:19Z</time>
      </trkpt>
      <trkpt lat="46.70689" lon="4.96693">
        <ele>179.60000610352</ele>
        <time>2017-07-24T08:35:20Z</time>
      </trkpt>
      <trkpt lat="46.70683" lon="4.96702">
        <ele>179.60000610352</ele>
        <time>2017-07-24T08:35:22Z</time>
      </trkpt>
      <trkpt lat="46.70674" lon="4.96718">
        <ele>179.60000610352</ele>
        <time>2017-07-24T08:35:25Z</time>
      </trkpt>
      <trkpt lat="46.70662" lon="4.96735">
        <ele>179.60000610352</ele>
        <time>2017-07-24T08:35:29Z</time>
      </trkpt>
      <trkpt lat="46.70654" lon="4.96743">
        <ele>179.60000610352</ele>
        <time>2017-07-24T08:35:31Z</time>
      </trkpt>
      <trkpt lat="46.7065" lon="4.96747">
        <ele>179.60000610352</ele>
        <time>2017-07-24T08:35:32Z</time>
      </trkpt>
      <trkpt lat="46.70634" lon="4.96751">
        <ele>179.60000610352</ele>
        <time>2017-07-24T08:35:35Z</time>
      </trkpt>
      <trkpt lat="46.70599" lon="4.96741">
        <ele>179.60000610352</ele>
        <time>2017-07-24T08:35:41Z</time>
      </trkpt>
      <trkpt lat="46.7057" lon="4.96731">
        <ele>179.39999389648</ele>
        <time>2017-07-24T08:35:46Z</time>
      </trkpt>
      <trkpt lat="46.70564" lon="4.9673">
        <ele>179.39999389648</ele>
        <time>2017-07-24T08:35:47Z</time>
      </trkpt>
      <trkpt lat="46.70527" lon="4.96741">
        <ele>179.39999389648</ele>
        <time>2017-07-24T08:35:53Z</time>
      </trkpt>
      <trkpt lat="46.70487" lon="4.96773">
        <ele>179.19999694824</ele>
        <time>2017-07-24T08:36:00Z</time>
      </trkpt>
      <trkpt lat="46.70454" lon="4.96801">
        <ele>178.60000610352</ele>
        <time>2017-07-24T08:36:06Z</time>
      </trkpt>
      <trkpt lat="46.70443" lon="4.9681">
        <ele>178.39999389648</ele>
        <time>2017-07-24T08:36:08Z</time>
      </trkpt>
      <trkpt lat="46.70419" lon="4.9683">
        <ele>178.19999694824</ele>
        <time>2017-07-24T08:36:13Z</time>
      </trkpt>
      <trkpt lat="46.70415" lon="4.96833">
        <ele>178.19999694824</ele>
        <time>2017-07-24T08:36:14Z</time>
      </trkpt>
      <trkpt lat="46.70406" lon="4.96841">
        <ele>177.80000305176</ele>
        <time>2017-07-24T08:36:18Z</time>
      </trkpt>
      <trkpt lat="46.70399" lon="4.96847">
        <ele>177.39999389648</ele>
        <time>2017-07-24T08:38:24Z</time>
      </trkpt>
      <trkpt lat="46.70392" lon="4.96854">
        <ele>177.39999389648</ele>
        <time>2017-07-24T08:38:28Z</time>
      </trkpt>
      <trkpt lat="46.7039" lon="4.96856">
        <ele>177.39999389648</ele>
        <time>2017-07-24T08:38:29Z</time>
      </trkpt>
      <trkpt lat="46.70378" lon="4.96865">
        <ele>177.19999694824</ele>
        <time>2017-07-24T08:38:33Z</time>
      </trkpt>
      <trkpt lat="46.70374" lon="4.96868">
        <ele>177.19999694824</ele>
        <time>2017-07-24T08:38:34Z</time>
      </trkpt>
      <trkpt lat="46.7035" lon="4.96887">
        <ele>177.19999694824</ele>
        <time>2017-07-24T08:38:40Z</time>
      </trkpt>
      <trkpt lat="46.70315" lon="4.96916">
        <ele>177.19999694824</ele>
        <time>2017-07-24T08:38:47Z</time>
      </trkpt>
      <trkpt lat="46.70267" lon="4.96956">
        <ele>177</ele>
        <time>2017-07-24T08:38:56Z</time>
      </trkpt>
      <trkpt lat="46.70235" lon="4.96983">
        <ele>176.60000610352</ele>
        <time>2017-07-24T08:39:02Z</time>
      </trkpt>
      <trkpt lat="46.7022" lon="4.96996">
        <ele>176.39999389648</ele>
        <time>2017-07-24T08:39:05Z</time>
      </trkpt>
      <trkpt lat="46.70169" lon="4.97039">
        <ele>176</ele>
        <time>2017-07-24T08:39:14Z</time>
      </trkpt>
      <trkpt lat="46.70122" lon="4.97077">
        <ele>175.80000305176</ele>
        <time>2017-07-24T08:39:22Z</time>
      </trkpt>
      <trkpt lat="46.70116" lon="4.97082">
        <ele>175.60000610352</ele>
        <time>2017-07-24T08:39:23Z</time>
      </trkpt>
      <trkpt lat="46.7011" lon="4.97087">
        <ele>175.60000610352</ele>
        <time>2017-07-24T08:39:24Z</time>
      </trkpt>
      <trkpt lat="46.70067" lon="4.97123">
        <ele>175</ele>
        <time>2017-07-24T08:39:31Z</time>
      </trkpt>
      <trkpt lat="46.70017" lon="4.97164">
        <ele>174.60000610352</ele>
        <time>2017-07-24T08:39:39Z</time>
      </trkpt>
      <trkpt lat="46.70005" lon="4.97174">
        <ele>174.60000610352</ele>
        <time>2017-07-24T08:39:41Z</time>
      </trkpt>
      <trkpt lat="46.69999" lon="4.97179">
        <ele>174.60000610352</ele>
        <time>2017-07-24T08:39:42Z</time>
      </trkpt>
      <trkpt lat="46.69954" lon="4.97217">
        <ele>174</ele>
        <time>2017-07-24T08:39:49Z</time>
      </trkpt>
      <trkpt lat="46.69901" lon="4.9726">
        <ele>173.60000610352</ele>
        <time>2017-07-24T08:39:57Z</time>
      </trkpt>
      <trkpt lat="46.6988" lon="4.97277">
        <ele>173.19999694824</ele>
        <time>2017-07-24T08:40:00Z</time>
      </trkpt>
      <trkpt lat="46.69842" lon="4.973">
        <ele>172.60000610352</ele>
        <time>2017-07-24T08:40:05Z</time>
      </trkpt>
      <trkpt lat="46.69834" lon="4.97303">
        <ele>172.39999389648</ele>
        <time>2017-07-24T08:40:06Z</time>
      </trkpt>
      <trkpt lat="46.698" lon="4.97311">
        <ele>171.19999694824</ele>
        <time>2017-07-24T08:40:10Z</time>
      </trkpt>
      <trkpt lat="46.69791" lon="4.97312">
        <ele>171</ele>
        <time>2017-07-24T08:40:11Z</time>
      </trkpt>
      <trkpt lat="46.69748" lon="4.9732">
        <ele>170.19999694824</ele>
        <time>2017-07-24T08:40:16Z</time>
      </trkpt>
      <trkpt lat="46.69705" lon="4.97329">
        <ele>169.19999694824</ele>
        <time>2017-07-24T08:40:21Z</time>
      </trkpt>
      <trkpt lat="46.69696" lon="4.97331">
        <ele>169</ele>
        <time>2017-07-24T08:40:22Z</time>
      </trkpt>
      <trkpt lat="46.69654" lon="4.97339">
        <ele>168</ele>
        <time>2017-07-24T08:40:27Z</time>
      </trkpt>
      <trkpt lat="46.69598" lon="4.9735">
        <ele>167.19999694824</ele>
        <time>2017-07-24T08:40:34Z</time>
      </trkpt>
      <trkpt lat="46.69581" lon="4.97353">
        <ele>167</ele>
        <time>2017-07-24T08:40:36Z</time>
      </trkpt>
      <trkpt lat="46.69573" lon="4.97355">
        <ele>167</ele>
        <time>2017-07-24T08:40:37Z</time>
      </trkpt>
      <trkpt lat="46.69519" lon="4.97366">
        <ele>166.80000305176</ele>
        <time>2017-07-24T08:40:44Z</time>
      </trkpt>
      <trkpt lat="46.69511" lon="4.97367">
        <ele>166.80000305176</ele>
        <time>2017-07-24T08:40:45Z</time>
      </trkpt>
      <trkpt lat="46.69452" lon="4.97379">
        <ele>166.80000305176</ele>
        <time>2017-07-24T08:40:53Z</time>
      </trkpt>
      <trkpt lat="46.69445" lon="4.9738">
        <ele>166.80000305176</ele>
        <time>2017-07-24T08:40:54Z</time>
      </trkpt>
      <trkpt lat="46.69385" lon="4.97391">
        <ele>166.80000305176</ele>
        <time>2017-07-24T08:41:02Z</time>
      </trkpt>
      <trkpt lat="46.69378" lon="4.97393">
        <ele>166.80000305176</ele>
        <time>2017-07-24T08:41:03Z</time>
      </trkpt>
      <trkpt lat="46.6932" lon="4.97406">
        <ele>166.80000305176</ele>
        <time>2017-07-24T08:41:11Z</time>
      </trkpt>
      <trkpt lat="46.69271" lon="4.97417">
        <ele>166.80000305176</ele>
        <time>2017-07-24T08:41:18Z</time>
      </trkpt>
      <trkpt lat="46.69216" lon="4.97427">
        <ele>166.80000305176</ele>
        <time>2017-07-24T08:41:26Z</time>
      </trkpt>
      <trkpt lat="46.6921" lon="4.97428">
        <ele>167</ele>
        <time>2017-07-24T08:41:27Z</time>
      </trkpt>
      <trkpt lat="46.69157" lon="4.97439">
        <ele>167.19999694824</ele>
        <time>2017-07-24T08:41:35Z</time>
      </trkpt>
      <trkpt lat="46.69103" lon="4.97451">
        <ele>168</ele>
        <time>2017-07-24T08:41:43Z</time>
      </trkpt>
      <trkpt lat="46.69044" lon="4.97463">
        <ele>168.80000305176</ele>
        <time>2017-07-24T08:41:52Z</time>
      </trkpt>
      <trkpt lat="46.69038" lon="4.97464">
        <ele>169</ele>
        <time>2017-07-24T08:41:53Z</time>
      </trkpt>
      <trkpt lat="46.68989" lon="4.97474">
        <ele>170</ele>
        <time>2017-07-24T08:42:01Z</time>
      </trkpt>
      <trkpt lat="46.68953" lon="4.97481">
        <ele>170</ele>
        <time>2017-07-24T08:42:07Z</time>
      </trkpt>
      <trkpt lat="46.68941" lon="4.97483">
        <ele>170</ele>
        <time>2017-07-24T08:42:09Z</time>
      </trkpt>
      <trkpt lat="46.68886" lon="4.97493">
        <ele>170.19999694824</ele>
        <time>2017-07-24T08:42:18Z</time>
      </trkpt>
      <trkpt lat="46.68874" lon="4.97496">
        <ele>170.19999694824</ele>
        <time>2017-07-24T08:42:20Z</time>
      </trkpt>
      <trkpt lat="46.68826" lon="4.97505">
        <ele>170.39999389648</ele>
        <time>2017-07-24T08:42:28Z</time>
      </trkpt>
      <trkpt lat="46.68771" lon="4.97516">
        <ele>171</ele>
        <time>2017-07-24T08:42:37Z</time>
      </trkpt>
      <trkpt lat="46.68764" lon="4.97517">
        <ele>171</ele>
        <time>2017-07-24T08:42:38Z</time>
      </trkpt>
      <trkpt lat="46.68708" lon="4.97529">
        <ele>171.60000610352</ele>
        <time>2017-07-24T08:42:47Z</time>
      </trkpt>
      <trkpt lat="46.68676" lon="4.97535">
        <ele>172</ele>
        <time>2017-07-24T08:42:52Z</time>
      </trkpt>
      <trkpt lat="46.68657" lon="4.97539">
        <ele>172.19999694824</ele>
        <time>2017-07-24T08:42:55Z</time>
      </trkpt>
      <trkpt lat="46.68607" lon="4.97548">
        <ele>173</ele>
        <time>2017-07-24T08:43:03Z</time>
      </trkpt>
      <trkpt lat="46.686" lon="4.9755">
        <ele>173.19999694824</ele>
        <time>2017-07-24T08:43:04Z</time>
      </trkpt>
      <trkpt lat="46.68544" lon="4.9756">
        <ele>173.80000305176</ele>
        <time>2017-07-24T08:43:13Z</time>
      </trkpt>
      <trkpt lat="46.68538" lon="4.97562">
        <ele>173.80000305176</ele>
        <time>2017-07-24T08:43:14Z</time>
      </trkpt>
      <trkpt lat="46.68488" lon="4.97571">
        <ele>174.19999694824</ele>
        <time>2017-07-24T08:43:22Z</time>
      </trkpt>
      <trkpt lat="46.68469" lon="4.97574">
        <ele>174.39999389648</ele>
        <time>2017-07-24T08:43:25Z</time>
      </trkpt>
      <trkpt lat="46.68412" lon="4.97586">
        <ele>174.80000305176</ele>
        <time>2017-07-24T08:43:34Z</time>
      </trkpt>
      <trkpt lat="46.68367" lon="4.97594">
        <ele>175.19999694824</ele>
        <time>2017-07-24T08:43:41Z</time>
      </trkpt>
      <trkpt lat="46.68342" lon="4.976">
        <ele>175.39999389648</ele>
        <time>2017-07-24T08:43:45Z</time>
      </trkpt>
      <trkpt lat="46.68288" lon="4.9761">
        <ele>175.80000305176</ele>
        <time>2017-07-24T08:43:53Z</time>
      </trkpt>
      <trkpt lat="46.68281" lon="4.97611">
        <ele>176</ele>
        <time>2017-07-24T08:43:54Z</time>
      </trkpt>
      <trkpt lat="46.68254" lon="4.97617">
        <ele>176.19999694824</ele>
        <time>2017-07-24T08:43:58Z</time>
      </trkpt>
      <trkpt lat="46.68227" lon="4.97622">
        <ele>176.39999389648</ele>
        <time>2017-07-24T08:44:02Z</time>
      </trkpt>
      <trkpt lat="46.68173" lon="4.97632">
        <ele>176.80000305176</ele>
        <time>2017-07-24T08:44:10Z</time>
      </trkpt>
      <trkpt lat="46.68166" lon="4.97634">
        <ele>176.80000305176</ele>
        <time>2017-07-24T08:44:11Z</time>
      </trkpt>
      <trkpt lat="46.68112" lon="4.97645">
        <ele>177.19999694824</ele>
        <time>2017-07-24T08:44:19Z</time>
      </trkpt>
      <trkpt lat="46.68099" lon="4.97648">
        <ele>177.19999694824</ele>
        <time>2017-07-24T08:44:21Z</time>
      </trkpt>
      <trkpt lat="46.68045" lon="4.97658">
        <ele>177.60000610352</ele>
        <time>2017-07-24T08:44:29Z</time>
      </trkpt>
      <trkpt lat="46.6799" lon="4.97669">
        <ele>178</ele>
        <time>2017-07-24T08:44:37Z</time>
      </trkpt>
      <trkpt lat="46.67942" lon="4.97679">
        <ele>178.19999694824</ele>
        <time>2017-07-24T08:44:44Z</time>
      </trkpt>
      <trkpt lat="46.67935" lon="4.97681">
        <ele>178.19999694824</ele>
        <time>2017-07-24T08:44:45Z</time>
      </trkpt>
      <trkpt lat="46.67892" lon="4.97689">
        <ele>178.60000610352</ele>
        <time>2017-07-24T08:44:51Z</time>
      </trkpt>
      <trkpt lat="46.67836" lon="4.97701">
        <ele>178.80000305176</ele>
        <time>2017-07-24T08:44:59Z</time>
      </trkpt>
      <trkpt lat="46.6778" lon="4.97712">
        <ele>179.19999694824</ele>
        <time>2017-07-24T08:45:07Z</time>
      </trkpt>
      <trkpt lat="46.67746" lon="4.97718">
        <ele>179.39999389648</ele>
        <time>2017-07-24T08:45:12Z</time>
      </trkpt>
      <trkpt lat="46.67733" lon="4.97721">
        <ele>179.39999389648</ele>
        <time>2017-07-24T08:45:14Z</time>
      </trkpt>
      <trkpt lat="46.67677" lon="4.97732">
        <ele>179.60000610352</ele>
        <time>2017-07-24T08:45:22Z</time>
      </trkpt>
      <trkpt lat="46.67622" lon="4.97739">
        <ele>179.39999389648</ele>
        <time>2017-07-24T08:45:30Z</time>
      </trkpt>
      <trkpt lat="46.67563" lon="4.97745">
        <ele>179</ele>
        <time>2017-07-24T08:45:38Z</time>
      </trkpt>
      <trkpt lat="46.6751" lon="4.97748">
        <ele>178.60000610352</ele>
        <time>2017-07-24T08:45:45Z</time>
      </trkpt>
      <trkpt lat="46.67471" lon="4.97751">
        <ele>178.39999389648</ele>
        <time>2017-07-24T08:45:50Z</time>
      </trkpt>
      <trkpt lat="46.67449" lon="4.97753">
        <ele>178.19999694824</ele>
        <time>2017-07-24T08:45:53Z</time>
      </trkpt>
      <trkpt lat="46.6739" lon="4.97757">
        <ele>177.80000305176</ele>
        <time>2017-07-24T08:46:01Z</time>
      </trkpt>
      <trkpt lat="46.67383" lon="4.97758">
        <ele>177.80000305176</ele>
        <time>2017-07-24T08:46:02Z</time>
      </trkpt>
      <trkpt lat="46.67327" lon="4.97764">
        <ele>178</ele>
        <time>2017-07-24T08:46:10Z</time>
      </trkpt>
      <trkpt lat="46.67313" lon="4.97765">
        <ele>178.19999694824</ele>
        <time>2017-07-24T08:46:12Z</time>
      </trkpt>
      <trkpt lat="46.67256" lon="4.97768">
        <ele>178.39999389648</ele>
        <time>2017-07-24T08:46:20Z</time>
      </trkpt>
      <trkpt lat="46.67198" lon="4.97774">
        <ele>178.39999389648</ele>
        <time>2017-07-24T08:46:28Z</time>
      </trkpt>
      <trkpt lat="46.67168" lon="4.97776">
        <ele>178.19999694824</ele>
        <time>2017-07-24T08:46:32Z</time>
      </trkpt>
      <trkpt lat="46.6711" lon="4.97781">
        <ele>177.80000305176</ele>
        <time>2017-07-24T08:46:40Z</time>
      </trkpt>
      <trkpt lat="46.67103" lon="4.97782">
        <ele>177.80000305176</ele>
        <time>2017-07-24T08:46:41Z</time>
      </trkpt>
      <trkpt lat="46.67061" lon="4.97787">
        <ele>178.39999389648</ele>
        <time>2017-07-24T08:46:48Z</time>
      </trkpt>
      <trkpt lat="46.67019" lon="4.97789">
        <ele>179.39999389648</ele>
        <time>2017-07-24T08:46:55Z</time>
      </trkpt>
      <trkpt lat="46.67013" lon="4.9779">
        <ele>179.39999389648</ele>
        <time>2017-07-24T08:46:56Z</time>
      </trkpt>
      <trkpt lat="46.66983" lon="4.97791">
        <ele>180.39999389648</ele>
        <time>2017-07-24T08:47:01Z</time>
      </trkpt>
      <trkpt lat="46.66947" lon="4.97793">
        <ele>181</ele>
        <time>2017-07-24T08:47:07Z</time>
      </trkpt>
      <trkpt lat="46.66922" lon="4.97794">
        <ele>181.60000610352</ele>
        <time>2017-07-24T08:47:11Z</time>
      </trkpt>
      <trkpt lat="46.66896" lon="4.97797">
        <ele>181.80000305176</ele>
        <time>2017-07-24T08:47:15Z</time>
      </trkpt>
      <trkpt lat="46.66837" lon="4.97802">
        <ele>181.80000305176</ele>
        <time>2017-07-24T08:47:24Z</time>
      </trkpt>
      <trkpt lat="46.66824" lon="4.97803">
        <ele>181.80000305176</ele>
        <time>2017-07-24T08:47:26Z</time>
      </trkpt>
      <trkpt lat="46.66769" lon="4.97808">
        <ele>181.39999389648</ele>
        <time>2017-07-24T08:47:34Z</time>
      </trkpt>
      <trkpt lat="46.66754" lon="4.9781">
        <ele>181.39999389648</ele>
        <time>2017-07-24T08:47:36Z</time>
      </trkpt>
      <trkpt lat="46.66693" lon="4.97814">
        <ele>180.80000305176</ele>
        <time>2017-07-24T08:47:44Z</time>
      </trkpt>
      <trkpt lat="46.66676" lon="4.97815">
        <ele>180.39999389648</ele>
        <time>2017-07-24T08:47:46Z</time>
      </trkpt>
      <trkpt lat="46.66639" lon="4.97818">
        <ele>179.19999694824</ele>
        <time>2017-07-24T08:47:50Z</time>
      </trkpt>
      <trkpt lat="46.66599" lon="4.97822">
        <ele>178</ele>
        <time>2017-07-24T08:47:54Z</time>
      </trkpt>
      <trkpt lat="46.66569" lon="4.97824">
        <ele>177</ele>
        <time>2017-07-24T08:47:57Z</time>
      </trkpt>
      <trkpt lat="46.66558" lon="4.97825">
        <ele>176.60000610352</ele>
        <time>2017-07-24T08:47:58Z</time>
      </trkpt>
      <trkpt lat="46.66538" lon="4.97826">
        <ele>175.60000610352</ele>
        <time>2017-07-24T08:48:00Z</time>
      </trkpt>
      <trkpt lat="46.66506" lon="4.97829">
        <ele>174.60000610352</ele>
        <time>2017-07-24T08:48:03Z</time>
      </trkpt>
      <trkpt lat="46.66475" lon="4.97832">
        <ele>173.39999389648</ele>
        <time>2017-07-24T08:48:06Z</time>
      </trkpt>
      <trkpt lat="46.66454" lon="4.97834">
        <ele>172.60000610352</ele>
        <time>2017-07-24T08:48:08Z</time>
      </trkpt>
      <trkpt lat="46.66443" lon="4.97835">
        <ele>172.19999694824</ele>
        <time>2017-07-24T08:48:09Z</time>
      </trkpt>
      <trkpt lat="46.66421" lon="4.97836">
        <ele>170.80000305176</ele>
        <time>2017-07-24T08:48:11Z</time>
      </trkpt>
      <trkpt lat="46.66389" lon="4.97839">
        <ele>169.39999389648</ele>
        <time>2017-07-24T08:48:14Z</time>
      </trkpt>
      <trkpt lat="46.66358" lon="4.97842">
        <ele>168.39999389648</ele>
        <time>2017-07-24T08:48:17Z</time>
      </trkpt>
      <trkpt lat="46.66309" lon="4.97846">
        <ele>167.39999389648</ele>
        <time>2017-07-24T08:48:22Z</time>
      </trkpt>
      <trkpt lat="46.66291" lon="4.97847">
        <ele>167.19999694824</ele>
        <time>2017-07-24T08:48:24Z</time>
      </trkpt>
      <trkpt lat="46.6623" lon="4.97852">
        <ele>166.60000610352</ele>
        <time>2017-07-24T08:48:31Z</time>
      </trkpt>
      <trkpt lat="46.66174" lon="4.97857">
        <ele>166.60000610352</ele>
        <time>2017-07-24T08:48:38Z</time>
      </trkpt>
      <trkpt lat="46.66159" lon="4.97858">
        <ele>166.60000610352</ele>
        <time>2017-07-24T08:48:40Z</time>
      </trkpt>
      <trkpt lat="46.66101" lon="4.97862">
        <ele>166.60000610352</ele>
        <time>2017-07-24T08:48:48Z</time>
      </trkpt>
      <trkpt lat="46.66046" lon="4.97867">
        <ele>167</ele>
        <time>2017-07-24T08:48:56Z</time>
      </trkpt>
      <trkpt lat="46.66033" lon="4.97868">
        <ele>167</ele>
        <time>2017-07-24T08:48:58Z</time>
      </trkpt>
      <trkpt lat="46.65973" lon="4.97873">
        <ele>167.19999694824</ele>
        <time>2017-07-24T08:49:07Z</time>
      </trkpt>
      <trkpt lat="46.65925" lon="4.97877">
        <ele>168</ele>
        <time>2017-07-24T08:49:15Z</time>
      </trkpt>
      <trkpt lat="46.65904" lon="4.97879">
        <ele>168.60000610352</ele>
        <time>2017-07-24T08:49:19Z</time>
      </trkpt>
      <trkpt lat="46.6589" lon="4.9788">
        <ele>169.19999694824</ele>
        <time>2017-07-24T08:49:22Z</time>
      </trkpt>
      <trkpt lat="46.6588" lon="4.97881">
        <ele>169.60000610352</ele>
        <time>2017-07-24T08:49:24Z</time>
      </trkpt>
      <trkpt lat="46.65859" lon="4.97882">
        <ele>170.80000305176</ele>
        <time>2017-07-24T08:49:29Z</time>
      </trkpt>
      <trkpt lat="46.6584" lon="4.97884">
        <ele>172</ele>
        <time>2017-07-24T08:49:34Z</time>
      </trkpt>
      <trkpt lat="46.65828" lon="4.97885">
        <ele>172.80000305176</ele>
        <time>2017-07-24T08:49:37Z</time>
      </trkpt>
      <trkpt lat="46.6582" lon="4.97886">
        <ele>173.19999694824</ele>
        <time>2017-07-24T08:49:39Z</time>
      </trkpt>
      <trkpt lat="46.65805" lon="4.97888">
        <ele>174</ele>
        <time>2017-07-24T08:49:43Z</time>
      </trkpt>
      <trkpt lat="46.65802" lon="4.97889">
        <ele>174.19999694824</ele>
        <time>2017-07-24T08:49:44Z</time>
      </trkpt>
      <trkpt lat="46.65787" lon="4.9789">
        <ele>175.39999389648</ele>
        <time>2017-07-24T08:49:48Z</time>
      </trkpt>
      <trkpt lat="46.65783" lon="4.9789">
        <ele>175.60000610352</ele>
        <time>2017-07-24T08:49:49Z</time>
      </trkpt>
      <trkpt lat="46.65767" lon="4.97894">
        <ele>176.39999389648</ele>
        <time>2017-07-24T08:49:53Z</time>
      </trkpt>
      <trkpt lat="46.65755" lon="4.97898">
        <ele>177</ele>
        <time>2017-07-24T08:49:56Z</time>
      </trkpt>
      <trkpt lat="46.65743" lon="4.97902">
        <ele>177.60000610352</ele>
        <time>2017-07-24T08:49:59Z</time>
      </trkpt>
      <trkpt lat="46.65718" lon="4.97911">
        <ele>178.19999694824</ele>
        <time>2017-07-24T08:50:05Z</time>
      </trkpt>
      <trkpt lat="46.65693" lon="4.97919">
        <ele>178.60000610352</ele>
        <time>2017-07-24T08:50:11Z</time>
      </trkpt>
      <trkpt lat="46.6568" lon="4.97923">
        <ele>179</ele>
        <time>2017-07-24T08:50:14Z</time>
      </trkpt>
      <trkpt lat="46.65646" lon="4.97934">
        <ele>179.39999389648</ele>
        <time>2017-07-24T08:50:22Z</time>
      </trkpt>
      <trkpt lat="46.65637" lon="4.97937">
        <ele>179.60000610352</ele>
        <time>2017-07-24T08:50:24Z</time>
      </trkpt>
      <trkpt lat="46.6561" lon="4.97949">
        <ele>180</ele>
        <time>2017-07-24T08:50:30Z</time>
      </trkpt>
      <trkpt lat="46.65578" lon="4.97969">
        <ele>180.39999389648</ele>
        <time>2017-07-24T08:50:37Z</time>
      </trkpt>
      <trkpt lat="46.65556" lon="4.97985">
        <ele>180.60000610352</ele>
        <time>2017-07-24T08:50:42Z</time>
      </trkpt>
      <trkpt lat="46.65542" lon="4.97996">
        <ele>180.80000305176</ele>
        <time>2017-07-24T08:50:45Z</time>
      </trkpt>
      <trkpt lat="46.65505" lon="4.98021">
        <ele>181.39999389648</ele>
        <time>2017-07-24T08:50:53Z</time>
      </trkpt>
      <trkpt lat="46.65487" lon="4.98035">
        <ele>181.80000305176</ele>
        <time>2017-07-24T08:50:57Z</time>
      </trkpt>
      <trkpt lat="46.65465" lon="4.98052">
        <ele>182.19999694824</ele>
        <time>2017-07-24T08:51:02Z</time>
      </trkpt>
      <trkpt lat="46.65461" lon="4.98054">
        <ele>182.19999694824</ele>
        <time>2017-07-24T08:51:03Z</time>
      </trkpt>
      <trkpt lat="46.65442" lon="4.98066">
        <ele>182.39999389648</ele>
        <time>2017-07-24T08:51:08Z</time>
      </trkpt>
      <trkpt lat="46.65426" lon="4.98073">
        <ele>182.60000610352</ele>
        <time>2017-07-24T08:51:14Z</time>
      </trkpt>
      <trkpt lat="46.65424" lon="4.98073">
        <ele>182.80000305176</ele>
        <time>2017-07-24T08:51:16Z</time>
      </trkpt>
      <trkpt lat="46.65423" lon="4.98072">
        <ele>182.80000305176</ele>
        <time>2017-07-24T08:52:11Z</time>
      </trkpt>
      <trkpt lat="46.65421" lon="4.98072">
        <ele>182.80000305176</ele>
        <time>2017-07-24T08:52:12Z</time>
      </trkpt>
      <trkpt lat="46.65408" lon="4.9808">
        <ele>182.80000305176</ele>
        <time>2017-07-24T08:52:17Z</time>
      </trkpt>
      <trkpt lat="46.65381" lon="4.9809">
        <ele>183.19999694824</ele>
        <time>2017-07-24T08:52:24Z</time>
      </trkpt>
      <trkpt lat="46.65361" lon="4.98094">
        <ele>183.39999389648</ele>
        <time>2017-07-24T08:52:29Z</time>
      </trkpt>
      <trkpt lat="46.65357" lon="4.98095">
        <ele>183.39999389648</ele>
        <time>2017-07-24T08:52:30Z</time>
      </trkpt>
      <trkpt lat="46.65333" lon="4.981">
        <ele>183.80000305176</ele>
        <time>2017-07-24T08:52:35Z</time>
      </trkpt>
      <trkpt lat="46.65314" lon="4.98104">
        <ele>184.19999694824</ele>
        <time>2017-07-24T08:52:39Z</time>
      </trkpt>
      <trkpt lat="46.65268" lon="4.98114">
        <ele>184.80000305176</ele>
        <time>2017-07-24T08:52:48Z</time>
      </trkpt>
      <trkpt lat="46.65252" lon="4.98118">
        <ele>185</ele>
        <time>2017-07-24T08:52:51Z</time>
      </trkpt>
      <trkpt lat="46.65235" lon="4.98121">
        <ele>185.19999694824</ele>
        <time>2017-07-24T08:52:54Z</time>
      </trkpt>
      <trkpt lat="46.65184" lon="4.98132">
        <ele>185.80000305176</ele>
        <time>2017-07-24T08:53:03Z</time>
      </trkpt>
      <trkpt lat="46.6515" lon="4.9814">
        <ele>186</ele>
        <time>2017-07-24T08:53:09Z</time>
      </trkpt>
      <trkpt lat="46.65138" lon="4.98142">
        <ele>186</ele>
        <time>2017-07-24T08:53:11Z</time>
      </trkpt>
      <trkpt lat="46.65083" lon="4.98155">
        <ele>185.80000305176</ele>
        <time>2017-07-24T08:53:20Z</time>
      </trkpt>
      <trkpt lat="46.65077" lon="4.98157">
        <ele>185.80000305176</ele>
        <time>2017-07-24T08:53:21Z</time>
      </trkpt>
      <trkpt lat="46.65027" lon="4.98166">
        <ele>185.39999389648</ele>
        <time>2017-07-24T08:53:29Z</time>
      </trkpt>
      <trkpt lat="46.65016" lon="4.98156">
        <ele>185.19999694824</ele>
        <time>2017-07-24T08:53:31Z</time>
      </trkpt>
      <trkpt lat="46.65008" lon="4.9814">
        <ele>185</ele>
        <time>2017-07-24T08:53:33Z</time>
      </trkpt>
      <trkpt lat="46.65004" lon="4.98133">
        <ele>185</ele>
        <time>2017-07-24T08:53:34Z</time>
      </trkpt>
      <trkpt lat="46.64999" lon="4.98125">
        <ele>184.80000305176</ele>
        <time>2017-07-24T08:53:35Z</time>
      </trkpt>
      <trkpt lat="46.6497" lon="4.98078">
        <ele>184.80000305176</ele>
        <time>2017-07-24T08:53:42Z</time>
      </trkpt>
      <trkpt lat="46.64939" lon="4.9804">
        <ele>185.19999694824</ele>
        <time>2017-07-24T08:53:49Z</time>
      </trkpt>
      <trkpt lat="46.64933" lon="4.98035">
        <ele>185.39999389648</ele>
        <time>2017-07-24T08:53:52Z</time>
      </trkpt>
      <trkpt lat="46.64932" lon="4.98033">
        <ele>185.60000610352</ele>
        <time>2017-07-24T08:54:04Z</time>
      </trkpt>
      <trkpt lat="46.64931" lon="4.98032">
        <ele>186.39999389648</ele>
        <time>2017-07-24T08:54:05Z</time>
      </trkpt>
      <trkpt lat="46.6493" lon="4.98031">
        <ele>187</ele>
        <time>2017-07-24T08:54:06Z</time>
      </trkpt>
      <trkpt lat="46.64919" lon="4.9802">
        <ele>185.39999389648</ele>
        <time>2017-07-24T08:54:11Z</time>
      </trkpt>
      <trkpt lat="46.64902" lon="4.98003">
        <ele>185.60000610352</ele>
        <time>2017-07-24T08:54:18Z</time>
      </trkpt>
      <trkpt lat="46.64882" lon="4.97977">
        <ele>185.80000305176</ele>
        <time>2017-07-24T08:54:24Z</time>
      </trkpt>
      <trkpt lat="46.64863" lon="4.97953">
        <ele>186.39999389648</ele>
        <time>2017-07-24T08:54:29Z</time>
      </trkpt>
      <trkpt lat="46.64851" lon="4.97939">
        <ele>186.60000610352</ele>
        <time>2017-07-24T08:54:32Z</time>
      </trkpt>
      <trkpt lat="46.64847" lon="4.97934">
        <ele>186.80000305176</ele>
        <time>2017-07-24T08:54:33Z</time>
      </trkpt>
      <trkpt lat="46.64832" lon="4.97914">
        <ele>187</ele>
        <time>2017-07-24T08:54:37Z</time>
      </trkpt>
      <trkpt lat="46.64803" lon="4.9788">
        <ele>187.39999389648</ele>
        <time>2017-07-24T08:54:44Z</time>
      </trkpt>
      <trkpt lat="46.64775" lon="4.97845">
        <ele>187.60000610352</ele>
        <time>2017-07-24T08:54:51Z</time>
      </trkpt>
      <trkpt lat="46.64729" lon="4.97791">
        <ele>188.19999694824</ele>
        <time>2017-07-24T08:55:02Z</time>
      </trkpt>
      <trkpt lat="46.64702" lon="4.97764">
        <ele>188.39999389648</ele>
        <time>2017-07-24T08:55:08Z</time>
      </trkpt>
      <trkpt lat="46.64687" lon="4.97753">
        <ele>188.60000610352</ele>
        <time>2017-07-24T08:55:11Z</time>
      </trkpt>
      <trkpt lat="46.64641" lon="4.97725">
        <ele>189.19999694824</ele>
        <time>2017-07-24T08:55:20Z</time>
      </trkpt>
      <trkpt lat="46.64625" lon="4.97716">
        <ele>189.39999389648</ele>
        <time>2017-07-24T08:55:23Z</time>
      </trkpt>
      <trkpt lat="46.64589" lon="4.97697">
        <ele>190</ele>
        <time>2017-07-24T08:55:30Z</time>
      </trkpt>
      <trkpt lat="46.64564" lon="4.97685">
        <ele>190.39999389648</ele>
        <time>2017-07-24T08:55:35Z</time>
      </trkpt>
      <trkpt lat="46.64553" lon="4.97682">
        <ele>190.39999389648</ele>
        <time>2017-07-24T08:55:37Z</time>
      </trkpt>
      <trkpt lat="46.64548" lon="4.97681">
        <ele>190.60000610352</ele>
        <time>2017-07-24T08:55:38Z</time>
      </trkpt>
      <trkpt lat="46.64508" lon="4.97674">
        <ele>191.19999694824</ele>
        <time>2017-07-24T08:55:46Z</time>
      </trkpt>
      <trkpt lat="46.64494" lon="4.9767">
        <ele>191.60000610352</ele>
        <time>2017-07-24T08:55:49Z</time>
      </trkpt>
      <trkpt lat="46.64474" lon="4.97664">
        <ele>192</ele>
        <time>2017-07-24T08:55:53Z</time>
      </trkpt>
      <trkpt lat="46.64444" lon="4.97652">
        <ele>192.60000610352</ele>
        <time>2017-07-24T08:55:59Z</time>
      </trkpt>
      <trkpt lat="46.64439" lon="4.9765">
        <ele>192.60000610352</ele>
        <time>2017-07-24T08:56:00Z</time>
      </trkpt>
      <trkpt lat="46.64406" lon="4.97628">
        <ele>193.39999389648</ele>
        <time>2017-07-24T08:56:07Z</time>
      </trkpt>
      <trkpt lat="46.64386" lon="4.97612">
        <ele>193.60000610352</ele>
        <time>2017-07-24T08:56:11Z</time>
      </trkpt>
      <trkpt lat="46.64362" lon="4.97591">
        <ele>193.80000305176</ele>
        <time>2017-07-24T08:56:16Z</time>
      </trkpt>
      <trkpt lat="46.64315" lon="4.97549">
        <ele>194.19999694824</ele>
        <time>2017-07-24T08:56:26Z</time>
      </trkpt>
      <trkpt lat="46.6431" lon="4.97545">
        <ele>194.19999694824</ele>
        <time>2017-07-24T08:56:27Z</time>
      </trkpt>
      <trkpt lat="46.64266" lon="4.97507">
        <ele>194.60000610352</ele>
        <time>2017-07-24T08:56:36Z</time>
      </trkpt>
      <trkpt lat="46.64228" lon="4.97473">
        <ele>195</ele>
        <time>2017-07-24T08:56:44Z</time>
      </trkpt>
      <trkpt lat="46.64199" lon="4.97435">
        <ele>195.39999389648</ele>
        <time>2017-07-24T08:56:51Z</time>
      </trkpt>
      <trkpt lat="46.64166" lon="4.97388">
        <ele>195.60000610352</ele>
        <time>2017-07-24T08:56:59Z</time>
      </trkpt>
      <trkpt lat="46.64162" lon="4.97382">
        <ele>195.80000305176</ele>
        <time>2017-07-24T08:57:00Z</time>
      </trkpt>
      <trkpt lat="46.64126" lon="4.97327">
        <ele>196</ele>
        <time>2017-07-24T08:57:09Z</time>
      </trkpt>
      <trkpt lat="46.64093" lon="4.97267">
        <ele>196.19999694824</ele>
        <time>2017-07-24T08:57:18Z</time>
      </trkpt>
      <trkpt lat="46.64057" lon="4.97199">
        <ele>196.19999694824</ele>
        <time>2017-07-24T08:57:28Z</time>
      </trkpt>
      <trkpt lat="46.64027" lon="4.97146">
        <ele>196.39999389648</ele>
        <time>2017-07-24T08:57:36Z</time>
      </trkpt>
      <trkpt lat="46.64002" lon="4.97101">
        <ele>196.60000610352</ele>
        <time>2017-07-24T08:57:43Z</time>
      </trkpt>
      <trkpt lat="46.63995" lon="4.97088">
        <ele>196.80000305176</ele>
        <time>2017-07-24T08:57:46Z</time>
      </trkpt>
      <trkpt lat="46.63991" lon="4.97082">
        <ele>196.80000305176</ele>
        <time>2017-07-24T08:57:47Z</time>
      </trkpt>
      <trkpt lat="46.63961" lon="4.97033">
        <ele>196.80000305176</ele>
        <time>2017-07-24T08:57:55Z</time>
      </trkpt>
      <trkpt lat="46.63928" lon="4.96989">
        <ele>197</ele>
        <time>2017-07-24T08:58:03Z</time>
      </trkpt>
      <trkpt lat="46.63894" lon="4.96945">
        <ele>197.39999389648</ele>
        <time>2017-07-24T08:58:11Z</time>
      </trkpt>
      <trkpt lat="46.63856" lon="4.96896">
        <ele>197.80000305176</ele>
        <time>2017-07-24T08:58:20Z</time>
      </trkpt>
      <trkpt lat="46.63825" lon="4.96854">
        <ele>197.80000305176</ele>
        <time>2017-07-24T08:58:27Z</time>
      </trkpt>
      <trkpt lat="46.63787" lon="4.96804">
        <ele>197.60000610352</ele>
        <time>2017-07-24T08:58:35Z</time>
      </trkpt>
      <trkpt lat="46.63747" lon="4.96753">
        <ele>197</ele>
        <time>2017-07-24T08:58:43Z</time>
      </trkpt>
      <trkpt lat="46.63737" lon="4.96739">
        <ele>196.80000305176</ele>
        <time>2017-07-24T08:58:45Z</time>
      </trkpt>
      <trkpt lat="46.63727" lon="4.96726">
        <ele>196.60000610352</ele>
        <time>2017-07-24T08:58:47Z</time>
      </trkpt>
      <trkpt lat="46.63699" lon="4.96697">
        <ele>196.39999389648</ele>
        <time>2017-07-24T08:58:52Z</time>
      </trkpt>
      <trkpt lat="46.63655" lon="4.96666">
        <ele>195.80000305176</ele>
        <time>2017-07-24T08:58:59Z</time>
      </trkpt>
      <trkpt lat="46.63643" lon="4.96658">
        <ele>195.60000610352</ele>
        <time>2017-07-24T08:59:01Z</time>
      </trkpt>
      <trkpt lat="46.63612" lon="4.96635">
        <ele>195.19999694824</ele>
        <time>2017-07-24T08:59:06Z</time>
      </trkpt>
      <trkpt lat="46.63567" lon="4.96612">
        <ele>194.60000610352</ele>
        <time>2017-07-24T08:59:13Z</time>
      </trkpt>
      <trkpt lat="46.63529" lon="4.96592">
        <ele>194.60000610352</ele>
        <time>2017-07-24T08:59:19Z</time>
      </trkpt>
      <trkpt lat="46.63522" lon="4.96588">
        <ele>194.60000610352</ele>
        <time>2017-07-24T08:59:20Z</time>
      </trkpt>
      <trkpt lat="46.63505" lon="4.96572">
        <ele>194.39999389648</ele>
        <time>2017-07-24T08:59:23Z</time>
      </trkpt>
      <trkpt lat="46.63493" lon="4.96561">
        <ele>194</ele>
        <time>2017-07-24T08:59:25Z</time>
      </trkpt>
      <trkpt lat="46.63461" lon="4.9653">
        <ele>193.80000305176</ele>
        <time>2017-07-24T08:59:31Z</time>
      </trkpt>
      <trkpt lat="46.63431" lon="4.96501">
        <ele>194</ele>
        <time>2017-07-24T08:59:37Z</time>
      </trkpt>
      <trkpt lat="46.63408" lon="4.96476">
        <ele>194.39999389648</ele>
        <time>2017-07-24T08:59:43Z</time>
      </trkpt>
      <trkpt lat="46.63391" lon="4.96452">
        <ele>194.39999389648</ele>
        <time>2017-07-24T08:59:49Z</time>
      </trkpt>
      <trkpt lat="46.63386" lon="4.96441">
        <ele>194.39999389648</ele>
        <time>2017-07-24T08:59:51Z</time>
      </trkpt>
      <trkpt lat="46.63374" lon="4.96426">
        <ele>194</ele>
        <time>2017-07-24T08:59:54Z</time>
      </trkpt>
      <trkpt lat="46.63366" lon="4.96417">
        <ele>193.80000305176</ele>
        <time>2017-07-24T08:59:56Z</time>
      </trkpt>
      <trkpt lat="46.63356" lon="4.9641">
        <ele>193.60000610352</ele>
        <time>2017-07-24T08:59:58Z</time>
      </trkpt>
      <trkpt lat="46.6335" lon="4.96407">
        <ele>193.39999389648</ele>
        <time>2017-07-24T08:59:59Z</time>
      </trkpt>
      <trkpt lat="46.6332" lon="4.96381">
        <ele>193.19999694824</ele>
        <time>2017-07-24T09:00:05Z</time>
      </trkpt>
      <trkpt lat="46.63313" lon="4.96378">
        <ele>193</ele>
        <time>2017-07-24T09:00:06Z</time>
      </trkpt>
      <trkpt lat="46.63287" lon="4.96366">
        <ele>192.60000610352</ele>
        <time>2017-07-24T09:00:10Z</time>
      </trkpt>
      <trkpt lat="46.6328" lon="4.96364">
        <ele>192.39999389648</ele>
        <time>2017-07-24T09:00:11Z</time>
      </trkpt>
      <trkpt lat="46.63244" lon="4.96349">
        <ele>191.19999694824</ele>
        <time>2017-07-24T09:00:16Z</time>
      </trkpt>
      <trkpt lat="46.63206" lon="4.96328">
        <ele>190.19999694824</ele>
        <time>2017-07-24T09:00:22Z</time>
      </trkpt>
      <trkpt lat="46.63203" lon="4.96326">
        <ele>190</ele>
        <time>2017-07-24T09:00:23Z</time>
      </trkpt>
      <trkpt lat="46.63196" lon="4.96319">
        <ele>189</ele>
        <time>2017-07-24T09:00:26Z</time>
      </trkpt>
      <trkpt lat="46.6319" lon="4.96302">
        <ele>188.19999694824</ele>
        <time>2017-07-24T09:00:30Z</time>
      </trkpt>
      <trkpt lat="46.6318" lon="4.96271">
        <ele>188</ele>
        <time>2017-07-24T09:00:36Z</time>
      </trkpt>
      <trkpt lat="46.63178" lon="4.96253">
        <ele>188</ele>
        <time>2017-07-24T09:00:39Z</time>
      </trkpt>
      <trkpt lat="46.63176" lon="4.96246">
        <ele>187.80000305176</ele>
        <time>2017-07-24T09:00:40Z</time>
      </trkpt>
      <trkpt lat="46.63173" lon="4.9624">
        <ele>187.80000305176</ele>
        <time>2017-07-24T09:00:41Z</time>
      </trkpt>
      <trkpt lat="46.6316" lon="4.9623">
        <ele>187.19999694824</ele>
        <time>2017-07-24T09:00:44Z</time>
      </trkpt>
      <trkpt lat="46.63149" lon="4.96231">
        <ele>186.80000305176</ele>
        <time>2017-07-24T09:00:46Z</time>
      </trkpt>
      <trkpt lat="46.63137" lon="4.96232">
        <ele>186.39999389648</ele>
        <time>2017-07-24T09:00:48Z</time>
      </trkpt>
      <trkpt lat="46.63111" lon="4.96235">
        <ele>185.80000305176</ele>
        <time>2017-07-24T09:00:52Z</time>
      </trkpt>
      <trkpt lat="46.63098" lon="4.96237">
        <ele>185.39999389648</ele>
        <time>2017-07-24T09:00:54Z</time>
      </trkpt>
      <trkpt lat="46.63058" lon="4.96246">
        <ele>184.60000610352</ele>
        <time>2017-07-24T09:01:00Z</time>
      </trkpt>
      <trkpt lat="46.63051" lon="4.96247">
        <ele>184.39999389648</ele>
        <time>2017-07-24T09:01:01Z</time>
      </trkpt>
      <trkpt lat="46.63038" lon="4.96247">
        <ele>184</ele>
        <time>2017-07-24T09:01:03Z</time>
      </trkpt>
      <trkpt lat="46.63024" lon="4.96243">
        <ele>183.80000305176</ele>
        <time>2017-07-24T09:01:05Z</time>
      </trkpt>
      <trkpt lat="46.6301" lon="4.96237">
        <ele>183.39999389648</ele>
        <time>2017-07-24T09:01:07Z</time>
      </trkpt>
      <trkpt lat="46.62989" lon="4.96224">
        <ele>183</ele>
        <time>2017-07-24T09:01:10Z</time>
      </trkpt>
      <trkpt lat="46.62969" lon="4.9621">
        <ele>182.19999694824</ele>
        <time>2017-07-24T09:01:13Z</time>
      </trkpt>
      <trkpt lat="46.62943" lon="4.96192">
        <ele>181.60000610352</ele>
        <time>2017-07-24T09:01:17Z</time>
      </trkpt>
      <trkpt lat="46.62936" lon="4.9619">
        <ele>181.39999389648</ele>
        <time>2017-07-24T09:01:18Z</time>
      </trkpt>
      <trkpt lat="46.62921" lon="4.96189">
        <ele>181.19999694824</ele>
        <time>2017-07-24T09:01:20Z</time>
      </trkpt>
      <trkpt lat="46.62905" lon="4.96187">
        <ele>180.80000305176</ele>
        <time>2017-07-24T09:01:22Z</time>
      </trkpt>
      <trkpt lat="46.62882" lon="4.96189">
        <ele>180.19999694824</ele>
        <time>2017-07-24T09:01:25Z</time>
      </trkpt>
      <trkpt lat="46.62874" lon="4.96189">
        <ele>180</ele>
        <time>2017-07-24T09:01:26Z</time>
      </trkpt>
      <trkpt lat="46.62819" lon="4.96192">
        <ele>179</ele>
        <time>2017-07-24T09:01:33Z</time>
      </trkpt>
      <trkpt lat="46.62811" lon="4.96193">
        <ele>178.80000305176</ele>
        <time>2017-07-24T09:01:34Z</time>
      </trkpt>
      <trkpt lat="46.62763" lon="4.962">
        <ele>177.80000305176</ele>
        <time>2017-07-24T09:01:40Z</time>
      </trkpt>
      <trkpt lat="46.62755" lon="4.96202">
        <ele>177.39999389648</ele>
        <time>2017-07-24T09:01:41Z</time>
      </trkpt>
      <trkpt lat="46.62714" lon="4.96203">
        <ele>176.60000610352</ele>
        <time>2017-07-24T09:01:46Z</time>
      </trkpt>
      <trkpt lat="46.62706" lon="4.96201">
        <ele>176.39999389648</ele>
        <time>2017-07-24T09:01:47Z</time>
      </trkpt>
      <trkpt lat="46.62664" lon="4.96188">
        <ele>175.39999389648</ele>
        <time>2017-07-24T09:01:52Z</time>
      </trkpt>
      <trkpt lat="46.62656" lon="4.96184">
        <ele>175</ele>
        <time>2017-07-24T09:01:53Z</time>
      </trkpt>
      <trkpt lat="46.6263" lon="4.96178">
        <ele>174.39999389648</ele>
        <time>2017-07-24T09:01:56Z</time>
      </trkpt>
      <trkpt lat="46.62605" lon="4.9617">
        <ele>173.39999389648</ele>
        <time>2017-07-24T09:01:59Z</time>
      </trkpt>
      <trkpt lat="46.62597" lon="4.96168">
        <ele>173</ele>
        <time>2017-07-24T09:02:00Z</time>
      </trkpt>
      <trkpt lat="46.62565" lon="4.96158">
        <ele>171.80000305176</ele>
        <time>2017-07-24T09:02:04Z</time>
      </trkpt>
      <trkpt lat="46.62541" lon="4.96152">
        <ele>171</ele>
        <time>2017-07-24T09:02:07Z</time>
      </trkpt>
      <trkpt lat="46.62533" lon="4.96154">
        <ele>170.80000305176</ele>
        <time>2017-07-24T09:02:08Z</time>
      </trkpt>
      <trkpt lat="46.62521" lon="4.96166">
        <ele>170.19999694824</ele>
        <time>2017-07-24T09:02:10Z</time>
      </trkpt>
      <trkpt lat="46.62514" lon="4.96187">
        <ele>169.39999389648</ele>
        <time>2017-07-24T09:02:12Z</time>
      </trkpt>
      <trkpt lat="46.62512" lon="4.96218">
        <ele>169</ele>
        <time>2017-07-24T09:02:15Z</time>
      </trkpt>
      <trkpt lat="46.62512" lon="4.96229">
        <ele>169</ele>
        <time>2017-07-24T09:02:16Z</time>
      </trkpt>
      <trkpt lat="46.62511" lon="4.96307">
        <ele>169</ele>
        <time>2017-07-24T09:02:24Z</time>
      </trkpt>
      <trkpt lat="46.62506" lon="4.96344">
        <ele>169</ele>
        <time>2017-07-24T09:02:28Z</time>
      </trkpt>
      <trkpt lat="46.62503" lon="4.96352">
        <ele>169</ele>
        <time>2017-07-24T09:02:29Z</time>
      </trkpt>
      <trkpt lat="46.62494" lon="4.96373">
        <ele>169</ele>
        <time>2017-07-24T09:02:32Z</time>
      </trkpt>
      <trkpt lat="46.6249" lon="4.96378">
        <ele>169.19999694824</ele>
        <time>2017-07-24T09:02:33Z</time>
      </trkpt>
      <trkpt lat="46.62486" lon="4.96382">
        <ele>169.19999694824</ele>
        <time>2017-07-24T09:02:34Z</time>
      </trkpt>
      <trkpt lat="46.6246" lon="4.96412">
        <ele>169.80000305176</ele>
        <time>2017-07-24T09:02:40Z</time>
      </trkpt>
      <trkpt lat="46.62441" lon="4.96434">
        <ele>170.39999389648</ele>
        <time>2017-07-24T09:02:44Z</time>
      </trkpt>
      <trkpt lat="46.62428" lon="4.9645">
        <ele>170.60000610352</ele>
        <time>2017-07-24T09:02:47Z</time>
      </trkpt>
      <trkpt lat="46.62395" lon="4.96488">
        <ele>171.19999694824</ele>
        <time>2017-07-24T09:02:55Z</time>
      </trkpt>
      <trkpt lat="46.62379" lon="4.96504">
        <ele>171.39999389648</ele>
        <time>2017-07-24T09:02:59Z</time>
      </trkpt>
      <trkpt lat="46.62357" lon="4.9652">
        <ele>172</ele>
        <time>2017-07-24T09:03:04Z</time>
      </trkpt>
      <trkpt lat="46.62332" lon="4.96529">
        <ele>172</ele>
        <time>2017-07-24T09:03:09Z</time>
      </trkpt>
      <trkpt lat="46.62327" lon="4.9653">
        <ele>172</ele>
        <time>2017-07-24T09:03:10Z</time>
      </trkpt>
      <trkpt lat="46.62321" lon="4.9653">
        <ele>172.19999694824</ele>
        <time>2017-07-24T09:03:11Z</time>
      </trkpt>
      <trkpt lat="46.62297" lon="4.96527">
        <ele>172.19999694824</ele>
        <time>2017-07-24T09:03:15Z</time>
      </trkpt>
      <trkpt lat="46.62273" lon="4.96517">
        <ele>172</ele>
        <time>2017-07-24T09:03:19Z</time>
      </trkpt>
      <trkpt lat="46.62261" lon="4.96509">
        <ele>171.60000610352</ele>
        <time>2017-07-24T09:03:21Z</time>
      </trkpt>
      <trkpt lat="46.62225" lon="4.96485">
        <ele>171</ele>
        <time>2017-07-24T09:03:27Z</time>
      </trkpt>
      <trkpt lat="46.62181" lon="4.96458">
        <ele>170.39999389648</ele>
        <time>2017-07-24T09:03:35Z</time>
      </trkpt>
      <trkpt lat="46.62144" lon="4.96435">
        <ele>170.39999389648</ele>
        <time>2017-07-24T09:03:42Z</time>
      </trkpt>
      <trkpt lat="46.62102" lon="4.96409">
        <ele>170</ele>
        <time>2017-07-24T09:03:50Z</time>
      </trkpt>
      <trkpt lat="46.62058" lon="4.96381">
        <ele>169.80000305176</ele>
        <time>2017-07-24T09:03:58Z</time>
      </trkpt>
      <trkpt lat="46.62042" lon="4.96371">
        <ele>169.80000305176</ele>
        <time>2017-07-24T09:04:01Z</time>
      </trkpt>
      <trkpt lat="46.62031" lon="4.96364">
        <ele>169.80000305176</ele>
        <time>2017-07-24T09:04:03Z</time>
      </trkpt>
      <trkpt lat="46.62025" lon="4.96361">
        <ele>169.80000305176</ele>
        <time>2017-07-24T09:04:04Z</time>
      </trkpt>
      <trkpt lat="46.61993" lon="4.9634">
        <ele>169.80000305176</ele>
        <time>2017-07-24T09:04:10Z</time>
      </trkpt>
      <trkpt lat="46.61948" lon="4.96317">
        <ele>170.19999694824</ele>
        <time>2017-07-24T09:04:18Z</time>
      </trkpt>
      <trkpt lat="46.61936" lon="4.96314">
        <ele>170.19999694824</ele>
        <time>2017-07-24T09:04:20Z</time>
      </trkpt>
      <trkpt lat="46.61913" lon="4.96313">
        <ele>170.39999389648</ele>
        <time>2017-07-24T09:04:24Z</time>
      </trkpt>
      <trkpt lat="46.61906" lon="4.96314">
        <ele>170.39999389648</ele>
        <time>2017-07-24T09:04:25Z</time>
      </trkpt>
      <trkpt lat="46.61888" lon="4.96316">
        <ele>170.19999694824</ele>
        <time>2017-07-24T09:04:28Z</time>
      </trkpt>
      <trkpt lat="46.6185" lon="4.96317">
        <ele>169.80000305176</ele>
        <time>2017-07-24T09:04:34Z</time>
      </trkpt>
      <trkpt lat="46.61807" lon="4.9631">
        <ele>169.60000610352</ele>
        <time>2017-07-24T09:04:41Z</time>
      </trkpt>
      <trkpt lat="46.61795" lon="4.96307">
        <ele>169.39999389648</ele>
        <time>2017-07-24T09:04:43Z</time>
      </trkpt>
      <trkpt lat="46.61777" lon="4.963">
        <ele>169.39999389648</ele>
        <time>2017-07-24T09:04:46Z</time>
      </trkpt>
      <trkpt lat="46.61766" lon="4.96294">
        <ele>169.39999389648</ele>
        <time>2017-07-24T09:04:48Z</time>
      </trkpt>
      <trkpt lat="46.61746" lon="4.96278">
        <ele>169.39999389648</ele>
        <time>2017-07-24T09:04:52Z</time>
      </trkpt>
      <trkpt lat="46.61704" lon="4.96244">
        <ele>169</ele>
        <time>2017-07-24T09:05:00Z</time>
      </trkpt>
      <trkpt lat="46.61654" lon="4.96207">
        <ele>168.80000305176</ele>
        <time>2017-07-24T09:05:09Z</time>
      </trkpt>
      <trkpt lat="46.61643" lon="4.96199">
        <ele>168.80000305176</ele>
        <time>2017-07-24T09:05:11Z</time>
      </trkpt>
      <trkpt lat="46.61605" lon="4.96171">
        <ele>168.60000610352</ele>
        <time>2017-07-24T09:05:18Z</time>
      </trkpt>
      <trkpt lat="46.61565" lon="4.96149">
        <ele>168.60000610352</ele>
        <time>2017-07-24T09:05:25Z</time>
      </trkpt>
      <trkpt lat="46.61521" lon="4.96127">
        <ele>168.60000610352</ele>
        <time>2017-07-24T09:05:33Z</time>
      </trkpt>
      <trkpt lat="46.61471" lon="4.96101">
        <ele>168.80000305176</ele>
        <time>2017-07-24T09:05:42Z</time>
      </trkpt>
      <trkpt lat="46.61466" lon="4.96098">
        <ele>168.80000305176</ele>
        <time>2017-07-24T09:05:43Z</time>
      </trkpt>
      <trkpt lat="46.61454" lon="4.96082">
        <ele>169</ele>
        <time>2017-07-24T09:05:46Z</time>
      </trkpt>
      <trkpt lat="46.61437" lon="4.96048">
        <ele>168.80000305176</ele>
        <time>2017-07-24T09:05:52Z</time>
      </trkpt>
      <trkpt lat="46.61434" lon="4.96042">
        <ele>168.80000305176</ele>
        <time>2017-07-24T09:05:53Z</time>
      </trkpt>
      <trkpt lat="46.61418" lon="4.96013">
        <ele>168.80000305176</ele>
        <time>2017-07-24T09:05:58Z</time>
      </trkpt>
      <trkpt lat="46.61392" lon="4.95969">
        <ele>168.80000305176</ele>
        <time>2017-07-24T09:06:05Z</time>
      </trkpt>
      <trkpt lat="46.61357" lon="4.95912">
        <ele>168.39999389648</ele>
        <time>2017-07-24T09:06:14Z</time>
      </trkpt>
      <trkpt lat="46.61334" lon="4.95871">
        <ele>168.39999389648</ele>
        <time>2017-07-24T09:06:20Z</time>
      </trkpt>
      <trkpt lat="46.61331" lon="4.95863">
        <ele>168.19999694824</ele>
        <time>2017-07-24T09:06:21Z</time>
      </trkpt>
      <trkpt lat="46.61306" lon="4.95802">
        <ele>168</ele>
        <time>2017-07-24T09:06:29Z</time>
      </trkpt>
      <trkpt lat="46.61288" lon="4.95729">
        <ele>168</ele>
        <time>2017-07-24T09:06:37Z</time>
      </trkpt>
      <trkpt lat="46.61269" lon="4.95669">
        <ele>168</ele>
        <time>2017-07-24T09:06:44Z</time>
      </trkpt>
      <trkpt lat="46.61239" lon="4.95597">
        <ele>167.60000610352</ele>
        <time>2017-07-24T09:06:53Z</time>
      </trkpt>
      <trkpt lat="46.61235" lon="4.95588">
        <ele>167.60000610352</ele>
        <time>2017-07-24T09:06:54Z</time>
      </trkpt>
      <trkpt lat="46.6121" lon="4.95532">
        <ele>167.60000610352</ele>
        <time>2017-07-24T09:07:01Z</time>
      </trkpt>
      <trkpt lat="46.61188" lon="4.95496">
        <ele>167.39999389648</ele>
        <time>2017-07-24T09:07:06Z</time>
      </trkpt>
      <trkpt lat="46.61183" lon="4.9549">
        <ele>167.19999694824</ele>
        <time>2017-07-24T09:07:07Z</time>
      </trkpt>
      <trkpt lat="46.61147" lon="4.95447">
        <ele>166.80000305176</ele>
        <time>2017-07-24T09:07:14Z</time>
      </trkpt>
      <trkpt lat="46.6113" lon="4.95433">
        <ele>166.60000610352</ele>
        <time>2017-07-24T09:07:17Z</time>
      </trkpt>
      <trkpt lat="46.61112" lon="4.95423">
        <ele>166.60000610352</ele>
        <time>2017-07-24T09:07:20Z</time>
      </trkpt>
      <trkpt lat="46.61093" lon="4.95418">
        <ele>166.60000610352</ele>
        <time>2017-07-24T09:07:23Z</time>
      </trkpt>
      <trkpt lat="46.6108" lon="4.9542">
        <ele>166.60000610352</ele>
        <time>2017-07-24T09:07:25Z</time>
      </trkpt>
      <trkpt lat="46.61061" lon="4.95426">
        <ele>166.60000610352</ele>
        <time>2017-07-24T09:07:28Z</time>
      </trkpt>
      <trkpt lat="46.61043" lon="4.95431">
        <ele>166.60000610352</ele>
        <time>2017-07-24T09:07:31Z</time>
      </trkpt>
      <trkpt lat="46.61002" lon="4.95439">
        <ele>166.80000305176</ele>
        <time>2017-07-24T09:07:38Z</time>
      </trkpt>
      <trkpt lat="46.60996" lon="4.95439">
        <ele>166.80000305176</ele>
        <time>2017-07-24T09:07:39Z</time>
      </trkpt>
      <trkpt lat="46.60979" lon="4.95431">
        <ele>166.80000305176</ele>
        <time>2017-07-24T09:07:42Z</time>
      </trkpt>
      <trkpt lat="46.60934" lon="4.95409">
        <ele>166.80000305176</ele>
        <time>2017-07-24T09:07:50Z</time>
      </trkpt>
      <trkpt lat="46.60912" lon="4.95397">
        <ele>167</ele>
        <time>2017-07-24T09:07:54Z</time>
      </trkpt>
      <trkpt lat="46.60902" lon="4.95393">
        <ele>167</ele>
        <time>2017-07-24T09:07:56Z</time>
      </trkpt>
      <trkpt lat="46.60859" lon="4.9538">
        <ele>167.39999389648</ele>
        <time>2017-07-24T09:08:04Z</time>
      </trkpt>
      <trkpt lat="46.60833" lon="4.9537">
        <ele>167.39999389648</ele>
        <time>2017-07-24T09:08:09Z</time>
      </trkpt>
      <trkpt lat="46.60822" lon="4.95364">
        <ele>167.39999389648</ele>
        <time>2017-07-24T09:08:11Z</time>
      </trkpt>
      <trkpt lat="46.60807" lon="4.95351">
        <ele>167.39999389648</ele>
        <time>2017-07-24T09:08:14Z</time>
      </trkpt>
      <trkpt lat="46.60777" lon="4.9532">
        <ele>167.60000610352</ele>
        <time>2017-07-24T09:08:20Z</time>
      </trkpt>
      <trkpt lat="46.60736" lon="4.95279">
        <ele>167.60000610352</ele>
        <time>2017-07-24T09:08:28Z</time>
      </trkpt>
      <trkpt lat="46.60695" lon="4.95236">
        <ele>167.80000305176</ele>
        <time>2017-07-24T09:08:36Z</time>
      </trkpt>
      <trkpt lat="46.60661" lon="4.952">
        <ele>167.80000305176</ele>
        <time>2017-07-24T09:08:43Z</time>
      </trkpt>
      <trkpt lat="46.60656" lon="4.95195">
        <ele>168</ele>
        <time>2017-07-24T09:08:44Z</time>
      </trkpt>
      <trkpt lat="46.60625" lon="4.95159">
        <ele>168</ele>
        <time>2017-07-24T09:08:51Z</time>
      </trkpt>
      <trkpt lat="46.60583" lon="4.95113">
        <ele>168.19999694824</ele>
        <time>2017-07-24T09:09:00Z</time>
      </trkpt>
      <trkpt lat="46.60541" lon="4.95063">
        <ele>168.19999694824</ele>
        <time>2017-07-24T09:09:09Z</time>
      </trkpt>
      <trkpt lat="46.60508" lon="4.95025">
        <ele>168.39999389648</ele>
        <time>2017-07-24T09:09:16Z</time>
      </trkpt>
      <trkpt lat="46.60494" lon="4.95009">
        <ele>168.39999389648</ele>
        <time>2017-07-24T09:09:19Z</time>
      </trkpt>
      <trkpt lat="46.60485" lon="4.94998">
        <ele>168.39999389648</ele>
        <time>2017-07-24T09:09:21Z</time>
      </trkpt>
      <trkpt lat="46.60471" lon="4.94972">
        <ele>168.39999389648</ele>
        <time>2017-07-24T09:09:25Z</time>
      </trkpt>
      <trkpt lat="46.60444" lon="4.94915">
        <ele>168.39999389648</ele>
        <time>2017-07-24T09:09:33Z</time>
      </trkpt>
      <trkpt lat="46.60419" lon="4.94856">
        <ele>168.39999389648</ele>
        <time>2017-07-24T09:09:41Z</time>
      </trkpt>
      <trkpt lat="46.60396" lon="4.94803">
        <ele>168.19999694824</ele>
        <time>2017-07-24T09:09:48Z</time>
      </trkpt>
      <trkpt lat="46.60372" lon="4.94749">
        <ele>168</ele>
        <time>2017-07-24T09:09:55Z</time>
      </trkpt>
      <trkpt lat="46.60343" lon="4.94685">
        <ele>167.80000305176</ele>
        <time>2017-07-24T09:10:03Z</time>
      </trkpt>
      <trkpt lat="46.60318" lon="4.94628">
        <ele>167.39999389648</ele>
        <time>2017-07-24T09:10:10Z</time>
      </trkpt>
      <trkpt lat="46.60314" lon="4.9462">
        <ele>167.39999389648</ele>
        <time>2017-07-24T09:10:11Z</time>
      </trkpt>
      <trkpt lat="46.60285" lon="4.94554">
        <ele>166.60000610352</ele>
        <time>2017-07-24T09:10:19Z</time>
      </trkpt>
      <trkpt lat="46.60281" lon="4.94545">
        <ele>166.60000610352</ele>
        <time>2017-07-24T09:10:20Z</time>
      </trkpt>
      <trkpt lat="46.60269" lon="4.9452">
        <ele>166.39999389648</ele>
        <time>2017-07-24T09:10:23Z</time>
      </trkpt>
      <trkpt lat="46.60251" lon="4.94479">
        <ele>166.19999694824</ele>
        <time>2017-07-24T09:10:28Z</time>
      </trkpt>
      <trkpt lat="46.60229" lon="4.9443">
        <ele>166.19999694824</ele>
        <time>2017-07-24T09:10:34Z</time>
      </trkpt>
      <trkpt lat="46.60224" lon="4.94424">
        <ele>166.19999694824</ele>
        <time>2017-07-24T09:10:35Z</time>
      </trkpt>
      <trkpt lat="46.60216" lon="4.9441">
        <ele>166</ele>
        <time>2017-07-24T09:10:37Z</time>
      </trkpt>
      <trkpt lat="46.60191" lon="4.94378">
        <ele>166</ele>
        <time>2017-07-24T09:10:42Z</time>
      </trkpt>
      <trkpt lat="46.60149" lon="4.9433">
        <ele>166</ele>
        <time>2017-07-24T09:10:50Z</time>
      </trkpt>
      <trkpt lat="46.60118" lon="4.94301">
        <ele>166</ele>
        <time>2017-07-24T09:10:56Z</time>
      </trkpt>
      <trkpt lat="46.60086" lon="4.94281">
        <ele>166</ele>
        <time>2017-07-24T09:11:02Z</time>
      </trkpt>
      <trkpt lat="46.60048" lon="4.94255">
        <ele>166.19999694824</ele>
        <time>2017-07-24T09:11:08Z</time>
      </trkpt>
      <trkpt lat="46.60017" lon="4.9423">
        <ele>166.19999694824</ele>
        <time>2017-07-24T09:11:13Z</time>
      </trkpt>
      <trkpt lat="46.5997" lon="4.94188">
        <ele>166.39999389648</ele>
        <time>2017-07-24T09:11:21Z</time>
      </trkpt>
      <trkpt lat="46.59924" lon="4.94145">
        <ele>166.19999694824</ele>
        <time>2017-07-24T09:11:29Z</time>
      </trkpt>
      <trkpt lat="46.59879" lon="4.94102">
        <ele>166.19999694824</ele>
        <time>2017-07-24T09:11:37Z</time>
      </trkpt>
      <trkpt lat="46.59834" lon="4.94061">
        <ele>166.19999694824</ele>
        <time>2017-07-24T09:11:45Z</time>
      </trkpt>
      <trkpt lat="46.59795" lon="4.94026">
        <ele>166.60000610352</ele>
        <time>2017-07-24T09:11:52Z</time>
      </trkpt>
      <trkpt lat="46.59754" lon="4.93993">
        <ele>166.60000610352</ele>
        <time>2017-07-24T09:11:59Z</time>
      </trkpt>
      <trkpt lat="46.59714" lon="4.93976">
        <ele>166.80000305176</ele>
        <time>2017-07-24T09:12:05Z</time>
      </trkpt>
      <trkpt lat="46.59675" lon="4.93958">
        <ele>166.60000610352</ele>
        <time>2017-07-24T09:12:11Z</time>
      </trkpt>
      <trkpt lat="46.59656" lon="4.93946">
        <ele>166.60000610352</ele>
        <time>2017-07-24T09:12:14Z</time>
      </trkpt>
      <trkpt lat="46.59644" lon="4.93934">
        <ele>166.60000610352</ele>
        <time>2017-07-24T09:12:16Z</time>
      </trkpt>
      <trkpt lat="46.59626" lon="4.93902">
        <ele>166.60000610352</ele>
        <time>2017-07-24T09:12:20Z</time>
      </trkpt>
      <trkpt lat="46.59622" lon="4.93894">
        <ele>166.60000610352</ele>
        <time>2017-07-24T09:12:21Z</time>
      </trkpt>
      <trkpt lat="46.59599" lon="4.93843">
        <ele>166.60000610352</ele>
        <time>2017-07-24T09:12:27Z</time>
      </trkpt>
      <trkpt lat="46.59571" lon="4.93775">
        <ele>166.19999694824</ele>
        <time>2017-07-24T09:12:35Z</time>
      </trkpt>
      <trkpt lat="46.59568" lon="4.93767">
        <ele>166.19999694824</ele>
        <time>2017-07-24T09:12:36Z</time>
      </trkpt>
      <trkpt lat="46.59546" lon="4.93722">
        <ele>166.19999694824</ele>
        <time>2017-07-24T09:12:42Z</time>
      </trkpt>
      <trkpt lat="46.59524" lon="4.93678">
        <ele>166.39999389648</ele>
        <time>2017-07-24T09:12:48Z</time>
      </trkpt>
      <trkpt lat="46.595" lon="4.93636">
        <ele>166.39999389648</ele>
        <time>2017-07-24T09:12:54Z</time>
      </trkpt>
      <trkpt lat="46.59472" lon="4.93601">
        <ele>166.60000610352</ele>
        <time>2017-07-24T09:13:00Z</time>
      </trkpt>
      <trkpt lat="46.59435" lon="4.93566">
        <ele>167</ele>
        <time>2017-07-24T09:13:07Z</time>
      </trkpt>
      <trkpt lat="46.59403" lon="4.93535">
        <ele>166.80000305176</ele>
        <time>2017-07-24T09:13:13Z</time>
      </trkpt>
      <trkpt lat="46.59363" lon="4.93498">
        <ele>167</ele>
        <time>2017-07-24T09:13:20Z</time>
      </trkpt>
      <trkpt lat="46.59326" lon="4.93462">
        <ele>167</ele>
        <time>2017-07-24T09:13:27Z</time>
      </trkpt>
      <trkpt lat="46.59301" lon="4.93437">
        <ele>167</ele>
        <time>2017-07-24T09:13:32Z</time>
      </trkpt>
      <trkpt lat="46.59275" lon="4.93412">
        <ele>167.39999389648</ele>
        <time>2017-07-24T09:13:38Z</time>
      </trkpt>
      <trkpt lat="46.59271" lon="4.93408">
        <ele>167.39999389648</ele>
        <time>2017-07-24T09:13:39Z</time>
      </trkpt>
      <trkpt lat="46.59245" lon="4.93381">
        <ele>167.39999389648</ele>
        <time>2017-07-24T09:13:45Z</time>
      </trkpt>
      <trkpt lat="46.59233" lon="4.93368">
        <ele>167.39999389648</ele>
        <time>2017-07-24T09:13:48Z</time>
      </trkpt>
      <trkpt lat="46.59221" lon="4.93358">
        <ele>167.60000610352</ele>
        <time>2017-07-24T09:13:51Z</time>
      </trkpt>
      <trkpt lat="46.59218" lon="4.93354">
        <ele>167.60000610352</ele>
        <time>2017-07-24T09:13:52Z</time>
      </trkpt>
      <trkpt lat="46.59201" lon="4.93336">
        <ele>167.39999389648</ele>
        <time>2017-07-24T09:13:56Z</time>
      </trkpt>
      <trkpt lat="46.59172" lon="4.93304">
        <ele>167.19999694824</ele>
        <time>2017-07-24T09:14:03Z</time>
      </trkpt>
      <trkpt lat="46.59145" lon="4.93272">
        <ele>167.19999694824</ele>
        <time>2017-07-24T09:14:10Z</time>
      </trkpt>
      <trkpt lat="46.59133" lon="4.93254">
        <ele>167</ele>
        <time>2017-07-24T09:14:13Z</time>
      </trkpt>
      <trkpt lat="46.59123" lon="4.93244">
        <ele>167</ele>
        <time>2017-07-24T09:14:15Z</time>
      </trkpt>
      <trkpt lat="46.59112" lon="4.93233">
        <ele>167</ele>
        <time>2017-07-24T09:14:17Z</time>
      </trkpt>
      <trkpt lat="46.59099" lon="4.93216">
        <ele>166.80000305176</ele>
        <time>2017-07-24T09:14:20Z</time>
      </trkpt>
      <trkpt lat="46.59072" lon="4.93184">
        <ele>166.80000305176</ele>
        <time>2017-07-24T09:14:26Z</time>
      </trkpt>
      <trkpt lat="46.59062" lon="4.93173">
        <ele>166.80000305176</ele>
        <time>2017-07-24T09:14:28Z</time>
      </trkpt>
      <trkpt lat="46.59048" lon="4.93156">
        <ele>166.80000305176</ele>
        <time>2017-07-24T09:14:31Z</time>
      </trkpt>
      <trkpt lat="46.59002" lon="4.93101">
        <ele>167</ele>
        <time>2017-07-24T09:14:40Z</time>
      </trkpt>
      <trkpt lat="46.58971" lon="4.93071">
        <ele>167.19999694824</ele>
        <time>2017-07-24T09:14:46Z</time>
      </trkpt>
      <trkpt lat="46.58967" lon="4.93066">
        <ele>167.19999694824</ele>
        <time>2017-07-24T09:14:47Z</time>
      </trkpt>
      <trkpt lat="46.58928" lon="4.93024">
        <ele>167.39999389648</ele>
        <time>2017-07-24T09:14:55Z</time>
      </trkpt>
      <trkpt lat="46.58896" lon="4.9299">
        <ele>167.60000610352</ele>
        <time>2017-07-24T09:15:02Z</time>
      </trkpt>
      <trkpt lat="46.58859" lon="4.92955">
        <ele>168</ele>
        <time>2017-07-24T09:15:10Z</time>
      </trkpt>
      <trkpt lat="46.58827" lon="4.92928">
        <ele>168.39999389648</ele>
        <time>2017-07-24T09:15:16Z</time>
      </trkpt>
      <trkpt lat="46.58796" lon="4.92902">
        <ele>168.19999694824</ele>
        <time>2017-07-24T09:15:22Z</time>
      </trkpt>
      <trkpt lat="46.58766" lon="4.92878">
        <ele>168.19999694824</ele>
        <time>2017-07-24T09:15:28Z</time>
      </trkpt>
      <trkpt lat="46.58746" lon="4.9286">
        <ele>168</ele>
        <time>2017-07-24T09:15:32Z</time>
      </trkpt>
      <trkpt lat="46.5874" lon="4.92855">
        <ele>168</ele>
        <time>2017-07-24T09:15:33Z</time>
      </trkpt>
      <trkpt lat="46.58706" lon="4.92829">
        <ele>168</ele>
        <time>2017-07-24T09:15:39Z</time>
      </trkpt>
      <trkpt lat="46.58675" lon="4.92803">
        <ele>168</ele>
        <time>2017-07-24T09:15:45Z</time>
      </trkpt>
      <trkpt lat="46.58645" lon="4.92785">
        <ele>167.80000305176</ele>
        <time>2017-07-24T09:15:50Z</time>
      </trkpt>
      <trkpt lat="46.58603" lon="4.9276">
        <ele>167.60000610352</ele>
        <time>2017-07-24T09:15:57Z</time>
      </trkpt>
      <trkpt lat="46.58555" lon="4.92732">
        <ele>167</ele>
        <time>2017-07-24T09:16:04Z</time>
      </trkpt>
      <trkpt lat="46.58525" lon="4.92713">
        <ele>166.80000305176</ele>
        <time>2017-07-24T09:16:09Z</time>
      </trkpt>
      <trkpt lat="46.58514" lon="4.92705">
        <ele>166.80000305176</ele>
        <time>2017-07-24T09:16:11Z</time>
      </trkpt>
      <trkpt lat="46.58498" lon="4.92693">
        <ele>166.60000610352</ele>
        <time>2017-07-24T09:16:14Z</time>
      </trkpt>
      <trkpt lat="46.58469" lon="4.92675">
        <ele>166.39999389648</ele>
        <time>2017-07-24T09:16:18Z</time>
      </trkpt>
      <trkpt lat="46.58461" lon="4.9267">
        <ele>166.19999694824</ele>
        <time>2017-07-24T09:16:19Z</time>
      </trkpt>
      <trkpt lat="46.58426" lon="4.9264">
        <ele>166.19999694824</ele>
        <time>2017-07-24T09:16:25Z</time>
      </trkpt>
      <trkpt lat="46.58421" lon="4.92635">
        <ele>166.19999694824</ele>
        <time>2017-07-24T09:16:26Z</time>
      </trkpt>
      <trkpt lat="46.58389" lon="4.92605">
        <ele>166.19999694824</ele>
        <time>2017-07-24T09:16:32Z</time>
      </trkpt>
      <trkpt lat="46.58355" lon="4.92574">
        <ele>166.60000610352</ele>
        <time>2017-07-24T09:16:39Z</time>
      </trkpt>
      <trkpt lat="46.58324" lon="4.92554">
        <ele>166.60000610352</ele>
        <time>2017-07-24T09:16:45Z</time>
      </trkpt>
      <trkpt lat="46.58288" lon="4.92532">
        <ele>166.60000610352</ele>
        <time>2017-07-24T09:16:52Z</time>
      </trkpt>
      <trkpt lat="46.58254" lon="4.92512">
        <ele>166.80000305176</ele>
        <time>2017-07-24T09:16:58Z</time>
      </trkpt>
      <trkpt lat="46.5821" lon="4.92486">
        <ele>166.80000305176</ele>
        <time>2017-07-24T09:17:06Z</time>
      </trkpt>
      <trkpt lat="46.58172" lon="4.92461">
        <ele>166.80000305176</ele>
        <time>2017-07-24T09:17:13Z</time>
      </trkpt>
      <trkpt lat="46.58135" lon="4.92436">
        <ele>166.80000305176</ele>
        <time>2017-07-24T09:17:20Z</time>
      </trkpt>
      <trkpt lat="46.5812" lon="4.92424">
        <ele>166.80000305176</ele>
        <time>2017-07-24T09:17:23Z</time>
      </trkpt>
      <trkpt lat="46.58115" lon="4.92421">
        <ele>166.80000305176</ele>
        <time>2017-07-24T09:17:24Z</time>
      </trkpt>
      <trkpt lat="46.58069" lon="4.9239">
        <ele>166.60000610352</ele>
        <time>2017-07-24T09:17:32Z</time>
      </trkpt>
      <trkpt lat="46.58041" lon="4.92373">
        <ele>166.60000610352</ele>
        <time>2017-07-24T09:17:38Z</time>
      </trkpt>
      <trkpt lat="46.58034" lon="4.92373">
        <ele>165.80000305176</ele>
        <time>2017-07-24T09:18:05Z</time>
      </trkpt>
      <trkpt lat="46.58025" lon="4.92366">
        <ele>166</ele>
        <time>2017-07-24T09:18:10Z</time>
      </trkpt>
      <trkpt lat="46.58006" lon="4.92354">
        <ele>166</ele>
        <time>2017-07-24T09:18:16Z</time>
      </trkpt>
      <trkpt lat="46.57977" lon="4.92336">
        <ele>166.19999694824</ele>
        <time>2017-07-24T09:18:23Z</time>
      </trkpt>
      <trkpt lat="46.57944" lon="4.92312">
        <ele>166.39999389648</ele>
        <time>2017-07-24T09:18:30Z</time>
      </trkpt>
      <trkpt lat="46.57909" lon="4.92285">
        <ele>166.39999389648</ele>
        <time>2017-07-24T09:18:37Z</time>
      </trkpt>
      <trkpt lat="46.57892" lon="4.92275">
        <ele>166.39999389648</ele>
        <time>2017-07-24T09:18:40Z</time>
      </trkpt>
      <trkpt lat="46.57876" lon="4.92264">
        <ele>166.60000610352</ele>
        <time>2017-07-24T09:18:43Z</time>
      </trkpt>
      <trkpt lat="46.57835" lon="4.92246">
        <ele>166.39999389648</ele>
        <time>2017-07-24T09:18:50Z</time>
      </trkpt>
      <trkpt lat="46.57802" lon="4.92226">
        <ele>166.39999389648</ele>
        <time>2017-07-24T09:18:56Z</time>
      </trkpt>
      <trkpt lat="46.57769" lon="4.92206">
        <ele>166.39999389648</ele>
        <time>2017-07-24T09:19:02Z</time>
      </trkpt>
      <trkpt lat="46.5773" lon="4.9218">
        <ele>166.19999694824</ele>
        <time>2017-07-24T09:19:09Z</time>
      </trkpt>
      <trkpt lat="46.57687" lon="4.92154">
        <ele>166.19999694824</ele>
        <time>2017-07-24T09:19:17Z</time>
      </trkpt>
      <trkpt lat="46.57652" lon="4.92132">
        <ele>166.19999694824</ele>
        <time>2017-07-24T09:19:23Z</time>
      </trkpt>
      <trkpt lat="46.57622" lon="4.92111">
        <ele>166</ele>
        <time>2017-07-24T09:19:28Z</time>
      </trkpt>
      <trkpt lat="46.57605" lon="4.92098">
        <ele>166</ele>
        <time>2017-07-24T09:19:31Z</time>
      </trkpt>
      <trkpt lat="46.57576" lon="4.92062">
        <ele>166</ele>
        <time>2017-07-24T09:19:37Z</time>
      </trkpt>
      <trkpt lat="46.57545" lon="4.92021">
        <ele>166.19999694824</ele>
        <time>2017-07-24T09:19:44Z</time>
      </trkpt>
      <trkpt lat="46.57538" lon="4.92008">
        <ele>166.19999694824</ele>
        <time>2017-07-24T09:19:46Z</time>
      </trkpt>
      <trkpt lat="46.57524" lon="4.91979">
        <ele>166.19999694824</ele>
        <time>2017-07-24T09:19:50Z</time>
      </trkpt>
      <trkpt lat="46.57511" lon="4.9195">
        <ele>166.19999694824</ele>
        <time>2017-07-24T09:19:54Z</time>
      </trkpt>
      <trkpt lat="46.57503" lon="4.91937">
        <ele>166.19999694824</ele>
        <time>2017-07-24T09:19:56Z</time>
      </trkpt>
      <trkpt lat="46.57471" lon="4.91889">
        <ele>166.19999694824</ele>
        <time>2017-07-24T09:20:04Z</time>
      </trkpt>
      <trkpt lat="46.57441" lon="4.91844">
        <ele>166.19999694824</ele>
        <time>2017-07-24T09:20:11Z</time>
      </trkpt>
      <trkpt lat="46.57402" lon="4.91788">
        <ele>166.39999389648</ele>
        <time>2017-07-24T09:20:20Z</time>
      </trkpt>
      <trkpt lat="46.57372" lon="4.91764">
        <ele>166.39999389648</ele>
        <time>2017-07-24T09:20:26Z</time>
      </trkpt>
      <trkpt lat="46.57339" lon="4.9175">
        <ele>166.80000305176</ele>
        <time>2017-07-24T09:20:32Z</time>
      </trkpt>
      <trkpt lat="46.57299" lon="4.91739">
        <ele>166.80000305176</ele>
        <time>2017-07-24T09:20:39Z</time>
      </trkpt>
      <trkpt lat="46.57269" lon="4.91733">
        <ele>166.80000305176</ele>
        <time>2017-07-24T09:20:44Z</time>
      </trkpt>
      <trkpt lat="46.57224" lon="4.91728">
        <ele>166.80000305176</ele>
        <time>2017-07-24T09:20:51Z</time>
      </trkpt>
      <trkpt lat="46.57198" lon="4.91726">
        <ele>166.80000305176</ele>
        <time>2017-07-24T09:20:55Z</time>
      </trkpt>
      <trkpt lat="46.57186" lon="4.91725">
        <ele>166.80000305176</ele>
        <time>2017-07-24T09:20:57Z</time>
      </trkpt>
      <trkpt lat="46.57136" lon="4.91721">
        <ele>166.80000305176</ele>
        <time>2017-07-24T09:21:05Z</time>
      </trkpt>
      <trkpt lat="46.57087" lon="4.91718">
        <ele>166.60000610352</ele>
        <time>2017-07-24T09:21:13Z</time>
      </trkpt>
      <trkpt lat="46.57075" lon="4.91719">
        <ele>166.60000610352</ele>
        <time>2017-07-24T09:21:17Z</time>
      </trkpt>
      <trkpt lat="46.57077" lon="4.9172">
        <ele>166.19999694824</ele>
        <time>2017-07-24T09:21:28Z</time>
      </trkpt>
      <trkpt lat="46.57079" lon="4.9172">
        <ele>166.19999694824</ele>
        <time>2017-07-24T09:21:30Z</time>
      </trkpt>
      <trkpt lat="46.57094" lon="4.91718">
        <ele>166.19999694824</ele>
        <time>2017-07-24T09:21:35Z</time>
      </trkpt>
      <trkpt lat="46.57119" lon="4.91721">
        <ele>166.39999389648</ele>
        <time>2017-07-24T09:21:41Z</time>
      </trkpt>
      <trkpt lat="46.57147" lon="4.91724">
        <ele>166.60000610352</ele>
        <time>2017-07-24T09:21:46Z</time>
      </trkpt>
      <trkpt lat="46.57153" lon="4.91724">
        <ele>166.60000610352</ele>
        <time>2017-07-24T09:21:47Z</time>
      </trkpt>
      <trkpt lat="46.57199" lon="4.91729">
        <ele>166.60000610352</ele>
        <time>2017-07-24T09:21:55Z</time>
      </trkpt>
      <trkpt lat="46.57243" lon="4.91732">
        <ele>166.60000610352</ele>
        <time>2017-07-24T09:22:03Z</time>
      </trkpt>
      <trkpt lat="46.57287" lon="4.9174">
        <ele>166.60000610352</ele>
        <time>2017-07-24T09:22:11Z</time>
      </trkpt>
      <trkpt lat="46.57312" lon="4.91743">
        <ele>166.60000610352</ele>
        <time>2017-07-24T09:22:16Z</time>
      </trkpt>
      <trkpt lat="46.57317" lon="4.9174">
        <ele>166.60000610352</ele>
        <time>2017-07-24T09:22:17Z</time>
      </trkpt>
      <trkpt lat="46.57329" lon="4.91726">
        <ele>166.60000610352</ele>
        <time>2017-07-24T09:22:20Z</time>
      </trkpt>
      <trkpt lat="46.57339" lon="4.91696">
        <ele>166.19999694824</ele>
        <time>2017-07-24T09:22:24Z</time>
      </trkpt>
      <trkpt lat="46.57341" lon="4.9168">
        <ele>166</ele>
        <time>2017-07-24T09:22:26Z</time>
      </trkpt>
      <trkpt lat="46.57344" lon="4.91649">
        <ele>165.80000305176</ele>
        <time>2017-07-24T09:22:30Z</time>
      </trkpt>
      <trkpt lat="46.57344" lon="4.91609">
        <ele>165.60000610352</ele>
        <time>2017-07-24T09:22:35Z</time>
      </trkpt>
      <trkpt lat="46.57342" lon="4.91603">
        <ele>165.39999389648</ele>
        <time>2017-07-24T09:22:36Z</time>
      </trkpt>
      <trkpt lat="46.57337" lon="4.91597">
        <ele>165.19999694824</ele>
        <time>2017-07-24T09:22:37Z</time>
      </trkpt>
      <trkpt lat="46.57329" lon="4.9159">
        <ele>165.19999694824</ele>
        <time>2017-07-24T09:22:39Z</time>
      </trkpt>
      <trkpt lat="46.57305" lon="4.91589">
        <ele>165</ele>
        <time>2017-07-24T09:22:43Z</time>
      </trkpt>
      <trkpt lat="46.57267" lon="4.91588">
        <ele>165</ele>
        <time>2017-07-24T09:22:49Z</time>
      </trkpt>
      <trkpt lat="46.5725" lon="4.91582">
        <ele>165.19999694824</ele>
        <time>2017-07-24T09:22:52Z</time>
      </trkpt>
      <trkpt lat="46.57239" lon="4.91577">
        <ele>165.39999389648</ele>
        <time>2017-07-24T09:22:54Z</time>
      </trkpt>
      <trkpt lat="46.57189" lon="4.91552">
        <ele>165.19999694824</ele>
        <time>2017-07-24T09:23:03Z</time>
      </trkpt>
      <trkpt lat="46.57138" lon="4.91527">
        <ele>165</ele>
        <time>2017-07-24T09:23:12Z</time>
      </trkpt>
      <trkpt lat="46.57091" lon="4.91505">
        <ele>165.19999694824</ele>
        <time>2017-07-24T09:23:20Z</time>
      </trkpt>
      <trkpt lat="46.57035" lon="4.91477">
        <ele>165</ele>
        <time>2017-07-24T09:23:30Z</time>
      </trkpt>
      <trkpt lat="46.56981" lon="4.9145">
        <ele>165</ele>
        <time>2017-07-24T09:23:40Z</time>
      </trkpt>
      <trkpt lat="46.56975" lon="4.91447">
        <ele>165</ele>
        <time>2017-07-24T09:23:41Z</time>
      </trkpt>
      <trkpt lat="46.56928" lon="4.91426">
        <ele>165.19999694824</ele>
        <time>2017-07-24T09:23:50Z</time>
      </trkpt>
      <trkpt lat="46.56888" lon="4.91409">
        <ele>165.80000305176</ele>
        <time>2017-07-24T09:23:58Z</time>
      </trkpt>
      <trkpt lat="46.56847" lon="4.9139">
        <ele>166</ele>
        <time>2017-07-24T09:24:06Z</time>
      </trkpt>
      <trkpt lat="46.56804" lon="4.91373">
        <ele>166</ele>
        <time>2017-07-24T09:24:14Z</time>
      </trkpt>
      <trkpt lat="46.56765" lon="4.91358">
        <ele>165.80000305176</ele>
        <time>2017-07-24T09:24:21Z</time>
      </trkpt>
      <trkpt lat="46.56721" lon="4.9134">
        <ele>165.80000305176</ele>
        <time>2017-07-24T09:24:29Z</time>
      </trkpt>
      <trkpt lat="46.56677" lon="4.91331">
        <ele>166.39999389648</ele>
        <time>2017-07-24T09:24:38Z</time>
      </trkpt>
      <trkpt lat="46.5665" lon="4.9133">
        <ele>166.80000305176</ele>
        <time>2017-07-24T09:24:44Z</time>
      </trkpt>
      <trkpt lat="46.56632" lon="4.91341">
        <ele>167</ele>
        <time>2017-07-24T09:24:48Z</time>
      </trkpt>
      <trkpt lat="46.56627" lon="4.91345">
        <ele>167</ele>
        <time>2017-07-24T09:24:49Z</time>
      </trkpt>
      <trkpt lat="46.56604" lon="4.91358">
        <ele>167.19999694824</ele>
        <time>2017-07-24T09:24:54Z</time>
      </trkpt>
      <trkpt lat="46.56594" lon="4.91361">
        <ele>167.39999389648</ele>
        <time>2017-07-24T09:24:56Z</time>
      </trkpt>
      <trkpt lat="46.56575" lon="4.91368">
        <ele>167.19999694824</ele>
        <time>2017-07-24T09:25:00Z</time>
      </trkpt>
      <trkpt lat="46.5657" lon="4.91369">
        <ele>167.19999694824</ele>
        <time>2017-07-24T09:25:01Z</time>
      </trkpt>
      <trkpt lat="46.56566" lon="4.9137">
        <ele>167.19999694824</ele>
        <time>2017-07-24T09:25:02Z</time>
      </trkpt>
      <trkpt lat="46.56544" lon="4.91378">
        <ele>167.19999694824</ele>
        <time>2017-07-24T09:25:07Z</time>
      </trkpt>
      <trkpt lat="46.56531" lon="4.91383">
        <ele>167.39999389648</ele>
        <time>2017-07-24T09:25:10Z</time>
      </trkpt>
      <trkpt lat="46.56518" lon="4.91387">
        <ele>167.39999389648</ele>
        <time>2017-07-24T09:25:13Z</time>
      </trkpt>
      <trkpt lat="46.5649" lon="4.91401">
        <ele>168</ele>
        <time>2017-07-24T09:25:20Z</time>
      </trkpt>
      <trkpt lat="46.56478" lon="4.91421">
        <ele>168.39999389648</ele>
        <time>2017-07-24T09:25:25Z</time>
      </trkpt>
      <trkpt lat="46.56476" lon="4.91426">
        <ele>168.39999389648</ele>
        <time>2017-07-24T09:25:26Z</time>
      </trkpt>
      <trkpt lat="46.56471" lon="4.91454">
        <ele>169.39999389648</ele>
        <time>2017-07-24T09:25:32Z</time>
      </trkpt>
      <trkpt lat="46.56468" lon="4.9146">
        <ele>169.80000305176</ele>
        <time>2017-07-24T09:25:34Z</time>
      </trkpt>
      <trkpt lat="46.56466" lon="4.9146">
        <ele>170</ele>
        <time>2017-07-24T09:25:35Z</time>
      </trkpt>
      <trkpt lat="46.56464" lon="4.91452">
        <ele>170.39999389648</ele>
        <time>2017-07-24T09:25:38Z</time>
      </trkpt>
      <trkpt lat="46.56465" lon="4.91449">
        <ele>170.60000610352</ele>
        <time>2017-07-24T09:25:39Z</time>
      </trkpt>
      <trkpt lat="46.56466" lon="4.91429">
        <ele>171</ele>
        <time>2017-07-24T09:25:44Z</time>
      </trkpt>
      <trkpt lat="46.56463" lon="4.91404">
        <ele>171.39999389648</ele>
        <time>2017-07-24T09:25:49Z</time>
      </trkpt>
      <trkpt lat="46.56461" lon="4.914">
        <ele>171.60000610352</ele>
        <time>2017-07-24T09:25:50Z</time>
      </trkpt>
      <trkpt lat="46.56453" lon="4.91373">
        <ele>172.60000610352</ele>
        <time>2017-07-24T09:25:56Z</time>
      </trkpt>
      <trkpt lat="46.5645" lon="4.91365">
        <ele>172.80000305176</ele>
        <time>2017-07-24T09:25:58Z</time>
      </trkpt>
      <trkpt lat="46.56445" lon="4.91348">
        <ele>173.60000610352</ele>
        <time>2017-07-24T09:26:02Z</time>
      </trkpt>
      <trkpt lat="46.56437" lon="4.91325">
        <ele>174.39999389648</ele>
        <time>2017-07-24T09:26:07Z</time>
      </trkpt>
      <trkpt lat="46.56432" lon="4.9131">
        <ele>174.60000610352</ele>
        <time>2017-07-24T09:26:10Z</time>
      </trkpt>
      <trkpt lat="46.56426" lon="4.91292">
        <ele>175</ele>
        <time>2017-07-24T09:26:14Z</time>
      </trkpt>
      <trkpt lat="46.56417" lon="4.91256">
        <ele>175</ele>
        <time>2017-07-24T09:26:20Z</time>
      </trkpt>
      <trkpt lat="46.56403" lon="4.91215">
        <ele>173.60000610352</ele>
        <time>2017-07-24T09:26:26Z</time>
      </trkpt>
      <trkpt lat="46.56401" lon="4.91208">
        <ele>173.39999389648</ele>
        <time>2017-07-24T09:26:27Z</time>
      </trkpt>
      <trkpt lat="46.56395" lon="4.9119">
        <ele>172.60000610352</ele>
        <time>2017-07-24T09:26:30Z</time>
      </trkpt>
      <trkpt lat="46.56394" lon="4.91183">
        <ele>172.39999389648</ele>
        <time>2017-07-24T09:26:31Z</time>
      </trkpt>
      <trkpt lat="46.56391" lon="4.91172">
        <ele>172.19999694824</ele>
        <time>2017-07-24T09:26:33Z</time>
      </trkpt>
      <trkpt lat="46.56386" lon="4.91157">
        <ele>172.39999389648</ele>
        <time>2017-07-24T09:26:37Z</time>
      </trkpt>
      <trkpt lat="46.56379" lon="4.91138">
        <ele>172.80000305176</ele>
        <time>2017-07-24T09:26:42Z</time>
      </trkpt>
      <trkpt lat="46.56371" lon="4.91106">
        <ele>173.19999694824</ele>
        <time>2017-07-24T09:26:49Z</time>
      </trkpt>
      <trkpt lat="46.56369" lon="4.911">
        <ele>173.39999389648</ele>
        <time>2017-07-24T09:26:52Z</time>
      </trkpt>
      <trkpt lat="46.56368" lon="4.91099">
        <ele>173.39999389648</ele>
        <time>2017-07-24T09:26:53Z</time>
      </trkpt>
      <trkpt lat="46.56367" lon="4.91098">
        <ele>173.39999389648</ele>
        <time>2017-07-24T09:26:54Z</time>
      </trkpt>
      <trkpt lat="46.56361" lon="4.9109">
        <ele>173.60000610352</ele>
        <time>2017-07-24T09:26:58Z</time>
      </trkpt>
      <trkpt lat="46.56359" lon="4.91086">
        <ele>173.60000610352</ele>
        <time>2017-07-24T09:26:59Z</time>
      </trkpt>
      <trkpt lat="46.56351" lon="4.91069">
        <ele>173.80000305176</ele>
        <time>2017-07-24T09:27:03Z</time>
      </trkpt>
      <trkpt lat="46.56349" lon="4.91058">
        <ele>174</ele>
        <time>2017-07-24T09:27:05Z</time>
      </trkpt>
      <trkpt lat="46.56346" lon="4.91041">
        <ele>174</ele>
        <time>2017-07-24T09:27:08Z</time>
      </trkpt>
      <trkpt lat="46.56339" lon="4.90999">
        <ele>174.19999694824</ele>
        <time>2017-07-24T09:27:15Z</time>
      </trkpt>
      <trkpt lat="46.56333" lon="4.90968">
        <ele>174.39999389648</ele>
        <time>2017-07-24T09:27:20Z</time>
      </trkpt>
      <trkpt lat="46.56329" lon="4.90955">
        <ele>174.60000610352</ele>
        <time>2017-07-24T09:27:22Z</time>
      </trkpt>
      <trkpt lat="46.56326" lon="4.90922">
        <ele>175</ele>
        <time>2017-07-24T09:27:28Z</time>
      </trkpt>
      <trkpt lat="46.5633" lon="4.90908">
        <ele>175.60000610352</ele>
        <time>2017-07-24T09:27:33Z</time>
      </trkpt>
      <trkpt lat="46.56327" lon="4.90908">
        <ele>175.80000305176</ele>
        <time>2017-07-24T09:27:37Z</time>
      </trkpt>
      <trkpt lat="46.56326" lon="4.9091">
        <ele>175.80000305176</ele>
        <time>2017-07-24T09:27:38Z</time>
      </trkpt>
      <trkpt lat="46.56326" lon="4.90914">
        <ele>175.60000610352</ele>
        <time>2017-07-24T09:27:45Z</time>
      </trkpt>
      <trkpt lat="46.56326" lon="4.90915">
        <ele>175.60000610352</ele>
        <time>2017-07-24T09:27:46Z</time>
      </trkpt>
      <trkpt lat="46.5633" lon="4.90913">
        <ele>175.39999389648</ele>
        <time>2017-07-24T09:27:49Z</time>
      </trkpt>
      <trkpt lat="46.56337" lon="4.90907">
        <ele>175.80000305176</ele>
        <time>2017-07-24T09:27:55Z</time>
      </trkpt>
      <trkpt lat="46.56341" lon="4.90903">
        <ele>176.19999694824</ele>
        <time>2017-07-24T09:28:33Z</time>
      </trkpt>
      <trkpt lat="46.56342" lon="4.90902">
        <ele>176.19999694824</ele>
        <time>2017-07-24T09:28:34Z</time>
      </trkpt>
      <trkpt lat="46.56355" lon="4.9089">
        <ele>176.60000610352</ele>
        <time>2017-07-24T09:28:39Z</time>
      </trkpt>
      <trkpt lat="46.56358" lon="4.90887">
        <ele>176.60000610352</ele>
        <time>2017-07-24T09:28:40Z</time>
      </trkpt>
      <trkpt lat="46.56371" lon="4.90877">
        <ele>177.39999389648</ele>
        <time>2017-07-24T09:28:45Z</time>
      </trkpt>
      <trkpt lat="46.56374" lon="4.90875">
        <ele>177.60000610352</ele>
        <time>2017-07-24T09:28:46Z</time>
      </trkpt>
      <trkpt lat="46.56388" lon="4.9086">
        <ele>178.39999389648</ele>
        <time>2017-07-24T09:28:51Z</time>
      </trkpt>
      <trkpt lat="46.56388" lon="4.90857">
        <ele>178.60000610352</ele>
        <time>2017-07-24T09:28:52Z</time>
      </trkpt>
      <trkpt lat="46.56387" lon="4.90845">
        <ele>179.19999694824</ele>
        <time>2017-07-24T09:28:55Z</time>
      </trkpt>
      <trkpt lat="46.56385" lon="4.90824">
        <ele>179.39999389648</ele>
        <time>2017-07-24T09:29:00Z</time>
      </trkpt>
      <trkpt lat="46.56394" lon="4.90818">
        <ele>179.80000305176</ele>
        <time>2017-07-24T09:29:03Z</time>
      </trkpt>
      <trkpt lat="46.56397" lon="4.90816">
        <ele>180</ele>
        <time>2017-07-24T09:29:04Z</time>
      </trkpt>
      <trkpt lat="46.564" lon="4.90814">
        <ele>180</ele>
        <time>2017-07-24T09:29:05Z</time>
      </trkpt>
      <trkpt lat="46.56418" lon="4.90799">
        <ele>181</ele>
        <time>2017-07-24T09:29:11Z</time>
      </trkpt>
      <trkpt lat="46.56435" lon="4.90783">
        <ele>182</ele>
        <time>2017-07-24T09:29:17Z</time>
      </trkpt>
      <trkpt lat="46.56438" lon="4.90781">
        <ele>182.19999694824</ele>
        <time>2017-07-24T09:29:18Z</time>
      </trkpt>
      <trkpt lat="46.56456" lon="4.90772">
        <ele>182.60000610352</ele>
        <time>2017-07-24T09:29:24Z</time>
      </trkpt>
      <trkpt lat="46.5646" lon="4.90764">
        <ele>182.80000305176</ele>
        <time>2017-07-24T09:29:26Z</time>
      </trkpt>
      <trkpt lat="46.56461" lon="4.90758">
        <ele>182.80000305176</ele>
        <time>2017-07-24T09:29:27Z</time>
      </trkpt>
      <trkpt lat="46.56468" lon="4.90728">
        <ele>182.80000305176</ele>
        <time>2017-07-24T09:29:31Z</time>
      </trkpt>
      <trkpt lat="46.5648" lon="4.90675">
        <ele>181.80000305176</ele>
        <time>2017-07-24T09:29:36Z</time>
      </trkpt>
      <trkpt lat="46.56488" lon="4.9064">
        <ele>180.60000610352</ele>
        <time>2017-07-24T09:29:39Z</time>
      </trkpt>
      <trkpt lat="46.56491" lon="4.9063">
        <ele>180.19999694824</ele>
        <time>2017-07-24T09:29:40Z</time>
      </trkpt>
      <trkpt lat="46.56501" lon="4.9059">
        <ele>180</ele>
        <time>2017-07-24T09:29:45Z</time>
      </trkpt>
      <trkpt lat="46.56509" lon="4.90556">
        <ele>181.80000305176</ele>
        <time>2017-07-24T09:29:50Z</time>
      </trkpt>
      <trkpt lat="46.56512" lon="4.90544">
        <ele>182.80000305176</ele>
        <time>2017-07-24T09:29:52Z</time>
      </trkpt>
      <trkpt lat="46.56517" lon="4.9052">
        <ele>184</ele>
        <time>2017-07-24T09:29:56Z</time>
      </trkpt>
      <trkpt lat="46.5652" lon="4.90502">
        <ele>184.80000305176</ele>
        <time>2017-07-24T09:29:59Z</time>
      </trkpt>
      <trkpt lat="46.56521" lon="4.90497">
        <ele>185.19999694824</ele>
        <time>2017-07-24T09:30:00Z</time>
      </trkpt>
      <trkpt lat="46.56525" lon="4.9048">
        <ele>186</ele>
        <time>2017-07-24T09:30:04Z</time>
      </trkpt>
      <trkpt lat="46.56526" lon="4.90477">
        <ele>186.19999694824</ele>
        <time>2017-07-24T09:30:05Z</time>
      </trkpt>
      <trkpt lat="46.5653" lon="4.90467">
        <ele>186.80000305176</ele>
        <time>2017-07-24T09:30:10Z</time>
      </trkpt>
      <trkpt lat="46.56528" lon="4.90466">
        <ele>187</ele>
        <time>2017-07-24T09:30:16Z</time>
      </trkpt>
      <trkpt lat="46.56527" lon="4.90469">
        <ele>187</ele>
        <time>2017-07-24T09:30:17Z</time>
      </trkpt>
      <trkpt lat="46.5652" lon="4.90489">
        <ele>186.80000305176</ele>
        <time>2017-07-24T09:30:22Z</time>
      </trkpt>
      <trkpt lat="46.56518" lon="4.90489">
        <ele>186.80000305176</ele>
        <time>2017-07-24T09:30:23Z</time>
      </trkpt>
      <trkpt lat="46.56511" lon="4.90484">
        <ele>186.60000610352</ele>
        <time>2017-07-24T09:30:27Z</time>
      </trkpt>
      <trkpt lat="46.5651" lon="4.90483">
        <ele>186.60000610352</ele>
        <time>2017-07-24T09:30:28Z</time>
      </trkpt>
      <trkpt lat="46.56499" lon="4.90476">
        <ele>187</ele>
        <time>2017-07-24T09:30:32Z</time>
      </trkpt>
      <trkpt lat="46.56493" lon="4.90472">
        <ele>187</ele>
        <time>2017-07-24T09:30:35Z</time>
      </trkpt>
      <trkpt lat="46.56492" lon="4.90473">
        <ele>187.19999694824</ele>
        <time>2017-07-24T09:30:36Z</time>
      </trkpt>
      <trkpt lat="46.56489" lon="4.90474">
        <ele>187.19999694824</ele>
        <time>2017-07-24T09:46:35Z</time>
      </trkpt>
      <trkpt lat="46.56492" lon="4.90472">
        <ele>187</ele>
        <time>2017-07-24T09:46:47Z</time>
      </trkpt>
      <trkpt lat="46.56495" lon="4.90474">
        <ele>187.19999694824</ele>
        <time>2017-07-24T09:46:49Z</time>
      </trkpt>
      <trkpt lat="46.56507" lon="4.9048">
        <ele>187</ele>
        <time>2017-07-24T09:46:54Z</time>
      </trkpt>
      <trkpt lat="46.56514" lon="4.90484">
        <ele>187.19999694824</ele>
        <time>2017-07-24T09:46:59Z</time>
      </trkpt>
      <trkpt lat="46.56514" lon="4.90498">
        <ele>187.19999694824</ele>
        <time>2017-07-24T09:47:02Z</time>
      </trkpt>
      <trkpt lat="46.56511" lon="4.9051">
        <ele>187</ele>
        <time>2017-07-24T09:47:04Z</time>
      </trkpt>
      <trkpt lat="46.56506" lon="4.90532">
        <ele>186.60000610352</ele>
        <time>2017-07-24T09:47:07Z</time>
      </trkpt>
      <trkpt lat="46.565" lon="4.9056">
        <ele>186.19999694824</ele>
        <time>2017-07-24T09:47:10Z</time>
      </trkpt>
      <trkpt lat="46.56495" lon="4.90581">
        <ele>185.39999389648</ele>
        <time>2017-07-24T09:47:12Z</time>
      </trkpt>
      <trkpt lat="46.56493" lon="4.90593">
        <ele>185.19999694824</ele>
        <time>2017-07-24T09:47:13Z</time>
      </trkpt>
      <trkpt lat="46.56486" lon="4.9063">
        <ele>183.80000305176</ele>
        <time>2017-07-24T09:47:16Z</time>
      </trkpt>
      <trkpt lat="46.56483" lon="4.90639">
        <ele>183.39999389648</ele>
        <time>2017-07-24T09:47:17Z</time>
      </trkpt>
      <trkpt lat="46.56478" lon="4.90651">
        <ele>182.60000610352</ele>
        <time>2017-07-24T09:47:19Z</time>
      </trkpt>
      <trkpt lat="46.56477" lon="4.90652">
        <ele>182.19999694824</ele>
        <time>2017-07-24T09:47:20Z</time>
      </trkpt>
      <trkpt lat="46.56479" lon="4.90655">
        <ele>179.39999389648</ele>
        <time>2017-07-24T09:47:25Z</time>
      </trkpt>
      <trkpt lat="46.56479" lon="4.90662">
        <ele>179.19999694824</ele>
        <time>2017-07-24T09:47:27Z</time>
      </trkpt>
      <trkpt lat="46.56478" lon="4.90672">
        <ele>179</ele>
        <time>2017-07-24T09:47:29Z</time>
      </trkpt>
      <trkpt lat="46.56478" lon="4.90678">
        <ele>178.80000305176</ele>
        <time>2017-07-24T09:47:30Z</time>
      </trkpt>
      <trkpt lat="46.56476" lon="4.90689">
        <ele>178.60000610352</ele>
        <time>2017-07-24T09:47:32Z</time>
      </trkpt>
      <trkpt lat="46.5647" lon="4.9073">
        <ele>179</ele>
        <time>2017-07-24T09:47:39Z</time>
      </trkpt>
      <trkpt lat="46.56466" lon="4.90746">
        <ele>179.80000305176</ele>
        <time>2017-07-24T09:47:42Z</time>
      </trkpt>
      <trkpt lat="46.56462" lon="4.90755">
        <ele>180.60000610352</ele>
        <time>2017-07-24T09:47:44Z</time>
      </trkpt>
      <trkpt lat="46.5646" lon="4.9076">
        <ele>180.80000305176</ele>
        <time>2017-07-24T09:47:45Z</time>
      </trkpt>
      <trkpt lat="46.56456" lon="4.90774">
        <ele>181.80000305176</ele>
        <time>2017-07-24T09:47:48Z</time>
      </trkpt>
      <trkpt lat="46.56451" lon="4.90782">
        <ele>182.19999694824</ele>
        <time>2017-07-24T09:47:50Z</time>
      </trkpt>
      <trkpt lat="46.56449" lon="4.90788">
        <ele>182.39999389648</ele>
        <time>2017-07-24T09:47:51Z</time>
      </trkpt>
      <trkpt lat="46.56448" lon="4.908">
        <ele>182.80000305176</ele>
        <time>2017-07-24T09:47:53Z</time>
      </trkpt>
      <trkpt lat="46.56448" lon="4.90806">
        <ele>182.80000305176</ele>
        <time>2017-07-24T09:47:54Z</time>
      </trkpt>
      <trkpt lat="46.56448" lon="4.90813">
        <ele>182.80000305176</ele>
        <time>2017-07-24T09:47:55Z</time>
      </trkpt>
      <trkpt lat="46.56449" lon="4.90835">
        <ele>182.80000305176</ele>
        <time>2017-07-24T09:47:58Z</time>
      </trkpt>
      <trkpt lat="46.56444" lon="4.90885">
        <ele>181.80000305176</ele>
        <time>2017-07-24T09:48:04Z</time>
      </trkpt>
      <trkpt lat="46.56443" lon="4.90894">
        <ele>181.60000610352</ele>
        <time>2017-07-24T09:48:05Z</time>
      </trkpt>
      <trkpt lat="46.56442" lon="4.90903">
        <ele>181.39999389648</ele>
        <time>2017-07-24T09:48:06Z</time>
      </trkpt>
      <trkpt lat="46.56433" lon="4.9094">
        <ele>180.80000305176</ele>
        <time>2017-07-24T09:48:10Z</time>
      </trkpt>
      <trkpt lat="46.56431" lon="4.90949">
        <ele>180.60000610352</ele>
        <time>2017-07-24T09:48:11Z</time>
      </trkpt>
      <trkpt lat="46.5642" lon="4.90994">
        <ele>179.39999389648</ele>
        <time>2017-07-24T09:48:16Z</time>
      </trkpt>
      <trkpt lat="46.56418" lon="4.91001">
        <ele>179.19999694824</ele>
        <time>2017-07-24T09:48:17Z</time>
      </trkpt>
      <trkpt lat="46.56417" lon="4.91016">
        <ele>178.19999694824</ele>
        <time>2017-07-24T09:48:20Z</time>
      </trkpt>
      <trkpt lat="46.56419" lon="4.91027">
        <ele>177.19999694824</ele>
        <time>2017-07-24T09:48:24Z</time>
      </trkpt>
      <trkpt lat="46.56419" lon="4.91028">
        <ele>177</ele>
        <time>2017-07-24T09:48:25Z</time>
      </trkpt>
      <trkpt lat="46.56414" lon="4.91036">
        <ele>176.60000610352</ele>
        <time>2017-07-24T09:48:28Z</time>
      </trkpt>
      <trkpt lat="46.56399" lon="4.91058">
        <ele>176.19999694824</ele>
        <time>2017-07-24T09:48:33Z</time>
      </trkpt>
      <trkpt lat="46.56397" lon="4.91062">
        <ele>176</ele>
        <time>2017-07-24T09:48:34Z</time>
      </trkpt>
      <trkpt lat="46.56394" lon="4.91067">
        <ele>176</ele>
        <time>2017-07-24T09:48:35Z</time>
      </trkpt>
      <trkpt lat="46.5639" lon="4.91071">
        <ele>175.80000305176</ele>
        <time>2017-07-24T09:48:36Z</time>
      </trkpt>
      <trkpt lat="46.56382" lon="4.9108">
        <ele>175.39999389648</ele>
        <time>2017-07-24T09:48:38Z</time>
      </trkpt>
      <trkpt lat="46.56378" lon="4.91084">
        <ele>175.39999389648</ele>
        <time>2017-07-24T09:48:39Z</time>
      </trkpt>
      <trkpt lat="46.56371" lon="4.9109">
        <ele>175</ele>
        <time>2017-07-24T09:48:41Z</time>
      </trkpt>
      <trkpt lat="46.56366" lon="4.91092">
        <ele>174.60000610352</ele>
        <time>2017-07-24T09:48:43Z</time>
      </trkpt>
      <trkpt lat="46.56364" lon="4.91095">
        <ele>173.80000305176</ele>
        <time>2017-07-24T09:48:46Z</time>
      </trkpt>
      <trkpt lat="46.56375" lon="4.91113">
        <ele>173.60000610352</ele>
        <time>2017-07-24T09:48:51Z</time>
      </trkpt>
      <trkpt lat="46.56393" lon="4.91159">
        <ele>173</ele>
        <time>2017-07-24T09:48:58Z</time>
      </trkpt>
      <trkpt lat="46.56397" lon="4.91172">
        <ele>172.80000305176</ele>
        <time>2017-07-24T09:49:00Z</time>
      </trkpt>
      <trkpt lat="46.56403" lon="4.91197">
        <ele>172.60000610352</ele>
        <time>2017-07-24T09:49:04Z</time>
      </trkpt>
      <trkpt lat="46.56403" lon="4.91205">
        <ele>172.39999389648</ele>
        <time>2017-07-24T09:49:06Z</time>
      </trkpt>
      <trkpt lat="46.56398" lon="4.91211">
        <ele>172</ele>
        <time>2017-07-24T09:49:08Z</time>
      </trkpt>
      <trkpt lat="46.56391" lon="4.91216">
        <ele>171.80000305176</ele>
        <time>2017-07-24T09:49:10Z</time>
      </trkpt>
      <trkpt lat="46.56377" lon="4.91224">
        <ele>171.60000610352</ele>
        <time>2017-07-24T09:49:13Z</time>
      </trkpt>
      <trkpt lat="46.56352" lon="4.91236">
        <ele>170.60000610352</ele>
        <time>2017-07-24T09:49:17Z</time>
      </trkpt>
      <trkpt lat="46.56345" lon="4.9124">
        <ele>170.39999389648</ele>
        <time>2017-07-24T09:49:18Z</time>
      </trkpt>
      <trkpt lat="46.56327" lon="4.91249">
        <ele>169.60000610352</ele>
        <time>2017-07-24T09:49:21Z</time>
      </trkpt>
      <trkpt lat="46.56304" lon="4.91264">
        <ele>168.39999389648</ele>
        <time>2017-07-24T09:49:25Z</time>
      </trkpt>
      <trkpt lat="46.56275" lon="4.91288">
        <ele>167.60000610352</ele>
        <time>2017-07-24T09:49:31Z</time>
      </trkpt>
      <trkpt lat="46.56255" lon="4.91307">
        <ele>167.60000610352</ele>
        <time>2017-07-24T09:49:36Z</time>
      </trkpt>
      <trkpt lat="46.56251" lon="4.91309">
        <ele>167.60000610352</ele>
        <time>2017-07-24T09:49:37Z</time>
      </trkpt>
      <trkpt lat="46.56248" lon="4.91312">
        <ele>167.60000610352</ele>
        <time>2017-07-24T09:49:38Z</time>
      </trkpt>
      <trkpt lat="46.56238" lon="4.91323">
        <ele>167.60000610352</ele>
        <time>2017-07-24T09:49:42Z</time>
      </trkpt>
      <trkpt lat="46.56236" lon="4.9133">
        <ele>167.39999389648</ele>
        <time>2017-07-24T09:49:45Z</time>
      </trkpt>
      <trkpt lat="46.56235" lon="4.91332">
        <ele>167.39999389648</ele>
        <time>2017-07-24T09:49:46Z</time>
      </trkpt>
      <trkpt lat="46.56234" lon="4.91334">
        <ele>167.19999694824</ele>
        <time>2017-07-24T09:49:47Z</time>
      </trkpt>
      <trkpt lat="46.56227" lon="4.91345">
        <ele>167.19999694824</ele>
        <time>2017-07-24T09:49:52Z</time>
      </trkpt>
      <trkpt lat="46.56216" lon="4.91355">
        <ele>167.19999694824</ele>
        <time>2017-07-24T09:49:58Z</time>
      </trkpt>
      <trkpt lat="46.56213" lon="4.91357">
        <ele>166.80000305176</ele>
        <time>2017-07-24T09:50:01Z</time>
      </trkpt>
      <trkpt lat="46.56212" lon="4.91355">
        <ele>166.80000305176</ele>
        <time>2017-07-24T09:50:03Z</time>
      </trkpt>
      <trkpt lat="46.56128" lon="4.91425">
        <ele>166.80000305176</ele>
        <time>2017-07-24T10:34:54Z</time>
      </trkpt>
      <trkpt lat="46.56128" lon="4.9142">
        <ele>166.80000305176</ele>
        <time>2017-07-24T10:35:54Z</time>
      </trkpt>
      <trkpt lat="46.56124" lon="4.91424">
        <ele>166.80000305176</ele>
        <time>2017-07-24T10:35:57Z</time>
      </trkpt>
      <trkpt lat="46.56112" lon="4.91438">
        <ele>166.60000610352</ele>
        <time>2017-07-24T10:36:03Z</time>
      </trkpt>
      <trkpt lat="46.56099" lon="4.91451">
        <ele>166.60000610352</ele>
        <time>2017-07-24T10:36:08Z</time>
      </trkpt>
      <trkpt lat="46.56083" lon="4.91467">
        <ele>166.80000305176</ele>
        <time>2017-07-24T10:36:13Z</time>
      </trkpt>
      <trkpt lat="46.56059" lon="4.91496">
        <ele>166.80000305176</ele>
        <time>2017-07-24T10:36:21Z</time>
      </trkpt>
      <trkpt lat="46.56031" lon="4.9153">
        <ele>166.60000610352</ele>
        <time>2017-07-24T10:36:31Z</time>
      </trkpt>
      <trkpt lat="46.56005" lon="4.91552">
        <ele>166.39999389648</ele>
        <time>2017-07-24T10:36:39Z</time>
      </trkpt>
      <trkpt lat="46.55985" lon="4.91564">
        <ele>166.19999694824</ele>
        <time>2017-07-24T10:36:45Z</time>
      </trkpt>
      <trkpt lat="46.55962" lon="4.91579">
        <ele>166.39999389648</ele>
        <time>2017-07-24T10:36:51Z</time>
      </trkpt>
      <trkpt lat="46.55955" lon="4.91583">
        <ele>166.39999389648</ele>
        <time>2017-07-24T10:36:53Z</time>
      </trkpt>
      <trkpt lat="46.55947" lon="4.91588">
        <ele>166.19999694824</ele>
        <time>2017-07-24T10:36:55Z</time>
      </trkpt>
      <trkpt lat="46.55931" lon="4.91599">
        <ele>166.39999389648</ele>
        <time>2017-07-24T10:36:59Z</time>
      </trkpt>
      <trkpt lat="46.55896" lon="4.91621">
        <ele>166.39999389648</ele>
        <time>2017-07-24T10:37:08Z</time>
      </trkpt>
      <trkpt lat="46.55873" lon="4.91635">
        <ele>166.39999389648</ele>
        <time>2017-07-24T10:37:14Z</time>
      </trkpt>
      <trkpt lat="46.55848" lon="4.91648">
        <ele>165.80000305176</ele>
        <time>2017-07-24T10:37:21Z</time>
      </trkpt>
      <trkpt lat="46.55834" lon="4.91661">
        <ele>165.80000305176</ele>
        <time>2017-07-24T10:37:26Z</time>
      </trkpt>
      <trkpt lat="46.55829" lon="4.91665">
        <ele>165.80000305176</ele>
        <time>2017-07-24T10:37:28Z</time>
      </trkpt>
      <trkpt lat="46.55821" lon="4.91665">
        <ele>166</ele>
        <time>2017-07-24T10:37:31Z</time>
      </trkpt>
      <trkpt lat="46.55805" lon="4.91674">
        <ele>166</ele>
        <time>2017-07-24T10:37:37Z</time>
      </trkpt>
      <trkpt lat="46.55805" lon="4.91675">
        <ele>166</ele>
        <time>2017-07-24T10:37:38Z</time>
      </trkpt>
      <trkpt lat="46.55806" lon="4.91681">
        <ele>166</ele>
        <time>2017-07-24T10:37:41Z</time>
      </trkpt>
      <trkpt lat="46.55804" lon="4.91697">
        <ele>165.80000305176</ele>
        <time>2017-07-24T10:37:46Z</time>
      </trkpt>
      <trkpt lat="46.55794" lon="4.91708">
        <ele>165.60000610352</ele>
        <time>2017-07-24T10:37:51Z</time>
      </trkpt>
      <trkpt lat="46.55775" lon="4.91717">
        <ele>165.39999389648</ele>
        <time>2017-07-24T10:37:58Z</time>
      </trkpt>
      <trkpt lat="46.55756" lon="4.91723">
        <ele>165.60000610352</ele>
        <time>2017-07-24T10:38:04Z</time>
      </trkpt>
      <trkpt lat="46.55733" lon="4.91728">
        <ele>165.80000305176</ele>
        <time>2017-07-24T10:38:11Z</time>
      </trkpt>
      <trkpt lat="46.55708" lon="4.91737">
        <ele>165.60000610352</ele>
        <time>2017-07-24T10:38:19Z</time>
      </trkpt>
      <trkpt lat="46.55692" lon="4.91742">
        <ele>165.60000610352</ele>
        <time>2017-07-24T10:38:24Z</time>
      </trkpt>
      <trkpt lat="46.55673" lon="4.91745">
        <ele>165.80000305176</ele>
        <time>2017-07-24T10:38:30Z</time>
      </trkpt>
      <trkpt lat="46.55646" lon="4.91753">
        <ele>165.80000305176</ele>
        <time>2017-07-24T10:38:37Z</time>
      </trkpt>
      <trkpt lat="46.55626" lon="4.91758">
        <ele>166</ele>
        <time>2017-07-24T10:38:43Z</time>
      </trkpt>
      <trkpt lat="46.55609" lon="4.9176">
        <ele>166</ele>
        <time>2017-07-24T10:38:49Z</time>
      </trkpt>
      <trkpt lat="46.55591" lon="4.91764">
        <ele>165.80000305176</ele>
        <time>2017-07-24T10:38:55Z</time>
      </trkpt>
      <trkpt lat="46.5557" lon="4.91771">
        <ele>166</ele>
        <time>2017-07-24T10:39:02Z</time>
      </trkpt>
      <trkpt lat="46.55552" lon="4.91778">
        <ele>166.39999389648</ele>
        <time>2017-07-24T10:39:07Z</time>
      </trkpt>
      <trkpt lat="46.55524" lon="4.91791">
        <ele>166.19999694824</ele>
        <time>2017-07-24T10:39:13Z</time>
      </trkpt>
      <trkpt lat="46.55495" lon="4.91805">
        <ele>166</ele>
        <time>2017-07-24T10:39:20Z</time>
      </trkpt>
      <trkpt lat="46.55491" lon="4.91807">
        <ele>166</ele>
        <time>2017-07-24T10:39:21Z</time>
      </trkpt>
      <trkpt lat="46.55468" lon="4.91818">
        <ele>166</ele>
        <time>2017-07-24T10:39:26Z</time>
      </trkpt>
      <trkpt lat="46.5543" lon="4.91838">
        <ele>165.80000305176</ele>
        <time>2017-07-24T10:39:35Z</time>
      </trkpt>
      <trkpt lat="46.55398" lon="4.91856">
        <ele>165.39999389648</ele>
        <time>2017-07-24T10:39:43Z</time>
      </trkpt>
      <trkpt lat="46.55352" lon="4.91881">
        <ele>164.80000305176</ele>
        <time>2017-07-24T10:39:54Z</time>
      </trkpt>
      <trkpt lat="46.55321" lon="4.91897">
        <ele>164.60000610352</ele>
        <time>2017-07-24T10:40:01Z</time>
      </trkpt>
      <trkpt lat="46.55312" lon="4.91902">
        <ele>164.60000610352</ele>
        <time>2017-07-24T10:40:03Z</time>
      </trkpt>
      <trkpt lat="46.55272" lon="4.91924">
        <ele>164.60000610352</ele>
        <time>2017-07-24T10:40:12Z</time>
      </trkpt>
      <trkpt lat="46.55244" lon="4.91937">
        <ele>164.39999389648</ele>
        <time>2017-07-24T10:40:19Z</time>
      </trkpt>
      <trkpt lat="46.55226" lon="4.91944">
        <ele>164.39999389648</ele>
        <time>2017-07-24T10:40:24Z</time>
      </trkpt>
      <trkpt lat="46.55203" lon="4.91956">
        <ele>164.60000610352</ele>
        <time>2017-07-24T10:40:30Z</time>
      </trkpt>
      <trkpt lat="46.5517" lon="4.91972">
        <ele>164.60000610352</ele>
        <time>2017-07-24T10:40:39Z</time>
      </trkpt>
      <trkpt lat="46.55144" lon="4.91985">
        <ele>164.60000610352</ele>
        <time>2017-07-24T10:40:46Z</time>
      </trkpt>
      <trkpt lat="46.55109" lon="4.92">
        <ele>164.80000305176</ele>
        <time>2017-07-24T10:40:55Z</time>
      </trkpt>
      <trkpt lat="46.55082" lon="4.92009">
        <ele>165</ele>
        <time>2017-07-24T10:41:02Z</time>
      </trkpt>
      <trkpt lat="46.55064" lon="4.92015">
        <ele>165.19999694824</ele>
        <time>2017-07-24T10:41:08Z</time>
      </trkpt>
      <trkpt lat="46.55056" lon="4.92018">
        <ele>164.80000305176</ele>
        <time>2017-07-24T10:43:20Z</time>
      </trkpt>
      <trkpt lat="46.55051" lon="4.9202">
        <ele>164.80000305176</ele>
        <time>2017-07-24T10:43:23Z</time>
      </trkpt>
      <trkpt lat="46.55044" lon="4.92022">
        <ele>164.80000305176</ele>
        <time>2017-07-24T10:43:26Z</time>
      </trkpt>
      <trkpt lat="46.55035" lon="4.92025">
        <ele>164.80000305176</ele>
        <time>2017-07-24T10:43:30Z</time>
      </trkpt>
      <trkpt lat="46.55032" lon="4.92027">
        <ele>164.80000305176</ele>
        <time>2017-07-24T10:43:31Z</time>
      </trkpt>
      <trkpt lat="46.55012" lon="4.92034">
        <ele>164.80000305176</ele>
        <time>2017-07-24T10:43:37Z</time>
      </trkpt>
      <trkpt lat="46.54997" lon="4.9204">
        <ele>164.60000610352</ele>
        <time>2017-07-24T10:43:41Z</time>
      </trkpt>
      <trkpt lat="46.54993" lon="4.92041">
        <ele>164.60000610352</ele>
        <time>2017-07-24T10:43:42Z</time>
      </trkpt>
      <trkpt lat="46.5498" lon="4.92045">
        <ele>164.60000610352</ele>
        <time>2017-07-24T10:43:45Z</time>
      </trkpt>
      <trkpt lat="46.54963" lon="4.92052">
        <ele>164.80000305176</ele>
        <time>2017-07-24T10:43:49Z</time>
      </trkpt>
      <trkpt lat="46.54932" lon="4.92066">
        <ele>164.80000305176</ele>
        <time>2017-07-24T10:43:56Z</time>
      </trkpt>
      <trkpt lat="46.54912" lon="4.92078">
        <ele>164.80000305176</ele>
        <time>2017-07-24T10:44:01Z</time>
      </trkpt>
      <trkpt lat="46.54908" lon="4.92081">
        <ele>164.60000610352</ele>
        <time>2017-07-24T10:44:02Z</time>
      </trkpt>
      <trkpt lat="46.54893" lon="4.92087">
        <ele>164.60000610352</ele>
        <time>2017-07-24T10:44:05Z</time>
      </trkpt>
      <trkpt lat="46.54879" lon="4.92096">
        <ele>164.60000610352</ele>
        <time>2017-07-24T10:44:08Z</time>
      </trkpt>
      <trkpt lat="46.54839" lon="4.92124">
        <ele>164.60000610352</ele>
        <time>2017-07-24T10:44:16Z</time>
      </trkpt>
      <trkpt lat="46.54804" lon="4.92161">
        <ele>164.39999389648</ele>
        <time>2017-07-24T10:44:24Z</time>
      </trkpt>
      <trkpt lat="46.54776" lon="4.92195">
        <ele>164.39999389648</ele>
        <time>2017-07-24T10:44:31Z</time>
      </trkpt>
      <trkpt lat="46.54768" lon="4.92202">
        <ele>164.60000610352</ele>
        <time>2017-07-24T10:44:33Z</time>
      </trkpt>
      <trkpt lat="46.54737" lon="4.92227">
        <ele>164.60000610352</ele>
        <time>2017-07-24T10:44:40Z</time>
      </trkpt>
      <trkpt lat="46.5471" lon="4.92249">
        <ele>164.60000610352</ele>
        <time>2017-07-24T10:44:46Z</time>
      </trkpt>
      <trkpt lat="46.54705" lon="4.92253">
        <ele>164.60000610352</ele>
        <time>2017-07-24T10:44:47Z</time>
      </trkpt>
      <trkpt lat="46.54661" lon="4.92281">
        <ele>164.39999389648</ele>
        <time>2017-07-24T10:44:56Z</time>
      </trkpt>
      <trkpt lat="46.54621" lon="4.92305">
        <ele>164.19999694824</ele>
        <time>2017-07-24T10:45:04Z</time>
      </trkpt>
      <trkpt lat="46.5458" lon="4.9233">
        <ele>164.19999694824</ele>
        <time>2017-07-24T10:45:12Z</time>
      </trkpt>
      <trkpt lat="46.54535" lon="4.92362">
        <ele>164.60000610352</ele>
        <time>2017-07-24T10:45:21Z</time>
      </trkpt>
      <trkpt lat="46.54497" lon="4.92392">
        <ele>164.39999389648</ele>
        <time>2017-07-24T10:45:29Z</time>
      </trkpt>
      <trkpt lat="46.54464" lon="4.92418">
        <ele>164.39999389648</ele>
        <time>2017-07-24T10:45:36Z</time>
      </trkpt>
      <trkpt lat="46.54438" lon="4.92438">
        <ele>164.60000610352</ele>
        <time>2017-07-24T10:45:42Z</time>
      </trkpt>
      <trkpt lat="46.54433" lon="4.9244">
        <ele>164.80000305176</ele>
        <time>2017-07-24T10:45:43Z</time>
      </trkpt>
      <trkpt lat="46.54405" lon="4.92456">
        <ele>165.19999694824</ele>
        <time>2017-07-24T10:45:49Z</time>
      </trkpt>
      <trkpt lat="46.5439" lon="4.92461">
        <ele>165.19999694824</ele>
        <time>2017-07-24T10:45:52Z</time>
      </trkpt>
      <trkpt lat="46.54356" lon="4.92472">
        <ele>165.39999389648</ele>
        <time>2017-07-24T10:45:59Z</time>
      </trkpt>
      <trkpt lat="46.54325" lon="4.9249">
        <ele>165.39999389648</ele>
        <time>2017-07-24T10:46:06Z</time>
      </trkpt>
      <trkpt lat="46.54312" lon="4.92498">
        <ele>165.39999389648</ele>
        <time>2017-07-24T10:46:09Z</time>
      </trkpt>
      <trkpt lat="46.54297" lon="4.92506">
        <ele>165.39999389648</ele>
        <time>2017-07-24T10:46:12Z</time>
      </trkpt>
      <trkpt lat="46.54257" lon="4.92533">
        <ele>165.19999694824</ele>
        <time>2017-07-24T10:46:20Z</time>
      </trkpt>
      <trkpt lat="46.54219" lon="4.92552">
        <ele>165.19999694824</ele>
        <time>2017-07-24T10:46:27Z</time>
      </trkpt>
      <trkpt lat="46.54182" lon="4.9257">
        <ele>165.39999389648</ele>
        <time>2017-07-24T10:46:34Z</time>
      </trkpt>
      <trkpt lat="46.54171" lon="4.92577">
        <ele>165.19999694824</ele>
        <time>2017-07-24T10:46:36Z</time>
      </trkpt>
      <trkpt lat="46.5412" lon="4.92604">
        <ele>165</ele>
        <time>2017-07-24T10:46:45Z</time>
      </trkpt>
      <trkpt lat="46.54064" lon="4.9263">
        <ele>164.60000610352</ele>
        <time>2017-07-24T10:46:54Z</time>
      </trkpt>
      <trkpt lat="46.54008" lon="4.9265">
        <ele>164.60000610352</ele>
        <time>2017-07-24T10:47:03Z</time>
      </trkpt>
      <trkpt lat="46.53959" lon="4.92672">
        <ele>164.80000305176</ele>
        <time>2017-07-24T10:47:11Z</time>
      </trkpt>
      <trkpt lat="46.53901" lon="4.92696">
        <ele>164.60000610352</ele>
        <time>2017-07-24T10:47:20Z</time>
      </trkpt>
      <trkpt lat="46.53865" lon="4.92715">
        <ele>165</ele>
        <time>2017-07-24T10:47:26Z</time>
      </trkpt>
      <trkpt lat="46.53853" lon="4.92722">
        <ele>165</ele>
        <time>2017-07-24T10:47:28Z</time>
      </trkpt>
      <trkpt lat="46.53805" lon="4.92751">
        <ele>164.80000305176</ele>
        <time>2017-07-24T10:47:36Z</time>
      </trkpt>
      <trkpt lat="46.53752" lon="4.92784">
        <ele>165</ele>
        <time>2017-07-24T10:47:45Z</time>
      </trkpt>
      <trkpt lat="46.53698" lon="4.92814">
        <ele>164.39999389648</ele>
        <time>2017-07-24T10:47:54Z</time>
      </trkpt>
      <trkpt lat="46.53691" lon="4.92817">
        <ele>164.39999389648</ele>
        <time>2017-07-24T10:47:55Z</time>
      </trkpt>
      <trkpt lat="46.53636" lon="4.92849">
        <ele>164.60000610352</ele>
        <time>2017-07-24T10:48:04Z</time>
      </trkpt>
      <trkpt lat="46.53594" lon="4.92871">
        <ele>164.80000305176</ele>
        <time>2017-07-24T10:48:11Z</time>
      </trkpt>
      <trkpt lat="46.53558" lon="4.9289">
        <ele>165.60000610352</ele>
        <time>2017-07-24T10:48:18Z</time>
      </trkpt>
      <trkpt lat="46.53553" lon="4.92892">
        <ele>165.80000305176</ele>
        <time>2017-07-24T10:48:19Z</time>
      </trkpt>
      <trkpt lat="46.53549" lon="4.92896">
        <ele>166</ele>
        <time>2017-07-24T10:48:20Z</time>
      </trkpt>
      <trkpt lat="46.53531" lon="4.92906">
        <ele>166.80000305176</ele>
        <time>2017-07-24T10:48:24Z</time>
      </trkpt>
      <trkpt lat="46.53527" lon="4.92909">
        <ele>167</ele>
        <time>2017-07-24T10:48:25Z</time>
      </trkpt>
      <trkpt lat="46.53497" lon="4.92926">
        <ele>167.39999389648</ele>
        <time>2017-07-24T10:48:31Z</time>
      </trkpt>
      <trkpt lat="46.53466" lon="4.92945">
        <ele>167.39999389648</ele>
        <time>2017-07-24T10:48:36Z</time>
      </trkpt>
      <trkpt lat="46.53427" lon="4.92975">
        <ele>166.39999389648</ele>
        <time>2017-07-24T10:48:42Z</time>
      </trkpt>
      <trkpt lat="46.53394" lon="4.93003">
        <ele>165.80000305176</ele>
        <time>2017-07-24T10:48:47Z</time>
      </trkpt>
      <trkpt lat="46.53388" lon="4.93008">
        <ele>165.80000305176</ele>
        <time>2017-07-24T10:48:48Z</time>
      </trkpt>
      <trkpt lat="46.53335" lon="4.93047">
        <ele>165.60000610352</ele>
        <time>2017-07-24T10:48:56Z</time>
      </trkpt>
      <trkpt lat="46.53328" lon="4.93052">
        <ele>165.60000610352</ele>
        <time>2017-07-24T10:48:57Z</time>
      </trkpt>
      <trkpt lat="46.53282" lon="4.93094">
        <ele>165.19999694824</ele>
        <time>2017-07-24T10:49:05Z</time>
      </trkpt>
      <trkpt lat="46.5324" lon="4.93124">
        <ele>165.39999389648</ele>
        <time>2017-07-24T10:49:12Z</time>
      </trkpt>
      <trkpt lat="46.53223" lon="4.93137">
        <ele>165.60000610352</ele>
        <time>2017-07-24T10:49:15Z</time>
      </trkpt>
      <trkpt lat="46.53188" lon="4.93165">
        <ele>165.60000610352</ele>
        <time>2017-07-24T10:49:21Z</time>
      </trkpt>
      <trkpt lat="46.53134" lon="4.93201">
        <ele>165.80000305176</ele>
        <time>2017-07-24T10:49:30Z</time>
      </trkpt>
      <trkpt lat="46.53087" lon="4.93237">
        <ele>166.19999694824</ele>
        <time>2017-07-24T10:49:39Z</time>
      </trkpt>
      <trkpt lat="46.53082" lon="4.93241">
        <ele>166.39999389648</ele>
        <time>2017-07-24T10:49:40Z</time>
      </trkpt>
      <trkpt lat="46.53051" lon="4.93269">
        <ele>167</ele>
        <time>2017-07-24T10:49:46Z</time>
      </trkpt>
      <trkpt lat="46.53046" lon="4.93274">
        <ele>167</ele>
        <time>2017-07-24T10:49:47Z</time>
      </trkpt>
      <trkpt lat="46.53002" lon="4.93317">
        <ele>166.60000610352</ele>
        <time>2017-07-24T10:49:55Z</time>
      </trkpt>
      <trkpt lat="46.52956" lon="4.93361">
        <ele>166.39999389648</ele>
        <time>2017-07-24T10:50:03Z</time>
      </trkpt>
      <trkpt lat="46.52951" lon="4.93366">
        <ele>166.39999389648</ele>
        <time>2017-07-24T10:50:04Z</time>
      </trkpt>
      <trkpt lat="46.52904" lon="4.93409">
        <ele>166.19999694824</ele>
        <time>2017-07-24T10:50:12Z</time>
      </trkpt>
      <trkpt lat="46.52898" lon="4.93414">
        <ele>166</ele>
        <time>2017-07-24T10:50:13Z</time>
      </trkpt>
      <trkpt lat="46.52887" lon="4.93424">
        <ele>166</ele>
        <time>2017-07-24T10:50:15Z</time>
      </trkpt>
      <trkpt lat="46.52869" lon="4.93439">
        <ele>165.80000305176</ele>
        <time>2017-07-24T10:50:18Z</time>
      </trkpt>
      <trkpt lat="46.52864" lon="4.93443">
        <ele>165.80000305176</ele>
        <time>2017-07-24T10:50:19Z</time>
      </trkpt>
      <trkpt lat="46.52829" lon="4.9347">
        <ele>165.39999389648</ele>
        <time>2017-07-24T10:50:25Z</time>
      </trkpt>
      <trkpt lat="46.52793" lon="4.93493">
        <ele>165.60000610352</ele>
        <time>2017-07-24T10:50:31Z</time>
      </trkpt>
      <trkpt lat="46.52765" lon="4.93515">
        <ele>165.39999389648</ele>
        <time>2017-07-24T10:50:36Z</time>
      </trkpt>
      <trkpt lat="46.52758" lon="4.93519">
        <ele>165.39999389648</ele>
        <time>2017-07-24T10:50:37Z</time>
      </trkpt>
      <trkpt lat="46.52724" lon="4.93537">
        <ele>164.80000305176</ele>
        <time>2017-07-24T10:50:42Z</time>
      </trkpt>
      <trkpt lat="46.52697" lon="4.93549">
        <ele>164.60000610352</ele>
        <time>2017-07-24T10:50:46Z</time>
      </trkpt>
      <trkpt lat="46.52644" lon="4.93572">
        <ele>164.39999389648</ele>
        <time>2017-07-24T10:50:54Z</time>
      </trkpt>
      <trkpt lat="46.52638" lon="4.93575">
        <ele>164.60000610352</ele>
        <time>2017-07-24T10:50:55Z</time>
      </trkpt>
      <trkpt lat="46.52601" lon="4.9359">
        <ele>164.60000610352</ele>
        <time>2017-07-24T10:51:01Z</time>
      </trkpt>
      <trkpt lat="46.52553" lon="4.93603">
        <ele>164.39999389648</ele>
        <time>2017-07-24T10:51:09Z</time>
      </trkpt>
      <trkpt lat="46.52521" lon="4.93606">
        <ele>164.80000305176</ele>
        <time>2017-07-24T10:51:15Z</time>
      </trkpt>
      <trkpt lat="46.52515" lon="4.93608">
        <ele>164.80000305176</ele>
        <time>2017-07-24T10:51:16Z</time>
      </trkpt>
      <trkpt lat="46.52492" lon="4.93617">
        <ele>164.80000305176</ele>
        <time>2017-07-24T10:51:20Z</time>
      </trkpt>
      <trkpt lat="46.52486" lon="4.9362">
        <ele>164.80000305176</ele>
        <time>2017-07-24T10:51:21Z</time>
      </trkpt>
      <trkpt lat="46.52443" lon="4.93631">
        <ele>164.60000610352</ele>
        <time>2017-07-24T10:51:28Z</time>
      </trkpt>
      <trkpt lat="46.52402" lon="4.93637">
        <ele>165</ele>
        <time>2017-07-24T10:51:35Z</time>
      </trkpt>
      <trkpt lat="46.52355" lon="4.93651">
        <ele>165.39999389648</ele>
        <time>2017-07-24T10:51:43Z</time>
      </trkpt>
      <trkpt lat="46.52333" lon="4.93664">
        <ele>165.39999389648</ele>
        <time>2017-07-24T10:51:47Z</time>
      </trkpt>
      <trkpt lat="46.5229" lon="4.93679">
        <ele>165.19999694824</ele>
        <time>2017-07-24T10:51:54Z</time>
      </trkpt>
      <trkpt lat="46.52235" lon="4.93688">
        <ele>164.80000305176</ele>
        <time>2017-07-24T10:52:03Z</time>
      </trkpt>
      <trkpt lat="46.52229" lon="4.93688">
        <ele>164.80000305176</ele>
        <time>2017-07-24T10:52:04Z</time>
      </trkpt>
      <trkpt lat="46.52181" lon="4.9369">
        <ele>164.80000305176</ele>
        <time>2017-07-24T10:52:12Z</time>
      </trkpt>
      <trkpt lat="46.52142" lon="4.93693">
        <ele>165.39999389648</ele>
        <time>2017-07-24T10:52:19Z</time>
      </trkpt>
      <trkpt lat="46.5209" lon="4.93702">
        <ele>165.19999694824</ele>
        <time>2017-07-24T10:52:28Z</time>
      </trkpt>
      <trkpt lat="46.52066" lon="4.93706">
        <ele>165.39999389648</ele>
        <time>2017-07-24T10:52:32Z</time>
      </trkpt>
      <trkpt lat="46.52037" lon="4.93708">
        <ele>165.60000610352</ele>
        <time>2017-07-24T10:52:37Z</time>
      </trkpt>
      <trkpt lat="46.51996" lon="4.93702">
        <ele>165.39999389648</ele>
        <time>2017-07-24T10:52:44Z</time>
      </trkpt>
      <trkpt lat="46.5196" lon="4.9369">
        <ele>165.39999389648</ele>
        <time>2017-07-24T10:52:50Z</time>
      </trkpt>
      <trkpt lat="46.5191" lon="4.93676">
        <ele>165</ele>
        <time>2017-07-24T10:52:58Z</time>
      </trkpt>
      <trkpt lat="46.51865" lon="4.93659">
        <ele>165.39999389648</ele>
        <time>2017-07-24T10:53:06Z</time>
      </trkpt>
      <trkpt lat="46.51822" lon="4.93645">
        <ele>165.60000610352</ele>
        <time>2017-07-24T10:53:13Z</time>
      </trkpt>
      <trkpt lat="46.51785" lon="4.93628">
        <ele>165.19999694824</ele>
        <time>2017-07-24T10:53:19Z</time>
      </trkpt>
      <trkpt lat="46.51737" lon="4.93602">
        <ele>165.19999694824</ele>
        <time>2017-07-24T10:53:27Z</time>
      </trkpt>
      <trkpt lat="46.5169" lon="4.93577">
        <ele>165</ele>
        <time>2017-07-24T10:53:35Z</time>
      </trkpt>
      <trkpt lat="46.5164" lon="4.93543">
        <ele>165.19999694824</ele>
        <time>2017-07-24T10:53:44Z</time>
      </trkpt>
      <trkpt lat="46.51613" lon="4.93521">
        <ele>165.19999694824</ele>
        <time>2017-07-24T10:53:49Z</time>
      </trkpt>
      <trkpt lat="46.51596" lon="4.93506">
        <ele>165</ele>
        <time>2017-07-24T10:53:52Z</time>
      </trkpt>
      <trkpt lat="46.51553" lon="4.93464">
        <ele>165</ele>
        <time>2017-07-24T10:54:00Z</time>
      </trkpt>
      <trkpt lat="46.51514" lon="4.93421">
        <ele>165</ele>
        <time>2017-07-24T10:54:08Z</time>
      </trkpt>
      <trkpt lat="46.51485" lon="4.93389">
        <ele>164.80000305176</ele>
        <time>2017-07-24T10:54:14Z</time>
      </trkpt>
      <trkpt lat="46.51449" lon="4.93349">
        <ele>164.60000610352</ele>
        <time>2017-07-24T10:54:21Z</time>
      </trkpt>
      <trkpt lat="46.51403" lon="4.93299">
        <ele>164</ele>
        <time>2017-07-24T10:54:30Z</time>
      </trkpt>
      <trkpt lat="46.51364" lon="4.93259">
        <ele>164.19999694824</ele>
        <time>2017-07-24T10:54:38Z</time>
      </trkpt>
      <trkpt lat="46.51319" lon="4.93215">
        <ele>164.39999389648</ele>
        <time>2017-07-24T10:54:47Z</time>
      </trkpt>
      <trkpt lat="46.51278" lon="4.93179">
        <ele>164.19999694824</ele>
        <time>2017-07-24T10:54:55Z</time>
      </trkpt>
      <trkpt lat="46.51249" lon="4.93151">
        <ele>164.60000610352</ele>
        <time>2017-07-24T10:55:01Z</time>
      </trkpt>
      <trkpt lat="46.5121" lon="4.93111">
        <ele>164.19999694824</ele>
        <time>2017-07-24T10:55:09Z</time>
      </trkpt>
      <trkpt lat="46.51167" lon="4.93078">
        <ele>164.19999694824</ele>
        <time>2017-07-24T10:55:17Z</time>
      </trkpt>
      <trkpt lat="46.5113" lon="4.93045">
        <ele>164.19999694824</ele>
        <time>2017-07-24T10:55:24Z</time>
      </trkpt>
      <trkpt lat="46.51094" lon="4.93018">
        <ele>164.60000610352</ele>
        <time>2017-07-24T10:55:31Z</time>
      </trkpt>
      <trkpt lat="46.51055" lon="4.92994">
        <ele>164.39999389648</ele>
        <time>2017-07-24T10:55:38Z</time>
      </trkpt>
      <trkpt lat="46.51011" lon="4.92967">
        <ele>164.39999389648</ele>
        <time>2017-07-24T10:55:46Z</time>
      </trkpt>
      <trkpt lat="46.50972" lon="4.92946">
        <ele>164.19999694824</ele>
        <time>2017-07-24T10:55:53Z</time>
      </trkpt>
      <trkpt lat="46.5094" lon="4.92927">
        <ele>164.39999389648</ele>
        <time>2017-07-24T10:55:59Z</time>
      </trkpt>
      <trkpt lat="46.50902" lon="4.92912">
        <ele>164.60000610352</ele>
        <time>2017-07-24T10:56:06Z</time>
      </trkpt>
      <trkpt lat="46.50861" lon="4.92899">
        <ele>164.60000610352</ele>
        <time>2017-07-24T10:56:13Z</time>
      </trkpt>
      <trkpt lat="46.50807" lon="4.92889">
        <ele>164.60000610352</ele>
        <time>2017-07-24T10:56:22Z</time>
      </trkpt>
      <trkpt lat="46.50776" lon="4.92876">
        <ele>164.80000305176</ele>
        <time>2017-07-24T10:56:28Z</time>
      </trkpt>
      <trkpt lat="46.5077" lon="4.92875">
        <ele>164.80000305176</ele>
        <time>2017-07-24T10:56:29Z</time>
      </trkpt>
      <trkpt lat="46.50752" lon="4.92871">
        <ele>165</ele>
        <time>2017-07-24T10:56:32Z</time>
      </trkpt>
      <trkpt lat="46.5074" lon="4.92869">
        <ele>165</ele>
        <time>2017-07-24T10:56:34Z</time>
      </trkpt>
      <trkpt lat="46.50715" lon="4.92863">
        <ele>165</ele>
        <time>2017-07-24T10:56:38Z</time>
      </trkpt>
      <trkpt lat="46.50666" lon="4.92847">
        <ele>165</ele>
        <time>2017-07-24T10:56:46Z</time>
      </trkpt>
      <trkpt lat="46.50611" lon="4.92827">
        <ele>165.39999389648</ele>
        <time>2017-07-24T10:56:55Z</time>
      </trkpt>
      <trkpt lat="46.50573" lon="4.92812">
        <ele>165.19999694824</ele>
        <time>2017-07-24T10:57:02Z</time>
      </trkpt>
      <trkpt lat="46.5054" lon="4.928">
        <ele>165.19999694824</ele>
        <time>2017-07-24T10:57:09Z</time>
      </trkpt>
      <trkpt lat="46.50507" lon="4.92789">
        <ele>165.80000305176</ele>
        <time>2017-07-24T10:57:16Z</time>
      </trkpt>
      <trkpt lat="46.50486" lon="4.92775">
        <ele>166.80000305176</ele>
        <time>2017-07-24T10:57:21Z</time>
      </trkpt>
      <trkpt lat="46.50483" lon="4.92771">
        <ele>167</ele>
        <time>2017-07-24T10:57:22Z</time>
      </trkpt>
      <trkpt lat="46.50453" lon="4.92744">
        <ele>166.39999389648</ele>
        <time>2017-07-24T10:57:29Z</time>
      </trkpt>
      <trkpt lat="46.50444" lon="4.92738">
        <ele>166</ele>
        <time>2017-07-24T10:57:31Z</time>
      </trkpt>
      <trkpt lat="46.50425" lon="4.92726">
        <ele>165.80000305176</ele>
        <time>2017-07-24T10:57:35Z</time>
      </trkpt>
      <trkpt lat="46.5041" lon="4.92719">
        <ele>166</ele>
        <time>2017-07-24T10:57:38Z</time>
      </trkpt>
      <trkpt lat="46.50394" lon="4.92712">
        <ele>166.19999694824</ele>
        <time>2017-07-24T10:57:41Z</time>
      </trkpt>
      <trkpt lat="46.50373" lon="4.92694">
        <ele>166.19999694824</ele>
        <time>2017-07-24T10:57:46Z</time>
      </trkpt>
      <trkpt lat="46.50369" lon="4.92692">
        <ele>166.19999694824</ele>
        <time>2017-07-24T10:57:47Z</time>
      </trkpt>
      <trkpt lat="46.50357" lon="4.92688">
        <ele>166.39999389648</ele>
        <time>2017-07-24T10:57:50Z</time>
      </trkpt>
      <trkpt lat="46.50353" lon="4.92688">
        <ele>166.39999389648</ele>
        <time>2017-07-24T10:57:51Z</time>
      </trkpt>
      <trkpt lat="46.50345" lon="4.92685">
        <ele>166.19999694824</ele>
        <time>2017-07-24T10:57:53Z</time>
      </trkpt>
      <trkpt lat="46.50328" lon="4.92677">
        <ele>166</ele>
        <time>2017-07-24T10:57:57Z</time>
      </trkpt>
      <trkpt lat="46.50295" lon="4.92657">
        <ele>165.39999389648</ele>
        <time>2017-07-24T10:58:03Z</time>
      </trkpt>
      <trkpt lat="46.50243" lon="4.92627">
        <ele>165.19999694824</ele>
        <time>2017-07-24T10:58:12Z</time>
      </trkpt>
      <trkpt lat="46.5023" lon="4.92622">
        <ele>165</ele>
        <time>2017-07-24T10:58:14Z</time>
      </trkpt>
      <trkpt lat="46.50218" lon="4.92619">
        <ele>165</ele>
        <time>2017-07-24T10:58:16Z</time>
      </trkpt>
      <trkpt lat="46.50185" lon="4.92612">
        <ele>164.39999389648</ele>
        <time>2017-07-24T10:58:21Z</time>
      </trkpt>
      <trkpt lat="46.50143" lon="4.92611">
        <ele>164.19999694824</ele>
        <time>2017-07-24T10:58:27Z</time>
      </trkpt>
      <trkpt lat="46.50104" lon="4.92611">
        <ele>164</ele>
        <time>2017-07-24T10:58:33Z</time>
      </trkpt>
      <trkpt lat="46.50097" lon="4.92611">
        <ele>163.80000305176</ele>
        <time>2017-07-24T10:58:34Z</time>
      </trkpt>
      <trkpt lat="46.50063" lon="4.92606">
        <ele>163.60000610352</ele>
        <time>2017-07-24T10:58:39Z</time>
      </trkpt>
      <trkpt lat="46.50012" lon="4.92591">
        <ele>164.19999694824</ele>
        <time>2017-07-24T10:58:47Z</time>
      </trkpt>
      <trkpt lat="46.49971" lon="4.92568">
        <ele>164.39999389648</ele>
        <time>2017-07-24T10:58:54Z</time>
      </trkpt>
      <trkpt lat="46.49924" lon="4.92541">
        <ele>164.80000305176</ele>
        <time>2017-07-24T10:59:02Z</time>
      </trkpt>
      <trkpt lat="46.49895" lon="4.92523">
        <ele>164.80000305176</ele>
        <time>2017-07-24T10:59:07Z</time>
      </trkpt>
      <trkpt lat="46.49871" lon="4.9251">
        <ele>164.80000305176</ele>
        <time>2017-07-24T10:59:11Z</time>
      </trkpt>
      <trkpt lat="46.49819" lon="4.92482">
        <ele>165.19999694824</ele>
        <time>2017-07-24T10:59:20Z</time>
      </trkpt>
      <trkpt lat="46.49768" lon="4.92453">
        <ele>165.39999389648</ele>
        <time>2017-07-24T10:59:29Z</time>
      </trkpt>
      <trkpt lat="46.49728" lon="4.92425">
        <ele>165.19999694824</ele>
        <time>2017-07-24T10:59:36Z</time>
      </trkpt>
      <trkpt lat="46.49678" lon="4.92379">
        <ele>165.19999694824</ele>
        <time>2017-07-24T10:59:45Z</time>
      </trkpt>
      <trkpt lat="46.49633" lon="4.92323">
        <ele>165</ele>
        <time>2017-07-24T10:59:54Z</time>
      </trkpt>
      <trkpt lat="46.49596" lon="4.92272">
        <ele>164.80000305176</ele>
        <time>2017-07-24T11:00:02Z</time>
      </trkpt>
      <trkpt lat="46.49561" lon="4.92215">
        <ele>165</ele>
        <time>2017-07-24T11:00:10Z</time>
      </trkpt>
      <trkpt lat="46.49525" lon="4.92149">
        <ele>165.19999694824</ele>
        <time>2017-07-24T11:00:19Z</time>
      </trkpt>
      <trkpt lat="46.49492" lon="4.92093">
        <ele>165</ele>
        <time>2017-07-24T11:00:27Z</time>
      </trkpt>
      <trkpt lat="46.49458" lon="4.92038">
        <ele>165.19999694824</ele>
        <time>2017-07-24T11:00:35Z</time>
      </trkpt>
      <trkpt lat="46.49445" lon="4.92017">
        <ele>165.19999694824</ele>
        <time>2017-07-24T11:00:38Z</time>
      </trkpt>
      <trkpt lat="46.49413" lon="4.91967">
        <ele>165.60000610352</ele>
        <time>2017-07-24T11:00:45Z</time>
      </trkpt>
      <trkpt lat="46.49391" lon="4.91932">
        <ele>165.39999389648</ele>
        <time>2017-07-24T11:00:50Z</time>
      </trkpt>
      <trkpt lat="46.49381" lon="4.9192">
        <ele>165.19999694824</ele>
        <time>2017-07-24T11:00:52Z</time>
      </trkpt>
      <trkpt lat="46.49344" lon="4.91869">
        <ele>165.39999389648</ele>
        <time>2017-07-24T11:01:00Z</time>
      </trkpt>
      <trkpt lat="46.49307" lon="4.9182">
        <ele>165.39999389648</ele>
        <time>2017-07-24T11:01:08Z</time>
      </trkpt>
      <trkpt lat="46.49274" lon="4.91775">
        <ele>165.19999694824</ele>
        <time>2017-07-24T11:01:15Z</time>
      </trkpt>
      <trkpt lat="46.49229" lon="4.91717">
        <ele>164.60000610352</ele>
        <time>2017-07-24T11:01:24Z</time>
      </trkpt>
      <trkpt lat="46.49195" lon="4.9166">
        <ele>164.19999694824</ele>
        <time>2017-07-24T11:01:32Z</time>
      </trkpt>
      <trkpt lat="46.49163" lon="4.9159">
        <ele>164.19999694824</ele>
        <time>2017-07-24T11:01:41Z</time>
      </trkpt>
      <trkpt lat="46.49135" lon="4.91527">
        <ele>164.19999694824</ele>
        <time>2017-07-24T11:01:49Z</time>
      </trkpt>
      <trkpt lat="46.49106" lon="4.91468">
        <ele>164.19999694824</ele>
        <time>2017-07-24T11:01:57Z</time>
      </trkpt>
      <trkpt lat="46.49077" lon="4.91422">
        <ele>164</ele>
        <time>2017-07-24T11:02:04Z</time>
      </trkpt>
      <trkpt lat="46.49042" lon="4.91386">
        <ele>164.19999694824</ele>
        <time>2017-07-24T11:02:11Z</time>
      </trkpt>
      <trkpt lat="46.49032" lon="4.91378">
        <ele>164.19999694824</ele>
        <time>2017-07-24T11:02:13Z</time>
      </trkpt>
      <trkpt lat="46.49021" lon="4.91368">
        <ele>164.19999694824</ele>
        <time>2017-07-24T11:02:15Z</time>
      </trkpt>
      <trkpt lat="46.49016" lon="4.91364">
        <ele>164.19999694824</ele>
        <time>2017-07-24T11:02:16Z</time>
      </trkpt>
      <trkpt lat="46.48971" lon="4.9133">
        <ele>163.80000305176</ele>
        <time>2017-07-24T11:02:24Z</time>
      </trkpt>
      <trkpt lat="46.48934" lon="4.9131">
        <ele>164</ele>
        <time>2017-07-24T11:02:30Z</time>
      </trkpt>
      <trkpt lat="46.48905" lon="4.91292">
        <ele>164.19999694824</ele>
        <time>2017-07-24T11:02:35Z</time>
      </trkpt>
      <trkpt lat="46.48861" lon="4.91271">
        <ele>164.39999389648</ele>
        <time>2017-07-24T11:02:42Z</time>
      </trkpt>
      <trkpt lat="46.48823" lon="4.91256">
        <ele>164.39999389648</ele>
        <time>2017-07-24T11:02:48Z</time>
      </trkpt>
      <trkpt lat="46.48816" lon="4.91255">
        <ele>164.39999389648</ele>
        <time>2017-07-24T11:02:49Z</time>
      </trkpt>
      <trkpt lat="46.48777" lon="4.91245">
        <ele>164.39999389648</ele>
        <time>2017-07-24T11:02:55Z</time>
      </trkpt>
      <trkpt lat="46.48771" lon="4.91247">
        <ele>164.39999389648</ele>
        <time>2017-07-24T11:02:56Z</time>
      </trkpt>
      <trkpt lat="46.48762" lon="4.91265">
        <ele>164.39999389648</ele>
        <time>2017-07-24T11:02:59Z</time>
      </trkpt>
      <trkpt lat="46.4876" lon="4.91283">
        <ele>164.19999694824</ele>
        <time>2017-07-24T11:03:02Z</time>
      </trkpt>
      <trkpt lat="46.48754" lon="4.91305">
        <ele>164</ele>
        <time>2017-07-24T11:03:07Z</time>
      </trkpt>
      <trkpt lat="46.4875" lon="4.91306">
        <ele>164</ele>
        <time>2017-07-24T11:03:09Z</time>
      </trkpt>
      <trkpt lat="46.48748" lon="4.91308">
        <ele>163.80000305176</ele>
        <time>2017-07-24T11:03:11Z</time>
      </trkpt>
      <trkpt lat="46.48752" lon="4.91304">
        <ele>162.19999694824</ele>
        <time>2017-07-24T11:12:56Z</time>
      </trkpt>
      <trkpt lat="46.4876" lon="4.91296">
        <ele>162.19999694824</ele>
        <time>2017-07-24T11:13:00Z</time>
      </trkpt>
      <trkpt lat="46.48757" lon="4.91283">
        <ele>162.60000610352</ele>
        <time>2017-07-24T11:13:04Z</time>
      </trkpt>
      <trkpt lat="46.48754" lon="4.91279">
        <ele>162.19999694824</ele>
        <time>2017-07-24T11:14:50Z</time>
      </trkpt>
      <trkpt lat="46.48758" lon="4.9128">
        <ele>162</ele>
        <time>2017-07-24T11:14:52Z</time>
      </trkpt>
      <trkpt lat="46.48762" lon="4.9127">
        <ele>162.19999694824</ele>
        <time>2017-07-24T11:14:56Z</time>
      </trkpt>
      <trkpt lat="46.48763" lon="4.91257">
        <ele>162.39999389648</ele>
        <time>2017-07-24T11:15:00Z</time>
      </trkpt>
      <trkpt lat="46.4876" lon="4.91255">
        <ele>162.60000610352</ele>
        <time>2017-07-24T11:15:01Z</time>
      </trkpt>
      <trkpt lat="46.48746" lon="4.91251">
        <ele>162.60000610352</ele>
        <time>2017-07-24T11:15:05Z</time>
      </trkpt>
      <trkpt lat="46.48742" lon="4.9125">
        <ele>162.60000610352</ele>
        <time>2017-07-24T11:15:06Z</time>
      </trkpt>
      <trkpt lat="46.48717" lon="4.91243">
        <ele>162.80000305176</ele>
        <time>2017-07-24T11:15:12Z</time>
      </trkpt>
      <trkpt lat="46.48682" lon="4.91235">
        <ele>162.60000610352</ele>
        <time>2017-07-24T11:15:19Z</time>
      </trkpt>
      <trkpt lat="46.48642" lon="4.91227">
        <ele>162.60000610352</ele>
        <time>2017-07-24T11:15:27Z</time>
      </trkpt>
      <trkpt lat="46.48605" lon="4.91223">
        <ele>162.39999389648</ele>
        <time>2017-07-24T11:15:34Z</time>
      </trkpt>
      <trkpt lat="46.48583" lon="4.91224">
        <ele>162.39999389648</ele>
        <time>2017-07-24T11:15:38Z</time>
      </trkpt>
      <trkpt lat="46.48572" lon="4.91227">
        <ele>162.39999389648</ele>
        <time>2017-07-24T11:15:40Z</time>
      </trkpt>
      <trkpt lat="46.48536" lon="4.91235">
        <ele>162.39999389648</ele>
        <time>2017-07-24T11:15:47Z</time>
      </trkpt>
      <trkpt lat="46.48501" lon="4.91245">
        <ele>162.19999694824</ele>
        <time>2017-07-24T11:15:53Z</time>
      </trkpt>
      <trkpt lat="46.48461" lon="4.9125">
        <ele>162</ele>
        <time>2017-07-24T11:16:00Z</time>
      </trkpt>
      <trkpt lat="46.48429" lon="4.91251">
        <ele>162</ele>
        <time>2017-07-24T11:16:06Z</time>
      </trkpt>
      <trkpt lat="46.48392" lon="4.9125">
        <ele>162.19999694824</ele>
        <time>2017-07-24T11:16:13Z</time>
      </trkpt>
      <trkpt lat="46.48353" lon="4.91252">
        <ele>162.39999389648</ele>
        <time>2017-07-24T11:16:20Z</time>
      </trkpt>
      <trkpt lat="46.48309" lon="4.91253">
        <ele>162.80000305176</ele>
        <time>2017-07-24T11:16:28Z</time>
      </trkpt>
      <trkpt lat="46.48264" lon="4.91257">
        <ele>162.80000305176</ele>
        <time>2017-07-24T11:16:36Z</time>
      </trkpt>
      <trkpt lat="46.48216" lon="4.91258">
        <ele>162.39999389648</ele>
        <time>2017-07-24T11:16:44Z</time>
      </trkpt>
      <trkpt lat="46.4817" lon="4.91254">
        <ele>162.39999389648</ele>
        <time>2017-07-24T11:16:52Z</time>
      </trkpt>
      <trkpt lat="46.4814" lon="4.91252">
        <ele>162.80000305176</ele>
        <time>2017-07-24T11:16:58Z</time>
      </trkpt>
      <trkpt lat="46.48108" lon="4.91251">
        <ele>163</ele>
        <time>2017-07-24T11:17:04Z</time>
      </trkpt>
      <trkpt lat="46.48066" lon="4.91256">
        <ele>162.39999389648</ele>
        <time>2017-07-24T11:17:11Z</time>
      </trkpt>
      <trkpt lat="46.48027" lon="4.9126">
        <ele>162.19999694824</ele>
        <time>2017-07-24T11:17:17Z</time>
      </trkpt>
      <trkpt lat="46.47983" lon="4.91265">
        <ele>162</ele>
        <time>2017-07-24T11:17:24Z</time>
      </trkpt>
      <trkpt lat="46.47943" lon="4.91271">
        <ele>162</ele>
        <time>2017-07-24T11:17:31Z</time>
      </trkpt>
      <trkpt lat="46.4789" lon="4.91277">
        <ele>162.39999389648</ele>
        <time>2017-07-24T11:17:40Z</time>
      </trkpt>
      <trkpt lat="46.47851" lon="4.91281">
        <ele>162.39999389648</ele>
        <time>2017-07-24T11:17:47Z</time>
      </trkpt>
      <trkpt lat="46.47815" lon="4.91288">
        <ele>162.19999694824</ele>
        <time>2017-07-24T11:17:53Z</time>
      </trkpt>
      <trkpt lat="46.47773" lon="4.91301">
        <ele>162.19999694824</ele>
        <time>2017-07-24T11:18:00Z</time>
      </trkpt>
      <trkpt lat="46.47728" lon="4.91319">
        <ele>162</ele>
        <time>2017-07-24T11:18:07Z</time>
      </trkpt>
      <trkpt lat="46.47676" lon="4.91328">
        <ele>161.60000610352</ele>
        <time>2017-07-24T11:18:15Z</time>
      </trkpt>
      <trkpt lat="46.47647" lon="4.9133">
        <ele>161.60000610352</ele>
        <time>2017-07-24T11:18:20Z</time>
      </trkpt>
      <trkpt lat="46.47642" lon="4.91332">
        <ele>161.80000305176</ele>
        <time>2017-07-24T11:18:21Z</time>
      </trkpt>
      <trkpt lat="46.47605" lon="4.91351">
        <ele>162.80000305176</ele>
        <time>2017-07-24T11:18:28Z</time>
      </trkpt>
      <trkpt lat="46.47562" lon="4.91369">
        <ele>162.19999694824</ele>
        <time>2017-07-24T11:18:35Z</time>
      </trkpt>
      <trkpt lat="46.47522" lon="4.9138">
        <ele>162.39999389648</ele>
        <time>2017-07-24T11:18:41Z</time>
      </trkpt>
      <trkpt lat="46.47469" lon="4.91394">
        <ele>162.19999694824</ele>
        <time>2017-07-24T11:18:49Z</time>
      </trkpt>
      <trkpt lat="46.47423" lon="4.91402">
        <ele>161.80000305176</ele>
        <time>2017-07-24T11:18:56Z</time>
      </trkpt>
      <trkpt lat="46.47363" lon="4.9141">
        <ele>161.60000610352</ele>
        <time>2017-07-24T11:19:05Z</time>
      </trkpt>
      <trkpt lat="46.47309" lon="4.91413">
        <ele>161.60000610352</ele>
        <time>2017-07-24T11:19:13Z</time>
      </trkpt>
      <trkpt lat="46.47254" lon="4.91412">
        <ele>161.39999389648</ele>
        <time>2017-07-24T11:19:21Z</time>
      </trkpt>
      <trkpt lat="46.47247" lon="4.91413">
        <ele>161.39999389648</ele>
        <time>2017-07-24T11:19:22Z</time>
      </trkpt>
      <trkpt lat="46.47196" lon="4.91411">
        <ele>161.80000305176</ele>
        <time>2017-07-24T11:19:30Z</time>
      </trkpt>
      <trkpt lat="46.47155" lon="4.91412">
        <ele>161.39999389648</ele>
        <time>2017-07-24T11:19:36Z</time>
      </trkpt>
      <trkpt lat="46.47114" lon="4.9141">
        <ele>161.19999694824</ele>
        <time>2017-07-24T11:19:42Z</time>
      </trkpt>
      <trkpt lat="46.47094" lon="4.91408">
        <ele>161.19999694824</ele>
        <time>2017-07-24T11:19:45Z</time>
      </trkpt>
      <trkpt lat="46.47039" lon="4.91409">
        <ele>161.80000305176</ele>
        <time>2017-07-24T11:19:53Z</time>
      </trkpt>
      <trkpt lat="46.47033" lon="4.91409">
        <ele>161.80000305176</ele>
        <time>2017-07-24T11:19:54Z</time>
      </trkpt>
      <trkpt lat="46.46985" lon="4.91414">
        <ele>161.80000305176</ele>
        <time>2017-07-24T11:20:01Z</time>
      </trkpt>
      <trkpt lat="46.4694" lon="4.91413">
        <ele>162</ele>
        <time>2017-07-24T11:20:08Z</time>
      </trkpt>
      <trkpt lat="46.46891" lon="4.91413">
        <ele>162</ele>
        <time>2017-07-24T11:20:16Z</time>
      </trkpt>
      <trkpt lat="46.46834" lon="4.9142">
        <ele>162.19999694824</ele>
        <time>2017-07-24T11:20:25Z</time>
      </trkpt>
      <trkpt lat="46.46828" lon="4.91419">
        <ele>162.19999694824</ele>
        <time>2017-07-24T11:20:26Z</time>
      </trkpt>
      <trkpt lat="46.46815" lon="4.91418">
        <ele>162.19999694824</ele>
        <time>2017-07-24T11:20:28Z</time>
      </trkpt>
      <trkpt lat="46.46793" lon="4.91414">
        <ele>162.19999694824</ele>
        <time>2017-07-24T11:20:32Z</time>
      </trkpt>
      <trkpt lat="46.46787" lon="4.91412">
        <ele>162.19999694824</ele>
        <time>2017-07-24T11:20:33Z</time>
      </trkpt>
      <trkpt lat="46.46765" lon="4.91402">
        <ele>162.60000610352</ele>
        <time>2017-07-24T11:20:37Z</time>
      </trkpt>
      <trkpt lat="46.46743" lon="4.91389">
        <ele>162.60000610352</ele>
        <time>2017-07-24T11:20:41Z</time>
      </trkpt>
      <trkpt lat="46.46729" lon="4.91376">
        <ele>162.19999694824</ele>
        <time>2017-07-24T11:20:44Z</time>
      </trkpt>
      <trkpt lat="46.46724" lon="4.91373">
        <ele>162.19999694824</ele>
        <time>2017-07-24T11:20:45Z</time>
      </trkpt>
      <trkpt lat="46.46701" lon="4.91366">
        <ele>162.39999389648</ele>
        <time>2017-07-24T11:20:49Z</time>
      </trkpt>
      <trkpt lat="46.46695" lon="4.91367">
        <ele>162.39999389648</ele>
        <time>2017-07-24T11:20:50Z</time>
      </trkpt>
      <trkpt lat="46.46677" lon="4.91369">
        <ele>162.39999389648</ele>
        <time>2017-07-24T11:20:53Z</time>
      </trkpt>
      <trkpt lat="46.4667" lon="4.91371">
        <ele>162.39999389648</ele>
        <time>2017-07-24T11:20:54Z</time>
      </trkpt>
      <trkpt lat="46.46651" lon="4.91372">
        <ele>162.19999694824</ele>
        <time>2017-07-24T11:20:57Z</time>
      </trkpt>
      <trkpt lat="46.46645" lon="4.91369">
        <ele>162.19999694824</ele>
        <time>2017-07-24T11:20:58Z</time>
      </trkpt>
      <trkpt lat="46.46609" lon="4.9135">
        <ele>162.19999694824</ele>
        <time>2017-07-24T11:21:04Z</time>
      </trkpt>
      <trkpt lat="46.46603" lon="4.91348">
        <ele>162.19999694824</ele>
        <time>2017-07-24T11:21:05Z</time>
      </trkpt>
      <trkpt lat="46.46579" lon="4.91338">
        <ele>161.80000305176</ele>
        <time>2017-07-24T11:21:09Z</time>
      </trkpt>
      <trkpt lat="46.4653" lon="4.91325">
        <ele>161.80000305176</ele>
        <time>2017-07-24T11:21:17Z</time>
      </trkpt>
      <trkpt lat="46.46487" lon="4.91312">
        <ele>162</ele>
        <time>2017-07-24T11:21:24Z</time>
      </trkpt>
      <trkpt lat="46.46439" lon="4.91302">
        <ele>162</ele>
        <time>2017-07-24T11:21:32Z</time>
      </trkpt>
      <trkpt lat="46.46397" lon="4.913">
        <ele>162</ele>
        <time>2017-07-24T11:21:39Z</time>
      </trkpt>
      <trkpt lat="46.46366" lon="4.91297">
        <ele>162</ele>
        <time>2017-07-24T11:21:44Z</time>
      </trkpt>
      <trkpt lat="46.46354" lon="4.91293">
        <ele>161.80000305176</ele>
        <time>2017-07-24T11:21:46Z</time>
      </trkpt>
      <trkpt lat="46.46312" lon="4.91283">
        <ele>161.39999389648</ele>
        <time>2017-07-24T11:21:53Z</time>
      </trkpt>
      <trkpt lat="46.46259" lon="4.91263">
        <ele>161.60000610352</ele>
        <time>2017-07-24T11:22:02Z</time>
      </trkpt>
      <trkpt lat="46.46253" lon="4.9126">
        <ele>161.60000610352</ele>
        <time>2017-07-24T11:22:03Z</time>
      </trkpt>
      <trkpt lat="46.46201" lon="4.91236">
        <ele>161.80000305176</ele>
        <time>2017-07-24T11:22:12Z</time>
      </trkpt>
      <trkpt lat="46.4616" lon="4.91214">
        <ele>161.39999389648</ele>
        <time>2017-07-24T11:22:19Z</time>
      </trkpt>
      <trkpt lat="46.46154" lon="4.9121">
        <ele>161.39999389648</ele>
        <time>2017-07-24T11:22:20Z</time>
      </trkpt>
      <trkpt lat="46.46109" lon="4.9118">
        <ele>161.60000610352</ele>
        <time>2017-07-24T11:22:28Z</time>
      </trkpt>
      <trkpt lat="46.46062" lon="4.91149">
        <ele>161.60000610352</ele>
        <time>2017-07-24T11:22:36Z</time>
      </trkpt>
      <trkpt lat="46.46019" lon="4.91114">
        <ele>161.80000305176</ele>
        <time>2017-07-24T11:22:44Z</time>
      </trkpt>
      <trkpt lat="46.45978" lon="4.91073">
        <ele>161.80000305176</ele>
        <time>2017-07-24T11:22:52Z</time>
      </trkpt>
      <trkpt lat="46.45947" lon="4.91039">
        <ele>162</ele>
        <time>2017-07-24T11:22:59Z</time>
      </trkpt>
      <trkpt lat="46.45916" lon="4.91001">
        <ele>162.19999694824</ele>
        <time>2017-07-24T11:23:06Z</time>
      </trkpt>
      <trkpt lat="46.45886" lon="4.90962">
        <ele>162.19999694824</ele>
        <time>2017-07-24T11:23:13Z</time>
      </trkpt>
      <trkpt lat="46.45859" lon="4.90917">
        <ele>162.19999694824</ele>
        <time>2017-07-24T11:23:20Z</time>
      </trkpt>
      <trkpt lat="46.45839" lon="4.9089">
        <ele>161.80000305176</ele>
        <time>2017-07-24T11:23:24Z</time>
      </trkpt>
      <trkpt lat="46.45829" lon="4.90879">
        <ele>161.80000305176</ele>
        <time>2017-07-24T11:23:26Z</time>
      </trkpt>
      <trkpt lat="46.4582" lon="4.90867">
        <ele>161.80000305176</ele>
        <time>2017-07-24T11:23:28Z</time>
      </trkpt>
      <trkpt lat="46.45802" lon="4.90847">
        <ele>162.39999389648</ele>
        <time>2017-07-24T11:23:32Z</time>
      </trkpt>
      <trkpt lat="46.45758" lon="4.90797">
        <ele>162.19999694824</ele>
        <time>2017-07-24T11:23:41Z</time>
      </trkpt>
      <trkpt lat="46.45753" lon="4.90791">
        <ele>162.19999694824</ele>
        <time>2017-07-24T11:23:42Z</time>
      </trkpt>
      <trkpt lat="46.45727" lon="4.90755">
        <ele>162.19999694824</ele>
        <time>2017-07-24T11:23:48Z</time>
      </trkpt>
      <trkpt lat="46.45713" lon="4.90734">
        <ele>162.60000610352</ele>
        <time>2017-07-24T11:23:53Z</time>
      </trkpt>
      <trkpt lat="46.45698" lon="4.90709">
        <ele>162.60000610352</ele>
        <time>2017-07-24T11:23:58Z</time>
      </trkpt>
      <trkpt lat="46.45688" lon="4.90691">
        <ele>162.60000610352</ele>
        <time>2017-07-24T11:24:01Z</time>
      </trkpt>
      <trkpt lat="46.45675" lon="4.90665">
        <ele>162.80000305176</ele>
        <time>2017-07-24T11:24:05Z</time>
      </trkpt>
      <trkpt lat="46.45647" lon="4.9061">
        <ele>162.60000610352</ele>
        <time>2017-07-24T11:24:13Z</time>
      </trkpt>
      <trkpt lat="46.45622" lon="4.90558">
        <ele>163</ele>
        <time>2017-07-24T11:24:21Z</time>
      </trkpt>
      <trkpt lat="46.45593" lon="4.905">
        <ele>163.19999694824</ele>
        <time>2017-07-24T11:24:30Z</time>
      </trkpt>
      <trkpt lat="46.4559" lon="4.90494">
        <ele>163.19999694824</ele>
        <time>2017-07-24T11:24:31Z</time>
      </trkpt>
      <trkpt lat="46.45582" lon="4.90482">
        <ele>163.19999694824</ele>
        <time>2017-07-24T11:24:33Z</time>
      </trkpt>
      <trkpt lat="46.45572" lon="4.90462">
        <ele>163.19999694824</ele>
        <time>2017-07-24T11:24:36Z</time>
      </trkpt>
      <trkpt lat="46.45554" lon="4.90428">
        <ele>162.19999694824</ele>
        <time>2017-07-24T11:24:41Z</time>
      </trkpt>
      <trkpt lat="46.4554" lon="4.90401">
        <ele>162.39999389648</ele>
        <time>2017-07-24T11:24:45Z</time>
      </trkpt>
      <trkpt lat="46.45509" lon="4.90343">
        <ele>162.39999389648</ele>
        <time>2017-07-24T11:24:54Z</time>
      </trkpt>
      <trkpt lat="46.45475" lon="4.90292">
        <ele>162</ele>
        <time>2017-07-24T11:25:03Z</time>
      </trkpt>
      <trkpt lat="46.45447" lon="4.90255">
        <ele>162.19999694824</ele>
        <time>2017-07-24T11:25:10Z</time>
      </trkpt>
      <trkpt lat="46.45405" lon="4.90201">
        <ele>161.39999389648</ele>
        <time>2017-07-24T11:25:20Z</time>
      </trkpt>
      <trkpt lat="46.45372" lon="4.90151">
        <ele>162</ele>
        <time>2017-07-24T11:25:28Z</time>
      </trkpt>
      <trkpt lat="46.45342" lon="4.90111">
        <ele>161.80000305176</ele>
        <time>2017-07-24T11:25:35Z</time>
      </trkpt>
      <trkpt lat="46.45312" lon="4.90072">
        <ele>161.60000610352</ele>
        <time>2017-07-24T11:25:42Z</time>
      </trkpt>
      <trkpt lat="46.45276" lon="4.90022">
        <ele>161.80000305176</ele>
        <time>2017-07-24T11:25:51Z</time>
      </trkpt>
      <trkpt lat="46.45248" lon="4.89983">
        <ele>162</ele>
        <time>2017-07-24T11:25:58Z</time>
      </trkpt>
      <trkpt lat="46.45241" lon="4.89971">
        <ele>162</ele>
        <time>2017-07-24T11:26:00Z</time>
      </trkpt>
      <trkpt lat="46.45221" lon="4.89939">
        <ele>161.80000305176</ele>
        <time>2017-07-24T11:26:05Z</time>
      </trkpt>
      <trkpt lat="46.45188" lon="4.89878">
        <ele>161.60000610352</ele>
        <time>2017-07-24T11:26:14Z</time>
      </trkpt>
      <trkpt lat="46.45155" lon="4.89823">
        <ele>161.60000610352</ele>
        <time>2017-07-24T11:26:22Z</time>
      </trkpt>
      <trkpt lat="46.45116" lon="4.89765">
        <ele>161.60000610352</ele>
        <time>2017-07-24T11:26:31Z</time>
      </trkpt>
      <trkpt lat="46.45089" lon="4.89732">
        <ele>162</ele>
        <time>2017-07-24T11:26:37Z</time>
      </trkpt>
      <trkpt lat="46.45059" lon="4.89695">
        <ele>162.60000610352</ele>
        <time>2017-07-24T11:26:44Z</time>
      </trkpt>
      <trkpt lat="46.45025" lon="4.89659">
        <ele>163</ele>
        <time>2017-07-24T11:26:52Z</time>
      </trkpt>
      <trkpt lat="46.44991" lon="4.8962">
        <ele>163.19999694824</ele>
        <time>2017-07-24T11:27:00Z</time>
      </trkpt>
      <trkpt lat="46.44958" lon="4.89589">
        <ele>162.80000305176</ele>
        <time>2017-07-24T11:27:07Z</time>
      </trkpt>
      <trkpt lat="46.44928" lon="4.89565">
        <ele>162.60000610352</ele>
        <time>2017-07-24T11:27:13Z</time>
      </trkpt>
      <trkpt lat="46.4489" lon="4.89531">
        <ele>162.60000610352</ele>
        <time>2017-07-24T11:27:21Z</time>
      </trkpt>
      <trkpt lat="46.44842" lon="4.89493">
        <ele>162.39999389648</ele>
        <time>2017-07-24T11:27:31Z</time>
      </trkpt>
      <trkpt lat="46.44826" lon="4.89494">
        <ele>162.60000610352</ele>
        <time>2017-07-24T11:27:34Z</time>
      </trkpt>
      <trkpt lat="46.44821" lon="4.89496">
        <ele>162.60000610352</ele>
        <time>2017-07-24T11:27:35Z</time>
      </trkpt>
      <trkpt lat="46.44799" lon="4.89497">
        <ele>162.19999694824</ele>
        <time>2017-07-24T11:27:39Z</time>
      </trkpt>
      <trkpt lat="46.44785" lon="4.8949">
        <ele>162.19999694824</ele>
        <time>2017-07-24T11:27:42Z</time>
      </trkpt>
      <trkpt lat="46.44778" lon="4.8948">
        <ele>162.19999694824</ele>
        <time>2017-07-24T11:27:44Z</time>
      </trkpt>
      <trkpt lat="46.44767" lon="4.89462">
        <ele>162.39999389648</ele>
        <time>2017-07-24T11:27:47Z</time>
      </trkpt>
      <trkpt lat="46.44755" lon="4.89435">
        <ele>162.39999389648</ele>
        <time>2017-07-24T11:27:51Z</time>
      </trkpt>
      <trkpt lat="46.44741" lon="4.89405">
        <ele>162.80000305176</ele>
        <time>2017-07-24T11:27:56Z</time>
      </trkpt>
      <trkpt lat="46.44737" lon="4.89401">
        <ele>162.80000305176</ele>
        <time>2017-07-24T11:27:57Z</time>
      </trkpt>
      <trkpt lat="46.44704" lon="4.8937">
        <ele>162.80000305176</ele>
        <time>2017-07-24T11:28:04Z</time>
      </trkpt>
      <trkpt lat="46.44666" lon="4.89334">
        <ele>163</ele>
        <time>2017-07-24T11:28:12Z</time>
      </trkpt>
      <trkpt lat="46.44625" lon="4.89303">
        <ele>163.19999694824</ele>
        <time>2017-07-24T11:28:20Z</time>
      </trkpt>
      <trkpt lat="46.44605" lon="4.89285">
        <ele>163</ele>
        <time>2017-07-24T11:28:25Z</time>
      </trkpt>
      <trkpt lat="46.44603" lon="4.8928">
        <ele>163</ele>
        <time>2017-07-24T11:28:26Z</time>
      </trkpt>
      <trkpt lat="46.44605" lon="4.89263">
        <ele>162.80000305176</ele>
        <time>2017-07-24T11:28:29Z</time>
      </trkpt>
      <trkpt lat="46.44614" lon="4.8924">
        <ele>163.19999694824</ele>
        <time>2017-07-24T11:28:33Z</time>
      </trkpt>
      <trkpt lat="46.44617" lon="4.89233">
        <ele>163.19999694824</ele>
        <time>2017-07-24T11:28:34Z</time>
      </trkpt>
      <trkpt lat="46.44632" lon="4.89183">
        <ele>163.60000610352</ele>
        <time>2017-07-24T11:28:41Z</time>
      </trkpt>
      <trkpt lat="46.4465" lon="4.89123">
        <ele>163</ele>
        <time>2017-07-24T11:28:49Z</time>
      </trkpt>
      <trkpt lat="46.44667" lon="4.8906">
        <ele>162.39999389648</ele>
        <time>2017-07-24T11:28:57Z</time>
      </trkpt>
      <trkpt lat="46.44687" lon="4.88989">
        <ele>162.19999694824</ele>
        <time>2017-07-24T11:29:06Z</time>
      </trkpt>
      <trkpt lat="46.44704" lon="4.88926">
        <ele>162.39999389648</ele>
        <time>2017-07-24T11:29:14Z</time>
      </trkpt>
      <trkpt lat="46.44724" lon="4.88856">
        <ele>162.19999694824</ele>
        <time>2017-07-24T11:29:23Z</time>
      </trkpt>
      <trkpt lat="46.4474" lon="4.88797">
        <ele>162.39999389648</ele>
        <time>2017-07-24T11:29:31Z</time>
      </trkpt>
      <trkpt lat="46.44752" lon="4.88745">
        <ele>162.60000610352</ele>
        <time>2017-07-24T11:29:38Z</time>
      </trkpt>
      <trkpt lat="46.44766" lon="4.88687">
        <ele>162.80000305176</ele>
        <time>2017-07-24T11:29:46Z</time>
      </trkpt>
      <trkpt lat="46.44767" lon="4.88674">
        <ele>162.80000305176</ele>
        <time>2017-07-24T11:29:48Z</time>
      </trkpt>
      <trkpt lat="46.44765" lon="4.88668">
        <ele>162.80000305176</ele>
        <time>2017-07-24T11:29:49Z</time>
      </trkpt>
      <trkpt lat="46.44753" lon="4.88659">
        <ele>162.60000610352</ele>
        <time>2017-07-24T11:29:52Z</time>
      </trkpt>
      <trkpt lat="46.44748" lon="4.88658">
        <ele>162.39999389648</ele>
        <time>2017-07-24T11:29:53Z</time>
      </trkpt>
      <trkpt lat="46.44738" lon="4.88653">
        <ele>162.19999694824</ele>
        <time>2017-07-24T11:29:55Z</time>
      </trkpt>
      <trkpt lat="46.44723" lon="4.88643">
        <ele>162.19999694824</ele>
        <time>2017-07-24T11:29:58Z</time>
      </trkpt>
      <trkpt lat="46.44688" lon="4.88625">
        <ele>162.39999389648</ele>
        <time>2017-07-24T11:30:05Z</time>
      </trkpt>
      <trkpt lat="46.44658" lon="4.88607">
        <ele>162.60000610352</ele>
        <time>2017-07-24T11:30:12Z</time>
      </trkpt>
      <trkpt lat="46.44654" lon="4.88605">
        <ele>162.80000305176</ele>
        <time>2017-07-24T11:30:13Z</time>
      </trkpt>
      <trkpt lat="46.44648" lon="4.88598">
        <ele>163</ele>
        <time>2017-07-24T11:30:15Z</time>
      </trkpt>
      <trkpt lat="46.44647" lon="4.88593">
        <ele>163.19999694824</ele>
        <time>2017-07-24T11:30:16Z</time>
      </trkpt>
      <trkpt lat="46.44647" lon="4.88588">
        <ele>163.39999389648</ele>
        <time>2017-07-24T11:30:17Z</time>
      </trkpt>
      <trkpt lat="46.44645" lon="4.88569">
        <ele>163.60000610352</ele>
        <time>2017-07-24T11:30:21Z</time>
      </trkpt>
      <trkpt lat="46.44642" lon="4.88567">
        <ele>163.60000610352</ele>
        <time>2017-07-24T11:30:22Z</time>
      </trkpt>
      <trkpt lat="46.44632" lon="4.88564">
        <ele>163.60000610352</ele>
        <time>2017-07-24T11:30:25Z</time>
      </trkpt>
      <trkpt lat="46.44624" lon="4.88562">
        <ele>163.39999389648</ele>
        <time>2017-07-24T11:30:27Z</time>
      </trkpt>
      <trkpt lat="46.44599" lon="4.88562">
        <ele>163</ele>
        <time>2017-07-24T11:30:33Z</time>
      </trkpt>
      <trkpt lat="46.44597" lon="4.88562">
        <ele>162.80000305176</ele>
        <time>2017-07-24T11:30:34Z</time>
      </trkpt>
      <trkpt lat="46.44593" lon="4.88564">
        <ele>162.39999389648</ele>
        <time>2017-07-24T11:30:57Z</time>
      </trkpt>
      <trkpt lat="46.44591" lon="4.88565">
        <ele>162.39999389648</ele>
        <time>2017-07-24T11:30:58Z</time>
      </trkpt>
      <trkpt lat="46.44583" lon="4.88576">
        <ele>162.39999389648</ele>
        <time>2017-07-24T11:31:02Z</time>
      </trkpt>
      <trkpt lat="46.44578" lon="4.88585">
        <ele>162.19999694824</ele>
        <time>2017-07-24T11:31:04Z</time>
      </trkpt>
      <trkpt lat="46.44576" lon="4.8859">
        <ele>162.19999694824</ele>
        <time>2017-07-24T11:31:05Z</time>
      </trkpt>
      <trkpt lat="46.44569" lon="4.88608">
        <ele>162.19999694824</ele>
        <time>2017-07-24T11:31:08Z</time>
      </trkpt>
      <trkpt lat="46.44561" lon="4.88638">
        <ele>162.19999694824</ele>
        <time>2017-07-24T11:31:13Z</time>
      </trkpt>
      <trkpt lat="46.44557" lon="4.88654">
        <ele>162.19999694824</ele>
        <time>2017-07-24T11:31:16Z</time>
      </trkpt>
      <trkpt lat="46.44554" lon="4.88658">
        <ele>162.19999694824</ele>
        <time>2017-07-24T11:31:17Z</time>
      </trkpt>
      <trkpt lat="46.44542" lon="4.88653">
        <ele>162</ele>
        <time>2017-07-24T11:31:20Z</time>
      </trkpt>
      <trkpt lat="46.44534" lon="4.88644">
        <ele>162</ele>
        <time>2017-07-24T11:31:22Z</time>
      </trkpt>
      <trkpt lat="46.44519" lon="4.88626">
        <ele>162</ele>
        <time>2017-07-24T11:31:26Z</time>
      </trkpt>
      <trkpt lat="46.4449" lon="4.88595">
        <ele>162.19999694824</ele>
        <time>2017-07-24T11:31:33Z</time>
      </trkpt>
      <trkpt lat="46.44472" lon="4.88558">
        <ele>162.19999694824</ele>
        <time>2017-07-24T11:31:39Z</time>
      </trkpt>
      <trkpt lat="46.44459" lon="4.88537">
        <ele>162.19999694824</ele>
        <time>2017-07-24T11:31:43Z</time>
      </trkpt>
      <trkpt lat="46.44458" lon="4.88531">
        <ele>162.19999694824</ele>
        <time>2017-07-24T11:31:44Z</time>
      </trkpt>
      <trkpt lat="46.44458" lon="4.88505">
        <ele>162.19999694824</ele>
        <time>2017-07-24T11:31:48Z</time>
      </trkpt>
      <trkpt lat="46.44454" lon="4.88493">
        <ele>162.19999694824</ele>
        <time>2017-07-24T11:31:50Z</time>
      </trkpt>
      <trkpt lat="46.44447" lon="4.88474">
        <ele>162.39999389648</ele>
        <time>2017-07-24T11:31:53Z</time>
      </trkpt>
      <trkpt lat="46.44424" lon="4.88426">
        <ele>162.60000610352</ele>
        <time>2017-07-24T11:32:02Z</time>
      </trkpt>
      <trkpt lat="46.44413" lon="4.88418">
        <ele>162.60000610352</ele>
        <time>2017-07-24T11:32:05Z</time>
      </trkpt>
      <trkpt lat="46.44409" lon="4.88416">
        <ele>162.60000610352</ele>
        <time>2017-07-24T11:32:06Z</time>
      </trkpt>
      <trkpt lat="46.44391" lon="4.88419">
        <ele>162.80000305176</ele>
        <time>2017-07-24T11:32:10Z</time>
      </trkpt>
      <trkpt lat="46.44382" lon="4.88425">
        <ele>162.80000305176</ele>
        <time>2017-07-24T11:32:12Z</time>
      </trkpt>
      <trkpt lat="46.44377" lon="4.88427">
        <ele>162.80000305176</ele>
        <time>2017-07-24T11:32:13Z</time>
      </trkpt>
      <trkpt lat="46.44367" lon="4.88433">
        <ele>162.80000305176</ele>
        <time>2017-07-24T11:32:15Z</time>
      </trkpt>
      <trkpt lat="46.44358" lon="4.88438">
        <ele>162.80000305176</ele>
        <time>2017-07-24T11:32:17Z</time>
      </trkpt>
      <trkpt lat="46.44335" lon="4.8845">
        <ele>162.60000610352</ele>
        <time>2017-07-24T11:32:23Z</time>
      </trkpt>
      <trkpt lat="46.44332" lon="4.88454">
        <ele>162.80000305176</ele>
        <time>2017-07-24T11:32:24Z</time>
      </trkpt>
      <trkpt lat="46.44328" lon="4.88466">
        <ele>162.80000305176</ele>
        <time>2017-07-24T11:32:26Z</time>
      </trkpt>
      <trkpt lat="46.44323" lon="4.88486">
        <ele>163.19999694824</ele>
        <time>2017-07-24T11:32:29Z</time>
      </trkpt>
      <trkpt lat="46.44317" lon="4.88504">
        <ele>163.19999694824</ele>
        <time>2017-07-24T11:32:32Z</time>
      </trkpt>
      <trkpt lat="46.44314" lon="4.88509">
        <ele>163.19999694824</ele>
        <time>2017-07-24T11:32:33Z</time>
      </trkpt>
      <trkpt lat="46.44306" lon="4.88513">
        <ele>163.19999694824</ele>
        <time>2017-07-24T11:32:35Z</time>
      </trkpt>
      <trkpt lat="46.44296" lon="4.88509">
        <ele>163.19999694824</ele>
        <time>2017-07-24T11:32:37Z</time>
      </trkpt>
      <trkpt lat="46.44292" lon="4.88507">
        <ele>163.39999389648</ele>
        <time>2017-07-24T11:32:38Z</time>
      </trkpt>
      <trkpt lat="46.44288" lon="4.88503">
        <ele>163.60000610352</ele>
        <time>2017-07-24T11:32:39Z</time>
      </trkpt>
      <trkpt lat="46.44276" lon="4.88488">
        <ele>163.80000305176</ele>
        <time>2017-07-24T11:32:42Z</time>
      </trkpt>
      <trkpt lat="46.44272" lon="4.88483">
        <ele>164</ele>
        <time>2017-07-24T11:32:43Z</time>
      </trkpt>
      <trkpt lat="46.44266" lon="4.88479">
        <ele>164</ele>
        <time>2017-07-24T11:32:44Z</time>
      </trkpt>
      <trkpt lat="46.4425" lon="4.88473">
        <ele>163.80000305176</ele>
        <time>2017-07-24T11:32:47Z</time>
      </trkpt>
      <trkpt lat="46.44239" lon="4.88468">
        <ele>163.80000305176</ele>
        <time>2017-07-24T11:32:49Z</time>
      </trkpt>
      <trkpt lat="46.44207" lon="4.88452">
        <ele>163.80000305176</ele>
        <time>2017-07-24T11:32:55Z</time>
      </trkpt>
      <trkpt lat="46.44202" lon="4.88448">
        <ele>163.80000305176</ele>
        <time>2017-07-24T11:32:56Z</time>
      </trkpt>
      <trkpt lat="46.44196" lon="4.88446">
        <ele>164</ele>
        <time>2017-07-24T11:32:57Z</time>
      </trkpt>
      <trkpt lat="46.4418" lon="4.88438">
        <ele>164.19999694824</ele>
        <time>2017-07-24T11:33:00Z</time>
      </trkpt>
      <trkpt lat="46.44174" lon="4.88435">
        <ele>164.39999389648</ele>
        <time>2017-07-24T11:33:01Z</time>
      </trkpt>
      <trkpt lat="46.44169" lon="4.88432">
        <ele>164.39999389648</ele>
        <time>2017-07-24T11:33:02Z</time>
      </trkpt>
      <trkpt lat="46.44113" lon="4.88405">
        <ele>164.80000305176</ele>
        <time>2017-07-24T11:33:12Z</time>
      </trkpt>
      <trkpt lat="46.44068" lon="4.88382">
        <ele>164.60000610352</ele>
        <time>2017-07-24T11:33:20Z</time>
      </trkpt>
      <trkpt lat="46.44028" lon="4.88363">
        <ele>164.39999389648</ele>
        <time>2017-07-24T11:33:27Z</time>
      </trkpt>
      <trkpt lat="46.43998" lon="4.88348">
        <ele>164.19999694824</ele>
        <time>2017-07-24T11:33:32Z</time>
      </trkpt>
      <trkpt lat="46.43986" lon="4.88343">
        <ele>164.19999694824</ele>
        <time>2017-07-24T11:33:34Z</time>
      </trkpt>
      <trkpt lat="46.43934" lon="4.88321">
        <ele>164.39999389648</ele>
        <time>2017-07-24T11:33:43Z</time>
      </trkpt>
      <trkpt lat="46.43918" lon="4.88317">
        <ele>164.39999389648</ele>
        <time>2017-07-24T11:33:46Z</time>
      </trkpt>
      <trkpt lat="46.43908" lon="4.88319">
        <ele>164.60000610352</ele>
        <time>2017-07-24T11:33:48Z</time>
      </trkpt>
      <trkpt lat="46.43897" lon="4.88336">
        <ele>164.39999389648</ele>
        <time>2017-07-24T11:33:51Z</time>
      </trkpt>
      <trkpt lat="46.43896" lon="4.8836">
        <ele>163.80000305176</ele>
        <time>2017-07-24T11:33:54Z</time>
      </trkpt>
      <trkpt lat="46.43895" lon="4.88369">
        <ele>163.60000610352</ele>
        <time>2017-07-24T11:33:55Z</time>
      </trkpt>
      <trkpt lat="46.43893" lon="4.88386">
        <ele>163.19999694824</ele>
        <time>2017-07-24T11:33:57Z</time>
      </trkpt>
      <trkpt lat="46.43887" lon="4.8843">
        <ele>163.19999694824</ele>
        <time>2017-07-24T11:34:02Z</time>
      </trkpt>
      <trkpt lat="46.43877" lon="4.88484">
        <ele>163</ele>
        <time>2017-07-24T11:34:08Z</time>
      </trkpt>
      <trkpt lat="46.43872" lon="4.8849">
        <ele>162.80000305176</ele>
        <time>2017-07-24T11:34:09Z</time>
      </trkpt>
      <trkpt lat="46.43861" lon="4.88492">
        <ele>162.80000305176</ele>
        <time>2017-07-24T11:34:11Z</time>
      </trkpt>
      <trkpt lat="46.43837" lon="4.88482">
        <ele>162.80000305176</ele>
        <time>2017-07-24T11:34:15Z</time>
      </trkpt>
      <trkpt lat="46.43789" lon="4.88463">
        <ele>163.39999389648</ele>
        <time>2017-07-24T11:34:23Z</time>
      </trkpt>
      <trkpt lat="46.43735" lon="4.88444">
        <ele>163.39999389648</ele>
        <time>2017-07-24T11:34:32Z</time>
      </trkpt>
      <trkpt lat="46.43729" lon="4.88442">
        <ele>163.39999389648</ele>
        <time>2017-07-24T11:34:33Z</time>
      </trkpt>
      <trkpt lat="46.43693" lon="4.8843">
        <ele>163.39999389648</ele>
        <time>2017-07-24T11:34:39Z</time>
      </trkpt>
      <trkpt lat="46.43638" lon="4.8841">
        <ele>163</ele>
        <time>2017-07-24T11:34:48Z</time>
      </trkpt>
      <trkpt lat="46.43632" lon="4.88408">
        <ele>163</ele>
        <time>2017-07-24T11:34:49Z</time>
      </trkpt>
      <trkpt lat="46.43609" lon="4.88402">
        <ele>162.80000305176</ele>
        <time>2017-07-24T11:34:53Z</time>
      </trkpt>
      <trkpt lat="46.43604" lon="4.88404">
        <ele>162.80000305176</ele>
        <time>2017-07-24T11:34:54Z</time>
      </trkpt>
      <trkpt lat="46.43593" lon="4.8842">
        <ele>162.80000305176</ele>
        <time>2017-07-24T11:34:57Z</time>
      </trkpt>
      <trkpt lat="46.4359" lon="4.88427">
        <ele>162.80000305176</ele>
        <time>2017-07-24T11:34:58Z</time>
      </trkpt>
      <trkpt lat="46.43568" lon="4.8848">
        <ele>162.60000610352</ele>
        <time>2017-07-24T11:35:05Z</time>
      </trkpt>
      <trkpt lat="46.43552" lon="4.88519">
        <ele>162.80000305176</ele>
        <time>2017-07-24T11:35:10Z</time>
      </trkpt>
      <trkpt lat="46.43533" lon="4.88568">
        <ele>162.60000610352</ele>
        <time>2017-07-24T11:35:16Z</time>
      </trkpt>
      <trkpt lat="46.43513" lon="4.88616">
        <ele>162.60000610352</ele>
        <time>2017-07-24T11:35:22Z</time>
      </trkpt>
      <trkpt lat="46.43485" lon="4.88688">
        <ele>162.60000610352</ele>
        <time>2017-07-24T11:35:31Z</time>
      </trkpt>
      <trkpt lat="46.43476" lon="4.88711">
        <ele>162.60000610352</ele>
        <time>2017-07-24T11:35:34Z</time>
      </trkpt>
      <trkpt lat="46.43467" lon="4.88742">
        <ele>162.60000610352</ele>
        <time>2017-07-24T11:35:38Z</time>
      </trkpt>
      <trkpt lat="46.43465" lon="4.88748">
        <ele>162.60000610352</ele>
        <time>2017-07-24T11:35:39Z</time>
      </trkpt>
      <trkpt lat="46.43457" lon="4.88755">
        <ele>162.60000610352</ele>
        <time>2017-07-24T11:35:41Z</time>
      </trkpt>
      <trkpt lat="46.43448" lon="4.88753">
        <ele>162.39999389648</ele>
        <time>2017-07-24T11:35:43Z</time>
      </trkpt>
      <trkpt lat="46.43443" lon="4.88752">
        <ele>162.39999389648</ele>
        <time>2017-07-24T11:35:44Z</time>
      </trkpt>
      <trkpt lat="46.4342" lon="4.88757">
        <ele>162.39999389648</ele>
        <time>2017-07-24T11:35:48Z</time>
      </trkpt>
      <trkpt lat="46.43408" lon="4.88755">
        <ele>162.19999694824</ele>
        <time>2017-07-24T11:35:50Z</time>
      </trkpt>
      <trkpt lat="46.43396" lon="4.88753">
        <ele>162.19999694824</ele>
        <time>2017-07-24T11:35:52Z</time>
      </trkpt>
      <trkpt lat="46.4339" lon="4.88752">
        <ele>162.19999694824</ele>
        <time>2017-07-24T11:35:53Z</time>
      </trkpt>
      <trkpt lat="46.4336" lon="4.88747">
        <ele>162.19999694824</ele>
        <time>2017-07-24T11:35:58Z</time>
      </trkpt>
      <trkpt lat="46.43355" lon="4.88746">
        <ele>162.19999694824</ele>
        <time>2017-07-24T11:35:59Z</time>
      </trkpt>
      <trkpt lat="46.43338" lon="4.8874">
        <ele>162.19999694824</ele>
        <time>2017-07-24T11:36:02Z</time>
      </trkpt>
      <trkpt lat="46.43299" lon="4.88733">
        <ele>162.39999389648</ele>
        <time>2017-07-24T11:36:09Z</time>
      </trkpt>
      <trkpt lat="46.43246" lon="4.88725">
        <ele>162.39999389648</ele>
        <time>2017-07-24T11:36:18Z</time>
      </trkpt>
      <trkpt lat="46.43234" lon="4.88724">
        <ele>162.39999389648</ele>
        <time>2017-07-24T11:36:20Z</time>
      </trkpt>
      <trkpt lat="46.43216" lon="4.88725">
        <ele>162.39999389648</ele>
        <time>2017-07-24T11:36:23Z</time>
      </trkpt>
      <trkpt lat="46.4321" lon="4.88724">
        <ele>162.60000610352</ele>
        <time>2017-07-24T11:36:24Z</time>
      </trkpt>
      <trkpt lat="46.43192" lon="4.88725">
        <ele>162.80000305176</ele>
        <time>2017-07-24T11:36:27Z</time>
      </trkpt>
      <trkpt lat="46.43174" lon="4.88726">
        <ele>163</ele>
        <time>2017-07-24T11:36:30Z</time>
      </trkpt>
      <trkpt lat="46.43138" lon="4.88732">
        <ele>163.19999694824</ele>
        <time>2017-07-24T11:36:36Z</time>
      </trkpt>
      <trkpt lat="46.43132" lon="4.88734">
        <ele>163.19999694824</ele>
        <time>2017-07-24T11:36:37Z</time>
      </trkpt>
      <trkpt lat="46.43102" lon="4.88744">
        <ele>163.19999694824</ele>
        <time>2017-07-24T11:36:42Z</time>
      </trkpt>
      <trkpt lat="46.43078" lon="4.88755">
        <ele>163</ele>
        <time>2017-07-24T11:36:46Z</time>
      </trkpt>
      <trkpt lat="46.4306" lon="4.88764">
        <ele>163</ele>
        <time>2017-07-24T11:36:49Z</time>
      </trkpt>
      <trkpt lat="46.43019" lon="4.88788">
        <ele>163</ele>
        <time>2017-07-24T11:36:56Z</time>
      </trkpt>
      <trkpt lat="46.4299" lon="4.88811">
        <ele>163.19999694824</ele>
        <time>2017-07-24T11:37:01Z</time>
      </trkpt>
      <trkpt lat="46.42984" lon="4.88814">
        <ele>163.19999694824</ele>
        <time>2017-07-24T11:37:02Z</time>
      </trkpt>
      <trkpt lat="46.42972" lon="4.88819">
        <ele>163.19999694824</ele>
        <time>2017-07-24T11:37:04Z</time>
      </trkpt>
      <trkpt lat="46.42966" lon="4.88819">
        <ele>163.19999694824</ele>
        <time>2017-07-24T11:37:05Z</time>
      </trkpt>
      <trkpt lat="46.42953" lon="4.88818">
        <ele>163.19999694824</ele>
        <time>2017-07-24T11:37:07Z</time>
      </trkpt>
      <trkpt lat="46.42946" lon="4.8882">
        <ele>163.39999389648</ele>
        <time>2017-07-24T11:37:08Z</time>
      </trkpt>
      <trkpt lat="46.42933" lon="4.88824">
        <ele>163.39999389648</ele>
        <time>2017-07-24T11:37:10Z</time>
      </trkpt>
      <trkpt lat="46.42909" lon="4.88833">
        <ele>163</ele>
        <time>2017-07-24T11:37:14Z</time>
      </trkpt>
      <trkpt lat="46.42891" lon="4.88839">
        <ele>162.60000610352</ele>
        <time>2017-07-24T11:37:17Z</time>
      </trkpt>
      <trkpt lat="46.42854" lon="4.88849">
        <ele>162.39999389648</ele>
        <time>2017-07-24T11:37:23Z</time>
      </trkpt>
      <trkpt lat="46.42822" lon="4.88851">
        <ele>162.19999694824</ele>
        <time>2017-07-24T11:37:28Z</time>
      </trkpt>
      <trkpt lat="46.42809" lon="4.8885">
        <ele>162.19999694824</ele>
        <time>2017-07-24T11:37:30Z</time>
      </trkpt>
      <trkpt lat="46.42759" lon="4.88845">
        <ele>161.80000305176</ele>
        <time>2017-07-24T11:37:38Z</time>
      </trkpt>
      <trkpt lat="46.42701" lon="4.88841">
        <ele>161.80000305176</ele>
        <time>2017-07-24T11:37:47Z</time>
      </trkpt>
      <trkpt lat="46.42642" lon="4.88837">
        <ele>161.80000305176</ele>
        <time>2017-07-24T11:37:56Z</time>
      </trkpt>
      <trkpt lat="46.42597" lon="4.88835">
        <ele>161.80000305176</ele>
        <time>2017-07-24T11:38:03Z</time>
      </trkpt>
      <trkpt lat="46.42552" lon="4.88832">
        <ele>161.80000305176</ele>
        <time>2017-07-24T11:38:10Z</time>
      </trkpt>
      <trkpt lat="46.425" lon="4.88829">
        <ele>161.60000610352</ele>
        <time>2017-07-24T11:38:18Z</time>
      </trkpt>
      <trkpt lat="46.42454" lon="4.88822">
        <ele>161.80000305176</ele>
        <time>2017-07-24T11:38:25Z</time>
      </trkpt>
      <trkpt lat="46.4241" lon="4.88813">
        <ele>161.80000305176</ele>
        <time>2017-07-24T11:38:32Z</time>
      </trkpt>
      <trkpt lat="46.42404" lon="4.88812">
        <ele>161.80000305176</ele>
        <time>2017-07-24T11:38:33Z</time>
      </trkpt>
      <trkpt lat="46.42362" lon="4.88804">
        <ele>161.60000610352</ele>
        <time>2017-07-24T11:38:40Z</time>
      </trkpt>
      <trkpt lat="46.42314" lon="4.88794">
        <ele>161.60000610352</ele>
        <time>2017-07-24T11:38:48Z</time>
      </trkpt>
      <trkpt lat="46.42265" lon="4.88785">
        <ele>161.60000610352</ele>
        <time>2017-07-24T11:38:56Z</time>
      </trkpt>
      <trkpt lat="46.42222" lon="4.88777">
        <ele>161.60000610352</ele>
        <time>2017-07-24T11:39:03Z</time>
      </trkpt>
      <trkpt lat="46.4218" lon="4.88768">
        <ele>161.60000610352</ele>
        <time>2017-07-24T11:39:10Z</time>
      </trkpt>
      <trkpt lat="46.42143" lon="4.8876">
        <ele>161.39999389648</ele>
        <time>2017-07-24T11:39:16Z</time>
      </trkpt>
      <trkpt lat="46.42137" lon="4.88759">
        <ele>161.39999389648</ele>
        <time>2017-07-24T11:39:17Z</time>
      </trkpt>
      <trkpt lat="46.42094" lon="4.88748">
        <ele>161.39999389648</ele>
        <time>2017-07-24T11:39:24Z</time>
      </trkpt>
      <trkpt lat="46.42057" lon="4.88739">
        <ele>161.39999389648</ele>
        <time>2017-07-24T11:39:30Z</time>
      </trkpt>
      <trkpt lat="46.42016" lon="4.88732">
        <ele>161.80000305176</ele>
        <time>2017-07-24T11:39:37Z</time>
      </trkpt>
      <trkpt lat="46.4201" lon="4.88731">
        <ele>161.80000305176</ele>
        <time>2017-07-24T11:39:38Z</time>
      </trkpt>
      <trkpt lat="46.41994" lon="4.8873">
        <ele>162</ele>
        <time>2017-07-24T11:39:41Z</time>
      </trkpt>
      <trkpt lat="46.41977" lon="4.88726">
        <ele>162</ele>
        <time>2017-07-24T11:39:44Z</time>
      </trkpt>
      <trkpt lat="46.41961" lon="4.88723">
        <ele>162</ele>
        <time>2017-07-24T11:39:47Z</time>
      </trkpt>
      <trkpt lat="46.41945" lon="4.8872">
        <ele>162</ele>
        <time>2017-07-24T11:39:50Z</time>
      </trkpt>
      <trkpt lat="46.4192" lon="4.88714">
        <ele>162.19999694824</ele>
        <time>2017-07-24T11:39:55Z</time>
      </trkpt>
      <trkpt lat="46.41914" lon="4.88713">
        <ele>162.19999694824</ele>
        <time>2017-07-24T11:39:56Z</time>
      </trkpt>
      <trkpt lat="46.41872" lon="4.88707">
        <ele>162.39999389648</ele>
        <time>2017-07-24T11:40:04Z</time>
      </trkpt>
      <trkpt lat="46.41833" lon="4.88705">
        <ele>161.80000305176</ele>
        <time>2017-07-24T11:40:11Z</time>
      </trkpt>
      <trkpt lat="46.41792" lon="4.88697">
        <ele>161.80000305176</ele>
        <time>2017-07-24T11:40:18Z</time>
      </trkpt>
      <trkpt lat="46.4177" lon="4.88685">
        <ele>161.80000305176</ele>
        <time>2017-07-24T11:40:22Z</time>
      </trkpt>
      <trkpt lat="46.41765" lon="4.88682">
        <ele>161.80000305176</ele>
        <time>2017-07-24T11:40:23Z</time>
      </trkpt>
      <trkpt lat="46.4175" lon="4.88672">
        <ele>161.80000305176</ele>
        <time>2017-07-24T11:40:26Z</time>
      </trkpt>
      <trkpt lat="46.4174" lon="4.88671">
        <ele>161.80000305176</ele>
        <time>2017-07-24T11:40:28Z</time>
      </trkpt>
      <trkpt lat="46.417" lon="4.8867">
        <ele>161.80000305176</ele>
        <time>2017-07-24T11:40:36Z</time>
      </trkpt>
      <trkpt lat="46.4169" lon="4.8867">
        <ele>161.80000305176</ele>
        <time>2017-07-24T11:40:38Z</time>
      </trkpt>
      <trkpt lat="46.41669" lon="4.88665">
        <ele>161.60000610352</ele>
        <time>2017-07-24T11:40:42Z</time>
      </trkpt>
      <trkpt lat="46.4163" lon="4.88653">
        <ele>161.39999389648</ele>
        <time>2017-07-24T11:40:49Z</time>
      </trkpt>
      <trkpt lat="46.41594" lon="4.88641">
        <ele>162</ele>
        <time>2017-07-24T11:40:56Z</time>
      </trkpt>
      <trkpt lat="46.41547" lon="4.88624">
        <ele>161.39999389648</ele>
        <time>2017-07-24T11:41:05Z</time>
      </trkpt>
      <trkpt lat="46.41525" lon="4.88618">
        <ele>161.39999389648</ele>
        <time>2017-07-24T11:41:09Z</time>
      </trkpt>
      <trkpt lat="46.41514" lon="4.88615">
        <ele>161.39999389648</ele>
        <time>2017-07-24T11:41:11Z</time>
      </trkpt>
      <trkpt lat="46.41464" lon="4.886">
        <ele>161.80000305176</ele>
        <time>2017-07-24T11:41:20Z</time>
      </trkpt>
      <trkpt lat="46.41407" lon="4.88589">
        <ele>161.39999389648</ele>
        <time>2017-07-24T11:41:30Z</time>
      </trkpt>
      <trkpt lat="46.41401" lon="4.88588">
        <ele>161.60000610352</ele>
        <time>2017-07-24T11:41:31Z</time>
      </trkpt>
      <trkpt lat="46.41355" lon="4.88584">
        <ele>161.39999389648</ele>
        <time>2017-07-24T11:41:39Z</time>
      </trkpt>
      <trkpt lat="46.41309" lon="4.88578">
        <ele>161.39999389648</ele>
        <time>2017-07-24T11:41:47Z</time>
      </trkpt>
      <trkpt lat="46.41303" lon="4.88578">
        <ele>161.39999389648</ele>
        <time>2017-07-24T11:41:48Z</time>
      </trkpt>
      <trkpt lat="46.41255" lon="4.88572">
        <ele>161.39999389648</ele>
        <time>2017-07-24T11:41:56Z</time>
      </trkpt>
      <trkpt lat="46.41209" lon="4.88567">
        <ele>161.39999389648</ele>
        <time>2017-07-24T11:42:04Z</time>
      </trkpt>
      <trkpt lat="46.41174" lon="4.88567">
        <ele>161.19999694824</ele>
        <time>2017-07-24T11:42:10Z</time>
      </trkpt>
      <trkpt lat="46.41168" lon="4.88568">
        <ele>161.19999694824</ele>
        <time>2017-07-24T11:42:11Z</time>
      </trkpt>
      <trkpt lat="46.41145" lon="4.88572">
        <ele>161</ele>
        <time>2017-07-24T11:42:15Z</time>
      </trkpt>
      <trkpt lat="46.41093" lon="4.88578">
        <ele>161</ele>
        <time>2017-07-24T11:42:24Z</time>
      </trkpt>
      <trkpt lat="46.41052" lon="4.88584">
        <ele>161</ele>
        <time>2017-07-24T11:42:31Z</time>
      </trkpt>
      <trkpt lat="46.41024" lon="4.8858">
        <ele>160.60000610352</ele>
        <time>2017-07-24T11:42:36Z</time>
      </trkpt>
      <trkpt lat="46.41019" lon="4.88577">
        <ele>160.60000610352</ele>
        <time>2017-07-24T11:42:37Z</time>
      </trkpt>
      <trkpt lat="46.40998" lon="4.88554">
        <ele>160.80000305176</ele>
        <time>2017-07-24T11:42:43Z</time>
      </trkpt>
      <trkpt lat="46.40994" lon="4.88551">
        <ele>160.80000305176</ele>
        <time>2017-07-24T11:42:45Z</time>
      </trkpt>
      <trkpt lat="46.40993" lon="4.88553">
        <ele>160.80000305176</ele>
        <time>2017-07-24T11:42:46Z</time>
      </trkpt>
      <trkpt lat="46.40988" lon="4.88565">
        <ele>160.80000305176</ele>
        <time>2017-07-24T11:42:51Z</time>
      </trkpt>
      <trkpt lat="46.40977" lon="4.88574">
        <ele>161.19999694824</ele>
        <time>2017-07-24T11:42:56Z</time>
      </trkpt>
      <trkpt lat="46.40966" lon="4.88585">
        <ele>161.39999389648</ele>
        <time>2017-07-24T11:42:59Z</time>
      </trkpt>
      <trkpt lat="46.40959" lon="4.88593">
        <ele>161.39999389648</ele>
        <time>2017-07-24T11:43:01Z</time>
      </trkpt>
      <trkpt lat="46.40946" lon="4.88609">
        <ele>161.19999694824</ele>
        <time>2017-07-24T11:43:05Z</time>
      </trkpt>
      <trkpt lat="46.40942" lon="4.88613">
        <ele>161</ele>
        <time>2017-07-24T11:43:06Z</time>
      </trkpt>
      <trkpt lat="46.40916" lon="4.88643">
        <ele>161</ele>
        <time>2017-07-24T11:43:13Z</time>
      </trkpt>
      <trkpt lat="46.40912" lon="4.88646">
        <ele>161</ele>
        <time>2017-07-24T11:43:14Z</time>
      </trkpt>
      <trkpt lat="46.40895" lon="4.88654">
        <ele>160.80000305176</ele>
        <time>2017-07-24T11:43:17Z</time>
      </trkpt>
      <trkpt lat="46.40849" lon="4.88671">
        <ele>160.19999694824</ele>
        <time>2017-07-24T11:43:25Z</time>
      </trkpt>
      <trkpt lat="46.40796" lon="4.88682">
        <ele>160.19999694824</ele>
        <time>2017-07-24T11:43:34Z</time>
      </trkpt>
      <trkpt lat="46.40752" lon="4.88691">
        <ele>160.19999694824</ele>
        <time>2017-07-24T11:43:41Z</time>
      </trkpt>
      <trkpt lat="46.40746" lon="4.88693">
        <ele>160.19999694824</ele>
        <time>2017-07-24T11:43:42Z</time>
      </trkpt>
      <trkpt lat="46.40699" lon="4.88705">
        <ele>160.39999389648</ele>
        <time>2017-07-24T11:43:50Z</time>
      </trkpt>
      <trkpt lat="46.40694" lon="4.88708">
        <ele>160.39999389648</ele>
        <time>2017-07-24T11:43:51Z</time>
      </trkpt>
      <trkpt lat="46.40647" lon="4.88727">
        <ele>160.39999389648</ele>
        <time>2017-07-24T11:43:59Z</time>
      </trkpt>
      <trkpt lat="46.40603" lon="4.88734">
        <ele>160.39999389648</ele>
        <time>2017-07-24T11:44:06Z</time>
      </trkpt>
      <trkpt lat="46.40561" lon="4.88728">
        <ele>160.80000305176</ele>
        <time>2017-07-24T11:44:13Z</time>
      </trkpt>
      <trkpt lat="46.40514" lon="4.8872">
        <ele>161</ele>
        <time>2017-07-24T11:44:22Z</time>
      </trkpt>
      <trkpt lat="46.4049" lon="4.88714">
        <ele>160.80000305176</ele>
        <time>2017-07-24T11:44:26Z</time>
      </trkpt>
      <trkpt lat="46.40478" lon="4.88709">
        <ele>160.80000305176</ele>
        <time>2017-07-24T11:44:28Z</time>
      </trkpt>
      <trkpt lat="46.40438" lon="4.88686">
        <ele>160.60000610352</ele>
        <time>2017-07-24T11:44:35Z</time>
      </trkpt>
      <trkpt lat="46.40391" lon="4.88647">
        <ele>160.80000305176</ele>
        <time>2017-07-24T11:44:44Z</time>
      </trkpt>
      <trkpt lat="46.4035" lon="4.88611">
        <ele>160.80000305176</ele>
        <time>2017-07-24T11:44:52Z</time>
      </trkpt>
      <trkpt lat="46.40315" lon="4.88585">
        <ele>161</ele>
        <time>2017-07-24T11:44:59Z</time>
      </trkpt>
      <trkpt lat="46.4031" lon="4.88581">
        <ele>161</ele>
        <time>2017-07-24T11:45:00Z</time>
      </trkpt>
      <trkpt lat="46.40286" lon="4.88565">
        <ele>161</ele>
        <time>2017-07-24T11:45:05Z</time>
      </trkpt>
      <trkpt lat="46.40271" lon="4.88553">
        <ele>161.19999694824</ele>
        <time>2017-07-24T11:45:08Z</time>
      </trkpt>
      <trkpt lat="46.40254" lon="4.88543">
        <ele>161.19999694824</ele>
        <time>2017-07-24T11:45:11Z</time>
      </trkpt>
      <trkpt lat="46.40213" lon="4.88512">
        <ele>161.19999694824</ele>
        <time>2017-07-24T11:45:19Z</time>
      </trkpt>
      <trkpt lat="46.40187" lon="4.88487">
        <ele>161.39999389648</ele>
        <time>2017-07-24T11:45:25Z</time>
      </trkpt>
      <trkpt lat="46.40176" lon="4.88472">
        <ele>161.39999389648</ele>
        <time>2017-07-24T11:45:28Z</time>
      </trkpt>
      <trkpt lat="46.40162" lon="4.88457">
        <ele>161.60000610352</ele>
        <time>2017-07-24T11:45:31Z</time>
      </trkpt>
      <trkpt lat="46.40134" lon="4.88435">
        <ele>161.60000610352</ele>
        <time>2017-07-24T11:45:37Z</time>
      </trkpt>
      <trkpt lat="46.40102" lon="4.88414">
        <ele>161.60000610352</ele>
        <time>2017-07-24T11:45:43Z</time>
      </trkpt>
      <trkpt lat="46.40064" lon="4.88389">
        <ele>161.80000305176</ele>
        <time>2017-07-24T11:45:50Z</time>
      </trkpt>
      <trkpt lat="46.40027" lon="4.88359">
        <ele>161.60000610352</ele>
        <time>2017-07-24T11:45:57Z</time>
      </trkpt>
      <trkpt lat="46.3999" lon="4.88325">
        <ele>162</ele>
        <time>2017-07-24T11:46:04Z</time>
      </trkpt>
      <trkpt lat="46.3998" lon="4.88315">
        <ele>162.19999694824</ele>
        <time>2017-07-24T11:46:06Z</time>
      </trkpt>
      <trkpt lat="46.39954" lon="4.88292">
        <ele>162.39999389648</ele>
        <time>2017-07-24T11:46:11Z</time>
      </trkpt>
      <trkpt lat="46.39908" lon="4.88249">
        <ele>162.19999694824</ele>
        <time>2017-07-24T11:46:20Z</time>
      </trkpt>
      <trkpt lat="46.39903" lon="4.88244">
        <ele>162</ele>
        <time>2017-07-24T11:46:21Z</time>
      </trkpt>
      <trkpt lat="46.39855" lon="4.88201">
        <ele>161.80000305176</ele>
        <time>2017-07-24T11:46:30Z</time>
      </trkpt>
      <trkpt lat="46.39849" lon="4.88197">
        <ele>161.80000305176</ele>
        <time>2017-07-24T11:46:31Z</time>
      </trkpt>
      <trkpt lat="46.39805" lon="4.88163">
        <ele>162</ele>
        <time>2017-07-24T11:46:39Z</time>
      </trkpt>
      <trkpt lat="46.39755" lon="4.88131">
        <ele>161.80000305176</ele>
        <time>2017-07-24T11:46:48Z</time>
      </trkpt>
      <trkpt lat="46.3975" lon="4.88127">
        <ele>161.80000305176</ele>
        <time>2017-07-24T11:46:49Z</time>
      </trkpt>
      <trkpt lat="46.39703" lon="4.88099">
        <ele>161.80000305176</ele>
        <time>2017-07-24T11:46:57Z</time>
      </trkpt>
      <trkpt lat="46.39663" lon="4.88073">
        <ele>161.60000610352</ele>
        <time>2017-07-24T11:47:04Z</time>
      </trkpt>
      <trkpt lat="46.39633" lon="4.88056">
        <ele>161.80000305176</ele>
        <time>2017-07-24T11:47:09Z</time>
      </trkpt>
      <trkpt lat="46.39583" lon="4.88028">
        <ele>162</ele>
        <time>2017-07-24T11:47:17Z</time>
      </trkpt>
      <trkpt lat="46.39577" lon="4.88025">
        <ele>162</ele>
        <time>2017-07-24T11:47:18Z</time>
      </trkpt>
      <trkpt lat="46.39526" lon="4.88001">
        <ele>162</ele>
        <time>2017-07-24T11:47:26Z</time>
      </trkpt>
      <trkpt lat="46.39469" lon="4.87971">
        <ele>162</ele>
        <time>2017-07-24T11:47:35Z</time>
      </trkpt>
      <trkpt lat="46.39414" lon="4.87936">
        <ele>161.80000305176</ele>
        <time>2017-07-24T11:47:44Z</time>
      </trkpt>
      <trkpt lat="46.39408" lon="4.87931">
        <ele>161.80000305176</ele>
        <time>2017-07-24T11:47:45Z</time>
      </trkpt>
      <trkpt lat="46.39369" lon="4.87899">
        <ele>161.19999694824</ele>
        <time>2017-07-24T11:47:52Z</time>
      </trkpt>
      <trkpt lat="46.39364" lon="4.87894">
        <ele>161.19999694824</ele>
        <time>2017-07-24T11:47:53Z</time>
      </trkpt>
      <trkpt lat="46.39322" lon="4.87856">
        <ele>160.80000305176</ele>
        <time>2017-07-24T11:48:01Z</time>
      </trkpt>
      <trkpt lat="46.39274" lon="4.87809">
        <ele>160.80000305176</ele>
        <time>2017-07-24T11:48:10Z</time>
      </trkpt>
      <trkpt lat="46.39237" lon="4.87775">
        <ele>161.19999694824</ele>
        <time>2017-07-24T11:48:17Z</time>
      </trkpt>
      <trkpt lat="46.39208" lon="4.87756">
        <ele>161.19999694824</ele>
        <time>2017-07-24T11:48:22Z</time>
      </trkpt>
      <trkpt lat="46.39203" lon="4.87751">
        <ele>161.19999694824</ele>
        <time>2017-07-24T11:48:23Z</time>
      </trkpt>
      <trkpt lat="46.3919" lon="4.87733">
        <ele>161.19999694824</ele>
        <time>2017-07-24T11:48:26Z</time>
      </trkpt>
      <trkpt lat="46.39178" lon="4.87714">
        <ele>161.39999389648</ele>
        <time>2017-07-24T11:48:29Z</time>
      </trkpt>
      <trkpt lat="46.39146" lon="4.87674">
        <ele>161.19999694824</ele>
        <time>2017-07-24T11:48:36Z</time>
      </trkpt>
      <trkpt lat="46.3914" lon="4.8767">
        <ele>161.19999694824</ele>
        <time>2017-07-24T11:48:37Z</time>
      </trkpt>
      <trkpt lat="46.39105" lon="4.87634">
        <ele>161.19999694824</ele>
        <time>2017-07-24T11:48:44Z</time>
      </trkpt>
      <trkpt lat="46.3906" lon="4.87587">
        <ele>161.19999694824</ele>
        <time>2017-07-24T11:48:53Z</time>
      </trkpt>
      <trkpt lat="46.39022" lon="4.87552">
        <ele>161.60000610352</ele>
        <time>2017-07-24T11:49:01Z</time>
      </trkpt>
      <trkpt lat="46.39" lon="4.87533">
        <ele>162.19999694824</ele>
        <time>2017-07-24T11:49:06Z</time>
      </trkpt>
      <trkpt lat="46.38987" lon="4.8752">
        <ele>162.39999389648</ele>
        <time>2017-07-24T11:49:09Z</time>
      </trkpt>
      <trkpt lat="46.38953" lon="4.87496">
        <ele>162.60000610352</ele>
        <time>2017-07-24T11:49:16Z</time>
      </trkpt>
      <trkpt lat="46.38923" lon="4.8747">
        <ele>162.39999389648</ele>
        <time>2017-07-24T11:49:22Z</time>
      </trkpt>
      <trkpt lat="46.38889" lon="4.87437">
        <ele>162.80000305176</ele>
        <time>2017-07-24T11:49:29Z</time>
      </trkpt>
      <trkpt lat="46.38876" lon="4.87424">
        <ele>163</ele>
        <time>2017-07-24T11:49:32Z</time>
      </trkpt>
      <trkpt lat="46.38867" lon="4.87415">
        <ele>163</ele>
        <time>2017-07-24T11:49:34Z</time>
      </trkpt>
      <trkpt lat="46.38857" lon="4.87408">
        <ele>163.19999694824</ele>
        <time>2017-07-24T11:49:36Z</time>
      </trkpt>
      <trkpt lat="46.38852" lon="4.87405">
        <ele>163.19999694824</ele>
        <time>2017-07-24T11:49:37Z</time>
      </trkpt>
      <trkpt lat="46.38841" lon="4.87399">
        <ele>163.19999694824</ele>
        <time>2017-07-24T11:49:39Z</time>
      </trkpt>
      <trkpt lat="46.38799" lon="4.87374">
        <ele>163.60000610352</ele>
        <time>2017-07-24T11:49:47Z</time>
      </trkpt>
      <trkpt lat="46.38762" lon="4.87343">
        <ele>163.60000610352</ele>
        <time>2017-07-24T11:49:54Z</time>
      </trkpt>
      <trkpt lat="46.38745" lon="4.87332">
        <ele>163.39999389648</ele>
        <time>2017-07-24T11:49:57Z</time>
      </trkpt>
      <trkpt lat="46.38732" lon="4.8733">
        <ele>163.39999389648</ele>
        <time>2017-07-24T11:49:59Z</time>
      </trkpt>
      <trkpt lat="46.38726" lon="4.87327">
        <ele>163.39999389648</ele>
        <time>2017-07-24T11:50:00Z</time>
      </trkpt>
      <trkpt lat="46.38708" lon="4.87318">
        <ele>163.39999389648</ele>
        <time>2017-07-24T11:50:03Z</time>
      </trkpt>
      <trkpt lat="46.38654" lon="4.87292">
        <ele>163</ele>
        <time>2017-07-24T11:50:12Z</time>
      </trkpt>
      <trkpt lat="46.38615" lon="4.87274">
        <ele>162.19999694824</ele>
        <time>2017-07-24T11:50:19Z</time>
      </trkpt>
      <trkpt lat="46.38604" lon="4.87269">
        <ele>162.19999694824</ele>
        <time>2017-07-24T11:50:21Z</time>
      </trkpt>
      <trkpt lat="46.38583" lon="4.87254">
        <ele>162.19999694824</ele>
        <time>2017-07-24T11:50:25Z</time>
      </trkpt>
      <trkpt lat="46.38534" lon="4.87217">
        <ele>162.19999694824</ele>
        <time>2017-07-24T11:50:35Z</time>
      </trkpt>
      <trkpt lat="46.38529" lon="4.87214">
        <ele>162.19999694824</ele>
        <time>2017-07-24T11:50:36Z</time>
      </trkpt>
      <trkpt lat="46.38491" lon="4.87196">
        <ele>162.60000610352</ele>
        <time>2017-07-24T11:50:43Z</time>
      </trkpt>
      <trkpt lat="46.38475" lon="4.87185">
        <ele>162.39999389648</ele>
        <time>2017-07-24T11:50:46Z</time>
      </trkpt>
      <trkpt lat="46.38464" lon="4.87177">
        <ele>162.19999694824</ele>
        <time>2017-07-24T11:50:48Z</time>
      </trkpt>
      <trkpt lat="46.38447" lon="4.87168">
        <ele>162.19999694824</ele>
        <time>2017-07-24T11:50:51Z</time>
      </trkpt>
      <trkpt lat="46.38421" lon="4.87151">
        <ele>162</ele>
        <time>2017-07-24T11:50:56Z</time>
      </trkpt>
      <trkpt lat="46.3838" lon="4.87123">
        <ele>162</ele>
        <time>2017-07-24T11:51:04Z</time>
      </trkpt>
      <trkpt lat="46.38332" lon="4.87089">
        <ele>162.19999694824</ele>
        <time>2017-07-24T11:51:14Z</time>
      </trkpt>
      <trkpt lat="46.38328" lon="4.87084">
        <ele>162.19999694824</ele>
        <time>2017-07-24T11:51:15Z</time>
      </trkpt>
      <trkpt lat="46.38306" lon="4.87063">
        <ele>162.39999389648</ele>
        <time>2017-07-24T11:51:20Z</time>
      </trkpt>
      <trkpt lat="46.38275" lon="4.87041">
        <ele>161.80000305176</ele>
        <time>2017-07-24T11:51:26Z</time>
      </trkpt>
      <trkpt lat="46.3823" lon="4.86999">
        <ele>161.19999694824</ele>
        <time>2017-07-24T11:51:35Z</time>
      </trkpt>
      <trkpt lat="46.38197" lon="4.86959">
        <ele>161.19999694824</ele>
        <time>2017-07-24T11:51:43Z</time>
      </trkpt>
      <trkpt lat="46.38184" lon="4.86945">
        <ele>161.19999694824</ele>
        <time>2017-07-24T11:51:46Z</time>
      </trkpt>
      <trkpt lat="46.38166" lon="4.86925">
        <ele>161.39999389648</ele>
        <time>2017-07-24T11:51:50Z</time>
      </trkpt>
      <trkpt lat="46.38149" lon="4.86904">
        <ele>162</ele>
        <time>2017-07-24T11:51:54Z</time>
      </trkpt>
      <trkpt lat="46.3814" lon="4.86893">
        <ele>162.19999694824</ele>
        <time>2017-07-24T11:51:56Z</time>
      </trkpt>
      <trkpt lat="46.38135" lon="4.86889">
        <ele>162.19999694824</ele>
        <time>2017-07-24T11:51:57Z</time>
      </trkpt>
      <trkpt lat="46.38097" lon="4.86847">
        <ele>162.19999694824</ele>
        <time>2017-07-24T11:52:05Z</time>
      </trkpt>
      <trkpt lat="46.38059" lon="4.86811">
        <ele>162.19999694824</ele>
        <time>2017-07-24T11:52:13Z</time>
      </trkpt>
      <trkpt lat="46.38016" lon="4.86773">
        <ele>161.39999389648</ele>
        <time>2017-07-24T11:52:21Z</time>
      </trkpt>
      <trkpt lat="46.37985" lon="4.86746">
        <ele>161</ele>
        <time>2017-07-24T11:52:27Z</time>
      </trkpt>
      <trkpt lat="46.37947" lon="4.86707">
        <ele>161</ele>
        <time>2017-07-24T11:52:35Z</time>
      </trkpt>
      <trkpt lat="46.37929" lon="4.8669">
        <ele>161</ele>
        <time>2017-07-24T11:52:39Z</time>
      </trkpt>
      <trkpt lat="46.37917" lon="4.86675">
        <ele>161.19999694824</ele>
        <time>2017-07-24T11:52:42Z</time>
      </trkpt>
      <trkpt lat="46.37878" lon="4.86637">
        <ele>161</ele>
        <time>2017-07-24T11:52:50Z</time>
      </trkpt>
      <trkpt lat="46.37848" lon="4.86616">
        <ele>161</ele>
        <time>2017-07-24T11:52:56Z</time>
      </trkpt>
      <trkpt lat="46.37804" lon="4.8658">
        <ele>161</ele>
        <time>2017-07-24T11:53:05Z</time>
      </trkpt>
      <trkpt lat="46.37764" lon="4.86547">
        <ele>161.39999389648</ele>
        <time>2017-07-24T11:53:13Z</time>
      </trkpt>
      <trkpt lat="46.37721" lon="4.86516">
        <ele>161.60000610352</ele>
        <time>2017-07-24T11:53:21Z</time>
      </trkpt>
      <trkpt lat="46.37711" lon="4.86507">
        <ele>161.60000610352</ele>
        <time>2017-07-24T11:53:23Z</time>
      </trkpt>
      <trkpt lat="46.37695" lon="4.86497">
        <ele>161.60000610352</ele>
        <time>2017-07-24T11:53:26Z</time>
      </trkpt>
      <trkpt lat="46.37689" lon="4.86492">
        <ele>161.60000610352</ele>
        <time>2017-07-24T11:53:27Z</time>
      </trkpt>
      <trkpt lat="46.37675" lon="4.86479">
        <ele>161.80000305176</ele>
        <time>2017-07-24T11:53:30Z</time>
      </trkpt>
      <trkpt lat="46.3767" lon="4.86475">
        <ele>162</ele>
        <time>2017-07-24T11:53:31Z</time>
      </trkpt>
      <trkpt lat="46.37637" lon="4.86447">
        <ele>162</ele>
        <time>2017-07-24T11:53:38Z</time>
      </trkpt>
      <trkpt lat="46.37633" lon="4.86442">
        <ele>162.19999694824</ele>
        <time>2017-07-24T11:53:39Z</time>
      </trkpt>
      <trkpt lat="46.37615" lon="4.8642">
        <ele>162.39999389648</ele>
        <time>2017-07-24T11:53:43Z</time>
      </trkpt>
      <trkpt lat="46.37606" lon="4.86412">
        <ele>162.39999389648</ele>
        <time>2017-07-24T11:53:45Z</time>
      </trkpt>
      <trkpt lat="46.37576" lon="4.86386">
        <ele>161.80000305176</ele>
        <time>2017-07-24T11:53:51Z</time>
      </trkpt>
      <trkpt lat="46.37568" lon="4.86375">
        <ele>161.60000610352</ele>
        <time>2017-07-24T11:53:53Z</time>
      </trkpt>
      <trkpt lat="46.3754" lon="4.86348">
        <ele>162</ele>
        <time>2017-07-24T11:53:59Z</time>
      </trkpt>
      <trkpt lat="46.37526" lon="4.86338">
        <ele>162</ele>
        <time>2017-07-24T11:54:02Z</time>
      </trkpt>
      <trkpt lat="46.37516" lon="4.86331">
        <ele>161.80000305176</ele>
        <time>2017-07-24T11:54:04Z</time>
      </trkpt>
      <trkpt lat="46.37508" lon="4.86323">
        <ele>161.80000305176</ele>
        <time>2017-07-24T11:54:06Z</time>
      </trkpt>
      <trkpt lat="46.37491" lon="4.86308">
        <ele>162</ele>
        <time>2017-07-24T11:54:10Z</time>
      </trkpt>
      <trkpt lat="46.37466" lon="4.86284">
        <ele>162.19999694824</ele>
        <time>2017-07-24T11:54:16Z</time>
      </trkpt>
      <trkpt lat="46.37439" lon="4.86263">
        <ele>162.80000305176</ele>
        <time>2017-07-24T11:54:22Z</time>
      </trkpt>
      <trkpt lat="46.37406" lon="4.86234">
        <ele>163</ele>
        <time>2017-07-24T11:54:29Z</time>
      </trkpt>
      <trkpt lat="46.37396" lon="4.86225">
        <ele>163</ele>
        <time>2017-07-24T11:54:31Z</time>
      </trkpt>
      <trkpt lat="46.37375" lon="4.86207">
        <ele>163.19999694824</ele>
        <time>2017-07-24T11:54:35Z</time>
      </trkpt>
      <trkpt lat="46.37336" lon="4.86165">
        <ele>163</ele>
        <time>2017-07-24T11:54:43Z</time>
      </trkpt>
      <trkpt lat="46.37295" lon="4.86122">
        <ele>162.80000305176</ele>
        <time>2017-07-24T11:54:51Z</time>
      </trkpt>
      <trkpt lat="46.37255" lon="4.86086">
        <ele>161.80000305176</ele>
        <time>2017-07-24T11:54:59Z</time>
      </trkpt>
      <trkpt lat="46.37218" lon="4.86056">
        <ele>161.80000305176</ele>
        <time>2017-07-24T11:55:07Z</time>
      </trkpt>
      <trkpt lat="46.37186" lon="4.86023">
        <ele>162.80000305176</ele>
        <time>2017-07-24T11:55:14Z</time>
      </trkpt>
      <trkpt lat="46.37146" lon="4.85985">
        <ele>162.60000610352</ele>
        <time>2017-07-24T11:55:22Z</time>
      </trkpt>
      <trkpt lat="46.37108" lon="4.85953">
        <ele>162.80000305176</ele>
        <time>2017-07-24T11:55:29Z</time>
      </trkpt>
      <trkpt lat="46.3707" lon="4.8592">
        <ele>162.39999389648</ele>
        <time>2017-07-24T11:55:36Z</time>
      </trkpt>
      <trkpt lat="46.37033" lon="4.85893">
        <ele>162.19999694824</ele>
        <time>2017-07-24T11:55:43Z</time>
      </trkpt>
      <trkpt lat="46.37028" lon="4.85889">
        <ele>162.19999694824</ele>
        <time>2017-07-24T11:55:44Z</time>
      </trkpt>
      <trkpt lat="46.37013" lon="4.85874">
        <ele>162.39999389648</ele>
        <time>2017-07-24T11:55:47Z</time>
      </trkpt>
      <trkpt lat="46.36976" lon="4.85847">
        <ele>162.80000305176</ele>
        <time>2017-07-24T11:55:53Z</time>
      </trkpt>
      <trkpt lat="46.36939" lon="4.85817">
        <ele>162.80000305176</ele>
        <time>2017-07-24T11:56:00Z</time>
      </trkpt>
      <trkpt lat="46.3692" lon="4.85801">
        <ele>162.80000305176</ele>
        <time>2017-07-24T11:56:04Z</time>
      </trkpt>
      <trkpt lat="46.36903" lon="4.8579">
        <ele>163</ele>
        <time>2017-07-24T11:56:07Z</time>
      </trkpt>
      <trkpt lat="46.3687" lon="4.85768">
        <ele>163.19999694824</ele>
        <time>2017-07-24T11:56:13Z</time>
      </trkpt>
      <trkpt lat="46.36837" lon="4.8574">
        <ele>163.60000610352</ele>
        <time>2017-07-24T11:56:20Z</time>
      </trkpt>
      <trkpt lat="46.36832" lon="4.85738">
        <ele>163.60000610352</ele>
        <time>2017-07-24T11:56:21Z</time>
      </trkpt>
      <trkpt lat="46.36817" lon="4.85729">
        <ele>163.19999694824</ele>
        <time>2017-07-24T11:56:24Z</time>
      </trkpt>
      <trkpt lat="46.36811" lon="4.85725">
        <ele>163.19999694824</ele>
        <time>2017-07-24T11:56:25Z</time>
      </trkpt>
      <trkpt lat="46.3678" lon="4.85705">
        <ele>163.60000610352</ele>
        <time>2017-07-24T11:56:31Z</time>
      </trkpt>
      <trkpt lat="46.36752" lon="4.85687">
        <ele>163.60000610352</ele>
        <time>2017-07-24T11:56:36Z</time>
      </trkpt>
      <trkpt lat="46.36747" lon="4.85682">
        <ele>163.60000610352</ele>
        <time>2017-07-24T11:56:37Z</time>
      </trkpt>
      <trkpt lat="46.36741" lon="4.85679">
        <ele>163.60000610352</ele>
        <time>2017-07-24T11:56:38Z</time>
      </trkpt>
      <trkpt lat="46.36715" lon="4.8566">
        <ele>163.80000305176</ele>
        <time>2017-07-24T11:56:43Z</time>
      </trkpt>
      <trkpt lat="46.36679" lon="4.85631">
        <ele>163.39999389648</ele>
        <time>2017-07-24T11:56:50Z</time>
      </trkpt>
      <trkpt lat="46.36631" lon="4.85598">
        <ele>163</ele>
        <time>2017-07-24T11:56:59Z</time>
      </trkpt>
      <trkpt lat="46.366" lon="4.85572">
        <ele>163</ele>
        <time>2017-07-24T11:57:05Z</time>
      </trkpt>
      <trkpt lat="46.36559" lon="4.85536">
        <ele>163.19999694824</ele>
        <time>2017-07-24T11:57:13Z</time>
      </trkpt>
      <trkpt lat="46.36521" lon="4.85504">
        <ele>163.80000305176</ele>
        <time>2017-07-24T11:57:21Z</time>
      </trkpt>
      <trkpt lat="46.36491" lon="4.85478">
        <ele>164</ele>
        <time>2017-07-24T11:57:28Z</time>
      </trkpt>
      <trkpt lat="46.36482" lon="4.85471">
        <ele>164.19999694824</ele>
        <time>2017-07-24T11:57:30Z</time>
      </trkpt>
      <trkpt lat="46.3647" lon="4.85462">
        <ele>164.39999389648</ele>
        <time>2017-07-24T11:57:33Z</time>
      </trkpt>
      <trkpt lat="46.36456" lon="4.85453">
        <ele>164.80000305176</ele>
        <time>2017-07-24T11:57:36Z</time>
      </trkpt>
      <trkpt lat="46.36418" lon="4.85427">
        <ele>164.60000610352</ele>
        <time>2017-07-24T11:57:44Z</time>
      </trkpt>
      <trkpt lat="46.36375" lon="4.85402">
        <ele>164.80000305176</ele>
        <time>2017-07-24T11:57:52Z</time>
      </trkpt>
      <trkpt lat="46.36347" lon="4.85384">
        <ele>164.60000610352</ele>
        <time>2017-07-24T11:57:57Z</time>
      </trkpt>
      <trkpt lat="46.36334" lon="4.8538">
        <ele>164.60000610352</ele>
        <time>2017-07-24T11:57:59Z</time>
      </trkpt>
      <trkpt lat="46.36304" lon="4.85365">
        <ele>164.19999694824</ele>
        <time>2017-07-24T11:58:04Z</time>
      </trkpt>
      <trkpt lat="46.36299" lon="4.85363">
        <ele>164</ele>
        <time>2017-07-24T11:58:05Z</time>
      </trkpt>
      <trkpt lat="46.36252" lon="4.85342">
        <ele>163.80000305176</ele>
        <time>2017-07-24T11:58:13Z</time>
      </trkpt>
      <trkpt lat="46.36207" lon="4.85326">
        <ele>163.39999389648</ele>
        <time>2017-07-24T11:58:21Z</time>
      </trkpt>
      <trkpt lat="46.36179" lon="4.85319">
        <ele>163.39999389648</ele>
        <time>2017-07-24T11:58:26Z</time>
      </trkpt>
      <trkpt lat="46.36166" lon="4.85315">
        <ele>163.19999694824</ele>
        <time>2017-07-24T11:58:28Z</time>
      </trkpt>
      <trkpt lat="46.3612" lon="4.85299">
        <ele>162.19999694824</ele>
        <time>2017-07-24T11:58:35Z</time>
      </trkpt>
      <trkpt lat="46.36074" lon="4.85283">
        <ele>161.60000610352</ele>
        <time>2017-07-24T11:58:42Z</time>
      </trkpt>
      <trkpt lat="46.36067" lon="4.85283">
        <ele>161.60000610352</ele>
        <time>2017-07-24T11:58:43Z</time>
      </trkpt>
      <trkpt lat="46.36047" lon="4.8528">
        <ele>161.60000610352</ele>
        <time>2017-07-24T11:58:46Z</time>
      </trkpt>
      <trkpt lat="46.3604" lon="4.85278">
        <ele>161.60000610352</ele>
        <time>2017-07-24T11:58:47Z</time>
      </trkpt>
      <trkpt lat="46.35999" lon="4.8526">
        <ele>161.19999694824</ele>
        <time>2017-07-24T11:58:53Z</time>
      </trkpt>
      <trkpt lat="46.35955" lon="4.85232">
        <ele>161.39999389648</ele>
        <time>2017-07-24T11:59:00Z</time>
      </trkpt>
      <trkpt lat="46.35938" lon="4.85217">
        <ele>161.60000610352</ele>
        <time>2017-07-24T11:59:03Z</time>
      </trkpt>
      <trkpt lat="46.35927" lon="4.85206">
        <ele>161.80000305176</ele>
        <time>2017-07-24T11:59:05Z</time>
      </trkpt>
      <trkpt lat="46.35922" lon="4.85202">
        <ele>162</ele>
        <time>2017-07-24T11:59:06Z</time>
      </trkpt>
      <trkpt lat="46.35899" lon="4.85188">
        <ele>162.19999694824</ele>
        <time>2017-07-24T11:59:10Z</time>
      </trkpt>
      <trkpt lat="46.35876" lon="4.85173">
        <ele>162.19999694824</ele>
        <time>2017-07-24T11:59:14Z</time>
      </trkpt>
      <trkpt lat="46.35852" lon="4.85157">
        <ele>162.39999389648</ele>
        <time>2017-07-24T11:59:18Z</time>
      </trkpt>
      <trkpt lat="46.35806" lon="4.85127">
        <ele>162.39999389648</ele>
        <time>2017-07-24T11:59:26Z</time>
      </trkpt>
      <trkpt lat="46.35753" lon="4.85097">
        <ele>162.19999694824</ele>
        <time>2017-07-24T11:59:35Z</time>
      </trkpt>
      <trkpt lat="46.35747" lon="4.85094">
        <ele>162.19999694824</ele>
        <time>2017-07-24T11:59:36Z</time>
      </trkpt>
      <trkpt lat="46.35699" lon="4.85066">
        <ele>162.39999389648</ele>
        <time>2017-07-24T11:59:44Z</time>
      </trkpt>
      <trkpt lat="46.35651" lon="4.8504">
        <ele>162.19999694824</ele>
        <time>2017-07-24T11:59:52Z</time>
      </trkpt>
      <trkpt lat="46.35633" lon="4.85031">
        <ele>162.39999389648</ele>
        <time>2017-07-24T11:59:55Z</time>
      </trkpt>
      <trkpt lat="46.35615" lon="4.85023">
        <ele>162.19999694824</ele>
        <time>2017-07-24T11:59:58Z</time>
      </trkpt>
      <trkpt lat="46.35609" lon="4.8502">
        <ele>162.19999694824</ele>
        <time>2017-07-24T11:59:59Z</time>
      </trkpt>
      <trkpt lat="46.35575" lon="4.85007">
        <ele>162.39999389648</ele>
        <time>2017-07-24T12:00:05Z</time>
      </trkpt>
      <trkpt lat="46.35534" lon="4.84992">
        <ele>162.19999694824</ele>
        <time>2017-07-24T12:00:12Z</time>
      </trkpt>
      <trkpt lat="46.355" lon="4.84984">
        <ele>162.19999694824</ele>
        <time>2017-07-24T12:00:18Z</time>
      </trkpt>
      <trkpt lat="46.35459" lon="4.84979">
        <ele>162</ele>
        <time>2017-07-24T12:00:24Z</time>
      </trkpt>
      <trkpt lat="46.35419" lon="4.84971">
        <ele>161.80000305176</ele>
        <time>2017-07-24T12:00:30Z</time>
      </trkpt>
      <trkpt lat="46.35381" lon="4.84966">
        <ele>161.60000610352</ele>
        <time>2017-07-24T12:00:36Z</time>
      </trkpt>
      <trkpt lat="46.35337" lon="4.84963">
        <ele>161.80000305176</ele>
        <time>2017-07-24T12:00:43Z</time>
      </trkpt>
      <trkpt lat="46.3533" lon="4.84962">
        <ele>161.80000305176</ele>
        <time>2017-07-24T12:00:44Z</time>
      </trkpt>
      <trkpt lat="46.35304" lon="4.84964">
        <ele>161.60000610352</ele>
        <time>2017-07-24T12:00:48Z</time>
      </trkpt>
      <trkpt lat="46.35251" lon="4.84969">
        <ele>162</ele>
        <time>2017-07-24T12:00:56Z</time>
      </trkpt>
      <trkpt lat="46.35211" lon="4.84981">
        <ele>162</ele>
        <time>2017-07-24T12:01:02Z</time>
      </trkpt>
      <trkpt lat="46.35151" lon="4.84994">
        <ele>161.60000610352</ele>
        <time>2017-07-24T12:01:11Z</time>
      </trkpt>
      <trkpt lat="46.35145" lon="4.84996">
        <ele>161.60000610352</ele>
        <time>2017-07-24T12:01:12Z</time>
      </trkpt>
      <trkpt lat="46.35099" lon="4.85006">
        <ele>162</ele>
        <time>2017-07-24T12:01:20Z</time>
      </trkpt>
      <trkpt lat="46.35054" lon="4.85015">
        <ele>162.60000610352</ele>
        <time>2017-07-24T12:01:28Z</time>
      </trkpt>
      <trkpt lat="46.35014" lon="4.85023">
        <ele>162.60000610352</ele>
        <time>2017-07-24T12:01:35Z</time>
      </trkpt>
      <trkpt lat="46.3497" lon="4.85032">
        <ele>162.80000305176</ele>
        <time>2017-07-24T12:01:43Z</time>
      </trkpt>
      <trkpt lat="46.34937" lon="4.85037">
        <ele>163.19999694824</ele>
        <time>2017-07-24T12:01:49Z</time>
      </trkpt>
      <trkpt lat="46.34927" lon="4.85038">
        <ele>163.60000610352</ele>
        <time>2017-07-24T12:01:51Z</time>
      </trkpt>
      <trkpt lat="46.34871" lon="4.85046">
        <ele>163.80000305176</ele>
        <time>2017-07-24T12:02:01Z</time>
      </trkpt>
      <trkpt lat="46.34829" lon="4.85052">
        <ele>163</ele>
        <time>2017-07-24T12:02:07Z</time>
      </trkpt>
      <trkpt lat="46.34808" lon="4.85058">
        <ele>162.19999694824</ele>
        <time>2017-07-24T12:02:10Z</time>
      </trkpt>
      <trkpt lat="46.34788" lon="4.85064">
        <ele>161.60000610352</ele>
        <time>2017-07-24T12:02:13Z</time>
      </trkpt>
      <trkpt lat="46.34749" lon="4.85076">
        <ele>161</ele>
        <time>2017-07-24T12:02:19Z</time>
      </trkpt>
      <trkpt lat="46.34735" lon="4.8508">
        <ele>160.80000305176</ele>
        <time>2017-07-24T12:02:21Z</time>
      </trkpt>
      <trkpt lat="46.34685" lon="4.85094">
        <ele>160.39999389648</ele>
        <time>2017-07-24T12:02:29Z</time>
      </trkpt>
      <trkpt lat="46.34642" lon="4.85096">
        <ele>160.80000305176</ele>
        <time>2017-07-24T12:02:36Z</time>
      </trkpt>
      <trkpt lat="46.34608" lon="4.85095">
        <ele>160.80000305176</ele>
        <time>2017-07-24T12:02:42Z</time>
      </trkpt>
      <trkpt lat="46.34568" lon="4.85097">
        <ele>161.19999694824</ele>
        <time>2017-07-24T12:02:48Z</time>
      </trkpt>
      <trkpt lat="46.34516" lon="4.85101">
        <ele>161.19999694824</ele>
        <time>2017-07-24T12:02:56Z</time>
      </trkpt>
      <trkpt lat="46.34503" lon="4.85101">
        <ele>161.19999694824</ele>
        <time>2017-07-24T12:02:58Z</time>
      </trkpt>
      <trkpt lat="46.34471" lon="4.85101">
        <ele>161.19999694824</ele>
        <time>2017-07-24T12:03:03Z</time>
      </trkpt>
      <trkpt lat="46.34433" lon="4.85103">
        <ele>161.39999389648</ele>
        <time>2017-07-24T12:03:09Z</time>
      </trkpt>
      <trkpt lat="46.34387" lon="4.85108">
        <ele>161.60000610352</ele>
        <time>2017-07-24T12:03:16Z</time>
      </trkpt>
      <trkpt lat="46.34332" lon="4.85115">
        <ele>161.80000305176</ele>
        <time>2017-07-24T12:03:24Z</time>
      </trkpt>
      <trkpt lat="46.34325" lon="4.85115">
        <ele>161.60000610352</ele>
        <time>2017-07-24T12:03:25Z</time>
      </trkpt>
      <trkpt lat="46.34272" lon="4.85118">
        <ele>162</ele>
        <time>2017-07-24T12:03:33Z</time>
      </trkpt>
      <trkpt lat="46.34216" lon="4.85112">
        <ele>161.80000305176</ele>
        <time>2017-07-24T12:03:41Z</time>
      </trkpt>
      <trkpt lat="46.34166" lon="4.85106">
        <ele>161.80000305176</ele>
        <time>2017-07-24T12:03:48Z</time>
      </trkpt>
      <trkpt lat="46.3411" lon="4.85096">
        <ele>161.80000305176</ele>
        <time>2017-07-24T12:03:56Z</time>
      </trkpt>
      <trkpt lat="46.34103" lon="4.85095">
        <ele>162</ele>
        <time>2017-07-24T12:03:57Z</time>
      </trkpt>
      <trkpt lat="46.34055" lon="4.85085">
        <ele>161.80000305176</ele>
        <time>2017-07-24T12:04:04Z</time>
      </trkpt>
      <trkpt lat="46.34005" lon="4.85075">
        <ele>161.80000305176</ele>
        <time>2017-07-24T12:04:12Z</time>
      </trkpt>
      <trkpt lat="46.33968" lon="4.85069">
        <ele>162</ele>
        <time>2017-07-24T12:04:18Z</time>
      </trkpt>
      <trkpt lat="46.33962" lon="4.85069">
        <ele>162.19999694824</ele>
        <time>2017-07-24T12:04:19Z</time>
      </trkpt>
      <trkpt lat="46.3395" lon="4.85072">
        <ele>162.39999389648</ele>
        <time>2017-07-24T12:04:21Z</time>
      </trkpt>
      <trkpt lat="46.33939" lon="4.85077">
        <ele>163.19999694824</ele>
        <time>2017-07-24T12:04:23Z</time>
      </trkpt>
      <trkpt lat="46.33933" lon="4.85079">
        <ele>163.39999389648</ele>
        <time>2017-07-24T12:04:24Z</time>
      </trkpt>
      <trkpt lat="46.33909" lon="4.8508">
        <ele>163.80000305176</ele>
        <time>2017-07-24T12:04:28Z</time>
      </trkpt>
      <trkpt lat="46.33872" lon="4.85081">
        <ele>164</ele>
        <time>2017-07-24T12:04:34Z</time>
      </trkpt>
      <trkpt lat="46.33826" lon="4.85076">
        <ele>163.60000610352</ele>
        <time>2017-07-24T12:04:41Z</time>
      </trkpt>
      <trkpt lat="46.33774" lon="4.85071">
        <ele>162.39999389648</ele>
        <time>2017-07-24T12:04:49Z</time>
      </trkpt>
      <trkpt lat="46.33747" lon="4.85066">
        <ele>161.80000305176</ele>
        <time>2017-07-24T12:04:53Z</time>
      </trkpt>
      <trkpt lat="46.33727" lon="4.85063">
        <ele>161.39999389648</ele>
        <time>2017-07-24T12:04:56Z</time>
      </trkpt>
      <trkpt lat="46.3372" lon="4.85062">
        <ele>161.19999694824</ele>
        <time>2017-07-24T12:04:57Z</time>
      </trkpt>
      <trkpt lat="46.33676" lon="4.85063">
        <ele>161</ele>
        <time>2017-07-24T12:05:04Z</time>
      </trkpt>
      <trkpt lat="46.33649" lon="4.85066">
        <ele>161.19999694824</ele>
        <time>2017-07-24T12:05:08Z</time>
      </trkpt>
      <trkpt lat="46.33628" lon="4.85058">
        <ele>161.39999389648</ele>
        <time>2017-07-24T12:05:11Z</time>
      </trkpt>
      <trkpt lat="46.33621" lon="4.85057">
        <ele>161.39999389648</ele>
        <time>2017-07-24T12:05:12Z</time>
      </trkpt>
      <trkpt lat="46.33577" lon="4.85053">
        <ele>161.60000610352</ele>
        <time>2017-07-24T12:05:19Z</time>
      </trkpt>
      <trkpt lat="46.33525" lon="4.85054">
        <ele>161</ele>
        <time>2017-07-24T12:05:27Z</time>
      </trkpt>
      <trkpt lat="46.33483" lon="4.8506">
        <ele>161.19999694824</ele>
        <time>2017-07-24T12:05:33Z</time>
      </trkpt>
      <trkpt lat="46.33427" lon="4.85068">
        <ele>161.19999694824</ele>
        <time>2017-07-24T12:05:41Z</time>
      </trkpt>
      <trkpt lat="46.3342" lon="4.85069">
        <ele>161.19999694824</ele>
        <time>2017-07-24T12:05:42Z</time>
      </trkpt>
      <trkpt lat="46.33364" lon="4.85074">
        <ele>161</ele>
        <time>2017-07-24T12:05:50Z</time>
      </trkpt>
      <trkpt lat="46.33321" lon="4.85078">
        <ele>161</ele>
        <time>2017-07-24T12:05:57Z</time>
      </trkpt>
      <trkpt lat="46.33275" lon="4.85079">
        <ele>161.39999389648</ele>
        <time>2017-07-24T12:06:04Z</time>
      </trkpt>
      <trkpt lat="46.33223" lon="4.85081">
        <ele>161.39999389648</ele>
        <time>2017-07-24T12:06:11Z</time>
      </trkpt>
      <trkpt lat="46.33162" lon="4.85082">
        <ele>161.39999389648</ele>
        <time>2017-07-24T12:06:19Z</time>
      </trkpt>
      <trkpt lat="46.33108" lon="4.85077">
        <ele>161.39999389648</ele>
        <time>2017-07-24T12:06:26Z</time>
      </trkpt>
      <trkpt lat="46.331" lon="4.85077">
        <ele>161.39999389648</ele>
        <time>2017-07-24T12:06:27Z</time>
      </trkpt>
      <trkpt lat="46.33046" lon="4.8507">
        <ele>161.19999694824</ele>
        <time>2017-07-24T12:06:34Z</time>
      </trkpt>
      <trkpt lat="46.33031" lon="4.85068">
        <ele>161.19999694824</ele>
        <time>2017-07-24T12:06:36Z</time>
      </trkpt>
      <trkpt lat="46.33011" lon="4.85065">
        <ele>161.19999694824</ele>
        <time>2017-07-24T12:06:39Z</time>
      </trkpt>
      <trkpt lat="46.32997" lon="4.85064">
        <ele>161.19999694824</ele>
        <time>2017-07-24T12:06:41Z</time>
      </trkpt>
      <trkpt lat="46.32962" lon="4.85054">
        <ele>161</ele>
        <time>2017-07-24T12:06:46Z</time>
      </trkpt>
      <trkpt lat="46.32924" lon="4.85043">
        <ele>161</ele>
        <time>2017-07-24T12:06:51Z</time>
      </trkpt>
      <trkpt lat="46.32876" lon="4.85024">
        <ele>161.19999694824</ele>
        <time>2017-07-24T12:06:58Z</time>
      </trkpt>
      <trkpt lat="46.32845" lon="4.85005">
        <ele>161.19999694824</ele>
        <time>2017-07-24T12:07:03Z</time>
      </trkpt>
      <trkpt lat="46.3284" lon="4.84998">
        <ele>161.19999694824</ele>
        <time>2017-07-24T12:07:04Z</time>
      </trkpt>
      <trkpt lat="46.32824" lon="4.8497">
        <ele>161.39999389648</ele>
        <time>2017-07-24T12:07:08Z</time>
      </trkpt>
      <trkpt lat="46.32795" lon="4.84913">
        <ele>161.19999694824</ele>
        <time>2017-07-24T12:07:16Z</time>
      </trkpt>
      <trkpt lat="46.32765" lon="4.84868">
        <ele>161.19999694824</ele>
        <time>2017-07-24T12:07:23Z</time>
      </trkpt>
      <trkpt lat="46.32725" lon="4.84824">
        <ele>161</ele>
        <time>2017-07-24T12:07:31Z</time>
      </trkpt>
      <trkpt lat="46.32689" lon="4.84782">
        <ele>160.39999389648</ele>
        <time>2017-07-24T12:07:38Z</time>
      </trkpt>
      <trkpt lat="46.3268" lon="4.84768">
        <ele>160.39999389648</ele>
        <time>2017-07-24T12:07:40Z</time>
      </trkpt>
      <trkpt lat="46.32659" lon="4.8473">
        <ele>160</ele>
        <time>2017-07-24T12:07:45Z</time>
      </trkpt>
      <trkpt lat="46.32632" lon="4.84692">
        <ele>160.19999694824</ele>
        <time>2017-07-24T12:07:51Z</time>
      </trkpt>
      <trkpt lat="46.32614" lon="4.84659">
        <ele>160.80000305176</ele>
        <time>2017-07-24T12:07:56Z</time>
      </trkpt>
      <trkpt lat="46.32613" lon="4.84651">
        <ele>160.80000305176</ele>
        <time>2017-07-24T12:07:57Z</time>
      </trkpt>
      <trkpt lat="46.32605" lon="4.84621">
        <ele>161.39999389648</ele>
        <time>2017-07-24T12:08:01Z</time>
      </trkpt>
      <trkpt lat="46.32599" lon="4.84599">
        <ele>161.60000610352</ele>
        <time>2017-07-24T12:08:04Z</time>
      </trkpt>
      <trkpt lat="46.32587" lon="4.84549">
        <ele>161.80000305176</ele>
        <time>2017-07-24T12:08:11Z</time>
      </trkpt>
      <trkpt lat="46.32577" lon="4.84512">
        <ele>161.60000610352</ele>
        <time>2017-07-24T12:08:17Z</time>
      </trkpt>
      <trkpt lat="46.32566" lon="4.84501">
        <ele>161.60000610352</ele>
        <time>2017-07-24T12:08:21Z</time>
      </trkpt>
      <trkpt lat="46.32543" lon="4.84498">
        <ele>161.60000610352</ele>
        <time>2017-07-24T12:08:26Z</time>
      </trkpt>
      <trkpt lat="46.32527" lon="4.84498">
        <ele>161.60000610352</ele>
        <time>2017-07-24T12:08:29Z</time>
      </trkpt>
      <trkpt lat="46.32516" lon="4.84495">
        <ele>161.60000610352</ele>
        <time>2017-07-24T12:08:31Z</time>
      </trkpt>
      <trkpt lat="46.32483" lon="4.84492">
        <ele>161.80000305176</ele>
        <time>2017-07-24T12:08:37Z</time>
      </trkpt>
      <trkpt lat="46.32442" lon="4.84487">
        <ele>161.19999694824</ele>
        <time>2017-07-24T12:08:44Z</time>
      </trkpt>
      <trkpt lat="46.32407" lon="4.84485">
        <ele>161.60000610352</ele>
        <time>2017-07-24T12:08:50Z</time>
      </trkpt>
      <trkpt lat="46.32366" lon="4.8448">
        <ele>161.80000305176</ele>
        <time>2017-07-24T12:08:57Z</time>
      </trkpt>
      <trkpt lat="46.32323" lon="4.84477">
        <ele>161.60000610352</ele>
        <time>2017-07-24T12:09:05Z</time>
      </trkpt>
      <trkpt lat="46.32278" lon="4.84474">
        <ele>161.80000305176</ele>
        <time>2017-07-24T12:09:13Z</time>
      </trkpt>
      <trkpt lat="46.32239" lon="4.84473">
        <ele>161.60000610352</ele>
        <time>2017-07-24T12:09:19Z</time>
      </trkpt>
      <trkpt lat="46.32218" lon="4.84474">
        <ele>161.80000305176</ele>
        <time>2017-07-24T12:09:22Z</time>
      </trkpt>
      <trkpt lat="46.32205" lon="4.84477">
        <ele>161.80000305176</ele>
        <time>2017-07-24T12:09:24Z</time>
      </trkpt>
      <trkpt lat="46.32193" lon="4.84479">
        <ele>162</ele>
        <time>2017-07-24T12:09:26Z</time>
      </trkpt>
      <trkpt lat="46.32175" lon="4.84486">
        <ele>162</ele>
        <time>2017-07-24T12:09:29Z</time>
      </trkpt>
      <trkpt lat="46.32146" lon="4.84495">
        <ele>162</ele>
        <time>2017-07-24T12:09:34Z</time>
      </trkpt>
      <trkpt lat="46.3214" lon="4.84494">
        <ele>162</ele>
        <time>2017-07-24T12:09:35Z</time>
      </trkpt>
      <trkpt lat="46.32112" lon="4.84485">
        <ele>162</ele>
        <time>2017-07-24T12:09:40Z</time>
      </trkpt>
      <trkpt lat="46.32084" lon="4.84465">
        <ele>162</ele>
        <time>2017-07-24T12:09:45Z</time>
      </trkpt>
      <trkpt lat="46.32036" lon="4.84426">
        <ele>162.19999694824</ele>
        <time>2017-07-24T12:09:54Z</time>
      </trkpt>
      <trkpt lat="46.32009" lon="4.84406">
        <ele>162.39999389648</ele>
        <time>2017-07-24T12:09:59Z</time>
      </trkpt>
      <trkpt lat="46.31983" lon="4.84386">
        <ele>162.39999389648</ele>
        <time>2017-07-24T12:10:04Z</time>
      </trkpt>
      <trkpt lat="46.31934" lon="4.84351">
        <ele>162.39999389648</ele>
        <time>2017-07-24T12:10:13Z</time>
      </trkpt>
      <trkpt lat="46.31923" lon="4.84343">
        <ele>162.39999389648</ele>
        <time>2017-07-24T12:10:15Z</time>
      </trkpt>
      <trkpt lat="46.31879" lon="4.84314">
        <ele>162.80000305176</ele>
        <time>2017-07-24T12:10:23Z</time>
      </trkpt>
      <trkpt lat="46.31827" lon="4.8428">
        <ele>162.39999389648</ele>
        <time>2017-07-24T12:10:33Z</time>
      </trkpt>
      <trkpt lat="46.31795" lon="4.84259">
        <ele>162.60000610352</ele>
        <time>2017-07-24T12:10:39Z</time>
      </trkpt>
      <trkpt lat="46.31747" lon="4.84237">
        <ele>162</ele>
        <time>2017-07-24T12:10:47Z</time>
      </trkpt>
      <trkpt lat="46.31712" lon="4.8422">
        <ele>161.19999694824</ele>
        <time>2017-07-24T12:10:53Z</time>
      </trkpt>
      <trkpt lat="46.31707" lon="4.8422">
        <ele>161.19999694824</ele>
        <time>2017-07-24T12:10:54Z</time>
      </trkpt>
      <trkpt lat="46.3169" lon="4.84211">
        <ele>161.19999694824</ele>
        <time>2017-07-24T12:10:58Z</time>
      </trkpt>
      <trkpt lat="46.31686" lon="4.84205">
        <ele>161.19999694824</ele>
        <time>2017-07-24T12:10:59Z</time>
      </trkpt>
      <trkpt lat="46.31675" lon="4.84194">
        <ele>161.19999694824</ele>
        <time>2017-07-24T12:11:02Z</time>
      </trkpt>
      <trkpt lat="46.3167" lon="4.84191">
        <ele>161.19999694824</ele>
        <time>2017-07-24T12:11:03Z</time>
      </trkpt>
      <trkpt lat="46.31645" lon="4.84172">
        <ele>161</ele>
        <time>2017-07-24T12:11:08Z</time>
      </trkpt>
      <trkpt lat="46.31609" lon="4.84146">
        <ele>160.80000305176</ele>
        <time>2017-07-24T12:11:15Z</time>
      </trkpt>
      <trkpt lat="46.31583" lon="4.84131">
        <ele>160.80000305176</ele>
        <time>2017-07-24T12:11:20Z</time>
      </trkpt>
      <trkpt lat="46.31572" lon="4.84124">
        <ele>161</ele>
        <time>2017-07-24T12:11:22Z</time>
      </trkpt>
      <trkpt lat="46.31541" lon="4.84108">
        <ele>161.39999389648</ele>
        <time>2017-07-24T12:11:28Z</time>
      </trkpt>
      <trkpt lat="46.31536" lon="4.84105">
        <ele>161.39999389648</ele>
        <time>2017-07-24T12:11:29Z</time>
      </trkpt>
      <trkpt lat="46.31521" lon="4.84095">
        <ele>161.19999694824</ele>
        <time>2017-07-24T12:11:32Z</time>
      </trkpt>
      <trkpt lat="46.31507" lon="4.84085">
        <ele>161.39999389648</ele>
        <time>2017-07-24T12:11:35Z</time>
      </trkpt>
      <trkpt lat="46.31464" lon="4.84055">
        <ele>160.80000305176</ele>
        <time>2017-07-24T12:11:44Z</time>
      </trkpt>
      <trkpt lat="46.31424" lon="4.84028">
        <ele>160.80000305176</ele>
        <time>2017-07-24T12:11:52Z</time>
      </trkpt>
      <trkpt lat="46.31413" lon="4.84016">
        <ele>161</ele>
        <time>2017-07-24T12:11:55Z</time>
      </trkpt>
      <trkpt lat="46.31409" lon="4.84013">
        <ele>161</ele>
        <time>2017-07-24T12:11:56Z</time>
      </trkpt>
      <trkpt lat="46.31398" lon="4.84006">
        <ele>161.60000610352</ele>
        <time>2017-07-24T12:11:59Z</time>
      </trkpt>
      <trkpt lat="46.31385" lon="4.84001">
        <ele>162</ele>
        <time>2017-07-24T12:12:02Z</time>
      </trkpt>
      <trkpt lat="46.31367" lon="4.83995">
        <ele>162.39999389648</ele>
        <time>2017-07-24T12:12:06Z</time>
      </trkpt>
      <trkpt lat="46.31348" lon="4.83988">
        <ele>162.80000305176</ele>
        <time>2017-07-24T12:12:10Z</time>
      </trkpt>
      <trkpt lat="46.31338" lon="4.83988">
        <ele>162.80000305176</ele>
        <time>2017-07-24T12:12:12Z</time>
      </trkpt>
      <trkpt lat="46.31327" lon="4.83989">
        <ele>163</ele>
        <time>2017-07-24T12:12:14Z</time>
      </trkpt>
      <trkpt lat="46.31316" lon="4.83986">
        <ele>162.80000305176</ele>
        <time>2017-07-24T12:12:16Z</time>
      </trkpt>
      <trkpt lat="46.31305" lon="4.83982">
        <ele>162.60000610352</ele>
        <time>2017-07-24T12:12:18Z</time>
      </trkpt>
      <trkpt lat="46.31295" lon="4.83976">
        <ele>162.60000610352</ele>
        <time>2017-07-24T12:12:20Z</time>
      </trkpt>
      <trkpt lat="46.31284" lon="4.83971">
        <ele>162.60000610352</ele>
        <time>2017-07-24T12:12:22Z</time>
      </trkpt>
      <trkpt lat="46.31258" lon="4.83956">
        <ele>163.19999694824</ele>
        <time>2017-07-24T12:12:27Z</time>
      </trkpt>
      <trkpt lat="46.3122" lon="4.83927">
        <ele>163.19999694824</ele>
        <time>2017-07-24T12:12:35Z</time>
      </trkpt>
      <trkpt lat="46.31211" lon="4.8392">
        <ele>163.19999694824</ele>
        <time>2017-07-24T12:12:37Z</time>
      </trkpt>
      <trkpt lat="46.31201" lon="4.83913">
        <ele>163.39999389648</ele>
        <time>2017-07-24T12:12:39Z</time>
      </trkpt>
      <trkpt lat="46.31197" lon="4.83909">
        <ele>163.60000610352</ele>
        <time>2017-07-24T12:12:40Z</time>
      </trkpt>
      <trkpt lat="46.31167" lon="4.83888">
        <ele>163.80000305176</ele>
        <time>2017-07-24T12:12:46Z</time>
      </trkpt>
      <trkpt lat="46.31162" lon="4.83884">
        <ele>163.80000305176</ele>
        <time>2017-07-24T12:12:47Z</time>
      </trkpt>
      <trkpt lat="46.31138" lon="4.83863">
        <ele>163.80000305176</ele>
        <time>2017-07-24T12:12:52Z</time>
      </trkpt>
      <trkpt lat="46.31117" lon="4.83852">
        <ele>163.60000610352</ele>
        <time>2017-07-24T12:12:56Z</time>
      </trkpt>
      <trkpt lat="46.31106" lon="4.83848">
        <ele>163.19999694824</ele>
        <time>2017-07-24T12:12:58Z</time>
      </trkpt>
      <trkpt lat="46.31056" lon="4.8383">
        <ele>162.60000610352</ele>
        <time>2017-07-24T12:13:07Z</time>
      </trkpt>
      <trkpt lat="46.31024" lon="4.83815">
        <ele>162.60000610352</ele>
        <time>2017-07-24T12:13:13Z</time>
      </trkpt>
      <trkpt lat="46.30981" lon="4.838">
        <ele>163</ele>
        <time>2017-07-24T12:13:21Z</time>
      </trkpt>
      <trkpt lat="46.30965" lon="4.83801">
        <ele>163.19999694824</ele>
        <time>2017-07-24T12:13:24Z</time>
      </trkpt>
      <trkpt lat="46.30959" lon="4.83801">
        <ele>163</ele>
        <time>2017-07-24T12:13:25Z</time>
      </trkpt>
      <trkpt lat="46.30931" lon="4.83793">
        <ele>163</ele>
        <time>2017-07-24T12:13:30Z</time>
      </trkpt>
      <trkpt lat="46.3092" lon="4.83788">
        <ele>162.80000305176</ele>
        <time>2017-07-24T12:13:32Z</time>
      </trkpt>
      <trkpt lat="46.3091" lon="4.8378">
        <ele>162.80000305176</ele>
        <time>2017-07-24T12:13:34Z</time>
      </trkpt>
      <trkpt lat="46.30901" lon="4.83771">
        <ele>162.80000305176</ele>
        <time>2017-07-24T12:13:36Z</time>
      </trkpt>
      <trkpt lat="46.30886" lon="4.83763">
        <ele>162.80000305176</ele>
        <time>2017-07-24T12:13:39Z</time>
      </trkpt>
      <trkpt lat="46.30848" lon="4.83748">
        <ele>163</ele>
        <time>2017-07-24T12:13:46Z</time>
      </trkpt>
      <trkpt lat="46.30808" lon="4.83732">
        <ele>163.39999389648</ele>
        <time>2017-07-24T12:13:54Z</time>
      </trkpt>
      <trkpt lat="46.30772" lon="4.83716">
        <ele>162.80000305176</ele>
        <time>2017-07-24T12:14:01Z</time>
      </trkpt>
      <trkpt lat="46.30724" lon="4.83698">
        <ele>162.80000305176</ele>
        <time>2017-07-24T12:14:10Z</time>
      </trkpt>
      <trkpt lat="46.30675" lon="4.83679">
        <ele>162.60000610352</ele>
        <time>2017-07-24T12:14:19Z</time>
      </trkpt>
      <trkpt lat="46.3063" lon="4.83661">
        <ele>162.60000610352</ele>
        <time>2017-07-24T12:14:27Z</time>
      </trkpt>
      <trkpt lat="46.306" lon="4.83646">
        <ele>162.39999389648</ele>
        <time>2017-07-24T12:14:33Z</time>
      </trkpt>
      <trkpt lat="46.30591" lon="4.8364">
        <ele>162.39999389648</ele>
        <time>2017-07-24T12:14:35Z</time>
      </trkpt>
      <trkpt lat="46.30575" lon="4.83627">
        <ele>162.80000305176</ele>
        <time>2017-07-24T12:14:39Z</time>
      </trkpt>
      <trkpt lat="46.30562" lon="4.83615">
        <ele>163.60000610352</ele>
        <time>2017-07-24T12:14:43Z</time>
      </trkpt>
      <trkpt lat="46.30553" lon="4.83606">
        <ele>164.19999694824</ele>
        <time>2017-07-24T12:14:46Z</time>
      </trkpt>
      <trkpt lat="46.30544" lon="4.83598">
        <ele>164.60000610352</ele>
        <time>2017-07-24T12:14:50Z</time>
      </trkpt>
      <trkpt lat="46.30542" lon="4.83597">
        <ele>164.60000610352</ele>
        <time>2017-07-24T12:14:51Z</time>
      </trkpt>
      <trkpt lat="46.30534" lon="4.83597">
        <ele>165</ele>
        <time>2017-07-24T12:14:57Z</time>
      </trkpt>
      <trkpt lat="46.30533" lon="4.83598">
        <ele>164.80000305176</ele>
        <time>2017-07-24T12:15:28Z</time>
      </trkpt>
      <trkpt lat="46.30531" lon="4.836">
        <ele>164.80000305176</ele>
        <time>2017-07-24T12:15:30Z</time>
      </trkpt>
      <trkpt lat="46.30528" lon="4.836">
        <ele>164.80000305176</ele>
        <time>2017-07-24T12:15:33Z</time>
      </trkpt>
      <trkpt lat="46.30527" lon="4.83602">
        <ele>164.80000305176</ele>
        <time>2017-07-24T12:15:34Z</time>
      </trkpt>
      <trkpt lat="46.30519" lon="4.83621">
        <ele>165</ele>
        <time>2017-07-24T12:15:39Z</time>
      </trkpt>
      <trkpt lat="46.3051" lon="4.83652">
        <ele>165.39999389648</ele>
        <time>2017-07-24T12:15:45Z</time>
      </trkpt>
      <trkpt lat="46.30508" lon="4.83659">
        <ele>165.60000610352</ele>
        <time>2017-07-24T12:15:46Z</time>
      </trkpt>
      <trkpt lat="46.30496" lon="4.83696">
        <ele>166.19999694824</ele>
        <time>2017-07-24T12:15:52Z</time>
      </trkpt>
      <trkpt lat="46.30484" lon="4.8374">
        <ele>165.60000610352</ele>
        <time>2017-07-24T12:15:58Z</time>
      </trkpt>
      <trkpt lat="46.30471" lon="4.83805">
        <ele>164.60000610352</ele>
        <time>2017-07-24T12:16:05Z</time>
      </trkpt>
      <trkpt lat="46.30461" lon="4.83854">
        <ele>164</ele>
        <time>2017-07-24T12:16:11Z</time>
      </trkpt>
      <trkpt lat="46.30454" lon="4.83861">
        <ele>163.60000610352</ele>
        <time>2017-07-24T12:16:14Z</time>
      </trkpt>
      <trkpt lat="46.30452" lon="4.83861">
        <ele>163.39999389648</ele>
        <time>2017-07-24T12:16:15Z</time>
      </trkpt>
      <trkpt lat="46.30446" lon="4.83854">
        <ele>163</ele>
        <time>2017-07-24T12:16:18Z</time>
      </trkpt>
      <trkpt lat="46.30436" lon="4.83841">
        <ele>162.39999389648</ele>
        <time>2017-07-24T12:16:21Z</time>
      </trkpt>
      <trkpt lat="46.30431" lon="4.83837">
        <ele>162.39999389648</ele>
        <time>2017-07-24T12:16:22Z</time>
      </trkpt>
      <trkpt lat="46.30403" lon="4.83811">
        <ele>162</ele>
        <time>2017-07-24T12:16:27Z</time>
      </trkpt>
      <trkpt lat="46.30391" lon="4.838">
        <ele>161</ele>
        <time>2017-07-24T12:16:29Z</time>
      </trkpt>
      <trkpt lat="46.30373" lon="4.83781">
        <ele>160</ele>
        <time>2017-07-24T12:16:32Z</time>
      </trkpt>
      <trkpt lat="46.30367" lon="4.83776">
        <ele>159.80000305176</ele>
        <time>2017-07-24T12:16:33Z</time>
      </trkpt>
      <trkpt lat="46.30327" lon="4.8374">
        <ele>160</ele>
        <time>2017-07-24T12:16:40Z</time>
      </trkpt>
      <trkpt lat="46.30288" lon="4.83705">
        <ele>159.80000305176</ele>
        <time>2017-07-24T12:16:47Z</time>
      </trkpt>
      <trkpt lat="46.30239" lon="4.83659">
        <ele>159.39999389648</ele>
        <time>2017-07-24T12:16:56Z</time>
      </trkpt>
      <trkpt lat="46.30197" lon="4.83618">
        <ele>159.80000305176</ele>
        <time>2017-07-24T12:17:04Z</time>
      </trkpt>
      <trkpt lat="46.30151" lon="4.83576">
        <ele>160</ele>
        <time>2017-07-24T12:17:13Z</time>
      </trkpt>
      <trkpt lat="46.30107" lon="4.83534">
        <ele>160.39999389648</ele>
        <time>2017-07-24T12:17:22Z</time>
      </trkpt>
      <trkpt lat="46.30066" lon="4.83498">
        <ele>160</ele>
        <time>2017-07-24T12:17:30Z</time>
      </trkpt>
      <trkpt lat="46.3003" lon="4.83465">
        <ele>159.39999389648</ele>
        <time>2017-07-24T12:17:37Z</time>
      </trkpt>
      <trkpt lat="46.30002" lon="4.83445">
        <ele>159</ele>
        <time>2017-07-24T12:17:42Z</time>
      </trkpt>
      <trkpt lat="46.29991" lon="4.83437">
        <ele>159</ele>
        <time>2017-07-24T12:17:44Z</time>
      </trkpt>
      <trkpt lat="46.29945" lon="4.83408">
        <ele>159.39999389648</ele>
        <time>2017-07-24T12:17:52Z</time>
      </trkpt>
      <trkpt lat="46.29899" lon="4.83387">
        <ele>159.19999694824</ele>
        <time>2017-07-24T12:18:00Z</time>
      </trkpt>
      <trkpt lat="46.29857" lon="4.83384">
        <ele>159.60000610352</ele>
        <time>2017-07-24T12:18:07Z</time>
      </trkpt>
      <trkpt lat="46.29813" lon="4.83391">
        <ele>159.80000305176</ele>
        <time>2017-07-24T12:18:14Z</time>
      </trkpt>
      <trkpt lat="46.29797" lon="4.83398">
        <ele>160</ele>
        <time>2017-07-24T12:18:17Z</time>
      </trkpt>
      <trkpt lat="46.29775" lon="4.83405">
        <ele>161.19999694824</ele>
        <time>2017-07-24T12:18:21Z</time>
      </trkpt>
      <trkpt lat="46.29754" lon="4.8341">
        <ele>162.39999389648</ele>
        <time>2017-07-24T12:18:25Z</time>
      </trkpt>
      <trkpt lat="46.29741" lon="4.83411">
        <ele>163</ele>
        <time>2017-07-24T12:18:28Z</time>
      </trkpt>
      <trkpt lat="46.29736" lon="4.8341">
        <ele>163.39999389648</ele>
        <time>2017-07-24T12:18:30Z</time>
      </trkpt>
      <trkpt lat="46.29735" lon="4.83408">
        <ele>163.60000610352</ele>
        <time>2017-07-24T12:18:31Z</time>
      </trkpt>
      <trkpt lat="46.29727" lon="4.83402">
        <ele>163.80000305176</ele>
        <time>2017-07-24T12:18:36Z</time>
      </trkpt>
      <trkpt lat="46.29711" lon="4.83406">
        <ele>163.80000305176</ele>
        <time>2017-07-24T12:18:40Z</time>
      </trkpt>
      <trkpt lat="46.29696" lon="4.83426">
        <ele>163.39999389648</ele>
        <time>2017-07-24T12:18:44Z</time>
      </trkpt>
      <trkpt lat="46.29679" lon="4.83437">
        <ele>163.60000610352</ele>
        <time>2017-07-24T12:18:47Z</time>
      </trkpt>
      <trkpt lat="46.29673" lon="4.8344">
        <ele>163.60000610352</ele>
        <time>2017-07-24T12:18:48Z</time>
      </trkpt>
      <trkpt lat="46.29637" lon="4.83453">
        <ele>162.80000305176</ele>
        <time>2017-07-24T12:18:53Z</time>
      </trkpt>
      <trkpt lat="46.29621" lon="4.8346">
        <ele>162.39999389648</ele>
        <time>2017-07-24T12:18:55Z</time>
      </trkpt>
      <trkpt lat="46.29585" lon="4.83473">
        <ele>161.80000305176</ele>
        <time>2017-07-24T12:19:00Z</time>
      </trkpt>
      <trkpt lat="46.29551" lon="4.83485">
        <ele>163</ele>
        <time>2017-07-24T12:19:06Z</time>
      </trkpt>
      <trkpt lat="46.29542" lon="4.83489">
        <ele>163.80000305176</ele>
        <time>2017-07-24T12:19:08Z</time>
      </trkpt>
      <trkpt lat="46.29518" lon="4.83499">
        <ele>164.80000305176</ele>
        <time>2017-07-24T12:19:13Z</time>
      </trkpt>
      <trkpt lat="46.29505" lon="4.83506">
        <ele>165.60000610352</ele>
        <time>2017-07-24T12:19:16Z</time>
      </trkpt>
      <trkpt lat="46.29496" lon="4.83511">
        <ele>166</ele>
        <time>2017-07-24T12:19:18Z</time>
      </trkpt>
      <trkpt lat="46.29471" lon="4.8353">
        <ele>166.80000305176</ele>
        <time>2017-07-24T12:19:24Z</time>
      </trkpt>
      <trkpt lat="46.29462" lon="4.83538">
        <ele>167.19999694824</ele>
        <time>2017-07-24T12:19:26Z</time>
      </trkpt>
      <trkpt lat="46.29439" lon="4.83556">
        <ele>168</ele>
        <time>2017-07-24T12:19:31Z</time>
      </trkpt>
      <trkpt lat="46.29434" lon="4.8356">
        <ele>168.19999694824</ele>
        <time>2017-07-24T12:19:32Z</time>
      </trkpt>
      <trkpt lat="46.29404" lon="4.83586">
        <ele>169</ele>
        <time>2017-07-24T12:19:39Z</time>
      </trkpt>
      <trkpt lat="46.29395" lon="4.83593">
        <ele>169.39999389648</ele>
        <time>2017-07-24T12:19:41Z</time>
      </trkpt>
      <trkpt lat="46.29368" lon="4.83615">
        <ele>169.39999389648</ele>
        <time>2017-07-24T12:19:47Z</time>
      </trkpt>
      <trkpt lat="46.29333" lon="4.83642">
        <ele>169.19999694824</ele>
        <time>2017-07-24T12:19:54Z</time>
      </trkpt>
      <trkpt lat="46.29291" lon="4.83678">
        <ele>168.80000305176</ele>
        <time>2017-07-24T12:20:02Z</time>
      </trkpt>
      <trkpt lat="46.2926" lon="4.83701">
        <ele>168.19999694824</ele>
        <time>2017-07-24T12:20:07Z</time>
      </trkpt>
      <trkpt lat="46.29246" lon="4.83711">
        <ele>168</ele>
        <time>2017-07-24T12:20:09Z</time>
      </trkpt>
      <trkpt lat="46.29215" lon="4.83725">
        <ele>167.19999694824</ele>
        <time>2017-07-24T12:20:13Z</time>
      </trkpt>
      <trkpt lat="46.29199" lon="4.83729">
        <ele>166.60000610352</ele>
        <time>2017-07-24T12:20:15Z</time>
      </trkpt>
      <trkpt lat="46.29174" lon="4.83731">
        <ele>166</ele>
        <time>2017-07-24T12:20:18Z</time>
      </trkpt>
      <trkpt lat="46.29157" lon="4.83729">
        <ele>165</ele>
        <time>2017-07-24T12:20:20Z</time>
      </trkpt>
      <trkpt lat="46.29148" lon="4.83727">
        <ele>164.80000305176</ele>
        <time>2017-07-24T12:20:21Z</time>
      </trkpt>
      <trkpt lat="46.29114" lon="4.83713">
        <ele>163.39999389648</ele>
        <time>2017-07-24T12:20:25Z</time>
      </trkpt>
      <trkpt lat="46.29097" lon="4.83702">
        <ele>162.80000305176</ele>
        <time>2017-07-24T12:20:27Z</time>
      </trkpt>
      <trkpt lat="46.29082" lon="4.83689">
        <ele>162.19999694824</ele>
        <time>2017-07-24T12:20:29Z</time>
      </trkpt>
      <trkpt lat="46.29061" lon="4.83665">
        <ele>161.19999694824</ele>
        <time>2017-07-24T12:20:32Z</time>
      </trkpt>
      <trkpt lat="46.29033" lon="4.83618">
        <ele>160.39999389648</ele>
        <time>2017-07-24T12:20:37Z</time>
      </trkpt>
      <trkpt lat="46.29021" lon="4.83589">
        <ele>160.19999694824</ele>
        <time>2017-07-24T12:20:40Z</time>
      </trkpt>
      <trkpt lat="46.29015" lon="4.83568">
        <ele>160</ele>
        <time>2017-07-24T12:20:42Z</time>
      </trkpt>
      <trkpt lat="46.28993" lon="4.83492">
        <ele>160</ele>
        <time>2017-07-24T12:20:50Z</time>
      </trkpt>
      <trkpt lat="46.28971" lon="4.8342">
        <ele>160</ele>
        <time>2017-07-24T12:20:58Z</time>
      </trkpt>
      <trkpt lat="46.28966" lon="4.83403">
        <ele>160</ele>
        <time>2017-07-24T12:21:00Z</time>
      </trkpt>
      <trkpt lat="46.28945" lon="4.83337">
        <ele>159.80000305176</ele>
        <time>2017-07-24T12:21:08Z</time>
      </trkpt>
      <trkpt lat="46.28919" lon="4.83286">
        <ele>159.80000305176</ele>
        <time>2017-07-24T12:21:15Z</time>
      </trkpt>
      <trkpt lat="46.28892" lon="4.83247">
        <ele>160.19999694824</ele>
        <time>2017-07-24T12:21:21Z</time>
      </trkpt>
      <trkpt lat="46.28877" lon="4.8323">
        <ele>160.19999694824</ele>
        <time>2017-07-24T12:21:25Z</time>
      </trkpt>
      <trkpt lat="46.2887" lon="4.8322">
        <ele>160.39999389648</ele>
        <time>2017-07-24T12:21:29Z</time>
      </trkpt>
      <trkpt lat="46.28868" lon="4.83218">
        <ele>160.39999389648</ele>
        <time>2017-07-24T12:21:30Z</time>
      </trkpt>
      <trkpt lat="46.28853" lon="4.83211">
        <ele>160</ele>
        <time>2017-07-24T12:21:35Z</time>
      </trkpt>
      <trkpt lat="46.2885" lon="4.83209">
        <ele>160</ele>
        <time>2017-07-24T12:21:36Z</time>
      </trkpt>
      <trkpt lat="46.28832" lon="4.83197">
        <ele>160</ele>
        <time>2017-07-24T12:21:40Z</time>
      </trkpt>
      <trkpt lat="46.28786" lon="4.83178">
        <ele>160.19999694824</ele>
        <time>2017-07-24T12:21:48Z</time>
      </trkpt>
      <trkpt lat="46.28732" lon="4.83156">
        <ele>160.39999389648</ele>
        <time>2017-07-24T12:21:57Z</time>
      </trkpt>
      <trkpt lat="46.28678" lon="4.83133">
        <ele>160.39999389648</ele>
        <time>2017-07-24T12:22:06Z</time>
      </trkpt>
      <trkpt lat="46.28639" lon="4.83101">
        <ele>160</ele>
        <time>2017-07-24T12:22:13Z</time>
      </trkpt>
      <trkpt lat="46.286" lon="4.83067">
        <ele>159.39999389648</ele>
        <time>2017-07-24T12:22:20Z</time>
      </trkpt>
      <trkpt lat="46.28594" lon="4.83064">
        <ele>159.39999389648</ele>
        <time>2017-07-24T12:22:21Z</time>
      </trkpt>
      <trkpt lat="46.28568" lon="4.83056">
        <ele>159.19999694824</ele>
        <time>2017-07-24T12:22:25Z</time>
      </trkpt>
      <trkpt lat="46.28529" lon="4.83057">
        <ele>159.39999389648</ele>
        <time>2017-07-24T12:22:31Z</time>
      </trkpt>
      <trkpt lat="46.28471" lon="4.83059">
        <ele>160</ele>
        <time>2017-07-24T12:22:40Z</time>
      </trkpt>
      <trkpt lat="46.28425" lon="4.83047">
        <ele>160.39999389648</ele>
        <time>2017-07-24T12:22:47Z</time>
      </trkpt>
      <trkpt lat="46.28368" lon="4.83028">
        <ele>160.60000610352</ele>
        <time>2017-07-24T12:22:56Z</time>
      </trkpt>
      <trkpt lat="46.28324" lon="4.83013">
        <ele>160.80000305176</ele>
        <time>2017-07-24T12:23:03Z</time>
      </trkpt>
      <trkpt lat="46.28268" lon="4.82995">
        <ele>160.60000610352</ele>
        <time>2017-07-24T12:23:12Z</time>
      </trkpt>
      <trkpt lat="46.28217" lon="4.8298">
        <ele>160.60000610352</ele>
        <time>2017-07-24T12:23:20Z</time>
      </trkpt>
      <trkpt lat="46.28182" lon="4.82973">
        <ele>160.60000610352</ele>
        <time>2017-07-24T12:23:26Z</time>
      </trkpt>
      <trkpt lat="46.28132" lon="4.8296">
        <ele>160.39999389648</ele>
        <time>2017-07-24T12:23:34Z</time>
      </trkpt>
      <trkpt lat="46.28075" lon="4.82949">
        <ele>160.60000610352</ele>
        <time>2017-07-24T12:23:43Z</time>
      </trkpt>
      <trkpt lat="46.28024" lon="4.8294">
        <ele>160.39999389648</ele>
        <time>2017-07-24T12:23:51Z</time>
      </trkpt>
      <trkpt lat="46.27966" lon="4.82927">
        <ele>160.60000610352</ele>
        <time>2017-07-24T12:24:00Z</time>
      </trkpt>
      <trkpt lat="46.2796" lon="4.82926">
        <ele>160.60000610352</ele>
        <time>2017-07-24T12:24:01Z</time>
      </trkpt>
      <trkpt lat="46.27902" lon="4.82914">
        <ele>160.39999389648</ele>
        <time>2017-07-24T12:24:10Z</time>
      </trkpt>
      <trkpt lat="46.27889" lon="4.82912">
        <ele>160.39999389648</ele>
        <time>2017-07-24T12:24:12Z</time>
      </trkpt>
      <trkpt lat="46.27844" lon="4.82905">
        <ele>160.19999694824</ele>
        <time>2017-07-24T12:24:19Z</time>
      </trkpt>
      <trkpt lat="46.27838" lon="4.82905">
        <ele>160.19999694824</ele>
        <time>2017-07-24T12:24:20Z</time>
      </trkpt>
      <trkpt lat="46.27807" lon="4.82899">
        <ele>160.80000305176</ele>
        <time>2017-07-24T12:24:25Z</time>
      </trkpt>
      <trkpt lat="46.27764" lon="4.82889">
        <ele>160.60000610352</ele>
        <time>2017-07-24T12:24:32Z</time>
      </trkpt>
      <trkpt lat="46.27759" lon="4.8289">
        <ele>160.60000610352</ele>
        <time>2017-07-24T12:24:33Z</time>
      </trkpt>
      <trkpt lat="46.2775" lon="4.82897">
        <ele>160.60000610352</ele>
        <time>2017-07-24T12:24:35Z</time>
      </trkpt>
      <trkpt lat="46.27742" lon="4.82907">
        <ele>160.80000305176</ele>
        <time>2017-07-24T12:24:37Z</time>
      </trkpt>
      <trkpt lat="46.27735" lon="4.82925">
        <ele>161</ele>
        <time>2017-07-24T12:24:40Z</time>
      </trkpt>
      <trkpt lat="46.27736" lon="4.82944">
        <ele>161</ele>
        <time>2017-07-24T12:24:43Z</time>
      </trkpt>
      <trkpt lat="46.27738" lon="4.82949">
        <ele>161</ele>
        <time>2017-07-24T12:24:45Z</time>
      </trkpt>
      <trkpt lat="46.2774" lon="4.82947">
        <ele>161</ele>
        <time>2017-07-24T12:24:46Z</time>
      </trkpt>
      <trkpt lat="46.27739" lon="4.82938">
        <ele>161</ele>
        <time>2017-07-24T12:24:49Z</time>
      </trkpt>
      <trkpt lat="46.27738" lon="4.82928">
        <ele>161</ele>
        <time>2017-07-24T12:24:51Z</time>
      </trkpt>
      <trkpt lat="46.27737" lon="4.82917">
        <ele>160.80000305176</ele>
        <time>2017-07-24T12:24:53Z</time>
      </trkpt>
      <trkpt lat="46.27736" lon="4.82911">
        <ele>160.80000305176</ele>
        <time>2017-07-24T12:24:54Z</time>
      </trkpt>
      <trkpt lat="46.27731" lon="4.82897">
        <ele>160.80000305176</ele>
        <time>2017-07-24T12:24:57Z</time>
      </trkpt>
      <trkpt lat="46.27727" lon="4.82893">
        <ele>160.80000305176</ele>
        <time>2017-07-24T12:24:58Z</time>
      </trkpt>
      <trkpt lat="46.2771" lon="4.82886">
        <ele>160.80000305176</ele>
        <time>2017-07-24T12:25:02Z</time>
      </trkpt>
      <trkpt lat="46.27672" lon="4.82878">
        <ele>160.19999694824</ele>
        <time>2017-07-24T12:25:09Z</time>
      </trkpt>
      <trkpt lat="46.27667" lon="4.82877">
        <ele>160.19999694824</ele>
        <time>2017-07-24T12:25:10Z</time>
      </trkpt>
      <trkpt lat="46.27645" lon="4.82865">
        <ele>160.39999389648</ele>
        <time>2017-07-24T12:25:14Z</time>
      </trkpt>
      <trkpt lat="46.27616" lon="4.82854">
        <ele>160.39999389648</ele>
        <time>2017-07-24T12:25:20Z</time>
      </trkpt>
      <trkpt lat="46.27607" lon="4.82849">
        <ele>160.39999389648</ele>
        <time>2017-07-24T12:25:22Z</time>
      </trkpt>
      <trkpt lat="46.27587" lon="4.82839">
        <ele>160.39999389648</ele>
        <time>2017-07-24T12:25:26Z</time>
      </trkpt>
      <trkpt lat="46.27556" lon="4.82821">
        <ele>160.19999694824</ele>
        <time>2017-07-24T12:25:32Z</time>
      </trkpt>
      <trkpt lat="46.27546" lon="4.82814">
        <ele>160.19999694824</ele>
        <time>2017-07-24T12:25:34Z</time>
      </trkpt>
      <trkpt lat="46.27527" lon="4.828">
        <ele>160.19999694824</ele>
        <time>2017-07-24T12:25:38Z</time>
      </trkpt>
      <trkpt lat="46.27496" lon="4.82774">
        <ele>160.19999694824</ele>
        <time>2017-07-24T12:25:45Z</time>
      </trkpt>
      <trkpt lat="46.27465" lon="4.82744">
        <ele>160</ele>
        <time>2017-07-24T12:25:52Z</time>
      </trkpt>
      <trkpt lat="46.27456" lon="4.82736">
        <ele>160</ele>
        <time>2017-07-24T12:25:54Z</time>
      </trkpt>
      <trkpt lat="46.27443" lon="4.82724">
        <ele>160.19999694824</ele>
        <time>2017-07-24T12:25:57Z</time>
      </trkpt>
      <trkpt lat="46.27429" lon="4.82713">
        <ele>160.19999694824</ele>
        <time>2017-07-24T12:26:00Z</time>
      </trkpt>
      <trkpt lat="46.27419" lon="4.82708">
        <ele>160.39999389648</ele>
        <time>2017-07-24T12:26:02Z</time>
      </trkpt>
      <trkpt lat="46.27384" lon="4.82688">
        <ele>160.19999694824</ele>
        <time>2017-07-24T12:26:09Z</time>
      </trkpt>
      <trkpt lat="46.27351" lon="4.82678">
        <ele>160.19999694824</ele>
        <time>2017-07-24T12:26:15Z</time>
      </trkpt>
      <trkpt lat="46.27325" lon="4.82672">
        <ele>160.19999694824</ele>
        <time>2017-07-24T12:26:21Z</time>
      </trkpt>
      <trkpt lat="46.27323" lon="4.82671">
        <ele>160</ele>
        <time>2017-07-24T12:26:40Z</time>
      </trkpt>
      <trkpt lat="46.27322" lon="4.82669">
        <ele>160</ele>
        <time>2017-07-24T12:26:41Z</time>
      </trkpt>
      <trkpt lat="46.27313" lon="4.82665">
        <ele>160</ele>
        <time>2017-07-24T12:26:45Z</time>
      </trkpt>
      <trkpt lat="46.27301" lon="4.82654">
        <ele>160</ele>
        <time>2017-07-24T12:26:50Z</time>
      </trkpt>
      <trkpt lat="46.2728" lon="4.82639">
        <ele>160.19999694824</ele>
        <time>2017-07-24T12:26:56Z</time>
      </trkpt>
      <trkpt lat="46.27276" lon="4.82637">
        <ele>160.19999694824</ele>
        <time>2017-07-24T12:26:57Z</time>
      </trkpt>
      <trkpt lat="46.27264" lon="4.82628">
        <ele>160.39999389648</ele>
        <time>2017-07-24T12:27:00Z</time>
      </trkpt>
      <trkpt lat="46.2726" lon="4.82625">
        <ele>160.39999389648</ele>
        <time>2017-07-24T12:27:01Z</time>
      </trkpt>
      <trkpt lat="46.27231" lon="4.82602">
        <ele>160.39999389648</ele>
        <time>2017-07-24T12:27:08Z</time>
      </trkpt>
      <trkpt lat="46.27195" lon="4.82572">
        <ele>160.60000610352</ele>
        <time>2017-07-24T12:27:16Z</time>
      </trkpt>
      <trkpt lat="46.27162" lon="4.8254">
        <ele>161</ele>
        <time>2017-07-24T12:27:24Z</time>
      </trkpt>
      <trkpt lat="46.27144" lon="4.82521">
        <ele>161</ele>
        <time>2017-07-24T12:27:29Z</time>
      </trkpt>
      <trkpt lat="46.27122" lon="4.82499">
        <ele>161</ele>
        <time>2017-07-24T12:27:34Z</time>
      </trkpt>
      <trkpt lat="46.27094" lon="4.82475">
        <ele>160.60000610352</ele>
        <time>2017-07-24T12:27:40Z</time>
      </trkpt>
      <trkpt lat="46.27055" lon="4.82446">
        <ele>161</ele>
        <time>2017-07-24T12:27:48Z</time>
      </trkpt>
      <trkpt lat="46.27016" lon="4.82418">
        <ele>160.80000305176</ele>
        <time>2017-07-24T12:27:56Z</time>
      </trkpt>
      <trkpt lat="46.26993" lon="4.82398">
        <ele>160.60000610352</ele>
        <time>2017-07-24T12:28:01Z</time>
      </trkpt>
      <trkpt lat="46.26988" lon="4.82395">
        <ele>160.60000610352</ele>
        <time>2017-07-24T12:28:02Z</time>
      </trkpt>
      <trkpt lat="46.26954" lon="4.82368">
        <ele>160.60000610352</ele>
        <time>2017-07-24T12:28:09Z</time>
      </trkpt>
      <trkpt lat="46.26912" lon="4.8233">
        <ele>160.80000305176</ele>
        <time>2017-07-24T12:28:18Z</time>
      </trkpt>
      <trkpt lat="46.2687" lon="4.82289">
        <ele>160.80000305176</ele>
        <time>2017-07-24T12:28:27Z</time>
      </trkpt>
      <trkpt lat="46.26838" lon="4.82258">
        <ele>160.60000610352</ele>
        <time>2017-07-24T12:28:34Z</time>
      </trkpt>
      <trkpt lat="46.2683" lon="4.8225">
        <ele>160.60000610352</ele>
        <time>2017-07-24T12:28:36Z</time>
      </trkpt>
      <trkpt lat="46.26814" lon="4.82233">
        <ele>160.80000305176</ele>
        <time>2017-07-24T12:28:40Z</time>
      </trkpt>
      <trkpt lat="46.26784" lon="4.822">
        <ele>160.60000610352</ele>
        <time>2017-07-24T12:28:47Z</time>
      </trkpt>
      <trkpt lat="46.26751" lon="4.82159">
        <ele>161</ele>
        <time>2017-07-24T12:28:55Z</time>
      </trkpt>
      <trkpt lat="46.26739" lon="4.82144">
        <ele>161.19999694824</ele>
        <time>2017-07-24T12:28:58Z</time>
      </trkpt>
      <trkpt lat="46.26717" lon="4.8212">
        <ele>161</ele>
        <time>2017-07-24T12:29:03Z</time>
      </trkpt>
      <trkpt lat="46.26691" lon="4.82093">
        <ele>161</ele>
        <time>2017-07-24T12:29:09Z</time>
      </trkpt>
      <trkpt lat="46.26669" lon="4.8207">
        <ele>160.60000610352</ele>
        <time>2017-07-24T12:29:14Z</time>
      </trkpt>
      <trkpt lat="46.26661" lon="4.8206">
        <ele>160.39999389648</ele>
        <time>2017-07-24T12:29:16Z</time>
      </trkpt>
      <trkpt lat="46.26639" lon="4.82036">
        <ele>160.60000610352</ele>
        <time>2017-07-24T12:29:22Z</time>
      </trkpt>
      <trkpt lat="46.26624" lon="4.82014">
        <ele>160.60000610352</ele>
        <time>2017-07-24T12:29:27Z</time>
      </trkpt>
      <trkpt lat="46.2662" lon="4.82011">
        <ele>160.60000610352</ele>
        <time>2017-07-24T12:29:28Z</time>
      </trkpt>
      <trkpt lat="46.26606" lon="4.81991">
        <ele>161</ele>
        <time>2017-07-24T12:29:32Z</time>
      </trkpt>
      <trkpt lat="46.26602" lon="4.81987">
        <ele>161.19999694824</ele>
        <time>2017-07-24T12:29:33Z</time>
      </trkpt>
      <trkpt lat="46.26579" lon="4.81956">
        <ele>161.19999694824</ele>
        <time>2017-07-24T12:29:39Z</time>
      </trkpt>
      <trkpt lat="46.26551" lon="4.81919">
        <ele>160.80000305176</ele>
        <time>2017-07-24T12:29:46Z</time>
      </trkpt>
      <trkpt lat="46.26531" lon="4.81891">
        <ele>160.60000610352</ele>
        <time>2017-07-24T12:29:51Z</time>
      </trkpt>
      <trkpt lat="46.26503" lon="4.81853">
        <ele>160.60000610352</ele>
        <time>2017-07-24T12:29:58Z</time>
      </trkpt>
      <trkpt lat="46.26495" lon="4.81843">
        <ele>160.60000610352</ele>
        <time>2017-07-24T12:30:00Z</time>
      </trkpt>
      <trkpt lat="46.26479" lon="4.81826">
        <ele>160.80000305176</ele>
        <time>2017-07-24T12:30:04Z</time>
      </trkpt>
      <trkpt lat="46.26465" lon="4.81819">
        <ele>160.80000305176</ele>
        <time>2017-07-24T12:30:08Z</time>
      </trkpt>
      <trkpt lat="46.26461" lon="4.81829">
        <ele>160.80000305176</ele>
        <time>2017-07-24T12:30:11Z</time>
      </trkpt>
      <trkpt lat="46.26451" lon="4.81845">
        <ele>161</ele>
        <time>2017-07-24T12:30:15Z</time>
      </trkpt>
      <trkpt lat="46.26431" lon="4.81878">
        <ele>161.19999694824</ele>
        <time>2017-07-24T12:30:22Z</time>
      </trkpt>
      <trkpt lat="46.26424" lon="4.81888">
        <ele>161.19999694824</ele>
        <time>2017-07-24T12:30:24Z</time>
      </trkpt>
      <trkpt lat="46.26412" lon="4.8191">
        <ele>161.19999694824</ele>
        <time>2017-07-24T12:30:28Z</time>
      </trkpt>
      <trkpt lat="46.26391" lon="4.81941">
        <ele>161.39999389648</ele>
        <time>2017-07-24T12:30:34Z</time>
      </trkpt>
      <trkpt lat="46.26387" lon="4.81944">
        <ele>161.39999389648</ele>
        <time>2017-07-24T12:30:35Z</time>
      </trkpt>
      <trkpt lat="46.26369" lon="4.81941">
        <ele>161.19999694824</ele>
        <time>2017-07-24T12:30:39Z</time>
      </trkpt>
      <trkpt lat="46.2636" lon="4.81934">
        <ele>161.19999694824</ele>
        <time>2017-07-24T12:30:41Z</time>
      </trkpt>
      <trkpt lat="46.26351" lon="4.81927">
        <ele>161</ele>
        <time>2017-07-24T12:30:43Z</time>
      </trkpt>
      <trkpt lat="46.26346" lon="4.81925">
        <ele>161</ele>
        <time>2017-07-24T12:30:44Z</time>
      </trkpt>
      <trkpt lat="46.2631" lon="4.81914">
        <ele>161.39999389648</ele>
        <time>2017-07-24T12:30:51Z</time>
      </trkpt>
      <trkpt lat="46.26279" lon="4.8191">
        <ele>161.19999694824</ele>
        <time>2017-07-24T12:30:57Z</time>
      </trkpt>
      <trkpt lat="46.26274" lon="4.81908">
        <ele>161.19999694824</ele>
        <time>2017-07-24T12:30:58Z</time>
      </trkpt>
      <trkpt lat="46.26261" lon="4.81892">
        <ele>161</ele>
        <time>2017-07-24T12:31:02Z</time>
      </trkpt>
      <trkpt lat="46.26254" lon="4.81866">
        <ele>161</ele>
        <time>2017-07-24T12:31:06Z</time>
      </trkpt>
      <trkpt lat="46.26251" lon="4.81852">
        <ele>161</ele>
        <time>2017-07-24T12:31:08Z</time>
      </trkpt>
      <trkpt lat="46.26245" lon="4.81826">
        <ele>161</ele>
        <time>2017-07-24T12:31:12Z</time>
      </trkpt>
      <trkpt lat="46.26244" lon="4.81819">
        <ele>161</ele>
        <time>2017-07-24T12:31:13Z</time>
      </trkpt>
      <trkpt lat="46.26241" lon="4.81807">
        <ele>160.80000305176</ele>
        <time>2017-07-24T12:31:15Z</time>
      </trkpt>
      <trkpt lat="46.2624" lon="4.81794">
        <ele>160.80000305176</ele>
        <time>2017-07-24T12:31:17Z</time>
      </trkpt>
      <trkpt lat="46.26232" lon="4.81755">
        <ele>161.19999694824</ele>
        <time>2017-07-24T12:31:23Z</time>
      </trkpt>
      <trkpt lat="46.26229" lon="4.8175">
        <ele>161.19999694824</ele>
        <time>2017-07-24T12:31:24Z</time>
      </trkpt>
      <trkpt lat="46.26224" lon="4.81739">
        <ele>161.19999694824</ele>
        <time>2017-07-24T12:31:26Z</time>
      </trkpt>
      <trkpt lat="46.26218" lon="4.81729">
        <ele>161.19999694824</ele>
        <time>2017-07-24T12:31:28Z</time>
      </trkpt>
      <trkpt lat="46.26211" lon="4.8172">
        <ele>161</ele>
        <time>2017-07-24T12:31:30Z</time>
      </trkpt>
      <trkpt lat="46.262" lon="4.81707">
        <ele>161</ele>
        <time>2017-07-24T12:31:33Z</time>
      </trkpt>
      <trkpt lat="46.26182" lon="4.81696">
        <ele>161</ele>
        <time>2017-07-24T12:31:38Z</time>
      </trkpt>
      <trkpt lat="46.26174" lon="4.81697">
        <ele>161</ele>
        <time>2017-07-24T12:31:42Z</time>
      </trkpt>
      <trkpt lat="46.26174" lon="4.81697">
        <ele>161</ele>
        <time>2017-07-24T12:31:57Z</time>
      </trkpt>
      <trkpt lat="46.26174" lon="4.81695">
        <ele>161</ele>
        <time>2017-07-24T12:31:58Z</time>
      </trkpt>
      <trkpt lat="46.26176" lon="4.81689">
        <ele>161</ele>
        <time>2017-07-24T12:32:00Z</time>
      </trkpt>
      <trkpt lat="46.26175" lon="4.8168">
        <ele>161.19999694824</ele>
        <time>2017-07-24T12:32:02Z</time>
      </trkpt>
      <trkpt lat="46.2617" lon="4.81663">
        <ele>161</ele>
        <time>2017-07-24T12:32:05Z</time>
      </trkpt>
      <trkpt lat="46.26165" lon="4.81654">
        <ele>160.80000305176</ele>
        <time>2017-07-24T12:32:07Z</time>
      </trkpt>
      <trkpt lat="46.26146" lon="4.81632">
        <ele>160.60000610352</ele>
        <time>2017-07-24T12:32:13Z</time>
      </trkpt>
      <trkpt lat="46.26124" lon="4.81598">
        <ele>160.39999389648</ele>
        <time>2017-07-24T12:32:19Z</time>
      </trkpt>
      <trkpt lat="46.26122" lon="4.81592">
        <ele>160.39999389648</ele>
        <time>2017-07-24T12:32:20Z</time>
      </trkpt>
      <trkpt lat="46.26112" lon="4.81574">
        <ele>160.60000610352</ele>
        <time>2017-07-24T12:32:23Z</time>
      </trkpt>
      <trkpt lat="46.26108" lon="4.81569">
        <ele>160.60000610352</ele>
        <time>2017-07-24T12:32:24Z</time>
      </trkpt>
      <trkpt lat="46.26094" lon="4.81546">
        <ele>160.60000610352</ele>
        <time>2017-07-24T12:32:28Z</time>
      </trkpt>
      <trkpt lat="46.26091" lon="4.81539">
        <ele>160.60000610352</ele>
        <time>2017-07-24T12:32:29Z</time>
      </trkpt>
      <trkpt lat="46.26088" lon="4.81533">
        <ele>160.60000610352</ele>
        <time>2017-07-24T12:32:30Z</time>
      </trkpt>
      <trkpt lat="46.26076" lon="4.81519">
        <ele>160.80000305176</ele>
        <time>2017-07-24T12:32:33Z</time>
      </trkpt>
      <trkpt lat="46.2607" lon="4.81507">
        <ele>160.80000305176</ele>
        <time>2017-07-24T12:32:35Z</time>
      </trkpt>
      <trkpt lat="46.26062" lon="4.81496">
        <ele>160.80000305176</ele>
        <time>2017-07-24T12:32:37Z</time>
      </trkpt>
      <trkpt lat="46.26035" lon="4.8145">
        <ele>160.80000305176</ele>
        <time>2017-07-24T12:32:45Z</time>
      </trkpt>
      <trkpt lat="46.26011" lon="4.81411">
        <ele>161</ele>
        <time>2017-07-24T12:32:52Z</time>
      </trkpt>
      <trkpt lat="46.26007" lon="4.81406">
        <ele>161.19999694824</ele>
        <time>2017-07-24T12:32:53Z</time>
      </trkpt>
      <trkpt lat="46.2599" lon="4.81386">
        <ele>161.19999694824</ele>
        <time>2017-07-24T12:32:57Z</time>
      </trkpt>
      <trkpt lat="46.25965" lon="4.81362">
        <ele>160.80000305176</ele>
        <time>2017-07-24T12:33:03Z</time>
      </trkpt>
      <trkpt lat="46.25961" lon="4.81359">
        <ele>160.80000305176</ele>
        <time>2017-07-24T12:33:04Z</time>
      </trkpt>
      <trkpt lat="46.25953" lon="4.81352">
        <ele>160.80000305176</ele>
        <time>2017-07-24T12:33:06Z</time>
      </trkpt>
      <trkpt lat="46.25937" lon="4.81339">
        <ele>160.60000610352</ele>
        <time>2017-07-24T12:33:10Z</time>
      </trkpt>
      <trkpt lat="46.25927" lon="4.81335">
        <ele>160.60000610352</ele>
        <time>2017-07-24T12:33:12Z</time>
      </trkpt>
      <trkpt lat="46.25911" lon="4.81332">
        <ele>160.80000305176</ele>
        <time>2017-07-24T12:33:15Z</time>
      </trkpt>
      <trkpt lat="46.25907" lon="4.8133">
        <ele>160.80000305176</ele>
        <time>2017-07-24T12:33:16Z</time>
      </trkpt>
      <trkpt lat="46.25898" lon="4.81327">
        <ele>160.80000305176</ele>
        <time>2017-07-24T12:33:18Z</time>
      </trkpt>
      <trkpt lat="46.25889" lon="4.81325">
        <ele>160.60000610352</ele>
        <time>2017-07-24T12:33:20Z</time>
      </trkpt>
      <trkpt lat="46.25849" lon="4.81317">
        <ele>160.19999694824</ele>
        <time>2017-07-24T12:33:28Z</time>
      </trkpt>
      <trkpt lat="46.25801" lon="4.81312">
        <ele>160.60000610352</ele>
        <time>2017-07-24T12:33:38Z</time>
      </trkpt>
      <trkpt lat="46.25786" lon="4.81312">
        <ele>160.60000610352</ele>
        <time>2017-07-24T12:33:41Z</time>
      </trkpt>
      <trkpt lat="46.25764" lon="4.81313">
        <ele>160.60000610352</ele>
        <time>2017-07-24T12:33:45Z</time>
      </trkpt>
      <trkpt lat="46.2571" lon="4.81313">
        <ele>160.39999389648</ele>
        <time>2017-07-24T12:33:55Z</time>
      </trkpt>
      <trkpt lat="46.25699" lon="4.81314">
        <ele>160.19999694824</ele>
        <time>2017-07-24T12:33:57Z</time>
      </trkpt>
      <trkpt lat="46.25694" lon="4.81314">
        <ele>160</ele>
        <time>2017-07-24T12:33:58Z</time>
      </trkpt>
      <trkpt lat="46.25678" lon="4.81317">
        <ele>160</ele>
        <time>2017-07-24T12:34:01Z</time>
      </trkpt>
      <trkpt lat="46.2563" lon="4.81321">
        <ele>160.19999694824</ele>
        <time>2017-07-24T12:34:10Z</time>
      </trkpt>
      <trkpt lat="46.25593" lon="4.81319">
        <ele>160</ele>
        <time>2017-07-24T12:34:17Z</time>
      </trkpt>
      <trkpt lat="46.25548" lon="4.8131">
        <ele>159.80000305176</ele>
        <time>2017-07-24T12:34:25Z</time>
      </trkpt>
      <trkpt lat="46.25538" lon="4.8131">
        <ele>159.80000305176</ele>
        <time>2017-07-24T12:34:27Z</time>
      </trkpt>
      <trkpt lat="46.25523" lon="4.81316">
        <ele>159.60000610352</ele>
        <time>2017-07-24T12:34:30Z</time>
      </trkpt>
      <trkpt lat="46.25518" lon="4.81318">
        <ele>159.60000610352</ele>
        <time>2017-07-24T12:34:31Z</time>
      </trkpt>
      <trkpt lat="46.25476" lon="4.81332">
        <ele>159.39999389648</ele>
        <time>2017-07-24T12:34:39Z</time>
      </trkpt>
      <trkpt lat="46.25428" lon="4.81337">
        <ele>160</ele>
        <time>2017-07-24T12:34:48Z</time>
      </trkpt>
      <trkpt lat="46.2539" lon="4.81339">
        <ele>159.60000610352</ele>
        <time>2017-07-24T12:34:55Z</time>
      </trkpt>
      <trkpt lat="46.25338" lon="4.81344">
        <ele>160.19999694824</ele>
        <time>2017-07-24T12:35:05Z</time>
      </trkpt>
      <trkpt lat="46.25294" lon="4.81352">
        <ele>159.60000610352</ele>
        <time>2017-07-24T12:35:14Z</time>
      </trkpt>
      <trkpt lat="46.25279" lon="4.81354">
        <ele>159</ele>
        <time>2017-07-24T12:35:17Z</time>
      </trkpt>
      <trkpt lat="46.25257" lon="4.81356">
        <ele>159</ele>
        <time>2017-07-24T12:35:22Z</time>
      </trkpt>
      <trkpt lat="46.25243" lon="4.81352">
        <ele>159</ele>
        <time>2017-07-24T12:35:27Z</time>
      </trkpt>
      <trkpt lat="46.25245" lon="4.81353">
        <ele>158.80000305176</ele>
        <time>2017-07-24T12:35:44Z</time>
      </trkpt>
      <trkpt lat="46.25246" lon="4.81354">
        <ele>158.80000305176</ele>
        <time>2017-07-24T12:35:45Z</time>
      </trkpt>
      <trkpt lat="46.25255" lon="4.81355">
        <ele>159</ele>
        <time>2017-07-24T12:35:50Z</time>
      </trkpt>
      <trkpt lat="46.25272" lon="4.81354">
        <ele>159</ele>
        <time>2017-07-24T12:35:56Z</time>
      </trkpt>
      <trkpt lat="46.2529" lon="4.81352">
        <ele>159.39999389648</ele>
        <time>2017-07-24T12:36:01Z</time>
      </trkpt>
      <trkpt lat="46.2532" lon="4.81347">
        <ele>159.39999389648</ele>
        <time>2017-07-24T12:36:08Z</time>
      </trkpt>
      <trkpt lat="46.25355" lon="4.81343">
        <ele>159</ele>
        <time>2017-07-24T12:36:16Z</time>
      </trkpt>
      <trkpt lat="46.25392" lon="4.81341">
        <ele>159</ele>
        <time>2017-07-24T12:36:25Z</time>
      </trkpt>
      <trkpt lat="46.25439" lon="4.81338">
        <ele>159.60000610352</ele>
        <time>2017-07-24T12:36:36Z</time>
      </trkpt>
      <trkpt lat="46.25482" lon="4.81332">
        <ele>160</ele>
        <time>2017-07-24T12:36:46Z</time>
      </trkpt>
      <trkpt lat="46.25486" lon="4.8133">
        <ele>159.80000305176</ele>
        <time>2017-07-24T12:36:47Z</time>
      </trkpt>
      <trkpt lat="46.25509" lon="4.81322">
        <ele>159.80000305176</ele>
        <time>2017-07-24T12:36:52Z</time>
      </trkpt>
      <trkpt lat="46.25545" lon="4.81309">
        <ele>159.60000610352</ele>
        <time>2017-07-24T12:37:00Z</time>
      </trkpt>
      <trkpt lat="46.2555" lon="4.81309">
        <ele>159.60000610352</ele>
        <time>2017-07-24T12:37:01Z</time>
      </trkpt>
      <trkpt lat="46.25554" lon="4.81309">
        <ele>159.60000610352</ele>
        <time>2017-07-24T12:37:02Z</time>
      </trkpt>
      <trkpt lat="46.25575" lon="4.81312">
        <ele>159.80000305176</ele>
        <time>2017-07-24T12:37:07Z</time>
      </trkpt>
      <trkpt lat="46.25605" lon="4.8132">
        <ele>160</ele>
        <time>2017-07-24T12:37:14Z</time>
      </trkpt>
      <trkpt lat="46.25609" lon="4.81321">
        <ele>160.19999694824</ele>
        <time>2017-07-24T12:37:15Z</time>
      </trkpt>
      <trkpt lat="46.25622" lon="4.81321">
        <ele>160.39999389648</ele>
        <time>2017-07-24T12:37:18Z</time>
      </trkpt>
      <trkpt lat="46.25639" lon="4.8132">
        <ele>160.60000610352</ele>
        <time>2017-07-24T12:37:22Z</time>
      </trkpt>
      <trkpt lat="46.25659" lon="4.81318">
        <ele>161.19999694824</ele>
        <time>2017-07-24T12:37:27Z</time>
      </trkpt>
      <trkpt lat="46.25681" lon="4.81317">
        <ele>161.19999694824</ele>
        <time>2017-07-24T12:37:32Z</time>
      </trkpt>
      <trkpt lat="46.2572" lon="4.81312">
        <ele>161.19999694824</ele>
        <time>2017-07-24T12:37:41Z</time>
      </trkpt>
      <trkpt lat="46.25761" lon="4.81312">
        <ele>161.19999694824</ele>
        <time>2017-07-24T12:37:50Z</time>
      </trkpt>
      <trkpt lat="46.25806" lon="4.81313">
        <ele>161.19999694824</ele>
        <time>2017-07-24T12:38:00Z</time>
      </trkpt>
      <trkpt lat="46.25837" lon="4.81316">
        <ele>161</ele>
        <time>2017-07-24T12:38:07Z</time>
      </trkpt>
      <trkpt lat="46.25872" lon="4.81323">
        <ele>161.19999694824</ele>
        <time>2017-07-24T12:38:15Z</time>
      </trkpt>
      <trkpt lat="46.25907" lon="4.8133">
        <ele>161.19999694824</ele>
        <time>2017-07-24T12:38:23Z</time>
      </trkpt>
      <trkpt lat="46.25932" lon="4.81336">
        <ele>160.80000305176</ele>
        <time>2017-07-24T12:38:30Z</time>
      </trkpt>
      <trkpt lat="46.25944" lon="4.81344">
        <ele>161</ele>
        <time>2017-07-24T12:38:33Z</time>
      </trkpt>
      <trkpt lat="46.25951" lon="4.8135">
        <ele>161</ele>
        <time>2017-07-24T12:38:35Z</time>
      </trkpt>
      <trkpt lat="46.25967" lon="4.81363">
        <ele>161.39999389648</ele>
        <time>2017-07-24T12:38:39Z</time>
      </trkpt>
      <trkpt lat="46.25979" lon="4.81373">
        <ele>161.39999389648</ele>
        <time>2017-07-24T12:38:42Z</time>
      </trkpt>
      <trkpt lat="46.26005" lon="4.81401">
        <ele>161.39999389648</ele>
        <time>2017-07-24T12:38:49Z</time>
      </trkpt>
      <trkpt lat="46.26011" lon="4.81409">
        <ele>161.39999389648</ele>
        <time>2017-07-24T12:38:51Z</time>
      </trkpt>
      <trkpt lat="46.2602" lon="4.81424">
        <ele>161.39999389648</ele>
        <time>2017-07-24T12:38:54Z</time>
      </trkpt>
      <trkpt lat="46.26041" lon="4.81458">
        <ele>161.19999694824</ele>
        <time>2017-07-24T12:39:01Z</time>
      </trkpt>
      <trkpt lat="46.26058" lon="4.81487">
        <ele>161.19999694824</ele>
        <time>2017-07-24T12:39:07Z</time>
      </trkpt>
      <trkpt lat="46.2608" lon="4.81524">
        <ele>161.19999694824</ele>
        <time>2017-07-24T12:39:14Z</time>
      </trkpt>
      <trkpt lat="46.26084" lon="4.81528">
        <ele>161.19999694824</ele>
        <time>2017-07-24T12:39:15Z</time>
      </trkpt>
      <trkpt lat="46.26095" lon="4.81543">
        <ele>161.19999694824</ele>
        <time>2017-07-24T12:39:18Z</time>
      </trkpt>
      <trkpt lat="46.26097" lon="4.81549">
        <ele>161.19999694824</ele>
        <time>2017-07-24T12:39:19Z</time>
      </trkpt>
      <trkpt lat="46.26114" lon="4.81576">
        <ele>161.19999694824</ele>
        <time>2017-07-24T12:39:24Z</time>
      </trkpt>
      <trkpt lat="46.26118" lon="4.81581">
        <ele>161.39999389648</ele>
        <time>2017-07-24T12:39:25Z</time>
      </trkpt>
      <trkpt lat="46.26121" lon="4.81587">
        <ele>161.39999389648</ele>
        <time>2017-07-24T12:39:26Z</time>
      </trkpt>
      <trkpt lat="46.2613" lon="4.81604">
        <ele>161.39999389648</ele>
        <time>2017-07-24T12:39:29Z</time>
      </trkpt>
      <trkpt lat="46.26152" lon="4.81641">
        <ele>161.39999389648</ele>
        <time>2017-07-24T12:39:36Z</time>
      </trkpt>
      <trkpt lat="46.26171" lon="4.8167">
        <ele>161.19999694824</ele>
        <time>2017-07-24T12:39:42Z</time>
      </trkpt>
      <trkpt lat="46.26173" lon="4.81676">
        <ele>161.19999694824</ele>
        <time>2017-07-24T12:39:43Z</time>
      </trkpt>
      <trkpt lat="46.26178" lon="4.81691">
        <ele>161.39999389648</ele>
        <time>2017-07-24T12:39:47Z</time>
      </trkpt>
      <trkpt lat="46.26179" lon="4.81694">
        <ele>161.39999389648</ele>
        <time>2017-07-24T12:39:48Z</time>
      </trkpt>
      <trkpt lat="46.26184" lon="4.81698">
        <ele>161.80000305176</ele>
        <time>2017-07-24T12:39:52Z</time>
      </trkpt>
      <trkpt lat="46.26182" lon="4.81699">
        <ele>161.80000305176</ele>
        <time>2017-07-24T12:39:55Z</time>
      </trkpt>
      <trkpt lat="46.2618" lon="4.81699">
        <ele>161.80000305176</ele>
        <time>2017-07-24T12:39:57Z</time>
      </trkpt>
      <trkpt lat="46.26167" lon="4.81705">
        <ele>161.80000305176</ele>
        <time>2017-07-24T12:40:03Z</time>
      </trkpt>
      <trkpt lat="46.26156" lon="4.81718">
        <ele>161.80000305176</ele>
        <time>2017-07-24T12:40:07Z</time>
      </trkpt>
      <trkpt lat="46.26154" lon="4.81724">
        <ele>161.80000305176</ele>
        <time>2017-07-24T12:40:08Z</time>
      </trkpt>
      <trkpt lat="46.26142" lon="4.81766">
        <ele>161.19999694824</ele>
        <time>2017-07-24T12:40:14Z</time>
      </trkpt>
      <trkpt lat="46.26133" lon="4.81786">
        <ele>161</ele>
        <time>2017-07-24T12:40:17Z</time>
      </trkpt>
      <trkpt lat="46.2612" lon="4.81803">
        <ele>160.80000305176</ele>
        <time>2017-07-24T12:40:20Z</time>
      </trkpt>
      <trkpt lat="46.26103" lon="4.81813">
        <ele>160.80000305176</ele>
        <time>2017-07-24T12:40:23Z</time>
      </trkpt>
      <trkpt lat="46.26098" lon="4.81816">
        <ele>160.60000610352</ele>
        <time>2017-07-24T12:40:24Z</time>
      </trkpt>
      <trkpt lat="46.26064" lon="4.81834">
        <ele>160.39999389648</ele>
        <time>2017-07-24T12:40:31Z</time>
      </trkpt>
      <trkpt lat="46.26054" lon="4.81839">
        <ele>160.60000610352</ele>
        <time>2017-07-24T12:40:33Z</time>
      </trkpt>
      <trkpt lat="46.26045" lon="4.81844">
        <ele>160.60000610352</ele>
        <time>2017-07-24T12:40:35Z</time>
      </trkpt>
      <trkpt lat="46.26039" lon="4.81856">
        <ele>160.39999389648</ele>
        <time>2017-07-24T12:40:37Z</time>
      </trkpt>
      <trkpt lat="46.26034" lon="4.81868">
        <ele>160.39999389648</ele>
        <time>2017-07-24T12:40:39Z</time>
      </trkpt>
      <trkpt lat="46.26026" lon="4.81894">
        <ele>160.39999389648</ele>
        <time>2017-07-24T12:40:43Z</time>
      </trkpt>
      <trkpt lat="46.26019" lon="4.81915">
        <ele>160</ele>
        <time>2017-07-24T12:40:46Z</time>
      </trkpt>
      <trkpt lat="46.26007" lon="4.81951">
        <ele>159.60000610352</ele>
        <time>2017-07-24T12:40:51Z</time>
      </trkpt>
      <trkpt lat="46.26" lon="4.81973">
        <ele>159.60000610352</ele>
        <time>2017-07-24T12:40:54Z</time>
      </trkpt>
      <trkpt lat="46.25994" lon="4.81996">
        <ele>159.60000610352</ele>
        <time>2017-07-24T12:40:57Z</time>
      </trkpt>
      <trkpt lat="46.25972" lon="4.82065">
        <ele>159.39999389648</ele>
        <time>2017-07-24T12:41:06Z</time>
      </trkpt>
      <trkpt lat="46.25969" lon="4.82072">
        <ele>159.39999389648</ele>
        <time>2017-07-24T12:41:07Z</time>
      </trkpt>
      <trkpt lat="46.2596" lon="4.82103">
        <ele>159.19999694824</ele>
        <time>2017-07-24T12:41:11Z</time>
      </trkpt>
      <trkpt lat="46.25945" lon="4.82147">
        <ele>159.39999389648</ele>
        <time>2017-07-24T12:41:17Z</time>
      </trkpt>
      <trkpt lat="46.2593" lon="4.82197">
        <ele>159.60000610352</ele>
        <time>2017-07-24T12:41:24Z</time>
      </trkpt>
      <trkpt lat="46.25919" lon="4.82221">
        <ele>159.19999694824</ele>
        <time>2017-07-24T12:41:29Z</time>
      </trkpt>
      <trkpt lat="46.25906" lon="4.82221">
        <ele>159.39999389648</ele>
        <time>2017-07-24T12:41:32Z</time>
      </trkpt>
      <trkpt lat="46.25902" lon="4.82219">
        <ele>159.39999389648</ele>
        <time>2017-07-24T12:41:33Z</time>
      </trkpt>
      <trkpt lat="46.25867" lon="4.82214">
        <ele>159.80000305176</ele>
        <time>2017-07-24T12:41:40Z</time>
      </trkpt>
      <trkpt lat="46.25838" lon="4.82206">
        <ele>160</ele>
        <time>2017-07-24T12:41:46Z</time>
      </trkpt>
      <trkpt lat="46.25809" lon="4.82197">
        <ele>159.80000305176</ele>
        <time>2017-07-24T12:41:52Z</time>
      </trkpt>
      <trkpt lat="46.25776" lon="4.8219">
        <ele>159.60000610352</ele>
        <time>2017-07-24T12:41:59Z</time>
      </trkpt>
      <trkpt lat="46.25747" lon="4.82184">
        <ele>159.80000305176</ele>
        <time>2017-07-24T12:42:05Z</time>
      </trkpt>
      <trkpt lat="46.25707" lon="4.82177">
        <ele>159.60000610352</ele>
        <time>2017-07-24T12:42:13Z</time>
      </trkpt>
      <trkpt lat="46.25687" lon="4.82169">
        <ele>159</ele>
        <time>2017-07-24T12:42:17Z</time>
      </trkpt>
      <trkpt lat="46.25672" lon="4.82162">
        <ele>159</ele>
        <time>2017-07-24T12:42:20Z</time>
      </trkpt>
      <trkpt lat="46.25657" lon="4.82154">
        <ele>159</ele>
        <time>2017-07-24T12:42:23Z</time>
      </trkpt>
      <trkpt lat="46.25641" lon="4.82147">
        <ele>159</ele>
        <time>2017-07-24T12:42:26Z</time>
      </trkpt>
      <trkpt lat="46.25599" lon="4.8213">
        <ele>159.39999389648</ele>
        <time>2017-07-24T12:42:35Z</time>
      </trkpt>
      <trkpt lat="46.25565" lon="4.82116">
        <ele>159.39999389648</ele>
        <time>2017-07-24T12:42:42Z</time>
      </trkpt>
      <trkpt lat="46.25535" lon="4.82105">
        <ele>159.19999694824</ele>
        <time>2017-07-24T12:42:48Z</time>
      </trkpt>
      <trkpt lat="46.25531" lon="4.82107">
        <ele>159.19999694824</ele>
        <time>2017-07-24T12:42:49Z</time>
      </trkpt>
      <trkpt lat="46.2552" lon="4.82123">
        <ele>159.19999694824</ele>
        <time>2017-07-24T12:42:52Z</time>
      </trkpt>
      <trkpt lat="46.25517" lon="4.82129">
        <ele>159.19999694824</ele>
        <time>2017-07-24T12:42:53Z</time>
      </trkpt>
      <trkpt lat="46.25515" lon="4.82136">
        <ele>159.39999389648</ele>
        <time>2017-07-24T12:42:54Z</time>
      </trkpt>
      <trkpt lat="46.25508" lon="4.82164">
        <ele>159.39999389648</ele>
        <time>2017-07-24T12:42:58Z</time>
      </trkpt>
      <trkpt lat="46.25506" lon="4.8217">
        <ele>159.39999389648</ele>
        <time>2017-07-24T12:42:59Z</time>
      </trkpt>
      <trkpt lat="46.255" lon="4.82195">
        <ele>159.19999694824</ele>
        <time>2017-07-24T12:43:03Z</time>
      </trkpt>
      <trkpt lat="46.25493" lon="4.82212">
        <ele>159.39999389648</ele>
        <time>2017-07-24T12:43:06Z</time>
      </trkpt>
      <trkpt lat="46.25485" lon="4.82217">
        <ele>159.60000610352</ele>
        <time>2017-07-24T12:43:08Z</time>
      </trkpt>
      <trkpt lat="46.25473" lon="4.82223">
        <ele>159.80000305176</ele>
        <time>2017-07-24T12:43:11Z</time>
      </trkpt>
      <trkpt lat="46.25458" lon="4.8223">
        <ele>159.80000305176</ele>
        <time>2017-07-24T12:43:14Z</time>
      </trkpt>
      <trkpt lat="46.25425" lon="4.82251">
        <ele>160</ele>
        <time>2017-07-24T12:43:21Z</time>
      </trkpt>
      <trkpt lat="46.25421" lon="4.82253">
        <ele>160</ele>
        <time>2017-07-24T12:43:22Z</time>
      </trkpt>
      <trkpt lat="46.25407" lon="4.82254">
        <ele>160</ele>
        <time>2017-07-24T12:43:25Z</time>
      </trkpt>
      <trkpt lat="46.25393" lon="4.82254">
        <ele>160</ele>
        <time>2017-07-24T12:43:28Z</time>
      </trkpt>
      <trkpt lat="46.25364" lon="4.82255">
        <ele>160.19999694824</ele>
        <time>2017-07-24T12:43:34Z</time>
      </trkpt>
      <trkpt lat="46.25356" lon="4.82256">
        <ele>160.19999694824</ele>
        <time>2017-07-24T12:43:36Z</time>
      </trkpt>
      <trkpt lat="46.25344" lon="4.82256">
        <ele>159.80000305176</ele>
        <time>2017-07-24T12:43:39Z</time>
      </trkpt>
      <trkpt lat="46.2534" lon="4.82256">
        <ele>159.80000305176</ele>
        <time>2017-07-24T12:43:40Z</time>
      </trkpt>
      <trkpt lat="46.25308" lon="4.82258">
        <ele>159.80000305176</ele>
        <time>2017-07-24T12:43:48Z</time>
      </trkpt>
      <trkpt lat="46.25303" lon="4.82256">
        <ele>159.80000305176</ele>
        <time>2017-07-24T12:43:49Z</time>
      </trkpt>
      <trkpt lat="46.25293" lon="4.82253">
        <ele>160</ele>
        <time>2017-07-24T12:43:52Z</time>
      </trkpt>
      <trkpt lat="46.25289" lon="4.82251">
        <ele>160</ele>
        <time>2017-07-24T12:43:53Z</time>
      </trkpt>
      <trkpt lat="46.25272" lon="4.82242">
        <ele>160</ele>
        <time>2017-07-24T12:43:57Z</time>
      </trkpt>
      <trkpt lat="46.25241" lon="4.82227">
        <ele>159.80000305176</ele>
        <time>2017-07-24T12:44:04Z</time>
      </trkpt>
      <trkpt lat="46.2521" lon="4.82216">
        <ele>160</ele>
        <time>2017-07-24T12:44:10Z</time>
      </trkpt>
      <trkpt lat="46.25171" lon="4.82204">
        <ele>159.80000305176</ele>
        <time>2017-07-24T12:44:17Z</time>
      </trkpt>
      <trkpt lat="46.25125" lon="4.82186">
        <ele>159.60000610352</ele>
        <time>2017-07-24T12:44:25Z</time>
      </trkpt>
      <trkpt lat="46.25084" lon="4.82169">
        <ele>159.19999694824</ele>
        <time>2017-07-24T12:44:33Z</time>
      </trkpt>
      <trkpt lat="46.25062" lon="4.82158">
        <ele>159.19999694824</ele>
        <time>2017-07-24T12:44:38Z</time>
      </trkpt>
      <trkpt lat="46.25058" lon="4.82155">
        <ele>159</ele>
        <time>2017-07-24T12:44:39Z</time>
      </trkpt>
      <trkpt lat="46.25049" lon="4.82148">
        <ele>159</ele>
        <time>2017-07-24T12:44:41Z</time>
      </trkpt>
      <trkpt lat="46.2504" lon="4.82142">
        <ele>158.80000305176</ele>
        <time>2017-07-24T12:44:43Z</time>
      </trkpt>
      <trkpt lat="46.2503" lon="4.82138">
        <ele>158.80000305176</ele>
        <time>2017-07-24T12:44:45Z</time>
      </trkpt>
      <trkpt lat="46.24994" lon="4.82125">
        <ele>158.80000305176</ele>
        <time>2017-07-24T12:44:52Z</time>
      </trkpt>
      <trkpt lat="46.24989" lon="4.82122">
        <ele>158.80000305176</ele>
        <time>2017-07-24T12:44:53Z</time>
      </trkpt>
      <trkpt lat="46.24948" lon="4.82108">
        <ele>159.19999694824</ele>
        <time>2017-07-24T12:45:01Z</time>
      </trkpt>
      <trkpt lat="46.24913" lon="4.82097">
        <ele>159.60000610352</ele>
        <time>2017-07-24T12:45:08Z</time>
      </trkpt>
      <trkpt lat="46.24904" lon="4.82096">
        <ele>159.60000610352</ele>
        <time>2017-07-24T12:45:10Z</time>
      </trkpt>
      <trkpt lat="46.24888" lon="4.82094">
        <ele>159.80000305176</ele>
        <time>2017-07-24T12:45:14Z</time>
      </trkpt>
      <trkpt lat="46.24883" lon="4.82089">
        <ele>159.80000305176</ele>
        <time>2017-07-24T12:45:16Z</time>
      </trkpt>
      <trkpt lat="46.24882" lon="4.82081">
        <ele>159.80000305176</ele>
        <time>2017-07-24T12:45:18Z</time>
      </trkpt>
      <trkpt lat="46.24888" lon="4.82067">
        <ele>160</ele>
        <time>2017-07-24T12:45:21Z</time>
      </trkpt>
      <trkpt lat="46.2489" lon="4.82062">
        <ele>160</ele>
        <time>2017-07-24T12:45:22Z</time>
      </trkpt>
      <trkpt lat="46.24892" lon="4.82057">
        <ele>160.19999694824</ele>
        <time>2017-07-24T12:45:23Z</time>
      </trkpt>
      <trkpt lat="46.24901" lon="4.8203">
        <ele>160.39999389648</ele>
        <time>2017-07-24T12:45:27Z</time>
      </trkpt>
      <trkpt lat="46.24915" lon="4.81986">
        <ele>159.80000305176</ele>
        <time>2017-07-24T12:45:33Z</time>
      </trkpt>
      <trkpt lat="46.24934" lon="4.81934">
        <ele>159</ele>
        <time>2017-07-24T12:45:40Z</time>
      </trkpt>
      <trkpt lat="46.24951" lon="4.81883">
        <ele>159</ele>
        <time>2017-07-24T12:45:47Z</time>
      </trkpt>
      <trkpt lat="46.24974" lon="4.81818">
        <ele>159.19999694824</ele>
        <time>2017-07-24T12:45:56Z</time>
      </trkpt>
      <trkpt lat="46.24992" lon="4.81763">
        <ele>159</ele>
        <time>2017-07-24T12:46:04Z</time>
      </trkpt>
      <trkpt lat="46.25" lon="4.81733">
        <ele>158.60000610352</ele>
        <time>2017-07-24T12:46:09Z</time>
      </trkpt>
      <trkpt lat="46.24998" lon="4.81727">
        <ele>158.60000610352</ele>
        <time>2017-07-24T12:46:10Z</time>
      </trkpt>
      <trkpt lat="46.24983" lon="4.81717">
        <ele>158.60000610352</ele>
        <time>2017-07-24T12:46:13Z</time>
      </trkpt>
      <trkpt lat="46.24972" lon="4.81717">
        <ele>158.60000610352</ele>
        <time>2017-07-24T12:46:15Z</time>
      </trkpt>
      <trkpt lat="46.24966" lon="4.81715">
        <ele>158.60000610352</ele>
        <time>2017-07-24T12:46:16Z</time>
      </trkpt>
      <trkpt lat="46.24961" lon="4.81714">
        <ele>158.80000305176</ele>
        <time>2017-07-24T12:46:17Z</time>
      </trkpt>
      <trkpt lat="46.2492" lon="4.81705">
        <ele>159</ele>
        <time>2017-07-24T12:46:24Z</time>
      </trkpt>
      <trkpt lat="46.24879" lon="4.81693">
        <ele>158.80000305176</ele>
        <time>2017-07-24T12:46:31Z</time>
      </trkpt>
      <trkpt lat="46.24856" lon="4.81687">
        <ele>158.80000305176</ele>
        <time>2017-07-24T12:46:35Z</time>
      </trkpt>
      <trkpt lat="46.24844" lon="4.81681">
        <ele>158.80000305176</ele>
        <time>2017-07-24T12:46:37Z</time>
      </trkpt>
      <trkpt lat="46.24827" lon="4.81669">
        <ele>158.80000305176</ele>
        <time>2017-07-24T12:46:40Z</time>
      </trkpt>
      <trkpt lat="46.24817" lon="4.81659">
        <ele>159</ele>
        <time>2017-07-24T12:46:42Z</time>
      </trkpt>
      <trkpt lat="46.2478" lon="4.8161">
        <ele>159</ele>
        <time>2017-07-24T12:46:50Z</time>
      </trkpt>
      <trkpt lat="46.24756" lon="4.81579">
        <ele>158.80000305176</ele>
        <time>2017-07-24T12:46:55Z</time>
      </trkpt>
      <trkpt lat="46.2475" lon="4.81576">
        <ele>158.80000305176</ele>
        <time>2017-07-24T12:46:56Z</time>
      </trkpt>
      <trkpt lat="46.2473" lon="4.81573">
        <ele>158.80000305176</ele>
        <time>2017-07-24T12:46:59Z</time>
      </trkpt>
      <trkpt lat="46.24724" lon="4.81571">
        <ele>158.80000305176</ele>
        <time>2017-07-24T12:47:00Z</time>
      </trkpt>
      <trkpt lat="46.24695" lon="4.8156">
        <ele>159</ele>
        <time>2017-07-24T12:47:05Z</time>
      </trkpt>
      <trkpt lat="46.24666" lon="4.81552">
        <ele>159</ele>
        <time>2017-07-24T12:47:10Z</time>
      </trkpt>
      <trkpt lat="46.24661" lon="4.81552">
        <ele>159</ele>
        <time>2017-07-24T12:47:11Z</time>
      </trkpt>
      <trkpt lat="46.24645" lon="4.8155">
        <ele>159.39999389648</ele>
        <time>2017-07-24T12:47:14Z</time>
      </trkpt>
      <trkpt lat="46.24628" lon="4.81546">
        <ele>159.80000305176</ele>
        <time>2017-07-24T12:47:17Z</time>
      </trkpt>
      <trkpt lat="46.2461" lon="4.81543">
        <ele>160</ele>
        <time>2017-07-24T12:47:20Z</time>
      </trkpt>
      <trkpt lat="46.24582" lon="4.8154">
        <ele>160</ele>
        <time>2017-07-24T12:47:25Z</time>
      </trkpt>
      <trkpt lat="46.24543" lon="4.81538">
        <ele>160</ele>
        <time>2017-07-24T12:47:32Z</time>
      </trkpt>
      <trkpt lat="46.24496" lon="4.81535">
        <ele>160.39999389648</ele>
        <time>2017-07-24T12:47:40Z</time>
      </trkpt>
      <trkpt lat="46.24478" lon="4.81535">
        <ele>160.19999694824</ele>
        <time>2017-07-24T12:47:44Z</time>
      </trkpt>
      <trkpt lat="46.24472" lon="4.81536">
        <ele>160.19999694824</ele>
        <time>2017-07-24T12:47:45Z</time>
      </trkpt>
      <trkpt lat="46.24443" lon="4.81541">
        <ele>160</ele>
        <time>2017-07-24T12:47:50Z</time>
      </trkpt>
      <trkpt lat="46.24406" lon="4.8155">
        <ele>159.60000610352</ele>
        <time>2017-07-24T12:47:56Z</time>
      </trkpt>
      <trkpt lat="46.24349" lon="4.8155">
        <ele>160.19999694824</ele>
        <time>2017-07-24T12:48:05Z</time>
      </trkpt>
      <trkpt lat="46.24325" lon="4.81544">
        <ele>160.39999389648</ele>
        <time>2017-07-24T12:48:09Z</time>
      </trkpt>
      <trkpt lat="46.24312" lon="4.81537">
        <ele>160.39999389648</ele>
        <time>2017-07-24T12:48:11Z</time>
      </trkpt>
      <trkpt lat="46.243" lon="4.81527">
        <ele>160.39999389648</ele>
        <time>2017-07-24T12:48:13Z</time>
      </trkpt>
      <trkpt lat="46.24281" lon="4.81509">
        <ele>160.19999694824</ele>
        <time>2017-07-24T12:48:16Z</time>
      </trkpt>
      <trkpt lat="46.24233" lon="4.81461">
        <ele>159.80000305176</ele>
        <time>2017-07-24T12:48:24Z</time>
      </trkpt>
      <trkpt lat="46.24228" lon="4.81455">
        <ele>159.80000305176</ele>
        <time>2017-07-24T12:48:25Z</time>
      </trkpt>
      <trkpt lat="46.24185" lon="4.81411">
        <ele>159.80000305176</ele>
        <time>2017-07-24T12:48:33Z</time>
      </trkpt>
      <trkpt lat="46.24155" lon="4.81381">
        <ele>159.60000610352</ele>
        <time>2017-07-24T12:48:39Z</time>
      </trkpt>
      <trkpt lat="46.24134" lon="4.81358">
        <ele>160.19999694824</ele>
        <time>2017-07-24T12:48:45Z</time>
      </trkpt>
      <trkpt lat="46.24133" lon="4.81355">
        <ele>160.39999389648</ele>
        <time>2017-07-24T12:48:46Z</time>
      </trkpt>
      <trkpt lat="46.24131" lon="4.81348">
        <ele>161</ele>
        <time>2017-07-24T12:48:48Z</time>
      </trkpt>
      <trkpt lat="46.24118" lon="4.81338">
        <ele>161.60000610352</ele>
        <time>2017-07-24T12:48:53Z</time>
      </trkpt>
      <trkpt lat="46.24114" lon="4.81335">
        <ele>161.60000610352</ele>
        <time>2017-07-24T12:48:54Z</time>
      </trkpt>
      <trkpt lat="46.24098" lon="4.81321">
        <ele>161.60000610352</ele>
        <time>2017-07-24T12:48:58Z</time>
      </trkpt>
      <trkpt lat="46.24091" lon="4.81313">
        <ele>161.80000305176</ele>
        <time>2017-07-24T12:49:00Z</time>
      </trkpt>
      <trkpt lat="46.24073" lon="4.81296">
        <ele>161.60000610352</ele>
        <time>2017-07-24T12:49:04Z</time>
      </trkpt>
      <trkpt lat="46.24069" lon="4.81291">
        <ele>161.60000610352</ele>
        <time>2017-07-24T12:49:05Z</time>
      </trkpt>
      <trkpt lat="46.24051" lon="4.81262">
        <ele>161.80000305176</ele>
        <time>2017-07-24T12:49:10Z</time>
      </trkpt>
      <trkpt lat="46.24047" lon="4.81255">
        <ele>161.80000305176</ele>
        <time>2017-07-24T12:49:11Z</time>
      </trkpt>
      <trkpt lat="46.2404" lon="4.81234">
        <ele>161.80000305176</ele>
        <time>2017-07-24T12:49:14Z</time>
      </trkpt>
      <trkpt lat="46.24036" lon="4.8122">
        <ele>161.80000305176</ele>
        <time>2017-07-24T12:49:16Z</time>
      </trkpt>
      <trkpt lat="46.24035" lon="4.81213">
        <ele>161.80000305176</ele>
        <time>2017-07-24T12:49:17Z</time>
      </trkpt>
      <trkpt lat="46.24036" lon="4.81197">
        <ele>162</ele>
        <time>2017-07-24T12:49:19Z</time>
      </trkpt>
      <trkpt lat="46.24036" lon="4.8119">
        <ele>162.19999694824</ele>
        <time>2017-07-24T12:49:20Z</time>
      </trkpt>
      <trkpt lat="46.24039" lon="4.81174">
        <ele>162.39999389648</ele>
        <time>2017-07-24T12:49:22Z</time>
      </trkpt>
      <trkpt lat="46.24039" lon="4.81156">
        <ele>162.39999389648</ele>
        <time>2017-07-24T12:49:24Z</time>
      </trkpt>
      <trkpt lat="46.24038" lon="4.81147">
        <ele>162.39999389648</ele>
        <time>2017-07-24T12:49:25Z</time>
      </trkpt>
      <trkpt lat="46.24034" lon="4.81118">
        <ele>161.60000610352</ele>
        <time>2017-07-24T12:49:29Z</time>
      </trkpt>
      <trkpt lat="46.24017" lon="4.81113">
        <ele>161</ele>
        <time>2017-07-24T12:49:32Z</time>
      </trkpt>
      <trkpt lat="46.24006" lon="4.8111">
        <ele>160.60000610352</ele>
        <time>2017-07-24T12:49:34Z</time>
      </trkpt>
      <trkpt lat="46.23991" lon="4.81105">
        <ele>160</ele>
        <time>2017-07-24T12:49:37Z</time>
      </trkpt>
      <trkpt lat="46.23986" lon="4.81105">
        <ele>160</ele>
        <time>2017-07-24T12:49:38Z</time>
      </trkpt>
      <trkpt lat="46.23977" lon="4.81105">
        <ele>159.80000305176</ele>
        <time>2017-07-24T12:49:41Z</time>
      </trkpt>
      <trkpt lat="46.23973" lon="4.81102">
        <ele>159.39999389648</ele>
        <time>2017-07-24T12:49:49Z</time>
      </trkpt>
      <trkpt lat="46.23962" lon="4.81099">
        <ele>159.19999694824</ele>
        <time>2017-07-24T12:49:53Z</time>
      </trkpt>
      <trkpt lat="46.23938" lon="4.81094">
        <ele>159.19999694824</ele>
        <time>2017-07-24T12:49:58Z</time>
      </trkpt>
      <trkpt lat="46.23896" lon="4.81082">
        <ele>159.80000305176</ele>
        <time>2017-07-24T12:50:06Z</time>
      </trkpt>
      <trkpt lat="46.23857" lon="4.81073">
        <ele>160</ele>
        <time>2017-07-24T12:50:13Z</time>
      </trkpt>
      <trkpt lat="46.23813" lon="4.81058">
        <ele>160.19999694824</ele>
        <time>2017-07-24T12:50:21Z</time>
      </trkpt>
      <trkpt lat="46.23777" lon="4.81043">
        <ele>159.19999694824</ele>
        <time>2017-07-24T12:50:28Z</time>
      </trkpt>
      <trkpt lat="46.23735" lon="4.81023">
        <ele>159.19999694824</ele>
        <time>2017-07-24T12:50:36Z</time>
      </trkpt>
      <trkpt lat="46.23689" lon="4.80996">
        <ele>159.39999389648</ele>
        <time>2017-07-24T12:50:45Z</time>
      </trkpt>
      <trkpt lat="46.23647" lon="4.80967">
        <ele>159.39999389648</ele>
        <time>2017-07-24T12:50:53Z</time>
      </trkpt>
      <trkpt lat="46.23594" lon="4.80927">
        <ele>159.80000305176</ele>
        <time>2017-07-24T12:51:03Z</time>
      </trkpt>
      <trkpt lat="46.23589" lon="4.80923">
        <ele>159.80000305176</ele>
        <time>2017-07-24T12:51:04Z</time>
      </trkpt>
      <trkpt lat="46.23547" lon="4.80888">
        <ele>159.80000305176</ele>
        <time>2017-07-24T12:51:13Z</time>
      </trkpt>
      <trkpt lat="46.23541" lon="4.80886">
        <ele>159.60000610352</ele>
        <time>2017-07-24T12:51:16Z</time>
      </trkpt>
      <trkpt lat="46.23534" lon="4.80876">
        <ele>159.19999694824</ele>
        <time>2017-07-24T12:51:21Z</time>
      </trkpt>
      <trkpt lat="46.23517" lon="4.80862">
        <ele>159.39999389648</ele>
        <time>2017-07-24T12:51:26Z</time>
      </trkpt>
      <trkpt lat="46.23489" lon="4.8084">
        <ele>159.80000305176</ele>
        <time>2017-07-24T12:51:33Z</time>
      </trkpt>
      <trkpt lat="46.23485" lon="4.80835">
        <ele>159.80000305176</ele>
        <time>2017-07-24T12:51:34Z</time>
      </trkpt>
      <trkpt lat="46.23478" lon="4.80823">
        <ele>160</ele>
        <time>2017-07-24T12:51:37Z</time>
      </trkpt>
      <trkpt lat="46.23474" lon="4.80819">
        <ele>159.39999389648</ele>
        <time>2017-07-24T12:51:57Z</time>
      </trkpt>
      <trkpt lat="46.23469" lon="4.80816">
        <ele>159.39999389648</ele>
        <time>2017-07-24T12:52:00Z</time>
      </trkpt>
      <trkpt lat="46.23462" lon="4.80806">
        <ele>159.19999694824</ele>
        <time>2017-07-24T12:52:08Z</time>
      </trkpt>
      <trkpt lat="46.2345" lon="4.80794">
        <ele>159.39999389648</ele>
        <time>2017-07-24T12:52:13Z</time>
      </trkpt>
      <trkpt lat="46.23428" lon="4.80771">
        <ele>159.39999389648</ele>
        <time>2017-07-24T12:52:19Z</time>
      </trkpt>
      <trkpt lat="46.23396" lon="4.80736">
        <ele>159.39999389648</ele>
        <time>2017-07-24T12:52:27Z</time>
      </trkpt>
      <trkpt lat="46.2337" lon="4.80711">
        <ele>159.60000610352</ele>
        <time>2017-07-24T12:52:33Z</time>
      </trkpt>
      <trkpt lat="46.23341" lon="4.80677">
        <ele>160</ele>
        <time>2017-07-24T12:52:40Z</time>
      </trkpt>
      <trkpt lat="46.23333" lon="4.80667">
        <ele>160</ele>
        <time>2017-07-24T12:52:42Z</time>
      </trkpt>
      <trkpt lat="46.23313" lon="4.80643">
        <ele>160</ele>
        <time>2017-07-24T12:52:47Z</time>
      </trkpt>
      <trkpt lat="46.23284" lon="4.80611">
        <ele>159.80000305176</ele>
        <time>2017-07-24T12:52:54Z</time>
      </trkpt>
      <trkpt lat="46.23255" lon="4.80577">
        <ele>159.60000610352</ele>
        <time>2017-07-24T12:53:01Z</time>
      </trkpt>
      <trkpt lat="46.23232" lon="4.80547">
        <ele>159.60000610352</ele>
        <time>2017-07-24T12:53:07Z</time>
      </trkpt>
      <trkpt lat="46.23198" lon="4.80506">
        <ele>159.80000305176</ele>
        <time>2017-07-24T12:53:15Z</time>
      </trkpt>
      <trkpt lat="46.23167" lon="4.80471">
        <ele>160.19999694824</ele>
        <time>2017-07-24T12:53:22Z</time>
      </trkpt>
      <trkpt lat="46.23135" lon="4.80434">
        <ele>160.19999694824</ele>
        <time>2017-07-24T12:53:30Z</time>
      </trkpt>
      <trkpt lat="46.231" lon="4.80397">
        <ele>160.39999389648</ele>
        <time>2017-07-24T12:53:38Z</time>
      </trkpt>
      <trkpt lat="46.23065" lon="4.80359">
        <ele>160.39999389648</ele>
        <time>2017-07-24T12:53:46Z</time>
      </trkpt>
      <trkpt lat="46.23043" lon="4.80336">
        <ele>160.80000305176</ele>
        <time>2017-07-24T12:53:51Z</time>
      </trkpt>
      <trkpt lat="46.23003" lon="4.803">
        <ele>160.39999389648</ele>
        <time>2017-07-24T12:54:00Z</time>
      </trkpt>
      <trkpt lat="46.2297" lon="4.80276">
        <ele>160</ele>
        <time>2017-07-24T12:54:08Z</time>
      </trkpt>
      <trkpt lat="46.22964" lon="4.80275">
        <ele>160</ele>
        <time>2017-07-24T12:54:11Z</time>
      </trkpt>
      <trkpt lat="46.22961" lon="4.80272">
        <ele>160</ele>
        <time>2017-07-24T12:54:13Z</time>
      </trkpt>
      <trkpt lat="46.22955" lon="4.80267">
        <ele>160</ele>
        <time>2017-07-24T12:54:16Z</time>
      </trkpt>
      <trkpt lat="46.22949" lon="4.80264">
        <ele>160</ele>
        <time>2017-07-24T12:54:18Z</time>
      </trkpt>
      <trkpt lat="46.22931" lon="4.80252">
        <ele>160.39999389648</ele>
        <time>2017-07-24T12:54:24Z</time>
      </trkpt>
      <trkpt lat="46.22907" lon="4.80236">
        <ele>160.39999389648</ele>
        <time>2017-07-24T12:54:29Z</time>
      </trkpt>
      <trkpt lat="46.22882" lon="4.80215">
        <ele>160.39999389648</ele>
        <time>2017-07-24T12:54:35Z</time>
      </trkpt>
      <trkpt lat="46.22856" lon="4.80195">
        <ele>160.39999389648</ele>
        <time>2017-07-24T12:54:42Z</time>
      </trkpt>
      <trkpt lat="46.22832" lon="4.80177">
        <ele>160.39999389648</ele>
        <time>2017-07-24T12:54:48Z</time>
      </trkpt>
      <trkpt lat="46.22814" lon="4.80164">
        <ele>160.39999389648</ele>
        <time>2017-07-24T12:54:52Z</time>
      </trkpt>
      <trkpt lat="46.22804" lon="4.80156">
        <ele>160.39999389648</ele>
        <time>2017-07-24T12:54:54Z</time>
      </trkpt>
      <trkpt lat="46.22794" lon="4.80151">
        <ele>160.19999694824</ele>
        <time>2017-07-24T12:54:56Z</time>
      </trkpt>
      <trkpt lat="46.22773" lon="4.8014">
        <ele>160.19999694824</ele>
        <time>2017-07-24T12:55:00Z</time>
      </trkpt>
      <trkpt lat="46.2274" lon="4.80118">
        <ele>160</ele>
        <time>2017-07-24T12:55:07Z</time>
      </trkpt>
      <trkpt lat="46.22714" lon="4.80101">
        <ele>160</ele>
        <time>2017-07-24T12:55:13Z</time>
      </trkpt>
      <trkpt lat="46.22685" lon="4.80086">
        <ele>160.19999694824</ele>
        <time>2017-07-24T12:55:19Z</time>
      </trkpt>
      <trkpt lat="46.22648" lon="4.80067">
        <ele>160.19999694824</ele>
        <time>2017-07-24T12:55:27Z</time>
      </trkpt>
      <trkpt lat="46.22621" lon="4.80054">
        <ele>160.19999694824</ele>
        <time>2017-07-24T12:55:33Z</time>
      </trkpt>
      <trkpt lat="46.22611" lon="4.8005">
        <ele>160.39999389648</ele>
        <time>2017-07-24T12:55:35Z</time>
      </trkpt>
      <trkpt lat="46.22587" lon="4.8004">
        <ele>160.80000305176</ele>
        <time>2017-07-24T12:55:40Z</time>
      </trkpt>
      <trkpt lat="46.22583" lon="4.80038">
        <ele>161</ele>
        <time>2017-07-24T12:55:41Z</time>
      </trkpt>
      <trkpt lat="46.22544" lon="4.80024">
        <ele>160.80000305176</ele>
        <time>2017-07-24T12:55:49Z</time>
      </trkpt>
      <trkpt lat="46.22522" lon="4.80015">
        <ele>161</ele>
        <time>2017-07-24T12:55:54Z</time>
      </trkpt>
      <trkpt lat="46.2249" lon="4.80002">
        <ele>161.19999694824</ele>
        <time>2017-07-24T12:56:01Z</time>
      </trkpt>
      <trkpt lat="46.22486" lon="4.8">
        <ele>161.19999694824</ele>
        <time>2017-07-24T12:56:02Z</time>
      </trkpt>
      <trkpt lat="46.22458" lon="4.79988">
        <ele>161</ele>
        <time>2017-07-24T12:56:08Z</time>
      </trkpt>
      <trkpt lat="46.22433" lon="4.79976">
        <ele>161</ele>
        <time>2017-07-24T12:56:13Z</time>
      </trkpt>
      <trkpt lat="46.22429" lon="4.79975">
        <ele>161</ele>
        <time>2017-07-24T12:56:14Z</time>
      </trkpt>
      <trkpt lat="46.22396" lon="4.7996">
        <ele>160.80000305176</ele>
        <time>2017-07-24T12:56:21Z</time>
      </trkpt>
      <trkpt lat="46.22357" lon="4.79941">
        <ele>160.80000305176</ele>
        <time>2017-07-24T12:56:29Z</time>
      </trkpt>
      <trkpt lat="46.22324" lon="4.79923">
        <ele>160.39999389648</ele>
        <time>2017-07-24T12:56:36Z</time>
      </trkpt>
      <trkpt lat="46.22315" lon="4.79917">
        <ele>160.39999389648</ele>
        <time>2017-07-24T12:56:38Z</time>
      </trkpt>
      <trkpt lat="46.22297" lon="4.7991">
        <ele>160.19999694824</ele>
        <time>2017-07-24T12:56:42Z</time>
      </trkpt>
      <trkpt lat="46.22275" lon="4.79899">
        <ele>160.19999694824</ele>
        <time>2017-07-24T12:56:47Z</time>
      </trkpt>
      <trkpt lat="46.22265" lon="4.79898">
        <ele>160.19999694824</ele>
        <time>2017-07-24T12:56:49Z</time>
      </trkpt>
      <trkpt lat="46.22239" lon="4.79887">
        <ele>160</ele>
        <time>2017-07-24T12:56:55Z</time>
      </trkpt>
      <trkpt lat="46.2221" lon="4.79874">
        <ele>160.19999694824</ele>
        <time>2017-07-24T12:57:02Z</time>
      </trkpt>
      <trkpt lat="46.2218" lon="4.79858">
        <ele>160.19999694824</ele>
        <time>2017-07-24T12:57:09Z</time>
      </trkpt>
      <trkpt lat="46.22169" lon="4.79852">
        <ele>160</ele>
        <time>2017-07-24T12:57:12Z</time>
      </trkpt>
      <trkpt lat="46.22164" lon="4.7985">
        <ele>160</ele>
        <time>2017-07-24T12:57:13Z</time>
      </trkpt>
      <trkpt lat="46.22157" lon="4.79844">
        <ele>160</ele>
        <time>2017-07-24T12:57:15Z</time>
      </trkpt>
      <trkpt lat="46.22153" lon="4.7984">
        <ele>160</ele>
        <time>2017-07-24T12:57:16Z</time>
      </trkpt>
      <trkpt lat="46.22148" lon="4.79838">
        <ele>160</ele>
        <time>2017-07-24T12:57:17Z</time>
      </trkpt>
      <trkpt lat="46.22126" lon="4.79828">
        <ele>160.19999694824</ele>
        <time>2017-07-24T12:57:22Z</time>
      </trkpt>
      <trkpt lat="46.221" lon="4.7981">
        <ele>160.19999694824</ele>
        <time>2017-07-24T12:57:28Z</time>
      </trkpt>
      <trkpt lat="46.22075" lon="4.79796">
        <ele>159.80000305176</ele>
        <time>2017-07-24T12:57:34Z</time>
      </trkpt>
      <trkpt lat="46.22071" lon="4.79793">
        <ele>160</ele>
        <time>2017-07-24T12:57:35Z</time>
      </trkpt>
      <trkpt lat="46.22057" lon="4.79782">
        <ele>160.19999694824</ele>
        <time>2017-07-24T12:57:39Z</time>
      </trkpt>
      <trkpt lat="46.22041" lon="4.79769">
        <ele>160.19999694824</ele>
        <time>2017-07-24T12:57:44Z</time>
      </trkpt>
      <trkpt lat="46.22029" lon="4.79762">
        <ele>160.19999694824</ele>
        <time>2017-07-24T12:57:47Z</time>
      </trkpt>
      <trkpt lat="46.22017" lon="4.79756">
        <ele>160.19999694824</ele>
        <time>2017-07-24T12:57:50Z</time>
      </trkpt>
      <trkpt lat="46.22005" lon="4.79748">
        <ele>160.19999694824</ele>
        <time>2017-07-24T12:57:53Z</time>
      </trkpt>
      <trkpt lat="46.21992" lon="4.79738">
        <ele>160.19999694824</ele>
        <time>2017-07-24T12:57:56Z</time>
      </trkpt>
      <trkpt lat="46.21984" lon="4.79734">
        <ele>160.19999694824</ele>
        <time>2017-07-24T12:57:58Z</time>
      </trkpt>
      <trkpt lat="46.21972" lon="4.79729">
        <ele>160.39999389648</ele>
        <time>2017-07-24T12:58:01Z</time>
      </trkpt>
      <trkpt lat="46.21952" lon="4.79712">
        <ele>160.39999389648</ele>
        <time>2017-07-24T12:58:06Z</time>
      </trkpt>
      <trkpt lat="46.21922" lon="4.7969">
        <ele>160.39999389648</ele>
        <time>2017-07-24T12:58:13Z</time>
      </trkpt>
      <trkpt lat="46.21895" lon="4.79672">
        <ele>160.19999694824</ele>
        <time>2017-07-24T12:58:19Z</time>
      </trkpt>
      <trkpt lat="46.21864" lon="4.79654">
        <ele>160</ele>
        <time>2017-07-24T12:58:26Z</time>
      </trkpt>
      <trkpt lat="46.21832" lon="4.79637">
        <ele>160.39999389648</ele>
        <time>2017-07-24T12:58:33Z</time>
      </trkpt>
      <trkpt lat="46.21792" lon="4.7962">
        <ele>160.19999694824</ele>
        <time>2017-07-24T12:58:42Z</time>
      </trkpt>
      <trkpt lat="46.21779" lon="4.79614">
        <ele>160.19999694824</ele>
        <time>2017-07-24T12:58:45Z</time>
      </trkpt>
      <trkpt lat="46.21764" lon="4.79609">
        <ele>160</ele>
        <time>2017-07-24T12:58:48Z</time>
      </trkpt>
      <trkpt lat="46.21751" lon="4.79604">
        <ele>160</ele>
        <time>2017-07-24T12:58:51Z</time>
      </trkpt>
      <trkpt lat="46.21731" lon="4.79596">
        <ele>160.39999389648</ele>
        <time>2017-07-24T12:58:55Z</time>
      </trkpt>
      <trkpt lat="46.21699" lon="4.79586">
        <ele>160.39999389648</ele>
        <time>2017-07-24T12:59:02Z</time>
      </trkpt>
      <trkpt lat="46.21681" lon="4.7958">
        <ele>160.39999389648</ele>
        <time>2017-07-24T12:59:06Z</time>
      </trkpt>
      <trkpt lat="46.21671" lon="4.79576">
        <ele>160.39999389648</ele>
        <time>2017-07-24T12:59:08Z</time>
      </trkpt>
      <trkpt lat="46.21662" lon="4.79573">
        <ele>160.39999389648</ele>
        <time>2017-07-24T12:59:10Z</time>
      </trkpt>
      <trkpt lat="46.21638" lon="4.79563">
        <ele>160.19999694824</ele>
        <time>2017-07-24T12:59:15Z</time>
      </trkpt>
      <trkpt lat="46.21598" lon="4.79551">
        <ele>160.19999694824</ele>
        <time>2017-07-24T12:59:23Z</time>
      </trkpt>
      <trkpt lat="46.21552" lon="4.79537">
        <ele>160</ele>
        <time>2017-07-24T12:59:32Z</time>
      </trkpt>
      <trkpt lat="46.21518" lon="4.79525">
        <ele>160</ele>
        <time>2017-07-24T12:59:39Z</time>
      </trkpt>
      <trkpt lat="46.21473" lon="4.79511">
        <ele>160.39999389648</ele>
        <time>2017-07-24T12:59:48Z</time>
      </trkpt>
      <trkpt lat="46.21444" lon="4.79505">
        <ele>160.39999389648</ele>
        <time>2017-07-24T12:59:54Z</time>
      </trkpt>
      <trkpt lat="46.21435" lon="4.79502">
        <ele>160.19999694824</ele>
        <time>2017-07-24T12:59:56Z</time>
      </trkpt>
      <trkpt lat="46.21402" lon="4.79493">
        <ele>160.19999694824</ele>
        <time>2017-07-24T13:00:03Z</time>
      </trkpt>
      <trkpt lat="46.21392" lon="4.7949">
        <ele>160.19999694824</ele>
        <time>2017-07-24T13:00:05Z</time>
      </trkpt>
      <trkpt lat="46.21373" lon="4.79486">
        <ele>160.39999389648</ele>
        <time>2017-07-24T13:00:09Z</time>
      </trkpt>
      <trkpt lat="46.21329" lon="4.7948">
        <ele>160.19999694824</ele>
        <time>2017-07-24T13:00:18Z</time>
      </trkpt>
      <trkpt lat="46.21314" lon="4.79479">
        <ele>160</ele>
        <time>2017-07-24T13:00:21Z</time>
      </trkpt>
      <trkpt lat="46.21285" lon="4.79476">
        <ele>160.19999694824</ele>
        <time>2017-07-24T13:00:27Z</time>
      </trkpt>
      <trkpt lat="46.21247" lon="4.79472">
        <ele>160</ele>
        <time>2017-07-24T13:00:35Z</time>
      </trkpt>
      <trkpt lat="46.212" lon="4.79467">
        <ele>160.19999694824</ele>
        <time>2017-07-24T13:00:45Z</time>
      </trkpt>
      <trkpt lat="46.21152" lon="4.79462">
        <ele>160.19999694824</ele>
        <time>2017-07-24T13:00:55Z</time>
      </trkpt>
      <trkpt lat="46.21112" lon="4.79458">
        <ele>160</ele>
        <time>2017-07-24T13:01:03Z</time>
      </trkpt>
      <trkpt lat="46.2107" lon="4.79459">
        <ele>159.80000305176</ele>
        <time>2017-07-24T13:01:11Z</time>
      </trkpt>
      <trkpt lat="46.2104" lon="4.79457">
        <ele>159.19999694824</ele>
        <time>2017-07-24T13:01:17Z</time>
      </trkpt>
      <trkpt lat="46.21019" lon="4.79457">
        <ele>159.19999694824</ele>
        <time>2017-07-24T13:01:22Z</time>
      </trkpt>
      <trkpt lat="46.21001" lon="4.79456">
        <ele>159.39999389648</ele>
        <time>2017-07-24T13:01:26Z</time>
      </trkpt>
      <trkpt lat="46.20988" lon="4.79456">
        <ele>159.39999389648</ele>
        <time>2017-07-24T13:01:29Z</time>
      </trkpt>
      <trkpt lat="46.20965" lon="4.79458">
        <ele>159</ele>
        <time>2017-07-24T13:01:34Z</time>
      </trkpt>
      <trkpt lat="46.20961" lon="4.79459">
        <ele>159</ele>
        <time>2017-07-24T13:01:35Z</time>
      </trkpt>
      <trkpt lat="46.20924" lon="4.79463">
        <ele>159.39999389648</ele>
        <time>2017-07-24T13:01:43Z</time>
      </trkpt>
      <trkpt lat="46.20889" lon="4.79465">
        <ele>159.60000610352</ele>
        <time>2017-07-24T13:01:50Z</time>
      </trkpt>
      <trkpt lat="46.20875" lon="4.79466">
        <ele>159.60000610352</ele>
        <time>2017-07-24T13:01:53Z</time>
      </trkpt>
      <trkpt lat="46.20861" lon="4.79469">
        <ele>159.39999389648</ele>
        <time>2017-07-24T13:01:56Z</time>
      </trkpt>
      <trkpt lat="46.20821" lon="4.79478">
        <ele>159.60000610352</ele>
        <time>2017-07-24T13:02:04Z</time>
      </trkpt>
      <trkpt lat="46.20797" lon="4.79481">
        <ele>159.39999389648</ele>
        <time>2017-07-24T13:02:09Z</time>
      </trkpt>
      <trkpt lat="46.20793" lon="4.79482">
        <ele>159.39999389648</ele>
        <time>2017-07-24T13:02:10Z</time>
      </trkpt>
      <trkpt lat="46.20774" lon="4.79486">
        <ele>159.39999389648</ele>
        <time>2017-07-24T13:02:14Z</time>
      </trkpt>
      <trkpt lat="46.2076" lon="4.79489">
        <ele>159.39999389648</ele>
        <time>2017-07-24T13:02:17Z</time>
      </trkpt>
      <trkpt lat="46.2075" lon="4.79491">
        <ele>159.39999389648</ele>
        <time>2017-07-24T13:02:19Z</time>
      </trkpt>
      <trkpt lat="46.20732" lon="4.7949">
        <ele>159.39999389648</ele>
        <time>2017-07-24T13:02:23Z</time>
      </trkpt>
      <trkpt lat="46.20717" lon="4.79487">
        <ele>159</ele>
        <time>2017-07-24T13:02:26Z</time>
      </trkpt>
      <trkpt lat="46.20708" lon="4.79482">
        <ele>159</ele>
        <time>2017-07-24T13:02:28Z</time>
      </trkpt>
      <trkpt lat="46.207" lon="4.79476">
        <ele>158.80000305176</ele>
        <time>2017-07-24T13:02:30Z</time>
      </trkpt>
      <trkpt lat="46.20696" lon="4.79472">
        <ele>158.80000305176</ele>
        <time>2017-07-24T13:02:31Z</time>
      </trkpt>
      <trkpt lat="46.20688" lon="4.79465">
        <ele>158.80000305176</ele>
        <time>2017-07-24T13:02:33Z</time>
      </trkpt>
      <trkpt lat="46.20672" lon="4.79468">
        <ele>158.19999694824</ele>
        <time>2017-07-24T13:02:37Z</time>
      </trkpt>
      <trkpt lat="46.20654" lon="4.79475">
        <ele>158.39999389648</ele>
        <time>2017-07-24T13:02:41Z</time>
      </trkpt>
      <trkpt lat="46.20642" lon="4.79481">
        <ele>158.39999389648</ele>
        <time>2017-07-24T13:02:44Z</time>
      </trkpt>
      <trkpt lat="46.20627" lon="4.79497">
        <ele>158</ele>
        <time>2017-07-24T13:02:49Z</time>
      </trkpt>
      <trkpt lat="46.20624" lon="4.79502">
        <ele>158</ele>
        <time>2017-07-24T13:02:50Z</time>
      </trkpt>
      <trkpt lat="46.20614" lon="4.79515">
        <ele>157.60000610352</ele>
        <time>2017-07-24T13:02:54Z</time>
      </trkpt>
      <trkpt lat="46.20595" lon="4.79526">
        <ele>158</ele>
        <time>2017-07-24T13:02:59Z</time>
      </trkpt>
      <trkpt lat="46.20567" lon="4.79542">
        <ele>158.39999389648</ele>
        <time>2017-07-24T13:03:06Z</time>
      </trkpt>
      <trkpt lat="46.20532" lon="4.7956">
        <ele>158.80000305176</ele>
        <time>2017-07-24T13:03:14Z</time>
      </trkpt>
      <trkpt lat="46.20528" lon="4.79561">
        <ele>158.80000305176</ele>
        <time>2017-07-24T13:03:15Z</time>
      </trkpt>
      <trkpt lat="46.20516" lon="4.79563">
        <ele>158.80000305176</ele>
        <time>2017-07-24T13:03:18Z</time>
      </trkpt>
      <trkpt lat="46.20512" lon="4.79564">
        <ele>159</ele>
        <time>2017-07-24T13:03:19Z</time>
      </trkpt>
      <trkpt lat="46.20492" lon="4.79569">
        <ele>158.80000305176</ele>
        <time>2017-07-24T13:03:24Z</time>
      </trkpt>
      <trkpt lat="46.20472" lon="4.79572">
        <ele>158.39999389648</ele>
        <time>2017-07-24T13:03:29Z</time>
      </trkpt>
      <trkpt lat="46.20468" lon="4.79573">
        <ele>158.39999389648</ele>
        <time>2017-07-24T13:03:30Z</time>
      </trkpt>
      <trkpt lat="46.20446" lon="4.79577">
        <ele>158.39999389648</ele>
        <time>2017-07-24T13:03:35Z</time>
      </trkpt>
      <trkpt lat="46.20436" lon="4.79579">
        <ele>158.60000610352</ele>
        <time>2017-07-24T13:03:37Z</time>
      </trkpt>
      <trkpt lat="46.20423" lon="4.79583">
        <ele>158.80000305176</ele>
        <time>2017-07-24T13:03:40Z</time>
      </trkpt>
      <trkpt lat="46.20396" lon="4.7959">
        <ele>158.80000305176</ele>
        <time>2017-07-24T13:03:46Z</time>
      </trkpt>
      <trkpt lat="46.20386" lon="4.79591">
        <ele>159</ele>
        <time>2017-07-24T13:03:48Z</time>
      </trkpt>
      <trkpt lat="46.20378" lon="4.79591">
        <ele>159</ele>
        <time>2017-07-24T13:03:50Z</time>
      </trkpt>
      <trkpt lat="46.20364" lon="4.7959">
        <ele>159</ele>
        <time>2017-07-24T13:03:53Z</time>
      </trkpt>
      <trkpt lat="46.2036" lon="4.79591">
        <ele>158.80000305176</ele>
        <time>2017-07-24T13:03:54Z</time>
      </trkpt>
      <trkpt lat="46.20347" lon="4.79589">
        <ele>158.39999389648</ele>
        <time>2017-07-24T13:03:57Z</time>
      </trkpt>
      <trkpt lat="46.20338" lon="4.79587">
        <ele>158.19999694824</ele>
        <time>2017-07-24T13:03:59Z</time>
      </trkpt>
      <trkpt lat="46.20334" lon="4.79585">
        <ele>157.80000305176</ele>
        <time>2017-07-24T13:04:00Z</time>
      </trkpt>
      <trkpt lat="46.20307" lon="4.7958">
        <ele>158.60000610352</ele>
        <time>2017-07-24T13:04:06Z</time>
      </trkpt>
      <trkpt lat="46.20271" lon="4.79573">
        <ele>158.39999389648</ele>
        <time>2017-07-24T13:04:14Z</time>
      </trkpt>
      <trkpt lat="46.20246" lon="4.79565">
        <ele>158</ele>
        <time>2017-07-24T13:04:21Z</time>
      </trkpt>
      <trkpt lat="46.20226" lon="4.79556">
        <ele>158</ele>
        <time>2017-07-24T13:04:28Z</time>
      </trkpt>
      <trkpt lat="46.20209" lon="4.79536">
        <ele>158.39999389648</ele>
        <time>2017-07-24T13:04:34Z</time>
      </trkpt>
      <trkpt lat="46.20181" lon="4.79508">
        <ele>158</ele>
        <time>2017-07-24T13:04:43Z</time>
      </trkpt>
      <trkpt lat="46.20173" lon="4.79501">
        <ele>158.60000610352</ele>
        <time>2017-07-24T13:08:20Z</time>
      </trkpt>
      <trkpt lat="46.20167" lon="4.79498">
        <ele>158.60000610352</ele>
        <time>2017-07-24T13:08:23Z</time>
      </trkpt>
      <trkpt lat="46.2015" lon="4.79485">
        <ele>158.39999389648</ele>
        <time>2017-07-24T13:08:29Z</time>
      </trkpt>
      <trkpt lat="46.20131" lon="4.79468">
        <ele>158.19999694824</ele>
        <time>2017-07-24T13:08:35Z</time>
      </trkpt>
      <trkpt lat="46.20107" lon="4.79442">
        <ele>158.39999389648</ele>
        <time>2017-07-24T13:08:42Z</time>
      </trkpt>
      <trkpt lat="46.20084" lon="4.79414">
        <ele>158.39999389648</ele>
        <time>2017-07-24T13:08:49Z</time>
      </trkpt>
      <trkpt lat="46.20063" lon="4.79388">
        <ele>158.39999389648</ele>
        <time>2017-07-24T13:08:56Z</time>
      </trkpt>
      <trkpt lat="46.20059" lon="4.79385">
        <ele>158.39999389648</ele>
        <time>2017-07-24T13:08:57Z</time>
      </trkpt>
      <trkpt lat="46.20037" lon="4.79359">
        <ele>158.39999389648</ele>
        <time>2017-07-24T13:09:04Z</time>
      </trkpt>
      <trkpt lat="46.20009" lon="4.79326">
        <ele>158.39999389648</ele>
        <time>2017-07-24T13:09:13Z</time>
      </trkpt>
      <trkpt lat="46.19983" lon="4.79296">
        <ele>158.60000610352</ele>
        <time>2017-07-24T13:09:22Z</time>
      </trkpt>
      <trkpt lat="46.19967" lon="4.79276">
        <ele>158.19999694824</ele>
        <time>2017-07-24T13:09:28Z</time>
      </trkpt>
      <trkpt lat="46.19953" lon="4.79257">
        <ele>158.60000610352</ele>
        <time>2017-07-24T13:09:34Z</time>
      </trkpt>
      <trkpt lat="46.19934" lon="4.79236">
        <ele>158.19999694824</ele>
        <time>2017-07-24T13:09:41Z</time>
      </trkpt>
      <trkpt lat="46.19914" lon="4.7921">
        <ele>157.80000305176</ele>
        <time>2017-07-24T13:09:48Z</time>
      </trkpt>
      <trkpt lat="46.19895" lon="4.79187">
        <ele>157.60000610352</ele>
        <time>2017-07-24T13:09:54Z</time>
      </trkpt>
      <trkpt lat="46.19878" lon="4.79165">
        <ele>158</ele>
        <time>2017-07-24T13:10:00Z</time>
      </trkpt>
      <trkpt lat="46.19857" lon="4.79142">
        <ele>157.80000305176</ele>
        <time>2017-07-24T13:10:07Z</time>
      </trkpt>
      <trkpt lat="46.19841" lon="4.79123">
        <ele>158</ele>
        <time>2017-07-24T13:10:13Z</time>
      </trkpt>
      <trkpt lat="46.1982" lon="4.79099">
        <ele>157.80000305176</ele>
        <time>2017-07-24T13:10:21Z</time>
      </trkpt>
      <trkpt lat="46.19799" lon="4.79071">
        <ele>157.39999389648</ele>
        <time>2017-07-24T13:10:29Z</time>
      </trkpt>
      <trkpt lat="46.19782" lon="4.7905">
        <ele>157.39999389648</ele>
        <time>2017-07-24T13:10:35Z</time>
      </trkpt>
      <trkpt lat="46.19763" lon="4.79027">
        <ele>157.39999389648</ele>
        <time>2017-07-24T13:10:41Z</time>
      </trkpt>
      <trkpt lat="46.19736" lon="4.78997">
        <ele>157.80000305176</ele>
        <time>2017-07-24T13:10:49Z</time>
      </trkpt>
      <trkpt lat="46.19724" lon="4.78984">
        <ele>157.60000610352</ele>
        <time>2017-07-24T13:10:54Z</time>
      </trkpt>
      <trkpt lat="46.19723" lon="4.78984">
        <ele>157.60000610352</ele>
        <time>2017-07-24T13:10:55Z</time>
      </trkpt>
      <trkpt lat="46.19719" lon="4.7899">
        <ele>157.60000610352</ele>
        <time>2017-07-24T13:10:58Z</time>
      </trkpt>
      <trkpt lat="46.19716" lon="4.78998">
        <ele>158.19999694824</ele>
        <time>2017-07-24T13:11:03Z</time>
      </trkpt>
      <trkpt lat="46.19711" lon="4.79004">
        <ele>158.19999694824</ele>
        <time>2017-07-24T13:11:06Z</time>
      </trkpt>
      <trkpt lat="46.19706" lon="4.7901">
        <ele>158.19999694824</ele>
        <time>2017-07-24T13:11:09Z</time>
      </trkpt>
      <trkpt lat="46.19695" lon="4.79023">
        <ele>157.60000610352</ele>
        <time>2017-07-24T13:11:14Z</time>
      </trkpt>
      <trkpt lat="46.19673" lon="4.79048">
        <ele>157.60000610352</ele>
        <time>2017-07-24T13:11:20Z</time>
      </trkpt>
      <trkpt lat="46.19644" lon="4.7908">
        <ele>157</ele>
        <time>2017-07-24T13:11:27Z</time>
      </trkpt>
      <trkpt lat="46.19636" lon="4.7909">
        <ele>156.80000305176</ele>
        <time>2017-07-24T13:11:29Z</time>
      </trkpt>
      <trkpt lat="46.19616" lon="4.79112">
        <ele>156.39999389648</ele>
        <time>2017-07-24T13:11:34Z</time>
      </trkpt>
      <trkpt lat="46.19573" lon="4.79163">
        <ele>156.39999389648</ele>
        <time>2017-07-24T13:11:45Z</time>
      </trkpt>
      <trkpt lat="46.19543" lon="4.792">
        <ele>156.60000610352</ele>
        <time>2017-07-24T13:11:53Z</time>
      </trkpt>
      <trkpt lat="46.19512" lon="4.79237">
        <ele>157</ele>
        <time>2017-07-24T13:12:01Z</time>
      </trkpt>
      <trkpt lat="46.19479" lon="4.79276">
        <ele>156.80000305176</ele>
        <time>2017-07-24T13:12:10Z</time>
      </trkpt>
      <trkpt lat="46.19446" lon="4.79314">
        <ele>156.80000305176</ele>
        <time>2017-07-24T13:12:18Z</time>
      </trkpt>
      <trkpt lat="46.19421" lon="4.79343">
        <ele>156.80000305176</ele>
        <time>2017-07-24T13:12:24Z</time>
      </trkpt>
      <trkpt lat="46.19382" lon="4.79387">
        <ele>156.39999389648</ele>
        <time>2017-07-24T13:12:33Z</time>
      </trkpt>
      <trkpt lat="46.1935" lon="4.79427">
        <ele>156.80000305176</ele>
        <time>2017-07-24T13:12:41Z</time>
      </trkpt>
      <trkpt lat="46.19332" lon="4.79452">
        <ele>156.60000610352</ele>
        <time>2017-07-24T13:12:46Z</time>
      </trkpt>
      <trkpt lat="46.19325" lon="4.7946">
        <ele>156.60000610352</ele>
        <time>2017-07-24T13:12:48Z</time>
      </trkpt>
      <trkpt lat="46.1931" lon="4.79477">
        <ele>156.60000610352</ele>
        <time>2017-07-24T13:12:52Z</time>
      </trkpt>
      <trkpt lat="46.19299" lon="4.7949">
        <ele>156.80000305176</ele>
        <time>2017-07-24T13:12:55Z</time>
      </trkpt>
      <trkpt lat="46.19263" lon="4.79527">
        <ele>156.80000305176</ele>
        <time>2017-07-24T13:13:04Z</time>
      </trkpt>
      <trkpt lat="46.19233" lon="4.79558">
        <ele>157</ele>
        <time>2017-07-24T13:13:12Z</time>
      </trkpt>
      <trkpt lat="46.19203" lon="4.79593">
        <ele>157.19999694824</ele>
        <time>2017-07-24T13:13:20Z</time>
      </trkpt>
      <trkpt lat="46.1917" lon="4.79631">
        <ele>157.60000610352</ele>
        <time>2017-07-24T13:13:29Z</time>
      </trkpt>
      <trkpt lat="46.19151" lon="4.79651">
        <ele>157.80000305176</ele>
        <time>2017-07-24T13:13:34Z</time>
      </trkpt>
      <trkpt lat="46.19141" lon="4.79664">
        <ele>158</ele>
        <time>2017-07-24T13:13:37Z</time>
      </trkpt>
      <trkpt lat="46.1911" lon="4.79698">
        <ele>158.19999694824</ele>
        <time>2017-07-24T13:13:45Z</time>
      </trkpt>
      <trkpt lat="46.1908" lon="4.7973">
        <ele>158.60000610352</ele>
        <time>2017-07-24T13:13:52Z</time>
      </trkpt>
      <trkpt lat="46.19048" lon="4.79765">
        <ele>158.80000305176</ele>
        <time>2017-07-24T13:13:59Z</time>
      </trkpt>
      <trkpt lat="46.19039" lon="4.79775">
        <ele>158.80000305176</ele>
        <time>2017-07-24T13:14:01Z</time>
      </trkpt>
      <trkpt lat="46.19007" lon="4.79813">
        <ele>159</ele>
        <time>2017-07-24T13:14:08Z</time>
      </trkpt>
      <trkpt lat="46.18968" lon="4.79858">
        <ele>158.60000610352</ele>
        <time>2017-07-24T13:14:16Z</time>
      </trkpt>
      <trkpt lat="46.1893" lon="4.79904">
        <ele>159</ele>
        <time>2017-07-24T13:14:24Z</time>
      </trkpt>
      <trkpt lat="46.18891" lon="4.7995">
        <ele>159</ele>
        <time>2017-07-24T13:14:32Z</time>
      </trkpt>
      <trkpt lat="46.18851" lon="4.79997">
        <ele>158.80000305176</ele>
        <time>2017-07-24T13:14:40Z</time>
      </trkpt>
      <trkpt lat="46.18808" lon="4.80051">
        <ele>159.19999694824</ele>
        <time>2017-07-24T13:14:49Z</time>
      </trkpt>
      <trkpt lat="46.18804" lon="4.80056">
        <ele>159.19999694824</ele>
        <time>2017-07-24T13:14:50Z</time>
      </trkpt>
      <trkpt lat="46.18765" lon="4.80099">
        <ele>159</ele>
        <time>2017-07-24T13:14:58Z</time>
      </trkpt>
      <trkpt lat="46.18727" lon="4.80142">
        <ele>158.60000610352</ele>
        <time>2017-07-24T13:15:06Z</time>
      </trkpt>
      <trkpt lat="46.18689" lon="4.80185">
        <ele>158.80000305176</ele>
        <time>2017-07-24T13:15:14Z</time>
      </trkpt>
      <trkpt lat="46.18645" lon="4.80239">
        <ele>159.19999694824</ele>
        <time>2017-07-24T13:15:24Z</time>
      </trkpt>
      <trkpt lat="46.18605" lon="4.80287">
        <ele>159.39999389648</ele>
        <time>2017-07-24T13:15:33Z</time>
      </trkpt>
      <trkpt lat="46.18576" lon="4.80322">
        <ele>159.60000610352</ele>
        <time>2017-07-24T13:15:39Z</time>
      </trkpt>
      <trkpt lat="46.18553" lon="4.8035">
        <ele>159.80000305176</ele>
        <time>2017-07-24T13:15:44Z</time>
      </trkpt>
      <trkpt lat="46.18534" lon="4.80373">
        <ele>159.80000305176</ele>
        <time>2017-07-24T13:15:48Z</time>
      </trkpt>
      <trkpt lat="46.18498" lon="4.80413">
        <ele>159.80000305176</ele>
        <time>2017-07-24T13:15:56Z</time>
      </trkpt>
      <trkpt lat="46.18468" lon="4.80445">
        <ele>159.39999389648</ele>
        <time>2017-07-24T13:16:03Z</time>
      </trkpt>
      <trkpt lat="46.1844" lon="4.80475">
        <ele>159.60000610352</ele>
        <time>2017-07-24T13:16:10Z</time>
      </trkpt>
      <trkpt lat="46.18412" lon="4.80506">
        <ele>159.60000610352</ele>
        <time>2017-07-24T13:16:17Z</time>
      </trkpt>
      <trkpt lat="46.18395" lon="4.80527">
        <ele>159.80000305176</ele>
        <time>2017-07-24T13:16:21Z</time>
      </trkpt>
      <trkpt lat="46.18386" lon="4.80537">
        <ele>160</ele>
        <time>2017-07-24T13:16:23Z</time>
      </trkpt>
      <trkpt lat="46.18355" lon="4.80574">
        <ele>159.60000610352</ele>
        <time>2017-07-24T13:16:30Z</time>
      </trkpt>
      <trkpt lat="46.1832" lon="4.80614">
        <ele>160.39999389648</ele>
        <time>2017-07-24T13:16:38Z</time>
      </trkpt>
      <trkpt lat="46.18289" lon="4.8065">
        <ele>159.80000305176</ele>
        <time>2017-07-24T13:16:45Z</time>
      </trkpt>
      <trkpt lat="46.18254" lon="4.80701">
        <ele>160.19999694824</ele>
        <time>2017-07-24T13:16:54Z</time>
      </trkpt>
      <trkpt lat="46.18226" lon="4.8075">
        <ele>160.39999389648</ele>
        <time>2017-07-24T13:17:02Z</time>
      </trkpt>
      <trkpt lat="46.18198" lon="4.80799">
        <ele>160.80000305176</ele>
        <time>2017-07-24T13:17:10Z</time>
      </trkpt>
      <trkpt lat="46.18178" lon="4.80837">
        <ele>161</ele>
        <time>2017-07-24T13:17:17Z</time>
      </trkpt>
      <trkpt lat="46.18174" lon="4.80844">
        <ele>160.60000610352</ele>
        <time>2017-07-24T13:17:20Z</time>
      </trkpt>
      <trkpt lat="46.18172" lon="4.80844">
        <ele>160.60000610352</ele>
        <time>2017-07-24T13:17:21Z</time>
      </trkpt>
      <trkpt lat="46.1816" lon="4.80845">
        <ele>160.39999389648</ele>
        <time>2017-07-24T13:17:24Z</time>
      </trkpt>
      <trkpt lat="46.18156" lon="4.80842">
        <ele>160.39999389648</ele>
        <time>2017-07-24T13:17:25Z</time>
      </trkpt>
      <trkpt lat="46.18132" lon="4.80824">
        <ele>160.19999694824</ele>
        <time>2017-07-24T13:17:30Z</time>
      </trkpt>
      <trkpt lat="46.18105" lon="4.80804">
        <ele>160.19999694824</ele>
        <time>2017-07-24T13:17:36Z</time>
      </trkpt>
      <trkpt lat="46.18071" lon="4.80781">
        <ele>160.39999389648</ele>
        <time>2017-07-24T13:17:43Z</time>
      </trkpt>
      <trkpt lat="46.18026" lon="4.80751">
        <ele>160.39999389648</ele>
        <time>2017-07-24T13:17:52Z</time>
      </trkpt>
      <trkpt lat="46.17989" lon="4.80723">
        <ele>160.80000305176</ele>
        <time>2017-07-24T13:17:59Z</time>
      </trkpt>
      <trkpt lat="46.17955" lon="4.80696">
        <ele>160.80000305176</ele>
        <time>2017-07-24T13:18:06Z</time>
      </trkpt>
      <trkpt lat="46.1791" lon="4.80663">
        <ele>160.80000305176</ele>
        <time>2017-07-24T13:18:15Z</time>
      </trkpt>
      <trkpt lat="46.17905" lon="4.80659">
        <ele>160.80000305176</ele>
        <time>2017-07-24T13:18:16Z</time>
      </trkpt>
      <trkpt lat="46.17894" lon="4.80641">
        <ele>160.80000305176</ele>
        <time>2017-07-24T13:18:19Z</time>
      </trkpt>
      <trkpt lat="46.1789" lon="4.80635">
        <ele>160.80000305176</ele>
        <time>2017-07-24T13:18:20Z</time>
      </trkpt>
      <trkpt lat="46.17869" lon="4.80604">
        <ele>161.39999389648</ele>
        <time>2017-07-24T13:18:26Z</time>
      </trkpt>
      <trkpt lat="46.1786" lon="4.80591">
        <ele>162</ele>
        <time>2017-07-24T13:18:29Z</time>
      </trkpt>
      <trkpt lat="46.17851" lon="4.8058">
        <ele>162.60000610352</ele>
        <time>2017-07-24T13:18:32Z</time>
      </trkpt>
      <trkpt lat="46.17846" lon="4.80572">
        <ele>163</ele>
        <time>2017-07-24T13:18:34Z</time>
      </trkpt>
      <trkpt lat="46.1784" lon="4.8056">
        <ele>164.19999694824</ele>
        <time>2017-07-24T13:18:37Z</time>
      </trkpt>
      <trkpt lat="46.17835" lon="4.80553">
        <ele>164.80000305176</ele>
        <time>2017-07-24T13:18:39Z</time>
      </trkpt>
      <trkpt lat="46.17832" lon="4.80549">
        <ele>165.19999694824</ele>
        <time>2017-07-24T13:18:40Z</time>
      </trkpt>
      <trkpt lat="46.17821" lon="4.80537">
        <ele>166.19999694824</ele>
        <time>2017-07-24T13:18:44Z</time>
      </trkpt>
      <trkpt lat="46.17807" lon="4.80522">
        <ele>167.60000610352</ele>
        <time>2017-07-24T13:18:49Z</time>
      </trkpt>
      <trkpt lat="46.17801" lon="4.80518">
        <ele>168</ele>
        <time>2017-07-24T13:18:51Z</time>
      </trkpt>
      <trkpt lat="46.17793" lon="4.80509">
        <ele>168.60000610352</ele>
        <time>2017-07-24T13:18:54Z</time>
      </trkpt>
      <trkpt lat="46.17781" lon="4.80496">
        <ele>169.39999389648</ele>
        <time>2017-07-24T13:18:58Z</time>
      </trkpt>
      <trkpt lat="46.17769" lon="4.80482">
        <ele>169.80000305176</ele>
        <time>2017-07-24T13:19:02Z</time>
      </trkpt>
      <trkpt lat="46.1776" lon="4.80475">
        <ele>169.80000305176</ele>
        <time>2017-07-24T13:19:04Z</time>
      </trkpt>
      <trkpt lat="46.17723" lon="4.80447">
        <ele>169</ele>
        <time>2017-07-24T13:19:12Z</time>
      </trkpt>
      <trkpt lat="46.17715" lon="4.80441">
        <ele>168.60000610352</ele>
        <time>2017-07-24T13:19:14Z</time>
      </trkpt>
      <trkpt lat="46.17696" lon="4.80431">
        <ele>168.39999389648</ele>
        <time>2017-07-24T13:19:18Z</time>
      </trkpt>
      <trkpt lat="46.1767" lon="4.80425">
        <ele>167.60000610352</ele>
        <time>2017-07-24T13:19:23Z</time>
      </trkpt>
      <trkpt lat="46.17664" lon="4.80424">
        <ele>167.39999389648</ele>
        <time>2017-07-24T13:19:24Z</time>
      </trkpt>
      <trkpt lat="46.1763" lon="4.80418">
        <ele>166.60000610352</ele>
        <time>2017-07-24T13:19:30Z</time>
      </trkpt>
      <trkpt lat="46.17612" lon="4.80415">
        <ele>166.60000610352</ele>
        <time>2017-07-24T13:19:33Z</time>
      </trkpt>
      <trkpt lat="46.1757" lon="4.80405">
        <ele>165.80000305176</ele>
        <time>2017-07-24T13:19:41Z</time>
      </trkpt>
      <trkpt lat="46.17562" lon="4.80402">
        <ele>165.60000610352</ele>
        <time>2017-07-24T13:19:43Z</time>
      </trkpt>
      <trkpt lat="46.17543" lon="4.80398">
        <ele>165.19999694824</ele>
        <time>2017-07-24T13:19:47Z</time>
      </trkpt>
      <trkpt lat="46.17511" lon="4.80395">
        <ele>165</ele>
        <time>2017-07-24T13:19:53Z</time>
      </trkpt>
      <trkpt lat="46.17493" lon="4.80399">
        <ele>164.80000305176</ele>
        <time>2017-07-24T13:19:56Z</time>
      </trkpt>
      <trkpt lat="46.17482" lon="4.80407">
        <ele>164.60000610352</ele>
        <time>2017-07-24T13:19:58Z</time>
      </trkpt>
      <trkpt lat="46.17471" lon="4.80418">
        <ele>164.60000610352</ele>
        <time>2017-07-24T13:20:00Z</time>
      </trkpt>
      <trkpt lat="46.17462" lon="4.80431">
        <ele>164.19999694824</ele>
        <time>2017-07-24T13:20:02Z</time>
      </trkpt>
      <trkpt lat="46.17436" lon="4.8047">
        <ele>163.80000305176</ele>
        <time>2017-07-24T13:20:08Z</time>
      </trkpt>
      <trkpt lat="46.17419" lon="4.80491">
        <ele>163.39999389648</ele>
        <time>2017-07-24T13:20:12Z</time>
      </trkpt>
      <trkpt lat="46.17409" lon="4.805">
        <ele>162.80000305176</ele>
        <time>2017-07-24T13:20:14Z</time>
      </trkpt>
      <trkpt lat="46.17396" lon="4.80514">
        <ele>162.19999694824</ele>
        <time>2017-07-24T13:20:17Z</time>
      </trkpt>
      <trkpt lat="46.17383" lon="4.80522">
        <ele>161.80000305176</ele>
        <time>2017-07-24T13:20:20Z</time>
      </trkpt>
      <trkpt lat="46.17379" lon="4.80521">
        <ele>161.60000610352</ele>
        <time>2017-07-24T13:20:21Z</time>
      </trkpt>
      <trkpt lat="46.17372" lon="4.80512">
        <ele>161.19999694824</ele>
        <time>2017-07-24T13:20:23Z</time>
      </trkpt>
      <trkpt lat="46.17369" lon="4.80507">
        <ele>161.19999694824</ele>
        <time>2017-07-24T13:20:24Z</time>
      </trkpt>
      <trkpt lat="46.17367" lon="4.80501">
        <ele>161.19999694824</ele>
        <time>2017-07-24T13:20:25Z</time>
      </trkpt>
      <trkpt lat="46.17364" lon="4.80496">
        <ele>161.19999694824</ele>
        <time>2017-07-24T13:20:26Z</time>
      </trkpt>
      <trkpt lat="46.17358" lon="4.80486">
        <ele>161.19999694824</ele>
        <time>2017-07-24T13:20:28Z</time>
      </trkpt>
      <trkpt lat="46.1734" lon="4.80455">
        <ele>161.39999389648</ele>
        <time>2017-07-24T13:20:34Z</time>
      </trkpt>
      <trkpt lat="46.17337" lon="4.8045">
        <ele>161.39999389648</ele>
        <time>2017-07-24T13:20:35Z</time>
      </trkpt>
      <trkpt lat="46.17334" lon="4.80445">
        <ele>161.39999389648</ele>
        <time>2017-07-24T13:20:36Z</time>
      </trkpt>
      <trkpt lat="46.17315" lon="4.80414">
        <ele>161.39999389648</ele>
        <time>2017-07-24T13:20:42Z</time>
      </trkpt>
      <trkpt lat="46.17292" lon="4.80372">
        <ele>161</ele>
        <time>2017-07-24T13:20:50Z</time>
      </trkpt>
      <trkpt lat="46.17279" lon="4.80352">
        <ele>161</ele>
        <time>2017-07-24T13:20:55Z</time>
      </trkpt>
      <trkpt lat="46.17276" lon="4.80349">
        <ele>160.80000305176</ele>
        <time>2017-07-24T13:20:58Z</time>
      </trkpt>
      <trkpt lat="46.17274" lon="4.80347">
        <ele>160.80000305176</ele>
        <time>2017-07-24T13:21:01Z</time>
      </trkpt>
      <trkpt lat="46.17273" lon="4.80343">
        <ele>160.60000610352</ele>
        <time>2017-07-24T13:21:03Z</time>
      </trkpt>
      <trkpt lat="46.17266" lon="4.80326">
        <ele>160.60000610352</ele>
        <time>2017-07-24T13:21:08Z</time>
      </trkpt>
      <trkpt lat="46.17252" lon="4.80298">
        <ele>160.60000610352</ele>
        <time>2017-07-24T13:21:14Z</time>
      </trkpt>
      <trkpt lat="46.17241" lon="4.80258">
        <ele>161</ele>
        <time>2017-07-24T13:21:20Z</time>
      </trkpt>
      <trkpt lat="46.17234" lon="4.80209">
        <ele>160.80000305176</ele>
        <time>2017-07-24T13:21:27Z</time>
      </trkpt>
      <trkpt lat="46.17229" lon="4.80185">
        <ele>161.19999694824</ele>
        <time>2017-07-24T13:21:31Z</time>
      </trkpt>
      <trkpt lat="46.17226" lon="4.80182">
        <ele>161.19999694824</ele>
        <time>2017-07-24T13:21:32Z</time>
      </trkpt>
      <trkpt lat="46.17215" lon="4.80184">
        <ele>161</ele>
        <time>2017-07-24T13:21:35Z</time>
      </trkpt>
      <trkpt lat="46.1721" lon="4.80186">
        <ele>161</ele>
        <time>2017-07-24T13:21:36Z</time>
      </trkpt>
      <trkpt lat="46.17189" lon="4.80194">
        <ele>160.60000610352</ele>
        <time>2017-07-24T13:21:40Z</time>
      </trkpt>
      <trkpt lat="46.17163" lon="4.80203">
        <ele>160.19999694824</ele>
        <time>2017-07-24T13:21:45Z</time>
      </trkpt>
      <trkpt lat="46.17159" lon="4.80206">
        <ele>160</ele>
        <time>2017-07-24T13:21:46Z</time>
      </trkpt>
      <trkpt lat="46.17155" lon="4.8021">
        <ele>160</ele>
        <time>2017-07-24T13:21:47Z</time>
      </trkpt>
      <trkpt lat="46.17154" lon="4.80229">
        <ele>160</ele>
        <time>2017-07-24T13:21:50Z</time>
      </trkpt>
      <trkpt lat="46.17156" lon="4.80235">
        <ele>160</ele>
        <time>2017-07-24T13:21:51Z</time>
      </trkpt>
      <trkpt lat="46.17163" lon="4.80272">
        <ele>159.80000305176</ele>
        <time>2017-07-24T13:21:57Z</time>
      </trkpt>
      <trkpt lat="46.17173" lon="4.80321">
        <ele>159.60000610352</ele>
        <time>2017-07-24T13:22:04Z</time>
      </trkpt>
      <trkpt lat="46.17188" lon="4.8037">
        <ele>159.60000610352</ele>
        <time>2017-07-24T13:22:11Z</time>
      </trkpt>
      <trkpt lat="46.17198" lon="4.80401">
        <ele>159.60000610352</ele>
        <time>2017-07-24T13:22:16Z</time>
      </trkpt>
      <trkpt lat="46.17202" lon="4.80412">
        <ele>159.60000610352</ele>
        <time>2017-07-24T13:22:18Z</time>
      </trkpt>
      <trkpt lat="46.17204" lon="4.80434">
        <ele>159.39999389648</ele>
        <time>2017-07-24T13:22:22Z</time>
      </trkpt>
      <trkpt lat="46.17202" lon="4.8044">
        <ele>159.39999389648</ele>
        <time>2017-07-24T13:22:23Z</time>
      </trkpt>
      <trkpt lat="46.17189" lon="4.80455">
        <ele>159.39999389648</ele>
        <time>2017-07-24T13:22:28Z</time>
      </trkpt>
      <trkpt lat="46.1718" lon="4.8046">
        <ele>159.39999389648</ele>
        <time>2017-07-24T13:22:30Z</time>
      </trkpt>
      <trkpt lat="46.17164" lon="4.80472">
        <ele>159.39999389648</ele>
        <time>2017-07-24T13:22:34Z</time>
      </trkpt>
      <trkpt lat="46.17148" lon="4.80482">
        <ele>159.80000305176</ele>
        <time>2017-07-24T13:22:39Z</time>
      </trkpt>
      <trkpt lat="46.17142" lon="4.80483">
        <ele>160</ele>
        <time>2017-07-24T13:22:44Z</time>
      </trkpt>
      <trkpt lat="46.17139" lon="4.80474">
        <ele>159.80000305176</ele>
        <time>2017-07-24T13:22:49Z</time>
      </trkpt>
      <trkpt lat="46.17141" lon="4.8047">
        <ele>159.19999694824</ele>
        <time>2017-07-24T13:23:26Z</time>
      </trkpt>
      <trkpt lat="46.17143" lon="4.80481">
        <ele>159.19999694824</ele>
        <time>2017-07-24T13:23:31Z</time>
      </trkpt>
      <trkpt lat="46.17144" lon="4.80484">
        <ele>159.19999694824</ele>
        <time>2017-07-24T13:23:32Z</time>
      </trkpt>
      <trkpt lat="46.17143" lon="4.80487">
        <ele>159.19999694824</ele>
        <time>2017-07-24T13:23:33Z</time>
      </trkpt>
      <trkpt lat="46.17139" lon="4.80498">
        <ele>159.39999389648</ele>
        <time>2017-07-24T13:23:36Z</time>
      </trkpt>
      <trkpt lat="46.17128" lon="4.80515">
        <ele>159.39999389648</ele>
        <time>2017-07-24T13:23:40Z</time>
      </trkpt>
      <trkpt lat="46.17121" lon="4.80529">
        <ele>159.39999389648</ele>
        <time>2017-07-24T13:23:43Z</time>
      </trkpt>
      <trkpt lat="46.17116" lon="4.80539">
        <ele>159.19999694824</ele>
        <time>2017-07-24T13:23:45Z</time>
      </trkpt>
      <trkpt lat="46.17103" lon="4.80559">
        <ele>159.19999694824</ele>
        <time>2017-07-24T13:23:49Z</time>
      </trkpt>
      <trkpt lat="46.17074" lon="4.80611">
        <ele>158.80000305176</ele>
        <time>2017-07-24T13:23:58Z</time>
      </trkpt>
      <trkpt lat="46.17055" lon="4.80643">
        <ele>158.60000610352</ele>
        <time>2017-07-24T13:24:04Z</time>
      </trkpt>
      <trkpt lat="46.17031" lon="4.80689">
        <ele>158.19999694824</ele>
        <time>2017-07-24T13:24:12Z</time>
      </trkpt>
      <trkpt lat="46.17007" lon="4.80732">
        <ele>158.19999694824</ele>
        <time>2017-07-24T13:24:19Z</time>
      </trkpt>
      <trkpt lat="46.16981" lon="4.80779">
        <ele>158.39999389648</ele>
        <time>2017-07-24T13:24:27Z</time>
      </trkpt>
      <trkpt lat="46.1695" lon="4.80833">
        <ele>158.39999389648</ele>
        <time>2017-07-24T13:24:36Z</time>
      </trkpt>
      <trkpt lat="46.1693" lon="4.80886">
        <ele>158.39999389648</ele>
        <time>2017-07-24T13:24:44Z</time>
      </trkpt>
      <trkpt lat="46.16906" lon="4.80957">
        <ele>158.39999389648</ele>
        <time>2017-07-24T13:24:54Z</time>
      </trkpt>
      <trkpt lat="46.16904" lon="4.80964">
        <ele>158.39999389648</ele>
        <time>2017-07-24T13:24:55Z</time>
      </trkpt>
      <trkpt lat="46.16894" lon="4.81003">
        <ele>158.39999389648</ele>
        <time>2017-07-24T13:25:00Z</time>
      </trkpt>
      <trkpt lat="46.16877" lon="4.81079">
        <ele>158.60000610352</ele>
        <time>2017-07-24T13:25:09Z</time>
      </trkpt>
      <trkpt lat="46.16858" lon="4.81137">
        <ele>158.60000610352</ele>
        <time>2017-07-24T13:25:16Z</time>
      </trkpt>
      <trkpt lat="46.16829" lon="4.81186">
        <ele>158.60000610352</ele>
        <time>2017-07-24T13:25:23Z</time>
      </trkpt>
      <trkpt lat="46.16784" lon="4.8124">
        <ele>158.39999389648</ele>
        <time>2017-07-24T13:25:32Z</time>
      </trkpt>
      <trkpt lat="46.16741" lon="4.8129">
        <ele>158.60000610352</ele>
        <time>2017-07-24T13:25:41Z</time>
      </trkpt>
      <trkpt lat="46.16698" lon="4.81331">
        <ele>158.60000610352</ele>
        <time>2017-07-24T13:25:50Z</time>
      </trkpt>
      <trkpt lat="46.16659" lon="4.81357">
        <ele>158.80000305176</ele>
        <time>2017-07-24T13:25:58Z</time>
      </trkpt>
      <trkpt lat="46.16607" lon="4.81393">
        <ele>159.19999694824</ele>
        <time>2017-07-24T13:26:09Z</time>
      </trkpt>
      <trkpt lat="46.1656" lon="4.81435">
        <ele>159.39999389648</ele>
        <time>2017-07-24T13:26:19Z</time>
      </trkpt>
      <trkpt lat="46.16512" lon="4.81481">
        <ele>159.60000610352</ele>
        <time>2017-07-24T13:26:29Z</time>
      </trkpt>
      <trkpt lat="46.16479" lon="4.81513">
        <ele>160.19999694824</ele>
        <time>2017-07-24T13:26:36Z</time>
      </trkpt>
      <trkpt lat="46.16432" lon="4.81557">
        <ele>160.60000610352</ele>
        <time>2017-07-24T13:26:46Z</time>
      </trkpt>
      <trkpt lat="46.16418" lon="4.81569">
        <ele>161</ele>
        <time>2017-07-24T13:26:49Z</time>
      </trkpt>
      <trkpt lat="46.16405" lon="4.81581">
        <ele>161.19999694824</ele>
        <time>2017-07-24T13:26:52Z</time>
      </trkpt>
      <trkpt lat="46.164" lon="4.81584">
        <ele>161.19999694824</ele>
        <time>2017-07-24T13:26:53Z</time>
      </trkpt>
      <trkpt lat="46.1639" lon="4.8159">
        <ele>161.39999389648</ele>
        <time>2017-07-24T13:26:55Z</time>
      </trkpt>
      <trkpt lat="46.16386" lon="4.81593">
        <ele>161.39999389648</ele>
        <time>2017-07-24T13:26:56Z</time>
      </trkpt>
      <trkpt lat="46.1637" lon="4.81592">
        <ele>161.39999389648</ele>
        <time>2017-07-24T13:26:59Z</time>
      </trkpt>
      <trkpt lat="46.16354" lon="4.81583">
        <ele>161.39999389648</ele>
        <time>2017-07-24T13:27:02Z</time>
      </trkpt>
      <trkpt lat="46.16349" lon="4.81581">
        <ele>161.39999389648</ele>
        <time>2017-07-24T13:27:03Z</time>
      </trkpt>
      <trkpt lat="46.16301" lon="4.81563">
        <ele>161.39999389648</ele>
        <time>2017-07-24T13:27:11Z</time>
      </trkpt>
      <trkpt lat="46.16246" lon="4.81553">
        <ele>161.19999694824</ele>
        <time>2017-07-24T13:27:20Z</time>
      </trkpt>
      <trkpt lat="46.16203" lon="4.81545">
        <ele>160.80000305176</ele>
        <time>2017-07-24T13:27:27Z</time>
      </trkpt>
      <trkpt lat="46.16186" lon="4.81544">
        <ele>160.60000610352</ele>
        <time>2017-07-24T13:27:30Z</time>
      </trkpt>
      <trkpt lat="46.16169" lon="4.81544">
        <ele>160.19999694824</ele>
        <time>2017-07-24T13:27:33Z</time>
      </trkpt>
      <trkpt lat="46.16163" lon="4.81545">
        <ele>160.19999694824</ele>
        <time>2017-07-24T13:27:34Z</time>
      </trkpt>
      <trkpt lat="46.16127" lon="4.81555">
        <ele>160</ele>
        <time>2017-07-24T13:27:40Z</time>
      </trkpt>
      <trkpt lat="46.16074" lon="4.81578">
        <ele>160</ele>
        <time>2017-07-24T13:27:49Z</time>
      </trkpt>
      <trkpt lat="46.16037" lon="4.81597">
        <ele>160</ele>
        <time>2017-07-24T13:27:56Z</time>
      </trkpt>
      <trkpt lat="46.15994" lon="4.81619">
        <ele>160.19999694824</ele>
        <time>2017-07-24T13:28:04Z</time>
      </trkpt>
      <trkpt lat="46.15954" lon="4.81628">
        <ele>160.39999389648</ele>
        <time>2017-07-24T13:28:11Z</time>
      </trkpt>
      <trkpt lat="46.15909" lon="4.81637">
        <ele>160.80000305176</ele>
        <time>2017-07-24T13:28:19Z</time>
      </trkpt>
      <trkpt lat="46.1589" lon="4.81645">
        <ele>161.19999694824</ele>
        <time>2017-07-24T13:28:23Z</time>
      </trkpt>
      <trkpt lat="46.15885" lon="4.81647">
        <ele>161.19999694824</ele>
        <time>2017-07-24T13:28:24Z</time>
      </trkpt>
      <trkpt lat="46.1588" lon="4.81649">
        <ele>161.39999389648</ele>
        <time>2017-07-24T13:28:25Z</time>
      </trkpt>
      <trkpt lat="46.15845" lon="4.81664">
        <ele>162</ele>
        <time>2017-07-24T13:28:32Z</time>
      </trkpt>
      <trkpt lat="46.15815" lon="4.8167">
        <ele>162.19999694824</ele>
        <time>2017-07-24T13:28:38Z</time>
      </trkpt>
      <trkpt lat="46.15804" lon="4.81671">
        <ele>162.39999389648</ele>
        <time>2017-07-24T13:28:40Z</time>
      </trkpt>
      <trkpt lat="46.15774" lon="4.81675">
        <ele>162.60000610352</ele>
        <time>2017-07-24T13:28:46Z</time>
      </trkpt>
      <trkpt lat="46.1573" lon="4.81678">
        <ele>163.19999694824</ele>
        <time>2017-07-24T13:28:55Z</time>
      </trkpt>
      <trkpt lat="46.1572" lon="4.81679">
        <ele>163.39999389648</ele>
        <time>2017-07-24T13:28:57Z</time>
      </trkpt>
      <trkpt lat="46.15694" lon="4.81679">
        <ele>163.39999389648</ele>
        <time>2017-07-24T13:29:02Z</time>
      </trkpt>
      <trkpt lat="46.15652" lon="4.81674">
        <ele>163.39999389648</ele>
        <time>2017-07-24T13:29:10Z</time>
      </trkpt>
      <trkpt lat="46.15614" lon="4.81662">
        <ele>163</ele>
        <time>2017-07-24T13:29:17Z</time>
      </trkpt>
      <trkpt lat="46.15572" lon="4.81642">
        <ele>162.80000305176</ele>
        <time>2017-07-24T13:29:25Z</time>
      </trkpt>
      <trkpt lat="46.15525" lon="4.81614">
        <ele>163</ele>
        <time>2017-07-24T13:29:34Z</time>
      </trkpt>
      <trkpt lat="46.15489" lon="4.81598">
        <ele>162.80000305176</ele>
        <time>2017-07-24T13:29:41Z</time>
      </trkpt>
      <trkpt lat="46.1544" lon="4.81584">
        <ele>162.39999389648</ele>
        <time>2017-07-24T13:29:50Z</time>
      </trkpt>
      <trkpt lat="46.15404" lon="4.81566">
        <ele>162.60000610352</ele>
        <time>2017-07-24T13:29:57Z</time>
      </trkpt>
      <trkpt lat="46.15357" lon="4.8153">
        <ele>162.39999389648</ele>
        <time>2017-07-24T13:30:06Z</time>
      </trkpt>
      <trkpt lat="46.15319" lon="4.81496">
        <ele>162.39999389648</ele>
        <time>2017-07-24T13:30:14Z</time>
      </trkpt>
      <trkpt lat="46.15296" lon="4.81479">
        <ele>162.60000610352</ele>
        <time>2017-07-24T13:30:19Z</time>
      </trkpt>
      <trkpt lat="46.15287" lon="4.81471">
        <ele>162.60000610352</ele>
        <time>2017-07-24T13:30:21Z</time>
      </trkpt>
      <trkpt lat="46.15246" lon="4.81435">
        <ele>162.60000610352</ele>
        <time>2017-07-24T13:30:29Z</time>
      </trkpt>
      <trkpt lat="46.1521" lon="4.81404">
        <ele>162.60000610352</ele>
        <time>2017-07-24T13:30:36Z</time>
      </trkpt>
      <trkpt lat="46.15168" lon="4.81369">
        <ele>162</ele>
        <time>2017-07-24T13:30:43Z</time>
      </trkpt>
      <trkpt lat="46.15133" lon="4.81334">
        <ele>161.60000610352</ele>
        <time>2017-07-24T13:30:49Z</time>
      </trkpt>
      <trkpt lat="46.15115" lon="4.81314">
        <ele>161.19999694824</ele>
        <time>2017-07-24T13:30:52Z</time>
      </trkpt>
      <trkpt lat="46.15086" lon="4.81278">
        <ele>160.80000305176</ele>
        <time>2017-07-24T13:30:57Z</time>
      </trkpt>
      <trkpt lat="46.15045" lon="4.81225">
        <ele>160.19999694824</ele>
        <time>2017-07-24T13:31:04Z</time>
      </trkpt>
      <trkpt lat="46.15039" lon="4.81218">
        <ele>160.19999694824</ele>
        <time>2017-07-24T13:31:05Z</time>
      </trkpt>
      <trkpt lat="46.15033" lon="4.81211">
        <ele>160</ele>
        <time>2017-07-24T13:31:06Z</time>
      </trkpt>
      <trkpt lat="46.14989" lon="4.81161">
        <ele>159.80000305176</ele>
        <time>2017-07-24T13:31:13Z</time>
      </trkpt>
      <trkpt lat="46.14946" lon="4.81121">
        <ele>159.80000305176</ele>
        <time>2017-07-24T13:31:20Z</time>
      </trkpt>
      <trkpt lat="46.14896" lon="4.8108">
        <ele>159.60000610352</ele>
        <time>2017-07-24T13:31:29Z</time>
      </trkpt>
      <trkpt lat="46.14855" lon="4.81055">
        <ele>159.60000610352</ele>
        <time>2017-07-24T13:31:36Z</time>
      </trkpt>
      <trkpt lat="46.14801" lon="4.81022">
        <ele>159.39999389648</ele>
        <time>2017-07-24T13:31:45Z</time>
      </trkpt>
      <trkpt lat="46.14755" lon="4.80994">
        <ele>159.39999389648</ele>
        <time>2017-07-24T13:31:53Z</time>
      </trkpt>
      <trkpt lat="46.14704" lon="4.80963">
        <ele>159.60000610352</ele>
        <time>2017-07-24T13:32:02Z</time>
      </trkpt>
      <trkpt lat="46.14699" lon="4.80961">
        <ele>159.60000610352</ele>
        <time>2017-07-24T13:32:03Z</time>
      </trkpt>
      <trkpt lat="46.14659" lon="4.80948">
        <ele>159.80000305176</ele>
        <time>2017-07-24T13:32:10Z</time>
      </trkpt>
      <trkpt lat="46.14619" lon="4.80937">
        <ele>159.80000305176</ele>
        <time>2017-07-24T13:32:17Z</time>
      </trkpt>
      <trkpt lat="46.14578" lon="4.80919">
        <ele>160.39999389648</ele>
        <time>2017-07-24T13:32:25Z</time>
      </trkpt>
      <trkpt lat="46.14544" lon="4.80902">
        <ele>161.19999694824</ele>
        <time>2017-07-24T13:32:32Z</time>
      </trkpt>
      <trkpt lat="46.1453" lon="4.80894">
        <ele>161.39999389648</ele>
        <time>2017-07-24T13:32:35Z</time>
      </trkpt>
      <trkpt lat="46.14496" lon="4.80877">
        <ele>162.19999694824</ele>
        <time>2017-07-24T13:32:42Z</time>
      </trkpt>
      <trkpt lat="46.14482" lon="4.8087">
        <ele>162.39999389648</ele>
        <time>2017-07-24T13:32:45Z</time>
      </trkpt>
      <trkpt lat="46.14448" lon="4.80851">
        <ele>163</ele>
        <time>2017-07-24T13:32:53Z</time>
      </trkpt>
      <trkpt lat="46.14439" lon="4.80846">
        <ele>163.19999694824</ele>
        <time>2017-07-24T13:32:55Z</time>
      </trkpt>
      <trkpt lat="46.144" lon="4.80825">
        <ele>163.80000305176</ele>
        <time>2017-07-24T13:33:04Z</time>
      </trkpt>
      <trkpt lat="46.14373" lon="4.80812">
        <ele>164.19999694824</ele>
        <time>2017-07-24T13:33:10Z</time>
      </trkpt>
      <trkpt lat="46.14359" lon="4.80805">
        <ele>164.19999694824</ele>
        <time>2017-07-24T13:33:13Z</time>
      </trkpt>
      <trkpt lat="46.1432" lon="4.80787">
        <ele>165.19999694824</ele>
        <time>2017-07-24T13:33:22Z</time>
      </trkpt>
      <trkpt lat="46.14316" lon="4.80785">
        <ele>165.39999389648</ele>
        <time>2017-07-24T13:33:23Z</time>
      </trkpt>
      <trkpt lat="46.14287" lon="4.80771">
        <ele>166.39999389648</ele>
        <time>2017-07-24T13:33:30Z</time>
      </trkpt>
      <trkpt lat="46.14275" lon="4.80767">
        <ele>166.80000305176</ele>
        <time>2017-07-24T13:33:33Z</time>
      </trkpt>
      <trkpt lat="46.14249" lon="4.80757">
        <ele>167.39999389648</ele>
        <time>2017-07-24T13:33:39Z</time>
      </trkpt>
      <trkpt lat="46.14231" lon="4.80751">
        <ele>167.80000305176</ele>
        <time>2017-07-24T13:33:43Z</time>
      </trkpt>
      <trkpt lat="46.14198" lon="4.80741">
        <ele>168.39999389648</ele>
        <time>2017-07-24T13:33:50Z</time>
      </trkpt>
      <trkpt lat="46.14185" lon="4.80735">
        <ele>168.60000610352</ele>
        <time>2017-07-24T13:33:53Z</time>
      </trkpt>
      <trkpt lat="46.14153" lon="4.8072">
        <ele>169.39999389648</ele>
        <time>2017-07-24T13:34:00Z</time>
      </trkpt>
      <trkpt lat="46.14148" lon="4.80718">
        <ele>169.39999389648</ele>
        <time>2017-07-24T13:34:01Z</time>
      </trkpt>
      <trkpt lat="46.14115" lon="4.80704">
        <ele>170.19999694824</ele>
        <time>2017-07-24T13:34:08Z</time>
      </trkpt>
      <trkpt lat="46.14105" lon="4.80699">
        <ele>170.60000610352</ele>
        <time>2017-07-24T13:34:10Z</time>
      </trkpt>
      <trkpt lat="46.14091" lon="4.80692">
        <ele>170.80000305176</ele>
        <time>2017-07-24T13:34:13Z</time>
      </trkpt>
      <trkpt lat="46.14081" lon="4.80686">
        <ele>170.80000305176</ele>
        <time>2017-07-24T13:34:15Z</time>
      </trkpt>
      <trkpt lat="46.14034" lon="4.80665">
        <ele>171</ele>
        <time>2017-07-24T13:34:24Z</time>
      </trkpt>
      <trkpt lat="46.13992" lon="4.80645">
        <ele>170.80000305176</ele>
        <time>2017-07-24T13:34:32Z</time>
      </trkpt>
      <trkpt lat="46.13947" lon="4.80622">
        <ele>170.60000610352</ele>
        <time>2017-07-24T13:34:40Z</time>
      </trkpt>
      <trkpt lat="46.13902" lon="4.80589">
        <ele>170.19999694824</ele>
        <time>2017-07-24T13:34:48Z</time>
      </trkpt>
      <trkpt lat="46.1388" lon="4.80569">
        <ele>169.60000610352</ele>
        <time>2017-07-24T13:34:52Z</time>
      </trkpt>
      <trkpt lat="46.1386" lon="4.80547">
        <ele>168.80000305176</ele>
        <time>2017-07-24T13:34:56Z</time>
      </trkpt>
      <trkpt lat="46.13845" lon="4.8053">
        <ele>168.39999389648</ele>
        <time>2017-07-24T13:34:59Z</time>
      </trkpt>
      <trkpt lat="46.13827" lon="4.80508">
        <ele>167.80000305176</ele>
        <time>2017-07-24T13:35:03Z</time>
      </trkpt>
      <trkpt lat="46.13822" lon="4.80502">
        <ele>167.60000610352</ele>
        <time>2017-07-24T13:35:04Z</time>
      </trkpt>
      <trkpt lat="46.13813" lon="4.8049">
        <ele>167.39999389648</ele>
        <time>2017-07-24T13:35:06Z</time>
      </trkpt>
      <trkpt lat="46.13798" lon="4.80473">
        <ele>167.19999694824</ele>
        <time>2017-07-24T13:35:09Z</time>
      </trkpt>
      <trkpt lat="46.1377" lon="4.80435">
        <ele>166.39999389648</ele>
        <time>2017-07-24T13:35:15Z</time>
      </trkpt>
      <trkpt lat="46.13759" lon="4.80422">
        <ele>166.19999694824</ele>
        <time>2017-07-24T13:35:17Z</time>
      </trkpt>
      <trkpt lat="46.13727" lon="4.80382">
        <ele>165.19999694824</ele>
        <time>2017-07-24T13:35:23Z</time>
      </trkpt>
      <trkpt lat="46.13707" lon="4.80359">
        <ele>164.60000610352</ele>
        <time>2017-07-24T13:35:27Z</time>
      </trkpt>
      <trkpt lat="46.13668" lon="4.80315">
        <ele>164.39999389648</ele>
        <time>2017-07-24T13:35:35Z</time>
      </trkpt>
      <trkpt lat="46.13628" lon="4.8027">
        <ele>164.19999694824</ele>
        <time>2017-07-24T13:35:43Z</time>
      </trkpt>
      <trkpt lat="46.13586" lon="4.80221">
        <ele>164.39999389648</ele>
        <time>2017-07-24T13:35:52Z</time>
      </trkpt>
      <trkpt lat="46.13559" lon="4.80184">
        <ele>164.19999694824</ele>
        <time>2017-07-24T13:35:58Z</time>
      </trkpt>
      <trkpt lat="46.13554" lon="4.80177">
        <ele>164</ele>
        <time>2017-07-24T13:35:59Z</time>
      </trkpt>
      <trkpt lat="46.13527" lon="4.80134">
        <ele>163.60000610352</ele>
        <time>2017-07-24T13:36:05Z</time>
      </trkpt>
      <trkpt lat="46.135" lon="4.80094">
        <ele>163.19999694824</ele>
        <time>2017-07-24T13:36:11Z</time>
      </trkpt>
      <trkpt lat="46.13492" lon="4.80082">
        <ele>163</ele>
        <time>2017-07-24T13:36:13Z</time>
      </trkpt>
      <trkpt lat="46.13465" lon="4.8004">
        <ele>162.80000305176</ele>
        <time>2017-07-24T13:36:20Z</time>
      </trkpt>
      <trkpt lat="46.13434" lon="4.79991">
        <ele>162.39999389648</ele>
        <time>2017-07-24T13:36:28Z</time>
      </trkpt>
      <trkpt lat="46.13422" lon="4.79973">
        <ele>162</ele>
        <time>2017-07-24T13:36:31Z</time>
      </trkpt>
      <trkpt lat="46.13403" lon="4.79942">
        <ele>161.80000305176</ele>
        <time>2017-07-24T13:36:36Z</time>
      </trkpt>
      <trkpt lat="46.13373" lon="4.79899">
        <ele>161.19999694824</ele>
        <time>2017-07-24T13:36:43Z</time>
      </trkpt>
      <trkpt lat="46.1336" lon="4.79879">
        <ele>161</ele>
        <time>2017-07-24T13:36:46Z</time>
      </trkpt>
      <trkpt lat="46.13334" lon="4.79838">
        <ele>160.80000305176</ele>
        <time>2017-07-24T13:36:52Z</time>
      </trkpt>
      <trkpt lat="46.13299" lon="4.79782">
        <ele>160.39999389648</ele>
        <time>2017-07-24T13:37:00Z</time>
      </trkpt>
      <trkpt lat="46.13263" lon="4.79727">
        <ele>160</ele>
        <time>2017-07-24T13:37:08Z</time>
      </trkpt>
      <trkpt lat="46.13259" lon="4.7972">
        <ele>160</ele>
        <time>2017-07-24T13:37:09Z</time>
      </trkpt>
      <trkpt lat="46.13224" lon="4.79667">
        <ele>159.80000305176</ele>
        <time>2017-07-24T13:37:17Z</time>
      </trkpt>
      <trkpt lat="46.13186" lon="4.79613">
        <ele>159.80000305176</ele>
        <time>2017-07-24T13:37:26Z</time>
      </trkpt>
      <trkpt lat="46.13152" lon="4.7957">
        <ele>159.80000305176</ele>
        <time>2017-07-24T13:37:34Z</time>
      </trkpt>
      <trkpt lat="46.13108" lon="4.79521">
        <ele>160</ele>
        <time>2017-07-24T13:37:44Z</time>
      </trkpt>
      <trkpt lat="46.13061" lon="4.79475">
        <ele>160.19999694824</ele>
        <time>2017-07-24T13:37:54Z</time>
      </trkpt>
      <trkpt lat="46.13012" lon="4.79432">
        <ele>160.39999389648</ele>
        <time>2017-07-24T13:38:04Z</time>
      </trkpt>
      <trkpt lat="46.12963" lon="4.7939">
        <ele>160.39999389648</ele>
        <time>2017-07-24T13:38:14Z</time>
      </trkpt>
      <trkpt lat="46.12924" lon="4.79357">
        <ele>160.19999694824</ele>
        <time>2017-07-24T13:38:22Z</time>
      </trkpt>
      <trkpt lat="46.12902" lon="4.79337">
        <ele>161</ele>
        <time>2017-07-24T13:38:27Z</time>
      </trkpt>
      <trkpt lat="46.12888" lon="4.79326">
        <ele>161.80000305176</ele>
        <time>2017-07-24T13:38:30Z</time>
      </trkpt>
      <trkpt lat="46.12875" lon="4.79315">
        <ele>162.19999694824</ele>
        <time>2017-07-24T13:38:33Z</time>
      </trkpt>
      <trkpt lat="46.12857" lon="4.793">
        <ele>162.80000305176</ele>
        <time>2017-07-24T13:38:37Z</time>
      </trkpt>
      <trkpt lat="46.12849" lon="4.79292">
        <ele>163.19999694824</ele>
        <time>2017-07-24T13:38:39Z</time>
      </trkpt>
      <trkpt lat="46.12844" lon="4.79288">
        <ele>163.19999694824</ele>
        <time>2017-07-24T13:38:40Z</time>
      </trkpt>
      <trkpt lat="46.12811" lon="4.7926">
        <ele>164.39999389648</ele>
        <time>2017-07-24T13:38:48Z</time>
      </trkpt>
      <trkpt lat="46.12777" lon="4.7923">
        <ele>165.39999389648</ele>
        <time>2017-07-24T13:38:57Z</time>
      </trkpt>
      <trkpt lat="46.12743" lon="4.79201">
        <ele>166.19999694824</ele>
        <time>2017-07-24T13:39:05Z</time>
      </trkpt>
      <trkpt lat="46.12717" lon="4.79177">
        <ele>166.39999389648</ele>
        <time>2017-07-24T13:39:11Z</time>
      </trkpt>
      <trkpt lat="46.12712" lon="4.79173">
        <ele>166.39999389648</ele>
        <time>2017-07-24T13:39:12Z</time>
      </trkpt>
      <trkpt lat="46.12675" lon="4.7914">
        <ele>165.39999389648</ele>
        <time>2017-07-24T13:39:20Z</time>
      </trkpt>
      <trkpt lat="46.12669" lon="4.79136">
        <ele>165.19999694824</ele>
        <time>2017-07-24T13:39:21Z</time>
      </trkpt>
      <trkpt lat="46.12627" lon="4.79099">
        <ele>164.39999389648</ele>
        <time>2017-07-24T13:39:29Z</time>
      </trkpt>
      <trkpt lat="46.12622" lon="4.79094">
        <ele>164.19999694824</ele>
        <time>2017-07-24T13:39:30Z</time>
      </trkpt>
      <trkpt lat="46.12583" lon="4.79063">
        <ele>163.80000305176</ele>
        <time>2017-07-24T13:39:37Z</time>
      </trkpt>
      <trkpt lat="46.12547" lon="4.79033">
        <ele>164</ele>
        <time>2017-07-24T13:39:44Z</time>
      </trkpt>
      <trkpt lat="46.12542" lon="4.79028">
        <ele>164</ele>
        <time>2017-07-24T13:39:45Z</time>
      </trkpt>
      <trkpt lat="46.1249" lon="4.7899">
        <ele>164</ele>
        <time>2017-07-24T13:39:55Z</time>
      </trkpt>
      <trkpt lat="46.12447" lon="4.78956">
        <ele>164.19999694824</ele>
        <time>2017-07-24T13:40:04Z</time>
      </trkpt>
      <trkpt lat="46.12406" lon="4.78923">
        <ele>164.60000610352</ele>
        <time>2017-07-24T13:40:13Z</time>
      </trkpt>
      <trkpt lat="46.12373" lon="4.78896">
        <ele>164.60000610352</ele>
        <time>2017-07-24T13:40:20Z</time>
      </trkpt>
      <trkpt lat="46.12358" lon="4.78883">
        <ele>164.39999389648</ele>
        <time>2017-07-24T13:40:23Z</time>
      </trkpt>
      <trkpt lat="46.12345" lon="4.78869">
        <ele>164.39999389648</ele>
        <time>2017-07-24T13:40:26Z</time>
      </trkpt>
      <trkpt lat="46.1234" lon="4.78865">
        <ele>164.39999389648</ele>
        <time>2017-07-24T13:40:27Z</time>
      </trkpt>
      <trkpt lat="46.12308" lon="4.78849">
        <ele>164.80000305176</ele>
        <time>2017-07-24T13:40:33Z</time>
      </trkpt>
      <trkpt lat="46.12266" lon="4.78837">
        <ele>165</ele>
        <time>2017-07-24T13:40:40Z</time>
      </trkpt>
      <trkpt lat="46.12229" lon="4.78825">
        <ele>165.39999389648</ele>
        <time>2017-07-24T13:40:46Z</time>
      </trkpt>
      <trkpt lat="46.12223" lon="4.78822">
        <ele>165.39999389648</ele>
        <time>2017-07-24T13:40:47Z</time>
      </trkpt>
      <trkpt lat="46.12172" lon="4.78793">
        <ele>165.39999389648</ele>
        <time>2017-07-24T13:40:56Z</time>
      </trkpt>
      <trkpt lat="46.12132" lon="4.78768">
        <ele>166</ele>
        <time>2017-07-24T13:41:04Z</time>
      </trkpt>
      <trkpt lat="46.12112" lon="4.78757">
        <ele>166.39999389648</ele>
        <time>2017-07-24T13:41:08Z</time>
      </trkpt>
      <trkpt lat="46.12091" lon="4.78748">
        <ele>166.80000305176</ele>
        <time>2017-07-24T13:41:12Z</time>
      </trkpt>
      <trkpt lat="46.1207" lon="4.78739">
        <ele>167.39999389648</ele>
        <time>2017-07-24T13:41:16Z</time>
      </trkpt>
      <trkpt lat="46.12056" lon="4.78731">
        <ele>167.80000305176</ele>
        <time>2017-07-24T13:41:19Z</time>
      </trkpt>
      <trkpt lat="46.12037" lon="4.78721">
        <ele>168.39999389648</ele>
        <time>2017-07-24T13:41:23Z</time>
      </trkpt>
      <trkpt lat="46.12014" lon="4.7871">
        <ele>169.39999389648</ele>
        <time>2017-07-24T13:41:28Z</time>
      </trkpt>
      <trkpt lat="46.12009" lon="4.78708">
        <ele>169.39999389648</ele>
        <time>2017-07-24T13:41:29Z</time>
      </trkpt>
      <trkpt lat="46.11982" lon="4.78689">
        <ele>170.60000610352</ele>
        <time>2017-07-24T13:41:35Z</time>
      </trkpt>
      <trkpt lat="46.1194" lon="4.78658">
        <ele>171.19999694824</ele>
        <time>2017-07-24T13:41:44Z</time>
      </trkpt>
      <trkpt lat="46.11897" lon="4.7863">
        <ele>170</ele>
        <time>2017-07-24T13:41:52Z</time>
      </trkpt>
      <trkpt lat="46.11876" lon="4.78613">
        <ele>169.80000305176</ele>
        <time>2017-07-24T13:41:56Z</time>
      </trkpt>
      <trkpt lat="46.11865" lon="4.78604">
        <ele>169.60000610352</ele>
        <time>2017-07-24T13:41:58Z</time>
      </trkpt>
      <trkpt lat="46.11831" lon="4.78566">
        <ele>169.19999694824</ele>
        <time>2017-07-24T13:42:05Z</time>
      </trkpt>
      <trkpt lat="46.11787" lon="4.78522">
        <ele>169.39999389648</ele>
        <time>2017-07-24T13:42:14Z</time>
      </trkpt>
      <trkpt lat="46.11754" lon="4.78501">
        <ele>169.60000610352</ele>
        <time>2017-07-24T13:42:20Z</time>
      </trkpt>
      <trkpt lat="46.11702" lon="4.78471">
        <ele>169.19999694824</ele>
        <time>2017-07-24T13:42:29Z</time>
      </trkpt>
      <trkpt lat="46.11649" lon="4.78439">
        <ele>169</ele>
        <time>2017-07-24T13:42:38Z</time>
      </trkpt>
      <trkpt lat="46.11643" lon="4.78436">
        <ele>169</ele>
        <time>2017-07-24T13:42:39Z</time>
      </trkpt>
      <trkpt lat="46.11591" lon="4.78406">
        <ele>169</ele>
        <time>2017-07-24T13:42:48Z</time>
      </trkpt>
      <trkpt lat="46.11579" lon="4.784">
        <ele>169</ele>
        <time>2017-07-24T13:42:50Z</time>
      </trkpt>
      <trkpt lat="46.11536" lon="4.78379">
        <ele>168.60000610352</ele>
        <time>2017-07-24T13:42:58Z</time>
      </trkpt>
      <trkpt lat="46.11505" lon="4.78366">
        <ele>168.60000610352</ele>
        <time>2017-07-24T13:43:04Z</time>
      </trkpt>
      <trkpt lat="46.115" lon="4.78364">
        <ele>168.60000610352</ele>
        <time>2017-07-24T13:43:05Z</time>
      </trkpt>
      <trkpt lat="46.11466" lon="4.78348">
        <ele>168.60000610352</ele>
        <time>2017-07-24T13:43:12Z</time>
      </trkpt>
      <trkpt lat="46.11414" lon="4.78321">
        <ele>168.80000305176</ele>
        <time>2017-07-24T13:43:22Z</time>
      </trkpt>
      <trkpt lat="46.11383" lon="4.783">
        <ele>168.80000305176</ele>
        <time>2017-07-24T13:43:29Z</time>
      </trkpt>
      <trkpt lat="46.11374" lon="4.78293">
        <ele>169</ele>
        <time>2017-07-24T13:43:31Z</time>
      </trkpt>
      <trkpt lat="46.11337" lon="4.78263">
        <ele>169</ele>
        <time>2017-07-24T13:43:39Z</time>
      </trkpt>
      <trkpt lat="46.11296" lon="4.7823">
        <ele>168.39999389648</ele>
        <time>2017-07-24T13:43:47Z</time>
      </trkpt>
      <trkpt lat="46.11254" lon="4.78192">
        <ele>168.39999389648</ele>
        <time>2017-07-24T13:43:55Z</time>
      </trkpt>
      <trkpt lat="46.11209" lon="4.78147">
        <ele>169.19999694824</ele>
        <time>2017-07-24T13:44:04Z</time>
      </trkpt>
      <trkpt lat="46.11168" lon="4.78108">
        <ele>169</ele>
        <time>2017-07-24T13:44:12Z</time>
      </trkpt>
      <trkpt lat="46.11129" lon="4.78081">
        <ele>169.19999694824</ele>
        <time>2017-07-24T13:44:19Z</time>
      </trkpt>
      <trkpt lat="46.11079" lon="4.78052">
        <ele>169.19999694824</ele>
        <time>2017-07-24T13:44:28Z</time>
      </trkpt>
      <trkpt lat="46.11041" lon="4.78034">
        <ele>168.80000305176</ele>
        <time>2017-07-24T13:44:35Z</time>
      </trkpt>
      <trkpt lat="46.11001" lon="4.78021">
        <ele>168.80000305176</ele>
        <time>2017-07-24T13:44:42Z</time>
      </trkpt>
      <trkpt lat="46.10945" lon="4.78003">
        <ele>168.39999389648</ele>
        <time>2017-07-24T13:44:51Z</time>
      </trkpt>
      <trkpt lat="46.10939" lon="4.78001">
        <ele>168.39999389648</ele>
        <time>2017-07-24T13:44:52Z</time>
      </trkpt>
      <trkpt lat="46.10897" lon="4.77988">
        <ele>168</ele>
        <time>2017-07-24T13:44:59Z</time>
      </trkpt>
      <trkpt lat="46.10846" lon="4.7797">
        <ele>168.60000610352</ele>
        <time>2017-07-24T13:45:08Z</time>
      </trkpt>
      <trkpt lat="46.10804" lon="4.77951">
        <ele>167.60000610352</ele>
        <time>2017-07-24T13:45:15Z</time>
      </trkpt>
      <trkpt lat="46.10797" lon="4.77948">
        <ele>167.39999389648</ele>
        <time>2017-07-24T13:45:16Z</time>
      </trkpt>
      <trkpt lat="46.10777" lon="4.77934">
        <ele>167</ele>
        <time>2017-07-24T13:45:19Z</time>
      </trkpt>
      <trkpt lat="46.10771" lon="4.77927">
        <ele>167</ele>
        <time>2017-07-24T13:45:20Z</time>
      </trkpt>
      <trkpt lat="46.1075" lon="4.77907">
        <ele>166.39999389648</ele>
        <time>2017-07-24T13:45:23Z</time>
      </trkpt>
      <trkpt lat="46.10736" lon="4.77891">
        <ele>165.80000305176</ele>
        <time>2017-07-24T13:45:25Z</time>
      </trkpt>
      <trkpt lat="46.10722" lon="4.77872">
        <ele>165</ele>
        <time>2017-07-24T13:45:27Z</time>
      </trkpt>
      <trkpt lat="46.10701" lon="4.77843">
        <ele>164</ele>
        <time>2017-07-24T13:45:30Z</time>
      </trkpt>
      <trkpt lat="46.10672" lon="4.77805">
        <ele>162.80000305176</ele>
        <time>2017-07-24T13:45:34Z</time>
      </trkpt>
      <trkpt lat="46.10646" lon="4.77769">
        <ele>162</ele>
        <time>2017-07-24T13:45:38Z</time>
      </trkpt>
      <trkpt lat="46.1064" lon="4.77761">
        <ele>161.80000305176</ele>
        <time>2017-07-24T13:45:39Z</time>
      </trkpt>
      <trkpt lat="46.10611" lon="4.77723">
        <ele>161.39999389648</ele>
        <time>2017-07-24T13:45:44Z</time>
      </trkpt>
      <trkpt lat="46.10569" lon="4.77684">
        <ele>161.80000305176</ele>
        <time>2017-07-24T13:45:51Z</time>
      </trkpt>
      <trkpt lat="46.10535" lon="4.77665">
        <ele>162.39999389648</ele>
        <time>2017-07-24T13:45:57Z</time>
      </trkpt>
      <trkpt lat="46.10513" lon="4.77656">
        <ele>162.80000305176</ele>
        <time>2017-07-24T13:46:01Z</time>
      </trkpt>
      <trkpt lat="46.10503" lon="4.77652">
        <ele>163</ele>
        <time>2017-07-24T13:46:03Z</time>
      </trkpt>
      <trkpt lat="46.10492" lon="4.77648">
        <ele>163.39999389648</ele>
        <time>2017-07-24T13:46:05Z</time>
      </trkpt>
      <trkpt lat="46.10476" lon="4.77642">
        <ele>163.80000305176</ele>
        <time>2017-07-24T13:46:08Z</time>
      </trkpt>
      <trkpt lat="46.10454" lon="4.77633">
        <ele>164</ele>
        <time>2017-07-24T13:46:12Z</time>
      </trkpt>
      <trkpt lat="46.10423" lon="4.77612">
        <ele>164.39999389648</ele>
        <time>2017-07-24T13:46:18Z</time>
      </trkpt>
      <trkpt lat="46.10407" lon="4.776">
        <ele>165</ele>
        <time>2017-07-24T13:46:21Z</time>
      </trkpt>
      <trkpt lat="46.10384" lon="4.77581">
        <ele>166</ele>
        <time>2017-07-24T13:46:26Z</time>
      </trkpt>
      <trkpt lat="46.10344" lon="4.77549">
        <ele>166.60000610352</ele>
        <time>2017-07-24T13:46:35Z</time>
      </trkpt>
      <trkpt lat="46.10325" lon="4.77536">
        <ele>167.19999694824</ele>
        <time>2017-07-24T13:46:40Z</time>
      </trkpt>
      <trkpt lat="46.10321" lon="4.77533">
        <ele>167.19999694824</ele>
        <time>2017-07-24T13:46:41Z</time>
      </trkpt>
      <trkpt lat="46.1029" lon="4.77521">
        <ele>168.19999694824</ele>
        <time>2017-07-24T13:46:49Z</time>
      </trkpt>
      <trkpt lat="46.10267" lon="4.77514">
        <ele>169.19999694824</ele>
        <time>2017-07-24T13:46:54Z</time>
      </trkpt>
      <trkpt lat="46.10262" lon="4.77514">
        <ele>169.39999389648</ele>
        <time>2017-07-24T13:46:55Z</time>
      </trkpt>
      <trkpt lat="46.10244" lon="4.77512">
        <ele>170.19999694824</ele>
        <time>2017-07-24T13:46:59Z</time>
      </trkpt>
      <trkpt lat="46.10219" lon="4.77511">
        <ele>170.80000305176</ele>
        <time>2017-07-24T13:47:04Z</time>
      </trkpt>
      <trkpt lat="46.10204" lon="4.77512">
        <ele>171.19999694824</ele>
        <time>2017-07-24T13:47:07Z</time>
      </trkpt>
      <trkpt lat="46.10176" lon="4.77511">
        <ele>172</ele>
        <time>2017-07-24T13:47:13Z</time>
      </trkpt>
      <trkpt lat="46.10162" lon="4.7751">
        <ele>172.39999389648</ele>
        <time>2017-07-24T13:47:16Z</time>
      </trkpt>
      <trkpt lat="46.10134" lon="4.77506">
        <ele>173.39999389648</ele>
        <time>2017-07-24T13:47:22Z</time>
      </trkpt>
      <trkpt lat="46.10125" lon="4.77504">
        <ele>173.39999389648</ele>
        <time>2017-07-24T13:47:24Z</time>
      </trkpt>
      <trkpt lat="46.10094" lon="4.77494">
        <ele>174.19999694824</ele>
        <time>2017-07-24T13:47:31Z</time>
      </trkpt>
      <trkpt lat="46.10061" lon="4.77479">
        <ele>174.60000610352</ele>
        <time>2017-07-24T13:47:39Z</time>
      </trkpt>
      <trkpt lat="46.10049" lon="4.77472">
        <ele>174.80000305176</ele>
        <time>2017-07-24T13:47:42Z</time>
      </trkpt>
      <trkpt lat="46.10045" lon="4.77469">
        <ele>175</ele>
        <time>2017-07-24T13:47:43Z</time>
      </trkpt>
      <trkpt lat="46.10025" lon="4.77454">
        <ele>175.60000610352</ele>
        <time>2017-07-24T13:47:49Z</time>
      </trkpt>
      <trkpt lat="46.10023" lon="4.77451">
        <ele>175.80000305176</ele>
        <time>2017-07-24T13:47:50Z</time>
      </trkpt>
      <trkpt lat="46.10021" lon="4.77441">
        <ele>176</ele>
        <time>2017-07-24T13:47:54Z</time>
      </trkpt>
      <trkpt lat="46.1002" lon="4.77439">
        <ele>175.39999389648</ele>
        <time>2017-07-24T13:48:53Z</time>
      </trkpt>
      <trkpt lat="46.10019" lon="4.77432">
        <ele>175.39999389648</ele>
        <time>2017-07-24T13:48:55Z</time>
      </trkpt>
      <trkpt lat="46.10021" lon="4.77409">
        <ele>175.39999389648</ele>
        <time>2017-07-24T13:48:59Z</time>
      </trkpt>
      <trkpt lat="46.10027" lon="4.77354">
        <ele>175.19999694824</ele>
        <time>2017-07-24T13:49:06Z</time>
      </trkpt>
      <trkpt lat="46.10032" lon="4.77319">
        <ele>174.39999389648</ele>
        <time>2017-07-24T13:49:10Z</time>
      </trkpt>
      <trkpt lat="46.10036" lon="4.77293">
        <ele>173.60000610352</ele>
        <time>2017-07-24T13:49:13Z</time>
      </trkpt>
      <trkpt lat="46.10038" lon="4.77274">
        <ele>173.19999694824</ele>
        <time>2017-07-24T13:49:15Z</time>
      </trkpt>
      <trkpt lat="46.10044" lon="4.77233">
        <ele>172.19999694824</ele>
        <time>2017-07-24T13:49:19Z</time>
      </trkpt>
      <trkpt lat="46.10046" lon="4.77222">
        <ele>172</ele>
        <time>2017-07-24T13:49:20Z</time>
      </trkpt>
      <trkpt lat="46.10053" lon="4.77177">
        <ele>170.80000305176</ele>
        <time>2017-07-24T13:49:24Z</time>
      </trkpt>
      <trkpt lat="46.10059" lon="4.77142">
        <ele>169.80000305176</ele>
        <time>2017-07-24T13:49:27Z</time>
      </trkpt>
      <trkpt lat="46.10064" lon="4.77107">
        <ele>168.60000610352</ele>
        <time>2017-07-24T13:49:30Z</time>
      </trkpt>
      <trkpt lat="46.10069" lon="4.77072">
        <ele>167.19999694824</ele>
        <time>2017-07-24T13:49:33Z</time>
      </trkpt>
      <trkpt lat="46.10071" lon="4.77049">
        <ele>166.39999389648</ele>
        <time>2017-07-24T13:49:35Z</time>
      </trkpt>
      <trkpt lat="46.10072" lon="4.77037">
        <ele>166</ele>
        <time>2017-07-24T13:49:36Z</time>
      </trkpt>
      <trkpt lat="46.10074" lon="4.77026">
        <ele>165.60000610352</ele>
        <time>2017-07-24T13:49:37Z</time>
      </trkpt>
      <trkpt lat="46.10077" lon="4.77003">
        <ele>164.80000305176</ele>
        <time>2017-07-24T13:49:39Z</time>
      </trkpt>
      <trkpt lat="46.10068" lon="4.76986">
        <ele>164</ele>
        <time>2017-07-24T13:49:41Z</time>
      </trkpt>
      <trkpt lat="46.10061" lon="4.76983">
        <ele>163.39999389648</ele>
        <time>2017-07-24T13:49:42Z</time>
      </trkpt>
      <trkpt lat="46.10041" lon="4.76969">
        <ele>162.19999694824</ele>
        <time>2017-07-24T13:49:45Z</time>
      </trkpt>
      <trkpt lat="46.10032" lon="4.76951">
        <ele>161.60000610352</ele>
        <time>2017-07-24T13:49:47Z</time>
      </trkpt>
      <trkpt lat="46.10017" lon="4.76913">
        <ele>161.39999389648</ele>
        <time>2017-07-24T13:49:51Z</time>
      </trkpt>
      <trkpt lat="46.09995" lon="4.76859">
        <ele>161.39999389648</ele>
        <time>2017-07-24T13:49:57Z</time>
      </trkpt>
      <trkpt lat="46.09988" lon="4.76841">
        <ele>161.39999389648</ele>
        <time>2017-07-24T13:49:59Z</time>
      </trkpt>
      <trkpt lat="46.09967" lon="4.7679">
        <ele>161.19999694824</ele>
        <time>2017-07-24T13:50:05Z</time>
      </trkpt>
      <trkpt lat="46.09964" lon="4.76783">
        <ele>161.19999694824</ele>
        <time>2017-07-24T13:50:06Z</time>
      </trkpt>
      <trkpt lat="46.09945" lon="4.76742">
        <ele>161.19999694824</ele>
        <time>2017-07-24T13:50:12Z</time>
      </trkpt>
      <trkpt lat="46.09925" lon="4.76694">
        <ele>161.19999694824</ele>
        <time>2017-07-24T13:50:19Z</time>
      </trkpt>
      <trkpt lat="46.09902" lon="4.76646">
        <ele>161.19999694824</ele>
        <time>2017-07-24T13:50:26Z</time>
      </trkpt>
      <trkpt lat="46.09874" lon="4.76591">
        <ele>160.60000610352</ele>
        <time>2017-07-24T13:50:34Z</time>
      </trkpt>
      <trkpt lat="46.09847" lon="4.76536">
        <ele>160.39999389648</ele>
        <time>2017-07-24T13:50:42Z</time>
      </trkpt>
      <trkpt lat="46.09822" lon="4.76487">
        <ele>160.39999389648</ele>
        <time>2017-07-24T13:50:49Z</time>
      </trkpt>
      <trkpt lat="46.09797" lon="4.76437">
        <ele>160.19999694824</ele>
        <time>2017-07-24T13:50:56Z</time>
      </trkpt>
      <trkpt lat="46.09794" lon="4.7643">
        <ele>160.19999694824</ele>
        <time>2017-07-24T13:50:57Z</time>
      </trkpt>
      <trkpt lat="46.0978" lon="4.76401">
        <ele>160.19999694824</ele>
        <time>2017-07-24T13:51:01Z</time>
      </trkpt>
      <trkpt lat="46.09747" lon="4.76336">
        <ele>160.39999389648</ele>
        <time>2017-07-24T13:51:10Z</time>
      </trkpt>
      <trkpt lat="46.09744" lon="4.76329">
        <ele>160.39999389648</ele>
        <time>2017-07-24T13:51:11Z</time>
      </trkpt>
      <trkpt lat="46.09719" lon="4.76277">
        <ele>160</ele>
        <time>2017-07-24T13:51:18Z</time>
      </trkpt>
      <trkpt lat="46.09696" lon="4.76231">
        <ele>159</ele>
        <time>2017-07-24T13:51:24Z</time>
      </trkpt>
      <trkpt lat="46.09692" lon="4.76223">
        <ele>158.80000305176</ele>
        <time>2017-07-24T13:51:25Z</time>
      </trkpt>
      <trkpt lat="46.09685" lon="4.76208">
        <ele>158.60000610352</ele>
        <time>2017-07-24T13:51:27Z</time>
      </trkpt>
      <trkpt lat="46.0967" lon="4.76175">
        <ele>158.80000305176</ele>
        <time>2017-07-24T13:51:32Z</time>
      </trkpt>
      <trkpt lat="46.09661" lon="4.76158">
        <ele>158.60000610352</ele>
        <time>2017-07-24T13:51:37Z</time>
      </trkpt>
      <trkpt lat="46.09656" lon="4.76141">
        <ele>157.80000305176</ele>
        <time>2017-07-24T13:52:19Z</time>
      </trkpt>
      <trkpt lat="46.09655" lon="4.76139">
        <ele>157.80000305176</ele>
        <time>2017-07-24T13:52:20Z</time>
      </trkpt>
      <trkpt lat="46.09652" lon="4.76137">
        <ele>158</ele>
        <time>2017-07-24T13:52:22Z</time>
      </trkpt>
      <trkpt lat="46.09643" lon="4.76124">
        <ele>158</ele>
        <time>2017-07-24T13:52:26Z</time>
      </trkpt>
      <trkpt lat="46.0964" lon="4.76119">
        <ele>158</ele>
        <time>2017-07-24T13:52:27Z</time>
      </trkpt>
      <trkpt lat="46.0963" lon="4.761">
        <ele>158.19999694824</ele>
        <time>2017-07-24T13:52:31Z</time>
      </trkpt>
      <trkpt lat="46.09614" lon="4.76066">
        <ele>158.60000610352</ele>
        <time>2017-07-24T13:52:37Z</time>
      </trkpt>
      <trkpt lat="46.09611" lon="4.76061">
        <ele>158.60000610352</ele>
        <time>2017-07-24T13:52:38Z</time>
      </trkpt>
      <trkpt lat="46.09605" lon="4.76049">
        <ele>158.80000305176</ele>
        <time>2017-07-24T13:52:40Z</time>
      </trkpt>
      <trkpt lat="46.09591" lon="4.76026">
        <ele>158.80000305176</ele>
        <time>2017-07-24T13:52:44Z</time>
      </trkpt>
      <trkpt lat="46.09563" lon="4.75994">
        <ele>158.80000305176</ele>
        <time>2017-07-24T13:52:51Z</time>
      </trkpt>
      <trkpt lat="46.09546" lon="4.75972">
        <ele>158.80000305176</ele>
        <time>2017-07-24T13:52:56Z</time>
      </trkpt>
      <trkpt lat="46.09539" lon="4.75963">
        <ele>158.60000610352</ele>
        <time>2017-07-24T13:52:58Z</time>
      </trkpt>
      <trkpt lat="46.09527" lon="4.75948">
        <ele>158.60000610352</ele>
        <time>2017-07-24T13:53:01Z</time>
      </trkpt>
      <trkpt lat="46.09484" lon="4.75897">
        <ele>159</ele>
        <time>2017-07-24T13:53:11Z</time>
      </trkpt>
      <trkpt lat="46.09479" lon="4.75893">
        <ele>159.19999694824</ele>
        <time>2017-07-24T13:53:12Z</time>
      </trkpt>
      <trkpt lat="46.09448" lon="4.75857">
        <ele>159.60000610352</ele>
        <time>2017-07-24T13:53:19Z</time>
      </trkpt>
      <trkpt lat="46.09399" lon="4.7581">
        <ele>159.39999389648</ele>
        <time>2017-07-24T13:53:29Z</time>
      </trkpt>
      <trkpt lat="46.09351" lon="4.75763">
        <ele>159.60000610352</ele>
        <time>2017-07-24T13:53:39Z</time>
      </trkpt>
      <trkpt lat="46.09346" lon="4.75759">
        <ele>159.60000610352</ele>
        <time>2017-07-24T13:53:40Z</time>
      </trkpt>
      <trkpt lat="46.09307" lon="4.7573">
        <ele>159.80000305176</ele>
        <time>2017-07-24T13:53:48Z</time>
      </trkpt>
      <trkpt lat="46.09266" lon="4.757">
        <ele>160.39999389648</ele>
        <time>2017-07-24T13:53:57Z</time>
      </trkpt>
      <trkpt lat="46.09227" lon="4.75672">
        <ele>160.39999389648</ele>
        <time>2017-07-24T13:54:05Z</time>
      </trkpt>
      <trkpt lat="46.09188" lon="4.75645">
        <ele>160.19999694824</ele>
        <time>2017-07-24T13:54:12Z</time>
      </trkpt>
      <trkpt lat="46.09136" lon="4.75611">
        <ele>160.19999694824</ele>
        <time>2017-07-24T13:54:20Z</time>
      </trkpt>
      <trkpt lat="46.09123" lon="4.75602">
        <ele>160.19999694824</ele>
        <time>2017-07-24T13:54:22Z</time>
      </trkpt>
      <trkpt lat="46.09074" lon="4.75569">
        <ele>159.19999694824</ele>
        <time>2017-07-24T13:54:29Z</time>
      </trkpt>
      <trkpt lat="46.0906" lon="4.75559">
        <ele>158.80000305176</ele>
        <time>2017-07-24T13:54:31Z</time>
      </trkpt>
      <trkpt lat="46.09047" lon="4.7555">
        <ele>158.80000305176</ele>
        <time>2017-07-24T13:54:33Z</time>
      </trkpt>
      <trkpt lat="46.09014" lon="4.75528">
        <ele>158.39999389648</ele>
        <time>2017-07-24T13:54:38Z</time>
      </trkpt>
      <trkpt lat="46.08978" lon="4.75507">
        <ele>158.39999389648</ele>
        <time>2017-07-24T13:54:44Z</time>
      </trkpt>
      <trkpt lat="46.08969" lon="4.75502">
        <ele>158.19999694824</ele>
        <time>2017-07-24T13:54:46Z</time>
      </trkpt>
      <trkpt lat="46.08952" lon="4.75496">
        <ele>158.19999694824</ele>
        <time>2017-07-24T13:54:49Z</time>
      </trkpt>
      <trkpt lat="46.08921" lon="4.75486">
        <ele>158.19999694824</ele>
        <time>2017-07-24T13:54:54Z</time>
      </trkpt>
      <trkpt lat="46.08915" lon="4.75485">
        <ele>158.19999694824</ele>
        <time>2017-07-24T13:54:55Z</time>
      </trkpt>
      <trkpt lat="46.08877" lon="4.75471">
        <ele>158.60000610352</ele>
        <time>2017-07-24T13:55:01Z</time>
      </trkpt>
      <trkpt lat="46.08841" lon="4.75456">
        <ele>158.80000305176</ele>
        <time>2017-07-24T13:55:07Z</time>
      </trkpt>
      <trkpt lat="46.08796" lon="4.75437">
        <ele>158.60000610352</ele>
        <time>2017-07-24T13:55:14Z</time>
      </trkpt>
      <trkpt lat="46.08749" lon="4.75419">
        <ele>158.80000305176</ele>
        <time>2017-07-24T13:55:21Z</time>
      </trkpt>
      <trkpt lat="46.08712" lon="4.7541">
        <ele>159.39999389648</ele>
        <time>2017-07-24T13:55:27Z</time>
      </trkpt>
      <trkpt lat="46.08681" lon="4.75403">
        <ele>159.80000305176</ele>
        <time>2017-07-24T13:55:32Z</time>
      </trkpt>
      <trkpt lat="46.08675" lon="4.75401">
        <ele>160</ele>
        <time>2017-07-24T13:55:33Z</time>
      </trkpt>
      <trkpt lat="46.08669" lon="4.75398">
        <ele>160.19999694824</ele>
        <time>2017-07-24T13:55:34Z</time>
      </trkpt>
      <trkpt lat="46.08638" lon="4.7538">
        <ele>160.60000610352</ele>
        <time>2017-07-24T13:55:39Z</time>
      </trkpt>
      <trkpt lat="46.08618" lon="4.75368">
        <ele>160.80000305176</ele>
        <time>2017-07-24T13:55:42Z</time>
      </trkpt>
      <trkpt lat="46.08591" lon="4.75351">
        <ele>160.80000305176</ele>
        <time>2017-07-24T13:55:46Z</time>
      </trkpt>
      <trkpt lat="46.08555" lon="4.75326">
        <ele>159.80000305176</ele>
        <time>2017-07-24T13:55:51Z</time>
      </trkpt>
      <trkpt lat="46.08532" lon="4.75313">
        <ele>159</ele>
        <time>2017-07-24T13:55:54Z</time>
      </trkpt>
      <trkpt lat="46.08516" lon="4.75311">
        <ele>158.60000610352</ele>
        <time>2017-07-24T13:55:56Z</time>
      </trkpt>
      <trkpt lat="46.08508" lon="4.75311">
        <ele>158.39999389648</ele>
        <time>2017-07-24T13:55:57Z</time>
      </trkpt>
      <trkpt lat="46.08492" lon="4.75314">
        <ele>158.19999694824</ele>
        <time>2017-07-24T13:55:59Z</time>
      </trkpt>
      <trkpt lat="46.08469" lon="4.75321">
        <ele>158</ele>
        <time>2017-07-24T13:56:02Z</time>
      </trkpt>
      <trkpt lat="46.08419" lon="4.75341">
        <ele>158.19999694824</ele>
        <time>2017-07-24T13:56:09Z</time>
      </trkpt>
      <trkpt lat="46.08392" lon="4.75357">
        <ele>158.19999694824</ele>
        <time>2017-07-24T13:56:13Z</time>
      </trkpt>
      <trkpt lat="46.08381" lon="4.7537">
        <ele>158.39999389648</ele>
        <time>2017-07-24T13:56:15Z</time>
      </trkpt>
      <trkpt lat="46.08344" lon="4.75419">
        <ele>158.19999694824</ele>
        <time>2017-07-24T13:56:22Z</time>
      </trkpt>
      <trkpt lat="46.0831" lon="4.75465">
        <ele>158.19999694824</ele>
        <time>2017-07-24T13:56:29Z</time>
      </trkpt>
      <trkpt lat="46.08271" lon="4.75514">
        <ele>158.60000610352</ele>
        <time>2017-07-24T13:56:37Z</time>
      </trkpt>
      <trkpt lat="46.08236" lon="4.75559">
        <ele>158.60000610352</ele>
        <time>2017-07-24T13:56:44Z</time>
      </trkpt>
      <trkpt lat="46.08198" lon="4.7561">
        <ele>158.80000305176</ele>
        <time>2017-07-24T13:56:52Z</time>
      </trkpt>
      <trkpt lat="46.08155" lon="4.75663">
        <ele>159.19999694824</ele>
        <time>2017-07-24T13:57:00Z</time>
      </trkpt>
      <trkpt lat="46.08134" lon="4.75693">
        <ele>159.39999389648</ele>
        <time>2017-07-24T13:57:05Z</time>
      </trkpt>
      <trkpt lat="46.08111" lon="4.75734">
        <ele>159.19999694824</ele>
        <time>2017-07-24T13:57:11Z</time>
      </trkpt>
      <trkpt lat="46.08084" lon="4.75783">
        <ele>159.80000305176</ele>
        <time>2017-07-24T13:57:18Z</time>
      </trkpt>
      <trkpt lat="46.08061" lon="4.75816">
        <ele>160.19999694824</ele>
        <time>2017-07-24T13:57:23Z</time>
      </trkpt>
      <trkpt lat="46.0805" lon="4.75827">
        <ele>160.19999694824</ele>
        <time>2017-07-24T13:57:25Z</time>
      </trkpt>
      <trkpt lat="46.08008" lon="4.7586">
        <ele>160.39999389648</ele>
        <time>2017-07-24T13:57:32Z</time>
      </trkpt>
      <trkpt lat="46.07967" lon="4.75891">
        <ele>159.60000610352</ele>
        <time>2017-07-24T13:57:39Z</time>
      </trkpt>
      <trkpt lat="46.07925" lon="4.75919">
        <ele>158.80000305176</ele>
        <time>2017-07-24T13:57:46Z</time>
      </trkpt>
      <trkpt lat="46.07901" lon="4.75936">
        <ele>158.60000610352</ele>
        <time>2017-07-24T13:57:50Z</time>
      </trkpt>
      <trkpt lat="46.07883" lon="4.75949">
        <ele>158.60000610352</ele>
        <time>2017-07-24T13:57:53Z</time>
      </trkpt>
      <trkpt lat="46.07847" lon="4.75971">
        <ele>158.60000610352</ele>
        <time>2017-07-24T13:57:59Z</time>
      </trkpt>
      <trkpt lat="46.07816" lon="4.75991">
        <ele>158.60000610352</ele>
        <time>2017-07-24T13:58:05Z</time>
      </trkpt>
      <trkpt lat="46.07769" lon="4.76025">
        <ele>158.80000305176</ele>
        <time>2017-07-24T13:58:14Z</time>
      </trkpt>
      <trkpt lat="46.07723" lon="4.76062">
        <ele>158.60000610352</ele>
        <time>2017-07-24T13:58:22Z</time>
      </trkpt>
      <trkpt lat="46.07687" lon="4.76099">
        <ele>158.39999389648</ele>
        <time>2017-07-24T13:58:29Z</time>
      </trkpt>
      <trkpt lat="46.07655" lon="4.76133">
        <ele>158</ele>
        <time>2017-07-24T13:58:36Z</time>
      </trkpt>
      <trkpt lat="46.0764" lon="4.7615">
        <ele>158</ele>
        <time>2017-07-24T13:58:39Z</time>
      </trkpt>
      <trkpt lat="46.07624" lon="4.76166">
        <ele>158.19999694824</ele>
        <time>2017-07-24T13:58:42Z</time>
      </trkpt>
      <trkpt lat="46.07588" lon="4.76204">
        <ele>158.39999389648</ele>
        <time>2017-07-24T13:58:49Z</time>
      </trkpt>
      <trkpt lat="46.07557" lon="4.76235">
        <ele>158.39999389648</ele>
        <time>2017-07-24T13:58:55Z</time>
      </trkpt>
      <trkpt lat="46.07516" lon="4.7628">
        <ele>158.39999389648</ele>
        <time>2017-07-24T13:59:03Z</time>
      </trkpt>
      <trkpt lat="46.07485" lon="4.76312">
        <ele>158.39999389648</ele>
        <time>2017-07-24T13:59:10Z</time>
      </trkpt>
      <trkpt lat="46.07473" lon="4.76306">
        <ele>158.19999694824</ele>
        <time>2017-07-24T13:59:13Z</time>
      </trkpt>
      <trkpt lat="46.07468" lon="4.76289">
        <ele>158</ele>
        <time>2017-07-24T13:59:16Z</time>
      </trkpt>
      <trkpt lat="46.07468" lon="4.76284">
        <ele>158</ele>
        <time>2017-07-24T13:59:17Z</time>
      </trkpt>
      <trkpt lat="46.07467" lon="4.76278">
        <ele>157.60000610352</ele>
        <time>2017-07-24T13:59:19Z</time>
      </trkpt>
      <trkpt lat="46.07467" lon="4.76276">
        <ele>157.60000610352</ele>
        <time>2017-07-24T13:59:20Z</time>
      </trkpt>
      <trkpt lat="46.07467" lon="4.76269">
        <ele>157</ele>
        <time>2017-07-24T13:59:24Z</time>
      </trkpt>
      <trkpt lat="46.07466" lon="4.76264">
        <ele>157</ele>
        <time>2017-07-24T13:59:26Z</time>
      </trkpt>
      <trkpt lat="46.07464" lon="4.76242">
        <ele>156.80000305176</ele>
        <time>2017-07-24T13:59:31Z</time>
      </trkpt>
      <trkpt lat="46.07465" lon="4.76233">
        <ele>156.60000610352</ele>
        <time>2017-07-24T13:59:33Z</time>
      </trkpt>
      <trkpt lat="46.07465" lon="4.76209">
        <ele>156.39999389648</ele>
        <time>2017-07-24T13:59:38Z</time>
      </trkpt>
      <trkpt lat="46.07454" lon="4.76199">
        <ele>156.19999694824</ele>
        <time>2017-07-24T13:59:42Z</time>
      </trkpt>
      <trkpt lat="46.07438" lon="4.76191">
        <ele>155.80000305176</ele>
        <time>2017-07-24T13:59:48Z</time>
      </trkpt>
      <trkpt lat="46.07422" lon="4.76175">
        <ele>155.80000305176</ele>
        <time>2017-07-24T13:59:53Z</time>
      </trkpt>
      <trkpt lat="46.07415" lon="4.7617">
        <ele>155.60000610352</ele>
        <time>2017-07-24T13:59:55Z</time>
      </trkpt>
      <trkpt lat="46.07397" lon="4.76169">
        <ele>155.39999389648</ele>
        <time>2017-07-24T13:59:59Z</time>
      </trkpt>
      <trkpt lat="46.07376" lon="4.76179">
        <ele>155.39999389648</ele>
        <time>2017-07-24T14:00:04Z</time>
      </trkpt>
      <trkpt lat="46.07367" lon="4.76183">
        <ele>155.60000610352</ele>
        <time>2017-07-24T14:00:06Z</time>
      </trkpt>
      <trkpt lat="46.07359" lon="4.76189">
        <ele>155.80000305176</ele>
        <time>2017-07-24T14:00:08Z</time>
      </trkpt>
      <trkpt lat="46.07351" lon="4.76195">
        <ele>155.80000305176</ele>
        <time>2017-07-24T14:00:10Z</time>
      </trkpt>
      <trkpt lat="46.07338" lon="4.76206">
        <ele>156</ele>
        <time>2017-07-24T14:00:15Z</time>
      </trkpt>
      <trkpt lat="46.07333" lon="4.76207">
        <ele>156</ele>
        <time>2017-07-24T14:00:18Z</time>
      </trkpt>
      <trkpt lat="46.07332" lon="4.76209">
        <ele>155.80000305176</ele>
        <time>2017-07-24T14:00:20Z</time>
      </trkpt>
      <trkpt lat="46.07332" lon="4.7621">
        <ele>155.80000305176</ele>
        <time>2017-07-24T14:00:21Z</time>
      </trkpt>
    </trkseg>
  </trk>
</gpx>